<?xml version="1.0" encoding="UTF-8"?>
<gpx version="1.1" creator="https://www.youtrack.es" xsi:schemaLocation="http://www.topografix.com/GPX/1/1 http://www.topografix.com/GPX/1/1/gpx.xsd http://www.garmin.com/xmlschemas/GpxExtensions/v3 http://www.garmin.com/xmlschemas/GpxExtensionsv3.xsd http://www.garmin.com/xmlschemas/TrackPointExtension/v1 http://www.garmin.com/xmlschemas/TrackPointExtensionv1.xsd" xmlns:gpxtpx="http://www.garmin.com/xmlschemas/TrackPointExtension/v1" xmlns:gpxx="http://www.garmin.com/xmlschemas/GpxExtensions/v3" xmlns:xsi="http://www.w3.org/2001/XMLSchema-instance">
  <metadata>
    <link href="https://www.youtrack.es">
      <text>YouTrack.es</text>
    </link>
    <time>2026-05-08T21:24:17Z</time>
  </metadata>
  <trk>
    <src>https://www.youtrack.es</src>
    <link href="https://www.youtrack.es/ruta/33150-zurich-basilea-colmar-estrasburgo-selva-negra-lago-de-constanza-zurich">
      <text>YouTrack.es</text>
    </link>
    <trkseg>
      <trkpt lat="47.4314060" lon="8.5624130">
        <ele>439.0</ele>
        <time>2022-06-02T05:14:10Z</time>
      </trkpt>
      <trkpt lat="47.4313870" lon="8.5623860">
        <ele>435.8</ele>
        <time>2022-06-02T05:14:11Z</time>
      </trkpt>
      <trkpt lat="47.4313700" lon="8.5623620">
        <ele>437.0</ele>
        <time>2022-06-02T05:14:12Z</time>
      </trkpt>
      <trkpt lat="47.4313290" lon="8.5623080">
        <ele>432.6</ele>
        <time>2022-06-02T05:14:14Z</time>
      </trkpt>
      <trkpt lat="47.4313060" lon="8.5622760">
        <ele>434.8</ele>
        <time>2022-06-02T05:14:15Z</time>
      </trkpt>
      <trkpt lat="47.4312900" lon="8.5622480">
        <ele>436.8</ele>
        <time>2022-06-02T05:14:16Z</time>
      </trkpt>
      <trkpt lat="47.4312480" lon="8.5621820">
        <ele>437.8</ele>
        <time>2022-06-02T05:14:18Z</time>
      </trkpt>
      <trkpt lat="47.4312040" lon="8.5621150">
        <ele>438.2</ele>
        <time>2022-06-02T05:14:20Z</time>
      </trkpt>
      <trkpt lat="47.4310940" lon="8.5619510">
        <ele>438.0</ele>
        <time>2022-06-02T05:14:25Z</time>
      </trkpt>
      <trkpt lat="47.4310320" lon="8.5618600">
        <ele>438.2</ele>
        <time>2022-06-02T05:14:28Z</time>
      </trkpt>
      <trkpt lat="47.4308200" lon="8.5615740">
        <ele>438.2</ele>
        <time>2022-06-02T05:14:37Z</time>
      </trkpt>
      <trkpt lat="47.4305730" lon="8.5611860">
        <ele>438.2</ele>
        <time>2022-06-02T05:14:47Z</time>
      </trkpt>
      <trkpt lat="47.4303740" lon="8.5608940">
        <ele>438.6</ele>
        <time>2022-06-02T05:14:55Z</time>
      </trkpt>
      <trkpt lat="47.4302720" lon="8.5607220">
        <ele>439.0</ele>
        <time>2022-06-02T05:14:59Z</time>
      </trkpt>
      <trkpt lat="47.4301380" lon="8.5605210">
        <ele>439.2</ele>
        <time>2022-06-02T05:15:04Z</time>
      </trkpt>
      <trkpt lat="47.4299690" lon="8.5602810">
        <ele>440.0</ele>
        <time>2022-06-02T05:15:11Z</time>
      </trkpt>
      <trkpt lat="47.4298790" lon="8.5601320">
        <ele>440.2</ele>
        <time>2022-06-02T05:15:15Z</time>
      </trkpt>
      <trkpt lat="47.4297820" lon="8.5599820">
        <ele>440.6</ele>
        <time>2022-06-02T05:15:18Z</time>
      </trkpt>
      <trkpt lat="47.4296590" lon="8.5597920">
        <ele>441.4</ele>
        <time>2022-06-02T05:15:22Z</time>
      </trkpt>
      <trkpt lat="47.4295490" lon="8.5596340">
        <ele>442.2</ele>
        <time>2022-06-02T05:15:26Z</time>
      </trkpt>
      <trkpt lat="47.4294920" lon="8.5595470">
        <ele>442.4</ele>
        <time>2022-06-02T05:15:28Z</time>
      </trkpt>
      <trkpt lat="47.4293640" lon="8.5593460">
        <ele>443.0</ele>
        <time>2022-06-02T05:15:33Z</time>
      </trkpt>
      <trkpt lat="47.4291140" lon="8.5589680">
        <ele>443.2</ele>
        <time>2022-06-02T05:15:42Z</time>
      </trkpt>
      <trkpt lat="47.4288390" lon="8.5584840">
        <ele>442.8</ele>
        <time>2022-06-02T05:15:52Z</time>
      </trkpt>
      <trkpt lat="47.4285450" lon="8.5580110">
        <ele>443.0</ele>
        <time>2022-06-02T05:16:02Z</time>
      </trkpt>
      <trkpt lat="47.4282860" lon="8.5575770">
        <ele>443.2</ele>
        <time>2022-06-02T05:16:11Z</time>
      </trkpt>
      <trkpt lat="47.4282270" lon="8.5574630">
        <ele>443.4</ele>
        <time>2022-06-02T05:16:13Z</time>
      </trkpt>
      <trkpt lat="47.4281190" lon="8.5572620">
        <ele>443.6</ele>
        <time>2022-06-02T05:16:17Z</time>
      </trkpt>
      <trkpt lat="47.4279590" lon="8.5570520">
        <ele>444.2</ele>
        <time>2022-06-02T05:16:22Z</time>
      </trkpt>
      <trkpt lat="47.4278610" lon="8.5569410">
        <ele>444.4</ele>
        <time>2022-06-02T05:16:25Z</time>
      </trkpt>
      <trkpt lat="47.4277480" lon="8.5567490">
        <ele>444.6</ele>
        <time>2022-06-02T05:16:29Z</time>
      </trkpt>
      <trkpt lat="47.4276730" lon="8.5565880">
        <ele>444.8</ele>
        <time>2022-06-02T05:16:32Z</time>
      </trkpt>
      <trkpt lat="47.4276390" lon="8.5564920">
        <ele>444.8</ele>
        <time>2022-06-02T05:16:34Z</time>
      </trkpt>
      <trkpt lat="47.4276140" lon="8.5564430">
        <ele>444.8</ele>
        <time>2022-06-02T05:16:35Z</time>
      </trkpt>
      <trkpt lat="47.4274360" lon="8.5561470">
        <ele>445.0</ele>
        <time>2022-06-02T05:16:41Z</time>
      </trkpt>
      <trkpt lat="47.4273180" lon="8.5559400">
        <ele>445.0</ele>
        <time>2022-06-02T05:16:45Z</time>
      </trkpt>
      <trkpt lat="47.4270350" lon="8.5554820">
        <ele>445.0</ele>
        <time>2022-06-02T05:16:54Z</time>
      </trkpt>
      <trkpt lat="47.4266900" lon="8.5550420">
        <ele>445.2</ele>
        <time>2022-06-02T05:17:03Z</time>
      </trkpt>
      <trkpt lat="47.4266060" lon="8.5549190">
        <ele>445.2</ele>
        <time>2022-06-02T05:17:05Z</time>
      </trkpt>
      <trkpt lat="47.4265310" lon="8.5547840">
        <ele>445.0</ele>
        <time>2022-06-02T05:17:07Z</time>
      </trkpt>
      <trkpt lat="47.4262400" lon="8.5544500">
        <ele>444.2</ele>
        <time>2022-06-02T05:17:13Z</time>
      </trkpt>
      <trkpt lat="47.4261330" lon="8.5543350">
        <ele>444.0</ele>
        <time>2022-06-02T05:17:15Z</time>
      </trkpt>
      <trkpt lat="47.4259200" lon="8.5541090">
        <ele>443.4</ele>
        <time>2022-06-02T05:17:19Z</time>
      </trkpt>
      <trkpt lat="47.4258640" lon="8.5540490">
        <ele>443.4</ele>
        <time>2022-06-02T05:17:20Z</time>
      </trkpt>
      <trkpt lat="47.4255720" lon="8.5537160">
        <ele>442.4</ele>
        <time>2022-06-02T05:17:26Z</time>
      </trkpt>
      <trkpt lat="47.4255280" lon="8.5536610">
        <ele>442.2</ele>
        <time>2022-06-02T05:17:27Z</time>
      </trkpt>
      <trkpt lat="47.4254840" lon="8.5536070">
        <ele>442.0</ele>
        <time>2022-06-02T05:17:28Z</time>
      </trkpt>
      <trkpt lat="47.4253940" lon="8.5534970">
        <ele>441.6</ele>
        <time>2022-06-02T05:17:30Z</time>
      </trkpt>
      <trkpt lat="47.4252940" lon="8.5533880">
        <ele>441.4</ele>
        <time>2022-06-02T05:17:32Z</time>
      </trkpt>
      <trkpt lat="47.4252510" lon="8.5533550">
        <ele>441.2</ele>
        <time>2022-06-02T05:17:33Z</time>
      </trkpt>
      <trkpt lat="47.4251680" lon="8.5532920">
        <ele>441.0</ele>
        <time>2022-06-02T05:17:35Z</time>
      </trkpt>
      <trkpt lat="47.4249210" lon="8.5530420">
        <ele>440.6</ele>
        <time>2022-06-02T05:17:41Z</time>
      </trkpt>
      <trkpt lat="47.4248680" lon="8.5529880">
        <ele>440.6</ele>
        <time>2022-06-02T05:17:42Z</time>
      </trkpt>
      <trkpt lat="47.4247050" lon="8.5528450">
        <ele>440.2</ele>
        <time>2022-06-02T05:17:47Z</time>
      </trkpt>
      <trkpt lat="47.4246650" lon="8.5528250">
        <ele>440.2</ele>
        <time>2022-06-02T05:17:49Z</time>
      </trkpt>
      <trkpt lat="47.4245680" lon="8.5527390">
        <ele>440.0</ele>
        <time>2022-06-02T05:17:52Z</time>
      </trkpt>
      <trkpt lat="47.4244980" lon="8.5526610">
        <ele>440.0</ele>
        <time>2022-06-02T05:17:54Z</time>
      </trkpt>
      <trkpt lat="47.4243640" lon="8.5525210">
        <ele>439.8</ele>
        <time>2022-06-02T05:17:57Z</time>
      </trkpt>
      <trkpt lat="47.4240890" lon="8.5522480">
        <ele>439.6</ele>
        <time>2022-06-02T05:18:04Z</time>
      </trkpt>
      <trkpt lat="47.4240450" lon="8.5522030">
        <ele>439.6</ele>
        <time>2022-06-02T05:18:05Z</time>
      </trkpt>
      <trkpt lat="47.4236470" lon="8.5517890">
        <ele>439.6</ele>
        <time>2022-06-02T05:18:15Z</time>
      </trkpt>
      <trkpt lat="47.4232240" lon="8.5513660">
        <ele>439.4</ele>
        <time>2022-06-02T05:18:26Z</time>
      </trkpt>
      <trkpt lat="47.4229330" lon="8.5511020">
        <ele>439.2</ele>
        <time>2022-06-02T05:18:33Z</time>
      </trkpt>
      <trkpt lat="47.4229000" lon="8.5510740">
        <ele>439.0</ele>
        <time>2022-06-02T05:18:34Z</time>
      </trkpt>
      <trkpt lat="47.4228670" lon="8.5510470">
        <ele>439.0</ele>
        <time>2022-06-02T05:18:35Z</time>
      </trkpt>
      <trkpt lat="47.4227920" lon="8.5509870">
        <ele>438.8</ele>
        <time>2022-06-02T05:18:38Z</time>
      </trkpt>
      <trkpt lat="47.4227690" lon="8.5509830">
        <ele>438.6</ele>
        <time>2022-06-02T05:18:39Z</time>
      </trkpt>
      <trkpt lat="47.4226800" lon="8.5509370">
        <ele>438.4</ele>
        <time>2022-06-02T05:18:43Z</time>
      </trkpt>
      <trkpt lat="47.4226750" lon="8.5509330">
        <ele>438.0</ele>
        <time>2022-06-02T05:18:45Z</time>
      </trkpt>
      <trkpt lat="47.4226750" lon="8.5509330">
        <ele>438.0</ele>
        <time>2022-06-02T05:18:46Z</time>
      </trkpt>
      <trkpt lat="47.4226360" lon="8.5508880">
        <ele>436.8</ele>
        <time>2022-06-02T05:19:08Z</time>
      </trkpt>
      <trkpt lat="47.4224710" lon="8.5507220">
        <ele>436.6</ele>
        <time>2022-06-02T05:19:13Z</time>
      </trkpt>
      <trkpt lat="47.4221960" lon="8.5504910">
        <ele>436.4</ele>
        <time>2022-06-02T05:19:20Z</time>
      </trkpt>
      <trkpt lat="47.4218230" lon="8.5501820">
        <ele>436.6</ele>
        <time>2022-06-02T05:19:29Z</time>
      </trkpt>
      <trkpt lat="47.4215250" lon="8.5499110">
        <ele>437.0</ele>
        <time>2022-06-02T05:19:37Z</time>
      </trkpt>
      <trkpt lat="47.4214660" lon="8.5498570">
        <ele>437.0</ele>
        <time>2022-06-02T05:19:39Z</time>
      </trkpt>
      <trkpt lat="47.4213520" lon="8.5497650">
        <ele>437.2</ele>
        <time>2022-06-02T05:19:42Z</time>
      </trkpt>
      <trkpt lat="47.4212630" lon="8.5496960">
        <ele>437.4</ele>
        <time>2022-06-02T05:19:44Z</time>
      </trkpt>
      <trkpt lat="47.4211180" lon="8.5495690">
        <ele>438.0</ele>
        <time>2022-06-02T05:19:48Z</time>
      </trkpt>
      <trkpt lat="47.4210210" lon="8.5494820">
        <ele>438.4</ele>
        <time>2022-06-02T05:19:51Z</time>
      </trkpt>
      <trkpt lat="47.4209520" lon="8.5494210">
        <ele>438.8</ele>
        <time>2022-06-02T05:19:53Z</time>
      </trkpt>
      <trkpt lat="47.4208110" lon="8.5493050">
        <ele>439.2</ele>
        <time>2022-06-02T05:19:57Z</time>
      </trkpt>
      <trkpt lat="47.4206570" lon="8.5491160">
        <ele>439.6</ele>
        <time>2022-06-02T05:20:01Z</time>
      </trkpt>
      <trkpt lat="47.4206240" lon="8.5490860">
        <ele>439.6</ele>
        <time>2022-06-02T05:20:02Z</time>
      </trkpt>
      <trkpt lat="47.4204890" lon="8.5489890">
        <ele>440.0</ele>
        <time>2022-06-02T05:20:06Z</time>
      </trkpt>
      <trkpt lat="47.4204540" lon="8.5489540">
        <ele>440.0</ele>
        <time>2022-06-02T05:20:07Z</time>
      </trkpt>
      <trkpt lat="47.4203410" lon="8.5487950">
        <ele>440.2</ele>
        <time>2022-06-02T05:20:10Z</time>
      </trkpt>
      <trkpt lat="47.4203050" lon="8.5487450">
        <ele>440.4</ele>
        <time>2022-06-02T05:20:11Z</time>
      </trkpt>
      <trkpt lat="47.4202390" lon="8.5486210">
        <ele>440.8</ele>
        <time>2022-06-02T05:20:13Z</time>
      </trkpt>
      <trkpt lat="47.4200410" lon="8.5484240">
        <ele>441.0</ele>
        <time>2022-06-02T05:20:19Z</time>
      </trkpt>
      <trkpt lat="47.4200100" lon="8.5483950">
        <ele>441.0</ele>
        <time>2022-06-02T05:20:20Z</time>
      </trkpt>
      <trkpt lat="47.4199160" lon="8.5483300">
        <ele>441.2</ele>
        <time>2022-06-02T05:20:23Z</time>
      </trkpt>
      <trkpt lat="47.4198910" lon="8.5483150">
        <ele>441.4</ele>
        <time>2022-06-02T05:20:24Z</time>
      </trkpt>
      <trkpt lat="47.4198580" lon="8.5482810">
        <ele>441.4</ele>
        <time>2022-06-02T05:20:25Z</time>
      </trkpt>
      <trkpt lat="47.4198090" lon="8.5482060">
        <ele>441.6</ele>
        <time>2022-06-02T05:20:26Z</time>
      </trkpt>
      <trkpt lat="47.4196250" lon="8.5479110">
        <ele>442.0</ele>
        <time>2022-06-02T05:20:31Z</time>
      </trkpt>
      <trkpt lat="47.4194420" lon="8.5476840">
        <ele>442.2</ele>
        <time>2022-06-02T05:20:36Z</time>
      </trkpt>
      <trkpt lat="47.4193630" lon="8.5476320">
        <ele>442.4</ele>
        <time>2022-06-02T05:20:38Z</time>
      </trkpt>
      <trkpt lat="47.4193150" lon="8.5476110">
        <ele>442.4</ele>
        <time>2022-06-02T05:20:39Z</time>
      </trkpt>
      <trkpt lat="47.4191660" lon="8.5475590">
        <ele>442.6</ele>
        <time>2022-06-02T05:20:42Z</time>
      </trkpt>
      <trkpt lat="47.4190960" lon="8.5475160">
        <ele>442.6</ele>
        <time>2022-06-02T05:20:44Z</time>
      </trkpt>
      <trkpt lat="47.4190510" lon="8.5474920">
        <ele>442.6</ele>
        <time>2022-06-02T05:20:45Z</time>
      </trkpt>
      <trkpt lat="47.4189050" lon="8.5473670">
        <ele>442.6</ele>
        <time>2022-06-02T05:20:48Z</time>
      </trkpt>
      <trkpt lat="47.4188130" lon="8.5472570">
        <ele>442.6</ele>
        <time>2022-06-02T05:20:50Z</time>
      </trkpt>
      <trkpt lat="47.4186840" lon="8.5471270">
        <ele>442.6</ele>
        <time>2022-06-02T05:20:53Z</time>
      </trkpt>
      <trkpt lat="47.4183110" lon="8.5467430">
        <ele>442.8</ele>
        <time>2022-06-02T05:21:02Z</time>
      </trkpt>
      <trkpt lat="47.4179590" lon="8.5463930">
        <ele>443.0</ele>
        <time>2022-06-02T05:21:10Z</time>
      </trkpt>
      <trkpt lat="47.4176190" lon="8.5460170">
        <ele>442.6</ele>
        <time>2022-06-02T05:21:17Z</time>
      </trkpt>
      <trkpt lat="47.4174220" lon="8.5458020">
        <ele>442.2</ele>
        <time>2022-06-02T05:21:22Z</time>
      </trkpt>
      <trkpt lat="47.4173620" lon="8.5457340">
        <ele>442.0</ele>
        <time>2022-06-02T05:21:26Z</time>
      </trkpt>
      <trkpt lat="47.4173600" lon="8.5457310">
        <ele>441.8</ele>
        <time>2022-06-02T05:21:28Z</time>
      </trkpt>
      <trkpt lat="47.4173000" lon="8.5456670">
        <ele>441.4</ele>
        <time>2022-06-02T05:21:36Z</time>
      </trkpt>
      <trkpt lat="47.4172730" lon="8.5456420">
        <ele>441.4</ele>
        <time>2022-06-02T05:21:37Z</time>
      </trkpt>
      <trkpt lat="47.4171000" lon="8.5455070">
        <ele>441.2</ele>
        <time>2022-06-02T05:21:42Z</time>
      </trkpt>
      <trkpt lat="47.4170600" lon="8.5454900">
        <ele>441.0</ele>
        <time>2022-06-02T05:21:43Z</time>
      </trkpt>
      <trkpt lat="47.4170200" lon="8.5454700">
        <ele>441.0</ele>
        <time>2022-06-02T05:21:44Z</time>
      </trkpt>
      <trkpt lat="47.4168900" lon="8.5454000">
        <ele>440.8</ele>
        <time>2022-06-02T05:21:47Z</time>
      </trkpt>
      <trkpt lat="47.4167510" lon="8.5452970">
        <ele>440.8</ele>
        <time>2022-06-02T05:21:50Z</time>
      </trkpt>
      <trkpt lat="47.4165770" lon="8.5452010">
        <ele>441.0</ele>
        <time>2022-06-02T05:21:54Z</time>
      </trkpt>
      <trkpt lat="47.4164640" lon="8.5451510">
        <ele>441.0</ele>
        <time>2022-06-02T05:21:58Z</time>
      </trkpt>
      <trkpt lat="47.4163580" lon="8.5450440">
        <ele>441.6</ele>
        <time>2022-06-02T05:22:02Z</time>
      </trkpt>
      <trkpt lat="47.4163250" lon="8.5450150">
        <ele>441.8</ele>
        <time>2022-06-02T05:22:03Z</time>
      </trkpt>
      <trkpt lat="47.4162100" lon="8.5450150">
        <ele>442.0</ele>
        <time>2022-06-02T05:22:06Z</time>
      </trkpt>
      <trkpt lat="47.4159450" lon="8.5450400">
        <ele>442.6</ele>
        <time>2022-06-02T05:22:12Z</time>
      </trkpt>
      <trkpt lat="47.4158510" lon="8.5450680">
        <ele>442.8</ele>
        <time>2022-06-02T05:22:14Z</time>
      </trkpt>
      <trkpt lat="47.4158080" lon="8.5450930">
        <ele>443.0</ele>
        <time>2022-06-02T05:22:15Z</time>
      </trkpt>
      <trkpt lat="47.4157640" lon="8.5451200">
        <ele>443.2</ele>
        <time>2022-06-02T05:22:16Z</time>
      </trkpt>
      <trkpt lat="47.4156750" lon="8.5451900">
        <ele>443.4</ele>
        <time>2022-06-02T05:22:18Z</time>
      </trkpt>
      <trkpt lat="47.4155650" lon="8.5452020">
        <ele>443.6</ele>
        <time>2022-06-02T05:22:20Z</time>
      </trkpt>
      <trkpt lat="47.4154260" lon="8.5452630">
        <ele>443.8</ele>
        <time>2022-06-02T05:22:23Z</time>
      </trkpt>
      <trkpt lat="47.4153730" lon="8.5452860">
        <ele>443.8</ele>
        <time>2022-06-02T05:22:24Z</time>
      </trkpt>
      <trkpt lat="47.4153150" lon="8.5452940">
        <ele>444.0</ele>
        <time>2022-06-02T05:22:25Z</time>
      </trkpt>
      <trkpt lat="47.4152300" lon="8.5453220">
        <ele>444.2</ele>
        <time>2022-06-02T05:22:27Z</time>
      </trkpt>
      <trkpt lat="47.4150680" lon="8.5454040">
        <ele>444.4</ele>
        <time>2022-06-02T05:22:31Z</time>
      </trkpt>
      <trkpt lat="47.4149540" lon="8.5454630">
        <ele>444.6</ele>
        <time>2022-06-02T05:22:34Z</time>
      </trkpt>
      <trkpt lat="47.4148270" lon="8.5454960">
        <ele>444.6</ele>
        <time>2022-06-02T05:22:37Z</time>
      </trkpt>
      <trkpt lat="47.4147860" lon="8.5455090">
        <ele>444.6</ele>
        <time>2022-06-02T05:22:38Z</time>
      </trkpt>
      <trkpt lat="47.4145720" lon="8.5455600">
        <ele>444.6</ele>
        <time>2022-06-02T05:22:43Z</time>
      </trkpt>
      <trkpt lat="47.4142430" lon="8.5455710">
        <ele>444.6</ele>
        <time>2022-06-02T05:22:51Z</time>
      </trkpt>
      <trkpt lat="47.4141470" lon="8.5455850">
        <ele>444.6</ele>
        <time>2022-06-02T05:22:54Z</time>
      </trkpt>
      <trkpt lat="47.4140870" lon="8.5456040">
        <ele>444.6</ele>
        <time>2022-06-02T05:22:56Z</time>
      </trkpt>
      <trkpt lat="47.4140270" lon="8.5456150">
        <ele>444.8</ele>
        <time>2022-06-02T05:23:00Z</time>
      </trkpt>
      <trkpt lat="47.4140240" lon="8.5456140">
        <ele>445.0</ele>
        <time>2022-06-02T05:23:02Z</time>
      </trkpt>
      <trkpt lat="47.4139730" lon="8.5455610">
        <ele>444.0</ele>
        <time>2022-06-02T05:23:31Z</time>
      </trkpt>
      <trkpt lat="47.4139590" lon="8.5455210">
        <ele>444.0</ele>
        <time>2022-06-02T05:23:32Z</time>
      </trkpt>
      <trkpt lat="47.4139520" lon="8.5454730">
        <ele>444.0</ele>
        <time>2022-06-02T05:23:33Z</time>
      </trkpt>
      <trkpt lat="47.4139580" lon="8.5452380">
        <ele>444.0</ele>
        <time>2022-06-02T05:23:37Z</time>
      </trkpt>
      <trkpt lat="47.4139310" lon="8.5449430">
        <ele>444.0</ele>
        <time>2022-06-02T05:23:43Z</time>
      </trkpt>
      <trkpt lat="47.4139260" lon="8.5447770">
        <ele>444.2</ele>
        <time>2022-06-02T05:23:49Z</time>
      </trkpt>
      <trkpt lat="47.4138960" lon="8.5447030">
        <ele>444.2</ele>
        <time>2022-06-02T05:23:51Z</time>
      </trkpt>
      <trkpt lat="47.4138670" lon="8.5445960">
        <ele>444.2</ele>
        <time>2022-06-02T05:23:53Z</time>
      </trkpt>
      <trkpt lat="47.4138840" lon="8.5444450">
        <ele>444.4</ele>
        <time>2022-06-02T05:23:58Z</time>
      </trkpt>
      <trkpt lat="47.4138840" lon="8.5444450">
        <ele>444.6</ele>
        <time>2022-06-02T05:24:02Z</time>
      </trkpt>
      <trkpt lat="47.4138960" lon="8.5443480">
        <ele>445.0</ele>
        <time>2022-06-02T05:24:19Z</time>
      </trkpt>
      <trkpt lat="47.4139040" lon="8.5442970">
        <ele>444.8</ele>
        <time>2022-06-02T05:24:20Z</time>
      </trkpt>
      <trkpt lat="47.4139420" lon="8.5438510">
        <ele>444.6</ele>
        <time>2022-06-02T05:24:26Z</time>
      </trkpt>
      <trkpt lat="47.4139710" lon="8.5435170">
        <ele>444.6</ele>
        <time>2022-06-02T05:24:31Z</time>
      </trkpt>
      <trkpt lat="47.4139800" lon="8.5434500">
        <ele>444.4</ele>
        <time>2022-06-02T05:24:32Z</time>
      </trkpt>
      <trkpt lat="47.4139830" lon="8.5433810">
        <ele>444.4</ele>
        <time>2022-06-02T05:24:33Z</time>
      </trkpt>
      <trkpt lat="47.4139880" lon="8.5431740">
        <ele>444.4</ele>
        <time>2022-06-02T05:24:36Z</time>
      </trkpt>
      <trkpt lat="47.4139920" lon="8.5430350">
        <ele>444.2</ele>
        <time>2022-06-02T05:24:38Z</time>
      </trkpt>
      <trkpt lat="47.4140180" lon="8.5426400">
        <ele>444.2</ele>
        <time>2022-06-02T05:24:44Z</time>
      </trkpt>
      <trkpt lat="47.4140500" lon="8.5422940">
        <ele>443.8</ele>
        <time>2022-06-02T05:24:49Z</time>
      </trkpt>
      <trkpt lat="47.4140590" lon="8.5421420">
        <ele>443.6</ele>
        <time>2022-06-02T05:24:51Z</time>
      </trkpt>
      <trkpt lat="47.4141060" lon="8.5418670">
        <ele>443.4</ele>
        <time>2022-06-02T05:24:56Z</time>
      </trkpt>
      <trkpt lat="47.4141210" lon="8.5415650">
        <ele>443.2</ele>
        <time>2022-06-02T05:25:03Z</time>
      </trkpt>
      <trkpt lat="47.4141150" lon="8.5412210">
        <ele>443.0</ele>
        <time>2022-06-02T05:25:10Z</time>
      </trkpt>
      <trkpt lat="47.4141230" lon="8.5411300">
        <ele>443.0</ele>
        <time>2022-06-02T05:25:14Z</time>
      </trkpt>
      <trkpt lat="47.4141200" lon="8.5411220">
        <ele>443.0</ele>
        <time>2022-06-02T05:25:17Z</time>
      </trkpt>
      <trkpt lat="47.4141080" lon="8.5410890">
        <ele>443.0</ele>
        <time>2022-06-02T05:25:36Z</time>
      </trkpt>
      <trkpt lat="47.4141010" lon="8.5410640">
        <ele>443.0</ele>
        <time>2022-06-02T05:25:37Z</time>
      </trkpt>
      <trkpt lat="47.4140810" lon="8.5409580">
        <ele>442.8</ele>
        <time>2022-06-02T05:25:41Z</time>
      </trkpt>
      <trkpt lat="47.4140770" lon="8.5409050">
        <ele>442.8</ele>
        <time>2022-06-02T05:25:43Z</time>
      </trkpt>
      <trkpt lat="47.4140600" lon="8.5408350">
        <ele>442.6</ele>
        <time>2022-06-02T05:25:46Z</time>
      </trkpt>
      <trkpt lat="47.4140330" lon="8.5407430">
        <ele>442.6</ele>
        <time>2022-06-02T05:25:49Z</time>
      </trkpt>
      <trkpt lat="47.4139500" lon="8.5405400">
        <ele>442.6</ele>
        <time>2022-06-02T05:25:54Z</time>
      </trkpt>
      <trkpt lat="47.4138500" lon="8.5402690">
        <ele>442.8</ele>
        <time>2022-06-02T05:26:00Z</time>
      </trkpt>
      <trkpt lat="47.4137140" lon="8.5399050">
        <ele>442.6</ele>
        <time>2022-06-02T05:26:07Z</time>
      </trkpt>
      <trkpt lat="47.4136180" lon="8.5396360">
        <ele>442.8</ele>
        <time>2022-06-02T05:26:13Z</time>
      </trkpt>
      <trkpt lat="47.4135280" lon="8.5394040">
        <ele>443.0</ele>
        <time>2022-06-02T05:26:18Z</time>
      </trkpt>
      <trkpt lat="47.4134360" lon="8.5391660">
        <ele>443.0</ele>
        <time>2022-06-02T05:26:22Z</time>
      </trkpt>
      <trkpt lat="47.4133950" lon="8.5390600">
        <ele>443.0</ele>
        <time>2022-06-02T05:26:24Z</time>
      </trkpt>
      <trkpt lat="47.4133550" lon="8.5389450">
        <ele>443.0</ele>
        <time>2022-06-02T05:26:26Z</time>
      </trkpt>
      <trkpt lat="47.4132530" lon="8.5387620">
        <ele>443.0</ele>
        <time>2022-06-02T05:26:29Z</time>
      </trkpt>
      <trkpt lat="47.4132170" lon="8.5386970">
        <ele>443.0</ele>
        <time>2022-06-02T05:26:30Z</time>
      </trkpt>
      <trkpt lat="47.4130750" lon="8.5384210">
        <ele>443.2</ele>
        <time>2022-06-02T05:26:34Z</time>
      </trkpt>
      <trkpt lat="47.4130650" lon="8.5383520">
        <ele>443.4</ele>
        <time>2022-06-02T05:26:35Z</time>
      </trkpt>
      <trkpt lat="47.4130530" lon="8.5382780">
        <ele>443.4</ele>
        <time>2022-06-02T05:26:36Z</time>
      </trkpt>
      <trkpt lat="47.4130010" lon="8.5380340">
        <ele>443.4</ele>
        <time>2022-06-02T05:26:40Z</time>
      </trkpt>
      <trkpt lat="47.4129950" lon="8.5380030">
        <ele>443.6</ele>
        <time>2022-06-02T05:26:41Z</time>
      </trkpt>
      <trkpt lat="47.4129960" lon="8.5379940">
        <ele>443.4</ele>
        <time>2022-06-02T05:26:43Z</time>
      </trkpt>
      <trkpt lat="47.4129960" lon="8.5379940">
        <ele>443.8</ele>
        <time>2022-06-02T05:26:45Z</time>
      </trkpt>
      <trkpt lat="47.4129890" lon="8.5379180">
        <ele>443.8</ele>
        <time>2022-06-02T05:27:37Z</time>
      </trkpt>
      <trkpt lat="47.4129660" lon="8.5378310">
        <ele>443.6</ele>
        <time>2022-06-02T05:27:39Z</time>
      </trkpt>
      <trkpt lat="47.4128700" lon="8.5377380">
        <ele>443.2</ele>
        <time>2022-06-02T05:27:42Z</time>
      </trkpt>
      <trkpt lat="47.4128260" lon="8.5377220">
        <ele>443.2</ele>
        <time>2022-06-02T05:27:43Z</time>
      </trkpt>
      <trkpt lat="47.4126480" lon="8.5377260">
        <ele>443.2</ele>
        <time>2022-06-02T05:27:47Z</time>
      </trkpt>
      <trkpt lat="47.4125590" lon="8.5377420">
        <ele>443.2</ele>
        <time>2022-06-02T05:27:49Z</time>
      </trkpt>
      <trkpt lat="47.4124660" lon="8.5377520">
        <ele>443.4</ele>
        <time>2022-06-02T05:27:51Z</time>
      </trkpt>
      <trkpt lat="47.4123710" lon="8.5377680">
        <ele>443.4</ele>
        <time>2022-06-02T05:27:53Z</time>
      </trkpt>
      <trkpt lat="47.4122850" lon="8.5378110">
        <ele>443.4</ele>
        <time>2022-06-02T05:27:55Z</time>
      </trkpt>
      <trkpt lat="47.4121910" lon="8.5378500">
        <ele>443.6</ele>
        <time>2022-06-02T05:27:57Z</time>
      </trkpt>
      <trkpt lat="47.4120040" lon="8.5379050">
        <ele>443.6</ele>
        <time>2022-06-02T05:28:01Z</time>
      </trkpt>
      <trkpt lat="47.4118830" lon="8.5379670">
        <ele>443.6</ele>
        <time>2022-06-02T05:28:04Z</time>
      </trkpt>
      <trkpt lat="47.4118410" lon="8.5379980">
        <ele>443.8</ele>
        <time>2022-06-02T05:28:05Z</time>
      </trkpt>
      <trkpt lat="47.4117950" lon="8.5380120">
        <ele>443.8</ele>
        <time>2022-06-02T05:28:06Z</time>
      </trkpt>
      <trkpt lat="47.4116520" lon="8.5380740">
        <ele>444.0</ele>
        <time>2022-06-02T05:28:09Z</time>
      </trkpt>
      <trkpt lat="47.4115100" lon="8.5380780">
        <ele>444.4</ele>
        <time>2022-06-02T05:28:12Z</time>
      </trkpt>
      <trkpt lat="47.4114230" lon="8.5380910">
        <ele>444.6</ele>
        <time>2022-06-02T05:28:14Z</time>
      </trkpt>
      <trkpt lat="47.4113370" lon="8.5381170">
        <ele>444.8</ele>
        <time>2022-06-02T05:28:16Z</time>
      </trkpt>
      <trkpt lat="47.4112080" lon="8.5381590">
        <ele>445.6</ele>
        <time>2022-06-02T05:28:19Z</time>
      </trkpt>
      <trkpt lat="47.4111700" lon="8.5381740">
        <ele>445.6</ele>
        <time>2022-06-02T05:28:20Z</time>
      </trkpt>
      <trkpt lat="47.4111260" lon="8.5381640">
        <ele>445.8</ele>
        <time>2022-06-02T05:28:21Z</time>
      </trkpt>
      <trkpt lat="47.4110400" lon="8.5381300">
        <ele>446.2</ele>
        <time>2022-06-02T05:28:23Z</time>
      </trkpt>
      <trkpt lat="47.4109160" lon="8.5381440">
        <ele>447.0</ele>
        <time>2022-06-02T05:28:26Z</time>
      </trkpt>
      <trkpt lat="47.4107980" lon="8.5381580">
        <ele>447.4</ele>
        <time>2022-06-02T05:28:29Z</time>
      </trkpt>
      <trkpt lat="47.4106790" lon="8.5381900">
        <ele>448.2</ele>
        <time>2022-06-02T05:28:32Z</time>
      </trkpt>
      <trkpt lat="47.4105570" lon="8.5381790">
        <ele>448.8</ele>
        <time>2022-06-02T05:28:35Z</time>
      </trkpt>
      <trkpt lat="47.4105170" lon="8.5381820">
        <ele>449.2</ele>
        <time>2022-06-02T05:28:36Z</time>
      </trkpt>
      <trkpt lat="47.4103240" lon="8.5381190">
        <ele>450.2</ele>
        <time>2022-06-02T05:28:41Z</time>
      </trkpt>
      <trkpt lat="47.4102190" lon="8.5380720">
        <ele>451.4</ele>
        <time>2022-06-02T05:28:46Z</time>
      </trkpt>
      <trkpt lat="47.4101980" lon="8.5380590">
        <ele>451.4</ele>
        <time>2022-06-02T05:28:48Z</time>
      </trkpt>
      <trkpt lat="47.4101960" lon="8.5380540">
        <ele>451.6</ele>
        <time>2022-06-02T05:28:51Z</time>
      </trkpt>
      <trkpt lat="47.4101480" lon="8.5380570">
        <ele>451.8</ele>
        <time>2022-06-02T05:29:17Z</time>
      </trkpt>
      <trkpt lat="47.4099740" lon="8.5379540">
        <ele>451.8</ele>
        <time>2022-06-02T05:29:22Z</time>
      </trkpt>
      <trkpt lat="47.4098000" lon="8.5378640">
        <ele>451.8</ele>
        <time>2022-06-02T05:29:27Z</time>
      </trkpt>
      <trkpt lat="47.4097830" lon="8.5378450">
        <ele>452.2</ele>
        <time>2022-06-02T05:29:30Z</time>
      </trkpt>
      <trkpt lat="47.4097390" lon="8.5378180">
        <ele>453.2</ele>
        <time>2022-06-02T05:30:07Z</time>
      </trkpt>
      <trkpt lat="47.4096940" lon="8.5377760">
        <ele>453.0</ele>
        <time>2022-06-02T05:30:09Z</time>
      </trkpt>
      <trkpt lat="47.4095560" lon="8.5376800">
        <ele>453.2</ele>
        <time>2022-06-02T05:30:12Z</time>
      </trkpt>
      <trkpt lat="47.4092990" lon="8.5375580">
        <ele>453.2</ele>
        <time>2022-06-02T05:30:17Z</time>
      </trkpt>
      <trkpt lat="47.4089020" lon="8.5372910">
        <ele>453.4</ele>
        <time>2022-06-02T05:30:25Z</time>
      </trkpt>
      <trkpt lat="47.4088620" lon="8.5372640">
        <ele>453.4</ele>
        <time>2022-06-02T05:30:26Z</time>
      </trkpt>
      <trkpt lat="47.4086070" lon="8.5371020">
        <ele>453.6</ele>
        <time>2022-06-02T05:30:32Z</time>
      </trkpt>
      <trkpt lat="47.4085260" lon="8.5370560">
        <ele>453.8</ele>
        <time>2022-06-02T05:30:34Z</time>
      </trkpt>
      <trkpt lat="47.4084830" lon="8.5370320">
        <ele>453.8</ele>
        <time>2022-06-02T05:30:35Z</time>
      </trkpt>
      <trkpt lat="47.4083120" lon="8.5369270">
        <ele>454.2</ele>
        <time>2022-06-02T05:30:39Z</time>
      </trkpt>
      <trkpt lat="47.4082660" lon="8.5369060">
        <ele>454.4</ele>
        <time>2022-06-02T05:30:40Z</time>
      </trkpt>
      <trkpt lat="47.4080040" lon="8.5367840">
        <ele>455.0</ele>
        <time>2022-06-02T05:30:46Z</time>
      </trkpt>
      <trkpt lat="47.4079090" lon="8.5367300">
        <ele>455.4</ele>
        <time>2022-06-02T05:30:48Z</time>
      </trkpt>
      <trkpt lat="47.4074700" lon="8.5364510">
        <ele>456.2</ele>
        <time>2022-06-02T05:30:58Z</time>
      </trkpt>
      <trkpt lat="47.4074250" lon="8.5364140">
        <ele>456.4</ele>
        <time>2022-06-02T05:30:59Z</time>
      </trkpt>
      <trkpt lat="47.4070920" lon="8.5362070">
        <ele>457.0</ele>
        <time>2022-06-02T05:31:07Z</time>
      </trkpt>
      <trkpt lat="47.4069880" lon="8.5361540">
        <ele>457.2</ele>
        <time>2022-06-02T05:31:12Z</time>
      </trkpt>
      <trkpt lat="47.4069690" lon="8.5361470">
        <ele>457.4</ele>
        <time>2022-06-02T05:31:15Z</time>
      </trkpt>
      <trkpt lat="47.4069650" lon="8.5361460">
        <ele>457.6</ele>
        <time>2022-06-02T05:31:17Z</time>
      </trkpt>
      <trkpt lat="47.4069650" lon="8.5361460">
        <ele>457.6</ele>
        <time>2022-06-02T05:31:18Z</time>
      </trkpt>
      <trkpt lat="47.4068990" lon="8.5361060">
        <ele>457.6</ele>
        <time>2022-06-02T05:31:29Z</time>
      </trkpt>
      <trkpt lat="47.4068420" lon="8.5360740">
        <ele>457.6</ele>
        <time>2022-06-02T05:31:31Z</time>
      </trkpt>
      <trkpt lat="47.4066170" lon="8.5359770">
        <ele>457.6</ele>
        <time>2022-06-02T05:31:37Z</time>
      </trkpt>
      <trkpt lat="47.4062990" lon="8.5357880">
        <ele>458.4</ele>
        <time>2022-06-02T05:31:45Z</time>
      </trkpt>
      <trkpt lat="47.4062590" lon="8.5357640">
        <ele>458.6</ele>
        <time>2022-06-02T05:31:46Z</time>
      </trkpt>
      <trkpt lat="47.4060870" lon="8.5356680">
        <ele>459.2</ele>
        <time>2022-06-02T05:31:50Z</time>
      </trkpt>
      <trkpt lat="47.4060470" lon="8.5356500">
        <ele>459.4</ele>
        <time>2022-06-02T05:31:51Z</time>
      </trkpt>
      <trkpt lat="47.4059600" lon="8.5356050">
        <ele>459.6</ele>
        <time>2022-06-02T05:31:53Z</time>
      </trkpt>
      <trkpt lat="47.4057450" lon="8.5354740">
        <ele>460.4</ele>
        <time>2022-06-02T05:31:58Z</time>
      </trkpt>
      <trkpt lat="47.4056690" lon="8.5354150">
        <ele>460.6</ele>
        <time>2022-06-02T05:32:00Z</time>
      </trkpt>
      <trkpt lat="47.4054180" lon="8.5352430">
        <ele>461.6</ele>
        <time>2022-06-02T05:32:06Z</time>
      </trkpt>
      <trkpt lat="47.4053750" lon="8.5352190">
        <ele>461.8</ele>
        <time>2022-06-02T05:32:07Z</time>
      </trkpt>
      <trkpt lat="47.4050450" lon="8.5350240">
        <ele>463.0</ele>
        <time>2022-06-02T05:32:15Z</time>
      </trkpt>
      <trkpt lat="47.4047640" lon="8.5348620">
        <ele>463.4</ele>
        <time>2022-06-02T05:32:22Z</time>
      </trkpt>
      <trkpt lat="47.4046470" lon="8.5347880">
        <ele>464.0</ele>
        <time>2022-06-02T05:32:25Z</time>
      </trkpt>
      <trkpt lat="47.4045680" lon="8.5347350">
        <ele>464.4</ele>
        <time>2022-06-02T05:32:28Z</time>
      </trkpt>
      <trkpt lat="47.4044450" lon="8.5346740">
        <ele>465.0</ele>
        <time>2022-06-02T05:32:34Z</time>
      </trkpt>
      <trkpt lat="47.4043880" lon="8.5346380">
        <ele>465.2</ele>
        <time>2022-06-02T05:32:37Z</time>
      </trkpt>
      <trkpt lat="47.4043000" lon="8.5345750">
        <ele>465.4</ele>
        <time>2022-06-02T05:32:41Z</time>
      </trkpt>
      <trkpt lat="47.4041710" lon="8.5344800">
        <ele>465.8</ele>
        <time>2022-06-02T05:32:47Z</time>
      </trkpt>
      <trkpt lat="47.4041680" lon="8.5344760">
        <ele>466.2</ele>
        <time>2022-06-02T05:32:49Z</time>
      </trkpt>
      <trkpt lat="47.4041680" lon="8.5344760">
        <ele>466.2</ele>
        <time>2022-06-02T05:32:50Z</time>
      </trkpt>
      <trkpt lat="47.4041280" lon="8.5344620">
        <ele>466.0</ele>
        <time>2022-06-02T05:33:28Z</time>
      </trkpt>
      <trkpt lat="47.4039960" lon="8.5343390">
        <ele>466.2</ele>
        <time>2022-06-02T05:33:32Z</time>
      </trkpt>
      <trkpt lat="47.4039110" lon="8.5342810">
        <ele>466.2</ele>
        <time>2022-06-02T05:33:34Z</time>
      </trkpt>
      <trkpt lat="47.4038110" lon="8.5342440">
        <ele>466.4</ele>
        <time>2022-06-02T05:33:36Z</time>
      </trkpt>
      <trkpt lat="47.4037620" lon="8.5342520">
        <ele>466.4</ele>
        <time>2022-06-02T05:33:37Z</time>
      </trkpt>
      <trkpt lat="47.4037160" lon="8.5342770">
        <ele>466.6</ele>
        <time>2022-06-02T05:33:38Z</time>
      </trkpt>
      <trkpt lat="47.4035830" lon="8.5343940">
        <ele>467.0</ele>
        <time>2022-06-02T05:33:41Z</time>
      </trkpt>
      <trkpt lat="47.4034930" lon="8.5344830">
        <ele>467.0</ele>
        <time>2022-06-02T05:33:43Z</time>
      </trkpt>
      <trkpt lat="47.4032190" lon="8.5347390">
        <ele>467.4</ele>
        <time>2022-06-02T05:33:49Z</time>
      </trkpt>
      <trkpt lat="47.4028690" lon="8.5350710">
        <ele>467.6</ele>
        <time>2022-06-02T05:33:57Z</time>
      </trkpt>
      <trkpt lat="47.4027890" lon="8.5351410">
        <ele>467.6</ele>
        <time>2022-06-02T05:33:59Z</time>
      </trkpt>
      <trkpt lat="47.4027210" lon="8.5351930">
        <ele>467.8</ele>
        <time>2022-06-02T05:34:01Z</time>
      </trkpt>
      <trkpt lat="47.4026770" lon="8.5352200">
        <ele>467.8</ele>
        <time>2022-06-02T05:34:03Z</time>
      </trkpt>
      <trkpt lat="47.4026660" lon="8.5352230">
        <ele>467.8</ele>
        <time>2022-06-02T05:34:04Z</time>
      </trkpt>
      <trkpt lat="47.4026610" lon="8.5352250">
        <ele>468.0</ele>
        <time>2022-06-02T05:34:07Z</time>
      </trkpt>
      <trkpt lat="47.4026060" lon="8.5352530">
        <ele>467.6</ele>
        <time>2022-06-02T05:34:25Z</time>
      </trkpt>
      <trkpt lat="47.4024870" lon="8.5352750">
        <ele>467.4</ele>
        <time>2022-06-02T05:34:28Z</time>
      </trkpt>
      <trkpt lat="47.4024390" lon="8.5352560">
        <ele>467.4</ele>
        <time>2022-06-02T05:34:29Z</time>
      </trkpt>
      <trkpt lat="47.4023930" lon="8.5352290">
        <ele>467.4</ele>
        <time>2022-06-02T05:34:30Z</time>
      </trkpt>
      <trkpt lat="47.4022080" lon="8.5350650">
        <ele>467.6</ele>
        <time>2022-06-02T05:34:35Z</time>
      </trkpt>
      <trkpt lat="47.4020940" lon="8.5349380">
        <ele>468.2</ele>
        <time>2022-06-02T05:34:39Z</time>
      </trkpt>
      <trkpt lat="47.4020260" lon="8.5348690">
        <ele>468.4</ele>
        <time>2022-06-02T05:34:41Z</time>
      </trkpt>
      <trkpt lat="47.4018560" lon="8.5347380">
        <ele>469.2</ele>
        <time>2022-06-02T05:34:45Z</time>
      </trkpt>
      <trkpt lat="47.4017000" lon="8.5346170">
        <ele>469.6</ele>
        <time>2022-06-02T05:34:49Z</time>
      </trkpt>
      <trkpt lat="47.4015990" lon="8.5345470">
        <ele>470.4</ele>
        <time>2022-06-02T05:34:52Z</time>
      </trkpt>
      <trkpt lat="47.4014910" lon="8.5344850">
        <ele>471.0</ele>
        <time>2022-06-02T05:34:55Z</time>
      </trkpt>
      <trkpt lat="47.4013760" lon="8.5343920">
        <ele>471.4</ele>
        <time>2022-06-02T05:34:58Z</time>
      </trkpt>
      <trkpt lat="47.4012320" lon="8.5342790">
        <ele>472.0</ele>
        <time>2022-06-02T05:35:02Z</time>
      </trkpt>
      <trkpt lat="47.4010860" lon="8.5341790">
        <ele>472.6</ele>
        <time>2022-06-02T05:35:05Z</time>
      </trkpt>
      <trkpt lat="47.4009910" lon="8.5341050">
        <ele>472.8</ele>
        <time>2022-06-02T05:35:07Z</time>
      </trkpt>
      <trkpt lat="47.4007100" lon="8.5339040">
        <ele>473.6</ele>
        <time>2022-06-02T05:35:13Z</time>
      </trkpt>
      <trkpt lat="47.4006280" lon="8.5338320">
        <ele>474.0</ele>
        <time>2022-06-02T05:35:15Z</time>
      </trkpt>
      <trkpt lat="47.4005240" lon="8.5337690">
        <ele>474.4</ele>
        <time>2022-06-02T05:35:18Z</time>
      </trkpt>
      <trkpt lat="47.4003400" lon="8.5336430">
        <ele>474.6</ele>
        <time>2022-06-02T05:35:23Z</time>
      </trkpt>
      <trkpt lat="47.4003030" lon="8.5336200">
        <ele>474.6</ele>
        <time>2022-06-02T05:35:24Z</time>
      </trkpt>
      <trkpt lat="47.4002320" lon="8.5335870">
        <ele>474.8</ele>
        <time>2022-06-02T05:35:26Z</time>
      </trkpt>
      <trkpt lat="47.4000920" lon="8.5335290">
        <ele>475.2</ele>
        <time>2022-06-02T05:35:30Z</time>
      </trkpt>
      <trkpt lat="47.3998550" lon="8.5333080">
        <ele>475.6</ele>
        <time>2022-06-02T05:35:37Z</time>
      </trkpt>
      <trkpt lat="47.3997790" lon="8.5332660">
        <ele>475.6</ele>
        <time>2022-06-02T05:35:39Z</time>
      </trkpt>
      <trkpt lat="47.3995600" lon="8.5331530">
        <ele>476.0</ele>
        <time>2022-06-02T05:35:46Z</time>
      </trkpt>
      <trkpt lat="47.3992560" lon="8.5330330">
        <ele>476.4</ele>
        <time>2022-06-02T05:35:54Z</time>
      </trkpt>
      <trkpt lat="47.3990790" lon="8.5329890">
        <ele>476.2</ele>
        <time>2022-06-02T05:36:00Z</time>
      </trkpt>
      <trkpt lat="47.3990560" lon="8.5329960">
        <ele>476.2</ele>
        <time>2022-06-02T05:36:01Z</time>
      </trkpt>
      <trkpt lat="47.3989990" lon="8.5330230">
        <ele>476.2</ele>
        <time>2022-06-02T05:36:04Z</time>
      </trkpt>
      <trkpt lat="47.3989950" lon="8.5330240">
        <ele>476.0</ele>
        <time>2022-06-02T05:36:07Z</time>
      </trkpt>
      <trkpt lat="47.3989340" lon="8.5329770">
        <ele>476.0</ele>
        <time>2022-06-02T05:36:18Z</time>
      </trkpt>
      <trkpt lat="47.3988220" lon="8.5327930">
        <ele>475.8</ele>
        <time>2022-06-02T05:36:22Z</time>
      </trkpt>
      <trkpt lat="47.3987590" lon="8.5326350">
        <ele>475.8</ele>
        <time>2022-06-02T05:36:25Z</time>
      </trkpt>
      <trkpt lat="47.3986420" lon="8.5324630">
        <ele>475.6</ele>
        <time>2022-06-02T05:36:29Z</time>
      </trkpt>
      <trkpt lat="47.3984900" lon="8.5323570">
        <ele>475.8</ele>
        <time>2022-06-02T05:36:34Z</time>
      </trkpt>
      <trkpt lat="47.3983190" lon="8.5323960">
        <ele>475.4</ele>
        <time>2022-06-02T05:36:39Z</time>
      </trkpt>
      <trkpt lat="47.3981890" lon="8.5324370">
        <ele>475.2</ele>
        <time>2022-06-02T05:36:44Z</time>
      </trkpt>
      <trkpt lat="47.3981890" lon="8.5324370">
        <ele>475.2</ele>
        <time>2022-06-02T05:36:45Z</time>
      </trkpt>
      <trkpt lat="47.3981500" lon="8.5324880">
        <ele>475.2</ele>
        <time>2022-06-02T05:37:16Z</time>
      </trkpt>
      <trkpt lat="47.3980770" lon="8.5324810">
        <ele>475.2</ele>
        <time>2022-06-02T05:37:18Z</time>
      </trkpt>
      <trkpt lat="47.3978490" lon="8.5324640">
        <ele>475.0</ele>
        <time>2022-06-02T05:37:23Z</time>
      </trkpt>
      <trkpt lat="47.3976970" lon="8.5324400">
        <ele>474.8</ele>
        <time>2022-06-02T05:37:26Z</time>
      </trkpt>
      <trkpt lat="47.3976390" lon="8.5324390">
        <ele>474.4</ele>
        <time>2022-06-02T05:37:27Z</time>
      </trkpt>
      <trkpt lat="47.3973580" lon="8.5324170">
        <ele>473.4</ele>
        <time>2022-06-02T05:37:32Z</time>
      </trkpt>
      <trkpt lat="47.3972570" lon="8.5324050">
        <ele>473.0</ele>
        <time>2022-06-02T05:37:34Z</time>
      </trkpt>
      <trkpt lat="47.3971500" lon="8.5323800">
        <ele>472.4</ele>
        <time>2022-06-02T05:37:36Z</time>
      </trkpt>
      <trkpt lat="47.3970950" lon="8.5323770">
        <ele>472.0</ele>
        <time>2022-06-02T05:37:37Z</time>
      </trkpt>
      <trkpt lat="47.3969640" lon="8.5323820">
        <ele>471.6</ele>
        <time>2022-06-02T05:37:39Z</time>
      </trkpt>
      <trkpt lat="47.3968010" lon="8.5323460">
        <ele>470.8</ele>
        <time>2022-06-02T05:37:41Z</time>
      </trkpt>
      <trkpt lat="47.3966440" lon="8.5323180">
        <ele>469.8</ele>
        <time>2022-06-02T05:37:44Z</time>
      </trkpt>
      <trkpt lat="47.3965620" lon="8.5323250">
        <ele>468.6</ele>
        <time>2022-06-02T05:37:47Z</time>
      </trkpt>
      <trkpt lat="47.3965050" lon="8.5323450">
        <ele>467.8</ele>
        <time>2022-06-02T05:37:49Z</time>
      </trkpt>
      <trkpt lat="47.3964710" lon="8.5323420">
        <ele>467.4</ele>
        <time>2022-06-02T05:37:50Z</time>
      </trkpt>
      <trkpt lat="47.3962860" lon="8.5322690">
        <ele>466.4</ele>
        <time>2022-06-02T05:37:54Z</time>
      </trkpt>
      <trkpt lat="47.3960320" lon="8.5322080">
        <ele>465.0</ele>
        <time>2022-06-02T05:37:59Z</time>
      </trkpt>
      <trkpt lat="47.3959540" lon="8.5321700">
        <ele>464.4</ele>
        <time>2022-06-02T05:38:01Z</time>
      </trkpt>
      <trkpt lat="47.3958990" lon="8.5321460">
        <ele>463.8</ele>
        <time>2022-06-02T05:38:03Z</time>
      </trkpt>
      <trkpt lat="47.3958350" lon="8.5321260">
        <ele>462.8</ele>
        <time>2022-06-02T05:38:06Z</time>
      </trkpt>
      <trkpt lat="47.3958150" lon="8.5321260">
        <ele>462.4</ele>
        <time>2022-06-02T05:38:07Z</time>
      </trkpt>
      <trkpt lat="47.3957950" lon="8.5321250">
        <ele>462.2</ele>
        <time>2022-06-02T05:38:08Z</time>
      </trkpt>
      <trkpt lat="47.3957750" lon="8.5321250">
        <ele>460.8</ele>
        <time>2022-06-02T05:38:25Z</time>
      </trkpt>
      <trkpt lat="47.3957550" lon="8.5321250">
        <ele>460.8</ele>
        <time>2022-06-02T05:38:26Z</time>
      </trkpt>
      <trkpt lat="47.3955740" lon="8.5321040">
        <ele>460.2</ele>
        <time>2022-06-02T05:38:31Z</time>
      </trkpt>
      <trkpt lat="47.3955440" lon="8.5320740">
        <ele>459.8</ele>
        <time>2022-06-02T05:38:32Z</time>
      </trkpt>
      <trkpt lat="47.3954270" lon="8.5319560">
        <ele>459.2</ele>
        <time>2022-06-02T05:38:36Z</time>
      </trkpt>
      <trkpt lat="47.3953120" lon="8.5319040">
        <ele>458.8</ele>
        <time>2022-06-02T05:38:39Z</time>
      </trkpt>
      <trkpt lat="47.3952440" lon="8.5318620">
        <ele>457.8</ele>
        <time>2022-06-02T05:38:41Z</time>
      </trkpt>
      <trkpt lat="47.3951530" lon="8.5317820">
        <ele>456.6</ele>
        <time>2022-06-02T05:38:44Z</time>
      </trkpt>
      <trkpt lat="47.3950850" lon="8.5317430">
        <ele>456.0</ele>
        <time>2022-06-02T05:38:46Z</time>
      </trkpt>
      <trkpt lat="47.3950370" lon="8.5317130">
        <ele>455.4</ele>
        <time>2022-06-02T05:38:47Z</time>
      </trkpt>
      <trkpt lat="47.3948360" lon="8.5315820">
        <ele>454.0</ele>
        <time>2022-06-02T05:38:51Z</time>
      </trkpt>
      <trkpt lat="47.3946740" lon="8.5314570">
        <ele>452.6</ele>
        <time>2022-06-02T05:38:54Z</time>
      </trkpt>
      <trkpt lat="47.3945490" lon="8.5313760">
        <ele>451.4</ele>
        <time>2022-06-02T05:38:56Z</time>
      </trkpt>
      <trkpt lat="47.3944350" lon="8.5312880">
        <ele>450.4</ele>
        <time>2022-06-02T05:38:58Z</time>
      </trkpt>
      <trkpt lat="47.3943740" lon="8.5312500">
        <ele>450.0</ele>
        <time>2022-06-02T05:38:59Z</time>
      </trkpt>
      <trkpt lat="47.3942560" lon="8.5311650">
        <ele>449.0</ele>
        <time>2022-06-02T05:39:01Z</time>
      </trkpt>
      <trkpt lat="47.3942040" lon="8.5311440">
        <ele>448.0</ele>
        <time>2022-06-02T05:39:02Z</time>
      </trkpt>
      <trkpt lat="47.3941570" lon="8.5311310">
        <ele>447.2</ele>
        <time>2022-06-02T05:39:03Z</time>
      </trkpt>
      <trkpt lat="47.3941110" lon="8.5311010">
        <ele>446.6</ele>
        <time>2022-06-02T05:39:04Z</time>
      </trkpt>
      <trkpt lat="47.3940090" lon="8.5310200">
        <ele>445.4</ele>
        <time>2022-06-02T05:39:06Z</time>
      </trkpt>
      <trkpt lat="47.3939630" lon="8.5310030">
        <ele>444.2</ele>
        <time>2022-06-02T05:39:07Z</time>
      </trkpt>
      <trkpt lat="47.3938830" lon="8.5309620">
        <ele>442.8</ele>
        <time>2022-06-02T05:39:09Z</time>
      </trkpt>
      <trkpt lat="47.3938410" lon="8.5309490">
        <ele>442.6</ele>
        <time>2022-06-02T05:39:10Z</time>
      </trkpt>
      <trkpt lat="47.3937380" lon="8.5309080">
        <ele>441.4</ele>
        <time>2022-06-02T05:39:12Z</time>
      </trkpt>
      <trkpt lat="47.3936810" lon="8.5308780">
        <ele>441.2</ele>
        <time>2022-06-02T05:39:13Z</time>
      </trkpt>
      <trkpt lat="47.3935830" lon="8.5308160">
        <ele>440.4</ele>
        <time>2022-06-02T05:39:15Z</time>
      </trkpt>
      <trkpt lat="47.3934750" lon="8.5307490">
        <ele>439.6</ele>
        <time>2022-06-02T05:39:17Z</time>
      </trkpt>
      <trkpt lat="47.3934240" lon="8.5307260">
        <ele>439.0</ele>
        <time>2022-06-02T05:39:18Z</time>
      </trkpt>
      <trkpt lat="47.3933580" lon="8.5306860">
        <ele>438.4</ele>
        <time>2022-06-02T05:39:20Z</time>
      </trkpt>
      <trkpt lat="47.3933070" lon="8.5306120">
        <ele>437.8</ele>
        <time>2022-06-02T05:39:22Z</time>
      </trkpt>
      <trkpt lat="47.3932730" lon="8.5305520">
        <ele>437.0</ele>
        <time>2022-06-02T05:39:24Z</time>
      </trkpt>
      <trkpt lat="47.3932640" lon="8.5305050">
        <ele>436.8</ele>
        <time>2022-06-02T05:39:25Z</time>
      </trkpt>
      <trkpt lat="47.3932770" lon="8.5304210">
        <ele>436.6</ele>
        <time>2022-06-02T05:39:27Z</time>
      </trkpt>
      <trkpt lat="47.3932940" lon="8.5302650">
        <ele>435.8</ele>
        <time>2022-06-02T05:39:31Z</time>
      </trkpt>
      <trkpt lat="47.3932880" lon="8.5301730">
        <ele>435.4</ele>
        <time>2022-06-02T05:39:33Z</time>
      </trkpt>
      <trkpt lat="47.3933180" lon="8.5299580">
        <ele>435.2</ele>
        <time>2022-06-02T05:39:37Z</time>
      </trkpt>
      <trkpt lat="47.3933800" lon="8.5296500">
        <ele>434.8</ele>
        <time>2022-06-02T05:39:42Z</time>
      </trkpt>
      <trkpt lat="47.3934720" lon="8.5294090">
        <ele>435.0</ele>
        <time>2022-06-02T05:39:48Z</time>
      </trkpt>
      <trkpt lat="47.3934570" lon="8.5293770">
        <ele>435.0</ele>
        <time>2022-06-02T05:39:51Z</time>
      </trkpt>
      <trkpt lat="47.3934180" lon="8.5293520">
        <ele>434.6</ele>
        <time>2022-06-02T05:39:53Z</time>
      </trkpt>
      <trkpt lat="47.3933930" lon="8.5293210">
        <ele>434.6</ele>
        <time>2022-06-02T05:39:55Z</time>
      </trkpt>
      <trkpt lat="47.3933810" lon="8.5292740">
        <ele>434.4</ele>
        <time>2022-06-02T05:39:57Z</time>
      </trkpt>
      <trkpt lat="47.3932640" lon="8.5290440">
        <ele>433.8</ele>
        <time>2022-06-02T05:40:03Z</time>
      </trkpt>
      <trkpt lat="47.3931730" lon="8.5287740">
        <ele>433.4</ele>
        <time>2022-06-02T05:40:09Z</time>
      </trkpt>
      <trkpt lat="47.3932110" lon="8.5284570">
        <ele>433.0</ele>
        <time>2022-06-02T05:40:14Z</time>
      </trkpt>
      <trkpt lat="47.3932200" lon="8.5283850">
        <ele>432.8</ele>
        <time>2022-06-02T05:40:15Z</time>
      </trkpt>
      <trkpt lat="47.3932650" lon="8.5281610">
        <ele>432.2</ele>
        <time>2022-06-02T05:40:18Z</time>
      </trkpt>
      <trkpt lat="47.3932670" lon="8.5280840">
        <ele>432.2</ele>
        <time>2022-06-02T05:40:19Z</time>
      </trkpt>
      <trkpt lat="47.3932790" lon="8.5279210">
        <ele>432.0</ele>
        <time>2022-06-02T05:40:21Z</time>
      </trkpt>
      <trkpt lat="47.3933190" lon="8.5277660">
        <ele>431.4</ele>
        <time>2022-06-02T05:40:23Z</time>
      </trkpt>
      <trkpt lat="47.3933410" lon="8.5276150">
        <ele>431.2</ele>
        <time>2022-06-02T05:40:25Z</time>
      </trkpt>
      <trkpt lat="47.3933540" lon="8.5275370">
        <ele>431.0</ele>
        <time>2022-06-02T05:40:26Z</time>
      </trkpt>
      <trkpt lat="47.3933840" lon="8.5272900">
        <ele>430.0</ele>
        <time>2022-06-02T05:40:29Z</time>
      </trkpt>
      <trkpt lat="47.3934380" lon="8.5269750">
        <ele>429.2</ele>
        <time>2022-06-02T05:40:33Z</time>
      </trkpt>
      <trkpt lat="47.3934580" lon="8.5268970">
        <ele>429.0</ele>
        <time>2022-06-02T05:40:34Z</time>
      </trkpt>
      <trkpt lat="47.3934940" lon="8.5267350">
        <ele>428.0</ele>
        <time>2022-06-02T05:40:36Z</time>
      </trkpt>
      <trkpt lat="47.3935060" lon="8.5266500">
        <ele>427.8</ele>
        <time>2022-06-02T05:40:37Z</time>
      </trkpt>
      <trkpt lat="47.3935080" lon="8.5265610">
        <ele>427.6</ele>
        <time>2022-06-02T05:40:38Z</time>
      </trkpt>
      <trkpt lat="47.3935110" lon="8.5263860">
        <ele>427.0</ele>
        <time>2022-06-02T05:40:40Z</time>
      </trkpt>
      <trkpt lat="47.3934760" lon="8.5261290">
        <ele>425.8</ele>
        <time>2022-06-02T05:40:43Z</time>
      </trkpt>
      <trkpt lat="47.3934570" lon="8.5260440">
        <ele>425.6</ele>
        <time>2022-06-02T05:40:44Z</time>
      </trkpt>
      <trkpt lat="47.3934210" lon="8.5258810">
        <ele>424.6</ele>
        <time>2022-06-02T05:40:46Z</time>
      </trkpt>
      <trkpt lat="47.3933410" lon="8.5254990">
        <ele>423.2</ele>
        <time>2022-06-02T05:40:51Z</time>
      </trkpt>
      <trkpt lat="47.3933240" lon="8.5254190">
        <ele>422.8</ele>
        <time>2022-06-02T05:40:52Z</time>
      </trkpt>
      <trkpt lat="47.3932760" lon="8.5251850">
        <ele>422.2</ele>
        <time>2022-06-02T05:40:55Z</time>
      </trkpt>
      <trkpt lat="47.3932460" lon="8.5249210">
        <ele>421.0</ele>
        <time>2022-06-02T05:40:59Z</time>
      </trkpt>
      <trkpt lat="47.3931860" lon="8.5247130">
        <ele>420.0</ele>
        <time>2022-06-02T05:41:04Z</time>
      </trkpt>
      <trkpt lat="47.3931750" lon="8.5246970">
        <ele>420.0</ele>
        <time>2022-06-02T05:41:05Z</time>
      </trkpt>
      <trkpt lat="47.3931410" lon="8.5246330">
        <ele>418.8</ele>
        <time>2022-06-02T05:41:09Z</time>
      </trkpt>
      <trkpt lat="47.3931410" lon="8.5246330">
        <ele>418.4</ele>
        <time>2022-06-02T05:41:11Z</time>
      </trkpt>
      <trkpt lat="47.3930910" lon="8.5245360">
        <ele>417.2</ele>
        <time>2022-06-02T05:41:20Z</time>
      </trkpt>
      <trkpt lat="47.3930690" lon="8.5245120">
        <ele>417.0</ele>
        <time>2022-06-02T05:41:21Z</time>
      </trkpt>
      <trkpt lat="47.3929000" lon="8.5243650">
        <ele>416.8</ele>
        <time>2022-06-02T05:41:26Z</time>
      </trkpt>
      <trkpt lat="47.3927640" lon="8.5243020">
        <ele>416.0</ele>
        <time>2022-06-02T05:41:29Z</time>
      </trkpt>
      <trkpt lat="47.3925940" lon="8.5242400">
        <ele>414.4</ele>
        <time>2022-06-02T05:41:34Z</time>
      </trkpt>
      <trkpt lat="47.3925020" lon="8.5242430">
        <ele>413.6</ele>
        <time>2022-06-02T05:41:37Z</time>
      </trkpt>
      <trkpt lat="47.3924850" lon="8.5242500">
        <ele>413.2</ele>
        <time>2022-06-02T05:41:38Z</time>
      </trkpt>
      <trkpt lat="47.3924310" lon="8.5242560">
        <ele>412.6</ele>
        <time>2022-06-02T05:41:41Z</time>
      </trkpt>
      <trkpt lat="47.3923840" lon="8.5242620">
        <ele>412.2</ele>
        <time>2022-06-02T05:41:45Z</time>
      </trkpt>
      <trkpt lat="47.3923650" lon="8.5242690">
        <ele>412.2</ele>
        <time>2022-06-02T05:41:46Z</time>
      </trkpt>
      <trkpt lat="47.3923330" lon="8.5242550">
        <ele>412.0</ele>
        <time>2022-06-02T05:41:48Z</time>
      </trkpt>
      <trkpt lat="47.3922560" lon="8.5241910">
        <ele>411.8</ele>
        <time>2022-06-02T05:41:51Z</time>
      </trkpt>
      <trkpt lat="47.3920510" lon="8.5240230">
        <ele>411.6</ele>
        <time>2022-06-02T05:41:58Z</time>
      </trkpt>
      <trkpt lat="47.3920180" lon="8.5240230">
        <ele>411.6</ele>
        <time>2022-06-02T05:41:59Z</time>
      </trkpt>
      <trkpt lat="47.3919750" lon="8.5240470">
        <ele>411.6</ele>
        <time>2022-06-02T05:42:01Z</time>
      </trkpt>
      <trkpt lat="47.3920700" lon="8.5241320">
        <ele>411.6</ele>
        <time>2022-06-02T05:42:05Z</time>
      </trkpt>
      <trkpt lat="47.3921690" lon="8.5242520">
        <ele>411.2</ele>
        <time>2022-06-02T05:42:11Z</time>
      </trkpt>
      <trkpt lat="47.3921770" lon="8.5242590">
        <ele>411.0</ele>
        <time>2022-06-02T05:42:12Z</time>
      </trkpt>
      <trkpt lat="47.3921850" lon="8.5242220">
        <ele>410.6</ele>
        <time>2022-06-02T05:42:14Z</time>
      </trkpt>
      <trkpt lat="47.3922010" lon="8.5241810">
        <ele>410.4</ele>
        <time>2022-06-02T05:42:15Z</time>
      </trkpt>
      <trkpt lat="47.3921840" lon="8.5240840">
        <ele>410.2</ele>
        <time>2022-06-02T05:42:17Z</time>
      </trkpt>
      <trkpt lat="47.3920590" lon="8.5240020">
        <ele>409.8</ele>
        <time>2022-06-02T05:42:19Z</time>
      </trkpt>
      <trkpt lat="47.3920020" lon="8.5239570">
        <ele>409.6</ele>
        <time>2022-06-02T05:42:20Z</time>
      </trkpt>
      <trkpt lat="47.3919030" lon="8.5238670">
        <ele>409.0</ele>
        <time>2022-06-02T05:42:22Z</time>
      </trkpt>
      <trkpt lat="47.3918430" lon="8.5237920">
        <ele>408.8</ele>
        <time>2022-06-02T05:42:24Z</time>
      </trkpt>
      <trkpt lat="47.3918350" lon="8.5237800">
        <ele>408.4</ele>
        <time>2022-06-02T05:42:25Z</time>
      </trkpt>
      <trkpt lat="47.3918350" lon="8.5237800">
        <ele>407.4</ele>
        <time>2022-06-02T05:42:28Z</time>
      </trkpt>
      <trkpt lat="47.3918760" lon="8.5232310">
        <ele>406.8</ele>
        <time>2022-06-02T05:42:32Z</time>
      </trkpt>
      <trkpt lat="47.3919680" lon="8.5230260">
        <ele>406.4</ele>
        <time>2022-06-02T05:42:37Z</time>
      </trkpt>
      <trkpt lat="47.3919810" lon="8.5229740">
        <ele>406.4</ele>
        <time>2022-06-02T05:42:38Z</time>
      </trkpt>
      <trkpt lat="47.3920650" lon="8.5226970">
        <ele>406.4</ele>
        <time>2022-06-02T05:42:44Z</time>
      </trkpt>
      <trkpt lat="47.3921570" lon="8.5223810">
        <ele>406.6</ele>
        <time>2022-06-02T05:42:50Z</time>
      </trkpt>
      <trkpt lat="47.3922040" lon="8.5221270">
        <ele>406.4</ele>
        <time>2022-06-02T05:42:54Z</time>
      </trkpt>
      <trkpt lat="47.3922290" lon="8.5219920">
        <ele>406.4</ele>
        <time>2022-06-02T05:42:56Z</time>
      </trkpt>
      <trkpt lat="47.3923400" lon="8.5214790">
        <ele>405.8</ele>
        <time>2022-06-02T05:43:04Z</time>
      </trkpt>
      <trkpt lat="47.3924570" lon="8.5209260">
        <ele>405.8</ele>
        <time>2022-06-02T05:43:13Z</time>
      </trkpt>
      <trkpt lat="47.3925720" lon="8.5203660">
        <ele>405.6</ele>
        <time>2022-06-02T05:43:23Z</time>
      </trkpt>
      <trkpt lat="47.3926170" lon="8.5201210">
        <ele>405.4</ele>
        <time>2022-06-02T05:43:28Z</time>
      </trkpt>
      <trkpt lat="47.3926350" lon="8.5200860">
        <ele>405.2</ele>
        <time>2022-06-02T05:43:29Z</time>
      </trkpt>
      <trkpt lat="47.3926850" lon="8.5198290">
        <ele>405.0</ele>
        <time>2022-06-02T05:43:34Z</time>
      </trkpt>
      <trkpt lat="47.3927400" lon="8.5195180">
        <ele>405.2</ele>
        <time>2022-06-02T05:43:40Z</time>
      </trkpt>
      <trkpt lat="47.3928080" lon="8.5192900">
        <ele>405.6</ele>
        <time>2022-06-02T05:43:45Z</time>
      </trkpt>
      <trkpt lat="47.3928030" lon="8.5192530">
        <ele>406.0</ele>
        <time>2022-06-02T05:43:46Z</time>
      </trkpt>
      <trkpt lat="47.3927840" lon="8.5192310">
        <ele>406.0</ele>
        <time>2022-06-02T05:43:47Z</time>
      </trkpt>
      <trkpt lat="47.3927240" lon="8.5192120">
        <ele>406.0</ele>
        <time>2022-06-02T05:43:49Z</time>
      </trkpt>
      <trkpt lat="47.3926960" lon="8.5192020">
        <ele>406.2</ele>
        <time>2022-06-02T05:43:50Z</time>
      </trkpt>
      <trkpt lat="47.3925580" lon="8.5191820">
        <ele>406.6</ele>
        <time>2022-06-02T05:43:55Z</time>
      </trkpt>
      <trkpt lat="47.3922570" lon="8.5191620">
        <ele>407.0</ele>
        <time>2022-06-02T05:44:04Z</time>
      </trkpt>
      <trkpt lat="47.3921960" lon="8.5191490">
        <ele>407.0</ele>
        <time>2022-06-02T05:44:07Z</time>
      </trkpt>
      <trkpt lat="47.3921880" lon="8.5191190">
        <ele>407.0</ele>
        <time>2022-06-02T05:44:08Z</time>
      </trkpt>
      <trkpt lat="47.3921950" lon="8.5190770">
        <ele>407.0</ele>
        <time>2022-06-02T05:44:09Z</time>
      </trkpt>
      <trkpt lat="47.3922170" lon="8.5189770">
        <ele>409.8</ele>
        <time>2022-06-02T05:44:11Z</time>
      </trkpt>
      <trkpt lat="47.3923190" lon="8.5185750">
        <ele>406.0</ele>
        <time>2022-06-02T05:44:18Z</time>
      </trkpt>
      <trkpt lat="47.3923980" lon="8.5182220">
        <ele>406.0</ele>
        <time>2022-06-02T05:44:24Z</time>
      </trkpt>
      <trkpt lat="47.3924180" lon="8.5181620">
        <ele>406.0</ele>
        <time>2022-06-02T05:44:25Z</time>
      </trkpt>
      <trkpt lat="47.3925250" lon="8.5177870">
        <ele>405.8</ele>
        <time>2022-06-02T05:44:31Z</time>
      </trkpt>
      <trkpt lat="47.3927040" lon="8.5172590">
        <ele>405.6</ele>
        <time>2022-06-02T05:44:40Z</time>
      </trkpt>
      <trkpt lat="47.3929030" lon="8.5166810">
        <ele>405.2</ele>
        <time>2022-06-02T05:44:50Z</time>
      </trkpt>
      <trkpt lat="47.3931060" lon="8.5160960">
        <ele>405.4</ele>
        <time>2022-06-02T05:45:00Z</time>
      </trkpt>
      <trkpt lat="47.3932350" lon="8.5157540">
        <ele>405.6</ele>
        <time>2022-06-02T05:45:06Z</time>
      </trkpt>
      <trkpt lat="47.3933120" lon="8.5155330">
        <ele>405.6</ele>
        <time>2022-06-02T05:45:10Z</time>
      </trkpt>
      <trkpt lat="47.3935270" lon="8.5149910">
        <ele>405.6</ele>
        <time>2022-06-02T05:45:20Z</time>
      </trkpt>
      <trkpt lat="47.3935830" lon="8.5148350">
        <ele>405.6</ele>
        <time>2022-06-02T05:45:23Z</time>
      </trkpt>
      <trkpt lat="47.3936380" lon="8.5146240">
        <ele>405.6</ele>
        <time>2022-06-02T05:45:27Z</time>
      </trkpt>
      <trkpt lat="47.3937110" lon="8.5143070">
        <ele>405.6</ele>
        <time>2022-06-02T05:45:33Z</time>
      </trkpt>
      <trkpt lat="47.3938370" lon="8.5139880">
        <ele>405.4</ele>
        <time>2022-06-02T05:45:39Z</time>
      </trkpt>
      <trkpt lat="47.3938550" lon="8.5138160">
        <ele>405.4</ele>
        <time>2022-06-02T05:45:42Z</time>
      </trkpt>
      <trkpt lat="47.3938470" lon="8.5137700">
        <ele>405.4</ele>
        <time>2022-06-02T05:45:43Z</time>
      </trkpt>
      <trkpt lat="47.3938480" lon="8.5137140">
        <ele>405.4</ele>
        <time>2022-06-02T05:45:44Z</time>
      </trkpt>
      <trkpt lat="47.3938760" lon="8.5136170">
        <ele>405.2</ele>
        <time>2022-06-02T05:45:46Z</time>
      </trkpt>
      <trkpt lat="47.3940080" lon="8.5134320">
        <ele>405.2</ele>
        <time>2022-06-02T05:45:50Z</time>
      </trkpt>
      <trkpt lat="47.3940380" lon="8.5132660">
        <ele>405.2</ele>
        <time>2022-06-02T05:45:54Z</time>
      </trkpt>
      <trkpt lat="47.3940540" lon="8.5131950">
        <ele>405.2</ele>
        <time>2022-06-02T05:45:56Z</time>
      </trkpt>
      <trkpt lat="47.3940670" lon="8.5131370">
        <ele>405.6</ele>
        <time>2022-06-02T05:45:59Z</time>
      </trkpt>
      <trkpt lat="47.3940900" lon="8.5129010">
        <ele>406.0</ele>
        <time>2022-06-02T05:46:03Z</time>
      </trkpt>
      <trkpt lat="47.3941490" lon="8.5125480">
        <ele>406.2</ele>
        <time>2022-06-02T05:46:08Z</time>
      </trkpt>
      <trkpt lat="47.3941800" lon="8.5123970">
        <ele>406.2</ele>
        <time>2022-06-02T05:46:10Z</time>
      </trkpt>
      <trkpt lat="47.3942220" lon="8.5120540">
        <ele>406.0</ele>
        <time>2022-06-02T05:46:15Z</time>
      </trkpt>
      <trkpt lat="47.3942970" lon="8.5115660">
        <ele>406.0</ele>
        <time>2022-06-02T05:46:22Z</time>
      </trkpt>
      <trkpt lat="47.3943090" lon="8.5113230">
        <ele>405.8</ele>
        <time>2022-06-02T05:46:26Z</time>
      </trkpt>
      <trkpt lat="47.3943120" lon="8.5111880">
        <ele>405.8</ele>
        <time>2022-06-02T05:46:28Z</time>
      </trkpt>
      <trkpt lat="47.3943210" lon="8.5110600">
        <ele>405.8</ele>
        <time>2022-06-02T05:46:30Z</time>
      </trkpt>
      <trkpt lat="47.3943180" lon="8.5109300">
        <ele>405.8</ele>
        <time>2022-06-02T05:46:32Z</time>
      </trkpt>
      <trkpt lat="47.3943210" lon="8.5108030">
        <ele>406.0</ele>
        <time>2022-06-02T05:46:34Z</time>
      </trkpt>
      <trkpt lat="47.3943410" lon="8.5102600">
        <ele>405.6</ele>
        <time>2022-06-02T05:46:42Z</time>
      </trkpt>
      <trkpt lat="47.3943340" lon="8.5097740">
        <ele>405.6</ele>
        <time>2022-06-02T05:46:50Z</time>
      </trkpt>
      <trkpt lat="47.3943250" lon="8.5093240">
        <ele>405.4</ele>
        <time>2022-06-02T05:46:57Z</time>
      </trkpt>
      <trkpt lat="47.3943440" lon="8.5090640">
        <ele>405.4</ele>
        <time>2022-06-02T05:47:01Z</time>
      </trkpt>
      <trkpt lat="47.3943760" lon="8.5088710">
        <ele>405.4</ele>
        <time>2022-06-02T05:47:04Z</time>
      </trkpt>
      <trkpt lat="47.3944330" lon="8.5083650">
        <ele>405.0</ele>
        <time>2022-06-02T05:47:12Z</time>
      </trkpt>
      <trkpt lat="47.3944790" lon="8.5078320">
        <ele>404.8</ele>
        <time>2022-06-02T05:47:20Z</time>
      </trkpt>
      <trkpt lat="47.3945140" lon="8.5072430">
        <ele>404.8</ele>
        <time>2022-06-02T05:47:29Z</time>
      </trkpt>
      <trkpt lat="47.3945390" lon="8.5065600">
        <ele>404.4</ele>
        <time>2022-06-02T05:47:39Z</time>
      </trkpt>
      <trkpt lat="47.3945750" lon="8.5060320">
        <ele>404.4</ele>
        <time>2022-06-02T05:47:47Z</time>
      </trkpt>
      <trkpt lat="47.3946180" lon="8.5054420">
        <ele>404.2</ele>
        <time>2022-06-02T05:47:56Z</time>
      </trkpt>
      <trkpt lat="47.3946390" lon="8.5053200">
        <ele>404.0</ele>
        <time>2022-06-02T05:47:58Z</time>
      </trkpt>
      <trkpt lat="47.3946700" lon="8.5051850">
        <ele>404.0</ele>
        <time>2022-06-02T05:48:00Z</time>
      </trkpt>
      <trkpt lat="47.3946970" lon="8.5050490">
        <ele>404.0</ele>
        <time>2022-06-02T05:48:02Z</time>
      </trkpt>
      <trkpt lat="47.3948120" lon="8.5045120">
        <ele>404.0</ele>
        <time>2022-06-02T05:48:10Z</time>
      </trkpt>
      <trkpt lat="47.3948790" lon="8.5042500">
        <ele>404.0</ele>
        <time>2022-06-02T05:48:14Z</time>
      </trkpt>
      <trkpt lat="47.3949040" lon="8.5041250">
        <ele>404.0</ele>
        <time>2022-06-02T05:48:16Z</time>
      </trkpt>
      <trkpt lat="47.3949180" lon="8.5040670">
        <ele>404.2</ele>
        <time>2022-06-02T05:48:17Z</time>
      </trkpt>
      <trkpt lat="47.3949240" lon="8.5039000">
        <ele>404.4</ele>
        <time>2022-06-02T05:48:21Z</time>
      </trkpt>
      <trkpt lat="47.3949400" lon="8.5038580">
        <ele>404.6</ele>
        <time>2022-06-02T05:48:22Z</time>
      </trkpt>
      <trkpt lat="47.3950100" lon="8.5037490">
        <ele>404.6</ele>
        <time>2022-06-02T05:48:25Z</time>
      </trkpt>
      <trkpt lat="47.3950390" lon="8.5036990">
        <ele>404.6</ele>
        <time>2022-06-02T05:48:26Z</time>
      </trkpt>
      <trkpt lat="47.3951620" lon="8.5034380">
        <ele>404.4</ele>
        <time>2022-06-02T05:48:30Z</time>
      </trkpt>
      <trkpt lat="47.3952930" lon="8.5031280">
        <ele>403.8</ele>
        <time>2022-06-02T05:48:35Z</time>
      </trkpt>
      <trkpt lat="47.3953730" lon="8.5029460">
        <ele>403.4</ele>
        <time>2022-06-02T05:48:38Z</time>
      </trkpt>
      <trkpt lat="47.3955060" lon="8.5026760">
        <ele>403.0</ele>
        <time>2022-06-02T05:48:43Z</time>
      </trkpt>
      <trkpt lat="47.3955590" lon="8.5025760">
        <ele>403.0</ele>
        <time>2022-06-02T05:48:45Z</time>
      </trkpt>
      <trkpt lat="47.3957490" lon="8.5022370">
        <ele>402.8</ele>
        <time>2022-06-02T05:48:52Z</time>
      </trkpt>
      <trkpt lat="47.3958450" lon="8.5021000">
        <ele>402.6</ele>
        <time>2022-06-02T05:48:55Z</time>
      </trkpt>
      <trkpt lat="47.3960120" lon="8.5018550">
        <ele>402.6</ele>
        <time>2022-06-02T05:49:00Z</time>
      </trkpt>
      <trkpt lat="47.3962630" lon="8.5015430">
        <ele>402.4</ele>
        <time>2022-06-02T05:49:07Z</time>
      </trkpt>
      <trkpt lat="47.3965560" lon="8.5012170">
        <ele>402.6</ele>
        <time>2022-06-02T05:49:15Z</time>
      </trkpt>
      <trkpt lat="47.3970040" lon="8.5007210">
        <ele>402.2</ele>
        <time>2022-06-02T05:49:27Z</time>
      </trkpt>
      <trkpt lat="47.3970400" lon="8.5006750">
        <ele>402.2</ele>
        <time>2022-06-02T05:49:28Z</time>
      </trkpt>
      <trkpt lat="47.3972490" lon="8.5004000">
        <ele>402.0</ele>
        <time>2022-06-02T05:49:34Z</time>
      </trkpt>
      <trkpt lat="47.3973820" lon="8.5002050">
        <ele>402.2</ele>
        <time>2022-06-02T05:49:38Z</time>
      </trkpt>
      <trkpt lat="47.3976740" lon="8.4997380">
        <ele>402.2</ele>
        <time>2022-06-02T05:49:47Z</time>
      </trkpt>
      <trkpt lat="47.3978870" lon="8.4993350">
        <ele>402.0</ele>
        <time>2022-06-02T05:49:55Z</time>
      </trkpt>
      <trkpt lat="47.3980050" lon="8.4990740">
        <ele>401.8</ele>
        <time>2022-06-02T05:50:00Z</time>
      </trkpt>
      <trkpt lat="47.3980760" lon="8.4989140">
        <ele>401.6</ele>
        <time>2022-06-02T05:50:03Z</time>
      </trkpt>
      <trkpt lat="47.3982190" lon="8.4985150">
        <ele>401.4</ele>
        <time>2022-06-02T05:50:10Z</time>
      </trkpt>
      <trkpt lat="47.3983130" lon="8.4982060">
        <ele>401.4</ele>
        <time>2022-06-02T05:50:15Z</time>
      </trkpt>
      <trkpt lat="47.3983480" lon="8.4980790">
        <ele>401.4</ele>
        <time>2022-06-02T05:50:17Z</time>
      </trkpt>
      <trkpt lat="47.3983880" lon="8.4979510">
        <ele>401.4</ele>
        <time>2022-06-02T05:50:19Z</time>
      </trkpt>
      <trkpt lat="47.3984580" lon="8.4976360">
        <ele>401.2</ele>
        <time>2022-06-02T05:50:24Z</time>
      </trkpt>
      <trkpt lat="47.3984750" lon="8.4975110">
        <ele>401.0</ele>
        <time>2022-06-02T05:50:26Z</time>
      </trkpt>
      <trkpt lat="47.3985100" lon="8.4973100">
        <ele>401.2</ele>
        <time>2022-06-02T05:50:29Z</time>
      </trkpt>
      <trkpt lat="47.3985420" lon="8.4968240">
        <ele>401.2</ele>
        <time>2022-06-02T05:50:36Z</time>
      </trkpt>
      <trkpt lat="47.3985530" lon="8.4967600">
        <ele>401.2</ele>
        <time>2022-06-02T05:50:37Z</time>
      </trkpt>
      <trkpt lat="47.3986020" lon="8.4964780">
        <ele>401.0</ele>
        <time>2022-06-02T05:50:41Z</time>
      </trkpt>
      <trkpt lat="47.3986860" lon="8.4960120">
        <ele>401.0</ele>
        <time>2022-06-02T05:50:48Z</time>
      </trkpt>
      <trkpt lat="47.3987270" lon="8.4955430">
        <ele>401.0</ele>
        <time>2022-06-02T05:50:55Z</time>
      </trkpt>
      <trkpt lat="47.3987500" lon="8.4954130">
        <ele>401.0</ele>
        <time>2022-06-02T05:50:57Z</time>
      </trkpt>
      <trkpt lat="47.3987500" lon="8.4952400">
        <ele>401.4</ele>
        <time>2022-06-02T05:51:00Z</time>
      </trkpt>
      <trkpt lat="47.3987580" lon="8.4949930">
        <ele>401.4</ele>
        <time>2022-06-02T05:51:05Z</time>
      </trkpt>
      <trkpt lat="47.3987460" lon="8.4947330">
        <ele>401.6</ele>
        <time>2022-06-02T05:51:09Z</time>
      </trkpt>
      <trkpt lat="47.3987330" lon="8.4944210">
        <ele>401.6</ele>
        <time>2022-06-02T05:51:14Z</time>
      </trkpt>
      <trkpt lat="47.3986260" lon="8.4940120">
        <ele>401.2</ele>
        <time>2022-06-02T05:51:20Z</time>
      </trkpt>
      <trkpt lat="47.3986060" lon="8.4939440">
        <ele>401.0</ele>
        <time>2022-06-02T05:51:21Z</time>
      </trkpt>
      <trkpt lat="47.3985780" lon="8.4937930">
        <ele>401.0</ele>
        <time>2022-06-02T05:51:23Z</time>
      </trkpt>
      <trkpt lat="47.3985760" lon="8.4936610">
        <ele>400.8</ele>
        <time>2022-06-02T05:51:25Z</time>
      </trkpt>
      <trkpt lat="47.3985760" lon="8.4935520">
        <ele>400.6</ele>
        <time>2022-06-02T05:51:28Z</time>
      </trkpt>
      <trkpt lat="47.3985900" lon="8.4933680">
        <ele>400.4</ele>
        <time>2022-06-02T05:51:33Z</time>
      </trkpt>
      <trkpt lat="47.3985600" lon="8.4930910">
        <ele>400.8</ele>
        <time>2022-06-02T05:51:39Z</time>
      </trkpt>
      <trkpt lat="47.3985240" lon="8.4928120">
        <ele>401.0</ele>
        <time>2022-06-02T05:51:44Z</time>
      </trkpt>
      <trkpt lat="47.3984560" lon="8.4924660">
        <ele>400.8</ele>
        <time>2022-06-02T05:51:50Z</time>
      </trkpt>
      <trkpt lat="47.3984370" lon="8.4922240">
        <ele>400.6</ele>
        <time>2022-06-02T05:51:54Z</time>
      </trkpt>
      <trkpt lat="47.3983980" lon="8.4918270">
        <ele>400.6</ele>
        <time>2022-06-02T05:52:00Z</time>
      </trkpt>
      <trkpt lat="47.3983990" lon="8.4916250">
        <ele>400.4</ele>
        <time>2022-06-02T05:52:03Z</time>
      </trkpt>
      <trkpt lat="47.3983910" lon="8.4914950">
        <ele>400.2</ele>
        <time>2022-06-02T05:52:05Z</time>
      </trkpt>
      <trkpt lat="47.3983850" lon="8.4914330">
        <ele>400.2</ele>
        <time>2022-06-02T05:52:06Z</time>
      </trkpt>
      <trkpt lat="47.3983140" lon="8.4910340">
        <ele>400.2</ele>
        <time>2022-06-02T05:52:13Z</time>
      </trkpt>
      <trkpt lat="47.3982240" lon="8.4905790">
        <ele>400.4</ele>
        <time>2022-06-02T05:52:20Z</time>
      </trkpt>
      <trkpt lat="47.3982040" lon="8.4905070">
        <ele>400.2</ele>
        <time>2022-06-02T05:52:21Z</time>
      </trkpt>
      <trkpt lat="47.3981250" lon="8.4901950">
        <ele>400.2</ele>
        <time>2022-06-02T05:52:26Z</time>
      </trkpt>
      <trkpt lat="47.3981210" lon="8.4901390">
        <ele>400.2</ele>
        <time>2022-06-02T05:52:27Z</time>
      </trkpt>
      <trkpt lat="47.3981380" lon="8.4900720">
        <ele>400.2</ele>
        <time>2022-06-02T05:52:28Z</time>
      </trkpt>
      <trkpt lat="47.3981650" lon="8.4899170">
        <ele>400.2</ele>
        <time>2022-06-02T05:52:30Z</time>
      </trkpt>
      <trkpt lat="47.3982010" lon="8.4898380">
        <ele>400.2</ele>
        <time>2022-06-02T05:52:31Z</time>
      </trkpt>
      <trkpt lat="47.3982240" lon="8.4897100">
        <ele>400.0</ele>
        <time>2022-06-02T05:52:34Z</time>
      </trkpt>
      <trkpt lat="47.3982800" lon="8.4896890">
        <ele>400.0</ele>
        <time>2022-06-02T05:52:36Z</time>
      </trkpt>
      <trkpt lat="47.3983110" lon="8.4896510">
        <ele>400.0</ele>
        <time>2022-06-02T05:52:37Z</time>
      </trkpt>
      <trkpt lat="47.3983300" lon="8.4895440">
        <ele>400.0</ele>
        <time>2022-06-02T05:52:39Z</time>
      </trkpt>
      <trkpt lat="47.3983040" lon="8.4894180">
        <ele>400.2</ele>
        <time>2022-06-02T05:52:41Z</time>
      </trkpt>
      <trkpt lat="47.3983050" lon="8.4890450">
        <ele>400.2</ele>
        <time>2022-06-02T05:52:47Z</time>
      </trkpt>
      <trkpt lat="47.3983560" lon="8.4885040">
        <ele>400.2</ele>
        <time>2022-06-02T05:52:56Z</time>
      </trkpt>
      <trkpt lat="47.3983690" lon="8.4883110">
        <ele>400.2</ele>
        <time>2022-06-02T05:52:59Z</time>
      </trkpt>
      <trkpt lat="47.3983990" lon="8.4880590">
        <ele>400.2</ele>
        <time>2022-06-02T05:53:03Z</time>
      </trkpt>
      <trkpt lat="47.3985240" lon="8.4874950">
        <ele>399.6</ele>
        <time>2022-06-02T05:53:12Z</time>
      </trkpt>
      <trkpt lat="47.3985900" lon="8.4872500">
        <ele>399.6</ele>
        <time>2022-06-02T05:53:16Z</time>
      </trkpt>
      <trkpt lat="47.3986370" lon="8.4870690">
        <ele>399.6</ele>
        <time>2022-06-02T05:53:19Z</time>
      </trkpt>
      <trkpt lat="47.3988450" lon="8.4865030">
        <ele>399.6</ele>
        <time>2022-06-02T05:53:28Z</time>
      </trkpt>
      <trkpt lat="47.3990450" lon="8.4860310">
        <ele>399.6</ele>
        <time>2022-06-02T05:53:36Z</time>
      </trkpt>
      <trkpt lat="47.3992200" lon="8.4857000">
        <ele>399.4</ele>
        <time>2022-06-02T05:53:42Z</time>
      </trkpt>
      <trkpt lat="47.3994050" lon="8.4854130">
        <ele>399.4</ele>
        <time>2022-06-02T05:53:48Z</time>
      </trkpt>
      <trkpt lat="47.3996460" lon="8.4850800">
        <ele>399.4</ele>
        <time>2022-06-02T05:53:55Z</time>
      </trkpt>
      <trkpt lat="47.3997170" lon="8.4849950">
        <ele>399.4</ele>
        <time>2022-06-02T05:53:57Z</time>
      </trkpt>
      <trkpt lat="47.3997820" lon="8.4849210">
        <ele>399.4</ele>
        <time>2022-06-02T05:53:59Z</time>
      </trkpt>
      <trkpt lat="47.3998710" lon="8.4848150">
        <ele>399.6</ele>
        <time>2022-06-02T05:54:02Z</time>
      </trkpt>
      <trkpt lat="47.3999880" lon="8.4846790">
        <ele>399.8</ele>
        <time>2022-06-02T05:54:07Z</time>
      </trkpt>
      <trkpt lat="47.4001510" lon="8.4845420">
        <ele>400.2</ele>
        <time>2022-06-02T05:54:11Z</time>
      </trkpt>
      <trkpt lat="47.4003880" lon="8.4843350">
        <ele>400.2</ele>
        <time>2022-06-02T05:54:16Z</time>
      </trkpt>
      <trkpt lat="47.4004290" lon="8.4842960">
        <ele>400.2</ele>
        <time>2022-06-02T05:54:17Z</time>
      </trkpt>
      <trkpt lat="47.4006770" lon="8.4840680">
        <ele>399.8</ele>
        <time>2022-06-02T05:54:23Z</time>
      </trkpt>
      <trkpt lat="47.4007850" lon="8.4839840">
        <ele>399.8</ele>
        <time>2022-06-02T05:54:25Z</time>
      </trkpt>
      <trkpt lat="47.4008660" lon="8.4839040">
        <ele>399.8</ele>
        <time>2022-06-02T05:54:27Z</time>
      </trkpt>
      <trkpt lat="47.4011300" lon="8.4836480">
        <ele>399.8</ele>
        <time>2022-06-02T05:54:33Z</time>
      </trkpt>
      <trkpt lat="47.4015100" lon="8.4832570">
        <ele>399.6</ele>
        <time>2022-06-02T05:54:42Z</time>
      </trkpt>
      <trkpt lat="47.4015860" lon="8.4831940">
        <ele>399.6</ele>
        <time>2022-06-02T05:54:44Z</time>
      </trkpt>
      <trkpt lat="47.4017460" lon="8.4830470">
        <ele>399.6</ele>
        <time>2022-06-02T05:54:48Z</time>
      </trkpt>
      <trkpt lat="47.4017850" lon="8.4830080">
        <ele>399.6</ele>
        <time>2022-06-02T05:54:49Z</time>
      </trkpt>
      <trkpt lat="47.4019920" lon="8.4828160">
        <ele>399.4</ele>
        <time>2022-06-02T05:54:54Z</time>
      </trkpt>
      <trkpt lat="47.4022510" lon="8.4824860">
        <ele>399.4</ele>
        <time>2022-06-02T05:55:01Z</time>
      </trkpt>
      <trkpt lat="47.4023160" lon="8.4824090">
        <ele>399.2</ele>
        <time>2022-06-02T05:55:03Z</time>
      </trkpt>
      <trkpt lat="47.4023970" lon="8.4823040">
        <ele>399.2</ele>
        <time>2022-06-02T05:55:05Z</time>
      </trkpt>
      <trkpt lat="47.4025320" lon="8.4821030">
        <ele>399.2</ele>
        <time>2022-06-02T05:55:09Z</time>
      </trkpt>
      <trkpt lat="47.4025730" lon="8.4820360">
        <ele>399.0</ele>
        <time>2022-06-02T05:55:10Z</time>
      </trkpt>
      <trkpt lat="47.4027310" lon="8.4817150">
        <ele>398.8</ele>
        <time>2022-06-02T05:55:15Z</time>
      </trkpt>
      <trkpt lat="47.4028160" lon="8.4815120">
        <ele>398.6</ele>
        <time>2022-06-02T05:55:18Z</time>
      </trkpt>
      <trkpt lat="47.4028720" lon="8.4813800">
        <ele>398.2</ele>
        <time>2022-06-02T05:55:20Z</time>
      </trkpt>
      <trkpt lat="47.4029240" lon="8.4812440">
        <ele>397.8</ele>
        <time>2022-06-02T05:55:22Z</time>
      </trkpt>
      <trkpt lat="47.4030130" lon="8.4809560">
        <ele>397.4</ele>
        <time>2022-06-02T05:55:27Z</time>
      </trkpt>
      <trkpt lat="47.4031410" lon="8.4805780">
        <ele>397.2</ele>
        <time>2022-06-02T05:55:33Z</time>
      </trkpt>
      <trkpt lat="47.4031610" lon="8.4805040">
        <ele>397.2</ele>
        <time>2022-06-02T05:55:34Z</time>
      </trkpt>
      <trkpt lat="47.4032270" lon="8.4802700">
        <ele>397.0</ele>
        <time>2022-06-02T05:55:38Z</time>
      </trkpt>
      <trkpt lat="47.4032570" lon="8.4801500">
        <ele>397.0</ele>
        <time>2022-06-02T05:55:40Z</time>
      </trkpt>
      <trkpt lat="47.4033610" lon="8.4796190">
        <ele>396.4</ele>
        <time>2022-06-02T05:55:49Z</time>
      </trkpt>
      <trkpt lat="47.4034280" lon="8.4792900">
        <ele>396.0</ele>
        <time>2022-06-02T05:55:55Z</time>
      </trkpt>
      <trkpt lat="47.4034410" lon="8.4792340">
        <ele>396.0</ele>
        <time>2022-06-02T05:55:56Z</time>
      </trkpt>
      <trkpt lat="47.4034980" lon="8.4789760">
        <ele>396.4</ele>
        <time>2022-06-02T05:56:02Z</time>
      </trkpt>
      <trkpt lat="47.4035070" lon="8.4787380">
        <ele>396.8</ele>
        <time>2022-06-02T05:56:09Z</time>
      </trkpt>
      <trkpt lat="47.4035240" lon="8.4786150">
        <ele>397.0</ele>
        <time>2022-06-02T05:56:13Z</time>
      </trkpt>
      <trkpt lat="47.4035170" lon="8.4784950">
        <ele>397.0</ele>
        <time>2022-06-02T05:56:16Z</time>
      </trkpt>
      <trkpt lat="47.4035230" lon="8.4782360">
        <ele>397.4</ele>
        <time>2022-06-02T05:56:21Z</time>
      </trkpt>
      <trkpt lat="47.4035490" lon="8.4779580">
        <ele>397.8</ele>
        <time>2022-06-02T05:56:28Z</time>
      </trkpt>
      <trkpt lat="47.4035360" lon="8.4779000">
        <ele>398.0</ele>
        <time>2022-06-02T05:56:32Z</time>
      </trkpt>
      <trkpt lat="47.4035230" lon="8.4778820">
        <ele>398.0</ele>
        <time>2022-06-02T05:56:33Z</time>
      </trkpt>
      <trkpt lat="47.4034760" lon="8.4778300">
        <ele>397.8</ele>
        <time>2022-06-02T05:56:39Z</time>
      </trkpt>
      <trkpt lat="47.4034460" lon="8.4777910">
        <ele>398.0</ele>
        <time>2022-06-02T05:58:05Z</time>
      </trkpt>
      <trkpt lat="47.4034150" lon="8.4777300">
        <ele>397.8</ele>
        <time>2022-06-02T05:58:07Z</time>
      </trkpt>
      <trkpt lat="47.4034040" lon="8.4776990">
        <ele>397.8</ele>
        <time>2022-06-02T05:58:08Z</time>
      </trkpt>
      <trkpt lat="47.4034170" lon="8.4775770">
        <ele>397.6</ele>
        <time>2022-06-02T05:58:11Z</time>
      </trkpt>
      <trkpt lat="47.4035180" lon="8.4772470">
        <ele>397.4</ele>
        <time>2022-06-02T05:58:18Z</time>
      </trkpt>
      <trkpt lat="47.4035290" lon="8.4769200">
        <ele>397.6</ele>
        <time>2022-06-02T05:58:24Z</time>
      </trkpt>
      <trkpt lat="47.4034890" lon="8.4765350">
        <ele>397.8</ele>
        <time>2022-06-02T05:58:31Z</time>
      </trkpt>
      <trkpt lat="47.4034900" lon="8.4764710">
        <ele>398.0</ele>
        <time>2022-06-02T05:58:32Z</time>
      </trkpt>
      <trkpt lat="47.4035010" lon="8.4762480">
        <ele>397.8</ele>
        <time>2022-06-02T05:58:35Z</time>
      </trkpt>
      <trkpt lat="47.4034880" lon="8.4758450">
        <ele>397.2</ele>
        <time>2022-06-02T05:58:40Z</time>
      </trkpt>
      <trkpt lat="47.4034810" lon="8.4757640">
        <ele>397.0</ele>
        <time>2022-06-02T05:58:41Z</time>
      </trkpt>
      <trkpt lat="47.4034710" lon="8.4756840">
        <ele>397.0</ele>
        <time>2022-06-02T05:58:42Z</time>
      </trkpt>
      <trkpt lat="47.4034520" lon="8.4755250">
        <ele>396.8</ele>
        <time>2022-06-02T05:58:44Z</time>
      </trkpt>
      <trkpt lat="47.4034430" lon="8.4753700">
        <ele>396.6</ele>
        <time>2022-06-02T05:58:46Z</time>
      </trkpt>
      <trkpt lat="47.4033700" lon="8.4749510">
        <ele>396.4</ele>
        <time>2022-06-02T05:58:52Z</time>
      </trkpt>
      <trkpt lat="47.4033300" lon="8.4746820">
        <ele>396.6</ele>
        <time>2022-06-02T05:58:57Z</time>
      </trkpt>
      <trkpt lat="47.4032850" lon="8.4744410">
        <ele>397.4</ele>
        <time>2022-06-02T05:59:02Z</time>
      </trkpt>
      <trkpt lat="47.4032150" lon="8.4741560">
        <ele>397.4</ele>
        <time>2022-06-02T05:59:08Z</time>
      </trkpt>
      <trkpt lat="47.4031870" lon="8.4739650">
        <ele>397.0</ele>
        <time>2022-06-02T05:59:13Z</time>
      </trkpt>
      <trkpt lat="47.4032010" lon="8.4739250">
        <ele>397.0</ele>
        <time>2022-06-02T05:59:15Z</time>
      </trkpt>
      <trkpt lat="47.4031740" lon="8.4738530">
        <ele>396.8</ele>
        <time>2022-06-02T05:59:17Z</time>
      </trkpt>
      <trkpt lat="47.4031360" lon="8.4736310">
        <ele>396.4</ele>
        <time>2022-06-02T05:59:22Z</time>
      </trkpt>
      <trkpt lat="47.4031060" lon="8.4733620">
        <ele>396.4</ele>
        <time>2022-06-02T05:59:28Z</time>
      </trkpt>
      <trkpt lat="47.4031020" lon="8.4730920">
        <ele>396.2</ele>
        <time>2022-06-02T05:59:33Z</time>
      </trkpt>
      <trkpt lat="47.4030450" lon="8.4728040">
        <ele>396.0</ele>
        <time>2022-06-02T05:59:39Z</time>
      </trkpt>
      <trkpt lat="47.4029580" lon="8.4725560">
        <ele>396.0</ele>
        <time>2022-06-02T05:59:45Z</time>
      </trkpt>
      <trkpt lat="47.4028420" lon="8.4723030">
        <ele>396.4</ele>
        <time>2022-06-02T05:59:51Z</time>
      </trkpt>
      <trkpt lat="47.4027930" lon="8.4722170">
        <ele>396.8</ele>
        <time>2022-06-02T05:59:54Z</time>
      </trkpt>
      <trkpt lat="47.4027710" lon="8.4721380">
        <ele>397.0</ele>
        <time>2022-06-02T05:59:56Z</time>
      </trkpt>
      <trkpt lat="47.4027420" lon="8.4719760">
        <ele>397.4</ele>
        <time>2022-06-02T06:00:01Z</time>
      </trkpt>
      <trkpt lat="47.4027130" lon="8.4718780">
        <ele>397.6</ele>
        <time>2022-06-02T06:00:05Z</time>
      </trkpt>
      <trkpt lat="47.4027130" lon="8.4718780">
        <ele>397.8</ele>
        <time>2022-06-02T06:00:07Z</time>
      </trkpt>
      <trkpt lat="47.4027060" lon="8.4718400">
        <ele>397.2</ele>
        <time>2022-06-02T06:00:29Z</time>
      </trkpt>
      <trkpt lat="47.4027010" lon="8.4718000">
        <ele>397.2</ele>
        <time>2022-06-02T06:00:30Z</time>
      </trkpt>
      <trkpt lat="47.4026890" lon="8.4715000">
        <ele>397.2</ele>
        <time>2022-06-02T06:00:35Z</time>
      </trkpt>
      <trkpt lat="47.4026320" lon="8.4711770">
        <ele>397.4</ele>
        <time>2022-06-02T06:00:40Z</time>
      </trkpt>
      <trkpt lat="47.4026510" lon="8.4707140">
        <ele>397.6</ele>
        <time>2022-06-02T06:00:46Z</time>
      </trkpt>
      <trkpt lat="47.4026440" lon="8.4703540">
        <ele>397.6</ele>
        <time>2022-06-02T06:00:50Z</time>
      </trkpt>
      <trkpt lat="47.4026240" lon="8.4701770">
        <ele>397.4</ele>
        <time>2022-06-02T06:00:52Z</time>
      </trkpt>
      <trkpt lat="47.4026000" lon="8.4700180">
        <ele>397.2</ele>
        <time>2022-06-02T06:00:54Z</time>
      </trkpt>
      <trkpt lat="47.4025670" lon="8.4698350">
        <ele>397.0</ele>
        <time>2022-06-02T06:00:57Z</time>
      </trkpt>
      <trkpt lat="47.4026190" lon="8.4696930">
        <ele>396.8</ele>
        <time>2022-06-02T06:00:59Z</time>
      </trkpt>
      <trkpt lat="47.4026030" lon="8.4695070">
        <ele>396.6</ele>
        <time>2022-06-02T06:01:01Z</time>
      </trkpt>
      <trkpt lat="47.4025850" lon="8.4691210">
        <ele>396.6</ele>
        <time>2022-06-02T06:01:07Z</time>
      </trkpt>
      <trkpt lat="47.4025890" lon="8.4690660">
        <ele>396.8</ele>
        <time>2022-06-02T06:01:08Z</time>
      </trkpt>
      <trkpt lat="47.4025880" lon="8.4690110">
        <ele>396.8</ele>
        <time>2022-06-02T06:01:09Z</time>
      </trkpt>
      <trkpt lat="47.4025980" lon="8.4688950">
        <ele>397.0</ele>
        <time>2022-06-02T06:01:11Z</time>
      </trkpt>
      <trkpt lat="47.4025980" lon="8.4688350">
        <ele>397.0</ele>
        <time>2022-06-02T06:01:12Z</time>
      </trkpt>
      <trkpt lat="47.4026000" lon="8.4686530">
        <ele>397.2</ele>
        <time>2022-06-02T06:01:15Z</time>
      </trkpt>
      <trkpt lat="47.4026010" lon="8.4684660">
        <ele>397.4</ele>
        <time>2022-06-02T06:01:18Z</time>
      </trkpt>
      <trkpt lat="47.4026170" lon="8.4679970">
        <ele>397.6</ele>
        <time>2022-06-02T06:01:25Z</time>
      </trkpt>
      <trkpt lat="47.4026830" lon="8.4673300">
        <ele>397.2</ele>
        <time>2022-06-02T06:01:35Z</time>
      </trkpt>
      <trkpt lat="47.4027620" lon="8.4668150">
        <ele>397.2</ele>
        <time>2022-06-02T06:01:43Z</time>
      </trkpt>
      <trkpt lat="47.4027770" lon="8.4667370">
        <ele>397.2</ele>
        <time>2022-06-02T06:01:44Z</time>
      </trkpt>
      <trkpt lat="47.4028750" lon="8.4662470">
        <ele>397.2</ele>
        <time>2022-06-02T06:01:52Z</time>
      </trkpt>
      <trkpt lat="47.4029150" lon="8.4660770">
        <ele>397.2</ele>
        <time>2022-06-02T06:01:55Z</time>
      </trkpt>
      <trkpt lat="47.4029630" lon="8.4659040">
        <ele>397.0</ele>
        <time>2022-06-02T06:01:58Z</time>
      </trkpt>
      <trkpt lat="47.4030560" lon="8.4655890">
        <ele>397.0</ele>
        <time>2022-06-02T06:02:03Z</time>
      </trkpt>
      <trkpt lat="47.4030950" lon="8.4654640">
        <ele>397.0</ele>
        <time>2022-06-02T06:02:05Z</time>
      </trkpt>
      <trkpt lat="47.4032690" lon="8.4649130">
        <ele>396.8</ele>
        <time>2022-06-02T06:02:14Z</time>
      </trkpt>
      <trkpt lat="47.4034140" lon="8.4644320">
        <ele>396.6</ele>
        <time>2022-06-02T06:02:22Z</time>
      </trkpt>
      <trkpt lat="47.4034960" lon="8.4641320">
        <ele>396.6</ele>
        <time>2022-06-02T06:02:27Z</time>
      </trkpt>
      <trkpt lat="47.4035410" lon="8.4640050">
        <ele>396.6</ele>
        <time>2022-06-02T06:02:29Z</time>
      </trkpt>
      <trkpt lat="47.4036920" lon="8.4635220">
        <ele>396.2</ele>
        <time>2022-06-02T06:02:37Z</time>
      </trkpt>
      <trkpt lat="47.4038440" lon="8.4629510">
        <ele>395.8</ele>
        <time>2022-06-02T06:02:46Z</time>
      </trkpt>
      <trkpt lat="47.4039290" lon="8.4626490">
        <ele>395.8</ele>
        <time>2022-06-02T06:02:51Z</time>
      </trkpt>
      <trkpt lat="47.4039510" lon="8.4625320">
        <ele>395.6</ele>
        <time>2022-06-02T06:02:53Z</time>
      </trkpt>
      <trkpt lat="47.4039880" lon="8.4623690">
        <ele>395.6</ele>
        <time>2022-06-02T06:02:56Z</time>
      </trkpt>
      <trkpt lat="47.4040290" lon="8.4621930">
        <ele>395.6</ele>
        <time>2022-06-02T06:02:59Z</time>
      </trkpt>
      <trkpt lat="47.4040440" lon="8.4621340">
        <ele>395.6</ele>
        <time>2022-06-02T06:03:00Z</time>
      </trkpt>
      <trkpt lat="47.4041120" lon="8.4618280">
        <ele>395.6</ele>
        <time>2022-06-02T06:03:05Z</time>
      </trkpt>
      <trkpt lat="47.4042110" lon="8.4613130">
        <ele>395.4</ele>
        <time>2022-06-02T06:03:13Z</time>
      </trkpt>
      <trkpt lat="47.4042860" lon="8.4608010">
        <ele>395.2</ele>
        <time>2022-06-02T06:03:21Z</time>
      </trkpt>
      <trkpt lat="47.4043600" lon="8.4601850">
        <ele>395.2</ele>
        <time>2022-06-02T06:03:30Z</time>
      </trkpt>
      <trkpt lat="47.4044240" lon="8.4597780">
        <ele>395.2</ele>
        <time>2022-06-02T06:03:36Z</time>
      </trkpt>
      <trkpt lat="47.4044350" lon="8.4597110">
        <ele>395.2</ele>
        <time>2022-06-02T06:03:37Z</time>
      </trkpt>
      <trkpt lat="47.4044980" lon="8.4593290">
        <ele>395.2</ele>
        <time>2022-06-02T06:03:43Z</time>
      </trkpt>
      <trkpt lat="47.4045280" lon="8.4590590">
        <ele>395.2</ele>
        <time>2022-06-02T06:03:47Z</time>
      </trkpt>
      <trkpt lat="47.4045510" lon="8.4588330">
        <ele>395.2</ele>
        <time>2022-06-02T06:03:51Z</time>
      </trkpt>
      <trkpt lat="47.4045990" lon="8.4585480">
        <ele>395.4</ele>
        <time>2022-06-02T06:03:56Z</time>
      </trkpt>
      <trkpt lat="47.4047110" lon="8.4579740">
        <ele>395.2</ele>
        <time>2022-06-02T06:04:04Z</time>
      </trkpt>
      <trkpt lat="47.4048330" lon="8.4574660">
        <ele>395.0</ele>
        <time>2022-06-02T06:04:12Z</time>
      </trkpt>
      <trkpt lat="47.4049150" lon="8.4571770">
        <ele>395.0</ele>
        <time>2022-06-02T06:04:17Z</time>
      </trkpt>
      <trkpt lat="47.4049980" lon="8.4569450">
        <ele>394.8</ele>
        <time>2022-06-02T06:04:21Z</time>
      </trkpt>
      <trkpt lat="47.4052450" lon="8.4563060">
        <ele>394.8</ele>
        <time>2022-06-02T06:04:32Z</time>
      </trkpt>
      <trkpt lat="47.4054920" lon="8.4557870">
        <ele>394.8</ele>
        <time>2022-06-02T06:04:42Z</time>
      </trkpt>
      <trkpt lat="47.4057400" lon="8.4553480">
        <ele>395.0</ele>
        <time>2022-06-02T06:04:51Z</time>
      </trkpt>
      <trkpt lat="47.4057710" lon="8.4552980">
        <ele>395.0</ele>
        <time>2022-06-02T06:04:52Z</time>
      </trkpt>
      <trkpt lat="47.4058600" lon="8.4551570">
        <ele>395.0</ele>
        <time>2022-06-02T06:04:55Z</time>
      </trkpt>
      <trkpt lat="47.4059220" lon="8.4550600">
        <ele>395.0</ele>
        <time>2022-06-02T06:04:57Z</time>
      </trkpt>
      <trkpt lat="47.4062000" lon="8.4546820">
        <ele>395.2</ele>
        <time>2022-06-02T06:05:05Z</time>
      </trkpt>
      <trkpt lat="47.4062380" lon="8.4546430">
        <ele>395.2</ele>
        <time>2022-06-02T06:05:06Z</time>
      </trkpt>
      <trkpt lat="47.4064790" lon="8.4543260">
        <ele>394.8</ele>
        <time>2022-06-02T06:05:13Z</time>
      </trkpt>
      <trkpt lat="47.4065850" lon="8.4541890">
        <ele>394.6</ele>
        <time>2022-06-02T06:05:16Z</time>
      </trkpt>
      <trkpt lat="47.4067310" lon="8.4539990">
        <ele>394.6</ele>
        <time>2022-06-02T06:05:20Z</time>
      </trkpt>
      <trkpt lat="47.4070380" lon="8.4535900">
        <ele>394.4</ele>
        <time>2022-06-02T06:05:29Z</time>
      </trkpt>
      <trkpt lat="47.4073640" lon="8.4531730">
        <ele>394.2</ele>
        <time>2022-06-02T06:05:38Z</time>
      </trkpt>
      <trkpt lat="47.4075780" lon="8.4529130">
        <ele>394.4</ele>
        <time>2022-06-02T06:05:44Z</time>
      </trkpt>
      <trkpt lat="47.4078600" lon="8.4525570">
        <ele>394.4</ele>
        <time>2022-06-02T06:05:52Z</time>
      </trkpt>
      <trkpt lat="47.4079040" lon="8.4525050">
        <ele>394.2</ele>
        <time>2022-06-02T06:05:53Z</time>
      </trkpt>
      <trkpt lat="47.4081120" lon="8.4522270">
        <ele>394.2</ele>
        <time>2022-06-02T06:05:59Z</time>
      </trkpt>
      <trkpt lat="47.4083580" lon="8.4518760">
        <ele>394.2</ele>
        <time>2022-06-02T06:06:06Z</time>
      </trkpt>
      <trkpt lat="47.4084220" lon="8.4517550">
        <ele>394.2</ele>
        <time>2022-06-02T06:06:08Z</time>
      </trkpt>
      <trkpt lat="47.4085350" lon="8.4515360">
        <ele>394.2</ele>
        <time>2022-06-02T06:06:12Z</time>
      </trkpt>
      <trkpt lat="47.4085930" lon="8.4514110">
        <ele>394.2</ele>
        <time>2022-06-02T06:06:14Z</time>
      </trkpt>
      <trkpt lat="47.4086600" lon="8.4512140">
        <ele>394.2</ele>
        <time>2022-06-02T06:06:17Z</time>
      </trkpt>
      <trkpt lat="47.4087690" lon="8.4509350">
        <ele>394.2</ele>
        <time>2022-06-02T06:06:21Z</time>
      </trkpt>
      <trkpt lat="47.4087720" lon="8.4507900">
        <ele>394.2</ele>
        <time>2022-06-02T06:06:23Z</time>
      </trkpt>
      <trkpt lat="47.4087550" lon="8.4507380">
        <ele>394.2</ele>
        <time>2022-06-02T06:06:24Z</time>
      </trkpt>
      <trkpt lat="47.4089610" lon="8.4501670">
        <ele>394.0</ele>
        <time>2022-06-02T06:06:33Z</time>
      </trkpt>
      <trkpt lat="47.4089960" lon="8.4500510">
        <ele>394.2</ele>
        <time>2022-06-02T06:06:35Z</time>
      </trkpt>
      <trkpt lat="47.4090330" lon="8.4499200">
        <ele>394.4</ele>
        <time>2022-06-02T06:06:37Z</time>
      </trkpt>
      <trkpt lat="47.4090570" lon="8.4498570">
        <ele>394.4</ele>
        <time>2022-06-02T06:06:38Z</time>
      </trkpt>
      <trkpt lat="47.4091120" lon="8.4496610">
        <ele>394.4</ele>
        <time>2022-06-02T06:06:41Z</time>
      </trkpt>
      <trkpt lat="47.4091630" lon="8.4493960">
        <ele>394.0</ele>
        <time>2022-06-02T06:06:45Z</time>
      </trkpt>
      <trkpt lat="47.4091970" lon="8.4492040">
        <ele>393.8</ele>
        <time>2022-06-02T06:06:48Z</time>
      </trkpt>
      <trkpt lat="47.4092460" lon="8.4488530">
        <ele>393.6</ele>
        <time>2022-06-02T06:06:54Z</time>
      </trkpt>
      <trkpt lat="47.4092920" lon="8.4483640">
        <ele>393.6</ele>
        <time>2022-06-02T06:07:02Z</time>
      </trkpt>
      <trkpt lat="47.4093120" lon="8.4482420">
        <ele>393.6</ele>
        <time>2022-06-02T06:07:04Z</time>
      </trkpt>
      <trkpt lat="47.4093280" lon="8.4480740">
        <ele>393.8</ele>
        <time>2022-06-02T06:07:07Z</time>
      </trkpt>
      <trkpt lat="47.4093010" lon="8.4476950">
        <ele>394.2</ele>
        <time>2022-06-02T06:07:14Z</time>
      </trkpt>
      <trkpt lat="47.4092380" lon="8.4474420">
        <ele>394.6</ele>
        <time>2022-06-02T06:07:19Z</time>
      </trkpt>
      <trkpt lat="47.4092100" lon="8.4470000">
        <ele>394.4</ele>
        <time>2022-06-02T06:07:25Z</time>
      </trkpt>
      <trkpt lat="47.4091900" lon="8.4463400">
        <ele>393.6</ele>
        <time>2022-06-02T06:07:34Z</time>
      </trkpt>
      <trkpt lat="47.4091900" lon="8.4462610">
        <ele>393.6</ele>
        <time>2022-06-02T06:07:35Z</time>
      </trkpt>
      <trkpt lat="47.4091700" lon="8.4459610">
        <ele>393.2</ele>
        <time>2022-06-02T06:07:39Z</time>
      </trkpt>
      <trkpt lat="47.4091630" lon="8.4457070">
        <ele>392.8</ele>
        <time>2022-06-02T06:07:43Z</time>
      </trkpt>
      <trkpt lat="47.4091080" lon="8.4452950">
        <ele>392.8</ele>
        <time>2022-06-02T06:07:49Z</time>
      </trkpt>
      <trkpt lat="47.4090850" lon="8.4451540">
        <ele>392.8</ele>
        <time>2022-06-02T06:07:51Z</time>
      </trkpt>
      <trkpt lat="47.4090510" lon="8.4449270">
        <ele>392.6</ele>
        <time>2022-06-02T06:07:54Z</time>
      </trkpt>
      <trkpt lat="47.4088730" lon="8.4443330">
        <ele>392.6</ele>
        <time>2022-06-02T06:08:03Z</time>
      </trkpt>
      <trkpt lat="47.4086930" lon="8.4439240">
        <ele>393.0</ele>
        <time>2022-06-02T06:08:10Z</time>
      </trkpt>
      <trkpt lat="47.4085230" lon="8.4436100">
        <ele>393.2</ele>
        <time>2022-06-02T06:08:16Z</time>
      </trkpt>
      <trkpt lat="47.4082540" lon="8.4431590">
        <ele>393.2</ele>
        <time>2022-06-02T06:08:25Z</time>
      </trkpt>
      <trkpt lat="47.4079810" lon="8.4428050">
        <ele>393.0</ele>
        <time>2022-06-02T06:08:33Z</time>
      </trkpt>
      <trkpt lat="47.4077770" lon="8.4426060">
        <ele>393.0</ele>
        <time>2022-06-02T06:08:39Z</time>
      </trkpt>
      <trkpt lat="47.4075500" lon="8.4423690">
        <ele>393.0</ele>
        <time>2022-06-02T06:08:45Z</time>
      </trkpt>
      <trkpt lat="47.4072430" lon="8.4420220">
        <ele>392.8</ele>
        <time>2022-06-02T06:08:53Z</time>
      </trkpt>
      <trkpt lat="47.4068570" lon="8.4416140">
        <ele>392.4</ele>
        <time>2022-06-02T06:09:03Z</time>
      </trkpt>
      <trkpt lat="47.4065960" lon="8.4413140">
        <ele>392.4</ele>
        <time>2022-06-02T06:09:10Z</time>
      </trkpt>
      <trkpt lat="47.4063640" lon="8.4409530">
        <ele>392.2</ele>
        <time>2022-06-02T06:09:17Z</time>
      </trkpt>
      <trkpt lat="47.4060270" lon="8.4403980">
        <ele>391.8</ele>
        <time>2022-06-02T06:09:28Z</time>
      </trkpt>
      <trkpt lat="47.4058100" lon="8.4399630">
        <ele>391.6</ele>
        <time>2022-06-02T06:09:36Z</time>
      </trkpt>
      <trkpt lat="47.4057650" lon="8.4398620">
        <ele>391.4</ele>
        <time>2022-06-02T06:09:38Z</time>
      </trkpt>
      <trkpt lat="47.4055740" lon="8.4394650">
        <ele>391.8</ele>
        <time>2022-06-02T06:09:46Z</time>
      </trkpt>
      <trkpt lat="47.4053720" lon="8.4390020">
        <ele>391.2</ele>
        <time>2022-06-02T06:09:55Z</time>
      </trkpt>
      <trkpt lat="47.4053310" lon="8.4388880">
        <ele>391.2</ele>
        <time>2022-06-02T06:09:57Z</time>
      </trkpt>
      <trkpt lat="47.4051970" lon="8.4386210">
        <ele>391.0</ele>
        <time>2022-06-02T06:10:02Z</time>
      </trkpt>
      <trkpt lat="47.4050110" lon="8.4382020">
        <ele>391.2</ele>
        <time>2022-06-02T06:10:11Z</time>
      </trkpt>
      <trkpt lat="47.4048810" lon="8.4379310">
        <ele>391.2</ele>
        <time>2022-06-02T06:10:17Z</time>
      </trkpt>
      <trkpt lat="47.4047720" lon="8.4377210">
        <ele>391.2</ele>
        <time>2022-06-02T06:10:23Z</time>
      </trkpt>
      <trkpt lat="47.4047580" lon="8.4377030">
        <ele>391.2</ele>
        <time>2022-06-02T06:10:26Z</time>
      </trkpt>
      <trkpt lat="47.4047420" lon="8.4376410">
        <ele>390.4</ele>
        <time>2022-06-02T06:13:06Z</time>
      </trkpt>
      <trkpt lat="47.4046690" lon="8.4374760">
        <ele>389.8</ele>
        <time>2022-06-02T06:13:10Z</time>
      </trkpt>
      <trkpt lat="47.4044910" lon="8.4371600">
        <ele>389.4</ele>
        <time>2022-06-02T06:13:16Z</time>
      </trkpt>
      <trkpt lat="47.4043820" lon="8.4369960">
        <ele>389.4</ele>
        <time>2022-06-02T06:13:19Z</time>
      </trkpt>
      <trkpt lat="47.4042970" lon="8.4368340">
        <ele>390.0</ele>
        <time>2022-06-02T06:13:22Z</time>
      </trkpt>
      <trkpt lat="47.4041070" lon="8.4365650">
        <ele>390.2</ele>
        <time>2022-06-02T06:13:27Z</time>
      </trkpt>
      <trkpt lat="47.4038210" lon="8.4361690">
        <ele>390.4</ele>
        <time>2022-06-02T06:13:34Z</time>
      </trkpt>
      <trkpt lat="47.4036890" lon="8.4359720">
        <ele>390.2</ele>
        <time>2022-06-02T06:13:39Z</time>
      </trkpt>
      <trkpt lat="47.4035450" lon="8.4358390">
        <ele>390.2</ele>
        <time>2022-06-02T06:13:41Z</time>
      </trkpt>
      <trkpt lat="47.4034050" lon="8.4357230">
        <ele>390.2</ele>
        <time>2022-06-02T06:13:43Z</time>
      </trkpt>
      <trkpt lat="47.4032510" lon="8.4355290">
        <ele>390.6</ele>
        <time>2022-06-02T06:13:47Z</time>
      </trkpt>
      <trkpt lat="47.4032100" lon="8.4354820">
        <ele>390.6</ele>
        <time>2022-06-02T06:13:48Z</time>
      </trkpt>
      <trkpt lat="47.4031060" lon="8.4353540">
        <ele>390.8</ele>
        <time>2022-06-02T06:13:51Z</time>
      </trkpt>
      <trkpt lat="47.4029300" lon="8.4351900">
        <ele>390.8</ele>
        <time>2022-06-02T06:13:56Z</time>
      </trkpt>
      <trkpt lat="47.4027140" lon="8.4349740">
        <ele>390.8</ele>
        <time>2022-06-02T06:14:02Z</time>
      </trkpt>
      <trkpt lat="47.4026690" lon="8.4349340">
        <ele>390.8</ele>
        <time>2022-06-02T06:14:03Z</time>
      </trkpt>
      <trkpt lat="47.4025900" lon="8.4348510">
        <ele>390.8</ele>
        <time>2022-06-02T06:14:05Z</time>
      </trkpt>
      <trkpt lat="47.4025180" lon="8.4347410">
        <ele>390.8</ele>
        <time>2022-06-02T06:14:07Z</time>
      </trkpt>
      <trkpt lat="47.4024410" lon="8.4346170">
        <ele>390.8</ele>
        <time>2022-06-02T06:14:09Z</time>
      </trkpt>
      <trkpt lat="47.4023590" lon="8.4345040">
        <ele>390.8</ele>
        <time>2022-06-02T06:14:11Z</time>
      </trkpt>
      <trkpt lat="47.4022780" lon="8.4344120">
        <ele>390.8</ele>
        <time>2022-06-02T06:14:13Z</time>
      </trkpt>
      <trkpt lat="47.4022400" lon="8.4343710">
        <ele>390.6</ele>
        <time>2022-06-02T06:14:14Z</time>
      </trkpt>
      <trkpt lat="47.4022030" lon="8.4343330">
        <ele>390.4</ele>
        <time>2022-06-02T06:14:15Z</time>
      </trkpt>
      <trkpt lat="47.4021220" lon="8.4342780">
        <ele>390.0</ele>
        <time>2022-06-02T06:14:17Z</time>
      </trkpt>
      <trkpt lat="47.4020800" lon="8.4342600">
        <ele>390.0</ele>
        <time>2022-06-02T06:14:18Z</time>
      </trkpt>
      <trkpt lat="47.4019250" lon="8.4341760">
        <ele>389.8</ele>
        <time>2022-06-02T06:14:23Z</time>
      </trkpt>
      <trkpt lat="47.4017470" lon="8.4340150">
        <ele>390.2</ele>
        <time>2022-06-02T06:14:29Z</time>
      </trkpt>
      <trkpt lat="47.4014910" lon="8.4337750">
        <ele>390.6</ele>
        <time>2022-06-02T06:14:35Z</time>
      </trkpt>
      <trkpt lat="47.4011490" lon="8.4334390">
        <ele>390.8</ele>
        <time>2022-06-02T06:14:42Z</time>
      </trkpt>
      <trkpt lat="47.4008520" lon="8.4330230">
        <ele>390.6</ele>
        <time>2022-06-02T06:14:51Z</time>
      </trkpt>
      <trkpt lat="47.4007000" lon="8.4327640">
        <ele>390.4</ele>
        <time>2022-06-02T06:14:57Z</time>
      </trkpt>
      <trkpt lat="47.4005550" lon="8.4325240">
        <ele>390.4</ele>
        <time>2022-06-02T06:15:03Z</time>
      </trkpt>
      <trkpt lat="47.4003460" lon="8.4322260">
        <ele>390.4</ele>
        <time>2022-06-02T06:15:09Z</time>
      </trkpt>
      <trkpt lat="47.4001930" lon="8.4319330">
        <ele>390.6</ele>
        <time>2022-06-02T06:15:15Z</time>
      </trkpt>
      <trkpt lat="47.4001670" lon="8.4318560">
        <ele>390.4</ele>
        <time>2022-06-02T06:15:16Z</time>
      </trkpt>
      <trkpt lat="47.4001050" lon="8.4316440">
        <ele>390.2</ele>
        <time>2022-06-02T06:15:19Z</time>
      </trkpt>
      <trkpt lat="47.4000370" lon="8.4314480">
        <ele>390.2</ele>
        <time>2022-06-02T06:15:22Z</time>
      </trkpt>
      <trkpt lat="47.3999690" lon="8.4312600">
        <ele>389.6</ele>
        <time>2022-06-02T06:15:25Z</time>
      </trkpt>
      <trkpt lat="47.3998480" lon="8.4308690">
        <ele>389.4</ele>
        <time>2022-06-02T06:15:31Z</time>
      </trkpt>
      <trkpt lat="47.3997970" lon="8.4306620">
        <ele>389.4</ele>
        <time>2022-06-02T06:15:34Z</time>
      </trkpt>
      <trkpt lat="47.3996720" lon="8.4301410">
        <ele>389.2</ele>
        <time>2022-06-02T06:15:42Z</time>
      </trkpt>
      <trkpt lat="47.3995970" lon="8.4298000">
        <ele>388.8</ele>
        <time>2022-06-02T06:15:47Z</time>
      </trkpt>
      <trkpt lat="47.3995940" lon="8.4297260">
        <ele>388.8</ele>
        <time>2022-06-02T06:15:48Z</time>
      </trkpt>
      <trkpt lat="47.3995420" lon="8.4292710">
        <ele>388.6</ele>
        <time>2022-06-02T06:15:54Z</time>
      </trkpt>
      <trkpt lat="47.3995390" lon="8.4290500">
        <ele>388.6</ele>
        <time>2022-06-02T06:15:57Z</time>
      </trkpt>
      <trkpt lat="47.3995480" lon="8.4288960">
        <ele>388.6</ele>
        <time>2022-06-02T06:15:59Z</time>
      </trkpt>
      <trkpt lat="47.3995360" lon="8.4288280">
        <ele>388.6</ele>
        <time>2022-06-02T06:16:00Z</time>
      </trkpt>
      <trkpt lat="47.3995200" lon="8.4285120">
        <ele>388.6</ele>
        <time>2022-06-02T06:16:04Z</time>
      </trkpt>
      <trkpt lat="47.3995330" lon="8.4283690">
        <ele>388.6</ele>
        <time>2022-06-02T06:16:06Z</time>
      </trkpt>
      <trkpt lat="47.3995440" lon="8.4280360">
        <ele>388.6</ele>
        <time>2022-06-02T06:16:11Z</time>
      </trkpt>
      <trkpt lat="47.3995600" lon="8.4279030">
        <ele>388.6</ele>
        <time>2022-06-02T06:16:13Z</time>
      </trkpt>
      <trkpt lat="47.3995740" lon="8.4276300">
        <ele>388.6</ele>
        <time>2022-06-02T06:16:17Z</time>
      </trkpt>
      <trkpt lat="47.3995700" lon="8.4275030">
        <ele>388.4</ele>
        <time>2022-06-02T06:16:19Z</time>
      </trkpt>
      <trkpt lat="47.3995680" lon="8.4273820">
        <ele>388.6</ele>
        <time>2022-06-02T06:16:21Z</time>
      </trkpt>
      <trkpt lat="47.3995740" lon="8.4271850">
        <ele>388.4</ele>
        <time>2022-06-02T06:16:24Z</time>
      </trkpt>
      <trkpt lat="47.3995680" lon="8.4270090">
        <ele>388.2</ele>
        <time>2022-06-02T06:16:27Z</time>
      </trkpt>
      <trkpt lat="47.3995710" lon="8.4268280">
        <ele>388.2</ele>
        <time>2022-06-02T06:16:30Z</time>
      </trkpt>
      <trkpt lat="47.3996000" lon="8.4264320">
        <ele>388.4</ele>
        <time>2022-06-02T06:16:36Z</time>
      </trkpt>
      <trkpt lat="47.3996130" lon="8.4261670">
        <ele>388.6</ele>
        <time>2022-06-02T06:16:40Z</time>
      </trkpt>
      <trkpt lat="47.3996300" lon="8.4256880">
        <ele>388.0</ele>
        <time>2022-06-02T06:16:47Z</time>
      </trkpt>
      <trkpt lat="47.3996370" lon="8.4253040">
        <ele>388.0</ele>
        <time>2022-06-02T06:16:53Z</time>
      </trkpt>
      <trkpt lat="47.3996410" lon="8.4251790">
        <ele>388.0</ele>
        <time>2022-06-02T06:16:55Z</time>
      </trkpt>
      <trkpt lat="47.3996550" lon="8.4249290">
        <ele>387.8</ele>
        <time>2022-06-02T06:16:59Z</time>
      </trkpt>
      <trkpt lat="47.3996630" lon="8.4248010">
        <ele>387.8</ele>
        <time>2022-06-02T06:17:01Z</time>
      </trkpt>
      <trkpt lat="47.3996670" lon="8.4247350">
        <ele>387.8</ele>
        <time>2022-06-02T06:17:02Z</time>
      </trkpt>
      <trkpt lat="47.3996940" lon="8.4242090">
        <ele>387.8</ele>
        <time>2022-06-02T06:17:10Z</time>
      </trkpt>
      <trkpt lat="47.3997140" lon="8.4238960">
        <ele>388.0</ele>
        <time>2022-06-02T06:17:15Z</time>
      </trkpt>
      <trkpt lat="47.3997040" lon="8.4236950">
        <ele>388.0</ele>
        <time>2022-06-02T06:17:18Z</time>
      </trkpt>
      <trkpt lat="47.3997190" lon="8.4233100">
        <ele>388.0</ele>
        <time>2022-06-02T06:17:23Z</time>
      </trkpt>
      <trkpt lat="47.3997420" lon="8.4227560">
        <ele>387.6</ele>
        <time>2022-06-02T06:17:31Z</time>
      </trkpt>
      <trkpt lat="47.3997510" lon="8.4223720">
        <ele>387.4</ele>
        <time>2022-06-02T06:17:37Z</time>
      </trkpt>
      <trkpt lat="47.3997560" lon="8.4222560">
        <ele>387.4</ele>
        <time>2022-06-02T06:17:39Z</time>
      </trkpt>
      <trkpt lat="47.3997770" lon="8.4218810">
        <ele>387.4</ele>
        <time>2022-06-02T06:17:45Z</time>
      </trkpt>
      <trkpt lat="47.3997940" lon="8.4216140">
        <ele>387.2</ele>
        <time>2022-06-02T06:17:50Z</time>
      </trkpt>
      <trkpt lat="47.3998090" lon="8.4213140">
        <ele>387.4</ele>
        <time>2022-06-02T06:17:56Z</time>
      </trkpt>
      <trkpt lat="47.3998630" lon="8.4212910">
        <ele>387.6</ele>
        <time>2022-06-02T06:17:59Z</time>
      </trkpt>
      <trkpt lat="47.4000300" lon="8.4213130">
        <ele>388.0</ele>
        <time>2022-06-02T06:18:04Z</time>
      </trkpt>
      <trkpt lat="47.4002730" lon="8.4213310">
        <ele>388.2</ele>
        <time>2022-06-02T06:18:11Z</time>
      </trkpt>
      <trkpt lat="47.4004060" lon="8.4213500">
        <ele>388.0</ele>
        <time>2022-06-02T06:18:16Z</time>
      </trkpt>
      <trkpt lat="47.4004580" lon="8.4212760">
        <ele>388.0</ele>
        <time>2022-06-02T06:18:19Z</time>
      </trkpt>
      <trkpt lat="47.4004690" lon="8.4211820">
        <ele>387.8</ele>
        <time>2022-06-02T06:18:21Z</time>
      </trkpt>
      <trkpt lat="47.4004620" lon="8.4211270">
        <ele>387.8</ele>
        <time>2022-06-02T06:18:22Z</time>
      </trkpt>
      <trkpt lat="47.4004770" lon="8.4208640">
        <ele>387.2</ele>
        <time>2022-06-02T06:18:26Z</time>
      </trkpt>
      <trkpt lat="47.4004980" lon="8.4204810">
        <ele>386.8</ele>
        <time>2022-06-02T06:18:31Z</time>
      </trkpt>
      <trkpt lat="47.4005170" lon="8.4199970">
        <ele>387.0</ele>
        <time>2022-06-02T06:18:38Z</time>
      </trkpt>
      <trkpt lat="47.4005230" lon="8.4197160">
        <ele>387.0</ele>
        <time>2022-06-02T06:18:43Z</time>
      </trkpt>
      <trkpt lat="47.4005260" lon="8.4193700">
        <ele>387.0</ele>
        <time>2022-06-02T06:18:49Z</time>
      </trkpt>
      <trkpt lat="47.4005460" lon="8.4189200">
        <ele>386.8</ele>
        <time>2022-06-02T06:18:56Z</time>
      </trkpt>
      <trkpt lat="47.4005720" lon="8.4183360">
        <ele>386.8</ele>
        <time>2022-06-02T06:19:05Z</time>
      </trkpt>
      <trkpt lat="47.4005850" lon="8.4177910">
        <ele>386.8</ele>
        <time>2022-06-02T06:19:13Z</time>
      </trkpt>
      <trkpt lat="47.4005910" lon="8.4175920">
        <ele>386.6</ele>
        <time>2022-06-02T06:19:16Z</time>
      </trkpt>
      <trkpt lat="47.4005880" lon="8.4174050">
        <ele>386.6</ele>
        <time>2022-06-02T06:19:19Z</time>
      </trkpt>
      <trkpt lat="47.4006260" lon="8.4168630">
        <ele>386.6</ele>
        <time>2022-06-02T06:19:28Z</time>
      </trkpt>
      <trkpt lat="47.4006310" lon="8.4164580">
        <ele>386.4</ele>
        <time>2022-06-02T06:19:35Z</time>
      </trkpt>
      <trkpt lat="47.4006340" lon="8.4163970">
        <ele>386.4</ele>
        <time>2022-06-02T06:19:36Z</time>
      </trkpt>
      <trkpt lat="47.4006360" lon="8.4160870">
        <ele>386.4</ele>
        <time>2022-06-02T06:19:41Z</time>
      </trkpt>
      <trkpt lat="47.4006310" lon="8.4159650">
        <ele>386.6</ele>
        <time>2022-06-02T06:19:43Z</time>
      </trkpt>
      <trkpt lat="47.4006270" lon="8.4157750">
        <ele>386.6</ele>
        <time>2022-06-02T06:19:46Z</time>
      </trkpt>
      <trkpt lat="47.4006360" lon="8.4155430">
        <ele>386.8</ele>
        <time>2022-06-02T06:19:50Z</time>
      </trkpt>
      <trkpt lat="47.4006440" lon="8.4153000">
        <ele>386.8</ele>
        <time>2022-06-02T06:19:54Z</time>
      </trkpt>
      <trkpt lat="47.4007090" lon="8.4147160">
        <ele>386.6</ele>
        <time>2022-06-02T06:20:03Z</time>
      </trkpt>
      <trkpt lat="47.4007280" lon="8.4143700">
        <ele>386.8</ele>
        <time>2022-06-02T06:20:09Z</time>
      </trkpt>
      <trkpt lat="47.4007100" lon="8.4138750">
        <ele>387.0</ele>
        <time>2022-06-02T06:20:17Z</time>
      </trkpt>
      <trkpt lat="47.4007210" lon="8.4134360">
        <ele>387.0</ele>
        <time>2022-06-02T06:20:24Z</time>
      </trkpt>
      <trkpt lat="47.4007520" lon="8.4129980">
        <ele>387.2</ele>
        <time>2022-06-02T06:20:31Z</time>
      </trkpt>
      <trkpt lat="47.4007660" lon="8.4128680">
        <ele>387.2</ele>
        <time>2022-06-02T06:20:33Z</time>
      </trkpt>
      <trkpt lat="47.4008260" lon="8.4125520">
        <ele>387.2</ele>
        <time>2022-06-02T06:20:38Z</time>
      </trkpt>
      <trkpt lat="47.4008730" lon="8.4122930">
        <ele>387.2</ele>
        <time>2022-06-02T06:20:42Z</time>
      </trkpt>
      <trkpt lat="47.4008910" lon="8.4122310">
        <ele>387.2</ele>
        <time>2022-06-02T06:20:43Z</time>
      </trkpt>
      <trkpt lat="47.4009240" lon="8.4120900">
        <ele>387.2</ele>
        <time>2022-06-02T06:20:45Z</time>
      </trkpt>
      <trkpt lat="47.4010310" lon="8.4117050">
        <ele>387.0</ele>
        <time>2022-06-02T06:20:51Z</time>
      </trkpt>
      <trkpt lat="47.4010560" lon="8.4115800">
        <ele>386.8</ele>
        <time>2022-06-02T06:20:53Z</time>
      </trkpt>
      <trkpt lat="47.4011450" lon="8.4112250">
        <ele>386.6</ele>
        <time>2022-06-02T06:20:59Z</time>
      </trkpt>
      <trkpt lat="47.4011650" lon="8.4111720">
        <ele>386.6</ele>
        <time>2022-06-02T06:21:00Z</time>
      </trkpt>
      <trkpt lat="47.4011840" lon="8.4111180">
        <ele>386.6</ele>
        <time>2022-06-02T06:21:01Z</time>
      </trkpt>
      <trkpt lat="47.4012470" lon="8.4109510">
        <ele>386.6</ele>
        <time>2022-06-02T06:21:04Z</time>
      </trkpt>
      <trkpt lat="47.4013800" lon="8.4106240">
        <ele>386.6</ele>
        <time>2022-06-02T06:21:10Z</time>
      </trkpt>
      <trkpt lat="47.4014050" lon="8.4105640">
        <ele>386.6</ele>
        <time>2022-06-02T06:21:11Z</time>
      </trkpt>
      <trkpt lat="47.4014380" lon="8.4105030">
        <ele>386.6</ele>
        <time>2022-06-02T06:21:12Z</time>
      </trkpt>
      <trkpt lat="47.4014890" lon="8.4103790">
        <ele>386.6</ele>
        <time>2022-06-02T06:21:14Z</time>
      </trkpt>
      <trkpt lat="47.4015720" lon="8.4102000">
        <ele>386.6</ele>
        <time>2022-06-02T06:21:17Z</time>
      </trkpt>
      <trkpt lat="47.4016220" lon="8.4100930">
        <ele>386.6</ele>
        <time>2022-06-02T06:21:19Z</time>
      </trkpt>
      <trkpt lat="47.4017340" lon="8.4098590">
        <ele>386.6</ele>
        <time>2022-06-02T06:21:23Z</time>
      </trkpt>
      <trkpt lat="47.4018490" lon="8.4096070">
        <ele>386.6</ele>
        <time>2022-06-02T06:21:28Z</time>
      </trkpt>
      <trkpt lat="47.4019050" lon="8.4095240">
        <ele>386.6</ele>
        <time>2022-06-02T06:21:30Z</time>
      </trkpt>
      <trkpt lat="47.4021830" lon="8.4091190">
        <ele>386.4</ele>
        <time>2022-06-02T06:21:39Z</time>
      </trkpt>
      <trkpt lat="47.4024360" lon="8.4087950">
        <ele>386.2</ele>
        <time>2022-06-02T06:21:47Z</time>
      </trkpt>
      <trkpt lat="47.4025970" lon="8.4086310">
        <ele>386.2</ele>
        <time>2022-06-02T06:21:53Z</time>
      </trkpt>
      <trkpt lat="47.4026650" lon="8.4085610">
        <ele>386.0</ele>
        <time>2022-06-02T06:21:55Z</time>
      </trkpt>
      <trkpt lat="47.4028190" lon="8.4084130">
        <ele>386.0</ele>
        <time>2022-06-02T06:22:00Z</time>
      </trkpt>
      <trkpt lat="47.4030440" lon="8.4082150">
        <ele>385.8</ele>
        <time>2022-06-02T06:22:07Z</time>
      </trkpt>
      <trkpt lat="47.4032590" lon="8.4080510">
        <ele>386.0</ele>
        <time>2022-06-02T06:22:14Z</time>
      </trkpt>
      <trkpt lat="47.4034220" lon="8.4079780">
        <ele>386.0</ele>
        <time>2022-06-02T06:22:19Z</time>
      </trkpt>
      <trkpt lat="47.4036480" lon="8.4079340">
        <ele>386.2</ele>
        <time>2022-06-02T06:22:24Z</time>
      </trkpt>
      <trkpt lat="47.4039360" lon="8.4078880">
        <ele>386.2</ele>
        <time>2022-06-02T06:22:30Z</time>
      </trkpt>
      <trkpt lat="47.4042790" lon="8.4079040">
        <ele>385.8</ele>
        <time>2022-06-02T06:22:38Z</time>
      </trkpt>
      <trkpt lat="47.4046650" lon="8.4079810">
        <ele>385.6</ele>
        <time>2022-06-02T06:22:47Z</time>
      </trkpt>
      <trkpt lat="47.4048340" lon="8.4080330">
        <ele>385.6</ele>
        <time>2022-06-02T06:22:51Z</time>
      </trkpt>
      <trkpt lat="47.4049560" lon="8.4080810">
        <ele>385.6</ele>
        <time>2022-06-02T06:22:54Z</time>
      </trkpt>
      <trkpt lat="47.4051470" lon="8.4082030">
        <ele>385.6</ele>
        <time>2022-06-02T06:22:58Z</time>
      </trkpt>
      <trkpt lat="47.4052790" lon="8.4083230">
        <ele>385.6</ele>
        <time>2022-06-02T06:23:03Z</time>
      </trkpt>
      <trkpt lat="47.4056600" lon="8.4086570">
        <ele>385.8</ele>
        <time>2022-06-02T06:23:13Z</time>
      </trkpt>
      <trkpt lat="47.4059290" lon="8.4088920">
        <ele>385.6</ele>
        <time>2022-06-02T06:23:22Z</time>
      </trkpt>
      <trkpt lat="47.4063100" lon="8.4092100">
        <ele>385.6</ele>
        <time>2022-06-02T06:23:32Z</time>
      </trkpt>
      <trkpt lat="47.4065990" lon="8.4094600">
        <ele>385.0</ele>
        <time>2022-06-02T06:23:42Z</time>
      </trkpt>
      <trkpt lat="47.4068200" lon="8.4096910">
        <ele>385.0</ele>
        <time>2022-06-02T06:23:47Z</time>
      </trkpt>
      <trkpt lat="47.4069400" lon="8.4097700">
        <ele>384.8</ele>
        <time>2022-06-02T06:23:51Z</time>
      </trkpt>
      <trkpt lat="47.4069670" lon="8.4097780">
        <ele>384.6</ele>
        <time>2022-06-02T06:23:52Z</time>
      </trkpt>
      <trkpt lat="47.4070330" lon="8.4097640">
        <ele>384.6</ele>
        <time>2022-06-02T06:23:53Z</time>
      </trkpt>
      <trkpt lat="47.4071230" lon="8.4097700">
        <ele>384.4</ele>
        <time>2022-06-02T06:23:55Z</time>
      </trkpt>
      <trkpt lat="47.4071640" lon="8.4097890">
        <ele>384.4</ele>
        <time>2022-06-02T06:23:56Z</time>
      </trkpt>
      <trkpt lat="47.4072150" lon="8.4098190">
        <ele>384.4</ele>
        <time>2022-06-02T06:23:57Z</time>
      </trkpt>
      <trkpt lat="47.4073840" lon="8.4099940">
        <ele>383.6</ele>
        <time>2022-06-02T06:24:01Z</time>
      </trkpt>
      <trkpt lat="47.4074740" lon="8.4101200">
        <ele>383.6</ele>
        <time>2022-06-02T06:24:06Z</time>
      </trkpt>
      <trkpt lat="47.4077460" lon="8.4102700">
        <ele>384.2</ele>
        <time>2022-06-02T06:24:13Z</time>
      </trkpt>
      <trkpt lat="47.4079600" lon="8.4103640">
        <ele>384.6</ele>
        <time>2022-06-02T06:24:19Z</time>
      </trkpt>
      <trkpt lat="47.4084080" lon="8.4105110">
        <ele>385.0</ele>
        <time>2022-06-02T06:24:28Z</time>
      </trkpt>
      <trkpt lat="47.4086880" lon="8.4106080">
        <ele>385.0</ele>
        <time>2022-06-02T06:24:35Z</time>
      </trkpt>
      <trkpt lat="47.4090290" lon="8.4106550">
        <ele>384.8</ele>
        <time>2022-06-02T06:24:43Z</time>
      </trkpt>
      <trkpt lat="47.4094260" lon="8.4106590">
        <ele>384.4</ele>
        <time>2022-06-02T06:24:52Z</time>
      </trkpt>
      <trkpt lat="47.4098730" lon="8.4106000">
        <ele>384.4</ele>
        <time>2022-06-02T06:25:02Z</time>
      </trkpt>
      <trkpt lat="47.4102410" lon="8.4104930">
        <ele>384.4</ele>
        <time>2022-06-02T06:25:11Z</time>
      </trkpt>
      <trkpt lat="47.4106100" lon="8.4103450">
        <ele>384.0</ele>
        <time>2022-06-02T06:25:21Z</time>
      </trkpt>
      <trkpt lat="47.4107510" lon="8.4102590">
        <ele>384.0</ele>
        <time>2022-06-02T06:25:25Z</time>
      </trkpt>
      <trkpt lat="47.4109840" lon="8.4101230">
        <ele>384.0</ele>
        <time>2022-06-02T06:25:31Z</time>
      </trkpt>
      <trkpt lat="47.4112690" lon="8.4099210">
        <ele>384.2</ele>
        <time>2022-06-02T06:25:38Z</time>
      </trkpt>
      <trkpt lat="47.4115460" lon="8.4097310">
        <ele>384.4</ele>
        <time>2022-06-02T06:25:46Z</time>
      </trkpt>
      <trkpt lat="47.4116270" lon="8.4096600">
        <ele>384.4</ele>
        <time>2022-06-02T06:25:48Z</time>
      </trkpt>
      <trkpt lat="47.4117640" lon="8.4095570">
        <ele>384.4</ele>
        <time>2022-06-02T06:25:51Z</time>
      </trkpt>
      <trkpt lat="47.4120960" lon="8.4093460">
        <ele>384.2</ele>
        <time>2022-06-02T06:25:59Z</time>
      </trkpt>
      <trkpt lat="47.4124330" lon="8.4091400">
        <ele>384.4</ele>
        <time>2022-06-02T06:26:07Z</time>
      </trkpt>
      <trkpt lat="47.4124630" lon="8.4091200">
        <ele>384.4</ele>
        <time>2022-06-02T06:26:08Z</time>
      </trkpt>
      <trkpt lat="47.4125340" lon="8.4090650">
        <ele>384.4</ele>
        <time>2022-06-02T06:26:10Z</time>
      </trkpt>
      <trkpt lat="47.4126120" lon="8.4090170">
        <ele>384.4</ele>
        <time>2022-06-02T06:26:12Z</time>
      </trkpt>
      <trkpt lat="47.4126850" lon="8.4089580">
        <ele>384.4</ele>
        <time>2022-06-02T06:26:15Z</time>
      </trkpt>
      <trkpt lat="47.4129940" lon="8.4087330">
        <ele>384.2</ele>
        <time>2022-06-02T06:26:22Z</time>
      </trkpt>
      <trkpt lat="47.4133430" lon="8.4085020">
        <ele>384.4</ele>
        <time>2022-06-02T06:26:30Z</time>
      </trkpt>
      <trkpt lat="47.4137790" lon="8.4082190">
        <ele>384.2</ele>
        <time>2022-06-02T06:26:41Z</time>
      </trkpt>
      <trkpt lat="47.4140370" lon="8.4080820">
        <ele>384.0</ele>
        <time>2022-06-02T06:26:48Z</time>
      </trkpt>
      <trkpt lat="47.4141390" lon="8.4082030">
        <ele>384.0</ele>
        <time>2022-06-02T06:26:51Z</time>
      </trkpt>
      <trkpt lat="47.4141790" lon="8.4083780">
        <ele>384.0</ele>
        <time>2022-06-02T06:26:54Z</time>
      </trkpt>
      <trkpt lat="47.4141750" lon="8.4084280">
        <ele>384.0</ele>
        <time>2022-06-02T06:26:55Z</time>
      </trkpt>
      <trkpt lat="47.4141590" lon="8.4086080">
        <ele>384.0</ele>
        <time>2022-06-02T06:27:00Z</time>
      </trkpt>
      <trkpt lat="47.4141440" lon="8.4088860">
        <ele>384.2</ele>
        <time>2022-06-02T06:27:06Z</time>
      </trkpt>
      <trkpt lat="47.4141480" lon="8.4090630">
        <ele>384.6</ele>
        <time>2022-06-02T06:27:10Z</time>
      </trkpt>
      <trkpt lat="47.4141680" lon="8.4090970">
        <ele>384.6</ele>
        <time>2022-06-02T06:27:11Z</time>
      </trkpt>
      <trkpt lat="47.4143870" lon="8.4092120">
        <ele>385.0</ele>
        <time>2022-06-02T06:27:18Z</time>
      </trkpt>
      <trkpt lat="47.4146740" lon="8.4091810">
        <ele>385.0</ele>
        <time>2022-06-02T06:27:25Z</time>
      </trkpt>
      <trkpt lat="47.4147600" lon="8.4091280">
        <ele>385.0</ele>
        <time>2022-06-02T06:27:27Z</time>
      </trkpt>
      <trkpt lat="47.4148290" lon="8.4090160">
        <ele>385.0</ele>
        <time>2022-06-02T06:27:29Z</time>
      </trkpt>
      <trkpt lat="47.4151070" lon="8.4084530">
        <ele>383.6</ele>
        <time>2022-06-02T06:27:38Z</time>
      </trkpt>
      <trkpt lat="47.4151490" lon="8.4084060">
        <ele>383.4</ele>
        <time>2022-06-02T06:27:39Z</time>
      </trkpt>
      <trkpt lat="47.4151960" lon="8.4083900">
        <ele>383.2</ele>
        <time>2022-06-02T06:27:40Z</time>
      </trkpt>
      <trkpt lat="47.4152430" lon="8.4083740">
        <ele>383.0</ele>
        <time>2022-06-02T06:27:41Z</time>
      </trkpt>
      <trkpt lat="47.4152880" lon="8.4083940">
        <ele>382.8</ele>
        <time>2022-06-02T06:27:42Z</time>
      </trkpt>
      <trkpt lat="47.4153290" lon="8.4084340">
        <ele>382.6</ele>
        <time>2022-06-02T06:27:43Z</time>
      </trkpt>
      <trkpt lat="47.4154320" lon="8.4085840">
        <ele>382.4</ele>
        <time>2022-06-02T06:27:46Z</time>
      </trkpt>
      <trkpt lat="47.4155040" lon="8.4087070">
        <ele>382.2</ele>
        <time>2022-06-02T06:27:50Z</time>
      </trkpt>
      <trkpt lat="47.4155860" lon="8.4088560">
        <ele>382.4</ele>
        <time>2022-06-02T06:27:52Z</time>
      </trkpt>
      <trkpt lat="47.4157620" lon="8.4091750">
        <ele>382.4</ele>
        <time>2022-06-02T06:27:59Z</time>
      </trkpt>
      <trkpt lat="47.4159590" lon="8.4095130">
        <ele>382.4</ele>
        <time>2022-06-02T06:28:05Z</time>
      </trkpt>
      <trkpt lat="47.4160130" lon="8.4096000">
        <ele>382.4</ele>
        <time>2022-06-02T06:28:07Z</time>
      </trkpt>
      <trkpt lat="47.4160950" lon="8.4096250">
        <ele>382.4</ele>
        <time>2022-06-02T06:28:09Z</time>
      </trkpt>
      <trkpt lat="47.4161350" lon="8.4095970">
        <ele>382.4</ele>
        <time>2022-06-02T06:28:10Z</time>
      </trkpt>
      <trkpt lat="47.4161760" lon="8.4095690">
        <ele>382.4</ele>
        <time>2022-06-02T06:28:11Z</time>
      </trkpt>
      <trkpt lat="47.4162140" lon="8.4095300">
        <ele>382.4</ele>
        <time>2022-06-02T06:28:13Z</time>
      </trkpt>
      <trkpt lat="47.4165720" lon="8.4091600">
        <ele>381.8</ele>
        <time>2022-06-02T06:28:22Z</time>
      </trkpt>
      <trkpt lat="47.4166070" lon="8.4091320">
        <ele>381.8</ele>
        <time>2022-06-02T06:28:23Z</time>
      </trkpt>
      <trkpt lat="47.4166700" lon="8.4090660">
        <ele>381.8</ele>
        <time>2022-06-02T06:28:25Z</time>
      </trkpt>
      <trkpt lat="47.4168260" lon="8.4089140">
        <ele>381.8</ele>
        <time>2022-06-02T06:28:30Z</time>
      </trkpt>
      <trkpt lat="47.4169240" lon="8.4088570">
        <ele>381.8</ele>
        <time>2022-06-02T06:28:33Z</time>
      </trkpt>
      <trkpt lat="47.4169850" lon="8.4088830">
        <ele>381.8</ele>
        <time>2022-06-02T06:28:35Z</time>
      </trkpt>
      <trkpt lat="47.4172370" lon="8.4090470">
        <ele>382.0</ele>
        <time>2022-06-02T06:28:43Z</time>
      </trkpt>
      <trkpt lat="47.4174510" lon="8.4091210">
        <ele>382.2</ele>
        <time>2022-06-02T06:28:49Z</time>
      </trkpt>
      <trkpt lat="47.4176480" lon="8.4091730">
        <ele>382.8</ele>
        <time>2022-06-02T06:28:55Z</time>
      </trkpt>
      <trkpt lat="47.4178630" lon="8.4092250">
        <ele>383.2</ele>
        <time>2022-06-02T06:29:02Z</time>
      </trkpt>
      <trkpt lat="47.4178880" lon="8.4092300">
        <ele>383.4</ele>
        <time>2022-06-02T06:29:03Z</time>
      </trkpt>
      <trkpt lat="47.4180390" lon="8.4092460">
        <ele>383.8</ele>
        <time>2022-06-02T06:29:09Z</time>
      </trkpt>
      <trkpt lat="47.4180740" lon="8.4092420">
        <ele>384.0</ele>
        <time>2022-06-02T06:29:14Z</time>
      </trkpt>
      <trkpt lat="47.4180970" lon="8.4092460">
        <ele>384.0</ele>
        <time>2022-06-02T06:30:03Z</time>
      </trkpt>
      <trkpt lat="47.4181500" lon="8.4092450">
        <ele>384.0</ele>
        <time>2022-06-02T06:30:05Z</time>
      </trkpt>
      <trkpt lat="47.4183590" lon="8.4092260">
        <ele>384.0</ele>
        <time>2022-06-02T06:30:12Z</time>
      </trkpt>
      <trkpt lat="47.4183640" lon="8.4092240">
        <ele>383.8</ele>
        <time>2022-06-02T06:30:15Z</time>
      </trkpt>
      <trkpt lat="47.4184540" lon="8.4092050">
        <ele>383.8</ele>
        <time>2022-06-02T06:30:22Z</time>
      </trkpt>
      <trkpt lat="47.4186420" lon="8.4091680">
        <ele>384.0</ele>
        <time>2022-06-02T06:30:27Z</time>
      </trkpt>
      <trkpt lat="47.4188600" lon="8.4091050">
        <ele>384.0</ele>
        <time>2022-06-02T06:30:32Z</time>
      </trkpt>
      <trkpt lat="47.4189060" lon="8.4090720">
        <ele>384.0</ele>
        <time>2022-06-02T06:30:33Z</time>
      </trkpt>
      <trkpt lat="47.4192080" lon="8.4087810">
        <ele>383.4</ele>
        <time>2022-06-02T06:30:40Z</time>
      </trkpt>
      <trkpt lat="47.4193720" lon="8.4086200">
        <ele>383.2</ele>
        <time>2022-06-02T06:30:44Z</time>
      </trkpt>
      <trkpt lat="47.4194600" lon="8.4085670">
        <ele>383.2</ele>
        <time>2022-06-02T06:30:46Z</time>
      </trkpt>
      <trkpt lat="47.4195090" lon="8.4085510">
        <ele>383.2</ele>
        <time>2022-06-02T06:30:47Z</time>
      </trkpt>
      <trkpt lat="47.4198630" lon="8.4084500">
        <ele>383.2</ele>
        <time>2022-06-02T06:30:54Z</time>
      </trkpt>
      <trkpt lat="47.4199110" lon="8.4084290">
        <ele>383.2</ele>
        <time>2022-06-02T06:30:55Z</time>
      </trkpt>
      <trkpt lat="47.4199540" lon="8.4084060">
        <ele>383.2</ele>
        <time>2022-06-02T06:30:56Z</time>
      </trkpt>
      <trkpt lat="47.4200360" lon="8.4083440">
        <ele>383.0</ele>
        <time>2022-06-02T06:30:59Z</time>
      </trkpt>
      <trkpt lat="47.4200690" lon="8.4082920">
        <ele>383.0</ele>
        <time>2022-06-02T06:31:02Z</time>
      </trkpt>
      <trkpt lat="47.4200990" lon="8.4082580">
        <ele>383.0</ele>
        <time>2022-06-02T06:31:03Z</time>
      </trkpt>
      <trkpt lat="47.4203890" lon="8.4084130">
        <ele>382.8</ele>
        <time>2022-06-02T06:31:06Z</time>
      </trkpt>
      <trkpt lat="47.4204420" lon="8.4084290">
        <ele>382.8</ele>
        <time>2022-06-02T06:31:08Z</time>
      </trkpt>
      <trkpt lat="47.4204500" lon="8.4084400">
        <ele>383.0</ele>
        <time>2022-06-02T06:31:10Z</time>
      </trkpt>
      <trkpt lat="47.4204630" lon="8.4084170">
        <ele>383.2</ele>
        <time>2022-06-02T06:31:12Z</time>
      </trkpt>
      <trkpt lat="47.4204700" lon="8.4083610">
        <ele>383.4</ele>
        <time>2022-06-02T06:31:13Z</time>
      </trkpt>
      <trkpt lat="47.4204400" lon="8.4082990">
        <ele>383.6</ele>
        <time>2022-06-02T06:31:16Z</time>
      </trkpt>
      <trkpt lat="47.4204840" lon="8.4082590">
        <ele>383.6</ele>
        <time>2022-06-02T06:31:19Z</time>
      </trkpt>
      <trkpt lat="47.4204920" lon="8.4082340">
        <ele>383.6</ele>
        <time>2022-06-02T06:31:20Z</time>
      </trkpt>
      <trkpt lat="47.4205240" lon="8.4080150">
        <ele>383.6</ele>
        <time>2022-06-02T06:31:25Z</time>
      </trkpt>
      <trkpt lat="47.4206560" lon="8.4075970">
        <ele>384.0</ele>
        <time>2022-06-02T06:31:32Z</time>
      </trkpt>
      <trkpt lat="47.4206900" lon="8.4074740">
        <ele>384.2</ele>
        <time>2022-06-02T06:31:34Z</time>
      </trkpt>
      <trkpt lat="47.4207720" lon="8.4071630">
        <ele>384.6</ele>
        <time>2022-06-02T06:31:40Z</time>
      </trkpt>
      <trkpt lat="47.4209470" lon="8.4066400">
        <ele>384.6</ele>
        <time>2022-06-02T06:31:47Z</time>
      </trkpt>
      <trkpt lat="47.4209750" lon="8.4065770">
        <ele>384.6</ele>
        <time>2022-06-02T06:31:48Z</time>
      </trkpt>
      <trkpt lat="47.4211820" lon="8.4061180">
        <ele>384.0</ele>
        <time>2022-06-02T06:31:55Z</time>
      </trkpt>
      <trkpt lat="47.4213370" lon="8.4056950">
        <ele>383.0</ele>
        <time>2022-06-02T06:32:01Z</time>
      </trkpt>
      <trkpt lat="47.4213660" lon="8.4056300">
        <ele>383.0</ele>
        <time>2022-06-02T06:32:02Z</time>
      </trkpt>
      <trkpt lat="47.4215660" lon="8.4051010">
        <ele>382.6</ele>
        <time>2022-06-02T06:32:10Z</time>
      </trkpt>
      <trkpt lat="47.4216710" lon="8.4048450">
        <ele>382.4</ele>
        <time>2022-06-02T06:32:14Z</time>
      </trkpt>
      <trkpt lat="47.4217170" lon="8.4047170">
        <ele>382.4</ele>
        <time>2022-06-02T06:32:16Z</time>
      </trkpt>
      <trkpt lat="47.4217410" lon="8.4046540">
        <ele>382.4</ele>
        <time>2022-06-02T06:32:17Z</time>
      </trkpt>
      <trkpt lat="47.4219180" lon="8.4041240">
        <ele>382.0</ele>
        <time>2022-06-02T06:32:25Z</time>
      </trkpt>
      <trkpt lat="47.4219920" lon="8.4039420">
        <ele>381.8</ele>
        <time>2022-06-02T06:32:30Z</time>
      </trkpt>
      <trkpt lat="47.4220100" lon="8.4038530">
        <ele>381.8</ele>
        <time>2022-06-02T06:32:36Z</time>
      </trkpt>
      <trkpt lat="47.4220150" lon="8.4038400">
        <ele>381.8</ele>
        <time>2022-06-02T06:32:37Z</time>
      </trkpt>
      <trkpt lat="47.4220170" lon="8.4037440">
        <ele>381.8</ele>
        <time>2022-06-02T06:32:40Z</time>
      </trkpt>
      <trkpt lat="47.4219990" lon="8.4037080">
        <ele>381.6</ele>
        <time>2022-06-02T06:32:42Z</time>
      </trkpt>
      <trkpt lat="47.4219710" lon="8.4036580">
        <ele>381.4</ele>
        <time>2022-06-02T06:32:43Z</time>
      </trkpt>
      <trkpt lat="47.4218770" lon="8.4036430">
        <ele>381.4</ele>
        <time>2022-06-02T06:32:46Z</time>
      </trkpt>
      <trkpt lat="47.4217440" lon="8.4035390">
        <ele>381.4</ele>
        <time>2022-06-02T06:32:50Z</time>
      </trkpt>
      <trkpt lat="47.4217000" lon="8.4032300">
        <ele>381.6</ele>
        <time>2022-06-02T06:32:55Z</time>
      </trkpt>
      <trkpt lat="47.4216790" lon="8.4029690">
        <ele>381.6</ele>
        <time>2022-06-02T06:33:00Z</time>
      </trkpt>
      <trkpt lat="47.4217290" lon="8.4028320">
        <ele>381.8</ele>
        <time>2022-06-02T06:33:04Z</time>
      </trkpt>
      <trkpt lat="47.4218670" lon="8.4026840">
        <ele>382.0</ele>
        <time>2022-06-02T06:33:09Z</time>
      </trkpt>
      <trkpt lat="47.4220670" lon="8.4025830">
        <ele>382.2</ele>
        <time>2022-06-02T06:33:16Z</time>
      </trkpt>
      <trkpt lat="47.4222570" lon="8.4024520">
        <ele>382.4</ele>
        <time>2022-06-02T06:33:24Z</time>
      </trkpt>
      <trkpt lat="47.4223460" lon="8.4024350">
        <ele>382.6</ele>
        <time>2022-06-02T06:33:26Z</time>
      </trkpt>
      <trkpt lat="47.4224620" lon="8.4023960">
        <ele>382.6</ele>
        <time>2022-06-02T06:33:29Z</time>
      </trkpt>
      <trkpt lat="47.4225800" lon="8.4022320">
        <ele>382.6</ele>
        <time>2022-06-02T06:33:33Z</time>
      </trkpt>
      <trkpt lat="47.4226570" lon="8.4020490">
        <ele>382.4</ele>
        <time>2022-06-02T06:33:37Z</time>
      </trkpt>
      <trkpt lat="47.4228520" lon="8.4018190">
        <ele>382.0</ele>
        <time>2022-06-02T06:33:42Z</time>
      </trkpt>
      <trkpt lat="47.4231170" lon="8.4015190">
        <ele>382.2</ele>
        <time>2022-06-02T06:33:49Z</time>
      </trkpt>
      <trkpt lat="47.4231520" lon="8.4014670">
        <ele>382.4</ele>
        <time>2022-06-02T06:33:50Z</time>
      </trkpt>
      <trkpt lat="47.4233320" lon="8.4012530">
        <ele>382.6</ele>
        <time>2022-06-02T06:33:55Z</time>
      </trkpt>
      <trkpt lat="47.4234030" lon="8.4011760">
        <ele>382.6</ele>
        <time>2022-06-02T06:33:57Z</time>
      </trkpt>
      <trkpt lat="47.4235210" lon="8.4011400">
        <ele>382.6</ele>
        <time>2022-06-02T06:34:00Z</time>
      </trkpt>
      <trkpt lat="47.4235610" lon="8.4011210">
        <ele>382.6</ele>
        <time>2022-06-02T06:34:01Z</time>
      </trkpt>
      <trkpt lat="47.4236370" lon="8.4010710">
        <ele>382.4</ele>
        <time>2022-06-02T06:34:03Z</time>
      </trkpt>
      <trkpt lat="47.4237380" lon="8.4009560">
        <ele>382.2</ele>
        <time>2022-06-02T06:34:06Z</time>
      </trkpt>
      <trkpt lat="47.4240730" lon="8.4005100">
        <ele>382.6</ele>
        <time>2022-06-02T06:34:16Z</time>
      </trkpt>
      <trkpt lat="47.4242610" lon="8.4001850">
        <ele>382.6</ele>
        <time>2022-06-02T06:34:23Z</time>
      </trkpt>
      <trkpt lat="47.4243540" lon="8.3999960">
        <ele>382.2</ele>
        <time>2022-06-02T06:34:29Z</time>
      </trkpt>
      <trkpt lat="47.4243770" lon="8.3999840">
        <ele>382.4</ele>
        <time>2022-06-02T06:34:31Z</time>
      </trkpt>
      <trkpt lat="47.4244140" lon="8.3998870">
        <ele>382.6</ele>
        <time>2022-06-02T06:34:34Z</time>
      </trkpt>
      <trkpt lat="47.4244490" lon="8.3997300">
        <ele>382.4</ele>
        <time>2022-06-02T06:34:37Z</time>
      </trkpt>
      <trkpt lat="47.4244950" lon="8.3996460">
        <ele>382.4</ele>
        <time>2022-06-02T06:34:39Z</time>
      </trkpt>
      <trkpt lat="47.4245460" lon="8.3995480">
        <ele>382.6</ele>
        <time>2022-06-02T06:34:42Z</time>
      </trkpt>
      <trkpt lat="47.4245750" lon="8.3994720">
        <ele>382.6</ele>
        <time>2022-06-02T06:34:44Z</time>
      </trkpt>
      <trkpt lat="47.4247570" lon="8.3991620">
        <ele>383.4</ele>
        <time>2022-06-02T06:34:51Z</time>
      </trkpt>
      <trkpt lat="47.4248950" lon="8.3988740">
        <ele>383.8</ele>
        <time>2022-06-02T06:34:57Z</time>
      </trkpt>
      <trkpt lat="47.4250420" lon="8.3986070">
        <ele>384.0</ele>
        <time>2022-06-02T06:35:04Z</time>
      </trkpt>
      <trkpt lat="47.4250350" lon="8.3985640">
        <ele>384.0</ele>
        <time>2022-06-02T06:35:06Z</time>
      </trkpt>
      <trkpt lat="47.4250310" lon="8.3985410">
        <ele>384.0</ele>
        <time>2022-06-02T06:35:08Z</time>
      </trkpt>
      <trkpt lat="47.4250290" lon="8.3985370">
        <ele>384.0</ele>
        <time>2022-06-02T06:35:10Z</time>
      </trkpt>
      <trkpt lat="47.4250900" lon="8.3985360">
        <ele>384.2</ele>
        <time>2022-06-02T06:35:19Z</time>
      </trkpt>
      <trkpt lat="47.4251070" lon="8.3985190">
        <ele>384.2</ele>
        <time>2022-06-02T06:35:20Z</time>
      </trkpt>
      <trkpt lat="47.4252550" lon="8.3983890">
        <ele>384.2</ele>
        <time>2022-06-02T06:35:26Z</time>
      </trkpt>
      <trkpt lat="47.4253830" lon="8.3982780">
        <ele>385.2</ele>
        <time>2022-06-02T06:35:31Z</time>
      </trkpt>
      <trkpt lat="47.4254060" lon="8.3982530">
        <ele>385.4</ele>
        <time>2022-06-02T06:35:32Z</time>
      </trkpt>
      <trkpt lat="47.4254860" lon="8.3981960">
        <ele>386.2</ele>
        <time>2022-06-02T06:35:35Z</time>
      </trkpt>
      <trkpt lat="47.4255360" lon="8.3981550">
        <ele>387.0</ele>
        <time>2022-06-02T06:35:37Z</time>
      </trkpt>
      <trkpt lat="47.4255590" lon="8.3981320">
        <ele>387.4</ele>
        <time>2022-06-02T06:35:38Z</time>
      </trkpt>
      <trkpt lat="47.4256250" lon="8.3980450">
        <ele>388.4</ele>
        <time>2022-06-02T06:35:41Z</time>
      </trkpt>
      <trkpt lat="47.4256940" lon="8.3979330">
        <ele>389.2</ele>
        <time>2022-06-02T06:35:44Z</time>
      </trkpt>
      <trkpt lat="47.4257410" lon="8.3978340">
        <ele>389.4</ele>
        <time>2022-06-02T06:35:46Z</time>
      </trkpt>
      <trkpt lat="47.4258680" lon="8.3975390">
        <ele>390.2</ele>
        <time>2022-06-02T06:35:51Z</time>
      </trkpt>
      <trkpt lat="47.4260760" lon="8.3970590">
        <ele>389.8</ele>
        <time>2022-06-02T06:35:58Z</time>
      </trkpt>
      <trkpt lat="47.4263540" lon="8.3965240">
        <ele>389.2</ele>
        <time>2022-06-02T06:36:07Z</time>
      </trkpt>
      <trkpt lat="47.4265990" lon="8.3960280">
        <ele>389.8</ele>
        <time>2022-06-02T06:36:16Z</time>
      </trkpt>
      <trkpt lat="47.4267520" lon="8.3957020">
        <ele>390.6</ele>
        <time>2022-06-02T06:36:22Z</time>
      </trkpt>
      <trkpt lat="47.4267790" lon="8.3956480">
        <ele>390.6</ele>
        <time>2022-06-02T06:36:23Z</time>
      </trkpt>
      <trkpt lat="47.4268830" lon="8.3954290">
        <ele>391.4</ele>
        <time>2022-06-02T06:36:27Z</time>
      </trkpt>
      <trkpt lat="47.4269310" lon="8.3953220">
        <ele>391.8</ele>
        <time>2022-06-02T06:36:29Z</time>
      </trkpt>
      <trkpt lat="47.4269530" lon="8.3952690">
        <ele>392.0</ele>
        <time>2022-06-02T06:36:30Z</time>
      </trkpt>
      <trkpt lat="47.4270480" lon="8.3950680">
        <ele>392.6</ele>
        <time>2022-06-02T06:36:34Z</time>
      </trkpt>
      <trkpt lat="47.4271120" lon="8.3949180">
        <ele>392.8</ele>
        <time>2022-06-02T06:36:37Z</time>
      </trkpt>
      <trkpt lat="47.4271410" lon="8.3948710">
        <ele>393.0</ele>
        <time>2022-06-02T06:36:38Z</time>
      </trkpt>
      <trkpt lat="47.4272450" lon="8.3947340">
        <ele>393.2</ele>
        <time>2022-06-02T06:36:41Z</time>
      </trkpt>
      <trkpt lat="47.4274990" lon="8.3943920">
        <ele>393.4</ele>
        <time>2022-06-02T06:36:49Z</time>
      </trkpt>
      <trkpt lat="47.4276140" lon="8.3941550">
        <ele>393.6</ele>
        <time>2022-06-02T06:36:55Z</time>
      </trkpt>
      <trkpt lat="47.4276830" lon="8.3939390">
        <ele>394.0</ele>
        <time>2022-06-02T06:37:00Z</time>
      </trkpt>
      <trkpt lat="47.4277250" lon="8.3938120">
        <ele>393.8</ele>
        <time>2022-06-02T06:37:03Z</time>
      </trkpt>
      <trkpt lat="47.4277970" lon="8.3934370">
        <ele>394.0</ele>
        <time>2022-06-02T06:37:11Z</time>
      </trkpt>
      <trkpt lat="47.4277780" lon="8.3933860">
        <ele>394.2</ele>
        <time>2022-06-02T06:37:12Z</time>
      </trkpt>
      <trkpt lat="47.4277490" lon="8.3933380">
        <ele>394.0</ele>
        <time>2022-06-02T06:37:13Z</time>
      </trkpt>
      <trkpt lat="47.4276300" lon="8.3931730">
        <ele>394.0</ele>
        <time>2022-06-02T06:37:16Z</time>
      </trkpt>
      <trkpt lat="47.4273610" lon="8.3927980">
        <ele>392.8</ele>
        <time>2022-06-02T06:37:22Z</time>
      </trkpt>
      <trkpt lat="47.4273270" lon="8.3927440">
        <ele>392.6</ele>
        <time>2022-06-02T06:37:23Z</time>
      </trkpt>
      <trkpt lat="47.4272720" lon="8.3926490">
        <ele>391.4</ele>
        <time>2022-06-02T06:37:25Z</time>
      </trkpt>
      <trkpt lat="47.4272260" lon="8.3925890">
        <ele>390.6</ele>
        <time>2022-06-02T06:37:27Z</time>
      </trkpt>
      <trkpt lat="47.4272130" lon="8.3925790">
        <ele>390.4</ele>
        <time>2022-06-02T06:37:28Z</time>
      </trkpt>
      <trkpt lat="47.4272020" lon="8.3925720">
        <ele>388.8</ele>
        <time>2022-06-02T06:37:31Z</time>
      </trkpt>
      <trkpt lat="47.4271870" lon="8.3925860">
        <ele>387.8</ele>
        <time>2022-06-02T06:37:34Z</time>
      </trkpt>
      <trkpt lat="47.4270990" lon="8.3925180">
        <ele>386.6</ele>
        <time>2022-06-02T06:37:38Z</time>
      </trkpt>
      <trkpt lat="47.4270120" lon="8.3924310">
        <ele>386.2</ele>
        <time>2022-06-02T06:37:41Z</time>
      </trkpt>
      <trkpt lat="47.4269950" lon="8.3923940">
        <ele>386.0</ele>
        <time>2022-06-02T06:37:42Z</time>
      </trkpt>
      <trkpt lat="47.4269890" lon="8.3923040">
        <ele>385.0</ele>
        <time>2022-06-02T06:37:44Z</time>
      </trkpt>
      <trkpt lat="47.4270160" lon="8.3922050">
        <ele>384.2</ele>
        <time>2022-06-02T06:37:46Z</time>
      </trkpt>
      <trkpt lat="47.4270330" lon="8.3921500">
        <ele>383.8</ele>
        <time>2022-06-02T06:37:47Z</time>
      </trkpt>
      <trkpt lat="47.4271280" lon="8.3919430">
        <ele>382.8</ele>
        <time>2022-06-02T06:37:51Z</time>
      </trkpt>
      <trkpt lat="47.4271480" lon="8.3918890">
        <ele>382.6</ele>
        <time>2022-06-02T06:37:53Z</time>
      </trkpt>
      <trkpt lat="47.4271950" lon="8.3917830">
        <ele>382.4</ele>
        <time>2022-06-02T06:37:54Z</time>
      </trkpt>
      <trkpt lat="47.4272540" lon="8.3915480">
        <ele>382.0</ele>
        <time>2022-06-02T06:37:58Z</time>
      </trkpt>
      <trkpt lat="47.4272790" lon="8.3914590">
        <ele>381.8</ele>
        <time>2022-06-02T06:38:00Z</time>
      </trkpt>
      <trkpt lat="47.4274250" lon="8.3911740">
        <ele>382.0</ele>
        <time>2022-06-02T06:38:07Z</time>
      </trkpt>
      <trkpt lat="47.4274960" lon="8.3910630">
        <ele>382.2</ele>
        <time>2022-06-02T06:38:10Z</time>
      </trkpt>
      <trkpt lat="47.4275210" lon="8.3910310">
        <ele>382.4</ele>
        <time>2022-06-02T06:38:11Z</time>
      </trkpt>
      <trkpt lat="47.4276720" lon="8.3907480">
        <ele>382.4</ele>
        <time>2022-06-02T06:38:18Z</time>
      </trkpt>
      <trkpt lat="47.4278190" lon="8.3905220">
        <ele>382.4</ele>
        <time>2022-06-02T06:38:23Z</time>
      </trkpt>
      <trkpt lat="47.4278460" lon="8.3904690">
        <ele>382.4</ele>
        <time>2022-06-02T06:38:24Z</time>
      </trkpt>
      <trkpt lat="47.4280770" lon="8.3901550">
        <ele>382.4</ele>
        <time>2022-06-02T06:38:30Z</time>
      </trkpt>
      <trkpt lat="47.4281760" lon="8.3898800">
        <ele>382.2</ele>
        <time>2022-06-02T06:38:35Z</time>
      </trkpt>
      <trkpt lat="47.4282280" lon="8.3897170">
        <ele>382.0</ele>
        <time>2022-06-02T06:38:38Z</time>
      </trkpt>
      <trkpt lat="47.4283430" lon="8.3891700">
        <ele>382.0</ele>
        <time>2022-06-02T06:38:47Z</time>
      </trkpt>
      <trkpt lat="47.4283790" lon="8.3888670">
        <ele>381.8</ele>
        <time>2022-06-02T06:38:52Z</time>
      </trkpt>
      <trkpt lat="47.4284030" lon="8.3886740">
        <ele>382.0</ele>
        <time>2022-06-02T06:38:55Z</time>
      </trkpt>
      <trkpt lat="47.4284340" lon="8.3882360">
        <ele>381.8</ele>
        <time>2022-06-02T06:39:03Z</time>
      </trkpt>
      <trkpt lat="47.4284400" lon="8.3881090">
        <ele>382.0</ele>
        <time>2022-06-02T06:39:08Z</time>
      </trkpt>
      <trkpt lat="47.4285260" lon="8.3880790">
        <ele>382.2</ele>
        <time>2022-06-02T06:39:12Z</time>
      </trkpt>
      <trkpt lat="47.4287380" lon="8.3880970">
        <ele>381.8</ele>
        <time>2022-06-02T06:39:19Z</time>
      </trkpt>
      <trkpt lat="47.4287870" lon="8.3880860">
        <ele>381.8</ele>
        <time>2022-06-02T06:39:21Z</time>
      </trkpt>
      <trkpt lat="47.4287990" lon="8.3880190">
        <ele>381.8</ele>
        <time>2022-06-02T06:39:23Z</time>
      </trkpt>
      <trkpt lat="47.4287080" lon="8.3879750">
        <ele>381.8</ele>
        <time>2022-06-02T06:39:27Z</time>
      </trkpt>
      <trkpt lat="47.4285400" lon="8.3878970">
        <ele>383.0</ele>
        <time>2022-06-02T06:39:34Z</time>
      </trkpt>
      <trkpt lat="47.4284130" lon="8.3878610">
        <ele>383.6</ele>
        <time>2022-06-02T06:39:38Z</time>
      </trkpt>
      <trkpt lat="47.4282430" lon="8.3878250">
        <ele>385.0</ele>
        <time>2022-06-02T06:39:43Z</time>
      </trkpt>
      <trkpt lat="47.4281260" lon="8.3878140">
        <ele>385.6</ele>
        <time>2022-06-02T06:39:46Z</time>
      </trkpt>
      <trkpt lat="47.4277360" lon="8.3878210">
        <ele>385.8</ele>
        <time>2022-06-02T06:39:57Z</time>
      </trkpt>
      <trkpt lat="47.4274110" lon="8.3878770">
        <ele>385.6</ele>
        <time>2022-06-02T06:40:05Z</time>
      </trkpt>
      <trkpt lat="47.4272530" lon="8.3879260">
        <ele>385.6</ele>
        <time>2022-06-02T06:40:09Z</time>
      </trkpt>
      <trkpt lat="47.4272220" lon="8.3879660">
        <ele>385.6</ele>
        <time>2022-06-02T06:40:11Z</time>
      </trkpt>
      <trkpt lat="47.4272720" lon="8.3880080">
        <ele>385.4</ele>
        <time>2022-06-02T06:40:14Z</time>
      </trkpt>
      <trkpt lat="47.4274530" lon="8.3880060">
        <ele>385.2</ele>
        <time>2022-06-02T06:40:18Z</time>
      </trkpt>
      <trkpt lat="47.4275000" lon="8.3880130">
        <ele>385.0</ele>
        <time>2022-06-02T06:40:19Z</time>
      </trkpt>
      <trkpt lat="47.4275730" lon="8.3880040">
        <ele>384.4</ele>
        <time>2022-06-02T06:40:22Z</time>
      </trkpt>
      <trkpt lat="47.4275770" lon="8.3879900">
        <ele>384.0</ele>
        <time>2022-06-02T06:40:23Z</time>
      </trkpt>
      <trkpt lat="47.4275840" lon="8.3879740">
        <ele>383.4</ele>
        <time>2022-06-02T06:40:24Z</time>
      </trkpt>
      <trkpt lat="47.4276150" lon="8.3879110">
        <ele>383.0</ele>
        <time>2022-06-02T06:40:26Z</time>
      </trkpt>
      <trkpt lat="47.4276310" lon="8.3878550">
        <ele>382.8</ele>
        <time>2022-06-02T06:40:27Z</time>
      </trkpt>
      <trkpt lat="47.4276410" lon="8.3877470">
        <ele>382.6</ele>
        <time>2022-06-02T06:40:29Z</time>
      </trkpt>
      <trkpt lat="47.4275980" lon="8.3875330">
        <ele>382.0</ele>
        <time>2022-06-02T06:40:34Z</time>
      </trkpt>
      <trkpt lat="47.4275060" lon="8.3872540">
        <ele>382.4</ele>
        <time>2022-06-02T06:40:40Z</time>
      </trkpt>
      <trkpt lat="47.4274170" lon="8.3871120">
        <ele>383.0</ele>
        <time>2022-06-02T06:40:44Z</time>
      </trkpt>
      <trkpt lat="47.4274160" lon="8.3869920">
        <ele>383.2</ele>
        <time>2022-06-02T06:40:46Z</time>
      </trkpt>
      <trkpt lat="47.4274910" lon="8.3867040">
        <ele>383.2</ele>
        <time>2022-06-02T06:40:50Z</time>
      </trkpt>
      <trkpt lat="47.4275440" lon="8.3864990">
        <ele>383.0</ele>
        <time>2022-06-02T06:40:53Z</time>
      </trkpt>
      <trkpt lat="47.4275520" lon="8.3863800">
        <ele>382.6</ele>
        <time>2022-06-02T06:40:55Z</time>
      </trkpt>
      <trkpt lat="47.4275550" lon="8.3861290">
        <ele>382.8</ele>
        <time>2022-06-02T06:41:00Z</time>
      </trkpt>
      <trkpt lat="47.4275790" lon="8.3857350">
        <ele>383.0</ele>
        <time>2022-06-02T06:41:06Z</time>
      </trkpt>
      <trkpt lat="47.4276460" lon="8.3855200">
        <ele>383.4</ele>
        <time>2022-06-02T06:41:09Z</time>
      </trkpt>
      <trkpt lat="47.4276510" lon="8.3854470">
        <ele>383.4</ele>
        <time>2022-06-02T06:41:10Z</time>
      </trkpt>
      <trkpt lat="47.4276480" lon="8.3853790">
        <ele>383.6</ele>
        <time>2022-06-02T06:41:11Z</time>
      </trkpt>
      <trkpt lat="47.4276360" lon="8.3853100">
        <ele>383.8</ele>
        <time>2022-06-02T06:41:12Z</time>
      </trkpt>
      <trkpt lat="47.4276180" lon="8.3852610">
        <ele>383.8</ele>
        <time>2022-06-02T06:41:13Z</time>
      </trkpt>
      <trkpt lat="47.4276070" lon="8.3851840">
        <ele>384.2</ele>
        <time>2022-06-02T06:41:15Z</time>
      </trkpt>
      <trkpt lat="47.4276270" lon="8.3850990">
        <ele>384.4</ele>
        <time>2022-06-02T06:41:17Z</time>
      </trkpt>
      <trkpt lat="47.4276460" lon="8.3849120">
        <ele>384.6</ele>
        <time>2022-06-02T06:41:22Z</time>
      </trkpt>
      <trkpt lat="47.4276540" lon="8.3848480">
        <ele>384.6</ele>
        <time>2022-06-02T06:41:23Z</time>
      </trkpt>
      <trkpt lat="47.4276540" lon="8.3848480">
        <ele>384.8</ele>
        <time>2022-06-02T06:41:24Z</time>
      </trkpt>
      <trkpt lat="47.4276150" lon="8.3846570">
        <ele>385.0</ele>
        <time>2022-06-02T06:41:26Z</time>
      </trkpt>
      <trkpt lat="47.4275710" lon="8.3844740">
        <ele>385.6</ele>
        <time>2022-06-02T06:41:31Z</time>
      </trkpt>
      <trkpt lat="47.4275480" lon="8.3844370">
        <ele>385.8</ele>
        <time>2022-06-02T06:41:32Z</time>
      </trkpt>
      <trkpt lat="47.4275300" lon="8.3843900">
        <ele>386.0</ele>
        <time>2022-06-02T06:41:33Z</time>
      </trkpt>
      <trkpt lat="47.4275320" lon="8.3842980">
        <ele>386.8</ele>
        <time>2022-06-02T06:41:36Z</time>
      </trkpt>
      <trkpt lat="47.4275530" lon="8.3842430">
        <ele>387.0</ele>
        <time>2022-06-02T06:41:38Z</time>
      </trkpt>
      <trkpt lat="47.4275870" lon="8.3841200">
        <ele>387.6</ele>
        <time>2022-06-02T06:41:42Z</time>
      </trkpt>
      <trkpt lat="47.4275650" lon="8.3841060">
        <ele>387.8</ele>
        <time>2022-06-02T06:41:43Z</time>
      </trkpt>
      <trkpt lat="47.4275200" lon="8.3840310">
        <ele>388.0</ele>
        <time>2022-06-02T06:41:45Z</time>
      </trkpt>
      <trkpt lat="47.4275420" lon="8.3838070">
        <ele>388.2</ele>
        <time>2022-06-02T06:41:49Z</time>
      </trkpt>
      <trkpt lat="47.4275090" lon="8.3837290">
        <ele>388.2</ele>
        <time>2022-06-02T06:41:51Z</time>
      </trkpt>
      <trkpt lat="47.4275120" lon="8.3836760">
        <ele>388.4</ele>
        <time>2022-06-02T06:41:53Z</time>
      </trkpt>
      <trkpt lat="47.4275450" lon="8.3835620">
        <ele>388.4</ele>
        <time>2022-06-02T06:41:57Z</time>
      </trkpt>
      <trkpt lat="47.4275610" lon="8.3833360">
        <ele>388.4</ele>
        <time>2022-06-02T06:42:01Z</time>
      </trkpt>
      <trkpt lat="47.4276960" lon="8.3830030">
        <ele>388.2</ele>
        <time>2022-06-02T06:42:06Z</time>
      </trkpt>
      <trkpt lat="47.4278600" lon="8.3826640">
        <ele>387.8</ele>
        <time>2022-06-02T06:42:11Z</time>
      </trkpt>
      <trkpt lat="47.4278920" lon="8.3825300">
        <ele>387.8</ele>
        <time>2022-06-02T06:42:13Z</time>
      </trkpt>
      <trkpt lat="47.4279500" lon="8.3824410">
        <ele>387.4</ele>
        <time>2022-06-02T06:42:15Z</time>
      </trkpt>
      <trkpt lat="47.4279800" lon="8.3823610">
        <ele>386.6</ele>
        <time>2022-06-02T06:42:18Z</time>
      </trkpt>
      <trkpt lat="47.4279870" lon="8.3823050">
        <ele>386.4</ele>
        <time>2022-06-02T06:42:20Z</time>
      </trkpt>
      <trkpt lat="47.4279980" lon="8.3821930">
        <ele>385.8</ele>
        <time>2022-06-02T06:42:24Z</time>
      </trkpt>
      <trkpt lat="47.4280100" lon="8.3821570">
        <ele>385.8</ele>
        <time>2022-06-02T06:42:25Z</time>
      </trkpt>
      <trkpt lat="47.4280280" lon="8.3821150">
        <ele>385.8</ele>
        <time>2022-06-02T06:42:26Z</time>
      </trkpt>
      <trkpt lat="47.4280700" lon="8.3820370">
        <ele>385.6</ele>
        <time>2022-06-02T06:42:28Z</time>
      </trkpt>
      <trkpt lat="47.4280810" lon="8.3819960">
        <ele>385.6</ele>
        <time>2022-06-02T06:42:29Z</time>
      </trkpt>
      <trkpt lat="47.4280840" lon="8.3819560">
        <ele>385.4</ele>
        <time>2022-06-02T06:42:30Z</time>
      </trkpt>
      <trkpt lat="47.4281000" lon="8.3818230">
        <ele>385.4</ele>
        <time>2022-06-02T06:42:33Z</time>
      </trkpt>
      <trkpt lat="47.4281620" lon="8.3815410">
        <ele>385.2</ele>
        <time>2022-06-02T06:42:38Z</time>
      </trkpt>
      <trkpt lat="47.4282830" lon="8.3812020">
        <ele>385.0</ele>
        <time>2022-06-02T06:42:43Z</time>
      </trkpt>
      <trkpt lat="47.4284560" lon="8.3808510">
        <ele>384.4</ele>
        <time>2022-06-02T06:42:48Z</time>
      </trkpt>
      <trkpt lat="47.4285640" lon="8.3805580">
        <ele>384.2</ele>
        <time>2022-06-02T06:42:52Z</time>
      </trkpt>
      <trkpt lat="47.4285810" lon="8.3804880">
        <ele>384.0</ele>
        <time>2022-06-02T06:42:53Z</time>
      </trkpt>
      <trkpt lat="47.4285860" lon="8.3802610">
        <ele>384.0</ele>
        <time>2022-06-02T06:42:56Z</time>
      </trkpt>
      <trkpt lat="47.4285810" lon="8.3801040">
        <ele>383.8</ele>
        <time>2022-06-02T06:42:58Z</time>
      </trkpt>
      <trkpt lat="47.4285700" lon="8.3799210">
        <ele>383.8</ele>
        <time>2022-06-02T06:43:00Z</time>
      </trkpt>
      <trkpt lat="47.4285760" lon="8.3797600">
        <ele>383.6</ele>
        <time>2022-06-02T06:43:02Z</time>
      </trkpt>
      <trkpt lat="47.4285350" lon="8.3796980">
        <ele>383.6</ele>
        <time>2022-06-02T06:43:03Z</time>
      </trkpt>
      <trkpt lat="47.4285030" lon="8.3796410">
        <ele>383.4</ele>
        <time>2022-06-02T06:43:04Z</time>
      </trkpt>
      <trkpt lat="47.4284830" lon="8.3795830">
        <ele>383.4</ele>
        <time>2022-06-02T06:43:05Z</time>
      </trkpt>
      <trkpt lat="47.4284830" lon="8.3794880">
        <ele>383.2</ele>
        <time>2022-06-02T06:43:07Z</time>
      </trkpt>
      <trkpt lat="47.4285160" lon="8.3792860">
        <ele>383.6</ele>
        <time>2022-06-02T06:43:12Z</time>
      </trkpt>
      <trkpt lat="47.4285400" lon="8.3791510">
        <ele>384.2</ele>
        <time>2022-06-02T06:43:16Z</time>
      </trkpt>
      <trkpt lat="47.4285400" lon="8.3791160">
        <ele>384.4</ele>
        <time>2022-06-02T06:43:17Z</time>
      </trkpt>
      <trkpt lat="47.4285680" lon="8.3789570">
        <ele>385.2</ele>
        <time>2022-06-02T06:43:21Z</time>
      </trkpt>
      <trkpt lat="47.4285640" lon="8.3789220">
        <ele>385.4</ele>
        <time>2022-06-02T06:43:22Z</time>
      </trkpt>
      <trkpt lat="47.4285250" lon="8.3788060">
        <ele>386.0</ele>
        <time>2022-06-02T06:43:25Z</time>
      </trkpt>
      <trkpt lat="47.4285020" lon="8.3787580">
        <ele>386.4</ele>
        <time>2022-06-02T06:43:26Z</time>
      </trkpt>
      <trkpt lat="47.4284950" lon="8.3787120">
        <ele>386.6</ele>
        <time>2022-06-02T06:43:27Z</time>
      </trkpt>
      <trkpt lat="47.4284710" lon="8.3786040">
        <ele>387.0</ele>
        <time>2022-06-02T06:43:30Z</time>
      </trkpt>
      <trkpt lat="47.4284660" lon="8.3785750">
        <ele>387.0</ele>
        <time>2022-06-02T06:43:31Z</time>
      </trkpt>
      <trkpt lat="47.4284530" lon="8.3784950">
        <ele>387.8</ele>
        <time>2022-06-02T06:43:34Z</time>
      </trkpt>
      <trkpt lat="47.4284330" lon="8.3783890">
        <ele>388.6</ele>
        <time>2022-06-02T06:43:37Z</time>
      </trkpt>
      <trkpt lat="47.4284090" lon="8.3783110">
        <ele>389.2</ele>
        <time>2022-06-02T06:43:39Z</time>
      </trkpt>
      <trkpt lat="47.4284050" lon="8.3782140">
        <ele>390.0</ele>
        <time>2022-06-02T06:43:42Z</time>
      </trkpt>
      <trkpt lat="47.4284130" lon="8.3781520">
        <ele>390.4</ele>
        <time>2022-06-02T06:43:44Z</time>
      </trkpt>
      <trkpt lat="47.4284550" lon="8.3780290">
        <ele>391.4</ele>
        <time>2022-06-02T06:43:47Z</time>
      </trkpt>
      <trkpt lat="47.4285220" lon="8.3779590">
        <ele>392.0</ele>
        <time>2022-06-02T06:43:50Z</time>
      </trkpt>
      <trkpt lat="47.4285300" lon="8.3779370">
        <ele>392.2</ele>
        <time>2022-06-02T06:43:51Z</time>
      </trkpt>
      <trkpt lat="47.4285710" lon="8.3778430">
        <ele>392.4</ele>
        <time>2022-06-02T06:43:54Z</time>
      </trkpt>
      <trkpt lat="47.4286030" lon="8.3778070">
        <ele>392.6</ele>
        <time>2022-06-02T06:43:55Z</time>
      </trkpt>
      <trkpt lat="47.4287310" lon="8.3775450">
        <ele>393.6</ele>
        <time>2022-06-02T06:44:03Z</time>
      </trkpt>
      <trkpt lat="47.4287500" lon="8.3775120">
        <ele>393.6</ele>
        <time>2022-06-02T06:44:04Z</time>
      </trkpt>
      <trkpt lat="47.4288970" lon="8.3772010">
        <ele>394.4</ele>
        <time>2022-06-02T06:44:12Z</time>
      </trkpt>
      <trkpt lat="47.4289550" lon="8.3770780">
        <ele>394.6</ele>
        <time>2022-06-02T06:44:15Z</time>
      </trkpt>
      <trkpt lat="47.4290490" lon="8.3769140">
        <ele>394.8</ele>
        <time>2022-06-02T06:44:18Z</time>
      </trkpt>
      <trkpt lat="47.4292040" lon="8.3765400">
        <ele>395.0</ele>
        <time>2022-06-02T06:44:25Z</time>
      </trkpt>
      <trkpt lat="47.4292340" lon="8.3764400">
        <ele>395.0</ele>
        <time>2022-06-02T06:44:27Z</time>
      </trkpt>
      <trkpt lat="47.4292540" lon="8.3762960">
        <ele>395.0</ele>
        <time>2022-06-02T06:44:30Z</time>
      </trkpt>
      <trkpt lat="47.4294020" lon="8.3759560">
        <ele>394.6</ele>
        <time>2022-06-02T06:44:37Z</time>
      </trkpt>
      <trkpt lat="47.4295650" lon="8.3756540">
        <ele>394.4</ele>
        <time>2022-06-02T06:44:43Z</time>
      </trkpt>
      <trkpt lat="47.4297720" lon="8.3753310">
        <ele>394.4</ele>
        <time>2022-06-02T06:44:49Z</time>
      </trkpt>
      <trkpt lat="47.4299690" lon="8.3750470">
        <ele>394.6</ele>
        <time>2022-06-02T06:44:55Z</time>
      </trkpt>
      <trkpt lat="47.4301320" lon="8.3748160">
        <ele>394.6</ele>
        <time>2022-06-02T06:45:00Z</time>
      </trkpt>
      <trkpt lat="47.4303770" lon="8.3745320">
        <ele>394.4</ele>
        <time>2022-06-02T06:45:07Z</time>
      </trkpt>
      <trkpt lat="47.4306650" lon="8.3742820">
        <ele>394.4</ele>
        <time>2022-06-02T06:45:14Z</time>
      </trkpt>
      <trkpt lat="47.4309200" lon="8.3740070">
        <ele>394.4</ele>
        <time>2022-06-02T06:45:21Z</time>
      </trkpt>
      <trkpt lat="47.4311110" lon="8.3738110">
        <ele>394.0</ele>
        <time>2022-06-02T06:45:26Z</time>
      </trkpt>
      <trkpt lat="47.4311800" lon="8.3737700">
        <ele>393.8</ele>
        <time>2022-06-02T06:45:28Z</time>
      </trkpt>
      <trkpt lat="47.4312860" lon="8.3737950">
        <ele>393.6</ele>
        <time>2022-06-02T06:45:31Z</time>
      </trkpt>
      <trkpt lat="47.4313630" lon="8.3737990">
        <ele>393.6</ele>
        <time>2022-06-02T06:45:33Z</time>
      </trkpt>
      <trkpt lat="47.4316460" lon="8.3737650">
        <ele>393.4</ele>
        <time>2022-06-02T06:45:40Z</time>
      </trkpt>
      <trkpt lat="47.4320710" lon="8.3736410">
        <ele>393.4</ele>
        <time>2022-06-02T06:45:49Z</time>
      </trkpt>
      <trkpt lat="47.4321650" lon="8.3735930">
        <ele>393.4</ele>
        <time>2022-06-02T06:45:51Z</time>
      </trkpt>
      <trkpt lat="47.4323470" lon="8.3734550">
        <ele>393.6</ele>
        <time>2022-06-02T06:45:55Z</time>
      </trkpt>
      <trkpt lat="47.4323900" lon="8.3734280">
        <ele>393.4</ele>
        <time>2022-06-02T06:45:56Z</time>
      </trkpt>
      <trkpt lat="47.4325810" lon="8.3733100">
        <ele>393.0</ele>
        <time>2022-06-02T06:46:00Z</time>
      </trkpt>
      <trkpt lat="47.4326330" lon="8.3733020">
        <ele>393.0</ele>
        <time>2022-06-02T06:46:01Z</time>
      </trkpt>
      <trkpt lat="47.4326900" lon="8.3732750">
        <ele>392.8</ele>
        <time>2022-06-02T06:46:02Z</time>
      </trkpt>
      <trkpt lat="47.4328130" lon="8.3731820">
        <ele>392.4</ele>
        <time>2022-06-02T06:46:04Z</time>
      </trkpt>
      <trkpt lat="47.4328680" lon="8.3731470">
        <ele>392.2</ele>
        <time>2022-06-02T06:46:05Z</time>
      </trkpt>
      <trkpt lat="47.4331670" lon="8.3729550">
        <ele>391.8</ele>
        <time>2022-06-02T06:46:11Z</time>
      </trkpt>
      <trkpt lat="47.4332170" lon="8.3729300">
        <ele>391.6</ele>
        <time>2022-06-02T06:46:12Z</time>
      </trkpt>
      <trkpt lat="47.4332770" lon="8.3729040">
        <ele>391.2</ele>
        <time>2022-06-02T06:46:13Z</time>
      </trkpt>
      <trkpt lat="47.4333940" lon="8.3728530">
        <ele>390.8</ele>
        <time>2022-06-02T06:46:15Z</time>
      </trkpt>
      <trkpt lat="47.4335210" lon="8.3728070">
        <ele>390.0</ele>
        <time>2022-06-02T06:46:17Z</time>
      </trkpt>
      <trkpt lat="47.4335760" lon="8.3727750">
        <ele>389.4</ele>
        <time>2022-06-02T06:46:18Z</time>
      </trkpt>
      <trkpt lat="47.4336300" lon="8.3727330">
        <ele>389.4</ele>
        <time>2022-06-02T06:46:19Z</time>
      </trkpt>
      <trkpt lat="47.4336820" lon="8.3726820">
        <ele>388.8</ele>
        <time>2022-06-02T06:46:20Z</time>
      </trkpt>
      <trkpt lat="47.4337650" lon="8.3725560">
        <ele>388.0</ele>
        <time>2022-06-02T06:46:22Z</time>
      </trkpt>
      <trkpt lat="47.4337980" lon="8.3724900">
        <ele>387.4</ele>
        <time>2022-06-02T06:46:23Z</time>
      </trkpt>
      <trkpt lat="47.4338400" lon="8.3723600">
        <ele>386.4</ele>
        <time>2022-06-02T06:46:25Z</time>
      </trkpt>
      <trkpt lat="47.4338570" lon="8.3723120">
        <ele>386.2</ele>
        <time>2022-06-02T06:46:26Z</time>
      </trkpt>
      <trkpt lat="47.4338660" lon="8.3721930">
        <ele>386.0</ele>
        <time>2022-06-02T06:46:29Z</time>
      </trkpt>
      <trkpt lat="47.4339120" lon="8.3719880">
        <ele>387.2</ele>
        <time>2022-06-02T06:46:35Z</time>
      </trkpt>
      <trkpt lat="47.4339160" lon="8.3719410">
        <ele>387.8</ele>
        <time>2022-06-02T06:46:36Z</time>
      </trkpt>
      <trkpt lat="47.4339300" lon="8.3718640">
        <ele>388.6</ele>
        <time>2022-06-02T06:46:38Z</time>
      </trkpt>
      <trkpt lat="47.4339780" lon="8.3716640">
        <ele>389.0</ele>
        <time>2022-06-02T06:46:43Z</time>
      </trkpt>
      <trkpt lat="47.4340120" lon="8.3715220">
        <ele>389.0</ele>
        <time>2022-06-02T06:46:45Z</time>
      </trkpt>
      <trkpt lat="47.4340550" lon="8.3713670">
        <ele>389.2</ele>
        <time>2022-06-02T06:46:47Z</time>
      </trkpt>
      <trkpt lat="47.4340840" lon="8.3712920">
        <ele>389.0</ele>
        <time>2022-06-02T06:46:48Z</time>
      </trkpt>
      <trkpt lat="47.4341030" lon="8.3711160">
        <ele>388.8</ele>
        <time>2022-06-02T06:46:51Z</time>
      </trkpt>
      <trkpt lat="47.4340490" lon="8.3709470">
        <ele>388.8</ele>
        <time>2022-06-02T06:46:55Z</time>
      </trkpt>
      <trkpt lat="47.4339790" lon="8.3706730">
        <ele>389.4</ele>
        <time>2022-06-02T06:47:00Z</time>
      </trkpt>
      <trkpt lat="47.4339750" lon="8.3706030">
        <ele>389.6</ele>
        <time>2022-06-02T06:47:01Z</time>
      </trkpt>
      <trkpt lat="47.4339050" lon="8.3703130">
        <ele>390.0</ele>
        <time>2022-06-02T06:47:06Z</time>
      </trkpt>
      <trkpt lat="47.4337690" lon="8.3699370">
        <ele>390.4</ele>
        <time>2022-06-02T06:47:12Z</time>
      </trkpt>
      <trkpt lat="47.4337470" lon="8.3698600">
        <ele>390.4</ele>
        <time>2022-06-02T06:47:13Z</time>
      </trkpt>
      <trkpt lat="47.4336860" lon="8.3697210">
        <ele>390.2</ele>
        <time>2022-06-02T06:47:15Z</time>
      </trkpt>
      <trkpt lat="47.4336390" lon="8.3696600">
        <ele>390.2</ele>
        <time>2022-06-02T06:47:16Z</time>
      </trkpt>
      <trkpt lat="47.4334310" lon="8.3693970">
        <ele>389.8</ele>
        <time>2022-06-02T06:47:20Z</time>
      </trkpt>
      <trkpt lat="47.4333950" lon="8.3693390">
        <ele>389.6</ele>
        <time>2022-06-02T06:47:21Z</time>
      </trkpt>
      <trkpt lat="47.4333590" lon="8.3692980">
        <ele>389.6</ele>
        <time>2022-06-02T06:47:22Z</time>
      </trkpt>
      <trkpt lat="47.4332040" lon="8.3691490">
        <ele>388.8</ele>
        <time>2022-06-02T06:47:26Z</time>
      </trkpt>
      <trkpt lat="47.4331340" lon="8.3690770">
        <ele>388.6</ele>
        <time>2022-06-02T06:47:28Z</time>
      </trkpt>
      <trkpt lat="47.4330690" lon="8.3689930">
        <ele>388.6</ele>
        <time>2022-06-02T06:47:31Z</time>
      </trkpt>
      <trkpt lat="47.4329270" lon="8.3688530">
        <ele>389.4</ele>
        <time>2022-06-02T06:47:37Z</time>
      </trkpt>
      <trkpt lat="47.4328410" lon="8.3687920">
        <ele>389.8</ele>
        <time>2022-06-02T06:47:40Z</time>
      </trkpt>
      <trkpt lat="47.4327310" lon="8.3688110">
        <ele>390.2</ele>
        <time>2022-06-02T06:47:43Z</time>
      </trkpt>
      <trkpt lat="47.4325840" lon="8.3688270">
        <ele>390.6</ele>
        <time>2022-06-02T06:47:46Z</time>
      </trkpt>
      <trkpt lat="47.4325420" lon="8.3688060">
        <ele>390.6</ele>
        <time>2022-06-02T06:47:47Z</time>
      </trkpt>
      <trkpt lat="47.4322270" lon="8.3685960">
        <ele>390.6</ele>
        <time>2022-06-02T06:47:53Z</time>
      </trkpt>
      <trkpt lat="47.4322150" lon="8.3685140">
        <ele>390.6</ele>
        <time>2022-06-02T06:47:54Z</time>
      </trkpt>
      <trkpt lat="47.4322150" lon="8.3684010">
        <ele>390.4</ele>
        <time>2022-06-02T06:47:56Z</time>
      </trkpt>
      <trkpt lat="47.4323070" lon="8.3681850">
        <ele>389.8</ele>
        <time>2022-06-02T06:48:00Z</time>
      </trkpt>
      <trkpt lat="47.4323590" lon="8.3680570">
        <ele>389.6</ele>
        <time>2022-06-02T06:48:02Z</time>
      </trkpt>
      <trkpt lat="47.4323790" lon="8.3679790">
        <ele>389.2</ele>
        <time>2022-06-02T06:48:03Z</time>
      </trkpt>
      <trkpt lat="47.4323700" lon="8.3679190">
        <ele>389.2</ele>
        <time>2022-06-02T06:48:04Z</time>
      </trkpt>
      <trkpt lat="47.4323480" lon="8.3678370">
        <ele>388.8</ele>
        <time>2022-06-02T06:48:06Z</time>
      </trkpt>
      <trkpt lat="47.4323240" lon="8.3677850">
        <ele>388.6</ele>
        <time>2022-06-02T06:48:08Z</time>
      </trkpt>
      <trkpt lat="47.4322000" lon="8.3676370">
        <ele>388.6</ele>
        <time>2022-06-02T06:48:12Z</time>
      </trkpt>
      <trkpt lat="47.4321200" lon="8.3672680">
        <ele>388.8</ele>
        <time>2022-06-02T06:48:19Z</time>
      </trkpt>
      <trkpt lat="47.4320260" lon="8.3669260">
        <ele>389.2</ele>
        <time>2022-06-02T06:48:26Z</time>
      </trkpt>
      <trkpt lat="47.4319600" lon="8.3667100">
        <ele>389.6</ele>
        <time>2022-06-02T06:48:31Z</time>
      </trkpt>
      <trkpt lat="47.4319360" lon="8.3665630">
        <ele>390.2</ele>
        <time>2022-06-02T06:48:34Z</time>
      </trkpt>
      <trkpt lat="47.4318860" lon="8.3663300">
        <ele>390.6</ele>
        <time>2022-06-02T06:48:39Z</time>
      </trkpt>
      <trkpt lat="47.4317520" lon="8.3661010">
        <ele>390.0</ele>
        <time>2022-06-02T06:48:46Z</time>
      </trkpt>
      <trkpt lat="47.4315990" lon="8.3659420">
        <ele>390.0</ele>
        <time>2022-06-02T06:48:52Z</time>
      </trkpt>
      <trkpt lat="47.4315850" lon="8.3658910">
        <ele>390.0</ele>
        <time>2022-06-02T06:48:53Z</time>
      </trkpt>
      <trkpt lat="47.4315980" lon="8.3656130">
        <ele>389.8</ele>
        <time>2022-06-02T06:48:58Z</time>
      </trkpt>
      <trkpt lat="47.4316590" lon="8.3651830">
        <ele>389.2</ele>
        <time>2022-06-02T06:49:05Z</time>
      </trkpt>
      <trkpt lat="47.4315980" lon="8.3649400">
        <ele>389.2</ele>
        <time>2022-06-02T06:49:09Z</time>
      </trkpt>
      <trkpt lat="47.4316040" lon="8.3647260">
        <ele>389.4</ele>
        <time>2022-06-02T06:49:13Z</time>
      </trkpt>
      <trkpt lat="47.4315830" lon="8.3642590">
        <ele>390.0</ele>
        <time>2022-06-02T06:49:20Z</time>
      </trkpt>
      <trkpt lat="47.4315980" lon="8.3639170">
        <ele>390.2</ele>
        <time>2022-06-02T06:49:26Z</time>
      </trkpt>
      <trkpt lat="47.4315910" lon="8.3635510">
        <ele>390.6</ele>
        <time>2022-06-02T06:49:32Z</time>
      </trkpt>
      <trkpt lat="47.4315890" lon="8.3634440">
        <ele>390.6</ele>
        <time>2022-06-02T06:49:34Z</time>
      </trkpt>
      <trkpt lat="47.4315520" lon="8.3629650">
        <ele>391.4</ele>
        <time>2022-06-02T06:49:42Z</time>
      </trkpt>
      <trkpt lat="47.4315500" lon="8.3629020">
        <ele>391.6</ele>
        <time>2022-06-02T06:49:43Z</time>
      </trkpt>
      <trkpt lat="47.4315650" lon="8.3624440">
        <ele>391.8</ele>
        <time>2022-06-02T06:49:50Z</time>
      </trkpt>
      <trkpt lat="47.4315710" lon="8.3621930">
        <ele>391.6</ele>
        <time>2022-06-02T06:49:54Z</time>
      </trkpt>
      <trkpt lat="47.4315230" lon="8.3621040">
        <ele>391.0</ele>
        <time>2022-06-02T06:49:57Z</time>
      </trkpt>
      <trkpt lat="47.4315340" lon="8.3620460">
        <ele>390.2</ele>
        <time>2022-06-02T06:49:58Z</time>
      </trkpt>
      <trkpt lat="47.4316030" lon="8.3619360">
        <ele>389.2</ele>
        <time>2022-06-02T06:50:00Z</time>
      </trkpt>
      <trkpt lat="47.4316930" lon="8.3617870">
        <ele>387.8</ele>
        <time>2022-06-02T06:50:03Z</time>
      </trkpt>
      <trkpt lat="47.4317500" lon="8.3616820">
        <ele>386.6</ele>
        <time>2022-06-02T06:50:05Z</time>
      </trkpt>
      <trkpt lat="47.4319480" lon="8.3612970">
        <ele>385.6</ele>
        <time>2022-06-02T06:50:12Z</time>
      </trkpt>
      <trkpt lat="47.4320020" lon="8.3611880">
        <ele>385.4</ele>
        <time>2022-06-02T06:50:14Z</time>
      </trkpt>
      <trkpt lat="47.4321860" lon="8.3608130">
        <ele>385.0</ele>
        <time>2022-06-02T06:50:21Z</time>
      </trkpt>
      <trkpt lat="47.4323140" lon="8.3605510">
        <ele>384.4</ele>
        <time>2022-06-02T06:50:26Z</time>
      </trkpt>
      <trkpt lat="47.4323670" lon="8.3604470">
        <ele>384.4</ele>
        <time>2022-06-02T06:50:28Z</time>
      </trkpt>
      <trkpt lat="47.4326180" lon="8.3599810">
        <ele>384.4</ele>
        <time>2022-06-02T06:50:37Z</time>
      </trkpt>
      <trkpt lat="47.4329740" lon="8.3593150">
        <ele>384.2</ele>
        <time>2022-06-02T06:50:50Z</time>
      </trkpt>
      <trkpt lat="47.4332070" lon="8.3589360">
        <ele>384.2</ele>
        <time>2022-06-02T06:50:58Z</time>
      </trkpt>
      <trkpt lat="47.4332630" lon="8.3588710">
        <ele>384.2</ele>
        <time>2022-06-02T06:50:59Z</time>
      </trkpt>
      <trkpt lat="47.4333700" lon="8.3587240">
        <ele>384.2</ele>
        <time>2022-06-02T06:51:01Z</time>
      </trkpt>
      <trkpt lat="47.4334160" lon="8.3586420">
        <ele>384.0</ele>
        <time>2022-06-02T06:51:02Z</time>
      </trkpt>
      <trkpt lat="47.4335040" lon="8.3584790">
        <ele>383.6</ele>
        <time>2022-06-02T06:51:04Z</time>
      </trkpt>
      <trkpt lat="47.4335460" lon="8.3584010">
        <ele>383.4</ele>
        <time>2022-06-02T06:51:05Z</time>
      </trkpt>
      <trkpt lat="47.4335830" lon="8.3583230">
        <ele>383.0</ele>
        <time>2022-06-02T06:51:06Z</time>
      </trkpt>
      <trkpt lat="47.4336820" lon="8.3581010">
        <ele>382.0</ele>
        <time>2022-06-02T06:51:09Z</time>
      </trkpt>
      <trkpt lat="47.4338560" lon="8.3577780">
        <ele>381.4</ele>
        <time>2022-06-02T06:51:14Z</time>
      </trkpt>
      <trkpt lat="47.4339500" lon="8.3575350">
        <ele>381.0</ele>
        <time>2022-06-02T06:51:18Z</time>
      </trkpt>
      <trkpt lat="47.4339980" lon="8.3574080">
        <ele>381.0</ele>
        <time>2022-06-02T06:51:20Z</time>
      </trkpt>
      <trkpt lat="47.4340220" lon="8.3573490">
        <ele>381.0</ele>
        <time>2022-06-02T06:51:21Z</time>
      </trkpt>
      <trkpt lat="47.4341090" lon="8.3571760">
        <ele>380.6</ele>
        <time>2022-06-02T06:51:24Z</time>
      </trkpt>
      <trkpt lat="47.4341560" lon="8.3570550">
        <ele>380.6</ele>
        <time>2022-06-02T06:51:26Z</time>
      </trkpt>
      <trkpt lat="47.4342040" lon="8.3569420">
        <ele>380.6</ele>
        <time>2022-06-02T06:51:28Z</time>
      </trkpt>
      <trkpt lat="47.4342290" lon="8.3568850">
        <ele>380.6</ele>
        <time>2022-06-02T06:51:29Z</time>
      </trkpt>
      <trkpt lat="47.4342430" lon="8.3568290">
        <ele>380.6</ele>
        <time>2022-06-02T06:51:30Z</time>
      </trkpt>
      <trkpt lat="47.4342590" lon="8.3566760">
        <ele>380.6</ele>
        <time>2022-06-02T06:51:33Z</time>
      </trkpt>
      <trkpt lat="47.4342660" lon="8.3566420">
        <ele>380.6</ele>
        <time>2022-06-02T06:51:34Z</time>
      </trkpt>
      <trkpt lat="47.4343180" lon="8.3565930">
        <ele>380.8</ele>
        <time>2022-06-02T06:51:36Z</time>
      </trkpt>
      <trkpt lat="47.4344320" lon="8.3564790">
        <ele>381.0</ele>
        <time>2022-06-02T06:51:40Z</time>
      </trkpt>
      <trkpt lat="47.4344600" lon="8.3564600">
        <ele>381.0</ele>
        <time>2022-06-02T06:51:41Z</time>
      </trkpt>
      <trkpt lat="47.4344790" lon="8.3564470">
        <ele>381.4</ele>
        <time>2022-06-02T06:51:43Z</time>
      </trkpt>
      <trkpt lat="47.4345260" lon="8.3563050">
        <ele>381.8</ele>
        <time>2022-06-02T06:51:48Z</time>
      </trkpt>
      <trkpt lat="47.4346680" lon="8.3563160">
        <ele>382.0</ele>
        <time>2022-06-02T06:51:54Z</time>
      </trkpt>
      <trkpt lat="47.4347200" lon="8.3563260">
        <ele>382.0</ele>
        <time>2022-06-02T06:51:56Z</time>
      </trkpt>
      <trkpt lat="47.4348360" lon="8.3563570">
        <ele>382.6</ele>
        <time>2022-06-02T06:52:00Z</time>
      </trkpt>
      <trkpt lat="47.4348940" lon="8.3563730">
        <ele>383.0</ele>
        <time>2022-06-02T06:52:02Z</time>
      </trkpt>
      <trkpt lat="47.4350740" lon="8.3564240">
        <ele>384.0</ele>
        <time>2022-06-02T06:52:08Z</time>
      </trkpt>
      <trkpt lat="47.4350990" lon="8.3564310">
        <ele>384.0</ele>
        <time>2022-06-02T06:52:09Z</time>
      </trkpt>
      <trkpt lat="47.4351590" lon="8.3564590">
        <ele>384.6</ele>
        <time>2022-06-02T06:52:12Z</time>
      </trkpt>
      <trkpt lat="47.4352180" lon="8.3564550">
        <ele>385.2</ele>
        <time>2022-06-02T06:52:15Z</time>
      </trkpt>
      <trkpt lat="47.4352860" lon="8.3564370">
        <ele>385.6</ele>
        <time>2022-06-02T06:52:18Z</time>
      </trkpt>
      <trkpt lat="47.4353450" lon="8.3562940">
        <ele>386.2</ele>
        <time>2022-06-02T06:52:22Z</time>
      </trkpt>
      <trkpt lat="47.4354130" lon="8.3560080">
        <ele>386.2</ele>
        <time>2022-06-02T06:52:27Z</time>
      </trkpt>
      <trkpt lat="47.4354730" lon="8.3555100">
        <ele>385.6</ele>
        <time>2022-06-02T06:52:34Z</time>
      </trkpt>
      <trkpt lat="47.4354910" lon="8.3552130">
        <ele>385.2</ele>
        <time>2022-06-02T06:52:39Z</time>
      </trkpt>
      <trkpt lat="47.4354450" lon="8.3548830">
        <ele>385.8</ele>
        <time>2022-06-02T06:52:46Z</time>
      </trkpt>
      <trkpt lat="47.4354510" lon="8.3547950">
        <ele>386.2</ele>
        <time>2022-06-02T06:52:48Z</time>
      </trkpt>
      <trkpt lat="47.4354840" lon="8.3546390">
        <ele>387.2</ele>
        <time>2022-06-02T06:52:52Z</time>
      </trkpt>
      <trkpt lat="47.4355020" lon="8.3546080">
        <ele>387.6</ele>
        <time>2022-06-02T06:52:53Z</time>
      </trkpt>
      <trkpt lat="47.4355750" lon="8.3545620">
        <ele>388.4</ele>
        <time>2022-06-02T06:52:56Z</time>
      </trkpt>
      <trkpt lat="47.4356020" lon="8.3545570">
        <ele>388.8</ele>
        <time>2022-06-02T06:52:57Z</time>
      </trkpt>
      <trkpt lat="47.4357060" lon="8.3545670">
        <ele>390.2</ele>
        <time>2022-06-02T06:53:01Z</time>
      </trkpt>
      <trkpt lat="47.4357900" lon="8.3544170">
        <ele>391.0</ele>
        <time>2022-06-02T06:53:05Z</time>
      </trkpt>
      <trkpt lat="47.4358250" lon="8.3543220">
        <ele>391.4</ele>
        <time>2022-06-02T06:53:07Z</time>
      </trkpt>
      <trkpt lat="47.4359060" lon="8.3540760">
        <ele>392.0</ele>
        <time>2022-06-02T06:53:12Z</time>
      </trkpt>
      <trkpt lat="47.4359790" lon="8.3538110">
        <ele>392.4</ele>
        <time>2022-06-02T06:53:17Z</time>
      </trkpt>
      <trkpt lat="47.4360230" lon="8.3537040">
        <ele>392.6</ele>
        <time>2022-06-02T06:53:19Z</time>
      </trkpt>
      <trkpt lat="47.4361810" lon="8.3532420">
        <ele>392.4</ele>
        <time>2022-06-02T06:53:27Z</time>
      </trkpt>
      <trkpt lat="47.4363460" lon="8.3527570">
        <ele>391.8</ele>
        <time>2022-06-02T06:53:35Z</time>
      </trkpt>
      <trkpt lat="47.4365040" lon="8.3523100">
        <ele>391.2</ele>
        <time>2022-06-02T06:53:42Z</time>
      </trkpt>
      <trkpt lat="47.4366600" lon="8.3518560">
        <ele>391.0</ele>
        <time>2022-06-02T06:53:50Z</time>
      </trkpt>
      <trkpt lat="47.4366990" lon="8.3517470">
        <ele>391.0</ele>
        <time>2022-06-02T06:53:52Z</time>
      </trkpt>
      <trkpt lat="47.4367490" lon="8.3515920">
        <ele>391.2</ele>
        <time>2022-06-02T06:53:55Z</time>
      </trkpt>
      <trkpt lat="47.4367700" lon="8.3515470">
        <ele>391.4</ele>
        <time>2022-06-02T06:53:56Z</time>
      </trkpt>
      <trkpt lat="47.4368280" lon="8.3512250">
        <ele>392.2</ele>
        <time>2022-06-02T06:54:02Z</time>
      </trkpt>
      <trkpt lat="47.4368210" lon="8.3511660">
        <ele>392.4</ele>
        <time>2022-06-02T06:54:03Z</time>
      </trkpt>
      <trkpt lat="47.4367870" lon="8.3509830">
        <ele>392.8</ele>
        <time>2022-06-02T06:54:06Z</time>
      </trkpt>
      <trkpt lat="47.4367700" lon="8.3508620">
        <ele>392.8</ele>
        <time>2022-06-02T06:54:08Z</time>
      </trkpt>
      <trkpt lat="47.4367680" lon="8.3507770">
        <ele>393.0</ele>
        <time>2022-06-02T06:54:10Z</time>
      </trkpt>
      <trkpt lat="47.4367790" lon="8.3507430">
        <ele>393.0</ele>
        <time>2022-06-02T06:54:11Z</time>
      </trkpt>
      <trkpt lat="47.4368660" lon="8.3505760">
        <ele>393.4</ele>
        <time>2022-06-02T06:54:15Z</time>
      </trkpt>
      <trkpt lat="47.4369210" lon="8.3504810">
        <ele>393.6</ele>
        <time>2022-06-02T06:54:17Z</time>
      </trkpt>
      <trkpt lat="47.4371020" lon="8.3502080">
        <ele>393.8</ele>
        <time>2022-06-02T06:54:23Z</time>
      </trkpt>
      <trkpt lat="47.4372330" lon="8.3499260">
        <ele>393.6</ele>
        <time>2022-06-02T06:54:29Z</time>
      </trkpt>
      <trkpt lat="47.4372880" lon="8.3497540">
        <ele>393.4</ele>
        <time>2022-06-02T06:54:31Z</time>
      </trkpt>
      <trkpt lat="47.4373510" lon="8.3496600">
        <ele>393.4</ele>
        <time>2022-06-02T06:54:32Z</time>
      </trkpt>
      <trkpt lat="47.4375620" lon="8.3492810">
        <ele>392.0</ele>
        <time>2022-06-02T06:54:37Z</time>
      </trkpt>
      <trkpt lat="47.4376540" lon="8.3491300">
        <ele>391.0</ele>
        <time>2022-06-02T06:54:39Z</time>
      </trkpt>
      <trkpt lat="47.4378660" lon="8.3488180">
        <ele>390.2</ele>
        <time>2022-06-02T06:54:45Z</time>
      </trkpt>
      <trkpt lat="47.4378770" lon="8.3487890">
        <ele>390.2</ele>
        <time>2022-06-02T06:54:46Z</time>
      </trkpt>
      <trkpt lat="47.4378870" lon="8.3487580">
        <ele>390.2</ele>
        <time>2022-06-02T06:54:49Z</time>
      </trkpt>
      <trkpt lat="47.4378870" lon="8.3487580">
        <ele>390.2</ele>
        <time>2022-06-02T06:54:51Z</time>
      </trkpt>
      <trkpt lat="47.4379410" lon="8.3487330">
        <ele>390.6</ele>
        <time>2022-06-02T06:55:17Z</time>
      </trkpt>
      <trkpt lat="47.4379750" lon="8.3487250">
        <ele>390.6</ele>
        <time>2022-06-02T06:55:19Z</time>
      </trkpt>
      <trkpt lat="47.4380400" lon="8.3487440">
        <ele>390.8</ele>
        <time>2022-06-02T06:55:24Z</time>
      </trkpt>
      <trkpt lat="47.4380680" lon="8.3487900">
        <ele>391.0</ele>
        <time>2022-06-02T06:55:27Z</time>
      </trkpt>
      <trkpt lat="47.4380920" lon="8.3487920">
        <ele>391.2</ele>
        <time>2022-06-02T06:55:28Z</time>
      </trkpt>
      <trkpt lat="47.4381770" lon="8.3488000">
        <ele>392.2</ele>
        <time>2022-06-02T06:55:33Z</time>
      </trkpt>
      <trkpt lat="47.4381930" lon="8.3488000">
        <ele>392.2</ele>
        <time>2022-06-02T06:55:34Z</time>
      </trkpt>
      <trkpt lat="47.4382100" lon="8.3487900">
        <ele>392.6</ele>
        <time>2022-06-02T06:55:38Z</time>
      </trkpt>
      <trkpt lat="47.4382190" lon="8.3487710">
        <ele>392.6</ele>
        <time>2022-06-02T06:55:39Z</time>
      </trkpt>
      <trkpt lat="47.4382180" lon="8.3487470">
        <ele>392.8</ele>
        <time>2022-06-02T06:55:40Z</time>
      </trkpt>
      <trkpt lat="47.4381770" lon="8.3486970">
        <ele>392.8</ele>
        <time>2022-06-02T06:55:42Z</time>
      </trkpt>
      <trkpt lat="47.4381670" lon="8.3485930">
        <ele>392.8</ele>
        <time>2022-06-02T06:55:44Z</time>
      </trkpt>
      <trkpt lat="47.4381870" lon="8.3485260">
        <ele>392.6</ele>
        <time>2022-06-02T06:55:45Z</time>
      </trkpt>
      <trkpt lat="47.4382410" lon="8.3484220">
        <ele>392.6</ele>
        <time>2022-06-02T06:55:47Z</time>
      </trkpt>
      <trkpt lat="47.4383450" lon="8.3482690">
        <ele>392.2</ele>
        <time>2022-06-02T06:55:50Z</time>
      </trkpt>
      <trkpt lat="47.4384120" lon="8.3481740">
        <ele>391.8</ele>
        <time>2022-06-02T06:55:52Z</time>
      </trkpt>
      <trkpt lat="47.4385200" lon="8.3480000">
        <ele>391.4</ele>
        <time>2022-06-02T06:55:56Z</time>
      </trkpt>
      <trkpt lat="47.4386500" lon="8.3478120">
        <ele>391.4</ele>
        <time>2022-06-02T06:56:02Z</time>
      </trkpt>
      <trkpt lat="47.4387520" lon="8.3476910">
        <ele>391.6</ele>
        <time>2022-06-02T06:56:06Z</time>
      </trkpt>
      <trkpt lat="47.4387970" lon="8.3475990">
        <ele>391.8</ele>
        <time>2022-06-02T06:56:10Z</time>
      </trkpt>
      <trkpt lat="47.4388920" lon="8.3474500">
        <ele>392.0</ele>
        <time>2022-06-02T06:56:15Z</time>
      </trkpt>
      <trkpt lat="47.4390100" lon="8.3473520">
        <ele>392.0</ele>
        <time>2022-06-02T06:56:18Z</time>
      </trkpt>
      <trkpt lat="47.4390920" lon="8.3473390">
        <ele>392.2</ele>
        <time>2022-06-02T06:56:20Z</time>
      </trkpt>
      <trkpt lat="47.4392520" lon="8.3473210">
        <ele>392.4</ele>
        <time>2022-06-02T06:56:25Z</time>
      </trkpt>
      <trkpt lat="47.4394800" lon="8.3470690">
        <ele>392.8</ele>
        <time>2022-06-02T06:56:32Z</time>
      </trkpt>
      <trkpt lat="47.4396060" lon="8.3467920">
        <ele>392.6</ele>
        <time>2022-06-02T06:56:38Z</time>
      </trkpt>
      <trkpt lat="47.4396740" lon="8.3467210">
        <ele>392.4</ele>
        <time>2022-06-02T06:56:40Z</time>
      </trkpt>
      <trkpt lat="47.4397400" lon="8.3467200">
        <ele>392.2</ele>
        <time>2022-06-02T06:56:42Z</time>
      </trkpt>
      <trkpt lat="47.4397710" lon="8.3467740">
        <ele>392.0</ele>
        <time>2022-06-02T06:56:44Z</time>
      </trkpt>
      <trkpt lat="47.4397660" lon="8.3468160">
        <ele>392.0</ele>
        <time>2022-06-02T06:56:45Z</time>
      </trkpt>
      <trkpt lat="47.4396920" lon="8.3470910">
        <ele>392.6</ele>
        <time>2022-06-02T06:56:52Z</time>
      </trkpt>
      <trkpt lat="47.4395850" lon="8.3473420">
        <ele>393.2</ele>
        <time>2022-06-02T06:56:58Z</time>
      </trkpt>
      <trkpt lat="47.4395670" lon="8.3474360">
        <ele>393.2</ele>
        <time>2022-06-02T06:57:00Z</time>
      </trkpt>
      <trkpt lat="47.4395710" lon="8.3474840">
        <ele>393.4</ele>
        <time>2022-06-02T06:57:01Z</time>
      </trkpt>
      <trkpt lat="47.4395820" lon="8.3475040">
        <ele>393.6</ele>
        <time>2022-06-02T06:57:03Z</time>
      </trkpt>
      <trkpt lat="47.4395820" lon="8.3475040">
        <ele>393.6</ele>
        <time>2022-06-02T06:57:04Z</time>
      </trkpt>
      <trkpt lat="47.4396140" lon="8.3474250">
        <ele>393.8</ele>
        <time>2022-06-02T06:57:24Z</time>
      </trkpt>
      <trkpt lat="47.4396610" lon="8.3473920">
        <ele>393.8</ele>
        <time>2022-06-02T06:57:26Z</time>
      </trkpt>
      <trkpt lat="47.4397040" lon="8.3473800">
        <ele>393.8</ele>
        <time>2022-06-02T06:57:28Z</time>
      </trkpt>
      <trkpt lat="47.4397280" lon="8.3473980">
        <ele>393.8</ele>
        <time>2022-06-02T06:57:30Z</time>
      </trkpt>
      <trkpt lat="47.4397080" lon="8.3474950">
        <ele>393.8</ele>
        <time>2022-06-02T06:57:34Z</time>
      </trkpt>
      <trkpt lat="47.4396480" lon="8.3476870">
        <ele>394.2</ele>
        <time>2022-06-02T06:57:40Z</time>
      </trkpt>
      <trkpt lat="47.4395890" lon="8.3478440">
        <ele>395.0</ele>
        <time>2022-06-02T06:57:45Z</time>
      </trkpt>
      <trkpt lat="47.4395340" lon="8.3479630">
        <ele>396.0</ele>
        <time>2022-06-02T06:57:49Z</time>
      </trkpt>
      <trkpt lat="47.4395260" lon="8.3479940">
        <ele>396.6</ele>
        <time>2022-06-02T06:57:50Z</time>
      </trkpt>
      <trkpt lat="47.4395200" lon="8.3480310">
        <ele>396.6</ele>
        <time>2022-06-02T06:57:51Z</time>
      </trkpt>
      <trkpt lat="47.4395430" lon="8.3480730">
        <ele>397.4</ele>
        <time>2022-06-02T06:57:53Z</time>
      </trkpt>
      <trkpt lat="47.4395540" lon="8.3480660">
        <ele>397.8</ele>
        <time>2022-06-02T06:57:54Z</time>
      </trkpt>
      <trkpt lat="47.4395660" lon="8.3480500">
        <ele>398.0</ele>
        <time>2022-06-02T06:57:55Z</time>
      </trkpt>
      <trkpt lat="47.4395950" lon="8.3479900">
        <ele>398.4</ele>
        <time>2022-06-02T06:57:57Z</time>
      </trkpt>
      <trkpt lat="47.4396620" lon="8.3478670">
        <ele>398.8</ele>
        <time>2022-06-02T06:58:00Z</time>
      </trkpt>
      <trkpt lat="47.4397140" lon="8.3477650">
        <ele>398.8</ele>
        <time>2022-06-02T06:58:02Z</time>
      </trkpt>
      <trkpt lat="47.4397430" lon="8.3477140">
        <ele>399.0</ele>
        <time>2022-06-02T06:58:03Z</time>
      </trkpt>
      <trkpt lat="47.4398480" lon="8.3475250">
        <ele>399.0</ele>
        <time>2022-06-02T06:58:07Z</time>
      </trkpt>
      <trkpt lat="47.4399080" lon="8.3473420">
        <ele>399.4</ele>
        <time>2022-06-02T06:58:12Z</time>
      </trkpt>
      <trkpt lat="47.4400290" lon="8.3471650">
        <ele>399.6</ele>
        <time>2022-06-02T06:58:17Z</time>
      </trkpt>
      <trkpt lat="47.4402120" lon="8.3469550">
        <ele>399.6</ele>
        <time>2022-06-02T06:58:23Z</time>
      </trkpt>
      <trkpt lat="47.4402270" lon="8.3469020">
        <ele>399.4</ele>
        <time>2022-06-02T06:58:27Z</time>
      </trkpt>
      <trkpt lat="47.4402270" lon="8.3469020">
        <ele>399.4</ele>
        <time>2022-06-02T06:58:29Z</time>
      </trkpt>
      <trkpt lat="47.4403360" lon="8.3467860">
        <ele>398.6</ele>
        <time>2022-06-02T06:59:30Z</time>
      </trkpt>
      <trkpt lat="47.4403710" lon="8.3467420">
        <ele>398.6</ele>
        <time>2022-06-02T06:59:32Z</time>
      </trkpt>
      <trkpt lat="47.4405710" lon="8.3465720">
        <ele>399.0</ele>
        <time>2022-06-02T06:59:39Z</time>
      </trkpt>
      <trkpt lat="47.4407310" lon="8.3464280">
        <ele>399.2</ele>
        <time>2022-06-02T06:59:44Z</time>
      </trkpt>
      <trkpt lat="47.4409900" lon="8.3462120">
        <ele>399.2</ele>
        <time>2022-06-02T06:59:51Z</time>
      </trkpt>
      <trkpt lat="47.4411550" lon="8.3460790">
        <ele>399.6</ele>
        <time>2022-06-02T06:59:55Z</time>
      </trkpt>
      <trkpt lat="47.4411940" lon="8.3460500">
        <ele>399.6</ele>
        <time>2022-06-02T06:59:56Z</time>
      </trkpt>
      <trkpt lat="47.4413210" lon="8.3460270">
        <ele>399.6</ele>
        <time>2022-06-02T06:59:59Z</time>
      </trkpt>
      <trkpt lat="47.4413670" lon="8.3459830">
        <ele>399.6</ele>
        <time>2022-06-02T07:00:00Z</time>
      </trkpt>
      <trkpt lat="47.4414010" lon="8.3459310">
        <ele>399.4</ele>
        <time>2022-06-02T07:00:01Z</time>
      </trkpt>
      <trkpt lat="47.4414850" lon="8.3458430">
        <ele>399.2</ele>
        <time>2022-06-02T07:00:03Z</time>
      </trkpt>
      <trkpt lat="47.4415920" lon="8.3457140">
        <ele>398.8</ele>
        <time>2022-06-02T07:00:07Z</time>
      </trkpt>
      <trkpt lat="47.4417280" lon="8.3455650">
        <ele>398.6</ele>
        <time>2022-06-02T07:00:12Z</time>
      </trkpt>
      <trkpt lat="47.4419460" lon="8.3453410">
        <ele>399.0</ele>
        <time>2022-06-02T07:00:19Z</time>
      </trkpt>
      <trkpt lat="47.4422100" lon="8.3451040">
        <ele>398.6</ele>
        <time>2022-06-02T07:00:25Z</time>
      </trkpt>
      <trkpt lat="47.4422950" lon="8.3450280">
        <ele>398.4</ele>
        <time>2022-06-02T07:00:27Z</time>
      </trkpt>
      <trkpt lat="47.4426390" lon="8.3447490">
        <ele>398.0</ele>
        <time>2022-06-02T07:00:34Z</time>
      </trkpt>
      <trkpt lat="47.4429610" lon="8.3444670">
        <ele>398.0</ele>
        <time>2022-06-02T07:00:42Z</time>
      </trkpt>
      <trkpt lat="47.4431300" lon="8.3443380">
        <ele>398.0</ele>
        <time>2022-06-02T07:00:47Z</time>
      </trkpt>
      <trkpt lat="47.4433190" lon="8.3441610">
        <ele>398.0</ele>
        <time>2022-06-02T07:00:53Z</time>
      </trkpt>
      <trkpt lat="47.4435840" lon="8.3439590">
        <ele>398.0</ele>
        <time>2022-06-02T07:01:00Z</time>
      </trkpt>
      <trkpt lat="47.4438250" lon="8.3437850">
        <ele>397.8</ele>
        <time>2022-06-02T07:01:06Z</time>
      </trkpt>
      <trkpt lat="47.4441060" lon="8.3435800">
        <ele>397.8</ele>
        <time>2022-06-02T07:01:13Z</time>
      </trkpt>
      <trkpt lat="47.4443660" lon="8.3434520">
        <ele>397.4</ele>
        <time>2022-06-02T07:01:19Z</time>
      </trkpt>
      <trkpt lat="47.4446320" lon="8.3432800">
        <ele>397.2</ele>
        <time>2022-06-02T07:01:26Z</time>
      </trkpt>
      <trkpt lat="47.4446620" lon="8.3432550">
        <ele>397.0</ele>
        <time>2022-06-02T07:01:27Z</time>
      </trkpt>
      <trkpt lat="47.4447880" lon="8.3431270">
        <ele>397.0</ele>
        <time>2022-06-02T07:01:32Z</time>
      </trkpt>
      <trkpt lat="47.4449290" lon="8.3429850">
        <ele>397.0</ele>
        <time>2022-06-02T07:01:37Z</time>
      </trkpt>
      <trkpt lat="47.4451760" lon="8.3427900">
        <ele>397.0</ele>
        <time>2022-06-02T07:01:44Z</time>
      </trkpt>
      <trkpt lat="47.4454440" lon="8.3425710">
        <ele>396.8</ele>
        <time>2022-06-02T07:01:51Z</time>
      </trkpt>
      <trkpt lat="47.4454870" lon="8.3425340">
        <ele>396.8</ele>
        <time>2022-06-02T07:01:52Z</time>
      </trkpt>
      <trkpt lat="47.4458280" lon="8.3422640">
        <ele>396.8</ele>
        <time>2022-06-02T07:01:59Z</time>
      </trkpt>
      <trkpt lat="47.4459640" lon="8.3421480">
        <ele>396.8</ele>
        <time>2022-06-02T07:02:02Z</time>
      </trkpt>
      <trkpt lat="47.4460490" lon="8.3420810">
        <ele>396.6</ele>
        <time>2022-06-02T07:02:04Z</time>
      </trkpt>
      <trkpt lat="47.4463270" lon="8.3418630">
        <ele>396.2</ele>
        <time>2022-06-02T07:02:11Z</time>
      </trkpt>
      <trkpt lat="47.4465130" lon="8.3416980">
        <ele>395.8</ele>
        <time>2022-06-02T07:02:16Z</time>
      </trkpt>
      <trkpt lat="47.4465550" lon="8.3416740">
        <ele>395.8</ele>
        <time>2022-06-02T07:02:17Z</time>
      </trkpt>
      <trkpt lat="47.4467510" lon="8.3416250">
        <ele>395.4</ele>
        <time>2022-06-02T07:02:22Z</time>
      </trkpt>
      <trkpt lat="47.4467940" lon="8.3416760">
        <ele>395.6</ele>
        <time>2022-06-02T07:02:24Z</time>
      </trkpt>
      <trkpt lat="47.4468100" lon="8.3417140">
        <ele>395.4</ele>
        <time>2022-06-02T07:02:25Z</time>
      </trkpt>
      <trkpt lat="47.4468460" lon="8.3417960">
        <ele>395.4</ele>
        <time>2022-06-02T07:02:27Z</time>
      </trkpt>
      <trkpt lat="47.4468950" lon="8.3418400">
        <ele>395.6</ele>
        <time>2022-06-02T07:02:29Z</time>
      </trkpt>
      <trkpt lat="47.4470280" lon="8.3418310">
        <ele>395.8</ele>
        <time>2022-06-02T07:02:33Z</time>
      </trkpt>
      <trkpt lat="47.4472450" lon="8.3417040">
        <ele>395.8</ele>
        <time>2022-06-02T07:02:38Z</time>
      </trkpt>
      <trkpt lat="47.4475490" lon="8.3413910">
        <ele>395.6</ele>
        <time>2022-06-02T07:02:45Z</time>
      </trkpt>
      <trkpt lat="47.4476930" lon="8.3412710">
        <ele>395.4</ele>
        <time>2022-06-02T07:02:49Z</time>
      </trkpt>
      <trkpt lat="47.4476900" lon="8.3412390">
        <ele>395.4</ele>
        <time>2022-06-02T07:02:50Z</time>
      </trkpt>
      <trkpt lat="47.4476140" lon="8.3410900">
        <ele>395.2</ele>
        <time>2022-06-02T07:02:53Z</time>
      </trkpt>
      <trkpt lat="47.4475710" lon="8.3410710">
        <ele>395.0</ele>
        <time>2022-06-02T07:02:54Z</time>
      </trkpt>
      <trkpt lat="47.4475120" lon="8.3410040">
        <ele>394.8</ele>
        <time>2022-06-02T07:02:56Z</time>
      </trkpt>
      <trkpt lat="47.4474890" lon="8.3409330">
        <ele>394.6</ele>
        <time>2022-06-02T07:02:57Z</time>
      </trkpt>
      <trkpt lat="47.4474270" lon="8.3406570">
        <ele>394.0</ele>
        <time>2022-06-02T07:03:00Z</time>
      </trkpt>
      <trkpt lat="47.4473780" lon="8.3404730">
        <ele>393.4</ele>
        <time>2022-06-02T07:03:02Z</time>
      </trkpt>
      <trkpt lat="47.4472840" lon="8.3401000">
        <ele>392.4</ele>
        <time>2022-06-02T07:03:06Z</time>
      </trkpt>
      <trkpt lat="47.4472760" lon="8.3399950">
        <ele>392.2</ele>
        <time>2022-06-02T07:03:07Z</time>
      </trkpt>
      <trkpt lat="47.4472230" lon="8.3397940">
        <ele>392.0</ele>
        <time>2022-06-02T07:03:10Z</time>
      </trkpt>
      <trkpt lat="47.4471590" lon="8.3395220">
        <ele>392.0</ele>
        <time>2022-06-02T07:03:15Z</time>
      </trkpt>
      <trkpt lat="47.4471480" lon="8.3394450">
        <ele>392.4</ele>
        <time>2022-06-02T07:03:19Z</time>
      </trkpt>
      <trkpt lat="47.4471480" lon="8.3394450">
        <ele>392.4</ele>
        <time>2022-06-02T07:03:20Z</time>
      </trkpt>
      <trkpt lat="47.4471300" lon="8.3394280">
        <ele>392.4</ele>
        <time>2022-06-02T07:04:31Z</time>
      </trkpt>
      <trkpt lat="47.4470950" lon="8.3393100">
        <ele>392.4</ele>
        <time>2022-06-02T07:04:34Z</time>
      </trkpt>
      <trkpt lat="47.4470200" lon="8.3390610">
        <ele>392.4</ele>
        <time>2022-06-02T07:04:38Z</time>
      </trkpt>
      <trkpt lat="47.4469940" lon="8.3389960">
        <ele>392.4</ele>
        <time>2022-06-02T07:04:39Z</time>
      </trkpt>
      <trkpt lat="47.4468050" lon="8.3385780">
        <ele>392.0</ele>
        <time>2022-06-02T07:04:46Z</time>
      </trkpt>
      <trkpt lat="47.4465790" lon="8.3382070">
        <ele>391.4</ele>
        <time>2022-06-02T07:04:52Z</time>
      </trkpt>
      <trkpt lat="47.4465500" lon="8.3381140">
        <ele>391.0</ele>
        <time>2022-06-02T07:04:53Z</time>
      </trkpt>
      <trkpt lat="47.4465540" lon="8.3380480">
        <ele>391.0</ele>
        <time>2022-06-02T07:04:54Z</time>
      </trkpt>
      <trkpt lat="47.4465860" lon="8.3379670">
        <ele>390.6</ele>
        <time>2022-06-02T07:04:55Z</time>
      </trkpt>
      <trkpt lat="47.4466320" lon="8.3379090">
        <ele>390.6</ele>
        <time>2022-06-02T07:04:56Z</time>
      </trkpt>
      <trkpt lat="47.4466850" lon="8.3378590">
        <ele>390.0</ele>
        <time>2022-06-02T07:04:57Z</time>
      </trkpt>
      <trkpt lat="47.4467900" lon="8.3377680">
        <ele>389.4</ele>
        <time>2022-06-02T07:04:59Z</time>
      </trkpt>
      <trkpt lat="47.4468930" lon="8.3376780">
        <ele>388.6</ele>
        <time>2022-06-02T07:05:01Z</time>
      </trkpt>
      <trkpt lat="47.4469440" lon="8.3376380">
        <ele>388.2</ele>
        <time>2022-06-02T07:05:02Z</time>
      </trkpt>
      <trkpt lat="47.4471070" lon="8.3375450">
        <ele>387.4</ele>
        <time>2022-06-02T07:05:05Z</time>
      </trkpt>
      <trkpt lat="47.4475000" lon="8.3374390">
        <ele>387.0</ele>
        <time>2022-06-02T07:05:12Z</time>
      </trkpt>
      <trkpt lat="47.4480630" lon="8.3372870">
        <ele>387.6</ele>
        <time>2022-06-02T07:05:22Z</time>
      </trkpt>
      <trkpt lat="47.4483420" lon="8.3372250">
        <ele>387.6</ele>
        <time>2022-06-02T07:05:27Z</time>
      </trkpt>
      <trkpt lat="47.4488060" lon="8.3370830">
        <ele>388.0</ele>
        <time>2022-06-02T07:05:36Z</time>
      </trkpt>
      <trkpt lat="47.4488840" lon="8.3369950">
        <ele>388.0</ele>
        <time>2022-06-02T07:05:38Z</time>
      </trkpt>
      <trkpt lat="47.4489540" lon="8.3368750">
        <ele>388.0</ele>
        <time>2022-06-02T07:05:40Z</time>
      </trkpt>
      <trkpt lat="47.4492300" lon="8.3364680">
        <ele>387.6</ele>
        <time>2022-06-02T07:05:47Z</time>
      </trkpt>
      <trkpt lat="47.4494750" lon="8.3362090">
        <ele>387.0</ele>
        <time>2022-06-02T07:05:53Z</time>
      </trkpt>
      <trkpt lat="47.4497230" lon="8.3360340">
        <ele>387.2</ele>
        <time>2022-06-02T07:05:59Z</time>
      </trkpt>
      <trkpt lat="47.4498870" lon="8.3359480">
        <ele>387.4</ele>
        <time>2022-06-02T07:06:04Z</time>
      </trkpt>
      <trkpt lat="47.4500960" lon="8.3358690">
        <ele>388.2</ele>
        <time>2022-06-02T07:06:11Z</time>
      </trkpt>
      <trkpt lat="47.4501920" lon="8.3358240">
        <ele>388.8</ele>
        <time>2022-06-02T07:06:14Z</time>
      </trkpt>
      <trkpt lat="47.4502750" lon="8.3357960">
        <ele>389.6</ele>
        <time>2022-06-02T07:06:17Z</time>
      </trkpt>
      <trkpt lat="47.4503020" lon="8.3357890">
        <ele>390.0</ele>
        <time>2022-06-02T07:06:18Z</time>
      </trkpt>
      <trkpt lat="47.4504700" lon="8.3357170">
        <ele>391.2</ele>
        <time>2022-06-02T07:06:24Z</time>
      </trkpt>
      <trkpt lat="47.4504930" lon="8.3357050">
        <ele>391.0</ele>
        <time>2022-06-02T07:06:25Z</time>
      </trkpt>
      <trkpt lat="47.4506050" lon="8.3356590">
        <ele>392.0</ele>
        <time>2022-06-02T07:06:29Z</time>
      </trkpt>
      <trkpt lat="47.4506600" lon="8.3356350">
        <ele>392.4</ele>
        <time>2022-06-02T07:06:31Z</time>
      </trkpt>
      <trkpt lat="47.4507670" lon="8.3355770">
        <ele>393.2</ele>
        <time>2022-06-02T07:06:35Z</time>
      </trkpt>
      <trkpt lat="47.4508900" lon="8.3355040">
        <ele>394.2</ele>
        <time>2022-06-02T07:06:39Z</time>
      </trkpt>
      <trkpt lat="47.4509730" lon="8.3354630">
        <ele>394.6</ele>
        <time>2022-06-02T07:06:42Z</time>
      </trkpt>
      <trkpt lat="47.4511210" lon="8.3353950">
        <ele>395.6</ele>
        <time>2022-06-02T07:06:47Z</time>
      </trkpt>
      <trkpt lat="47.4511520" lon="8.3353790">
        <ele>395.8</ele>
        <time>2022-06-02T07:06:48Z</time>
      </trkpt>
      <trkpt lat="47.4513470" lon="8.3352770">
        <ele>396.8</ele>
        <time>2022-06-02T07:06:54Z</time>
      </trkpt>
      <trkpt lat="47.4513860" lon="8.3352650">
        <ele>396.8</ele>
        <time>2022-06-02T07:06:55Z</time>
      </trkpt>
      <trkpt lat="47.4516090" lon="8.3351750">
        <ele>397.6</ele>
        <time>2022-06-02T07:07:02Z</time>
      </trkpt>
      <trkpt lat="47.4517430" lon="8.3351160">
        <ele>398.0</ele>
        <time>2022-06-02T07:07:06Z</time>
      </trkpt>
      <trkpt lat="47.4518930" lon="8.3350440">
        <ele>398.4</ele>
        <time>2022-06-02T07:07:10Z</time>
      </trkpt>
      <trkpt lat="47.4522100" lon="8.3348770">
        <ele>398.4</ele>
        <time>2022-06-02T07:07:19Z</time>
      </trkpt>
      <trkpt lat="47.4525730" lon="8.3346450">
        <ele>398.6</ele>
        <time>2022-06-02T07:07:29Z</time>
      </trkpt>
      <trkpt lat="47.4529690" lon="8.3343870">
        <ele>399.0</ele>
        <time>2022-06-02T07:07:39Z</time>
      </trkpt>
      <trkpt lat="47.4530860" lon="8.3343120">
        <ele>399.0</ele>
        <time>2022-06-02T07:07:42Z</time>
      </trkpt>
      <trkpt lat="47.4531630" lon="8.3342810">
        <ele>399.2</ele>
        <time>2022-06-02T07:07:44Z</time>
      </trkpt>
      <trkpt lat="47.4532010" lon="8.3342770">
        <ele>399.2</ele>
        <time>2022-06-02T07:07:45Z</time>
      </trkpt>
      <trkpt lat="47.4532390" lon="8.3342850">
        <ele>399.4</ele>
        <time>2022-06-02T07:07:46Z</time>
      </trkpt>
      <trkpt lat="47.4533430" lon="8.3342910">
        <ele>399.6</ele>
        <time>2022-06-02T07:07:49Z</time>
      </trkpt>
      <trkpt lat="47.4533660" lon="8.3342720">
        <ele>399.6</ele>
        <time>2022-06-02T07:07:50Z</time>
      </trkpt>
      <trkpt lat="47.4535150" lon="8.3340100">
        <ele>400.4</ele>
        <time>2022-06-02T07:07:55Z</time>
      </trkpt>
      <trkpt lat="47.4537020" lon="8.3336250">
        <ele>400.2</ele>
        <time>2022-06-02T07:07:59Z</time>
      </trkpt>
      <trkpt lat="47.4539440" lon="8.3331090">
        <ele>398.4</ele>
        <time>2022-06-02T07:08:04Z</time>
      </trkpt>
      <trkpt lat="47.4539840" lon="8.3330130">
        <ele>398.0</ele>
        <time>2022-06-02T07:08:05Z</time>
      </trkpt>
      <trkpt lat="47.4540620" lon="8.3328050">
        <ele>396.4</ele>
        <time>2022-06-02T07:08:07Z</time>
      </trkpt>
      <trkpt lat="47.4540950" lon="8.3326980">
        <ele>396.0</ele>
        <time>2022-06-02T07:08:08Z</time>
      </trkpt>
      <trkpt lat="47.4541810" lon="8.3323690">
        <ele>395.2</ele>
        <time>2022-06-02T07:08:11Z</time>
      </trkpt>
      <trkpt lat="47.4542920" lon="8.3319090">
        <ele>393.8</ele>
        <time>2022-06-02T07:08:15Z</time>
      </trkpt>
      <trkpt lat="47.4544040" lon="8.3313390">
        <ele>392.8</ele>
        <time>2022-06-02T07:08:20Z</time>
      </trkpt>
      <trkpt lat="47.4544790" lon="8.3308820">
        <ele>391.8</ele>
        <time>2022-06-02T07:08:24Z</time>
      </trkpt>
      <trkpt lat="47.4545410" lon="8.3303110">
        <ele>390.6</ele>
        <time>2022-06-02T07:08:29Z</time>
      </trkpt>
      <trkpt lat="47.4546000" lon="8.3294840">
        <ele>389.4</ele>
        <time>2022-06-02T07:08:36Z</time>
      </trkpt>
      <trkpt lat="47.4546050" lon="8.3293690">
        <ele>389.2</ele>
        <time>2022-06-02T07:08:37Z</time>
      </trkpt>
      <trkpt lat="47.4546140" lon="8.3290600">
        <ele>388.6</ele>
        <time>2022-06-02T07:08:40Z</time>
      </trkpt>
      <trkpt lat="47.4546060" lon="8.3289680">
        <ele>388.8</ele>
        <time>2022-06-02T07:08:41Z</time>
      </trkpt>
      <trkpt lat="47.4545970" lon="8.3288770">
        <ele>388.6</ele>
        <time>2022-06-02T07:08:42Z</time>
      </trkpt>
      <trkpt lat="47.4545740" lon="8.3287080">
        <ele>388.2</ele>
        <time>2022-06-02T07:08:44Z</time>
      </trkpt>
      <trkpt lat="47.4545510" lon="8.3285650">
        <ele>387.6</ele>
        <time>2022-06-02T07:08:46Z</time>
      </trkpt>
      <trkpt lat="47.4545540" lon="8.3285150">
        <ele>387.0</ele>
        <time>2022-06-02T07:08:47Z</time>
      </trkpt>
      <trkpt lat="47.4545550" lon="8.3284550">
        <ele>385.8</ele>
        <time>2022-06-02T07:08:49Z</time>
      </trkpt>
      <trkpt lat="47.4545280" lon="8.3283950">
        <ele>384.8</ele>
        <time>2022-06-02T07:08:52Z</time>
      </trkpt>
      <trkpt lat="47.4545230" lon="8.3283660">
        <ele>384.2</ele>
        <time>2022-06-02T07:08:53Z</time>
      </trkpt>
      <trkpt lat="47.4545260" lon="8.3283090">
        <ele>383.8</ele>
        <time>2022-06-02T07:08:55Z</time>
      </trkpt>
      <trkpt lat="47.4545230" lon="8.3281800">
        <ele>383.4</ele>
        <time>2022-06-02T07:08:58Z</time>
      </trkpt>
      <trkpt lat="47.4544920" lon="8.3278520">
        <ele>383.2</ele>
        <time>2022-06-02T07:09:04Z</time>
      </trkpt>
      <trkpt lat="47.4544320" lon="8.3274880">
        <ele>383.2</ele>
        <time>2022-06-02T07:09:10Z</time>
      </trkpt>
      <trkpt lat="47.4544620" lon="8.3272260">
        <ele>383.2</ele>
        <time>2022-06-02T07:09:14Z</time>
      </trkpt>
      <trkpt lat="47.4544660" lon="8.3271550">
        <ele>383.2</ele>
        <time>2022-06-02T07:09:15Z</time>
      </trkpt>
      <trkpt lat="47.4544320" lon="8.3266290">
        <ele>383.6</ele>
        <time>2022-06-02T07:09:23Z</time>
      </trkpt>
      <trkpt lat="47.4543790" lon="8.3264260">
        <ele>384.4</ele>
        <time>2022-06-02T07:09:28Z</time>
      </trkpt>
      <trkpt lat="47.4543580" lon="8.3264490">
        <ele>384.8</ele>
        <time>2022-06-02T07:09:31Z</time>
      </trkpt>
      <trkpt lat="47.4543720" lon="8.3264820">
        <ele>384.8</ele>
        <time>2022-06-02T07:09:32Z</time>
      </trkpt>
      <trkpt lat="47.4544500" lon="8.3266380">
        <ele>385.2</ele>
        <time>2022-06-02T07:09:36Z</time>
      </trkpt>
      <trkpt lat="47.4544750" lon="8.3266950">
        <ele>385.2</ele>
        <time>2022-06-02T07:09:37Z</time>
      </trkpt>
      <trkpt lat="47.4545020" lon="8.3268500">
        <ele>385.2</ele>
        <time>2022-06-02T07:09:39Z</time>
      </trkpt>
      <trkpt lat="47.4544980" lon="8.3269310">
        <ele>385.2</ele>
        <time>2022-06-02T07:09:40Z</time>
      </trkpt>
      <trkpt lat="47.4544920" lon="8.3270110">
        <ele>385.0</ele>
        <time>2022-06-02T07:09:41Z</time>
      </trkpt>
      <trkpt lat="47.4544730" lon="8.3271250">
        <ele>385.0</ele>
        <time>2022-06-02T07:09:43Z</time>
      </trkpt>
      <trkpt lat="47.4544600" lon="8.3271600">
        <ele>384.8</ele>
        <time>2022-06-02T07:09:44Z</time>
      </trkpt>
      <trkpt lat="47.4544290" lon="8.3271950">
        <ele>384.4</ele>
        <time>2022-06-02T07:09:46Z</time>
      </trkpt>
      <trkpt lat="47.4544220" lon="8.3272180">
        <ele>384.2</ele>
        <time>2022-06-02T07:09:47Z</time>
      </trkpt>
      <trkpt lat="47.4544050" lon="8.3272710">
        <ele>383.6</ele>
        <time>2022-06-02T07:09:49Z</time>
      </trkpt>
      <trkpt lat="47.4543430" lon="8.3272730">
        <ele>383.4</ele>
        <time>2022-06-02T07:09:51Z</time>
      </trkpt>
      <trkpt lat="47.4543180" lon="8.3272340">
        <ele>383.4</ele>
        <time>2022-06-02T07:09:52Z</time>
      </trkpt>
      <trkpt lat="47.4542420" lon="8.3271120">
        <ele>383.2</ele>
        <time>2022-06-02T07:09:55Z</time>
      </trkpt>
      <trkpt lat="47.4540230" lon="8.3268170">
        <ele>382.6</ele>
        <time>2022-06-02T07:10:01Z</time>
      </trkpt>
      <trkpt lat="47.4539820" lon="8.3267280">
        <ele>382.4</ele>
        <time>2022-06-02T07:10:03Z</time>
      </trkpt>
      <trkpt lat="47.4539440" lon="8.3266240">
        <ele>382.2</ele>
        <time>2022-06-02T07:10:05Z</time>
      </trkpt>
      <trkpt lat="47.4539120" lon="8.3265680">
        <ele>382.2</ele>
        <time>2022-06-02T07:10:06Z</time>
      </trkpt>
      <trkpt lat="47.4538530" lon="8.3264660">
        <ele>382.2</ele>
        <time>2022-06-02T07:10:08Z</time>
      </trkpt>
      <trkpt lat="47.4538200" lon="8.3263590">
        <ele>382.2</ele>
        <time>2022-06-02T07:10:10Z</time>
      </trkpt>
      <trkpt lat="47.4538190" lon="8.3263160">
        <ele>382.2</ele>
        <time>2022-06-02T07:10:11Z</time>
      </trkpt>
      <trkpt lat="47.4538330" lon="8.3262770">
        <ele>382.2</ele>
        <time>2022-06-02T07:10:12Z</time>
      </trkpt>
      <trkpt lat="47.4538910" lon="8.3261880">
        <ele>382.2</ele>
        <time>2022-06-02T07:10:14Z</time>
      </trkpt>
      <trkpt lat="47.4540470" lon="8.3259500">
        <ele>382.8</ele>
        <time>2022-06-02T07:10:20Z</time>
      </trkpt>
      <trkpt lat="47.4541350" lon="8.3256970">
        <ele>383.2</ele>
        <time>2022-06-02T07:10:25Z</time>
      </trkpt>
      <trkpt lat="47.4542040" lon="8.3254140">
        <ele>383.8</ele>
        <time>2022-06-02T07:10:31Z</time>
      </trkpt>
      <trkpt lat="47.4542480" lon="8.3249240">
        <ele>384.2</ele>
        <time>2022-06-02T07:10:38Z</time>
      </trkpt>
      <trkpt lat="47.4542930" lon="8.3244470">
        <ele>384.6</ele>
        <time>2022-06-02T07:10:45Z</time>
      </trkpt>
      <trkpt lat="47.4543130" lon="8.3242360">
        <ele>384.8</ele>
        <time>2022-06-02T07:10:48Z</time>
      </trkpt>
      <trkpt lat="47.4543430" lon="8.3239030">
        <ele>385.0</ele>
        <time>2022-06-02T07:10:54Z</time>
      </trkpt>
      <trkpt lat="47.4543750" lon="8.3236160">
        <ele>385.0</ele>
        <time>2022-06-02T07:10:59Z</time>
      </trkpt>
      <trkpt lat="47.4543990" lon="8.3235850">
        <ele>384.8</ele>
        <time>2022-06-02T07:11:01Z</time>
      </trkpt>
      <trkpt lat="47.4544470" lon="8.3235820">
        <ele>384.8</ele>
        <time>2022-06-02T07:11:03Z</time>
      </trkpt>
      <trkpt lat="47.4544930" lon="8.3235560">
        <ele>384.8</ele>
        <time>2022-06-02T07:11:05Z</time>
      </trkpt>
      <trkpt lat="47.4545060" lon="8.3235090">
        <ele>384.8</ele>
        <time>2022-06-02T07:11:06Z</time>
      </trkpt>
      <trkpt lat="47.4545420" lon="8.3232470">
        <ele>384.8</ele>
        <time>2022-06-02T07:11:10Z</time>
      </trkpt>
      <trkpt lat="47.4545560" lon="8.3231830">
        <ele>384.8</ele>
        <time>2022-06-02T07:11:11Z</time>
      </trkpt>
      <trkpt lat="47.4545670" lon="8.3231160">
        <ele>384.8</ele>
        <time>2022-06-02T07:11:12Z</time>
      </trkpt>
      <trkpt lat="47.4545710" lon="8.3228200">
        <ele>384.8</ele>
        <time>2022-06-02T07:11:16Z</time>
      </trkpt>
      <trkpt lat="47.4545360" lon="8.3225900">
        <ele>384.8</ele>
        <time>2022-06-02T07:11:20Z</time>
      </trkpt>
      <trkpt lat="47.4545130" lon="8.3221520">
        <ele>384.6</ele>
        <time>2022-06-02T07:11:28Z</time>
      </trkpt>
      <trkpt lat="47.4545170" lon="8.3216070">
        <ele>384.8</ele>
        <time>2022-06-02T07:11:37Z</time>
      </trkpt>
      <trkpt lat="47.4544860" lon="8.3212450">
        <ele>385.0</ele>
        <time>2022-06-02T07:11:44Z</time>
      </trkpt>
      <trkpt lat="47.4544320" lon="8.3210350">
        <ele>385.0</ele>
        <time>2022-06-02T07:11:48Z</time>
      </trkpt>
      <trkpt lat="47.4544260" lon="8.3207340">
        <ele>384.2</ele>
        <time>2022-06-02T07:11:53Z</time>
      </trkpt>
      <trkpt lat="47.4544540" lon="8.3206900">
        <ele>384.0</ele>
        <time>2022-06-02T07:11:55Z</time>
      </trkpt>
      <trkpt lat="47.4545260" lon="8.3206450">
        <ele>384.0</ele>
        <time>2022-06-02T07:11:57Z</time>
      </trkpt>
      <trkpt lat="47.4545640" lon="8.3206090">
        <ele>383.8</ele>
        <time>2022-06-02T07:11:58Z</time>
      </trkpt>
      <trkpt lat="47.4546800" lon="8.3205290">
        <ele>383.8</ele>
        <time>2022-06-02T07:12:01Z</time>
      </trkpt>
      <trkpt lat="47.4547960" lon="8.3205370">
        <ele>383.8</ele>
        <time>2022-06-02T07:12:04Z</time>
      </trkpt>
      <trkpt lat="47.4548310" lon="8.3205560">
        <ele>383.8</ele>
        <time>2022-06-02T07:12:05Z</time>
      </trkpt>
      <trkpt lat="47.4548640" lon="8.3205380">
        <ele>383.8</ele>
        <time>2022-06-02T07:12:06Z</time>
      </trkpt>
      <trkpt lat="47.4549700" lon="8.3204650">
        <ele>384.0</ele>
        <time>2022-06-02T07:12:09Z</time>
      </trkpt>
      <trkpt lat="47.4552860" lon="8.3202400">
        <ele>384.6</ele>
        <time>2022-06-02T07:12:15Z</time>
      </trkpt>
      <trkpt lat="47.4553890" lon="8.3201360">
        <ele>384.8</ele>
        <time>2022-06-02T07:12:18Z</time>
      </trkpt>
      <trkpt lat="47.4554360" lon="8.3200780">
        <ele>385.0</ele>
        <time>2022-06-02T07:12:19Z</time>
      </trkpt>
      <trkpt lat="47.4556490" lon="8.3198610">
        <ele>385.4</ele>
        <time>2022-06-02T07:12:24Z</time>
      </trkpt>
      <trkpt lat="47.4557650" lon="8.3198170">
        <ele>385.8</ele>
        <time>2022-06-02T07:12:27Z</time>
      </trkpt>
      <trkpt lat="47.4558220" lon="8.3197710">
        <ele>385.8</ele>
        <time>2022-06-02T07:12:29Z</time>
      </trkpt>
      <trkpt lat="47.4559660" lon="8.3196850">
        <ele>385.8</ele>
        <time>2022-06-02T07:12:33Z</time>
      </trkpt>
      <trkpt lat="47.4559970" lon="8.3196740">
        <ele>385.8</ele>
        <time>2022-06-02T07:12:34Z</time>
      </trkpt>
      <trkpt lat="47.4561920" lon="8.3196230">
        <ele>385.4</ele>
        <time>2022-06-02T07:12:38Z</time>
      </trkpt>
      <trkpt lat="47.4562650" lon="8.3196120">
        <ele>385.4</ele>
        <time>2022-06-02T07:12:40Z</time>
      </trkpt>
      <trkpt lat="47.4564620" lon="8.3192370">
        <ele>385.4</ele>
        <time>2022-06-02T07:12:45Z</time>
      </trkpt>
      <trkpt lat="47.4566480" lon="8.3190320">
        <ele>385.4</ele>
        <time>2022-06-02T07:12:50Z</time>
      </trkpt>
      <trkpt lat="47.4568470" lon="8.3190270">
        <ele>385.4</ele>
        <time>2022-06-02T07:12:55Z</time>
      </trkpt>
      <trkpt lat="47.4569380" lon="8.3189500">
        <ele>385.8</ele>
        <time>2022-06-02T07:12:59Z</time>
      </trkpt>
      <trkpt lat="47.4569890" lon="8.3189100">
        <ele>385.8</ele>
        <time>2022-06-02T07:13:00Z</time>
      </trkpt>
      <trkpt lat="47.4571160" lon="8.3188210">
        <ele>385.8</ele>
        <time>2022-06-02T07:13:03Z</time>
      </trkpt>
      <trkpt lat="47.4571480" lon="8.3187730">
        <ele>386.0</ele>
        <time>2022-06-02T07:13:04Z</time>
      </trkpt>
      <trkpt lat="47.4572760" lon="8.3186440">
        <ele>386.2</ele>
        <time>2022-06-02T07:13:08Z</time>
      </trkpt>
      <trkpt lat="47.4573110" lon="8.3186050">
        <ele>386.4</ele>
        <time>2022-06-02T07:13:09Z</time>
      </trkpt>
      <trkpt lat="47.4573730" lon="8.3185140">
        <ele>386.4</ele>
        <time>2022-06-02T07:13:12Z</time>
      </trkpt>
      <trkpt lat="47.4573730" lon="8.3185000">
        <ele>386.6</ele>
        <time>2022-06-02T07:13:13Z</time>
      </trkpt>
      <trkpt lat="47.4573820" lon="8.3184810">
        <ele>386.8</ele>
        <time>2022-06-02T07:13:15Z</time>
      </trkpt>
      <trkpt lat="47.4574050" lon="8.3184740">
        <ele>387.0</ele>
        <time>2022-06-02T07:13:19Z</time>
      </trkpt>
      <trkpt lat="47.4574010" lon="8.3184650">
        <ele>387.0</ele>
        <time>2022-06-02T07:13:20Z</time>
      </trkpt>
      <trkpt lat="47.4573720" lon="8.3184940">
        <ele>387.0</ele>
        <time>2022-06-02T07:13:23Z</time>
      </trkpt>
      <trkpt lat="47.4572810" lon="8.3186010">
        <ele>386.8</ele>
        <time>2022-06-02T07:13:28Z</time>
      </trkpt>
      <trkpt lat="47.4571290" lon="8.3187500">
        <ele>386.6</ele>
        <time>2022-06-02T07:13:35Z</time>
      </trkpt>
      <trkpt lat="47.4571070" lon="8.3187670">
        <ele>386.6</ele>
        <time>2022-06-02T07:13:36Z</time>
      </trkpt>
      <trkpt lat="47.4570440" lon="8.3187660">
        <ele>386.4</ele>
        <time>2022-06-02T07:13:39Z</time>
      </trkpt>
      <trkpt lat="47.4570280" lon="8.3187570">
        <ele>386.4</ele>
        <time>2022-06-02T07:13:40Z</time>
      </trkpt>
      <trkpt lat="47.4569890" lon="8.3187340">
        <ele>385.8</ele>
        <time>2022-06-02T07:13:44Z</time>
      </trkpt>
      <trkpt lat="47.4569790" lon="8.3187420">
        <ele>385.4</ele>
        <time>2022-06-02T07:13:47Z</time>
      </trkpt>
      <trkpt lat="47.4569820" lon="8.3187540">
        <ele>385.4</ele>
        <time>2022-06-02T07:13:49Z</time>
      </trkpt>
      <trkpt lat="47.4569940" lon="8.3187630">
        <ele>385.4</ele>
        <time>2022-06-02T07:13:50Z</time>
      </trkpt>
      <trkpt lat="47.4570200" lon="8.3187810">
        <ele>385.4</ele>
        <time>2022-06-02T07:13:52Z</time>
      </trkpt>
      <trkpt lat="47.4570410" lon="8.3187680">
        <ele>385.4</ele>
        <time>2022-06-02T07:13:55Z</time>
      </trkpt>
      <trkpt lat="47.4570690" lon="8.3187610">
        <ele>385.6</ele>
        <time>2022-06-02T07:13:59Z</time>
      </trkpt>
      <trkpt lat="47.4570930" lon="8.3187400">
        <ele>385.6</ele>
        <time>2022-06-02T07:14:03Z</time>
      </trkpt>
      <trkpt lat="47.4570870" lon="8.3187330">
        <ele>385.6</ele>
        <time>2022-06-02T07:14:04Z</time>
      </trkpt>
      <trkpt lat="47.4570790" lon="8.3187300">
        <ele>385.6</ele>
        <time>2022-06-02T07:14:05Z</time>
      </trkpt>
      <trkpt lat="47.4570180" lon="8.3187360">
        <ele>385.6</ele>
        <time>2022-06-02T07:14:09Z</time>
      </trkpt>
      <trkpt lat="47.4569730" lon="8.3187010">
        <ele>385.6</ele>
        <time>2022-06-02T07:14:12Z</time>
      </trkpt>
      <trkpt lat="47.4569670" lon="8.3186680">
        <ele>385.6</ele>
        <time>2022-06-02T07:14:13Z</time>
      </trkpt>
      <trkpt lat="47.4569410" lon="8.3184260">
        <ele>385.4</ele>
        <time>2022-06-02T07:14:17Z</time>
      </trkpt>
      <trkpt lat="47.4569670" lon="8.3183710">
        <ele>385.2</ele>
        <time>2022-06-02T07:14:18Z</time>
      </trkpt>
      <trkpt lat="47.4570150" lon="8.3182990">
        <ele>385.0</ele>
        <time>2022-06-02T07:14:21Z</time>
      </trkpt>
      <trkpt lat="47.4570230" lon="8.3182830">
        <ele>385.0</ele>
        <time>2022-06-02T07:14:22Z</time>
      </trkpt>
      <trkpt lat="47.4570120" lon="8.3182790">
        <ele>384.8</ele>
        <time>2022-06-02T07:14:25Z</time>
      </trkpt>
      <trkpt lat="47.4570010" lon="8.3182860">
        <ele>384.8</ele>
        <time>2022-06-02T07:14:26Z</time>
      </trkpt>
      <trkpt lat="47.4569210" lon="8.3183670">
        <ele>384.6</ele>
        <time>2022-06-02T07:14:32Z</time>
      </trkpt>
      <trkpt lat="47.4569100" lon="8.3184360">
        <ele>384.6</ele>
        <time>2022-06-02T07:14:35Z</time>
      </trkpt>
      <trkpt lat="47.4569190" lon="8.3184670">
        <ele>384.6</ele>
        <time>2022-06-02T07:14:36Z</time>
      </trkpt>
      <trkpt lat="47.4570130" lon="8.3186000">
        <ele>384.6</ele>
        <time>2022-06-02T07:14:41Z</time>
      </trkpt>
      <trkpt lat="47.4570160" lon="8.3186340">
        <ele>384.6</ele>
        <time>2022-06-02T07:14:42Z</time>
      </trkpt>
      <trkpt lat="47.4570590" lon="8.3187090">
        <ele>384.6</ele>
        <time>2022-06-02T07:14:44Z</time>
      </trkpt>
      <trkpt lat="47.4571160" lon="8.3187230">
        <ele>385.0</ele>
        <time>2022-06-02T07:14:46Z</time>
      </trkpt>
      <trkpt lat="47.4571770" lon="8.3186760">
        <ele>385.2</ele>
        <time>2022-06-02T07:14:48Z</time>
      </trkpt>
      <trkpt lat="47.4573720" lon="8.3184970">
        <ele>386.2</ele>
        <time>2022-06-02T07:14:55Z</time>
      </trkpt>
      <trkpt lat="47.4573990" lon="8.3184600">
        <ele>386.4</ele>
        <time>2022-06-02T07:14:56Z</time>
      </trkpt>
      <trkpt lat="47.4575050" lon="8.3182920">
        <ele>386.6</ele>
        <time>2022-06-02T07:15:00Z</time>
      </trkpt>
      <trkpt lat="47.4576010" lon="8.3181290">
        <ele>387.0</ele>
        <time>2022-06-02T07:15:04Z</time>
      </trkpt>
      <trkpt lat="47.4577200" lon="8.3179430">
        <ele>387.4</ele>
        <time>2022-06-02T07:15:09Z</time>
      </trkpt>
      <trkpt lat="47.4577560" lon="8.3178880">
        <ele>387.4</ele>
        <time>2022-06-02T07:15:10Z</time>
      </trkpt>
      <trkpt lat="47.4580100" lon="8.3175380">
        <ele>387.8</ele>
        <time>2022-06-02T07:15:19Z</time>
      </trkpt>
      <trkpt lat="47.4581220" lon="8.3173560">
        <ele>387.2</ele>
        <time>2022-06-02T07:15:24Z</time>
      </trkpt>
      <trkpt lat="47.4581610" lon="8.3173130">
        <ele>387.0</ele>
        <time>2022-06-02T07:15:27Z</time>
      </trkpt>
      <trkpt lat="47.4581620" lon="8.3172990">
        <ele>387.0</ele>
        <time>2022-06-02T07:15:28Z</time>
      </trkpt>
      <trkpt lat="47.4581330" lon="8.3173010">
        <ele>386.8</ele>
        <time>2022-06-02T07:15:31Z</time>
      </trkpt>
      <trkpt lat="47.4581250" lon="8.3173230">
        <ele>386.8</ele>
        <time>2022-06-02T07:15:32Z</time>
      </trkpt>
      <trkpt lat="47.4580350" lon="8.3174880">
        <ele>386.8</ele>
        <time>2022-06-02T07:15:37Z</time>
      </trkpt>
      <trkpt lat="47.4580110" lon="8.3175690">
        <ele>386.8</ele>
        <time>2022-06-02T07:15:39Z</time>
      </trkpt>
      <trkpt lat="47.4580230" lon="8.3175940">
        <ele>386.8</ele>
        <time>2022-06-02T07:15:40Z</time>
      </trkpt>
      <trkpt lat="47.4580580" lon="8.3175860">
        <ele>386.8</ele>
        <time>2022-06-02T07:15:42Z</time>
      </trkpt>
      <trkpt lat="47.4580940" lon="8.3175360">
        <ele>386.8</ele>
        <time>2022-06-02T07:15:44Z</time>
      </trkpt>
      <trkpt lat="47.4582110" lon="8.3173530">
        <ele>386.8</ele>
        <time>2022-06-02T07:15:48Z</time>
      </trkpt>
      <trkpt lat="47.4583320" lon="8.3171930">
        <ele>386.8</ele>
        <time>2022-06-02T07:15:51Z</time>
      </trkpt>
      <trkpt lat="47.4583430" lon="8.3171560">
        <ele>386.8</ele>
        <time>2022-06-02T07:15:52Z</time>
      </trkpt>
      <trkpt lat="47.4583380" lon="8.3171110">
        <ele>386.6</ele>
        <time>2022-06-02T07:15:53Z</time>
      </trkpt>
      <trkpt lat="47.4583230" lon="8.3170760">
        <ele>386.2</ele>
        <time>2022-06-02T07:15:54Z</time>
      </trkpt>
      <trkpt lat="47.4582030" lon="8.3169230">
        <ele>385.2</ele>
        <time>2022-06-02T07:16:00Z</time>
      </trkpt>
      <trkpt lat="47.4580830" lon="8.3167700">
        <ele>384.8</ele>
        <time>2022-06-02T07:16:02Z</time>
      </trkpt>
      <trkpt lat="47.4579630" lon="8.3166170">
        <ele>384.6</ele>
        <time>2022-06-02T07:16:03Z</time>
      </trkpt>
      <trkpt lat="47.4579330" lon="8.3165210">
        <ele>384.2</ele>
        <time>2022-06-02T07:16:06Z</time>
      </trkpt>
      <trkpt lat="47.4578970" lon="8.3164610">
        <ele>384.0</ele>
        <time>2022-06-02T07:16:09Z</time>
      </trkpt>
      <trkpt lat="47.4578820" lon="8.3164690">
        <ele>384.2</ele>
        <time>2022-06-02T07:16:10Z</time>
      </trkpt>
      <trkpt lat="47.4578790" lon="8.3165150">
        <ele>384.2</ele>
        <time>2022-06-02T07:16:14Z</time>
      </trkpt>
      <trkpt lat="47.4578960" lon="8.3164920">
        <ele>384.4</ele>
        <time>2022-06-02T07:16:17Z</time>
      </trkpt>
      <trkpt lat="47.4578680" lon="8.3163160">
        <ele>384.6</ele>
        <time>2022-06-02T07:16:22Z</time>
      </trkpt>
      <trkpt lat="47.4578950" lon="8.3160620">
        <ele>384.4</ele>
        <time>2022-06-02T07:16:27Z</time>
      </trkpt>
      <trkpt lat="47.4580370" lon="8.3157560">
        <ele>384.0</ele>
        <time>2022-06-02T07:16:34Z</time>
      </trkpt>
      <trkpt lat="47.4582620" lon="8.3154940">
        <ele>384.2</ele>
        <time>2022-06-02T07:16:40Z</time>
      </trkpt>
      <trkpt lat="47.4583660" lon="8.3154400">
        <ele>384.2</ele>
        <time>2022-06-02T07:16:44Z</time>
      </trkpt>
      <trkpt lat="47.4584780" lon="8.3154200">
        <ele>384.2</ele>
        <time>2022-06-02T07:16:50Z</time>
      </trkpt>
      <trkpt lat="47.4585430" lon="8.3154140">
        <ele>383.6</ele>
        <time>2022-06-02T07:16:58Z</time>
      </trkpt>
      <trkpt lat="47.4585050" lon="8.3154300">
        <ele>382.4</ele>
        <time>2022-06-02T07:17:36Z</time>
      </trkpt>
      <trkpt lat="47.4584600" lon="8.3154300">
        <ele>382.4</ele>
        <time>2022-06-02T07:17:39Z</time>
      </trkpt>
      <trkpt lat="47.4583310" lon="8.3154660">
        <ele>382.4</ele>
        <time>2022-06-02T07:17:44Z</time>
      </trkpt>
      <trkpt lat="47.4582220" lon="8.3155080">
        <ele>382.4</ele>
        <time>2022-06-02T07:17:50Z</time>
      </trkpt>
      <trkpt lat="47.4582020" lon="8.3154560">
        <ele>382.6</ele>
        <time>2022-06-02T07:17:54Z</time>
      </trkpt>
      <trkpt lat="47.4581600" lon="8.3154390">
        <ele>382.6</ele>
        <time>2022-06-02T07:17:56Z</time>
      </trkpt>
      <trkpt lat="47.4580270" lon="8.3154200">
        <ele>382.0</ele>
        <time>2022-06-02T07:18:03Z</time>
      </trkpt>
      <trkpt lat="47.4580230" lon="8.3154200">
        <ele>381.4</ele>
        <time>2022-06-02T07:18:06Z</time>
      </trkpt>
      <trkpt lat="47.4581000" lon="8.3153930">
        <ele>379.4</ele>
        <time>2022-06-02T07:18:58Z</time>
      </trkpt>
      <trkpt lat="47.4581300" lon="8.3153830">
        <ele>379.4</ele>
        <time>2022-06-02T07:18:59Z</time>
      </trkpt>
      <trkpt lat="47.4582050" lon="8.3153480">
        <ele>378.6</ele>
        <time>2022-06-02T07:19:03Z</time>
      </trkpt>
      <trkpt lat="47.4582150" lon="8.3153340">
        <ele>378.6</ele>
        <time>2022-06-02T07:19:04Z</time>
      </trkpt>
      <trkpt lat="47.4581860" lon="8.3153280">
        <ele>378.2</ele>
        <time>2022-06-02T07:19:06Z</time>
      </trkpt>
      <trkpt lat="47.4581220" lon="8.3153110">
        <ele>377.8</ele>
        <time>2022-06-02T07:19:08Z</time>
      </trkpt>
      <trkpt lat="47.4580640" lon="8.3152810">
        <ele>377.4</ele>
        <time>2022-06-02T07:19:10Z</time>
      </trkpt>
      <trkpt lat="47.4580340" lon="8.3152500">
        <ele>377.2</ele>
        <time>2022-06-02T07:19:11Z</time>
      </trkpt>
      <trkpt lat="47.4579990" lon="8.3152330">
        <ele>377.0</ele>
        <time>2022-06-02T07:19:12Z</time>
      </trkpt>
      <trkpt lat="47.4578910" lon="8.3151980">
        <ele>376.0</ele>
        <time>2022-06-02T07:19:15Z</time>
      </trkpt>
      <trkpt lat="47.4578130" lon="8.3151610">
        <ele>374.6</ele>
        <time>2022-06-02T07:19:18Z</time>
      </trkpt>
      <trkpt lat="47.4578340" lon="8.3151240">
        <ele>373.6</ele>
        <time>2022-06-02T07:19:20Z</time>
      </trkpt>
      <trkpt lat="47.4578710" lon="8.3151130">
        <ele>372.6</ele>
        <time>2022-06-02T07:19:22Z</time>
      </trkpt>
      <trkpt lat="47.4579090" lon="8.3151020">
        <ele>370.6</ele>
        <time>2022-06-02T07:19:28Z</time>
      </trkpt>
      <trkpt lat="47.4579460" lon="8.3150910">
        <ele>370.4</ele>
        <time>2022-06-02T07:19:29Z</time>
      </trkpt>
      <trkpt lat="47.4581100" lon="8.3150630">
        <ele>369.6</ele>
        <time>2022-06-02T07:19:33Z</time>
      </trkpt>
      <trkpt lat="47.4581390" lon="8.3150630">
        <ele>368.6</ele>
        <time>2022-06-02T07:19:34Z</time>
      </trkpt>
      <trkpt lat="47.4581520" lon="8.3150680">
        <ele>368.2</ele>
        <time>2022-06-02T07:19:35Z</time>
      </trkpt>
      <trkpt lat="47.4581850" lon="8.3150340">
        <ele>367.2</ele>
        <time>2022-06-02T07:19:37Z</time>
      </trkpt>
      <trkpt lat="47.4582490" lon="8.3148250">
        <ele>366.2</ele>
        <time>2022-06-02T07:19:42Z</time>
      </trkpt>
      <trkpt lat="47.4582620" lon="8.3147770">
        <ele>366.0</ele>
        <time>2022-06-02T07:19:43Z</time>
      </trkpt>
      <trkpt lat="47.4583030" lon="8.3145620">
        <ele>365.6</ele>
        <time>2022-06-02T07:19:47Z</time>
      </trkpt>
      <trkpt lat="47.4583740" lon="8.3141820">
        <ele>365.0</ele>
        <time>2022-06-02T07:19:53Z</time>
      </trkpt>
      <trkpt lat="47.4583840" lon="8.3141170">
        <ele>365.0</ele>
        <time>2022-06-02T07:19:54Z</time>
      </trkpt>
      <trkpt lat="47.4584190" lon="8.3139770">
        <ele>364.8</ele>
        <time>2022-06-02T07:19:56Z</time>
      </trkpt>
      <trkpt lat="47.4584360" lon="8.3139030">
        <ele>364.6</ele>
        <time>2022-06-02T07:19:58Z</time>
      </trkpt>
      <trkpt lat="47.4584420" lon="8.3138550">
        <ele>364.6</ele>
        <time>2022-06-02T07:20:03Z</time>
      </trkpt>
      <trkpt lat="47.4584340" lon="8.3138730">
        <ele>364.6</ele>
        <time>2022-06-02T07:20:04Z</time>
      </trkpt>
      <trkpt lat="47.4583730" lon="8.3139910">
        <ele>364.8</ele>
        <time>2022-06-02T07:20:09Z</time>
      </trkpt>
      <trkpt lat="47.4582800" lon="8.3139690">
        <ele>364.8</ele>
        <time>2022-06-02T07:20:12Z</time>
      </trkpt>
      <trkpt lat="47.4581010" lon="8.3138410">
        <ele>364.0</ele>
        <time>2022-06-02T07:20:17Z</time>
      </trkpt>
      <trkpt lat="47.4580290" lon="8.3137920">
        <ele>364.0</ele>
        <time>2022-06-02T07:20:19Z</time>
      </trkpt>
      <trkpt lat="47.4578540" lon="8.3135580">
        <ele>364.0</ele>
        <time>2022-06-02T07:20:26Z</time>
      </trkpt>
      <trkpt lat="47.4578330" lon="8.3135330">
        <ele>364.0</ele>
        <time>2022-06-02T07:20:27Z</time>
      </trkpt>
      <trkpt lat="47.4578050" lon="8.3134640">
        <ele>364.0</ele>
        <time>2022-06-02T07:20:29Z</time>
      </trkpt>
      <trkpt lat="47.4577960" lon="8.3133350">
        <ele>364.2</ele>
        <time>2022-06-02T07:20:33Z</time>
      </trkpt>
      <trkpt lat="47.4578010" lon="8.3133140">
        <ele>364.2</ele>
        <time>2022-06-02T07:20:34Z</time>
      </trkpt>
      <trkpt lat="47.4577990" lon="8.3133010">
        <ele>364.2</ele>
        <time>2022-06-02T07:20:35Z</time>
      </trkpt>
      <trkpt lat="47.4577840" lon="8.3132940">
        <ele>364.4</ele>
        <time>2022-06-02T07:20:38Z</time>
      </trkpt>
      <trkpt lat="47.4577690" lon="8.3133110">
        <ele>364.8</ele>
        <time>2022-06-02T07:20:40Z</time>
      </trkpt>
      <trkpt lat="47.4577700" lon="8.3133200">
        <ele>365.0</ele>
        <time>2022-06-02T07:20:43Z</time>
      </trkpt>
      <trkpt lat="47.4577700" lon="8.3133200">
        <ele>365.0</ele>
        <time>2022-06-02T07:20:44Z</time>
      </trkpt>
      <trkpt lat="47.4577780" lon="8.3132010">
        <ele>365.2</ele>
        <time>2022-06-02T07:21:02Z</time>
      </trkpt>
      <trkpt lat="47.4577420" lon="8.3131560">
        <ele>365.2</ele>
        <time>2022-06-02T07:21:04Z</time>
      </trkpt>
      <trkpt lat="47.4576210" lon="8.3130370">
        <ele>365.8</ele>
        <time>2022-06-02T07:21:11Z</time>
      </trkpt>
      <trkpt lat="47.4576040" lon="8.3130170">
        <ele>365.8</ele>
        <time>2022-06-02T07:21:12Z</time>
      </trkpt>
      <trkpt lat="47.4575000" lon="8.3129200">
        <ele>366.8</ele>
        <time>2022-06-02T07:21:18Z</time>
      </trkpt>
      <trkpt lat="47.4574390" lon="8.3128490">
        <ele>367.2</ele>
        <time>2022-06-02T07:21:22Z</time>
      </trkpt>
      <trkpt lat="47.4573450" lon="8.3127570">
        <ele>367.8</ele>
        <time>2022-06-02T07:21:27Z</time>
      </trkpt>
      <trkpt lat="47.4573090" lon="8.3127300">
        <ele>368.0</ele>
        <time>2022-06-02T07:21:29Z</time>
      </trkpt>
      <trkpt lat="47.4572100" lon="8.3125920">
        <ele>368.8</ele>
        <time>2022-06-02T07:21:35Z</time>
      </trkpt>
      <trkpt lat="47.4571950" lon="8.3125600">
        <ele>369.0</ele>
        <time>2022-06-02T07:21:36Z</time>
      </trkpt>
      <trkpt lat="47.4571740" lon="8.3125030">
        <ele>369.4</ele>
        <time>2022-06-02T07:21:38Z</time>
      </trkpt>
      <trkpt lat="47.4571570" lon="8.3124050">
        <ele>369.6</ele>
        <time>2022-06-02T07:21:41Z</time>
      </trkpt>
      <trkpt lat="47.4571580" lon="8.3123340">
        <ele>370.0</ele>
        <time>2022-06-02T07:21:43Z</time>
      </trkpt>
      <trkpt lat="47.4571810" lon="8.3122260">
        <ele>370.4</ele>
        <time>2022-06-02T07:21:46Z</time>
      </trkpt>
      <trkpt lat="47.4572610" lon="8.3121450">
        <ele>371.0</ele>
        <time>2022-06-02T07:21:49Z</time>
      </trkpt>
      <trkpt lat="47.4573310" lon="8.3120840">
        <ele>371.2</ele>
        <time>2022-06-02T07:21:52Z</time>
      </trkpt>
      <trkpt lat="47.4574540" lon="8.3119710">
        <ele>371.8</ele>
        <time>2022-06-02T07:21:57Z</time>
      </trkpt>
      <trkpt lat="47.4574730" lon="8.3119440">
        <ele>372.0</ele>
        <time>2022-06-02T07:21:58Z</time>
      </trkpt>
      <trkpt lat="47.4575170" lon="8.3118950">
        <ele>372.2</ele>
        <time>2022-06-02T07:22:00Z</time>
      </trkpt>
      <trkpt lat="47.4575960" lon="8.3118340">
        <ele>372.2</ele>
        <time>2022-06-02T07:22:03Z</time>
      </trkpt>
      <trkpt lat="47.4576830" lon="8.3118220">
        <ele>372.4</ele>
        <time>2022-06-02T07:22:06Z</time>
      </trkpt>
      <trkpt lat="47.4577410" lon="8.3118690">
        <ele>372.6</ele>
        <time>2022-06-02T07:22:08Z</time>
      </trkpt>
      <trkpt lat="47.4578620" lon="8.3119750">
        <ele>372.6</ele>
        <time>2022-06-02T07:22:12Z</time>
      </trkpt>
      <trkpt lat="47.4579400" lon="8.3118820">
        <ele>372.6</ele>
        <time>2022-06-02T07:22:14Z</time>
      </trkpt>
      <trkpt lat="47.4579670" lon="8.3118390">
        <ele>372.6</ele>
        <time>2022-06-02T07:22:15Z</time>
      </trkpt>
      <trkpt lat="47.4580650" lon="8.3116190">
        <ele>372.6</ele>
        <time>2022-06-02T07:22:21Z</time>
      </trkpt>
      <trkpt lat="47.4581860" lon="8.3114080">
        <ele>373.0</ele>
        <time>2022-06-02T07:22:26Z</time>
      </trkpt>
      <trkpt lat="47.4582770" lon="8.3112020">
        <ele>373.8</ele>
        <time>2022-06-02T07:22:32Z</time>
      </trkpt>
      <trkpt lat="47.4583240" lon="8.3111380">
        <ele>374.2</ele>
        <time>2022-06-02T07:22:34Z</time>
      </trkpt>
      <trkpt lat="47.4583290" lon="8.3110960">
        <ele>374.2</ele>
        <time>2022-06-02T07:22:35Z</time>
      </trkpt>
      <trkpt lat="47.4583390" lon="8.3110370">
        <ele>374.4</ele>
        <time>2022-06-02T07:22:37Z</time>
      </trkpt>
      <trkpt lat="47.4583450" lon="8.3109770">
        <ele>374.8</ele>
        <time>2022-06-02T07:22:39Z</time>
      </trkpt>
      <trkpt lat="47.4583710" lon="8.3109500">
        <ele>375.2</ele>
        <time>2022-06-02T07:22:40Z</time>
      </trkpt>
      <trkpt lat="47.4584200" lon="8.3108700">
        <ele>375.8</ele>
        <time>2022-06-02T07:22:43Z</time>
      </trkpt>
      <trkpt lat="47.4584830" lon="8.3107720">
        <ele>376.4</ele>
        <time>2022-06-02T07:22:47Z</time>
      </trkpt>
      <trkpt lat="47.4585220" lon="8.3106900">
        <ele>376.8</ele>
        <time>2022-06-02T07:22:50Z</time>
      </trkpt>
      <trkpt lat="47.4585480" lon="8.3106330">
        <ele>377.4</ele>
        <time>2022-06-02T07:22:52Z</time>
      </trkpt>
      <trkpt lat="47.4586320" lon="8.3105010">
        <ele>378.4</ele>
        <time>2022-06-02T07:22:57Z</time>
      </trkpt>
      <trkpt lat="47.4586510" lon="8.3104770">
        <ele>378.8</ele>
        <time>2022-06-02T07:22:58Z</time>
      </trkpt>
      <trkpt lat="47.4586910" lon="8.3104140">
        <ele>379.6</ele>
        <time>2022-06-02T07:23:01Z</time>
      </trkpt>
      <trkpt lat="47.4587410" lon="8.3103630">
        <ele>380.0</ele>
        <time>2022-06-02T07:23:04Z</time>
      </trkpt>
      <trkpt lat="47.4587720" lon="8.3103180">
        <ele>380.6</ele>
        <time>2022-06-02T07:23:06Z</time>
      </trkpt>
      <trkpt lat="47.4588190" lon="8.3102050">
        <ele>381.8</ele>
        <time>2022-06-02T07:23:10Z</time>
      </trkpt>
      <trkpt lat="47.4588230" lon="8.3101750">
        <ele>382.0</ele>
        <time>2022-06-02T07:23:11Z</time>
      </trkpt>
      <trkpt lat="47.4588480" lon="8.3100490">
        <ele>382.8</ele>
        <time>2022-06-02T07:23:15Z</time>
      </trkpt>
      <trkpt lat="47.4588490" lon="8.3100070">
        <ele>383.4</ele>
        <time>2022-06-02T07:23:17Z</time>
      </trkpt>
      <trkpt lat="47.4588450" lon="8.3099800">
        <ele>383.8</ele>
        <time>2022-06-02T07:23:19Z</time>
      </trkpt>
      <trkpt lat="47.4588450" lon="8.3099740">
        <ele>384.2</ele>
        <time>2022-06-02T07:23:22Z</time>
      </trkpt>
      <trkpt lat="47.4588290" lon="8.3099090">
        <ele>384.4</ele>
        <time>2022-06-02T07:23:31Z</time>
      </trkpt>
      <trkpt lat="47.4587850" lon="8.3097140">
        <ele>384.2</ele>
        <time>2022-06-02T07:23:35Z</time>
      </trkpt>
      <trkpt lat="47.4587650" lon="8.3096500">
        <ele>384.2</ele>
        <time>2022-06-02T07:23:36Z</time>
      </trkpt>
      <trkpt lat="47.4587210" lon="8.3095390">
        <ele>384.0</ele>
        <time>2022-06-02T07:23:38Z</time>
      </trkpt>
      <trkpt lat="47.4586970" lon="8.3095010">
        <ele>384.0</ele>
        <time>2022-06-02T07:23:39Z</time>
      </trkpt>
      <trkpt lat="47.4585760" lon="8.3093270">
        <ele>383.8</ele>
        <time>2022-06-02T07:23:45Z</time>
      </trkpt>
      <trkpt lat="47.4585100" lon="8.3092260">
        <ele>384.4</ele>
        <time>2022-06-02T07:23:50Z</time>
      </trkpt>
      <trkpt lat="47.4584660" lon="8.3091590">
        <ele>385.0</ele>
        <time>2022-06-02T07:23:53Z</time>
      </trkpt>
      <trkpt lat="47.4584400" lon="8.3090390">
        <ele>386.0</ele>
        <time>2022-06-02T07:23:57Z</time>
      </trkpt>
      <trkpt lat="47.4584290" lon="8.3088360">
        <ele>387.2</ele>
        <time>2022-06-02T07:24:03Z</time>
      </trkpt>
      <trkpt lat="47.4584420" lon="8.3087190">
        <ele>388.0</ele>
        <time>2022-06-02T07:24:07Z</time>
      </trkpt>
      <trkpt lat="47.4584580" lon="8.3086250">
        <ele>389.0</ele>
        <time>2022-06-02T07:24:10Z</time>
      </trkpt>
      <trkpt lat="47.4584660" lon="8.3085980">
        <ele>389.2</ele>
        <time>2022-06-02T07:24:11Z</time>
      </trkpt>
      <trkpt lat="47.4584820" lon="8.3085630">
        <ele>389.8</ele>
        <time>2022-06-02T07:24:12Z</time>
      </trkpt>
      <trkpt lat="47.4585190" lon="8.3085110">
        <ele>390.2</ele>
        <time>2022-06-02T07:24:14Z</time>
      </trkpt>
      <trkpt lat="47.4585380" lon="8.3084850">
        <ele>390.6</ele>
        <time>2022-06-02T07:24:15Z</time>
      </trkpt>
      <trkpt lat="47.4586080" lon="8.3083640">
        <ele>391.6</ele>
        <time>2022-06-02T07:24:19Z</time>
      </trkpt>
      <trkpt lat="47.4586550" lon="8.3082810">
        <ele>392.2</ele>
        <time>2022-06-02T07:24:22Z</time>
      </trkpt>
      <trkpt lat="47.4587000" lon="8.3082050">
        <ele>392.8</ele>
        <time>2022-06-02T07:24:25Z</time>
      </trkpt>
      <trkpt lat="47.4587400" lon="8.3081070">
        <ele>393.8</ele>
        <time>2022-06-02T07:24:29Z</time>
      </trkpt>
      <trkpt lat="47.4587430" lon="8.3080750">
        <ele>394.2</ele>
        <time>2022-06-02T07:24:30Z</time>
      </trkpt>
      <trkpt lat="47.4587740" lon="8.3080010">
        <ele>395.2</ele>
        <time>2022-06-02T07:24:33Z</time>
      </trkpt>
      <trkpt lat="47.4588110" lon="8.3079030">
        <ele>395.6</ele>
        <time>2022-06-02T07:24:37Z</time>
      </trkpt>
      <trkpt lat="47.4588280" lon="8.3077990">
        <ele>396.2</ele>
        <time>2022-06-02T07:24:40Z</time>
      </trkpt>
      <trkpt lat="47.4588670" lon="8.3075250">
        <ele>397.0</ele>
        <time>2022-06-02T07:24:48Z</time>
      </trkpt>
      <trkpt lat="47.4588660" lon="8.3074940">
        <ele>397.2</ele>
        <time>2022-06-02T07:24:49Z</time>
      </trkpt>
      <trkpt lat="47.4588590" lon="8.3074720">
        <ele>397.2</ele>
        <time>2022-06-02T07:24:50Z</time>
      </trkpt>
      <trkpt lat="47.4588400" lon="8.3074260">
        <ele>397.4</ele>
        <time>2022-06-02T07:24:52Z</time>
      </trkpt>
      <trkpt lat="47.4588810" lon="8.3072440">
        <ele>398.0</ele>
        <time>2022-06-02T07:24:57Z</time>
      </trkpt>
      <trkpt lat="47.4589500" lon="8.3071330">
        <ele>398.4</ele>
        <time>2022-06-02T07:25:00Z</time>
      </trkpt>
      <trkpt lat="47.4589930" lon="8.3070460">
        <ele>398.2</ele>
        <time>2022-06-02T07:25:03Z</time>
      </trkpt>
      <trkpt lat="47.4590270" lon="8.3070230">
        <ele>398.4</ele>
        <time>2022-06-02T07:25:07Z</time>
      </trkpt>
      <trkpt lat="47.4591880" lon="8.3069760">
        <ele>398.4</ele>
        <time>2022-06-02T07:25:12Z</time>
      </trkpt>
      <trkpt lat="47.4594020" lon="8.3069070">
        <ele>398.0</ele>
        <time>2022-06-02T07:25:18Z</time>
      </trkpt>
      <trkpt lat="47.4595910" lon="8.3068580">
        <ele>397.8</ele>
        <time>2022-06-02T07:25:22Z</time>
      </trkpt>
      <trkpt lat="47.4596510" lon="8.3068520">
        <ele>397.8</ele>
        <time>2022-06-02T07:25:23Z</time>
      </trkpt>
      <trkpt lat="47.4598310" lon="8.3068400">
        <ele>397.6</ele>
        <time>2022-06-02T07:25:26Z</time>
      </trkpt>
      <trkpt lat="47.4600110" lon="8.3068090">
        <ele>397.2</ele>
        <time>2022-06-02T07:25:28Z</time>
      </trkpt>
      <trkpt lat="47.4601540" lon="8.3068050">
        <ele>396.8</ele>
        <time>2022-06-02T07:25:30Z</time>
      </trkpt>
      <trkpt lat="47.4604510" lon="8.3068240">
        <ele>395.8</ele>
        <time>2022-06-02T07:25:34Z</time>
      </trkpt>
      <trkpt lat="47.4605730" lon="8.3068220">
        <ele>395.6</ele>
        <time>2022-06-02T07:25:36Z</time>
      </trkpt>
      <trkpt lat="47.4607770" lon="8.3069020">
        <ele>395.4</ele>
        <time>2022-06-02T07:25:39Z</time>
      </trkpt>
      <trkpt lat="47.4609120" lon="8.3069210">
        <ele>395.2</ele>
        <time>2022-06-02T07:25:42Z</time>
      </trkpt>
      <trkpt lat="47.4609440" lon="8.3069360">
        <ele>395.2</ele>
        <time>2022-06-02T07:25:43Z</time>
      </trkpt>
      <trkpt lat="47.4609840" lon="8.3069420">
        <ele>395.2</ele>
        <time>2022-06-02T07:25:44Z</time>
      </trkpt>
      <trkpt lat="47.4610680" lon="8.3069740">
        <ele>395.0</ele>
        <time>2022-06-02T07:25:46Z</time>
      </trkpt>
      <trkpt lat="47.4613050" lon="8.3070470">
        <ele>395.2</ele>
        <time>2022-06-02T07:25:51Z</time>
      </trkpt>
      <trkpt lat="47.4615530" lon="8.3070490">
        <ele>395.4</ele>
        <time>2022-06-02T07:25:57Z</time>
      </trkpt>
      <trkpt lat="47.4618670" lon="8.3070180">
        <ele>396.4</ele>
        <time>2022-06-02T07:26:05Z</time>
      </trkpt>
      <trkpt lat="47.4620420" lon="8.3069980">
        <ele>397.0</ele>
        <time>2022-06-02T07:26:10Z</time>
      </trkpt>
      <trkpt lat="47.4621190" lon="8.3069810">
        <ele>397.2</ele>
        <time>2022-06-02T07:26:12Z</time>
      </trkpt>
      <trkpt lat="47.4624550" lon="8.3068870">
        <ele>398.0</ele>
        <time>2022-06-02T07:26:21Z</time>
      </trkpt>
      <trkpt lat="47.4624910" lon="8.3068680">
        <ele>398.0</ele>
        <time>2022-06-02T07:26:22Z</time>
      </trkpt>
      <trkpt lat="47.4627610" lon="8.3066510">
        <ele>399.0</ele>
        <time>2022-06-02T07:26:30Z</time>
      </trkpt>
      <trkpt lat="47.4629580" lon="8.3063970">
        <ele>399.4</ele>
        <time>2022-06-02T07:26:36Z</time>
      </trkpt>
      <trkpt lat="47.4629950" lon="8.3063430">
        <ele>399.4</ele>
        <time>2022-06-02T07:26:37Z</time>
      </trkpt>
      <trkpt lat="47.4630370" lon="8.3062930">
        <ele>399.2</ele>
        <time>2022-06-02T07:26:38Z</time>
      </trkpt>
      <trkpt lat="47.4632330" lon="8.3060690">
        <ele>399.2</ele>
        <time>2022-06-02T07:26:43Z</time>
      </trkpt>
      <trkpt lat="47.4633040" lon="8.3059330">
        <ele>398.8</ele>
        <time>2022-06-02T07:26:46Z</time>
      </trkpt>
      <trkpt lat="47.4633150" lon="8.3058900">
        <ele>398.6</ele>
        <time>2022-06-02T07:26:47Z</time>
      </trkpt>
      <trkpt lat="47.4633540" lon="8.3058210">
        <ele>398.2</ele>
        <time>2022-06-02T07:26:51Z</time>
      </trkpt>
      <trkpt lat="47.4633760" lon="8.3058100">
        <ele>398.2</ele>
        <time>2022-06-02T07:26:57Z</time>
      </trkpt>
      <trkpt lat="47.4634590" lon="8.3057570">
        <ele>398.6</ele>
        <time>2022-06-02T07:27:02Z</time>
      </trkpt>
      <trkpt lat="47.4634680" lon="8.3057400">
        <ele>398.6</ele>
        <time>2022-06-02T07:27:03Z</time>
      </trkpt>
      <trkpt lat="47.4634800" lon="8.3057210">
        <ele>398.8</ele>
        <time>2022-06-02T07:27:04Z</time>
      </trkpt>
      <trkpt lat="47.4635610" lon="8.3056480">
        <ele>399.6</ele>
        <time>2022-06-02T07:27:08Z</time>
      </trkpt>
      <trkpt lat="47.4635990" lon="8.3056070">
        <ele>399.8</ele>
        <time>2022-06-02T07:27:10Z</time>
      </trkpt>
      <trkpt lat="47.4636520" lon="8.3055560">
        <ele>400.0</ele>
        <time>2022-06-02T07:27:13Z</time>
      </trkpt>
      <trkpt lat="47.4637370" lon="8.3055110">
        <ele>400.6</ele>
        <time>2022-06-02T07:27:18Z</time>
      </trkpt>
      <trkpt lat="47.4637580" lon="8.3055030">
        <ele>400.8</ele>
        <time>2022-06-02T07:27:19Z</time>
      </trkpt>
      <trkpt lat="47.4637760" lon="8.3054990">
        <ele>401.0</ele>
        <time>2022-06-02T07:27:20Z</time>
      </trkpt>
      <trkpt lat="47.4638850" lon="8.3055080">
        <ele>401.4</ele>
        <time>2022-06-02T07:27:24Z</time>
      </trkpt>
      <trkpt lat="47.4640230" lon="8.3054380">
        <ele>401.8</ele>
        <time>2022-06-02T07:27:29Z</time>
      </trkpt>
      <trkpt lat="47.4641790" lon="8.3053630">
        <ele>402.0</ele>
        <time>2022-06-02T07:27:35Z</time>
      </trkpt>
      <trkpt lat="47.4642330" lon="8.3053280">
        <ele>402.2</ele>
        <time>2022-06-02T07:27:37Z</time>
      </trkpt>
      <trkpt lat="47.4644300" lon="8.3051640">
        <ele>403.0</ele>
        <time>2022-06-02T07:27:45Z</time>
      </trkpt>
      <trkpt lat="47.4644510" lon="8.3051510">
        <ele>403.0</ele>
        <time>2022-06-02T07:27:46Z</time>
      </trkpt>
      <trkpt lat="47.4645150" lon="8.3051090">
        <ele>403.6</ele>
        <time>2022-06-02T07:27:49Z</time>
      </trkpt>
      <trkpt lat="47.4645690" lon="8.3050450">
        <ele>404.0</ele>
        <time>2022-06-02T07:27:52Z</time>
      </trkpt>
      <trkpt lat="47.4645840" lon="8.3050260">
        <ele>404.2</ele>
        <time>2022-06-02T07:27:53Z</time>
      </trkpt>
      <trkpt lat="47.4646660" lon="8.3049910">
        <ele>405.0</ele>
        <time>2022-06-02T07:27:57Z</time>
      </trkpt>
      <trkpt lat="47.4646940" lon="8.3049600">
        <ele>405.4</ele>
        <time>2022-06-02T07:27:59Z</time>
      </trkpt>
      <trkpt lat="47.4648000" lon="8.3048660">
        <ele>406.4</ele>
        <time>2022-06-02T07:28:05Z</time>
      </trkpt>
      <trkpt lat="47.4648200" lon="8.3048510">
        <ele>406.8</ele>
        <time>2022-06-02T07:28:06Z</time>
      </trkpt>
      <trkpt lat="47.4648540" lon="8.3048090">
        <ele>407.6</ele>
        <time>2022-06-02T07:28:08Z</time>
      </trkpt>
      <trkpt lat="47.4649290" lon="8.3047280">
        <ele>408.4</ele>
        <time>2022-06-02T07:28:12Z</time>
      </trkpt>
      <trkpt lat="47.4649450" lon="8.3047100">
        <ele>408.8</ele>
        <time>2022-06-02T07:28:13Z</time>
      </trkpt>
      <trkpt lat="47.4649850" lon="8.3046840">
        <ele>409.2</ele>
        <time>2022-06-02T07:28:15Z</time>
      </trkpt>
      <trkpt lat="47.4650310" lon="8.3046860">
        <ele>409.6</ele>
        <time>2022-06-02T07:28:17Z</time>
      </trkpt>
      <trkpt lat="47.4650490" lon="8.3046850">
        <ele>409.8</ele>
        <time>2022-06-02T07:28:18Z</time>
      </trkpt>
      <trkpt lat="47.4652370" lon="8.3046550">
        <ele>410.2</ele>
        <time>2022-06-02T07:28:24Z</time>
      </trkpt>
      <trkpt lat="47.4653560" lon="8.3046760">
        <ele>410.2</ele>
        <time>2022-06-02T07:28:28Z</time>
      </trkpt>
      <trkpt lat="47.4653590" lon="8.3046890">
        <ele>410.0</ele>
        <time>2022-06-02T07:28:29Z</time>
      </trkpt>
      <trkpt lat="47.4653700" lon="8.3047440">
        <ele>409.2</ele>
        <time>2022-06-02T07:28:33Z</time>
      </trkpt>
      <trkpt lat="47.4653660" lon="8.3047870">
        <ele>409.0</ele>
        <time>2022-06-02T07:28:34Z</time>
      </trkpt>
      <trkpt lat="47.4653580" lon="8.3049880">
        <ele>408.4</ele>
        <time>2022-06-02T07:28:38Z</time>
      </trkpt>
      <trkpt lat="47.4653730" lon="8.3050360">
        <ele>407.8</ele>
        <time>2022-06-02T07:28:40Z</time>
      </trkpt>
      <trkpt lat="47.4653770" lon="8.3050620">
        <ele>407.4</ele>
        <time>2022-06-02T07:28:41Z</time>
      </trkpt>
      <trkpt lat="47.4653780" lon="8.3050760">
        <ele>406.8</ele>
        <time>2022-06-02T07:28:42Z</time>
      </trkpt>
      <trkpt lat="47.4653780" lon="8.3051090">
        <ele>406.2</ele>
        <time>2022-06-02T07:28:44Z</time>
      </trkpt>
      <trkpt lat="47.4653800" lon="8.3051140">
        <ele>405.4</ele>
        <time>2022-06-02T07:28:45Z</time>
      </trkpt>
      <trkpt lat="47.4653800" lon="8.3051140">
        <ele>404.8</ele>
        <time>2022-06-02T07:28:47Z</time>
      </trkpt>
      <trkpt lat="47.4653660" lon="8.3050210">
        <ele>404.4</ele>
        <time>2022-06-02T07:29:08Z</time>
      </trkpt>
      <trkpt lat="47.4653630" lon="8.3049930">
        <ele>404.4</ele>
        <time>2022-06-02T07:29:09Z</time>
      </trkpt>
      <trkpt lat="47.4653610" lon="8.3049530">
        <ele>404.4</ele>
        <time>2022-06-02T07:29:11Z</time>
      </trkpt>
      <trkpt lat="47.4653780" lon="8.3048660">
        <ele>404.6</ele>
        <time>2022-06-02T07:29:14Z</time>
      </trkpt>
      <trkpt lat="47.4654070" lon="8.3047140">
        <ele>405.8</ele>
        <time>2022-06-02T07:29:21Z</time>
      </trkpt>
      <trkpt lat="47.4654090" lon="8.3047110">
        <ele>406.0</ele>
        <time>2022-06-02T07:29:22Z</time>
      </trkpt>
      <trkpt lat="47.4654140" lon="8.3047150">
        <ele>406.8</ele>
        <time>2022-06-02T07:29:25Z</time>
      </trkpt>
      <trkpt lat="47.4654080" lon="8.3048020">
        <ele>407.8</ele>
        <time>2022-06-02T07:31:24Z</time>
      </trkpt>
      <trkpt lat="47.4654070" lon="8.3048310">
        <ele>407.8</ele>
        <time>2022-06-02T07:31:25Z</time>
      </trkpt>
      <trkpt lat="47.4654020" lon="8.3048660">
        <ele>407.6</ele>
        <time>2022-06-02T07:31:26Z</time>
      </trkpt>
      <trkpt lat="47.4654000" lon="8.3050010">
        <ele>406.8</ele>
        <time>2022-06-02T07:31:29Z</time>
      </trkpt>
      <trkpt lat="47.4653990" lon="8.3050370">
        <ele>406.4</ele>
        <time>2022-06-02T07:31:30Z</time>
      </trkpt>
      <trkpt lat="47.4654080" lon="8.3052320">
        <ele>405.0</ele>
        <time>2022-06-02T07:31:34Z</time>
      </trkpt>
      <trkpt lat="47.4654080" lon="8.3054260">
        <ele>403.8</ele>
        <time>2022-06-02T07:31:38Z</time>
      </trkpt>
      <trkpt lat="47.4654080" lon="8.3056090">
        <ele>402.2</ele>
        <time>2022-06-02T07:31:41Z</time>
      </trkpt>
      <trkpt lat="47.4654220" lon="8.3056640">
        <ele>401.8</ele>
        <time>2022-06-02T07:31:42Z</time>
      </trkpt>
      <trkpt lat="47.4654470" lon="8.3057120">
        <ele>401.2</ele>
        <time>2022-06-02T07:31:43Z</time>
      </trkpt>
      <trkpt lat="47.4654870" lon="8.3057550">
        <ele>400.8</ele>
        <time>2022-06-02T07:31:44Z</time>
      </trkpt>
      <trkpt lat="47.4655360" lon="8.3057940">
        <ele>400.0</ele>
        <time>2022-06-02T07:31:45Z</time>
      </trkpt>
      <trkpt lat="47.4656440" lon="8.3058590">
        <ele>398.6</ele>
        <time>2022-06-02T07:31:47Z</time>
      </trkpt>
      <trkpt lat="47.4657330" lon="8.3059250">
        <ele>397.2</ele>
        <time>2022-06-02T07:31:49Z</time>
      </trkpt>
      <trkpt lat="47.4657860" lon="8.3059720">
        <ele>396.2</ele>
        <time>2022-06-02T07:31:50Z</time>
      </trkpt>
      <trkpt lat="47.4658600" lon="8.3060410">
        <ele>395.0</ele>
        <time>2022-06-02T07:31:52Z</time>
      </trkpt>
      <trkpt lat="47.4658990" lon="8.3060570">
        <ele>394.6</ele>
        <time>2022-06-02T07:31:53Z</time>
      </trkpt>
      <trkpt lat="47.4659480" lon="8.3060630">
        <ele>393.8</ele>
        <time>2022-06-02T07:31:54Z</time>
      </trkpt>
      <trkpt lat="47.4660040" lon="8.3060620">
        <ele>393.2</ele>
        <time>2022-06-02T07:31:55Z</time>
      </trkpt>
      <trkpt lat="47.4660390" lon="8.3060720">
        <ele>392.4</ele>
        <time>2022-06-02T07:31:56Z</time>
      </trkpt>
      <trkpt lat="47.4662190" lon="8.3061250">
        <ele>391.4</ele>
        <time>2022-06-02T07:32:00Z</time>
      </trkpt>
      <trkpt lat="47.4663070" lon="8.3061420">
        <ele>391.0</ele>
        <time>2022-06-02T07:32:02Z</time>
      </trkpt>
      <trkpt lat="47.4667250" lon="8.3062290">
        <ele>390.6</ele>
        <time>2022-06-02T07:32:11Z</time>
      </trkpt>
      <trkpt lat="47.4669630" lon="8.3063370">
        <ele>390.2</ele>
        <time>2022-06-02T07:32:15Z</time>
      </trkpt>
      <trkpt lat="47.4670200" lon="8.3063680">
        <ele>390.2</ele>
        <time>2022-06-02T07:32:16Z</time>
      </trkpt>
      <trkpt lat="47.4674230" lon="8.3065270">
        <ele>389.2</ele>
        <time>2022-06-02T07:32:22Z</time>
      </trkpt>
      <trkpt lat="47.4676810" lon="8.3066030">
        <ele>388.4</ele>
        <time>2022-06-02T07:32:26Z</time>
      </trkpt>
      <trkpt lat="47.4678190" lon="8.3066030">
        <ele>387.8</ele>
        <time>2022-06-02T07:32:28Z</time>
      </trkpt>
      <trkpt lat="47.4680920" lon="8.3065560">
        <ele>386.6</ele>
        <time>2022-06-02T07:32:33Z</time>
      </trkpt>
      <trkpt lat="47.4683690" lon="8.3064450">
        <ele>386.4</ele>
        <time>2022-06-02T07:32:39Z</time>
      </trkpt>
      <trkpt lat="47.4684080" lon="8.3064340">
        <ele>386.4</ele>
        <time>2022-06-02T07:32:40Z</time>
      </trkpt>
      <trkpt lat="47.4687380" lon="8.3063260">
        <ele>386.8</ele>
        <time>2022-06-02T07:32:48Z</time>
      </trkpt>
      <trkpt lat="47.4688270" lon="8.3062770">
        <ele>386.8</ele>
        <time>2022-06-02T07:32:50Z</time>
      </trkpt>
      <trkpt lat="47.4690490" lon="8.3061840">
        <ele>386.8</ele>
        <time>2022-06-02T07:32:55Z</time>
      </trkpt>
      <trkpt lat="47.4692690" lon="8.3060980">
        <ele>386.6</ele>
        <time>2022-06-02T07:33:00Z</time>
      </trkpt>
      <trkpt lat="47.4693030" lon="8.3060650">
        <ele>386.6</ele>
        <time>2022-06-02T07:33:01Z</time>
      </trkpt>
      <trkpt lat="47.4693500" lon="8.3060190">
        <ele>386.4</ele>
        <time>2022-06-02T07:33:02Z</time>
      </trkpt>
      <trkpt lat="47.4693950" lon="8.3059270">
        <ele>386.4</ele>
        <time>2022-06-02T07:33:04Z</time>
      </trkpt>
      <trkpt lat="47.4694050" lon="8.3058130">
        <ele>386.4</ele>
        <time>2022-06-02T07:33:07Z</time>
      </trkpt>
      <trkpt lat="47.4694900" lon="8.3055460">
        <ele>387.0</ele>
        <time>2022-06-02T07:33:13Z</time>
      </trkpt>
      <trkpt lat="47.4695380" lon="8.3054150">
        <ele>387.8</ele>
        <time>2022-06-02T07:33:16Z</time>
      </trkpt>
      <trkpt lat="47.4695600" lon="8.3052990">
        <ele>388.0</ele>
        <time>2022-06-02T07:33:18Z</time>
      </trkpt>
      <trkpt lat="47.4695990" lon="8.3051980">
        <ele>388.6</ele>
        <time>2022-06-02T07:33:20Z</time>
      </trkpt>
      <trkpt lat="47.4696180" lon="8.3051570">
        <ele>388.8</ele>
        <time>2022-06-02T07:33:21Z</time>
      </trkpt>
      <trkpt lat="47.4696260" lon="8.3051270">
        <ele>389.2</ele>
        <time>2022-06-02T07:33:22Z</time>
      </trkpt>
      <trkpt lat="47.4696390" lon="8.3050270">
        <ele>389.8</ele>
        <time>2022-06-02T07:33:24Z</time>
      </trkpt>
      <trkpt lat="47.4696990" lon="8.3048890">
        <ele>391.0</ele>
        <time>2022-06-02T07:33:27Z</time>
      </trkpt>
      <trkpt lat="47.4697160" lon="8.3048480">
        <ele>391.0</ele>
        <time>2022-06-02T07:33:28Z</time>
      </trkpt>
      <trkpt lat="47.4698130" lon="8.3046830">
        <ele>392.0</ele>
        <time>2022-06-02T07:33:33Z</time>
      </trkpt>
      <trkpt lat="47.4699740" lon="8.3046620">
        <ele>392.6</ele>
        <time>2022-06-02T07:33:38Z</time>
      </trkpt>
      <trkpt lat="47.4701680" lon="8.3048070">
        <ele>392.6</ele>
        <time>2022-06-02T07:33:43Z</time>
      </trkpt>
      <trkpt lat="47.4702180" lon="8.3048270">
        <ele>392.6</ele>
        <time>2022-06-02T07:33:44Z</time>
      </trkpt>
      <trkpt lat="47.4703730" lon="8.3048760">
        <ele>392.2</ele>
        <time>2022-06-02T07:33:47Z</time>
      </trkpt>
      <trkpt lat="47.4706150" lon="8.3049200">
        <ele>391.0</ele>
        <time>2022-06-02T07:33:52Z</time>
      </trkpt>
      <trkpt lat="47.4706660" lon="8.3049240">
        <ele>391.0</ele>
        <time>2022-06-02T07:33:53Z</time>
      </trkpt>
      <trkpt lat="47.4707770" lon="8.3049360">
        <ele>389.8</ele>
        <time>2022-06-02T07:33:56Z</time>
      </trkpt>
      <trkpt lat="47.4708250" lon="8.3049180">
        <ele>389.2</ele>
        <time>2022-06-02T07:33:58Z</time>
      </trkpt>
      <trkpt lat="47.4708580" lon="8.3049070">
        <ele>388.6</ele>
        <time>2022-06-02T07:34:00Z</time>
      </trkpt>
      <trkpt lat="47.4708640" lon="8.3049040">
        <ele>388.2</ele>
        <time>2022-06-02T07:34:03Z</time>
      </trkpt>
      <trkpt lat="47.4708800" lon="8.3049540">
        <ele>387.8</ele>
        <time>2022-06-02T07:34:10Z</time>
      </trkpt>
      <trkpt lat="47.4709050" lon="8.3050160">
        <ele>387.6</ele>
        <time>2022-06-02T07:34:12Z</time>
      </trkpt>
      <trkpt lat="47.4709840" lon="8.3052320">
        <ele>387.2</ele>
        <time>2022-06-02T07:34:17Z</time>
      </trkpt>
      <trkpt lat="47.4710160" lon="8.3053840">
        <ele>386.8</ele>
        <time>2022-06-02T07:34:20Z</time>
      </trkpt>
      <trkpt lat="47.4710530" lon="8.3055340">
        <ele>386.6</ele>
        <time>2022-06-02T07:34:22Z</time>
      </trkpt>
      <trkpt lat="47.4711190" lon="8.3057030">
        <ele>386.2</ele>
        <time>2022-06-02T07:34:25Z</time>
      </trkpt>
      <trkpt lat="47.4711590" lon="8.3057780">
        <ele>386.0</ele>
        <time>2022-06-02T07:34:27Z</time>
      </trkpt>
      <trkpt lat="47.4712500" lon="8.3058930">
        <ele>385.4</ele>
        <time>2022-06-02T07:34:31Z</time>
      </trkpt>
      <trkpt lat="47.4713070" lon="8.3060060">
        <ele>385.0</ele>
        <time>2022-06-02T07:34:34Z</time>
      </trkpt>
      <trkpt lat="47.4713670" lon="8.3061060">
        <ele>384.6</ele>
        <time>2022-06-02T07:34:38Z</time>
      </trkpt>
      <trkpt lat="47.4713970" lon="8.3061510">
        <ele>384.0</ele>
        <time>2022-06-02T07:34:43Z</time>
      </trkpt>
      <trkpt lat="47.4713970" lon="8.3061510">
        <ele>384.0</ele>
        <time>2022-06-02T07:34:44Z</time>
      </trkpt>
      <trkpt lat="47.4714150" lon="8.3061980">
        <ele>383.6</ele>
        <time>2022-06-02T07:34:50Z</time>
      </trkpt>
      <trkpt lat="47.4714400" lon="8.3062580">
        <ele>383.6</ele>
        <time>2022-06-02T07:34:52Z</time>
      </trkpt>
      <trkpt lat="47.4715160" lon="8.3064290">
        <ele>383.2</ele>
        <time>2022-06-02T07:34:56Z</time>
      </trkpt>
      <trkpt lat="47.4715530" lon="8.3064710">
        <ele>383.2</ele>
        <time>2022-06-02T07:34:57Z</time>
      </trkpt>
      <trkpt lat="47.4716360" lon="8.3064850">
        <ele>383.0</ele>
        <time>2022-06-02T07:34:59Z</time>
      </trkpt>
      <trkpt lat="47.4718670" lon="8.3064510">
        <ele>382.8</ele>
        <time>2022-06-02T07:35:05Z</time>
      </trkpt>
      <trkpt lat="47.4720470" lon="8.3064350">
        <ele>383.0</ele>
        <time>2022-06-02T07:35:10Z</time>
      </trkpt>
      <trkpt lat="47.4722070" lon="8.3063930">
        <ele>383.2</ele>
        <time>2022-06-02T07:35:15Z</time>
      </trkpt>
      <trkpt lat="47.4723460" lon="8.3062800">
        <ele>383.6</ele>
        <time>2022-06-02T07:35:19Z</time>
      </trkpt>
      <trkpt lat="47.4724440" lon="8.3062020">
        <ele>384.0</ele>
        <time>2022-06-02T07:35:22Z</time>
      </trkpt>
      <trkpt lat="47.4725120" lon="8.3062710">
        <ele>384.2</ele>
        <time>2022-06-02T07:35:24Z</time>
      </trkpt>
      <trkpt lat="47.4726870" lon="8.3062990">
        <ele>385.2</ele>
        <time>2022-06-02T07:35:28Z</time>
      </trkpt>
      <trkpt lat="47.4727110" lon="8.3062890">
        <ele>385.4</ele>
        <time>2022-06-02T07:35:29Z</time>
      </trkpt>
      <trkpt lat="47.4727060" lon="8.3062750">
        <ele>385.8</ele>
        <time>2022-06-02T07:35:31Z</time>
      </trkpt>
      <trkpt lat="47.4727190" lon="8.3061860">
        <ele>386.0</ele>
        <time>2022-06-02T07:35:34Z</time>
      </trkpt>
      <trkpt lat="47.4727330" lon="8.3061670">
        <ele>386.2</ele>
        <time>2022-06-02T07:35:35Z</time>
      </trkpt>
      <trkpt lat="47.4727500" lon="8.3061560">
        <ele>386.6</ele>
        <time>2022-06-02T07:35:37Z</time>
      </trkpt>
      <trkpt lat="47.4727630" lon="8.3061530">
        <ele>386.6</ele>
        <time>2022-06-02T07:35:38Z</time>
      </trkpt>
      <trkpt lat="47.4727840" lon="8.3061370">
        <ele>386.8</ele>
        <time>2022-06-02T07:35:39Z</time>
      </trkpt>
      <trkpt lat="47.4728160" lon="8.3061310">
        <ele>387.2</ele>
        <time>2022-06-02T07:35:41Z</time>
      </trkpt>
      <trkpt lat="47.4728130" lon="8.3061550">
        <ele>387.4</ele>
        <time>2022-06-02T07:35:42Z</time>
      </trkpt>
      <trkpt lat="47.4729600" lon="8.3064730">
        <ele>387.8</ele>
        <time>2022-06-02T07:35:45Z</time>
      </trkpt>
      <trkpt lat="47.4732050" lon="8.3064860">
        <ele>388.4</ele>
        <time>2022-06-02T07:35:46Z</time>
      </trkpt>
      <trkpt lat="47.4736950" lon="8.3065120">
        <ele>389.0</ele>
        <time>2022-06-02T07:35:48Z</time>
      </trkpt>
      <trkpt lat="47.4739400" lon="8.3065260">
        <ele>389.2</ele>
        <time>2022-06-02T07:35:49Z</time>
      </trkpt>
      <trkpt lat="47.4738770" lon="8.3064950">
        <ele>389.4</ele>
        <time>2022-06-02T07:35:50Z</time>
      </trkpt>
      <trkpt lat="47.4738910" lon="8.3065040">
        <ele>389.6</ele>
        <time>2022-06-02T07:35:54Z</time>
      </trkpt>
      <trkpt lat="47.4740700" lon="8.3064490">
        <ele>389.8</ele>
        <time>2022-06-02T07:35:59Z</time>
      </trkpt>
      <trkpt lat="47.4741290" lon="8.3064200">
        <ele>389.8</ele>
        <time>2022-06-02T07:36:01Z</time>
      </trkpt>
      <trkpt lat="47.4745090" lon="8.3061300">
        <ele>389.8</ele>
        <time>2022-06-02T07:36:12Z</time>
      </trkpt>
      <trkpt lat="47.4745490" lon="8.3060950">
        <ele>389.6</ele>
        <time>2022-06-02T07:36:13Z</time>
      </trkpt>
      <trkpt lat="47.4746590" lon="8.3059560">
        <ele>389.4</ele>
        <time>2022-06-02T07:36:16Z</time>
      </trkpt>
      <trkpt lat="47.4747060" lon="8.3059050">
        <ele>389.2</ele>
        <time>2022-06-02T07:36:17Z</time>
      </trkpt>
      <trkpt lat="47.4750630" lon="8.3055110">
        <ele>389.0</ele>
        <time>2022-06-02T07:36:24Z</time>
      </trkpt>
      <trkpt lat="47.4753380" lon="8.3052410">
        <ele>388.4</ele>
        <time>2022-06-02T07:36:29Z</time>
      </trkpt>
      <trkpt lat="47.4754490" lon="8.3051720">
        <ele>387.6</ele>
        <time>2022-06-02T07:36:31Z</time>
      </trkpt>
      <trkpt lat="47.4755240" lon="8.3052140">
        <ele>387.4</ele>
        <time>2022-06-02T07:36:33Z</time>
      </trkpt>
      <trkpt lat="47.4755590" lon="8.3052680">
        <ele>387.2</ele>
        <time>2022-06-02T07:36:34Z</time>
      </trkpt>
      <trkpt lat="47.4757000" lon="8.3055210">
        <ele>386.8</ele>
        <time>2022-06-02T07:36:38Z</time>
      </trkpt>
      <trkpt lat="47.4757350" lon="8.3055650">
        <ele>386.6</ele>
        <time>2022-06-02T07:36:39Z</time>
      </trkpt>
      <trkpt lat="47.4757680" lon="8.3055750">
        <ele>386.4</ele>
        <time>2022-06-02T07:36:40Z</time>
      </trkpt>
      <trkpt lat="47.4758210" lon="8.3055300">
        <ele>386.4</ele>
        <time>2022-06-02T07:36:42Z</time>
      </trkpt>
      <trkpt lat="47.4759640" lon="8.3054460">
        <ele>386.2</ele>
        <time>2022-06-02T07:36:45Z</time>
      </trkpt>
      <trkpt lat="47.4761410" lon="8.3053710">
        <ele>386.2</ele>
        <time>2022-06-02T07:36:48Z</time>
      </trkpt>
      <trkpt lat="47.4762220" lon="8.3052940">
        <ele>386.2</ele>
        <time>2022-06-02T07:36:50Z</time>
      </trkpt>
      <trkpt lat="47.4763410" lon="8.3051730">
        <ele>386.0</ele>
        <time>2022-06-02T07:36:53Z</time>
      </trkpt>
      <trkpt lat="47.4764730" lon="8.3050310">
        <ele>386.0</ele>
        <time>2022-06-02T07:36:56Z</time>
      </trkpt>
      <trkpt lat="47.4766630" lon="8.3049660">
        <ele>386.2</ele>
        <time>2022-06-02T07:37:00Z</time>
      </trkpt>
      <trkpt lat="47.4767450" lon="8.3048940">
        <ele>386.4</ele>
        <time>2022-06-02T07:37:02Z</time>
      </trkpt>
      <trkpt lat="47.4768210" lon="8.3048170">
        <ele>386.4</ele>
        <time>2022-06-02T07:37:04Z</time>
      </trkpt>
      <trkpt lat="47.4769010" lon="8.3047480">
        <ele>386.4</ele>
        <time>2022-06-02T07:37:06Z</time>
      </trkpt>
      <trkpt lat="47.4769370" lon="8.3047020">
        <ele>386.4</ele>
        <time>2022-06-02T07:37:07Z</time>
      </trkpt>
      <trkpt lat="47.4770910" lon="8.3045360">
        <ele>386.2</ele>
        <time>2022-06-02T07:37:11Z</time>
      </trkpt>
      <trkpt lat="47.4771210" lon="8.3044970">
        <ele>386.2</ele>
        <time>2022-06-02T07:37:12Z</time>
      </trkpt>
      <trkpt lat="47.4772330" lon="8.3044010">
        <ele>385.8</ele>
        <time>2022-06-02T07:37:16Z</time>
      </trkpt>
      <trkpt lat="47.4772760" lon="8.3043700">
        <ele>385.8</ele>
        <time>2022-06-02T07:37:20Z</time>
      </trkpt>
      <trkpt lat="47.4772790" lon="8.3043730">
        <ele>385.8</ele>
        <time>2022-06-02T07:37:23Z</time>
      </trkpt>
      <trkpt lat="47.4772990" lon="8.3043290">
        <ele>386.0</ele>
        <time>2022-06-02T07:38:07Z</time>
      </trkpt>
      <trkpt lat="47.4774870" lon="8.3042680">
        <ele>386.0</ele>
        <time>2022-06-02T07:38:12Z</time>
      </trkpt>
      <trkpt lat="47.4777180" lon="8.3042050">
        <ele>385.6</ele>
        <time>2022-06-02T07:38:18Z</time>
      </trkpt>
      <trkpt lat="47.4778840" lon="8.3040890">
        <ele>385.2</ele>
        <time>2022-06-02T07:38:23Z</time>
      </trkpt>
      <trkpt lat="47.4779160" lon="8.3040600">
        <ele>385.2</ele>
        <time>2022-06-02T07:38:24Z</time>
      </trkpt>
      <trkpt lat="47.4779850" lon="8.3039820">
        <ele>385.0</ele>
        <time>2022-06-02T07:38:26Z</time>
      </trkpt>
      <trkpt lat="47.4780440" lon="8.3039210">
        <ele>385.0</ele>
        <time>2022-06-02T07:38:28Z</time>
      </trkpt>
      <trkpt lat="47.4780780" lon="8.3038830">
        <ele>384.8</ele>
        <time>2022-06-02T07:38:29Z</time>
      </trkpt>
      <trkpt lat="47.4781600" lon="8.3037990">
        <ele>384.8</ele>
        <time>2022-06-02T07:38:31Z</time>
      </trkpt>
      <trkpt lat="47.4781970" lon="8.3037870">
        <ele>384.8</ele>
        <time>2022-06-02T07:38:32Z</time>
      </trkpt>
      <trkpt lat="47.4785440" lon="8.3034830">
        <ele>384.4</ele>
        <time>2022-06-02T07:38:41Z</time>
      </trkpt>
      <trkpt lat="47.4788070" lon="8.3032440">
        <ele>384.4</ele>
        <time>2022-06-02T07:38:47Z</time>
      </trkpt>
      <trkpt lat="47.4788170" lon="8.3032390">
        <ele>384.4</ele>
        <time>2022-06-02T07:38:48Z</time>
      </trkpt>
      <trkpt lat="47.4788520" lon="8.3032570">
        <ele>384.6</ele>
        <time>2022-06-02T07:38:51Z</time>
      </trkpt>
      <trkpt lat="47.4788600" lon="8.3032510">
        <ele>384.6</ele>
        <time>2022-06-02T07:38:56Z</time>
      </trkpt>
      <trkpt lat="47.4789130" lon="8.3032120">
        <ele>384.0</ele>
        <time>2022-06-02T07:39:22Z</time>
      </trkpt>
      <trkpt lat="47.4791640" lon="8.3029940">
        <ele>383.8</ele>
        <time>2022-06-02T07:39:27Z</time>
      </trkpt>
      <trkpt lat="47.4795500" lon="8.3027080">
        <ele>383.6</ele>
        <time>2022-06-02T07:39:33Z</time>
      </trkpt>
      <trkpt lat="47.4797190" lon="8.3025930">
        <ele>383.6</ele>
        <time>2022-06-02T07:39:36Z</time>
      </trkpt>
      <trkpt lat="47.4798220" lon="8.3024990">
        <ele>383.6</ele>
        <time>2022-06-02T07:39:38Z</time>
      </trkpt>
      <trkpt lat="47.4801830" lon="8.3021930">
        <ele>383.4</ele>
        <time>2022-06-02T07:39:43Z</time>
      </trkpt>
      <trkpt lat="47.4804870" lon="8.3019080">
        <ele>383.2</ele>
        <time>2022-06-02T07:39:49Z</time>
      </trkpt>
      <trkpt lat="47.4808280" lon="8.3015020">
        <ele>383.2</ele>
        <time>2022-06-02T07:39:56Z</time>
      </trkpt>
      <trkpt lat="47.4812140" lon="8.3009510">
        <ele>383.2</ele>
        <time>2022-06-02T07:40:05Z</time>
      </trkpt>
      <trkpt lat="47.4813150" lon="8.3008310">
        <ele>383.0</ele>
        <time>2022-06-02T07:40:07Z</time>
      </trkpt>
      <trkpt lat="47.4815260" lon="8.3005030">
        <ele>382.8</ele>
        <time>2022-06-02T07:40:12Z</time>
      </trkpt>
      <trkpt lat="47.4818490" lon="8.3000690">
        <ele>383.0</ele>
        <time>2022-06-02T07:40:20Z</time>
      </trkpt>
      <trkpt lat="47.4821890" lon="8.2995280">
        <ele>383.6</ele>
        <time>2022-06-02T07:40:29Z</time>
      </trkpt>
      <trkpt lat="47.4822170" lon="8.2994580">
        <ele>383.6</ele>
        <time>2022-06-02T07:40:30Z</time>
      </trkpt>
      <trkpt lat="47.4823800" lon="8.2990760">
        <ele>383.6</ele>
        <time>2022-06-02T07:40:35Z</time>
      </trkpt>
      <trkpt lat="47.4825950" lon="8.2985350">
        <ele>383.6</ele>
        <time>2022-06-02T07:40:42Z</time>
      </trkpt>
      <trkpt lat="47.4826290" lon="8.2984830">
        <ele>383.6</ele>
        <time>2022-06-02T07:40:45Z</time>
      </trkpt>
      <trkpt lat="47.4826790" lon="8.2984540">
        <ele>383.8</ele>
        <time>2022-06-02T07:40:52Z</time>
      </trkpt>
      <trkpt lat="47.4826820" lon="8.2984050">
        <ele>383.6</ele>
        <time>2022-06-02T07:40:59Z</time>
      </trkpt>
      <trkpt lat="47.4826820" lon="8.2984050">
        <ele>383.6</ele>
        <time>2022-06-02T07:41:01Z</time>
      </trkpt>
      <trkpt lat="47.4826940" lon="8.2983280">
        <ele>383.6</ele>
        <time>2022-06-02T07:41:05Z</time>
      </trkpt>
      <trkpt lat="47.4827000" lon="8.2982960">
        <ele>383.6</ele>
        <time>2022-06-02T07:41:06Z</time>
      </trkpt>
      <trkpt lat="47.4827490" lon="8.2980380">
        <ele>383.2</ele>
        <time>2022-06-02T07:41:12Z</time>
      </trkpt>
      <trkpt lat="47.4828500" lon="8.2976380">
        <ele>382.8</ele>
        <time>2022-06-02T07:41:18Z</time>
      </trkpt>
      <trkpt lat="47.4829580" lon="8.2970530">
        <ele>382.2</ele>
        <time>2022-06-02T07:41:25Z</time>
      </trkpt>
      <trkpt lat="47.4829710" lon="8.2969600">
        <ele>382.0</ele>
        <time>2022-06-02T07:41:26Z</time>
      </trkpt>
      <trkpt lat="47.4830460" lon="8.2964680">
        <ele>381.0</ele>
        <time>2022-06-02T07:41:31Z</time>
      </trkpt>
      <trkpt lat="47.4831090" lon="8.2960680">
        <ele>379.8</ele>
        <time>2022-06-02T07:41:35Z</time>
      </trkpt>
      <trkpt lat="47.4831540" lon="8.2957280">
        <ele>379.2</ele>
        <time>2022-06-02T07:41:38Z</time>
      </trkpt>
      <trkpt lat="47.4831820" lon="8.2954960">
        <ele>378.8</ele>
        <time>2022-06-02T07:41:40Z</time>
      </trkpt>
      <trkpt lat="47.4832300" lon="8.2950270">
        <ele>377.6</ele>
        <time>2022-06-02T07:41:44Z</time>
      </trkpt>
      <trkpt lat="47.4832550" lon="8.2947690">
        <ele>377.2</ele>
        <time>2022-06-02T07:41:46Z</time>
      </trkpt>
      <trkpt lat="47.4832980" lon="8.2943230">
        <ele>376.6</ele>
        <time>2022-06-02T07:41:50Z</time>
      </trkpt>
      <trkpt lat="47.4833150" lon="8.2941210">
        <ele>376.4</ele>
        <time>2022-06-02T07:41:52Z</time>
      </trkpt>
      <trkpt lat="47.4833720" lon="8.2933700">
        <ele>375.6</ele>
        <time>2022-06-02T07:42:00Z</time>
      </trkpt>
      <trkpt lat="47.4833820" lon="8.2931930">
        <ele>375.6</ele>
        <time>2022-06-02T07:42:02Z</time>
      </trkpt>
      <trkpt lat="47.4834000" lon="8.2929430">
        <ele>375.6</ele>
        <time>2022-06-02T07:42:05Z</time>
      </trkpt>
      <trkpt lat="47.4834380" lon="8.2923910">
        <ele>375.4</ele>
        <time>2022-06-02T07:42:11Z</time>
      </trkpt>
      <trkpt lat="47.4834630" lon="8.2921180">
        <ele>375.4</ele>
        <time>2022-06-02T07:42:14Z</time>
      </trkpt>
      <trkpt lat="47.4835150" lon="8.2914870">
        <ele>375.2</ele>
        <time>2022-06-02T07:42:22Z</time>
      </trkpt>
      <trkpt lat="47.4835470" lon="8.2910580">
        <ele>375.2</ele>
        <time>2022-06-02T07:42:28Z</time>
      </trkpt>
      <trkpt lat="47.4835810" lon="8.2905490">
        <ele>374.8</ele>
        <time>2022-06-02T07:42:35Z</time>
      </trkpt>
      <trkpt lat="47.4836110" lon="8.2900310">
        <ele>374.8</ele>
        <time>2022-06-02T07:42:42Z</time>
      </trkpt>
      <trkpt lat="47.4836210" lon="8.2895560">
        <ele>374.6</ele>
        <time>2022-06-02T07:42:49Z</time>
      </trkpt>
      <trkpt lat="47.4836200" lon="8.2894050">
        <ele>374.6</ele>
        <time>2022-06-02T07:42:51Z</time>
      </trkpt>
      <trkpt lat="47.4836010" lon="8.2887980">
        <ele>374.4</ele>
        <time>2022-06-02T07:43:00Z</time>
      </trkpt>
      <trkpt lat="47.4835980" lon="8.2887300">
        <ele>374.4</ele>
        <time>2022-06-02T07:43:01Z</time>
      </trkpt>
      <trkpt lat="47.4835710" lon="8.2883430">
        <ele>374.4</ele>
        <time>2022-06-02T07:43:07Z</time>
      </trkpt>
      <trkpt lat="47.4835180" lon="8.2878140">
        <ele>374.4</ele>
        <time>2022-06-02T07:43:15Z</time>
      </trkpt>
      <trkpt lat="47.4834320" lon="8.2873360">
        <ele>374.0</ele>
        <time>2022-06-02T07:43:21Z</time>
      </trkpt>
      <trkpt lat="47.4833810" lon="8.2871060">
        <ele>373.6</ele>
        <time>2022-06-02T07:43:24Z</time>
      </trkpt>
      <trkpt lat="47.4833170" lon="8.2867660">
        <ele>373.0</ele>
        <time>2022-06-02T07:43:28Z</time>
      </trkpt>
      <trkpt lat="47.4832990" lon="8.2865990">
        <ele>372.8</ele>
        <time>2022-06-02T07:43:30Z</time>
      </trkpt>
      <trkpt lat="47.4833020" lon="8.2864530">
        <ele>372.6</ele>
        <time>2022-06-02T07:43:32Z</time>
      </trkpt>
      <trkpt lat="47.4833110" lon="8.2863600">
        <ele>372.6</ele>
        <time>2022-06-02T07:43:33Z</time>
      </trkpt>
      <trkpt lat="47.4833790" lon="8.2859620">
        <ele>372.2</ele>
        <time>2022-06-02T07:43:38Z</time>
      </trkpt>
      <trkpt lat="47.4835120" lon="8.2854380">
        <ele>371.6</ele>
        <time>2022-06-02T07:43:45Z</time>
      </trkpt>
      <trkpt lat="47.4835840" lon="8.2850400">
        <ele>371.6</ele>
        <time>2022-06-02T07:43:50Z</time>
      </trkpt>
      <trkpt lat="47.4835930" lon="8.2848730">
        <ele>371.4</ele>
        <time>2022-06-02T07:43:52Z</time>
      </trkpt>
      <trkpt lat="47.4835350" lon="8.2842920">
        <ele>371.2</ele>
        <time>2022-06-02T07:43:59Z</time>
      </trkpt>
      <trkpt lat="47.4834880" lon="8.2839640">
        <ele>371.0</ele>
        <time>2022-06-02T07:44:03Z</time>
      </trkpt>
      <trkpt lat="47.4834610" lon="8.2838200">
        <ele>370.8</ele>
        <time>2022-06-02T07:44:05Z</time>
      </trkpt>
      <trkpt lat="47.4834380" lon="8.2837280">
        <ele>370.6</ele>
        <time>2022-06-02T07:44:06Z</time>
      </trkpt>
      <trkpt lat="47.4834240" lon="8.2836490">
        <ele>370.4</ele>
        <time>2022-06-02T07:44:07Z</time>
      </trkpt>
      <trkpt lat="47.4833090" lon="8.2830040">
        <ele>369.6</ele>
        <time>2022-06-02T07:44:15Z</time>
      </trkpt>
      <trkpt lat="47.4831750" lon="8.2821570">
        <ele>368.8</ele>
        <time>2022-06-02T07:44:25Z</time>
      </trkpt>
      <trkpt lat="47.4831600" lon="8.2820740">
        <ele>368.6</ele>
        <time>2022-06-02T07:44:26Z</time>
      </trkpt>
      <trkpt lat="47.4831470" lon="8.2819900">
        <ele>368.6</ele>
        <time>2022-06-02T07:44:27Z</time>
      </trkpt>
      <trkpt lat="47.4831250" lon="8.2818490">
        <ele>368.6</ele>
        <time>2022-06-02T07:44:29Z</time>
      </trkpt>
      <trkpt lat="47.4830680" lon="8.2815500">
        <ele>368.4</ele>
        <time>2022-06-02T07:44:33Z</time>
      </trkpt>
      <trkpt lat="47.4830360" lon="8.2813880">
        <ele>368.4</ele>
        <time>2022-06-02T07:44:35Z</time>
      </trkpt>
      <trkpt lat="47.4829620" lon="8.2811000">
        <ele>368.0</ele>
        <time>2022-06-02T07:44:39Z</time>
      </trkpt>
      <trkpt lat="47.4828070" lon="8.2805140">
        <ele>367.8</ele>
        <time>2022-06-02T07:44:47Z</time>
      </trkpt>
      <trkpt lat="47.4827870" lon="8.2804450">
        <ele>367.6</ele>
        <time>2022-06-02T07:44:48Z</time>
      </trkpt>
      <trkpt lat="47.4826680" lon="8.2800340">
        <ele>367.2</ele>
        <time>2022-06-02T07:44:54Z</time>
      </trkpt>
      <trkpt lat="47.4824690" lon="8.2793360">
        <ele>367.0</ele>
        <time>2022-06-02T07:45:04Z</time>
      </trkpt>
      <trkpt lat="47.4823800" lon="8.2788060">
        <ele>367.0</ele>
        <time>2022-06-02T07:45:11Z</time>
      </trkpt>
      <trkpt lat="47.4823910" lon="8.2783630">
        <ele>367.0</ele>
        <time>2022-06-02T07:45:17Z</time>
      </trkpt>
      <trkpt lat="47.4824100" lon="8.2780780">
        <ele>367.0</ele>
        <time>2022-06-02T07:45:21Z</time>
      </trkpt>
      <trkpt lat="47.4824040" lon="8.2778580">
        <ele>367.0</ele>
        <time>2022-06-02T07:45:24Z</time>
      </trkpt>
      <trkpt lat="47.4823290" lon="8.2771310">
        <ele>367.4</ele>
        <time>2022-06-02T07:45:33Z</time>
      </trkpt>
      <trkpt lat="47.4822420" lon="8.2763840">
        <ele>366.8</ele>
        <time>2022-06-02T07:45:42Z</time>
      </trkpt>
      <trkpt lat="47.4822250" lon="8.2761460">
        <ele>366.6</ele>
        <time>2022-06-02T07:45:45Z</time>
      </trkpt>
      <trkpt lat="47.4822190" lon="8.2757460">
        <ele>366.2</ele>
        <time>2022-06-02T07:45:50Z</time>
      </trkpt>
      <trkpt lat="47.4822440" lon="8.2750270">
        <ele>365.8</ele>
        <time>2022-06-02T07:45:59Z</time>
      </trkpt>
      <trkpt lat="47.4822640" lon="8.2747890">
        <ele>365.4</ele>
        <time>2022-06-02T07:46:02Z</time>
      </trkpt>
      <trkpt lat="47.4823200" lon="8.2742340">
        <ele>364.8</ele>
        <time>2022-06-02T07:46:09Z</time>
      </trkpt>
      <trkpt lat="47.4823610" lon="8.2739140">
        <ele>364.4</ele>
        <time>2022-06-02T07:46:13Z</time>
      </trkpt>
      <trkpt lat="47.4824500" lon="8.2733330">
        <ele>363.6</ele>
        <time>2022-06-02T07:46:20Z</time>
      </trkpt>
      <trkpt lat="47.4824970" lon="8.2730720">
        <ele>363.2</ele>
        <time>2022-06-02T07:46:23Z</time>
      </trkpt>
      <trkpt lat="47.4826440" lon="8.2724020">
        <ele>362.4</ele>
        <time>2022-06-02T07:46:31Z</time>
      </trkpt>
      <trkpt lat="47.4826980" lon="8.2721490">
        <ele>362.0</ele>
        <time>2022-06-02T07:46:34Z</time>
      </trkpt>
      <trkpt lat="47.4827910" lon="8.2718180">
        <ele>361.2</ele>
        <time>2022-06-02T07:46:38Z</time>
      </trkpt>
      <trkpt lat="47.4829480" lon="8.2713280">
        <ele>360.8</ele>
        <time>2022-06-02T07:46:44Z</time>
      </trkpt>
      <trkpt lat="47.4830070" lon="8.2711770">
        <ele>360.6</ele>
        <time>2022-06-02T07:46:46Z</time>
      </trkpt>
      <trkpt lat="47.4832120" lon="8.2707440">
        <ele>359.6</ele>
        <time>2022-06-02T07:46:52Z</time>
      </trkpt>
      <trkpt lat="47.4832480" lon="8.2706720">
        <ele>359.6</ele>
        <time>2022-06-02T07:46:53Z</time>
      </trkpt>
      <trkpt lat="47.4834790" lon="8.2702720">
        <ele>358.6</ele>
        <time>2022-06-02T07:46:59Z</time>
      </trkpt>
      <trkpt lat="47.4835910" lon="8.2700970">
        <ele>358.2</ele>
        <time>2022-06-02T07:47:02Z</time>
      </trkpt>
      <trkpt lat="47.4838630" lon="8.2697150">
        <ele>358.0</ele>
        <time>2022-06-02T07:47:09Z</time>
      </trkpt>
      <trkpt lat="47.4841020" lon="8.2694280">
        <ele>358.4</ele>
        <time>2022-06-02T07:47:15Z</time>
      </trkpt>
      <trkpt lat="47.4843910" lon="8.2691270">
        <ele>359.0</ele>
        <time>2022-06-02T07:47:22Z</time>
      </trkpt>
      <trkpt lat="47.4846480" lon="8.2688790">
        <ele>359.8</ele>
        <time>2022-06-02T07:47:29Z</time>
      </trkpt>
      <trkpt lat="47.4846830" lon="8.2688430">
        <ele>359.8</ele>
        <time>2022-06-02T07:47:30Z</time>
      </trkpt>
      <trkpt lat="47.4849170" lon="8.2686330">
        <ele>360.4</ele>
        <time>2022-06-02T07:47:37Z</time>
      </trkpt>
      <trkpt lat="47.4851200" lon="8.2684960">
        <ele>360.6</ele>
        <time>2022-06-02T07:47:43Z</time>
      </trkpt>
      <trkpt lat="47.4852000" lon="8.2682730">
        <ele>360.8</ele>
        <time>2022-06-02T07:47:47Z</time>
      </trkpt>
      <trkpt lat="47.4852200" lon="8.2682150">
        <ele>360.8</ele>
        <time>2022-06-02T07:47:48Z</time>
      </trkpt>
      <trkpt lat="47.4853250" lon="8.2680130">
        <ele>361.0</ele>
        <time>2022-06-02T07:47:52Z</time>
      </trkpt>
      <trkpt lat="47.4854730" lon="8.2678110">
        <ele>361.2</ele>
        <time>2022-06-02T07:47:57Z</time>
      </trkpt>
      <trkpt lat="47.4855300" lon="8.2677230">
        <ele>361.4</ele>
        <time>2022-06-02T07:47:59Z</time>
      </trkpt>
      <trkpt lat="47.4857470" lon="8.2674170">
        <ele>361.8</ele>
        <time>2022-06-02T07:48:07Z</time>
      </trkpt>
      <trkpt lat="47.4857890" lon="8.2673380">
        <ele>361.8</ele>
        <time>2022-06-02T07:48:09Z</time>
      </trkpt>
      <trkpt lat="47.4858980" lon="8.2671310">
        <ele>362.4</ele>
        <time>2022-06-02T07:48:14Z</time>
      </trkpt>
      <trkpt lat="47.4860520" lon="8.2667850">
        <ele>362.8</ele>
        <time>2022-06-02T07:48:22Z</time>
      </trkpt>
      <trkpt lat="47.4860830" lon="8.2667120">
        <ele>363.2</ele>
        <time>2022-06-02T07:48:24Z</time>
      </trkpt>
      <trkpt lat="47.4861540" lon="8.2665200">
        <ele>363.8</ele>
        <time>2022-06-02T07:48:30Z</time>
      </trkpt>
      <trkpt lat="47.4861720" lon="8.2664670">
        <ele>364.2</ele>
        <time>2022-06-02T07:48:32Z</time>
      </trkpt>
      <trkpt lat="47.4862160" lon="8.2663310">
        <ele>364.6</ele>
        <time>2022-06-02T07:48:37Z</time>
      </trkpt>
      <trkpt lat="47.4862630" lon="8.2661270">
        <ele>365.0</ele>
        <time>2022-06-02T07:48:43Z</time>
      </trkpt>
      <trkpt lat="47.4862720" lon="8.2660970">
        <ele>365.2</ele>
        <time>2022-06-02T07:48:44Z</time>
      </trkpt>
      <trkpt lat="47.4863050" lon="8.2659550">
        <ele>365.4</ele>
        <time>2022-06-02T07:48:49Z</time>
      </trkpt>
      <trkpt lat="47.4863770" lon="8.2657470">
        <ele>365.6</ele>
        <time>2022-06-02T07:48:55Z</time>
      </trkpt>
      <trkpt lat="47.4864630" lon="8.2653880">
        <ele>366.0</ele>
        <time>2022-06-02T07:49:02Z</time>
      </trkpt>
      <trkpt lat="47.4864880" lon="8.2652990">
        <ele>366.2</ele>
        <time>2022-06-02T07:49:04Z</time>
      </trkpt>
      <trkpt lat="47.4865640" lon="8.2651450">
        <ele>367.0</ele>
        <time>2022-06-02T07:49:08Z</time>
      </trkpt>
      <trkpt lat="47.4866920" lon="8.2649110">
        <ele>367.4</ele>
        <time>2022-06-02T07:49:14Z</time>
      </trkpt>
      <trkpt lat="47.4867170" lon="8.2648740">
        <ele>367.6</ele>
        <time>2022-06-02T07:49:15Z</time>
      </trkpt>
      <trkpt lat="47.4867500" lon="8.2647970">
        <ele>367.6</ele>
        <time>2022-06-02T07:49:17Z</time>
      </trkpt>
      <trkpt lat="47.4868000" lon="8.2646860">
        <ele>367.8</ele>
        <time>2022-06-02T07:49:20Z</time>
      </trkpt>
      <trkpt lat="47.4868520" lon="8.2645460">
        <ele>368.6</ele>
        <time>2022-06-02T07:49:24Z</time>
      </trkpt>
      <trkpt lat="47.4868830" lon="8.2645240">
        <ele>368.6</ele>
        <time>2022-06-02T07:49:25Z</time>
      </trkpt>
      <trkpt lat="47.4869460" lon="8.2644440">
        <ele>369.2</ele>
        <time>2022-06-02T07:49:29Z</time>
      </trkpt>
      <trkpt lat="47.4869490" lon="8.2644320">
        <ele>369.4</ele>
        <time>2022-06-02T07:49:30Z</time>
      </trkpt>
      <trkpt lat="47.4869570" lon="8.2644220">
        <ele>369.4</ele>
        <time>2022-06-02T07:49:31Z</time>
      </trkpt>
      <trkpt lat="47.4869730" lon="8.2644140">
        <ele>369.6</ele>
        <time>2022-06-02T07:49:32Z</time>
      </trkpt>
      <trkpt lat="47.4870580" lon="8.2643740">
        <ele>369.8</ele>
        <time>2022-06-02T07:49:36Z</time>
      </trkpt>
      <trkpt lat="47.4871660" lon="8.2642310">
        <ele>370.0</ele>
        <time>2022-06-02T07:49:43Z</time>
      </trkpt>
      <trkpt lat="47.4872830" lon="8.2640360">
        <ele>370.2</ele>
        <time>2022-06-02T07:49:49Z</time>
      </trkpt>
      <trkpt lat="47.4874220" lon="8.2637970">
        <ele>370.2</ele>
        <time>2022-06-02T07:49:55Z</time>
      </trkpt>
      <trkpt lat="47.4875780" lon="8.2634850">
        <ele>370.2</ele>
        <time>2022-06-02T07:50:02Z</time>
      </trkpt>
      <trkpt lat="47.4877630" lon="8.2631600">
        <ele>370.2</ele>
        <time>2022-06-02T07:50:10Z</time>
      </trkpt>
      <trkpt lat="47.4879370" lon="8.2628330">
        <ele>369.8</ele>
        <time>2022-06-02T07:50:18Z</time>
      </trkpt>
      <trkpt lat="47.4880180" lon="8.2625860">
        <ele>369.8</ele>
        <time>2022-06-02T07:50:24Z</time>
      </trkpt>
      <trkpt lat="47.4880700" lon="8.2624240">
        <ele>369.6</ele>
        <time>2022-06-02T07:50:29Z</time>
      </trkpt>
      <trkpt lat="47.4882370" lon="8.2622020">
        <ele>369.6</ele>
        <time>2022-06-02T07:50:36Z</time>
      </trkpt>
      <trkpt lat="47.4883910" lon="8.2619020">
        <ele>369.6</ele>
        <time>2022-06-02T07:50:44Z</time>
      </trkpt>
      <trkpt lat="47.4885150" lon="8.2615990">
        <ele>370.0</ele>
        <time>2022-06-02T07:50:52Z</time>
      </trkpt>
      <trkpt lat="47.4886600" lon="8.2611950">
        <ele>369.8</ele>
        <time>2022-06-02T07:51:01Z</time>
      </trkpt>
      <trkpt lat="47.4887890" lon="8.2607670">
        <ele>369.8</ele>
        <time>2022-06-02T07:51:09Z</time>
      </trkpt>
      <trkpt lat="47.4889360" lon="8.2602750">
        <ele>369.6</ele>
        <time>2022-06-02T07:51:17Z</time>
      </trkpt>
      <trkpt lat="47.4889430" lon="8.2602230">
        <ele>369.6</ele>
        <time>2022-06-02T07:51:18Z</time>
      </trkpt>
      <trkpt lat="47.4890180" lon="8.2596740">
        <ele>369.6</ele>
        <time>2022-06-02T07:51:27Z</time>
      </trkpt>
      <trkpt lat="47.4890360" lon="8.2594860">
        <ele>369.4</ele>
        <time>2022-06-02T07:51:30Z</time>
      </trkpt>
      <trkpt lat="47.4890390" lon="8.2593650">
        <ele>369.4</ele>
        <time>2022-06-02T07:51:32Z</time>
      </trkpt>
      <trkpt lat="47.4890430" lon="8.2592830">
        <ele>369.4</ele>
        <time>2022-06-02T07:51:33Z</time>
      </trkpt>
      <trkpt lat="47.4890670" lon="8.2588420">
        <ele>369.0</ele>
        <time>2022-06-02T07:51:39Z</time>
      </trkpt>
      <trkpt lat="47.4890720" lon="8.2587700">
        <ele>369.0</ele>
        <time>2022-06-02T07:51:40Z</time>
      </trkpt>
      <trkpt lat="47.4891240" lon="8.2581810">
        <ele>368.6</ele>
        <time>2022-06-02T07:51:48Z</time>
      </trkpt>
      <trkpt lat="47.4891410" lon="8.2577530">
        <ele>368.6</ele>
        <time>2022-06-02T07:51:54Z</time>
      </trkpt>
      <trkpt lat="47.4891770" lon="8.2570530">
        <ele>368.6</ele>
        <time>2022-06-02T07:52:04Z</time>
      </trkpt>
      <trkpt lat="47.4891730" lon="8.2565120">
        <ele>368.8</ele>
        <time>2022-06-02T07:52:12Z</time>
      </trkpt>
      <trkpt lat="47.4891080" lon="8.2559720">
        <ele>369.2</ele>
        <time>2022-06-02T07:52:20Z</time>
      </trkpt>
      <trkpt lat="47.4890190" lon="8.2555940">
        <ele>369.4</ele>
        <time>2022-06-02T07:52:26Z</time>
      </trkpt>
      <trkpt lat="47.4888510" lon="8.2551000">
        <ele>369.6</ele>
        <time>2022-06-02T07:52:34Z</time>
      </trkpt>
      <trkpt lat="47.4888220" lon="8.2549580">
        <ele>369.6</ele>
        <time>2022-06-02T07:52:36Z</time>
      </trkpt>
      <trkpt lat="47.4888170" lon="8.2547220">
        <ele>369.4</ele>
        <time>2022-06-02T07:52:39Z</time>
      </trkpt>
      <trkpt lat="47.4888330" lon="8.2545710">
        <ele>369.2</ele>
        <time>2022-06-02T07:52:41Z</time>
      </trkpt>
      <trkpt lat="47.4888940" lon="8.2543130">
        <ele>369.0</ele>
        <time>2022-06-02T07:52:45Z</time>
      </trkpt>
      <trkpt lat="47.4889140" lon="8.2542480">
        <ele>369.0</ele>
        <time>2022-06-02T07:52:46Z</time>
      </trkpt>
      <trkpt lat="47.4890080" lon="8.2539650">
        <ele>368.8</ele>
        <time>2022-06-02T07:52:50Z</time>
      </trkpt>
      <trkpt lat="47.4890320" lon="8.2539020">
        <ele>368.8</ele>
        <time>2022-06-02T07:52:51Z</time>
      </trkpt>
      <trkpt lat="47.4891400" lon="8.2536100">
        <ele>368.8</ele>
        <time>2022-06-02T07:52:55Z</time>
      </trkpt>
      <trkpt lat="47.4891940" lon="8.2534570">
        <ele>368.6</ele>
        <time>2022-06-02T07:52:57Z</time>
      </trkpt>
      <trkpt lat="47.4892210" lon="8.2533800">
        <ele>368.6</ele>
        <time>2022-06-02T07:52:58Z</time>
      </trkpt>
      <trkpt lat="47.4892770" lon="8.2532330">
        <ele>368.6</ele>
        <time>2022-06-02T07:53:00Z</time>
      </trkpt>
      <trkpt lat="47.4892890" lon="8.2531720">
        <ele>368.6</ele>
        <time>2022-06-02T07:53:01Z</time>
      </trkpt>
      <trkpt lat="47.4893160" lon="8.2530850">
        <ele>368.4</ele>
        <time>2022-06-02T07:53:02Z</time>
      </trkpt>
      <trkpt lat="47.4894230" lon="8.2528060">
        <ele>368.4</ele>
        <time>2022-06-02T07:53:06Z</time>
      </trkpt>
      <trkpt lat="47.4895300" lon="8.2525720">
        <ele>368.2</ele>
        <time>2022-06-02T07:53:09Z</time>
      </trkpt>
      <trkpt lat="47.4895630" lon="8.2524450">
        <ele>368.2</ele>
        <time>2022-06-02T07:53:11Z</time>
      </trkpt>
      <trkpt lat="47.4895760" lon="8.2523470">
        <ele>368.2</ele>
        <time>2022-06-02T07:53:12Z</time>
      </trkpt>
      <trkpt lat="47.4896840" lon="8.2518850">
        <ele>367.8</ele>
        <time>2022-06-02T07:53:18Z</time>
      </trkpt>
      <trkpt lat="47.4896990" lon="8.2518080">
        <ele>367.6</ele>
        <time>2022-06-02T07:53:19Z</time>
      </trkpt>
      <trkpt lat="47.4897620" lon="8.2514140">
        <ele>367.4</ele>
        <time>2022-06-02T07:53:24Z</time>
      </trkpt>
      <trkpt lat="47.4898080" lon="8.2510940">
        <ele>367.2</ele>
        <time>2022-06-02T07:53:28Z</time>
      </trkpt>
      <trkpt lat="47.4898260" lon="8.2509850">
        <ele>367.2</ele>
        <time>2022-06-02T07:53:30Z</time>
      </trkpt>
      <trkpt lat="47.4898930" lon="8.2504730">
        <ele>366.4</ele>
        <time>2022-06-02T07:53:37Z</time>
      </trkpt>
      <trkpt lat="47.4899120" lon="8.2503070">
        <ele>366.0</ele>
        <time>2022-06-02T07:53:39Z</time>
      </trkpt>
      <trkpt lat="47.4899630" lon="8.2499790">
        <ele>365.4</ele>
        <time>2022-06-02T07:53:43Z</time>
      </trkpt>
      <trkpt lat="47.4900290" lon="8.2494700">
        <ele>364.8</ele>
        <time>2022-06-02T07:53:49Z</time>
      </trkpt>
      <trkpt lat="47.4900430" lon="8.2492970">
        <ele>364.6</ele>
        <time>2022-06-02T07:53:51Z</time>
      </trkpt>
      <trkpt lat="47.4900420" lon="8.2487290">
        <ele>364.0</ele>
        <time>2022-06-02T07:53:58Z</time>
      </trkpt>
      <trkpt lat="47.4900330" lon="8.2484040">
        <ele>363.8</ele>
        <time>2022-06-02T07:54:02Z</time>
      </trkpt>
      <trkpt lat="47.4900250" lon="8.2483420">
        <ele>363.8</ele>
        <time>2022-06-02T07:54:03Z</time>
      </trkpt>
      <trkpt lat="47.4900000" lon="8.2481720">
        <ele>363.6</ele>
        <time>2022-06-02T07:54:05Z</time>
      </trkpt>
      <trkpt lat="47.4899450" lon="8.2477900">
        <ele>363.2</ele>
        <time>2022-06-02T07:54:10Z</time>
      </trkpt>
      <trkpt lat="47.4899230" lon="8.2476380">
        <ele>363.0</ele>
        <time>2022-06-02T07:54:12Z</time>
      </trkpt>
      <trkpt lat="47.4898470" lon="8.2472490">
        <ele>363.0</ele>
        <time>2022-06-02T07:54:17Z</time>
      </trkpt>
      <trkpt lat="47.4897920" lon="8.2470300">
        <ele>362.8</ele>
        <time>2022-06-02T07:54:20Z</time>
      </trkpt>
      <trkpt lat="47.4896550" lon="8.2465610">
        <ele>362.6</ele>
        <time>2022-06-02T07:54:27Z</time>
      </trkpt>
      <trkpt lat="47.4896300" lon="8.2464920">
        <ele>362.6</ele>
        <time>2022-06-02T07:54:28Z</time>
      </trkpt>
      <trkpt lat="47.4894370" lon="8.2460320">
        <ele>362.4</ele>
        <time>2022-06-02T07:54:35Z</time>
      </trkpt>
      <trkpt lat="47.4893850" lon="8.2459280">
        <ele>362.4</ele>
        <time>2022-06-02T07:54:37Z</time>
      </trkpt>
      <trkpt lat="47.4893470" lon="8.2458550">
        <ele>362.2</ele>
        <time>2022-06-02T07:54:39Z</time>
      </trkpt>
      <trkpt lat="47.4893280" lon="8.2457400">
        <ele>362.2</ele>
        <time>2022-06-02T07:54:42Z</time>
      </trkpt>
      <trkpt lat="47.4893240" lon="8.2456660">
        <ele>362.2</ele>
        <time>2022-06-02T07:54:44Z</time>
      </trkpt>
      <trkpt lat="47.4893120" lon="8.2456320">
        <ele>362.0</ele>
        <time>2022-06-02T07:54:46Z</time>
      </trkpt>
      <trkpt lat="47.4893020" lon="8.2456210">
        <ele>362.0</ele>
        <time>2022-06-02T07:54:48Z</time>
      </trkpt>
      <trkpt lat="47.4893030" lon="8.2456080">
        <ele>361.8</ele>
        <time>2022-06-02T07:54:51Z</time>
      </trkpt>
      <trkpt lat="47.4893030" lon="8.2456080">
        <ele>361.8</ele>
        <time>2022-06-02T07:54:52Z</time>
      </trkpt>
      <trkpt lat="47.4892710" lon="8.2456020">
        <ele>360.8</ele>
        <time>2022-06-02T07:55:21Z</time>
      </trkpt>
      <trkpt lat="47.4892530" lon="8.2455890">
        <ele>360.8</ele>
        <time>2022-06-02T07:55:22Z</time>
      </trkpt>
      <trkpt lat="47.4891440" lon="8.2454870">
        <ele>361.0</ele>
        <time>2022-06-02T07:55:26Z</time>
      </trkpt>
      <trkpt lat="47.4891110" lon="8.2454570">
        <ele>361.0</ele>
        <time>2022-06-02T07:55:27Z</time>
      </trkpt>
      <trkpt lat="47.4890050" lon="8.2453010">
        <ele>361.2</ele>
        <time>2022-06-02T07:55:30Z</time>
      </trkpt>
      <trkpt lat="47.4887540" lon="8.2449990">
        <ele>361.2</ele>
        <time>2022-06-02T07:55:36Z</time>
      </trkpt>
      <trkpt lat="47.4884760" lon="8.2447200">
        <ele>361.4</ele>
        <time>2022-06-02T07:55:43Z</time>
      </trkpt>
      <trkpt lat="47.4883770" lon="8.2446230">
        <ele>361.4</ele>
        <time>2022-06-02T07:55:46Z</time>
      </trkpt>
      <trkpt lat="47.4882520" lon="8.2444860">
        <ele>361.6</ele>
        <time>2022-06-02T07:55:50Z</time>
      </trkpt>
      <trkpt lat="47.4881690" lon="8.2443900">
        <ele>361.6</ele>
        <time>2022-06-02T07:55:54Z</time>
      </trkpt>
      <trkpt lat="47.4879490" lon="8.2442200">
        <ele>362.0</ele>
        <time>2022-06-02T07:56:01Z</time>
      </trkpt>
      <trkpt lat="47.4876970" lon="8.2439870">
        <ele>362.2</ele>
        <time>2022-06-02T07:56:08Z</time>
      </trkpt>
      <trkpt lat="47.4876680" lon="8.2439620">
        <ele>362.2</ele>
        <time>2022-06-02T07:56:09Z</time>
      </trkpt>
      <trkpt lat="47.4875830" lon="8.2438870">
        <ele>362.2</ele>
        <time>2022-06-02T07:56:11Z</time>
      </trkpt>
      <trkpt lat="47.4874970" lon="8.2437920">
        <ele>362.2</ele>
        <time>2022-06-02T07:56:14Z</time>
      </trkpt>
      <trkpt lat="47.4874000" lon="8.2436890">
        <ele>362.2</ele>
        <time>2022-06-02T07:56:20Z</time>
      </trkpt>
      <trkpt lat="47.4874000" lon="8.2436890">
        <ele>362.2</ele>
        <time>2022-06-02T07:56:22Z</time>
      </trkpt>
      <trkpt lat="47.4873750" lon="8.2436490">
        <ele>361.2</ele>
        <time>2022-06-02T07:56:53Z</time>
      </trkpt>
      <trkpt lat="47.4873590" lon="8.2436220">
        <ele>361.2</ele>
        <time>2022-06-02T07:56:54Z</time>
      </trkpt>
      <trkpt lat="47.4872340" lon="8.2434900">
        <ele>361.0</ele>
        <time>2022-06-02T07:56:58Z</time>
      </trkpt>
      <trkpt lat="47.4871330" lon="8.2434170">
        <ele>360.8</ele>
        <time>2022-06-02T07:57:00Z</time>
      </trkpt>
      <trkpt lat="47.4869840" lon="8.2433170">
        <ele>360.4</ele>
        <time>2022-06-02T07:57:03Z</time>
      </trkpt>
      <trkpt lat="47.4866320" lon="8.2431460">
        <ele>359.6</ele>
        <time>2022-06-02T07:57:09Z</time>
      </trkpt>
      <trkpt lat="47.4865580" lon="8.2431110">
        <ele>359.4</ele>
        <time>2022-06-02T07:57:10Z</time>
      </trkpt>
      <trkpt lat="47.4862100" lon="8.2429390">
        <ele>358.4</ele>
        <time>2022-06-02T07:57:15Z</time>
      </trkpt>
      <trkpt lat="47.4859240" lon="8.2427910">
        <ele>357.2</ele>
        <time>2022-06-02T07:57:19Z</time>
      </trkpt>
      <trkpt lat="47.4856270" lon="8.2426420">
        <ele>356.2</ele>
        <time>2022-06-02T07:57:23Z</time>
      </trkpt>
      <trkpt lat="47.4852260" lon="8.2424360">
        <ele>354.8</ele>
        <time>2022-06-02T07:57:28Z</time>
      </trkpt>
      <trkpt lat="47.4849580" lon="8.2422990">
        <ele>354.2</ele>
        <time>2022-06-02T07:57:31Z</time>
      </trkpt>
      <trkpt lat="47.4847840" lon="8.2422150">
        <ele>353.4</ele>
        <time>2022-06-02T07:57:33Z</time>
      </trkpt>
      <trkpt lat="47.4845280" lon="8.2420910">
        <ele>352.4</ele>
        <time>2022-06-02T07:57:36Z</time>
      </trkpt>
      <trkpt lat="47.4843750" lon="8.2420120">
        <ele>351.8</ele>
        <time>2022-06-02T07:57:38Z</time>
      </trkpt>
      <trkpt lat="47.4843030" lon="8.2419770">
        <ele>351.0</ele>
        <time>2022-06-02T07:57:39Z</time>
      </trkpt>
      <trkpt lat="47.4838790" lon="8.2417650">
        <ele>349.8</ele>
        <time>2022-06-02T07:57:45Z</time>
      </trkpt>
      <trkpt lat="47.4838130" lon="8.2417300">
        <ele>349.6</ele>
        <time>2022-06-02T07:57:46Z</time>
      </trkpt>
      <trkpt lat="47.4835000" lon="8.2415470">
        <ele>349.0</ele>
        <time>2022-06-02T07:57:51Z</time>
      </trkpt>
      <trkpt lat="47.4833790" lon="8.2414630">
        <ele>348.8</ele>
        <time>2022-06-02T07:57:53Z</time>
      </trkpt>
      <trkpt lat="47.4831090" lon="8.2412810">
        <ele>348.8</ele>
        <time>2022-06-02T07:57:58Z</time>
      </trkpt>
      <trkpt lat="47.4827760" lon="8.2410660">
        <ele>349.2</ele>
        <time>2022-06-02T07:58:04Z</time>
      </trkpt>
      <trkpt lat="47.4823190" lon="8.2407620">
        <ele>348.8</ele>
        <time>2022-06-02T07:58:11Z</time>
      </trkpt>
      <trkpt lat="47.4821980" lon="8.2406570">
        <ele>348.6</ele>
        <time>2022-06-02T07:58:13Z</time>
      </trkpt>
      <trkpt lat="47.4819340" lon="8.2403570">
        <ele>347.6</ele>
        <time>2022-06-02T07:58:18Z</time>
      </trkpt>
      <trkpt lat="47.4817050" lon="8.2400210">
        <ele>346.6</ele>
        <time>2022-06-02T07:58:23Z</time>
      </trkpt>
      <trkpt lat="47.4816160" lon="8.2398800">
        <ele>346.4</ele>
        <time>2022-06-02T07:58:25Z</time>
      </trkpt>
      <trkpt lat="47.4814450" lon="8.2395800">
        <ele>345.8</ele>
        <time>2022-06-02T07:58:29Z</time>
      </trkpt>
      <trkpt lat="47.4813700" lon="8.2394260">
        <ele>345.6</ele>
        <time>2022-06-02T07:58:31Z</time>
      </trkpt>
      <trkpt lat="47.4813360" lon="8.2393510">
        <ele>345.6</ele>
        <time>2022-06-02T07:58:32Z</time>
      </trkpt>
      <trkpt lat="47.4811240" lon="8.2388160">
        <ele>345.6</ele>
        <time>2022-06-02T07:58:39Z</time>
      </trkpt>
      <trkpt lat="47.4809620" lon="8.2382960">
        <ele>346.0</ele>
        <time>2022-06-02T07:58:46Z</time>
      </trkpt>
      <trkpt lat="47.4809070" lon="8.2380820">
        <ele>346.6</ele>
        <time>2022-06-02T07:58:49Z</time>
      </trkpt>
      <trkpt lat="47.4807990" lon="8.2376560">
        <ele>347.8</ele>
        <time>2022-06-02T07:58:55Z</time>
      </trkpt>
      <trkpt lat="47.4807540" lon="8.2374490">
        <ele>348.0</ele>
        <time>2022-06-02T07:58:58Z</time>
      </trkpt>
      <trkpt lat="47.4807390" lon="8.2372770">
        <ele>348.4</ele>
        <time>2022-06-02T07:59:00Z</time>
      </trkpt>
      <trkpt lat="47.4807070" lon="8.2371380">
        <ele>348.4</ele>
        <time>2022-06-02T07:59:02Z</time>
      </trkpt>
      <trkpt lat="47.4806600" lon="8.2369520">
        <ele>348.4</ele>
        <time>2022-06-02T07:59:04Z</time>
      </trkpt>
      <trkpt lat="47.4806140" lon="8.2363830">
        <ele>348.0</ele>
        <time>2022-06-02T07:59:10Z</time>
      </trkpt>
      <trkpt lat="47.4806190" lon="8.2354880">
        <ele>346.8</ele>
        <time>2022-06-02T07:59:19Z</time>
      </trkpt>
      <trkpt lat="47.4806070" lon="8.2353860">
        <ele>346.6</ele>
        <time>2022-06-02T07:59:20Z</time>
      </trkpt>
      <trkpt lat="47.4804990" lon="8.2347940">
        <ele>346.0</ele>
        <time>2022-06-02T07:59:26Z</time>
      </trkpt>
      <trkpt lat="47.4804730" lon="8.2347110">
        <ele>345.8</ele>
        <time>2022-06-02T07:59:27Z</time>
      </trkpt>
      <trkpt lat="47.4803420" lon="8.2343910">
        <ele>345.0</ele>
        <time>2022-06-02T07:59:31Z</time>
      </trkpt>
      <trkpt lat="47.4803050" lon="8.2343070">
        <ele>344.8</ele>
        <time>2022-06-02T07:59:32Z</time>
      </trkpt>
      <trkpt lat="47.4800480" lon="8.2337460">
        <ele>343.4</ele>
        <time>2022-06-02T07:59:39Z</time>
      </trkpt>
      <trkpt lat="47.4800130" lon="8.2336640">
        <ele>343.2</ele>
        <time>2022-06-02T07:59:40Z</time>
      </trkpt>
      <trkpt lat="47.4798870" lon="8.2333430">
        <ele>342.2</ele>
        <time>2022-06-02T07:59:44Z</time>
      </trkpt>
      <trkpt lat="47.4798640" lon="8.2332640">
        <ele>342.2</ele>
        <time>2022-06-02T07:59:45Z</time>
      </trkpt>
      <trkpt lat="47.4798230" lon="8.2331030">
        <ele>341.8</ele>
        <time>2022-06-02T07:59:47Z</time>
      </trkpt>
      <trkpt lat="47.4797180" lon="8.2326530">
        <ele>341.8</ele>
        <time>2022-06-02T07:59:53Z</time>
      </trkpt>
      <trkpt lat="47.4796270" lon="8.2322050">
        <ele>341.8</ele>
        <time>2022-06-02T07:59:59Z</time>
      </trkpt>
      <trkpt lat="47.4794690" lon="8.2315640">
        <ele>342.0</ele>
        <time>2022-06-02T08:00:08Z</time>
      </trkpt>
      <trkpt lat="47.4794170" lon="8.2313580">
        <ele>342.2</ele>
        <time>2022-06-02T08:00:11Z</time>
      </trkpt>
      <trkpt lat="47.4793940" lon="8.2312250">
        <ele>342.4</ele>
        <time>2022-06-02T08:00:13Z</time>
      </trkpt>
      <trkpt lat="47.4793440" lon="8.2310940">
        <ele>342.4</ele>
        <time>2022-06-02T08:00:15Z</time>
      </trkpt>
      <trkpt lat="47.4792510" lon="8.2306200">
        <ele>342.6</ele>
        <time>2022-06-02T08:00:22Z</time>
      </trkpt>
      <trkpt lat="47.4791460" lon="8.2300980">
        <ele>342.6</ele>
        <time>2022-06-02T08:00:30Z</time>
      </trkpt>
      <trkpt lat="47.4791210" lon="8.2299440">
        <ele>342.8</ele>
        <time>2022-06-02T08:00:34Z</time>
      </trkpt>
      <trkpt lat="47.4791050" lon="8.2298460">
        <ele>342.8</ele>
        <time>2022-06-02T08:00:38Z</time>
      </trkpt>
      <trkpt lat="47.4791020" lon="8.2297770">
        <ele>342.8</ele>
        <time>2022-06-02T08:00:40Z</time>
      </trkpt>
      <trkpt lat="47.4790040" lon="8.2295370">
        <ele>342.8</ele>
        <time>2022-06-02T08:00:46Z</time>
      </trkpt>
      <trkpt lat="47.4788690" lon="8.2295260">
        <ele>342.8</ele>
        <time>2022-06-02T08:00:49Z</time>
      </trkpt>
      <trkpt lat="47.4788100" lon="8.2294780">
        <ele>342.8</ele>
        <time>2022-06-02T08:00:51Z</time>
      </trkpt>
      <trkpt lat="47.4788020" lon="8.2294260">
        <ele>342.8</ele>
        <time>2022-06-02T08:00:52Z</time>
      </trkpt>
      <trkpt lat="47.4787340" lon="8.2290210">
        <ele>342.2</ele>
        <time>2022-06-02T08:00:58Z</time>
      </trkpt>
      <trkpt lat="47.4786530" lon="8.2285340">
        <ele>341.6</ele>
        <time>2022-06-02T08:01:04Z</time>
      </trkpt>
      <trkpt lat="47.4786030" lon="8.2283590">
        <ele>341.4</ele>
        <time>2022-06-02T08:01:06Z</time>
      </trkpt>
      <trkpt lat="47.4785050" lon="8.2281900">
        <ele>341.2</ele>
        <time>2022-06-02T08:01:08Z</time>
      </trkpt>
      <trkpt lat="47.4783920" lon="8.2280380">
        <ele>341.2</ele>
        <time>2022-06-02T08:01:10Z</time>
      </trkpt>
      <trkpt lat="47.4782190" lon="8.2278480">
        <ele>340.6</ele>
        <time>2022-06-02T08:01:13Z</time>
      </trkpt>
      <trkpt lat="47.4780950" lon="8.2277400">
        <ele>340.2</ele>
        <time>2022-06-02T08:01:15Z</time>
      </trkpt>
      <trkpt lat="47.4777350" lon="8.2274530">
        <ele>339.0</ele>
        <time>2022-06-02T08:01:21Z</time>
      </trkpt>
      <trkpt lat="47.4776390" lon="8.2273720">
        <ele>338.8</ele>
        <time>2022-06-02T08:01:23Z</time>
      </trkpt>
      <trkpt lat="47.4772220" lon="8.2270080">
        <ele>338.4</ele>
        <time>2022-06-02T08:01:31Z</time>
      </trkpt>
      <trkpt lat="47.4770780" lon="8.2268870">
        <ele>338.0</ele>
        <time>2022-06-02T08:01:34Z</time>
      </trkpt>
      <trkpt lat="47.4769370" lon="8.2267630">
        <ele>337.8</ele>
        <time>2022-06-02T08:01:37Z</time>
      </trkpt>
      <trkpt lat="47.4767050" lon="8.2265760">
        <ele>337.8</ele>
        <time>2022-06-02T08:01:43Z</time>
      </trkpt>
      <trkpt lat="47.4766260" lon="8.2265150">
        <ele>338.0</ele>
        <time>2022-06-02T08:01:45Z</time>
      </trkpt>
      <trkpt lat="47.4764740" lon="8.2263770">
        <ele>338.4</ele>
        <time>2022-06-02T08:01:50Z</time>
      </trkpt>
      <trkpt lat="47.4762990" lon="8.2262160">
        <ele>339.0</ele>
        <time>2022-06-02T08:01:56Z</time>
      </trkpt>
      <trkpt lat="47.4762330" lon="8.2261700">
        <ele>339.2</ele>
        <time>2022-06-02T08:01:58Z</time>
      </trkpt>
      <trkpt lat="47.4760110" lon="8.2259760">
        <ele>340.2</ele>
        <time>2022-06-02T08:02:05Z</time>
      </trkpt>
      <trkpt lat="47.4759790" lon="8.2259490">
        <ele>340.4</ele>
        <time>2022-06-02T08:02:06Z</time>
      </trkpt>
      <trkpt lat="47.4758050" lon="8.2257580">
        <ele>341.4</ele>
        <time>2022-06-02T08:02:12Z</time>
      </trkpt>
      <trkpt lat="47.4757090" lon="8.2254950">
        <ele>342.0</ele>
        <time>2022-06-02T08:02:17Z</time>
      </trkpt>
      <trkpt lat="47.4756810" lon="8.2252650">
        <ele>342.6</ele>
        <time>2022-06-02T08:02:21Z</time>
      </trkpt>
      <trkpt lat="47.4756820" lon="8.2251530">
        <ele>342.8</ele>
        <time>2022-06-02T08:02:23Z</time>
      </trkpt>
      <trkpt lat="47.4757490" lon="8.2248570">
        <ele>343.6</ele>
        <time>2022-06-02T08:02:29Z</time>
      </trkpt>
      <trkpt lat="47.4757630" lon="8.2248130">
        <ele>343.6</ele>
        <time>2022-06-02T08:02:30Z</time>
      </trkpt>
      <trkpt lat="47.4758380" lon="8.2246420">
        <ele>344.0</ele>
        <time>2022-06-02T08:02:35Z</time>
      </trkpt>
      <trkpt lat="47.4759390" lon="8.2245660">
        <ele>344.4</ele>
        <time>2022-06-02T08:02:40Z</time>
      </trkpt>
      <trkpt lat="47.4759890" lon="8.2245580">
        <ele>344.8</ele>
        <time>2022-06-02T08:02:42Z</time>
      </trkpt>
      <trkpt lat="47.4761040" lon="8.2244610">
        <ele>345.8</ele>
        <time>2022-06-02T08:02:46Z</time>
      </trkpt>
      <trkpt lat="47.4762330" lon="8.2243680">
        <ele>347.0</ele>
        <time>2022-06-02T08:02:51Z</time>
      </trkpt>
      <trkpt lat="47.4762560" lon="8.2243630">
        <ele>347.0</ele>
        <time>2022-06-02T08:02:52Z</time>
      </trkpt>
      <trkpt lat="47.4764210" lon="8.2243090">
        <ele>348.0</ele>
        <time>2022-06-02T08:02:58Z</time>
      </trkpt>
      <trkpt lat="47.4764500" lon="8.2242980">
        <ele>348.0</ele>
        <time>2022-06-02T08:02:59Z</time>
      </trkpt>
      <trkpt lat="47.4765640" lon="8.2242450">
        <ele>348.6</ele>
        <time>2022-06-02T08:03:04Z</time>
      </trkpt>
      <trkpt lat="47.4766970" lon="8.2242140">
        <ele>348.8</ele>
        <time>2022-06-02T08:03:09Z</time>
      </trkpt>
      <trkpt lat="47.4767210" lon="8.2242110">
        <ele>349.0</ele>
        <time>2022-06-02T08:03:10Z</time>
      </trkpt>
      <trkpt lat="47.4768980" lon="8.2241460">
        <ele>349.4</ele>
        <time>2022-06-02T08:03:18Z</time>
      </trkpt>
      <trkpt lat="47.4769980" lon="8.2240930">
        <ele>349.8</ele>
        <time>2022-06-02T08:03:23Z</time>
      </trkpt>
      <trkpt lat="47.4770170" lon="8.2240680">
        <ele>350.0</ele>
        <time>2022-06-02T08:03:24Z</time>
      </trkpt>
      <trkpt lat="47.4771020" lon="8.2240080">
        <ele>350.8</ele>
        <time>2022-06-02T08:03:30Z</time>
      </trkpt>
      <trkpt lat="47.4771190" lon="8.2239950">
        <ele>351.2</ele>
        <time>2022-06-02T08:03:31Z</time>
      </trkpt>
      <trkpt lat="47.4771900" lon="8.2239290">
        <ele>352.4</ele>
        <time>2022-06-02T08:03:36Z</time>
      </trkpt>
      <trkpt lat="47.4772130" lon="8.2239080">
        <ele>353.0</ele>
        <time>2022-06-02T08:03:38Z</time>
      </trkpt>
      <trkpt lat="47.4772200" lon="8.2238940">
        <ele>353.6</ele>
        <time>2022-06-02T08:03:40Z</time>
      </trkpt>
      <trkpt lat="47.4773020" lon="8.2238150">
        <ele>354.8</ele>
        <time>2022-06-02T08:03:45Z</time>
      </trkpt>
      <trkpt lat="47.4773210" lon="8.2238050">
        <ele>355.0</ele>
        <time>2022-06-02T08:03:46Z</time>
      </trkpt>
      <trkpt lat="47.4773540" lon="8.2237780">
        <ele>355.8</ele>
        <time>2022-06-02T08:03:48Z</time>
      </trkpt>
      <trkpt lat="47.4774060" lon="8.2237000">
        <ele>356.8</ele>
        <time>2022-06-02T08:03:52Z</time>
      </trkpt>
      <trkpt lat="47.4774290" lon="8.2236510">
        <ele>357.2</ele>
        <time>2022-06-02T08:03:54Z</time>
      </trkpt>
      <trkpt lat="47.4774430" lon="8.2236030">
        <ele>357.6</ele>
        <time>2022-06-02T08:03:56Z</time>
      </trkpt>
      <trkpt lat="47.4774480" lon="8.2235840">
        <ele>357.8</ele>
        <time>2022-06-02T08:03:57Z</time>
      </trkpt>
      <trkpt lat="47.4774540" lon="8.2235690">
        <ele>357.8</ele>
        <time>2022-06-02T08:03:58Z</time>
      </trkpt>
      <trkpt lat="47.4774630" lon="8.2235110">
        <ele>358.8</ele>
        <time>2022-06-02T08:04:01Z</time>
      </trkpt>
      <trkpt lat="47.4774720" lon="8.2234840">
        <ele>358.8</ele>
        <time>2022-06-02T08:04:02Z</time>
      </trkpt>
      <trkpt lat="47.4775010" lon="8.2234100">
        <ele>359.2</ele>
        <time>2022-06-02T08:04:04Z</time>
      </trkpt>
      <trkpt lat="47.4776020" lon="8.2232550">
        <ele>360.0</ele>
        <time>2022-06-02T08:04:09Z</time>
      </trkpt>
      <trkpt lat="47.4776120" lon="8.2232250">
        <ele>360.2</ele>
        <time>2022-06-02T08:04:10Z</time>
      </trkpt>
      <trkpt lat="47.4776860" lon="8.2230690">
        <ele>360.4</ele>
        <time>2022-06-02T08:04:16Z</time>
      </trkpt>
      <trkpt lat="47.4777780" lon="8.2228260">
        <ele>360.6</ele>
        <time>2022-06-02T08:04:24Z</time>
      </trkpt>
      <trkpt lat="47.4778830" lon="8.2225200">
        <ele>360.8</ele>
        <time>2022-06-02T08:04:32Z</time>
      </trkpt>
      <trkpt lat="47.4780060" lon="8.2221800">
        <ele>361.0</ele>
        <time>2022-06-02T08:04:40Z</time>
      </trkpt>
      <trkpt lat="47.4781690" lon="8.2218340">
        <ele>361.2</ele>
        <time>2022-06-02T08:04:48Z</time>
      </trkpt>
      <trkpt lat="47.4783400" lon="8.2215400">
        <ele>361.6</ele>
        <time>2022-06-02T08:04:56Z</time>
      </trkpt>
      <trkpt lat="47.4784290" lon="8.2214590">
        <ele>361.2</ele>
        <time>2022-06-02T08:05:02Z</time>
      </trkpt>
      <trkpt lat="47.4784630" lon="8.2214520">
        <ele>361.2</ele>
        <time>2022-06-02T08:05:06Z</time>
      </trkpt>
      <trkpt lat="47.4784660" lon="8.2214490">
        <ele>361.2</ele>
        <time>2022-06-02T08:05:09Z</time>
      </trkpt>
      <trkpt lat="47.4784990" lon="8.2214250">
        <ele>361.2</ele>
        <time>2022-06-02T08:05:21Z</time>
      </trkpt>
      <trkpt lat="47.4785510" lon="8.2214040">
        <ele>361.2</ele>
        <time>2022-06-02T08:05:24Z</time>
      </trkpt>
      <trkpt lat="47.4785680" lon="8.2214320">
        <ele>361.2</ele>
        <time>2022-06-02T08:05:26Z</time>
      </trkpt>
      <trkpt lat="47.4786090" lon="8.2215740">
        <ele>361.0</ele>
        <time>2022-06-02T08:05:33Z</time>
      </trkpt>
      <trkpt lat="47.4786210" lon="8.2216030">
        <ele>361.0</ele>
        <time>2022-06-02T08:05:35Z</time>
      </trkpt>
      <trkpt lat="47.4786410" lon="8.2216110">
        <ele>360.8</ele>
        <time>2022-06-02T08:05:38Z</time>
      </trkpt>
      <trkpt lat="47.4786420" lon="8.2216080">
        <ele>360.8</ele>
        <time>2022-06-02T08:05:41Z</time>
      </trkpt>
      <trkpt lat="47.4786080" lon="8.2214900">
        <ele>359.2</ele>
        <time>2022-06-02T08:21:48Z</time>
      </trkpt>
      <trkpt lat="47.4786010" lon="8.2214740">
        <ele>359.2</ele>
        <time>2022-06-02T08:21:49Z</time>
      </trkpt>
      <trkpt lat="47.4785580" lon="8.2213400">
        <ele>359.6</ele>
        <time>2022-06-02T08:21:55Z</time>
      </trkpt>
      <trkpt lat="47.4785580" lon="8.2213200">
        <ele>359.6</ele>
        <time>2022-06-02T08:21:56Z</time>
      </trkpt>
      <trkpt lat="47.4785970" lon="8.2212330">
        <ele>359.8</ele>
        <time>2022-06-02T08:22:03Z</time>
      </trkpt>
      <trkpt lat="47.4786420" lon="8.2212040">
        <ele>359.8</ele>
        <time>2022-06-02T08:22:10Z</time>
      </trkpt>
      <trkpt lat="47.4786500" lon="8.2212010">
        <ele>359.8</ele>
        <time>2022-06-02T08:22:11Z</time>
      </trkpt>
      <trkpt lat="47.4786550" lon="8.2211960">
        <ele>360.0</ele>
        <time>2022-06-02T08:22:14Z</time>
      </trkpt>
      <trkpt lat="47.4786940" lon="8.2211880">
        <ele>360.4</ele>
        <time>2022-06-02T08:22:34Z</time>
      </trkpt>
      <trkpt lat="47.4788700" lon="8.2210880">
        <ele>360.2</ele>
        <time>2022-06-02T08:22:41Z</time>
      </trkpt>
      <trkpt lat="47.4790310" lon="8.2210100">
        <ele>360.2</ele>
        <time>2022-06-02T08:22:47Z</time>
      </trkpt>
      <trkpt lat="47.4792150" lon="8.2209230">
        <ele>360.4</ele>
        <time>2022-06-02T08:22:53Z</time>
      </trkpt>
      <trkpt lat="47.4794550" lon="8.2208240">
        <ele>360.8</ele>
        <time>2022-06-02T08:23:01Z</time>
      </trkpt>
      <trkpt lat="47.4797120" lon="8.2207100">
        <ele>361.0</ele>
        <time>2022-06-02T08:23:09Z</time>
      </trkpt>
      <trkpt lat="47.4798370" lon="8.2206600">
        <ele>361.4</ele>
        <time>2022-06-02T08:23:13Z</time>
      </trkpt>
      <trkpt lat="47.4799370" lon="8.2206220">
        <ele>361.6</ele>
        <time>2022-06-02T08:23:17Z</time>
      </trkpt>
      <trkpt lat="47.4801450" lon="8.2205370">
        <ele>362.0</ele>
        <time>2022-06-02T08:23:24Z</time>
      </trkpt>
      <trkpt lat="47.4801670" lon="8.2203360">
        <ele>362.0</ele>
        <time>2022-06-02T08:23:28Z</time>
      </trkpt>
      <trkpt lat="47.4800720" lon="8.2199940">
        <ele>361.8</ele>
        <time>2022-06-02T08:23:35Z</time>
      </trkpt>
      <trkpt lat="47.4799670" lon="8.2196810">
        <ele>362.0</ele>
        <time>2022-06-02T08:23:42Z</time>
      </trkpt>
      <trkpt lat="47.4799720" lon="8.2196390">
        <ele>362.0</ele>
        <time>2022-06-02T08:23:43Z</time>
      </trkpt>
      <trkpt lat="47.4800180" lon="8.2195750">
        <ele>361.8</ele>
        <time>2022-06-02T08:23:45Z</time>
      </trkpt>
      <trkpt lat="47.4801840" lon="8.2194910">
        <ele>361.8</ele>
        <time>2022-06-02T08:23:51Z</time>
      </trkpt>
      <trkpt lat="47.4804250" lon="8.2194310">
        <ele>361.8</ele>
        <time>2022-06-02T08:23:58Z</time>
      </trkpt>
      <trkpt lat="47.4807360" lon="8.2193280">
        <ele>361.6</ele>
        <time>2022-06-02T08:24:07Z</time>
      </trkpt>
      <trkpt lat="47.4810820" lon="8.2192140">
        <ele>361.4</ele>
        <time>2022-06-02T08:24:17Z</time>
      </trkpt>
      <trkpt lat="47.4814390" lon="8.2190940">
        <ele>361.0</ele>
        <time>2022-06-02T08:24:27Z</time>
      </trkpt>
      <trkpt lat="47.4819060" lon="8.2189430">
        <ele>361.0</ele>
        <time>2022-06-02T08:24:39Z</time>
      </trkpt>
      <trkpt lat="47.4819910" lon="8.2188970">
        <ele>361.0</ele>
        <time>2022-06-02T08:24:41Z</time>
      </trkpt>
      <trkpt lat="47.4820180" lon="8.2188500">
        <ele>361.0</ele>
        <time>2022-06-02T08:24:42Z</time>
      </trkpt>
      <trkpt lat="47.4820300" lon="8.2186750">
        <ele>361.0</ele>
        <time>2022-06-02T08:24:45Z</time>
      </trkpt>
      <trkpt lat="47.4820120" lon="8.2183250">
        <ele>361.0</ele>
        <time>2022-06-02T08:24:51Z</time>
      </trkpt>
      <trkpt lat="47.4820260" lon="8.2182020">
        <ele>361.0</ele>
        <time>2022-06-02T08:24:53Z</time>
      </trkpt>
      <trkpt lat="47.4820880" lon="8.2180610">
        <ele>361.2</ele>
        <time>2022-06-02T08:24:56Z</time>
      </trkpt>
      <trkpt lat="47.4820950" lon="8.2180080">
        <ele>361.2</ele>
        <time>2022-06-02T08:24:57Z</time>
      </trkpt>
      <trkpt lat="47.4821130" lon="8.2176800">
        <ele>361.0</ele>
        <time>2022-06-02T08:25:03Z</time>
      </trkpt>
      <trkpt lat="47.4821300" lon="8.2174870">
        <ele>361.0</ele>
        <time>2022-06-02T08:25:09Z</time>
      </trkpt>
      <trkpt lat="47.4821160" lon="8.2174570">
        <ele>361.0</ele>
        <time>2022-06-02T08:25:13Z</time>
      </trkpt>
      <trkpt lat="47.4820770" lon="8.2174570">
        <ele>361.2</ele>
        <time>2022-06-02T08:25:15Z</time>
      </trkpt>
      <trkpt lat="47.4818940" lon="8.2173870">
        <ele>360.8</ele>
        <time>2022-06-02T08:25:22Z</time>
      </trkpt>
      <trkpt lat="47.4818120" lon="8.2174010">
        <ele>360.6</ele>
        <time>2022-06-02T08:25:26Z</time>
      </trkpt>
      <trkpt lat="47.4817960" lon="8.2174130">
        <ele>360.4</ele>
        <time>2022-06-02T08:25:27Z</time>
      </trkpt>
      <trkpt lat="47.4817870" lon="8.2174340">
        <ele>360.4</ele>
        <time>2022-06-02T08:25:31Z</time>
      </trkpt>
      <trkpt lat="47.4818360" lon="8.2173930">
        <ele>359.8</ele>
        <time>2022-06-02T08:26:54Z</time>
      </trkpt>
      <trkpt lat="47.4818780" lon="8.2173980">
        <ele>359.8</ele>
        <time>2022-06-02T08:26:56Z</time>
      </trkpt>
      <trkpt lat="47.4820170" lon="8.2174860">
        <ele>359.6</ele>
        <time>2022-06-02T08:27:02Z</time>
      </trkpt>
      <trkpt lat="47.4820830" lon="8.2174880">
        <ele>359.6</ele>
        <time>2022-06-02T08:27:05Z</time>
      </trkpt>
      <trkpt lat="47.4821040" lon="8.2174650">
        <ele>359.6</ele>
        <time>2022-06-02T08:27:06Z</time>
      </trkpt>
      <trkpt lat="47.4821720" lon="8.2172520">
        <ele>359.8</ele>
        <time>2022-06-02T08:27:12Z</time>
      </trkpt>
      <trkpt lat="47.4822000" lon="8.2171580">
        <ele>359.8</ele>
        <time>2022-06-02T08:27:16Z</time>
      </trkpt>
      <trkpt lat="47.4822070" lon="8.2171370">
        <ele>359.8</ele>
        <time>2022-06-02T08:27:17Z</time>
      </trkpt>
      <trkpt lat="47.4822210" lon="8.2170990">
        <ele>359.8</ele>
        <time>2022-06-02T08:27:20Z</time>
      </trkpt>
      <trkpt lat="47.4822280" lon="8.2170330">
        <ele>359.8</ele>
        <time>2022-06-02T08:27:25Z</time>
      </trkpt>
      <trkpt lat="47.4822750" lon="8.2168950">
        <ele>359.8</ele>
        <time>2022-06-02T08:27:31Z</time>
      </trkpt>
      <trkpt lat="47.4823390" lon="8.2166500">
        <ele>360.0</ele>
        <time>2022-06-02T08:27:38Z</time>
      </trkpt>
      <trkpt lat="47.4824230" lon="8.2163680">
        <ele>360.0</ele>
        <time>2022-06-02T08:27:45Z</time>
      </trkpt>
      <trkpt lat="47.4824980" lon="8.2160370">
        <ele>360.0</ele>
        <time>2022-06-02T08:27:52Z</time>
      </trkpt>
      <trkpt lat="47.4825840" lon="8.2156950">
        <ele>359.8</ele>
        <time>2022-06-02T08:28:00Z</time>
      </trkpt>
      <trkpt lat="47.4826260" lon="8.2156480">
        <ele>359.6</ele>
        <time>2022-06-02T08:28:05Z</time>
      </trkpt>
      <trkpt lat="47.4826360" lon="8.2156120">
        <ele>359.6</ele>
        <time>2022-06-02T08:28:09Z</time>
      </trkpt>
      <trkpt lat="47.4826260" lon="8.2156100">
        <ele>359.8</ele>
        <time>2022-06-02T08:28:11Z</time>
      </trkpt>
      <trkpt lat="47.4826200" lon="8.2156200">
        <ele>359.8</ele>
        <time>2022-06-02T08:28:13Z</time>
      </trkpt>
      <trkpt lat="47.4826160" lon="8.2157560">
        <ele>359.8</ele>
        <time>2022-06-02T08:28:20Z</time>
      </trkpt>
      <trkpt lat="47.4825450" lon="8.2159800">
        <ele>360.2</ele>
        <time>2022-06-02T08:28:30Z</time>
      </trkpt>
      <trkpt lat="47.4825220" lon="8.2160860">
        <ele>360.2</ele>
        <time>2022-06-02T08:28:35Z</time>
      </trkpt>
      <trkpt lat="47.4825220" lon="8.2160810">
        <ele>360.2</ele>
        <time>2022-06-02T08:28:36Z</time>
      </trkpt>
      <trkpt lat="47.4825690" lon="8.2160290">
        <ele>360.2</ele>
        <time>2022-06-02T08:28:38Z</time>
      </trkpt>
      <trkpt lat="47.4826690" lon="8.2158170">
        <ele>360.0</ele>
        <time>2022-06-02T08:28:43Z</time>
      </trkpt>
      <trkpt lat="47.4827390" lon="8.2156040">
        <ele>359.4</ele>
        <time>2022-06-02T08:28:47Z</time>
      </trkpt>
      <trkpt lat="47.4827810" lon="8.2154600">
        <ele>359.0</ele>
        <time>2022-06-02T08:28:49Z</time>
      </trkpt>
      <trkpt lat="47.4828040" lon="8.2153770">
        <ele>358.8</ele>
        <time>2022-06-02T08:28:50Z</time>
      </trkpt>
      <trkpt lat="47.4828780" lon="8.2150860">
        <ele>358.0</ele>
        <time>2022-06-02T08:28:53Z</time>
      </trkpt>
      <trkpt lat="47.4828960" lon="8.2149490">
        <ele>357.4</ele>
        <time>2022-06-02T08:28:54Z</time>
      </trkpt>
      <trkpt lat="47.4829020" lon="8.2147170">
        <ele>356.6</ele>
        <time>2022-06-02T08:28:56Z</time>
      </trkpt>
      <trkpt lat="47.4828910" lon="8.2145540">
        <ele>356.0</ele>
        <time>2022-06-02T08:28:57Z</time>
      </trkpt>
      <trkpt lat="47.4828860" lon="8.2143320">
        <ele>355.0</ele>
        <time>2022-06-02T08:28:59Z</time>
      </trkpt>
      <trkpt lat="47.4828880" lon="8.2142180">
        <ele>354.6</ele>
        <time>2022-06-02T08:29:00Z</time>
      </trkpt>
      <trkpt lat="47.4828930" lon="8.2139760">
        <ele>353.2</ele>
        <time>2022-06-02T08:29:02Z</time>
      </trkpt>
      <trkpt lat="47.4828950" lon="8.2138190">
        <ele>352.2</ele>
        <time>2022-06-02T08:29:04Z</time>
      </trkpt>
      <trkpt lat="47.4828890" lon="8.2137590">
        <ele>352.0</ele>
        <time>2022-06-02T08:29:05Z</time>
      </trkpt>
      <trkpt lat="47.4828810" lon="8.2136310">
        <ele>351.4</ele>
        <time>2022-06-02T08:29:07Z</time>
      </trkpt>
      <trkpt lat="47.4828680" lon="8.2135720">
        <ele>351.0</ele>
        <time>2022-06-02T08:29:08Z</time>
      </trkpt>
      <trkpt lat="47.4828790" lon="8.2135440">
        <ele>350.8</ele>
        <time>2022-06-02T08:29:09Z</time>
      </trkpt>
      <trkpt lat="47.4829460" lon="8.2135270">
        <ele>350.4</ele>
        <time>2022-06-02T08:29:11Z</time>
      </trkpt>
      <trkpt lat="47.4829840" lon="8.2135140">
        <ele>350.2</ele>
        <time>2022-06-02T08:29:12Z</time>
      </trkpt>
      <trkpt lat="47.4829840" lon="8.2135140">
        <ele>350.0</ele>
        <time>2022-06-02T08:29:13Z</time>
      </trkpt>
      <trkpt lat="47.4829840" lon="8.2135140">
        <ele>348.8</ele>
        <time>2022-06-02T08:29:18Z</time>
      </trkpt>
      <trkpt lat="47.4833470" lon="8.2133950">
        <ele>348.6</ele>
        <time>2022-06-02T08:29:21Z</time>
      </trkpt>
      <trkpt lat="47.4833900" lon="8.2132610">
        <ele>348.6</ele>
        <time>2022-06-02T08:29:23Z</time>
      </trkpt>
      <trkpt lat="47.4833610" lon="8.2129080">
        <ele>349.2</ele>
        <time>2022-06-02T08:29:31Z</time>
      </trkpt>
      <trkpt lat="47.4833140" lon="8.2125350">
        <ele>349.8</ele>
        <time>2022-06-02T08:29:38Z</time>
      </trkpt>
      <trkpt lat="47.4832710" lon="8.2122460">
        <ele>350.4</ele>
        <time>2022-06-02T08:29:44Z</time>
      </trkpt>
      <trkpt lat="47.4832300" lon="8.2119640">
        <ele>350.6</ele>
        <time>2022-06-02T08:29:48Z</time>
      </trkpt>
      <trkpt lat="47.4832820" lon="8.2116860">
        <ele>350.8</ele>
        <time>2022-06-02T08:29:53Z</time>
      </trkpt>
      <trkpt lat="47.4833720" lon="8.2115000">
        <ele>351.0</ele>
        <time>2022-06-02T08:29:57Z</time>
      </trkpt>
      <trkpt lat="47.4835120" lon="8.2112170">
        <ele>351.4</ele>
        <time>2022-06-02T08:30:03Z</time>
      </trkpt>
      <trkpt lat="47.4837010" lon="8.2108990">
        <ele>352.0</ele>
        <time>2022-06-02T08:30:10Z</time>
      </trkpt>
      <trkpt lat="47.4837690" lon="8.2108140">
        <ele>352.2</ele>
        <time>2022-06-02T08:30:12Z</time>
      </trkpt>
      <trkpt lat="47.4838970" lon="8.2106360">
        <ele>352.2</ele>
        <time>2022-06-02T08:30:16Z</time>
      </trkpt>
      <trkpt lat="47.4839290" lon="8.2105900">
        <ele>352.2</ele>
        <time>2022-06-02T08:30:17Z</time>
      </trkpt>
      <trkpt lat="47.4839720" lon="8.2105400">
        <ele>352.2</ele>
        <time>2022-06-02T08:30:18Z</time>
      </trkpt>
      <trkpt lat="47.4841430" lon="8.2103220">
        <ele>352.0</ele>
        <time>2022-06-02T08:30:23Z</time>
      </trkpt>
      <trkpt lat="47.4843160" lon="8.2100450">
        <ele>351.8</ele>
        <time>2022-06-02T08:30:29Z</time>
      </trkpt>
      <trkpt lat="47.4843700" lon="8.2099690">
        <ele>351.6</ele>
        <time>2022-06-02T08:30:31Z</time>
      </trkpt>
      <trkpt lat="47.4845570" lon="8.2097140">
        <ele>351.4</ele>
        <time>2022-06-02T08:30:37Z</time>
      </trkpt>
      <trkpt lat="47.4847160" lon="8.2093840">
        <ele>351.4</ele>
        <time>2022-06-02T08:30:44Z</time>
      </trkpt>
      <trkpt lat="47.4847190" lon="8.2093340">
        <ele>351.4</ele>
        <time>2022-06-02T08:30:45Z</time>
      </trkpt>
      <trkpt lat="47.4846930" lon="8.2092390">
        <ele>351.4</ele>
        <time>2022-06-02T08:30:47Z</time>
      </trkpt>
      <trkpt lat="47.4845200" lon="8.2089920">
        <ele>351.4</ele>
        <time>2022-06-02T08:30:53Z</time>
      </trkpt>
      <trkpt lat="47.4842840" lon="8.2085840">
        <ele>351.6</ele>
        <time>2022-06-02T08:31:02Z</time>
      </trkpt>
      <trkpt lat="47.4842570" lon="8.2085390">
        <ele>351.6</ele>
        <time>2022-06-02T08:31:03Z</time>
      </trkpt>
      <trkpt lat="47.4841320" lon="8.2082920">
        <ele>351.8</ele>
        <time>2022-06-02T08:31:08Z</time>
      </trkpt>
      <trkpt lat="47.4840910" lon="8.2081930">
        <ele>351.8</ele>
        <time>2022-06-02T08:31:10Z</time>
      </trkpt>
      <trkpt lat="47.4839360" lon="8.2078180">
        <ele>352.2</ele>
        <time>2022-06-02T08:31:18Z</time>
      </trkpt>
      <trkpt lat="47.4838420" lon="8.2075230">
        <ele>352.4</ele>
        <time>2022-06-02T08:31:24Z</time>
      </trkpt>
      <trkpt lat="47.4838390" lon="8.2074810">
        <ele>352.6</ele>
        <time>2022-06-02T08:31:25Z</time>
      </trkpt>
      <trkpt lat="47.4838570" lon="8.2073690">
        <ele>352.8</ele>
        <time>2022-06-02T08:31:28Z</time>
      </trkpt>
      <trkpt lat="47.4838820" lon="8.2073410">
        <ele>352.8</ele>
        <time>2022-06-02T08:31:29Z</time>
      </trkpt>
      <trkpt lat="47.4840120" lon="8.2072380">
        <ele>352.8</ele>
        <time>2022-06-02T08:31:33Z</time>
      </trkpt>
      <trkpt lat="47.4841680" lon="8.2070790">
        <ele>352.6</ele>
        <time>2022-06-02T08:31:38Z</time>
      </trkpt>
      <trkpt lat="47.4841910" lon="8.2069120">
        <ele>352.4</ele>
        <time>2022-06-02T08:31:41Z</time>
      </trkpt>
      <trkpt lat="47.4841990" lon="8.2065440">
        <ele>352.4</ele>
        <time>2022-06-02T08:31:47Z</time>
      </trkpt>
      <trkpt lat="47.4841860" lon="8.2062230">
        <ele>352.4</ele>
        <time>2022-06-02T08:31:53Z</time>
      </trkpt>
      <trkpt lat="47.4842340" lon="8.2057220">
        <ele>352.4</ele>
        <time>2022-06-02T08:32:01Z</time>
      </trkpt>
      <trkpt lat="47.4842270" lon="8.2056630">
        <ele>352.4</ele>
        <time>2022-06-02T08:32:02Z</time>
      </trkpt>
      <trkpt lat="47.4841960" lon="8.2053660">
        <ele>352.6</ele>
        <time>2022-06-02T08:32:07Z</time>
      </trkpt>
      <trkpt lat="47.4841610" lon="8.2051700">
        <ele>352.6</ele>
        <time>2022-06-02T08:32:10Z</time>
      </trkpt>
      <trkpt lat="47.4840790" lon="8.2048670">
        <ele>352.6</ele>
        <time>2022-06-02T08:32:15Z</time>
      </trkpt>
      <trkpt lat="47.4840200" lon="8.2046220">
        <ele>352.6</ele>
        <time>2022-06-02T08:32:20Z</time>
      </trkpt>
      <trkpt lat="47.4839200" lon="8.2043400">
        <ele>352.2</ele>
        <time>2022-06-02T08:32:26Z</time>
      </trkpt>
      <trkpt lat="47.4838750" lon="8.2042150">
        <ele>352.0</ele>
        <time>2022-06-02T08:32:28Z</time>
      </trkpt>
      <trkpt lat="47.4838850" lon="8.2040870">
        <ele>351.8</ele>
        <time>2022-06-02T08:32:30Z</time>
      </trkpt>
      <trkpt lat="47.4839160" lon="8.2040410">
        <ele>351.8</ele>
        <time>2022-06-02T08:32:31Z</time>
      </trkpt>
      <trkpt lat="47.4839540" lon="8.2040160">
        <ele>351.6</ele>
        <time>2022-06-02T08:32:32Z</time>
      </trkpt>
      <trkpt lat="47.4839970" lon="8.2040030">
        <ele>351.6</ele>
        <time>2022-06-02T08:32:33Z</time>
      </trkpt>
      <trkpt lat="47.4841630" lon="8.2039890">
        <ele>351.2</ele>
        <time>2022-06-02T08:32:37Z</time>
      </trkpt>
      <trkpt lat="47.4842770" lon="8.2039760">
        <ele>351.0</ele>
        <time>2022-06-02T08:32:40Z</time>
      </trkpt>
      <trkpt lat="47.4844100" lon="8.2039530">
        <ele>351.0</ele>
        <time>2022-06-02T08:32:43Z</time>
      </trkpt>
      <trkpt lat="47.4844880" lon="8.2039030">
        <ele>350.8</ele>
        <time>2022-06-02T08:32:45Z</time>
      </trkpt>
      <trkpt lat="47.4845220" lon="8.2037340">
        <ele>350.6</ele>
        <time>2022-06-02T08:32:48Z</time>
      </trkpt>
      <trkpt lat="47.4844810" lon="8.2033350">
        <ele>350.6</ele>
        <time>2022-06-02T08:32:54Z</time>
      </trkpt>
      <trkpt lat="47.4844000" lon="8.2029120">
        <ele>350.0</ele>
        <time>2022-06-02T08:33:00Z</time>
      </trkpt>
      <trkpt lat="47.4843890" lon="8.2028470">
        <ele>350.0</ele>
        <time>2022-06-02T08:33:01Z</time>
      </trkpt>
      <trkpt lat="47.4843580" lon="8.2025390">
        <ele>349.6</ele>
        <time>2022-06-02T08:33:06Z</time>
      </trkpt>
      <trkpt lat="47.4843440" lon="8.2024160">
        <ele>349.4</ele>
        <time>2022-06-02T08:33:08Z</time>
      </trkpt>
      <trkpt lat="47.4843120" lon="8.2021320">
        <ele>349.2</ele>
        <time>2022-06-02T08:33:14Z</time>
      </trkpt>
      <trkpt lat="47.4842860" lon="8.2018490">
        <ele>349.0</ele>
        <time>2022-06-02T08:33:21Z</time>
      </trkpt>
      <trkpt lat="47.4842800" lon="8.2018100">
        <ele>349.0</ele>
        <time>2022-06-02T08:33:22Z</time>
      </trkpt>
      <trkpt lat="47.4842160" lon="8.2014290">
        <ele>348.6</ele>
        <time>2022-06-02T08:33:30Z</time>
      </trkpt>
      <trkpt lat="47.4841830" lon="8.2010930">
        <ele>348.4</ele>
        <time>2022-06-02T08:33:36Z</time>
      </trkpt>
      <trkpt lat="47.4841970" lon="8.2009330">
        <ele>348.0</ele>
        <time>2022-06-02T08:33:40Z</time>
      </trkpt>
      <trkpt lat="47.4842100" lon="8.2009050">
        <ele>347.8</ele>
        <time>2022-06-02T08:33:41Z</time>
      </trkpt>
      <trkpt lat="47.4843310" lon="8.2007350">
        <ele>346.8</ele>
        <time>2022-06-02T08:33:47Z</time>
      </trkpt>
      <trkpt lat="47.4844250" lon="8.2005650">
        <ele>345.6</ele>
        <time>2022-06-02T08:33:52Z</time>
      </trkpt>
      <trkpt lat="47.4844270" lon="8.2005190">
        <ele>345.6</ele>
        <time>2022-06-02T08:33:53Z</time>
      </trkpt>
      <trkpt lat="47.4844210" lon="8.2004840">
        <ele>345.0</ele>
        <time>2022-06-02T08:33:54Z</time>
      </trkpt>
      <trkpt lat="47.4843770" lon="8.2004470">
        <ele>344.4</ele>
        <time>2022-06-02T08:33:56Z</time>
      </trkpt>
      <trkpt lat="47.4843300" lon="8.2004160">
        <ele>343.6</ele>
        <time>2022-06-02T08:33:58Z</time>
      </trkpt>
      <trkpt lat="47.4843090" lon="8.2004000">
        <ele>343.0</ele>
        <time>2022-06-02T08:33:59Z</time>
      </trkpt>
      <trkpt lat="47.4842980" lon="8.2003830">
        <ele>342.8</ele>
        <time>2022-06-02T08:34:00Z</time>
      </trkpt>
      <trkpt lat="47.4842990" lon="8.2003350">
        <ele>342.4</ele>
        <time>2022-06-02T08:34:02Z</time>
      </trkpt>
      <trkpt lat="47.4843040" lon="8.2002920">
        <ele>342.0</ele>
        <time>2022-06-02T08:34:03Z</time>
      </trkpt>
      <trkpt lat="47.4843280" lon="8.2001800">
        <ele>341.2</ele>
        <time>2022-06-02T08:34:06Z</time>
      </trkpt>
      <trkpt lat="47.4843330" lon="8.2001610">
        <ele>341.0</ele>
        <time>2022-06-02T08:34:07Z</time>
      </trkpt>
      <trkpt lat="47.4843330" lon="8.2001520">
        <ele>341.0</ele>
        <time>2022-06-02T08:34:08Z</time>
      </trkpt>
      <trkpt lat="47.4843330" lon="8.2001410">
        <ele>341.0</ele>
        <time>2022-06-02T08:34:09Z</time>
      </trkpt>
      <trkpt lat="47.4843180" lon="8.2001080">
        <ele>340.8</ele>
        <time>2022-06-02T08:34:13Z</time>
      </trkpt>
      <trkpt lat="47.4843050" lon="8.2001000">
        <ele>340.8</ele>
        <time>2022-06-02T08:34:15Z</time>
      </trkpt>
      <trkpt lat="47.4843050" lon="8.2001000">
        <ele>340.6</ele>
        <time>2022-06-02T08:34:17Z</time>
      </trkpt>
      <trkpt lat="47.4842810" lon="8.2000760">
        <ele>340.6</ele>
        <time>2022-06-02T08:34:46Z</time>
      </trkpt>
      <trkpt lat="47.4842230" lon="8.2000580">
        <ele>340.4</ele>
        <time>2022-06-02T08:34:48Z</time>
      </trkpt>
      <trkpt lat="47.4840390" lon="8.1999930">
        <ele>340.2</ele>
        <time>2022-06-02T08:34:53Z</time>
      </trkpt>
      <trkpt lat="47.4839980" lon="8.1999780">
        <ele>340.2</ele>
        <time>2022-06-02T08:34:54Z</time>
      </trkpt>
      <trkpt lat="47.4839280" lon="8.1999140">
        <ele>340.2</ele>
        <time>2022-06-02T08:34:56Z</time>
      </trkpt>
      <trkpt lat="47.4838930" lon="8.1998620">
        <ele>340.0</ele>
        <time>2022-06-02T08:34:57Z</time>
      </trkpt>
      <trkpt lat="47.4838360" lon="8.1997450">
        <ele>339.8</ele>
        <time>2022-06-02T08:34:59Z</time>
      </trkpt>
      <trkpt lat="47.4837700" lon="8.1996500">
        <ele>339.4</ele>
        <time>2022-06-02T08:35:01Z</time>
      </trkpt>
      <trkpt lat="47.4837150" lon="8.1995480">
        <ele>339.2</ele>
        <time>2022-06-02T08:35:03Z</time>
      </trkpt>
      <trkpt lat="47.4835890" lon="8.1992760">
        <ele>338.6</ele>
        <time>2022-06-02T08:35:08Z</time>
      </trkpt>
      <trkpt lat="47.4834520" lon="8.1989570">
        <ele>338.6</ele>
        <time>2022-06-02T08:35:14Z</time>
      </trkpt>
      <trkpt lat="47.4833330" lon="8.1986910">
        <ele>338.6</ele>
        <time>2022-06-02T08:35:19Z</time>
      </trkpt>
      <trkpt lat="47.4832280" lon="8.1983710">
        <ele>338.8</ele>
        <time>2022-06-02T08:35:24Z</time>
      </trkpt>
      <trkpt lat="47.4831770" lon="8.1979510">
        <ele>338.8</ele>
        <time>2022-06-02T08:35:31Z</time>
      </trkpt>
      <trkpt lat="47.4831680" lon="8.1976540">
        <ele>339.0</ele>
        <time>2022-06-02T08:35:36Z</time>
      </trkpt>
      <trkpt lat="47.4831640" lon="8.1976110">
        <ele>339.0</ele>
        <time>2022-06-02T08:35:37Z</time>
      </trkpt>
      <trkpt lat="47.4831020" lon="8.1974320">
        <ele>339.0</ele>
        <time>2022-06-02T08:35:42Z</time>
      </trkpt>
      <trkpt lat="47.4830780" lon="8.1973940">
        <ele>339.2</ele>
        <time>2022-06-02T08:35:45Z</time>
      </trkpt>
      <trkpt lat="47.4830560" lon="8.1973600">
        <ele>339.4</ele>
        <time>2022-06-02T08:35:47Z</time>
      </trkpt>
      <trkpt lat="47.4830200" lon="8.1973140">
        <ele>340.2</ele>
        <time>2022-06-02T08:35:52Z</time>
      </trkpt>
      <trkpt lat="47.4830010" lon="8.1972850">
        <ele>340.6</ele>
        <time>2022-06-02T08:35:54Z</time>
      </trkpt>
      <trkpt lat="47.4829560" lon="8.1972040">
        <ele>341.2</ele>
        <time>2022-06-02T08:35:58Z</time>
      </trkpt>
      <trkpt lat="47.4829210" lon="8.1971580">
        <ele>342.4</ele>
        <time>2022-06-02T08:36:01Z</time>
      </trkpt>
      <trkpt lat="47.4828490" lon="8.1970490">
        <ele>343.4</ele>
        <time>2022-06-02T08:36:07Z</time>
      </trkpt>
      <trkpt lat="47.4828470" lon="8.1970420">
        <ele>343.6</ele>
        <time>2022-06-02T08:36:09Z</time>
      </trkpt>
      <trkpt lat="47.4828390" lon="8.1970290">
        <ele>344.4</ele>
        <time>2022-06-02T08:36:14Z</time>
      </trkpt>
      <trkpt lat="47.4828020" lon="8.1969680">
        <ele>343.6</ele>
        <time>2022-06-02T08:37:30Z</time>
      </trkpt>
      <trkpt lat="47.4827700" lon="8.1969280">
        <ele>343.6</ele>
        <time>2022-06-02T08:37:33Z</time>
      </trkpt>
      <trkpt lat="47.4826980" lon="8.1968120">
        <ele>344.6</ele>
        <time>2022-06-02T08:37:40Z</time>
      </trkpt>
      <trkpt lat="47.4826930" lon="8.1967900">
        <ele>344.6</ele>
        <time>2022-06-02T08:37:41Z</time>
      </trkpt>
      <trkpt lat="47.4826960" lon="8.1967820">
        <ele>344.8</ele>
        <time>2022-06-02T08:37:44Z</time>
      </trkpt>
      <trkpt lat="47.4829670" lon="8.1963990">
        <ele>345.6</ele>
        <time>2022-06-02T08:38:19Z</time>
      </trkpt>
      <trkpt lat="47.4829980" lon="8.1963520">
        <ele>345.6</ele>
        <time>2022-06-02T08:38:22Z</time>
      </trkpt>
      <trkpt lat="47.4830690" lon="8.1962390">
        <ele>345.6</ele>
        <time>2022-06-02T08:38:29Z</time>
      </trkpt>
      <trkpt lat="47.4830860" lon="8.1962160">
        <ele>345.6</ele>
        <time>2022-06-02T08:38:33Z</time>
      </trkpt>
      <trkpt lat="47.4831820" lon="8.1960560">
        <ele>346.0</ele>
        <time>2022-06-02T08:40:24Z</time>
      </trkpt>
      <trkpt lat="47.4832770" lon="8.1958960">
        <ele>346.0</ele>
        <time>2022-06-02T08:40:31Z</time>
      </trkpt>
      <trkpt lat="47.4832920" lon="8.1958740">
        <ele>346.0</ele>
        <time>2022-06-02T08:40:32Z</time>
      </trkpt>
      <trkpt lat="47.4833510" lon="8.1957820">
        <ele>346.0</ele>
        <time>2022-06-02T08:40:36Z</time>
      </trkpt>
      <trkpt lat="47.4834270" lon="8.1956110">
        <ele>346.0</ele>
        <time>2022-06-02T08:40:42Z</time>
      </trkpt>
      <trkpt lat="47.4835570" lon="8.1954130">
        <ele>346.2</ele>
        <time>2022-06-02T08:40:48Z</time>
      </trkpt>
      <trkpt lat="47.4835770" lon="8.1953680">
        <ele>346.2</ele>
        <time>2022-06-02T08:40:49Z</time>
      </trkpt>
      <trkpt lat="47.4836200" lon="8.1951760">
        <ele>346.4</ele>
        <time>2022-06-02T08:40:55Z</time>
      </trkpt>
      <trkpt lat="47.4836320" lon="8.1950840">
        <ele>346.6</ele>
        <time>2022-06-02T08:40:59Z</time>
      </trkpt>
      <trkpt lat="47.4836140" lon="8.1950600">
        <ele>346.4</ele>
        <time>2022-06-02T08:41:01Z</time>
      </trkpt>
      <trkpt lat="47.4835970" lon="8.1950440">
        <ele>346.4</ele>
        <time>2022-06-02T08:41:03Z</time>
      </trkpt>
      <trkpt lat="47.4835980" lon="8.1948090">
        <ele>345.8</ele>
        <time>2022-06-02T08:41:07Z</time>
      </trkpt>
      <trkpt lat="47.4835610" lon="8.1946460">
        <ele>345.0</ele>
        <time>2022-06-02T08:41:10Z</time>
      </trkpt>
      <trkpt lat="47.4835440" lon="8.1945870">
        <ele>344.6</ele>
        <time>2022-06-02T08:41:11Z</time>
      </trkpt>
      <trkpt lat="47.4835120" lon="8.1944190">
        <ele>344.0</ele>
        <time>2022-06-02T08:41:15Z</time>
      </trkpt>
      <trkpt lat="47.4834760" lon="8.1942950">
        <ele>343.8</ele>
        <time>2022-06-02T08:41:18Z</time>
      </trkpt>
      <trkpt lat="47.4833950" lon="8.1939980">
        <ele>344.2</ele>
        <time>2022-06-02T08:41:26Z</time>
      </trkpt>
      <trkpt lat="47.4833350" lon="8.1938470">
        <ele>344.2</ele>
        <time>2022-06-02T08:41:31Z</time>
      </trkpt>
      <trkpt lat="47.4832950" lon="8.1937410">
        <ele>344.0</ele>
        <time>2022-06-02T08:41:38Z</time>
      </trkpt>
      <trkpt lat="47.4832820" lon="8.1937110">
        <ele>344.0</ele>
        <time>2022-06-02T08:41:41Z</time>
      </trkpt>
      <trkpt lat="47.4832820" lon="8.1936860">
        <ele>344.0</ele>
        <time>2022-06-02T08:41:45Z</time>
      </trkpt>
      <trkpt lat="47.4832600" lon="8.1936710">
        <ele>344.0</ele>
        <time>2022-06-02T08:41:48Z</time>
      </trkpt>
      <trkpt lat="47.4832470" lon="8.1936600">
        <ele>344.0</ele>
        <time>2022-06-02T08:41:49Z</time>
      </trkpt>
      <trkpt lat="47.4832180" lon="8.1935040">
        <ele>344.0</ele>
        <time>2022-06-02T08:41:54Z</time>
      </trkpt>
      <trkpt lat="47.4831490" lon="8.1933400">
        <ele>344.0</ele>
        <time>2022-06-02T08:41:59Z</time>
      </trkpt>
      <trkpt lat="47.4831150" lon="8.1930900">
        <ele>344.4</ele>
        <time>2022-06-02T08:42:05Z</time>
      </trkpt>
      <trkpt lat="47.4830350" lon="8.1927750">
        <ele>345.0</ele>
        <time>2022-06-02T08:42:12Z</time>
      </trkpt>
      <trkpt lat="47.4830190" lon="8.1926880">
        <ele>345.0</ele>
        <time>2022-06-02T08:42:14Z</time>
      </trkpt>
      <trkpt lat="47.4829530" lon="8.1924440">
        <ele>345.6</ele>
        <time>2022-06-02T08:42:20Z</time>
      </trkpt>
      <trkpt lat="47.4828900" lon="8.1922480">
        <ele>346.2</ele>
        <time>2022-06-02T08:42:25Z</time>
      </trkpt>
      <trkpt lat="47.4828630" lon="8.1921830">
        <ele>346.2</ele>
        <time>2022-06-02T08:42:27Z</time>
      </trkpt>
      <trkpt lat="47.4827310" lon="8.1918660">
        <ele>346.4</ele>
        <time>2022-06-02T08:42:36Z</time>
      </trkpt>
      <trkpt lat="47.4826640" lon="8.1916420">
        <ele>347.0</ele>
        <time>2022-06-02T08:42:42Z</time>
      </trkpt>
      <trkpt lat="47.4826250" lon="8.1914840">
        <ele>347.6</ele>
        <time>2022-06-02T08:42:46Z</time>
      </trkpt>
      <trkpt lat="47.4825990" lon="8.1913400">
        <ele>348.0</ele>
        <time>2022-06-02T08:42:50Z</time>
      </trkpt>
      <trkpt lat="47.4825860" lon="8.1912710">
        <ele>348.4</ele>
        <time>2022-06-02T08:42:52Z</time>
      </trkpt>
      <trkpt lat="47.4825650" lon="8.1911390">
        <ele>349.2</ele>
        <time>2022-06-02T08:42:56Z</time>
      </trkpt>
      <trkpt lat="47.4825530" lon="8.1910400">
        <ele>349.4</ele>
        <time>2022-06-02T08:42:59Z</time>
      </trkpt>
      <trkpt lat="47.4825350" lon="8.1909230">
        <ele>350.4</ele>
        <time>2022-06-02T08:43:03Z</time>
      </trkpt>
      <trkpt lat="47.4825310" lon="8.1908610">
        <ele>351.0</ele>
        <time>2022-06-02T08:43:05Z</time>
      </trkpt>
      <trkpt lat="47.4825180" lon="8.1907570">
        <ele>351.6</ele>
        <time>2022-06-02T08:43:08Z</time>
      </trkpt>
      <trkpt lat="47.4825020" lon="8.1906190">
        <ele>352.4</ele>
        <time>2022-06-02T08:43:12Z</time>
      </trkpt>
      <trkpt lat="47.4825010" lon="8.1905850">
        <ele>352.6</ele>
        <time>2022-06-02T08:43:13Z</time>
      </trkpt>
      <trkpt lat="47.4825300" lon="8.1904240">
        <ele>353.8</ele>
        <time>2022-06-02T08:43:19Z</time>
      </trkpt>
      <trkpt lat="47.4825990" lon="8.1903900">
        <ele>354.8</ele>
        <time>2022-06-02T08:43:24Z</time>
      </trkpt>
      <trkpt lat="47.4826150" lon="8.1904000">
        <ele>355.0</ele>
        <time>2022-06-02T08:43:25Z</time>
      </trkpt>
      <trkpt lat="47.4827120" lon="8.1905540">
        <ele>355.6</ele>
        <time>2022-06-02T08:43:31Z</time>
      </trkpt>
      <trkpt lat="47.4828190" lon="8.1906580">
        <ele>356.0</ele>
        <time>2022-06-02T08:43:36Z</time>
      </trkpt>
      <trkpt lat="47.4828800" lon="8.1906950">
        <ele>356.4</ele>
        <time>2022-06-02T08:43:38Z</time>
      </trkpt>
      <trkpt lat="47.4829490" lon="8.1906840">
        <ele>356.6</ele>
        <time>2022-06-02T08:43:40Z</time>
      </trkpt>
      <trkpt lat="47.4829770" lon="8.1906460">
        <ele>356.6</ele>
        <time>2022-06-02T08:43:41Z</time>
      </trkpt>
      <trkpt lat="47.4829960" lon="8.1904320">
        <ele>357.0</ele>
        <time>2022-06-02T08:43:45Z</time>
      </trkpt>
      <trkpt lat="47.4829830" lon="8.1902890">
        <ele>357.0</ele>
        <time>2022-06-02T08:43:48Z</time>
      </trkpt>
      <trkpt lat="47.4829780" lon="8.1901490">
        <ele>357.4</ele>
        <time>2022-06-02T08:43:51Z</time>
      </trkpt>
      <trkpt lat="47.4829710" lon="8.1898180">
        <ele>358.2</ele>
        <time>2022-06-02T08:43:58Z</time>
      </trkpt>
      <trkpt lat="47.4829700" lon="8.1897730">
        <ele>358.2</ele>
        <time>2022-06-02T08:43:59Z</time>
      </trkpt>
      <trkpt lat="47.4829800" lon="8.1895060">
        <ele>359.2</ele>
        <time>2022-06-02T08:44:05Z</time>
      </trkpt>
      <trkpt lat="47.4829760" lon="8.1894190">
        <ele>359.8</ele>
        <time>2022-06-02T08:44:07Z</time>
      </trkpt>
      <trkpt lat="47.4829650" lon="8.1892450">
        <ele>360.2</ele>
        <time>2022-06-02T08:44:11Z</time>
      </trkpt>
      <trkpt lat="47.4829700" lon="8.1891570">
        <ele>360.4</ele>
        <time>2022-06-02T08:44:13Z</time>
      </trkpt>
      <trkpt lat="47.4829730" lon="8.1889600">
        <ele>361.0</ele>
        <time>2022-06-02T08:44:17Z</time>
      </trkpt>
      <trkpt lat="47.4829810" lon="8.1887840">
        <ele>361.6</ele>
        <time>2022-06-02T08:44:21Z</time>
      </trkpt>
      <trkpt lat="47.4829820" lon="8.1886940">
        <ele>362.0</ele>
        <time>2022-06-02T08:44:23Z</time>
      </trkpt>
      <trkpt lat="47.4829910" lon="8.1885640">
        <ele>362.2</ele>
        <time>2022-06-02T08:44:26Z</time>
      </trkpt>
      <trkpt lat="47.4829970" lon="8.1884320">
        <ele>362.6</ele>
        <time>2022-06-02T08:44:29Z</time>
      </trkpt>
      <trkpt lat="47.4829930" lon="8.1882970">
        <ele>363.2</ele>
        <time>2022-06-02T08:44:33Z</time>
      </trkpt>
      <trkpt lat="47.4829860" lon="8.1882760">
        <ele>363.4</ele>
        <time>2022-06-02T08:44:34Z</time>
      </trkpt>
      <trkpt lat="47.4829750" lon="8.1882160">
        <ele>363.6</ele>
        <time>2022-06-02T08:44:36Z</time>
      </trkpt>
      <trkpt lat="47.4829790" lon="8.1881320">
        <ele>364.0</ele>
        <time>2022-06-02T08:44:38Z</time>
      </trkpt>
      <trkpt lat="47.4829750" lon="8.1879070">
        <ele>364.8</ele>
        <time>2022-06-02T08:44:43Z</time>
      </trkpt>
      <trkpt lat="47.4829760" lon="8.1878530">
        <ele>365.0</ele>
        <time>2022-06-02T08:44:44Z</time>
      </trkpt>
      <trkpt lat="47.4829810" lon="8.1876060">
        <ele>365.8</ele>
        <time>2022-06-02T08:44:49Z</time>
      </trkpt>
      <trkpt lat="47.4829790" lon="8.1874240">
        <ele>366.6</ele>
        <time>2022-06-02T08:44:53Z</time>
      </trkpt>
      <trkpt lat="47.4829800" lon="8.1873790">
        <ele>366.8</ele>
        <time>2022-06-02T08:44:54Z</time>
      </trkpt>
      <trkpt lat="47.4829790" lon="8.1871250">
        <ele>368.0</ele>
        <time>2022-06-02T08:45:00Z</time>
      </trkpt>
      <trkpt lat="47.4829790" lon="8.1870070">
        <ele>368.8</ele>
        <time>2022-06-02T08:45:03Z</time>
      </trkpt>
      <trkpt lat="47.4829610" lon="8.1868530">
        <ele>369.0</ele>
        <time>2022-06-02T08:45:07Z</time>
      </trkpt>
      <trkpt lat="47.4829560" lon="8.1868130">
        <ele>369.2</ele>
        <time>2022-06-02T08:45:08Z</time>
      </trkpt>
      <trkpt lat="47.4829400" lon="8.1866040">
        <ele>370.2</ele>
        <time>2022-06-02T08:45:14Z</time>
      </trkpt>
      <trkpt lat="47.4829360" lon="8.1865670">
        <ele>370.4</ele>
        <time>2022-06-02T08:45:15Z</time>
      </trkpt>
      <trkpt lat="47.4829220" lon="8.1864250">
        <ele>371.4</ele>
        <time>2022-06-02T08:45:19Z</time>
      </trkpt>
      <trkpt lat="47.4829140" lon="8.1863580">
        <ele>371.8</ele>
        <time>2022-06-02T08:45:21Z</time>
      </trkpt>
      <trkpt lat="47.4828850" lon="8.1861460">
        <ele>372.6</ele>
        <time>2022-06-02T08:45:27Z</time>
      </trkpt>
      <trkpt lat="47.4828650" lon="8.1860420">
        <ele>373.0</ele>
        <time>2022-06-02T08:45:30Z</time>
      </trkpt>
      <trkpt lat="47.4828470" lon="8.1859360">
        <ele>373.6</ele>
        <time>2022-06-02T08:45:33Z</time>
      </trkpt>
      <trkpt lat="47.4828150" lon="8.1858010">
        <ele>374.8</ele>
        <time>2022-06-02T08:45:37Z</time>
      </trkpt>
      <trkpt lat="47.4828080" lon="8.1857680">
        <ele>375.0</ele>
        <time>2022-06-02T08:45:38Z</time>
      </trkpt>
      <trkpt lat="47.4827650" lon="8.1855630">
        <ele>376.0</ele>
        <time>2022-06-02T08:45:44Z</time>
      </trkpt>
      <trkpt lat="47.4827370" lon="8.1854240">
        <ele>376.6</ele>
        <time>2022-06-02T08:45:48Z</time>
      </trkpt>
      <trkpt lat="47.4827110" lon="8.1853170">
        <ele>377.0</ele>
        <time>2022-06-02T08:45:51Z</time>
      </trkpt>
      <trkpt lat="47.4826680" lon="8.1850950">
        <ele>378.2</ele>
        <time>2022-06-02T08:45:57Z</time>
      </trkpt>
      <trkpt lat="47.4826580" lon="8.1849070">
        <ele>379.2</ele>
        <time>2022-06-02T08:46:02Z</time>
      </trkpt>
      <trkpt lat="47.4826460" lon="8.1848570">
        <ele>379.4</ele>
        <time>2022-06-02T08:46:03Z</time>
      </trkpt>
      <trkpt lat="47.4825590" lon="8.1847100">
        <ele>380.4</ele>
        <time>2022-06-02T08:46:08Z</time>
      </trkpt>
      <trkpt lat="47.4825470" lon="8.1846810">
        <ele>380.4</ele>
        <time>2022-06-02T08:46:09Z</time>
      </trkpt>
      <trkpt lat="47.4824840" lon="8.1844730">
        <ele>381.6</ele>
        <time>2022-06-02T08:46:15Z</time>
      </trkpt>
      <trkpt lat="47.4824610" lon="8.1843690">
        <ele>382.0</ele>
        <time>2022-06-02T08:46:18Z</time>
      </trkpt>
      <trkpt lat="47.4824460" lon="8.1843050">
        <ele>382.6</ele>
        <time>2022-06-02T08:46:20Z</time>
      </trkpt>
      <trkpt lat="47.4824100" lon="8.1841480">
        <ele>383.8</ele>
        <time>2022-06-02T08:46:25Z</time>
      </trkpt>
      <trkpt lat="47.4824000" lon="8.1841060">
        <ele>384.0</ele>
        <time>2022-06-02T08:46:26Z</time>
      </trkpt>
      <trkpt lat="47.4823780" lon="8.1840190">
        <ele>384.8</ele>
        <time>2022-06-02T08:46:29Z</time>
      </trkpt>
      <trkpt lat="47.4823270" lon="8.1838400">
        <ele>385.8</ele>
        <time>2022-06-02T08:46:35Z</time>
      </trkpt>
      <trkpt lat="47.4823210" lon="8.1838120">
        <ele>386.0</ele>
        <time>2022-06-02T08:46:36Z</time>
      </trkpt>
      <trkpt lat="47.4822910" lon="8.1836570">
        <ele>387.0</ele>
        <time>2022-06-02T08:46:41Z</time>
      </trkpt>
      <trkpt lat="47.4822670" lon="8.1835730">
        <ele>387.8</ele>
        <time>2022-06-02T08:46:44Z</time>
      </trkpt>
      <trkpt lat="47.4822480" lon="8.1834840">
        <ele>388.0</ele>
        <time>2022-06-02T08:46:47Z</time>
      </trkpt>
      <trkpt lat="47.4822280" lon="8.1833530">
        <ele>388.8</ele>
        <time>2022-06-02T08:46:51Z</time>
      </trkpt>
      <trkpt lat="47.4822240" lon="8.1832850">
        <ele>389.2</ele>
        <time>2022-06-02T08:46:53Z</time>
      </trkpt>
      <trkpt lat="47.4822070" lon="8.1831380">
        <ele>389.8</ele>
        <time>2022-06-02T08:46:57Z</time>
      </trkpt>
      <trkpt lat="47.4821950" lon="8.1830370">
        <ele>390.6</ele>
        <time>2022-06-02T08:47:00Z</time>
      </trkpt>
      <trkpt lat="47.4821710" lon="8.1828690">
        <ele>391.4</ele>
        <time>2022-06-02T08:47:05Z</time>
      </trkpt>
      <trkpt lat="47.4821640" lon="8.1828020">
        <ele>391.8</ele>
        <time>2022-06-02T08:47:07Z</time>
      </trkpt>
      <trkpt lat="47.4821350" lon="8.1826270">
        <ele>392.4</ele>
        <time>2022-06-02T08:47:12Z</time>
      </trkpt>
      <trkpt lat="47.4821280" lon="8.1825580">
        <ele>393.0</ele>
        <time>2022-06-02T08:47:14Z</time>
      </trkpt>
      <trkpt lat="47.4821020" lon="8.1823680">
        <ele>394.2</ele>
        <time>2022-06-02T08:47:20Z</time>
      </trkpt>
      <trkpt lat="47.4820760" lon="8.1821920">
        <ele>395.2</ele>
        <time>2022-06-02T08:47:25Z</time>
      </trkpt>
      <trkpt lat="47.4820610" lon="8.1821200">
        <ele>395.4</ele>
        <time>2022-06-02T08:47:27Z</time>
      </trkpt>
      <trkpt lat="47.4820520" lon="8.1819700">
        <ele>396.2</ele>
        <time>2022-06-02T08:47:31Z</time>
      </trkpt>
      <trkpt lat="47.4820470" lon="8.1819030">
        <ele>396.4</ele>
        <time>2022-06-02T08:47:33Z</time>
      </trkpt>
      <trkpt lat="47.4820390" lon="8.1817610">
        <ele>397.2</ele>
        <time>2022-06-02T08:47:37Z</time>
      </trkpt>
      <trkpt lat="47.4820180" lon="8.1816230">
        <ele>398.0</ele>
        <time>2022-06-02T08:47:41Z</time>
      </trkpt>
      <trkpt lat="47.4820030" lon="8.1815500">
        <ele>398.4</ele>
        <time>2022-06-02T08:47:43Z</time>
      </trkpt>
      <trkpt lat="47.4819680" lon="8.1813430">
        <ele>399.6</ele>
        <time>2022-06-02T08:47:49Z</time>
      </trkpt>
      <trkpt lat="47.4819390" lon="8.1812470">
        <ele>400.0</ele>
        <time>2022-06-02T08:47:52Z</time>
      </trkpt>
      <trkpt lat="47.4819120" lon="8.1811450">
        <ele>400.6</ele>
        <time>2022-06-02T08:47:55Z</time>
      </trkpt>
      <trkpt lat="47.4818830" lon="8.1810460">
        <ele>401.4</ele>
        <time>2022-06-02T08:47:58Z</time>
      </trkpt>
      <trkpt lat="47.4818570" lon="8.1809440">
        <ele>401.6</ele>
        <time>2022-06-02T08:48:01Z</time>
      </trkpt>
      <trkpt lat="47.4818020" lon="8.1807910">
        <ele>402.6</ele>
        <time>2022-06-02T08:48:06Z</time>
      </trkpt>
      <trkpt lat="47.4817370" lon="8.1806010">
        <ele>403.8</ele>
        <time>2022-06-02T08:48:12Z</time>
      </trkpt>
      <trkpt lat="47.4816600" lon="8.1804110">
        <ele>405.0</ele>
        <time>2022-06-02T08:48:18Z</time>
      </trkpt>
      <trkpt lat="47.4816320" lon="8.1803510">
        <ele>405.4</ele>
        <time>2022-06-02T08:48:20Z</time>
      </trkpt>
      <trkpt lat="47.4815880" lon="8.1802280">
        <ele>406.2</ele>
        <time>2022-06-02T08:48:24Z</time>
      </trkpt>
      <trkpt lat="47.4815490" lon="8.1800980">
        <ele>407.0</ele>
        <time>2022-06-02T08:48:28Z</time>
      </trkpt>
      <trkpt lat="47.4815250" lon="8.1800360">
        <ele>407.6</ele>
        <time>2022-06-02T08:48:30Z</time>
      </trkpt>
      <trkpt lat="47.4814770" lon="8.1798990">
        <ele>408.2</ele>
        <time>2022-06-02T08:48:34Z</time>
      </trkpt>
      <trkpt lat="47.4814560" lon="8.1798370">
        <ele>408.4</ele>
        <time>2022-06-02T08:48:36Z</time>
      </trkpt>
      <trkpt lat="47.4814190" lon="8.1797250">
        <ele>409.4</ele>
        <time>2022-06-02T08:48:40Z</time>
      </trkpt>
      <trkpt lat="47.4814080" lon="8.1796890">
        <ele>409.8</ele>
        <time>2022-06-02T08:48:41Z</time>
      </trkpt>
      <trkpt lat="47.4813430" lon="8.1795240">
        <ele>410.6</ele>
        <time>2022-06-02T08:48:46Z</time>
      </trkpt>
      <trkpt lat="47.4813450" lon="8.1794860">
        <ele>410.8</ele>
        <time>2022-06-02T08:48:47Z</time>
      </trkpt>
      <trkpt lat="47.4813400" lon="8.1793290">
        <ele>412.0</ele>
        <time>2022-06-02T08:48:52Z</time>
      </trkpt>
      <trkpt lat="47.4813200" lon="8.1791730">
        <ele>413.0</ele>
        <time>2022-06-02T08:48:57Z</time>
      </trkpt>
      <trkpt lat="47.4813160" lon="8.1791390">
        <ele>413.0</ele>
        <time>2022-06-02T08:48:58Z</time>
      </trkpt>
      <trkpt lat="47.4812700" lon="8.1790010">
        <ele>414.0</ele>
        <time>2022-06-02T08:49:03Z</time>
      </trkpt>
      <trkpt lat="47.4812590" lon="8.1789480">
        <ele>414.4</ele>
        <time>2022-06-02T08:49:05Z</time>
      </trkpt>
      <trkpt lat="47.4812560" lon="8.1789190">
        <ele>414.6</ele>
        <time>2022-06-02T08:49:06Z</time>
      </trkpt>
      <trkpt lat="47.4812340" lon="8.1788250">
        <ele>415.0</ele>
        <time>2022-06-02T08:49:09Z</time>
      </trkpt>
      <trkpt lat="47.4812270" lon="8.1787670">
        <ele>415.2</ele>
        <time>2022-06-02T08:49:11Z</time>
      </trkpt>
      <trkpt lat="47.4812210" lon="8.1786520">
        <ele>416.0</ele>
        <time>2022-06-02T08:49:15Z</time>
      </trkpt>
      <trkpt lat="47.4812100" lon="8.1785200">
        <ele>416.6</ele>
        <time>2022-06-02T08:49:19Z</time>
      </trkpt>
      <trkpt lat="47.4812040" lon="8.1784220">
        <ele>417.2</ele>
        <time>2022-06-02T08:49:22Z</time>
      </trkpt>
      <trkpt lat="47.4811940" lon="8.1782440">
        <ele>418.2</ele>
        <time>2022-06-02T08:49:28Z</time>
      </trkpt>
      <trkpt lat="47.4811910" lon="8.1782050">
        <ele>418.2</ele>
        <time>2022-06-02T08:49:29Z</time>
      </trkpt>
      <trkpt lat="47.4811800" lon="8.1779990">
        <ele>419.6</ele>
        <time>2022-06-02T08:49:35Z</time>
      </trkpt>
      <trkpt lat="47.4811710" lon="8.1779210">
        <ele>419.8</ele>
        <time>2022-06-02T08:49:37Z</time>
      </trkpt>
      <trkpt lat="47.4811660" lon="8.1778250">
        <ele>420.4</ele>
        <time>2022-06-02T08:49:40Z</time>
      </trkpt>
      <trkpt lat="47.4811590" lon="8.1776920">
        <ele>421.6</ele>
        <time>2022-06-02T08:49:44Z</time>
      </trkpt>
      <trkpt lat="47.4811500" lon="8.1775830">
        <ele>422.0</ele>
        <time>2022-06-02T08:49:47Z</time>
      </trkpt>
      <trkpt lat="47.4811460" lon="8.1775140">
        <ele>422.6</ele>
        <time>2022-06-02T08:49:49Z</time>
      </trkpt>
      <trkpt lat="47.4811280" lon="8.1773190">
        <ele>423.8</ele>
        <time>2022-06-02T08:49:55Z</time>
      </trkpt>
      <trkpt lat="47.4811050" lon="8.1771120">
        <ele>424.8</ele>
        <time>2022-06-02T08:50:01Z</time>
      </trkpt>
      <trkpt lat="47.4810970" lon="8.1770750">
        <ele>425.0</ele>
        <time>2022-06-02T08:50:02Z</time>
      </trkpt>
      <trkpt lat="47.4810650" lon="8.1768810">
        <ele>425.8</ele>
        <time>2022-06-02T08:50:08Z</time>
      </trkpt>
      <trkpt lat="47.4810540" lon="8.1768200">
        <ele>426.0</ele>
        <time>2022-06-02T08:50:10Z</time>
      </trkpt>
      <trkpt lat="47.4810840" lon="8.1766410">
        <ele>427.0</ele>
        <time>2022-06-02T08:50:16Z</time>
      </trkpt>
      <trkpt lat="47.4811050" lon="8.1766010">
        <ele>427.4</ele>
        <time>2022-06-02T08:50:18Z</time>
      </trkpt>
      <trkpt lat="47.4811580" lon="8.1765880">
        <ele>427.6</ele>
        <time>2022-06-02T08:50:21Z</time>
      </trkpt>
      <trkpt lat="47.4812250" lon="8.1765630">
        <ele>428.2</ele>
        <time>2022-06-02T08:50:25Z</time>
      </trkpt>
      <trkpt lat="47.4812870" lon="8.1765320">
        <ele>429.0</ele>
        <time>2022-06-02T08:50:29Z</time>
      </trkpt>
      <trkpt lat="47.4813030" lon="8.1765280">
        <ele>429.2</ele>
        <time>2022-06-02T08:50:30Z</time>
      </trkpt>
      <trkpt lat="47.4813710" lon="8.1765160">
        <ele>430.2</ele>
        <time>2022-06-02T08:50:34Z</time>
      </trkpt>
      <trkpt lat="47.4814110" lon="8.1765110">
        <ele>430.8</ele>
        <time>2022-06-02T08:50:36Z</time>
      </trkpt>
      <trkpt lat="47.4814840" lon="8.1765010">
        <ele>431.4</ele>
        <time>2022-06-02T08:50:40Z</time>
      </trkpt>
      <trkpt lat="47.4815160" lon="8.1765030">
        <ele>432.0</ele>
        <time>2022-06-02T08:50:42Z</time>
      </trkpt>
      <trkpt lat="47.4815760" lon="8.1765040">
        <ele>432.6</ele>
        <time>2022-06-02T08:50:45Z</time>
      </trkpt>
      <trkpt lat="47.4816250" lon="8.1765150">
        <ele>433.4</ele>
        <time>2022-06-02T08:50:48Z</time>
      </trkpt>
      <trkpt lat="47.4816610" lon="8.1765180">
        <ele>433.8</ele>
        <time>2022-06-02T08:50:50Z</time>
      </trkpt>
      <trkpt lat="47.4817230" lon="8.1765080">
        <ele>434.6</ele>
        <time>2022-06-02T08:50:54Z</time>
      </trkpt>
      <trkpt lat="47.4817580" lon="8.1765220">
        <ele>435.0</ele>
        <time>2022-06-02T08:50:56Z</time>
      </trkpt>
      <trkpt lat="47.4818300" lon="8.1765430">
        <ele>436.0</ele>
        <time>2022-06-02T08:51:00Z</time>
      </trkpt>
      <trkpt lat="47.4818440" lon="8.1765520">
        <ele>436.2</ele>
        <time>2022-06-02T08:51:01Z</time>
      </trkpt>
      <trkpt lat="47.4818940" lon="8.1765880">
        <ele>436.4</ele>
        <time>2022-06-02T08:51:04Z</time>
      </trkpt>
      <trkpt lat="47.4819400" lon="8.1766180">
        <ele>437.0</ele>
        <time>2022-06-02T08:51:07Z</time>
      </trkpt>
      <trkpt lat="47.4819620" lon="8.1766370">
        <ele>437.2</ele>
        <time>2022-06-02T08:51:08Z</time>
      </trkpt>
      <trkpt lat="47.4820630" lon="8.1767140">
        <ele>438.4</ele>
        <time>2022-06-02T08:51:14Z</time>
      </trkpt>
      <trkpt lat="47.4821070" lon="8.1767630">
        <ele>438.6</ele>
        <time>2022-06-02T08:51:17Z</time>
      </trkpt>
      <trkpt lat="47.4821980" lon="8.1768720">
        <ele>439.2</ele>
        <time>2022-06-02T08:51:23Z</time>
      </trkpt>
      <trkpt lat="47.4822380" lon="8.1769230">
        <ele>439.6</ele>
        <time>2022-06-02T08:51:26Z</time>
      </trkpt>
      <trkpt lat="47.4823090" lon="8.1770060">
        <ele>440.6</ele>
        <time>2022-06-02T08:51:31Z</time>
      </trkpt>
      <trkpt lat="47.4823890" lon="8.1770970">
        <ele>441.0</ele>
        <time>2022-06-02T08:51:36Z</time>
      </trkpt>
      <trkpt lat="47.4824240" lon="8.1771320">
        <ele>441.6</ele>
        <time>2022-06-02T08:51:38Z</time>
      </trkpt>
      <trkpt lat="47.4824370" lon="8.1771500">
        <ele>442.0</ele>
        <time>2022-06-02T08:51:39Z</time>
      </trkpt>
      <trkpt lat="47.4824890" lon="8.1772250">
        <ele>442.2</ele>
        <time>2022-06-02T08:51:43Z</time>
      </trkpt>
      <trkpt lat="47.4825270" lon="8.1772680">
        <ele>442.8</ele>
        <time>2022-06-02T08:51:46Z</time>
      </trkpt>
      <trkpt lat="47.4825910" lon="8.1773610">
        <ele>443.6</ele>
        <time>2022-06-02T08:51:51Z</time>
      </trkpt>
      <trkpt lat="47.4826210" lon="8.1773860">
        <ele>443.8</ele>
        <time>2022-06-02T08:51:53Z</time>
      </trkpt>
      <trkpt lat="47.4827420" lon="8.1774670">
        <ele>445.0</ele>
        <time>2022-06-02T08:52:00Z</time>
      </trkpt>
      <trkpt lat="47.4827580" lon="8.1774730">
        <ele>445.2</ele>
        <time>2022-06-02T08:52:01Z</time>
      </trkpt>
      <trkpt lat="47.4828540" lon="8.1774810">
        <ele>446.2</ele>
        <time>2022-06-02T08:52:06Z</time>
      </trkpt>
      <trkpt lat="47.4828680" lon="8.1774780">
        <ele>446.6</ele>
        <time>2022-06-02T08:52:07Z</time>
      </trkpt>
      <trkpt lat="47.4829030" lon="8.1774630">
        <ele>447.0</ele>
        <time>2022-06-02T08:52:09Z</time>
      </trkpt>
      <trkpt lat="47.4829280" lon="8.1774490">
        <ele>447.4</ele>
        <time>2022-06-02T08:52:11Z</time>
      </trkpt>
      <trkpt lat="47.4829620" lon="8.1774360">
        <ele>447.6</ele>
        <time>2022-06-02T08:52:13Z</time>
      </trkpt>
      <trkpt lat="47.4830300" lon="8.1773810">
        <ele>448.4</ele>
        <time>2022-06-02T08:52:17Z</time>
      </trkpt>
      <trkpt lat="47.4830880" lon="8.1773060">
        <ele>449.2</ele>
        <time>2022-06-02T08:52:21Z</time>
      </trkpt>
      <trkpt lat="47.4830960" lon="8.1772940">
        <ele>449.4</ele>
        <time>2022-06-02T08:52:22Z</time>
      </trkpt>
      <trkpt lat="47.4831100" lon="8.1772710">
        <ele>449.6</ele>
        <time>2022-06-02T08:52:23Z</time>
      </trkpt>
      <trkpt lat="47.4831600" lon="8.1771800">
        <ele>450.6</ele>
        <time>2022-06-02T08:52:27Z</time>
      </trkpt>
      <trkpt lat="47.4831910" lon="8.1771170">
        <ele>451.0</ele>
        <time>2022-06-02T08:52:30Z</time>
      </trkpt>
      <trkpt lat="47.4832200" lon="8.1770450">
        <ele>451.6</ele>
        <time>2022-06-02T08:52:33Z</time>
      </trkpt>
      <trkpt lat="47.4832740" lon="8.1769120">
        <ele>452.6</ele>
        <time>2022-06-02T08:52:39Z</time>
      </trkpt>
      <trkpt lat="47.4832850" lon="8.1768890">
        <ele>453.0</ele>
        <time>2022-06-02T08:52:40Z</time>
      </trkpt>
      <trkpt lat="47.4833170" lon="8.1768130">
        <ele>453.6</ele>
        <time>2022-06-02T08:52:43Z</time>
      </trkpt>
      <trkpt lat="47.4833730" lon="8.1766990">
        <ele>454.8</ele>
        <time>2022-06-02T08:52:49Z</time>
      </trkpt>
      <trkpt lat="47.4834170" lon="8.1765790">
        <ele>456.0</ele>
        <time>2022-06-02T08:52:55Z</time>
      </trkpt>
      <trkpt lat="47.4834690" lon="8.1764060">
        <ele>457.0</ele>
        <time>2022-06-02T08:53:02Z</time>
      </trkpt>
      <trkpt lat="47.4834890" lon="8.1763550">
        <ele>457.4</ele>
        <time>2022-06-02T08:53:04Z</time>
      </trkpt>
      <trkpt lat="47.4835010" lon="8.1763100">
        <ele>458.2</ele>
        <time>2022-06-02T08:53:06Z</time>
      </trkpt>
      <trkpt lat="47.4835200" lon="8.1762100">
        <ele>459.2</ele>
        <time>2022-06-02T08:53:10Z</time>
      </trkpt>
      <trkpt lat="47.4835320" lon="8.1761670">
        <ele>459.8</ele>
        <time>2022-06-02T08:53:12Z</time>
      </trkpt>
      <trkpt lat="47.4835580" lon="8.1760800">
        <ele>460.4</ele>
        <time>2022-06-02T08:53:16Z</time>
      </trkpt>
      <trkpt lat="47.4835740" lon="8.1759910">
        <ele>461.2</ele>
        <time>2022-06-02T08:53:19Z</time>
      </trkpt>
      <trkpt lat="47.4835810" lon="8.1759370">
        <ele>461.4</ele>
        <time>2022-06-02T08:53:21Z</time>
      </trkpt>
      <trkpt lat="47.4836070" lon="8.1758090">
        <ele>462.6</ele>
        <time>2022-06-02T08:53:26Z</time>
      </trkpt>
      <trkpt lat="47.4836540" lon="8.1756130">
        <ele>463.6</ele>
        <time>2022-06-02T08:53:34Z</time>
      </trkpt>
      <trkpt lat="47.4836630" lon="8.1755940">
        <ele>463.8</ele>
        <time>2022-06-02T08:53:35Z</time>
      </trkpt>
      <trkpt lat="47.4837060" lon="8.1754490">
        <ele>464.6</ele>
        <time>2022-06-02T08:53:41Z</time>
      </trkpt>
      <trkpt lat="47.4837100" lon="8.1754160">
        <ele>465.0</ele>
        <time>2022-06-02T08:53:42Z</time>
      </trkpt>
      <trkpt lat="47.4837390" lon="8.1752480">
        <ele>465.8</ele>
        <time>2022-06-02T08:53:48Z</time>
      </trkpt>
      <trkpt lat="47.4837460" lon="8.1752200">
        <ele>466.0</ele>
        <time>2022-06-02T08:53:49Z</time>
      </trkpt>
      <trkpt lat="47.4837840" lon="8.1750660">
        <ele>467.2</ele>
        <time>2022-06-02T08:53:55Z</time>
      </trkpt>
      <trkpt lat="47.4837890" lon="8.1750500">
        <ele>467.4</ele>
        <time>2022-06-02T08:53:56Z</time>
      </trkpt>
      <trkpt lat="47.4838150" lon="8.1749160">
        <ele>468.2</ele>
        <time>2022-06-02T08:54:01Z</time>
      </trkpt>
      <trkpt lat="47.4838320" lon="8.1748340">
        <ele>468.8</ele>
        <time>2022-06-02T08:54:04Z</time>
      </trkpt>
      <trkpt lat="47.4838430" lon="8.1747870">
        <ele>469.4</ele>
        <time>2022-06-02T08:54:06Z</time>
      </trkpt>
      <trkpt lat="47.4838740" lon="8.1746210">
        <ele>470.4</ele>
        <time>2022-06-02T08:54:12Z</time>
      </trkpt>
      <trkpt lat="47.4838810" lon="8.1745990">
        <ele>470.4</ele>
        <time>2022-06-02T08:54:13Z</time>
      </trkpt>
      <trkpt lat="47.4838840" lon="8.1745060">
        <ele>471.2</ele>
        <time>2022-06-02T08:54:17Z</time>
      </trkpt>
      <trkpt lat="47.4838900" lon="8.1744550">
        <ele>471.6</ele>
        <time>2022-06-02T08:54:19Z</time>
      </trkpt>
      <trkpt lat="47.4839000" lon="8.1743470">
        <ele>472.6</ele>
        <time>2022-06-02T08:54:24Z</time>
      </trkpt>
      <trkpt lat="47.4839190" lon="8.1742020">
        <ele>473.8</ele>
        <time>2022-06-02T08:54:30Z</time>
      </trkpt>
      <trkpt lat="47.4839250" lon="8.1741770">
        <ele>473.8</ele>
        <time>2022-06-02T08:54:31Z</time>
      </trkpt>
      <trkpt lat="47.4839550" lon="8.1740660">
        <ele>474.8</ele>
        <time>2022-06-02T08:54:36Z</time>
      </trkpt>
      <trkpt lat="47.4839590" lon="8.1739680">
        <ele>475.6</ele>
        <time>2022-06-02T08:54:40Z</time>
      </trkpt>
      <trkpt lat="47.4839610" lon="8.1739190">
        <ele>476.0</ele>
        <time>2022-06-02T08:54:42Z</time>
      </trkpt>
      <trkpt lat="47.4839760" lon="8.1738010">
        <ele>477.2</ele>
        <time>2022-06-02T08:54:47Z</time>
      </trkpt>
      <trkpt lat="47.4839720" lon="8.1736140">
        <ele>478.2</ele>
        <time>2022-06-02T08:54:54Z</time>
      </trkpt>
      <trkpt lat="47.4839720" lon="8.1735920">
        <ele>478.2</ele>
        <time>2022-06-02T08:54:55Z</time>
      </trkpt>
      <trkpt lat="47.4839680" lon="8.1734920">
        <ele>479.2</ele>
        <time>2022-06-02T08:54:59Z</time>
      </trkpt>
      <trkpt lat="47.4839680" lon="8.1733890">
        <ele>480.0</ele>
        <time>2022-06-02T08:55:03Z</time>
      </trkpt>
      <trkpt lat="47.4839610" lon="8.1733190">
        <ele>480.4</ele>
        <time>2022-06-02T08:55:06Z</time>
      </trkpt>
      <trkpt lat="47.4839580" lon="8.1731450">
        <ele>481.2</ele>
        <time>2022-06-02T08:55:12Z</time>
      </trkpt>
      <trkpt lat="47.4839500" lon="8.1730430">
        <ele>481.6</ele>
        <time>2022-06-02T08:55:15Z</time>
      </trkpt>
      <trkpt lat="47.4839390" lon="8.1728300">
        <ele>482.2</ele>
        <time>2022-06-02T08:55:21Z</time>
      </trkpt>
      <trkpt lat="47.4839340" lon="8.1726720">
        <ele>482.6</ele>
        <time>2022-06-02T08:55:25Z</time>
      </trkpt>
      <trkpt lat="47.4839240" lon="8.1724180">
        <ele>483.0</ele>
        <time>2022-06-02T08:55:31Z</time>
      </trkpt>
      <trkpt lat="47.4839060" lon="8.1720310">
        <ele>483.4</ele>
        <time>2022-06-02T08:55:40Z</time>
      </trkpt>
      <trkpt lat="47.4838220" lon="8.1717130">
        <ele>483.6</ele>
        <time>2022-06-02T08:55:47Z</time>
      </trkpt>
      <trkpt lat="47.4838420" lon="8.1715090">
        <ele>483.6</ele>
        <time>2022-06-02T08:55:51Z</time>
      </trkpt>
      <trkpt lat="47.4838830" lon="8.1714040">
        <ele>483.6</ele>
        <time>2022-06-02T08:55:54Z</time>
      </trkpt>
      <trkpt lat="47.4838920" lon="8.1713380">
        <ele>484.0</ele>
        <time>2022-06-02T08:55:56Z</time>
      </trkpt>
      <trkpt lat="47.4839000" lon="8.1710730">
        <ele>484.4</ele>
        <time>2022-06-02T08:56:02Z</time>
      </trkpt>
      <trkpt lat="47.4839190" lon="8.1709850">
        <ele>484.8</ele>
        <time>2022-06-02T08:56:04Z</time>
      </trkpt>
      <trkpt lat="47.4839690" lon="8.1707980">
        <ele>485.4</ele>
        <time>2022-06-02T08:56:09Z</time>
      </trkpt>
      <trkpt lat="47.4840030" lon="8.1706120">
        <ele>486.0</ele>
        <time>2022-06-02T08:56:14Z</time>
      </trkpt>
      <trkpt lat="47.4840220" lon="8.1705020">
        <ele>486.2</ele>
        <time>2022-06-02T08:56:17Z</time>
      </trkpt>
      <trkpt lat="47.4840400" lon="8.1703950">
        <ele>487.0</ele>
        <time>2022-06-02T08:56:20Z</time>
      </trkpt>
      <trkpt lat="47.4840670" lon="8.1702070">
        <ele>487.4</ele>
        <time>2022-06-02T08:56:25Z</time>
      </trkpt>
      <trkpt lat="47.4841050" lon="8.1700520">
        <ele>488.0</ele>
        <time>2022-06-02T08:56:29Z</time>
      </trkpt>
      <trkpt lat="47.4841180" lon="8.1699130">
        <ele>488.8</ele>
        <time>2022-06-02T08:56:33Z</time>
      </trkpt>
      <trkpt lat="47.4841210" lon="8.1698820">
        <ele>489.2</ele>
        <time>2022-06-02T08:56:34Z</time>
      </trkpt>
      <trkpt lat="47.4841530" lon="8.1697270">
        <ele>490.0</ele>
        <time>2022-06-02T08:56:38Z</time>
      </trkpt>
      <trkpt lat="47.4841600" lon="8.1696900">
        <ele>490.2</ele>
        <time>2022-06-02T08:56:39Z</time>
      </trkpt>
      <trkpt lat="47.4841660" lon="8.1695770">
        <ele>490.8</ele>
        <time>2022-06-02T08:56:42Z</time>
      </trkpt>
      <trkpt lat="47.4841750" lon="8.1695010">
        <ele>491.2</ele>
        <time>2022-06-02T08:56:44Z</time>
      </trkpt>
      <trkpt lat="47.4841790" lon="8.1694710">
        <ele>491.4</ele>
        <time>2022-06-02T08:56:45Z</time>
      </trkpt>
      <trkpt lat="47.4842040" lon="8.1692650">
        <ele>492.4</ele>
        <time>2022-06-02T08:56:51Z</time>
      </trkpt>
      <trkpt lat="47.4842150" lon="8.1691180">
        <ele>493.0</ele>
        <time>2022-06-02T08:56:55Z</time>
      </trkpt>
      <trkpt lat="47.4842280" lon="8.1690150">
        <ele>493.4</ele>
        <time>2022-06-02T08:56:58Z</time>
      </trkpt>
      <trkpt lat="47.4842450" lon="8.1687920">
        <ele>494.4</ele>
        <time>2022-06-02T08:57:04Z</time>
      </trkpt>
      <trkpt lat="47.4842490" lon="8.1687640">
        <ele>494.4</ele>
        <time>2022-06-02T08:57:05Z</time>
      </trkpt>
      <trkpt lat="47.4842660" lon="8.1684540">
        <ele>495.2</ele>
        <time>2022-06-02T08:57:13Z</time>
      </trkpt>
      <trkpt lat="47.4842760" lon="8.1683210">
        <ele>495.6</ele>
        <time>2022-06-02T08:57:17Z</time>
      </trkpt>
      <trkpt lat="47.4842800" lon="8.1681300">
        <ele>496.4</ele>
        <time>2022-06-02T08:57:23Z</time>
      </trkpt>
      <trkpt lat="47.4842850" lon="8.1680780">
        <ele>496.6</ele>
        <time>2022-06-02T08:57:25Z</time>
      </trkpt>
      <trkpt lat="47.4842840" lon="8.1679120">
        <ele>497.2</ele>
        <time>2022-06-02T08:57:30Z</time>
      </trkpt>
      <trkpt lat="47.4843080" lon="8.1678010">
        <ele>497.8</ele>
        <time>2022-06-02T08:57:33Z</time>
      </trkpt>
      <trkpt lat="47.4843290" lon="8.1676330">
        <ele>498.8</ele>
        <time>2022-06-02T08:57:38Z</time>
      </trkpt>
      <trkpt lat="47.4843300" lon="8.1676100">
        <ele>499.0</ele>
        <time>2022-06-02T08:57:39Z</time>
      </trkpt>
      <trkpt lat="47.4843450" lon="8.1674540">
        <ele>500.0</ele>
        <time>2022-06-02T08:57:44Z</time>
      </trkpt>
      <trkpt lat="47.4843730" lon="8.1673260">
        <ele>500.6</ele>
        <time>2022-06-02T08:57:48Z</time>
      </trkpt>
      <trkpt lat="47.4844040" lon="8.1671760">
        <ele>501.0</ele>
        <time>2022-06-02T08:57:53Z</time>
      </trkpt>
      <trkpt lat="47.4844390" lon="8.1670960">
        <ele>501.2</ele>
        <time>2022-06-02T08:57:56Z</time>
      </trkpt>
      <trkpt lat="47.4844930" lon="8.1669630">
        <ele>502.0</ele>
        <time>2022-06-02T08:58:01Z</time>
      </trkpt>
      <trkpt lat="47.4845380" lon="8.1668450">
        <ele>502.8</ele>
        <time>2022-06-02T08:58:05Z</time>
      </trkpt>
      <trkpt lat="47.4845860" lon="8.1667430">
        <ele>503.2</ele>
        <time>2022-06-02T08:58:08Z</time>
      </trkpt>
      <trkpt lat="47.4846520" lon="8.1665910">
        <ele>503.6</ele>
        <time>2022-06-02T08:58:13Z</time>
      </trkpt>
      <trkpt lat="47.4847080" lon="8.1664310">
        <ele>504.2</ele>
        <time>2022-06-02T08:58:18Z</time>
      </trkpt>
      <trkpt lat="47.4847410" lon="8.1663690">
        <ele>504.4</ele>
        <time>2022-06-02T08:58:20Z</time>
      </trkpt>
      <trkpt lat="47.4847600" lon="8.1663320">
        <ele>504.4</ele>
        <time>2022-06-02T08:58:21Z</time>
      </trkpt>
      <trkpt lat="47.4848350" lon="8.1661780">
        <ele>505.4</ele>
        <time>2022-06-02T08:58:26Z</time>
      </trkpt>
      <trkpt lat="47.4848860" lon="8.1660570">
        <ele>505.8</ele>
        <time>2022-06-02T08:58:30Z</time>
      </trkpt>
      <trkpt lat="47.4850050" lon="8.1657640">
        <ele>506.2</ele>
        <time>2022-06-02T08:58:39Z</time>
      </trkpt>
      <trkpt lat="47.4850360" lon="8.1656920">
        <ele>506.4</ele>
        <time>2022-06-02T08:58:41Z</time>
      </trkpt>
      <trkpt lat="47.4850980" lon="8.1654660">
        <ele>507.0</ele>
        <time>2022-06-02T08:58:48Z</time>
      </trkpt>
      <trkpt lat="47.4851190" lon="8.1654050">
        <ele>507.2</ele>
        <time>2022-06-02T08:58:50Z</time>
      </trkpt>
      <trkpt lat="47.4850950" lon="8.1653510">
        <ele>507.4</ele>
        <time>2022-06-02T08:58:52Z</time>
      </trkpt>
      <trkpt lat="47.4849580" lon="8.1652410">
        <ele>508.0</ele>
        <time>2022-06-02T08:58:59Z</time>
      </trkpt>
      <trkpt lat="47.4849010" lon="8.1651820">
        <ele>508.4</ele>
        <time>2022-06-02T08:59:02Z</time>
      </trkpt>
      <trkpt lat="47.4848600" lon="8.1651340">
        <ele>509.4</ele>
        <time>2022-06-02T08:59:05Z</time>
      </trkpt>
      <trkpt lat="47.4848340" lon="8.1651040">
        <ele>510.2</ele>
        <time>2022-06-02T08:59:09Z</time>
      </trkpt>
      <trkpt lat="47.4848340" lon="8.1651040">
        <ele>510.2</ele>
        <time>2022-06-02T08:59:10Z</time>
      </trkpt>
      <trkpt lat="47.4847740" lon="8.1650270">
        <ele>509.4</ele>
        <time>2022-06-02T09:01:04Z</time>
      </trkpt>
      <trkpt lat="47.4847380" lon="8.1649820">
        <ele>509.4</ele>
        <time>2022-06-02T09:01:06Z</time>
      </trkpt>
      <trkpt lat="47.4845920" lon="8.1648030">
        <ele>509.8</ele>
        <time>2022-06-02T09:01:14Z</time>
      </trkpt>
      <trkpt lat="47.4844550" lon="8.1646340">
        <ele>510.4</ele>
        <time>2022-06-02T09:01:21Z</time>
      </trkpt>
      <trkpt lat="47.4844040" lon="8.1645670">
        <ele>510.8</ele>
        <time>2022-06-02T09:01:24Z</time>
      </trkpt>
      <trkpt lat="47.4843490" lon="8.1645000">
        <ele>511.4</ele>
        <time>2022-06-02T09:01:27Z</time>
      </trkpt>
      <trkpt lat="47.4843120" lon="8.1644480">
        <ele>511.4</ele>
        <time>2022-06-02T09:01:29Z</time>
      </trkpt>
      <trkpt lat="47.4842340" lon="8.1643590">
        <ele>512.0</ele>
        <time>2022-06-02T09:01:33Z</time>
      </trkpt>
      <trkpt lat="47.4841790" lon="8.1642970">
        <ele>512.6</ele>
        <time>2022-06-02T09:01:36Z</time>
      </trkpt>
      <trkpt lat="47.4840450" lon="8.1641850">
        <ele>513.8</ele>
        <time>2022-06-02T09:01:42Z</time>
      </trkpt>
      <trkpt lat="47.4840020" lon="8.1641500">
        <ele>514.4</ele>
        <time>2022-06-02T09:01:44Z</time>
      </trkpt>
      <trkpt lat="47.4839640" lon="8.1641090">
        <ele>514.8</ele>
        <time>2022-06-02T09:01:46Z</time>
      </trkpt>
      <trkpt lat="47.4838770" lon="8.1640200">
        <ele>515.6</ele>
        <time>2022-06-02T09:01:52Z</time>
      </trkpt>
      <trkpt lat="47.4838480" lon="8.1639670">
        <ele>515.8</ele>
        <time>2022-06-02T09:01:56Z</time>
      </trkpt>
      <trkpt lat="47.4838520" lon="8.1639420">
        <ele>515.8</ele>
        <time>2022-06-02T09:01:58Z</time>
      </trkpt>
      <trkpt lat="47.4838530" lon="8.1639350">
        <ele>516.0</ele>
        <time>2022-06-02T09:01:59Z</time>
      </trkpt>
      <trkpt lat="47.4838530" lon="8.1639350">
        <ele>516.0</ele>
        <time>2022-06-02T09:02:01Z</time>
      </trkpt>
      <trkpt lat="47.4838250" lon="8.1639440">
        <ele>516.2</ele>
        <time>2022-06-02T09:03:22Z</time>
      </trkpt>
      <trkpt lat="47.4836890" lon="8.1638910">
        <ele>516.2</ele>
        <time>2022-06-02T09:03:27Z</time>
      </trkpt>
      <trkpt lat="47.4834670" lon="8.1637320">
        <ele>515.8</ele>
        <time>2022-06-02T09:03:33Z</time>
      </trkpt>
      <trkpt lat="47.4832390" lon="8.1634900">
        <ele>515.2</ele>
        <time>2022-06-02T09:03:38Z</time>
      </trkpt>
      <trkpt lat="47.4831350" lon="8.1633740">
        <ele>515.0</ele>
        <time>2022-06-02T09:03:40Z</time>
      </trkpt>
      <trkpt lat="47.4829200" lon="8.1631300">
        <ele>513.8</ele>
        <time>2022-06-02T09:03:44Z</time>
      </trkpt>
      <trkpt lat="47.4828190" lon="8.1630020">
        <ele>513.4</ele>
        <time>2022-06-02T09:03:46Z</time>
      </trkpt>
      <trkpt lat="47.4825300" lon="8.1626720">
        <ele>512.8</ele>
        <time>2022-06-02T09:03:52Z</time>
      </trkpt>
      <trkpt lat="47.4824360" lon="8.1625900">
        <ele>512.6</ele>
        <time>2022-06-02T09:03:54Z</time>
      </trkpt>
      <trkpt lat="47.4821210" lon="8.1622610">
        <ele>512.8</ele>
        <time>2022-06-02T09:04:01Z</time>
      </trkpt>
      <trkpt lat="47.4819950" lon="8.1620910">
        <ele>512.8</ele>
        <time>2022-06-02T09:04:04Z</time>
      </trkpt>
      <trkpt lat="47.4819620" lon="8.1620250">
        <ele>513.0</ele>
        <time>2022-06-02T09:04:05Z</time>
      </trkpt>
      <trkpt lat="47.4819310" lon="8.1619570">
        <ele>513.0</ele>
        <time>2022-06-02T09:04:06Z</time>
      </trkpt>
      <trkpt lat="47.4816720" lon="8.1613330">
        <ele>512.2</ele>
        <time>2022-06-02T09:04:15Z</time>
      </trkpt>
      <trkpt lat="47.4815130" lon="8.1609190">
        <ele>511.8</ele>
        <time>2022-06-02T09:04:21Z</time>
      </trkpt>
      <trkpt lat="47.4814580" lon="8.1607810">
        <ele>511.6</ele>
        <time>2022-06-02T09:04:23Z</time>
      </trkpt>
      <trkpt lat="47.4811560" lon="8.1600770">
        <ele>511.0</ele>
        <time>2022-06-02T09:04:33Z</time>
      </trkpt>
      <trkpt lat="47.4810130" lon="8.1597580">
        <ele>510.6</ele>
        <time>2022-06-02T09:04:37Z</time>
      </trkpt>
      <trkpt lat="47.4808940" lon="8.1595200">
        <ele>510.4</ele>
        <time>2022-06-02T09:04:40Z</time>
      </trkpt>
      <trkpt lat="47.4807790" lon="8.1594300">
        <ele>510.0</ele>
        <time>2022-06-02T09:04:42Z</time>
      </trkpt>
      <trkpt lat="47.4807200" lon="8.1594200">
        <ele>510.0</ele>
        <time>2022-06-02T09:04:43Z</time>
      </trkpt>
      <trkpt lat="47.4805540" lon="8.1594180">
        <ele>509.6</ele>
        <time>2022-06-02T09:04:46Z</time>
      </trkpt>
      <trkpt lat="47.4805020" lon="8.1594100">
        <ele>509.4</ele>
        <time>2022-06-02T09:04:47Z</time>
      </trkpt>
      <trkpt lat="47.4804530" lon="8.1593960">
        <ele>509.4</ele>
        <time>2022-06-02T09:04:48Z</time>
      </trkpt>
      <trkpt lat="47.4803180" lon="8.1593290">
        <ele>509.2</ele>
        <time>2022-06-02T09:04:51Z</time>
      </trkpt>
      <trkpt lat="47.4802570" lon="8.1592340">
        <ele>509.2</ele>
        <time>2022-06-02T09:04:53Z</time>
      </trkpt>
      <trkpt lat="47.4802530" lon="8.1591030">
        <ele>509.4</ele>
        <time>2022-06-02T09:04:55Z</time>
      </trkpt>
      <trkpt lat="47.4802650" lon="8.1590310">
        <ele>509.4</ele>
        <time>2022-06-02T09:04:56Z</time>
      </trkpt>
      <trkpt lat="47.4803040" lon="8.1587460">
        <ele>509.6</ele>
        <time>2022-06-02T09:05:00Z</time>
      </trkpt>
      <trkpt lat="47.4802900" lon="8.1586230">
        <ele>509.6</ele>
        <time>2022-06-02T09:05:02Z</time>
      </trkpt>
      <trkpt lat="47.4802440" lon="8.1585070">
        <ele>509.4</ele>
        <time>2022-06-02T09:05:04Z</time>
      </trkpt>
      <trkpt lat="47.4801590" lon="8.1584260">
        <ele>509.2</ele>
        <time>2022-06-02T09:05:06Z</time>
      </trkpt>
      <trkpt lat="47.4798270" lon="8.1582350">
        <ele>508.6</ele>
        <time>2022-06-02T09:05:14Z</time>
      </trkpt>
      <trkpt lat="47.4796460" lon="8.1581390">
        <ele>509.0</ele>
        <time>2022-06-02T09:05:20Z</time>
      </trkpt>
      <trkpt lat="47.4794640" lon="8.1580100">
        <ele>509.0</ele>
        <time>2022-06-02T09:05:25Z</time>
      </trkpt>
      <trkpt lat="47.4794270" lon="8.1579710">
        <ele>509.2</ele>
        <time>2022-06-02T09:05:26Z</time>
      </trkpt>
      <trkpt lat="47.4793210" lon="8.1578600">
        <ele>509.2</ele>
        <time>2022-06-02T09:05:29Z</time>
      </trkpt>
      <trkpt lat="47.4792150" lon="8.1577570">
        <ele>509.2</ele>
        <time>2022-06-02T09:05:32Z</time>
      </trkpt>
      <trkpt lat="47.4789180" lon="8.1574320">
        <ele>510.0</ele>
        <time>2022-06-02T09:05:40Z</time>
      </trkpt>
      <trkpt lat="47.4785740" lon="8.1570530">
        <ele>509.8</ele>
        <time>2022-06-02T09:05:49Z</time>
      </trkpt>
      <trkpt lat="47.4784390" lon="8.1568590">
        <ele>509.4</ele>
        <time>2022-06-02T09:05:53Z</time>
      </trkpt>
      <trkpt lat="47.4784150" lon="8.1567230">
        <ele>509.2</ele>
        <time>2022-06-02T09:05:55Z</time>
      </trkpt>
      <trkpt lat="47.4784590" lon="8.1562440">
        <ele>509.2</ele>
        <time>2022-06-02T09:06:02Z</time>
      </trkpt>
      <trkpt lat="47.4784950" lon="8.1555590">
        <ele>510.2</ele>
        <time>2022-06-02T09:06:12Z</time>
      </trkpt>
      <trkpt lat="47.4785170" lon="8.1551620">
        <ele>510.6</ele>
        <time>2022-06-02T09:06:18Z</time>
      </trkpt>
      <trkpt lat="47.4785300" lon="8.1550240">
        <ele>510.8</ele>
        <time>2022-06-02T09:06:20Z</time>
      </trkpt>
      <trkpt lat="47.4786160" lon="8.1545960">
        <ele>511.2</ele>
        <time>2022-06-02T09:06:26Z</time>
      </trkpt>
      <trkpt lat="47.4786670" lon="8.1544700">
        <ele>511.2</ele>
        <time>2022-06-02T09:06:28Z</time>
      </trkpt>
      <trkpt lat="47.4787260" lon="8.1543580">
        <ele>511.0</ele>
        <time>2022-06-02T09:06:30Z</time>
      </trkpt>
      <trkpt lat="47.4788900" lon="8.1541470">
        <ele>511.0</ele>
        <time>2022-06-02T09:06:35Z</time>
      </trkpt>
      <trkpt lat="47.4791000" lon="8.1539250">
        <ele>511.0</ele>
        <time>2022-06-02T09:06:41Z</time>
      </trkpt>
      <trkpt lat="47.4791680" lon="8.1538700">
        <ele>511.0</ele>
        <time>2022-06-02T09:06:43Z</time>
      </trkpt>
      <trkpt lat="47.4793470" lon="8.1537250">
        <ele>511.8</ele>
        <time>2022-06-02T09:06:49Z</time>
      </trkpt>
      <trkpt lat="47.4794310" lon="8.1536490">
        <ele>512.0</ele>
        <time>2022-06-02T09:06:52Z</time>
      </trkpt>
      <trkpt lat="47.4796020" lon="8.1535080">
        <ele>512.6</ele>
        <time>2022-06-02T09:06:58Z</time>
      </trkpt>
      <trkpt lat="47.4796580" lon="8.1534580">
        <ele>513.0</ele>
        <time>2022-06-02T09:07:00Z</time>
      </trkpt>
      <trkpt lat="47.4798130" lon="8.1533080">
        <ele>513.8</ele>
        <time>2022-06-02T09:07:06Z</time>
      </trkpt>
      <trkpt lat="47.4798370" lon="8.1532820">
        <ele>514.0</ele>
        <time>2022-06-02T09:07:07Z</time>
      </trkpt>
      <trkpt lat="47.4799470" lon="8.1530960">
        <ele>514.8</ele>
        <time>2022-06-02T09:07:13Z</time>
      </trkpt>
      <trkpt lat="47.4799620" lon="8.1530660">
        <ele>515.0</ele>
        <time>2022-06-02T09:07:14Z</time>
      </trkpt>
      <trkpt lat="47.4799810" lon="8.1530340">
        <ele>515.0</ele>
        <time>2022-06-02T09:07:15Z</time>
      </trkpt>
      <trkpt lat="47.4800150" lon="8.1529570">
        <ele>515.2</ele>
        <time>2022-06-02T09:07:17Z</time>
      </trkpt>
      <trkpt lat="47.4801150" lon="8.1527580">
        <ele>516.0</ele>
        <time>2022-06-02T09:07:23Z</time>
      </trkpt>
      <trkpt lat="47.4801310" lon="8.1527230">
        <ele>516.2</ele>
        <time>2022-06-02T09:07:24Z</time>
      </trkpt>
      <trkpt lat="47.4802200" lon="8.1525690">
        <ele>517.2</ele>
        <time>2022-06-02T09:07:29Z</time>
      </trkpt>
      <trkpt lat="47.4802520" lon="8.1525090">
        <ele>517.6</ele>
        <time>2022-06-02T09:07:31Z</time>
      </trkpt>
      <trkpt lat="47.4803210" lon="8.1524240">
        <ele>518.2</ele>
        <time>2022-06-02T09:07:34Z</time>
      </trkpt>
      <trkpt lat="47.4803670" lon="8.1523680">
        <ele>518.6</ele>
        <time>2022-06-02T09:07:36Z</time>
      </trkpt>
      <trkpt lat="47.4804660" lon="8.1522270">
        <ele>519.2</ele>
        <time>2022-06-02T09:07:41Z</time>
      </trkpt>
      <trkpt lat="47.4805120" lon="8.1521770">
        <ele>519.6</ele>
        <time>2022-06-02T09:07:43Z</time>
      </trkpt>
      <trkpt lat="47.4806320" lon="8.1520630">
        <ele>520.6</ele>
        <time>2022-06-02T09:07:48Z</time>
      </trkpt>
      <trkpt lat="47.4806510" lon="8.1520460">
        <ele>520.6</ele>
        <time>2022-06-02T09:07:49Z</time>
      </trkpt>
      <trkpt lat="47.4806750" lon="8.1520230">
        <ele>521.0</ele>
        <time>2022-06-02T09:07:51Z</time>
      </trkpt>
      <trkpt lat="47.4806870" lon="8.1520250">
        <ele>521.0</ele>
        <time>2022-06-02T09:07:52Z</time>
      </trkpt>
      <trkpt lat="47.4806980" lon="8.1520300">
        <ele>521.2</ele>
        <time>2022-06-02T09:07:53Z</time>
      </trkpt>
      <trkpt lat="47.4807070" lon="8.1520550">
        <ele>521.4</ele>
        <time>2022-06-02T09:07:55Z</time>
      </trkpt>
      <trkpt lat="47.4806980" lon="8.1520740">
        <ele>521.4</ele>
        <time>2022-06-02T09:07:56Z</time>
      </trkpt>
      <trkpt lat="47.4806840" lon="8.1520860">
        <ele>521.4</ele>
        <time>2022-06-02T09:07:57Z</time>
      </trkpt>
      <trkpt lat="47.4806250" lon="8.1520530">
        <ele>521.4</ele>
        <time>2022-06-02T09:08:00Z</time>
      </trkpt>
      <trkpt lat="47.4805820" lon="8.1518960">
        <ele>521.4</ele>
        <time>2022-06-02T09:08:04Z</time>
      </trkpt>
      <trkpt lat="47.4805780" lon="8.1517260">
        <ele>521.2</ele>
        <time>2022-06-02T09:08:08Z</time>
      </trkpt>
      <trkpt lat="47.4805980" lon="8.1514270">
        <ele>521.6</ele>
        <time>2022-06-02T09:08:15Z</time>
      </trkpt>
      <trkpt lat="47.4805900" lon="8.1513350">
        <ele>521.6</ele>
        <time>2022-06-02T09:08:17Z</time>
      </trkpt>
      <trkpt lat="47.4805910" lon="8.1512830">
        <ele>521.6</ele>
        <time>2022-06-02T09:08:18Z</time>
      </trkpt>
      <trkpt lat="47.4805950" lon="8.1512280">
        <ele>521.8</ele>
        <time>2022-06-02T09:08:19Z</time>
      </trkpt>
      <trkpt lat="47.4806080" lon="8.1508830">
        <ele>521.4</ele>
        <time>2022-06-02T09:08:25Z</time>
      </trkpt>
      <trkpt lat="47.4806160" lon="8.1507240">
        <ele>521.2</ele>
        <time>2022-06-02T09:08:27Z</time>
      </trkpt>
      <trkpt lat="47.4806240" lon="8.1505400">
        <ele>521.0</ele>
        <time>2022-06-02T09:08:29Z</time>
      </trkpt>
      <trkpt lat="47.4806270" lon="8.1504560">
        <ele>520.8</ele>
        <time>2022-06-02T09:08:30Z</time>
      </trkpt>
      <trkpt lat="47.4806210" lon="8.1502680">
        <ele>520.6</ele>
        <time>2022-06-02T09:08:32Z</time>
      </trkpt>
      <trkpt lat="47.4806010" lon="8.1501260">
        <ele>520.6</ele>
        <time>2022-06-02T09:08:34Z</time>
      </trkpt>
      <trkpt lat="47.4805880" lon="8.1500680">
        <ele>520.6</ele>
        <time>2022-06-02T09:08:35Z</time>
      </trkpt>
      <trkpt lat="47.4805780" lon="8.1498960">
        <ele>520.8</ele>
        <time>2022-06-02T09:08:39Z</time>
      </trkpt>
      <trkpt lat="47.4805610" lon="8.1496720">
        <ele>522.0</ele>
        <time>2022-06-02T09:08:45Z</time>
      </trkpt>
      <trkpt lat="47.4805320" lon="8.1495880">
        <ele>522.4</ele>
        <time>2022-06-02T09:08:47Z</time>
      </trkpt>
      <trkpt lat="47.4805440" lon="8.1495350">
        <ele>522.6</ele>
        <time>2022-06-02T09:08:48Z</time>
      </trkpt>
      <trkpt lat="47.4805400" lon="8.1494220">
        <ele>522.8</ele>
        <time>2022-06-02T09:08:50Z</time>
      </trkpt>
      <trkpt lat="47.4804520" lon="8.1490980">
        <ele>523.0</ele>
        <time>2022-06-02T09:08:56Z</time>
      </trkpt>
      <trkpt lat="47.4803850" lon="8.1489050">
        <ele>523.2</ele>
        <time>2022-06-02T09:09:02Z</time>
      </trkpt>
      <trkpt lat="47.4803600" lon="8.1488080">
        <ele>523.2</ele>
        <time>2022-06-02T09:09:05Z</time>
      </trkpt>
      <trkpt lat="47.4803760" lon="8.1487630">
        <ele>523.4</ele>
        <time>2022-06-02T09:09:07Z</time>
      </trkpt>
      <trkpt lat="47.4803780" lon="8.1487350">
        <ele>523.6</ele>
        <time>2022-06-02T09:09:08Z</time>
      </trkpt>
      <trkpt lat="47.4803740" lon="8.1484840">
        <ele>523.8</ele>
        <time>2022-06-02T09:09:14Z</time>
      </trkpt>
      <trkpt lat="47.4803910" lon="8.1483910">
        <ele>523.8</ele>
        <time>2022-06-02T09:09:16Z</time>
      </trkpt>
      <trkpt lat="47.4804030" lon="8.1482440">
        <ele>524.0</ele>
        <time>2022-06-02T09:09:19Z</time>
      </trkpt>
      <trkpt lat="47.4804820" lon="8.1479070">
        <ele>524.2</ele>
        <time>2022-06-02T09:09:26Z</time>
      </trkpt>
      <trkpt lat="47.4805500" lon="8.1475910">
        <ele>523.6</ele>
        <time>2022-06-02T09:09:31Z</time>
      </trkpt>
      <trkpt lat="47.4806050" lon="8.1473020">
        <ele>523.4</ele>
        <time>2022-06-02T09:09:35Z</time>
      </trkpt>
      <trkpt lat="47.4806780" lon="8.1469790">
        <ele>523.4</ele>
        <time>2022-06-02T09:09:40Z</time>
      </trkpt>
      <trkpt lat="47.4807660" lon="8.1467210">
        <ele>524.0</ele>
        <time>2022-06-02T09:09:45Z</time>
      </trkpt>
      <trkpt lat="47.4808020" lon="8.1466290">
        <ele>524.6</ele>
        <time>2022-06-02T09:09:47Z</time>
      </trkpt>
      <trkpt lat="47.4808380" lon="8.1465480">
        <ele>525.2</ele>
        <time>2022-06-02T09:09:50Z</time>
      </trkpt>
      <trkpt lat="47.4808440" lon="8.1465240">
        <ele>525.4</ele>
        <time>2022-06-02T09:09:51Z</time>
      </trkpt>
      <trkpt lat="47.4809320" lon="8.1463480">
        <ele>526.6</ele>
        <time>2022-06-02T09:09:58Z</time>
      </trkpt>
      <trkpt lat="47.4809630" lon="8.1462940">
        <ele>527.4</ele>
        <time>2022-06-02T09:10:01Z</time>
      </trkpt>
      <trkpt lat="47.4809680" lon="8.1462780">
        <ele>527.6</ele>
        <time>2022-06-02T09:10:02Z</time>
      </trkpt>
      <trkpt lat="47.4809760" lon="8.1462590">
        <ele>527.8</ele>
        <time>2022-06-02T09:10:03Z</time>
      </trkpt>
      <trkpt lat="47.4810250" lon="8.1461560">
        <ele>528.6</ele>
        <time>2022-06-02T09:10:08Z</time>
      </trkpt>
      <trkpt lat="47.4810380" lon="8.1461350">
        <ele>529.0</ele>
        <time>2022-06-02T09:10:09Z</time>
      </trkpt>
      <trkpt lat="47.4810540" lon="8.1460920">
        <ele>529.4</ele>
        <time>2022-06-02T09:10:11Z</time>
      </trkpt>
      <trkpt lat="47.4810530" lon="8.1460710">
        <ele>529.8</ele>
        <time>2022-06-02T09:10:12Z</time>
      </trkpt>
      <trkpt lat="47.4810690" lon="8.1459730">
        <ele>530.6</ele>
        <time>2022-06-02T09:10:15Z</time>
      </trkpt>
      <trkpt lat="47.4810720" lon="8.1459480">
        <ele>530.8</ele>
        <time>2022-06-02T09:10:16Z</time>
      </trkpt>
      <trkpt lat="47.4810830" lon="8.1458100">
        <ele>531.6</ele>
        <time>2022-06-02T09:10:21Z</time>
      </trkpt>
      <trkpt lat="47.4810910" lon="8.1457660">
        <ele>531.8</ele>
        <time>2022-06-02T09:10:22Z</time>
      </trkpt>
      <trkpt lat="47.4811190" lon="8.1455790">
        <ele>533.0</ele>
        <time>2022-06-02T09:10:27Z</time>
      </trkpt>
      <trkpt lat="47.4811180" lon="8.1454300">
        <ele>534.0</ele>
        <time>2022-06-02T09:10:31Z</time>
      </trkpt>
      <trkpt lat="47.4811130" lon="8.1454170">
        <ele>534.4</ele>
        <time>2022-06-02T09:10:32Z</time>
      </trkpt>
      <trkpt lat="47.4811250" lon="8.1453470">
        <ele>535.0</ele>
        <time>2022-06-02T09:10:36Z</time>
      </trkpt>
      <trkpt lat="47.4811100" lon="8.1452660">
        <ele>535.2</ele>
        <time>2022-06-02T09:10:39Z</time>
      </trkpt>
      <trkpt lat="47.4811130" lon="8.1451940">
        <ele>535.8</ele>
        <time>2022-06-02T09:10:42Z</time>
      </trkpt>
      <trkpt lat="47.4811130" lon="8.1451430">
        <ele>536.2</ele>
        <time>2022-06-02T09:10:44Z</time>
      </trkpt>
      <trkpt lat="47.4811150" lon="8.1451040">
        <ele>536.6</ele>
        <time>2022-06-02T09:10:46Z</time>
      </trkpt>
      <trkpt lat="47.4811100" lon="8.1450670">
        <ele>537.2</ele>
        <time>2022-06-02T09:10:48Z</time>
      </trkpt>
      <trkpt lat="47.4811000" lon="8.1449600">
        <ele>538.0</ele>
        <time>2022-06-02T09:10:53Z</time>
      </trkpt>
      <trkpt lat="47.4811060" lon="8.1449390">
        <ele>538.2</ele>
        <time>2022-06-02T09:10:54Z</time>
      </trkpt>
      <trkpt lat="47.4811120" lon="8.1448540">
        <ele>539.0</ele>
        <time>2022-06-02T09:10:57Z</time>
      </trkpt>
      <trkpt lat="47.4811120" lon="8.1447920">
        <ele>539.4</ele>
        <time>2022-06-02T09:10:59Z</time>
      </trkpt>
      <trkpt lat="47.4810980" lon="8.1447390">
        <ele>539.6</ele>
        <time>2022-06-02T09:11:01Z</time>
      </trkpt>
      <trkpt lat="47.4810530" lon="8.1446300">
        <ele>540.2</ele>
        <time>2022-06-02T09:11:05Z</time>
      </trkpt>
      <trkpt lat="47.4810330" lon="8.1446040">
        <ele>540.4</ele>
        <time>2022-06-02T09:11:06Z</time>
      </trkpt>
      <trkpt lat="47.4810080" lon="8.1445810">
        <ele>540.4</ele>
        <time>2022-06-02T09:11:07Z</time>
      </trkpt>
      <trkpt lat="47.4809320" lon="8.1445510">
        <ele>541.0</ele>
        <time>2022-06-02T09:11:12Z</time>
      </trkpt>
      <trkpt lat="47.4809280" lon="8.1445750">
        <ele>541.2</ele>
        <time>2022-06-02T09:11:16Z</time>
      </trkpt>
      <trkpt lat="47.4809460" lon="8.1445670">
        <ele>541.2</ele>
        <time>2022-06-02T09:11:18Z</time>
      </trkpt>
      <trkpt lat="47.4809810" lon="8.1445390">
        <ele>541.2</ele>
        <time>2022-06-02T09:11:21Z</time>
      </trkpt>
      <trkpt lat="47.4809990" lon="8.1445380">
        <ele>540.8</ele>
        <time>2022-06-02T09:11:22Z</time>
      </trkpt>
      <trkpt lat="47.4811270" lon="8.1445970">
        <ele>540.6</ele>
        <time>2022-06-02T09:11:28Z</time>
      </trkpt>
      <trkpt lat="47.4812630" lon="8.1447480">
        <ele>540.6</ele>
        <time>2022-06-02T09:11:35Z</time>
      </trkpt>
      <trkpt lat="47.4813770" lon="8.1450910">
        <ele>541.0</ele>
        <time>2022-06-02T09:11:43Z</time>
      </trkpt>
      <trkpt lat="47.4814150" lon="8.1452570">
        <ele>541.2</ele>
        <time>2022-06-02T09:11:47Z</time>
      </trkpt>
      <trkpt lat="47.4814300" lon="8.1452820">
        <ele>541.2</ele>
        <time>2022-06-02T09:11:48Z</time>
      </trkpt>
      <trkpt lat="47.4814350" lon="8.1452920">
        <ele>541.4</ele>
        <time>2022-06-02T09:11:49Z</time>
      </trkpt>
      <trkpt lat="47.4814870" lon="8.1453260">
        <ele>541.6</ele>
        <time>2022-06-02T09:11:53Z</time>
      </trkpt>
      <trkpt lat="47.4815030" lon="8.1453090">
        <ele>541.8</ele>
        <time>2022-06-02T09:11:54Z</time>
      </trkpt>
      <trkpt lat="47.4815240" lon="8.1451500">
        <ele>542.4</ele>
        <time>2022-06-02T09:11:58Z</time>
      </trkpt>
      <trkpt lat="47.4815250" lon="8.1451060">
        <ele>542.6</ele>
        <time>2022-06-02T09:11:59Z</time>
      </trkpt>
      <trkpt lat="47.4815400" lon="8.1448340">
        <ele>542.8</ele>
        <time>2022-06-02T09:12:05Z</time>
      </trkpt>
      <trkpt lat="47.4815330" lon="8.1446480">
        <ele>543.2</ele>
        <time>2022-06-02T09:12:09Z</time>
      </trkpt>
      <trkpt lat="47.4815430" lon="8.1444680">
        <ele>543.6</ele>
        <time>2022-06-02T09:12:13Z</time>
      </trkpt>
      <trkpt lat="47.4815730" lon="8.1442100">
        <ele>544.4</ele>
        <time>2022-06-02T09:12:19Z</time>
      </trkpt>
      <trkpt lat="47.4815840" lon="8.1439410">
        <ele>545.2</ele>
        <time>2022-06-02T09:12:25Z</time>
      </trkpt>
      <trkpt lat="47.4815840" lon="8.1438950">
        <ele>545.4</ele>
        <time>2022-06-02T09:12:26Z</time>
      </trkpt>
      <trkpt lat="47.4815910" lon="8.1435390">
        <ele>546.2</ele>
        <time>2022-06-02T09:12:34Z</time>
      </trkpt>
      <trkpt lat="47.4815960" lon="8.1434550">
        <ele>546.4</ele>
        <time>2022-06-02T09:12:36Z</time>
      </trkpt>
      <trkpt lat="47.4815800" lon="8.1432440">
        <ele>547.2</ele>
        <time>2022-06-02T09:12:41Z</time>
      </trkpt>
      <trkpt lat="47.4815660" lon="8.1431200">
        <ele>547.6</ele>
        <time>2022-06-02T09:12:44Z</time>
      </trkpt>
      <trkpt lat="47.4815350" lon="8.1428930">
        <ele>548.2</ele>
        <time>2022-06-02T09:12:49Z</time>
      </trkpt>
      <trkpt lat="47.4815150" lon="8.1427730">
        <ele>548.6</ele>
        <time>2022-06-02T09:12:52Z</time>
      </trkpt>
      <trkpt lat="47.4814890" lon="8.1425770">
        <ele>549.4</ele>
        <time>2022-06-02T09:12:57Z</time>
      </trkpt>
      <trkpt lat="47.4814850" lon="8.1425390">
        <ele>549.4</ele>
        <time>2022-06-02T09:12:58Z</time>
      </trkpt>
      <trkpt lat="47.4814760" lon="8.1424630">
        <ele>549.6</ele>
        <time>2022-06-02T09:13:00Z</time>
      </trkpt>
      <trkpt lat="47.4814560" lon="8.1423080">
        <ele>550.0</ele>
        <time>2022-06-02T09:13:04Z</time>
      </trkpt>
      <trkpt lat="47.4814060" lon="8.1419850">
        <ele>550.6</ele>
        <time>2022-06-02T09:13:12Z</time>
      </trkpt>
      <trkpt lat="47.4814010" lon="8.1419460">
        <ele>550.8</ele>
        <time>2022-06-02T09:13:13Z</time>
      </trkpt>
      <trkpt lat="47.4813600" lon="8.1416860">
        <ele>551.6</ele>
        <time>2022-06-02T09:13:20Z</time>
      </trkpt>
      <trkpt lat="47.4813380" lon="8.1415290">
        <ele>552.4</ele>
        <time>2022-06-02T09:13:24Z</time>
      </trkpt>
      <trkpt lat="47.4813150" lon="8.1413400">
        <ele>552.8</ele>
        <time>2022-06-02T09:13:29Z</time>
      </trkpt>
      <trkpt lat="47.4812780" lon="8.1411010">
        <ele>553.6</ele>
        <time>2022-06-02T09:13:35Z</time>
      </trkpt>
      <trkpt lat="47.4812630" lon="8.1409880">
        <ele>554.0</ele>
        <time>2022-06-02T09:13:38Z</time>
      </trkpt>
      <trkpt lat="47.4812290" lon="8.1407220">
        <ele>554.6</ele>
        <time>2022-06-02T09:13:45Z</time>
      </trkpt>
      <trkpt lat="47.4812020" lon="8.1405580">
        <ele>555.0</ele>
        <time>2022-06-02T09:13:49Z</time>
      </trkpt>
      <trkpt lat="47.4811700" lon="8.1403700">
        <ele>555.4</ele>
        <time>2022-06-02T09:13:54Z</time>
      </trkpt>
      <trkpt lat="47.4811560" lon="8.1402520">
        <ele>556.2</ele>
        <time>2022-06-02T09:13:57Z</time>
      </trkpt>
      <trkpt lat="47.4811300" lon="8.1400530">
        <ele>557.0</ele>
        <time>2022-06-02T09:14:02Z</time>
      </trkpt>
      <trkpt lat="47.4811240" lon="8.1400130">
        <ele>557.2</ele>
        <time>2022-06-02T09:14:03Z</time>
      </trkpt>
      <trkpt lat="47.4810950" lon="8.1398530">
        <ele>557.8</ele>
        <time>2022-06-02T09:14:07Z</time>
      </trkpt>
      <trkpt lat="47.4810890" lon="8.1397790">
        <ele>558.2</ele>
        <time>2022-06-02T09:14:09Z</time>
      </trkpt>
      <trkpt lat="47.4810610" lon="8.1395880">
        <ele>559.2</ele>
        <time>2022-06-02T09:14:14Z</time>
      </trkpt>
      <trkpt lat="47.4810560" lon="8.1395460">
        <ele>559.4</ele>
        <time>2022-06-02T09:14:15Z</time>
      </trkpt>
      <trkpt lat="47.4810310" lon="8.1393830">
        <ele>560.0</ele>
        <time>2022-06-02T09:14:19Z</time>
      </trkpt>
      <trkpt lat="47.4810190" lon="8.1392550">
        <ele>560.4</ele>
        <time>2022-06-02T09:14:22Z</time>
      </trkpt>
      <trkpt lat="47.4809990" lon="8.1390890">
        <ele>560.8</ele>
        <time>2022-06-02T09:14:26Z</time>
      </trkpt>
      <trkpt lat="47.4809750" lon="8.1389360">
        <ele>561.4</ele>
        <time>2022-06-02T09:14:30Z</time>
      </trkpt>
      <trkpt lat="47.4809170" lon="8.1387710">
        <ele>561.8</ele>
        <time>2022-06-02T09:14:34Z</time>
      </trkpt>
      <trkpt lat="47.4808640" lon="8.1387320">
        <ele>562.0</ele>
        <time>2022-06-02T09:14:36Z</time>
      </trkpt>
      <trkpt lat="47.4807970" lon="8.1387360">
        <ele>562.2</ele>
        <time>2022-06-02T09:14:38Z</time>
      </trkpt>
      <trkpt lat="47.4806550" lon="8.1387520">
        <ele>562.4</ele>
        <time>2022-06-02T09:14:44Z</time>
      </trkpt>
      <trkpt lat="47.4806490" lon="8.1387460">
        <ele>562.4</ele>
        <time>2022-06-02T09:14:45Z</time>
      </trkpt>
      <trkpt lat="47.4806490" lon="8.1387460">
        <ele>562.6</ele>
        <time>2022-06-02T09:14:47Z</time>
      </trkpt>
      <trkpt lat="47.4806560" lon="8.1387130">
        <ele>562.6</ele>
        <time>2022-06-02T09:15:16Z</time>
      </trkpt>
      <trkpt lat="47.4806550" lon="8.1386820">
        <ele>562.6</ele>
        <time>2022-06-02T09:15:17Z</time>
      </trkpt>
      <trkpt lat="47.4806460" lon="8.1384540">
        <ele>562.6</ele>
        <time>2022-06-02T09:15:22Z</time>
      </trkpt>
      <trkpt lat="47.4806020" lon="8.1381470">
        <ele>562.6</ele>
        <time>2022-06-02T09:15:28Z</time>
      </trkpt>
      <trkpt lat="47.4805350" lon="8.1377950">
        <ele>562.2</ele>
        <time>2022-06-02T09:15:35Z</time>
      </trkpt>
      <trkpt lat="47.4804690" lon="8.1373860">
        <ele>561.8</ele>
        <time>2022-06-02T09:15:41Z</time>
      </trkpt>
      <trkpt lat="47.4804420" lon="8.1370800">
        <ele>561.2</ele>
        <time>2022-06-02T09:15:45Z</time>
      </trkpt>
      <trkpt lat="47.4804090" lon="8.1366070">
        <ele>560.2</ele>
        <time>2022-06-02T09:15:51Z</time>
      </trkpt>
      <trkpt lat="47.4804060" lon="8.1365190">
        <ele>560.0</ele>
        <time>2022-06-02T09:15:52Z</time>
      </trkpt>
      <trkpt lat="47.4803740" lon="8.1361080">
        <ele>559.0</ele>
        <time>2022-06-02T09:15:57Z</time>
      </trkpt>
      <trkpt lat="47.4803520" lon="8.1358890">
        <ele>558.2</ele>
        <time>2022-06-02T09:16:00Z</time>
      </trkpt>
      <trkpt lat="47.4803460" lon="8.1358270">
        <ele>558.0</ele>
        <time>2022-06-02T09:16:01Z</time>
      </trkpt>
      <trkpt lat="47.4803310" lon="8.1357170">
        <ele>557.0</ele>
        <time>2022-06-02T09:16:03Z</time>
      </trkpt>
      <trkpt lat="47.4803120" lon="8.1356720">
        <ele>556.6</ele>
        <time>2022-06-02T09:16:04Z</time>
      </trkpt>
      <trkpt lat="47.4802950" lon="8.1356370">
        <ele>556.4</ele>
        <time>2022-06-02T09:16:05Z</time>
      </trkpt>
      <trkpt lat="47.4802820" lon="8.1355610">
        <ele>555.4</ele>
        <time>2022-06-02T09:16:08Z</time>
      </trkpt>
      <trkpt lat="47.4803000" lon="8.1355450">
        <ele>555.2</ele>
        <time>2022-06-02T09:16:09Z</time>
      </trkpt>
      <trkpt lat="47.4803190" lon="8.1355290">
        <ele>554.8</ele>
        <time>2022-06-02T09:16:10Z</time>
      </trkpt>
      <trkpt lat="47.4803370" lon="8.1355130">
        <ele>554.4</ele>
        <time>2022-06-02T09:16:13Z</time>
      </trkpt>
      <trkpt lat="47.4803550" lon="8.1354970">
        <ele>553.4</ele>
        <time>2022-06-02T09:16:17Z</time>
      </trkpt>
      <trkpt lat="47.4803740" lon="8.1354810">
        <ele>553.2</ele>
        <time>2022-06-02T09:16:19Z</time>
      </trkpt>
      <trkpt lat="47.4803920" lon="8.1354650">
        <ele>553.2</ele>
        <time>2022-06-02T09:16:20Z</time>
      </trkpt>
      <trkpt lat="47.4804100" lon="8.1354490">
        <ele>553.0</ele>
        <time>2022-06-02T09:16:24Z</time>
      </trkpt>
      <trkpt lat="47.4804290" lon="8.1354330">
        <ele>552.8</ele>
        <time>2022-06-02T09:16:25Z</time>
      </trkpt>
      <trkpt lat="47.4804550" lon="8.1353000">
        <ele>552.8</ele>
        <time>2022-06-02T09:16:27Z</time>
      </trkpt>
      <trkpt lat="47.4804620" lon="8.1352160">
        <ele>552.8</ele>
        <time>2022-06-02T09:16:28Z</time>
      </trkpt>
      <trkpt lat="47.4804700" lon="8.1351240">
        <ele>552.8</ele>
        <time>2022-06-02T09:16:29Z</time>
      </trkpt>
      <trkpt lat="47.4805250" lon="8.1347870">
        <ele>552.0</ele>
        <time>2022-06-02T09:16:32Z</time>
      </trkpt>
      <trkpt lat="47.4805790" lon="8.1344360">
        <ele>550.8</ele>
        <time>2022-06-02T09:16:35Z</time>
      </trkpt>
      <trkpt lat="47.4806230" lon="8.1341570">
        <ele>550.2</ele>
        <time>2022-06-02T09:16:37Z</time>
      </trkpt>
      <trkpt lat="47.4806610" lon="8.1338530">
        <ele>549.2</ele>
        <time>2022-06-02T09:16:39Z</time>
      </trkpt>
      <trkpt lat="47.4807400" lon="8.1333720">
        <ele>548.0</ele>
        <time>2022-06-02T09:16:42Z</time>
      </trkpt>
      <trkpt lat="47.4808050" lon="8.1330340">
        <ele>546.6</ele>
        <time>2022-06-02T09:16:44Z</time>
      </trkpt>
      <trkpt lat="47.4808860" lon="8.1326990">
        <ele>545.4</ele>
        <time>2022-06-02T09:16:46Z</time>
      </trkpt>
      <trkpt lat="47.4809320" lon="8.1325320">
        <ele>544.6</ele>
        <time>2022-06-02T09:16:47Z</time>
      </trkpt>
      <trkpt lat="47.4809800" lon="8.1323670">
        <ele>544.0</ele>
        <time>2022-06-02T09:16:48Z</time>
      </trkpt>
      <trkpt lat="47.4810880" lon="8.1320490">
        <ele>542.2</ele>
        <time>2022-06-02T09:16:50Z</time>
      </trkpt>
      <trkpt lat="47.4811940" lon="8.1317510">
        <ele>541.0</ele>
        <time>2022-06-02T09:16:52Z</time>
      </trkpt>
      <trkpt lat="47.4812430" lon="8.1316100">
        <ele>540.2</ele>
        <time>2022-06-02T09:16:53Z</time>
      </trkpt>
      <trkpt lat="47.4812910" lon="8.1314750">
        <ele>539.6</ele>
        <time>2022-06-02T09:16:54Z</time>
      </trkpt>
      <trkpt lat="47.4813760" lon="8.1312080">
        <ele>538.2</ele>
        <time>2022-06-02T09:16:56Z</time>
      </trkpt>
      <trkpt lat="47.4814570" lon="8.1309540">
        <ele>536.8</ele>
        <time>2022-06-02T09:16:58Z</time>
      </trkpt>
      <trkpt lat="47.4814920" lon="8.1308230">
        <ele>536.6</ele>
        <time>2022-06-02T09:16:59Z</time>
      </trkpt>
      <trkpt lat="47.4815470" lon="8.1305530">
        <ele>535.6</ele>
        <time>2022-06-02T09:17:01Z</time>
      </trkpt>
      <trkpt lat="47.4815820" lon="8.1302760">
        <ele>534.8</ele>
        <time>2022-06-02T09:17:03Z</time>
      </trkpt>
      <trkpt lat="47.4816040" lon="8.1300050">
        <ele>534.4</ele>
        <time>2022-06-02T09:17:05Z</time>
      </trkpt>
      <trkpt lat="47.4816360" lon="8.1293600">
        <ele>533.2</ele>
        <time>2022-06-02T09:17:10Z</time>
      </trkpt>
      <trkpt lat="47.4816590" lon="8.1289150">
        <ele>532.2</ele>
        <time>2022-06-02T09:17:14Z</time>
      </trkpt>
      <trkpt lat="47.4816700" lon="8.1287070">
        <ele>532.0</ele>
        <time>2022-06-02T09:17:16Z</time>
      </trkpt>
      <trkpt lat="47.4817070" lon="8.1281340">
        <ele>531.8</ele>
        <time>2022-06-02T09:17:22Z</time>
      </trkpt>
      <trkpt lat="47.4817390" lon="8.1275170">
        <ele>532.0</ele>
        <time>2022-06-02T09:17:29Z</time>
      </trkpt>
      <trkpt lat="47.4817820" lon="8.1268210">
        <ele>531.8</ele>
        <time>2022-06-02T09:17:37Z</time>
      </trkpt>
      <trkpt lat="47.4818360" lon="8.1265700">
        <ele>531.4</ele>
        <time>2022-06-02T09:17:40Z</time>
      </trkpt>
      <trkpt lat="47.4819030" lon="8.1263160">
        <ele>531.0</ele>
        <time>2022-06-02T09:17:43Z</time>
      </trkpt>
      <trkpt lat="47.4819320" lon="8.1262350">
        <ele>531.0</ele>
        <time>2022-06-02T09:17:44Z</time>
      </trkpt>
      <trkpt lat="47.4822290" lon="8.1256070">
        <ele>530.8</ele>
        <time>2022-06-02T09:17:53Z</time>
      </trkpt>
      <trkpt lat="47.4824070" lon="8.1252510">
        <ele>531.0</ele>
        <time>2022-06-02T09:17:59Z</time>
      </trkpt>
      <trkpt lat="47.4826580" lon="8.1247370">
        <ele>531.8</ele>
        <time>2022-06-02T09:18:08Z</time>
      </trkpt>
      <trkpt lat="47.4829290" lon="8.1241280">
        <ele>532.2</ele>
        <time>2022-06-02T09:18:18Z</time>
      </trkpt>
      <trkpt lat="47.4830320" lon="8.1238750">
        <ele>532.4</ele>
        <time>2022-06-02T09:18:22Z</time>
      </trkpt>
      <trkpt lat="47.4831490" lon="8.1235510">
        <ele>532.6</ele>
        <time>2022-06-02T09:18:27Z</time>
      </trkpt>
      <trkpt lat="47.4833850" lon="8.1228720">
        <ele>532.2</ele>
        <time>2022-06-02T09:18:36Z</time>
      </trkpt>
      <trkpt lat="47.4834120" lon="8.1227870">
        <ele>532.0</ele>
        <time>2022-06-02T09:18:37Z</time>
      </trkpt>
      <trkpt lat="47.4835780" lon="8.1223700">
        <ele>531.4</ele>
        <time>2022-06-02T09:18:42Z</time>
      </trkpt>
      <trkpt lat="47.4836170" lon="8.1223010">
        <ele>531.2</ele>
        <time>2022-06-02T09:18:43Z</time>
      </trkpt>
      <trkpt lat="47.4838270" lon="8.1219870">
        <ele>530.6</ele>
        <time>2022-06-02T09:18:48Z</time>
      </trkpt>
      <trkpt lat="47.4839640" lon="8.1218330">
        <ele>530.2</ele>
        <time>2022-06-02T09:18:51Z</time>
      </trkpt>
      <trkpt lat="47.4841130" lon="8.1217200">
        <ele>530.0</ele>
        <time>2022-06-02T09:18:54Z</time>
      </trkpt>
      <trkpt lat="47.4841600" lon="8.1216780">
        <ele>529.8</ele>
        <time>2022-06-02T09:18:55Z</time>
      </trkpt>
      <trkpt lat="47.4844300" lon="8.1214960">
        <ele>529.4</ele>
        <time>2022-06-02T09:19:00Z</time>
      </trkpt>
      <trkpt lat="47.4845390" lon="8.1213830">
        <ele>528.8</ele>
        <time>2022-06-02T09:19:02Z</time>
      </trkpt>
      <trkpt lat="47.4847130" lon="8.1211690">
        <ele>528.4</ele>
        <time>2022-06-02T09:19:05Z</time>
      </trkpt>
      <trkpt lat="47.4848840" lon="8.1208840">
        <ele>527.6</ele>
        <time>2022-06-02T09:19:08Z</time>
      </trkpt>
      <trkpt lat="47.4849380" lon="8.1207770">
        <ele>527.0</ele>
        <time>2022-06-02T09:19:09Z</time>
      </trkpt>
      <trkpt lat="47.4850410" lon="8.1205460">
        <ele>526.4</ele>
        <time>2022-06-02T09:19:11Z</time>
      </trkpt>
      <trkpt lat="47.4851490" lon="8.1203150">
        <ele>525.2</ele>
        <time>2022-06-02T09:19:13Z</time>
      </trkpt>
      <trkpt lat="47.4852020" lon="8.1201940">
        <ele>524.4</ele>
        <time>2022-06-02T09:19:14Z</time>
      </trkpt>
      <trkpt lat="47.4852590" lon="8.1200680">
        <ele>524.2</ele>
        <time>2022-06-02T09:19:15Z</time>
      </trkpt>
      <trkpt lat="47.4853150" lon="8.1199340">
        <ele>523.0</ele>
        <time>2022-06-02T09:19:16Z</time>
      </trkpt>
      <trkpt lat="47.4854180" lon="8.1196420">
        <ele>521.6</ele>
        <time>2022-06-02T09:19:18Z</time>
      </trkpt>
      <trkpt lat="47.4854790" lon="8.1194970">
        <ele>521.2</ele>
        <time>2022-06-02T09:19:19Z</time>
      </trkpt>
      <trkpt lat="47.4855470" lon="8.1193540">
        <ele>520.2</ele>
        <time>2022-06-02T09:19:20Z</time>
      </trkpt>
      <trkpt lat="47.4856220" lon="8.1192160">
        <ele>519.8</ele>
        <time>2022-06-02T09:19:21Z</time>
      </trkpt>
      <trkpt lat="47.4857010" lon="8.1190890">
        <ele>518.8</ele>
        <time>2022-06-02T09:19:22Z</time>
      </trkpt>
      <trkpt lat="47.4857850" lon="8.1189610">
        <ele>517.8</ele>
        <time>2022-06-02T09:19:23Z</time>
      </trkpt>
      <trkpt lat="47.4859610" lon="8.1187010">
        <ele>516.2</ele>
        <time>2022-06-02T09:19:25Z</time>
      </trkpt>
      <trkpt lat="47.4860510" lon="8.1185750">
        <ele>515.6</ele>
        <time>2022-06-02T09:19:26Z</time>
      </trkpt>
      <trkpt lat="47.4861400" lon="8.1184420">
        <ele>514.6</ele>
        <time>2022-06-02T09:19:27Z</time>
      </trkpt>
      <trkpt lat="47.4863120" lon="8.1181600">
        <ele>512.8</ele>
        <time>2022-06-02T09:19:29Z</time>
      </trkpt>
      <trkpt lat="47.4864020" lon="8.1180070">
        <ele>512.2</ele>
        <time>2022-06-02T09:19:30Z</time>
      </trkpt>
      <trkpt lat="47.4864930" lon="8.1178430">
        <ele>511.0</ele>
        <time>2022-06-02T09:19:31Z</time>
      </trkpt>
      <trkpt lat="47.4865800" lon="8.1176780">
        <ele>509.6</ele>
        <time>2022-06-02T09:19:32Z</time>
      </trkpt>
      <trkpt lat="47.4866590" lon="8.1175030">
        <ele>508.8</ele>
        <time>2022-06-02T09:19:33Z</time>
      </trkpt>
      <trkpt lat="47.4867380" lon="8.1173310">
        <ele>507.2</ele>
        <time>2022-06-02T09:19:34Z</time>
      </trkpt>
      <trkpt lat="47.4869310" lon="8.1169870">
        <ele>504.6</ele>
        <time>2022-06-02T09:19:36Z</time>
      </trkpt>
      <trkpt lat="47.4871290" lon="8.1166470">
        <ele>502.2</ele>
        <time>2022-06-02T09:19:38Z</time>
      </trkpt>
      <trkpt lat="47.4873230" lon="8.1162830">
        <ele>500.4</ele>
        <time>2022-06-02T09:19:40Z</time>
      </trkpt>
      <trkpt lat="47.4874140" lon="8.1161150">
        <ele>499.0</ele>
        <time>2022-06-02T09:19:41Z</time>
      </trkpt>
      <trkpt lat="47.4875760" lon="8.1157430">
        <ele>496.8</ele>
        <time>2022-06-02T09:19:43Z</time>
      </trkpt>
      <trkpt lat="47.4876500" lon="8.1155500">
        <ele>496.2</ele>
        <time>2022-06-02T09:19:44Z</time>
      </trkpt>
      <trkpt lat="47.4877240" lon="8.1153580">
        <ele>495.0</ele>
        <time>2022-06-02T09:19:45Z</time>
      </trkpt>
      <trkpt lat="47.4877810" lon="8.1151490">
        <ele>494.0</ele>
        <time>2022-06-02T09:19:46Z</time>
      </trkpt>
      <trkpt lat="47.4878310" lon="8.1149340">
        <ele>492.4</ele>
        <time>2022-06-02T09:19:47Z</time>
      </trkpt>
      <trkpt lat="47.4878730" lon="8.1147130">
        <ele>491.0</ele>
        <time>2022-06-02T09:19:48Z</time>
      </trkpt>
      <trkpt lat="47.4879360" lon="8.1142630">
        <ele>489.0</ele>
        <time>2022-06-02T09:19:50Z</time>
      </trkpt>
      <trkpt lat="47.4879600" lon="8.1140350">
        <ele>488.2</ele>
        <time>2022-06-02T09:19:51Z</time>
      </trkpt>
      <trkpt lat="47.4879760" lon="8.1138040">
        <ele>486.6</ele>
        <time>2022-06-02T09:19:52Z</time>
      </trkpt>
      <trkpt lat="47.4879860" lon="8.1133390">
        <ele>484.2</ele>
        <time>2022-06-02T09:19:54Z</time>
      </trkpt>
      <trkpt lat="47.4879850" lon="8.1131060">
        <ele>483.4</ele>
        <time>2022-06-02T09:19:55Z</time>
      </trkpt>
      <trkpt lat="47.4879780" lon="8.1128730">
        <ele>481.6</ele>
        <time>2022-06-02T09:19:56Z</time>
      </trkpt>
      <trkpt lat="47.4879650" lon="8.1126400">
        <ele>480.0</ele>
        <time>2022-06-02T09:19:57Z</time>
      </trkpt>
      <trkpt lat="47.4879210" lon="8.1121700">
        <ele>477.4</ele>
        <time>2022-06-02T09:19:59Z</time>
      </trkpt>
      <trkpt lat="47.4878780" lon="8.1116960">
        <ele>475.2</ele>
        <time>2022-06-02T09:20:01Z</time>
      </trkpt>
      <trkpt lat="47.4878390" lon="8.1112210">
        <ele>473.2</ele>
        <time>2022-06-02T09:20:03Z</time>
      </trkpt>
      <trkpt lat="47.4877910" lon="8.1107510">
        <ele>470.8</ele>
        <time>2022-06-02T09:20:05Z</time>
      </trkpt>
      <trkpt lat="47.4877640" lon="8.1105180">
        <ele>469.6</ele>
        <time>2022-06-02T09:20:06Z</time>
      </trkpt>
      <trkpt lat="47.4877190" lon="8.1100580">
        <ele>467.2</ele>
        <time>2022-06-02T09:20:08Z</time>
      </trkpt>
      <trkpt lat="47.4876790" lon="8.1095980">
        <ele>465.0</ele>
        <time>2022-06-02T09:20:10Z</time>
      </trkpt>
      <trkpt lat="47.4876370" lon="8.1091440">
        <ele>463.0</ele>
        <time>2022-06-02T09:20:12Z</time>
      </trkpt>
      <trkpt lat="47.4876170" lon="8.1089190">
        <ele>462.2</ele>
        <time>2022-06-02T09:20:13Z</time>
      </trkpt>
      <trkpt lat="47.4875960" lon="8.1086950">
        <ele>460.4</ele>
        <time>2022-06-02T09:20:14Z</time>
      </trkpt>
      <trkpt lat="47.4875760" lon="8.1084720">
        <ele>459.0</ele>
        <time>2022-06-02T09:20:15Z</time>
      </trkpt>
      <trkpt lat="47.4875390" lon="8.1080280">
        <ele>457.0</ele>
        <time>2022-06-02T09:20:17Z</time>
      </trkpt>
      <trkpt lat="47.4875110" lon="8.1075810">
        <ele>454.6</ele>
        <time>2022-06-02T09:20:19Z</time>
      </trkpt>
      <trkpt lat="47.4875110" lon="8.1073590">
        <ele>453.8</ele>
        <time>2022-06-02T09:20:20Z</time>
      </trkpt>
      <trkpt lat="47.4875220" lon="8.1071410">
        <ele>452.8</ele>
        <time>2022-06-02T09:20:21Z</time>
      </trkpt>
      <trkpt lat="47.4875720" lon="8.1067100">
        <ele>450.6</ele>
        <time>2022-06-02T09:20:23Z</time>
      </trkpt>
      <trkpt lat="47.4876140" lon="8.1065030">
        <ele>449.2</ele>
        <time>2022-06-02T09:20:24Z</time>
      </trkpt>
      <trkpt lat="47.4877330" lon="8.1061100">
        <ele>447.0</ele>
        <time>2022-06-02T09:20:26Z</time>
      </trkpt>
      <trkpt lat="47.4878080" lon="8.1059280">
        <ele>446.2</ele>
        <time>2022-06-02T09:20:27Z</time>
      </trkpt>
      <trkpt lat="47.4878910" lon="8.1057570">
        <ele>445.0</ele>
        <time>2022-06-02T09:20:28Z</time>
      </trkpt>
      <trkpt lat="47.4880560" lon="8.1054200">
        <ele>442.8</ele>
        <time>2022-06-02T09:20:30Z</time>
      </trkpt>
      <trkpt lat="47.4881330" lon="8.1052640">
        <ele>441.8</ele>
        <time>2022-06-02T09:20:31Z</time>
      </trkpt>
      <trkpt lat="47.4882070" lon="8.1051190">
        <ele>441.2</ele>
        <time>2022-06-02T09:20:32Z</time>
      </trkpt>
      <trkpt lat="47.4882760" lon="8.1049840">
        <ele>440.2</ele>
        <time>2022-06-02T09:20:33Z</time>
      </trkpt>
      <trkpt lat="47.4883920" lon="8.1047610">
        <ele>438.0</ele>
        <time>2022-06-02T09:20:35Z</time>
      </trkpt>
      <trkpt lat="47.4884980" lon="8.1045710">
        <ele>436.0</ele>
        <time>2022-06-02T09:20:37Z</time>
      </trkpt>
      <trkpt lat="47.4885350" lon="8.1045240">
        <ele>435.6</ele>
        <time>2022-06-02T09:20:38Z</time>
      </trkpt>
      <trkpt lat="47.4885760" lon="8.1044740">
        <ele>434.8</ele>
        <time>2022-06-02T09:20:39Z</time>
      </trkpt>
      <trkpt lat="47.4886180" lon="8.1044360">
        <ele>434.0</ele>
        <time>2022-06-02T09:20:40Z</time>
      </trkpt>
      <trkpt lat="47.4886600" lon="8.1044140">
        <ele>433.6</ele>
        <time>2022-06-02T09:20:41Z</time>
      </trkpt>
      <trkpt lat="47.4886990" lon="8.1044050">
        <ele>432.8</ele>
        <time>2022-06-02T09:20:42Z</time>
      </trkpt>
      <trkpt lat="47.4887510" lon="8.1044010">
        <ele>432.0</ele>
        <time>2022-06-02T09:20:44Z</time>
      </trkpt>
      <trkpt lat="47.4888170" lon="8.1044110">
        <ele>431.2</ele>
        <time>2022-06-02T09:20:47Z</time>
      </trkpt>
      <trkpt lat="47.4888370" lon="8.1044150">
        <ele>430.8</ele>
        <time>2022-06-02T09:20:48Z</time>
      </trkpt>
      <trkpt lat="47.4888870" lon="8.1044250">
        <ele>430.4</ele>
        <time>2022-06-02T09:20:50Z</time>
      </trkpt>
      <trkpt lat="47.4889470" lon="8.1044380">
        <ele>429.4</ele>
        <time>2022-06-02T09:20:53Z</time>
      </trkpt>
      <trkpt lat="47.4891340" lon="8.1044360">
        <ele>428.6</ele>
        <time>2022-06-02T09:20:58Z</time>
      </trkpt>
      <trkpt lat="47.4892260" lon="8.1044350">
        <ele>428.4</ele>
        <time>2022-06-02T09:21:00Z</time>
      </trkpt>
      <trkpt lat="47.4893690" lon="8.1044430">
        <ele>428.0</ele>
        <time>2022-06-02T09:21:03Z</time>
      </trkpt>
      <trkpt lat="47.4894170" lon="8.1044360">
        <ele>428.0</ele>
        <time>2022-06-02T09:21:04Z</time>
      </trkpt>
      <trkpt lat="47.4897110" lon="8.1044230">
        <ele>428.0</ele>
        <time>2022-06-02T09:21:10Z</time>
      </trkpt>
      <trkpt lat="47.4897600" lon="8.1044150">
        <ele>428.0</ele>
        <time>2022-06-02T09:21:11Z</time>
      </trkpt>
      <trkpt lat="47.4898070" lon="8.1044120">
        <ele>428.0</ele>
        <time>2022-06-02T09:21:12Z</time>
      </trkpt>
      <trkpt lat="47.4899000" lon="8.1044140">
        <ele>428.0</ele>
        <time>2022-06-02T09:21:14Z</time>
      </trkpt>
      <trkpt lat="47.4899940" lon="8.1043890">
        <ele>427.8</ele>
        <time>2022-06-02T09:21:16Z</time>
      </trkpt>
      <trkpt lat="47.4900730" lon="8.1043240">
        <ele>427.6</ele>
        <time>2022-06-02T09:21:18Z</time>
      </trkpt>
      <trkpt lat="47.4901340" lon="8.1042230">
        <ele>427.8</ele>
        <time>2022-06-02T09:21:20Z</time>
      </trkpt>
      <trkpt lat="47.4901740" lon="8.1041000">
        <ele>427.8</ele>
        <time>2022-06-02T09:21:22Z</time>
      </trkpt>
      <trkpt lat="47.4902040" lon="8.1039050">
        <ele>428.0</ele>
        <time>2022-06-02T09:21:25Z</time>
      </trkpt>
      <trkpt lat="47.4902100" lon="8.1038380">
        <ele>428.0</ele>
        <time>2022-06-02T09:21:26Z</time>
      </trkpt>
      <trkpt lat="47.4902330" lon="8.1033890">
        <ele>428.2</ele>
        <time>2022-06-02T09:21:33Z</time>
      </trkpt>
      <trkpt lat="47.4902550" lon="8.1030710">
        <ele>428.2</ele>
        <time>2022-06-02T09:21:38Z</time>
      </trkpt>
      <trkpt lat="47.4902610" lon="8.1029430">
        <ele>428.0</ele>
        <time>2022-06-02T09:21:40Z</time>
      </trkpt>
      <trkpt lat="47.4902720" lon="8.1026550">
        <ele>427.8</ele>
        <time>2022-06-02T09:21:44Z</time>
      </trkpt>
      <trkpt lat="47.4902620" lon="8.1025040">
        <ele>427.6</ele>
        <time>2022-06-02T09:21:46Z</time>
      </trkpt>
      <trkpt lat="47.4902480" lon="8.1024300">
        <ele>427.4</ele>
        <time>2022-06-02T09:21:47Z</time>
      </trkpt>
      <trkpt lat="47.4901920" lon="8.1022090">
        <ele>427.0</ele>
        <time>2022-06-02T09:21:50Z</time>
      </trkpt>
      <trkpt lat="47.4901680" lon="8.1020560">
        <ele>426.8</ele>
        <time>2022-06-02T09:21:52Z</time>
      </trkpt>
      <trkpt lat="47.4901550" lon="8.1018300">
        <ele>426.4</ele>
        <time>2022-06-02T09:21:55Z</time>
      </trkpt>
      <trkpt lat="47.4901610" lon="8.1016840">
        <ele>426.0</ele>
        <time>2022-06-02T09:21:57Z</time>
      </trkpt>
      <trkpt lat="47.4901630" lon="8.1015460">
        <ele>425.6</ele>
        <time>2022-06-02T09:21:59Z</time>
      </trkpt>
      <trkpt lat="47.4901660" lon="8.1013440">
        <ele>425.4</ele>
        <time>2022-06-02T09:22:02Z</time>
      </trkpt>
      <trkpt lat="47.4901690" lon="8.1012110">
        <ele>425.4</ele>
        <time>2022-06-02T09:22:04Z</time>
      </trkpt>
      <trkpt lat="47.4901710" lon="8.1010780">
        <ele>425.4</ele>
        <time>2022-06-02T09:22:06Z</time>
      </trkpt>
      <trkpt lat="47.4901600" lon="8.1009520">
        <ele>425.4</ele>
        <time>2022-06-02T09:22:08Z</time>
      </trkpt>
      <trkpt lat="47.4901360" lon="8.1008250">
        <ele>425.4</ele>
        <time>2022-06-02T09:22:10Z</time>
      </trkpt>
      <trkpt lat="47.4900900" lon="8.1007140">
        <ele>425.6</ele>
        <time>2022-06-02T09:22:12Z</time>
      </trkpt>
      <trkpt lat="47.4900610" lon="8.1006600">
        <ele>425.6</ele>
        <time>2022-06-02T09:22:13Z</time>
      </trkpt>
      <trkpt lat="47.4900320" lon="8.1006060">
        <ele>425.4</ele>
        <time>2022-06-02T09:22:14Z</time>
      </trkpt>
      <trkpt lat="47.4899200" lon="8.1003900">
        <ele>425.0</ele>
        <time>2022-06-02T09:22:18Z</time>
      </trkpt>
      <trkpt lat="47.4899050" lon="8.1003350">
        <ele>424.8</ele>
        <time>2022-06-02T09:22:19Z</time>
      </trkpt>
      <trkpt lat="47.4899000" lon="8.1002720">
        <ele>424.8</ele>
        <time>2022-06-02T09:22:20Z</time>
      </trkpt>
      <trkpt lat="47.4899300" lon="8.1001230">
        <ele>424.4</ele>
        <time>2022-06-02T09:22:22Z</time>
      </trkpt>
      <trkpt lat="47.4899690" lon="8.0999660">
        <ele>423.8</ele>
        <time>2022-06-02T09:22:24Z</time>
      </trkpt>
      <trkpt lat="47.4900230" lon="8.0997380">
        <ele>423.2</ele>
        <time>2022-06-02T09:22:27Z</time>
      </trkpt>
      <trkpt lat="47.4900260" lon="8.0996600">
        <ele>423.0</ele>
        <time>2022-06-02T09:22:28Z</time>
      </trkpt>
      <trkpt lat="47.4900260" lon="8.0995870">
        <ele>423.0</ele>
        <time>2022-06-02T09:22:29Z</time>
      </trkpt>
      <trkpt lat="47.4900340" lon="8.0995250">
        <ele>422.8</ele>
        <time>2022-06-02T09:22:30Z</time>
      </trkpt>
      <trkpt lat="47.4900540" lon="8.0994710">
        <ele>422.8</ele>
        <time>2022-06-02T09:22:31Z</time>
      </trkpt>
      <trkpt lat="47.4902520" lon="8.0990470">
        <ele>422.6</ele>
        <time>2022-06-02T09:22:38Z</time>
      </trkpt>
      <trkpt lat="47.4905060" lon="8.0984530">
        <ele>422.8</ele>
        <time>2022-06-02T09:22:47Z</time>
      </trkpt>
      <trkpt lat="47.4907690" lon="8.0978450">
        <ele>422.6</ele>
        <time>2022-06-02T09:22:56Z</time>
      </trkpt>
      <trkpt lat="47.4909480" lon="8.0974090">
        <ele>422.4</ele>
        <time>2022-06-02T09:23:03Z</time>
      </trkpt>
      <trkpt lat="47.4909970" lon="8.0972960">
        <ele>422.2</ele>
        <time>2022-06-02T09:23:05Z</time>
      </trkpt>
      <trkpt lat="47.4911190" lon="8.0970140">
        <ele>422.2</ele>
        <time>2022-06-02T09:23:10Z</time>
      </trkpt>
      <trkpt lat="47.4913590" lon="8.0964450">
        <ele>421.8</ele>
        <time>2022-06-02T09:23:19Z</time>
      </trkpt>
      <trkpt lat="47.4914180" lon="8.0963090">
        <ele>421.8</ele>
        <time>2022-06-02T09:23:21Z</time>
      </trkpt>
      <trkpt lat="47.4916240" lon="8.0958460">
        <ele>422.0</ele>
        <time>2022-06-02T09:23:28Z</time>
      </trkpt>
      <trkpt lat="47.4917680" lon="8.0954950">
        <ele>421.8</ele>
        <time>2022-06-02T09:23:34Z</time>
      </trkpt>
      <trkpt lat="47.4920500" lon="8.0947810">
        <ele>420.6</ele>
        <time>2022-06-02T09:23:45Z</time>
      </trkpt>
      <trkpt lat="47.4921790" lon="8.0944070">
        <ele>419.4</ele>
        <time>2022-06-02T09:23:50Z</time>
      </trkpt>
      <trkpt lat="47.4922370" lon="8.0942370">
        <ele>419.2</ele>
        <time>2022-06-02T09:23:52Z</time>
      </trkpt>
      <trkpt lat="47.4923710" lon="8.0938470">
        <ele>418.2</ele>
        <time>2022-06-02T09:23:57Z</time>
      </trkpt>
      <trkpt lat="47.4925430" lon="8.0933320">
        <ele>417.4</ele>
        <time>2022-06-02T09:24:03Z</time>
      </trkpt>
      <trkpt lat="47.4926040" lon="8.0931530">
        <ele>416.8</ele>
        <time>2022-06-02T09:24:05Z</time>
      </trkpt>
      <trkpt lat="47.4927640" lon="8.0926470">
        <ele>415.8</ele>
        <time>2022-06-02T09:24:11Z</time>
      </trkpt>
      <trkpt lat="47.4928820" lon="8.0923010">
        <ele>414.6</ele>
        <time>2022-06-02T09:24:15Z</time>
      </trkpt>
      <trkpt lat="47.4930150" lon="8.0918950">
        <ele>413.6</ele>
        <time>2022-06-02T09:24:20Z</time>
      </trkpt>
      <trkpt lat="47.4931830" lon="8.0914480">
        <ele>412.8</ele>
        <time>2022-06-02T09:24:26Z</time>
      </trkpt>
      <trkpt lat="47.4932370" lon="8.0912760">
        <ele>412.6</ele>
        <time>2022-06-02T09:24:28Z</time>
      </trkpt>
      <trkpt lat="47.4932730" lon="8.0911150">
        <ele>412.6</ele>
        <time>2022-06-02T09:24:30Z</time>
      </trkpt>
      <trkpt lat="47.4933420" lon="8.0908060">
        <ele>412.2</ele>
        <time>2022-06-02T09:24:34Z</time>
      </trkpt>
      <trkpt lat="47.4933410" lon="8.0907220">
        <ele>412.0</ele>
        <time>2022-06-02T09:24:35Z</time>
      </trkpt>
      <trkpt lat="47.4933490" lon="8.0905740">
        <ele>411.8</ele>
        <time>2022-06-02T09:24:37Z</time>
      </trkpt>
      <trkpt lat="47.4933850" lon="8.0903980">
        <ele>411.6</ele>
        <time>2022-06-02T09:24:39Z</time>
      </trkpt>
      <trkpt lat="47.4934030" lon="8.0903140">
        <ele>411.4</ele>
        <time>2022-06-02T09:24:40Z</time>
      </trkpt>
      <trkpt lat="47.4935220" lon="8.0896960">
        <ele>410.4</ele>
        <time>2022-06-02T09:24:47Z</time>
      </trkpt>
      <trkpt lat="47.4935450" lon="8.0896010">
        <ele>410.4</ele>
        <time>2022-06-02T09:24:48Z</time>
      </trkpt>
      <trkpt lat="47.4937350" lon="8.0887940">
        <ele>409.6</ele>
        <time>2022-06-02T09:24:56Z</time>
      </trkpt>
      <trkpt lat="47.4937810" lon="8.0886020">
        <ele>409.2</ele>
        <time>2022-06-02T09:24:58Z</time>
      </trkpt>
      <trkpt lat="47.4939380" lon="8.0879530">
        <ele>408.2</ele>
        <time>2022-06-02T09:25:05Z</time>
      </trkpt>
      <trkpt lat="47.4940870" lon="8.0873260">
        <ele>407.4</ele>
        <time>2022-06-02T09:25:12Z</time>
      </trkpt>
      <trkpt lat="47.4941480" lon="8.0870600">
        <ele>407.2</ele>
        <time>2022-06-02T09:25:15Z</time>
      </trkpt>
      <trkpt lat="47.4942340" lon="8.0867030">
        <ele>406.8</ele>
        <time>2022-06-02T09:25:19Z</time>
      </trkpt>
      <trkpt lat="47.4944300" lon="8.0858800">
        <ele>406.4</ele>
        <time>2022-06-02T09:25:28Z</time>
      </trkpt>
      <trkpt lat="47.4945680" lon="8.0853520">
        <ele>406.0</ele>
        <time>2022-06-02T09:25:34Z</time>
      </trkpt>
      <trkpt lat="47.4946350" lon="8.0850920">
        <ele>405.8</ele>
        <time>2022-06-02T09:25:37Z</time>
      </trkpt>
      <trkpt lat="47.4948150" lon="8.0843450">
        <ele>405.0</ele>
        <time>2022-06-02T09:25:45Z</time>
      </trkpt>
      <trkpt lat="47.4948340" lon="8.0842460">
        <ele>404.8</ele>
        <time>2022-06-02T09:25:46Z</time>
      </trkpt>
      <trkpt lat="47.4949650" lon="8.0834470">
        <ele>403.8</ele>
        <time>2022-06-02T09:25:54Z</time>
      </trkpt>
      <trkpt lat="47.4950540" lon="8.0826880">
        <ele>403.0</ele>
        <time>2022-06-02T09:26:02Z</time>
      </trkpt>
      <trkpt lat="47.4950620" lon="8.0825940">
        <ele>402.8</ele>
        <time>2022-06-02T09:26:03Z</time>
      </trkpt>
      <trkpt lat="47.4951790" lon="8.0817880">
        <ele>402.0</ele>
        <time>2022-06-02T09:26:12Z</time>
      </trkpt>
      <trkpt lat="47.4951950" lon="8.0816960">
        <ele>401.6</ele>
        <time>2022-06-02T09:26:13Z</time>
      </trkpt>
      <trkpt lat="47.4952850" lon="8.0813370">
        <ele>401.2</ele>
        <time>2022-06-02T09:26:17Z</time>
      </trkpt>
      <trkpt lat="47.4953180" lon="8.0812600">
        <ele>401.2</ele>
        <time>2022-06-02T09:26:18Z</time>
      </trkpt>
      <trkpt lat="47.4955160" lon="8.0807340">
        <ele>400.8</ele>
        <time>2022-06-02T09:26:25Z</time>
      </trkpt>
      <trkpt lat="47.4956490" lon="8.0804430">
        <ele>400.6</ele>
        <time>2022-06-02T09:26:29Z</time>
      </trkpt>
      <trkpt lat="47.4957570" lon="8.0802420">
        <ele>400.4</ele>
        <time>2022-06-02T09:26:32Z</time>
      </trkpt>
      <trkpt lat="47.4960320" lon="8.0798070">
        <ele>400.0</ele>
        <time>2022-06-02T09:26:39Z</time>
      </trkpt>
      <trkpt lat="47.4961180" lon="8.0797000">
        <ele>399.8</ele>
        <time>2022-06-02T09:26:41Z</time>
      </trkpt>
      <trkpt lat="47.4963020" lon="8.0794870">
        <ele>399.6</ele>
        <time>2022-06-02T09:26:45Z</time>
      </trkpt>
      <trkpt lat="47.4965500" lon="8.0792130">
        <ele>399.2</ele>
        <time>2022-06-02T09:26:50Z</time>
      </trkpt>
      <trkpt lat="47.4969430" lon="8.0787620">
        <ele>399.2</ele>
        <time>2022-06-02T09:26:58Z</time>
      </trkpt>
      <trkpt lat="47.4973070" lon="8.0783500">
        <ele>399.6</ele>
        <time>2022-06-02T09:27:06Z</time>
      </trkpt>
      <trkpt lat="47.4976350" lon="8.0778680">
        <ele>399.4</ele>
        <time>2022-06-02T09:27:14Z</time>
      </trkpt>
      <trkpt lat="47.4979360" lon="8.0773550">
        <ele>399.0</ele>
        <time>2022-06-02T09:27:22Z</time>
      </trkpt>
      <trkpt lat="47.4981490" lon="8.0768950">
        <ele>398.6</ele>
        <time>2022-06-02T09:27:28Z</time>
      </trkpt>
      <trkpt lat="47.4982580" lon="8.0766470">
        <ele>398.4</ele>
        <time>2022-06-02T09:27:31Z</time>
      </trkpt>
      <trkpt lat="47.4984330" lon="8.0762080">
        <ele>397.4</ele>
        <time>2022-06-02T09:27:36Z</time>
      </trkpt>
      <trkpt lat="47.4985380" lon="8.0759430">
        <ele>397.0</ele>
        <time>2022-06-02T09:27:39Z</time>
      </trkpt>
      <trkpt lat="47.4986060" lon="8.0757700">
        <ele>396.4</ele>
        <time>2022-06-02T09:27:41Z</time>
      </trkpt>
      <trkpt lat="47.4988010" lon="8.0752460">
        <ele>395.8</ele>
        <time>2022-06-02T09:27:47Z</time>
      </trkpt>
      <trkpt lat="47.4988930" lon="8.0749820">
        <ele>395.4</ele>
        <time>2022-06-02T09:27:50Z</time>
      </trkpt>
      <trkpt lat="47.4990710" lon="8.0745020">
        <ele>395.0</ele>
        <time>2022-06-02T09:27:56Z</time>
      </trkpt>
      <trkpt lat="47.4992420" lon="8.0740860">
        <ele>394.8</ele>
        <time>2022-06-02T09:28:02Z</time>
      </trkpt>
      <trkpt lat="47.4993450" lon="8.0738120">
        <ele>394.4</ele>
        <time>2022-06-02T09:28:06Z</time>
      </trkpt>
      <trkpt lat="47.4994250" lon="8.0736190">
        <ele>394.2</ele>
        <time>2022-06-02T09:28:09Z</time>
      </trkpt>
      <trkpt lat="47.4996070" lon="8.0729770">
        <ele>393.8</ele>
        <time>2022-06-02T09:28:18Z</time>
      </trkpt>
      <trkpt lat="47.4996360" lon="8.0723000">
        <ele>393.4</ele>
        <time>2022-06-02T09:28:26Z</time>
      </trkpt>
      <trkpt lat="47.4996340" lon="8.0722150">
        <ele>393.4</ele>
        <time>2022-06-02T09:28:27Z</time>
      </trkpt>
      <trkpt lat="47.4995760" lon="8.0717200">
        <ele>393.0</ele>
        <time>2022-06-02T09:28:33Z</time>
      </trkpt>
      <trkpt lat="47.4994810" lon="8.0710920">
        <ele>392.6</ele>
        <time>2022-06-02T09:28:41Z</time>
      </trkpt>
      <trkpt lat="47.4994580" lon="8.0706050">
        <ele>393.0</ele>
        <time>2022-06-02T09:28:48Z</time>
      </trkpt>
      <trkpt lat="47.4994560" lon="8.0704120">
        <ele>393.4</ele>
        <time>2022-06-02T09:28:51Z</time>
      </trkpt>
      <trkpt lat="47.4994690" lon="8.0702260">
        <ele>394.0</ele>
        <time>2022-06-02T09:28:54Z</time>
      </trkpt>
      <trkpt lat="47.4994760" lon="8.0701630">
        <ele>394.2</ele>
        <time>2022-06-02T09:28:55Z</time>
      </trkpt>
      <trkpt lat="47.4994850" lon="8.0701030">
        <ele>394.4</ele>
        <time>2022-06-02T09:28:56Z</time>
      </trkpt>
      <trkpt lat="47.4995070" lon="8.0699920">
        <ele>394.8</ele>
        <time>2022-06-02T09:28:58Z</time>
      </trkpt>
      <trkpt lat="47.4995400" lon="8.0698370">
        <ele>395.6</ele>
        <time>2022-06-02T09:29:01Z</time>
      </trkpt>
      <trkpt lat="47.4996110" lon="8.0695130">
        <ele>396.6</ele>
        <time>2022-06-02T09:29:07Z</time>
      </trkpt>
      <trkpt lat="47.4996760" lon="8.0692010">
        <ele>396.8</ele>
        <time>2022-06-02T09:29:12Z</time>
      </trkpt>
      <trkpt lat="47.4997610" lon="8.0687770">
        <ele>396.6</ele>
        <time>2022-06-02T09:29:18Z</time>
      </trkpt>
      <trkpt lat="47.4998080" lon="8.0685690">
        <ele>396.4</ele>
        <time>2022-06-02T09:29:21Z</time>
      </trkpt>
      <trkpt lat="47.4998520" lon="8.0683600">
        <ele>396.2</ele>
        <time>2022-06-02T09:29:24Z</time>
      </trkpt>
      <trkpt lat="47.4998680" lon="8.0682900">
        <ele>396.0</ele>
        <time>2022-06-02T09:29:25Z</time>
      </trkpt>
      <trkpt lat="47.4999590" lon="8.0679390">
        <ele>395.6</ele>
        <time>2022-06-02T09:29:30Z</time>
      </trkpt>
      <trkpt lat="47.4999750" lon="8.0678630">
        <ele>395.6</ele>
        <time>2022-06-02T09:29:31Z</time>
      </trkpt>
      <trkpt lat="47.5001010" lon="8.0674650">
        <ele>395.0</ele>
        <time>2022-06-02T09:29:37Z</time>
      </trkpt>
      <trkpt lat="47.5002680" lon="8.0669280">
        <ele>394.8</ele>
        <time>2022-06-02T09:29:45Z</time>
      </trkpt>
      <trkpt lat="47.5004480" lon="8.0664640">
        <ele>395.0</ele>
        <time>2022-06-02T09:29:53Z</time>
      </trkpt>
      <trkpt lat="47.5005400" lon="8.0661850">
        <ele>395.0</ele>
        <time>2022-06-02T09:29:59Z</time>
      </trkpt>
      <trkpt lat="47.5006510" lon="8.0659760">
        <ele>395.0</ele>
        <time>2022-06-02T09:30:03Z</time>
      </trkpt>
      <trkpt lat="47.5007500" lon="8.0657650">
        <ele>394.4</ele>
        <time>2022-06-02T09:30:07Z</time>
      </trkpt>
      <trkpt lat="47.5007630" lon="8.0657090">
        <ele>393.8</ele>
        <time>2022-06-02T09:30:08Z</time>
      </trkpt>
      <trkpt lat="47.5007640" lon="8.0656470">
        <ele>393.6</ele>
        <time>2022-06-02T09:30:09Z</time>
      </trkpt>
      <trkpt lat="47.5007180" lon="8.0655330">
        <ele>393.0</ele>
        <time>2022-06-02T09:30:11Z</time>
      </trkpt>
      <trkpt lat="47.5006950" lon="8.0654700">
        <ele>391.8</ele>
        <time>2022-06-02T09:30:12Z</time>
      </trkpt>
      <trkpt lat="47.5006440" lon="8.0654160">
        <ele>390.4</ele>
        <time>2022-06-02T09:30:14Z</time>
      </trkpt>
      <trkpt lat="47.5005940" lon="8.0653620">
        <ele>389.4</ele>
        <time>2022-06-02T09:30:15Z</time>
      </trkpt>
      <trkpt lat="47.5005430" lon="8.0653090">
        <ele>388.4</ele>
        <time>2022-06-02T09:30:17Z</time>
      </trkpt>
      <trkpt lat="47.5004920" lon="8.0652550">
        <ele>387.8</ele>
        <time>2022-06-02T09:30:18Z</time>
      </trkpt>
      <trkpt lat="47.5002880" lon="8.0650400">
        <ele>386.8</ele>
        <time>2022-06-02T09:30:19Z</time>
      </trkpt>
      <trkpt lat="47.5002610" lon="8.0649680">
        <ele>386.4</ele>
        <time>2022-06-02T09:30:20Z</time>
      </trkpt>
      <trkpt lat="47.5002070" lon="8.0648400">
        <ele>385.4</ele>
        <time>2022-06-02T09:30:22Z</time>
      </trkpt>
      <trkpt lat="47.5001630" lon="8.0647340">
        <ele>384.0</ele>
        <time>2022-06-02T09:30:24Z</time>
      </trkpt>
      <trkpt lat="47.5001560" lon="8.0646870">
        <ele>383.8</ele>
        <time>2022-06-02T09:30:25Z</time>
      </trkpt>
      <trkpt lat="47.5001580" lon="8.0646520">
        <ele>383.2</ele>
        <time>2022-06-02T09:30:26Z</time>
      </trkpt>
      <trkpt lat="47.5001700" lon="8.0646120">
        <ele>383.0</ele>
        <time>2022-06-02T09:30:27Z</time>
      </trkpt>
      <trkpt lat="47.5001980" lon="8.0645760">
        <ele>382.4</ele>
        <time>2022-06-02T09:30:28Z</time>
      </trkpt>
      <trkpt lat="47.5002800" lon="8.0645240">
        <ele>381.8</ele>
        <time>2022-06-02T09:30:30Z</time>
      </trkpt>
      <trkpt lat="47.5003620" lon="8.0644590">
        <ele>381.4</ele>
        <time>2022-06-02T09:30:32Z</time>
      </trkpt>
      <trkpt lat="47.5003980" lon="8.0644170">
        <ele>381.2</ele>
        <time>2022-06-02T09:30:33Z</time>
      </trkpt>
      <trkpt lat="47.5005210" lon="8.0642140">
        <ele>380.8</ele>
        <time>2022-06-02T09:30:37Z</time>
      </trkpt>
      <trkpt lat="47.5005530" lon="8.0641690">
        <ele>380.8</ele>
        <time>2022-06-02T09:30:38Z</time>
      </trkpt>
      <trkpt lat="47.5006600" lon="8.0640430">
        <ele>380.4</ele>
        <time>2022-06-02T09:30:41Z</time>
      </trkpt>
      <trkpt lat="47.5007240" lon="8.0639430">
        <ele>380.4</ele>
        <time>2022-06-02T09:30:43Z</time>
      </trkpt>
      <trkpt lat="47.5007520" lon="8.0638880">
        <ele>380.2</ele>
        <time>2022-06-02T09:30:44Z</time>
      </trkpt>
      <trkpt lat="47.5009780" lon="8.0634260">
        <ele>380.0</ele>
        <time>2022-06-02T09:30:52Z</time>
      </trkpt>
      <trkpt lat="47.5011170" lon="8.0631300">
        <ele>379.8</ele>
        <time>2022-06-02T09:30:57Z</time>
      </trkpt>
      <trkpt lat="47.5011710" lon="8.0630040">
        <ele>379.8</ele>
        <time>2022-06-02T09:30:59Z</time>
      </trkpt>
      <trkpt lat="47.5013970" lon="8.0625110">
        <ele>379.4</ele>
        <time>2022-06-02T09:31:07Z</time>
      </trkpt>
      <trkpt lat="47.5015960" lon="8.0620660">
        <ele>378.8</ele>
        <time>2022-06-02T09:31:14Z</time>
      </trkpt>
      <trkpt lat="47.5016250" lon="8.0620020">
        <ele>378.8</ele>
        <time>2022-06-02T09:31:15Z</time>
      </trkpt>
      <trkpt lat="47.5017540" lon="8.0616830">
        <ele>378.4</ele>
        <time>2022-06-02T09:31:20Z</time>
      </trkpt>
      <trkpt lat="47.5018310" lon="8.0614880">
        <ele>378.2</ele>
        <time>2022-06-02T09:31:23Z</time>
      </trkpt>
      <trkpt lat="47.5019370" lon="8.0612460">
        <ele>378.0</ele>
        <time>2022-06-02T09:31:27Z</time>
      </trkpt>
      <trkpt lat="47.5020110" lon="8.0610630">
        <ele>377.8</ele>
        <time>2022-06-02T09:31:30Z</time>
      </trkpt>
      <trkpt lat="47.5020920" lon="8.0608540">
        <ele>377.6</ele>
        <time>2022-06-02T09:31:34Z</time>
      </trkpt>
      <trkpt lat="47.5021680" lon="8.0606490">
        <ele>377.2</ele>
        <time>2022-06-02T09:31:40Z</time>
      </trkpt>
      <trkpt lat="47.5022600" lon="8.0603650">
        <ele>377.0</ele>
        <time>2022-06-02T09:31:47Z</time>
      </trkpt>
      <trkpt lat="47.5023630" lon="8.0600810">
        <ele>376.8</ele>
        <time>2022-06-02T09:31:53Z</time>
      </trkpt>
      <trkpt lat="47.5023990" lon="8.0599790">
        <ele>376.6</ele>
        <time>2022-06-02T09:31:55Z</time>
      </trkpt>
      <trkpt lat="47.5025040" lon="8.0596700">
        <ele>376.4</ele>
        <time>2022-06-02T09:32:01Z</time>
      </trkpt>
      <trkpt lat="47.5026200" lon="8.0592500">
        <ele>376.2</ele>
        <time>2022-06-02T09:32:08Z</time>
      </trkpt>
      <trkpt lat="47.5027670" lon="8.0587500">
        <ele>376.0</ele>
        <time>2022-06-02T09:32:16Z</time>
      </trkpt>
      <trkpt lat="47.5027760" lon="8.0587020">
        <ele>376.0</ele>
        <time>2022-06-02T09:32:17Z</time>
      </trkpt>
      <trkpt lat="47.5028060" lon="8.0585940">
        <ele>375.8</ele>
        <time>2022-06-02T09:32:21Z</time>
      </trkpt>
      <trkpt lat="47.5028160" lon="8.0586100">
        <ele>375.8</ele>
        <time>2022-06-02T09:32:25Z</time>
      </trkpt>
      <trkpt lat="47.5028100" lon="8.0586310">
        <ele>375.6</ele>
        <time>2022-06-02T09:32:26Z</time>
      </trkpt>
      <trkpt lat="47.5027550" lon="8.0587530">
        <ele>375.2</ele>
        <time>2022-06-02T09:32:31Z</time>
      </trkpt>
      <trkpt lat="47.5027460" lon="8.0587750">
        <ele>375.0</ele>
        <time>2022-06-02T09:32:35Z</time>
      </trkpt>
      <trkpt lat="47.5027560" lon="8.0587510">
        <ele>375.6</ele>
        <time>2022-06-02T09:43:33Z</time>
      </trkpt>
      <trkpt lat="47.5028090" lon="8.0585360">
        <ele>375.8</ele>
        <time>2022-06-02T09:43:38Z</time>
      </trkpt>
      <trkpt lat="47.5028950" lon="8.0581260">
        <ele>375.6</ele>
        <time>2022-06-02T09:43:45Z</time>
      </trkpt>
      <trkpt lat="47.5030120" lon="8.0575760">
        <ele>375.6</ele>
        <time>2022-06-02T09:43:54Z</time>
      </trkpt>
      <trkpt lat="47.5031320" lon="8.0570520">
        <ele>375.4</ele>
        <time>2022-06-02T09:44:02Z</time>
      </trkpt>
      <trkpt lat="47.5031490" lon="8.0569190">
        <ele>375.4</ele>
        <time>2022-06-02T09:44:04Z</time>
      </trkpt>
      <trkpt lat="47.5031560" lon="8.0568530">
        <ele>375.4</ele>
        <time>2022-06-02T09:44:05Z</time>
      </trkpt>
      <trkpt lat="47.5031630" lon="8.0567350">
        <ele>375.4</ele>
        <time>2022-06-02T09:44:07Z</time>
      </trkpt>
      <trkpt lat="47.5031740" lon="8.0566300">
        <ele>375.4</ele>
        <time>2022-06-02T09:44:09Z</time>
      </trkpt>
      <trkpt lat="47.5032580" lon="8.0561570">
        <ele>375.2</ele>
        <time>2022-06-02T09:44:17Z</time>
      </trkpt>
      <trkpt lat="47.5033080" lon="8.0556730">
        <ele>375.0</ele>
        <time>2022-06-02T09:44:24Z</time>
      </trkpt>
      <trkpt lat="47.5033770" lon="8.0550220">
        <ele>374.8</ele>
        <time>2022-06-02T09:44:33Z</time>
      </trkpt>
      <trkpt lat="47.5034000" lon="8.0546250">
        <ele>374.2</ele>
        <time>2022-06-02T09:44:38Z</time>
      </trkpt>
      <trkpt lat="47.5034170" lon="8.0542980">
        <ele>374.0</ele>
        <time>2022-06-02T09:44:42Z</time>
      </trkpt>
      <trkpt lat="47.5034370" lon="8.0535210">
        <ele>373.4</ele>
        <time>2022-06-02T09:44:51Z</time>
      </trkpt>
      <trkpt lat="47.5034500" lon="8.0530740">
        <ele>373.2</ele>
        <time>2022-06-02T09:44:56Z</time>
      </trkpt>
      <trkpt lat="47.5034570" lon="8.0527110">
        <ele>372.8</ele>
        <time>2022-06-02T09:45:00Z</time>
      </trkpt>
      <trkpt lat="47.5034440" lon="8.0521570">
        <ele>372.0</ele>
        <time>2022-06-02T09:45:06Z</time>
      </trkpt>
      <trkpt lat="47.5034420" lon="8.0519460">
        <ele>372.0</ele>
        <time>2022-06-02T09:45:08Z</time>
      </trkpt>
      <trkpt lat="47.5034190" lon="8.0514600">
        <ele>371.2</ele>
        <time>2022-06-02T09:45:13Z</time>
      </trkpt>
      <trkpt lat="47.5033850" lon="8.0507920">
        <ele>370.2</ele>
        <time>2022-06-02T09:45:20Z</time>
      </trkpt>
      <trkpt lat="47.5033780" lon="8.0506730">
        <ele>370.0</ele>
        <time>2022-06-02T09:45:21Z</time>
      </trkpt>
      <trkpt lat="47.5033170" lon="8.0499950">
        <ele>369.2</ele>
        <time>2022-06-02T09:45:28Z</time>
      </trkpt>
      <trkpt lat="47.5033060" lon="8.0498970">
        <ele>369.0</ele>
        <time>2022-06-02T09:45:29Z</time>
      </trkpt>
      <trkpt lat="47.5032390" lon="8.0491950">
        <ele>368.0</ele>
        <time>2022-06-02T09:45:36Z</time>
      </trkpt>
      <trkpt lat="47.5031620" lon="8.0485000">
        <ele>367.0</ele>
        <time>2022-06-02T09:45:43Z</time>
      </trkpt>
      <trkpt lat="47.5031510" lon="8.0484020">
        <ele>366.8</ele>
        <time>2022-06-02T09:45:44Z</time>
      </trkpt>
      <trkpt lat="47.5030640" lon="8.0476850">
        <ele>365.8</ele>
        <time>2022-06-02T09:45:51Z</time>
      </trkpt>
      <trkpt lat="47.5030440" lon="8.0475030">
        <ele>365.6</ele>
        <time>2022-06-02T09:45:53Z</time>
      </trkpt>
      <trkpt lat="47.5029630" lon="8.0469030">
        <ele>364.6</ele>
        <time>2022-06-02T09:45:59Z</time>
      </trkpt>
      <trkpt lat="47.5029090" lon="8.0465080">
        <ele>363.8</ele>
        <time>2022-06-02T09:46:03Z</time>
      </trkpt>
      <trkpt lat="47.5028720" lon="8.0462120">
        <ele>363.6</ele>
        <time>2022-06-02T09:46:06Z</time>
      </trkpt>
      <trkpt lat="47.5027820" lon="8.0455360">
        <ele>363.0</ele>
        <time>2022-06-02T09:46:13Z</time>
      </trkpt>
      <trkpt lat="47.5027270" lon="8.0451670">
        <ele>362.6</ele>
        <time>2022-06-02T09:46:17Z</time>
      </trkpt>
      <trkpt lat="47.5026650" lon="8.0447120">
        <ele>361.8</ele>
        <time>2022-06-02T09:46:22Z</time>
      </trkpt>
      <trkpt lat="47.5026500" lon="8.0446220">
        <ele>361.6</ele>
        <time>2022-06-02T09:46:23Z</time>
      </trkpt>
      <trkpt lat="47.5025450" lon="8.0438950">
        <ele>360.8</ele>
        <time>2022-06-02T09:46:31Z</time>
      </trkpt>
      <trkpt lat="47.5024650" lon="8.0433640">
        <ele>360.4</ele>
        <time>2022-06-02T09:46:37Z</time>
      </trkpt>
      <trkpt lat="47.5023790" lon="8.0428430">
        <ele>359.6</ele>
        <time>2022-06-02T09:46:43Z</time>
      </trkpt>
      <trkpt lat="47.5023510" lon="8.0426670">
        <ele>359.4</ele>
        <time>2022-06-02T09:46:45Z</time>
      </trkpt>
      <trkpt lat="47.5022640" lon="8.0419650">
        <ele>358.8</ele>
        <time>2022-06-02T09:46:53Z</time>
      </trkpt>
      <trkpt lat="47.5021900" lon="8.0410770">
        <ele>358.6</ele>
        <time>2022-06-02T09:47:03Z</time>
      </trkpt>
      <trkpt lat="47.5021740" lon="8.0403970">
        <ele>358.4</ele>
        <time>2022-06-02T09:47:11Z</time>
      </trkpt>
      <trkpt lat="47.5021690" lon="8.0401310">
        <ele>358.4</ele>
        <time>2022-06-02T09:47:14Z</time>
      </trkpt>
      <trkpt lat="47.5021620" lon="8.0395200">
        <ele>358.4</ele>
        <time>2022-06-02T09:47:21Z</time>
      </trkpt>
      <trkpt lat="47.5021590" lon="8.0394320">
        <ele>358.4</ele>
        <time>2022-06-02T09:47:22Z</time>
      </trkpt>
      <trkpt lat="47.5021100" lon="8.0387480">
        <ele>358.2</ele>
        <time>2022-06-02T09:47:30Z</time>
      </trkpt>
      <trkpt lat="47.5021010" lon="8.0386630">
        <ele>358.2</ele>
        <time>2022-06-02T09:47:31Z</time>
      </trkpt>
      <trkpt lat="47.5020490" lon="8.0385140">
        <ele>358.0</ele>
        <time>2022-06-02T09:47:33Z</time>
      </trkpt>
      <trkpt lat="47.5020110" lon="8.0384580">
        <ele>358.0</ele>
        <time>2022-06-02T09:47:34Z</time>
      </trkpt>
      <trkpt lat="47.5019660" lon="8.0384190">
        <ele>357.8</ele>
        <time>2022-06-02T09:47:35Z</time>
      </trkpt>
      <trkpt lat="47.5018630" lon="8.0383710">
        <ele>357.6</ele>
        <time>2022-06-02T09:47:37Z</time>
      </trkpt>
      <trkpt lat="47.5017630" lon="8.0383530">
        <ele>357.6</ele>
        <time>2022-06-02T09:47:39Z</time>
      </trkpt>
      <trkpt lat="47.5016350" lon="8.0383360">
        <ele>357.6</ele>
        <time>2022-06-02T09:47:42Z</time>
      </trkpt>
      <trkpt lat="47.5014180" lon="8.0383030">
        <ele>357.8</ele>
        <time>2022-06-02T09:47:48Z</time>
      </trkpt>
      <trkpt lat="47.5013010" lon="8.0382840">
        <ele>358.2</ele>
        <time>2022-06-02T09:47:53Z</time>
      </trkpt>
      <trkpt lat="47.5012600" lon="8.0382540">
        <ele>358.6</ele>
        <time>2022-06-02T09:47:55Z</time>
      </trkpt>
      <trkpt lat="47.5012530" lon="8.0381880">
        <ele>358.8</ele>
        <time>2022-06-02T09:47:57Z</time>
      </trkpt>
      <trkpt lat="47.5012630" lon="8.0380440">
        <ele>359.8</ele>
        <time>2022-06-02T09:48:00Z</time>
      </trkpt>
      <trkpt lat="47.5012720" lon="8.0379340">
        <ele>360.0</ele>
        <time>2022-06-02T09:48:02Z</time>
      </trkpt>
      <trkpt lat="47.5013190" lon="8.0374470">
        <ele>360.2</ele>
        <time>2022-06-02T09:48:10Z</time>
      </trkpt>
      <trkpt lat="47.5013230" lon="8.0373840">
        <ele>360.4</ele>
        <time>2022-06-02T09:48:11Z</time>
      </trkpt>
      <trkpt lat="47.5013360" lon="8.0372430">
        <ele>360.4</ele>
        <time>2022-06-02T09:48:13Z</time>
      </trkpt>
      <trkpt lat="47.5013460" lon="8.0370570">
        <ele>360.4</ele>
        <time>2022-06-02T09:48:16Z</time>
      </trkpt>
      <trkpt lat="47.5013870" lon="8.0366080">
        <ele>360.6</ele>
        <time>2022-06-02T09:48:22Z</time>
      </trkpt>
      <trkpt lat="47.5013920" lon="8.0365190">
        <ele>360.6</ele>
        <time>2022-06-02T09:48:23Z</time>
      </trkpt>
      <trkpt lat="47.5014690" lon="8.0357910">
        <ele>360.8</ele>
        <time>2022-06-02T09:48:34Z</time>
      </trkpt>
      <trkpt lat="47.5014990" lon="8.0356450">
        <ele>360.8</ele>
        <time>2022-06-02T09:48:37Z</time>
      </trkpt>
      <trkpt lat="47.5015190" lon="8.0356250">
        <ele>360.8</ele>
        <time>2022-06-02T09:48:38Z</time>
      </trkpt>
      <trkpt lat="47.5015440" lon="8.0356210">
        <ele>360.8</ele>
        <time>2022-06-02T09:48:39Z</time>
      </trkpt>
      <trkpt lat="47.5016070" lon="8.0356530">
        <ele>360.8</ele>
        <time>2022-06-02T09:48:41Z</time>
      </trkpt>
      <trkpt lat="47.5018120" lon="8.0358390">
        <ele>360.4</ele>
        <time>2022-06-02T09:48:46Z</time>
      </trkpt>
      <trkpt lat="47.5019550" lon="8.0359620">
        <ele>360.2</ele>
        <time>2022-06-02T09:48:49Z</time>
      </trkpt>
      <trkpt lat="47.5020600" lon="8.0359760">
        <ele>360.2</ele>
        <time>2022-06-02T09:48:51Z</time>
      </trkpt>
      <trkpt lat="47.5021380" lon="8.0358660">
        <ele>360.0</ele>
        <time>2022-06-02T09:48:53Z</time>
      </trkpt>
      <trkpt lat="47.5021700" lon="8.0357960">
        <ele>360.0</ele>
        <time>2022-06-02T09:48:54Z</time>
      </trkpt>
      <trkpt lat="47.5023670" lon="8.0353110">
        <ele>359.8</ele>
        <time>2022-06-02T09:49:01Z</time>
      </trkpt>
      <trkpt lat="47.5023990" lon="8.0352390">
        <ele>359.8</ele>
        <time>2022-06-02T09:49:02Z</time>
      </trkpt>
      <trkpt lat="47.5026480" lon="8.0346340">
        <ele>359.2</ele>
        <time>2022-06-02T09:49:10Z</time>
      </trkpt>
      <trkpt lat="47.5028780" lon="8.0341000">
        <ele>358.4</ele>
        <time>2022-06-02T09:49:16Z</time>
      </trkpt>
      <trkpt lat="47.5030380" lon="8.0337120">
        <ele>357.2</ele>
        <time>2022-06-02T09:49:20Z</time>
      </trkpt>
      <trkpt lat="47.5031580" lon="8.0334190">
        <ele>356.4</ele>
        <time>2022-06-02T09:49:23Z</time>
      </trkpt>
      <trkpt lat="47.5031960" lon="8.0333230">
        <ele>356.2</ele>
        <time>2022-06-02T09:49:24Z</time>
      </trkpt>
      <trkpt lat="47.5034770" lon="8.0326650">
        <ele>355.0</ele>
        <time>2022-06-02T09:49:31Z</time>
      </trkpt>
      <trkpt lat="47.5037410" lon="8.0321670">
        <ele>354.0</ele>
        <time>2022-06-02T09:49:37Z</time>
      </trkpt>
      <trkpt lat="47.5037870" lon="8.0320910">
        <ele>353.6</ele>
        <time>2022-06-02T09:49:38Z</time>
      </trkpt>
      <trkpt lat="47.5040570" lon="8.0316280">
        <ele>352.8</ele>
        <time>2022-06-02T09:49:44Z</time>
      </trkpt>
      <trkpt lat="47.5043130" lon="8.0311740">
        <ele>352.0</ele>
        <time>2022-06-02T09:49:50Z</time>
      </trkpt>
      <trkpt lat="47.5043930" lon="8.0310150">
        <ele>351.8</ele>
        <time>2022-06-02T09:49:52Z</time>
      </trkpt>
      <trkpt lat="47.5045180" lon="8.0308080">
        <ele>351.6</ele>
        <time>2022-06-02T09:49:55Z</time>
      </trkpt>
      <trkpt lat="47.5045610" lon="8.0307470">
        <ele>351.6</ele>
        <time>2022-06-02T09:49:56Z</time>
      </trkpt>
      <trkpt lat="47.5046480" lon="8.0306280">
        <ele>351.4</ele>
        <time>2022-06-02T09:49:58Z</time>
      </trkpt>
      <trkpt lat="47.5047640" lon="8.0304260">
        <ele>351.2</ele>
        <time>2022-06-02T09:50:01Z</time>
      </trkpt>
      <trkpt lat="47.5050130" lon="8.0299870">
        <ele>350.8</ele>
        <time>2022-06-02T09:50:08Z</time>
      </trkpt>
      <trkpt lat="47.5051150" lon="8.0298120">
        <ele>350.6</ele>
        <time>2022-06-02T09:50:11Z</time>
      </trkpt>
      <trkpt lat="47.5052220" lon="8.0296510">
        <ele>350.6</ele>
        <time>2022-06-02T09:50:14Z</time>
      </trkpt>
      <trkpt lat="47.5052540" lon="8.0295890">
        <ele>350.8</ele>
        <time>2022-06-02T09:50:15Z</time>
      </trkpt>
      <trkpt lat="47.5054410" lon="8.0292680">
        <ele>350.6</ele>
        <time>2022-06-02T09:50:21Z</time>
      </trkpt>
      <trkpt lat="47.5055750" lon="8.0290570">
        <ele>350.4</ele>
        <time>2022-06-02T09:50:26Z</time>
      </trkpt>
      <trkpt lat="47.5056870" lon="8.0288140">
        <ele>350.2</ele>
        <time>2022-06-02T09:50:32Z</time>
      </trkpt>
      <trkpt lat="47.5057220" lon="8.0285780">
        <ele>350.2</ele>
        <time>2022-06-02T09:50:38Z</time>
      </trkpt>
      <trkpt lat="47.5057490" lon="8.0283450">
        <ele>350.0</ele>
        <time>2022-06-02T09:50:44Z</time>
      </trkpt>
      <trkpt lat="47.5057820" lon="8.0281330">
        <ele>349.8</ele>
        <time>2022-06-02T09:50:50Z</time>
      </trkpt>
      <trkpt lat="47.5058510" lon="8.0279100">
        <ele>349.6</ele>
        <time>2022-06-02T09:50:56Z</time>
      </trkpt>
      <trkpt lat="47.5059250" lon="8.0275700">
        <ele>349.4</ele>
        <time>2022-06-02T09:51:04Z</time>
      </trkpt>
      <trkpt lat="47.5059960" lon="8.0273660">
        <ele>349.2</ele>
        <time>2022-06-02T09:51:09Z</time>
      </trkpt>
      <trkpt lat="47.5060170" lon="8.0271850">
        <ele>348.8</ele>
        <time>2022-06-02T09:51:13Z</time>
      </trkpt>
      <trkpt lat="47.5060270" lon="8.0271470">
        <ele>348.8</ele>
        <time>2022-06-02T09:51:14Z</time>
      </trkpt>
      <trkpt lat="47.5060990" lon="8.0268690">
        <ele>348.4</ele>
        <time>2022-06-02T09:51:21Z</time>
      </trkpt>
      <trkpt lat="47.5061710" lon="8.0265960">
        <ele>348.2</ele>
        <time>2022-06-02T09:51:26Z</time>
      </trkpt>
      <trkpt lat="47.5062490" lon="8.0262900">
        <ele>348.2</ele>
        <time>2022-06-02T09:51:31Z</time>
      </trkpt>
      <trkpt lat="47.5064050" lon="8.0258160">
        <ele>348.2</ele>
        <time>2022-06-02T09:51:38Z</time>
      </trkpt>
      <trkpt lat="47.5065180" lon="8.0254110">
        <ele>347.8</ele>
        <time>2022-06-02T09:51:43Z</time>
      </trkpt>
      <trkpt lat="47.5065490" lon="8.0252380">
        <ele>347.6</ele>
        <time>2022-06-02T09:51:45Z</time>
      </trkpt>
      <trkpt lat="47.5065830" lon="8.0249840">
        <ele>347.2</ele>
        <time>2022-06-02T09:51:48Z</time>
      </trkpt>
      <trkpt lat="47.5066000" lon="8.0249030">
        <ele>347.2</ele>
        <time>2022-06-02T09:51:49Z</time>
      </trkpt>
      <trkpt lat="47.5066590" lon="8.0244180">
        <ele>346.6</ele>
        <time>2022-06-02T09:51:55Z</time>
      </trkpt>
      <trkpt lat="47.5066690" lon="8.0243400">
        <ele>346.6</ele>
        <time>2022-06-02T09:51:56Z</time>
      </trkpt>
      <trkpt lat="47.5067270" lon="8.0240430">
        <ele>346.4</ele>
        <time>2022-06-02T09:52:00Z</time>
      </trkpt>
      <trkpt lat="47.5067480" lon="8.0239750">
        <ele>346.2</ele>
        <time>2022-06-02T09:52:01Z</time>
      </trkpt>
      <trkpt lat="47.5068710" lon="8.0236140">
        <ele>345.8</ele>
        <time>2022-06-02T09:52:07Z</time>
      </trkpt>
      <trkpt lat="47.5069130" lon="8.0234810">
        <ele>345.6</ele>
        <time>2022-06-02T09:52:11Z</time>
      </trkpt>
      <trkpt lat="47.5069240" lon="8.0234570">
        <ele>345.6</ele>
        <time>2022-06-02T09:52:12Z</time>
      </trkpt>
      <trkpt lat="47.5069520" lon="8.0233970">
        <ele>345.4</ele>
        <time>2022-06-02T09:52:17Z</time>
      </trkpt>
      <trkpt lat="47.5069490" lon="8.0233910">
        <ele>345.4</ele>
        <time>2022-06-02T09:52:18Z</time>
      </trkpt>
      <trkpt lat="47.5069180" lon="8.0233720">
        <ele>345.2</ele>
        <time>2022-06-02T09:52:21Z</time>
      </trkpt>
      <trkpt lat="47.5069050" lon="8.0233770">
        <ele>344.8</ele>
        <time>2022-06-02T09:52:26Z</time>
      </trkpt>
      <trkpt lat="47.5069560" lon="8.0233040">
        <ele>344.6</ele>
        <time>2022-06-02T09:57:40Z</time>
      </trkpt>
      <trkpt lat="47.5069670" lon="8.0232830">
        <ele>344.6</ele>
        <time>2022-06-02T09:57:41Z</time>
      </trkpt>
      <trkpt lat="47.5070090" lon="8.0232390">
        <ele>344.6</ele>
        <time>2022-06-02T09:57:44Z</time>
      </trkpt>
      <trkpt lat="47.5070460" lon="8.0232030">
        <ele>344.4</ele>
        <time>2022-06-02T09:57:46Z</time>
      </trkpt>
      <trkpt lat="47.5071190" lon="8.0230320">
        <ele>344.0</ele>
        <time>2022-06-02T09:57:51Z</time>
      </trkpt>
      <trkpt lat="47.5072170" lon="8.0227270">
        <ele>343.8</ele>
        <time>2022-06-02T09:57:58Z</time>
      </trkpt>
      <trkpt lat="47.5073920" lon="8.0224730">
        <ele>343.6</ele>
        <time>2022-06-02T09:58:05Z</time>
      </trkpt>
      <trkpt lat="47.5074070" lon="8.0224610">
        <ele>343.6</ele>
        <time>2022-06-02T09:58:06Z</time>
      </trkpt>
      <trkpt lat="47.5074310" lon="8.0224440">
        <ele>343.6</ele>
        <time>2022-06-02T09:58:08Z</time>
      </trkpt>
      <trkpt lat="47.5074420" lon="8.0223960">
        <ele>343.8</ele>
        <time>2022-06-02T09:58:10Z</time>
      </trkpt>
      <trkpt lat="47.5074150" lon="8.0223760">
        <ele>343.8</ele>
        <time>2022-06-02T09:58:12Z</time>
      </trkpt>
      <trkpt lat="47.5073710" lon="8.0223890">
        <ele>343.8</ele>
        <time>2022-06-02T09:58:14Z</time>
      </trkpt>
      <trkpt lat="47.5073290" lon="8.0223620">
        <ele>344.0</ele>
        <time>2022-06-02T09:58:16Z</time>
      </trkpt>
      <trkpt lat="47.5072050" lon="8.0221490">
        <ele>344.6</ele>
        <time>2022-06-02T09:58:23Z</time>
      </trkpt>
      <trkpt lat="47.5071130" lon="8.0220430">
        <ele>345.6</ele>
        <time>2022-06-02T09:58:28Z</time>
      </trkpt>
      <trkpt lat="47.5071060" lon="8.0220350">
        <ele>345.8</ele>
        <time>2022-06-02T09:58:30Z</time>
      </trkpt>
      <trkpt lat="47.5071030" lon="8.0220310">
        <ele>346.6</ele>
        <time>2022-06-02T09:58:35Z</time>
      </trkpt>
      <trkpt lat="47.5070340" lon="8.0219610">
        <ele>347.0</ele>
        <time>2022-06-02T09:58:38Z</time>
      </trkpt>
      <trkpt lat="47.5069800" lon="8.0218940">
        <ele>347.2</ele>
        <time>2022-06-02T09:58:40Z</time>
      </trkpt>
      <trkpt lat="47.5069820" lon="8.0217260">
        <ele>347.6</ele>
        <time>2022-06-02T09:58:45Z</time>
      </trkpt>
      <trkpt lat="47.5070020" lon="8.0216660">
        <ele>347.8</ele>
        <time>2022-06-02T09:58:46Z</time>
      </trkpt>
      <trkpt lat="47.5070220" lon="8.0216070">
        <ele>348.0</ele>
        <time>2022-06-02T09:58:54Z</time>
      </trkpt>
      <trkpt lat="47.5070420" lon="8.0215470">
        <ele>348.0</ele>
        <time>2022-06-02T09:58:55Z</time>
      </trkpt>
      <trkpt lat="47.5072590" lon="8.0212280">
        <ele>347.8</ele>
        <time>2022-06-02T09:59:01Z</time>
      </trkpt>
      <trkpt lat="47.5075180" lon="8.0208020">
        <ele>347.4</ele>
        <time>2022-06-02T09:59:09Z</time>
      </trkpt>
      <trkpt lat="47.5077800" lon="8.0203960">
        <ele>347.2</ele>
        <time>2022-06-02T09:59:17Z</time>
      </trkpt>
      <trkpt lat="47.5078860" lon="8.0202430">
        <ele>347.0</ele>
        <time>2022-06-02T09:59:21Z</time>
      </trkpt>
      <trkpt lat="47.5079220" lon="8.0202010">
        <ele>346.8</ele>
        <time>2022-06-02T09:59:23Z</time>
      </trkpt>
      <trkpt lat="47.5079580" lon="8.0201230">
        <ele>346.4</ele>
        <time>2022-06-02T09:59:28Z</time>
      </trkpt>
      <trkpt lat="47.5080230" lon="8.0199750">
        <ele>346.2</ele>
        <time>2022-06-02T09:59:32Z</time>
      </trkpt>
      <trkpt lat="47.5081960" lon="8.0196270">
        <ele>346.2</ele>
        <time>2022-06-02T09:59:38Z</time>
      </trkpt>
      <trkpt lat="47.5082880" lon="8.0194410">
        <ele>345.8</ele>
        <time>2022-06-02T09:59:41Z</time>
      </trkpt>
      <trkpt lat="47.5084400" lon="8.0191150">
        <ele>345.4</ele>
        <time>2022-06-02T09:59:46Z</time>
      </trkpt>
      <trkpt lat="47.5085150" lon="8.0189420">
        <ele>345.2</ele>
        <time>2022-06-02T09:59:49Z</time>
      </trkpt>
      <trkpt lat="47.5085280" lon="8.0189020">
        <ele>345.0</ele>
        <time>2022-06-02T09:59:50Z</time>
      </trkpt>
      <trkpt lat="47.5085380" lon="8.0188800">
        <ele>345.0</ele>
        <time>2022-06-02T09:59:51Z</time>
      </trkpt>
      <trkpt lat="47.5085470" lon="8.0188660">
        <ele>344.8</ele>
        <time>2022-06-02T09:59:53Z</time>
      </trkpt>
      <trkpt lat="47.5085490" lon="8.0188540">
        <ele>344.8</ele>
        <time>2022-06-02T09:59:54Z</time>
      </trkpt>
      <trkpt lat="47.5085330" lon="8.0188480">
        <ele>344.8</ele>
        <time>2022-06-02T09:59:57Z</time>
      </trkpt>
      <trkpt lat="47.5085180" lon="8.0188710">
        <ele>344.8</ele>
        <time>2022-06-02T09:59:58Z</time>
      </trkpt>
      <trkpt lat="47.5084870" lon="8.0189880">
        <ele>344.6</ele>
        <time>2022-06-02T10:00:01Z</time>
      </trkpt>
      <trkpt lat="47.5085060" lon="8.0190350">
        <ele>344.6</ele>
        <time>2022-06-02T10:00:02Z</time>
      </trkpt>
      <trkpt lat="47.5085710" lon="8.0191160">
        <ele>344.4</ele>
        <time>2022-06-02T10:00:04Z</time>
      </trkpt>
      <trkpt lat="47.5086320" lon="8.0192060">
        <ele>344.2</ele>
        <time>2022-06-02T10:00:06Z</time>
      </trkpt>
      <trkpt lat="47.5088110" lon="8.0194450">
        <ele>344.2</ele>
        <time>2022-06-02T10:00:11Z</time>
      </trkpt>
      <trkpt lat="47.5090790" lon="8.0197960">
        <ele>344.0</ele>
        <time>2022-06-02T10:00:18Z</time>
      </trkpt>
      <trkpt lat="47.5091190" lon="8.0198440">
        <ele>344.0</ele>
        <time>2022-06-02T10:00:19Z</time>
      </trkpt>
      <trkpt lat="47.5091970" lon="8.0199420">
        <ele>344.0</ele>
        <time>2022-06-02T10:00:21Z</time>
      </trkpt>
      <trkpt lat="47.5093510" lon="8.0201250">
        <ele>344.0</ele>
        <time>2022-06-02T10:00:25Z</time>
      </trkpt>
      <trkpt lat="47.5094020" lon="8.0201400">
        <ele>344.0</ele>
        <time>2022-06-02T10:00:26Z</time>
      </trkpt>
      <trkpt lat="47.5095570" lon="8.0201780">
        <ele>344.0</ele>
        <time>2022-06-02T10:00:29Z</time>
      </trkpt>
      <trkpt lat="47.5098710" lon="8.0202310">
        <ele>343.4</ele>
        <time>2022-06-02T10:00:34Z</time>
      </trkpt>
      <trkpt lat="47.5100650" lon="8.0202530">
        <ele>343.0</ele>
        <time>2022-06-02T10:00:37Z</time>
      </trkpt>
      <trkpt lat="47.5101890" lon="8.0202530">
        <ele>342.4</ele>
        <time>2022-06-02T10:00:39Z</time>
      </trkpt>
      <trkpt lat="47.5103080" lon="8.0202580">
        <ele>342.0</ele>
        <time>2022-06-02T10:00:41Z</time>
      </trkpt>
      <trkpt lat="47.5106000" lon="8.0201910">
        <ele>341.2</ele>
        <time>2022-06-02T10:00:46Z</time>
      </trkpt>
      <trkpt lat="47.5106930" lon="8.0201620">
        <ele>341.2</ele>
        <time>2022-06-02T10:00:48Z</time>
      </trkpt>
      <trkpt lat="47.5107940" lon="8.0201510">
        <ele>341.0</ele>
        <time>2022-06-02T10:00:50Z</time>
      </trkpt>
      <trkpt lat="47.5108380" lon="8.0201370">
        <ele>341.0</ele>
        <time>2022-06-02T10:00:51Z</time>
      </trkpt>
      <trkpt lat="47.5109670" lon="8.0200610">
        <ele>341.0</ele>
        <time>2022-06-02T10:00:54Z</time>
      </trkpt>
      <trkpt lat="47.5111100" lon="8.0199820">
        <ele>341.0</ele>
        <time>2022-06-02T10:00:57Z</time>
      </trkpt>
      <trkpt lat="47.5113870" lon="8.0198280">
        <ele>341.0</ele>
        <time>2022-06-02T10:01:03Z</time>
      </trkpt>
      <trkpt lat="47.5118040" lon="8.0195220">
        <ele>340.8</ele>
        <time>2022-06-02T10:01:12Z</time>
      </trkpt>
      <trkpt lat="47.5121630" lon="8.0192370">
        <ele>340.6</ele>
        <time>2022-06-02T10:01:20Z</time>
      </trkpt>
      <trkpt lat="47.5123760" lon="8.0190570">
        <ele>340.4</ele>
        <time>2022-06-02T10:01:25Z</time>
      </trkpt>
      <trkpt lat="47.5124540" lon="8.0189820">
        <ele>340.2</ele>
        <time>2022-06-02T10:01:27Z</time>
      </trkpt>
      <trkpt lat="47.5125690" lon="8.0188910">
        <ele>340.0</ele>
        <time>2022-06-02T10:01:30Z</time>
      </trkpt>
      <trkpt lat="47.5127650" lon="8.0187160">
        <ele>339.6</ele>
        <time>2022-06-02T10:01:35Z</time>
      </trkpt>
      <trkpt lat="47.5128900" lon="8.0186350">
        <ele>339.2</ele>
        <time>2022-06-02T10:01:38Z</time>
      </trkpt>
      <trkpt lat="47.5129270" lon="8.0186100">
        <ele>339.2</ele>
        <time>2022-06-02T10:01:39Z</time>
      </trkpt>
      <trkpt lat="47.5130010" lon="8.0185560">
        <ele>339.2</ele>
        <time>2022-06-02T10:01:41Z</time>
      </trkpt>
      <trkpt lat="47.5131330" lon="8.0185040">
        <ele>339.2</ele>
        <time>2022-06-02T10:01:44Z</time>
      </trkpt>
      <trkpt lat="47.5133730" lon="8.0184460">
        <ele>338.8</ele>
        <time>2022-06-02T10:01:49Z</time>
      </trkpt>
      <trkpt lat="47.5134210" lon="8.0184410">
        <ele>338.8</ele>
        <time>2022-06-02T10:01:50Z</time>
      </trkpt>
      <trkpt lat="47.5135190" lon="8.0184560">
        <ele>338.6</ele>
        <time>2022-06-02T10:01:52Z</time>
      </trkpt>
      <trkpt lat="47.5137920" lon="8.0185070">
        <ele>338.0</ele>
        <time>2022-06-02T10:01:59Z</time>
      </trkpt>
      <trkpt lat="47.5139630" lon="8.0185610">
        <ele>338.4</ele>
        <time>2022-06-02T10:02:05Z</time>
      </trkpt>
      <trkpt lat="47.5140830" lon="8.0186610">
        <ele>338.4</ele>
        <time>2022-06-02T10:02:09Z</time>
      </trkpt>
      <trkpt lat="47.5141760" lon="8.0188430">
        <ele>338.2</ele>
        <time>2022-06-02T10:02:12Z</time>
      </trkpt>
      <trkpt lat="47.5144620" lon="8.0189750">
        <ele>338.2</ele>
        <time>2022-06-02T10:02:18Z</time>
      </trkpt>
      <trkpt lat="47.5147030" lon="8.0191050">
        <ele>338.2</ele>
        <time>2022-06-02T10:02:25Z</time>
      </trkpt>
      <trkpt lat="47.5149880" lon="8.0191580">
        <ele>338.4</ele>
        <time>2022-06-02T10:02:32Z</time>
      </trkpt>
      <trkpt lat="47.5152440" lon="8.0191660">
        <ele>338.2</ele>
        <time>2022-06-02T10:02:38Z</time>
      </trkpt>
      <trkpt lat="47.5154190" lon="8.0191120">
        <ele>338.0</ele>
        <time>2022-06-02T10:02:42Z</time>
      </trkpt>
      <trkpt lat="47.5155030" lon="8.0190780">
        <ele>338.0</ele>
        <time>2022-06-02T10:02:44Z</time>
      </trkpt>
      <trkpt lat="47.5155430" lon="8.0190610">
        <ele>338.0</ele>
        <time>2022-06-02T10:02:45Z</time>
      </trkpt>
      <trkpt lat="47.5155790" lon="8.0190350">
        <ele>338.0</ele>
        <time>2022-06-02T10:02:46Z</time>
      </trkpt>
      <trkpt lat="47.5157480" lon="8.0189120">
        <ele>337.8</ele>
        <time>2022-06-02T10:02:50Z</time>
      </trkpt>
      <trkpt lat="47.5158320" lon="8.0188460">
        <ele>337.6</ele>
        <time>2022-06-02T10:02:52Z</time>
      </trkpt>
      <trkpt lat="47.5160320" lon="8.0186600">
        <ele>337.6</ele>
        <time>2022-06-02T10:02:57Z</time>
      </trkpt>
      <trkpt lat="47.5163230" lon="8.0183960">
        <ele>337.6</ele>
        <time>2022-06-02T10:03:04Z</time>
      </trkpt>
      <trkpt lat="47.5166380" lon="8.0180970">
        <ele>337.4</ele>
        <time>2022-06-02T10:03:12Z</time>
      </trkpt>
      <trkpt lat="47.5167810" lon="8.0179820">
        <ele>337.2</ele>
        <time>2022-06-02T10:03:17Z</time>
      </trkpt>
      <trkpt lat="47.5168810" lon="8.0178400">
        <ele>337.0</ele>
        <time>2022-06-02T10:03:21Z</time>
      </trkpt>
      <trkpt lat="47.5169120" lon="8.0178130">
        <ele>337.0</ele>
        <time>2022-06-02T10:03:22Z</time>
      </trkpt>
      <trkpt lat="47.5171700" lon="8.0175580">
        <ele>336.6</ele>
        <time>2022-06-02T10:03:29Z</time>
      </trkpt>
      <trkpt lat="47.5173960" lon="8.0173440">
        <ele>336.8</ele>
        <time>2022-06-02T10:03:34Z</time>
      </trkpt>
      <trkpt lat="47.5174400" lon="8.0172980">
        <ele>336.8</ele>
        <time>2022-06-02T10:03:35Z</time>
      </trkpt>
      <trkpt lat="47.5177390" lon="8.0170110">
        <ele>336.4</ele>
        <time>2022-06-02T10:03:42Z</time>
      </trkpt>
      <trkpt lat="47.5179060" lon="8.0167960">
        <ele>336.2</ele>
        <time>2022-06-02T10:03:47Z</time>
      </trkpt>
      <trkpt lat="47.5179670" lon="8.0166840">
        <ele>336.2</ele>
        <time>2022-06-02T10:03:49Z</time>
      </trkpt>
      <trkpt lat="47.5180640" lon="8.0164070">
        <ele>336.0</ele>
        <time>2022-06-02T10:03:53Z</time>
      </trkpt>
      <trkpt lat="47.5182020" lon="8.0160230">
        <ele>335.8</ele>
        <time>2022-06-02T10:03:59Z</time>
      </trkpt>
      <trkpt lat="47.5182220" lon="8.0159530">
        <ele>335.8</ele>
        <time>2022-06-02T10:04:00Z</time>
      </trkpt>
      <trkpt lat="47.5183260" lon="8.0156900">
        <ele>335.6</ele>
        <time>2022-06-02T10:04:04Z</time>
      </trkpt>
      <trkpt lat="47.5183840" lon="8.0155960">
        <ele>335.6</ele>
        <time>2022-06-02T10:04:06Z</time>
      </trkpt>
      <trkpt lat="47.5186980" lon="8.0152110">
        <ele>335.2</ele>
        <time>2022-06-02T10:04:14Z</time>
      </trkpt>
      <trkpt lat="47.5189550" lon="8.0149690">
        <ele>335.2</ele>
        <time>2022-06-02T10:04:20Z</time>
      </trkpt>
      <trkpt lat="47.5190780" lon="8.0148580">
        <ele>335.0</ele>
        <time>2022-06-02T10:04:23Z</time>
      </trkpt>
      <trkpt lat="47.5194340" lon="8.0145540">
        <ele>335.0</ele>
        <time>2022-06-02T10:04:32Z</time>
      </trkpt>
      <trkpt lat="47.5194960" lon="8.0145390">
        <ele>335.0</ele>
        <time>2022-06-02T10:04:35Z</time>
      </trkpt>
      <trkpt lat="47.5195320" lon="8.0145600">
        <ele>335.0</ele>
        <time>2022-06-02T10:04:38Z</time>
      </trkpt>
      <trkpt lat="47.5195580" lon="8.0146090">
        <ele>334.8</ele>
        <time>2022-06-02T10:04:40Z</time>
      </trkpt>
      <trkpt lat="47.5195820" lon="8.0148020">
        <ele>334.6</ele>
        <time>2022-06-02T10:04:46Z</time>
      </trkpt>
      <trkpt lat="47.5196430" lon="8.0149840">
        <ele>334.6</ele>
        <time>2022-06-02T10:04:50Z</time>
      </trkpt>
      <trkpt lat="47.5196750" lon="8.0149970">
        <ele>334.6</ele>
        <time>2022-06-02T10:04:51Z</time>
      </trkpt>
      <trkpt lat="47.5197410" lon="8.0149550">
        <ele>334.6</ele>
        <time>2022-06-02T10:04:53Z</time>
      </trkpt>
      <trkpt lat="47.5199470" lon="8.0147960">
        <ele>334.6</ele>
        <time>2022-06-02T10:04:59Z</time>
      </trkpt>
      <trkpt lat="47.5199800" lon="8.0147470">
        <ele>334.4</ele>
        <time>2022-06-02T10:05:02Z</time>
      </trkpt>
      <trkpt lat="47.5199820" lon="8.0147420">
        <ele>334.4</ele>
        <time>2022-06-02T10:05:05Z</time>
      </trkpt>
      <trkpt lat="47.5200170" lon="8.0147430">
        <ele>334.6</ele>
        <time>2022-06-02T10:06:02Z</time>
      </trkpt>
      <trkpt lat="47.5200350" lon="8.0147430">
        <ele>334.6</ele>
        <time>2022-06-02T10:06:03Z</time>
      </trkpt>
      <trkpt lat="47.5201770" lon="8.0146620">
        <ele>334.4</ele>
        <time>2022-06-02T10:06:08Z</time>
      </trkpt>
      <trkpt lat="47.5204170" lon="8.0145950">
        <ele>334.2</ele>
        <time>2022-06-02T10:06:14Z</time>
      </trkpt>
      <trkpt lat="47.5207560" lon="8.0145590">
        <ele>334.2</ele>
        <time>2022-06-02T10:06:23Z</time>
      </trkpt>
      <trkpt lat="47.5208330" lon="8.0145530">
        <ele>334.0</ele>
        <time>2022-06-02T10:06:25Z</time>
      </trkpt>
      <trkpt lat="47.5210800" lon="8.0145120">
        <ele>334.0</ele>
        <time>2022-06-02T10:06:32Z</time>
      </trkpt>
      <trkpt lat="47.5213090" lon="8.0143730">
        <ele>334.2</ele>
        <time>2022-06-02T10:06:38Z</time>
      </trkpt>
      <trkpt lat="47.5215630" lon="8.0140550">
        <ele>334.2</ele>
        <time>2022-06-02T10:06:45Z</time>
      </trkpt>
      <trkpt lat="47.5216310" lon="8.0139680">
        <ele>334.2</ele>
        <time>2022-06-02T10:06:47Z</time>
      </trkpt>
      <trkpt lat="47.5217210" lon="8.0138640">
        <ele>334.2</ele>
        <time>2022-06-02T10:06:50Z</time>
      </trkpt>
      <trkpt lat="47.5217890" lon="8.0137260">
        <ele>334.2</ele>
        <time>2022-06-02T10:06:53Z</time>
      </trkpt>
      <trkpt lat="47.5218270" lon="8.0135960">
        <ele>334.0</ele>
        <time>2022-06-02T10:06:55Z</time>
      </trkpt>
      <trkpt lat="47.5218840" lon="8.0133090">
        <ele>333.8</ele>
        <time>2022-06-02T10:06:59Z</time>
      </trkpt>
      <trkpt lat="47.5218890" lon="8.0132330">
        <ele>333.8</ele>
        <time>2022-06-02T10:07:00Z</time>
      </trkpt>
      <trkpt lat="47.5219020" lon="8.0131550">
        <ele>333.8</ele>
        <time>2022-06-02T10:07:01Z</time>
      </trkpt>
      <trkpt lat="47.5219490" lon="8.0127810">
        <ele>333.6</ele>
        <time>2022-06-02T10:07:06Z</time>
      </trkpt>
      <trkpt lat="47.5220150" lon="8.0121080">
        <ele>333.2</ele>
        <time>2022-06-02T10:07:15Z</time>
      </trkpt>
      <trkpt lat="47.5220370" lon="8.0118930">
        <ele>333.2</ele>
        <time>2022-06-02T10:07:18Z</time>
      </trkpt>
      <trkpt lat="47.5220870" lon="8.0116990">
        <ele>333.2</ele>
        <time>2022-06-02T10:07:21Z</time>
      </trkpt>
      <trkpt lat="47.5221360" lon="8.0115890">
        <ele>333.2</ele>
        <time>2022-06-02T10:07:23Z</time>
      </trkpt>
      <trkpt lat="47.5222590" lon="8.0114120">
        <ele>333.0</ele>
        <time>2022-06-02T10:07:27Z</time>
      </trkpt>
      <trkpt lat="47.5223680" lon="8.0113000">
        <ele>333.0</ele>
        <time>2022-06-02T10:07:30Z</time>
      </trkpt>
      <trkpt lat="47.5224410" lon="8.0112340">
        <ele>333.0</ele>
        <time>2022-06-02T10:07:32Z</time>
      </trkpt>
      <trkpt lat="47.5224810" lon="8.0112050">
        <ele>333.0</ele>
        <time>2022-06-02T10:07:33Z</time>
      </trkpt>
      <trkpt lat="47.5227210" lon="8.0110310">
        <ele>333.0</ele>
        <time>2022-06-02T10:07:39Z</time>
      </trkpt>
      <trkpt lat="47.5227600" lon="8.0109880">
        <ele>333.0</ele>
        <time>2022-06-02T10:07:40Z</time>
      </trkpt>
      <trkpt lat="47.5227980" lon="8.0109440">
        <ele>333.0</ele>
        <time>2022-06-02T10:07:41Z</time>
      </trkpt>
      <trkpt lat="47.5230040" lon="8.0106650">
        <ele>332.8</ele>
        <time>2022-06-02T10:07:46Z</time>
      </trkpt>
      <trkpt lat="47.5232960" lon="8.0102390">
        <ele>332.8</ele>
        <time>2022-06-02T10:07:53Z</time>
      </trkpt>
      <trkpt lat="47.5236300" lon="8.0097990">
        <ele>332.6</ele>
        <time>2022-06-02T10:08:01Z</time>
      </trkpt>
      <trkpt lat="47.5237460" lon="8.0096560">
        <ele>332.6</ele>
        <time>2022-06-02T10:08:04Z</time>
      </trkpt>
      <trkpt lat="47.5238400" lon="8.0095680">
        <ele>332.6</ele>
        <time>2022-06-02T10:08:06Z</time>
      </trkpt>
      <trkpt lat="47.5238820" lon="8.0095290">
        <ele>332.6</ele>
        <time>2022-06-02T10:08:07Z</time>
      </trkpt>
      <trkpt lat="47.5240520" lon="8.0093850">
        <ele>332.6</ele>
        <time>2022-06-02T10:08:11Z</time>
      </trkpt>
      <trkpt lat="47.5240950" lon="8.0093540">
        <ele>332.4</ele>
        <time>2022-06-02T10:08:12Z</time>
      </trkpt>
      <trkpt lat="47.5241780" lon="8.0092960">
        <ele>332.2</ele>
        <time>2022-06-02T10:08:14Z</time>
      </trkpt>
      <trkpt lat="47.5242820" lon="8.0092000">
        <ele>332.4</ele>
        <time>2022-06-02T10:08:17Z</time>
      </trkpt>
      <trkpt lat="47.5244890" lon="8.0090340">
        <ele>332.6</ele>
        <time>2022-06-02T10:08:23Z</time>
      </trkpt>
      <trkpt lat="47.5247190" lon="8.0088280">
        <ele>332.8</ele>
        <time>2022-06-02T10:08:31Z</time>
      </trkpt>
      <trkpt lat="47.5249080" lon="8.0086770">
        <ele>334.0</ele>
        <time>2022-06-02T10:08:38Z</time>
      </trkpt>
      <trkpt lat="47.5250510" lon="8.0085600">
        <ele>335.2</ele>
        <time>2022-06-02T10:08:43Z</time>
      </trkpt>
      <trkpt lat="47.5251070" lon="8.0085100">
        <ele>335.8</ele>
        <time>2022-06-02T10:08:45Z</time>
      </trkpt>
      <trkpt lat="47.5251950" lon="8.0084420">
        <ele>336.2</ele>
        <time>2022-06-02T10:08:48Z</time>
      </trkpt>
      <trkpt lat="47.5253250" lon="8.0083490">
        <ele>337.0</ele>
        <time>2022-06-02T10:08:52Z</time>
      </trkpt>
      <trkpt lat="47.5253930" lon="8.0083010">
        <ele>337.2</ele>
        <time>2022-06-02T10:08:54Z</time>
      </trkpt>
      <trkpt lat="47.5256030" lon="8.0081340">
        <ele>337.6</ele>
        <time>2022-06-02T10:09:00Z</time>
      </trkpt>
      <trkpt lat="47.5259170" lon="8.0079320">
        <ele>336.8</ele>
        <time>2022-06-02T10:09:08Z</time>
      </trkpt>
      <trkpt lat="47.5263060" lon="8.0076640">
        <ele>336.4</ele>
        <time>2022-06-02T10:09:17Z</time>
      </trkpt>
      <trkpt lat="47.5264900" lon="8.0075100">
        <ele>336.4</ele>
        <time>2022-06-02T10:09:21Z</time>
      </trkpt>
      <trkpt lat="47.5266400" lon="8.0073580">
        <ele>336.0</ele>
        <time>2022-06-02T10:09:24Z</time>
      </trkpt>
      <trkpt lat="47.5268330" lon="8.0071380">
        <ele>335.2</ele>
        <time>2022-06-02T10:09:28Z</time>
      </trkpt>
      <trkpt lat="47.5270270" lon="8.0069280">
        <ele>334.2</ele>
        <time>2022-06-02T10:09:32Z</time>
      </trkpt>
      <trkpt lat="47.5270750" lon="8.0068750">
        <ele>334.0</ele>
        <time>2022-06-02T10:09:33Z</time>
      </trkpt>
      <trkpt lat="47.5273980" lon="8.0065560">
        <ele>333.2</ele>
        <time>2022-06-02T10:09:40Z</time>
      </trkpt>
      <trkpt lat="47.5274870" lon="8.0064690">
        <ele>333.0</ele>
        <time>2022-06-02T10:09:42Z</time>
      </trkpt>
      <trkpt lat="47.5278120" lon="8.0061660">
        <ele>332.0</ele>
        <time>2022-06-02T10:09:49Z</time>
      </trkpt>
      <trkpt lat="47.5279370" lon="8.0060480">
        <ele>331.8</ele>
        <time>2022-06-02T10:09:52Z</time>
      </trkpt>
      <trkpt lat="47.5281570" lon="8.0058420">
        <ele>331.6</ele>
        <time>2022-06-02T10:09:57Z</time>
      </trkpt>
      <trkpt lat="47.5283370" lon="8.0056610">
        <ele>330.8</ele>
        <time>2022-06-02T10:10:01Z</time>
      </trkpt>
      <trkpt lat="47.5285390" lon="8.0054920">
        <ele>330.6</ele>
        <time>2022-06-02T10:10:05Z</time>
      </trkpt>
      <trkpt lat="47.5289170" lon="8.0051260">
        <ele>330.2</ele>
        <time>2022-06-02T10:10:13Z</time>
      </trkpt>
      <trkpt lat="47.5291850" lon="8.0047800">
        <ele>330.0</ele>
        <time>2022-06-02T10:10:20Z</time>
      </trkpt>
      <trkpt lat="47.5292560" lon="8.0046690">
        <ele>330.0</ele>
        <time>2022-06-02T10:10:22Z</time>
      </trkpt>
      <trkpt lat="47.5294070" lon="8.0044600">
        <ele>329.8</ele>
        <time>2022-06-02T10:10:26Z</time>
      </trkpt>
      <trkpt lat="47.5294420" lon="8.0044070">
        <ele>329.8</ele>
        <time>2022-06-02T10:10:27Z</time>
      </trkpt>
      <trkpt lat="47.5295550" lon="8.0042500">
        <ele>329.6</ele>
        <time>2022-06-02T10:10:30Z</time>
      </trkpt>
      <trkpt lat="47.5297560" lon="8.0039680">
        <ele>329.0</ele>
        <time>2022-06-02T10:10:35Z</time>
      </trkpt>
      <trkpt lat="47.5299030" lon="8.0037820">
        <ele>328.8</ele>
        <time>2022-06-02T10:10:38Z</time>
      </trkpt>
      <trkpt lat="47.5300630" lon="8.0035840">
        <ele>327.8</ele>
        <time>2022-06-02T10:10:41Z</time>
      </trkpt>
      <trkpt lat="47.5301140" lon="8.0035170">
        <ele>327.4</ele>
        <time>2022-06-02T10:10:42Z</time>
      </trkpt>
      <trkpt lat="47.5304120" lon="8.0031360">
        <ele>326.2</ele>
        <time>2022-06-02T10:10:48Z</time>
      </trkpt>
      <trkpt lat="47.5304610" lon="8.0030800">
        <ele>326.2</ele>
        <time>2022-06-02T10:10:49Z</time>
      </trkpt>
      <trkpt lat="47.5307680" lon="8.0027000">
        <ele>325.6</ele>
        <time>2022-06-02T10:10:56Z</time>
      </trkpt>
      <trkpt lat="47.5308480" lon="8.0025880">
        <ele>325.2</ele>
        <time>2022-06-02T10:10:58Z</time>
      </trkpt>
      <trkpt lat="47.5312000" lon="8.0021460">
        <ele>324.6</ele>
        <time>2022-06-02T10:11:06Z</time>
      </trkpt>
      <trkpt lat="47.5315030" lon="8.0017500">
        <ele>324.2</ele>
        <time>2022-06-02T10:11:13Z</time>
      </trkpt>
      <trkpt lat="47.5315430" lon="8.0016910">
        <ele>324.2</ele>
        <time>2022-06-02T10:11:14Z</time>
      </trkpt>
      <trkpt lat="47.5318680" lon="8.0011250">
        <ele>323.4</ele>
        <time>2022-06-02T10:11:23Z</time>
      </trkpt>
      <trkpt lat="47.5320000" lon="8.0008020">
        <ele>323.2</ele>
        <time>2022-06-02T10:11:28Z</time>
      </trkpt>
      <trkpt lat="47.5320910" lon="8.0005340">
        <ele>323.0</ele>
        <time>2022-06-02T10:11:32Z</time>
      </trkpt>
      <trkpt lat="47.5322460" lon="7.9999720">
        <ele>322.6</ele>
        <time>2022-06-02T10:11:40Z</time>
      </trkpt>
      <trkpt lat="47.5323520" lon="7.9994950">
        <ele>322.2</ele>
        <time>2022-06-02T10:11:46Z</time>
      </trkpt>
      <trkpt lat="47.5323630" lon="7.9993270">
        <ele>322.0</ele>
        <time>2022-06-02T10:11:48Z</time>
      </trkpt>
      <trkpt lat="47.5323650" lon="7.9992490">
        <ele>321.8</ele>
        <time>2022-06-02T10:11:49Z</time>
      </trkpt>
      <trkpt lat="47.5323690" lon="7.9990920">
        <ele>321.6</ele>
        <time>2022-06-02T10:11:51Z</time>
      </trkpt>
      <trkpt lat="47.5323840" lon="7.9990240">
        <ele>321.2</ele>
        <time>2022-06-02T10:11:52Z</time>
      </trkpt>
      <trkpt lat="47.5324150" lon="7.9989740">
        <ele>321.0</ele>
        <time>2022-06-02T10:11:53Z</time>
      </trkpt>
      <trkpt lat="47.5324630" lon="7.9989420">
        <ele>320.8</ele>
        <time>2022-06-02T10:11:54Z</time>
      </trkpt>
      <trkpt lat="47.5325200" lon="7.9989250">
        <ele>320.6</ele>
        <time>2022-06-02T10:11:55Z</time>
      </trkpt>
      <trkpt lat="47.5327480" lon="7.9988640">
        <ele>320.2</ele>
        <time>2022-06-02T10:11:59Z</time>
      </trkpt>
      <trkpt lat="47.5328430" lon="7.9987850">
        <ele>320.2</ele>
        <time>2022-06-02T10:12:01Z</time>
      </trkpt>
      <trkpt lat="47.5329630" lon="7.9986140">
        <ele>320.2</ele>
        <time>2022-06-02T10:12:04Z</time>
      </trkpt>
      <trkpt lat="47.5331280" lon="7.9983670">
        <ele>320.0</ele>
        <time>2022-06-02T10:12:08Z</time>
      </trkpt>
      <trkpt lat="47.5333310" lon="7.9980610">
        <ele>319.6</ele>
        <time>2022-06-02T10:12:13Z</time>
      </trkpt>
      <trkpt lat="47.5336660" lon="7.9975780">
        <ele>319.2</ele>
        <time>2022-06-02T10:12:21Z</time>
      </trkpt>
      <trkpt lat="47.5340390" lon="7.9970460">
        <ele>319.0</ele>
        <time>2022-06-02T10:12:30Z</time>
      </trkpt>
      <trkpt lat="47.5340760" lon="7.9969910">
        <ele>319.0</ele>
        <time>2022-06-02T10:12:31Z</time>
      </trkpt>
      <trkpt lat="47.5341390" lon="7.9968720">
        <ele>319.0</ele>
        <time>2022-06-02T10:12:33Z</time>
      </trkpt>
      <trkpt lat="47.5341890" lon="7.9967360">
        <ele>319.0</ele>
        <time>2022-06-02T10:12:35Z</time>
      </trkpt>
      <trkpt lat="47.5343600" lon="7.9961090">
        <ele>318.6</ele>
        <time>2022-06-02T10:12:43Z</time>
      </trkpt>
      <trkpt lat="47.5345660" lon="7.9954670">
        <ele>317.8</ele>
        <time>2022-06-02T10:12:51Z</time>
      </trkpt>
      <trkpt lat="47.5345890" lon="7.9953840">
        <ele>317.8</ele>
        <time>2022-06-02T10:12:52Z</time>
      </trkpt>
      <trkpt lat="47.5347750" lon="7.9947920">
        <ele>317.2</ele>
        <time>2022-06-02T10:12:59Z</time>
      </trkpt>
      <trkpt lat="47.5348840" lon="7.9944460">
        <ele>316.6</ele>
        <time>2022-06-02T10:13:03Z</time>
      </trkpt>
      <trkpt lat="47.5349940" lon="7.9940950">
        <ele>316.4</ele>
        <time>2022-06-02T10:13:07Z</time>
      </trkpt>
      <trkpt lat="47.5351640" lon="7.9936000">
        <ele>315.8</ele>
        <time>2022-06-02T10:13:13Z</time>
      </trkpt>
      <trkpt lat="47.5352230" lon="7.9934560">
        <ele>315.8</ele>
        <time>2022-06-02T10:13:15Z</time>
      </trkpt>
      <trkpt lat="47.5353020" lon="7.9932890">
        <ele>315.8</ele>
        <time>2022-06-02T10:13:18Z</time>
      </trkpt>
      <trkpt lat="47.5354300" lon="7.9930730">
        <ele>316.2</ele>
        <time>2022-06-02T10:13:23Z</time>
      </trkpt>
      <trkpt lat="47.5355600" lon="7.9928540">
        <ele>318.0</ele>
        <time>2022-06-02T10:13:29Z</time>
      </trkpt>
      <trkpt lat="47.5356200" lon="7.9927010">
        <ele>319.4</ele>
        <time>2022-06-02T10:13:33Z</time>
      </trkpt>
      <trkpt lat="47.5356280" lon="7.9925880">
        <ele>320.2</ele>
        <time>2022-06-02T10:13:36Z</time>
      </trkpt>
      <trkpt lat="47.5355000" lon="7.9922840">
        <ele>321.2</ele>
        <time>2022-06-02T10:13:43Z</time>
      </trkpt>
      <trkpt lat="47.5354540" lon="7.9921920">
        <ele>321.4</ele>
        <time>2022-06-02T10:13:45Z</time>
      </trkpt>
      <trkpt lat="47.5352810" lon="7.9918870">
        <ele>321.8</ele>
        <time>2022-06-02T10:13:52Z</time>
      </trkpt>
      <trkpt lat="47.5350690" lon="7.9914970">
        <ele>321.8</ele>
        <time>2022-06-02T10:14:01Z</time>
      </trkpt>
      <trkpt lat="47.5348680" lon="7.9911290">
        <ele>321.4</ele>
        <time>2022-06-02T10:14:08Z</time>
      </trkpt>
      <trkpt lat="47.5346640" lon="7.9907210">
        <ele>321.0</ele>
        <time>2022-06-02T10:14:13Z</time>
      </trkpt>
      <trkpt lat="47.5346230" lon="7.9905110">
        <ele>320.4</ele>
        <time>2022-06-02T10:14:15Z</time>
      </trkpt>
      <trkpt lat="47.5346210" lon="7.9904280">
        <ele>320.2</ele>
        <time>2022-06-02T10:14:16Z</time>
      </trkpt>
      <trkpt lat="47.5346280" lon="7.9903260">
        <ele>320.0</ele>
        <time>2022-06-02T10:14:17Z</time>
      </trkpt>
      <trkpt lat="47.5346580" lon="7.9900520">
        <ele>319.2</ele>
        <time>2022-06-02T10:14:20Z</time>
      </trkpt>
      <trkpt lat="47.5347290" lon="7.9895930">
        <ele>318.8</ele>
        <time>2022-06-02T10:14:26Z</time>
      </trkpt>
      <trkpt lat="47.5347780" lon="7.9892540">
        <ele>318.8</ele>
        <time>2022-06-02T10:14:31Z</time>
      </trkpt>
      <trkpt lat="47.5347800" lon="7.9891910">
        <ele>318.8</ele>
        <time>2022-06-02T10:14:32Z</time>
      </trkpt>
      <trkpt lat="47.5347900" lon="7.9887190">
        <ele>319.6</ele>
        <time>2022-06-02T10:14:40Z</time>
      </trkpt>
      <trkpt lat="47.5347970" lon="7.9886700">
        <ele>319.6</ele>
        <time>2022-06-02T10:14:41Z</time>
      </trkpt>
      <trkpt lat="47.5348140" lon="7.9885150">
        <ele>320.2</ele>
        <time>2022-06-02T10:14:44Z</time>
      </trkpt>
      <trkpt lat="47.5348170" lon="7.9884740">
        <ele>320.4</ele>
        <time>2022-06-02T10:14:45Z</time>
      </trkpt>
      <trkpt lat="47.5348440" lon="7.9882780">
        <ele>320.6</ele>
        <time>2022-06-02T10:14:49Z</time>
      </trkpt>
      <trkpt lat="47.5348520" lon="7.9881790">
        <ele>321.4</ele>
        <time>2022-06-02T10:14:52Z</time>
      </trkpt>
      <trkpt lat="47.5348350" lon="7.9880920">
        <ele>321.8</ele>
        <time>2022-06-02T10:14:54Z</time>
      </trkpt>
      <trkpt lat="47.5347530" lon="7.9880160">
        <ele>322.2</ele>
        <time>2022-06-02T10:14:57Z</time>
      </trkpt>
      <trkpt lat="47.5346660" lon="7.9879740">
        <ele>322.4</ele>
        <time>2022-06-02T10:14:59Z</time>
      </trkpt>
      <trkpt lat="47.5344820" lon="7.9878540">
        <ele>322.6</ele>
        <time>2022-06-02T10:15:03Z</time>
      </trkpt>
      <trkpt lat="47.5344610" lon="7.9877770">
        <ele>322.4</ele>
        <time>2022-06-02T10:15:05Z</time>
      </trkpt>
      <trkpt lat="47.5344650" lon="7.9877420">
        <ele>322.4</ele>
        <time>2022-06-02T10:15:06Z</time>
      </trkpt>
      <trkpt lat="47.5344960" lon="7.9876680">
        <ele>322.4</ele>
        <time>2022-06-02T10:15:08Z</time>
      </trkpt>
      <trkpt lat="47.5345140" lon="7.9876320">
        <ele>322.6</ele>
        <time>2022-06-02T10:15:10Z</time>
      </trkpt>
      <trkpt lat="47.5346450" lon="7.9873700">
        <ele>323.4</ele>
        <time>2022-06-02T10:15:15Z</time>
      </trkpt>
      <trkpt lat="47.5346450" lon="7.9873700">
        <ele>323.6</ele>
        <time>2022-06-02T10:15:16Z</time>
      </trkpt>
      <trkpt lat="47.5347530" lon="7.9871420">
        <ele>324.0</ele>
        <time>2022-06-02T10:15:20Z</time>
      </trkpt>
      <trkpt lat="47.5347730" lon="7.9870980">
        <ele>324.2</ele>
        <time>2022-06-02T10:15:21Z</time>
      </trkpt>
      <trkpt lat="47.5348260" lon="7.9870000">
        <ele>324.6</ele>
        <time>2022-06-02T10:15:24Z</time>
      </trkpt>
      <trkpt lat="47.5349840" lon="7.9866910">
        <ele>324.8</ele>
        <time>2022-06-02T10:15:29Z</time>
      </trkpt>
      <trkpt lat="47.5350720" lon="7.9865380">
        <ele>325.0</ele>
        <time>2022-06-02T10:15:32Z</time>
      </trkpt>
      <trkpt lat="47.5352190" lon="7.9862480">
        <ele>325.0</ele>
        <time>2022-06-02T10:15:37Z</time>
      </trkpt>
      <trkpt lat="47.5352820" lon="7.9860760">
        <ele>325.0</ele>
        <time>2022-06-02T10:15:41Z</time>
      </trkpt>
      <trkpt lat="47.5353700" lon="7.9858700">
        <ele>325.0</ele>
        <time>2022-06-02T10:15:44Z</time>
      </trkpt>
      <trkpt lat="47.5355540" lon="7.9854180">
        <ele>325.0</ele>
        <time>2022-06-02T10:15:52Z</time>
      </trkpt>
      <trkpt lat="47.5357220" lon="7.9850330">
        <ele>325.4</ele>
        <time>2022-06-02T10:16:00Z</time>
      </trkpt>
      <trkpt lat="47.5357820" lon="7.9849180">
        <ele>325.4</ele>
        <time>2022-06-02T10:16:01Z</time>
      </trkpt>
      <trkpt lat="47.5358330" lon="7.9848040">
        <ele>325.4</ele>
        <time>2022-06-02T10:16:03Z</time>
      </trkpt>
      <trkpt lat="47.5359990" lon="7.9844350">
        <ele>325.4</ele>
        <time>2022-06-02T10:16:09Z</time>
      </trkpt>
      <trkpt lat="47.5361950" lon="7.9838810">
        <ele>325.4</ele>
        <time>2022-06-02T10:16:18Z</time>
      </trkpt>
      <trkpt lat="47.5362590" lon="7.9837000">
        <ele>325.6</ele>
        <time>2022-06-02T10:16:21Z</time>
      </trkpt>
      <trkpt lat="47.5363060" lon="7.9835760">
        <ele>325.4</ele>
        <time>2022-06-02T10:16:24Z</time>
      </trkpt>
      <trkpt lat="47.5365130" lon="7.9830900">
        <ele>325.6</ele>
        <time>2022-06-02T10:16:31Z</time>
      </trkpt>
      <trkpt lat="47.5366570" lon="7.9826560">
        <ele>325.6</ele>
        <time>2022-06-02T10:16:39Z</time>
      </trkpt>
      <trkpt lat="47.5367260" lon="7.9824870">
        <ele>325.6</ele>
        <time>2022-06-02T10:16:41Z</time>
      </trkpt>
      <trkpt lat="47.5367470" lon="7.9824320">
        <ele>325.6</ele>
        <time>2022-06-02T10:16:42Z</time>
      </trkpt>
      <trkpt lat="47.5368010" lon="7.9822610">
        <ele>325.6</ele>
        <time>2022-06-02T10:16:45Z</time>
      </trkpt>
      <trkpt lat="47.5368680" lon="7.9820430">
        <ele>325.6</ele>
        <time>2022-06-02T10:16:49Z</time>
      </trkpt>
      <trkpt lat="47.5369510" lon="7.9817810">
        <ele>326.4</ele>
        <time>2022-06-02T10:16:55Z</time>
      </trkpt>
      <trkpt lat="47.5369630" lon="7.9817520">
        <ele>326.8</ele>
        <time>2022-06-02T10:16:56Z</time>
      </trkpt>
      <trkpt lat="47.5370330" lon="7.9815560">
        <ele>327.8</ele>
        <time>2022-06-02T10:17:01Z</time>
      </trkpt>
      <trkpt lat="47.5370420" lon="7.9815110">
        <ele>328.0</ele>
        <time>2022-06-02T10:17:02Z</time>
      </trkpt>
      <trkpt lat="47.5370970" lon="7.9812970">
        <ele>329.0</ele>
        <time>2022-06-02T10:17:07Z</time>
      </trkpt>
      <trkpt lat="47.5371120" lon="7.9812510">
        <ele>329.2</ele>
        <time>2022-06-02T10:17:08Z</time>
      </trkpt>
      <trkpt lat="47.5371400" lon="7.9810870">
        <ele>330.4</ele>
        <time>2022-06-02T10:17:12Z</time>
      </trkpt>
      <trkpt lat="47.5371750" lon="7.9809650">
        <ele>331.0</ele>
        <time>2022-06-02T10:17:15Z</time>
      </trkpt>
      <trkpt lat="47.5372050" lon="7.9808820">
        <ele>331.6</ele>
        <time>2022-06-02T10:17:17Z</time>
      </trkpt>
      <trkpt lat="47.5372680" lon="7.9807080">
        <ele>332.6</ele>
        <time>2022-06-02T10:17:21Z</time>
      </trkpt>
      <trkpt lat="47.5373040" lon="7.9805850">
        <ele>333.2</ele>
        <time>2022-06-02T10:17:24Z</time>
      </trkpt>
      <trkpt lat="47.5373330" lon="7.9805180">
        <ele>333.8</ele>
        <time>2022-06-02T10:17:26Z</time>
      </trkpt>
      <trkpt lat="47.5374060" lon="7.9803170">
        <ele>334.8</ele>
        <time>2022-06-02T10:17:32Z</time>
      </trkpt>
      <trkpt lat="47.5374200" lon="7.9802850">
        <ele>335.0</ele>
        <time>2022-06-02T10:17:33Z</time>
      </trkpt>
      <trkpt lat="47.5374760" lon="7.9801230">
        <ele>336.0</ele>
        <time>2022-06-02T10:17:38Z</time>
      </trkpt>
      <trkpt lat="47.5375050" lon="7.9800290">
        <ele>336.6</ele>
        <time>2022-06-02T10:17:41Z</time>
      </trkpt>
      <trkpt lat="47.5375300" lon="7.9799450">
        <ele>337.0</ele>
        <time>2022-06-02T10:17:45Z</time>
      </trkpt>
      <trkpt lat="47.5375300" lon="7.9799450">
        <ele>337.2</ele>
        <time>2022-06-02T10:17:46Z</time>
      </trkpt>
      <trkpt lat="47.5375130" lon="7.9799430">
        <ele>337.4</ele>
        <time>2022-06-02T10:17:48Z</time>
      </trkpt>
      <trkpt lat="47.5375080" lon="7.9799820">
        <ele>337.4</ele>
        <time>2022-06-02T10:17:50Z</time>
      </trkpt>
      <trkpt lat="47.5375410" lon="7.9800000">
        <ele>337.6</ele>
        <time>2022-06-02T10:17:53Z</time>
      </trkpt>
      <trkpt lat="47.5375490" lon="7.9799890">
        <ele>337.6</ele>
        <time>2022-06-02T10:17:54Z</time>
      </trkpt>
      <trkpt lat="47.5375530" lon="7.9799820">
        <ele>337.6</ele>
        <time>2022-06-02T10:17:57Z</time>
      </trkpt>
      <trkpt lat="47.5375170" lon="7.9800100">
        <ele>336.8</ele>
        <time>2022-06-02T10:18:26Z</time>
      </trkpt>
      <trkpt lat="47.5374960" lon="7.9800560">
        <ele>336.6</ele>
        <time>2022-06-02T10:18:28Z</time>
      </trkpt>
      <trkpt lat="47.5375140" lon="7.9800730">
        <ele>336.6</ele>
        <time>2022-06-02T10:18:30Z</time>
      </trkpt>
      <trkpt lat="47.5375280" lon="7.9800170">
        <ele>336.2</ele>
        <time>2022-06-02T10:18:35Z</time>
      </trkpt>
      <trkpt lat="47.5375280" lon="7.9800170">
        <ele>336.2</ele>
        <time>2022-06-02T10:18:37Z</time>
      </trkpt>
      <trkpt lat="47.5375450" lon="7.9799540">
        <ele>337.0</ele>
        <time>2022-06-02T10:19:03Z</time>
      </trkpt>
      <trkpt lat="47.5375580" lon="7.9799200">
        <ele>337.0</ele>
        <time>2022-06-02T10:19:04Z</time>
      </trkpt>
      <trkpt lat="47.5376420" lon="7.9796500">
        <ele>337.2</ele>
        <time>2022-06-02T10:19:10Z</time>
      </trkpt>
      <trkpt lat="47.5377280" lon="7.9792620">
        <ele>337.8</ele>
        <time>2022-06-02T10:19:18Z</time>
      </trkpt>
      <trkpt lat="47.5378330" lon="7.9787970">
        <ele>338.2</ele>
        <time>2022-06-02T10:19:26Z</time>
      </trkpt>
      <trkpt lat="47.5378490" lon="7.9787330">
        <ele>338.2</ele>
        <time>2022-06-02T10:19:27Z</time>
      </trkpt>
      <trkpt lat="47.5379220" lon="7.9783880">
        <ele>337.4</ele>
        <time>2022-06-02T10:19:32Z</time>
      </trkpt>
      <trkpt lat="47.5380010" lon="7.9779230">
        <ele>336.6</ele>
        <time>2022-06-02T10:19:39Z</time>
      </trkpt>
      <trkpt lat="47.5380850" lon="7.9774450">
        <ele>336.0</ele>
        <time>2022-06-02T10:19:43Z</time>
      </trkpt>
      <trkpt lat="47.5381030" lon="7.9773360">
        <ele>335.6</ele>
        <time>2022-06-02T10:19:44Z</time>
      </trkpt>
      <trkpt lat="47.5381600" lon="7.9769910">
        <ele>335.0</ele>
        <time>2022-06-02T10:19:47Z</time>
      </trkpt>
      <trkpt lat="47.5382210" lon="7.9766100">
        <ele>334.0</ele>
        <time>2022-06-02T10:19:50Z</time>
      </trkpt>
      <trkpt lat="47.5383280" lon="7.9760920">
        <ele>332.8</ele>
        <time>2022-06-02T10:19:54Z</time>
      </trkpt>
      <trkpt lat="47.5384180" lon="7.9757220">
        <ele>331.4</ele>
        <time>2022-06-02T10:19:57Z</time>
      </trkpt>
      <trkpt lat="47.5385030" lon="7.9753880">
        <ele>330.6</ele>
        <time>2022-06-02T10:20:00Z</time>
      </trkpt>
      <trkpt lat="47.5385760" lon="7.9750880">
        <ele>330.0</ele>
        <time>2022-06-02T10:20:03Z</time>
      </trkpt>
      <trkpt lat="47.5387270" lon="7.9744800">
        <ele>329.6</ele>
        <time>2022-06-02T10:20:10Z</time>
      </trkpt>
      <trkpt lat="47.5388380" lon="7.9739880">
        <ele>329.6</ele>
        <time>2022-06-02T10:20:17Z</time>
      </trkpt>
      <trkpt lat="47.5388990" lon="7.9737530">
        <ele>329.8</ele>
        <time>2022-06-02T10:20:21Z</time>
      </trkpt>
      <trkpt lat="47.5389380" lon="7.9735610">
        <ele>329.8</ele>
        <time>2022-06-02T10:20:24Z</time>
      </trkpt>
      <trkpt lat="47.5390120" lon="7.9731530">
        <ele>330.0</ele>
        <time>2022-06-02T10:20:29Z</time>
      </trkpt>
      <trkpt lat="47.5390950" lon="7.9726230">
        <ele>329.8</ele>
        <time>2022-06-02T10:20:34Z</time>
      </trkpt>
      <trkpt lat="47.5391430" lon="7.9724010">
        <ele>329.2</ele>
        <time>2022-06-02T10:20:36Z</time>
      </trkpt>
      <trkpt lat="47.5391880" lon="7.9721850">
        <ele>328.0</ele>
        <time>2022-06-02T10:20:39Z</time>
      </trkpt>
      <trkpt lat="47.5392560" lon="7.9718610">
        <ele>327.2</ele>
        <time>2022-06-02T10:20:41Z</time>
      </trkpt>
      <trkpt lat="47.5393090" lon="7.9716500">
        <ele>326.8</ele>
        <time>2022-06-02T10:20:43Z</time>
      </trkpt>
      <trkpt lat="47.5394360" lon="7.9711050">
        <ele>325.8</ele>
        <time>2022-06-02T10:20:48Z</time>
      </trkpt>
      <trkpt lat="47.5394920" lon="7.9708860">
        <ele>325.4</ele>
        <time>2022-06-02T10:20:50Z</time>
      </trkpt>
      <trkpt lat="47.5396210" lon="7.9703150">
        <ele>324.2</ele>
        <time>2022-06-02T10:20:55Z</time>
      </trkpt>
      <trkpt lat="47.5397220" lon="7.9698540">
        <ele>323.2</ele>
        <time>2022-06-02T10:20:59Z</time>
      </trkpt>
      <trkpt lat="47.5397440" lon="7.9697390">
        <ele>322.8</ele>
        <time>2022-06-02T10:21:00Z</time>
      </trkpt>
      <trkpt lat="47.5398220" lon="7.9694060">
        <ele>322.2</ele>
        <time>2022-06-02T10:21:03Z</time>
      </trkpt>
      <trkpt lat="47.5399720" lon="7.9687870">
        <ele>321.6</ele>
        <time>2022-06-02T10:21:09Z</time>
      </trkpt>
      <trkpt lat="47.5400100" lon="7.9685890">
        <ele>321.2</ele>
        <time>2022-06-02T10:21:11Z</time>
      </trkpt>
      <trkpt lat="47.5400930" lon="7.9682240">
        <ele>320.8</ele>
        <time>2022-06-02T10:21:15Z</time>
      </trkpt>
      <trkpt lat="47.5402250" lon="7.9676260">
        <ele>320.6</ele>
        <time>2022-06-02T10:21:22Z</time>
      </trkpt>
      <trkpt lat="47.5403770" lon="7.9669940">
        <ele>320.2</ele>
        <time>2022-06-02T10:21:30Z</time>
      </trkpt>
      <trkpt lat="47.5404390" lon="7.9667070">
        <ele>320.2</ele>
        <time>2022-06-02T10:21:34Z</time>
      </trkpt>
      <trkpt lat="47.5404940" lon="7.9664990">
        <ele>320.0</ele>
        <time>2022-06-02T10:21:37Z</time>
      </trkpt>
      <trkpt lat="47.5405870" lon="7.9661090">
        <ele>320.0</ele>
        <time>2022-06-02T10:21:43Z</time>
      </trkpt>
      <trkpt lat="47.5406020" lon="7.9660510">
        <ele>319.8</ele>
        <time>2022-06-02T10:21:44Z</time>
      </trkpt>
      <trkpt lat="47.5406670" lon="7.9658180">
        <ele>319.8</ele>
        <time>2022-06-02T10:21:48Z</time>
      </trkpt>
      <trkpt lat="47.5407370" lon="7.9655290">
        <ele>319.6</ele>
        <time>2022-06-02T10:21:53Z</time>
      </trkpt>
      <trkpt lat="47.5408460" lon="7.9650600">
        <ele>319.2</ele>
        <time>2022-06-02T10:22:00Z</time>
      </trkpt>
      <trkpt lat="47.5408640" lon="7.9649780">
        <ele>319.0</ele>
        <time>2022-06-02T10:22:01Z</time>
      </trkpt>
      <trkpt lat="47.5409590" lon="7.9645960">
        <ele>318.4</ele>
        <time>2022-06-02T10:22:05Z</time>
      </trkpt>
      <trkpt lat="47.5410570" lon="7.9643180">
        <ele>317.6</ele>
        <time>2022-06-02T10:22:08Z</time>
      </trkpt>
      <trkpt lat="47.5410880" lon="7.9642420">
        <ele>317.0</ele>
        <time>2022-06-02T10:22:10Z</time>
      </trkpt>
      <trkpt lat="47.5411360" lon="7.9641460">
        <ele>316.6</ele>
        <time>2022-06-02T10:22:11Z</time>
      </trkpt>
      <trkpt lat="47.5411480" lon="7.9641270">
        <ele>316.4</ele>
        <time>2022-06-02T10:22:12Z</time>
      </trkpt>
      <trkpt lat="47.5411760" lon="7.9641170">
        <ele>315.8</ele>
        <time>2022-06-02T10:22:14Z</time>
      </trkpt>
      <trkpt lat="47.5411970" lon="7.9641130">
        <ele>315.6</ele>
        <time>2022-06-02T10:22:16Z</time>
      </trkpt>
      <trkpt lat="47.5412090" lon="7.9641180">
        <ele>315.4</ele>
        <time>2022-06-02T10:22:17Z</time>
      </trkpt>
      <trkpt lat="47.5412260" lon="7.9641200">
        <ele>315.4</ele>
        <time>2022-06-02T10:22:18Z</time>
      </trkpt>
      <trkpt lat="47.5412510" lon="7.9640640">
        <ele>315.2</ele>
        <time>2022-06-02T10:22:21Z</time>
      </trkpt>
      <trkpt lat="47.5412490" lon="7.9638490">
        <ele>314.6</ele>
        <time>2022-06-02T10:22:30Z</time>
      </trkpt>
      <trkpt lat="47.5412450" lon="7.9638000">
        <ele>314.4</ele>
        <time>2022-06-02T10:22:31Z</time>
      </trkpt>
      <trkpt lat="47.5412210" lon="7.9635450">
        <ele>314.0</ele>
        <time>2022-06-02T10:22:36Z</time>
      </trkpt>
      <trkpt lat="47.5412250" lon="7.9634430">
        <ele>313.2</ele>
        <time>2022-06-02T10:22:39Z</time>
      </trkpt>
      <trkpt lat="47.5411630" lon="7.9633930">
        <ele>313.2</ele>
        <time>2022-06-02T10:22:40Z</time>
      </trkpt>
      <trkpt lat="47.5411150" lon="7.9633810">
        <ele>313.0</ele>
        <time>2022-06-02T10:22:41Z</time>
      </trkpt>
      <trkpt lat="47.5409920" lon="7.9634910">
        <ele>312.8</ele>
        <time>2022-06-02T10:22:44Z</time>
      </trkpt>
      <trkpt lat="47.5409670" lon="7.9637060">
        <ele>313.2</ele>
        <time>2022-06-02T10:22:50Z</time>
      </trkpt>
      <trkpt lat="47.5409670" lon="7.9637670">
        <ele>313.4</ele>
        <time>2022-06-02T10:22:52Z</time>
      </trkpt>
      <trkpt lat="47.5409750" lon="7.9637800">
        <ele>313.4</ele>
        <time>2022-06-02T10:22:54Z</time>
      </trkpt>
      <trkpt lat="47.5409920" lon="7.9637460">
        <ele>313.6</ele>
        <time>2022-06-02T10:22:57Z</time>
      </trkpt>
      <trkpt lat="47.5410100" lon="7.9637010">
        <ele>313.8</ele>
        <time>2022-06-02T10:22:59Z</time>
      </trkpt>
      <trkpt lat="47.5411150" lon="7.9635990">
        <ele>314.2</ele>
        <time>2022-06-02T10:23:04Z</time>
      </trkpt>
      <trkpt lat="47.5412040" lon="7.9633520">
        <ele>314.4</ele>
        <time>2022-06-02T10:23:10Z</time>
      </trkpt>
      <trkpt lat="47.5412360" lon="7.9632250">
        <ele>314.2</ele>
        <time>2022-06-02T10:23:11Z</time>
      </trkpt>
      <trkpt lat="47.5413100" lon="7.9628280">
        <ele>314.4</ele>
        <time>2022-06-02T10:23:17Z</time>
      </trkpt>
      <trkpt lat="47.5413630" lon="7.9621990">
        <ele>314.2</ele>
        <time>2022-06-02T10:23:25Z</time>
      </trkpt>
      <trkpt lat="47.5413470" lon="7.9616270">
        <ele>313.6</ele>
        <time>2022-06-02T10:23:33Z</time>
      </trkpt>
      <trkpt lat="47.5412950" lon="7.9610550">
        <ele>312.4</ele>
        <time>2022-06-02T10:23:39Z</time>
      </trkpt>
      <trkpt lat="47.5412710" lon="7.9608980">
        <ele>312.0</ele>
        <time>2022-06-02T10:23:41Z</time>
      </trkpt>
      <trkpt lat="47.5411970" lon="7.9605010">
        <ele>311.2</ele>
        <time>2022-06-02T10:23:45Z</time>
      </trkpt>
      <trkpt lat="47.5411250" lon="7.9601080">
        <ele>310.6</ele>
        <time>2022-06-02T10:23:49Z</time>
      </trkpt>
      <trkpt lat="47.5411120" lon="7.9600270">
        <ele>310.0</ele>
        <time>2022-06-02T10:23:50Z</time>
      </trkpt>
      <trkpt lat="47.5410670" lon="7.9596770">
        <ele>309.2</ele>
        <time>2022-06-02T10:23:53Z</time>
      </trkpt>
      <trkpt lat="47.5410640" lon="7.9595650">
        <ele>308.8</ele>
        <time>2022-06-02T10:23:54Z</time>
      </trkpt>
      <trkpt lat="47.5410970" lon="7.9589630">
        <ele>307.6</ele>
        <time>2022-06-02T10:23:59Z</time>
      </trkpt>
      <trkpt lat="47.5411050" lon="7.9588420">
        <ele>307.4</ele>
        <time>2022-06-02T10:24:00Z</time>
      </trkpt>
      <trkpt lat="47.5411570" lon="7.9584800">
        <ele>306.4</ele>
        <time>2022-06-02T10:24:03Z</time>
      </trkpt>
      <trkpt lat="47.5412390" lon="7.9581200">
        <ele>305.8</ele>
        <time>2022-06-02T10:24:06Z</time>
      </trkpt>
      <trkpt lat="47.5412940" lon="7.9578960">
        <ele>305.2</ele>
        <time>2022-06-02T10:24:08Z</time>
      </trkpt>
      <trkpt lat="47.5414080" lon="7.9573540">
        <ele>304.2</ele>
        <time>2022-06-02T10:24:13Z</time>
      </trkpt>
      <trkpt lat="47.5414260" lon="7.9572470">
        <ele>304.0</ele>
        <time>2022-06-02T10:24:14Z</time>
      </trkpt>
      <trkpt lat="47.5414960" lon="7.9567180">
        <ele>303.2</ele>
        <time>2022-06-02T10:24:19Z</time>
      </trkpt>
      <trkpt lat="47.5415060" lon="7.9566160">
        <ele>303.0</ele>
        <time>2022-06-02T10:24:20Z</time>
      </trkpt>
      <trkpt lat="47.5415400" lon="7.9561130">
        <ele>302.6</ele>
        <time>2022-06-02T10:24:26Z</time>
      </trkpt>
      <trkpt lat="47.5415860" lon="7.9554860">
        <ele>302.0</ele>
        <time>2022-06-02T10:24:32Z</time>
      </trkpt>
      <trkpt lat="47.5416820" lon="7.9546270">
        <ele>301.8</ele>
        <time>2022-06-02T10:24:42Z</time>
      </trkpt>
      <trkpt lat="47.5416940" lon="7.9545430">
        <ele>301.6</ele>
        <time>2022-06-02T10:24:43Z</time>
      </trkpt>
      <trkpt lat="47.5418060" lon="7.9538600">
        <ele>301.8</ele>
        <time>2022-06-02T10:24:51Z</time>
      </trkpt>
      <trkpt lat="47.5419130" lon="7.9532590">
        <ele>301.8</ele>
        <time>2022-06-02T10:24:58Z</time>
      </trkpt>
      <trkpt lat="47.5419300" lon="7.9531730">
        <ele>301.8</ele>
        <time>2022-06-02T10:24:59Z</time>
      </trkpt>
      <trkpt lat="47.5420250" lon="7.9527550">
        <ele>301.8</ele>
        <time>2022-06-02T10:25:04Z</time>
      </trkpt>
      <trkpt lat="47.5420810" lon="7.9525060">
        <ele>301.6</ele>
        <time>2022-06-02T10:25:07Z</time>
      </trkpt>
      <trkpt lat="47.5422460" lon="7.9517570">
        <ele>302.0</ele>
        <time>2022-06-02T10:25:16Z</time>
      </trkpt>
      <trkpt lat="47.5424350" lon="7.9510510">
        <ele>301.4</ele>
        <time>2022-06-02T10:25:25Z</time>
      </trkpt>
      <trkpt lat="47.5425680" lon="7.9504940">
        <ele>301.2</ele>
        <time>2022-06-02T10:25:32Z</time>
      </trkpt>
      <trkpt lat="47.5427030" lon="7.9497680">
        <ele>301.0</ele>
        <time>2022-06-02T10:25:41Z</time>
      </trkpt>
      <trkpt lat="47.5427180" lon="7.9496700">
        <ele>301.0</ele>
        <time>2022-06-02T10:25:43Z</time>
      </trkpt>
      <trkpt lat="47.5427250" lon="7.9496460">
        <ele>301.0</ele>
        <time>2022-06-02T10:25:44Z</time>
      </trkpt>
      <trkpt lat="47.5427430" lon="7.9496240">
        <ele>301.0</ele>
        <time>2022-06-02T10:25:49Z</time>
      </trkpt>
      <trkpt lat="47.5427490" lon="7.9495330">
        <ele>300.6</ele>
        <time>2022-06-02T10:26:46Z</time>
      </trkpt>
      <trkpt lat="47.5427600" lon="7.9494450">
        <ele>300.6</ele>
        <time>2022-06-02T10:26:48Z</time>
      </trkpt>
      <trkpt lat="47.5428030" lon="7.9491580">
        <ele>300.2</ele>
        <time>2022-06-02T10:26:53Z</time>
      </trkpt>
      <trkpt lat="47.5428240" lon="7.9490260">
        <ele>300.0</ele>
        <time>2022-06-02T10:26:55Z</time>
      </trkpt>
      <trkpt lat="47.5429150" lon="7.9482160">
        <ele>299.6</ele>
        <time>2022-06-02T10:27:06Z</time>
      </trkpt>
      <trkpt lat="47.5430150" lon="7.9477550">
        <ele>299.4</ele>
        <time>2022-06-02T10:27:13Z</time>
      </trkpt>
      <trkpt lat="47.5430690" lon="7.9475370">
        <ele>299.4</ele>
        <time>2022-06-02T10:27:15Z</time>
      </trkpt>
      <trkpt lat="47.5430960" lon="7.9474620">
        <ele>299.4</ele>
        <time>2022-06-02T10:27:17Z</time>
      </trkpt>
      <trkpt lat="47.5431070" lon="7.9474170">
        <ele>299.2</ele>
        <time>2022-06-02T10:27:22Z</time>
      </trkpt>
      <trkpt lat="47.5431380" lon="7.9473490">
        <ele>299.0</ele>
        <time>2022-06-02T10:27:29Z</time>
      </trkpt>
      <trkpt lat="47.5431570" lon="7.9472450">
        <ele>299.0</ele>
        <time>2022-06-02T10:27:31Z</time>
      </trkpt>
      <trkpt lat="47.5431190" lon="7.9470340">
        <ele>298.8</ele>
        <time>2022-06-02T10:27:35Z</time>
      </trkpt>
      <trkpt lat="47.5430320" lon="7.9466490">
        <ele>298.8</ele>
        <time>2022-06-02T10:27:43Z</time>
      </trkpt>
      <trkpt lat="47.5430100" lon="7.9465120">
        <ele>298.8</ele>
        <time>2022-06-02T10:27:48Z</time>
      </trkpt>
      <trkpt lat="47.5429850" lon="7.9462100">
        <ele>298.8</ele>
        <time>2022-06-02T10:27:54Z</time>
      </trkpt>
      <trkpt lat="47.5429690" lon="7.9458410">
        <ele>298.6</ele>
        <time>2022-06-02T10:28:02Z</time>
      </trkpt>
      <trkpt lat="47.5429680" lon="7.9457930">
        <ele>298.6</ele>
        <time>2022-06-02T10:28:05Z</time>
      </trkpt>
      <trkpt lat="47.5429780" lon="7.9456590">
        <ele>299.2</ele>
        <time>2022-06-02T10:28:14Z</time>
      </trkpt>
      <trkpt lat="47.5429880" lon="7.9455730">
        <ele>299.2</ele>
        <time>2022-06-02T10:28:16Z</time>
      </trkpt>
      <trkpt lat="47.5430190" lon="7.9453300">
        <ele>299.4</ele>
        <time>2022-06-02T10:28:20Z</time>
      </trkpt>
      <trkpt lat="47.5430250" lon="7.9452760">
        <ele>299.4</ele>
        <time>2022-06-02T10:28:21Z</time>
      </trkpt>
      <trkpt lat="47.5430320" lon="7.9450480">
        <ele>299.4</ele>
        <time>2022-06-02T10:28:24Z</time>
      </trkpt>
      <trkpt lat="47.5430430" lon="7.9448980">
        <ele>299.4</ele>
        <time>2022-06-02T10:28:26Z</time>
      </trkpt>
      <trkpt lat="47.5430870" lon="7.9442800">
        <ele>299.6</ele>
        <time>2022-06-02T10:28:34Z</time>
      </trkpt>
      <trkpt lat="47.5431280" lon="7.9436910">
        <ele>299.8</ele>
        <time>2022-06-02T10:28:41Z</time>
      </trkpt>
      <trkpt lat="47.5431690" lon="7.9431070">
        <ele>299.6</ele>
        <time>2022-06-02T10:28:47Z</time>
      </trkpt>
      <trkpt lat="47.5432460" lon="7.9422540">
        <ele>298.8</ele>
        <time>2022-06-02T10:28:55Z</time>
      </trkpt>
      <trkpt lat="47.5432550" lon="7.9421720">
        <ele>298.8</ele>
        <time>2022-06-02T10:28:56Z</time>
      </trkpt>
      <trkpt lat="47.5433300" lon="7.9415370">
        <ele>298.6</ele>
        <time>2022-06-02T10:29:02Z</time>
      </trkpt>
      <trkpt lat="47.5433990" lon="7.9411550">
        <ele>298.0</ele>
        <time>2022-06-02T10:29:06Z</time>
      </trkpt>
      <trkpt lat="47.5434440" lon="7.9409730">
        <ele>298.0</ele>
        <time>2022-06-02T10:29:08Z</time>
      </trkpt>
      <trkpt lat="47.5435920" lon="7.9403730">
        <ele>297.6</ele>
        <time>2022-06-02T10:29:15Z</time>
      </trkpt>
      <trkpt lat="47.5437670" lon="7.9397820">
        <ele>297.0</ele>
        <time>2022-06-02T10:29:22Z</time>
      </trkpt>
      <trkpt lat="47.5437950" lon="7.9396980">
        <ele>297.0</ele>
        <time>2022-06-02T10:29:23Z</time>
      </trkpt>
      <trkpt lat="47.5440580" lon="7.9389950">
        <ele>296.8</ele>
        <time>2022-06-02T10:29:32Z</time>
      </trkpt>
      <trkpt lat="47.5443130" lon="7.9383920">
        <ele>296.6</ele>
        <time>2022-06-02T10:29:40Z</time>
      </trkpt>
      <trkpt lat="47.5444450" lon="7.9381070">
        <ele>296.6</ele>
        <time>2022-06-02T10:29:44Z</time>
      </trkpt>
      <trkpt lat="47.5445470" lon="7.9378830">
        <ele>296.4</ele>
        <time>2022-06-02T10:29:47Z</time>
      </trkpt>
      <trkpt lat="47.5448410" lon="7.9371790">
        <ele>296.4</ele>
        <time>2022-06-02T10:29:56Z</time>
      </trkpt>
      <trkpt lat="47.5451150" lon="7.9364840">
        <ele>296.0</ele>
        <time>2022-06-02T10:30:05Z</time>
      </trkpt>
      <trkpt lat="47.5451430" lon="7.9364040">
        <ele>295.8</ele>
        <time>2022-06-02T10:30:06Z</time>
      </trkpt>
      <trkpt lat="47.5453560" lon="7.9357230">
        <ele>294.8</ele>
        <time>2022-06-02T10:30:14Z</time>
      </trkpt>
      <trkpt lat="47.5454990" lon="7.9351240">
        <ele>294.2</ele>
        <time>2022-06-02T10:30:20Z</time>
      </trkpt>
      <trkpt lat="47.5455640" lon="7.9348160">
        <ele>293.8</ele>
        <time>2022-06-02T10:30:23Z</time>
      </trkpt>
      <trkpt lat="47.5456410" lon="7.9344010">
        <ele>293.2</ele>
        <time>2022-06-02T10:30:27Z</time>
      </trkpt>
      <trkpt lat="47.5456700" lon="7.9342110">
        <ele>293.0</ele>
        <time>2022-06-02T10:30:29Z</time>
      </trkpt>
      <trkpt lat="47.5457030" lon="7.9339430">
        <ele>292.8</ele>
        <time>2022-06-02T10:30:32Z</time>
      </trkpt>
      <trkpt lat="47.5457520" lon="7.9334680">
        <ele>292.8</ele>
        <time>2022-06-02T10:30:38Z</time>
      </trkpt>
      <trkpt lat="47.5457660" lon="7.9333550">
        <ele>292.8</ele>
        <time>2022-06-02T10:30:40Z</time>
      </trkpt>
      <trkpt lat="47.5458100" lon="7.9332550">
        <ele>292.8</ele>
        <time>2022-06-02T10:30:42Z</time>
      </trkpt>
      <trkpt lat="47.5458570" lon="7.9331950">
        <ele>292.8</ele>
        <time>2022-06-02T10:30:44Z</time>
      </trkpt>
      <trkpt lat="47.5458670" lon="7.9331250">
        <ele>292.6</ele>
        <time>2022-06-02T10:30:46Z</time>
      </trkpt>
      <trkpt lat="47.5458770" lon="7.9328620">
        <ele>292.2</ele>
        <time>2022-06-02T10:30:51Z</time>
      </trkpt>
      <trkpt lat="47.5458930" lon="7.9327550">
        <ele>292.0</ele>
        <time>2022-06-02T10:30:53Z</time>
      </trkpt>
      <trkpt lat="47.5459110" lon="7.9325610">
        <ele>291.6</ele>
        <time>2022-06-02T10:30:56Z</time>
      </trkpt>
      <trkpt lat="47.5459490" lon="7.9322910">
        <ele>291.6</ele>
        <time>2022-06-02T10:31:00Z</time>
      </trkpt>
      <trkpt lat="47.5459590" lon="7.9321330">
        <ele>291.6</ele>
        <time>2022-06-02T10:31:02Z</time>
      </trkpt>
      <trkpt lat="47.5460100" lon="7.9316060">
        <ele>291.8</ele>
        <time>2022-06-02T10:31:10Z</time>
      </trkpt>
      <trkpt lat="47.5460280" lon="7.9313040">
        <ele>291.8</ele>
        <time>2022-06-02T10:31:14Z</time>
      </trkpt>
      <trkpt lat="47.5460220" lon="7.9311520">
        <ele>291.8</ele>
        <time>2022-06-02T10:31:16Z</time>
      </trkpt>
      <trkpt lat="47.5460150" lon="7.9309530">
        <ele>291.8</ele>
        <time>2022-06-02T10:31:19Z</time>
      </trkpt>
      <trkpt lat="47.5460240" lon="7.9306840">
        <ele>291.8</ele>
        <time>2022-06-02T10:31:23Z</time>
      </trkpt>
      <trkpt lat="47.5460300" lon="7.9303560">
        <ele>291.6</ele>
        <time>2022-06-02T10:31:28Z</time>
      </trkpt>
      <trkpt lat="47.5460310" lon="7.9301980">
        <ele>291.4</ele>
        <time>2022-06-02T10:31:30Z</time>
      </trkpt>
      <trkpt lat="47.5460150" lon="7.9300080">
        <ele>291.2</ele>
        <time>2022-06-02T10:31:33Z</time>
      </trkpt>
      <trkpt lat="47.5459960" lon="7.9299830">
        <ele>291.0</ele>
        <time>2022-06-02T10:31:34Z</time>
      </trkpt>
      <trkpt lat="47.5459660" lon="7.9299750">
        <ele>291.0</ele>
        <time>2022-06-02T10:31:35Z</time>
      </trkpt>
      <trkpt lat="47.5458740" lon="7.9299760">
        <ele>291.0</ele>
        <time>2022-06-02T10:31:38Z</time>
      </trkpt>
      <trkpt lat="47.5457230" lon="7.9299710">
        <ele>291.6</ele>
        <time>2022-06-02T10:31:44Z</time>
      </trkpt>
      <trkpt lat="47.5457120" lon="7.9299610">
        <ele>291.8</ele>
        <time>2022-06-02T10:31:45Z</time>
      </trkpt>
      <trkpt lat="47.5456890" lon="7.9298800">
        <ele>292.0</ele>
        <time>2022-06-02T10:31:48Z</time>
      </trkpt>
      <trkpt lat="47.5456620" lon="7.9295990">
        <ele>292.4</ele>
        <time>2022-06-02T10:31:53Z</time>
      </trkpt>
      <trkpt lat="47.5456300" lon="7.9291440">
        <ele>292.8</ele>
        <time>2022-06-02T10:32:00Z</time>
      </trkpt>
      <trkpt lat="47.5456080" lon="7.9289290">
        <ele>293.0</ele>
        <time>2022-06-02T10:32:03Z</time>
      </trkpt>
      <trkpt lat="47.5455640" lon="7.9285220">
        <ele>293.0</ele>
        <time>2022-06-02T10:32:09Z</time>
      </trkpt>
      <trkpt lat="47.5455560" lon="7.9284520">
        <ele>292.8</ele>
        <time>2022-06-02T10:32:10Z</time>
      </trkpt>
      <trkpt lat="47.5455130" lon="7.9280110">
        <ele>292.8</ele>
        <time>2022-06-02T10:32:16Z</time>
      </trkpt>
      <trkpt lat="47.5455090" lon="7.9279520">
        <ele>292.8</ele>
        <time>2022-06-02T10:32:17Z</time>
      </trkpt>
      <trkpt lat="47.5454970" lon="7.9276240">
        <ele>293.0</ele>
        <time>2022-06-02T10:32:22Z</time>
      </trkpt>
      <trkpt lat="47.5454880" lon="7.9274760">
        <ele>293.0</ele>
        <time>2022-06-02T10:32:24Z</time>
      </trkpt>
      <trkpt lat="47.5454640" lon="7.9271630">
        <ele>293.0</ele>
        <time>2022-06-02T10:32:28Z</time>
      </trkpt>
      <trkpt lat="47.5454640" lon="7.9267150">
        <ele>293.2</ele>
        <time>2022-06-02T10:32:34Z</time>
      </trkpt>
      <trkpt lat="47.5454670" lon="7.9265640">
        <ele>293.2</ele>
        <time>2022-06-02T10:32:36Z</time>
      </trkpt>
      <trkpt lat="47.5454660" lon="7.9262690">
        <ele>293.4</ele>
        <time>2022-06-02T10:32:40Z</time>
      </trkpt>
      <trkpt lat="47.5454720" lon="7.9257140">
        <ele>294.0</ele>
        <time>2022-06-02T10:32:47Z</time>
      </trkpt>
      <trkpt lat="47.5454970" lon="7.9250610">
        <ele>293.8</ele>
        <time>2022-06-02T10:32:55Z</time>
      </trkpt>
      <trkpt lat="47.5455210" lon="7.9243320">
        <ele>294.2</ele>
        <time>2022-06-02T10:33:04Z</time>
      </trkpt>
      <trkpt lat="47.5455620" lon="7.9237170">
        <ele>293.8</ele>
        <time>2022-06-02T10:33:11Z</time>
      </trkpt>
      <trkpt lat="47.5456090" lon="7.9231760">
        <ele>293.2</ele>
        <time>2022-06-02T10:33:16Z</time>
      </trkpt>
      <trkpt lat="47.5457060" lon="7.9225550">
        <ele>292.0</ele>
        <time>2022-06-02T10:33:22Z</time>
      </trkpt>
      <trkpt lat="47.5458210" lon="7.9220470">
        <ele>291.4</ele>
        <time>2022-06-02T10:33:28Z</time>
      </trkpt>
      <trkpt lat="47.5458940" lon="7.9214330">
        <ele>291.4</ele>
        <time>2022-06-02T10:33:35Z</time>
      </trkpt>
      <trkpt lat="47.5459050" lon="7.9213450">
        <ele>291.4</ele>
        <time>2022-06-02T10:33:36Z</time>
      </trkpt>
      <trkpt lat="47.5459180" lon="7.9212570">
        <ele>291.4</ele>
        <time>2022-06-02T10:33:37Z</time>
      </trkpt>
      <trkpt lat="47.5459510" lon="7.9211040">
        <ele>291.4</ele>
        <time>2022-06-02T10:33:39Z</time>
      </trkpt>
      <trkpt lat="47.5460020" lon="7.9205770">
        <ele>291.2</ele>
        <time>2022-06-02T10:33:45Z</time>
      </trkpt>
      <trkpt lat="47.5460360" lon="7.9204230">
        <ele>291.2</ele>
        <time>2022-06-02T10:33:47Z</time>
      </trkpt>
      <trkpt lat="47.5460790" lon="7.9202010">
        <ele>291.0</ele>
        <time>2022-06-02T10:33:50Z</time>
      </trkpt>
      <trkpt lat="47.5460880" lon="7.9201340">
        <ele>291.0</ele>
        <time>2022-06-02T10:33:51Z</time>
      </trkpt>
      <trkpt lat="47.5462360" lon="7.9194570">
        <ele>291.2</ele>
        <time>2022-06-02T10:34:00Z</time>
      </trkpt>
      <trkpt lat="47.5463700" lon="7.9189340">
        <ele>291.4</ele>
        <time>2022-06-02T10:34:07Z</time>
      </trkpt>
      <trkpt lat="47.5464540" lon="7.9185130">
        <ele>291.6</ele>
        <time>2022-06-02T10:34:13Z</time>
      </trkpt>
      <trkpt lat="47.5465040" lon="7.9183070">
        <ele>292.0</ele>
        <time>2022-06-02T10:34:17Z</time>
      </trkpt>
      <trkpt lat="47.5465800" lon="7.9179870">
        <ele>292.2</ele>
        <time>2022-06-02T10:34:21Z</time>
      </trkpt>
      <trkpt lat="47.5467280" lon="7.9173770">
        <ele>292.6</ele>
        <time>2022-06-02T10:34:30Z</time>
      </trkpt>
      <trkpt lat="47.5468210" lon="7.9170520">
        <ele>292.8</ele>
        <time>2022-06-02T10:34:35Z</time>
      </trkpt>
      <trkpt lat="47.5468560" lon="7.9169360">
        <ele>292.8</ele>
        <time>2022-06-02T10:34:37Z</time>
      </trkpt>
      <trkpt lat="47.5469750" lon="7.9165590">
        <ele>293.0</ele>
        <time>2022-06-02T10:34:43Z</time>
      </trkpt>
      <trkpt lat="47.5470070" lon="7.9164650">
        <ele>293.2</ele>
        <time>2022-06-02T10:34:45Z</time>
      </trkpt>
      <trkpt lat="47.5470260" lon="7.9164100">
        <ele>293.2</ele>
        <time>2022-06-02T10:34:46Z</time>
      </trkpt>
      <trkpt lat="47.5472100" lon="7.9158820">
        <ele>293.8</ele>
        <time>2022-06-02T10:34:55Z</time>
      </trkpt>
      <trkpt lat="47.5474170" lon="7.9152960">
        <ele>294.2</ele>
        <time>2022-06-02T10:35:05Z</time>
      </trkpt>
      <trkpt lat="47.5474340" lon="7.9152450">
        <ele>294.2</ele>
        <time>2022-06-02T10:35:06Z</time>
      </trkpt>
      <trkpt lat="47.5474700" lon="7.9151150">
        <ele>294.2</ele>
        <time>2022-06-02T10:35:08Z</time>
      </trkpt>
      <trkpt lat="47.5475800" lon="7.9147900">
        <ele>294.4</ele>
        <time>2022-06-02T10:35:13Z</time>
      </trkpt>
      <trkpt lat="47.5478140" lon="7.9141400">
        <ele>295.0</ele>
        <time>2022-06-02T10:35:23Z</time>
      </trkpt>
      <trkpt lat="47.5478400" lon="7.9140740">
        <ele>295.0</ele>
        <time>2022-06-02T10:35:24Z</time>
      </trkpt>
      <trkpt lat="47.5479340" lon="7.9137930">
        <ele>295.0</ele>
        <time>2022-06-02T10:35:28Z</time>
      </trkpt>
      <trkpt lat="47.5481630" lon="7.9130800">
        <ele>295.0</ele>
        <time>2022-06-02T10:35:38Z</time>
      </trkpt>
      <trkpt lat="47.5483480" lon="7.9124970">
        <ele>295.2</ele>
        <time>2022-06-02T10:35:46Z</time>
      </trkpt>
      <trkpt lat="47.5485780" lon="7.9118020">
        <ele>295.0</ele>
        <time>2022-06-02T10:35:56Z</time>
      </trkpt>
      <trkpt lat="47.5487770" lon="7.9112420">
        <ele>295.0</ele>
        <time>2022-06-02T10:36:04Z</time>
      </trkpt>
      <trkpt lat="47.5488080" lon="7.9111750">
        <ele>295.0</ele>
        <time>2022-06-02T10:36:05Z</time>
      </trkpt>
      <trkpt lat="47.5488360" lon="7.9111060">
        <ele>295.0</ele>
        <time>2022-06-02T10:36:06Z</time>
      </trkpt>
      <trkpt lat="47.5489910" lon="7.9106900">
        <ele>295.0</ele>
        <time>2022-06-02T10:36:12Z</time>
      </trkpt>
      <trkpt lat="47.5491350" lon="7.9102960">
        <ele>295.0</ele>
        <time>2022-06-02T10:36:18Z</time>
      </trkpt>
      <trkpt lat="47.5491880" lon="7.9102280">
        <ele>295.2</ele>
        <time>2022-06-02T10:36:20Z</time>
      </trkpt>
      <trkpt lat="47.5492240" lon="7.9102210">
        <ele>295.2</ele>
        <time>2022-06-02T10:36:21Z</time>
      </trkpt>
      <trkpt lat="47.5493010" lon="7.9102310">
        <ele>295.2</ele>
        <time>2022-06-02T10:36:23Z</time>
      </trkpt>
      <trkpt lat="47.5493810" lon="7.9102870">
        <ele>295.2</ele>
        <time>2022-06-02T10:36:25Z</time>
      </trkpt>
      <trkpt lat="47.5495430" lon="7.9104530">
        <ele>295.0</ele>
        <time>2022-06-02T10:36:29Z</time>
      </trkpt>
      <trkpt lat="47.5496500" lon="7.9105770">
        <ele>294.8</ele>
        <time>2022-06-02T10:36:32Z</time>
      </trkpt>
      <trkpt lat="47.5499230" lon="7.9108160">
        <ele>294.0</ele>
        <time>2022-06-02T10:36:38Z</time>
      </trkpt>
      <trkpt lat="47.5499890" lon="7.9108450">
        <ele>294.0</ele>
        <time>2022-06-02T10:36:39Z</time>
      </trkpt>
      <trkpt lat="47.5500350" lon="7.9108520">
        <ele>293.8</ele>
        <time>2022-06-02T10:36:40Z</time>
      </trkpt>
      <trkpt lat="47.5501510" lon="7.9108180">
        <ele>293.4</ele>
        <time>2022-06-02T10:36:42Z</time>
      </trkpt>
      <trkpt lat="47.5502010" lon="7.9107750">
        <ele>293.4</ele>
        <time>2022-06-02T10:36:43Z</time>
      </trkpt>
      <trkpt lat="47.5502550" lon="7.9107090">
        <ele>293.2</ele>
        <time>2022-06-02T10:36:44Z</time>
      </trkpt>
      <trkpt lat="47.5503660" lon="7.9105420">
        <ele>293.0</ele>
        <time>2022-06-02T10:36:47Z</time>
      </trkpt>
      <trkpt lat="47.5504090" lon="7.9104870">
        <ele>292.8</ele>
        <time>2022-06-02T10:36:48Z</time>
      </trkpt>
      <trkpt lat="47.5504940" lon="7.9103790">
        <ele>292.4</ele>
        <time>2022-06-02T10:36:50Z</time>
      </trkpt>
      <trkpt lat="47.5508340" lon="7.9099540">
        <ele>291.6</ele>
        <time>2022-06-02T10:36:58Z</time>
      </trkpt>
      <trkpt lat="47.5509310" lon="7.9098510">
        <ele>291.4</ele>
        <time>2022-06-02T10:37:00Z</time>
      </trkpt>
      <trkpt lat="47.5511260" lon="7.9096200">
        <ele>291.0</ele>
        <time>2022-06-02T10:37:05Z</time>
      </trkpt>
      <trkpt lat="47.5511700" lon="7.9095820">
        <ele>291.0</ele>
        <time>2022-06-02T10:37:06Z</time>
      </trkpt>
      <trkpt lat="47.5514690" lon="7.9093230">
        <ele>290.6</ele>
        <time>2022-06-02T10:37:13Z</time>
      </trkpt>
      <trkpt lat="47.5516770" lon="7.9091580">
        <ele>290.6</ele>
        <time>2022-06-02T10:37:19Z</time>
      </trkpt>
      <trkpt lat="47.5517530" lon="7.9090960">
        <ele>290.6</ele>
        <time>2022-06-02T10:37:21Z</time>
      </trkpt>
      <trkpt lat="47.5520010" lon="7.9088800">
        <ele>290.6</ele>
        <time>2022-06-02T10:37:27Z</time>
      </trkpt>
      <trkpt lat="47.5523510" lon="7.9085990">
        <ele>290.4</ele>
        <time>2022-06-02T10:37:35Z</time>
      </trkpt>
      <trkpt lat="47.5523960" lon="7.9085650">
        <ele>290.4</ele>
        <time>2022-06-02T10:37:36Z</time>
      </trkpt>
      <trkpt lat="47.5524420" lon="7.9085370">
        <ele>290.4</ele>
        <time>2022-06-02T10:37:37Z</time>
      </trkpt>
      <trkpt lat="47.5525830" lon="7.9084460">
        <ele>290.4</ele>
        <time>2022-06-02T10:37:40Z</time>
      </trkpt>
      <trkpt lat="47.5526730" lon="7.9083900">
        <ele>290.6</ele>
        <time>2022-06-02T10:37:42Z</time>
      </trkpt>
      <trkpt lat="47.5530690" lon="7.9081530">
        <ele>290.4</ele>
        <time>2022-06-02T10:37:51Z</time>
      </trkpt>
      <trkpt lat="47.5531960" lon="7.9080630">
        <ele>290.4</ele>
        <time>2022-06-02T10:37:54Z</time>
      </trkpt>
      <trkpt lat="47.5534100" lon="7.9079280">
        <ele>290.2</ele>
        <time>2022-06-02T10:37:59Z</time>
      </trkpt>
      <trkpt lat="47.5538580" lon="7.9076250">
        <ele>290.0</ele>
        <time>2022-06-02T10:38:10Z</time>
      </trkpt>
      <trkpt lat="47.5539010" lon="7.9075940">
        <ele>290.0</ele>
        <time>2022-06-02T10:38:11Z</time>
      </trkpt>
      <trkpt lat="47.5541590" lon="7.9074180">
        <ele>289.8</ele>
        <time>2022-06-02T10:38:17Z</time>
      </trkpt>
      <trkpt lat="47.5546650" lon="7.9071900">
        <ele>290.0</ele>
        <time>2022-06-02T10:38:28Z</time>
      </trkpt>
      <trkpt lat="47.5549800" lon="7.9070900">
        <ele>289.4</ele>
        <time>2022-06-02T10:38:36Z</time>
      </trkpt>
      <trkpt lat="47.5551660" lon="7.9070410">
        <ele>288.8</ele>
        <time>2022-06-02T10:38:43Z</time>
      </trkpt>
      <trkpt lat="47.5552190" lon="7.9070270">
        <ele>288.4</ele>
        <time>2022-06-02T10:38:46Z</time>
      </trkpt>
      <trkpt lat="47.5552560" lon="7.9070030">
        <ele>288.4</ele>
        <time>2022-06-02T10:38:48Z</time>
      </trkpt>
      <trkpt lat="47.5553950" lon="7.9069720">
        <ele>288.0</ele>
        <time>2022-06-02T10:38:54Z</time>
      </trkpt>
      <trkpt lat="47.5554660" lon="7.9069940">
        <ele>287.8</ele>
        <time>2022-06-02T10:38:59Z</time>
      </trkpt>
      <trkpt lat="47.5554930" lon="7.9070000">
        <ele>287.6</ele>
        <time>2022-06-02T10:39:02Z</time>
      </trkpt>
      <trkpt lat="47.5555170" lon="7.9070060">
        <ele>287.0</ele>
        <time>2022-06-02T10:39:07Z</time>
      </trkpt>
      <trkpt lat="47.5555250" lon="7.9070030">
        <ele>286.6</ele>
        <time>2022-06-02T10:39:12Z</time>
      </trkpt>
      <trkpt lat="47.5555250" lon="7.9070030">
        <ele>286.6</ele>
        <time>2022-06-02T10:39:13Z</time>
      </trkpt>
      <trkpt lat="47.5555690" lon="7.9069950">
        <ele>285.4</ele>
        <time>2022-06-02T10:40:13Z</time>
      </trkpt>
      <trkpt lat="47.5556250" lon="7.9069840">
        <ele>285.4</ele>
        <time>2022-06-02T10:40:15Z</time>
      </trkpt>
      <trkpt lat="47.5558330" lon="7.9069050">
        <ele>285.4</ele>
        <time>2022-06-02T10:40:21Z</time>
      </trkpt>
      <trkpt lat="47.5559570" lon="7.9067620">
        <ele>285.6</ele>
        <time>2022-06-02T10:40:26Z</time>
      </trkpt>
      <trkpt lat="47.5561430" lon="7.9066870">
        <ele>285.8</ele>
        <time>2022-06-02T10:40:31Z</time>
      </trkpt>
      <trkpt lat="47.5562720" lon="7.9066380">
        <ele>286.0</ele>
        <time>2022-06-02T10:40:34Z</time>
      </trkpt>
      <trkpt lat="47.5564390" lon="7.9065240">
        <ele>286.2</ele>
        <time>2022-06-02T10:40:38Z</time>
      </trkpt>
      <trkpt lat="47.5566460" lon="7.9064490">
        <ele>286.4</ele>
        <time>2022-06-02T10:40:42Z</time>
      </trkpt>
      <trkpt lat="47.5567720" lon="7.9063270">
        <ele>286.6</ele>
        <time>2022-06-02T10:40:45Z</time>
      </trkpt>
      <trkpt lat="47.5570680" lon="7.9059660">
        <ele>287.0</ele>
        <time>2022-06-02T10:40:53Z</time>
      </trkpt>
      <trkpt lat="47.5571470" lon="7.9058790">
        <ele>287.0</ele>
        <time>2022-06-02T10:40:55Z</time>
      </trkpt>
      <trkpt lat="47.5573560" lon="7.9057160">
        <ele>287.2</ele>
        <time>2022-06-02T10:41:00Z</time>
      </trkpt>
      <trkpt lat="47.5574410" lon="7.9056680">
        <ele>287.4</ele>
        <time>2022-06-02T10:41:02Z</time>
      </trkpt>
      <trkpt lat="47.5575130" lon="7.9056100">
        <ele>287.4</ele>
        <time>2022-06-02T10:41:04Z</time>
      </trkpt>
      <trkpt lat="47.5576060" lon="7.9056050">
        <ele>287.4</ele>
        <time>2022-06-02T10:41:06Z</time>
      </trkpt>
      <trkpt lat="47.5576550" lon="7.9056030">
        <ele>287.4</ele>
        <time>2022-06-02T10:41:07Z</time>
      </trkpt>
      <trkpt lat="47.5578710" lon="7.9055540">
        <ele>287.4</ele>
        <time>2022-06-02T10:41:11Z</time>
      </trkpt>
      <trkpt lat="47.5581770" lon="7.9055130">
        <ele>286.8</ele>
        <time>2022-06-02T10:41:17Z</time>
      </trkpt>
      <trkpt lat="47.5582900" lon="7.9055200">
        <ele>286.6</ele>
        <time>2022-06-02T10:41:19Z</time>
      </trkpt>
      <trkpt lat="47.5585670" lon="7.9055470">
        <ele>286.4</ele>
        <time>2022-06-02T10:41:25Z</time>
      </trkpt>
      <trkpt lat="47.5586080" lon="7.9055600">
        <ele>286.4</ele>
        <time>2022-06-02T10:41:26Z</time>
      </trkpt>
      <trkpt lat="47.5587810" lon="7.9056020">
        <ele>286.4</ele>
        <time>2022-06-02T10:41:31Z</time>
      </trkpt>
      <trkpt lat="47.5589220" lon="7.9056760">
        <ele>286.4</ele>
        <time>2022-06-02T10:41:36Z</time>
      </trkpt>
      <trkpt lat="47.5591080" lon="7.9057640">
        <ele>286.4</ele>
        <time>2022-06-02T10:41:42Z</time>
      </trkpt>
      <trkpt lat="47.5593070" lon="7.9058310">
        <ele>286.2</ele>
        <time>2022-06-02T10:41:47Z</time>
      </trkpt>
      <trkpt lat="47.5595120" lon="7.9058560">
        <ele>285.6</ele>
        <time>2022-06-02T10:41:54Z</time>
      </trkpt>
      <trkpt lat="47.5596350" lon="7.9058350">
        <ele>285.6</ele>
        <time>2022-06-02T10:42:01Z</time>
      </trkpt>
      <trkpt lat="47.5596390" lon="7.9058130">
        <ele>285.8</ele>
        <time>2022-06-02T10:42:02Z</time>
      </trkpt>
      <trkpt lat="47.5596380" lon="7.9057130">
        <ele>285.8</ele>
        <time>2022-06-02T10:42:07Z</time>
      </trkpt>
      <trkpt lat="47.5596420" lon="7.9056850">
        <ele>285.8</ele>
        <time>2022-06-02T10:42:09Z</time>
      </trkpt>
      <trkpt lat="47.5596430" lon="7.9056720">
        <ele>285.8</ele>
        <time>2022-06-02T10:42:11Z</time>
      </trkpt>
      <trkpt lat="47.5596450" lon="7.9056610">
        <ele>285.6</ele>
        <time>2022-06-02T10:42:13Z</time>
      </trkpt>
      <trkpt lat="47.5596460" lon="7.9056640">
        <ele>285.6</ele>
        <time>2022-06-02T10:42:14Z</time>
      </trkpt>
      <trkpt lat="47.5596510" lon="7.9056790">
        <ele>285.6</ele>
        <time>2022-06-02T10:42:16Z</time>
      </trkpt>
      <trkpt lat="47.5596430" lon="7.9057250">
        <ele>285.6</ele>
        <time>2022-06-02T10:42:18Z</time>
      </trkpt>
      <trkpt lat="47.5596400" lon="7.9058100">
        <ele>285.6</ele>
        <time>2022-06-02T10:42:21Z</time>
      </trkpt>
      <trkpt lat="47.5596330" lon="7.9058310">
        <ele>285.6</ele>
        <time>2022-06-02T10:42:23Z</time>
      </trkpt>
      <trkpt lat="47.5596050" lon="7.9058550">
        <ele>285.6</ele>
        <time>2022-06-02T10:42:25Z</time>
      </trkpt>
      <trkpt lat="47.5595120" lon="7.9058300">
        <ele>285.4</ele>
        <time>2022-06-02T10:42:30Z</time>
      </trkpt>
      <trkpt lat="47.5594930" lon="7.9058030">
        <ele>285.4</ele>
        <time>2022-06-02T10:42:31Z</time>
      </trkpt>
      <trkpt lat="47.5594840" lon="7.9057720">
        <ele>285.4</ele>
        <time>2022-06-02T10:42:32Z</time>
      </trkpt>
      <trkpt lat="47.5594820" lon="7.9057380">
        <ele>285.4</ele>
        <time>2022-06-02T10:42:33Z</time>
      </trkpt>
      <trkpt lat="47.5594790" lon="7.9057080">
        <ele>285.2</ele>
        <time>2022-06-02T10:42:34Z</time>
      </trkpt>
      <trkpt lat="47.5594700" lon="7.9056920">
        <ele>285.2</ele>
        <time>2022-06-02T10:42:35Z</time>
      </trkpt>
      <trkpt lat="47.5593800" lon="7.9056130">
        <ele>285.4</ele>
        <time>2022-06-02T10:42:40Z</time>
      </trkpt>
      <trkpt lat="47.5593670" lon="7.9055880">
        <ele>285.4</ele>
        <time>2022-06-02T10:42:41Z</time>
      </trkpt>
      <trkpt lat="47.5593150" lon="7.9055040">
        <ele>285.6</ele>
        <time>2022-06-02T10:42:45Z</time>
      </trkpt>
      <trkpt lat="47.5593070" lon="7.9054920">
        <ele>285.6</ele>
        <time>2022-06-02T10:42:46Z</time>
      </trkpt>
      <trkpt lat="47.5592340" lon="7.9054340">
        <ele>286.0</ele>
        <time>2022-06-02T10:42:51Z</time>
      </trkpt>
      <trkpt lat="47.5591930" lon="7.9053760">
        <ele>286.0</ele>
        <time>2022-06-02T10:42:53Z</time>
      </trkpt>
      <trkpt lat="47.5591740" lon="7.9052760">
        <ele>286.2</ele>
        <time>2022-06-02T10:42:55Z</time>
      </trkpt>
      <trkpt lat="47.5591680" lon="7.9049850">
        <ele>286.2</ele>
        <time>2022-06-02T10:43:01Z</time>
      </trkpt>
      <trkpt lat="47.5591710" lon="7.9047440">
        <ele>286.4</ele>
        <time>2022-06-02T10:43:06Z</time>
      </trkpt>
      <trkpt lat="47.5591730" lon="7.9045250">
        <ele>287.0</ele>
        <time>2022-06-02T10:43:10Z</time>
      </trkpt>
      <trkpt lat="47.5591630" lon="7.9044080">
        <ele>287.4</ele>
        <time>2022-06-02T10:43:12Z</time>
      </trkpt>
      <trkpt lat="47.5591550" lon="7.9042210">
        <ele>287.8</ele>
        <time>2022-06-02T10:43:16Z</time>
      </trkpt>
      <trkpt lat="47.5591590" lon="7.9041750">
        <ele>288.2</ele>
        <time>2022-06-02T10:43:17Z</time>
      </trkpt>
      <trkpt lat="47.5591940" lon="7.9041020">
        <ele>288.6</ele>
        <time>2022-06-02T10:43:19Z</time>
      </trkpt>
      <trkpt lat="47.5593660" lon="7.9040770">
        <ele>289.2</ele>
        <time>2022-06-02T10:43:24Z</time>
      </trkpt>
      <trkpt lat="47.5598030" lon="7.9040300">
        <ele>289.4</ele>
        <time>2022-06-02T10:43:35Z</time>
      </trkpt>
      <trkpt lat="47.5601140" lon="7.9039530">
        <ele>290.2</ele>
        <time>2022-06-02T10:43:42Z</time>
      </trkpt>
      <trkpt lat="47.5601590" lon="7.9039500">
        <ele>290.2</ele>
        <time>2022-06-02T10:43:43Z</time>
      </trkpt>
      <trkpt lat="47.5602090" lon="7.9039520">
        <ele>290.2</ele>
        <time>2022-06-02T10:43:44Z</time>
      </trkpt>
      <trkpt lat="47.5602900" lon="7.9039940">
        <ele>290.2</ele>
        <time>2022-06-02T10:43:46Z</time>
      </trkpt>
      <trkpt lat="47.5603280" lon="7.9040280">
        <ele>290.2</ele>
        <time>2022-06-02T10:43:47Z</time>
      </trkpt>
      <trkpt lat="47.5603630" lon="7.9040750">
        <ele>290.2</ele>
        <time>2022-06-02T10:43:48Z</time>
      </trkpt>
      <trkpt lat="47.5604210" lon="7.9041920">
        <ele>290.0</ele>
        <time>2022-06-02T10:43:50Z</time>
      </trkpt>
      <trkpt lat="47.5604380" lon="7.9042520">
        <ele>290.0</ele>
        <time>2022-06-02T10:43:51Z</time>
      </trkpt>
      <trkpt lat="47.5604460" lon="7.9043110">
        <ele>289.8</ele>
        <time>2022-06-02T10:43:52Z</time>
      </trkpt>
      <trkpt lat="47.5604330" lon="7.9044200">
        <ele>289.8</ele>
        <time>2022-06-02T10:43:54Z</time>
      </trkpt>
      <trkpt lat="47.5603600" lon="7.9046410">
        <ele>289.4</ele>
        <time>2022-06-02T10:43:58Z</time>
      </trkpt>
      <trkpt lat="47.5603280" lon="7.9046850">
        <ele>289.4</ele>
        <time>2022-06-02T10:43:59Z</time>
      </trkpt>
      <trkpt lat="47.5603090" lon="7.9047130">
        <ele>289.4</ele>
        <time>2022-06-02T10:44:00Z</time>
      </trkpt>
      <trkpt lat="47.5602750" lon="7.9047190">
        <ele>289.2</ele>
        <time>2022-06-02T10:44:02Z</time>
      </trkpt>
      <trkpt lat="47.5602780" lon="7.9046830">
        <ele>289.2</ele>
        <time>2022-06-02T10:44:04Z</time>
      </trkpt>
      <trkpt lat="47.5602920" lon="7.9046690">
        <ele>289.2</ele>
        <time>2022-06-02T10:44:05Z</time>
      </trkpt>
      <trkpt lat="47.5604050" lon="7.9044870">
        <ele>289.2</ele>
        <time>2022-06-02T10:44:11Z</time>
      </trkpt>
      <trkpt lat="47.5605170" lon="7.9043780">
        <ele>289.2</ele>
        <time>2022-06-02T10:44:15Z</time>
      </trkpt>
      <trkpt lat="47.5607690" lon="7.9044100">
        <ele>289.8</ele>
        <time>2022-06-02T10:44:22Z</time>
      </trkpt>
      <trkpt lat="47.5610250" lon="7.9044400">
        <ele>290.2</ele>
        <time>2022-06-02T10:44:29Z</time>
      </trkpt>
      <trkpt lat="47.5612430" lon="7.9044270">
        <ele>290.6</ele>
        <time>2022-06-02T10:44:35Z</time>
      </trkpt>
      <trkpt lat="47.5615230" lon="7.9045600">
        <ele>291.2</ele>
        <time>2022-06-02T10:44:43Z</time>
      </trkpt>
      <trkpt lat="47.5616130" lon="7.9046420">
        <ele>291.6</ele>
        <time>2022-06-02T10:44:46Z</time>
      </trkpt>
      <trkpt lat="47.5617270" lon="7.9047760">
        <ele>292.6</ele>
        <time>2022-06-02T10:44:50Z</time>
      </trkpt>
      <trkpt lat="47.5617760" lon="7.9048380">
        <ele>292.8</ele>
        <time>2022-06-02T10:44:52Z</time>
      </trkpt>
      <trkpt lat="47.5618840" lon="7.9049720">
        <ele>293.4</ele>
        <time>2022-06-02T10:44:56Z</time>
      </trkpt>
      <trkpt lat="47.5620080" lon="7.9051200">
        <ele>294.2</ele>
        <time>2022-06-02T10:45:00Z</time>
      </trkpt>
      <trkpt lat="47.5621050" lon="7.9052160">
        <ele>294.2</ele>
        <time>2022-06-02T10:45:03Z</time>
      </trkpt>
      <trkpt lat="47.5624170" lon="7.9056350">
        <ele>294.2</ele>
        <time>2022-06-02T10:45:13Z</time>
      </trkpt>
      <trkpt lat="47.5626530" lon="7.9059870">
        <ele>293.6</ele>
        <time>2022-06-02T10:45:19Z</time>
      </trkpt>
      <trkpt lat="47.5627740" lon="7.9061510">
        <ele>293.0</ele>
        <time>2022-06-02T10:45:22Z</time>
      </trkpt>
      <trkpt lat="47.5628100" lon="7.9062000">
        <ele>292.8</ele>
        <time>2022-06-02T10:45:23Z</time>
      </trkpt>
      <trkpt lat="47.5628700" lon="7.9062960">
        <ele>292.4</ele>
        <time>2022-06-02T10:45:25Z</time>
      </trkpt>
      <trkpt lat="47.5629270" lon="7.9063760">
        <ele>291.8</ele>
        <time>2022-06-02T10:45:27Z</time>
      </trkpt>
      <trkpt lat="47.5630740" lon="7.9064770">
        <ele>291.0</ele>
        <time>2022-06-02T10:45:31Z</time>
      </trkpt>
      <trkpt lat="47.5631340" lon="7.9065130">
        <ele>290.8</ele>
        <time>2022-06-02T10:45:33Z</time>
      </trkpt>
      <trkpt lat="47.5632790" lon="7.9065990">
        <ele>290.6</ele>
        <time>2022-06-02T10:45:37Z</time>
      </trkpt>
      <trkpt lat="47.5635500" lon="7.9067430">
        <ele>290.8</ele>
        <time>2022-06-02T10:45:44Z</time>
      </trkpt>
      <trkpt lat="47.5638710" lon="7.9069160">
        <ele>291.2</ele>
        <time>2022-06-02T10:45:52Z</time>
      </trkpt>
      <trkpt lat="47.5639150" lon="7.9069300">
        <ele>291.4</ele>
        <time>2022-06-02T10:45:53Z</time>
      </trkpt>
      <trkpt lat="47.5641770" lon="7.9069950">
        <ele>291.8</ele>
        <time>2022-06-02T10:45:59Z</time>
      </trkpt>
      <trkpt lat="47.5642700" lon="7.9070190">
        <ele>292.0</ele>
        <time>2022-06-02T10:46:01Z</time>
      </trkpt>
      <trkpt lat="47.5645280" lon="7.9071110">
        <ele>292.2</ele>
        <time>2022-06-02T10:46:07Z</time>
      </trkpt>
      <trkpt lat="47.5645720" lon="7.9071180">
        <ele>292.2</ele>
        <time>2022-06-02T10:46:08Z</time>
      </trkpt>
      <trkpt lat="47.5649690" lon="7.9072010">
        <ele>292.8</ele>
        <time>2022-06-02T10:46:17Z</time>
      </trkpt>
      <trkpt lat="47.5650560" lon="7.9072280">
        <ele>293.0</ele>
        <time>2022-06-02T10:46:19Z</time>
      </trkpt>
      <trkpt lat="47.5650980" lon="7.9072470">
        <ele>293.0</ele>
        <time>2022-06-02T10:46:20Z</time>
      </trkpt>
      <trkpt lat="47.5652190" lon="7.9073280">
        <ele>293.0</ele>
        <time>2022-06-02T10:46:23Z</time>
      </trkpt>
      <trkpt lat="47.5652520" lon="7.9073600">
        <ele>293.2</ele>
        <time>2022-06-02T10:46:24Z</time>
      </trkpt>
      <trkpt lat="47.5654470" lon="7.9075830">
        <ele>293.2</ele>
        <time>2022-06-02T10:46:29Z</time>
      </trkpt>
      <trkpt lat="47.5654940" lon="7.9076270">
        <ele>293.2</ele>
        <time>2022-06-02T10:46:30Z</time>
      </trkpt>
      <trkpt lat="47.5656920" lon="7.9077640">
        <ele>293.0</ele>
        <time>2022-06-02T10:46:34Z</time>
      </trkpt>
      <trkpt lat="47.5657430" lon="7.9077930">
        <ele>292.8</ele>
        <time>2022-06-02T10:46:35Z</time>
      </trkpt>
      <trkpt lat="47.5660100" lon="7.9079220">
        <ele>292.2</ele>
        <time>2022-06-02T10:46:40Z</time>
      </trkpt>
      <trkpt lat="47.5662120" lon="7.9080330">
        <ele>292.0</ele>
        <time>2022-06-02T10:46:44Z</time>
      </trkpt>
      <trkpt lat="47.5664170" lon="7.9081460">
        <ele>291.6</ele>
        <time>2022-06-02T10:46:48Z</time>
      </trkpt>
      <trkpt lat="47.5665630" lon="7.9082170">
        <ele>291.2</ele>
        <time>2022-06-02T10:46:51Z</time>
      </trkpt>
      <trkpt lat="47.5667660" lon="7.9082740">
        <ele>291.0</ele>
        <time>2022-06-02T10:46:55Z</time>
      </trkpt>
      <trkpt lat="47.5669300" lon="7.9083050">
        <ele>290.8</ele>
        <time>2022-06-02T10:46:58Z</time>
      </trkpt>
      <trkpt lat="47.5672050" lon="7.9083390">
        <ele>290.4</ele>
        <time>2022-06-02T10:47:03Z</time>
      </trkpt>
      <trkpt lat="47.5675810" lon="7.9082820">
        <ele>289.8</ele>
        <time>2022-06-02T10:47:10Z</time>
      </trkpt>
      <trkpt lat="47.5680360" lon="7.9081390">
        <ele>290.2</ele>
        <time>2022-06-02T10:47:19Z</time>
      </trkpt>
      <trkpt lat="47.5683610" lon="7.9080310">
        <ele>290.4</ele>
        <time>2022-06-02T10:47:26Z</time>
      </trkpt>
      <trkpt lat="47.5685810" lon="7.9079440">
        <ele>291.0</ele>
        <time>2022-06-02T10:47:31Z</time>
      </trkpt>
      <trkpt lat="47.5687950" lon="7.9078570">
        <ele>291.6</ele>
        <time>2022-06-02T10:47:36Z</time>
      </trkpt>
      <trkpt lat="47.5688760" lon="7.9078230">
        <ele>291.6</ele>
        <time>2022-06-02T10:47:38Z</time>
      </trkpt>
      <trkpt lat="47.5690200" lon="7.9077420">
        <ele>292.2</ele>
        <time>2022-06-02T10:47:42Z</time>
      </trkpt>
      <trkpt lat="47.5690960" lon="7.9076940">
        <ele>292.4</ele>
        <time>2022-06-02T10:47:44Z</time>
      </trkpt>
      <trkpt lat="47.5692630" lon="7.9076060">
        <ele>292.6</ele>
        <time>2022-06-02T10:47:48Z</time>
      </trkpt>
      <trkpt lat="47.5693070" lon="7.9075770">
        <ele>292.8</ele>
        <time>2022-06-02T10:47:49Z</time>
      </trkpt>
      <trkpt lat="47.5695540" lon="7.9074060">
        <ele>293.4</ele>
        <time>2022-06-02T10:47:55Z</time>
      </trkpt>
      <trkpt lat="47.5696370" lon="7.9073420">
        <ele>293.8</ele>
        <time>2022-06-02T10:47:57Z</time>
      </trkpt>
      <trkpt lat="47.5698490" lon="7.9071970">
        <ele>294.0</ele>
        <time>2022-06-02T10:48:02Z</time>
      </trkpt>
      <trkpt lat="47.5701960" lon="7.9069800">
        <ele>294.8</ele>
        <time>2022-06-02T10:48:10Z</time>
      </trkpt>
      <trkpt lat="47.5706410" lon="7.9067230">
        <ele>294.8</ele>
        <time>2022-06-02T10:48:20Z</time>
      </trkpt>
      <trkpt lat="47.5709320" lon="7.9065510">
        <ele>295.0</ele>
        <time>2022-06-02T10:48:27Z</time>
      </trkpt>
      <trkpt lat="47.5713120" lon="7.9062980">
        <ele>295.4</ele>
        <time>2022-06-02T10:48:36Z</time>
      </trkpt>
      <trkpt lat="47.5713530" lon="7.9062740">
        <ele>295.4</ele>
        <time>2022-06-02T10:48:37Z</time>
      </trkpt>
      <trkpt lat="47.5714530" lon="7.9062510">
        <ele>295.4</ele>
        <time>2022-06-02T10:48:40Z</time>
      </trkpt>
      <trkpt lat="47.5714690" lon="7.9062460">
        <ele>295.4</ele>
        <time>2022-06-02T10:48:41Z</time>
      </trkpt>
      <trkpt lat="47.5714730" lon="7.9061870">
        <ele>295.4</ele>
        <time>2022-06-02T10:48:43Z</time>
      </trkpt>
      <trkpt lat="47.5714780" lon="7.9061560">
        <ele>295.4</ele>
        <time>2022-06-02T10:48:44Z</time>
      </trkpt>
      <trkpt lat="47.5715170" lon="7.9060910">
        <ele>295.4</ele>
        <time>2022-06-02T10:48:46Z</time>
      </trkpt>
      <trkpt lat="47.5716910" lon="7.9059510">
        <ele>295.4</ele>
        <time>2022-06-02T10:48:51Z</time>
      </trkpt>
      <trkpt lat="47.5718240" lon="7.9058810">
        <ele>295.4</ele>
        <time>2022-06-02T10:48:54Z</time>
      </trkpt>
      <trkpt lat="47.5719190" lon="7.9058400">
        <ele>295.4</ele>
        <time>2022-06-02T10:48:56Z</time>
      </trkpt>
      <trkpt lat="47.5719670" lon="7.9058150">
        <ele>295.4</ele>
        <time>2022-06-02T10:48:57Z</time>
      </trkpt>
      <trkpt lat="47.5723640" lon="7.9056200">
        <ele>295.4</ele>
        <time>2022-06-02T10:49:05Z</time>
      </trkpt>
      <trkpt lat="47.5725760" lon="7.9055350">
        <ele>295.2</ele>
        <time>2022-06-02T10:49:09Z</time>
      </trkpt>
      <trkpt lat="47.5726730" lon="7.9055510">
        <ele>295.2</ele>
        <time>2022-06-02T10:49:11Z</time>
      </trkpt>
      <trkpt lat="47.5727850" lon="7.9056050">
        <ele>295.0</ele>
        <time>2022-06-02T10:49:13Z</time>
      </trkpt>
      <trkpt lat="47.5728940" lon="7.9057130">
        <ele>295.0</ele>
        <time>2022-06-02T10:49:15Z</time>
      </trkpt>
      <trkpt lat="47.5729920" lon="7.9058440">
        <ele>295.0</ele>
        <time>2022-06-02T10:49:17Z</time>
      </trkpt>
      <trkpt lat="47.5730990" lon="7.9059790">
        <ele>294.8</ele>
        <time>2022-06-02T10:49:19Z</time>
      </trkpt>
      <trkpt lat="47.5731440" lon="7.9060240">
        <ele>294.6</ele>
        <time>2022-06-02T10:49:20Z</time>
      </trkpt>
      <trkpt lat="47.5731900" lon="7.9060650">
        <ele>294.6</ele>
        <time>2022-06-02T10:49:21Z</time>
      </trkpt>
      <trkpt lat="47.5733060" lon="7.9061160">
        <ele>294.2</ele>
        <time>2022-06-02T10:49:23Z</time>
      </trkpt>
      <trkpt lat="47.5733660" lon="7.9061360">
        <ele>294.2</ele>
        <time>2022-06-02T10:49:24Z</time>
      </trkpt>
      <trkpt lat="47.5734290" lon="7.9061440">
        <ele>294.0</ele>
        <time>2022-06-02T10:49:25Z</time>
      </trkpt>
      <trkpt lat="47.5735240" lon="7.9061140">
        <ele>293.8</ele>
        <time>2022-06-02T10:49:27Z</time>
      </trkpt>
      <trkpt lat="47.5737130" lon="7.9059560">
        <ele>294.0</ele>
        <time>2022-06-02T10:49:32Z</time>
      </trkpt>
      <trkpt lat="47.5738740" lon="7.9057920">
        <ele>293.8</ele>
        <time>2022-06-02T10:49:37Z</time>
      </trkpt>
      <trkpt lat="47.5740810" lon="7.9055770">
        <ele>294.0</ele>
        <time>2022-06-02T10:49:44Z</time>
      </trkpt>
      <trkpt lat="47.5742930" lon="7.9054070">
        <ele>294.0</ele>
        <time>2022-06-02T10:49:49Z</time>
      </trkpt>
      <trkpt lat="47.5744610" lon="7.9052860">
        <ele>293.8</ele>
        <time>2022-06-02T10:49:53Z</time>
      </trkpt>
      <trkpt lat="47.5745000" lon="7.9052610">
        <ele>293.8</ele>
        <time>2022-06-02T10:49:54Z</time>
      </trkpt>
      <trkpt lat="47.5745780" lon="7.9052100">
        <ele>293.8</ele>
        <time>2022-06-02T10:49:56Z</time>
      </trkpt>
      <trkpt lat="47.5746990" lon="7.9051450">
        <ele>293.8</ele>
        <time>2022-06-02T10:49:59Z</time>
      </trkpt>
      <trkpt lat="47.5747810" lon="7.9050860">
        <ele>293.8</ele>
        <time>2022-06-02T10:50:01Z</time>
      </trkpt>
      <trkpt lat="47.5748670" lon="7.9050230">
        <ele>294.0</ele>
        <time>2022-06-02T10:50:03Z</time>
      </trkpt>
      <trkpt lat="47.5749960" lon="7.9049400">
        <ele>294.2</ele>
        <time>2022-06-02T10:50:06Z</time>
      </trkpt>
      <trkpt lat="47.5751270" lon="7.9048710">
        <ele>294.6</ele>
        <time>2022-06-02T10:50:09Z</time>
      </trkpt>
      <trkpt lat="47.5752000" lon="7.9048160">
        <ele>294.8</ele>
        <time>2022-06-02T10:50:11Z</time>
      </trkpt>
      <trkpt lat="47.5752410" lon="7.9047830">
        <ele>294.8</ele>
        <time>2022-06-02T10:50:12Z</time>
      </trkpt>
      <trkpt lat="47.5753250" lon="7.9047240">
        <ele>294.8</ele>
        <time>2022-06-02T10:50:14Z</time>
      </trkpt>
      <trkpt lat="47.5754660" lon="7.9046120">
        <ele>294.8</ele>
        <time>2022-06-02T10:50:17Z</time>
      </trkpt>
      <trkpt lat="47.5755060" lon="7.9045790">
        <ele>295.0</ele>
        <time>2022-06-02T10:50:18Z</time>
      </trkpt>
      <trkpt lat="47.5755870" lon="7.9045290">
        <ele>294.8</ele>
        <time>2022-06-02T10:50:20Z</time>
      </trkpt>
      <trkpt lat="47.5756680" lon="7.9044870">
        <ele>294.8</ele>
        <time>2022-06-02T10:50:22Z</time>
      </trkpt>
      <trkpt lat="47.5758110" lon="7.9043670">
        <ele>294.8</ele>
        <time>2022-06-02T10:50:25Z</time>
      </trkpt>
      <trkpt lat="47.5759470" lon="7.9042690">
        <ele>294.8</ele>
        <time>2022-06-02T10:50:28Z</time>
      </trkpt>
      <trkpt lat="47.5761510" lon="7.9040560">
        <ele>294.8</ele>
        <time>2022-06-02T10:50:33Z</time>
      </trkpt>
      <trkpt lat="47.5764780" lon="7.9036450">
        <ele>294.6</ele>
        <time>2022-06-02T10:50:40Z</time>
      </trkpt>
      <trkpt lat="47.5764920" lon="7.9035790">
        <ele>294.6</ele>
        <time>2022-06-02T10:50:41Z</time>
      </trkpt>
      <trkpt lat="47.5767060" lon="7.9034210">
        <ele>294.8</ele>
        <time>2022-06-02T10:50:45Z</time>
      </trkpt>
      <trkpt lat="47.5767470" lon="7.9033580">
        <ele>294.8</ele>
        <time>2022-06-02T10:50:46Z</time>
      </trkpt>
      <trkpt lat="47.5768390" lon="7.9032110">
        <ele>294.8</ele>
        <time>2022-06-02T10:50:49Z</time>
      </trkpt>
      <trkpt lat="47.5770230" lon="7.9031070">
        <ele>294.4</ele>
        <time>2022-06-02T10:50:54Z</time>
      </trkpt>
      <trkpt lat="47.5772070" lon="7.9030850">
        <ele>294.2</ele>
        <time>2022-06-02T10:50:59Z</time>
      </trkpt>
      <trkpt lat="47.5773470" lon="7.9033330">
        <ele>293.6</ele>
        <time>2022-06-02T10:51:04Z</time>
      </trkpt>
      <trkpt lat="47.5774300" lon="7.9035130">
        <ele>293.6</ele>
        <time>2022-06-02T10:51:07Z</time>
      </trkpt>
      <trkpt lat="47.5774660" lon="7.9036160">
        <ele>293.6</ele>
        <time>2022-06-02T10:51:09Z</time>
      </trkpt>
      <trkpt lat="47.5774870" lon="7.9036690">
        <ele>293.6</ele>
        <time>2022-06-02T10:51:10Z</time>
      </trkpt>
      <trkpt lat="47.5775710" lon="7.9038460">
        <ele>293.6</ele>
        <time>2022-06-02T10:51:13Z</time>
      </trkpt>
      <trkpt lat="47.5777240" lon="7.9040940">
        <ele>293.6</ele>
        <time>2022-06-02T10:51:18Z</time>
      </trkpt>
      <trkpt lat="47.5778160" lon="7.9042080">
        <ele>293.8</ele>
        <time>2022-06-02T10:51:21Z</time>
      </trkpt>
      <trkpt lat="47.5778760" lon="7.9042240">
        <ele>293.6</ele>
        <time>2022-06-02T10:51:23Z</time>
      </trkpt>
      <trkpt lat="47.5780590" lon="7.9041620">
        <ele>294.0</ele>
        <time>2022-06-02T10:51:27Z</time>
      </trkpt>
      <trkpt lat="47.5781980" lon="7.9040730">
        <ele>294.0</ele>
        <time>2022-06-02T10:51:30Z</time>
      </trkpt>
      <trkpt lat="47.5782820" lon="7.9040060">
        <ele>294.0</ele>
        <time>2022-06-02T10:51:32Z</time>
      </trkpt>
      <trkpt lat="47.5783230" lon="7.9039690">
        <ele>294.0</ele>
        <time>2022-06-02T10:51:33Z</time>
      </trkpt>
      <trkpt lat="47.5784500" lon="7.9038330">
        <ele>294.0</ele>
        <time>2022-06-02T10:51:36Z</time>
      </trkpt>
      <trkpt lat="47.5785300" lon="7.9037340">
        <ele>293.8</ele>
        <time>2022-06-02T10:51:38Z</time>
      </trkpt>
      <trkpt lat="47.5786240" lon="7.9036400">
        <ele>293.4</ele>
        <time>2022-06-02T10:51:40Z</time>
      </trkpt>
      <trkpt lat="47.5788190" lon="7.9034640">
        <ele>293.2</ele>
        <time>2022-06-02T10:51:44Z</time>
      </trkpt>
      <trkpt lat="47.5789410" lon="7.9033440">
        <ele>292.6</ele>
        <time>2022-06-02T10:51:47Z</time>
      </trkpt>
      <trkpt lat="47.5791920" lon="7.9031130">
        <ele>292.6</ele>
        <time>2022-06-02T10:51:53Z</time>
      </trkpt>
      <trkpt lat="47.5792260" lon="7.9030780">
        <ele>292.6</ele>
        <time>2022-06-02T10:51:54Z</time>
      </trkpt>
      <trkpt lat="47.5793000" lon="7.9030100">
        <ele>292.6</ele>
        <time>2022-06-02T10:51:56Z</time>
      </trkpt>
      <trkpt lat="47.5794120" lon="7.9028930">
        <ele>292.6</ele>
        <time>2022-06-02T10:51:59Z</time>
      </trkpt>
      <trkpt lat="47.5795320" lon="7.9027540">
        <ele>293.0</ele>
        <time>2022-06-02T10:52:02Z</time>
      </trkpt>
      <trkpt lat="47.5796800" lon="7.9025570">
        <ele>292.8</ele>
        <time>2022-06-02T10:52:06Z</time>
      </trkpt>
      <trkpt lat="47.5799860" lon="7.9022060">
        <ele>292.6</ele>
        <time>2022-06-02T10:52:14Z</time>
      </trkpt>
      <trkpt lat="47.5802310" lon="7.9019690">
        <ele>292.2</ele>
        <time>2022-06-02T10:52:20Z</time>
      </trkpt>
      <trkpt lat="47.5803000" lon="7.9018760">
        <ele>292.2</ele>
        <time>2022-06-02T10:52:22Z</time>
      </trkpt>
      <trkpt lat="47.5804090" lon="7.9016620">
        <ele>292.2</ele>
        <time>2022-06-02T10:52:26Z</time>
      </trkpt>
      <trkpt lat="47.5804870" lon="7.9014760">
        <ele>292.2</ele>
        <time>2022-06-02T10:52:29Z</time>
      </trkpt>
      <trkpt lat="47.5805250" lon="7.9013480">
        <ele>292.4</ele>
        <time>2022-06-02T10:52:31Z</time>
      </trkpt>
      <trkpt lat="47.5805540" lon="7.9012100">
        <ele>292.4</ele>
        <time>2022-06-02T10:52:33Z</time>
      </trkpt>
      <trkpt lat="47.5805790" lon="7.9011440">
        <ele>292.4</ele>
        <time>2022-06-02T10:52:34Z</time>
      </trkpt>
      <trkpt lat="47.5806260" lon="7.9010270">
        <ele>292.4</ele>
        <time>2022-06-02T10:52:36Z</time>
      </trkpt>
      <trkpt lat="47.5807720" lon="7.9007400">
        <ele>292.2</ele>
        <time>2022-06-02T10:52:41Z</time>
      </trkpt>
      <trkpt lat="47.5808360" lon="7.9006060">
        <ele>292.0</ele>
        <time>2022-06-02T10:52:43Z</time>
      </trkpt>
      <trkpt lat="47.5808740" lon="7.9004790">
        <ele>291.8</ele>
        <time>2022-06-02T10:52:45Z</time>
      </trkpt>
      <trkpt lat="47.5809340" lon="7.9002170">
        <ele>292.4</ele>
        <time>2022-06-02T10:52:49Z</time>
      </trkpt>
      <trkpt lat="47.5809540" lon="7.9000760">
        <ele>292.4</ele>
        <time>2022-06-02T10:52:51Z</time>
      </trkpt>
      <trkpt lat="47.5809700" lon="7.9000070">
        <ele>292.4</ele>
        <time>2022-06-02T10:52:52Z</time>
      </trkpt>
      <trkpt lat="47.5810080" lon="7.8998910">
        <ele>292.6</ele>
        <time>2022-06-02T10:52:54Z</time>
      </trkpt>
      <trkpt lat="47.5810550" lon="7.8997770">
        <ele>292.8</ele>
        <time>2022-06-02T10:52:56Z</time>
      </trkpt>
      <trkpt lat="47.5811450" lon="7.8996010">
        <ele>292.6</ele>
        <time>2022-06-02T10:52:59Z</time>
      </trkpt>
      <trkpt lat="47.5812470" lon="7.8993670">
        <ele>292.6</ele>
        <time>2022-06-02T10:53:02Z</time>
      </trkpt>
      <trkpt lat="47.5814910" lon="7.8991180">
        <ele>292.6</ele>
        <time>2022-06-02T10:53:07Z</time>
      </trkpt>
      <trkpt lat="47.5815350" lon="7.8990880">
        <ele>292.6</ele>
        <time>2022-06-02T10:53:08Z</time>
      </trkpt>
      <trkpt lat="47.5815740" lon="7.8990500">
        <ele>292.6</ele>
        <time>2022-06-02T10:53:09Z</time>
      </trkpt>
      <trkpt lat="47.5817410" lon="7.8988910">
        <ele>292.8</ele>
        <time>2022-06-02T10:53:13Z</time>
      </trkpt>
      <trkpt lat="47.5817850" lon="7.8988690">
        <ele>293.0</ele>
        <time>2022-06-02T10:53:14Z</time>
      </trkpt>
      <trkpt lat="47.5818640" lon="7.8988230">
        <ele>293.0</ele>
        <time>2022-06-02T10:53:16Z</time>
      </trkpt>
      <trkpt lat="47.5819060" lon="7.8988040">
        <ele>293.0</ele>
        <time>2022-06-02T10:53:17Z</time>
      </trkpt>
      <trkpt lat="47.5819910" lon="7.8987500">
        <ele>293.0</ele>
        <time>2022-06-02T10:53:19Z</time>
      </trkpt>
      <trkpt lat="47.5821260" lon="7.8986500">
        <ele>293.0</ele>
        <time>2022-06-02T10:53:22Z</time>
      </trkpt>
      <trkpt lat="47.5822160" lon="7.8985850">
        <ele>292.8</ele>
        <time>2022-06-02T10:53:24Z</time>
      </trkpt>
      <trkpt lat="47.5823490" lon="7.8984610">
        <ele>292.4</ele>
        <time>2022-06-02T10:53:27Z</time>
      </trkpt>
      <trkpt lat="47.5824420" lon="7.8983630">
        <ele>292.2</ele>
        <time>2022-06-02T10:53:29Z</time>
      </trkpt>
      <trkpt lat="47.5827330" lon="7.8979810">
        <ele>292.0</ele>
        <time>2022-06-02T10:53:36Z</time>
      </trkpt>
      <trkpt lat="47.5827710" lon="7.8979170">
        <ele>292.0</ele>
        <time>2022-06-02T10:53:37Z</time>
      </trkpt>
      <trkpt lat="47.5830190" lon="7.8975720">
        <ele>291.8</ele>
        <time>2022-06-02T10:53:43Z</time>
      </trkpt>
      <trkpt lat="47.5830580" lon="7.8975130">
        <ele>291.8</ele>
        <time>2022-06-02T10:53:44Z</time>
      </trkpt>
      <trkpt lat="47.5833010" lon="7.8971920">
        <ele>291.6</ele>
        <time>2022-06-02T10:53:50Z</time>
      </trkpt>
      <trkpt lat="47.5833910" lon="7.8970360">
        <ele>291.8</ele>
        <time>2022-06-02T10:53:53Z</time>
      </trkpt>
      <trkpt lat="47.5835100" lon="7.8968090">
        <ele>291.8</ele>
        <time>2022-06-02T10:53:57Z</time>
      </trkpt>
      <trkpt lat="47.5835790" lon="7.8967070">
        <ele>291.8</ele>
        <time>2022-06-02T10:53:59Z</time>
      </trkpt>
      <trkpt lat="47.5837380" lon="7.8965290">
        <ele>291.8</ele>
        <time>2022-06-02T10:54:03Z</time>
      </trkpt>
      <trkpt lat="47.5838940" lon="7.8963450">
        <ele>291.8</ele>
        <time>2022-06-02T10:54:07Z</time>
      </trkpt>
      <trkpt lat="47.5840430" lon="7.8961230">
        <ele>291.8</ele>
        <time>2022-06-02T10:54:11Z</time>
      </trkpt>
      <trkpt lat="47.5842680" lon="7.8957180">
        <ele>291.8</ele>
        <time>2022-06-02T10:54:18Z</time>
      </trkpt>
      <trkpt lat="47.5843000" lon="7.8956560">
        <ele>291.8</ele>
        <time>2022-06-02T10:54:19Z</time>
      </trkpt>
      <trkpt lat="47.5844450" lon="7.8953740">
        <ele>292.0</ele>
        <time>2022-06-02T10:54:24Z</time>
      </trkpt>
      <trkpt lat="47.5845020" lon="7.8952610">
        <ele>292.2</ele>
        <time>2022-06-02T10:54:26Z</time>
      </trkpt>
      <trkpt lat="47.5846040" lon="7.8950950">
        <ele>292.2</ele>
        <time>2022-06-02T10:54:29Z</time>
      </trkpt>
      <trkpt lat="47.5848640" lon="7.8946700">
        <ele>291.8</ele>
        <time>2022-06-02T10:54:36Z</time>
      </trkpt>
      <trkpt lat="47.5849480" lon="7.8945520">
        <ele>291.8</ele>
        <time>2022-06-02T10:54:38Z</time>
      </trkpt>
      <trkpt lat="47.5850480" lon="7.8943710">
        <ele>292.0</ele>
        <time>2022-06-02T10:54:41Z</time>
      </trkpt>
      <trkpt lat="47.5851850" lon="7.8941250">
        <ele>292.0</ele>
        <time>2022-06-02T10:54:45Z</time>
      </trkpt>
      <trkpt lat="47.5852480" lon="7.8939990">
        <ele>291.8</ele>
        <time>2022-06-02T10:54:47Z</time>
      </trkpt>
      <trkpt lat="47.5854290" lon="7.8937860">
        <ele>291.8</ele>
        <time>2022-06-02T10:54:52Z</time>
      </trkpt>
      <trkpt lat="47.5854550" lon="7.8937540">
        <ele>291.6</ele>
        <time>2022-06-02T10:54:53Z</time>
      </trkpt>
      <trkpt lat="47.5856070" lon="7.8935390">
        <ele>291.6</ele>
        <time>2022-06-02T10:54:57Z</time>
      </trkpt>
      <trkpt lat="47.5856650" lon="7.8934120">
        <ele>291.6</ele>
        <time>2022-06-02T10:54:59Z</time>
      </trkpt>
      <trkpt lat="47.5857160" lon="7.8932810">
        <ele>291.6</ele>
        <time>2022-06-02T10:55:01Z</time>
      </trkpt>
      <trkpt lat="47.5858750" lon="7.8929450">
        <ele>291.4</ele>
        <time>2022-06-02T10:55:06Z</time>
      </trkpt>
      <trkpt lat="47.5860030" lon="7.8927520">
        <ele>291.6</ele>
        <time>2022-06-02T10:55:10Z</time>
      </trkpt>
      <trkpt lat="47.5860500" lon="7.8926350">
        <ele>291.6</ele>
        <time>2022-06-02T10:55:12Z</time>
      </trkpt>
      <trkpt lat="47.5861820" lon="7.8923210">
        <ele>291.6</ele>
        <time>2022-06-02T10:55:17Z</time>
      </trkpt>
      <trkpt lat="47.5863060" lon="7.8920110">
        <ele>291.4</ele>
        <time>2022-06-02T10:55:22Z</time>
      </trkpt>
      <trkpt lat="47.5863460" lon="7.8918850">
        <ele>291.2</ele>
        <time>2022-06-02T10:55:24Z</time>
      </trkpt>
      <trkpt lat="47.5865010" lon="7.8914360">
        <ele>290.6</ele>
        <time>2022-06-02T10:55:31Z</time>
      </trkpt>
      <trkpt lat="47.5865500" lon="7.8913060">
        <ele>290.4</ele>
        <time>2022-06-02T10:55:33Z</time>
      </trkpt>
      <trkpt lat="47.5865940" lon="7.8911730">
        <ele>290.4</ele>
        <time>2022-06-02T10:55:35Z</time>
      </trkpt>
      <trkpt lat="47.5866380" lon="7.8910370">
        <ele>290.4</ele>
        <time>2022-06-02T10:55:37Z</time>
      </trkpt>
      <trkpt lat="47.5866820" lon="7.8909040">
        <ele>290.2</ele>
        <time>2022-06-02T10:55:39Z</time>
      </trkpt>
      <trkpt lat="47.5867100" lon="7.8907690">
        <ele>290.2</ele>
        <time>2022-06-02T10:55:41Z</time>
      </trkpt>
      <trkpt lat="47.5867250" lon="7.8906560">
        <ele>290.0</ele>
        <time>2022-06-02T10:55:43Z</time>
      </trkpt>
      <trkpt lat="47.5867440" lon="7.8905950">
        <ele>290.0</ele>
        <time>2022-06-02T10:55:44Z</time>
      </trkpt>
      <trkpt lat="47.5868550" lon="7.8902460">
        <ele>289.8</ele>
        <time>2022-06-02T10:55:49Z</time>
      </trkpt>
      <trkpt lat="47.5868670" lon="7.8901750">
        <ele>289.6</ele>
        <time>2022-06-02T10:55:50Z</time>
      </trkpt>
      <trkpt lat="47.5868960" lon="7.8900400">
        <ele>289.2</ele>
        <time>2022-06-02T10:55:52Z</time>
      </trkpt>
      <trkpt lat="47.5869410" lon="7.8898470">
        <ele>289.0</ele>
        <time>2022-06-02T10:55:55Z</time>
      </trkpt>
      <trkpt lat="47.5869710" lon="7.8897160">
        <ele>289.0</ele>
        <time>2022-06-02T10:55:57Z</time>
      </trkpt>
      <trkpt lat="47.5869900" lon="7.8895740">
        <ele>289.2</ele>
        <time>2022-06-02T10:55:59Z</time>
      </trkpt>
      <trkpt lat="47.5869900" lon="7.8894520">
        <ele>289.0</ele>
        <time>2022-06-02T10:56:01Z</time>
      </trkpt>
      <trkpt lat="47.5869800" lon="7.8893920">
        <ele>289.0</ele>
        <time>2022-06-02T10:56:02Z</time>
      </trkpt>
      <trkpt lat="47.5869500" lon="7.8891490">
        <ele>289.2</ele>
        <time>2022-06-02T10:56:07Z</time>
      </trkpt>
      <trkpt lat="47.5869940" lon="7.8890770">
        <ele>289.0</ele>
        <time>2022-06-02T10:56:10Z</time>
      </trkpt>
      <trkpt lat="47.5870250" lon="7.8890740">
        <ele>289.0</ele>
        <time>2022-06-02T10:56:11Z</time>
      </trkpt>
      <trkpt lat="47.5871500" lon="7.8890280">
        <ele>289.4</ele>
        <time>2022-06-02T10:56:14Z</time>
      </trkpt>
      <trkpt lat="47.5872020" lon="7.8889560">
        <ele>289.4</ele>
        <time>2022-06-02T10:56:15Z</time>
      </trkpt>
      <trkpt lat="47.5872610" lon="7.8888670">
        <ele>289.4</ele>
        <time>2022-06-02T10:56:16Z</time>
      </trkpt>
      <trkpt lat="47.5872970" lon="7.8886820">
        <ele>289.2</ele>
        <time>2022-06-02T10:56:18Z</time>
      </trkpt>
      <trkpt lat="47.5873360" lon="7.8881790">
        <ele>288.6</ele>
        <time>2022-06-02T10:56:24Z</time>
      </trkpt>
      <trkpt lat="47.5873560" lon="7.8880330">
        <ele>288.4</ele>
        <time>2022-06-02T10:56:26Z</time>
      </trkpt>
      <trkpt lat="47.5873520" lon="7.8879040">
        <ele>288.2</ele>
        <time>2022-06-02T10:56:28Z</time>
      </trkpt>
      <trkpt lat="47.5873520" lon="7.8878340">
        <ele>288.2</ele>
        <time>2022-06-02T10:56:29Z</time>
      </trkpt>
      <trkpt lat="47.5873980" lon="7.8873030">
        <ele>288.2</ele>
        <time>2022-06-02T10:56:36Z</time>
      </trkpt>
      <trkpt lat="47.5874580" lon="7.8867370">
        <ele>288.0</ele>
        <time>2022-06-02T10:56:44Z</time>
      </trkpt>
      <trkpt lat="47.5874760" lon="7.8865100">
        <ele>288.0</ele>
        <time>2022-06-02T10:56:47Z</time>
      </trkpt>
      <trkpt lat="47.5874860" lon="7.8862990">
        <ele>288.0</ele>
        <time>2022-06-02T10:56:50Z</time>
      </trkpt>
      <trkpt lat="47.5874870" lon="7.8862450">
        <ele>287.8</ele>
        <time>2022-06-02T10:56:51Z</time>
      </trkpt>
      <trkpt lat="47.5874540" lon="7.8860750">
        <ele>287.6</ele>
        <time>2022-06-02T10:56:54Z</time>
      </trkpt>
      <trkpt lat="47.5873540" lon="7.8858300">
        <ele>288.0</ele>
        <time>2022-06-02T10:56:59Z</time>
      </trkpt>
      <trkpt lat="47.5872410" lon="7.8855560">
        <ele>288.4</ele>
        <time>2022-06-02T10:57:04Z</time>
      </trkpt>
      <trkpt lat="47.5870830" lon="7.8850980">
        <ele>288.4</ele>
        <time>2022-06-02T10:57:12Z</time>
      </trkpt>
      <trkpt lat="47.5869960" lon="7.8847910">
        <ele>288.8</ele>
        <time>2022-06-02T10:57:17Z</time>
      </trkpt>
      <trkpt lat="47.5868590" lon="7.8843030">
        <ele>289.0</ele>
        <time>2022-06-02T10:57:24Z</time>
      </trkpt>
      <trkpt lat="47.5867630" lon="7.8840300">
        <ele>288.8</ele>
        <time>2022-06-02T10:57:28Z</time>
      </trkpt>
      <trkpt lat="47.5867310" lon="7.8839520">
        <ele>288.8</ele>
        <time>2022-06-02T10:57:29Z</time>
      </trkpt>
      <trkpt lat="47.5866900" lon="7.8839040">
        <ele>289.0</ele>
        <time>2022-06-02T10:57:30Z</time>
      </trkpt>
      <trkpt lat="47.5866090" lon="7.8837520">
        <ele>289.2</ele>
        <time>2022-06-02T10:57:33Z</time>
      </trkpt>
      <trkpt lat="47.5866070" lon="7.8837100">
        <ele>289.2</ele>
        <time>2022-06-02T10:57:34Z</time>
      </trkpt>
      <trkpt lat="47.5866000" lon="7.8835770">
        <ele>289.4</ele>
        <time>2022-06-02T10:57:37Z</time>
      </trkpt>
      <trkpt lat="47.5866490" lon="7.8834010">
        <ele>290.4</ele>
        <time>2022-06-02T10:57:41Z</time>
      </trkpt>
      <trkpt lat="47.5866720" lon="7.8833230">
        <ele>290.8</ele>
        <time>2022-06-02T10:57:43Z</time>
      </trkpt>
      <trkpt lat="47.5866900" lon="7.8832530">
        <ele>291.4</ele>
        <time>2022-06-02T10:57:45Z</time>
      </trkpt>
      <trkpt lat="47.5867120" lon="7.8831040">
        <ele>292.6</ele>
        <time>2022-06-02T10:57:49Z</time>
      </trkpt>
      <trkpt lat="47.5867110" lon="7.8830670">
        <ele>293.0</ele>
        <time>2022-06-02T10:57:50Z</time>
      </trkpt>
      <trkpt lat="47.5867080" lon="7.8829690">
        <ele>294.0</ele>
        <time>2022-06-02T10:57:53Z</time>
      </trkpt>
      <trkpt lat="47.5866980" lon="7.8828710">
        <ele>295.0</ele>
        <time>2022-06-02T10:57:56Z</time>
      </trkpt>
      <trkpt lat="47.5866920" lon="7.8827380">
        <ele>296.0</ele>
        <time>2022-06-02T10:57:59Z</time>
      </trkpt>
      <trkpt lat="47.5866990" lon="7.8826890">
        <ele>296.2</ele>
        <time>2022-06-02T10:58:00Z</time>
      </trkpt>
      <trkpt lat="47.5867210" lon="7.8824520">
        <ele>296.8</ele>
        <time>2022-06-02T10:58:05Z</time>
      </trkpt>
      <trkpt lat="47.5867650" lon="7.8821580">
        <ele>297.2</ele>
        <time>2022-06-02T10:58:11Z</time>
      </trkpt>
      <trkpt lat="47.5867720" lon="7.8821020">
        <ele>297.2</ele>
        <time>2022-06-02T10:58:12Z</time>
      </trkpt>
      <trkpt lat="47.5868670" lon="7.8817890">
        <ele>297.4</ele>
        <time>2022-06-02T10:58:18Z</time>
      </trkpt>
      <trkpt lat="47.5869290" lon="7.8813670">
        <ele>297.4</ele>
        <time>2022-06-02T10:58:24Z</time>
      </trkpt>
      <trkpt lat="47.5869060" lon="7.8809010">
        <ele>297.2</ele>
        <time>2022-06-02T10:58:31Z</time>
      </trkpt>
      <trkpt lat="47.5868720" lon="7.8806050">
        <ele>297.2</ele>
        <time>2022-06-02T10:58:36Z</time>
      </trkpt>
      <trkpt lat="47.5868490" lon="7.8801560">
        <ele>297.6</ele>
        <time>2022-06-02T10:58:43Z</time>
      </trkpt>
      <trkpt lat="47.5868440" lon="7.8799350">
        <ele>297.6</ele>
        <time>2022-06-02T10:58:46Z</time>
      </trkpt>
      <trkpt lat="47.5868460" lon="7.8797870">
        <ele>297.6</ele>
        <time>2022-06-02T10:58:48Z</time>
      </trkpt>
      <trkpt lat="47.5868560" lon="7.8796420">
        <ele>297.6</ele>
        <time>2022-06-02T10:58:50Z</time>
      </trkpt>
      <trkpt lat="47.5868770" lon="7.8790680">
        <ele>297.6</ele>
        <time>2022-06-02T10:58:59Z</time>
      </trkpt>
      <trkpt lat="47.5868770" lon="7.8790030">
        <ele>297.6</ele>
        <time>2022-06-02T10:59:00Z</time>
      </trkpt>
      <trkpt lat="47.5868790" lon="7.8786660">
        <ele>297.4</ele>
        <time>2022-06-02T10:59:05Z</time>
      </trkpt>
      <trkpt lat="47.5868830" lon="7.8785400">
        <ele>297.2</ele>
        <time>2022-06-02T10:59:07Z</time>
      </trkpt>
      <trkpt lat="47.5868880" lon="7.8784070">
        <ele>297.2</ele>
        <time>2022-06-02T10:59:09Z</time>
      </trkpt>
      <trkpt lat="47.5868840" lon="7.8781810">
        <ele>297.4</ele>
        <time>2022-06-02T10:59:12Z</time>
      </trkpt>
      <trkpt lat="47.5868880" lon="7.8781050">
        <ele>297.4</ele>
        <time>2022-06-02T10:59:13Z</time>
      </trkpt>
      <trkpt lat="47.5869180" lon="7.8776460">
        <ele>297.0</ele>
        <time>2022-06-02T10:59:19Z</time>
      </trkpt>
      <trkpt lat="47.5869220" lon="7.8775640">
        <ele>297.0</ele>
        <time>2022-06-02T10:59:20Z</time>
      </trkpt>
      <trkpt lat="47.5869580" lon="7.8773200">
        <ele>297.0</ele>
        <time>2022-06-02T10:59:23Z</time>
      </trkpt>
      <trkpt lat="47.5869960" lon="7.8770580">
        <ele>296.6</ele>
        <time>2022-06-02T10:59:26Z</time>
      </trkpt>
      <trkpt lat="47.5870770" lon="7.8766900">
        <ele>296.4</ele>
        <time>2022-06-02T10:59:31Z</time>
      </trkpt>
      <trkpt lat="47.5870780" lon="7.8766210">
        <ele>296.4</ele>
        <time>2022-06-02T10:59:32Z</time>
      </trkpt>
      <trkpt lat="47.5870720" lon="7.8765570">
        <ele>296.2</ele>
        <time>2022-06-02T10:59:33Z</time>
      </trkpt>
      <trkpt lat="47.5870390" lon="7.8764400">
        <ele>296.2</ele>
        <time>2022-06-02T10:59:35Z</time>
      </trkpt>
      <trkpt lat="47.5870170" lon="7.8763860">
        <ele>296.0</ele>
        <time>2022-06-02T10:59:36Z</time>
      </trkpt>
      <trkpt lat="47.5869360" lon="7.8762550">
        <ele>295.8</ele>
        <time>2022-06-02T10:59:40Z</time>
      </trkpt>
      <trkpt lat="47.5869090" lon="7.8762160">
        <ele>295.6</ele>
        <time>2022-06-02T10:59:44Z</time>
      </trkpt>
      <trkpt lat="47.5868880" lon="7.8761920">
        <ele>295.8</ele>
        <time>2022-06-02T10:59:47Z</time>
      </trkpt>
      <trkpt lat="47.5868750" lon="7.8761770">
        <ele>295.8</ele>
        <time>2022-06-02T10:59:49Z</time>
      </trkpt>
      <trkpt lat="47.5868660" lon="7.8761680">
        <ele>295.8</ele>
        <time>2022-06-02T10:59:50Z</time>
      </trkpt>
      <trkpt lat="47.5867540" lon="7.8760560">
        <ele>295.8</ele>
        <time>2022-06-02T10:59:57Z</time>
      </trkpt>
      <trkpt lat="47.5866150" lon="7.8758780">
        <ele>296.0</ele>
        <time>2022-06-02T11:00:02Z</time>
      </trkpt>
      <trkpt lat="47.5864670" lon="7.8756940">
        <ele>296.2</ele>
        <time>2022-06-02T11:00:07Z</time>
      </trkpt>
      <trkpt lat="47.5862320" lon="7.8754670">
        <ele>296.0</ele>
        <time>2022-06-02T11:00:13Z</time>
      </trkpt>
      <trkpt lat="47.5861620" lon="7.8752900">
        <ele>296.0</ele>
        <time>2022-06-02T11:00:15Z</time>
      </trkpt>
      <trkpt lat="47.5861170" lon="7.8751240">
        <ele>295.8</ele>
        <time>2022-06-02T11:00:17Z</time>
      </trkpt>
      <trkpt lat="47.5859560" lon="7.8745970">
        <ele>295.6</ele>
        <time>2022-06-02T11:00:24Z</time>
      </trkpt>
      <trkpt lat="47.5859390" lon="7.8745240">
        <ele>295.4</ele>
        <time>2022-06-02T11:00:25Z</time>
      </trkpt>
      <trkpt lat="47.5858950" lon="7.8743800">
        <ele>295.4</ele>
        <time>2022-06-02T11:00:27Z</time>
      </trkpt>
      <trkpt lat="47.5858310" lon="7.8742090">
        <ele>295.4</ele>
        <time>2022-06-02T11:00:30Z</time>
      </trkpt>
      <trkpt lat="47.5858450" lon="7.8739970">
        <ele>295.2</ele>
        <time>2022-06-02T11:00:34Z</time>
      </trkpt>
      <trkpt lat="47.5859670" lon="7.8737070">
        <ele>295.4</ele>
        <time>2022-06-02T11:00:40Z</time>
      </trkpt>
      <trkpt lat="47.5860920" lon="7.8735360">
        <ele>295.6</ele>
        <time>2022-06-02T11:00:45Z</time>
      </trkpt>
      <trkpt lat="47.5862380" lon="7.8733640">
        <ele>295.6</ele>
        <time>2022-06-02T11:00:50Z</time>
      </trkpt>
      <trkpt lat="47.5863710" lon="7.8731980">
        <ele>295.4</ele>
        <time>2022-06-02T11:00:55Z</time>
      </trkpt>
      <trkpt lat="47.5865460" lon="7.8729590">
        <ele>295.2</ele>
        <time>2022-06-02T11:01:00Z</time>
      </trkpt>
      <trkpt lat="47.5867320" lon="7.8727100">
        <ele>295.6</ele>
        <time>2022-06-02T11:01:04Z</time>
      </trkpt>
      <trkpt lat="47.5868930" lon="7.8724210">
        <ele>296.0</ele>
        <time>2022-06-02T11:01:09Z</time>
      </trkpt>
      <trkpt lat="47.5870370" lon="7.8721290">
        <ele>296.0</ele>
        <time>2022-06-02T11:01:14Z</time>
      </trkpt>
      <trkpt lat="47.5870870" lon="7.8718880">
        <ele>295.8</ele>
        <time>2022-06-02T11:01:19Z</time>
      </trkpt>
      <trkpt lat="47.5871550" lon="7.8716830">
        <ele>296.2</ele>
        <time>2022-06-02T11:01:24Z</time>
      </trkpt>
      <trkpt lat="47.5872340" lon="7.8714480">
        <ele>296.6</ele>
        <time>2022-06-02T11:01:29Z</time>
      </trkpt>
      <trkpt lat="47.5873170" lon="7.8712110">
        <ele>297.4</ele>
        <time>2022-06-02T11:01:34Z</time>
      </trkpt>
      <trkpt lat="47.5873310" lon="7.8711570">
        <ele>297.4</ele>
        <time>2022-06-02T11:01:35Z</time>
      </trkpt>
      <trkpt lat="47.5874120" lon="7.8708480">
        <ele>297.6</ele>
        <time>2022-06-02T11:01:40Z</time>
      </trkpt>
      <trkpt lat="47.5875330" lon="7.8704490">
        <ele>298.2</ele>
        <time>2022-06-02T11:01:47Z</time>
      </trkpt>
      <trkpt lat="47.5876720" lon="7.8700630">
        <ele>298.2</ele>
        <time>2022-06-02T11:01:53Z</time>
      </trkpt>
      <trkpt lat="47.5877280" lon="7.8697590">
        <ele>298.2</ele>
        <time>2022-06-02T11:01:59Z</time>
      </trkpt>
      <trkpt lat="47.5877300" lon="7.8692700">
        <ele>297.8</ele>
        <time>2022-06-02T11:02:07Z</time>
      </trkpt>
      <trkpt lat="47.5877170" lon="7.8689320">
        <ele>297.4</ele>
        <time>2022-06-02T11:02:12Z</time>
      </trkpt>
      <trkpt lat="47.5877020" lon="7.8687920">
        <ele>297.2</ele>
        <time>2022-06-02T11:02:14Z</time>
      </trkpt>
      <trkpt lat="47.5876910" lon="7.8687500">
        <ele>297.2</ele>
        <time>2022-06-02T11:02:15Z</time>
      </trkpt>
      <trkpt lat="47.5876190" lon="7.8685610">
        <ele>296.8</ele>
        <time>2022-06-02T11:02:18Z</time>
      </trkpt>
      <trkpt lat="47.5875620" lon="7.8683710">
        <ele>296.4</ele>
        <time>2022-06-02T11:02:21Z</time>
      </trkpt>
      <trkpt lat="47.5874690" lon="7.8679610">
        <ele>296.8</ele>
        <time>2022-06-02T11:02:28Z</time>
      </trkpt>
      <trkpt lat="47.5874430" lon="7.8678040">
        <ele>296.8</ele>
        <time>2022-06-02T11:02:33Z</time>
      </trkpt>
      <trkpt lat="47.5874360" lon="7.8677970">
        <ele>297.6</ele>
        <time>2022-06-02T11:02:39Z</time>
      </trkpt>
      <trkpt lat="47.5874360" lon="7.8677970">
        <ele>297.6</ele>
        <time>2022-06-02T11:02:40Z</time>
      </trkpt>
      <trkpt lat="47.5874800" lon="7.8677650">
        <ele>297.8</ele>
        <time>2022-06-02T11:03:14Z</time>
      </trkpt>
      <trkpt lat="47.5874860" lon="7.8676960">
        <ele>297.8</ele>
        <time>2022-06-02T11:03:16Z</time>
      </trkpt>
      <trkpt lat="47.5874830" lon="7.8674520">
        <ele>297.4</ele>
        <time>2022-06-02T11:03:21Z</time>
      </trkpt>
      <trkpt lat="47.5874650" lon="7.8670560">
        <ele>297.8</ele>
        <time>2022-06-02T11:03:28Z</time>
      </trkpt>
      <trkpt lat="47.5874280" lon="7.8667550">
        <ele>297.6</ele>
        <time>2022-06-02T11:03:33Z</time>
      </trkpt>
      <trkpt lat="47.5873890" lon="7.8665430">
        <ele>297.2</ele>
        <time>2022-06-02T11:03:36Z</time>
      </trkpt>
      <trkpt lat="47.5873520" lon="7.8663410">
        <ele>297.2</ele>
        <time>2022-06-02T11:03:39Z</time>
      </trkpt>
      <trkpt lat="47.5872850" lon="7.8658260">
        <ele>297.6</ele>
        <time>2022-06-02T11:03:46Z</time>
      </trkpt>
      <trkpt lat="47.5872690" lon="7.8657600">
        <ele>297.8</ele>
        <time>2022-06-02T11:03:47Z</time>
      </trkpt>
      <trkpt lat="47.5872240" lon="7.8653900">
        <ele>298.4</ele>
        <time>2022-06-02T11:03:52Z</time>
      </trkpt>
      <trkpt lat="47.5872150" lon="7.8653210">
        <ele>298.6</ele>
        <time>2022-06-02T11:03:53Z</time>
      </trkpt>
      <trkpt lat="47.5872090" lon="7.8652470">
        <ele>298.6</ele>
        <time>2022-06-02T11:03:54Z</time>
      </trkpt>
      <trkpt lat="47.5871860" lon="7.8650320">
        <ele>298.6</ele>
        <time>2022-06-02T11:03:57Z</time>
      </trkpt>
      <trkpt lat="47.5871800" lon="7.8649610">
        <ele>298.6</ele>
        <time>2022-06-02T11:03:58Z</time>
      </trkpt>
      <trkpt lat="47.5871720" lon="7.8648890">
        <ele>298.8</ele>
        <time>2022-06-02T11:03:59Z</time>
      </trkpt>
      <trkpt lat="47.5871460" lon="7.8647440">
        <ele>299.0</ele>
        <time>2022-06-02T11:04:01Z</time>
      </trkpt>
      <trkpt lat="47.5871210" lon="7.8646100">
        <ele>299.2</ele>
        <time>2022-06-02T11:04:03Z</time>
      </trkpt>
      <trkpt lat="47.5870330" lon="7.8641060">
        <ele>299.2</ele>
        <time>2022-06-02T11:04:10Z</time>
      </trkpt>
      <trkpt lat="47.5869380" lon="7.8636230">
        <ele>298.6</ele>
        <time>2022-06-02T11:04:17Z</time>
      </trkpt>
      <trkpt lat="47.5868680" lon="7.8632150">
        <ele>298.8</ele>
        <time>2022-06-02T11:04:23Z</time>
      </trkpt>
      <trkpt lat="47.5868470" lon="7.8631400">
        <ele>298.8</ele>
        <time>2022-06-02T11:04:24Z</time>
      </trkpt>
      <trkpt lat="47.5867750" lon="7.8627860">
        <ele>299.2</ele>
        <time>2022-06-02T11:04:29Z</time>
      </trkpt>
      <trkpt lat="47.5867580" lon="7.8627070">
        <ele>299.4</ele>
        <time>2022-06-02T11:04:30Z</time>
      </trkpt>
      <trkpt lat="47.5866570" lon="7.8623620">
        <ele>299.2</ele>
        <time>2022-06-02T11:04:34Z</time>
      </trkpt>
      <trkpt lat="47.5866340" lon="7.8623000">
        <ele>299.0</ele>
        <time>2022-06-02T11:04:35Z</time>
      </trkpt>
      <trkpt lat="47.5865750" lon="7.8620700">
        <ele>299.0</ele>
        <time>2022-06-02T11:04:38Z</time>
      </trkpt>
      <trkpt lat="47.5865510" lon="7.8620010">
        <ele>299.0</ele>
        <time>2022-06-02T11:04:39Z</time>
      </trkpt>
      <trkpt lat="47.5864130" lon="7.8616540">
        <ele>299.0</ele>
        <time>2022-06-02T11:04:44Z</time>
      </trkpt>
      <trkpt lat="47.5863880" lon="7.8615950">
        <ele>299.0</ele>
        <time>2022-06-02T11:04:45Z</time>
      </trkpt>
      <trkpt lat="47.5862490" lon="7.8613690">
        <ele>299.2</ele>
        <time>2022-06-02T11:04:49Z</time>
      </trkpt>
      <trkpt lat="47.5861780" lon="7.8612420">
        <ele>299.0</ele>
        <time>2022-06-02T11:04:51Z</time>
      </trkpt>
      <trkpt lat="47.5861030" lon="7.8611440">
        <ele>299.0</ele>
        <time>2022-06-02T11:04:53Z</time>
      </trkpt>
      <trkpt lat="47.5860580" lon="7.8610900">
        <ele>299.0</ele>
        <time>2022-06-02T11:04:54Z</time>
      </trkpt>
      <trkpt lat="47.5859810" lon="7.8609830">
        <ele>299.0</ele>
        <time>2022-06-02T11:04:56Z</time>
      </trkpt>
      <trkpt lat="47.5858820" lon="7.8608210">
        <ele>299.2</ele>
        <time>2022-06-02T11:04:59Z</time>
      </trkpt>
      <trkpt lat="47.5858190" lon="7.8607000">
        <ele>299.2</ele>
        <time>2022-06-02T11:05:01Z</time>
      </trkpt>
      <trkpt lat="47.5857600" lon="7.8606110">
        <ele>299.6</ele>
        <time>2022-06-02T11:05:03Z</time>
      </trkpt>
      <trkpt lat="47.5857070" lon="7.8605250">
        <ele>299.6</ele>
        <time>2022-06-02T11:05:05Z</time>
      </trkpt>
      <trkpt lat="47.5856690" lon="7.8604770">
        <ele>299.8</ele>
        <time>2022-06-02T11:05:06Z</time>
      </trkpt>
      <trkpt lat="47.5856030" lon="7.8604090">
        <ele>299.6</ele>
        <time>2022-06-02T11:05:08Z</time>
      </trkpt>
      <trkpt lat="47.5855700" lon="7.8603790">
        <ele>299.6</ele>
        <time>2022-06-02T11:05:09Z</time>
      </trkpt>
      <trkpt lat="47.5853720" lon="7.8601840">
        <ele>299.6</ele>
        <time>2022-06-02T11:05:14Z</time>
      </trkpt>
      <trkpt lat="47.5852770" lon="7.8600740">
        <ele>299.6</ele>
        <time>2022-06-02T11:05:18Z</time>
      </trkpt>
      <trkpt lat="47.5851990" lon="7.8599750">
        <ele>299.8</ele>
        <time>2022-06-02T11:05:21Z</time>
      </trkpt>
      <trkpt lat="47.5851430" lon="7.8599130">
        <ele>299.4</ele>
        <time>2022-06-02T11:05:24Z</time>
      </trkpt>
      <trkpt lat="47.5850930" lon="7.8598710">
        <ele>299.4</ele>
        <time>2022-06-02T11:05:27Z</time>
      </trkpt>
      <trkpt lat="47.5850240" lon="7.8598170">
        <ele>299.2</ele>
        <time>2022-06-02T11:05:30Z</time>
      </trkpt>
      <trkpt lat="47.5848590" lon="7.8596630">
        <ele>299.0</ele>
        <time>2022-06-02T11:05:35Z</time>
      </trkpt>
      <trkpt lat="47.5846610" lon="7.8594830">
        <ele>299.0</ele>
        <time>2022-06-02T11:05:41Z</time>
      </trkpt>
      <trkpt lat="47.5844070" lon="7.8591660">
        <ele>299.4</ele>
        <time>2022-06-02T11:05:49Z</time>
      </trkpt>
      <trkpt lat="47.5841880" lon="7.8588840">
        <ele>299.0</ele>
        <time>2022-06-02T11:05:55Z</time>
      </trkpt>
      <trkpt lat="47.5840840" lon="7.8587390">
        <ele>299.2</ele>
        <time>2022-06-02T11:05:58Z</time>
      </trkpt>
      <trkpt lat="47.5840600" lon="7.8586930">
        <ele>299.2</ele>
        <time>2022-06-02T11:05:59Z</time>
      </trkpt>
      <trkpt lat="47.5840400" lon="7.8586480">
        <ele>299.2</ele>
        <time>2022-06-02T11:06:00Z</time>
      </trkpt>
      <trkpt lat="47.5838730" lon="7.8582920">
        <ele>299.4</ele>
        <time>2022-06-02T11:06:07Z</time>
      </trkpt>
      <trkpt lat="47.5838000" lon="7.8581030">
        <ele>299.4</ele>
        <time>2022-06-02T11:06:10Z</time>
      </trkpt>
      <trkpt lat="47.5837480" lon="7.8579840">
        <ele>299.4</ele>
        <time>2022-06-02T11:06:12Z</time>
      </trkpt>
      <trkpt lat="47.5837230" lon="7.8579280">
        <ele>299.4</ele>
        <time>2022-06-02T11:06:13Z</time>
      </trkpt>
      <trkpt lat="47.5836580" lon="7.8577510">
        <ele>299.4</ele>
        <time>2022-06-02T11:06:16Z</time>
      </trkpt>
      <trkpt lat="47.5836400" lon="7.8576840">
        <ele>299.4</ele>
        <time>2022-06-02T11:06:17Z</time>
      </trkpt>
      <trkpt lat="47.5836090" lon="7.8575480">
        <ele>299.2</ele>
        <time>2022-06-02T11:06:19Z</time>
      </trkpt>
      <trkpt lat="47.5835080" lon="7.8572910">
        <ele>299.2</ele>
        <time>2022-06-02T11:06:23Z</time>
      </trkpt>
      <trkpt lat="47.5833120" lon="7.8568180">
        <ele>299.0</ele>
        <time>2022-06-02T11:06:31Z</time>
      </trkpt>
      <trkpt lat="47.5831840" lon="7.8564650">
        <ele>298.8</ele>
        <time>2022-06-02T11:06:37Z</time>
      </trkpt>
      <trkpt lat="47.5829810" lon="7.8559570">
        <ele>298.8</ele>
        <time>2022-06-02T11:06:45Z</time>
      </trkpt>
      <trkpt lat="47.5828780" lon="7.8557020">
        <ele>299.0</ele>
        <time>2022-06-02T11:06:49Z</time>
      </trkpt>
      <trkpt lat="47.5828060" lon="7.8554820">
        <ele>299.0</ele>
        <time>2022-06-02T11:06:52Z</time>
      </trkpt>
      <trkpt lat="47.5827830" lon="7.8554080">
        <ele>299.0</ele>
        <time>2022-06-02T11:06:53Z</time>
      </trkpt>
      <trkpt lat="47.5826620" lon="7.8550430">
        <ele>298.8</ele>
        <time>2022-06-02T11:06:58Z</time>
      </trkpt>
      <trkpt lat="47.5826090" lon="7.8548830">
        <ele>298.8</ele>
        <time>2022-06-02T11:07:00Z</time>
      </trkpt>
      <trkpt lat="47.5825680" lon="7.8547580">
        <ele>298.6</ele>
        <time>2022-06-02T11:07:02Z</time>
      </trkpt>
      <trkpt lat="47.5825520" lon="7.8546850">
        <ele>298.4</ele>
        <time>2022-06-02T11:07:03Z</time>
      </trkpt>
      <trkpt lat="47.5824630" lon="7.8542870">
        <ele>298.2</ele>
        <time>2022-06-02T11:07:08Z</time>
      </trkpt>
      <trkpt lat="47.5824350" lon="7.8541450">
        <ele>298.2</ele>
        <time>2022-06-02T11:07:10Z</time>
      </trkpt>
      <trkpt lat="47.5824040" lon="7.8540220">
        <ele>298.0</ele>
        <time>2022-06-02T11:07:12Z</time>
      </trkpt>
      <trkpt lat="47.5823570" lon="7.8539000">
        <ele>298.0</ele>
        <time>2022-06-02T11:07:14Z</time>
      </trkpt>
      <trkpt lat="47.5822400" lon="7.8535800">
        <ele>298.0</ele>
        <time>2022-06-02T11:07:20Z</time>
      </trkpt>
      <trkpt lat="47.5821590" lon="7.8532880">
        <ele>298.8</ele>
        <time>2022-06-02T11:07:26Z</time>
      </trkpt>
      <trkpt lat="47.5821010" lon="7.8531290">
        <ele>299.2</ele>
        <time>2022-06-02T11:07:29Z</time>
      </trkpt>
      <trkpt lat="47.5820530" lon="7.8529800">
        <ele>299.8</ele>
        <time>2022-06-02T11:07:32Z</time>
      </trkpt>
      <trkpt lat="47.5819980" lon="7.8528210">
        <ele>300.2</ele>
        <time>2022-06-02T11:07:35Z</time>
      </trkpt>
      <trkpt lat="47.5819220" lon="7.8525460">
        <ele>300.6</ele>
        <time>2022-06-02T11:07:39Z</time>
      </trkpt>
      <trkpt lat="47.5818370" lon="7.8522000">
        <ele>300.8</ele>
        <time>2022-06-02T11:07:44Z</time>
      </trkpt>
      <trkpt lat="47.5817570" lon="7.8520160">
        <ele>301.0</ele>
        <time>2022-06-02T11:07:47Z</time>
      </trkpt>
      <trkpt lat="47.5816570" lon="7.8517600">
        <ele>301.2</ele>
        <time>2022-06-02T11:07:51Z</time>
      </trkpt>
      <trkpt lat="47.5815100" lon="7.8513530">
        <ele>301.2</ele>
        <time>2022-06-02T11:07:58Z</time>
      </trkpt>
      <trkpt lat="47.5814730" lon="7.8511650">
        <ele>301.2</ele>
        <time>2022-06-02T11:08:01Z</time>
      </trkpt>
      <trkpt lat="47.5814390" lon="7.8510150">
        <ele>301.4</ele>
        <time>2022-06-02T11:08:03Z</time>
      </trkpt>
      <trkpt lat="47.5812830" lon="7.8506100">
        <ele>301.6</ele>
        <time>2022-06-02T11:08:09Z</time>
      </trkpt>
      <trkpt lat="47.5811080" lon="7.8501440">
        <ele>301.8</ele>
        <time>2022-06-02T11:08:16Z</time>
      </trkpt>
      <trkpt lat="47.5810200" lon="7.8497360">
        <ele>301.8</ele>
        <time>2022-06-02T11:08:22Z</time>
      </trkpt>
      <trkpt lat="47.5810170" lon="7.8496680">
        <ele>301.6</ele>
        <time>2022-06-02T11:08:23Z</time>
      </trkpt>
      <trkpt lat="47.5809590" lon="7.8490670">
        <ele>301.4</ele>
        <time>2022-06-02T11:08:31Z</time>
      </trkpt>
      <trkpt lat="47.5809050" lon="7.8484660">
        <ele>300.8</ele>
        <time>2022-06-02T11:08:39Z</time>
      </trkpt>
      <trkpt lat="47.5808540" lon="7.8478710">
        <ele>300.4</ele>
        <time>2022-06-02T11:08:47Z</time>
      </trkpt>
      <trkpt lat="47.5807980" lon="7.8472200">
        <ele>300.4</ele>
        <time>2022-06-02T11:08:55Z</time>
      </trkpt>
      <trkpt lat="47.5807730" lon="7.8469030">
        <ele>300.4</ele>
        <time>2022-06-02T11:08:59Z</time>
      </trkpt>
      <trkpt lat="47.5807680" lon="7.8467640">
        <ele>300.4</ele>
        <time>2022-06-02T11:09:01Z</time>
      </trkpt>
      <trkpt lat="47.5807530" lon="7.8465650">
        <ele>300.8</ele>
        <time>2022-06-02T11:09:04Z</time>
      </trkpt>
      <trkpt lat="47.5807270" lon="7.8464040">
        <ele>300.8</ele>
        <time>2022-06-02T11:09:07Z</time>
      </trkpt>
      <trkpt lat="47.5806570" lon="7.8460060">
        <ele>300.6</ele>
        <time>2022-06-02T11:09:14Z</time>
      </trkpt>
      <trkpt lat="47.5806410" lon="7.8458040">
        <ele>300.2</ele>
        <time>2022-06-02T11:09:18Z</time>
      </trkpt>
      <trkpt lat="47.5806320" lon="7.8454290">
        <ele>300.2</ele>
        <time>2022-06-02T11:09:24Z</time>
      </trkpt>
      <trkpt lat="47.5806060" lon="7.8451350">
        <ele>300.2</ele>
        <time>2022-06-02T11:09:29Z</time>
      </trkpt>
      <trkpt lat="47.5805930" lon="7.8447700">
        <ele>300.4</ele>
        <time>2022-06-02T11:09:34Z</time>
      </trkpt>
      <trkpt lat="47.5805540" lon="7.8444150">
        <ele>300.4</ele>
        <time>2022-06-02T11:09:40Z</time>
      </trkpt>
      <trkpt lat="47.5805310" lon="7.8439610">
        <ele>300.4</ele>
        <time>2022-06-02T11:09:46Z</time>
      </trkpt>
      <trkpt lat="47.5805020" lon="7.8435360">
        <ele>300.6</ele>
        <time>2022-06-02T11:09:53Z</time>
      </trkpt>
      <trkpt lat="47.5804840" lon="7.8431210">
        <ele>301.2</ele>
        <time>2022-06-02T11:09:58Z</time>
      </trkpt>
      <trkpt lat="47.5804770" lon="7.8428560">
        <ele>301.2</ele>
        <time>2022-06-02T11:10:01Z</time>
      </trkpt>
      <trkpt lat="47.5804400" lon="7.8426810">
        <ele>301.2</ele>
        <time>2022-06-02T11:10:04Z</time>
      </trkpt>
      <trkpt lat="47.5804250" lon="7.8425990">
        <ele>301.2</ele>
        <time>2022-06-02T11:10:05Z</time>
      </trkpt>
      <trkpt lat="47.5804170" lon="7.8424750">
        <ele>301.0</ele>
        <time>2022-06-02T11:10:07Z</time>
      </trkpt>
      <trkpt lat="47.5804030" lon="7.8423500">
        <ele>301.0</ele>
        <time>2022-06-02T11:10:09Z</time>
      </trkpt>
      <trkpt lat="47.5803300" lon="7.8418930">
        <ele>300.8</ele>
        <time>2022-06-02T11:10:16Z</time>
      </trkpt>
      <trkpt lat="47.5802150" lon="7.8413890">
        <ele>300.2</ele>
        <time>2022-06-02T11:10:24Z</time>
      </trkpt>
      <trkpt lat="47.5801900" lon="7.8412580">
        <ele>300.0</ele>
        <time>2022-06-02T11:10:26Z</time>
      </trkpt>
      <trkpt lat="47.5800850" lon="7.8407820">
        <ele>299.6</ele>
        <time>2022-06-02T11:10:33Z</time>
      </trkpt>
      <trkpt lat="47.5800430" lon="7.8405150">
        <ele>299.6</ele>
        <time>2022-06-02T11:10:37Z</time>
      </trkpt>
      <trkpt lat="47.5800450" lon="7.8403810">
        <ele>299.6</ele>
        <time>2022-06-02T11:10:39Z</time>
      </trkpt>
      <trkpt lat="47.5800440" lon="7.8403100">
        <ele>299.6</ele>
        <time>2022-06-02T11:10:40Z</time>
      </trkpt>
      <trkpt lat="47.5800230" lon="7.8401590">
        <ele>299.6</ele>
        <time>2022-06-02T11:10:42Z</time>
      </trkpt>
      <trkpt lat="47.5800040" lon="7.8400860">
        <ele>299.4</ele>
        <time>2022-06-02T11:10:43Z</time>
      </trkpt>
      <trkpt lat="47.5799870" lon="7.8400090">
        <ele>299.4</ele>
        <time>2022-06-02T11:10:44Z</time>
      </trkpt>
      <trkpt lat="47.5799410" lon="7.8396380">
        <ele>299.2</ele>
        <time>2022-06-02T11:10:49Z</time>
      </trkpt>
      <trkpt lat="47.5798500" lon="7.8391520">
        <ele>299.4</ele>
        <time>2022-06-02T11:10:56Z</time>
      </trkpt>
      <trkpt lat="47.5798130" lon="7.8390290">
        <ele>299.4</ele>
        <time>2022-06-02T11:10:58Z</time>
      </trkpt>
      <trkpt lat="47.5797340" lon="7.8388340">
        <ele>299.4</ele>
        <time>2022-06-02T11:11:01Z</time>
      </trkpt>
      <trkpt lat="47.5797040" lon="7.8387720">
        <ele>299.4</ele>
        <time>2022-06-02T11:11:02Z</time>
      </trkpt>
      <trkpt lat="47.5796290" lon="7.8385630">
        <ele>299.4</ele>
        <time>2022-06-02T11:11:05Z</time>
      </trkpt>
      <trkpt lat="47.5795680" lon="7.8384440">
        <ele>299.4</ele>
        <time>2022-06-02T11:11:07Z</time>
      </trkpt>
      <trkpt lat="47.5795080" lon="7.8383560">
        <ele>299.2</ele>
        <time>2022-06-02T11:11:09Z</time>
      </trkpt>
      <trkpt lat="47.5794250" lon="7.8382900">
        <ele>299.0</ele>
        <time>2022-06-02T11:11:11Z</time>
      </trkpt>
      <trkpt lat="47.5793720" lon="7.8382710">
        <ele>299.0</ele>
        <time>2022-06-02T11:11:12Z</time>
      </trkpt>
      <trkpt lat="47.5793150" lon="7.8382530">
        <ele>299.0</ele>
        <time>2022-06-02T11:11:13Z</time>
      </trkpt>
      <trkpt lat="47.5792630" lon="7.8382450">
        <ele>298.8</ele>
        <time>2022-06-02T11:11:14Z</time>
      </trkpt>
      <trkpt lat="47.5791560" lon="7.8382470">
        <ele>298.6</ele>
        <time>2022-06-02T11:11:16Z</time>
      </trkpt>
      <trkpt lat="47.5791030" lon="7.8382560">
        <ele>298.6</ele>
        <time>2022-06-02T11:11:17Z</time>
      </trkpt>
      <trkpt lat="47.5790570" lon="7.8382780">
        <ele>298.6</ele>
        <time>2022-06-02T11:11:18Z</time>
      </trkpt>
      <trkpt lat="47.5789740" lon="7.8383600">
        <ele>298.6</ele>
        <time>2022-06-02T11:11:20Z</time>
      </trkpt>
      <trkpt lat="47.5789380" lon="7.8384090">
        <ele>298.6</ele>
        <time>2022-06-02T11:11:21Z</time>
      </trkpt>
      <trkpt lat="47.5787890" lon="7.8385910">
        <ele>298.8</ele>
        <time>2022-06-02T11:11:25Z</time>
      </trkpt>
      <trkpt lat="47.5787080" lon="7.8386620">
        <ele>298.8</ele>
        <time>2022-06-02T11:11:27Z</time>
      </trkpt>
      <trkpt lat="47.5784980" lon="7.8387980">
        <ele>299.0</ele>
        <time>2022-06-02T11:11:32Z</time>
      </trkpt>
      <trkpt lat="47.5784520" lon="7.8388140">
        <ele>299.0</ele>
        <time>2022-06-02T11:11:33Z</time>
      </trkpt>
      <trkpt lat="47.5783650" lon="7.8388480">
        <ele>299.2</ele>
        <time>2022-06-02T11:11:35Z</time>
      </trkpt>
      <trkpt lat="47.5782340" lon="7.8389150">
        <ele>299.2</ele>
        <time>2022-06-02T11:11:39Z</time>
      </trkpt>
      <trkpt lat="47.5782040" lon="7.8389220">
        <ele>299.2</ele>
        <time>2022-06-02T11:11:41Z</time>
      </trkpt>
      <trkpt lat="47.5782000" lon="7.8389530">
        <ele>299.2</ele>
        <time>2022-06-02T11:11:43Z</time>
      </trkpt>
      <trkpt lat="47.5782210" lon="7.8389470">
        <ele>299.2</ele>
        <time>2022-06-02T11:11:45Z</time>
      </trkpt>
      <trkpt lat="47.5782500" lon="7.8389200">
        <ele>299.4</ele>
        <time>2022-06-02T11:11:47Z</time>
      </trkpt>
      <trkpt lat="47.5783050" lon="7.8388760">
        <ele>299.4</ele>
        <time>2022-06-02T11:11:50Z</time>
      </trkpt>
      <trkpt lat="47.5783000" lon="7.8388320">
        <ele>299.4</ele>
        <time>2022-06-02T11:11:52Z</time>
      </trkpt>
      <trkpt lat="47.5782810" lon="7.8388220">
        <ele>299.2</ele>
        <time>2022-06-02T11:11:54Z</time>
      </trkpt>
      <trkpt lat="47.5782180" lon="7.8388260">
        <ele>298.8</ele>
        <time>2022-06-02T11:11:57Z</time>
      </trkpt>
      <trkpt lat="47.5781340" lon="7.8388390">
        <ele>298.6</ele>
        <time>2022-06-02T11:11:59Z</time>
      </trkpt>
      <trkpt lat="47.5780870" lon="7.8388700">
        <ele>298.4</ele>
        <time>2022-06-02T11:12:00Z</time>
      </trkpt>
      <trkpt lat="47.5780380" lon="7.8389040">
        <ele>298.0</ele>
        <time>2022-06-02T11:12:01Z</time>
      </trkpt>
      <trkpt lat="47.5779510" lon="7.8389780">
        <ele>297.4</ele>
        <time>2022-06-02T11:12:03Z</time>
      </trkpt>
      <trkpt lat="47.5778890" lon="7.8390400">
        <ele>296.8</ele>
        <time>2022-06-02T11:12:05Z</time>
      </trkpt>
      <trkpt lat="47.5778600" lon="7.8390500">
        <ele>296.2</ele>
        <time>2022-06-02T11:12:06Z</time>
      </trkpt>
      <trkpt lat="47.5778040" lon="7.8389990">
        <ele>295.2</ele>
        <time>2022-06-02T11:12:08Z</time>
      </trkpt>
      <trkpt lat="47.5777950" lon="7.8389510">
        <ele>294.8</ele>
        <time>2022-06-02T11:12:09Z</time>
      </trkpt>
      <trkpt lat="47.5777930" lon="7.8388500">
        <ele>293.8</ele>
        <time>2022-06-02T11:12:11Z</time>
      </trkpt>
      <trkpt lat="47.5777990" lon="7.8386650">
        <ele>293.0</ele>
        <time>2022-06-02T11:12:14Z</time>
      </trkpt>
      <trkpt lat="47.5777910" lon="7.8385930">
        <ele>292.8</ele>
        <time>2022-06-02T11:12:15Z</time>
      </trkpt>
      <trkpt lat="47.5777670" lon="7.8384020">
        <ele>291.8</ele>
        <time>2022-06-02T11:12:18Z</time>
      </trkpt>
      <trkpt lat="47.5777540" lon="7.8383610">
        <ele>291.6</ele>
        <time>2022-06-02T11:12:19Z</time>
      </trkpt>
      <trkpt lat="47.5777380" lon="7.8383330">
        <ele>291.2</ele>
        <time>2022-06-02T11:12:20Z</time>
      </trkpt>
      <trkpt lat="47.5777000" lon="7.8382890">
        <ele>291.0</ele>
        <time>2022-06-02T11:12:22Z</time>
      </trkpt>
      <trkpt lat="47.5776890" lon="7.8382540">
        <ele>291.0</ele>
        <time>2022-06-02T11:12:23Z</time>
      </trkpt>
      <trkpt lat="47.5776740" lon="7.8381340">
        <ele>290.8</ele>
        <time>2022-06-02T11:12:26Z</time>
      </trkpt>
      <trkpt lat="47.5776440" lon="7.8378810">
        <ele>290.8</ele>
        <time>2022-06-02T11:12:33Z</time>
      </trkpt>
      <trkpt lat="47.5776470" lon="7.8378560">
        <ele>290.8</ele>
        <time>2022-06-02T11:12:34Z</time>
      </trkpt>
      <trkpt lat="47.5776750" lon="7.8378540">
        <ele>290.8</ele>
        <time>2022-06-02T11:12:36Z</time>
      </trkpt>
      <trkpt lat="47.5777630" lon="7.8377860">
        <ele>291.4</ele>
        <time>2022-06-02T11:12:43Z</time>
      </trkpt>
      <trkpt lat="47.5778380" lon="7.8377700">
        <ele>292.8</ele>
        <time>2022-06-02T11:12:49Z</time>
      </trkpt>
      <trkpt lat="47.5778480" lon="7.8377630">
        <ele>293.0</ele>
        <time>2022-06-02T11:12:50Z</time>
      </trkpt>
      <trkpt lat="47.5778560" lon="7.8377530">
        <ele>293.6</ele>
        <time>2022-06-02T11:12:51Z</time>
      </trkpt>
      <trkpt lat="47.5778660" lon="7.8377400">
        <ele>294.0</ele>
        <time>2022-06-02T11:12:52Z</time>
      </trkpt>
      <trkpt lat="47.5778980" lon="7.8377190">
        <ele>295.2</ele>
        <time>2022-06-02T11:12:55Z</time>
      </trkpt>
      <trkpt lat="47.5779100" lon="7.8377110">
        <ele>295.4</ele>
        <time>2022-06-02T11:12:56Z</time>
      </trkpt>
      <trkpt lat="47.5779300" lon="7.8376900">
        <ele>296.2</ele>
        <time>2022-06-02T11:12:58Z</time>
      </trkpt>
      <trkpt lat="47.5779620" lon="7.8376210">
        <ele>297.2</ele>
        <time>2022-06-02T11:13:02Z</time>
      </trkpt>
      <trkpt lat="47.5779750" lon="7.8375960">
        <ele>297.6</ele>
        <time>2022-06-02T11:13:03Z</time>
      </trkpt>
      <trkpt lat="47.5779960" lon="7.8375490">
        <ele>298.4</ele>
        <time>2022-06-02T11:13:05Z</time>
      </trkpt>
      <trkpt lat="47.5779980" lon="7.8375290">
        <ele>298.8</ele>
        <time>2022-06-02T11:13:06Z</time>
      </trkpt>
      <trkpt lat="47.5780140" lon="7.8374980">
        <ele>299.8</ele>
        <time>2022-06-02T11:13:08Z</time>
      </trkpt>
      <trkpt lat="47.5780250" lon="7.8374830">
        <ele>299.8</ele>
        <time>2022-06-02T11:13:09Z</time>
      </trkpt>
      <trkpt lat="47.5780460" lon="7.8374620">
        <ele>300.2</ele>
        <time>2022-06-02T11:13:11Z</time>
      </trkpt>
      <trkpt lat="47.5780570" lon="7.8374250">
        <ele>300.4</ele>
        <time>2022-06-02T11:13:13Z</time>
      </trkpt>
      <trkpt lat="47.5780790" lon="7.8373830">
        <ele>300.6</ele>
        <time>2022-06-02T11:13:15Z</time>
      </trkpt>
      <trkpt lat="47.5780980" lon="7.8373210">
        <ele>300.8</ele>
        <time>2022-06-02T11:13:17Z</time>
      </trkpt>
      <trkpt lat="47.5781070" lon="7.8372910">
        <ele>301.0</ele>
        <time>2022-06-02T11:13:18Z</time>
      </trkpt>
      <trkpt lat="47.5781390" lon="7.8371860">
        <ele>301.4</ele>
        <time>2022-06-02T11:13:24Z</time>
      </trkpt>
      <trkpt lat="47.5781600" lon="7.8370900">
        <ele>301.6</ele>
        <time>2022-06-02T11:13:28Z</time>
      </trkpt>
      <trkpt lat="47.5781590" lon="7.8370870">
        <ele>301.8</ele>
        <time>2022-06-02T11:13:30Z</time>
      </trkpt>
      <trkpt lat="47.5781590" lon="7.8370870">
        <ele>301.8</ele>
        <time>2022-06-02T11:13:32Z</time>
      </trkpt>
      <trkpt lat="47.5780700" lon="7.8371040">
        <ele>302.0</ele>
        <time>2022-06-02T11:14:44Z</time>
      </trkpt>
      <trkpt lat="47.5780250" lon="7.8371070">
        <ele>302.0</ele>
        <time>2022-06-02T11:14:46Z</time>
      </trkpt>
      <trkpt lat="47.5778150" lon="7.8371470">
        <ele>301.6</ele>
        <time>2022-06-02T11:14:53Z</time>
      </trkpt>
      <trkpt lat="47.5775280" lon="7.8372030">
        <ele>301.8</ele>
        <time>2022-06-02T11:15:02Z</time>
      </trkpt>
      <trkpt lat="47.5773510" lon="7.8372450">
        <ele>302.2</ele>
        <time>2022-06-02T11:15:06Z</time>
      </trkpt>
      <trkpt lat="47.5772990" lon="7.8372700">
        <ele>302.2</ele>
        <time>2022-06-02T11:15:08Z</time>
      </trkpt>
      <trkpt lat="47.5771070" lon="7.8373080">
        <ele>301.8</ele>
        <time>2022-06-02T11:15:14Z</time>
      </trkpt>
      <trkpt lat="47.5769450" lon="7.8373500">
        <ele>301.6</ele>
        <time>2022-06-02T11:15:20Z</time>
      </trkpt>
      <trkpt lat="47.5766390" lon="7.8374370">
        <ele>302.4</ele>
        <time>2022-06-02T11:15:29Z</time>
      </trkpt>
      <trkpt lat="47.5763520" lon="7.8374240">
        <ele>302.0</ele>
        <time>2022-06-02T11:15:35Z</time>
      </trkpt>
      <trkpt lat="47.5762020" lon="7.8372920">
        <ele>301.8</ele>
        <time>2022-06-02T11:15:39Z</time>
      </trkpt>
      <trkpt lat="47.5761300" lon="7.8369870">
        <ele>301.6</ele>
        <time>2022-06-02T11:15:44Z</time>
      </trkpt>
      <trkpt lat="47.5760590" lon="7.8365760">
        <ele>301.4</ele>
        <time>2022-06-02T11:15:51Z</time>
      </trkpt>
      <trkpt lat="47.5760240" lon="7.8361980">
        <ele>301.4</ele>
        <time>2022-06-02T11:15:57Z</time>
      </trkpt>
      <trkpt lat="47.5760030" lon="7.8360680">
        <ele>301.4</ele>
        <time>2022-06-02T11:15:59Z</time>
      </trkpt>
      <trkpt lat="47.5759680" lon="7.8357170">
        <ele>301.4</ele>
        <time>2022-06-02T11:16:06Z</time>
      </trkpt>
      <trkpt lat="47.5759470" lon="7.8354120">
        <ele>301.4</ele>
        <time>2022-06-02T11:16:11Z</time>
      </trkpt>
      <trkpt lat="47.5758820" lon="7.8347880">
        <ele>301.4</ele>
        <time>2022-06-02T11:16:20Z</time>
      </trkpt>
      <trkpt lat="47.5758100" lon="7.8342280">
        <ele>301.2</ele>
        <time>2022-06-02T11:16:28Z</time>
      </trkpt>
      <trkpt lat="47.5757580" lon="7.8338030">
        <ele>301.0</ele>
        <time>2022-06-02T11:16:35Z</time>
      </trkpt>
      <trkpt lat="47.5757130" lon="7.8333880">
        <ele>301.0</ele>
        <time>2022-06-02T11:16:41Z</time>
      </trkpt>
      <trkpt lat="47.5757090" lon="7.8331070">
        <ele>300.6</ele>
        <time>2022-06-02T11:16:45Z</time>
      </trkpt>
      <trkpt lat="47.5757000" lon="7.8329690">
        <ele>300.2</ele>
        <time>2022-06-02T11:16:47Z</time>
      </trkpt>
      <trkpt lat="47.5756900" lon="7.8323390">
        <ele>300.6</ele>
        <time>2022-06-02T11:16:55Z</time>
      </trkpt>
      <trkpt lat="47.5756830" lon="7.8321880">
        <ele>300.6</ele>
        <time>2022-06-02T11:16:57Z</time>
      </trkpt>
      <trkpt lat="47.5756760" lon="7.8320440">
        <ele>300.8</ele>
        <time>2022-06-02T11:16:59Z</time>
      </trkpt>
      <trkpt lat="47.5756770" lon="7.8319700">
        <ele>300.8</ele>
        <time>2022-06-02T11:17:00Z</time>
      </trkpt>
      <trkpt lat="47.5756670" lon="7.8317080">
        <ele>300.8</ele>
        <time>2022-06-02T11:17:04Z</time>
      </trkpt>
      <trkpt lat="47.5756720" lon="7.8315830">
        <ele>300.6</ele>
        <time>2022-06-02T11:17:06Z</time>
      </trkpt>
      <trkpt lat="47.5756840" lon="7.8310750">
        <ele>300.6</ele>
        <time>2022-06-02T11:17:13Z</time>
      </trkpt>
      <trkpt lat="47.5756830" lon="7.8310140">
        <ele>300.6</ele>
        <time>2022-06-02T11:17:14Z</time>
      </trkpt>
      <trkpt lat="47.5756860" lon="7.8308660">
        <ele>300.8</ele>
        <time>2022-06-02T11:17:16Z</time>
      </trkpt>
      <trkpt lat="47.5756920" lon="7.8307880">
        <ele>300.8</ele>
        <time>2022-06-02T11:17:17Z</time>
      </trkpt>
      <trkpt lat="47.5757050" lon="7.8304340">
        <ele>300.8</ele>
        <time>2022-06-02T11:17:22Z</time>
      </trkpt>
      <trkpt lat="47.5757130" lon="7.8303580">
        <ele>300.8</ele>
        <time>2022-06-02T11:17:23Z</time>
      </trkpt>
      <trkpt lat="47.5757590" lon="7.8297140">
        <ele>301.0</ele>
        <time>2022-06-02T11:17:31Z</time>
      </trkpt>
      <trkpt lat="47.5757590" lon="7.8295730">
        <ele>301.0</ele>
        <time>2022-06-02T11:17:33Z</time>
      </trkpt>
      <trkpt lat="47.5757490" lon="7.8294370">
        <ele>300.8</ele>
        <time>2022-06-02T11:17:35Z</time>
      </trkpt>
      <trkpt lat="47.5757250" lon="7.8293110">
        <ele>300.8</ele>
        <time>2022-06-02T11:17:37Z</time>
      </trkpt>
      <trkpt lat="47.5757060" lon="7.8291190">
        <ele>300.8</ele>
        <time>2022-06-02T11:17:40Z</time>
      </trkpt>
      <trkpt lat="47.5756910" lon="7.8289670">
        <ele>300.8</ele>
        <time>2022-06-02T11:17:42Z</time>
      </trkpt>
      <trkpt lat="47.5756840" lon="7.8289020">
        <ele>300.8</ele>
        <time>2022-06-02T11:17:43Z</time>
      </trkpt>
      <trkpt lat="47.5756530" lon="7.8287080">
        <ele>300.8</ele>
        <time>2022-06-02T11:17:46Z</time>
      </trkpt>
      <trkpt lat="47.5756290" lon="7.8286490">
        <ele>300.8</ele>
        <time>2022-06-02T11:17:47Z</time>
      </trkpt>
      <trkpt lat="47.5756020" lon="7.8286120">
        <ele>301.0</ele>
        <time>2022-06-02T11:17:48Z</time>
      </trkpt>
      <trkpt lat="47.5755100" lon="7.8285520">
        <ele>301.0</ele>
        <time>2022-06-02T11:17:50Z</time>
      </trkpt>
      <trkpt lat="47.5754630" lon="7.8285350">
        <ele>301.0</ele>
        <time>2022-06-02T11:17:51Z</time>
      </trkpt>
      <trkpt lat="47.5754210" lon="7.8285180">
        <ele>301.0</ele>
        <time>2022-06-02T11:17:52Z</time>
      </trkpt>
      <trkpt lat="47.5752660" lon="7.8284180">
        <ele>301.2</ele>
        <time>2022-06-02T11:17:56Z</time>
      </trkpt>
      <trkpt lat="47.5752330" lon="7.8283900">
        <ele>301.4</ele>
        <time>2022-06-02T11:17:57Z</time>
      </trkpt>
      <trkpt lat="47.5748970" lon="7.8281650">
        <ele>302.2</ele>
        <time>2022-06-02T11:18:06Z</time>
      </trkpt>
      <trkpt lat="47.5748660" lon="7.8281490">
        <ele>302.4</ele>
        <time>2022-06-02T11:18:07Z</time>
      </trkpt>
      <trkpt lat="47.5744760" lon="7.8279340">
        <ele>302.8</ele>
        <time>2022-06-02T11:18:17Z</time>
      </trkpt>
      <trkpt lat="47.5744380" lon="7.8279120">
        <ele>303.0</ele>
        <time>2022-06-02T11:18:18Z</time>
      </trkpt>
      <trkpt lat="47.5743360" lon="7.8278330">
        <ele>303.2</ele>
        <time>2022-06-02T11:18:21Z</time>
      </trkpt>
      <trkpt lat="47.5742640" lon="7.8277710">
        <ele>303.4</ele>
        <time>2022-06-02T11:18:23Z</time>
      </trkpt>
      <trkpt lat="47.5741970" lon="7.8277100">
        <ele>303.6</ele>
        <time>2022-06-02T11:18:25Z</time>
      </trkpt>
      <trkpt lat="47.5739960" lon="7.8274610">
        <ele>304.0</ele>
        <time>2022-06-02T11:18:31Z</time>
      </trkpt>
      <trkpt lat="47.5736540" lon="7.8270700">
        <ele>303.8</ele>
        <time>2022-06-02T11:18:40Z</time>
      </trkpt>
      <trkpt lat="47.5732620" lon="7.8267450">
        <ele>304.4</ele>
        <time>2022-06-02T11:18:50Z</time>
      </trkpt>
      <trkpt lat="47.5729060" lon="7.8264850">
        <ele>304.6</ele>
        <time>2022-06-02T11:18:59Z</time>
      </trkpt>
      <trkpt lat="47.5725540" lon="7.8262300">
        <ele>304.4</ele>
        <time>2022-06-02T11:19:08Z</time>
      </trkpt>
      <trkpt lat="47.5721870" lon="7.8259640">
        <ele>304.0</ele>
        <time>2022-06-02T11:19:17Z</time>
      </trkpt>
      <trkpt lat="47.5719220" lon="7.8257120">
        <ele>303.6</ele>
        <time>2022-06-02T11:19:24Z</time>
      </trkpt>
      <trkpt lat="47.5715660" lon="7.8252690">
        <ele>303.8</ele>
        <time>2022-06-02T11:19:34Z</time>
      </trkpt>
      <trkpt lat="47.5714090" lon="7.8250180">
        <ele>303.8</ele>
        <time>2022-06-02T11:19:40Z</time>
      </trkpt>
      <trkpt lat="47.5712700" lon="7.8247960">
        <ele>304.0</ele>
        <time>2022-06-02T11:19:46Z</time>
      </trkpt>
      <trkpt lat="47.5710930" lon="7.8244860">
        <ele>303.8</ele>
        <time>2022-06-02T11:19:54Z</time>
      </trkpt>
      <trkpt lat="47.5710160" lon="7.8243190">
        <ele>303.6</ele>
        <time>2022-06-02T11:19:59Z</time>
      </trkpt>
      <trkpt lat="47.5709050" lon="7.8240250">
        <ele>303.4</ele>
        <time>2022-06-02T11:20:07Z</time>
      </trkpt>
      <trkpt lat="47.5707770" lon="7.8237210">
        <ele>303.0</ele>
        <time>2022-06-02T11:20:14Z</time>
      </trkpt>
      <trkpt lat="47.5706650" lon="7.8235070">
        <ele>303.2</ele>
        <time>2022-06-02T11:20:20Z</time>
      </trkpt>
      <trkpt lat="47.5706150" lon="7.8234420">
        <ele>303.0</ele>
        <time>2022-06-02T11:20:22Z</time>
      </trkpt>
      <trkpt lat="47.5704350" lon="7.8232580">
        <ele>302.8</ele>
        <time>2022-06-02T11:20:27Z</time>
      </trkpt>
      <trkpt lat="47.5702570" lon="7.8231460">
        <ele>301.8</ele>
        <time>2022-06-02T11:20:31Z</time>
      </trkpt>
      <trkpt lat="47.5701530" lon="7.8231070">
        <ele>301.2</ele>
        <time>2022-06-02T11:20:33Z</time>
      </trkpt>
      <trkpt lat="47.5700510" lon="7.8230870">
        <ele>300.8</ele>
        <time>2022-06-02T11:20:35Z</time>
      </trkpt>
      <trkpt lat="47.5698490" lon="7.8230890">
        <ele>300.4</ele>
        <time>2022-06-02T11:20:39Z</time>
      </trkpt>
      <trkpt lat="47.5695010" lon="7.8230570">
        <ele>300.2</ele>
        <time>2022-06-02T11:20:46Z</time>
      </trkpt>
      <trkpt lat="47.5692810" lon="7.8230450">
        <ele>300.2</ele>
        <time>2022-06-02T11:20:52Z</time>
      </trkpt>
      <trkpt lat="47.5690600" lon="7.8230280">
        <ele>300.6</ele>
        <time>2022-06-02T11:20:58Z</time>
      </trkpt>
      <trkpt lat="47.5686790" lon="7.8230320">
        <ele>301.8</ele>
        <time>2022-06-02T11:21:08Z</time>
      </trkpt>
      <trkpt lat="47.5686360" lon="7.8230220">
        <ele>301.8</ele>
        <time>2022-06-02T11:21:09Z</time>
      </trkpt>
      <trkpt lat="47.5684920" lon="7.8229700">
        <ele>302.4</ele>
        <time>2022-06-02T11:21:14Z</time>
      </trkpt>
      <trkpt lat="47.5684390" lon="7.8229320">
        <ele>302.6</ele>
        <time>2022-06-02T11:21:17Z</time>
      </trkpt>
      <trkpt lat="47.5684190" lon="7.8228600">
        <ele>302.8</ele>
        <time>2022-06-02T11:21:19Z</time>
      </trkpt>
      <trkpt lat="47.5684180" lon="7.8225880">
        <ele>303.0</ele>
        <time>2022-06-02T11:21:24Z</time>
      </trkpt>
      <trkpt lat="47.5684320" lon="7.8220680">
        <ele>302.6</ele>
        <time>2022-06-02T11:21:31Z</time>
      </trkpt>
      <trkpt lat="47.5684420" lon="7.8215550">
        <ele>302.0</ele>
        <time>2022-06-02T11:21:38Z</time>
      </trkpt>
      <trkpt lat="47.5684480" lon="7.8214010">
        <ele>302.0</ele>
        <time>2022-06-02T11:21:40Z</time>
      </trkpt>
      <trkpt lat="47.5684440" lon="7.8208500">
        <ele>301.8</ele>
        <time>2022-06-02T11:21:48Z</time>
      </trkpt>
      <trkpt lat="47.5684470" lon="7.8202460">
        <ele>301.8</ele>
        <time>2022-06-02T11:21:56Z</time>
      </trkpt>
      <trkpt lat="47.5683970" lon="7.8197270">
        <ele>300.8</ele>
        <time>2022-06-02T11:22:02Z</time>
      </trkpt>
      <trkpt lat="47.5682860" lon="7.8192830">
        <ele>300.2</ele>
        <time>2022-06-02T11:22:08Z</time>
      </trkpt>
      <trkpt lat="47.5682450" lon="7.8191600">
        <ele>300.0</ele>
        <time>2022-06-02T11:22:10Z</time>
      </trkpt>
      <trkpt lat="47.5681420" lon="7.8188080">
        <ele>299.8</ele>
        <time>2022-06-02T11:22:15Z</time>
      </trkpt>
      <trkpt lat="47.5681150" lon="7.8186550">
        <ele>299.8</ele>
        <time>2022-06-02T11:22:17Z</time>
      </trkpt>
      <trkpt lat="47.5680890" lon="7.8184160">
        <ele>299.6</ele>
        <time>2022-06-02T11:22:20Z</time>
      </trkpt>
      <trkpt lat="47.5681010" lon="7.8181470">
        <ele>299.4</ele>
        <time>2022-06-02T11:22:23Z</time>
      </trkpt>
      <trkpt lat="47.5680840" lon="7.8178620">
        <ele>299.2</ele>
        <time>2022-06-02T11:22:26Z</time>
      </trkpt>
      <trkpt lat="47.5680560" lon="7.8176960">
        <ele>299.0</ele>
        <time>2022-06-02T11:22:28Z</time>
      </trkpt>
      <trkpt lat="47.5680160" lon="7.8173810">
        <ele>299.0</ele>
        <time>2022-06-02T11:22:32Z</time>
      </trkpt>
      <trkpt lat="47.5680060" lon="7.8172180">
        <ele>298.8</ele>
        <time>2022-06-02T11:22:34Z</time>
      </trkpt>
      <trkpt lat="47.5680210" lon="7.8166430">
        <ele>298.4</ele>
        <time>2022-06-02T11:22:40Z</time>
      </trkpt>
      <trkpt lat="47.5680710" lon="7.8162010">
        <ele>297.6</ele>
        <time>2022-06-02T11:22:44Z</time>
      </trkpt>
      <trkpt lat="47.5681320" lon="7.8159070">
        <ele>296.6</ele>
        <time>2022-06-02T11:22:47Z</time>
      </trkpt>
      <trkpt lat="47.5681950" lon="7.8156120">
        <ele>295.2</ele>
        <time>2022-06-02T11:22:50Z</time>
      </trkpt>
      <trkpt lat="47.5682420" lon="7.8154350">
        <ele>294.2</ele>
        <time>2022-06-02T11:22:52Z</time>
      </trkpt>
      <trkpt lat="47.5682630" lon="7.8153370">
        <ele>293.4</ele>
        <time>2022-06-02T11:22:53Z</time>
      </trkpt>
      <trkpt lat="47.5682820" lon="7.8152330">
        <ele>293.0</ele>
        <time>2022-06-02T11:22:54Z</time>
      </trkpt>
      <trkpt lat="47.5683220" lon="7.8150230">
        <ele>291.8</ele>
        <time>2022-06-02T11:22:56Z</time>
      </trkpt>
      <trkpt lat="47.5683450" lon="7.8149200">
        <ele>291.2</ele>
        <time>2022-06-02T11:22:57Z</time>
      </trkpt>
      <trkpt lat="47.5683950" lon="7.8146930">
        <ele>290.6</ele>
        <time>2022-06-02T11:22:59Z</time>
      </trkpt>
      <trkpt lat="47.5684380" lon="7.8145080">
        <ele>289.4</ele>
        <time>2022-06-02T11:23:01Z</time>
      </trkpt>
      <trkpt lat="47.5684900" lon="7.8142040">
        <ele>287.6</ele>
        <time>2022-06-02T11:23:04Z</time>
      </trkpt>
      <trkpt lat="47.5685100" lon="7.8140790">
        <ele>286.4</ele>
        <time>2022-06-02T11:23:06Z</time>
      </trkpt>
      <trkpt lat="47.5684300" lon="7.8139270">
        <ele>285.6</ele>
        <time>2022-06-02T11:23:08Z</time>
      </trkpt>
      <trkpt lat="47.5683880" lon="7.8138680">
        <ele>284.8</ele>
        <time>2022-06-02T11:23:09Z</time>
      </trkpt>
      <trkpt lat="47.5682520" lon="7.8136830">
        <ele>283.8</ele>
        <time>2022-06-02T11:23:12Z</time>
      </trkpt>
      <trkpt lat="47.5681910" lon="7.8135390">
        <ele>283.2</ele>
        <time>2022-06-02T11:23:14Z</time>
      </trkpt>
      <trkpt lat="47.5681700" lon="7.8133930">
        <ele>282.8</ele>
        <time>2022-06-02T11:23:16Z</time>
      </trkpt>
      <trkpt lat="47.5681590" lon="7.8133180">
        <ele>282.4</ele>
        <time>2022-06-02T11:23:17Z</time>
      </trkpt>
      <trkpt lat="47.5681450" lon="7.8132500">
        <ele>282.2</ele>
        <time>2022-06-02T11:23:18Z</time>
      </trkpt>
      <trkpt lat="47.5681290" lon="7.8131850">
        <ele>282.2</ele>
        <time>2022-06-02T11:23:19Z</time>
      </trkpt>
      <trkpt lat="47.5680650" lon="7.8130190">
        <ele>282.0</ele>
        <time>2022-06-02T11:23:22Z</time>
      </trkpt>
      <trkpt lat="47.5679410" lon="7.8128050">
        <ele>281.8</ele>
        <time>2022-06-02T11:23:27Z</time>
      </trkpt>
      <trkpt lat="47.5679090" lon="7.8127660">
        <ele>281.8</ele>
        <time>2022-06-02T11:23:28Z</time>
      </trkpt>
      <trkpt lat="47.5678800" lon="7.8127240">
        <ele>281.8</ele>
        <time>2022-06-02T11:23:29Z</time>
      </trkpt>
      <trkpt lat="47.5677100" lon="7.8124530">
        <ele>281.4</ele>
        <time>2022-06-02T11:23:34Z</time>
      </trkpt>
      <trkpt lat="47.5675670" lon="7.8122550">
        <ele>280.8</ele>
        <time>2022-06-02T11:23:37Z</time>
      </trkpt>
      <trkpt lat="47.5674840" lon="7.8120950">
        <ele>280.4</ele>
        <time>2022-06-02T11:23:39Z</time>
      </trkpt>
      <trkpt lat="47.5673440" lon="7.8117610">
        <ele>278.8</ele>
        <time>2022-06-02T11:23:43Z</time>
      </trkpt>
      <trkpt lat="47.5672590" lon="7.8115320">
        <ele>278.0</ele>
        <time>2022-06-02T11:23:46Z</time>
      </trkpt>
      <trkpt lat="47.5672320" lon="7.8114620">
        <ele>277.4</ele>
        <time>2022-06-02T11:23:47Z</time>
      </trkpt>
      <trkpt lat="47.5672040" lon="7.8113960">
        <ele>277.2</ele>
        <time>2022-06-02T11:23:48Z</time>
      </trkpt>
      <trkpt lat="47.5671580" lon="7.8112760">
        <ele>277.0</ele>
        <time>2022-06-02T11:23:50Z</time>
      </trkpt>
      <trkpt lat="47.5671430" lon="7.8112220">
        <ele>276.8</ele>
        <time>2022-06-02T11:23:51Z</time>
      </trkpt>
      <trkpt lat="47.5670660" lon="7.8110960">
        <ele>276.6</ele>
        <time>2022-06-02T11:23:55Z</time>
      </trkpt>
      <trkpt lat="47.5670080" lon="7.8110360">
        <ele>276.6</ele>
        <time>2022-06-02T11:23:58Z</time>
      </trkpt>
      <trkpt lat="47.5669890" lon="7.8109660">
        <ele>276.6</ele>
        <time>2022-06-02T11:24:00Z</time>
      </trkpt>
      <trkpt lat="47.5669030" lon="7.8107920">
        <ele>276.4</ele>
        <time>2022-06-02T11:24:05Z</time>
      </trkpt>
      <trkpt lat="47.5668960" lon="7.8107760">
        <ele>275.4</ele>
        <time>2022-06-02T11:24:10Z</time>
      </trkpt>
      <trkpt lat="47.5669250" lon="7.8108550">
        <ele>274.4</ele>
        <time>2022-06-02T11:24:33Z</time>
      </trkpt>
      <trkpt lat="47.5669520" lon="7.8109040">
        <ele>274.4</ele>
        <time>2022-06-02T11:24:35Z</time>
      </trkpt>
      <trkpt lat="47.5669980" lon="7.8109950">
        <ele>274.8</ele>
        <time>2022-06-02T11:24:39Z</time>
      </trkpt>
      <trkpt lat="47.5670260" lon="7.8110350">
        <ele>275.2</ele>
        <time>2022-06-02T11:24:42Z</time>
      </trkpt>
      <trkpt lat="47.5670690" lon="7.8110500">
        <ele>275.4</ele>
        <time>2022-06-02T11:24:44Z</time>
      </trkpt>
      <trkpt lat="47.5671270" lon="7.8110840">
        <ele>275.8</ele>
        <time>2022-06-02T11:24:47Z</time>
      </trkpt>
      <trkpt lat="47.5671380" lon="7.8111140">
        <ele>276.0</ele>
        <time>2022-06-02T11:24:48Z</time>
      </trkpt>
      <trkpt lat="47.5671530" lon="7.8111830">
        <ele>276.2</ele>
        <time>2022-06-02T11:24:50Z</time>
      </trkpt>
      <trkpt lat="47.5671700" lon="7.8113110">
        <ele>276.6</ele>
        <time>2022-06-02T11:24:54Z</time>
      </trkpt>
      <trkpt lat="47.5671670" lon="7.8113480">
        <ele>276.8</ele>
        <time>2022-06-02T11:24:59Z</time>
      </trkpt>
      <trkpt lat="47.5668710" lon="7.8110020">
        <ele>284.2</ele>
        <time>2022-06-02T11:25:59Z</time>
      </trkpt>
      <trkpt lat="47.5668480" lon="7.8109670">
        <ele>284.2</ele>
        <time>2022-06-02T11:26:01Z</time>
      </trkpt>
      <trkpt lat="47.5667890" lon="7.8109110">
        <ele>284.4</ele>
        <time>2022-06-02T11:26:04Z</time>
      </trkpt>
      <trkpt lat="47.5667490" lon="7.8108360">
        <ele>285.0</ele>
        <time>2022-06-02T11:26:07Z</time>
      </trkpt>
      <trkpt lat="47.5667250" lon="7.8108130">
        <ele>285.0</ele>
        <time>2022-06-02T11:26:08Z</time>
      </trkpt>
      <trkpt lat="47.5666850" lon="7.8107950">
        <ele>285.2</ele>
        <time>2022-06-02T11:26:10Z</time>
      </trkpt>
      <trkpt lat="47.5666550" lon="7.8107510">
        <ele>285.6</ele>
        <time>2022-06-02T11:26:12Z</time>
      </trkpt>
      <trkpt lat="47.5666340" lon="7.8107150">
        <ele>286.0</ele>
        <time>2022-06-02T11:26:14Z</time>
      </trkpt>
      <trkpt lat="47.5666210" lon="7.8106860">
        <ele>286.4</ele>
        <time>2022-06-02T11:26:16Z</time>
      </trkpt>
      <trkpt lat="47.5665600" lon="7.8106000">
        <ele>287.6</ele>
        <time>2022-06-02T11:26:21Z</time>
      </trkpt>
      <trkpt lat="47.5664970" lon="7.8104690">
        <ele>288.8</ele>
        <time>2022-06-02T11:26:26Z</time>
      </trkpt>
      <trkpt lat="47.5664850" lon="7.8104370">
        <ele>289.2</ele>
        <time>2022-06-02T11:26:27Z</time>
      </trkpt>
      <trkpt lat="47.5664550" lon="7.8103920">
        <ele>289.8</ele>
        <time>2022-06-02T11:26:29Z</time>
      </trkpt>
      <trkpt lat="47.5664250" lon="7.8103260">
        <ele>290.8</ele>
        <time>2022-06-02T11:26:33Z</time>
      </trkpt>
      <trkpt lat="47.5664010" lon="7.8102730">
        <ele>291.8</ele>
        <time>2022-06-02T11:26:36Z</time>
      </trkpt>
      <trkpt lat="47.5663740" lon="7.8102070">
        <ele>293.0</ele>
        <time>2022-06-02T11:26:39Z</time>
      </trkpt>
      <trkpt lat="47.5663630" lon="7.8101860">
        <ele>293.2</ele>
        <time>2022-06-02T11:26:40Z</time>
      </trkpt>
      <trkpt lat="47.5663300" lon="7.8100850">
        <ele>294.4</ele>
        <time>2022-06-02T11:26:44Z</time>
      </trkpt>
      <trkpt lat="47.5662610" lon="7.8100530">
        <ele>295.4</ele>
        <time>2022-06-02T11:26:48Z</time>
      </trkpt>
      <trkpt lat="47.5662320" lon="7.8100280">
        <ele>296.6</ele>
        <time>2022-06-02T11:26:51Z</time>
      </trkpt>
      <trkpt lat="47.5661960" lon="7.8099600">
        <ele>297.0</ele>
        <time>2022-06-02T11:26:54Z</time>
      </trkpt>
      <trkpt lat="47.5661840" lon="7.8099400">
        <ele>297.4</ele>
        <time>2022-06-02T11:26:55Z</time>
      </trkpt>
      <trkpt lat="47.5661620" lon="7.8099000">
        <ele>297.6</ele>
        <time>2022-06-02T11:27:00Z</time>
      </trkpt>
      <trkpt lat="47.5661690" lon="7.8099690">
        <ele>296.6</ele>
        <time>2022-06-02T11:29:02Z</time>
      </trkpt>
      <trkpt lat="47.5660870" lon="7.8096970">
        <ele>296.4</ele>
        <time>2022-06-02T11:29:09Z</time>
      </trkpt>
      <trkpt lat="47.5659710" lon="7.8093890">
        <ele>296.2</ele>
        <time>2022-06-02T11:29:15Z</time>
      </trkpt>
      <trkpt lat="47.5658250" lon="7.8090150">
        <ele>296.2</ele>
        <time>2022-06-02T11:29:21Z</time>
      </trkpt>
      <trkpt lat="47.5657960" lon="7.8089550">
        <ele>296.2</ele>
        <time>2022-06-02T11:29:22Z</time>
      </trkpt>
      <trkpt lat="47.5657000" lon="7.8087000">
        <ele>296.4</ele>
        <time>2022-06-02T11:29:26Z</time>
      </trkpt>
      <trkpt lat="47.5656180" lon="7.8084320">
        <ele>296.2</ele>
        <time>2022-06-02T11:29:30Z</time>
      </trkpt>
      <trkpt lat="47.5655400" lon="7.8082260">
        <ele>296.0</ele>
        <time>2022-06-02T11:29:33Z</time>
      </trkpt>
      <trkpt lat="47.5654540" lon="7.8080750">
        <ele>295.8</ele>
        <time>2022-06-02T11:29:35Z</time>
      </trkpt>
      <trkpt lat="47.5653730" lon="7.8079500">
        <ele>295.8</ele>
        <time>2022-06-02T11:29:37Z</time>
      </trkpt>
      <trkpt lat="47.5653240" lon="7.8078480">
        <ele>295.8</ele>
        <time>2022-06-02T11:29:39Z</time>
      </trkpt>
      <trkpt lat="47.5652490" lon="7.8076230">
        <ele>295.6</ele>
        <time>2022-06-02T11:29:42Z</time>
      </trkpt>
      <trkpt lat="47.5651050" lon="7.8071750">
        <ele>295.0</ele>
        <time>2022-06-02T11:29:47Z</time>
      </trkpt>
      <trkpt lat="47.5650410" lon="7.8069920">
        <ele>293.8</ele>
        <time>2022-06-02T11:29:49Z</time>
      </trkpt>
      <trkpt lat="47.5650230" lon="7.8068910">
        <ele>293.6</ele>
        <time>2022-06-02T11:29:50Z</time>
      </trkpt>
      <trkpt lat="47.5650060" lon="7.8067850">
        <ele>293.2</ele>
        <time>2022-06-02T11:29:51Z</time>
      </trkpt>
      <trkpt lat="47.5649410" lon="7.8065840">
        <ele>292.4</ele>
        <time>2022-06-02T11:29:53Z</time>
      </trkpt>
      <trkpt lat="47.5648930" lon="7.8064950">
        <ele>292.2</ele>
        <time>2022-06-02T11:29:54Z</time>
      </trkpt>
      <trkpt lat="47.5647970" lon="7.8063290">
        <ele>290.8</ele>
        <time>2022-06-02T11:29:56Z</time>
      </trkpt>
      <trkpt lat="47.5647170" lon="7.8061720">
        <ele>289.6</ele>
        <time>2022-06-02T11:29:58Z</time>
      </trkpt>
      <trkpt lat="47.5646850" lon="7.8061000">
        <ele>289.2</ele>
        <time>2022-06-02T11:29:59Z</time>
      </trkpt>
      <trkpt lat="47.5646190" lon="7.8059590">
        <ele>288.4</ele>
        <time>2022-06-02T11:30:02Z</time>
      </trkpt>
      <trkpt lat="47.5646060" lon="7.8059220">
        <ele>288.2</ele>
        <time>2022-06-02T11:30:03Z</time>
      </trkpt>
      <trkpt lat="47.5645440" lon="7.8057150">
        <ele>287.6</ele>
        <time>2022-06-02T11:30:10Z</time>
      </trkpt>
      <trkpt lat="47.5644340" lon="7.8053780">
        <ele>287.4</ele>
        <time>2022-06-02T11:30:18Z</time>
      </trkpt>
      <trkpt lat="47.5644080" lon="7.8052550">
        <ele>287.4</ele>
        <time>2022-06-02T11:30:20Z</time>
      </trkpt>
      <trkpt lat="47.5643760" lon="7.8051140">
        <ele>287.2</ele>
        <time>2022-06-02T11:30:22Z</time>
      </trkpt>
      <trkpt lat="47.5642790" lon="7.8047500">
        <ele>286.2</ele>
        <time>2022-06-02T11:30:26Z</time>
      </trkpt>
      <trkpt lat="47.5641950" lon="7.8045310">
        <ele>285.0</ele>
        <time>2022-06-02T11:30:29Z</time>
      </trkpt>
      <trkpt lat="47.5641790" lon="7.8044820">
        <ele>284.2</ele>
        <time>2022-06-02T11:30:30Z</time>
      </trkpt>
      <trkpt lat="47.5641680" lon="7.8044460">
        <ele>284.0</ele>
        <time>2022-06-02T11:30:31Z</time>
      </trkpt>
      <trkpt lat="47.5641610" lon="7.8044200">
        <ele>283.8</ele>
        <time>2022-06-02T11:30:32Z</time>
      </trkpt>
      <trkpt lat="47.5641560" lon="7.8043990">
        <ele>283.4</ele>
        <time>2022-06-02T11:30:33Z</time>
      </trkpt>
      <trkpt lat="47.5641560" lon="7.8043820">
        <ele>282.4</ele>
        <time>2022-06-02T11:30:34Z</time>
      </trkpt>
      <trkpt lat="47.5641560" lon="7.8043640">
        <ele>281.6</ele>
        <time>2022-06-02T11:30:35Z</time>
      </trkpt>
      <trkpt lat="47.5641570" lon="7.8043450">
        <ele>281.4</ele>
        <time>2022-06-02T11:30:36Z</time>
      </trkpt>
      <trkpt lat="47.5641510" lon="7.8043030">
        <ele>281.0</ele>
        <time>2022-06-02T11:30:38Z</time>
      </trkpt>
      <trkpt lat="47.5641470" lon="7.8043000">
        <ele>280.6</ele>
        <time>2022-06-02T11:30:40Z</time>
      </trkpt>
      <trkpt lat="47.5641470" lon="7.8043000">
        <ele>280.4</ele>
        <time>2022-06-02T11:30:41Z</time>
      </trkpt>
      <trkpt lat="47.5641200" lon="7.8042900">
        <ele>278.2</ele>
        <time>2022-06-02T11:32:17Z</time>
      </trkpt>
      <trkpt lat="47.5641010" lon="7.8042800">
        <ele>278.2</ele>
        <time>2022-06-02T11:32:18Z</time>
      </trkpt>
      <trkpt lat="47.5640880" lon="7.8042580">
        <ele>278.2</ele>
        <time>2022-06-02T11:32:19Z</time>
      </trkpt>
      <trkpt lat="47.5640090" lon="7.8040520">
        <ele>278.0</ele>
        <time>2022-06-02T11:32:25Z</time>
      </trkpt>
      <trkpt lat="47.5639730" lon="7.8039610">
        <ele>278.0</ele>
        <time>2022-06-02T11:32:29Z</time>
      </trkpt>
      <trkpt lat="47.5639680" lon="7.8039570">
        <ele>278.0</ele>
        <time>2022-06-02T11:32:30Z</time>
      </trkpt>
      <trkpt lat="47.5639650" lon="7.8039860">
        <ele>278.0</ele>
        <time>2022-06-02T11:32:32Z</time>
      </trkpt>
      <trkpt lat="47.5639800" lon="7.8040100">
        <ele>278.0</ele>
        <time>2022-06-02T11:32:34Z</time>
      </trkpt>
      <trkpt lat="47.5640760" lon="7.8041610">
        <ele>278.4</ele>
        <time>2022-06-02T11:32:40Z</time>
      </trkpt>
      <trkpt lat="47.5640830" lon="7.8042450">
        <ele>278.4</ele>
        <time>2022-06-02T11:32:42Z</time>
      </trkpt>
      <trkpt lat="47.5640450" lon="7.8043290">
        <ele>278.4</ele>
        <time>2022-06-02T11:32:44Z</time>
      </trkpt>
      <trkpt lat="47.5638680" lon="7.8044890">
        <ele>278.6</ele>
        <time>2022-06-02T11:32:49Z</time>
      </trkpt>
      <trkpt lat="47.5637090" lon="7.8045640">
        <ele>279.2</ele>
        <time>2022-06-02T11:32:54Z</time>
      </trkpt>
      <trkpt lat="47.5636540" lon="7.8045620">
        <ele>279.6</ele>
        <time>2022-06-02T11:32:56Z</time>
      </trkpt>
      <trkpt lat="47.5635490" lon="7.8045290">
        <ele>280.0</ele>
        <time>2022-06-02T11:33:00Z</time>
      </trkpt>
      <trkpt lat="47.5634500" lon="7.8045180">
        <ele>280.6</ele>
        <time>2022-06-02T11:33:04Z</time>
      </trkpt>
      <trkpt lat="47.5633760" lon="7.8044930">
        <ele>280.8</ele>
        <time>2022-06-02T11:33:07Z</time>
      </trkpt>
      <trkpt lat="47.5632560" lon="7.8044100">
        <ele>281.4</ele>
        <time>2022-06-02T11:33:13Z</time>
      </trkpt>
      <trkpt lat="47.5632220" lon="7.8043790">
        <ele>281.8</ele>
        <time>2022-06-02T11:33:15Z</time>
      </trkpt>
      <trkpt lat="47.5630980" lon="7.8042990">
        <ele>282.0</ele>
        <time>2022-06-02T11:33:21Z</time>
      </trkpt>
      <trkpt lat="47.5629980" lon="7.8042440">
        <ele>282.4</ele>
        <time>2022-06-02T11:33:27Z</time>
      </trkpt>
      <trkpt lat="47.5629130" lon="7.8041990">
        <ele>282.8</ele>
        <time>2022-06-02T11:33:32Z</time>
      </trkpt>
      <trkpt lat="47.5628720" lon="7.8041540">
        <ele>282.8</ele>
        <time>2022-06-02T11:33:34Z</time>
      </trkpt>
      <trkpt lat="47.5627740" lon="7.8040910">
        <ele>283.0</ele>
        <time>2022-06-02T11:33:38Z</time>
      </trkpt>
      <trkpt lat="47.5627220" lon="7.8040610">
        <ele>283.0</ele>
        <time>2022-06-02T11:33:40Z</time>
      </trkpt>
      <trkpt lat="47.5625280" lon="7.8039250">
        <ele>283.0</ele>
        <time>2022-06-02T11:33:48Z</time>
      </trkpt>
      <trkpt lat="47.5623230" lon="7.8037770">
        <ele>282.8</ele>
        <time>2022-06-02T11:33:58Z</time>
      </trkpt>
      <trkpt lat="47.5623040" lon="7.8037650">
        <ele>282.8</ele>
        <time>2022-06-02T11:33:59Z</time>
      </trkpt>
      <trkpt lat="47.5622400" lon="7.8037500">
        <ele>282.8</ele>
        <time>2022-06-02T11:34:02Z</time>
      </trkpt>
      <trkpt lat="47.5621670" lon="7.8037150">
        <ele>282.8</ele>
        <time>2022-06-02T11:34:07Z</time>
      </trkpt>
      <trkpt lat="47.5621550" lon="7.8036800">
        <ele>282.8</ele>
        <time>2022-06-02T11:34:09Z</time>
      </trkpt>
      <trkpt lat="47.5621410" lon="7.8036460">
        <ele>282.6</ele>
        <time>2022-06-02T11:34:11Z</time>
      </trkpt>
      <trkpt lat="47.5621120" lon="7.8036350">
        <ele>282.8</ele>
        <time>2022-06-02T11:34:14Z</time>
      </trkpt>
      <trkpt lat="47.5621070" lon="7.8036310">
        <ele>282.8</ele>
        <time>2022-06-02T11:34:17Z</time>
      </trkpt>
      <trkpt lat="47.5621290" lon="7.8036920">
        <ele>282.2</ele>
        <time>2022-06-02T11:35:48Z</time>
      </trkpt>
      <trkpt lat="47.5621490" lon="7.8037090">
        <ele>282.2</ele>
        <time>2022-06-02T11:35:49Z</time>
      </trkpt>
      <trkpt lat="47.5623480" lon="7.8038580">
        <ele>282.2</ele>
        <time>2022-06-02T11:35:56Z</time>
      </trkpt>
      <trkpt lat="47.5625070" lon="7.8039670">
        <ele>282.0</ele>
        <time>2022-06-02T11:36:01Z</time>
      </trkpt>
      <trkpt lat="47.5625950" lon="7.8040280">
        <ele>282.2</ele>
        <time>2022-06-02T11:36:04Z</time>
      </trkpt>
      <trkpt lat="47.5627590" lon="7.8041200">
        <ele>282.2</ele>
        <time>2022-06-02T11:36:11Z</time>
      </trkpt>
      <trkpt lat="47.5627740" lon="7.8041170">
        <ele>282.4</ele>
        <time>2022-06-02T11:36:12Z</time>
      </trkpt>
      <trkpt lat="47.5627790" lon="7.8040830">
        <ele>282.4</ele>
        <time>2022-06-02T11:36:15Z</time>
      </trkpt>
      <trkpt lat="47.5627610" lon="7.8040610">
        <ele>282.4</ele>
        <time>2022-06-02T11:36:17Z</time>
      </trkpt>
      <trkpt lat="47.5627170" lon="7.8040440">
        <ele>282.6</ele>
        <time>2022-06-02T11:36:20Z</time>
      </trkpt>
      <trkpt lat="47.5625160" lon="7.8039210">
        <ele>282.6</ele>
        <time>2022-06-02T11:36:29Z</time>
      </trkpt>
      <trkpt lat="47.5622510" lon="7.8037510">
        <ele>282.6</ele>
        <time>2022-06-02T11:36:37Z</time>
      </trkpt>
      <trkpt lat="47.5619490" lon="7.8035410">
        <ele>282.6</ele>
        <time>2022-06-02T11:36:45Z</time>
      </trkpt>
      <trkpt lat="47.5616300" lon="7.8033420">
        <ele>282.8</ele>
        <time>2022-06-02T11:36:54Z</time>
      </trkpt>
      <trkpt lat="47.5614840" lon="7.8032450">
        <ele>282.8</ele>
        <time>2022-06-02T11:37:00Z</time>
      </trkpt>
      <trkpt lat="47.5613250" lon="7.8031380">
        <ele>282.8</ele>
        <time>2022-06-02T11:37:06Z</time>
      </trkpt>
      <trkpt lat="47.5611200" lon="7.8030010">
        <ele>282.6</ele>
        <time>2022-06-02T11:37:12Z</time>
      </trkpt>
      <trkpt lat="47.5608930" lon="7.8028580">
        <ele>282.4</ele>
        <time>2022-06-02T11:37:18Z</time>
      </trkpt>
      <trkpt lat="47.5605200" lon="7.8026300">
        <ele>282.6</ele>
        <time>2022-06-02T11:37:27Z</time>
      </trkpt>
      <trkpt lat="47.5601030" lon="7.8024240">
        <ele>283.0</ele>
        <time>2022-06-02T11:37:37Z</time>
      </trkpt>
      <trkpt lat="47.5597000" lon="7.8022440">
        <ele>283.2</ele>
        <time>2022-06-02T11:37:47Z</time>
      </trkpt>
      <trkpt lat="47.5592970" lon="7.8020400">
        <ele>283.2</ele>
        <time>2022-06-02T11:37:56Z</time>
      </trkpt>
      <trkpt lat="47.5589940" lon="7.8018710">
        <ele>283.2</ele>
        <time>2022-06-02T11:38:02Z</time>
      </trkpt>
      <trkpt lat="47.5589480" lon="7.8018510">
        <ele>283.2</ele>
        <time>2022-06-02T11:38:03Z</time>
      </trkpt>
      <trkpt lat="47.5587070" lon="7.8017350">
        <ele>283.2</ele>
        <time>2022-06-02T11:38:08Z</time>
      </trkpt>
      <trkpt lat="47.5586610" lon="7.8017030">
        <ele>283.2</ele>
        <time>2022-06-02T11:38:09Z</time>
      </trkpt>
      <trkpt lat="47.5582780" lon="7.8013560">
        <ele>283.0</ele>
        <time>2022-06-02T11:38:18Z</time>
      </trkpt>
      <trkpt lat="47.5580150" lon="7.8010300">
        <ele>282.6</ele>
        <time>2022-06-02T11:38:25Z</time>
      </trkpt>
      <trkpt lat="47.5578590" lon="7.8008360">
        <ele>282.4</ele>
        <time>2022-06-02T11:38:29Z</time>
      </trkpt>
      <trkpt lat="47.5578170" lon="7.8007900">
        <ele>282.4</ele>
        <time>2022-06-02T11:38:30Z</time>
      </trkpt>
      <trkpt lat="47.5577810" lon="7.8007440">
        <ele>282.4</ele>
        <time>2022-06-02T11:38:31Z</time>
      </trkpt>
      <trkpt lat="47.5573650" lon="7.8001790">
        <ele>282.0</ele>
        <time>2022-06-02T11:38:42Z</time>
      </trkpt>
      <trkpt lat="47.5571760" lon="7.7999180">
        <ele>281.8</ele>
        <time>2022-06-02T11:38:47Z</time>
      </trkpt>
      <trkpt lat="47.5570650" lon="7.7997700">
        <ele>281.8</ele>
        <time>2022-06-02T11:38:50Z</time>
      </trkpt>
      <trkpt lat="47.5567870" lon="7.7994210">
        <ele>281.8</ele>
        <time>2022-06-02T11:38:58Z</time>
      </trkpt>
      <trkpt lat="47.5565120" lon="7.7990510">
        <ele>281.6</ele>
        <time>2022-06-02T11:39:06Z</time>
      </trkpt>
      <trkpt lat="47.5562610" lon="7.7987110">
        <ele>281.6</ele>
        <time>2022-06-02T11:39:13Z</time>
      </trkpt>
      <trkpt lat="47.5559970" lon="7.7983300">
        <ele>281.6</ele>
        <time>2022-06-02T11:39:21Z</time>
      </trkpt>
      <trkpt lat="47.5559670" lon="7.7982850">
        <ele>281.2</ele>
        <time>2022-06-02T11:39:22Z</time>
      </trkpt>
      <trkpt lat="47.5558430" lon="7.7981170">
        <ele>281.0</ele>
        <time>2022-06-02T11:39:26Z</time>
      </trkpt>
      <trkpt lat="47.5558130" lon="7.7980690">
        <ele>281.0</ele>
        <time>2022-06-02T11:39:27Z</time>
      </trkpt>
      <trkpt lat="47.5556370" lon="7.7977370">
        <ele>281.0</ele>
        <time>2022-06-02T11:39:33Z</time>
      </trkpt>
      <trkpt lat="47.5556040" lon="7.7976810">
        <ele>281.0</ele>
        <time>2022-06-02T11:39:34Z</time>
      </trkpt>
      <trkpt lat="47.5554900" lon="7.7974590">
        <ele>281.0</ele>
        <time>2022-06-02T11:39:38Z</time>
      </trkpt>
      <trkpt lat="47.5554630" lon="7.7974070">
        <ele>281.0</ele>
        <time>2022-06-02T11:39:39Z</time>
      </trkpt>
      <trkpt lat="47.5553630" lon="7.7971390">
        <ele>280.6</ele>
        <time>2022-06-02T11:39:44Z</time>
      </trkpt>
      <trkpt lat="47.5553570" lon="7.7970310">
        <ele>280.6</ele>
        <time>2022-06-02T11:39:46Z</time>
      </trkpt>
      <trkpt lat="47.5553770" lon="7.7969870">
        <ele>280.6</ele>
        <time>2022-06-02T11:39:47Z</time>
      </trkpt>
      <trkpt lat="47.5554470" lon="7.7969190">
        <ele>280.6</ele>
        <time>2022-06-02T11:39:49Z</time>
      </trkpt>
      <trkpt lat="47.5554950" lon="7.7968900">
        <ele>280.6</ele>
        <time>2022-06-02T11:39:50Z</time>
      </trkpt>
      <trkpt lat="47.5555430" lon="7.7968530">
        <ele>280.6</ele>
        <time>2022-06-02T11:39:51Z</time>
      </trkpt>
      <trkpt lat="47.5556040" lon="7.7967280">
        <ele>280.6</ele>
        <time>2022-06-02T11:39:53Z</time>
      </trkpt>
      <trkpt lat="47.5555960" lon="7.7965550">
        <ele>280.0</ele>
        <time>2022-06-02T11:39:55Z</time>
      </trkpt>
      <trkpt lat="47.5555780" lon="7.7963920">
        <ele>279.6</ele>
        <time>2022-06-02T11:39:57Z</time>
      </trkpt>
      <trkpt lat="47.5555710" lon="7.7963340">
        <ele>279.2</ele>
        <time>2022-06-02T11:39:58Z</time>
      </trkpt>
      <trkpt lat="47.5555280" lon="7.7961260">
        <ele>278.6</ele>
        <time>2022-06-02T11:40:02Z</time>
      </trkpt>
      <trkpt lat="47.5555170" lon="7.7960660">
        <ele>278.0</ele>
        <time>2022-06-02T11:40:04Z</time>
      </trkpt>
      <trkpt lat="47.5554990" lon="7.7959830">
        <ele>278.0</ele>
        <time>2022-06-02T11:40:07Z</time>
      </trkpt>
      <trkpt lat="47.5554720" lon="7.7957170">
        <ele>277.6</ele>
        <time>2022-06-02T11:40:15Z</time>
      </trkpt>
      <trkpt lat="47.5554400" lon="7.7954730">
        <ele>277.6</ele>
        <time>2022-06-02T11:40:20Z</time>
      </trkpt>
      <trkpt lat="47.5554220" lon="7.7952390">
        <ele>277.6</ele>
        <time>2022-06-02T11:40:26Z</time>
      </trkpt>
      <trkpt lat="47.5553860" lon="7.7950130">
        <ele>277.2</ele>
        <time>2022-06-02T11:40:33Z</time>
      </trkpt>
      <trkpt lat="47.5553880" lon="7.7949830">
        <ele>277.2</ele>
        <time>2022-06-02T11:40:34Z</time>
      </trkpt>
      <trkpt lat="47.5553640" lon="7.7947260">
        <ele>277.2</ele>
        <time>2022-06-02T11:40:40Z</time>
      </trkpt>
      <trkpt lat="47.5553420" lon="7.7945220">
        <ele>276.8</ele>
        <time>2022-06-02T11:40:44Z</time>
      </trkpt>
      <trkpt lat="47.5553120" lon="7.7943060">
        <ele>276.4</ele>
        <time>2022-06-02T11:40:49Z</time>
      </trkpt>
      <trkpt lat="47.5553140" lon="7.7942780">
        <ele>276.4</ele>
        <time>2022-06-02T11:40:53Z</time>
      </trkpt>
      <trkpt lat="47.5553240" lon="7.7941450">
        <ele>276.4</ele>
        <time>2022-06-02T11:59:40Z</time>
      </trkpt>
      <trkpt lat="47.5553160" lon="7.7940450">
        <ele>276.4</ele>
        <time>2022-06-02T11:59:43Z</time>
      </trkpt>
      <trkpt lat="47.5553090" lon="7.7937790">
        <ele>276.2</ele>
        <time>2022-06-02T11:59:49Z</time>
      </trkpt>
      <trkpt lat="47.5552950" lon="7.7934150">
        <ele>275.8</ele>
        <time>2022-06-02T11:59:56Z</time>
      </trkpt>
      <trkpt lat="47.5552890" lon="7.7930450">
        <ele>275.6</ele>
        <time>2022-06-02T12:00:03Z</time>
      </trkpt>
      <trkpt lat="47.5552730" lon="7.7929660">
        <ele>275.6</ele>
        <time>2022-06-02T12:00:05Z</time>
      </trkpt>
      <trkpt lat="47.5552630" lon="7.7928890">
        <ele>275.6</ele>
        <time>2022-06-02T12:00:07Z</time>
      </trkpt>
      <trkpt lat="47.5551810" lon="7.7925750">
        <ele>275.2</ele>
        <time>2022-06-02T12:00:14Z</time>
      </trkpt>
      <trkpt lat="47.5551440" lon="7.7924410">
        <ele>275.0</ele>
        <time>2022-06-02T12:00:18Z</time>
      </trkpt>
      <trkpt lat="47.5550940" lon="7.7922450">
        <ele>275.0</ele>
        <time>2022-06-02T12:00:24Z</time>
      </trkpt>
      <trkpt lat="47.5550490" lon="7.7920120">
        <ele>274.8</ele>
        <time>2022-06-02T12:00:31Z</time>
      </trkpt>
      <trkpt lat="47.5550110" lon="7.7918410">
        <ele>274.6</ele>
        <time>2022-06-02T12:00:36Z</time>
      </trkpt>
      <trkpt lat="47.5549930" lon="7.7917560">
        <ele>274.4</ele>
        <time>2022-06-02T12:00:39Z</time>
      </trkpt>
      <trkpt lat="47.5549320" lon="7.7915410">
        <ele>273.8</ele>
        <time>2022-06-02T12:00:46Z</time>
      </trkpt>
      <trkpt lat="47.5549210" lon="7.7914800">
        <ele>273.8</ele>
        <time>2022-06-02T12:00:48Z</time>
      </trkpt>
      <trkpt lat="47.5548900" lon="7.7914170">
        <ele>273.6</ele>
        <time>2022-06-02T12:00:51Z</time>
      </trkpt>
      <trkpt lat="47.5548810" lon="7.7913960">
        <ele>273.6</ele>
        <time>2022-06-02T12:00:52Z</time>
      </trkpt>
      <trkpt lat="47.5548320" lon="7.7912230">
        <ele>272.8</ele>
        <time>2022-06-02T12:00:57Z</time>
      </trkpt>
      <trkpt lat="47.5548040" lon="7.7910070">
        <ele>272.6</ele>
        <time>2022-06-02T12:01:02Z</time>
      </trkpt>
      <trkpt lat="47.5547790" lon="7.7909520">
        <ele>272.4</ele>
        <time>2022-06-02T12:01:03Z</time>
      </trkpt>
      <trkpt lat="47.5547270" lon="7.7908610">
        <ele>272.2</ele>
        <time>2022-06-02T12:01:06Z</time>
      </trkpt>
      <trkpt lat="47.5547270" lon="7.7908540">
        <ele>272.0</ele>
        <time>2022-06-02T12:01:07Z</time>
      </trkpt>
      <trkpt lat="47.5547450" lon="7.7908550">
        <ele>272.2</ele>
        <time>2022-06-02T12:01:09Z</time>
      </trkpt>
      <trkpt lat="47.5547830" lon="7.7908620">
        <ele>272.2</ele>
        <time>2022-06-02T12:01:11Z</time>
      </trkpt>
      <trkpt lat="47.5548080" lon="7.7908510">
        <ele>272.2</ele>
        <time>2022-06-02T12:01:12Z</time>
      </trkpt>
      <trkpt lat="47.5548320" lon="7.7908220">
        <ele>272.4</ele>
        <time>2022-06-02T12:01:13Z</time>
      </trkpt>
      <trkpt lat="47.5548790" lon="7.7907310">
        <ele>272.4</ele>
        <time>2022-06-02T12:01:16Z</time>
      </trkpt>
      <trkpt lat="47.5549370" lon="7.7905450">
        <ele>272.6</ele>
        <time>2022-06-02T12:01:22Z</time>
      </trkpt>
      <trkpt lat="47.5549770" lon="7.7903370">
        <ele>273.6</ele>
        <time>2022-06-02T12:01:27Z</time>
      </trkpt>
      <trkpt lat="47.5549770" lon="7.7903000">
        <ele>273.8</ele>
        <time>2022-06-02T12:01:28Z</time>
      </trkpt>
      <trkpt lat="47.5550120" lon="7.7901450">
        <ele>274.4</ele>
        <time>2022-06-02T12:01:33Z</time>
      </trkpt>
      <trkpt lat="47.5550320" lon="7.7900680">
        <ele>274.8</ele>
        <time>2022-06-02T12:01:36Z</time>
      </trkpt>
      <trkpt lat="47.5550440" lon="7.7900470">
        <ele>274.8</ele>
        <time>2022-06-02T12:01:37Z</time>
      </trkpt>
      <trkpt lat="47.5550600" lon="7.7900320">
        <ele>275.0</ele>
        <time>2022-06-02T12:01:38Z</time>
      </trkpt>
      <trkpt lat="47.5550850" lon="7.7900130">
        <ele>275.2</ele>
        <time>2022-06-02T12:01:40Z</time>
      </trkpt>
      <trkpt lat="47.5551080" lon="7.7899370">
        <ele>275.6</ele>
        <time>2022-06-02T12:01:44Z</time>
      </trkpt>
      <trkpt lat="47.5551070" lon="7.7899310">
        <ele>275.6</ele>
        <time>2022-06-02T12:01:47Z</time>
      </trkpt>
      <trkpt lat="47.5550760" lon="7.7899160">
        <ele>276.8</ele>
        <time>2022-06-02T12:04:24Z</time>
      </trkpt>
      <trkpt lat="47.5550410" lon="7.7899570">
        <ele>276.8</ele>
        <time>2022-06-02T12:04:26Z</time>
      </trkpt>
      <trkpt lat="47.5550170" lon="7.7900380">
        <ele>276.8</ele>
        <time>2022-06-02T12:04:28Z</time>
      </trkpt>
      <trkpt lat="47.5549370" lon="7.7903780">
        <ele>276.6</ele>
        <time>2022-06-02T12:04:34Z</time>
      </trkpt>
      <trkpt lat="47.5548590" lon="7.7906540">
        <ele>275.4</ele>
        <time>2022-06-02T12:04:38Z</time>
      </trkpt>
      <trkpt lat="47.5548040" lon="7.7907800">
        <ele>274.8</ele>
        <time>2022-06-02T12:04:40Z</time>
      </trkpt>
      <trkpt lat="47.5547740" lon="7.7908270">
        <ele>274.6</ele>
        <time>2022-06-02T12:04:41Z</time>
      </trkpt>
      <trkpt lat="47.5547410" lon="7.7908640">
        <ele>274.2</ele>
        <time>2022-06-02T12:04:42Z</time>
      </trkpt>
      <trkpt lat="47.5546700" lon="7.7908740">
        <ele>274.2</ele>
        <time>2022-06-02T12:04:44Z</time>
      </trkpt>
      <trkpt lat="47.5545550" lon="7.7907800">
        <ele>273.4</ele>
        <time>2022-06-02T12:04:47Z</time>
      </trkpt>
      <trkpt lat="47.5545210" lon="7.7907420">
        <ele>273.4</ele>
        <time>2022-06-02T12:04:48Z</time>
      </trkpt>
      <trkpt lat="47.5544980" lon="7.7907050">
        <ele>273.2</ele>
        <time>2022-06-02T12:04:49Z</time>
      </trkpt>
      <trkpt lat="47.5544270" lon="7.7906340">
        <ele>272.8</ele>
        <time>2022-06-02T12:04:51Z</time>
      </trkpt>
      <trkpt lat="47.5541780" lon="7.7904790">
        <ele>273.0</ele>
        <time>2022-06-02T12:04:57Z</time>
      </trkpt>
      <trkpt lat="47.5539830" lon="7.7903420">
        <ele>273.2</ele>
        <time>2022-06-02T12:05:02Z</time>
      </trkpt>
      <trkpt lat="47.5537440" lon="7.7901930">
        <ele>273.6</ele>
        <time>2022-06-02T12:05:08Z</time>
      </trkpt>
      <trkpt lat="47.5536300" lon="7.7900710">
        <ele>274.2</ele>
        <time>2022-06-02T12:05:13Z</time>
      </trkpt>
      <trkpt lat="47.5536190" lon="7.7900420">
        <ele>274.4</ele>
        <time>2022-06-02T12:05:14Z</time>
      </trkpt>
      <trkpt lat="47.5535400" lon="7.7899330">
        <ele>274.8</ele>
        <time>2022-06-02T12:05:18Z</time>
      </trkpt>
      <trkpt lat="47.5534380" lon="7.7897810">
        <ele>275.6</ele>
        <time>2022-06-02T12:05:22Z</time>
      </trkpt>
      <trkpt lat="47.5533820" lon="7.7896650">
        <ele>276.0</ele>
        <time>2022-06-02T12:05:25Z</time>
      </trkpt>
      <trkpt lat="47.5533030" lon="7.7895120">
        <ele>276.6</ele>
        <time>2022-06-02T12:05:29Z</time>
      </trkpt>
      <trkpt lat="47.5532600" lon="7.7894450">
        <ele>277.0</ele>
        <time>2022-06-02T12:05:31Z</time>
      </trkpt>
      <trkpt lat="47.5531910" lon="7.7893220">
        <ele>277.8</ele>
        <time>2022-06-02T12:05:35Z</time>
      </trkpt>
      <trkpt lat="47.5531730" lon="7.7892930">
        <ele>278.0</ele>
        <time>2022-06-02T12:05:36Z</time>
      </trkpt>
      <trkpt lat="47.5531120" lon="7.7891910">
        <ele>278.6</ele>
        <time>2022-06-02T12:05:39Z</time>
      </trkpt>
      <trkpt lat="47.5530650" lon="7.7890930">
        <ele>279.0</ele>
        <time>2022-06-02T12:05:41Z</time>
      </trkpt>
      <trkpt lat="47.5530450" lon="7.7890420">
        <ele>279.4</ele>
        <time>2022-06-02T12:05:42Z</time>
      </trkpt>
      <trkpt lat="47.5529830" lon="7.7889550">
        <ele>280.0</ele>
        <time>2022-06-02T12:05:44Z</time>
      </trkpt>
      <trkpt lat="47.5528990" lon="7.7888040">
        <ele>281.0</ele>
        <time>2022-06-02T12:05:49Z</time>
      </trkpt>
      <trkpt lat="47.5528800" lon="7.7887740">
        <ele>281.2</ele>
        <time>2022-06-02T12:05:50Z</time>
      </trkpt>
      <trkpt lat="47.5527630" lon="7.7886180">
        <ele>282.4</ele>
        <time>2022-06-02T12:05:56Z</time>
      </trkpt>
      <trkpt lat="47.5527430" lon="7.7885950">
        <ele>282.4</ele>
        <time>2022-06-02T12:05:57Z</time>
      </trkpt>
      <trkpt lat="47.5526410" lon="7.7883970">
        <ele>283.6</ele>
        <time>2022-06-02T12:06:03Z</time>
      </trkpt>
      <trkpt lat="47.5525130" lon="7.7881680">
        <ele>284.2</ele>
        <time>2022-06-02T12:06:10Z</time>
      </trkpt>
      <trkpt lat="47.5524250" lon="7.7880390">
        <ele>284.6</ele>
        <time>2022-06-02T12:06:14Z</time>
      </trkpt>
      <trkpt lat="47.5523510" lon="7.7878940">
        <ele>284.8</ele>
        <time>2022-06-02T12:06:18Z</time>
      </trkpt>
      <trkpt lat="47.5522230" lon="7.7876320">
        <ele>285.2</ele>
        <time>2022-06-02T12:06:24Z</time>
      </trkpt>
      <trkpt lat="47.5520840" lon="7.7873240">
        <ele>285.6</ele>
        <time>2022-06-02T12:06:31Z</time>
      </trkpt>
      <trkpt lat="47.5520640" lon="7.7872880">
        <ele>285.6</ele>
        <time>2022-06-02T12:06:32Z</time>
      </trkpt>
      <trkpt lat="47.5519020" lon="7.7869870">
        <ele>286.4</ele>
        <time>2022-06-02T12:06:39Z</time>
      </trkpt>
      <trkpt lat="47.5518010" lon="7.7867380">
        <ele>286.8</ele>
        <time>2022-06-02T12:06:44Z</time>
      </trkpt>
      <trkpt lat="47.5517670" lon="7.7866410">
        <ele>286.8</ele>
        <time>2022-06-02T12:06:46Z</time>
      </trkpt>
      <trkpt lat="47.5517090" lon="7.7863320">
        <ele>287.0</ele>
        <time>2022-06-02T12:06:52Z</time>
      </trkpt>
      <trkpt lat="47.5516920" lon="7.7862250">
        <ele>287.2</ele>
        <time>2022-06-02T12:06:54Z</time>
      </trkpt>
      <trkpt lat="47.5516530" lon="7.7857720">
        <ele>287.4</ele>
        <time>2022-06-02T12:07:02Z</time>
      </trkpt>
      <trkpt lat="47.5516120" lon="7.7853010">
        <ele>287.2</ele>
        <time>2022-06-02T12:07:10Z</time>
      </trkpt>
      <trkpt lat="47.5516040" lon="7.7851760">
        <ele>287.2</ele>
        <time>2022-06-02T12:07:12Z</time>
      </trkpt>
      <trkpt lat="47.5516160" lon="7.7849390">
        <ele>287.0</ele>
        <time>2022-06-02T12:07:16Z</time>
      </trkpt>
      <trkpt lat="47.5516500" lon="7.7848220">
        <ele>287.0</ele>
        <time>2022-06-02T12:07:18Z</time>
      </trkpt>
      <trkpt lat="47.5516510" lon="7.7847050">
        <ele>286.8</ele>
        <time>2022-06-02T12:07:20Z</time>
      </trkpt>
      <trkpt lat="47.5516110" lon="7.7846030">
        <ele>286.8</ele>
        <time>2022-06-02T12:07:22Z</time>
      </trkpt>
      <trkpt lat="47.5515610" lon="7.7845070">
        <ele>286.8</ele>
        <time>2022-06-02T12:07:24Z</time>
      </trkpt>
      <trkpt lat="47.5515330" lon="7.7843940">
        <ele>286.8</ele>
        <time>2022-06-02T12:07:26Z</time>
      </trkpt>
      <trkpt lat="47.5515230" lon="7.7842720">
        <ele>286.6</ele>
        <time>2022-06-02T12:07:28Z</time>
      </trkpt>
      <trkpt lat="47.5514860" lon="7.7838420">
        <ele>286.6</ele>
        <time>2022-06-02T12:07:35Z</time>
      </trkpt>
      <trkpt lat="47.5514830" lon="7.7837860">
        <ele>286.6</ele>
        <time>2022-06-02T12:07:36Z</time>
      </trkpt>
      <trkpt lat="47.5514620" lon="7.7834740">
        <ele>286.8</ele>
        <time>2022-06-02T12:07:41Z</time>
      </trkpt>
      <trkpt lat="47.5514360" lon="7.7832970">
        <ele>286.8</ele>
        <time>2022-06-02T12:07:44Z</time>
      </trkpt>
      <trkpt lat="47.5514220" lon="7.7831200">
        <ele>286.8</ele>
        <time>2022-06-02T12:07:47Z</time>
      </trkpt>
      <trkpt lat="47.5514160" lon="7.7828870">
        <ele>286.8</ele>
        <time>2022-06-02T12:07:51Z</time>
      </trkpt>
      <trkpt lat="47.5513730" lon="7.7824080">
        <ele>287.0</ele>
        <time>2022-06-02T12:07:59Z</time>
      </trkpt>
      <trkpt lat="47.5513140" lon="7.7820490">
        <ele>287.2</ele>
        <time>2022-06-02T12:08:05Z</time>
      </trkpt>
      <trkpt lat="47.5513020" lon="7.7819280">
        <ele>287.2</ele>
        <time>2022-06-02T12:08:07Z</time>
      </trkpt>
      <trkpt lat="47.5512770" lon="7.7813950">
        <ele>287.6</ele>
        <time>2022-06-02T12:08:16Z</time>
      </trkpt>
      <trkpt lat="47.5512310" lon="7.7808330">
        <ele>287.8</ele>
        <time>2022-06-02T12:08:25Z</time>
      </trkpt>
      <trkpt lat="47.5512110" lon="7.7805210">
        <ele>288.0</ele>
        <time>2022-06-02T12:08:30Z</time>
      </trkpt>
      <trkpt lat="47.5511950" lon="7.7802740">
        <ele>288.0</ele>
        <time>2022-06-02T12:08:34Z</time>
      </trkpt>
      <trkpt lat="47.5511360" lon="7.7795670">
        <ele>288.4</ele>
        <time>2022-06-02T12:08:44Z</time>
      </trkpt>
      <trkpt lat="47.5510780" lon="7.7788940">
        <ele>288.0</ele>
        <time>2022-06-02T12:08:54Z</time>
      </trkpt>
      <trkpt lat="47.5510260" lon="7.7782870">
        <ele>287.6</ele>
        <time>2022-06-02T12:09:03Z</time>
      </trkpt>
      <trkpt lat="47.5509680" lon="7.7776980">
        <ele>287.6</ele>
        <time>2022-06-02T12:09:11Z</time>
      </trkpt>
      <trkpt lat="47.5508680" lon="7.7770670">
        <ele>287.4</ele>
        <time>2022-06-02T12:09:20Z</time>
      </trkpt>
      <trkpt lat="47.5507390" lon="7.7763490">
        <ele>287.0</ele>
        <time>2022-06-02T12:09:30Z</time>
      </trkpt>
      <trkpt lat="47.5506130" lon="7.7758070">
        <ele>287.0</ele>
        <time>2022-06-02T12:09:38Z</time>
      </trkpt>
      <trkpt lat="47.5504340" lon="7.7750540">
        <ele>286.8</ele>
        <time>2022-06-02T12:09:49Z</time>
      </trkpt>
      <trkpt lat="47.5502950" lon="7.7744590">
        <ele>286.4</ele>
        <time>2022-06-02T12:09:57Z</time>
      </trkpt>
      <trkpt lat="47.5502620" lon="7.7743250">
        <ele>286.2</ele>
        <time>2022-06-02T12:09:59Z</time>
      </trkpt>
      <trkpt lat="47.5501990" lon="7.7740770">
        <ele>286.2</ele>
        <time>2022-06-02T12:10:03Z</time>
      </trkpt>
      <trkpt lat="47.5501230" lon="7.7737960">
        <ele>286.0</ele>
        <time>2022-06-02T12:10:08Z</time>
      </trkpt>
      <trkpt lat="47.5501140" lon="7.7737390">
        <ele>286.0</ele>
        <time>2022-06-02T12:10:09Z</time>
      </trkpt>
      <trkpt lat="47.5500600" lon="7.7734420">
        <ele>286.0</ele>
        <time>2022-06-02T12:10:14Z</time>
      </trkpt>
      <trkpt lat="47.5500710" lon="7.7733010">
        <ele>286.0</ele>
        <time>2022-06-02T12:10:16Z</time>
      </trkpt>
      <trkpt lat="47.5501370" lon="7.7729290">
        <ele>285.8</ele>
        <time>2022-06-02T12:10:21Z</time>
      </trkpt>
      <trkpt lat="47.5501510" lon="7.7728610">
        <ele>285.8</ele>
        <time>2022-06-02T12:10:22Z</time>
      </trkpt>
      <trkpt lat="47.5502340" lon="7.7724320">
        <ele>285.4</ele>
        <time>2022-06-02T12:10:28Z</time>
      </trkpt>
      <trkpt lat="47.5502350" lon="7.7723560">
        <ele>285.4</ele>
        <time>2022-06-02T12:10:29Z</time>
      </trkpt>
      <trkpt lat="47.5502290" lon="7.7722820">
        <ele>285.2</ele>
        <time>2022-06-02T12:10:30Z</time>
      </trkpt>
      <trkpt lat="47.5502170" lon="7.7722090">
        <ele>285.2</ele>
        <time>2022-06-02T12:10:31Z</time>
      </trkpt>
      <trkpt lat="47.5501770" lon="7.7720180">
        <ele>285.2</ele>
        <time>2022-06-02T12:10:34Z</time>
      </trkpt>
      <trkpt lat="47.5501320" lon="7.7718950">
        <ele>285.2</ele>
        <time>2022-06-02T12:10:38Z</time>
      </trkpt>
      <trkpt lat="47.5501290" lon="7.7718880">
        <ele>285.2</ele>
        <time>2022-06-02T12:10:39Z</time>
      </trkpt>
      <trkpt lat="47.5501290" lon="7.7718880">
        <ele>285.2</ele>
        <time>2022-06-02T12:10:41Z</time>
      </trkpt>
      <trkpt lat="47.5501320" lon="7.7716720">
        <ele>283.8</ele>
        <time>2022-06-02T12:12:16Z</time>
      </trkpt>
      <trkpt lat="47.5501100" lon="7.7715090">
        <ele>283.8</ele>
        <time>2022-06-02T12:12:20Z</time>
      </trkpt>
      <trkpt lat="47.5500890" lon="7.7714140">
        <ele>283.8</ele>
        <time>2022-06-02T12:12:22Z</time>
      </trkpt>
      <trkpt lat="47.5500110" lon="7.7711080">
        <ele>283.8</ele>
        <time>2022-06-02T12:12:28Z</time>
      </trkpt>
      <trkpt lat="47.5498910" lon="7.7707640">
        <ele>284.0</ele>
        <time>2022-06-02T12:12:35Z</time>
      </trkpt>
      <trkpt lat="47.5497380" lon="7.7702790">
        <ele>284.2</ele>
        <time>2022-06-02T12:12:44Z</time>
      </trkpt>
      <trkpt lat="47.5496140" lon="7.7698130">
        <ele>284.8</ele>
        <time>2022-06-02T12:12:52Z</time>
      </trkpt>
      <trkpt lat="47.5496010" lon="7.7697550">
        <ele>285.0</ele>
        <time>2022-06-02T12:12:53Z</time>
      </trkpt>
      <trkpt lat="47.5494790" lon="7.7692230">
        <ele>285.8</ele>
        <time>2022-06-02T12:13:02Z</time>
      </trkpt>
      <trkpt lat="47.5493530" lon="7.7686920">
        <ele>286.0</ele>
        <time>2022-06-02T12:13:11Z</time>
      </trkpt>
      <trkpt lat="47.5493110" lon="7.7685110">
        <ele>286.2</ele>
        <time>2022-06-02T12:13:14Z</time>
      </trkpt>
      <trkpt lat="47.5492220" lon="7.7681460">
        <ele>286.4</ele>
        <time>2022-06-02T12:13:20Z</time>
      </trkpt>
      <trkpt lat="47.5491380" lon="7.7677870">
        <ele>286.6</ele>
        <time>2022-06-02T12:13:26Z</time>
      </trkpt>
      <trkpt lat="47.5489890" lon="7.7672210">
        <ele>286.6</ele>
        <time>2022-06-02T12:13:35Z</time>
      </trkpt>
      <trkpt lat="47.5489380" lon="7.7670290">
        <ele>286.8</ele>
        <time>2022-06-02T12:13:38Z</time>
      </trkpt>
      <trkpt lat="47.5488740" lon="7.7667540">
        <ele>286.8</ele>
        <time>2022-06-02T12:13:42Z</time>
      </trkpt>
      <trkpt lat="47.5486860" lon="7.7660790">
        <ele>287.0</ele>
        <time>2022-06-02T12:13:52Z</time>
      </trkpt>
      <trkpt lat="47.5485700" lon="7.7656530">
        <ele>287.2</ele>
        <time>2022-06-02T12:13:58Z</time>
      </trkpt>
      <trkpt lat="47.5483680" lon="7.7649040">
        <ele>287.0</ele>
        <time>2022-06-02T12:14:08Z</time>
      </trkpt>
      <trkpt lat="47.5482250" lon="7.7643920">
        <ele>287.0</ele>
        <time>2022-06-02T12:14:15Z</time>
      </trkpt>
      <trkpt lat="47.5480780" lon="7.7638500">
        <ele>287.0</ele>
        <time>2022-06-02T12:14:22Z</time>
      </trkpt>
      <trkpt lat="47.5480390" lon="7.7637090">
        <ele>287.0</ele>
        <time>2022-06-02T12:14:24Z</time>
      </trkpt>
      <trkpt lat="47.5479020" lon="7.7631120">
        <ele>286.8</ele>
        <time>2022-06-02T12:14:32Z</time>
      </trkpt>
      <trkpt lat="47.5478110" lon="7.7627350">
        <ele>286.6</ele>
        <time>2022-06-02T12:14:36Z</time>
      </trkpt>
      <trkpt lat="47.5477730" lon="7.7626460">
        <ele>286.6</ele>
        <time>2022-06-02T12:14:37Z</time>
      </trkpt>
      <trkpt lat="47.5476470" lon="7.7624220">
        <ele>286.0</ele>
        <time>2022-06-02T12:14:40Z</time>
      </trkpt>
      <trkpt lat="47.5475840" lon="7.7622820">
        <ele>285.6</ele>
        <time>2022-06-02T12:14:42Z</time>
      </trkpt>
      <trkpt lat="47.5475100" lon="7.7620780">
        <ele>285.4</ele>
        <time>2022-06-02T12:14:45Z</time>
      </trkpt>
      <trkpt lat="47.5474280" lon="7.7618850">
        <ele>285.2</ele>
        <time>2022-06-02T12:14:48Z</time>
      </trkpt>
      <trkpt lat="47.5472100" lon="7.7613160">
        <ele>285.2</ele>
        <time>2022-06-02T12:14:57Z</time>
      </trkpt>
      <trkpt lat="47.5470340" lon="7.7607120">
        <ele>285.2</ele>
        <time>2022-06-02T12:15:05Z</time>
      </trkpt>
      <trkpt lat="47.5469210" lon="7.7603640">
        <ele>284.8</ele>
        <time>2022-06-02T12:15:09Z</time>
      </trkpt>
      <trkpt lat="47.5468830" lon="7.7602840">
        <ele>284.4</ele>
        <time>2022-06-02T12:15:10Z</time>
      </trkpt>
      <trkpt lat="47.5468410" lon="7.7602090">
        <ele>284.2</ele>
        <time>2022-06-02T12:15:11Z</time>
      </trkpt>
      <trkpt lat="47.5466320" lon="7.7598400">
        <ele>284.0</ele>
        <time>2022-06-02T12:15:17Z</time>
      </trkpt>
      <trkpt lat="47.5466030" lon="7.7597890">
        <ele>284.0</ele>
        <time>2022-06-02T12:15:18Z</time>
      </trkpt>
      <trkpt lat="47.5464980" lon="7.7596190">
        <ele>284.6</ele>
        <time>2022-06-02T12:15:22Z</time>
      </trkpt>
      <trkpt lat="47.5464320" lon="7.7594990">
        <ele>285.6</ele>
        <time>2022-06-02T12:15:25Z</time>
      </trkpt>
      <trkpt lat="47.5463420" lon="7.7593470">
        <ele>286.6</ele>
        <time>2022-06-02T12:15:29Z</time>
      </trkpt>
      <trkpt lat="47.5462590" lon="7.7591840">
        <ele>287.8</ele>
        <time>2022-06-02T12:15:33Z</time>
      </trkpt>
      <trkpt lat="47.5462040" lon="7.7590490">
        <ele>288.4</ele>
        <time>2022-06-02T12:15:36Z</time>
      </trkpt>
      <trkpt lat="47.5461510" lon="7.7589240">
        <ele>288.8</ele>
        <time>2022-06-02T12:15:39Z</time>
      </trkpt>
      <trkpt lat="47.5461020" lon="7.7588050">
        <ele>289.2</ele>
        <time>2022-06-02T12:15:43Z</time>
      </trkpt>
      <trkpt lat="47.5460980" lon="7.7587790">
        <ele>289.2</ele>
        <time>2022-06-02T12:15:46Z</time>
      </trkpt>
      <trkpt lat="47.5460700" lon="7.7587040">
        <ele>289.0</ele>
        <time>2022-06-02T12:15:55Z</time>
      </trkpt>
      <trkpt lat="47.5459910" lon="7.7585300">
        <ele>288.6</ele>
        <time>2022-06-02T12:16:00Z</time>
      </trkpt>
      <trkpt lat="47.5458790" lon="7.7582720">
        <ele>288.4</ele>
        <time>2022-06-02T12:16:07Z</time>
      </trkpt>
      <trkpt lat="47.5457790" lon="7.7580230">
        <ele>288.8</ele>
        <time>2022-06-02T12:16:12Z</time>
      </trkpt>
      <trkpt lat="47.5456210" lon="7.7576420">
        <ele>288.6</ele>
        <time>2022-06-02T12:16:19Z</time>
      </trkpt>
      <trkpt lat="47.5453970" lon="7.7571200">
        <ele>288.4</ele>
        <time>2022-06-02T12:16:28Z</time>
      </trkpt>
      <trkpt lat="47.5453540" lon="7.7570020">
        <ele>288.4</ele>
        <time>2022-06-02T12:16:30Z</time>
      </trkpt>
      <trkpt lat="47.5453220" lon="7.7568770">
        <ele>288.4</ele>
        <time>2022-06-02T12:16:32Z</time>
      </trkpt>
      <trkpt lat="47.5452760" lon="7.7566790">
        <ele>288.4</ele>
        <time>2022-06-02T12:16:35Z</time>
      </trkpt>
      <trkpt lat="47.5451700" lon="7.7564330">
        <ele>288.6</ele>
        <time>2022-06-02T12:16:39Z</time>
      </trkpt>
      <trkpt lat="47.5450970" lon="7.7563330">
        <ele>288.6</ele>
        <time>2022-06-02T12:16:41Z</time>
      </trkpt>
      <trkpt lat="47.5450610" lon="7.7562810">
        <ele>288.6</ele>
        <time>2022-06-02T12:16:42Z</time>
      </trkpt>
      <trkpt lat="47.5449820" lon="7.7561220">
        <ele>288.6</ele>
        <time>2022-06-02T12:16:45Z</time>
      </trkpt>
      <trkpt lat="47.5448050" lon="7.7556700">
        <ele>288.4</ele>
        <time>2022-06-02T12:16:53Z</time>
      </trkpt>
      <trkpt lat="47.5446880" lon="7.7554040">
        <ele>288.8</ele>
        <time>2022-06-02T12:16:59Z</time>
      </trkpt>
      <trkpt lat="47.5445810" lon="7.7551430">
        <ele>289.4</ele>
        <time>2022-06-02T12:17:05Z</time>
      </trkpt>
      <trkpt lat="47.5444940" lon="7.7549200">
        <ele>290.0</ele>
        <time>2022-06-02T12:17:10Z</time>
      </trkpt>
      <trkpt lat="47.5444210" lon="7.7547530">
        <ele>291.0</ele>
        <time>2022-06-02T12:17:14Z</time>
      </trkpt>
      <trkpt lat="47.5443860" lon="7.7546710">
        <ele>291.2</ele>
        <time>2022-06-02T12:17:16Z</time>
      </trkpt>
      <trkpt lat="47.5443020" lon="7.7544110">
        <ele>292.2</ele>
        <time>2022-06-02T12:17:22Z</time>
      </trkpt>
      <trkpt lat="47.5442870" lon="7.7543710">
        <ele>292.6</ele>
        <time>2022-06-02T12:17:23Z</time>
      </trkpt>
      <trkpt lat="47.5441890" lon="7.7540980">
        <ele>293.6</ele>
        <time>2022-06-02T12:17:29Z</time>
      </trkpt>
      <trkpt lat="47.5440420" lon="7.7537210">
        <ele>294.6</ele>
        <time>2022-06-02T12:17:38Z</time>
      </trkpt>
      <trkpt lat="47.5439470" lon="7.7534480">
        <ele>295.8</ele>
        <time>2022-06-02T12:17:44Z</time>
      </trkpt>
      <trkpt lat="47.5438180" lon="7.7530700">
        <ele>296.8</ele>
        <time>2022-06-02T12:17:53Z</time>
      </trkpt>
      <trkpt lat="47.5437320" lon="7.7528170">
        <ele>297.8</ele>
        <time>2022-06-02T12:17:59Z</time>
      </trkpt>
      <trkpt lat="47.5437070" lon="7.7527270">
        <ele>298.0</ele>
        <time>2022-06-02T12:18:01Z</time>
      </trkpt>
      <trkpt lat="47.5436260" lon="7.7524390">
        <ele>298.8</ele>
        <time>2022-06-02T12:18:07Z</time>
      </trkpt>
      <trkpt lat="47.5436140" lon="7.7523890">
        <ele>299.0</ele>
        <time>2022-06-02T12:18:08Z</time>
      </trkpt>
      <trkpt lat="47.5435070" lon="7.7519900">
        <ele>299.8</ele>
        <time>2022-06-02T12:18:17Z</time>
      </trkpt>
      <trkpt lat="47.5434800" lon="7.7519010">
        <ele>300.2</ele>
        <time>2022-06-02T12:18:19Z</time>
      </trkpt>
      <trkpt lat="47.5434080" lon="7.7516610">
        <ele>300.8</ele>
        <time>2022-06-02T12:18:24Z</time>
      </trkpt>
      <trkpt lat="47.5433620" lon="7.7515230">
        <ele>301.2</ele>
        <time>2022-06-02T12:18:27Z</time>
      </trkpt>
      <trkpt lat="47.5432220" lon="7.7511080">
        <ele>302.0</ele>
        <time>2022-06-02T12:18:36Z</time>
      </trkpt>
      <trkpt lat="47.5430970" lon="7.7508290">
        <ele>302.4</ele>
        <time>2022-06-02T12:18:42Z</time>
      </trkpt>
      <trkpt lat="47.5430150" lon="7.7506260">
        <ele>302.6</ele>
        <time>2022-06-02T12:18:46Z</time>
      </trkpt>
      <trkpt lat="47.5428450" lon="7.7502100">
        <ele>302.8</ele>
        <time>2022-06-02T12:18:54Z</time>
      </trkpt>
      <trkpt lat="47.5426170" lon="7.7497240">
        <ele>302.6</ele>
        <time>2022-06-02T12:19:03Z</time>
      </trkpt>
      <trkpt lat="47.5423740" lon="7.7492230">
        <ele>302.4</ele>
        <time>2022-06-02T12:19:11Z</time>
      </trkpt>
      <trkpt lat="47.5421420" lon="7.7487330">
        <ele>301.8</ele>
        <time>2022-06-02T12:19:18Z</time>
      </trkpt>
      <trkpt lat="47.5421100" lon="7.7486610">
        <ele>301.8</ele>
        <time>2022-06-02T12:19:19Z</time>
      </trkpt>
      <trkpt lat="47.5420170" lon="7.7484280">
        <ele>301.4</ele>
        <time>2022-06-02T12:19:22Z</time>
      </trkpt>
      <trkpt lat="47.5418750" lon="7.7480460">
        <ele>301.0</ele>
        <time>2022-06-02T12:19:27Z</time>
      </trkpt>
      <trkpt lat="47.5417720" lon="7.7477260">
        <ele>300.2</ele>
        <time>2022-06-02T12:19:31Z</time>
      </trkpt>
      <trkpt lat="47.5416300" lon="7.7472320">
        <ele>299.8</ele>
        <time>2022-06-02T12:19:37Z</time>
      </trkpt>
      <trkpt lat="47.5414710" lon="7.7465960">
        <ele>299.4</ele>
        <time>2022-06-02T12:19:45Z</time>
      </trkpt>
      <trkpt lat="47.5414310" lon="7.7464450">
        <ele>299.4</ele>
        <time>2022-06-02T12:19:47Z</time>
      </trkpt>
      <trkpt lat="47.5412980" lon="7.7459380">
        <ele>299.4</ele>
        <time>2022-06-02T12:19:54Z</time>
      </trkpt>
      <trkpt lat="47.5411680" lon="7.7453540">
        <ele>300.0</ele>
        <time>2022-06-02T12:20:02Z</time>
      </trkpt>
      <trkpt lat="47.5411650" lon="7.7452780">
        <ele>300.2</ele>
        <time>2022-06-02T12:20:03Z</time>
      </trkpt>
      <trkpt lat="47.5411600" lon="7.7452000">
        <ele>300.2</ele>
        <time>2022-06-02T12:20:04Z</time>
      </trkpt>
      <trkpt lat="47.5411200" lon="7.7450470">
        <ele>300.4</ele>
        <time>2022-06-02T12:20:06Z</time>
      </trkpt>
      <trkpt lat="47.5410870" lon="7.7449800">
        <ele>300.4</ele>
        <time>2022-06-02T12:20:07Z</time>
      </trkpt>
      <trkpt lat="47.5410570" lon="7.7449150">
        <ele>300.4</ele>
        <time>2022-06-02T12:20:08Z</time>
      </trkpt>
      <trkpt lat="47.5410300" lon="7.7448470">
        <ele>300.4</ele>
        <time>2022-06-02T12:20:09Z</time>
      </trkpt>
      <trkpt lat="47.5409750" lon="7.7446090">
        <ele>300.6</ele>
        <time>2022-06-02T12:20:12Z</time>
      </trkpt>
      <trkpt lat="47.5408520" lon="7.7440850">
        <ele>301.0</ele>
        <time>2022-06-02T12:20:19Z</time>
      </trkpt>
      <trkpt lat="47.5407250" lon="7.7434740">
        <ele>301.6</ele>
        <time>2022-06-02T12:20:27Z</time>
      </trkpt>
      <trkpt lat="47.5407120" lon="7.7434000">
        <ele>301.6</ele>
        <time>2022-06-02T12:20:28Z</time>
      </trkpt>
      <trkpt lat="47.5406210" lon="7.7427880">
        <ele>301.8</ele>
        <time>2022-06-02T12:20:36Z</time>
      </trkpt>
      <trkpt lat="47.5405630" lon="7.7422560">
        <ele>302.0</ele>
        <time>2022-06-02T12:20:43Z</time>
      </trkpt>
      <trkpt lat="47.5405480" lon="7.7417650">
        <ele>302.0</ele>
        <time>2022-06-02T12:20:49Z</time>
      </trkpt>
      <trkpt lat="47.5405080" lon="7.7411940">
        <ele>301.8</ele>
        <time>2022-06-02T12:20:56Z</time>
      </trkpt>
      <trkpt lat="47.5404710" lon="7.7406100">
        <ele>301.6</ele>
        <time>2022-06-02T12:21:03Z</time>
      </trkpt>
      <trkpt lat="47.5404090" lon="7.7397500">
        <ele>301.4</ele>
        <time>2022-06-02T12:21:13Z</time>
      </trkpt>
      <trkpt lat="47.5404020" lon="7.7396680">
        <ele>301.4</ele>
        <time>2022-06-02T12:21:14Z</time>
      </trkpt>
      <trkpt lat="47.5404080" lon="7.7392570">
        <ele>301.6</ele>
        <time>2022-06-02T12:21:19Z</time>
      </trkpt>
      <trkpt lat="47.5404010" lon="7.7391820">
        <ele>301.6</ele>
        <time>2022-06-02T12:21:20Z</time>
      </trkpt>
      <trkpt lat="47.5403830" lon="7.7391120">
        <ele>301.8</ele>
        <time>2022-06-02T12:21:21Z</time>
      </trkpt>
      <trkpt lat="47.5403490" lon="7.7389590">
        <ele>301.8</ele>
        <time>2022-06-02T12:21:23Z</time>
      </trkpt>
      <trkpt lat="47.5403310" lon="7.7388050">
        <ele>301.8</ele>
        <time>2022-06-02T12:21:25Z</time>
      </trkpt>
      <trkpt lat="47.5402590" lon="7.7381920">
        <ele>302.0</ele>
        <time>2022-06-02T12:21:33Z</time>
      </trkpt>
      <trkpt lat="47.5401180" lon="7.7374280">
        <ele>302.2</ele>
        <time>2022-06-02T12:21:43Z</time>
      </trkpt>
      <trkpt lat="47.5399500" lon="7.7367130">
        <ele>302.0</ele>
        <time>2022-06-02T12:21:52Z</time>
      </trkpt>
      <trkpt lat="47.5397470" lon="7.7359170">
        <ele>302.0</ele>
        <time>2022-06-02T12:22:02Z</time>
      </trkpt>
      <trkpt lat="47.5397270" lon="7.7358320">
        <ele>301.8</ele>
        <time>2022-06-02T12:22:03Z</time>
      </trkpt>
      <trkpt lat="47.5395440" lon="7.7349970">
        <ele>301.4</ele>
        <time>2022-06-02T12:22:13Z</time>
      </trkpt>
      <trkpt lat="47.5393580" lon="7.7342700">
        <ele>301.2</ele>
        <time>2022-06-02T12:22:22Z</time>
      </trkpt>
      <trkpt lat="47.5393190" lon="7.7341140">
        <ele>301.2</ele>
        <time>2022-06-02T12:22:24Z</time>
      </trkpt>
      <trkpt lat="47.5392580" lon="7.7338220">
        <ele>301.2</ele>
        <time>2022-06-02T12:22:28Z</time>
      </trkpt>
      <trkpt lat="47.5392390" lon="7.7337480">
        <ele>301.2</ele>
        <time>2022-06-02T12:22:29Z</time>
      </trkpt>
      <trkpt lat="47.5390830" lon="7.7331480">
        <ele>301.4</ele>
        <time>2022-06-02T12:22:37Z</time>
      </trkpt>
      <trkpt lat="47.5389920" lon="7.7327900">
        <ele>301.2</ele>
        <time>2022-06-02T12:22:42Z</time>
      </trkpt>
      <trkpt lat="47.5389170" lon="7.7325010">
        <ele>301.2</ele>
        <time>2022-06-02T12:22:46Z</time>
      </trkpt>
      <trkpt lat="47.5387550" lon="7.7318600">
        <ele>301.0</ele>
        <time>2022-06-02T12:22:55Z</time>
      </trkpt>
      <trkpt lat="47.5386310" lon="7.7313710">
        <ele>301.0</ele>
        <time>2022-06-02T12:23:02Z</time>
      </trkpt>
      <trkpt lat="47.5384750" lon="7.7307690">
        <ele>300.8</ele>
        <time>2022-06-02T12:23:10Z</time>
      </trkpt>
      <trkpt lat="47.5383370" lon="7.7302010">
        <ele>300.4</ele>
        <time>2022-06-02T12:23:17Z</time>
      </trkpt>
      <trkpt lat="47.5383090" lon="7.7300320">
        <ele>300.2</ele>
        <time>2022-06-02T12:23:19Z</time>
      </trkpt>
      <trkpt lat="47.5382680" lon="7.7298650">
        <ele>300.0</ele>
        <time>2022-06-02T12:23:21Z</time>
      </trkpt>
      <trkpt lat="47.5382440" lon="7.7297780">
        <ele>300.0</ele>
        <time>2022-06-02T12:23:22Z</time>
      </trkpt>
      <trkpt lat="47.5382020" lon="7.7295940">
        <ele>299.8</ele>
        <time>2022-06-02T12:23:24Z</time>
      </trkpt>
      <trkpt lat="47.5381680" lon="7.7293180">
        <ele>299.4</ele>
        <time>2022-06-02T12:23:27Z</time>
      </trkpt>
      <trkpt lat="47.5380570" lon="7.7287270">
        <ele>298.6</ele>
        <time>2022-06-02T12:23:33Z</time>
      </trkpt>
      <trkpt lat="47.5380420" lon="7.7286250">
        <ele>298.4</ele>
        <time>2022-06-02T12:23:34Z</time>
      </trkpt>
      <trkpt lat="47.5380260" lon="7.7285210">
        <ele>298.2</ele>
        <time>2022-06-02T12:23:35Z</time>
      </trkpt>
      <trkpt lat="47.5379490" lon="7.7280240">
        <ele>297.6</ele>
        <time>2022-06-02T12:23:40Z</time>
      </trkpt>
      <trkpt lat="47.5379310" lon="7.7279390">
        <ele>297.4</ele>
        <time>2022-06-02T12:23:41Z</time>
      </trkpt>
      <trkpt lat="47.5379070" lon="7.7277560">
        <ele>297.2</ele>
        <time>2022-06-02T12:23:43Z</time>
      </trkpt>
      <trkpt lat="47.5378580" lon="7.7273590">
        <ele>296.4</ele>
        <time>2022-06-02T12:23:47Z</time>
      </trkpt>
      <trkpt lat="47.5378450" lon="7.7272570">
        <ele>296.2</ele>
        <time>2022-06-02T12:23:48Z</time>
      </trkpt>
      <trkpt lat="47.5377820" lon="7.7267240">
        <ele>295.0</ele>
        <time>2022-06-02T12:23:53Z</time>
      </trkpt>
      <trkpt lat="47.5377510" lon="7.7265060">
        <ele>294.6</ele>
        <time>2022-06-02T12:23:55Z</time>
      </trkpt>
      <trkpt lat="47.5376850" lon="7.7260540">
        <ele>293.8</ele>
        <time>2022-06-02T12:23:59Z</time>
      </trkpt>
      <trkpt lat="47.5376000" lon="7.7256080">
        <ele>293.4</ele>
        <time>2022-06-02T12:24:03Z</time>
      </trkpt>
      <trkpt lat="47.5374990" lon="7.7251590">
        <ele>292.8</ele>
        <time>2022-06-02T12:24:07Z</time>
      </trkpt>
      <trkpt lat="47.5373820" lon="7.7246990">
        <ele>292.0</ele>
        <time>2022-06-02T12:24:11Z</time>
      </trkpt>
      <trkpt lat="47.5373170" lon="7.7244670">
        <ele>291.6</ele>
        <time>2022-06-02T12:24:13Z</time>
      </trkpt>
      <trkpt lat="47.5371650" lon="7.7238560">
        <ele>290.4</ele>
        <time>2022-06-02T12:24:18Z</time>
      </trkpt>
      <trkpt lat="47.5371360" lon="7.7237280">
        <ele>290.4</ele>
        <time>2022-06-02T12:24:19Z</time>
      </trkpt>
      <trkpt lat="47.5370560" lon="7.7233450">
        <ele>289.4</ele>
        <time>2022-06-02T12:24:22Z</time>
      </trkpt>
      <trkpt lat="47.5369780" lon="7.7228160">
        <ele>288.6</ele>
        <time>2022-06-02T12:24:26Z</time>
      </trkpt>
      <trkpt lat="47.5369600" lon="7.7226850">
        <ele>288.4</ele>
        <time>2022-06-02T12:24:27Z</time>
      </trkpt>
      <trkpt lat="47.5368890" lon="7.7222290">
        <ele>287.0</ele>
        <time>2022-06-02T12:24:31Z</time>
      </trkpt>
      <trkpt lat="47.5368720" lon="7.7221480">
        <ele>286.8</ele>
        <time>2022-06-02T12:24:32Z</time>
      </trkpt>
      <trkpt lat="47.5368140" lon="7.7219490">
        <ele>286.0</ele>
        <time>2022-06-02T12:24:35Z</time>
      </trkpt>
      <trkpt lat="47.5367660" lon="7.7218160">
        <ele>285.6</ele>
        <time>2022-06-02T12:24:37Z</time>
      </trkpt>
      <trkpt lat="47.5367160" lon="7.7216870">
        <ele>285.2</ele>
        <time>2022-06-02T12:24:39Z</time>
      </trkpt>
      <trkpt lat="47.5366890" lon="7.7216280">
        <ele>284.8</ele>
        <time>2022-06-02T12:24:40Z</time>
      </trkpt>
      <trkpt lat="47.5365930" lon="7.7214440">
        <ele>284.2</ele>
        <time>2022-06-02T12:24:43Z</time>
      </trkpt>
      <trkpt lat="47.5365480" lon="7.7213790">
        <ele>284.2</ele>
        <time>2022-06-02T12:24:44Z</time>
      </trkpt>
      <trkpt lat="47.5364470" lon="7.7212380">
        <ele>283.6</ele>
        <time>2022-06-02T12:24:46Z</time>
      </trkpt>
      <trkpt lat="47.5363350" lon="7.7210860">
        <ele>283.4</ele>
        <time>2022-06-02T12:24:48Z</time>
      </trkpt>
      <trkpt lat="47.5362130" lon="7.7209100">
        <ele>282.6</ele>
        <time>2022-06-02T12:24:50Z</time>
      </trkpt>
      <trkpt lat="47.5360270" lon="7.7206160">
        <ele>281.6</ele>
        <time>2022-06-02T12:24:53Z</time>
      </trkpt>
      <trkpt lat="47.5359730" lon="7.7204990">
        <ele>281.0</ele>
        <time>2022-06-02T12:24:54Z</time>
      </trkpt>
      <trkpt lat="47.5358350" lon="7.7201060">
        <ele>279.8</ele>
        <time>2022-06-02T12:24:57Z</time>
      </trkpt>
      <trkpt lat="47.5358000" lon="7.7199670">
        <ele>278.8</ele>
        <time>2022-06-02T12:24:58Z</time>
      </trkpt>
      <trkpt lat="47.5357370" lon="7.7195780">
        <ele>277.0</ele>
        <time>2022-06-02T12:25:01Z</time>
      </trkpt>
      <trkpt lat="47.5357140" lon="7.7193210">
        <ele>276.2</ele>
        <time>2022-06-02T12:25:03Z</time>
      </trkpt>
      <trkpt lat="47.5356950" lon="7.7192080">
        <ele>276.0</ele>
        <time>2022-06-02T12:25:04Z</time>
      </trkpt>
      <trkpt lat="47.5356790" lon="7.7191040">
        <ele>275.6</ele>
        <time>2022-06-02T12:25:05Z</time>
      </trkpt>
      <trkpt lat="47.5356500" lon="7.7187790">
        <ele>274.8</ele>
        <time>2022-06-02T12:25:09Z</time>
      </trkpt>
      <trkpt lat="47.5355940" lon="7.7185550">
        <ele>273.8</ele>
        <time>2022-06-02T12:25:12Z</time>
      </trkpt>
      <trkpt lat="47.5355820" lon="7.7183860">
        <ele>273.2</ele>
        <time>2022-06-02T12:25:14Z</time>
      </trkpt>
      <trkpt lat="47.5355430" lon="7.7181080">
        <ele>272.8</ele>
        <time>2022-06-02T12:25:18Z</time>
      </trkpt>
      <trkpt lat="47.5355300" lon="7.7180500">
        <ele>272.8</ele>
        <time>2022-06-02T12:25:19Z</time>
      </trkpt>
      <trkpt lat="47.5354850" lon="7.7177280">
        <ele>273.4</ele>
        <time>2022-06-02T12:25:25Z</time>
      </trkpt>
      <trkpt lat="47.5354360" lon="7.7172150">
        <ele>274.6</ele>
        <time>2022-06-02T12:25:33Z</time>
      </trkpt>
      <trkpt lat="47.5354010" lon="7.7171050">
        <ele>274.8</ele>
        <time>2022-06-02T12:25:35Z</time>
      </trkpt>
      <trkpt lat="47.5353780" lon="7.7169610">
        <ele>275.0</ele>
        <time>2022-06-02T12:25:37Z</time>
      </trkpt>
      <trkpt lat="47.5353670" lon="7.7164650">
        <ele>275.8</ele>
        <time>2022-06-02T12:25:43Z</time>
      </trkpt>
      <trkpt lat="47.5353630" lon="7.7163930">
        <ele>276.0</ele>
        <time>2022-06-02T12:25:44Z</time>
      </trkpt>
      <trkpt lat="47.5353480" lon="7.7160590">
        <ele>276.8</ele>
        <time>2022-06-02T12:25:49Z</time>
      </trkpt>
      <trkpt lat="47.5353440" lon="7.7159970">
        <ele>277.0</ele>
        <time>2022-06-02T12:25:50Z</time>
      </trkpt>
      <trkpt lat="47.5353350" lon="7.7157930">
        <ele>278.0</ele>
        <time>2022-06-02T12:25:53Z</time>
      </trkpt>
      <trkpt lat="47.5353200" lon="7.7155980">
        <ele>278.4</ele>
        <time>2022-06-02T12:25:56Z</time>
      </trkpt>
      <trkpt lat="47.5353150" lon="7.7155330">
        <ele>278.4</ele>
        <time>2022-06-02T12:25:57Z</time>
      </trkpt>
      <trkpt lat="47.5353000" lon="7.7151510">
        <ele>278.8</ele>
        <time>2022-06-02T12:26:03Z</time>
      </trkpt>
      <trkpt lat="47.5352990" lon="7.7150920">
        <ele>279.0</ele>
        <time>2022-06-02T12:26:04Z</time>
      </trkpt>
      <trkpt lat="47.5353000" lon="7.7150330">
        <ele>279.0</ele>
        <time>2022-06-02T12:26:05Z</time>
      </trkpt>
      <trkpt lat="47.5352970" lon="7.7147590">
        <ele>279.4</ele>
        <time>2022-06-02T12:26:09Z</time>
      </trkpt>
      <trkpt lat="47.5352870" lon="7.7146420">
        <ele>279.6</ele>
        <time>2022-06-02T12:26:11Z</time>
      </trkpt>
      <trkpt lat="47.5352850" lon="7.7145710">
        <ele>279.6</ele>
        <time>2022-06-02T12:26:12Z</time>
      </trkpt>
      <trkpt lat="47.5352850" lon="7.7141830">
        <ele>279.6</ele>
        <time>2022-06-02T12:26:17Z</time>
      </trkpt>
      <trkpt lat="47.5352530" lon="7.7135150">
        <ele>279.8</ele>
        <time>2022-06-02T12:26:26Z</time>
      </trkpt>
      <trkpt lat="47.5352070" lon="7.7130280">
        <ele>280.0</ele>
        <time>2022-06-02T12:26:32Z</time>
      </trkpt>
      <trkpt lat="47.5351210" lon="7.7123460">
        <ele>279.8</ele>
        <time>2022-06-02T12:26:40Z</time>
      </trkpt>
      <trkpt lat="47.5350150" lon="7.7116140">
        <ele>279.8</ele>
        <time>2022-06-02T12:26:49Z</time>
      </trkpt>
      <trkpt lat="47.5349280" lon="7.7110160">
        <ele>279.8</ele>
        <time>2022-06-02T12:26:57Z</time>
      </trkpt>
      <trkpt lat="47.5349080" lon="7.7108620">
        <ele>279.8</ele>
        <time>2022-06-02T12:26:59Z</time>
      </trkpt>
      <trkpt lat="47.5348750" lon="7.7107060">
        <ele>280.0</ele>
        <time>2022-06-02T12:27:01Z</time>
      </trkpt>
      <trkpt lat="47.5348460" lon="7.7105540">
        <ele>280.0</ele>
        <time>2022-06-02T12:27:03Z</time>
      </trkpt>
      <trkpt lat="47.5347870" lon="7.7101640">
        <ele>280.2</ele>
        <time>2022-06-02T12:27:09Z</time>
      </trkpt>
      <trkpt lat="47.5347680" lon="7.7100440">
        <ele>280.4</ele>
        <time>2022-06-02T12:27:11Z</time>
      </trkpt>
      <trkpt lat="47.5347240" lon="7.7098760">
        <ele>280.6</ele>
        <time>2022-06-02T12:27:14Z</time>
      </trkpt>
      <trkpt lat="47.5346110" lon="7.7094250">
        <ele>281.0</ele>
        <time>2022-06-02T12:27:22Z</time>
      </trkpt>
      <trkpt lat="47.5346020" lon="7.7093670">
        <ele>281.0</ele>
        <time>2022-06-02T12:27:23Z</time>
      </trkpt>
      <trkpt lat="47.5345140" lon="7.7089560">
        <ele>281.6</ele>
        <time>2022-06-02T12:27:30Z</time>
      </trkpt>
      <trkpt lat="47.5344100" lon="7.7084380">
        <ele>281.8</ele>
        <time>2022-06-02T12:27:37Z</time>
      </trkpt>
      <trkpt lat="47.5342510" lon="7.7077550">
        <ele>282.0</ele>
        <time>2022-06-02T12:27:46Z</time>
      </trkpt>
      <trkpt lat="47.5341000" lon="7.7071220">
        <ele>281.8</ele>
        <time>2022-06-02T12:27:54Z</time>
      </trkpt>
      <trkpt lat="47.5339300" lon="7.7063670">
        <ele>281.6</ele>
        <time>2022-06-02T12:28:03Z</time>
      </trkpt>
      <trkpt lat="47.5337670" lon="7.7055360">
        <ele>281.8</ele>
        <time>2022-06-02T12:28:13Z</time>
      </trkpt>
      <trkpt lat="47.5336650" lon="7.7050760">
        <ele>282.2</ele>
        <time>2022-06-02T12:28:19Z</time>
      </trkpt>
      <trkpt lat="47.5335350" lon="7.7045510">
        <ele>282.4</ele>
        <time>2022-06-02T12:28:26Z</time>
      </trkpt>
      <trkpt lat="47.5334960" lon="7.7044080">
        <ele>282.6</ele>
        <time>2022-06-02T12:28:28Z</time>
      </trkpt>
      <trkpt lat="47.5334100" lon="7.7040210">
        <ele>282.8</ele>
        <time>2022-06-02T12:28:33Z</time>
      </trkpt>
      <trkpt lat="47.5332590" lon="7.7033930">
        <ele>283.0</ele>
        <time>2022-06-02T12:28:41Z</time>
      </trkpt>
      <trkpt lat="47.5331420" lon="7.7028920">
        <ele>283.2</ele>
        <time>2022-06-02T12:28:47Z</time>
      </trkpt>
      <trkpt lat="47.5331220" lon="7.7028100">
        <ele>283.4</ele>
        <time>2022-06-02T12:28:48Z</time>
      </trkpt>
      <trkpt lat="47.5330060" lon="7.7022000">
        <ele>283.4</ele>
        <time>2022-06-02T12:28:55Z</time>
      </trkpt>
      <trkpt lat="47.5328250" lon="7.7014420">
        <ele>283.8</ele>
        <time>2022-06-02T12:29:04Z</time>
      </trkpt>
      <trkpt lat="47.5326700" lon="7.7007600">
        <ele>283.6</ele>
        <time>2022-06-02T12:29:12Z</time>
      </trkpt>
      <trkpt lat="47.5324940" lon="7.7000040">
        <ele>283.4</ele>
        <time>2022-06-02T12:29:21Z</time>
      </trkpt>
      <trkpt lat="47.5323450" lon="7.6993300">
        <ele>283.6</ele>
        <time>2022-06-02T12:29:29Z</time>
      </trkpt>
      <trkpt lat="47.5321760" lon="7.6986990">
        <ele>283.4</ele>
        <time>2022-06-02T12:29:37Z</time>
      </trkpt>
      <trkpt lat="47.5321320" lon="7.6984560">
        <ele>283.4</ele>
        <time>2022-06-02T12:29:40Z</time>
      </trkpt>
      <trkpt lat="47.5320760" lon="7.6982210">
        <ele>283.6</ele>
        <time>2022-06-02T12:29:43Z</time>
      </trkpt>
      <trkpt lat="47.5319440" lon="7.6976380">
        <ele>283.8</ele>
        <time>2022-06-02T12:29:50Z</time>
      </trkpt>
      <trkpt lat="47.5319050" lon="7.6974730">
        <ele>283.8</ele>
        <time>2022-06-02T12:29:52Z</time>
      </trkpt>
      <trkpt lat="47.5318310" lon="7.6971440">
        <ele>283.6</ele>
        <time>2022-06-02T12:29:56Z</time>
      </trkpt>
      <trkpt lat="47.5316900" lon="7.6964640">
        <ele>283.6</ele>
        <time>2022-06-02T12:30:04Z</time>
      </trkpt>
      <trkpt lat="47.5315820" lon="7.6957930">
        <ele>283.4</ele>
        <time>2022-06-02T12:30:12Z</time>
      </trkpt>
      <trkpt lat="47.5315290" lon="7.6953780">
        <ele>283.6</ele>
        <time>2022-06-02T12:30:17Z</time>
      </trkpt>
      <trkpt lat="47.5315020" lon="7.6951210">
        <ele>283.4</ele>
        <time>2022-06-02T12:30:20Z</time>
      </trkpt>
      <trkpt lat="47.5314330" lon="7.6944180">
        <ele>283.4</ele>
        <time>2022-06-02T12:30:28Z</time>
      </trkpt>
      <trkpt lat="47.5314110" lon="7.6942410">
        <ele>283.2</ele>
        <time>2022-06-02T12:30:30Z</time>
      </trkpt>
      <trkpt lat="47.5313810" lon="7.6938890">
        <ele>283.4</ele>
        <time>2022-06-02T12:30:34Z</time>
      </trkpt>
      <trkpt lat="47.5313110" lon="7.6930200">
        <ele>283.4</ele>
        <time>2022-06-02T12:30:44Z</time>
      </trkpt>
      <trkpt lat="47.5312790" lon="7.6924100">
        <ele>283.0</ele>
        <time>2022-06-02T12:30:51Z</time>
      </trkpt>
      <trkpt lat="47.5312730" lon="7.6920280">
        <ele>282.8</ele>
        <time>2022-06-02T12:30:55Z</time>
      </trkpt>
      <trkpt lat="47.5312830" lon="7.6916480">
        <ele>282.6</ele>
        <time>2022-06-02T12:30:59Z</time>
      </trkpt>
      <trkpt lat="47.5312830" lon="7.6915470">
        <ele>282.4</ele>
        <time>2022-06-02T12:31:00Z</time>
      </trkpt>
      <trkpt lat="47.5312630" lon="7.6911590">
        <ele>282.0</ele>
        <time>2022-06-02T12:31:04Z</time>
      </trkpt>
      <trkpt lat="47.5312660" lon="7.6910630">
        <ele>281.8</ele>
        <time>2022-06-02T12:31:05Z</time>
      </trkpt>
      <trkpt lat="47.5312850" lon="7.6905040">
        <ele>281.2</ele>
        <time>2022-06-02T12:31:11Z</time>
      </trkpt>
      <trkpt lat="47.5313110" lon="7.6897500">
        <ele>281.0</ele>
        <time>2022-06-02T12:31:20Z</time>
      </trkpt>
      <trkpt lat="47.5313180" lon="7.6895890">
        <ele>281.0</ele>
        <time>2022-06-02T12:31:22Z</time>
      </trkpt>
      <trkpt lat="47.5313450" lon="7.6891890">
        <ele>281.0</ele>
        <time>2022-06-02T12:31:27Z</time>
      </trkpt>
      <trkpt lat="47.5313740" lon="7.6884900">
        <ele>280.8</ele>
        <time>2022-06-02T12:31:36Z</time>
      </trkpt>
      <trkpt lat="47.5313970" lon="7.6879260">
        <ele>281.0</ele>
        <time>2022-06-02T12:31:43Z</time>
      </trkpt>
      <trkpt lat="47.5314210" lon="7.6871640">
        <ele>281.2</ele>
        <time>2022-06-02T12:31:53Z</time>
      </trkpt>
      <trkpt lat="47.5314170" lon="7.6864200">
        <ele>281.0</ele>
        <time>2022-06-02T12:32:02Z</time>
      </trkpt>
      <trkpt lat="47.5314060" lon="7.6858060">
        <ele>281.0</ele>
        <time>2022-06-02T12:32:09Z</time>
      </trkpt>
      <trkpt lat="47.5313970" lon="7.6852060">
        <ele>280.8</ele>
        <time>2022-06-02T12:32:16Z</time>
      </trkpt>
      <trkpt lat="47.5313850" lon="7.6845130">
        <ele>280.8</ele>
        <time>2022-06-02T12:32:24Z</time>
      </trkpt>
      <trkpt lat="47.5313820" lon="7.6844470">
        <ele>280.8</ele>
        <time>2022-06-02T12:32:25Z</time>
      </trkpt>
      <trkpt lat="47.5313780" lon="7.6842850">
        <ele>280.8</ele>
        <time>2022-06-02T12:32:27Z</time>
      </trkpt>
      <trkpt lat="47.5313750" lon="7.6840290">
        <ele>280.6</ele>
        <time>2022-06-02T12:32:30Z</time>
      </trkpt>
      <trkpt lat="47.5313580" lon="7.6834490">
        <ele>280.6</ele>
        <time>2022-06-02T12:32:37Z</time>
      </trkpt>
      <trkpt lat="47.5313430" lon="7.6826130">
        <ele>280.8</ele>
        <time>2022-06-02T12:32:47Z</time>
      </trkpt>
      <trkpt lat="47.5313410" lon="7.6825110">
        <ele>280.8</ele>
        <time>2022-06-02T12:32:48Z</time>
      </trkpt>
      <trkpt lat="47.5313250" lon="7.6819930">
        <ele>280.6</ele>
        <time>2022-06-02T12:32:55Z</time>
      </trkpt>
      <trkpt lat="47.5313190" lon="7.6815980">
        <ele>280.6</ele>
        <time>2022-06-02T12:33:01Z</time>
      </trkpt>
      <trkpt lat="47.5313210" lon="7.6809010">
        <ele>280.8</ele>
        <time>2022-06-02T12:33:11Z</time>
      </trkpt>
      <trkpt lat="47.5313080" lon="7.6804240">
        <ele>280.8</ele>
        <time>2022-06-02T12:33:18Z</time>
      </trkpt>
      <trkpt lat="47.5313160" lon="7.6797940">
        <ele>281.2</ele>
        <time>2022-06-02T12:33:27Z</time>
      </trkpt>
      <trkpt lat="47.5313080" lon="7.6795060">
        <ele>281.2</ele>
        <time>2022-06-02T12:33:31Z</time>
      </trkpt>
      <trkpt lat="47.5313060" lon="7.6793680">
        <ele>281.2</ele>
        <time>2022-06-02T12:33:33Z</time>
      </trkpt>
      <trkpt lat="47.5313050" lon="7.6793140">
        <ele>280.8</ele>
        <time>2022-06-02T12:33:34Z</time>
      </trkpt>
      <trkpt lat="47.5313010" lon="7.6790400">
        <ele>281.2</ele>
        <time>2022-06-02T12:33:38Z</time>
      </trkpt>
      <trkpt lat="47.5312890" lon="7.6787590">
        <ele>281.2</ele>
        <time>2022-06-02T12:33:42Z</time>
      </trkpt>
      <trkpt lat="47.5312970" lon="7.6781070">
        <ele>281.0</ele>
        <time>2022-06-02T12:33:51Z</time>
      </trkpt>
      <trkpt lat="47.5313130" lon="7.6777460">
        <ele>280.8</ele>
        <time>2022-06-02T12:33:56Z</time>
      </trkpt>
      <trkpt lat="47.5313290" lon="7.6775210">
        <ele>280.8</ele>
        <time>2022-06-02T12:33:59Z</time>
      </trkpt>
      <trkpt lat="47.5314100" lon="7.6769890">
        <ele>280.6</ele>
        <time>2022-06-02T12:34:06Z</time>
      </trkpt>
      <trkpt lat="47.5314770" lon="7.6765940">
        <ele>280.4</ele>
        <time>2022-06-02T12:34:11Z</time>
      </trkpt>
      <trkpt lat="47.5315490" lon="7.6761310">
        <ele>280.4</ele>
        <time>2022-06-02T12:34:17Z</time>
      </trkpt>
      <trkpt lat="47.5316720" lon="7.6755590">
        <ele>280.4</ele>
        <time>2022-06-02T12:34:24Z</time>
      </trkpt>
      <trkpt lat="47.5317730" lon="7.6749800">
        <ele>280.4</ele>
        <time>2022-06-02T12:34:31Z</time>
      </trkpt>
      <trkpt lat="47.5317820" lon="7.6749010">
        <ele>280.2</ele>
        <time>2022-06-02T12:34:32Z</time>
      </trkpt>
      <trkpt lat="47.5319150" lon="7.6741380">
        <ele>280.4</ele>
        <time>2022-06-02T12:34:41Z</time>
      </trkpt>
      <trkpt lat="47.5320020" lon="7.6735180">
        <ele>279.6</ele>
        <time>2022-06-02T12:34:48Z</time>
      </trkpt>
      <trkpt lat="47.5320300" lon="7.6733310">
        <ele>279.2</ele>
        <time>2022-06-02T12:34:50Z</time>
      </trkpt>
      <trkpt lat="47.5320950" lon="7.6728860">
        <ele>278.2</ele>
        <time>2022-06-02T12:34:55Z</time>
      </trkpt>
      <trkpt lat="47.5321890" lon="7.6722270">
        <ele>277.8</ele>
        <time>2022-06-02T12:35:03Z</time>
      </trkpt>
      <trkpt lat="47.5322760" lon="7.6716510">
        <ele>277.8</ele>
        <time>2022-06-02T12:35:11Z</time>
      </trkpt>
      <trkpt lat="47.5323200" lon="7.6713990">
        <ele>278.4</ele>
        <time>2022-06-02T12:35:15Z</time>
      </trkpt>
      <trkpt lat="47.5323560" lon="7.6712220">
        <ele>278.8</ele>
        <time>2022-06-02T12:35:18Z</time>
      </trkpt>
      <trkpt lat="47.5324200" lon="7.6708150">
        <ele>279.4</ele>
        <time>2022-06-02T12:35:24Z</time>
      </trkpt>
      <trkpt lat="47.5324840" lon="7.6704650">
        <ele>279.8</ele>
        <time>2022-06-02T12:35:29Z</time>
      </trkpt>
      <trkpt lat="47.5326500" lon="7.6698220">
        <ele>280.0</ele>
        <time>2022-06-02T12:35:38Z</time>
      </trkpt>
      <trkpt lat="47.5328310" lon="7.6693030">
        <ele>280.0</ele>
        <time>2022-06-02T12:35:46Z</time>
      </trkpt>
      <trkpt lat="47.5330090" lon="7.6688160">
        <ele>280.2</ele>
        <time>2022-06-02T12:35:54Z</time>
      </trkpt>
      <trkpt lat="47.5331270" lon="7.6686090">
        <ele>280.2</ele>
        <time>2022-06-02T12:35:58Z</time>
      </trkpt>
      <trkpt lat="47.5331600" lon="7.6685550">
        <ele>280.2</ele>
        <time>2022-06-02T12:35:59Z</time>
      </trkpt>
      <trkpt lat="47.5332490" lon="7.6683900">
        <ele>280.2</ele>
        <time>2022-06-02T12:36:02Z</time>
      </trkpt>
      <trkpt lat="47.5333400" lon="7.6682010">
        <ele>280.0</ele>
        <time>2022-06-02T12:36:05Z</time>
      </trkpt>
      <trkpt lat="47.5335630" lon="7.6676480">
        <ele>280.2</ele>
        <time>2022-06-02T12:36:13Z</time>
      </trkpt>
      <trkpt lat="47.5337770" lon="7.6671240">
        <ele>280.0</ele>
        <time>2022-06-02T12:36:21Z</time>
      </trkpt>
      <trkpt lat="47.5338130" lon="7.6670700">
        <ele>280.0</ele>
        <time>2022-06-02T12:36:22Z</time>
      </trkpt>
      <trkpt lat="47.5338510" lon="7.6670200">
        <ele>280.0</ele>
        <time>2022-06-02T12:36:23Z</time>
      </trkpt>
      <trkpt lat="47.5339490" lon="7.6668240">
        <ele>280.0</ele>
        <time>2022-06-02T12:36:26Z</time>
      </trkpt>
      <trkpt lat="47.5339700" lon="7.6667560">
        <ele>280.0</ele>
        <time>2022-06-02T12:36:27Z</time>
      </trkpt>
      <trkpt lat="47.5339910" lon="7.6666860">
        <ele>280.0</ele>
        <time>2022-06-02T12:36:28Z</time>
      </trkpt>
      <trkpt lat="47.5340860" lon="7.6664710">
        <ele>280.0</ele>
        <time>2022-06-02T12:36:31Z</time>
      </trkpt>
      <trkpt lat="47.5343070" lon="7.6659940">
        <ele>280.0</ele>
        <time>2022-06-02T12:36:38Z</time>
      </trkpt>
      <trkpt lat="47.5346350" lon="7.6653290">
        <ele>280.0</ele>
        <time>2022-06-02T12:36:48Z</time>
      </trkpt>
      <trkpt lat="47.5346990" lon="7.6652020">
        <ele>280.0</ele>
        <time>2022-06-02T12:36:50Z</time>
      </trkpt>
      <trkpt lat="47.5350290" lon="7.6645550">
        <ele>279.8</ele>
        <time>2022-06-02T12:37:00Z</time>
      </trkpt>
      <trkpt lat="47.5353110" lon="7.6640240">
        <ele>279.8</ele>
        <time>2022-06-02T12:37:08Z</time>
      </trkpt>
      <trkpt lat="47.5355800" lon="7.6635030">
        <ele>280.0</ele>
        <time>2022-06-02T12:37:16Z</time>
      </trkpt>
      <trkpt lat="47.5357470" lon="7.6631760">
        <ele>280.0</ele>
        <time>2022-06-02T12:37:22Z</time>
      </trkpt>
      <trkpt lat="47.5359870" lon="7.6627260">
        <ele>279.8</ele>
        <time>2022-06-02T12:37:30Z</time>
      </trkpt>
      <trkpt lat="47.5362690" lon="7.6622390">
        <ele>279.8</ele>
        <time>2022-06-02T12:37:38Z</time>
      </trkpt>
      <trkpt lat="47.5366250" lon="7.6617090">
        <ele>279.6</ele>
        <time>2022-06-02T12:37:47Z</time>
      </trkpt>
      <trkpt lat="47.5368470" lon="7.6613120">
        <ele>279.4</ele>
        <time>2022-06-02T12:37:53Z</time>
      </trkpt>
      <trkpt lat="47.5368900" lon="7.6612370">
        <ele>279.4</ele>
        <time>2022-06-02T12:37:54Z</time>
      </trkpt>
      <trkpt lat="47.5370640" lon="7.6609250">
        <ele>278.8</ele>
        <time>2022-06-02T12:37:59Z</time>
      </trkpt>
      <trkpt lat="47.5371560" lon="7.6608330">
        <ele>278.6</ele>
        <time>2022-06-02T12:38:01Z</time>
      </trkpt>
      <trkpt lat="47.5372220" lon="7.6607020">
        <ele>278.6</ele>
        <time>2022-06-02T12:38:03Z</time>
      </trkpt>
      <trkpt lat="47.5372680" lon="7.6605520">
        <ele>278.6</ele>
        <time>2022-06-02T12:38:05Z</time>
      </trkpt>
      <trkpt lat="47.5373290" lon="7.6604200">
        <ele>278.6</ele>
        <time>2022-06-02T12:38:07Z</time>
      </trkpt>
      <trkpt lat="47.5376660" lon="7.6597270">
        <ele>278.8</ele>
        <time>2022-06-02T12:38:17Z</time>
      </trkpt>
      <trkpt lat="47.5377530" lon="7.6595230">
        <ele>279.2</ele>
        <time>2022-06-02T12:38:20Z</time>
      </trkpt>
      <trkpt lat="47.5380220" lon="7.6588760">
        <ele>279.6</ele>
        <time>2022-06-02T12:38:30Z</time>
      </trkpt>
      <trkpt lat="47.5382810" lon="7.6583120">
        <ele>280.0</ele>
        <time>2022-06-02T12:38:39Z</time>
      </trkpt>
      <trkpt lat="47.5383510" lon="7.6582120">
        <ele>280.2</ele>
        <time>2022-06-02T12:38:41Z</time>
      </trkpt>
      <trkpt lat="47.5384970" lon="7.6579380">
        <ele>280.6</ele>
        <time>2022-06-02T12:38:46Z</time>
      </trkpt>
      <trkpt lat="47.5385800" lon="7.6577640">
        <ele>281.0</ele>
        <time>2022-06-02T12:38:49Z</time>
      </trkpt>
      <trkpt lat="47.5387320" lon="7.6574950">
        <ele>281.4</ele>
        <time>2022-06-02T12:38:54Z</time>
      </trkpt>
      <trkpt lat="47.5388510" lon="7.6572760">
        <ele>281.8</ele>
        <time>2022-06-02T12:38:58Z</time>
      </trkpt>
      <trkpt lat="47.5390020" lon="7.6569780">
        <ele>282.2</ele>
        <time>2022-06-02T12:39:03Z</time>
      </trkpt>
      <trkpt lat="47.5391270" lon="7.6567370">
        <ele>282.8</ele>
        <time>2022-06-02T12:39:07Z</time>
      </trkpt>
      <trkpt lat="47.5393370" lon="7.6563300">
        <ele>283.4</ele>
        <time>2022-06-02T12:39:14Z</time>
      </trkpt>
      <trkpt lat="47.5395910" lon="7.6558040">
        <ele>284.0</ele>
        <time>2022-06-02T12:39:23Z</time>
      </trkpt>
      <trkpt lat="47.5397950" lon="7.6553950">
        <ele>284.4</ele>
        <time>2022-06-02T12:39:30Z</time>
      </trkpt>
      <trkpt lat="47.5400480" lon="7.6549010">
        <ele>284.6</ele>
        <time>2022-06-02T12:39:38Z</time>
      </trkpt>
      <trkpt lat="47.5403730" lon="7.6542640">
        <ele>284.6</ele>
        <time>2022-06-02T12:39:48Z</time>
      </trkpt>
      <trkpt lat="47.5404070" lon="7.6542010">
        <ele>284.6</ele>
        <time>2022-06-02T12:39:49Z</time>
      </trkpt>
      <trkpt lat="47.5407640" lon="7.6535150">
        <ele>284.6</ele>
        <time>2022-06-02T12:40:00Z</time>
      </trkpt>
      <trkpt lat="47.5408220" lon="7.6533810">
        <ele>284.6</ele>
        <time>2022-06-02T12:40:02Z</time>
      </trkpt>
      <trkpt lat="47.5411540" lon="7.6527370">
        <ele>284.6</ele>
        <time>2022-06-02T12:40:12Z</time>
      </trkpt>
      <trkpt lat="47.5414390" lon="7.6521730">
        <ele>284.4</ele>
        <time>2022-06-02T12:40:21Z</time>
      </trkpt>
      <trkpt lat="47.5417350" lon="7.6515830">
        <ele>284.6</ele>
        <time>2022-06-02T12:40:30Z</time>
      </trkpt>
      <trkpt lat="47.5420750" lon="7.6509260">
        <ele>284.4</ele>
        <time>2022-06-02T12:40:40Z</time>
      </trkpt>
      <trkpt lat="47.5423110" lon="7.6504870">
        <ele>284.2</ele>
        <time>2022-06-02T12:40:47Z</time>
      </trkpt>
      <trkpt lat="47.5423460" lon="7.6504310">
        <ele>284.2</ele>
        <time>2022-06-02T12:40:48Z</time>
      </trkpt>
      <trkpt lat="47.5424980" lon="7.6502420">
        <ele>284.2</ele>
        <time>2022-06-02T12:40:52Z</time>
      </trkpt>
      <trkpt lat="47.5426490" lon="7.6499960">
        <ele>284.0</ele>
        <time>2022-06-02T12:40:57Z</time>
      </trkpt>
      <trkpt lat="47.5427270" lon="7.6497500">
        <ele>284.0</ele>
        <time>2022-06-02T12:41:02Z</time>
      </trkpt>
      <trkpt lat="47.5427770" lon="7.6495530">
        <ele>284.0</ele>
        <time>2022-06-02T12:41:07Z</time>
      </trkpt>
      <trkpt lat="47.5428720" lon="7.6492900">
        <ele>283.8</ele>
        <time>2022-06-02T12:41:12Z</time>
      </trkpt>
      <trkpt lat="47.5430690" lon="7.6489000">
        <ele>283.4</ele>
        <time>2022-06-02T12:41:19Z</time>
      </trkpt>
      <trkpt lat="47.5432150" lon="7.6485760">
        <ele>283.4</ele>
        <time>2022-06-02T12:41:25Z</time>
      </trkpt>
      <trkpt lat="47.5432670" lon="7.6484650">
        <ele>283.4</ele>
        <time>2022-06-02T12:41:27Z</time>
      </trkpt>
      <trkpt lat="47.5433370" lon="7.6483040">
        <ele>283.6</ele>
        <time>2022-06-02T12:41:30Z</time>
      </trkpt>
      <trkpt lat="47.5434450" lon="7.6480600">
        <ele>283.6</ele>
        <time>2022-06-02T12:41:34Z</time>
      </trkpt>
      <trkpt lat="47.5435610" lon="7.6478150">
        <ele>283.6</ele>
        <time>2022-06-02T12:41:38Z</time>
      </trkpt>
      <trkpt lat="47.5436490" lon="7.6476160">
        <ele>283.6</ele>
        <time>2022-06-02T12:41:41Z</time>
      </trkpt>
      <trkpt lat="47.5438270" lon="7.6472150">
        <ele>283.2</ele>
        <time>2022-06-02T12:41:47Z</time>
      </trkpt>
      <trkpt lat="47.5439200" lon="7.6470370">
        <ele>283.0</ele>
        <time>2022-06-02T12:41:50Z</time>
      </trkpt>
      <trkpt lat="47.5440090" lon="7.6468650">
        <ele>282.8</ele>
        <time>2022-06-02T12:41:53Z</time>
      </trkpt>
      <trkpt lat="47.5441620" lon="7.6465270">
        <ele>282.8</ele>
        <time>2022-06-02T12:41:58Z</time>
      </trkpt>
      <trkpt lat="47.5442180" lon="7.6463900">
        <ele>282.6</ele>
        <time>2022-06-02T12:42:00Z</time>
      </trkpt>
      <trkpt lat="47.5443810" lon="7.6460620">
        <ele>282.6</ele>
        <time>2022-06-02T12:42:05Z</time>
      </trkpt>
      <trkpt lat="47.5444730" lon="7.6458540">
        <ele>282.4</ele>
        <time>2022-06-02T12:42:08Z</time>
      </trkpt>
      <trkpt lat="47.5446070" lon="7.6456040">
        <ele>282.4</ele>
        <time>2022-06-02T12:42:12Z</time>
      </trkpt>
      <trkpt lat="47.5446580" lon="7.6454920">
        <ele>282.4</ele>
        <time>2022-06-02T12:42:14Z</time>
      </trkpt>
      <trkpt lat="47.5446870" lon="7.6454390">
        <ele>282.4</ele>
        <time>2022-06-02T12:42:15Z</time>
      </trkpt>
      <trkpt lat="47.5448470" lon="7.6451550">
        <ele>282.2</ele>
        <time>2022-06-02T12:42:21Z</time>
      </trkpt>
      <trkpt lat="47.5448800" lon="7.6451100">
        <ele>282.2</ele>
        <time>2022-06-02T12:42:23Z</time>
      </trkpt>
      <trkpt lat="47.5448780" lon="7.6450950">
        <ele>282.4</ele>
        <time>2022-06-02T12:42:25Z</time>
      </trkpt>
      <trkpt lat="47.5448780" lon="7.6450950">
        <ele>282.4</ele>
        <time>2022-06-02T12:42:26Z</time>
      </trkpt>
      <trkpt lat="47.5448900" lon="7.6450540">
        <ele>281.6</ele>
        <time>2022-06-02T12:43:20Z</time>
      </trkpt>
      <trkpt lat="47.5449080" lon="7.6449810">
        <ele>281.6</ele>
        <time>2022-06-02T12:43:22Z</time>
      </trkpt>
      <trkpt lat="47.5450180" lon="7.6447190">
        <ele>281.6</ele>
        <time>2022-06-02T12:43:27Z</time>
      </trkpt>
      <trkpt lat="47.5452340" lon="7.6442600">
        <ele>281.4</ele>
        <time>2022-06-02T12:43:34Z</time>
      </trkpt>
      <trkpt lat="47.5454470" lon="7.6438120">
        <ele>281.4</ele>
        <time>2022-06-02T12:43:41Z</time>
      </trkpt>
      <trkpt lat="47.5455720" lon="7.6435520">
        <ele>281.6</ele>
        <time>2022-06-02T12:43:45Z</time>
      </trkpt>
      <trkpt lat="47.5457200" lon="7.6433000">
        <ele>281.8</ele>
        <time>2022-06-02T12:43:49Z</time>
      </trkpt>
      <trkpt lat="47.5459040" lon="7.6429980">
        <ele>282.0</ele>
        <time>2022-06-02T12:43:54Z</time>
      </trkpt>
      <trkpt lat="47.5459470" lon="7.6428470">
        <ele>282.2</ele>
        <time>2022-06-02T12:43:56Z</time>
      </trkpt>
      <trkpt lat="47.5460490" lon="7.6423590">
        <ele>282.4</ele>
        <time>2022-06-02T12:44:02Z</time>
      </trkpt>
      <trkpt lat="47.5462530" lon="7.6417200">
        <ele>282.8</ele>
        <time>2022-06-02T12:44:10Z</time>
      </trkpt>
      <trkpt lat="47.5464700" lon="7.6409680">
        <ele>282.6</ele>
        <time>2022-06-02T12:44:19Z</time>
      </trkpt>
      <trkpt lat="47.5466550" lon="7.6401900">
        <ele>282.2</ele>
        <time>2022-06-02T12:44:28Z</time>
      </trkpt>
      <trkpt lat="47.5468060" lon="7.6394540">
        <ele>282.2</ele>
        <time>2022-06-02T12:44:36Z</time>
      </trkpt>
      <trkpt lat="47.5469660" lon="7.6386260">
        <ele>282.0</ele>
        <time>2022-06-02T12:44:45Z</time>
      </trkpt>
      <trkpt lat="47.5470760" lon="7.6379870">
        <ele>281.6</ele>
        <time>2022-06-02T12:44:52Z</time>
      </trkpt>
      <trkpt lat="47.5472060" lon="7.6372640">
        <ele>281.6</ele>
        <time>2022-06-02T12:45:00Z</time>
      </trkpt>
      <trkpt lat="47.5473150" lon="7.6366590">
        <ele>281.6</ele>
        <time>2022-06-02T12:45:07Z</time>
      </trkpt>
      <trkpt lat="47.5473210" lon="7.6365810">
        <ele>281.6</ele>
        <time>2022-06-02T12:45:08Z</time>
      </trkpt>
      <trkpt lat="47.5473310" lon="7.6365020">
        <ele>281.6</ele>
        <time>2022-06-02T12:45:09Z</time>
      </trkpt>
      <trkpt lat="47.5473900" lon="7.6361790">
        <ele>281.8</ele>
        <time>2022-06-02T12:45:13Z</time>
      </trkpt>
      <trkpt lat="47.5474290" lon="7.6359610">
        <ele>281.8</ele>
        <time>2022-06-02T12:45:16Z</time>
      </trkpt>
      <trkpt lat="47.5474580" lon="7.6358340">
        <ele>281.8</ele>
        <time>2022-06-02T12:45:18Z</time>
      </trkpt>
      <trkpt lat="47.5475660" lon="7.6352960">
        <ele>282.0</ele>
        <time>2022-06-02T12:45:26Z</time>
      </trkpt>
      <trkpt lat="47.5476800" lon="7.6347000">
        <ele>282.0</ele>
        <time>2022-06-02T12:45:35Z</time>
      </trkpt>
      <trkpt lat="47.5478020" lon="7.6341640">
        <ele>282.0</ele>
        <time>2022-06-02T12:45:43Z</time>
      </trkpt>
      <trkpt lat="47.5478580" lon="7.6339300">
        <ele>282.0</ele>
        <time>2022-06-02T12:45:48Z</time>
      </trkpt>
      <trkpt lat="47.5478440" lon="7.6337000">
        <ele>282.2</ele>
        <time>2022-06-02T12:45:52Z</time>
      </trkpt>
      <trkpt lat="47.5479040" lon="7.6333850">
        <ele>282.2</ele>
        <time>2022-06-02T12:45:57Z</time>
      </trkpt>
      <trkpt lat="47.5479550" lon="7.6332770">
        <ele>282.0</ele>
        <time>2022-06-02T12:45:59Z</time>
      </trkpt>
      <trkpt lat="47.5479940" lon="7.6331500">
        <ele>282.0</ele>
        <time>2022-06-02T12:46:01Z</time>
      </trkpt>
      <trkpt lat="47.5480000" lon="7.6330150">
        <ele>281.8</ele>
        <time>2022-06-02T12:46:03Z</time>
      </trkpt>
      <trkpt lat="47.5479930" lon="7.6328430">
        <ele>281.8</ele>
        <time>2022-06-02T12:46:06Z</time>
      </trkpt>
      <trkpt lat="47.5480360" lon="7.6325910">
        <ele>281.8</ele>
        <time>2022-06-02T12:46:12Z</time>
      </trkpt>
      <trkpt lat="47.5480780" lon="7.6322810">
        <ele>281.8</ele>
        <time>2022-06-02T12:46:19Z</time>
      </trkpt>
      <trkpt lat="47.5481460" lon="7.6318260">
        <ele>282.0</ele>
        <time>2022-06-02T12:46:28Z</time>
      </trkpt>
      <trkpt lat="47.5482300" lon="7.6313500">
        <ele>281.8</ele>
        <time>2022-06-02T12:46:36Z</time>
      </trkpt>
      <trkpt lat="47.5482800" lon="7.6310650">
        <ele>281.6</ele>
        <time>2022-06-02T12:46:41Z</time>
      </trkpt>
      <trkpt lat="47.5483240" lon="7.6307010">
        <ele>281.8</ele>
        <time>2022-06-02T12:46:47Z</time>
      </trkpt>
      <trkpt lat="47.5483350" lon="7.6306270">
        <ele>281.8</ele>
        <time>2022-06-02T12:46:48Z</time>
      </trkpt>
      <trkpt lat="47.5484050" lon="7.6302740">
        <ele>281.8</ele>
        <time>2022-06-02T12:46:53Z</time>
      </trkpt>
      <trkpt lat="47.5484490" lon="7.6299970">
        <ele>281.8</ele>
        <time>2022-06-02T12:46:57Z</time>
      </trkpt>
      <trkpt lat="47.5484840" lon="7.6298510">
        <ele>281.8</ele>
        <time>2022-06-02T12:46:59Z</time>
      </trkpt>
      <trkpt lat="47.5485940" lon="7.6292920">
        <ele>281.4</ele>
        <time>2022-06-02T12:47:07Z</time>
      </trkpt>
      <trkpt lat="47.5486140" lon="7.6291590">
        <ele>281.4</ele>
        <time>2022-06-02T12:47:09Z</time>
      </trkpt>
      <trkpt lat="47.5486800" lon="7.6288230">
        <ele>281.2</ele>
        <time>2022-06-02T12:47:14Z</time>
      </trkpt>
      <trkpt lat="47.5487570" lon="7.6283710">
        <ele>280.6</ele>
        <time>2022-06-02T12:47:21Z</time>
      </trkpt>
      <trkpt lat="47.5487940" lon="7.6281720">
        <ele>280.4</ele>
        <time>2022-06-02T12:47:24Z</time>
      </trkpt>
      <trkpt lat="47.5488230" lon="7.6280290">
        <ele>280.4</ele>
        <time>2022-06-02T12:47:26Z</time>
      </trkpt>
      <trkpt lat="47.5488460" lon="7.6278850">
        <ele>280.4</ele>
        <time>2022-06-02T12:47:28Z</time>
      </trkpt>
      <trkpt lat="47.5489470" lon="7.6274010">
        <ele>280.0</ele>
        <time>2022-06-02T12:47:35Z</time>
      </trkpt>
      <trkpt lat="47.5489480" lon="7.6273480">
        <ele>280.0</ele>
        <time>2022-06-02T12:47:36Z</time>
      </trkpt>
      <trkpt lat="47.5489350" lon="7.6273030">
        <ele>279.8</ele>
        <time>2022-06-02T12:47:37Z</time>
      </trkpt>
      <trkpt lat="47.5488780" lon="7.6272290">
        <ele>279.8</ele>
        <time>2022-06-02T12:47:39Z</time>
      </trkpt>
      <trkpt lat="47.5487310" lon="7.6272090">
        <ele>279.4</ele>
        <time>2022-06-02T12:47:43Z</time>
      </trkpt>
      <trkpt lat="47.5485440" lon="7.6271470">
        <ele>279.2</ele>
        <time>2022-06-02T12:47:49Z</time>
      </trkpt>
      <trkpt lat="47.5484000" lon="7.6270760">
        <ele>279.4</ele>
        <time>2022-06-02T12:47:54Z</time>
      </trkpt>
      <trkpt lat="47.5482030" lon="7.6269200">
        <ele>279.8</ele>
        <time>2022-06-02T12:48:00Z</time>
      </trkpt>
      <trkpt lat="47.5481360" lon="7.6268430">
        <ele>280.0</ele>
        <time>2022-06-02T12:48:02Z</time>
      </trkpt>
      <trkpt lat="47.5480670" lon="7.6267150">
        <ele>280.0</ele>
        <time>2022-06-02T12:48:05Z</time>
      </trkpt>
      <trkpt lat="47.5480070" lon="7.6264810">
        <ele>280.2</ele>
        <time>2022-06-02T12:48:10Z</time>
      </trkpt>
      <trkpt lat="47.5481290" lon="7.6263570">
        <ele>280.0</ele>
        <time>2022-06-02T12:48:14Z</time>
      </trkpt>
      <trkpt lat="47.5483500" lon="7.6261330">
        <ele>280.0</ele>
        <time>2022-06-02T12:48:20Z</time>
      </trkpt>
      <trkpt lat="47.5484700" lon="7.6260130">
        <ele>279.4</ele>
        <time>2022-06-02T12:48:23Z</time>
      </trkpt>
      <trkpt lat="47.5485780" lon="7.6258540">
        <ele>278.8</ele>
        <time>2022-06-02T12:48:26Z</time>
      </trkpt>
      <trkpt lat="47.5487040" lon="7.6256610">
        <ele>278.2</ele>
        <time>2022-06-02T12:48:29Z</time>
      </trkpt>
      <trkpt lat="47.5487960" lon="7.6255250">
        <ele>277.6</ele>
        <time>2022-06-02T12:48:31Z</time>
      </trkpt>
      <trkpt lat="47.5488970" lon="7.6253760">
        <ele>277.2</ele>
        <time>2022-06-02T12:48:33Z</time>
      </trkpt>
      <trkpt lat="47.5489940" lon="7.6252060">
        <ele>276.0</ele>
        <time>2022-06-02T12:48:35Z</time>
      </trkpt>
      <trkpt lat="47.5490410" lon="7.6251190">
        <ele>275.2</ele>
        <time>2022-06-02T12:48:36Z</time>
      </trkpt>
      <trkpt lat="47.5490910" lon="7.6250320">
        <ele>275.0</ele>
        <time>2022-06-02T12:48:37Z</time>
      </trkpt>
      <trkpt lat="47.5491440" lon="7.6249600">
        <ele>274.2</ele>
        <time>2022-06-02T12:48:38Z</time>
      </trkpt>
      <trkpt lat="47.5492600" lon="7.6248280">
        <ele>273.4</ele>
        <time>2022-06-02T12:48:40Z</time>
      </trkpt>
      <trkpt lat="47.5493200" lon="7.6247670">
        <ele>273.2</ele>
        <time>2022-06-02T12:48:41Z</time>
      </trkpt>
      <trkpt lat="47.5493800" lon="7.6247220">
        <ele>272.8</ele>
        <time>2022-06-02T12:48:42Z</time>
      </trkpt>
      <trkpt lat="47.5495060" lon="7.6246540">
        <ele>272.2</ele>
        <time>2022-06-02T12:48:44Z</time>
      </trkpt>
      <trkpt lat="47.5495700" lon="7.6246180">
        <ele>272.0</ele>
        <time>2022-06-02T12:48:45Z</time>
      </trkpt>
      <trkpt lat="47.5496340" lon="7.6245890">
        <ele>271.4</ele>
        <time>2022-06-02T12:48:46Z</time>
      </trkpt>
      <trkpt lat="47.5496990" lon="7.6245670">
        <ele>270.8</ele>
        <time>2022-06-02T12:48:47Z</time>
      </trkpt>
      <trkpt lat="47.5499040" lon="7.6245070">
        <ele>270.0</ele>
        <time>2022-06-02T12:48:50Z</time>
      </trkpt>
      <trkpt lat="47.5500370" lon="7.6244640">
        <ele>269.6</ele>
        <time>2022-06-02T12:48:52Z</time>
      </trkpt>
      <trkpt lat="47.5504130" lon="7.6243080">
        <ele>269.0</ele>
        <time>2022-06-02T12:48:58Z</time>
      </trkpt>
      <trkpt lat="47.5505780" lon="7.6242560">
        <ele>268.4</ele>
        <time>2022-06-02T12:49:01Z</time>
      </trkpt>
      <trkpt lat="47.5506670" lon="7.6242250">
        <ele>268.0</ele>
        <time>2022-06-02T12:49:03Z</time>
      </trkpt>
      <trkpt lat="47.5509130" lon="7.6241010">
        <ele>267.6</ele>
        <time>2022-06-02T12:49:10Z</time>
      </trkpt>
      <trkpt lat="47.5509650" lon="7.6240340">
        <ele>267.4</ele>
        <time>2022-06-02T12:49:14Z</time>
      </trkpt>
      <trkpt lat="47.5509670" lon="7.6240140">
        <ele>267.4</ele>
        <time>2022-06-02T12:49:17Z</time>
      </trkpt>
      <trkpt lat="47.5509670" lon="7.6240140">
        <ele>267.2</ele>
        <time>2022-06-02T12:49:19Z</time>
      </trkpt>
      <trkpt lat="47.5509490" lon="7.6239380">
        <ele>267.0</ele>
        <time>2022-06-02T12:49:23Z</time>
      </trkpt>
      <trkpt lat="47.5509170" lon="7.6238680">
        <ele>267.0</ele>
        <time>2022-06-02T12:49:25Z</time>
      </trkpt>
      <trkpt lat="47.5508800" lon="7.6237340">
        <ele>266.8</ele>
        <time>2022-06-02T12:49:28Z</time>
      </trkpt>
      <trkpt lat="47.5507420" lon="7.6236390">
        <ele>266.6</ele>
        <time>2022-06-02T12:49:32Z</time>
      </trkpt>
      <trkpt lat="47.5506410" lon="7.6235890">
        <ele>266.4</ele>
        <time>2022-06-02T12:49:34Z</time>
      </trkpt>
      <trkpt lat="47.5505880" lon="7.6235690">
        <ele>266.4</ele>
        <time>2022-06-02T12:49:35Z</time>
      </trkpt>
      <trkpt lat="47.5505100" lon="7.6235480">
        <ele>266.0</ele>
        <time>2022-06-02T12:49:37Z</time>
      </trkpt>
      <trkpt lat="47.5504330" lon="7.6235690">
        <ele>265.8</ele>
        <time>2022-06-02T12:49:39Z</time>
      </trkpt>
      <trkpt lat="47.5502700" lon="7.6235540">
        <ele>265.6</ele>
        <time>2022-06-02T12:49:42Z</time>
      </trkpt>
      <trkpt lat="47.5500320" lon="7.6234680">
        <ele>265.2</ele>
        <time>2022-06-02T12:49:46Z</time>
      </trkpt>
      <trkpt lat="47.5498730" lon="7.6234510">
        <ele>264.8</ele>
        <time>2022-06-02T12:49:49Z</time>
      </trkpt>
      <trkpt lat="47.5495430" lon="7.6234060">
        <ele>264.4</ele>
        <time>2022-06-02T12:49:55Z</time>
      </trkpt>
      <trkpt lat="47.5494570" lon="7.6234130">
        <ele>264.4</ele>
        <time>2022-06-02T12:49:57Z</time>
      </trkpt>
      <trkpt lat="47.5490530" lon="7.6233820">
        <ele>264.6</ele>
        <time>2022-06-02T12:50:05Z</time>
      </trkpt>
      <trkpt lat="47.5488180" lon="7.6233760">
        <ele>264.8</ele>
        <time>2022-06-02T12:50:11Z</time>
      </trkpt>
      <trkpt lat="47.5486420" lon="7.6233840">
        <ele>264.6</ele>
        <time>2022-06-02T12:50:15Z</time>
      </trkpt>
      <trkpt lat="47.5485060" lon="7.6233660">
        <ele>264.6</ele>
        <time>2022-06-02T12:50:18Z</time>
      </trkpt>
      <trkpt lat="47.5481430" lon="7.6233370">
        <ele>264.6</ele>
        <time>2022-06-02T12:50:26Z</time>
      </trkpt>
      <trkpt lat="47.5480580" lon="7.6233310">
        <ele>264.6</ele>
        <time>2022-06-02T12:50:28Z</time>
      </trkpt>
      <trkpt lat="47.5479520" lon="7.6233330">
        <ele>264.6</ele>
        <time>2022-06-02T12:50:31Z</time>
      </trkpt>
      <trkpt lat="47.5477420" lon="7.6233010">
        <ele>264.6</ele>
        <time>2022-06-02T12:50:36Z</time>
      </trkpt>
      <trkpt lat="47.5475270" lon="7.6232480">
        <ele>264.6</ele>
        <time>2022-06-02T12:50:42Z</time>
      </trkpt>
      <trkpt lat="47.5474850" lon="7.6231970">
        <ele>264.6</ele>
        <time>2022-06-02T12:50:44Z</time>
      </trkpt>
      <trkpt lat="47.5474640" lon="7.6231180">
        <ele>264.8</ele>
        <time>2022-06-02T12:50:46Z</time>
      </trkpt>
      <trkpt lat="47.5474640" lon="7.6228460">
        <ele>265.2</ele>
        <time>2022-06-02T12:50:52Z</time>
      </trkpt>
      <trkpt lat="47.5474550" lon="7.6225310">
        <ele>265.4</ele>
        <time>2022-06-02T12:51:00Z</time>
      </trkpt>
      <trkpt lat="47.5474590" lon="7.6224430">
        <ele>265.4</ele>
        <time>2022-06-02T12:51:06Z</time>
      </trkpt>
      <trkpt lat="47.5474590" lon="7.6224430">
        <ele>265.4</ele>
        <time>2022-06-02T12:51:07Z</time>
      </trkpt>
      <trkpt lat="47.5474190" lon="7.6223520">
        <ele>264.8</ele>
        <time>2022-06-02T12:51:25Z</time>
      </trkpt>
      <trkpt lat="47.5474000" lon="7.6222570">
        <ele>264.8</ele>
        <time>2022-06-02T12:51:27Z</time>
      </trkpt>
      <trkpt lat="47.5474060" lon="7.6219550">
        <ele>264.4</ele>
        <time>2022-06-02T12:51:32Z</time>
      </trkpt>
      <trkpt lat="47.5474070" lon="7.6218170">
        <ele>264.2</ele>
        <time>2022-06-02T12:51:34Z</time>
      </trkpt>
      <trkpt lat="47.5474200" lon="7.6215390">
        <ele>263.8</ele>
        <time>2022-06-02T12:51:38Z</time>
      </trkpt>
      <trkpt lat="47.5474260" lon="7.6214610">
        <ele>263.8</ele>
        <time>2022-06-02T12:51:39Z</time>
      </trkpt>
      <trkpt lat="47.5474350" lon="7.6213910">
        <ele>263.6</ele>
        <time>2022-06-02T12:51:40Z</time>
      </trkpt>
      <trkpt lat="47.5474560" lon="7.6212680">
        <ele>263.6</ele>
        <time>2022-06-02T12:51:42Z</time>
      </trkpt>
      <trkpt lat="47.5474380" lon="7.6211810">
        <ele>263.6</ele>
        <time>2022-06-02T12:51:44Z</time>
      </trkpt>
      <trkpt lat="47.5474210" lon="7.6211290">
        <ele>263.4</ele>
        <time>2022-06-02T12:51:48Z</time>
      </trkpt>
      <trkpt lat="47.5474210" lon="7.6209560">
        <ele>263.6</ele>
        <time>2022-06-02T12:51:52Z</time>
      </trkpt>
      <trkpt lat="47.5474360" lon="7.6205280">
        <ele>263.8</ele>
        <time>2022-06-02T12:51:59Z</time>
      </trkpt>
      <trkpt lat="47.5474330" lon="7.6202970">
        <ele>264.2</ele>
        <time>2022-06-02T12:52:03Z</time>
      </trkpt>
      <trkpt lat="47.5474460" lon="7.6199020">
        <ele>265.2</ele>
        <time>2022-06-02T12:52:10Z</time>
      </trkpt>
      <trkpt lat="47.5474270" lon="7.6197890">
        <ele>265.6</ele>
        <time>2022-06-02T12:52:12Z</time>
      </trkpt>
      <trkpt lat="47.5474220" lon="7.6194500">
        <ele>266.6</ele>
        <time>2022-06-02T12:52:18Z</time>
      </trkpt>
      <trkpt lat="47.5474260" lon="7.6193950">
        <ele>266.4</ele>
        <time>2022-06-02T12:52:19Z</time>
      </trkpt>
      <trkpt lat="47.5474490" lon="7.6191230">
        <ele>266.8</ele>
        <time>2022-06-02T12:52:24Z</time>
      </trkpt>
      <trkpt lat="47.5474520" lon="7.6188170">
        <ele>267.6</ele>
        <time>2022-06-02T12:52:30Z</time>
      </trkpt>
      <trkpt lat="47.5474600" lon="7.6187160">
        <ele>268.0</ele>
        <time>2022-06-02T12:52:33Z</time>
      </trkpt>
      <trkpt lat="47.5474170" lon="7.6186190">
        <ele>268.4</ele>
        <time>2022-06-02T12:52:37Z</time>
      </trkpt>
      <trkpt lat="47.5473620" lon="7.6185680">
        <ele>268.6</ele>
        <time>2022-06-02T12:52:39Z</time>
      </trkpt>
      <trkpt lat="47.5473250" lon="7.6185530">
        <ele>268.6</ele>
        <time>2022-06-02T12:52:40Z</time>
      </trkpt>
      <trkpt lat="47.5472150" lon="7.6185530">
        <ele>269.0</ele>
        <time>2022-06-02T12:52:43Z</time>
      </trkpt>
      <trkpt lat="47.5470330" lon="7.6186160">
        <ele>269.2</ele>
        <time>2022-06-02T12:52:48Z</time>
      </trkpt>
      <trkpt lat="47.5467290" lon="7.6186460">
        <ele>269.6</ele>
        <time>2022-06-02T12:52:56Z</time>
      </trkpt>
      <trkpt lat="47.5466310" lon="7.6186390">
        <ele>269.6</ele>
        <time>2022-06-02T12:53:00Z</time>
      </trkpt>
      <trkpt lat="47.5464990" lon="7.6186550">
        <ele>269.4</ele>
        <time>2022-06-02T12:53:08Z</time>
      </trkpt>
      <trkpt lat="47.5464890" lon="7.6186670">
        <ele>269.4</ele>
        <time>2022-06-02T12:53:09Z</time>
      </trkpt>
      <trkpt lat="47.5465080" lon="7.6186960">
        <ele>269.4</ele>
        <time>2022-06-02T12:53:12Z</time>
      </trkpt>
      <trkpt lat="47.5465310" lon="7.6186910">
        <ele>269.4</ele>
        <time>2022-06-02T12:53:13Z</time>
      </trkpt>
      <trkpt lat="47.5466010" lon="7.6186730">
        <ele>269.4</ele>
        <time>2022-06-02T12:53:16Z</time>
      </trkpt>
      <trkpt lat="47.5468020" lon="7.6186660">
        <ele>269.4</ele>
        <time>2022-06-02T12:53:24Z</time>
      </trkpt>
      <trkpt lat="47.5469760" lon="7.6186420">
        <ele>269.4</ele>
        <time>2022-06-02T12:53:29Z</time>
      </trkpt>
      <trkpt lat="47.5470540" lon="7.6186130">
        <ele>269.8</ele>
        <time>2022-06-02T12:53:32Z</time>
      </trkpt>
      <trkpt lat="47.5470730" lon="7.6185990">
        <ele>269.8</ele>
        <time>2022-06-02T12:53:34Z</time>
      </trkpt>
      <trkpt lat="47.5470740" lon="7.6185870">
        <ele>270.0</ele>
        <time>2022-06-02T12:53:39Z</time>
      </trkpt>
      <trkpt lat="47.5470700" lon="7.6185570">
        <ele>269.8</ele>
        <time>2022-06-02T12:53:49Z</time>
      </trkpt>
      <trkpt lat="47.5470600" lon="7.6184500">
        <ele>269.6</ele>
        <time>2022-06-02T12:53:52Z</time>
      </trkpt>
      <trkpt lat="47.5470380" lon="7.6182090">
        <ele>270.0</ele>
        <time>2022-06-02T12:53:58Z</time>
      </trkpt>
      <trkpt lat="47.5470010" lon="7.6181410">
        <ele>270.4</ele>
        <time>2022-06-02T12:54:01Z</time>
      </trkpt>
      <trkpt lat="47.5469830" lon="7.6181410">
        <ele>270.4</ele>
        <time>2022-06-02T12:54:02Z</time>
      </trkpt>
      <trkpt lat="47.5469440" lon="7.6181460">
        <ele>270.6</ele>
        <time>2022-06-02T12:54:04Z</time>
      </trkpt>
      <trkpt lat="47.5468670" lon="7.6181360">
        <ele>271.8</ele>
        <time>2022-06-02T12:54:08Z</time>
      </trkpt>
      <trkpt lat="47.5468630" lon="7.6181340">
        <ele>272.6</ele>
        <time>2022-06-02T12:54:11Z</time>
      </trkpt>
      <trkpt lat="47.5468080" lon="7.6181210">
        <ele>274.2</ele>
        <time>2022-06-02T12:54:24Z</time>
      </trkpt>
      <trkpt lat="47.5466290" lon="7.6181500">
        <ele>273.8</ele>
        <time>2022-06-02T12:54:30Z</time>
      </trkpt>
      <trkpt lat="47.5465000" lon="7.6181120">
        <ele>273.4</ele>
        <time>2022-06-02T12:54:34Z</time>
      </trkpt>
      <trkpt lat="47.5463860" lon="7.6180940">
        <ele>273.4</ele>
        <time>2022-06-02T12:54:37Z</time>
      </trkpt>
      <trkpt lat="47.5463320" lon="7.6180570">
        <ele>273.4</ele>
        <time>2022-06-02T12:54:39Z</time>
      </trkpt>
      <trkpt lat="47.5462320" lon="7.6178910">
        <ele>274.2</ele>
        <time>2022-06-02T12:54:45Z</time>
      </trkpt>
      <trkpt lat="47.5462240" lon="7.6177750">
        <ele>275.2</ele>
        <time>2022-06-02T12:54:49Z</time>
      </trkpt>
      <trkpt lat="47.5462410" lon="7.6177180">
        <ele>276.0</ele>
        <time>2022-06-02T12:54:51Z</time>
      </trkpt>
      <trkpt lat="47.5462470" lon="7.6176850">
        <ele>276.2</ele>
        <time>2022-06-02T12:54:52Z</time>
      </trkpt>
      <trkpt lat="47.5463350" lon="7.6175430">
        <ele>277.4</ele>
        <time>2022-06-02T12:54:57Z</time>
      </trkpt>
      <trkpt lat="47.5463700" lon="7.6174730">
        <ele>277.6</ele>
        <time>2022-06-02T12:54:59Z</time>
      </trkpt>
      <trkpt lat="47.5463750" lon="7.6173900">
        <ele>277.8</ele>
        <time>2022-06-02T12:55:01Z</time>
      </trkpt>
      <trkpt lat="47.5463790" lon="7.6171810">
        <ele>278.4</ele>
        <time>2022-06-02T12:55:06Z</time>
      </trkpt>
      <trkpt lat="47.5463550" lon="7.6170760">
        <ele>278.6</ele>
        <time>2022-06-02T12:55:09Z</time>
      </trkpt>
      <trkpt lat="47.5462110" lon="7.6169540">
        <ele>279.4</ele>
        <time>2022-06-02T12:55:14Z</time>
      </trkpt>
      <trkpt lat="47.5461810" lon="7.6169270">
        <ele>279.2</ele>
        <time>2022-06-02T12:55:15Z</time>
      </trkpt>
      <trkpt lat="47.5460710" lon="7.6167730">
        <ele>279.6</ele>
        <time>2022-06-02T12:55:20Z</time>
      </trkpt>
      <trkpt lat="47.5460590" lon="7.6167370">
        <ele>279.6</ele>
        <time>2022-06-02T12:55:21Z</time>
      </trkpt>
      <trkpt lat="47.5460190" lon="7.6166490">
        <ele>279.6</ele>
        <time>2022-06-02T12:55:23Z</time>
      </trkpt>
      <trkpt lat="47.5460270" lon="7.6165660">
        <ele>279.8</ele>
        <time>2022-06-02T12:55:25Z</time>
      </trkpt>
      <trkpt lat="47.5460990" lon="7.6162680">
        <ele>280.2</ele>
        <time>2022-06-02T12:55:32Z</time>
      </trkpt>
      <trkpt lat="47.5461230" lon="7.6161380">
        <ele>280.4</ele>
        <time>2022-06-02T12:55:35Z</time>
      </trkpt>
      <trkpt lat="47.5461660" lon="7.6160170">
        <ele>280.4</ele>
        <time>2022-06-02T12:55:38Z</time>
      </trkpt>
      <trkpt lat="47.5462770" lon="7.6157140">
        <ele>280.8</ele>
        <time>2022-06-02T12:55:45Z</time>
      </trkpt>
      <trkpt lat="47.5464290" lon="7.6153680">
        <ele>281.6</ele>
        <time>2022-06-02T12:55:54Z</time>
      </trkpt>
      <trkpt lat="47.5464500" lon="7.6153280">
        <ele>281.4</ele>
        <time>2022-06-02T12:55:55Z</time>
      </trkpt>
      <trkpt lat="47.5465510" lon="7.6150760">
        <ele>282.6</ele>
        <time>2022-06-02T12:56:02Z</time>
      </trkpt>
      <trkpt lat="47.5465640" lon="7.6150380">
        <ele>282.8</ele>
        <time>2022-06-02T12:56:03Z</time>
      </trkpt>
      <trkpt lat="47.5466540" lon="7.6148540">
        <ele>283.8</ele>
        <time>2022-06-02T12:56:08Z</time>
      </trkpt>
      <trkpt lat="47.5466890" lon="7.6147840">
        <ele>284.0</ele>
        <time>2022-06-02T12:56:10Z</time>
      </trkpt>
      <trkpt lat="47.5468690" lon="7.6144090">
        <ele>284.2</ele>
        <time>2022-06-02T12:56:19Z</time>
      </trkpt>
      <trkpt lat="47.5469680" lon="7.6140430">
        <ele>284.4</ele>
        <time>2022-06-02T12:56:26Z</time>
      </trkpt>
      <trkpt lat="47.5470440" lon="7.6138040">
        <ele>284.4</ele>
        <time>2022-06-02T12:56:31Z</time>
      </trkpt>
      <trkpt lat="47.5471340" lon="7.6135700">
        <ele>284.2</ele>
        <time>2022-06-02T12:56:35Z</time>
      </trkpt>
      <trkpt lat="47.5471520" lon="7.6134970">
        <ele>284.2</ele>
        <time>2022-06-02T12:56:36Z</time>
      </trkpt>
      <trkpt lat="47.5472500" lon="7.6130360">
        <ele>283.6</ele>
        <time>2022-06-02T12:56:42Z</time>
      </trkpt>
      <trkpt lat="47.5472710" lon="7.6129600">
        <ele>283.6</ele>
        <time>2022-06-02T12:56:43Z</time>
      </trkpt>
      <trkpt lat="47.5473140" lon="7.6128100">
        <ele>283.4</ele>
        <time>2022-06-02T12:56:45Z</time>
      </trkpt>
      <trkpt lat="47.5473320" lon="7.6126800">
        <ele>283.2</ele>
        <time>2022-06-02T12:56:47Z</time>
      </trkpt>
      <trkpt lat="47.5473400" lon="7.6126130">
        <ele>283.0</ele>
        <time>2022-06-02T12:56:48Z</time>
      </trkpt>
      <trkpt lat="47.5474110" lon="7.6123130">
        <ele>282.8</ele>
        <time>2022-06-02T12:56:52Z</time>
      </trkpt>
      <trkpt lat="47.5474480" lon="7.6121640">
        <ele>282.6</ele>
        <time>2022-06-02T12:56:54Z</time>
      </trkpt>
      <trkpt lat="47.5474850" lon="7.6120030">
        <ele>282.6</ele>
        <time>2022-06-02T12:56:56Z</time>
      </trkpt>
      <trkpt lat="47.5475750" lon="7.6116850">
        <ele>282.4</ele>
        <time>2022-06-02T12:57:00Z</time>
      </trkpt>
      <trkpt lat="47.5475920" lon="7.6116250">
        <ele>282.2</ele>
        <time>2022-06-02T12:57:01Z</time>
      </trkpt>
      <trkpt lat="47.5476670" lon="7.6113650">
        <ele>282.2</ele>
        <time>2022-06-02T12:57:05Z</time>
      </trkpt>
      <trkpt lat="47.5477500" lon="7.6109860">
        <ele>281.8</ele>
        <time>2022-06-02T12:57:11Z</time>
      </trkpt>
      <trkpt lat="47.5477450" lon="7.6108390">
        <ele>281.8</ele>
        <time>2022-06-02T12:57:14Z</time>
      </trkpt>
      <trkpt lat="47.5478340" lon="7.6105590">
        <ele>281.8</ele>
        <time>2022-06-02T12:57:18Z</time>
      </trkpt>
      <trkpt lat="47.5479160" lon="7.6102650">
        <ele>281.8</ele>
        <time>2022-06-02T12:57:23Z</time>
      </trkpt>
      <trkpt lat="47.5479160" lon="7.6102190">
        <ele>281.8</ele>
        <time>2022-06-02T12:57:24Z</time>
      </trkpt>
      <trkpt lat="47.5478750" lon="7.6101020">
        <ele>281.6</ele>
        <time>2022-06-02T12:57:27Z</time>
      </trkpt>
      <trkpt lat="47.5478210" lon="7.6100120">
        <ele>281.6</ele>
        <time>2022-06-02T12:57:30Z</time>
      </trkpt>
      <trkpt lat="47.5478110" lon="7.6099830">
        <ele>281.6</ele>
        <time>2022-06-02T12:57:31Z</time>
      </trkpt>
      <trkpt lat="47.5477830" lon="7.6098930">
        <ele>281.8</ele>
        <time>2022-06-02T12:57:34Z</time>
      </trkpt>
      <trkpt lat="47.5477400" lon="7.6098110">
        <ele>281.8</ele>
        <time>2022-06-02T12:57:36Z</time>
      </trkpt>
      <trkpt lat="47.5477020" lon="7.6097790">
        <ele>281.8</ele>
        <time>2022-06-02T12:57:37Z</time>
      </trkpt>
      <trkpt lat="47.5476430" lon="7.6097450">
        <ele>281.8</ele>
        <time>2022-06-02T12:57:39Z</time>
      </trkpt>
      <trkpt lat="47.5476220" lon="7.6097450">
        <ele>281.6</ele>
        <time>2022-06-02T12:57:43Z</time>
      </trkpt>
      <trkpt lat="47.5475970" lon="7.6096430">
        <ele>281.6</ele>
        <time>2022-06-02T12:57:53Z</time>
      </trkpt>
      <trkpt lat="47.5475910" lon="7.6096300">
        <ele>281.6</ele>
        <time>2022-06-02T12:57:54Z</time>
      </trkpt>
      <trkpt lat="47.5475910" lon="7.6096370">
        <ele>281.6</ele>
        <time>2022-06-02T12:57:55Z</time>
      </trkpt>
      <trkpt lat="47.5475820" lon="7.6096580">
        <ele>281.8</ele>
        <time>2022-06-02T12:57:57Z</time>
      </trkpt>
      <trkpt lat="47.5474640" lon="7.6097780">
        <ele>281.6</ele>
        <time>2022-06-02T12:58:02Z</time>
      </trkpt>
      <trkpt lat="47.5474280" lon="7.6097990">
        <ele>281.8</ele>
        <time>2022-06-02T12:58:06Z</time>
      </trkpt>
      <trkpt lat="47.5474280" lon="7.6097990">
        <ele>281.8</ele>
        <time>2022-06-02T12:58:07Z</time>
      </trkpt>
      <trkpt lat="47.5473680" lon="7.6096880">
        <ele>282.0</ele>
        <time>2022-06-02T12:58:31Z</time>
      </trkpt>
      <trkpt lat="47.5472960" lon="7.6096160">
        <ele>282.0</ele>
        <time>2022-06-02T12:58:33Z</time>
      </trkpt>
      <trkpt lat="47.5471150" lon="7.6093530">
        <ele>281.2</ele>
        <time>2022-06-02T12:58:39Z</time>
      </trkpt>
      <trkpt lat="47.5469910" lon="7.6092410">
        <ele>280.8</ele>
        <time>2022-06-02T12:58:42Z</time>
      </trkpt>
      <trkpt lat="47.5468950" lon="7.6091740">
        <ele>280.8</ele>
        <time>2022-06-02T12:58:44Z</time>
      </trkpt>
      <trkpt lat="47.5466290" lon="7.6088160">
        <ele>280.6</ele>
        <time>2022-06-02T12:58:51Z</time>
      </trkpt>
      <trkpt lat="47.5465970" lon="7.6087720">
        <ele>280.6</ele>
        <time>2022-06-02T12:58:52Z</time>
      </trkpt>
      <trkpt lat="47.5465150" lon="7.6087110">
        <ele>280.6</ele>
        <time>2022-06-02T12:58:54Z</time>
      </trkpt>
      <trkpt lat="47.5464720" lon="7.6086960">
        <ele>280.6</ele>
        <time>2022-06-02T12:58:55Z</time>
      </trkpt>
      <trkpt lat="47.5464260" lon="7.6086840">
        <ele>280.6</ele>
        <time>2022-06-02T12:58:56Z</time>
      </trkpt>
      <trkpt lat="47.5463250" lon="7.6086710">
        <ele>280.6</ele>
        <time>2022-06-02T12:58:59Z</time>
      </trkpt>
      <trkpt lat="47.5463080" lon="7.6086470">
        <ele>280.6</ele>
        <time>2022-06-02T12:59:00Z</time>
      </trkpt>
      <trkpt lat="47.5462980" lon="7.6086200">
        <ele>280.6</ele>
        <time>2022-06-02T12:59:01Z</time>
      </trkpt>
      <trkpt lat="47.5462930" lon="7.6084970">
        <ele>280.6</ele>
        <time>2022-06-02T12:59:04Z</time>
      </trkpt>
      <trkpt lat="47.5463230" lon="7.6081870">
        <ele>281.0</ele>
        <time>2022-06-02T12:59:10Z</time>
      </trkpt>
      <trkpt lat="47.5463390" lon="7.6079960">
        <ele>281.0</ele>
        <time>2022-06-02T12:59:13Z</time>
      </trkpt>
      <trkpt lat="47.5463400" lon="7.6078670">
        <ele>281.0</ele>
        <time>2022-06-02T12:59:15Z</time>
      </trkpt>
      <trkpt lat="47.5463410" lon="7.6075570">
        <ele>281.2</ele>
        <time>2022-06-02T12:59:20Z</time>
      </trkpt>
      <trkpt lat="47.5463420" lon="7.6073630">
        <ele>281.2</ele>
        <time>2022-06-02T12:59:23Z</time>
      </trkpt>
      <trkpt lat="47.5463820" lon="7.6072300">
        <ele>281.2</ele>
        <time>2022-06-02T12:59:26Z</time>
      </trkpt>
      <trkpt lat="47.5464010" lon="7.6071180">
        <ele>281.2</ele>
        <time>2022-06-02T12:59:30Z</time>
      </trkpt>
      <trkpt lat="47.5464100" lon="7.6068990">
        <ele>281.2</ele>
        <time>2022-06-02T12:59:35Z</time>
      </trkpt>
      <trkpt lat="47.5463310" lon="7.6066590">
        <ele>281.0</ele>
        <time>2022-06-02T12:59:40Z</time>
      </trkpt>
      <trkpt lat="47.5462330" lon="7.6062730">
        <ele>281.4</ele>
        <time>2022-06-02T12:59:47Z</time>
      </trkpt>
      <trkpt lat="47.5461720" lon="7.6060290">
        <ele>281.8</ele>
        <time>2022-06-02T12:59:51Z</time>
      </trkpt>
      <trkpt lat="47.5461370" lon="7.6059130">
        <ele>282.0</ele>
        <time>2022-06-02T12:59:53Z</time>
      </trkpt>
      <trkpt lat="47.5460500" lon="7.6056470">
        <ele>282.4</ele>
        <time>2022-06-02T12:59:58Z</time>
      </trkpt>
      <trkpt lat="47.5459470" lon="7.6053450">
        <ele>282.6</ele>
        <time>2022-06-02T13:00:04Z</time>
      </trkpt>
      <trkpt lat="47.5459050" lon="7.6051850">
        <ele>282.8</ele>
        <time>2022-06-02T13:00:07Z</time>
      </trkpt>
      <trkpt lat="47.5458790" lon="7.6050740">
        <ele>283.0</ele>
        <time>2022-06-02T13:00:09Z</time>
      </trkpt>
      <trkpt lat="47.5457750" lon="7.6046680">
        <ele>283.8</ele>
        <time>2022-06-02T13:00:17Z</time>
      </trkpt>
      <trkpt lat="47.5457620" lon="7.6046170">
        <ele>284.0</ele>
        <time>2022-06-02T13:00:18Z</time>
      </trkpt>
      <trkpt lat="47.5457100" lon="7.6043590">
        <ele>284.4</ele>
        <time>2022-06-02T13:00:23Z</time>
      </trkpt>
      <trkpt lat="47.5456280" lon="7.6041350">
        <ele>284.8</ele>
        <time>2022-06-02T13:00:28Z</time>
      </trkpt>
      <trkpt lat="47.5455770" lon="7.6040460">
        <ele>285.0</ele>
        <time>2022-06-02T13:00:30Z</time>
      </trkpt>
      <trkpt lat="47.5454930" lon="7.6038620">
        <ele>285.6</ele>
        <time>2022-06-02T13:00:34Z</time>
      </trkpt>
      <trkpt lat="47.5453880" lon="7.6036370">
        <ele>286.0</ele>
        <time>2022-06-02T13:00:38Z</time>
      </trkpt>
      <trkpt lat="47.5453230" lon="7.6035210">
        <ele>286.4</ele>
        <time>2022-06-02T13:00:41Z</time>
      </trkpt>
      <trkpt lat="47.5453150" lon="7.6034970">
        <ele>287.0</ele>
        <time>2022-06-02T13:00:45Z</time>
      </trkpt>
      <trkpt lat="47.5452900" lon="7.6034370">
        <ele>286.2</ele>
        <time>2022-06-02T13:01:36Z</time>
      </trkpt>
      <trkpt lat="47.5452600" lon="7.6033570">
        <ele>286.2</ele>
        <time>2022-06-02T13:01:38Z</time>
      </trkpt>
      <trkpt lat="47.5453010" lon="7.6032060">
        <ele>286.2</ele>
        <time>2022-06-02T13:01:41Z</time>
      </trkpt>
      <trkpt lat="47.5453760" lon="7.6030340">
        <ele>286.0</ele>
        <time>2022-06-02T13:01:44Z</time>
      </trkpt>
      <trkpt lat="47.5453880" lon="7.6029660">
        <ele>286.0</ele>
        <time>2022-06-02T13:01:45Z</time>
      </trkpt>
      <trkpt lat="47.5453860" lon="7.6028940">
        <ele>286.0</ele>
        <time>2022-06-02T13:01:46Z</time>
      </trkpt>
      <trkpt lat="47.5453660" lon="7.6027870">
        <ele>286.0</ele>
        <time>2022-06-02T13:01:48Z</time>
      </trkpt>
      <trkpt lat="47.5453580" lon="7.6027460">
        <ele>286.0</ele>
        <time>2022-06-02T13:01:49Z</time>
      </trkpt>
      <trkpt lat="47.5453590" lon="7.6027060">
        <ele>286.0</ele>
        <time>2022-06-02T13:01:50Z</time>
      </trkpt>
      <trkpt lat="47.5453680" lon="7.6025930">
        <ele>286.0</ele>
        <time>2022-06-02T13:01:53Z</time>
      </trkpt>
      <trkpt lat="47.5453630" lon="7.6024820">
        <ele>286.0</ele>
        <time>2022-06-02T13:01:57Z</time>
      </trkpt>
      <trkpt lat="47.5453530" lon="7.6024620">
        <ele>286.0</ele>
        <time>2022-06-02T13:01:58Z</time>
      </trkpt>
      <trkpt lat="47.5453460" lon="7.6024390">
        <ele>286.0</ele>
        <time>2022-06-02T13:01:59Z</time>
      </trkpt>
      <trkpt lat="47.5453470" lon="7.6024310">
        <ele>286.0</ele>
        <time>2022-06-02T13:02:02Z</time>
      </trkpt>
      <trkpt lat="47.5452910" lon="7.6025020">
        <ele>286.0</ele>
        <time>2022-06-02T13:02:13Z</time>
      </trkpt>
      <trkpt lat="47.5452900" lon="7.6025840">
        <ele>286.0</ele>
        <time>2022-06-02T13:02:15Z</time>
      </trkpt>
      <trkpt lat="47.5452990" lon="7.6026270">
        <ele>286.0</ele>
        <time>2022-06-02T13:02:17Z</time>
      </trkpt>
      <trkpt lat="47.5452350" lon="7.6026860">
        <ele>286.2</ele>
        <time>2022-06-02T13:02:19Z</time>
      </trkpt>
      <trkpt lat="47.5452330" lon="7.6027080">
        <ele>286.2</ele>
        <time>2022-06-02T13:02:20Z</time>
      </trkpt>
      <trkpt lat="47.5452340" lon="7.6027460">
        <ele>286.2</ele>
        <time>2022-06-02T13:02:23Z</time>
      </trkpt>
      <trkpt lat="47.5452340" lon="7.6027460">
        <ele>286.2</ele>
        <time>2022-06-02T13:02:24Z</time>
      </trkpt>
      <trkpt lat="47.5451650" lon="7.6027530">
        <ele>285.8</ele>
        <time>2022-06-02T13:03:46Z</time>
      </trkpt>
      <trkpt lat="47.5450940" lon="7.6027580">
        <ele>285.8</ele>
        <time>2022-06-02T13:03:48Z</time>
      </trkpt>
      <trkpt lat="47.5450520" lon="7.6027630">
        <ele>285.8</ele>
        <time>2022-06-02T13:03:49Z</time>
      </trkpt>
      <trkpt lat="47.5449420" lon="7.6027650">
        <ele>286.0</ele>
        <time>2022-06-02T13:03:52Z</time>
      </trkpt>
      <trkpt lat="47.5448730" lon="7.6027980">
        <ele>286.2</ele>
        <time>2022-06-02T13:03:54Z</time>
      </trkpt>
      <trkpt lat="47.5448320" lon="7.6027860">
        <ele>286.4</ele>
        <time>2022-06-02T13:03:55Z</time>
      </trkpt>
      <trkpt lat="47.5447740" lon="7.6026580">
        <ele>286.4</ele>
        <time>2022-06-02T13:03:57Z</time>
      </trkpt>
      <trkpt lat="47.5447350" lon="7.6024690">
        <ele>286.4</ele>
        <time>2022-06-02T13:03:59Z</time>
      </trkpt>
      <trkpt lat="47.5447200" lon="7.6023780">
        <ele>286.4</ele>
        <time>2022-06-02T13:04:00Z</time>
      </trkpt>
      <trkpt lat="47.5447120" lon="7.6023010">
        <ele>286.4</ele>
        <time>2022-06-02T13:04:01Z</time>
      </trkpt>
      <trkpt lat="47.5446820" lon="7.6020720">
        <ele>286.2</ele>
        <time>2022-06-02T13:04:04Z</time>
      </trkpt>
      <trkpt lat="47.5446540" lon="7.6018130">
        <ele>285.8</ele>
        <time>2022-06-02T13:04:07Z</time>
      </trkpt>
      <trkpt lat="47.5446560" lon="7.6017280">
        <ele>285.6</ele>
        <time>2022-06-02T13:04:08Z</time>
      </trkpt>
      <trkpt lat="47.5446930" lon="7.6012980">
        <ele>285.4</ele>
        <time>2022-06-02T13:04:13Z</time>
      </trkpt>
      <trkpt lat="47.5446990" lon="7.6011390">
        <ele>285.4</ele>
        <time>2022-06-02T13:04:15Z</time>
      </trkpt>
      <trkpt lat="47.5446310" lon="7.6005480">
        <ele>285.6</ele>
        <time>2022-06-02T13:04:22Z</time>
      </trkpt>
      <trkpt lat="47.5445840" lon="7.6000640">
        <ele>286.0</ele>
        <time>2022-06-02T13:04:28Z</time>
      </trkpt>
      <trkpt lat="47.5445840" lon="7.5999930">
        <ele>286.2</ele>
        <time>2022-06-02T13:04:29Z</time>
      </trkpt>
      <trkpt lat="47.5445790" lon="7.5997860">
        <ele>286.6</ele>
        <time>2022-06-02T13:04:32Z</time>
      </trkpt>
      <trkpt lat="47.5445720" lon="7.5996410">
        <ele>286.8</ele>
        <time>2022-06-02T13:04:34Z</time>
      </trkpt>
      <trkpt lat="47.5445780" lon="7.5995790">
        <ele>286.8</ele>
        <time>2022-06-02T13:04:35Z</time>
      </trkpt>
      <trkpt lat="47.5445620" lon="7.5994610">
        <ele>287.4</ele>
        <time>2022-06-02T13:04:38Z</time>
      </trkpt>
      <trkpt lat="47.5445660" lon="7.5994310">
        <ele>287.6</ele>
        <time>2022-06-02T13:04:39Z</time>
      </trkpt>
      <trkpt lat="47.5445630" lon="7.5994000">
        <ele>287.8</ele>
        <time>2022-06-02T13:04:41Z</time>
      </trkpt>
      <trkpt lat="47.5445640" lon="7.5993970">
        <ele>288.8</ele>
        <time>2022-06-02T13:04:43Z</time>
      </trkpt>
      <trkpt lat="47.5445730" lon="7.5993260">
        <ele>289.4</ele>
        <time>2022-06-02T13:04:49Z</time>
      </trkpt>
      <trkpt lat="47.5445990" lon="7.5992370">
        <ele>289.6</ele>
        <time>2022-06-02T13:04:52Z</time>
      </trkpt>
      <trkpt lat="47.5446040" lon="7.5991920">
        <ele>289.6</ele>
        <time>2022-06-02T13:04:53Z</time>
      </trkpt>
      <trkpt lat="47.5445630" lon="7.5990900">
        <ele>289.6</ele>
        <time>2022-06-02T13:04:55Z</time>
      </trkpt>
      <trkpt lat="47.5444560" lon="7.5990570">
        <ele>289.6</ele>
        <time>2022-06-02T13:04:58Z</time>
      </trkpt>
      <trkpt lat="47.5441840" lon="7.5990180">
        <ele>289.8</ele>
        <time>2022-06-02T13:05:04Z</time>
      </trkpt>
      <trkpt lat="47.5441030" lon="7.5990000">
        <ele>290.4</ele>
        <time>2022-06-02T13:05:06Z</time>
      </trkpt>
      <trkpt lat="47.5438200" lon="7.5989180">
        <ele>291.6</ele>
        <time>2022-06-02T13:05:13Z</time>
      </trkpt>
      <trkpt lat="47.5437230" lon="7.5988920">
        <ele>291.6</ele>
        <time>2022-06-02T13:05:15Z</time>
      </trkpt>
      <trkpt lat="47.5433590" lon="7.5987990">
        <ele>291.8</ele>
        <time>2022-06-02T13:05:22Z</time>
      </trkpt>
      <trkpt lat="47.5430240" lon="7.5986560">
        <ele>291.4</ele>
        <time>2022-06-02T13:05:28Z</time>
      </trkpt>
      <trkpt lat="47.5428170" lon="7.5985210">
        <ele>290.8</ele>
        <time>2022-06-02T13:05:32Z</time>
      </trkpt>
      <trkpt lat="47.5427220" lon="7.5984620">
        <ele>290.8</ele>
        <time>2022-06-02T13:05:34Z</time>
      </trkpt>
      <trkpt lat="47.5424850" lon="7.5983280">
        <ele>290.6</ele>
        <time>2022-06-02T13:05:39Z</time>
      </trkpt>
      <trkpt lat="47.5422420" lon="7.5981950">
        <ele>290.4</ele>
        <time>2022-06-02T13:05:45Z</time>
      </trkpt>
      <trkpt lat="47.5420580" lon="7.5980620">
        <ele>290.4</ele>
        <time>2022-06-02T13:05:51Z</time>
      </trkpt>
      <trkpt lat="47.5419670" lon="7.5980040">
        <ele>290.2</ele>
        <time>2022-06-02T13:05:56Z</time>
      </trkpt>
      <trkpt lat="47.5419550" lon="7.5979810">
        <ele>290.2</ele>
        <time>2022-06-02T13:05:57Z</time>
      </trkpt>
      <trkpt lat="47.5419380" lon="7.5979380">
        <ele>290.2</ele>
        <time>2022-06-02T13:05:59Z</time>
      </trkpt>
      <trkpt lat="47.5419280" lon="7.5979220">
        <ele>290.0</ele>
        <time>2022-06-02T13:06:01Z</time>
      </trkpt>
      <trkpt lat="47.5418150" lon="7.5978570">
        <ele>289.4</ele>
        <time>2022-06-02T13:06:06Z</time>
      </trkpt>
      <trkpt lat="47.5417500" lon="7.5978280">
        <ele>289.2</ele>
        <time>2022-06-02T13:06:08Z</time>
      </trkpt>
      <trkpt lat="47.5417030" lon="7.5977970">
        <ele>289.2</ele>
        <time>2022-06-02T13:06:11Z</time>
      </trkpt>
      <trkpt lat="47.5417030" lon="7.5977970">
        <ele>289.2</ele>
        <time>2022-06-02T13:06:14Z</time>
      </trkpt>
      <trkpt lat="47.5416510" lon="7.5978010">
        <ele>289.6</ele>
        <time>2022-06-02T13:06:38Z</time>
      </trkpt>
      <trkpt lat="47.5414710" lon="7.5976890">
        <ele>289.6</ele>
        <time>2022-06-02T13:06:43Z</time>
      </trkpt>
      <trkpt lat="47.5412250" lon="7.5975590">
        <ele>289.6</ele>
        <time>2022-06-02T13:06:48Z</time>
      </trkpt>
      <trkpt lat="47.5409260" lon="7.5973480">
        <ele>289.6</ele>
        <time>2022-06-02T13:06:54Z</time>
      </trkpt>
      <trkpt lat="47.5408270" lon="7.5972820">
        <ele>289.8</ele>
        <time>2022-06-02T13:06:58Z</time>
      </trkpt>
      <trkpt lat="47.5408230" lon="7.5972810">
        <ele>290.0</ele>
        <time>2022-06-02T13:07:01Z</time>
      </trkpt>
      <trkpt lat="47.5408000" lon="7.5972190">
        <ele>290.4</ele>
        <time>2022-06-02T13:07:53Z</time>
      </trkpt>
      <trkpt lat="47.5408560" lon="7.5970160">
        <ele>290.4</ele>
        <time>2022-06-02T13:07:57Z</time>
      </trkpt>
      <trkpt lat="47.5409160" lon="7.5968210">
        <ele>290.4</ele>
        <time>2022-06-02T13:08:00Z</time>
      </trkpt>
      <trkpt lat="47.5409790" lon="7.5966050">
        <ele>290.4</ele>
        <time>2022-06-02T13:08:03Z</time>
      </trkpt>
      <trkpt lat="47.5411490" lon="7.5959980">
        <ele>290.4</ele>
        <time>2022-06-02T13:08:11Z</time>
      </trkpt>
      <trkpt lat="47.5413380" lon="7.5953140">
        <ele>290.4</ele>
        <time>2022-06-02T13:08:20Z</time>
      </trkpt>
      <trkpt lat="47.5413930" lon="7.5951160">
        <ele>290.2</ele>
        <time>2022-06-02T13:08:23Z</time>
      </trkpt>
      <trkpt lat="47.5414420" lon="7.5949840">
        <ele>290.2</ele>
        <time>2022-06-02T13:08:25Z</time>
      </trkpt>
      <trkpt lat="47.5415030" lon="7.5947820">
        <ele>290.2</ele>
        <time>2022-06-02T13:08:29Z</time>
      </trkpt>
      <trkpt lat="47.5415750" lon="7.5944190">
        <ele>290.4</ele>
        <time>2022-06-02T13:08:36Z</time>
      </trkpt>
      <trkpt lat="47.5416430" lon="7.5941190">
        <ele>290.2</ele>
        <time>2022-06-02T13:08:42Z</time>
      </trkpt>
      <trkpt lat="47.5417150" lon="7.5938530">
        <ele>290.2</ele>
        <time>2022-06-02T13:08:47Z</time>
      </trkpt>
      <trkpt lat="47.5418250" lon="7.5934750">
        <ele>290.2</ele>
        <time>2022-06-02T13:08:54Z</time>
      </trkpt>
      <trkpt lat="47.5418490" lon="7.5933750">
        <ele>290.0</ele>
        <time>2022-06-02T13:08:58Z</time>
      </trkpt>
      <trkpt lat="47.5418460" lon="7.5933200">
        <ele>290.0</ele>
        <time>2022-06-02T13:09:03Z</time>
      </trkpt>
      <trkpt lat="47.5418430" lon="7.5933140">
        <ele>290.0</ele>
        <time>2022-06-02T13:09:04Z</time>
      </trkpt>
      <trkpt lat="47.5417950" lon="7.5933000">
        <ele>290.0</ele>
        <time>2022-06-02T13:09:08Z</time>
      </trkpt>
      <trkpt lat="47.5417570" lon="7.5932970">
        <ele>290.0</ele>
        <time>2022-06-02T13:09:10Z</time>
      </trkpt>
      <trkpt lat="47.5417240" lon="7.5932880">
        <ele>290.0</ele>
        <time>2022-06-02T13:09:11Z</time>
      </trkpt>
      <trkpt lat="47.5416330" lon="7.5932570">
        <ele>290.0</ele>
        <time>2022-06-02T13:09:14Z</time>
      </trkpt>
      <trkpt lat="47.5415100" lon="7.5931960">
        <ele>290.0</ele>
        <time>2022-06-02T13:09:19Z</time>
      </trkpt>
      <trkpt lat="47.5414770" lon="7.5931700">
        <ele>290.0</ele>
        <time>2022-06-02T13:09:21Z</time>
      </trkpt>
      <trkpt lat="47.5414510" lon="7.5931570">
        <ele>290.0</ele>
        <time>2022-06-02T13:09:23Z</time>
      </trkpt>
      <trkpt lat="47.5414200" lon="7.5931150">
        <ele>290.0</ele>
        <time>2022-06-02T13:09:24Z</time>
      </trkpt>
      <trkpt lat="47.5414140" lon="7.5930930">
        <ele>290.2</ele>
        <time>2022-06-02T13:09:28Z</time>
      </trkpt>
      <trkpt lat="47.5412510" lon="7.5929860">
        <ele>290.2</ele>
        <time>2022-06-02T13:09:36Z</time>
      </trkpt>
      <trkpt lat="47.5411980" lon="7.5929350">
        <ele>290.2</ele>
        <time>2022-06-02T13:09:38Z</time>
      </trkpt>
      <trkpt lat="47.5411490" lon="7.5929090">
        <ele>290.2</ele>
        <time>2022-06-02T13:09:43Z</time>
      </trkpt>
      <trkpt lat="47.5410620" lon="7.5928280">
        <ele>290.2</ele>
        <time>2022-06-02T13:09:47Z</time>
      </trkpt>
      <trkpt lat="47.5410560" lon="7.5928220">
        <ele>290.4</ele>
        <time>2022-06-02T13:09:51Z</time>
      </trkpt>
      <trkpt lat="47.5409900" lon="7.5927640">
        <ele>290.4</ele>
        <time>2022-06-02T13:10:02Z</time>
      </trkpt>
      <trkpt lat="47.5409430" lon="7.5927120">
        <ele>290.4</ele>
        <time>2022-06-02T13:10:04Z</time>
      </trkpt>
      <trkpt lat="47.5408250" lon="7.5924950">
        <ele>290.2</ele>
        <time>2022-06-02T13:10:09Z</time>
      </trkpt>
      <trkpt lat="47.5407080" lon="7.5923560">
        <ele>290.2</ele>
        <time>2022-06-02T13:10:14Z</time>
      </trkpt>
      <trkpt lat="47.5406760" lon="7.5923170">
        <ele>290.2</ele>
        <time>2022-06-02T13:10:15Z</time>
      </trkpt>
      <trkpt lat="47.5406380" lon="7.5922750">
        <ele>290.2</ele>
        <time>2022-06-02T13:10:17Z</time>
      </trkpt>
      <trkpt lat="47.5406330" lon="7.5922700">
        <ele>290.2</ele>
        <time>2022-06-02T13:10:21Z</time>
      </trkpt>
      <trkpt lat="47.5407030" lon="7.5922900">
        <ele>-133.6</ele>
        <time>2022-06-03T05:35:12Z</time>
      </trkpt>
      <trkpt lat="47.5407030" lon="7.5922900">
        <ele>-133.6</ele>
        <time>2022-06-03T05:35:16Z</time>
      </trkpt>
      <trkpt lat="47.5407030" lon="7.5922900">
        <ele>-134.2</ele>
        <time>2022-06-03T05:35:20Z</time>
      </trkpt>
      <trkpt lat="47.5407030" lon="7.5922900">
        <ele>-134.0</ele>
        <time>2022-06-03T05:35:24Z</time>
      </trkpt>
      <trkpt lat="47.5407030" lon="7.5922900">
        <ele>-134.0</ele>
        <time>2022-06-03T05:35:28Z</time>
      </trkpt>
      <trkpt lat="47.5407030" lon="7.5922900">
        <ele>-134.0</ele>
        <time>2022-06-03T05:35:32Z</time>
      </trkpt>
      <trkpt lat="47.5407030" lon="7.5922900">
        <ele>-133.6</ele>
        <time>2022-06-03T05:35:36Z</time>
      </trkpt>
      <trkpt lat="47.5407030" lon="7.5922900">
        <ele>-133.6</ele>
        <time>2022-06-03T05:35:40Z</time>
      </trkpt>
      <trkpt lat="47.5407030" lon="7.5922900">
        <ele>-133.2</ele>
        <time>2022-06-03T05:35:44Z</time>
      </trkpt>
      <trkpt lat="47.5407030" lon="7.5922900">
        <ele>-134.0</ele>
        <time>2022-06-03T05:35:48Z</time>
      </trkpt>
      <trkpt lat="47.5407030" lon="7.5922900">
        <ele>-134.0</ele>
        <time>2022-06-03T05:35:52Z</time>
      </trkpt>
      <trkpt lat="47.5407030" lon="7.5922900">
        <ele>-134.0</ele>
        <time>2022-06-03T05:35:56Z</time>
      </trkpt>
      <trkpt lat="47.5407030" lon="7.5922900">
        <ele>-134.0</ele>
        <time>2022-06-03T05:36:00Z</time>
      </trkpt>
      <trkpt lat="47.5407030" lon="7.5922900">
        <ele>-133.8</ele>
        <time>2022-06-03T05:36:04Z</time>
      </trkpt>
      <trkpt lat="47.5407030" lon="7.5922900">
        <ele>-134.2</ele>
        <time>2022-06-03T05:36:08Z</time>
      </trkpt>
      <trkpt lat="47.5407030" lon="7.5922900">
        <ele>-134.2</ele>
        <time>2022-06-03T05:36:12Z</time>
      </trkpt>
      <trkpt lat="47.5407030" lon="7.5922900">
        <ele>-134.0</ele>
        <time>2022-06-03T05:36:16Z</time>
      </trkpt>
      <trkpt lat="47.5407030" lon="7.5922900">
        <ele>-134.2</ele>
        <time>2022-06-03T05:36:20Z</time>
      </trkpt>
      <trkpt lat="47.5407030" lon="7.5922900">
        <ele>-133.6</ele>
        <time>2022-06-03T05:36:24Z</time>
      </trkpt>
      <trkpt lat="47.5407030" lon="7.5922900">
        <ele>-134.0</ele>
        <time>2022-06-03T05:36:28Z</time>
      </trkpt>
      <trkpt lat="47.5407030" lon="7.5922900">
        <ele>-133.6</ele>
        <time>2022-06-03T05:36:32Z</time>
      </trkpt>
      <trkpt lat="47.5407030" lon="7.5922900">
        <ele>-134.0</ele>
        <time>2022-06-03T05:36:36Z</time>
      </trkpt>
      <trkpt lat="47.5407030" lon="7.5922900">
        <ele>-134.0</ele>
        <time>2022-06-03T05:36:40Z</time>
      </trkpt>
      <trkpt lat="47.5407030" lon="7.5922900">
        <ele>-134.0</ele>
        <time>2022-06-03T05:36:44Z</time>
      </trkpt>
      <trkpt lat="47.5407030" lon="7.5922900">
        <ele>-134.0</ele>
        <time>2022-06-03T05:36:48Z</time>
      </trkpt>
      <trkpt lat="47.5407030" lon="7.5922900">
        <ele>-133.6</ele>
        <time>2022-06-03T05:36:52Z</time>
      </trkpt>
      <trkpt lat="47.5407030" lon="7.5922900">
        <ele>-134.0</ele>
        <time>2022-06-03T05:36:56Z</time>
      </trkpt>
      <trkpt lat="47.5407030" lon="7.5922900">
        <ele>-133.8</ele>
        <time>2022-06-03T05:37:00Z</time>
      </trkpt>
      <trkpt lat="47.5407030" lon="7.5922900">
        <ele>-134.0</ele>
        <time>2022-06-03T05:37:04Z</time>
      </trkpt>
      <trkpt lat="47.5407030" lon="7.5922900">
        <ele>-133.6</ele>
        <time>2022-06-03T05:37:08Z</time>
      </trkpt>
      <trkpt lat="47.5407030" lon="7.5922900">
        <ele>-134.0</ele>
        <time>2022-06-03T05:37:12Z</time>
      </trkpt>
      <trkpt lat="47.5407030" lon="7.5922900">
        <ele>-133.8</ele>
        <time>2022-06-03T05:37:16Z</time>
      </trkpt>
      <trkpt lat="47.5407030" lon="7.5922900">
        <ele>-134.0</ele>
        <time>2022-06-03T05:37:20Z</time>
      </trkpt>
      <trkpt lat="47.5407500" lon="7.5923060">
        <ele>-133.6</ele>
        <time>2022-06-03T05:37:24Z</time>
      </trkpt>
      <trkpt lat="47.5407900" lon="7.5923360">
        <ele>-134.0</ele>
        <time>2022-06-03T05:37:28Z</time>
      </trkpt>
      <trkpt lat="47.5408300" lon="7.5923950">
        <ele>-134.0</ele>
        <time>2022-06-03T05:37:32Z</time>
      </trkpt>
      <trkpt lat="47.5408150" lon="7.5924400">
        <ele>-134.0</ele>
        <time>2022-06-03T05:37:36Z</time>
      </trkpt>
      <trkpt lat="47.5407580" lon="7.5924310">
        <ele>-133.6</ele>
        <time>2022-06-03T05:37:40Z</time>
      </trkpt>
      <trkpt lat="47.5406960" lon="7.5923960">
        <ele>-133.4</ele>
        <time>2022-06-03T05:37:44Z</time>
      </trkpt>
      <trkpt lat="47.5406580" lon="7.5924000">
        <ele>-133.6</ele>
        <time>2022-06-03T05:37:48Z</time>
      </trkpt>
      <trkpt lat="47.5406310" lon="7.5923960">
        <ele>-134.2</ele>
        <time>2022-06-03T05:37:52Z</time>
      </trkpt>
      <trkpt lat="47.5405960" lon="7.5923750">
        <ele>-133.8</ele>
        <time>2022-06-03T05:37:56Z</time>
      </trkpt>
      <trkpt lat="47.5405960" lon="7.5923750">
        <ele>-134.2</ele>
        <time>2022-06-03T05:38:00Z</time>
      </trkpt>
      <trkpt lat="47.5405960" lon="7.5923750">
        <ele>-134.2</ele>
        <time>2022-06-03T05:38:04Z</time>
      </trkpt>
      <trkpt lat="47.5405960" lon="7.5923750">
        <ele>-133.6</ele>
        <time>2022-06-03T05:38:08Z</time>
      </trkpt>
      <trkpt lat="47.5405960" lon="7.5923750">
        <ele>-134.4</ele>
        <time>2022-06-03T05:38:12Z</time>
      </trkpt>
      <trkpt lat="47.5405960" lon="7.5923750">
        <ele>-134.0</ele>
        <time>2022-06-03T05:38:16Z</time>
      </trkpt>
      <trkpt lat="47.5405960" lon="7.5923750">
        <ele>-134.0</ele>
        <time>2022-06-03T05:38:20Z</time>
      </trkpt>
      <trkpt lat="47.5405960" lon="7.5923750">
        <ele>-133.8</ele>
        <time>2022-06-03T05:38:24Z</time>
      </trkpt>
      <trkpt lat="47.5405960" lon="7.5923750">
        <ele>-134.0</ele>
        <time>2022-06-03T05:38:28Z</time>
      </trkpt>
      <trkpt lat="47.5405960" lon="7.5923750">
        <ele>-134.0</ele>
        <time>2022-06-03T05:38:32Z</time>
      </trkpt>
      <trkpt lat="47.5405960" lon="7.5923750">
        <ele>-134.2</ele>
        <time>2022-06-03T05:38:36Z</time>
      </trkpt>
      <trkpt lat="47.5405960" lon="7.5923750">
        <ele>-134.6</ele>
        <time>2022-06-03T05:38:40Z</time>
      </trkpt>
      <trkpt lat="47.5405960" lon="7.5923750">
        <ele>-134.0</ele>
        <time>2022-06-03T05:38:44Z</time>
      </trkpt>
      <trkpt lat="47.5405960" lon="7.5923750">
        <ele>-134.0</ele>
        <time>2022-06-03T05:38:48Z</time>
      </trkpt>
      <trkpt lat="47.5405960" lon="7.5923750">
        <ele>-133.6</ele>
        <time>2022-06-03T05:38:52Z</time>
      </trkpt>
      <trkpt lat="47.5405960" lon="7.5923750">
        <ele>-134.0</ele>
        <time>2022-06-03T05:38:56Z</time>
      </trkpt>
      <trkpt lat="47.5405960" lon="7.5923750">
        <ele>-133.6</ele>
        <time>2022-06-03T05:39:00Z</time>
      </trkpt>
      <trkpt lat="47.5405960" lon="7.5923750">
        <ele>-133.8</ele>
        <time>2022-06-03T05:39:04Z</time>
      </trkpt>
      <trkpt lat="47.5405960" lon="7.5923750">
        <ele>-133.6</ele>
        <time>2022-06-03T05:39:08Z</time>
      </trkpt>
      <trkpt lat="47.5405960" lon="7.5923750">
        <ele>-134.0</ele>
        <time>2022-06-03T05:39:12Z</time>
      </trkpt>
      <trkpt lat="47.5405960" lon="7.5923750">
        <ele>-134.0</ele>
        <time>2022-06-03T05:39:16Z</time>
      </trkpt>
      <trkpt lat="47.5405960" lon="7.5923750">
        <ele>-134.0</ele>
        <time>2022-06-03T05:39:20Z</time>
      </trkpt>
      <trkpt lat="47.5405960" lon="7.5923750">
        <ele>-134.0</ele>
        <time>2022-06-03T05:39:24Z</time>
      </trkpt>
      <trkpt lat="47.5405960" lon="7.5923750">
        <ele>-134.0</ele>
        <time>2022-06-03T05:39:28Z</time>
      </trkpt>
      <trkpt lat="47.5405960" lon="7.5923750">
        <ele>-133.8</ele>
        <time>2022-06-03T05:39:32Z</time>
      </trkpt>
      <trkpt lat="47.5406950" lon="7.5923330">
        <ele>-134.0</ele>
        <time>2022-06-03T05:39:36Z</time>
      </trkpt>
      <trkpt lat="47.5407060" lon="7.5923150">
        <ele>-134.0</ele>
        <time>2022-06-03T05:39:40Z</time>
      </trkpt>
      <trkpt lat="47.5407300" lon="7.5923250">
        <ele>-134.2</ele>
        <time>2022-06-03T05:39:44Z</time>
      </trkpt>
      <trkpt lat="47.5407880" lon="7.5923600">
        <ele>-134.0</ele>
        <time>2022-06-03T05:39:48Z</time>
      </trkpt>
      <trkpt lat="47.5408030" lon="7.5924250">
        <ele>-134.0</ele>
        <time>2022-06-03T05:39:52Z</time>
      </trkpt>
      <trkpt lat="47.5408410" lon="7.5924760">
        <ele>-134.2</ele>
        <time>2022-06-03T05:39:56Z</time>
      </trkpt>
      <trkpt lat="47.5409080" lon="7.5925280">
        <ele>-134.0</ele>
        <time>2022-06-03T05:40:00Z</time>
      </trkpt>
      <trkpt lat="47.5409860" lon="7.5925510">
        <ele>-133.6</ele>
        <time>2022-06-03T05:40:04Z</time>
      </trkpt>
      <trkpt lat="47.5410530" lon="7.5926300">
        <ele>-133.4</ele>
        <time>2022-06-03T05:40:08Z</time>
      </trkpt>
      <trkpt lat="47.5411150" lon="7.5926960">
        <ele>-134.0</ele>
        <time>2022-06-03T05:40:12Z</time>
      </trkpt>
      <trkpt lat="47.5411780" lon="7.5927530">
        <ele>-134.0</ele>
        <time>2022-06-03T05:40:16Z</time>
      </trkpt>
      <trkpt lat="47.5412400" lon="7.5928550">
        <ele>-134.0</ele>
        <time>2022-06-03T05:40:20Z</time>
      </trkpt>
      <trkpt lat="47.5412710" lon="7.5928910">
        <ele>-134.2</ele>
        <time>2022-06-03T05:40:24Z</time>
      </trkpt>
      <trkpt lat="47.5413150" lon="7.5929580">
        <ele>-134.2</ele>
        <time>2022-06-03T05:40:28Z</time>
      </trkpt>
      <trkpt lat="47.5413550" lon="7.5929930">
        <ele>-134.0</ele>
        <time>2022-06-03T05:40:32Z</time>
      </trkpt>
      <trkpt lat="47.5414080" lon="7.5930750">
        <ele>-134.0</ele>
        <time>2022-06-03T05:40:36Z</time>
      </trkpt>
      <trkpt lat="47.5414930" lon="7.5931860">
        <ele>-134.4</ele>
        <time>2022-06-03T05:40:40Z</time>
      </trkpt>
      <trkpt lat="47.5415500" lon="7.5932650">
        <ele>-134.6</ele>
        <time>2022-06-03T05:40:44Z</time>
      </trkpt>
      <trkpt lat="47.5416160" lon="7.5933210">
        <ele>-134.8</ele>
        <time>2022-06-03T05:40:48Z</time>
      </trkpt>
      <trkpt lat="47.5416450" lon="7.5933450">
        <ele>-134.6</ele>
        <time>2022-06-03T05:40:52Z</time>
      </trkpt>
      <trkpt lat="47.5416450" lon="7.5933450">
        <ele>-134.6</ele>
        <time>2022-06-03T05:40:56Z</time>
      </trkpt>
      <trkpt lat="47.5416450" lon="7.5933450">
        <ele>-134.6</ele>
        <time>2022-06-03T05:41:00Z</time>
      </trkpt>
      <trkpt lat="47.5416450" lon="7.5933450">
        <ele>-134.6</ele>
        <time>2022-06-03T05:41:04Z</time>
      </trkpt>
      <trkpt lat="47.5416450" lon="7.5933450">
        <ele>-134.6</ele>
        <time>2022-06-03T05:41:08Z</time>
      </trkpt>
      <trkpt lat="47.5416450" lon="7.5933450">
        <ele>-134.6</ele>
        <time>2022-06-03T05:41:12Z</time>
      </trkpt>
      <trkpt lat="47.5416450" lon="7.5933450">
        <ele>-134.4</ele>
        <time>2022-06-03T05:41:16Z</time>
      </trkpt>
      <trkpt lat="47.5416450" lon="7.5933450">
        <ele>-134.6</ele>
        <time>2022-06-03T05:41:20Z</time>
      </trkpt>
      <trkpt lat="47.5416450" lon="7.5933450">
        <ele>-134.6</ele>
        <time>2022-06-03T05:41:24Z</time>
      </trkpt>
      <trkpt lat="47.5416450" lon="7.5933450">
        <ele>-134.6</ele>
        <time>2022-06-03T05:41:28Z</time>
      </trkpt>
      <trkpt lat="47.5416450" lon="7.5933450">
        <ele>-134.4</ele>
        <time>2022-06-03T05:41:32Z</time>
      </trkpt>
      <trkpt lat="47.5416450" lon="7.5933450">
        <ele>-134.2</ele>
        <time>2022-06-03T05:41:36Z</time>
      </trkpt>
      <trkpt lat="47.5416450" lon="7.5933450">
        <ele>-134.2</ele>
        <time>2022-06-03T05:41:40Z</time>
      </trkpt>
      <trkpt lat="47.5416450" lon="7.5933450">
        <ele>-134.2</ele>
        <time>2022-06-03T05:41:44Z</time>
      </trkpt>
      <trkpt lat="47.5416450" lon="7.5933450">
        <ele>-134.2</ele>
        <time>2022-06-03T05:41:48Z</time>
      </trkpt>
      <trkpt lat="47.5416450" lon="7.5933450">
        <ele>-134.4</ele>
        <time>2022-06-03T05:41:52Z</time>
      </trkpt>
      <trkpt lat="47.5416450" lon="7.5933450">
        <ele>-134.4</ele>
        <time>2022-06-03T05:41:56Z</time>
      </trkpt>
      <trkpt lat="47.5416450" lon="7.5933450">
        <ele>-134.8</ele>
        <time>2022-06-03T05:42:00Z</time>
      </trkpt>
      <trkpt lat="47.5416450" lon="7.5933450">
        <ele>-134.8</ele>
        <time>2022-06-03T05:42:04Z</time>
      </trkpt>
      <trkpt lat="47.5416450" lon="7.5933450">
        <ele>-135.0</ele>
        <time>2022-06-03T05:42:08Z</time>
      </trkpt>
      <trkpt lat="47.5416450" lon="7.5933450">
        <ele>-135.0</ele>
        <time>2022-06-03T05:42:12Z</time>
      </trkpt>
      <trkpt lat="47.5416180" lon="7.5932550">
        <ele>-134.8</ele>
        <time>2022-06-03T05:42:16Z</time>
      </trkpt>
      <trkpt lat="47.5416800" lon="7.5933110">
        <ele>-135.0</ele>
        <time>2022-06-03T05:42:20Z</time>
      </trkpt>
      <trkpt lat="47.5417460" lon="7.5933610">
        <ele>-135.0</ele>
        <time>2022-06-03T05:42:24Z</time>
      </trkpt>
      <trkpt lat="47.5418280" lon="7.5933580">
        <ele>-135.0</ele>
        <time>2022-06-03T05:42:28Z</time>
      </trkpt>
      <trkpt lat="47.5418750" lon="7.5932080">
        <ele>-135.2</ele>
        <time>2022-06-03T05:42:32Z</time>
      </trkpt>
      <trkpt lat="47.5419350" lon="7.5930330">
        <ele>-135.0</ele>
        <time>2022-06-03T05:42:36Z</time>
      </trkpt>
      <trkpt lat="47.5420060" lon="7.5928450">
        <ele>-135.2</ele>
        <time>2022-06-03T05:42:40Z</time>
      </trkpt>
      <trkpt lat="47.5421000" lon="7.5926550">
        <ele>-135.4</ele>
        <time>2022-06-03T05:42:44Z</time>
      </trkpt>
      <trkpt lat="47.5421800" lon="7.5924530">
        <ele>-135.2</ele>
        <time>2022-06-03T05:42:48Z</time>
      </trkpt>
      <trkpt lat="47.5422480" lon="7.5922560">
        <ele>-135.4</ele>
        <time>2022-06-03T05:42:52Z</time>
      </trkpt>
      <trkpt lat="47.5423100" lon="7.5920560">
        <ele>-135.0</ele>
        <time>2022-06-03T05:42:56Z</time>
      </trkpt>
      <trkpt lat="47.5423910" lon="7.5918430">
        <ele>-135.4</ele>
        <time>2022-06-03T05:43:00Z</time>
      </trkpt>
      <trkpt lat="47.5424710" lon="7.5916450">
        <ele>-135.6</ele>
        <time>2022-06-03T05:43:04Z</time>
      </trkpt>
      <trkpt lat="47.5425530" lon="7.5914400">
        <ele>-135.6</ele>
        <time>2022-06-03T05:43:08Z</time>
      </trkpt>
      <trkpt lat="47.5426460" lon="7.5912330">
        <ele>-135.8</ele>
        <time>2022-06-03T05:43:12Z</time>
      </trkpt>
      <trkpt lat="47.5427210" lon="7.5910350">
        <ele>-135.6</ele>
        <time>2022-06-03T05:43:16Z</time>
      </trkpt>
      <trkpt lat="47.5427950" lon="7.5908450">
        <ele>-135.4</ele>
        <time>2022-06-03T05:43:20Z</time>
      </trkpt>
      <trkpt lat="47.5428610" lon="7.5906580">
        <ele>-135.6</ele>
        <time>2022-06-03T05:43:24Z</time>
      </trkpt>
      <trkpt lat="47.5429460" lon="7.5904510">
        <ele>-135.6</ele>
        <time>2022-06-03T05:43:28Z</time>
      </trkpt>
      <trkpt lat="47.5430160" lon="7.5902500">
        <ele>-135.6</ele>
        <time>2022-06-03T05:43:32Z</time>
      </trkpt>
      <trkpt lat="47.5431050" lon="7.5900850">
        <ele>-136.0</ele>
        <time>2022-06-03T05:43:36Z</time>
      </trkpt>
      <trkpt lat="47.5431680" lon="7.5899510">
        <ele>-135.8</ele>
        <time>2022-06-03T05:43:40Z</time>
      </trkpt>
      <trkpt lat="47.5431980" lon="7.5898750">
        <ele>-135.4</ele>
        <time>2022-06-03T05:43:44Z</time>
      </trkpt>
      <trkpt lat="47.5432410" lon="7.5897780">
        <ele>-135.6</ele>
        <time>2022-06-03T05:43:48Z</time>
      </trkpt>
      <trkpt lat="47.5433050" lon="7.5896350">
        <ele>-135.8</ele>
        <time>2022-06-03T05:43:52Z</time>
      </trkpt>
      <trkpt lat="47.5433700" lon="7.5894410">
        <ele>-135.8</ele>
        <time>2022-06-03T05:43:56Z</time>
      </trkpt>
      <trkpt lat="47.5434450" lon="7.5892500">
        <ele>-135.8</ele>
        <time>2022-06-03T05:44:00Z</time>
      </trkpt>
      <trkpt lat="47.5435130" lon="7.5890600">
        <ele>-135.4</ele>
        <time>2022-06-03T05:44:04Z</time>
      </trkpt>
      <trkpt lat="47.5435880" lon="7.5888750">
        <ele>-136.0</ele>
        <time>2022-06-03T05:44:08Z</time>
      </trkpt>
      <trkpt lat="47.5436610" lon="7.5886710">
        <ele>-136.2</ele>
        <time>2022-06-03T05:44:12Z</time>
      </trkpt>
      <trkpt lat="47.5437360" lon="7.5884700">
        <ele>-136.0</ele>
        <time>2022-06-03T05:44:16Z</time>
      </trkpt>
      <trkpt lat="47.5438200" lon="7.5882650">
        <ele>-136.4</ele>
        <time>2022-06-03T05:44:20Z</time>
      </trkpt>
      <trkpt lat="47.5439080" lon="7.5880560">
        <ele>-135.8</ele>
        <time>2022-06-03T05:44:24Z</time>
      </trkpt>
      <trkpt lat="47.5440000" lon="7.5878180">
        <ele>-135.8</ele>
        <time>2022-06-03T05:44:28Z</time>
      </trkpt>
      <trkpt lat="47.5440680" lon="7.5875780">
        <ele>-135.8</ele>
        <time>2022-06-03T05:44:32Z</time>
      </trkpt>
      <trkpt lat="47.5441300" lon="7.5873750">
        <ele>-136.0</ele>
        <time>2022-06-03T05:44:36Z</time>
      </trkpt>
      <trkpt lat="47.5442060" lon="7.5871650">
        <ele>-135.8</ele>
        <time>2022-06-03T05:44:40Z</time>
      </trkpt>
      <trkpt lat="47.5442580" lon="7.5870180">
        <ele>-136.0</ele>
        <time>2022-06-03T05:44:44Z</time>
      </trkpt>
      <trkpt lat="47.5442580" lon="7.5870180">
        <ele>-136.2</ele>
        <time>2022-06-03T05:44:48Z</time>
      </trkpt>
      <trkpt lat="47.5442580" lon="7.5870180">
        <ele>-136.0</ele>
        <time>2022-06-03T05:44:52Z</time>
      </trkpt>
      <trkpt lat="47.5442580" lon="7.5870180">
        <ele>-135.8</ele>
        <time>2022-06-03T05:44:56Z</time>
      </trkpt>
      <trkpt lat="47.5443210" lon="7.5869260">
        <ele>-135.6</ele>
        <time>2022-06-03T05:45:00Z</time>
      </trkpt>
      <trkpt lat="47.5443560" lon="7.5868360">
        <ele>-135.8</ele>
        <time>2022-06-03T05:45:04Z</time>
      </trkpt>
      <trkpt lat="47.5444230" lon="7.5867050">
        <ele>-135.6</ele>
        <time>2022-06-03T05:45:08Z</time>
      </trkpt>
      <trkpt lat="47.5444910" lon="7.5865110">
        <ele>-135.8</ele>
        <time>2022-06-03T05:45:12Z</time>
      </trkpt>
      <trkpt lat="47.5445660" lon="7.5863060">
        <ele>-135.6</ele>
        <time>2022-06-03T05:45:16Z</time>
      </trkpt>
      <trkpt lat="47.5446500" lon="7.5861030">
        <ele>-135.8</ele>
        <time>2022-06-03T05:45:20Z</time>
      </trkpt>
      <trkpt lat="47.5447330" lon="7.5859080">
        <ele>-135.8</ele>
        <time>2022-06-03T05:45:24Z</time>
      </trkpt>
      <trkpt lat="47.5448100" lon="7.5856980">
        <ele>-135.6</ele>
        <time>2022-06-03T05:45:28Z</time>
      </trkpt>
      <trkpt lat="47.5448910" lon="7.5854850">
        <ele>-135.6</ele>
        <time>2022-06-03T05:45:32Z</time>
      </trkpt>
      <trkpt lat="47.5449630" lon="7.5852700">
        <ele>-135.4</ele>
        <time>2022-06-03T05:45:36Z</time>
      </trkpt>
      <trkpt lat="47.5450460" lon="7.5850560">
        <ele>-136.0</ele>
        <time>2022-06-03T05:45:40Z</time>
      </trkpt>
      <trkpt lat="47.5451310" lon="7.5848510">
        <ele>-135.8</ele>
        <time>2022-06-03T05:45:44Z</time>
      </trkpt>
      <trkpt lat="47.5451960" lon="7.5846600">
        <ele>-135.8</ele>
        <time>2022-06-03T05:45:48Z</time>
      </trkpt>
      <trkpt lat="47.5452780" lon="7.5844600">
        <ele>-135.8</ele>
        <time>2022-06-03T05:45:52Z</time>
      </trkpt>
      <trkpt lat="47.5453460" lon="7.5842600">
        <ele>-136.0</ele>
        <time>2022-06-03T05:45:56Z</time>
      </trkpt>
      <trkpt lat="47.5454310" lon="7.5840530">
        <ele>-135.8</ele>
        <time>2022-06-03T05:46:00Z</time>
      </trkpt>
      <trkpt lat="47.5455110" lon="7.5838530">
        <ele>-135.8</ele>
        <time>2022-06-03T05:46:04Z</time>
      </trkpt>
      <trkpt lat="47.5456000" lon="7.5836610">
        <ele>-136.4</ele>
        <time>2022-06-03T05:46:08Z</time>
      </trkpt>
      <trkpt lat="47.5456650" lon="7.5834910">
        <ele>-135.8</ele>
        <time>2022-06-03T05:46:12Z</time>
      </trkpt>
      <trkpt lat="47.5456650" lon="7.5834910">
        <ele>-136.0</ele>
        <time>2022-06-03T05:46:16Z</time>
      </trkpt>
      <trkpt lat="47.5456650" lon="7.5834910">
        <ele>-135.8</ele>
        <time>2022-06-03T05:46:20Z</time>
      </trkpt>
      <trkpt lat="47.5456650" lon="7.5834910">
        <ele>-135.8</ele>
        <time>2022-06-03T05:46:24Z</time>
      </trkpt>
      <trkpt lat="47.5456650" lon="7.5834910">
        <ele>-136.0</ele>
        <time>2022-06-03T05:46:28Z</time>
      </trkpt>
      <trkpt lat="47.5456650" lon="7.5834910">
        <ele>-135.8</ele>
        <time>2022-06-03T05:46:32Z</time>
      </trkpt>
      <trkpt lat="47.5456910" lon="7.5834250">
        <ele>-136.2</ele>
        <time>2022-06-03T05:46:36Z</time>
      </trkpt>
      <trkpt lat="47.5456910" lon="7.5834250">
        <ele>-135.8</ele>
        <time>2022-06-03T05:46:40Z</time>
      </trkpt>
      <trkpt lat="47.5456910" lon="7.5834250">
        <ele>-135.8</ele>
        <time>2022-06-03T05:46:44Z</time>
      </trkpt>
      <trkpt lat="47.5456910" lon="7.5834250">
        <ele>-136.0</ele>
        <time>2022-06-03T05:46:48Z</time>
      </trkpt>
      <trkpt lat="47.5456910" lon="7.5834250">
        <ele>-136.2</ele>
        <time>2022-06-03T05:46:52Z</time>
      </trkpt>
      <trkpt lat="47.5456910" lon="7.5834250">
        <ele>-136.4</ele>
        <time>2022-06-03T05:46:56Z</time>
      </trkpt>
      <trkpt lat="47.5456910" lon="7.5834250">
        <ele>-136.2</ele>
        <time>2022-06-03T05:47:00Z</time>
      </trkpt>
      <trkpt lat="47.5456910" lon="7.5834250">
        <ele>-136.4</ele>
        <time>2022-06-03T05:47:04Z</time>
      </trkpt>
      <trkpt lat="47.5456910" lon="7.5834250">
        <ele>-135.8</ele>
        <time>2022-06-03T05:47:08Z</time>
      </trkpt>
      <trkpt lat="47.5456910" lon="7.5834250">
        <ele>-135.8</ele>
        <time>2022-06-03T05:47:12Z</time>
      </trkpt>
      <trkpt lat="47.5456910" lon="7.5834250">
        <ele>-135.8</ele>
        <time>2022-06-03T05:47:16Z</time>
      </trkpt>
      <trkpt lat="47.5457260" lon="7.5833650">
        <ele>-136.2</ele>
        <time>2022-06-03T05:47:20Z</time>
      </trkpt>
      <trkpt lat="47.5457410" lon="7.5832810">
        <ele>-136.0</ele>
        <time>2022-06-03T05:47:24Z</time>
      </trkpt>
      <trkpt lat="47.5457760" lon="7.5831510">
        <ele>-135.2</ele>
        <time>2022-06-03T05:47:28Z</time>
      </trkpt>
      <trkpt lat="47.5457550" lon="7.5830080">
        <ele>-135.6</ele>
        <time>2022-06-03T05:47:32Z</time>
      </trkpt>
      <trkpt lat="47.5456700" lon="7.5828980">
        <ele>-135.6</ele>
        <time>2022-06-03T05:47:36Z</time>
      </trkpt>
      <trkpt lat="47.5455760" lon="7.5828010">
        <ele>-135.4</ele>
        <time>2022-06-03T05:47:40Z</time>
      </trkpt>
      <trkpt lat="47.5454760" lon="7.5827000">
        <ele>-135.4</ele>
        <time>2022-06-03T05:47:44Z</time>
      </trkpt>
      <trkpt lat="47.5453660" lon="7.5826010">
        <ele>-135.4</ele>
        <time>2022-06-03T05:47:48Z</time>
      </trkpt>
      <trkpt lat="47.5452510" lon="7.5824950">
        <ele>-135.4</ele>
        <time>2022-06-03T05:47:52Z</time>
      </trkpt>
      <trkpt lat="47.5451380" lon="7.5823900">
        <ele>-135.0</ele>
        <time>2022-06-03T05:47:56Z</time>
      </trkpt>
      <trkpt lat="47.5450310" lon="7.5822930">
        <ele>-134.8</ele>
        <time>2022-06-03T05:48:00Z</time>
      </trkpt>
      <trkpt lat="47.5449430" lon="7.5822060">
        <ele>-134.6</ele>
        <time>2022-06-03T05:48:04Z</time>
      </trkpt>
      <trkpt lat="47.5448650" lon="7.5821310">
        <ele>-134.6</ele>
        <time>2022-06-03T05:48:08Z</time>
      </trkpt>
      <trkpt lat="47.5448110" lon="7.5821030">
        <ele>-134.8</ele>
        <time>2022-06-03T05:48:12Z</time>
      </trkpt>
      <trkpt lat="47.5448050" lon="7.5821060">
        <ele>-134.6</ele>
        <time>2022-06-03T05:48:16Z</time>
      </trkpt>
      <trkpt lat="47.5447460" lon="7.5820580">
        <ele>-134.6</ele>
        <time>2022-06-03T05:48:20Z</time>
      </trkpt>
      <trkpt lat="47.5446580" lon="7.5819350">
        <ele>-134.2</ele>
        <time>2022-06-03T05:48:24Z</time>
      </trkpt>
      <trkpt lat="47.5445530" lon="7.5818000">
        <ele>-134.2</ele>
        <time>2022-06-03T05:48:28Z</time>
      </trkpt>
      <trkpt lat="47.5444310" lon="7.5816800">
        <ele>-134.2</ele>
        <time>2022-06-03T05:48:32Z</time>
      </trkpt>
      <trkpt lat="47.5443080" lon="7.5815600">
        <ele>-134.2</ele>
        <time>2022-06-03T05:48:36Z</time>
      </trkpt>
      <trkpt lat="47.5441900" lon="7.5814080">
        <ele>-134.0</ele>
        <time>2022-06-03T05:48:40Z</time>
      </trkpt>
      <trkpt lat="47.5441200" lon="7.5811960">
        <ele>-133.6</ele>
        <time>2022-06-03T05:48:44Z</time>
      </trkpt>
      <trkpt lat="47.5441250" lon="7.5809850">
        <ele>-133.4</ele>
        <time>2022-06-03T05:48:48Z</time>
      </trkpt>
      <trkpt lat="47.5441260" lon="7.5807410">
        <ele>-133.8</ele>
        <time>2022-06-03T05:48:52Z</time>
      </trkpt>
      <trkpt lat="47.5441310" lon="7.5805030">
        <ele>-133.4</ele>
        <time>2022-06-03T05:48:56Z</time>
      </trkpt>
      <trkpt lat="47.5441360" lon="7.5802680">
        <ele>-133.6</ele>
        <time>2022-06-03T05:49:00Z</time>
      </trkpt>
      <trkpt lat="47.5441460" lon="7.5800200">
        <ele>-134.0</ele>
        <time>2022-06-03T05:49:04Z</time>
      </trkpt>
      <trkpt lat="47.5441550" lon="7.5797800">
        <ele>-133.4</ele>
        <time>2022-06-03T05:49:08Z</time>
      </trkpt>
      <trkpt lat="47.5441580" lon="7.5795230">
        <ele>-133.6</ele>
        <time>2022-06-03T05:49:12Z</time>
      </trkpt>
      <trkpt lat="47.5441800" lon="7.5792550">
        <ele>-133.4</ele>
        <time>2022-06-03T05:49:16Z</time>
      </trkpt>
      <trkpt lat="47.5442010" lon="7.5789750">
        <ele>-134.0</ele>
        <time>2022-06-03T05:49:20Z</time>
      </trkpt>
      <trkpt lat="47.5442160" lon="7.5786910">
        <ele>-133.8</ele>
        <time>2022-06-03T05:49:24Z</time>
      </trkpt>
      <trkpt lat="47.5442280" lon="7.5784180">
        <ele>-134.2</ele>
        <time>2022-06-03T05:49:28Z</time>
      </trkpt>
      <trkpt lat="47.5442400" lon="7.5781580">
        <ele>-134.0</ele>
        <time>2022-06-03T05:49:32Z</time>
      </trkpt>
      <trkpt lat="47.5442460" lon="7.5778950">
        <ele>-134.0</ele>
        <time>2022-06-03T05:49:36Z</time>
      </trkpt>
      <trkpt lat="47.5442510" lon="7.5776310">
        <ele>-133.6</ele>
        <time>2022-06-03T05:49:40Z</time>
      </trkpt>
      <trkpt lat="47.5442580" lon="7.5773750">
        <ele>-134.2</ele>
        <time>2022-06-03T05:49:44Z</time>
      </trkpt>
      <trkpt lat="47.5442650" lon="7.5771250">
        <ele>-134.4</ele>
        <time>2022-06-03T05:49:48Z</time>
      </trkpt>
      <trkpt lat="47.5442710" lon="7.5768600">
        <ele>-134.4</ele>
        <time>2022-06-03T05:49:52Z</time>
      </trkpt>
      <trkpt lat="47.5442860" lon="7.5765980">
        <ele>-134.4</ele>
        <time>2022-06-03T05:49:56Z</time>
      </trkpt>
      <trkpt lat="47.5443010" lon="7.5763450">
        <ele>-134.2</ele>
        <time>2022-06-03T05:50:00Z</time>
      </trkpt>
      <trkpt lat="47.5443180" lon="7.5761110">
        <ele>-134.8</ele>
        <time>2022-06-03T05:50:04Z</time>
      </trkpt>
      <trkpt lat="47.5443260" lon="7.5758780">
        <ele>-134.2</ele>
        <time>2022-06-03T05:50:08Z</time>
      </trkpt>
      <trkpt lat="47.5443630" lon="7.5756480">
        <ele>-134.4</ele>
        <time>2022-06-03T05:50:12Z</time>
      </trkpt>
      <trkpt lat="47.5444930" lon="7.5755160">
        <ele>-134.6</ele>
        <time>2022-06-03T05:50:16Z</time>
      </trkpt>
      <trkpt lat="47.5446610" lon="7.5755050">
        <ele>-134.8</ele>
        <time>2022-06-03T05:50:20Z</time>
      </trkpt>
      <trkpt lat="47.5448260" lon="7.5755000">
        <ele>-134.8</ele>
        <time>2022-06-03T05:50:24Z</time>
      </trkpt>
      <trkpt lat="47.5449910" lon="7.5755000">
        <ele>-135.0</ele>
        <time>2022-06-03T05:50:28Z</time>
      </trkpt>
      <trkpt lat="47.5451500" lon="7.5754660">
        <ele>-135.2</ele>
        <time>2022-06-03T05:50:32Z</time>
      </trkpt>
      <trkpt lat="47.5453310" lon="7.5754300">
        <ele>-134.8</ele>
        <time>2022-06-03T05:50:36Z</time>
      </trkpt>
      <trkpt lat="47.5455000" lon="7.5754780">
        <ele>-135.2</ele>
        <time>2022-06-03T05:50:40Z</time>
      </trkpt>
      <trkpt lat="47.5456600" lon="7.5755610">
        <ele>-135.0</ele>
        <time>2022-06-03T05:50:44Z</time>
      </trkpt>
      <trkpt lat="47.5458200" lon="7.5755900">
        <ele>-135.0</ele>
        <time>2022-06-03T05:50:48Z</time>
      </trkpt>
      <trkpt lat="47.5459900" lon="7.5755980">
        <ele>-135.0</ele>
        <time>2022-06-03T05:50:52Z</time>
      </trkpt>
      <trkpt lat="47.5461750" lon="7.5756000">
        <ele>-135.6</ele>
        <time>2022-06-03T05:50:56Z</time>
      </trkpt>
      <trkpt lat="47.5463530" lon="7.5756100">
        <ele>-135.4</ele>
        <time>2022-06-03T05:51:00Z</time>
      </trkpt>
      <trkpt lat="47.5465180" lon="7.5756700">
        <ele>-135.2</ele>
        <time>2022-06-03T05:51:04Z</time>
      </trkpt>
      <trkpt lat="47.5466700" lon="7.5757730">
        <ele>-135.2</ele>
        <time>2022-06-03T05:51:08Z</time>
      </trkpt>
      <trkpt lat="47.5468130" lon="7.5758750">
        <ele>-135.6</ele>
        <time>2022-06-03T05:51:12Z</time>
      </trkpt>
      <trkpt lat="47.5469710" lon="7.5760110">
        <ele>-136.2</ele>
        <time>2022-06-03T05:51:16Z</time>
      </trkpt>
      <trkpt lat="47.5471430" lon="7.5761380">
        <ele>-135.8</ele>
        <time>2022-06-03T05:51:20Z</time>
      </trkpt>
      <trkpt lat="47.5473050" lon="7.5762580">
        <ele>-135.4</ele>
        <time>2022-06-03T05:51:24Z</time>
      </trkpt>
      <trkpt lat="47.5474750" lon="7.5763930">
        <ele>-136.4</ele>
        <time>2022-06-03T05:51:28Z</time>
      </trkpt>
      <trkpt lat="47.5476430" lon="7.5765110">
        <ele>-135.8</ele>
        <time>2022-06-03T05:51:32Z</time>
      </trkpt>
      <trkpt lat="47.5478030" lon="7.5766160">
        <ele>-136.0</ele>
        <time>2022-06-03T05:51:36Z</time>
      </trkpt>
      <trkpt lat="47.5479600" lon="7.5767230">
        <ele>-136.2</ele>
        <time>2022-06-03T05:51:40Z</time>
      </trkpt>
      <trkpt lat="47.5481050" lon="7.5768610">
        <ele>-136.0</ele>
        <time>2022-06-03T05:51:44Z</time>
      </trkpt>
      <trkpt lat="47.5482450" lon="7.5769930">
        <ele>-136.0</ele>
        <time>2022-06-03T05:51:48Z</time>
      </trkpt>
      <trkpt lat="47.5483880" lon="7.5771010">
        <ele>-136.6</ele>
        <time>2022-06-03T05:51:52Z</time>
      </trkpt>
      <trkpt lat="47.5485330" lon="7.5772150">
        <ele>-136.2</ele>
        <time>2022-06-03T05:51:56Z</time>
      </trkpt>
      <trkpt lat="47.5487130" lon="7.5773080">
        <ele>-136.4</ele>
        <time>2022-06-03T05:52:00Z</time>
      </trkpt>
      <trkpt lat="47.5488910" lon="7.5774230">
        <ele>-136.8</ele>
        <time>2022-06-03T05:52:04Z</time>
      </trkpt>
      <trkpt lat="47.5490230" lon="7.5775700">
        <ele>-136.2</ele>
        <time>2022-06-03T05:52:08Z</time>
      </trkpt>
      <trkpt lat="47.5491560" lon="7.5777000">
        <ele>-136.8</ele>
        <time>2022-06-03T05:52:12Z</time>
      </trkpt>
      <trkpt lat="47.5492910" lon="7.5778410">
        <ele>-136.8</ele>
        <time>2022-06-03T05:52:16Z</time>
      </trkpt>
      <trkpt lat="47.5494400" lon="7.5779580">
        <ele>-136.8</ele>
        <time>2022-06-03T05:52:20Z</time>
      </trkpt>
      <trkpt lat="47.5495960" lon="7.5781080">
        <ele>-137.4</ele>
        <time>2022-06-03T05:52:24Z</time>
      </trkpt>
      <trkpt lat="47.5497230" lon="7.5782410">
        <ele>-136.4</ele>
        <time>2022-06-03T05:52:28Z</time>
      </trkpt>
      <trkpt lat="47.5498700" lon="7.5783750">
        <ele>-136.6</ele>
        <time>2022-06-03T05:52:32Z</time>
      </trkpt>
      <trkpt lat="47.5500110" lon="7.5785150">
        <ele>-136.8</ele>
        <time>2022-06-03T05:52:36Z</time>
      </trkpt>
      <trkpt lat="47.5501480" lon="7.5786560">
        <ele>-136.6</ele>
        <time>2022-06-03T05:52:40Z</time>
      </trkpt>
      <trkpt lat="47.5502680" lon="7.5787810">
        <ele>-137.0</ele>
        <time>2022-06-03T05:52:44Z</time>
      </trkpt>
      <trkpt lat="47.5503980" lon="7.5789060">
        <ele>-136.8</ele>
        <time>2022-06-03T05:52:48Z</time>
      </trkpt>
      <trkpt lat="47.5505310" lon="7.5790410">
        <ele>-137.4</ele>
        <time>2022-06-03T05:52:52Z</time>
      </trkpt>
      <trkpt lat="47.5506460" lon="7.5791710">
        <ele>-136.8</ele>
        <time>2022-06-03T05:52:56Z</time>
      </trkpt>
      <trkpt lat="47.5507560" lon="7.5792960">
        <ele>-137.0</ele>
        <time>2022-06-03T05:53:00Z</time>
      </trkpt>
      <trkpt lat="47.5508600" lon="7.5794060">
        <ele>-137.2</ele>
        <time>2022-06-03T05:53:04Z</time>
      </trkpt>
      <trkpt lat="47.5509700" lon="7.5795130">
        <ele>-137.2</ele>
        <time>2022-06-03T05:53:08Z</time>
      </trkpt>
      <trkpt lat="47.5510860" lon="7.5796100">
        <ele>-137.2</ele>
        <time>2022-06-03T05:53:12Z</time>
      </trkpt>
      <trkpt lat="47.5510860" lon="7.5796100">
        <ele>-137.0</ele>
        <time>2022-06-03T05:53:16Z</time>
      </trkpt>
      <trkpt lat="47.5510860" lon="7.5796100">
        <ele>-137.0</ele>
        <time>2022-06-03T05:53:20Z</time>
      </trkpt>
      <trkpt lat="47.5511330" lon="7.5796410">
        <ele>-137.0</ele>
        <time>2022-06-03T05:53:24Z</time>
      </trkpt>
      <trkpt lat="47.5511900" lon="7.5797060">
        <ele>-136.8</ele>
        <time>2022-06-03T05:53:28Z</time>
      </trkpt>
      <trkpt lat="47.5512810" lon="7.5798080">
        <ele>-136.8</ele>
        <time>2022-06-03T05:53:32Z</time>
      </trkpt>
      <trkpt lat="47.5514030" lon="7.5799210">
        <ele>-137.2</ele>
        <time>2022-06-03T05:53:36Z</time>
      </trkpt>
      <trkpt lat="47.5515360" lon="7.5800450">
        <ele>-137.0</ele>
        <time>2022-06-03T05:53:40Z</time>
      </trkpt>
      <trkpt lat="47.5516810" lon="7.5801750">
        <ele>-137.2</ele>
        <time>2022-06-03T05:53:44Z</time>
      </trkpt>
      <trkpt lat="47.5518330" lon="7.5803210">
        <ele>-137.8</ele>
        <time>2022-06-03T05:53:48Z</time>
      </trkpt>
      <trkpt lat="47.5519830" lon="7.5804650">
        <ele>-137.8</ele>
        <time>2022-06-03T05:53:52Z</time>
      </trkpt>
      <trkpt lat="47.5521080" lon="7.5806230">
        <ele>-137.8</ele>
        <time>2022-06-03T05:53:56Z</time>
      </trkpt>
      <trkpt lat="47.5522400" lon="7.5807800">
        <ele>-138.0</ele>
        <time>2022-06-03T05:54:00Z</time>
      </trkpt>
      <trkpt lat="47.5523860" lon="7.5809180">
        <ele>-138.2</ele>
        <time>2022-06-03T05:54:04Z</time>
      </trkpt>
      <trkpt lat="47.5525500" lon="7.5810600">
        <ele>-138.8</ele>
        <time>2022-06-03T05:54:08Z</time>
      </trkpt>
      <trkpt lat="47.5527080" lon="7.5812230">
        <ele>-139.2</ele>
        <time>2022-06-03T05:54:12Z</time>
      </trkpt>
      <trkpt lat="47.5528480" lon="7.5813780">
        <ele>-139.0</ele>
        <time>2022-06-03T05:54:16Z</time>
      </trkpt>
      <trkpt lat="47.5530030" lon="7.5815250">
        <ele>-139.2</ele>
        <time>2022-06-03T05:54:20Z</time>
      </trkpt>
      <trkpt lat="47.5531560" lon="7.5816660">
        <ele>-140.0</ele>
        <time>2022-06-03T05:54:24Z</time>
      </trkpt>
      <trkpt lat="47.5533200" lon="7.5818110">
        <ele>-140.0</ele>
        <time>2022-06-03T05:54:28Z</time>
      </trkpt>
      <trkpt lat="47.5533200" lon="7.5818110">
        <ele>-140.0</ele>
        <time>2022-06-03T05:54:32Z</time>
      </trkpt>
      <trkpt lat="47.5533200" lon="7.5818110">
        <ele>-140.0</ele>
        <time>2022-06-03T05:54:36Z</time>
      </trkpt>
      <trkpt lat="47.5533200" lon="7.5818110">
        <ele>-140.0</ele>
        <time>2022-06-03T05:54:40Z</time>
      </trkpt>
      <trkpt lat="47.5535210" lon="7.5818950">
        <ele>-140.2</ele>
        <time>2022-06-03T05:54:44Z</time>
      </trkpt>
      <trkpt lat="47.5535860" lon="7.5819750">
        <ele>-139.8</ele>
        <time>2022-06-03T05:54:48Z</time>
      </trkpt>
      <trkpt lat="47.5536680" lon="7.5820850">
        <ele>-140.6</ele>
        <time>2022-06-03T05:54:52Z</time>
      </trkpt>
      <trkpt lat="47.5537700" lon="7.5822060">
        <ele>-140.4</ele>
        <time>2022-06-03T05:54:56Z</time>
      </trkpt>
      <trkpt lat="47.5538700" lon="7.5823100">
        <ele>-140.2</ele>
        <time>2022-06-03T05:55:00Z</time>
      </trkpt>
      <trkpt lat="47.5539460" lon="7.5823980">
        <ele>-140.6</ele>
        <time>2022-06-03T05:55:04Z</time>
      </trkpt>
      <trkpt lat="47.5540710" lon="7.5825110">
        <ele>-140.6</ele>
        <time>2022-06-03T05:55:08Z</time>
      </trkpt>
      <trkpt lat="47.5541850" lon="7.5826460">
        <ele>-140.6</ele>
        <time>2022-06-03T05:55:12Z</time>
      </trkpt>
      <trkpt lat="47.5543210" lon="7.5827950">
        <ele>-141.2</ele>
        <time>2022-06-03T05:55:16Z</time>
      </trkpt>
      <trkpt lat="47.5544830" lon="7.5829550">
        <ele>-141.6</ele>
        <time>2022-06-03T05:55:20Z</time>
      </trkpt>
      <trkpt lat="47.5546160" lon="7.5831060">
        <ele>-141.6</ele>
        <time>2022-06-03T05:55:24Z</time>
      </trkpt>
      <trkpt lat="47.5547380" lon="7.5832410">
        <ele>-142.2</ele>
        <time>2022-06-03T05:55:28Z</time>
      </trkpt>
      <trkpt lat="47.5549000" lon="7.5834010">
        <ele>-141.8</ele>
        <time>2022-06-03T05:55:32Z</time>
      </trkpt>
      <trkpt lat="47.5550880" lon="7.5835900">
        <ele>-142.2</ele>
        <time>2022-06-03T05:55:36Z</time>
      </trkpt>
      <trkpt lat="47.5552930" lon="7.5837450">
        <ele>-142.2</ele>
        <time>2022-06-03T05:55:40Z</time>
      </trkpt>
      <trkpt lat="47.5555050" lon="7.5838900">
        <ele>-142.8</ele>
        <time>2022-06-03T05:55:44Z</time>
      </trkpt>
      <trkpt lat="47.5555950" lon="7.5839410">
        <ele>-142.4</ele>
        <time>2022-06-03T05:55:48Z</time>
      </trkpt>
      <trkpt lat="47.5556100" lon="7.5839880">
        <ele>-142.6</ele>
        <time>2022-06-03T05:55:52Z</time>
      </trkpt>
      <trkpt lat="47.5556100" lon="7.5839880">
        <ele>-142.4</ele>
        <time>2022-06-03T05:55:56Z</time>
      </trkpt>
      <trkpt lat="47.5556100" lon="7.5839880">
        <ele>-142.8</ele>
        <time>2022-06-03T05:56:00Z</time>
      </trkpt>
      <trkpt lat="47.5555850" lon="7.5840200">
        <ele>-142.8</ele>
        <time>2022-06-03T05:56:04Z</time>
      </trkpt>
      <trkpt lat="47.5556210" lon="7.5840910">
        <ele>-142.2</ele>
        <time>2022-06-03T05:56:08Z</time>
      </trkpt>
      <trkpt lat="47.5556910" lon="7.5842000">
        <ele>-142.2</ele>
        <time>2022-06-03T05:56:12Z</time>
      </trkpt>
      <trkpt lat="47.5558000" lon="7.5843350">
        <ele>-142.8</ele>
        <time>2022-06-03T05:56:16Z</time>
      </trkpt>
      <trkpt lat="47.5559500" lon="7.5844710">
        <ele>-142.6</ele>
        <time>2022-06-03T05:56:20Z</time>
      </trkpt>
      <trkpt lat="47.5561380" lon="7.5844780">
        <ele>-143.4</ele>
        <time>2022-06-03T05:56:24Z</time>
      </trkpt>
      <trkpt lat="47.5562250" lon="7.5844450">
        <ele>-143.0</ele>
        <time>2022-06-03T05:56:28Z</time>
      </trkpt>
      <trkpt lat="47.5563150" lon="7.5844250">
        <ele>-143.4</ele>
        <time>2022-06-03T05:56:32Z</time>
      </trkpt>
      <trkpt lat="47.5563730" lon="7.5844100">
        <ele>-143.4</ele>
        <time>2022-06-03T05:56:36Z</time>
      </trkpt>
      <trkpt lat="47.5564150" lon="7.5843960">
        <ele>-143.4</ele>
        <time>2022-06-03T05:56:40Z</time>
      </trkpt>
      <trkpt lat="47.5564880" lon="7.5843880">
        <ele>-143.2</ele>
        <time>2022-06-03T05:56:44Z</time>
      </trkpt>
      <trkpt lat="47.5565730" lon="7.5842810">
        <ele>-143.4</ele>
        <time>2022-06-03T05:56:48Z</time>
      </trkpt>
      <trkpt lat="47.5566610" lon="7.5841050">
        <ele>-143.4</ele>
        <time>2022-06-03T05:56:52Z</time>
      </trkpt>
      <trkpt lat="47.5567350" lon="7.5840510">
        <ele>-143.8</ele>
        <time>2022-06-03T05:56:56Z</time>
      </trkpt>
      <trkpt lat="47.5568400" lon="7.5840800">
        <ele>-143.8</ele>
        <time>2022-06-03T05:57:00Z</time>
      </trkpt>
      <trkpt lat="47.5569630" lon="7.5839810">
        <ele>-144.2</ele>
        <time>2022-06-03T05:57:04Z</time>
      </trkpt>
      <trkpt lat="47.5570160" lon="7.5838160">
        <ele>-144.4</ele>
        <time>2022-06-03T05:57:08Z</time>
      </trkpt>
      <trkpt lat="47.5570710" lon="7.5836160">
        <ele>-144.0</ele>
        <time>2022-06-03T05:57:12Z</time>
      </trkpt>
      <trkpt lat="47.5571180" lon="7.5833910">
        <ele>-143.8</ele>
        <time>2022-06-03T05:57:16Z</time>
      </trkpt>
      <trkpt lat="47.5571830" lon="7.5831610">
        <ele>-143.6</ele>
        <time>2022-06-03T05:57:20Z</time>
      </trkpt>
      <trkpt lat="47.5572510" lon="7.5829410">
        <ele>-144.0</ele>
        <time>2022-06-03T05:57:24Z</time>
      </trkpt>
      <trkpt lat="47.5573200" lon="7.5827310">
        <ele>-144.2</ele>
        <time>2022-06-03T05:57:28Z</time>
      </trkpt>
      <trkpt lat="47.5573960" lon="7.5825510">
        <ele>-144.0</ele>
        <time>2022-06-03T05:57:32Z</time>
      </trkpt>
      <trkpt lat="47.5574750" lon="7.5823800">
        <ele>-144.0</ele>
        <time>2022-06-03T05:57:36Z</time>
      </trkpt>
      <trkpt lat="47.5575560" lon="7.5822000">
        <ele>-144.0</ele>
        <time>2022-06-03T05:57:40Z</time>
      </trkpt>
      <trkpt lat="47.5576450" lon="7.5820100">
        <ele>-144.2</ele>
        <time>2022-06-03T05:57:44Z</time>
      </trkpt>
      <trkpt lat="47.5577180" lon="7.5818200">
        <ele>-143.8</ele>
        <time>2022-06-03T05:57:48Z</time>
      </trkpt>
      <trkpt lat="47.5577850" lon="7.5816650">
        <ele>-144.0</ele>
        <time>2022-06-03T05:57:52Z</time>
      </trkpt>
      <trkpt lat="47.5579250" lon="7.5816380">
        <ele>-144.2</ele>
        <time>2022-06-03T05:57:56Z</time>
      </trkpt>
      <trkpt lat="47.5580530" lon="7.5815000">
        <ele>-144.4</ele>
        <time>2022-06-03T05:58:00Z</time>
      </trkpt>
      <trkpt lat="47.5581530" lon="7.5813280">
        <ele>-144.6</ele>
        <time>2022-06-03T05:58:04Z</time>
      </trkpt>
      <trkpt lat="47.5581530" lon="7.5813280">
        <ele>-144.4</ele>
        <time>2022-06-03T05:58:08Z</time>
      </trkpt>
      <trkpt lat="47.5581530" lon="7.5813280">
        <ele>-144.4</ele>
        <time>2022-06-03T05:58:12Z</time>
      </trkpt>
      <trkpt lat="47.5581530" lon="7.5813280">
        <ele>-144.4</ele>
        <time>2022-06-03T05:58:16Z</time>
      </trkpt>
      <trkpt lat="47.5581530" lon="7.5813280">
        <ele>-144.2</ele>
        <time>2022-06-03T05:58:20Z</time>
      </trkpt>
      <trkpt lat="47.5581530" lon="7.5813280">
        <ele>-144.4</ele>
        <time>2022-06-03T05:58:24Z</time>
      </trkpt>
      <trkpt lat="47.5581530" lon="7.5813280">
        <ele>-144.6</ele>
        <time>2022-06-03T05:58:28Z</time>
      </trkpt>
      <trkpt lat="47.5581530" lon="7.5813280">
        <ele>-144.6</ele>
        <time>2022-06-03T05:58:32Z</time>
      </trkpt>
      <trkpt lat="47.5581530" lon="7.5813280">
        <ele>-144.8</ele>
        <time>2022-06-03T05:58:36Z</time>
      </trkpt>
      <trkpt lat="47.5581530" lon="7.5813280">
        <ele>-145.2</ele>
        <time>2022-06-03T05:58:40Z</time>
      </trkpt>
      <trkpt lat="47.5581530" lon="7.5813280">
        <ele>-144.6</ele>
        <time>2022-06-03T05:58:44Z</time>
      </trkpt>
      <trkpt lat="47.5581530" lon="7.5813280">
        <ele>-144.8</ele>
        <time>2022-06-03T05:58:48Z</time>
      </trkpt>
      <trkpt lat="47.5581530" lon="7.5813280">
        <ele>-144.6</ele>
        <time>2022-06-03T05:58:52Z</time>
      </trkpt>
      <trkpt lat="47.5581530" lon="7.5813280">
        <ele>-144.8</ele>
        <time>2022-06-03T05:58:56Z</time>
      </trkpt>
      <trkpt lat="47.5581530" lon="7.5813280">
        <ele>-144.8</ele>
        <time>2022-06-03T05:59:00Z</time>
      </trkpt>
      <trkpt lat="47.5581530" lon="7.5813280">
        <ele>-144.8</ele>
        <time>2022-06-03T05:59:04Z</time>
      </trkpt>
      <trkpt lat="47.5581530" lon="7.5813280">
        <ele>-145.2</ele>
        <time>2022-06-03T05:59:08Z</time>
      </trkpt>
      <trkpt lat="47.5582330" lon="7.5812430">
        <ele>-145.0</ele>
        <time>2022-06-03T05:59:12Z</time>
      </trkpt>
      <trkpt lat="47.5582700" lon="7.5811410">
        <ele>-145.0</ele>
        <time>2022-06-03T05:59:16Z</time>
      </trkpt>
      <trkpt lat="47.5583730" lon="7.5810430">
        <ele>-145.4</ele>
        <time>2022-06-03T05:59:20Z</time>
      </trkpt>
      <trkpt lat="47.5585380" lon="7.5809700">
        <ele>-145.8</ele>
        <time>2022-06-03T05:59:24Z</time>
      </trkpt>
      <trkpt lat="47.5587260" lon="7.5809110">
        <ele>-146.4</ele>
        <time>2022-06-03T05:59:28Z</time>
      </trkpt>
      <trkpt lat="47.5589380" lon="7.5808600">
        <ele>-146.6</ele>
        <time>2022-06-03T05:59:32Z</time>
      </trkpt>
      <trkpt lat="47.5591500" lon="7.5808060">
        <ele>-146.8</ele>
        <time>2022-06-03T05:59:36Z</time>
      </trkpt>
      <trkpt lat="47.5593750" lon="7.5807460">
        <ele>-148.4</ele>
        <time>2022-06-03T05:59:40Z</time>
      </trkpt>
      <trkpt lat="47.5595860" lon="7.5806430">
        <ele>-147.4</ele>
        <time>2022-06-03T05:59:44Z</time>
      </trkpt>
      <trkpt lat="47.5597580" lon="7.5804400">
        <ele>-148.8</ele>
        <time>2022-06-03T05:59:48Z</time>
      </trkpt>
      <trkpt lat="47.5599180" lon="7.5802410">
        <ele>-149.0</ele>
        <time>2022-06-03T05:59:52Z</time>
      </trkpt>
      <trkpt lat="47.5601130" lon="7.5801130">
        <ele>-149.6</ele>
        <time>2022-06-03T05:59:56Z</time>
      </trkpt>
      <trkpt lat="47.5603280" lon="7.5801630">
        <ele>-150.4</ele>
        <time>2022-06-03T06:00:00Z</time>
      </trkpt>
      <trkpt lat="47.5605450" lon="7.5802750">
        <ele>-150.6</ele>
        <time>2022-06-03T06:00:04Z</time>
      </trkpt>
      <trkpt lat="47.5607930" lon="7.5803980">
        <ele>-152.0</ele>
        <time>2022-06-03T06:00:08Z</time>
      </trkpt>
      <trkpt lat="47.5610360" lon="7.5805330">
        <ele>-152.2</ele>
        <time>2022-06-03T06:00:12Z</time>
      </trkpt>
      <trkpt lat="47.5612710" lon="7.5806660">
        <ele>-153.0</ele>
        <time>2022-06-03T06:00:16Z</time>
      </trkpt>
      <trkpt lat="47.5614730" lon="7.5807750">
        <ele>-153.8</ele>
        <time>2022-06-03T06:00:20Z</time>
      </trkpt>
      <trkpt lat="47.5616360" lon="7.5808630">
        <ele>-154.6</ele>
        <time>2022-06-03T06:00:24Z</time>
      </trkpt>
      <trkpt lat="47.5618500" lon="7.5809560">
        <ele>-155.8</ele>
        <time>2022-06-03T06:00:28Z</time>
      </trkpt>
      <trkpt lat="47.5620860" lon="7.5811180">
        <ele>-157.0</ele>
        <time>2022-06-03T06:00:32Z</time>
      </trkpt>
      <trkpt lat="47.5623000" lon="7.5813550">
        <ele>-157.6</ele>
        <time>2022-06-03T06:00:36Z</time>
      </trkpt>
      <trkpt lat="47.5625350" lon="7.5815680">
        <ele>-159.0</ele>
        <time>2022-06-03T06:00:40Z</time>
      </trkpt>
      <trkpt lat="47.5627930" lon="7.5818110">
        <ele>-159.8</ele>
        <time>2022-06-03T06:00:44Z</time>
      </trkpt>
      <trkpt lat="47.5630000" lon="7.5820560">
        <ele>-160.0</ele>
        <time>2022-06-03T06:00:48Z</time>
      </trkpt>
      <trkpt lat="47.5632080" lon="7.5822900">
        <ele>-160.6</ele>
        <time>2022-06-03T06:00:52Z</time>
      </trkpt>
      <trkpt lat="47.5634160" lon="7.5825230">
        <ele>-161.0</ele>
        <time>2022-06-03T06:00:56Z</time>
      </trkpt>
      <trkpt lat="47.5636030" lon="7.5827560">
        <ele>-161.0</ele>
        <time>2022-06-03T06:01:00Z</time>
      </trkpt>
      <trkpt lat="47.5637710" lon="7.5829950">
        <ele>-161.2</ele>
        <time>2022-06-03T06:01:04Z</time>
      </trkpt>
      <trkpt lat="47.5638910" lon="7.5831880">
        <ele>-161.4</ele>
        <time>2022-06-03T06:01:08Z</time>
      </trkpt>
      <trkpt lat="47.5639460" lon="7.5832450">
        <ele>-162.0</ele>
        <time>2022-06-03T06:01:12Z</time>
      </trkpt>
      <trkpt lat="47.5639710" lon="7.5832680">
        <ele>-162.0</ele>
        <time>2022-06-03T06:01:16Z</time>
      </trkpt>
      <trkpt lat="47.5640150" lon="7.5833260">
        <ele>-161.8</ele>
        <time>2022-06-03T06:01:20Z</time>
      </trkpt>
      <trkpt lat="47.5641030" lon="7.5834550">
        <ele>-161.8</ele>
        <time>2022-06-03T06:01:24Z</time>
      </trkpt>
      <trkpt lat="47.5642350" lon="7.5836150">
        <ele>-162.0</ele>
        <time>2022-06-03T06:01:28Z</time>
      </trkpt>
      <trkpt lat="47.5643710" lon="7.5838150">
        <ele>-162.2</ele>
        <time>2022-06-03T06:01:32Z</time>
      </trkpt>
      <trkpt lat="47.5644550" lon="7.5840810">
        <ele>-162.2</ele>
        <time>2022-06-03T06:01:36Z</time>
      </trkpt>
      <trkpt lat="47.5645050" lon="7.5843510">
        <ele>-161.8</ele>
        <time>2022-06-03T06:01:40Z</time>
      </trkpt>
      <trkpt lat="47.5645360" lon="7.5845700">
        <ele>-161.6</ele>
        <time>2022-06-03T06:01:44Z</time>
      </trkpt>
      <trkpt lat="47.5645800" lon="7.5847730">
        <ele>-161.6</ele>
        <time>2022-06-03T06:01:48Z</time>
      </trkpt>
      <trkpt lat="47.5646330" lon="7.5849700">
        <ele>-162.0</ele>
        <time>2022-06-03T06:01:52Z</time>
      </trkpt>
      <trkpt lat="47.5646830" lon="7.5851660">
        <ele>-161.4</ele>
        <time>2022-06-03T06:01:56Z</time>
      </trkpt>
      <trkpt lat="47.5647450" lon="7.5853660">
        <ele>-161.6</ele>
        <time>2022-06-03T06:02:00Z</time>
      </trkpt>
      <trkpt lat="47.5648030" lon="7.5855850">
        <ele>-160.2</ele>
        <time>2022-06-03T06:02:04Z</time>
      </trkpt>
      <trkpt lat="47.5648660" lon="7.5858130">
        <ele>-161.2</ele>
        <time>2022-06-03T06:02:08Z</time>
      </trkpt>
      <trkpt lat="47.5649400" lon="7.5860460">
        <ele>-161.2</ele>
        <time>2022-06-03T06:02:12Z</time>
      </trkpt>
      <trkpt lat="47.5650150" lon="7.5862880">
        <ele>-161.6</ele>
        <time>2022-06-03T06:02:16Z</time>
      </trkpt>
      <trkpt lat="47.5650900" lon="7.5865360">
        <ele>-161.8</ele>
        <time>2022-06-03T06:02:20Z</time>
      </trkpt>
      <trkpt lat="47.5651680" lon="7.5867960">
        <ele>-162.2</ele>
        <time>2022-06-03T06:02:24Z</time>
      </trkpt>
      <trkpt lat="47.5652510" lon="7.5870650">
        <ele>-162.2</ele>
        <time>2022-06-03T06:02:28Z</time>
      </trkpt>
      <trkpt lat="47.5653410" lon="7.5873300">
        <ele>-162.8</ele>
        <time>2022-06-03T06:02:32Z</time>
      </trkpt>
      <trkpt lat="47.5654150" lon="7.5875710">
        <ele>-163.2</ele>
        <time>2022-06-03T06:02:36Z</time>
      </trkpt>
      <trkpt lat="47.5655010" lon="7.5878300">
        <ele>-164.4</ele>
        <time>2022-06-03T06:02:40Z</time>
      </trkpt>
      <trkpt lat="47.5656300" lon="7.5880960">
        <ele>-164.4</ele>
        <time>2022-06-03T06:02:44Z</time>
      </trkpt>
      <trkpt lat="47.5657530" lon="7.5883860">
        <ele>-165.4</ele>
        <time>2022-06-03T06:02:48Z</time>
      </trkpt>
      <trkpt lat="47.5658850" lon="7.5886100">
        <ele>-165.6</ele>
        <time>2022-06-03T06:02:52Z</time>
      </trkpt>
      <trkpt lat="47.5659330" lon="7.5888330">
        <ele>-165.6</ele>
        <time>2022-06-03T06:02:56Z</time>
      </trkpt>
      <trkpt lat="47.5659330" lon="7.5889260">
        <ele>-165.6</ele>
        <time>2022-06-03T06:03:00Z</time>
      </trkpt>
      <trkpt lat="47.5659330" lon="7.5889260">
        <ele>-166.2</ele>
        <time>2022-06-03T06:03:04Z</time>
      </trkpt>
      <trkpt lat="47.5659280" lon="7.5889230">
        <ele>-165.4</ele>
        <time>2022-06-03T06:03:08Z</time>
      </trkpt>
      <trkpt lat="47.5659630" lon="7.5889180">
        <ele>-166.2</ele>
        <time>2022-06-03T06:03:12Z</time>
      </trkpt>
      <trkpt lat="47.5660460" lon="7.5889860">
        <ele>-165.4</ele>
        <time>2022-06-03T06:03:16Z</time>
      </trkpt>
      <trkpt lat="47.5661260" lon="7.5890330">
        <ele>-165.8</ele>
        <time>2022-06-03T06:03:20Z</time>
      </trkpt>
      <trkpt lat="47.5662250" lon="7.5890100">
        <ele>-166.6</ele>
        <time>2022-06-03T06:03:24Z</time>
      </trkpt>
      <trkpt lat="47.5663060" lon="7.5888880">
        <ele>-166.6</ele>
        <time>2022-06-03T06:03:28Z</time>
      </trkpt>
      <trkpt lat="47.5662900" lon="7.5887200">
        <ele>-166.6</ele>
        <time>2022-06-03T06:03:32Z</time>
      </trkpt>
      <trkpt lat="47.5662550" lon="7.5885110">
        <ele>-167.4</ele>
        <time>2022-06-03T06:03:36Z</time>
      </trkpt>
      <trkpt lat="47.5661980" lon="7.5883010">
        <ele>-168.0</ele>
        <time>2022-06-03T06:03:40Z</time>
      </trkpt>
      <trkpt lat="47.5661780" lon="7.5880700">
        <ele>-168.6</ele>
        <time>2022-06-03T06:03:44Z</time>
      </trkpt>
      <trkpt lat="47.5661250" lon="7.5878400">
        <ele>-169.6</ele>
        <time>2022-06-03T06:03:48Z</time>
      </trkpt>
      <trkpt lat="47.5661230" lon="7.5875810">
        <ele>-170.4</ele>
        <time>2022-06-03T06:03:52Z</time>
      </trkpt>
      <trkpt lat="47.5660830" lon="7.5873300">
        <ele>-170.8</ele>
        <time>2022-06-03T06:03:56Z</time>
      </trkpt>
      <trkpt lat="47.5660750" lon="7.5871130">
        <ele>-171.6</ele>
        <time>2022-06-03T06:04:00Z</time>
      </trkpt>
      <trkpt lat="47.5660900" lon="7.5869610">
        <ele>-171.4</ele>
        <time>2022-06-03T06:04:04Z</time>
      </trkpt>
      <trkpt lat="47.5661900" lon="7.5868660">
        <ele>-171.2</ele>
        <time>2022-06-03T06:04:08Z</time>
      </trkpt>
      <trkpt lat="47.5663330" lon="7.5868100">
        <ele>-171.6</ele>
        <time>2022-06-03T06:04:12Z</time>
      </trkpt>
      <trkpt lat="47.5664560" lon="7.5867780">
        <ele>-171.8</ele>
        <time>2022-06-03T06:04:16Z</time>
      </trkpt>
      <trkpt lat="47.5666010" lon="7.5867350">
        <ele>-171.6</ele>
        <time>2022-06-03T06:04:20Z</time>
      </trkpt>
      <trkpt lat="47.5667480" lon="7.5866850">
        <ele>-171.6</ele>
        <time>2022-06-03T06:04:24Z</time>
      </trkpt>
      <trkpt lat="47.5668930" lon="7.5866580">
        <ele>-171.4</ele>
        <time>2022-06-03T06:04:28Z</time>
      </trkpt>
      <trkpt lat="47.5670010" lon="7.5866260">
        <ele>-171.6</ele>
        <time>2022-06-03T06:04:32Z</time>
      </trkpt>
      <trkpt lat="47.5671080" lon="7.5866010">
        <ele>-171.6</ele>
        <time>2022-06-03T06:04:36Z</time>
      </trkpt>
      <trkpt lat="47.5672280" lon="7.5865730">
        <ele>-171.4</ele>
        <time>2022-06-03T06:04:40Z</time>
      </trkpt>
      <trkpt lat="47.5673260" lon="7.5865460">
        <ele>-171.6</ele>
        <time>2022-06-03T06:04:44Z</time>
      </trkpt>
      <trkpt lat="47.5674400" lon="7.5865160">
        <ele>-171.2</ele>
        <time>2022-06-03T06:04:48Z</time>
      </trkpt>
      <trkpt lat="47.5675700" lon="7.5864880">
        <ele>-171.6</ele>
        <time>2022-06-03T06:04:52Z</time>
      </trkpt>
      <trkpt lat="47.5677010" lon="7.5864810">
        <ele>-171.6</ele>
        <time>2022-06-03T06:04:56Z</time>
      </trkpt>
      <trkpt lat="47.5678300" lon="7.5864800">
        <ele>-171.2</ele>
        <time>2022-06-03T06:05:00Z</time>
      </trkpt>
      <trkpt lat="47.5679500" lon="7.5864710">
        <ele>-171.6</ele>
        <time>2022-06-03T06:05:04Z</time>
      </trkpt>
      <trkpt lat="47.5680660" lon="7.5864610">
        <ele>-171.6</ele>
        <time>2022-06-03T06:05:08Z</time>
      </trkpt>
      <trkpt lat="47.5681910" lon="7.5864560">
        <ele>-171.6</ele>
        <time>2022-06-03T06:05:12Z</time>
      </trkpt>
      <trkpt lat="47.5683300" lon="7.5864580">
        <ele>-171.4</ele>
        <time>2022-06-03T06:05:16Z</time>
      </trkpt>
      <trkpt lat="47.5684450" lon="7.5864010">
        <ele>-171.4</ele>
        <time>2022-06-03T06:05:20Z</time>
      </trkpt>
      <trkpt lat="47.5684630" lon="7.5862930">
        <ele>-171.6</ele>
        <time>2022-06-03T06:05:24Z</time>
      </trkpt>
      <trkpt lat="47.5685480" lon="7.5862830">
        <ele>-171.8</ele>
        <time>2022-06-03T06:05:28Z</time>
      </trkpt>
      <trkpt lat="47.5686410" lon="7.5862730">
        <ele>-171.8</ele>
        <time>2022-06-03T06:05:32Z</time>
      </trkpt>
      <trkpt lat="47.5687260" lon="7.5862350">
        <ele>-171.2</ele>
        <time>2022-06-03T06:05:36Z</time>
      </trkpt>
      <trkpt lat="47.5688160" lon="7.5862700">
        <ele>-171.6</ele>
        <time>2022-06-03T06:05:40Z</time>
      </trkpt>
      <trkpt lat="47.5688850" lon="7.5863080">
        <ele>-171.0</ele>
        <time>2022-06-03T06:05:44Z</time>
      </trkpt>
      <trkpt lat="47.5689630" lon="7.5863150">
        <ele>-171.0</ele>
        <time>2022-06-03T06:05:48Z</time>
      </trkpt>
      <trkpt lat="47.5690610" lon="7.5863160">
        <ele>-171.4</ele>
        <time>2022-06-03T06:05:52Z</time>
      </trkpt>
      <trkpt lat="47.5691560" lon="7.5863280">
        <ele>-170.8</ele>
        <time>2022-06-03T06:05:56Z</time>
      </trkpt>
      <trkpt lat="47.5692560" lon="7.5863350">
        <ele>-170.8</ele>
        <time>2022-06-03T06:06:00Z</time>
      </trkpt>
      <trkpt lat="47.5693610" lon="7.5863460">
        <ele>-171.0</ele>
        <time>2022-06-03T06:06:04Z</time>
      </trkpt>
      <trkpt lat="47.5694580" lon="7.5863550">
        <ele>-171.0</ele>
        <time>2022-06-03T06:06:08Z</time>
      </trkpt>
      <trkpt lat="47.5695210" lon="7.5864150">
        <ele>-171.0</ele>
        <time>2022-06-03T06:06:12Z</time>
      </trkpt>
      <trkpt lat="47.5695900" lon="7.5864500">
        <ele>-170.8</ele>
        <time>2022-06-03T06:06:16Z</time>
      </trkpt>
      <trkpt lat="47.5696950" lon="7.5864530">
        <ele>-171.0</ele>
        <time>2022-06-03T06:06:20Z</time>
      </trkpt>
      <trkpt lat="47.5697510" lon="7.5865080">
        <ele>-171.0</ele>
        <time>2022-06-03T06:06:24Z</time>
      </trkpt>
      <trkpt lat="47.5697950" lon="7.5865580">
        <ele>-171.0</ele>
        <time>2022-06-03T06:06:28Z</time>
      </trkpt>
      <trkpt lat="47.5699060" lon="7.5865560">
        <ele>-171.0</ele>
        <time>2022-06-03T06:06:32Z</time>
      </trkpt>
      <trkpt lat="47.5700680" lon="7.5865450">
        <ele>-170.8</ele>
        <time>2022-06-03T06:06:36Z</time>
      </trkpt>
      <trkpt lat="47.5702480" lon="7.5865730">
        <ele>-171.2</ele>
        <time>2022-06-03T06:06:40Z</time>
      </trkpt>
      <trkpt lat="47.5704230" lon="7.5865960">
        <ele>-171.2</ele>
        <time>2022-06-03T06:06:44Z</time>
      </trkpt>
      <trkpt lat="47.5705860" lon="7.5866210">
        <ele>-170.8</ele>
        <time>2022-06-03T06:06:48Z</time>
      </trkpt>
      <trkpt lat="47.5706780" lon="7.5865460">
        <ele>-171.4</ele>
        <time>2022-06-03T06:06:52Z</time>
      </trkpt>
      <trkpt lat="47.5708780" lon="7.5866400">
        <ele>-170.8</ele>
        <time>2022-06-03T06:06:56Z</time>
      </trkpt>
      <trkpt lat="47.5710710" lon="7.5866710">
        <ele>-170.8</ele>
        <time>2022-06-03T06:07:00Z</time>
      </trkpt>
      <trkpt lat="47.5712650" lon="7.5867080">
        <ele>-171.0</ele>
        <time>2022-06-03T06:07:04Z</time>
      </trkpt>
      <trkpt lat="47.5714610" lon="7.5867530">
        <ele>-171.0</ele>
        <time>2022-06-03T06:07:08Z</time>
      </trkpt>
      <trkpt lat="47.5716600" lon="7.5867800">
        <ele>-171.0</ele>
        <time>2022-06-03T06:07:12Z</time>
      </trkpt>
      <trkpt lat="47.5718380" lon="7.5867980">
        <ele>-171.0</ele>
        <time>2022-06-03T06:07:16Z</time>
      </trkpt>
      <trkpt lat="47.5720480" lon="7.5868410">
        <ele>-171.2</ele>
        <time>2022-06-03T06:07:20Z</time>
      </trkpt>
      <trkpt lat="47.5722060" lon="7.5869460">
        <ele>-170.8</ele>
        <time>2022-06-03T06:07:24Z</time>
      </trkpt>
      <trkpt lat="47.5723710" lon="7.5869680">
        <ele>-170.4</ele>
        <time>2022-06-03T06:07:28Z</time>
      </trkpt>
      <trkpt lat="47.5724980" lon="7.5869530">
        <ele>-169.8</ele>
        <time>2022-06-03T06:07:32Z</time>
      </trkpt>
      <trkpt lat="47.5726260" lon="7.5869780">
        <ele>-171.2</ele>
        <time>2022-06-03T06:07:36Z</time>
      </trkpt>
      <trkpt lat="47.5727830" lon="7.5870360">
        <ele>-170.4</ele>
        <time>2022-06-03T06:07:40Z</time>
      </trkpt>
      <trkpt lat="47.5729500" lon="7.5870030">
        <ele>-170.6</ele>
        <time>2022-06-03T06:07:44Z</time>
      </trkpt>
      <trkpt lat="47.5730910" lon="7.5870060">
        <ele>-170.6</ele>
        <time>2022-06-03T06:07:48Z</time>
      </trkpt>
      <trkpt lat="47.5732780" lon="7.5870730">
        <ele>-170.2</ele>
        <time>2022-06-03T06:07:52Z</time>
      </trkpt>
      <trkpt lat="47.5734680" lon="7.5871150">
        <ele>-170.0</ele>
        <time>2022-06-03T06:07:56Z</time>
      </trkpt>
      <trkpt lat="47.5736630" lon="7.5871650">
        <ele>-170.0</ele>
        <time>2022-06-03T06:08:00Z</time>
      </trkpt>
      <trkpt lat="47.5738500" lon="7.5872130">
        <ele>-170.0</ele>
        <time>2022-06-03T06:08:04Z</time>
      </trkpt>
      <trkpt lat="47.5740260" lon="7.5872430">
        <ele>-169.8</ele>
        <time>2022-06-03T06:08:08Z</time>
      </trkpt>
      <trkpt lat="47.5742130" lon="7.5872700">
        <ele>-169.6</ele>
        <time>2022-06-03T06:08:12Z</time>
      </trkpt>
      <trkpt lat="47.5743880" lon="7.5872850">
        <ele>-169.4</ele>
        <time>2022-06-03T06:08:16Z</time>
      </trkpt>
      <trkpt lat="47.5745530" lon="7.5873080">
        <ele>-169.4</ele>
        <time>2022-06-03T06:08:20Z</time>
      </trkpt>
      <trkpt lat="47.5747300" lon="7.5873200">
        <ele>-169.8</ele>
        <time>2022-06-03T06:08:24Z</time>
      </trkpt>
      <trkpt lat="47.5749030" lon="7.5873300">
        <ele>-169.2</ele>
        <time>2022-06-03T06:08:28Z</time>
      </trkpt>
      <trkpt lat="47.5750750" lon="7.5873660">
        <ele>-169.8</ele>
        <time>2022-06-03T06:08:32Z</time>
      </trkpt>
      <trkpt lat="47.5752410" lon="7.5873860">
        <ele>-168.4</ele>
        <time>2022-06-03T06:08:36Z</time>
      </trkpt>
      <trkpt lat="47.5754080" lon="7.5873960">
        <ele>-169.4</ele>
        <time>2022-06-03T06:08:40Z</time>
      </trkpt>
      <trkpt lat="47.5755650" lon="7.5874030">
        <ele>-169.0</ele>
        <time>2022-06-03T06:08:44Z</time>
      </trkpt>
      <trkpt lat="47.5757210" lon="7.5874110">
        <ele>-169.0</ele>
        <time>2022-06-03T06:08:48Z</time>
      </trkpt>
      <trkpt lat="47.5758980" lon="7.5874610">
        <ele>-168.6</ele>
        <time>2022-06-03T06:08:52Z</time>
      </trkpt>
      <trkpt lat="47.5760580" lon="7.5874800">
        <ele>-169.4</ele>
        <time>2022-06-03T06:08:56Z</time>
      </trkpt>
      <trkpt lat="47.5762400" lon="7.5875030">
        <ele>-169.2</ele>
        <time>2022-06-03T06:09:00Z</time>
      </trkpt>
      <trkpt lat="47.5764250" lon="7.5875580">
        <ele>-169.4</ele>
        <time>2022-06-03T06:09:04Z</time>
      </trkpt>
      <trkpt lat="47.5765700" lon="7.5876380">
        <ele>-169.0</ele>
        <time>2022-06-03T06:09:08Z</time>
      </trkpt>
      <trkpt lat="47.5767360" lon="7.5876560">
        <ele>-168.8</ele>
        <time>2022-06-03T06:09:12Z</time>
      </trkpt>
      <trkpt lat="47.5769080" lon="7.5876880">
        <ele>-168.6</ele>
        <time>2022-06-03T06:09:16Z</time>
      </trkpt>
      <trkpt lat="47.5770680" lon="7.5877760">
        <ele>-168.6</ele>
        <time>2022-06-03T06:09:20Z</time>
      </trkpt>
      <trkpt lat="47.5772350" lon="7.5878400">
        <ele>-168.6</ele>
        <time>2022-06-03T06:09:24Z</time>
      </trkpt>
      <trkpt lat="47.5774030" lon="7.5878950">
        <ele>-168.8</ele>
        <time>2022-06-03T06:09:28Z</time>
      </trkpt>
      <trkpt lat="47.5775800" lon="7.5879380">
        <ele>-168.4</ele>
        <time>2022-06-03T06:09:32Z</time>
      </trkpt>
      <trkpt lat="47.5777530" lon="7.5879730">
        <ele>-169.4</ele>
        <time>2022-06-03T06:09:36Z</time>
      </trkpt>
      <trkpt lat="47.5779130" lon="7.5880380">
        <ele>-169.0</ele>
        <time>2022-06-03T06:09:40Z</time>
      </trkpt>
      <trkpt lat="47.5780680" lon="7.5881150">
        <ele>-168.6</ele>
        <time>2022-06-03T06:09:44Z</time>
      </trkpt>
      <trkpt lat="47.5782100" lon="7.5882330">
        <ele>-168.2</ele>
        <time>2022-06-03T06:09:48Z</time>
      </trkpt>
      <trkpt lat="47.5783300" lon="7.5882630">
        <ele>-168.6</ele>
        <time>2022-06-03T06:09:52Z</time>
      </trkpt>
      <trkpt lat="47.5784730" lon="7.5883030">
        <ele>-169.0</ele>
        <time>2022-06-03T06:09:56Z</time>
      </trkpt>
      <trkpt lat="47.5786480" lon="7.5883280">
        <ele>-168.2</ele>
        <time>2022-06-03T06:10:00Z</time>
      </trkpt>
      <trkpt lat="47.5787960" lon="7.5883960">
        <ele>-168.6</ele>
        <time>2022-06-03T06:10:04Z</time>
      </trkpt>
      <trkpt lat="47.5789600" lon="7.5884580">
        <ele>-169.2</ele>
        <time>2022-06-03T06:10:08Z</time>
      </trkpt>
      <trkpt lat="47.5791250" lon="7.5885050">
        <ele>-168.2</ele>
        <time>2022-06-03T06:10:12Z</time>
      </trkpt>
      <trkpt lat="47.5792850" lon="7.5885510">
        <ele>-169.0</ele>
        <time>2022-06-03T06:10:16Z</time>
      </trkpt>
      <trkpt lat="47.5794500" lon="7.5885960">
        <ele>-168.6</ele>
        <time>2022-06-03T06:10:20Z</time>
      </trkpt>
      <trkpt lat="47.5796010" lon="7.5886680">
        <ele>-168.0</ele>
        <time>2022-06-03T06:10:24Z</time>
      </trkpt>
      <trkpt lat="47.5797650" lon="7.5887510">
        <ele>-168.6</ele>
        <time>2022-06-03T06:10:28Z</time>
      </trkpt>
      <trkpt lat="47.5799330" lon="7.5888450">
        <ele>-167.8</ele>
        <time>2022-06-03T06:10:32Z</time>
      </trkpt>
      <trkpt lat="47.5800880" lon="7.5889230">
        <ele>-168.2</ele>
        <time>2022-06-03T06:10:36Z</time>
      </trkpt>
      <trkpt lat="47.5802450" lon="7.5890000">
        <ele>-168.0</ele>
        <time>2022-06-03T06:10:40Z</time>
      </trkpt>
      <trkpt lat="47.5804080" lon="7.5890800">
        <ele>-168.0</ele>
        <time>2022-06-03T06:10:44Z</time>
      </trkpt>
      <trkpt lat="47.5805530" lon="7.5891650">
        <ele>-167.8</ele>
        <time>2022-06-03T06:10:48Z</time>
      </trkpt>
      <trkpt lat="47.5807130" lon="7.5892630">
        <ele>-167.6</ele>
        <time>2022-06-03T06:10:52Z</time>
      </trkpt>
      <trkpt lat="47.5808710" lon="7.5893350">
        <ele>-168.2</ele>
        <time>2022-06-03T06:10:56Z</time>
      </trkpt>
      <trkpt lat="47.5810160" lon="7.5894200">
        <ele>-167.8</ele>
        <time>2022-06-03T06:11:00Z</time>
      </trkpt>
      <trkpt lat="47.5811730" lon="7.5895000">
        <ele>-167.4</ele>
        <time>2022-06-03T06:11:04Z</time>
      </trkpt>
      <trkpt lat="47.5813100" lon="7.5895750">
        <ele>-168.4</ele>
        <time>2022-06-03T06:11:08Z</time>
      </trkpt>
      <trkpt lat="47.5814560" lon="7.5896460">
        <ele>-168.2</ele>
        <time>2022-06-03T06:11:12Z</time>
      </trkpt>
      <trkpt lat="47.5816060" lon="7.5897130">
        <ele>-167.6</ele>
        <time>2022-06-03T06:11:16Z</time>
      </trkpt>
      <trkpt lat="47.5817300" lon="7.5898430">
        <ele>-168.6</ele>
        <time>2022-06-03T06:11:20Z</time>
      </trkpt>
      <trkpt lat="47.5817700" lon="7.5901000">
        <ele>-168.4</ele>
        <time>2022-06-03T06:11:24Z</time>
      </trkpt>
      <trkpt lat="47.5817680" lon="7.5902960">
        <ele>-168.2</ele>
        <time>2022-06-03T06:11:28Z</time>
      </trkpt>
      <trkpt lat="47.5817180" lon="7.5904910">
        <ele>-168.0</ele>
        <time>2022-06-03T06:11:32Z</time>
      </trkpt>
      <trkpt lat="47.5816710" lon="7.5906730">
        <ele>-168.0</ele>
        <time>2022-06-03T06:11:36Z</time>
      </trkpt>
      <trkpt lat="47.5816310" lon="7.5908510">
        <ele>-167.8</ele>
        <time>2022-06-03T06:11:40Z</time>
      </trkpt>
      <trkpt lat="47.5816110" lon="7.5910350">
        <ele>-168.0</ele>
        <time>2022-06-03T06:11:44Z</time>
      </trkpt>
      <trkpt lat="47.5815710" lon="7.5912150">
        <ele>-168.0</ele>
        <time>2022-06-03T06:11:48Z</time>
      </trkpt>
      <trkpt lat="47.5814860" lon="7.5913880">
        <ele>-167.6</ele>
        <time>2022-06-03T06:11:52Z</time>
      </trkpt>
      <trkpt lat="47.5814400" lon="7.5915310">
        <ele>-168.0</ele>
        <time>2022-06-03T06:11:56Z</time>
      </trkpt>
      <trkpt lat="47.5814400" lon="7.5915310">
        <ele>-167.8</ele>
        <time>2022-06-03T06:12:00Z</time>
      </trkpt>
      <trkpt lat="47.5814160" lon="7.5915760">
        <ele>-167.8</ele>
        <time>2022-06-03T06:12:04Z</time>
      </trkpt>
      <trkpt lat="47.5814160" lon="7.5915760">
        <ele>-167.8</ele>
        <time>2022-06-03T06:12:08Z</time>
      </trkpt>
      <trkpt lat="47.5814160" lon="7.5915760">
        <ele>-168.0</ele>
        <time>2022-06-03T06:12:12Z</time>
      </trkpt>
      <trkpt lat="47.5814160" lon="7.5915760">
        <ele>-167.6</ele>
        <time>2022-06-03T06:12:16Z</time>
      </trkpt>
      <trkpt lat="47.5814160" lon="7.5915760">
        <ele>-167.8</ele>
        <time>2022-06-03T06:12:20Z</time>
      </trkpt>
      <trkpt lat="47.5814160" lon="7.5915760">
        <ele>-168.0</ele>
        <time>2022-06-03T06:12:24Z</time>
      </trkpt>
      <trkpt lat="47.5814160" lon="7.5915760">
        <ele>-168.2</ele>
        <time>2022-06-03T06:12:28Z</time>
      </trkpt>
      <trkpt lat="47.5814150" lon="7.5916160">
        <ele>-168.0</ele>
        <time>2022-06-03T06:12:32Z</time>
      </trkpt>
      <trkpt lat="47.5814150" lon="7.5916160">
        <ele>-168.4</ele>
        <time>2022-06-03T06:12:36Z</time>
      </trkpt>
      <trkpt lat="47.5814150" lon="7.5916160">
        <ele>-167.8</ele>
        <time>2022-06-03T06:12:40Z</time>
      </trkpt>
      <trkpt lat="47.5814150" lon="7.5916160">
        <ele>-168.0</ele>
        <time>2022-06-03T06:12:44Z</time>
      </trkpt>
      <trkpt lat="47.5814150" lon="7.5916160">
        <ele>-167.6</ele>
        <time>2022-06-03T06:12:48Z</time>
      </trkpt>
      <trkpt lat="47.5814150" lon="7.5916160">
        <ele>-167.6</ele>
        <time>2022-06-03T06:12:52Z</time>
      </trkpt>
      <trkpt lat="47.5814150" lon="7.5916160">
        <ele>-167.6</ele>
        <time>2022-06-03T06:12:56Z</time>
      </trkpt>
      <trkpt lat="47.5814150" lon="7.5916160">
        <ele>-167.6</ele>
        <time>2022-06-03T06:13:00Z</time>
      </trkpt>
      <trkpt lat="47.5814150" lon="7.5916160">
        <ele>-167.6</ele>
        <time>2022-06-03T06:13:04Z</time>
      </trkpt>
      <trkpt lat="47.5814150" lon="7.5916160">
        <ele>-167.6</ele>
        <time>2022-06-03T06:13:08Z</time>
      </trkpt>
      <trkpt lat="47.5814150" lon="7.5916160">
        <ele>-167.6</ele>
        <time>2022-06-03T06:13:12Z</time>
      </trkpt>
      <trkpt lat="47.5814150" lon="7.5916160">
        <ele>-167.6</ele>
        <time>2022-06-03T06:13:16Z</time>
      </trkpt>
      <trkpt lat="47.5814150" lon="7.5916160">
        <ele>-167.4</ele>
        <time>2022-06-03T06:13:20Z</time>
      </trkpt>
      <trkpt lat="47.5814150" lon="7.5916160">
        <ele>-167.8</ele>
        <time>2022-06-03T06:13:24Z</time>
      </trkpt>
      <trkpt lat="47.5814150" lon="7.5916160">
        <ele>-167.8</ele>
        <time>2022-06-03T06:13:28Z</time>
      </trkpt>
      <trkpt lat="47.5814150" lon="7.5916160">
        <ele>-167.8</ele>
        <time>2022-06-03T06:13:32Z</time>
      </trkpt>
      <trkpt lat="47.5814150" lon="7.5916160">
        <ele>-167.4</ele>
        <time>2022-06-03T06:13:36Z</time>
      </trkpt>
      <trkpt lat="47.5814150" lon="7.5916160">
        <ele>-168.0</ele>
        <time>2022-06-03T06:13:40Z</time>
      </trkpt>
      <trkpt lat="47.5814150" lon="7.5916160">
        <ele>-167.6</ele>
        <time>2022-06-03T06:13:44Z</time>
      </trkpt>
      <trkpt lat="47.5814150" lon="7.5916160">
        <ele>-167.6</ele>
        <time>2022-06-03T06:13:48Z</time>
      </trkpt>
      <trkpt lat="47.5814150" lon="7.5916160">
        <ele>-167.2</ele>
        <time>2022-06-03T06:13:52Z</time>
      </trkpt>
      <trkpt lat="47.5814150" lon="7.5916160">
        <ele>-167.4</ele>
        <time>2022-06-03T06:13:56Z</time>
      </trkpt>
      <trkpt lat="47.5814150" lon="7.5916160">
        <ele>-167.6</ele>
        <time>2022-06-03T06:14:00Z</time>
      </trkpt>
      <trkpt lat="47.5814150" lon="7.5916160">
        <ele>-167.2</ele>
        <time>2022-06-03T06:14:04Z</time>
      </trkpt>
      <trkpt lat="47.5814150" lon="7.5916160">
        <ele>-167.2</ele>
        <time>2022-06-03T06:14:08Z</time>
      </trkpt>
      <trkpt lat="47.5814150" lon="7.5916160">
        <ele>-167.2</ele>
        <time>2022-06-03T06:14:12Z</time>
      </trkpt>
      <trkpt lat="47.5814150" lon="7.5916160">
        <ele>-167.0</ele>
        <time>2022-06-03T06:14:16Z</time>
      </trkpt>
      <trkpt lat="47.5814150" lon="7.5916160">
        <ele>-167.2</ele>
        <time>2022-06-03T06:14:20Z</time>
      </trkpt>
      <trkpt lat="47.5814150" lon="7.5916160">
        <ele>-167.2</ele>
        <time>2022-06-03T06:14:24Z</time>
      </trkpt>
      <trkpt lat="47.5814150" lon="7.5916160">
        <ele>-167.2</ele>
        <time>2022-06-03T06:14:28Z</time>
      </trkpt>
      <trkpt lat="47.5814150" lon="7.5916160">
        <ele>-167.0</ele>
        <time>2022-06-03T06:14:32Z</time>
      </trkpt>
      <trkpt lat="47.5814150" lon="7.5916160">
        <ele>-166.8</ele>
        <time>2022-06-03T06:14:36Z</time>
      </trkpt>
      <trkpt lat="47.5814100" lon="7.5916530">
        <ele>-167.2</ele>
        <time>2022-06-03T06:14:40Z</time>
      </trkpt>
      <trkpt lat="47.5813650" lon="7.5917200">
        <ele>-167.0</ele>
        <time>2022-06-03T06:14:44Z</time>
      </trkpt>
      <trkpt lat="47.5813180" lon="7.5918310">
        <ele>-166.8</ele>
        <time>2022-06-03T06:14:48Z</time>
      </trkpt>
      <trkpt lat="47.5812460" lon="7.5919630">
        <ele>-166.6</ele>
        <time>2022-06-03T06:14:52Z</time>
      </trkpt>
      <trkpt lat="47.5811660" lon="7.5921250">
        <ele>-167.0</ele>
        <time>2022-06-03T06:14:56Z</time>
      </trkpt>
      <trkpt lat="47.5810900" lon="7.5922980">
        <ele>-166.2</ele>
        <time>2022-06-03T06:15:00Z</time>
      </trkpt>
      <trkpt lat="47.5809980" lon="7.5924410">
        <ele>-166.0</ele>
        <time>2022-06-03T06:15:04Z</time>
      </trkpt>
      <trkpt lat="47.5808910" lon="7.5925660">
        <ele>-165.8</ele>
        <time>2022-06-03T06:15:08Z</time>
      </trkpt>
      <trkpt lat="47.5807860" lon="7.5926660">
        <ele>-165.8</ele>
        <time>2022-06-03T06:15:12Z</time>
      </trkpt>
      <trkpt lat="47.5807010" lon="7.5927400">
        <ele>-165.4</ele>
        <time>2022-06-03T06:15:16Z</time>
      </trkpt>
      <trkpt lat="47.5806880" lon="7.5928750">
        <ele>-165.6</ele>
        <time>2022-06-03T06:15:20Z</time>
      </trkpt>
      <trkpt lat="47.5807780" lon="7.5929900">
        <ele>-165.2</ele>
        <time>2022-06-03T06:15:24Z</time>
      </trkpt>
      <trkpt lat="47.5809130" lon="7.5930550">
        <ele>-165.0</ele>
        <time>2022-06-03T06:15:28Z</time>
      </trkpt>
      <trkpt lat="47.5810580" lon="7.5930830">
        <ele>-165.0</ele>
        <time>2022-06-03T06:15:32Z</time>
      </trkpt>
      <trkpt lat="47.5811760" lon="7.5931180">
        <ele>-165.0</ele>
        <time>2022-06-03T06:15:36Z</time>
      </trkpt>
      <trkpt lat="47.5812260" lon="7.5931410">
        <ele>-165.0</ele>
        <time>2022-06-03T06:15:40Z</time>
      </trkpt>
      <trkpt lat="47.5812260" lon="7.5931410">
        <ele>-164.8</ele>
        <time>2022-06-03T06:15:44Z</time>
      </trkpt>
      <trkpt lat="47.5812260" lon="7.5931410">
        <ele>-165.0</ele>
        <time>2022-06-03T06:15:48Z</time>
      </trkpt>
      <trkpt lat="47.5812260" lon="7.5931410">
        <ele>-164.6</ele>
        <time>2022-06-03T06:15:52Z</time>
      </trkpt>
      <trkpt lat="47.5812260" lon="7.5931410">
        <ele>-164.4</ele>
        <time>2022-06-03T06:15:56Z</time>
      </trkpt>
      <trkpt lat="47.5812260" lon="7.5931410">
        <ele>-164.4</ele>
        <time>2022-06-03T06:16:00Z</time>
      </trkpt>
      <trkpt lat="47.5812260" lon="7.5931410">
        <ele>-164.4</ele>
        <time>2022-06-03T06:16:04Z</time>
      </trkpt>
      <trkpt lat="47.5812510" lon="7.5931580">
        <ele>-164.6</ele>
        <time>2022-06-03T06:16:08Z</time>
      </trkpt>
      <trkpt lat="47.5812510" lon="7.5931580">
        <ele>-164.6</ele>
        <time>2022-06-03T06:16:12Z</time>
      </trkpt>
      <trkpt lat="47.5812730" lon="7.5931630">
        <ele>-164.4</ele>
        <time>2022-06-03T06:16:16Z</time>
      </trkpt>
      <trkpt lat="47.5813450" lon="7.5931900">
        <ele>-164.6</ele>
        <time>2022-06-03T06:16:20Z</time>
      </trkpt>
      <trkpt lat="47.5814660" lon="7.5932260">
        <ele>-165.0</ele>
        <time>2022-06-03T06:16:24Z</time>
      </trkpt>
      <trkpt lat="47.5816250" lon="7.5932930">
        <ele>-164.8</ele>
        <time>2022-06-03T06:16:28Z</time>
      </trkpt>
      <trkpt lat="47.5817550" lon="7.5933760">
        <ele>-164.2</ele>
        <time>2022-06-03T06:16:32Z</time>
      </trkpt>
      <trkpt lat="47.5818980" lon="7.5934600">
        <ele>-164.4</ele>
        <time>2022-06-03T06:16:36Z</time>
      </trkpt>
      <trkpt lat="47.5820410" lon="7.5934710">
        <ele>-164.4</ele>
        <time>2022-06-03T06:16:40Z</time>
      </trkpt>
      <trkpt lat="47.5822230" lon="7.5935530">
        <ele>-164.4</ele>
        <time>2022-06-03T06:16:44Z</time>
      </trkpt>
      <trkpt lat="47.5823900" lon="7.5936230">
        <ele>-164.4</ele>
        <time>2022-06-03T06:16:48Z</time>
      </trkpt>
      <trkpt lat="47.5825380" lon="7.5936650">
        <ele>-163.8</ele>
        <time>2022-06-03T06:16:52Z</time>
      </trkpt>
      <trkpt lat="47.5826860" lon="7.5937080">
        <ele>-163.6</ele>
        <time>2022-06-03T06:16:56Z</time>
      </trkpt>
      <trkpt lat="47.5828200" lon="7.5937550">
        <ele>-164.0</ele>
        <time>2022-06-03T06:17:00Z</time>
      </trkpt>
      <trkpt lat="47.5829800" lon="7.5937930">
        <ele>-164.0</ele>
        <time>2022-06-03T06:17:04Z</time>
      </trkpt>
      <trkpt lat="47.5831300" lon="7.5938210">
        <ele>-163.6</ele>
        <time>2022-06-03T06:17:08Z</time>
      </trkpt>
      <trkpt lat="47.5832480" lon="7.5938430">
        <ele>-163.2</ele>
        <time>2022-06-03T06:17:12Z</time>
      </trkpt>
      <trkpt lat="47.5834030" lon="7.5938580">
        <ele>-163.4</ele>
        <time>2022-06-03T06:17:16Z</time>
      </trkpt>
      <trkpt lat="47.5835350" lon="7.5938700">
        <ele>-163.8</ele>
        <time>2022-06-03T06:17:20Z</time>
      </trkpt>
      <trkpt lat="47.5837080" lon="7.5938730">
        <ele>-163.2</ele>
        <time>2022-06-03T06:17:24Z</time>
      </trkpt>
      <trkpt lat="47.5839050" lon="7.5938910">
        <ele>-163.4</ele>
        <time>2022-06-03T06:17:28Z</time>
      </trkpt>
      <trkpt lat="47.5840750" lon="7.5938900">
        <ele>-163.2</ele>
        <time>2022-06-03T06:17:32Z</time>
      </trkpt>
      <trkpt lat="47.5842560" lon="7.5938630">
        <ele>-163.4</ele>
        <time>2022-06-03T06:17:36Z</time>
      </trkpt>
      <trkpt lat="47.5844730" lon="7.5938350">
        <ele>-163.2</ele>
        <time>2022-06-03T06:17:40Z</time>
      </trkpt>
      <trkpt lat="47.5846700" lon="7.5937880">
        <ele>-163.2</ele>
        <time>2022-06-03T06:17:44Z</time>
      </trkpt>
      <trkpt lat="47.5848260" lon="7.5937480">
        <ele>-163.0</ele>
        <time>2022-06-03T06:17:48Z</time>
      </trkpt>
      <trkpt lat="47.5849880" lon="7.5937050">
        <ele>-163.4</ele>
        <time>2022-06-03T06:17:52Z</time>
      </trkpt>
      <trkpt lat="47.5851530" lon="7.5936350">
        <ele>-162.6</ele>
        <time>2022-06-03T06:17:56Z</time>
      </trkpt>
      <trkpt lat="47.5853080" lon="7.5935580">
        <ele>-161.6</ele>
        <time>2022-06-03T06:18:00Z</time>
      </trkpt>
      <trkpt lat="47.5854730" lon="7.5934750">
        <ele>-162.0</ele>
        <time>2022-06-03T06:18:04Z</time>
      </trkpt>
      <trkpt lat="47.5856210" lon="7.5933780">
        <ele>-161.2</ele>
        <time>2022-06-03T06:18:08Z</time>
      </trkpt>
      <trkpt lat="47.5857660" lon="7.5932860">
        <ele>-159.8</ele>
        <time>2022-06-03T06:18:12Z</time>
      </trkpt>
      <trkpt lat="47.5859310" lon="7.5931960">
        <ele>-159.2</ele>
        <time>2022-06-03T06:18:16Z</time>
      </trkpt>
      <trkpt lat="47.5860780" lon="7.5931200">
        <ele>-158.4</ele>
        <time>2022-06-03T06:18:20Z</time>
      </trkpt>
      <trkpt lat="47.5862210" lon="7.5930400">
        <ele>-157.6</ele>
        <time>2022-06-03T06:18:24Z</time>
      </trkpt>
      <trkpt lat="47.5863510" lon="7.5929650">
        <ele>-156.8</ele>
        <time>2022-06-03T06:18:28Z</time>
      </trkpt>
      <trkpt lat="47.5864980" lon="7.5928910">
        <ele>-156.0</ele>
        <time>2022-06-03T06:18:32Z</time>
      </trkpt>
      <trkpt lat="47.5866430" lon="7.5928230">
        <ele>-156.0</ele>
        <time>2022-06-03T06:18:36Z</time>
      </trkpt>
      <trkpt lat="47.5867930" lon="7.5927660">
        <ele>-155.6</ele>
        <time>2022-06-03T06:18:40Z</time>
      </trkpt>
      <trkpt lat="47.5869460" lon="7.5927160">
        <ele>-155.2</ele>
        <time>2022-06-03T06:18:44Z</time>
      </trkpt>
      <trkpt lat="47.5871010" lon="7.5926780">
        <ele>-154.6</ele>
        <time>2022-06-03T06:18:48Z</time>
      </trkpt>
      <trkpt lat="47.5872430" lon="7.5926510">
        <ele>-154.8</ele>
        <time>2022-06-03T06:18:52Z</time>
      </trkpt>
      <trkpt lat="47.5873900" lon="7.5926460">
        <ele>-154.8</ele>
        <time>2022-06-03T06:18:56Z</time>
      </trkpt>
      <trkpt lat="47.5875500" lon="7.5926510">
        <ele>-155.2</ele>
        <time>2022-06-03T06:19:00Z</time>
      </trkpt>
      <trkpt lat="47.5877700" lon="7.5926760">
        <ele>-156.4</ele>
        <time>2022-06-03T06:19:04Z</time>
      </trkpt>
      <trkpt lat="47.5880330" lon="7.5927460">
        <ele>-159.4</ele>
        <time>2022-06-03T06:19:08Z</time>
      </trkpt>
      <trkpt lat="47.5882810" lon="7.5928510">
        <ele>-161.4</ele>
        <time>2022-06-03T06:19:12Z</time>
      </trkpt>
      <trkpt lat="47.5885360" lon="7.5930480">
        <ele>-164.4</ele>
        <time>2022-06-03T06:19:16Z</time>
      </trkpt>
      <trkpt lat="47.5887950" lon="7.5933130">
        <ele>-164.4</ele>
        <time>2022-06-03T06:19:20Z</time>
      </trkpt>
      <trkpt lat="47.5890360" lon="7.5934450">
        <ele>-164.2</ele>
        <time>2022-06-03T06:19:24Z</time>
      </trkpt>
      <trkpt lat="47.5892480" lon="7.5935330">
        <ele>-164.2</ele>
        <time>2022-06-03T06:19:28Z</time>
      </trkpt>
      <trkpt lat="47.5894260" lon="7.5935680">
        <ele>-164.2</ele>
        <time>2022-06-03T06:19:32Z</time>
      </trkpt>
      <trkpt lat="47.5895710" lon="7.5935560">
        <ele>-164.4</ele>
        <time>2022-06-03T06:19:36Z</time>
      </trkpt>
      <trkpt lat="47.5897330" lon="7.5935810">
        <ele>-164.2</ele>
        <time>2022-06-03T06:19:40Z</time>
      </trkpt>
      <trkpt lat="47.5899000" lon="7.5936480">
        <ele>-164.4</ele>
        <time>2022-06-03T06:19:44Z</time>
      </trkpt>
      <trkpt lat="47.5900760" lon="7.5937230">
        <ele>-164.4</ele>
        <time>2022-06-03T06:19:48Z</time>
      </trkpt>
      <trkpt lat="47.5902530" lon="7.5937880">
        <ele>-164.0</ele>
        <time>2022-06-03T06:19:52Z</time>
      </trkpt>
      <trkpt lat="47.5904230" lon="7.5938450">
        <ele>-163.8</ele>
        <time>2022-06-03T06:19:56Z</time>
      </trkpt>
      <trkpt lat="47.5905960" lon="7.5939010">
        <ele>-164.0</ele>
        <time>2022-06-03T06:20:00Z</time>
      </trkpt>
      <trkpt lat="47.5907780" lon="7.5939780">
        <ele>-164.8</ele>
        <time>2022-06-03T06:20:04Z</time>
      </trkpt>
      <trkpt lat="47.5909630" lon="7.5940900">
        <ele>-164.2</ele>
        <time>2022-06-03T06:20:08Z</time>
      </trkpt>
      <trkpt lat="47.5910900" lon="7.5939910">
        <ele>-163.8</ele>
        <time>2022-06-03T06:20:12Z</time>
      </trkpt>
      <trkpt lat="47.5910950" lon="7.5937350">
        <ele>-164.4</ele>
        <time>2022-06-03T06:20:16Z</time>
      </trkpt>
      <trkpt lat="47.5911110" lon="7.5934680">
        <ele>-164.6</ele>
        <time>2022-06-03T06:20:20Z</time>
      </trkpt>
      <trkpt lat="47.5911010" lon="7.5932230">
        <ele>-164.0</ele>
        <time>2022-06-03T06:20:24Z</time>
      </trkpt>
      <trkpt lat="47.5911400" lon="7.5930000">
        <ele>-164.0</ele>
        <time>2022-06-03T06:20:28Z</time>
      </trkpt>
      <trkpt lat="47.5911950" lon="7.5928330">
        <ele>-164.0</ele>
        <time>2022-06-03T06:20:32Z</time>
      </trkpt>
      <trkpt lat="47.5912380" lon="7.5926380">
        <ele>-163.6</ele>
        <time>2022-06-03T06:20:36Z</time>
      </trkpt>
      <trkpt lat="47.5912780" lon="7.5924130">
        <ele>-163.2</ele>
        <time>2022-06-03T06:20:40Z</time>
      </trkpt>
      <trkpt lat="47.5913030" lon="7.5922080">
        <ele>-162.6</ele>
        <time>2022-06-03T06:20:44Z</time>
      </trkpt>
      <trkpt lat="47.5913260" lon="7.5920150">
        <ele>-161.8</ele>
        <time>2022-06-03T06:20:48Z</time>
      </trkpt>
      <trkpt lat="47.5913500" lon="7.5918280">
        <ele>-161.0</ele>
        <time>2022-06-03T06:20:52Z</time>
      </trkpt>
      <trkpt lat="47.5913660" lon="7.5916600">
        <ele>-160.2</ele>
        <time>2022-06-03T06:20:56Z</time>
      </trkpt>
      <trkpt lat="47.5913860" lon="7.5914830">
        <ele>-159.2</ele>
        <time>2022-06-03T06:21:00Z</time>
      </trkpt>
      <trkpt lat="47.5914100" lon="7.5912950">
        <ele>-158.6</ele>
        <time>2022-06-03T06:21:04Z</time>
      </trkpt>
      <trkpt lat="47.5914350" lon="7.5911050">
        <ele>-158.0</ele>
        <time>2022-06-03T06:21:08Z</time>
      </trkpt>
      <trkpt lat="47.5914530" lon="7.5909160">
        <ele>-157.2</ele>
        <time>2022-06-03T06:21:12Z</time>
      </trkpt>
      <trkpt lat="47.5914750" lon="7.5907280">
        <ele>-156.8</ele>
        <time>2022-06-03T06:21:16Z</time>
      </trkpt>
      <trkpt lat="47.5914930" lon="7.5905330">
        <ele>-156.6</ele>
        <time>2022-06-03T06:21:20Z</time>
      </trkpt>
      <trkpt lat="47.5915110" lon="7.5903310">
        <ele>-156.4</ele>
        <time>2022-06-03T06:21:24Z</time>
      </trkpt>
      <trkpt lat="47.5915350" lon="7.5901280">
        <ele>-156.2</ele>
        <time>2022-06-03T06:21:28Z</time>
      </trkpt>
      <trkpt lat="47.5915660" lon="7.5899200">
        <ele>-156.4</ele>
        <time>2022-06-03T06:21:32Z</time>
      </trkpt>
      <trkpt lat="47.5915930" lon="7.5897150">
        <ele>-156.6</ele>
        <time>2022-06-03T06:21:36Z</time>
      </trkpt>
      <trkpt lat="47.5916210" lon="7.5895050">
        <ele>-156.6</ele>
        <time>2022-06-03T06:21:40Z</time>
      </trkpt>
      <trkpt lat="47.5916500" lon="7.5892910">
        <ele>-156.8</ele>
        <time>2022-06-03T06:21:44Z</time>
      </trkpt>
      <trkpt lat="47.5916750" lon="7.5890600">
        <ele>-157.0</ele>
        <time>2022-06-03T06:21:48Z</time>
      </trkpt>
      <trkpt lat="47.5917000" lon="7.5888000">
        <ele>-157.8</ele>
        <time>2022-06-03T06:21:52Z</time>
      </trkpt>
      <trkpt lat="47.5917300" lon="7.5885800">
        <ele>-158.4</ele>
        <time>2022-06-03T06:21:56Z</time>
      </trkpt>
      <trkpt lat="47.5917580" lon="7.5884050">
        <ele>-159.2</ele>
        <time>2022-06-03T06:22:00Z</time>
      </trkpt>
      <trkpt lat="47.5917730" lon="7.5882280">
        <ele>-160.4</ele>
        <time>2022-06-03T06:22:04Z</time>
      </trkpt>
      <trkpt lat="47.5917880" lon="7.5880680">
        <ele>-161.6</ele>
        <time>2022-06-03T06:22:08Z</time>
      </trkpt>
      <trkpt lat="47.5918280" lon="7.5880180">
        <ele>-161.8</ele>
        <time>2022-06-03T06:22:12Z</time>
      </trkpt>
      <trkpt lat="47.5918150" lon="7.5881360">
        <ele>-163.2</ele>
        <time>2022-06-03T06:22:16Z</time>
      </trkpt>
      <trkpt lat="47.5918010" lon="7.5882530">
        <ele>-163.4</ele>
        <time>2022-06-03T06:22:20Z</time>
      </trkpt>
      <trkpt lat="47.5917230" lon="7.5881300">
        <ele>-163.2</ele>
        <time>2022-06-03T06:22:24Z</time>
      </trkpt>
      <trkpt lat="47.5917300" lon="7.5879460">
        <ele>-164.0</ele>
        <time>2022-06-03T06:22:28Z</time>
      </trkpt>
      <trkpt lat="47.5917350" lon="7.5878400">
        <ele>-163.8</ele>
        <time>2022-06-03T06:22:32Z</time>
      </trkpt>
      <trkpt lat="47.5916650" lon="7.5878550">
        <ele>-163.6</ele>
        <time>2022-06-03T06:22:36Z</time>
      </trkpt>
      <trkpt lat="47.5915530" lon="7.5878580">
        <ele>-163.8</ele>
        <time>2022-06-03T06:22:40Z</time>
      </trkpt>
      <trkpt lat="47.5914300" lon="7.5878350">
        <ele>-163.8</ele>
        <time>2022-06-03T06:22:44Z</time>
      </trkpt>
      <trkpt lat="47.5913010" lon="7.5878130">
        <ele>-164.0</ele>
        <time>2022-06-03T06:22:48Z</time>
      </trkpt>
      <trkpt lat="47.5911630" lon="7.5877800">
        <ele>-163.8</ele>
        <time>2022-06-03T06:22:52Z</time>
      </trkpt>
      <trkpt lat="47.5910100" lon="7.5877450">
        <ele>-164.4</ele>
        <time>2022-06-03T06:22:56Z</time>
      </trkpt>
      <trkpt lat="47.5908650" lon="7.5877100">
        <ele>-164.4</ele>
        <time>2022-06-03T06:23:00Z</time>
      </trkpt>
      <trkpt lat="47.5907200" lon="7.5876700">
        <ele>-164.2</ele>
        <time>2022-06-03T06:23:04Z</time>
      </trkpt>
      <trkpt lat="47.5905800" lon="7.5876360">
        <ele>-164.4</ele>
        <time>2022-06-03T06:23:08Z</time>
      </trkpt>
      <trkpt lat="47.5904410" lon="7.5876050">
        <ele>-164.4</ele>
        <time>2022-06-03T06:23:12Z</time>
      </trkpt>
      <trkpt lat="47.5903060" lon="7.5875710">
        <ele>-164.6</ele>
        <time>2022-06-03T06:23:16Z</time>
      </trkpt>
      <trkpt lat="47.5901730" lon="7.5875400">
        <ele>-164.4</ele>
        <time>2022-06-03T06:23:20Z</time>
      </trkpt>
      <trkpt lat="47.5900330" lon="7.5875010">
        <ele>-164.8</ele>
        <time>2022-06-03T06:23:24Z</time>
      </trkpt>
      <trkpt lat="47.5898930" lon="7.5874650">
        <ele>-164.6</ele>
        <time>2022-06-03T06:23:28Z</time>
      </trkpt>
      <trkpt lat="47.5897530" lon="7.5874250">
        <ele>-164.6</ele>
        <time>2022-06-03T06:23:32Z</time>
      </trkpt>
      <trkpt lat="47.5896130" lon="7.5873950">
        <ele>-164.6</ele>
        <time>2022-06-03T06:23:36Z</time>
      </trkpt>
      <trkpt lat="47.5894750" lon="7.5873580">
        <ele>-164.6</ele>
        <time>2022-06-03T06:23:40Z</time>
      </trkpt>
      <trkpt lat="47.5893410" lon="7.5873130">
        <ele>-164.8</ele>
        <time>2022-06-03T06:23:44Z</time>
      </trkpt>
      <trkpt lat="47.5892230" lon="7.5872210">
        <ele>-164.0</ele>
        <time>2022-06-03T06:23:48Z</time>
      </trkpt>
      <trkpt lat="47.5891200" lon="7.5871330">
        <ele>-163.2</ele>
        <time>2022-06-03T06:23:52Z</time>
      </trkpt>
      <trkpt lat="47.5890550" lon="7.5870350">
        <ele>-163.2</ele>
        <time>2022-06-03T06:23:56Z</time>
      </trkpt>
      <trkpt lat="47.5889580" lon="7.5869460">
        <ele>-162.8</ele>
        <time>2022-06-03T06:24:00Z</time>
      </trkpt>
      <trkpt lat="47.5888410" lon="7.5868630">
        <ele>-162.6</ele>
        <time>2022-06-03T06:24:04Z</time>
      </trkpt>
      <trkpt lat="47.5887160" lon="7.5867950">
        <ele>-162.8</ele>
        <time>2022-06-03T06:24:08Z</time>
      </trkpt>
      <trkpt lat="47.5886080" lon="7.5867380">
        <ele>-163.2</ele>
        <time>2022-06-03T06:24:12Z</time>
      </trkpt>
      <trkpt lat="47.5884810" lon="7.5866600">
        <ele>-162.8</ele>
        <time>2022-06-03T06:24:16Z</time>
      </trkpt>
      <trkpt lat="47.5883360" lon="7.5865760">
        <ele>-162.6</ele>
        <time>2022-06-03T06:24:20Z</time>
      </trkpt>
      <trkpt lat="47.5882050" lon="7.5864910">
        <ele>-163.0</ele>
        <time>2022-06-03T06:24:24Z</time>
      </trkpt>
      <trkpt lat="47.5880730" lon="7.5864060">
        <ele>-162.8</ele>
        <time>2022-06-03T06:24:28Z</time>
      </trkpt>
      <trkpt lat="47.5879450" lon="7.5863200">
        <ele>-162.6</ele>
        <time>2022-06-03T06:24:32Z</time>
      </trkpt>
      <trkpt lat="47.5878480" lon="7.5861810">
        <ele>-162.6</ele>
        <time>2022-06-03T06:24:36Z</time>
      </trkpt>
      <trkpt lat="47.5878680" lon="7.5860230">
        <ele>-162.8</ele>
        <time>2022-06-03T06:24:40Z</time>
      </trkpt>
      <trkpt lat="47.5879360" lon="7.5858660">
        <ele>-162.6</ele>
        <time>2022-06-03T06:24:44Z</time>
      </trkpt>
      <trkpt lat="47.5880160" lon="7.5856910">
        <ele>-162.4</ele>
        <time>2022-06-03T06:24:48Z</time>
      </trkpt>
      <trkpt lat="47.5880250" lon="7.5855360">
        <ele>-162.6</ele>
        <time>2022-06-03T06:24:52Z</time>
      </trkpt>
      <trkpt lat="47.5879460" lon="7.5854350">
        <ele>-162.6</ele>
        <time>2022-06-03T06:24:56Z</time>
      </trkpt>
      <trkpt lat="47.5878350" lon="7.5853250">
        <ele>-162.8</ele>
        <time>2022-06-03T06:25:00Z</time>
      </trkpt>
      <trkpt lat="47.5878450" lon="7.5851430">
        <ele>-164.0</ele>
        <time>2022-06-03T06:25:04Z</time>
      </trkpt>
      <trkpt lat="47.5879680" lon="7.5849130">
        <ele>-164.8</ele>
        <time>2022-06-03T06:25:08Z</time>
      </trkpt>
      <trkpt lat="47.5881080" lon="7.5846780">
        <ele>-165.6</ele>
        <time>2022-06-03T06:25:12Z</time>
      </trkpt>
      <trkpt lat="47.5881830" lon="7.5844500">
        <ele>-165.2</ele>
        <time>2022-06-03T06:25:16Z</time>
      </trkpt>
      <trkpt lat="47.5882580" lon="7.5842930">
        <ele>-165.2</ele>
        <time>2022-06-03T06:25:20Z</time>
      </trkpt>
      <trkpt lat="47.5883430" lon="7.5841150">
        <ele>-164.6</ele>
        <time>2022-06-03T06:25:24Z</time>
      </trkpt>
      <trkpt lat="47.5884150" lon="7.5839700">
        <ele>-163.8</ele>
        <time>2022-06-03T06:25:28Z</time>
      </trkpt>
      <trkpt lat="47.5884710" lon="7.5838330">
        <ele>-163.8</ele>
        <time>2022-06-03T06:25:32Z</time>
      </trkpt>
      <trkpt lat="47.5885480" lon="7.5837310">
        <ele>-164.2</ele>
        <time>2022-06-03T06:25:36Z</time>
      </trkpt>
      <trkpt lat="47.5886180" lon="7.5836080">
        <ele>-164.4</ele>
        <time>2022-06-03T06:25:40Z</time>
      </trkpt>
      <trkpt lat="47.5887080" lon="7.5834680">
        <ele>-164.8</ele>
        <time>2022-06-03T06:25:44Z</time>
      </trkpt>
      <trkpt lat="47.5888060" lon="7.5832910">
        <ele>-165.2</ele>
        <time>2022-06-03T06:25:48Z</time>
      </trkpt>
      <trkpt lat="47.5888930" lon="7.5831430">
        <ele>-164.8</ele>
        <time>2022-06-03T06:25:52Z</time>
      </trkpt>
      <trkpt lat="47.5889480" lon="7.5830200">
        <ele>-164.8</ele>
        <time>2022-06-03T06:25:56Z</time>
      </trkpt>
      <trkpt lat="47.5890450" lon="7.5828680">
        <ele>-165.6</ele>
        <time>2022-06-03T06:26:00Z</time>
      </trkpt>
      <trkpt lat="47.5891600" lon="7.5826880">
        <ele>-166.8</ele>
        <time>2022-06-03T06:26:04Z</time>
      </trkpt>
      <trkpt lat="47.5892860" lon="7.5824510">
        <ele>-168.0</ele>
        <time>2022-06-03T06:26:08Z</time>
      </trkpt>
      <trkpt lat="47.5894480" lon="7.5821750">
        <ele>-169.0</ele>
        <time>2022-06-03T06:26:12Z</time>
      </trkpt>
      <trkpt lat="47.5895960" lon="7.5819080">
        <ele>-167.0</ele>
        <time>2022-06-03T06:26:16Z</time>
      </trkpt>
      <trkpt lat="47.5896730" lon="7.5816910">
        <ele>-166.6</ele>
        <time>2022-06-03T06:26:20Z</time>
      </trkpt>
      <trkpt lat="47.5897630" lon="7.5815710">
        <ele>-165.6</ele>
        <time>2022-06-03T06:26:24Z</time>
      </trkpt>
      <trkpt lat="47.5898250" lon="7.5814500">
        <ele>-165.4</ele>
        <time>2022-06-03T06:26:28Z</time>
      </trkpt>
      <trkpt lat="47.5898980" lon="7.5813250">
        <ele>-165.4</ele>
        <time>2022-06-03T06:26:32Z</time>
      </trkpt>
      <trkpt lat="47.5899850" lon="7.5811930">
        <ele>-165.6</ele>
        <time>2022-06-03T06:26:36Z</time>
      </trkpt>
      <trkpt lat="47.5900530" lon="7.5810730">
        <ele>-165.2</ele>
        <time>2022-06-03T06:26:40Z</time>
      </trkpt>
      <trkpt lat="47.5901280" lon="7.5809700">
        <ele>-165.8</ele>
        <time>2022-06-03T06:26:44Z</time>
      </trkpt>
      <trkpt lat="47.5901980" lon="7.5807930">
        <ele>-166.2</ele>
        <time>2022-06-03T06:26:48Z</time>
      </trkpt>
      <trkpt lat="47.5903060" lon="7.5805860">
        <ele>-166.6</ele>
        <time>2022-06-03T06:26:52Z</time>
      </trkpt>
      <trkpt lat="47.5904660" lon="7.5803850">
        <ele>-168.6</ele>
        <time>2022-06-03T06:26:56Z</time>
      </trkpt>
      <trkpt lat="47.5906230" lon="7.5801650">
        <ele>-168.6</ele>
        <time>2022-06-03T06:27:00Z</time>
      </trkpt>
      <trkpt lat="47.5907630" lon="7.5799610">
        <ele>-168.4</ele>
        <time>2022-06-03T06:27:04Z</time>
      </trkpt>
      <trkpt lat="47.5908860" lon="7.5797760">
        <ele>-168.4</ele>
        <time>2022-06-03T06:27:08Z</time>
      </trkpt>
      <trkpt lat="47.5910360" lon="7.5796360">
        <ele>-167.6</ele>
        <time>2022-06-03T06:27:12Z</time>
      </trkpt>
      <trkpt lat="47.5911680" lon="7.5795100">
        <ele>-168.0</ele>
        <time>2022-06-03T06:27:16Z</time>
      </trkpt>
      <trkpt lat="47.5912960" lon="7.5794110">
        <ele>-167.6</ele>
        <time>2022-06-03T06:27:20Z</time>
      </trkpt>
      <trkpt lat="47.5914210" lon="7.5792960">
        <ele>-166.4</ele>
        <time>2022-06-03T06:27:24Z</time>
      </trkpt>
      <trkpt lat="47.5915400" lon="7.5791950">
        <ele>-167.4</ele>
        <time>2022-06-03T06:27:28Z</time>
      </trkpt>
      <trkpt lat="47.5917160" lon="7.5790330">
        <ele>-169.8</ele>
        <time>2022-06-03T06:27:32Z</time>
      </trkpt>
      <trkpt lat="47.5918750" lon="7.5787930">
        <ele>-169.8</ele>
        <time>2022-06-03T06:27:36Z</time>
      </trkpt>
      <trkpt lat="47.5920380" lon="7.5785730">
        <ele>-169.8</ele>
        <time>2022-06-03T06:27:40Z</time>
      </trkpt>
      <trkpt lat="47.5921750" lon="7.5783810">
        <ele>-169.2</ele>
        <time>2022-06-03T06:27:44Z</time>
      </trkpt>
      <trkpt lat="47.5923000" lon="7.5781900">
        <ele>-168.6</ele>
        <time>2022-06-03T06:27:48Z</time>
      </trkpt>
      <trkpt lat="47.5924310" lon="7.5780100">
        <ele>-169.2</ele>
        <time>2022-06-03T06:27:52Z</time>
      </trkpt>
      <trkpt lat="47.5925600" lon="7.5778250">
        <ele>-169.4</ele>
        <time>2022-06-03T06:27:56Z</time>
      </trkpt>
      <trkpt lat="47.5927030" lon="7.5776550">
        <ele>-169.6</ele>
        <time>2022-06-03T06:28:00Z</time>
      </trkpt>
      <trkpt lat="47.5928500" lon="7.5774960">
        <ele>-169.4</ele>
        <time>2022-06-03T06:28:04Z</time>
      </trkpt>
      <trkpt lat="47.5929560" lon="7.5772810">
        <ele>-169.2</ele>
        <time>2022-06-03T06:28:08Z</time>
      </trkpt>
      <trkpt lat="47.5930710" lon="7.5770950">
        <ele>-169.2</ele>
        <time>2022-06-03T06:28:12Z</time>
      </trkpt>
      <trkpt lat="47.5931930" lon="7.5769080">
        <ele>-168.8</ele>
        <time>2022-06-03T06:28:16Z</time>
      </trkpt>
      <trkpt lat="47.5933150" lon="7.5767380">
        <ele>-168.6</ele>
        <time>2022-06-03T06:28:20Z</time>
      </trkpt>
      <trkpt lat="47.5934310" lon="7.5765750">
        <ele>-168.6</ele>
        <time>2022-06-03T06:28:24Z</time>
      </trkpt>
      <trkpt lat="47.5935460" lon="7.5764150">
        <ele>-168.2</ele>
        <time>2022-06-03T06:28:28Z</time>
      </trkpt>
      <trkpt lat="47.5936580" lon="7.5762480">
        <ele>-168.2</ele>
        <time>2022-06-03T06:28:32Z</time>
      </trkpt>
      <trkpt lat="47.5937630" lon="7.5760910">
        <ele>-168.2</ele>
        <time>2022-06-03T06:28:36Z</time>
      </trkpt>
      <trkpt lat="47.5938610" lon="7.5759460">
        <ele>-168.2</ele>
        <time>2022-06-03T06:28:40Z</time>
      </trkpt>
      <trkpt lat="47.5939680" lon="7.5757900">
        <ele>-168.0</ele>
        <time>2022-06-03T06:28:44Z</time>
      </trkpt>
      <trkpt lat="47.5940680" lon="7.5756460">
        <ele>-167.4</ele>
        <time>2022-06-03T06:28:48Z</time>
      </trkpt>
      <trkpt lat="47.5941650" lon="7.5755100">
        <ele>-167.2</ele>
        <time>2022-06-03T06:28:52Z</time>
      </trkpt>
      <trkpt lat="47.5942610" lon="7.5753660">
        <ele>-166.8</ele>
        <time>2022-06-03T06:28:56Z</time>
      </trkpt>
      <trkpt lat="47.5943500" lon="7.5752260">
        <ele>-166.8</ele>
        <time>2022-06-03T06:29:00Z</time>
      </trkpt>
      <trkpt lat="47.5944380" lon="7.5750900">
        <ele>-166.6</ele>
        <time>2022-06-03T06:29:04Z</time>
      </trkpt>
      <trkpt lat="47.5945330" lon="7.5749560">
        <ele>-166.2</ele>
        <time>2022-06-03T06:29:08Z</time>
      </trkpt>
      <trkpt lat="47.5946280" lon="7.5748350">
        <ele>-166.8</ele>
        <time>2022-06-03T06:29:12Z</time>
      </trkpt>
      <trkpt lat="47.5947310" lon="7.5746680">
        <ele>-167.0</ele>
        <time>2022-06-03T06:29:16Z</time>
      </trkpt>
      <trkpt lat="47.5948380" lon="7.5745130">
        <ele>-166.8</ele>
        <time>2022-06-03T06:29:20Z</time>
      </trkpt>
      <trkpt lat="47.5949480" lon="7.5743600">
        <ele>-166.4</ele>
        <time>2022-06-03T06:29:24Z</time>
      </trkpt>
      <trkpt lat="47.5950600" lon="7.5742030">
        <ele>-166.6</ele>
        <time>2022-06-03T06:29:28Z</time>
      </trkpt>
      <trkpt lat="47.5951750" lon="7.5740410">
        <ele>-166.8</ele>
        <time>2022-06-03T06:29:32Z</time>
      </trkpt>
      <trkpt lat="47.5952910" lon="7.5738760">
        <ele>-166.8</ele>
        <time>2022-06-03T06:29:36Z</time>
      </trkpt>
      <trkpt lat="47.5954080" lon="7.5737160">
        <ele>-167.4</ele>
        <time>2022-06-03T06:29:40Z</time>
      </trkpt>
      <trkpt lat="47.5955180" lon="7.5735630">
        <ele>-167.4</ele>
        <time>2022-06-03T06:29:44Z</time>
      </trkpt>
      <trkpt lat="47.5956380" lon="7.5734050">
        <ele>-167.4</ele>
        <time>2022-06-03T06:29:48Z</time>
      </trkpt>
      <trkpt lat="47.5957550" lon="7.5732380">
        <ele>-167.8</ele>
        <time>2022-06-03T06:29:52Z</time>
      </trkpt>
      <trkpt lat="47.5958700" lon="7.5730710">
        <ele>-167.2</ele>
        <time>2022-06-03T06:29:56Z</time>
      </trkpt>
      <trkpt lat="47.5959900" lon="7.5729080">
        <ele>-167.6</ele>
        <time>2022-06-03T06:30:00Z</time>
      </trkpt>
      <trkpt lat="47.5961100" lon="7.5727450">
        <ele>-167.8</ele>
        <time>2022-06-03T06:30:04Z</time>
      </trkpt>
      <trkpt lat="47.5962210" lon="7.5725780">
        <ele>-167.6</ele>
        <time>2022-06-03T06:30:08Z</time>
      </trkpt>
      <trkpt lat="47.5963360" lon="7.5724210">
        <ele>-168.0</ele>
        <time>2022-06-03T06:30:12Z</time>
      </trkpt>
      <trkpt lat="47.5964550" lon="7.5722630">
        <ele>-167.8</ele>
        <time>2022-06-03T06:30:16Z</time>
      </trkpt>
      <trkpt lat="47.5965700" lon="7.5720960">
        <ele>-168.2</ele>
        <time>2022-06-03T06:30:20Z</time>
      </trkpt>
      <trkpt lat="47.5966910" lon="7.5719400">
        <ele>-168.0</ele>
        <time>2022-06-03T06:30:24Z</time>
      </trkpt>
      <trkpt lat="47.5968130" lon="7.5717730">
        <ele>-168.2</ele>
        <time>2022-06-03T06:30:28Z</time>
      </trkpt>
      <trkpt lat="47.5969280" lon="7.5716150">
        <ele>-168.4</ele>
        <time>2022-06-03T06:30:32Z</time>
      </trkpt>
      <trkpt lat="47.5970560" lon="7.5714550">
        <ele>-168.0</ele>
        <time>2022-06-03T06:30:36Z</time>
      </trkpt>
      <trkpt lat="47.5971750" lon="7.5712780">
        <ele>-168.2</ele>
        <time>2022-06-03T06:30:40Z</time>
      </trkpt>
      <trkpt lat="47.5972910" lon="7.5711050">
        <ele>-168.4</ele>
        <time>2022-06-03T06:30:44Z</time>
      </trkpt>
      <trkpt lat="47.5973900" lon="7.5709380">
        <ele>-168.0</ele>
        <time>2022-06-03T06:30:48Z</time>
      </trkpt>
      <trkpt lat="47.5974910" lon="7.5707860">
        <ele>-168.2</ele>
        <time>2022-06-03T06:30:52Z</time>
      </trkpt>
      <trkpt lat="47.5976100" lon="7.5706210">
        <ele>-169.8</ele>
        <time>2022-06-03T06:30:56Z</time>
      </trkpt>
      <trkpt lat="47.5977610" lon="7.5704500">
        <ele>-170.6</ele>
        <time>2022-06-03T06:31:00Z</time>
      </trkpt>
      <trkpt lat="47.5979400" lon="7.5703330">
        <ele>-170.2</ele>
        <time>2022-06-03T06:31:04Z</time>
      </trkpt>
      <trkpt lat="47.5980350" lon="7.5700610">
        <ele>-169.8</ele>
        <time>2022-06-03T06:31:08Z</time>
      </trkpt>
      <trkpt lat="47.5981460" lon="7.5698860">
        <ele>-168.8</ele>
        <time>2022-06-03T06:31:12Z</time>
      </trkpt>
      <trkpt lat="47.5982800" lon="7.5697280">
        <ele>-168.2</ele>
        <time>2022-06-03T06:31:16Z</time>
      </trkpt>
      <trkpt lat="47.5983750" lon="7.5695900">
        <ele>-168.4</ele>
        <time>2022-06-03T06:31:20Z</time>
      </trkpt>
      <trkpt lat="47.5984610" lon="7.5694380">
        <ele>-168.2</ele>
        <time>2022-06-03T06:31:24Z</time>
      </trkpt>
      <trkpt lat="47.5985610" lon="7.5692810">
        <ele>-167.8</ele>
        <time>2022-06-03T06:31:28Z</time>
      </trkpt>
      <trkpt lat="47.5987030" lon="7.5691100">
        <ele>-168.2</ele>
        <time>2022-06-03T06:31:32Z</time>
      </trkpt>
      <trkpt lat="47.5988100" lon="7.5689360">
        <ele>-168.0</ele>
        <time>2022-06-03T06:31:36Z</time>
      </trkpt>
      <trkpt lat="47.5989200" lon="7.5687860">
        <ele>-168.0</ele>
        <time>2022-06-03T06:31:40Z</time>
      </trkpt>
      <trkpt lat="47.5990260" lon="7.5686300">
        <ele>-167.8</ele>
        <time>2022-06-03T06:31:44Z</time>
      </trkpt>
      <trkpt lat="47.5991400" lon="7.5684660">
        <ele>-167.8</ele>
        <time>2022-06-03T06:31:48Z</time>
      </trkpt>
      <trkpt lat="47.5992530" lon="7.5683100">
        <ele>-168.0</ele>
        <time>2022-06-03T06:31:52Z</time>
      </trkpt>
      <trkpt lat="47.5993760" lon="7.5681160">
        <ele>-168.2</ele>
        <time>2022-06-03T06:31:56Z</time>
      </trkpt>
      <trkpt lat="47.5995180" lon="7.5679230">
        <ele>-168.2</ele>
        <time>2022-06-03T06:32:00Z</time>
      </trkpt>
      <trkpt lat="47.5996510" lon="7.5677280">
        <ele>-167.8</ele>
        <time>2022-06-03T06:32:04Z</time>
      </trkpt>
      <trkpt lat="47.5997900" lon="7.5675500">
        <ele>-167.8</ele>
        <time>2022-06-03T06:32:08Z</time>
      </trkpt>
      <trkpt lat="47.5999010" lon="7.5673950">
        <ele>-168.2</ele>
        <time>2022-06-03T06:32:12Z</time>
      </trkpt>
      <trkpt lat="47.6000260" lon="7.5672260">
        <ele>-167.8</ele>
        <time>2022-06-03T06:32:16Z</time>
      </trkpt>
      <trkpt lat="47.6001530" lon="7.5670500">
        <ele>-167.4</ele>
        <time>2022-06-03T06:32:20Z</time>
      </trkpt>
      <trkpt lat="47.6002880" lon="7.5668750">
        <ele>-168.0</ele>
        <time>2022-06-03T06:32:24Z</time>
      </trkpt>
      <trkpt lat="47.6004080" lon="7.5666950">
        <ele>-167.2</ele>
        <time>2022-06-03T06:32:28Z</time>
      </trkpt>
      <trkpt lat="47.6005380" lon="7.5665200">
        <ele>-167.2</ele>
        <time>2022-06-03T06:32:32Z</time>
      </trkpt>
      <trkpt lat="47.6006580" lon="7.5663300">
        <ele>-167.0</ele>
        <time>2022-06-03T06:32:36Z</time>
      </trkpt>
      <trkpt lat="47.6007960" lon="7.5661480">
        <ele>-166.6</ele>
        <time>2022-06-03T06:32:40Z</time>
      </trkpt>
      <trkpt lat="47.6009200" lon="7.5659680">
        <ele>-167.0</ele>
        <time>2022-06-03T06:32:44Z</time>
      </trkpt>
      <trkpt lat="47.6010500" lon="7.5657960">
        <ele>-167.0</ele>
        <time>2022-06-03T06:32:48Z</time>
      </trkpt>
      <trkpt lat="47.6011810" lon="7.5656210">
        <ele>-166.8</ele>
        <time>2022-06-03T06:32:52Z</time>
      </trkpt>
      <trkpt lat="47.6013110" lon="7.5654250">
        <ele>-166.8</ele>
        <time>2022-06-03T06:32:56Z</time>
      </trkpt>
      <trkpt lat="47.6014530" lon="7.5652400">
        <ele>-166.4</ele>
        <time>2022-06-03T06:33:00Z</time>
      </trkpt>
      <trkpt lat="47.6015880" lon="7.5650530">
        <ele>-166.4</ele>
        <time>2022-06-03T06:33:04Z</time>
      </trkpt>
      <trkpt lat="47.6017180" lon="7.5648700">
        <ele>-166.8</ele>
        <time>2022-06-03T06:33:08Z</time>
      </trkpt>
      <trkpt lat="47.6018510" lon="7.5646830">
        <ele>-166.8</ele>
        <time>2022-06-03T06:33:12Z</time>
      </trkpt>
      <trkpt lat="47.6019880" lon="7.5645050">
        <ele>-166.2</ele>
        <time>2022-06-03T06:33:16Z</time>
      </trkpt>
      <trkpt lat="47.6021210" lon="7.5643160">
        <ele>-166.4</ele>
        <time>2022-06-03T06:33:20Z</time>
      </trkpt>
      <trkpt lat="47.6022550" lon="7.5641250">
        <ele>-165.6</ele>
        <time>2022-06-03T06:33:24Z</time>
      </trkpt>
      <trkpt lat="47.6023810" lon="7.5639410">
        <ele>-165.6</ele>
        <time>2022-06-03T06:33:28Z</time>
      </trkpt>
      <trkpt lat="47.6024980" lon="7.5637610">
        <ele>-165.6</ele>
        <time>2022-06-03T06:33:32Z</time>
      </trkpt>
      <trkpt lat="47.6026330" lon="7.5635860">
        <ele>-165.6</ele>
        <time>2022-06-03T06:33:36Z</time>
      </trkpt>
      <trkpt lat="47.6027630" lon="7.5634060">
        <ele>-165.6</ele>
        <time>2022-06-03T06:33:40Z</time>
      </trkpt>
      <trkpt lat="47.6028950" lon="7.5632080">
        <ele>-165.4</ele>
        <time>2022-06-03T06:33:44Z</time>
      </trkpt>
      <trkpt lat="47.6030410" lon="7.5630150">
        <ele>-166.2</ele>
        <time>2022-06-03T06:33:48Z</time>
      </trkpt>
      <trkpt lat="47.6031780" lon="7.5628180">
        <ele>-165.4</ele>
        <time>2022-06-03T06:33:52Z</time>
      </trkpt>
      <trkpt lat="47.6033110" lon="7.5626280">
        <ele>-165.2</ele>
        <time>2022-06-03T06:33:56Z</time>
      </trkpt>
      <trkpt lat="47.6034410" lon="7.5624530">
        <ele>-165.0</ele>
        <time>2022-06-03T06:34:00Z</time>
      </trkpt>
      <trkpt lat="47.6035800" lon="7.5622860">
        <ele>-165.4</ele>
        <time>2022-06-03T06:34:04Z</time>
      </trkpt>
      <trkpt lat="47.6037230" lon="7.5621200">
        <ele>-165.4</ele>
        <time>2022-06-03T06:34:08Z</time>
      </trkpt>
      <trkpt lat="47.6038730" lon="7.5619360">
        <ele>-166.6</ele>
        <time>2022-06-03T06:34:12Z</time>
      </trkpt>
      <trkpt lat="47.6040260" lon="7.5617760">
        <ele>-167.0</ele>
        <time>2022-06-03T06:34:16Z</time>
      </trkpt>
      <trkpt lat="47.6041750" lon="7.5616630">
        <ele>-167.4</ele>
        <time>2022-06-03T06:34:20Z</time>
      </trkpt>
      <trkpt lat="47.6043010" lon="7.5614300">
        <ele>-166.6</ele>
        <time>2022-06-03T06:34:24Z</time>
      </trkpt>
      <trkpt lat="47.6044160" lon="7.5612160">
        <ele>-166.2</ele>
        <time>2022-06-03T06:34:28Z</time>
      </trkpt>
      <trkpt lat="47.6045410" lon="7.5610580">
        <ele>-165.2</ele>
        <time>2022-06-03T06:34:32Z</time>
      </trkpt>
      <trkpt lat="47.6047110" lon="7.5608760">
        <ele>-164.6</ele>
        <time>2022-06-03T06:34:36Z</time>
      </trkpt>
      <trkpt lat="47.6048630" lon="7.5607200">
        <ele>-164.4</ele>
        <time>2022-06-03T06:34:40Z</time>
      </trkpt>
      <trkpt lat="47.6050100" lon="7.5605700">
        <ele>-164.4</ele>
        <time>2022-06-03T06:34:44Z</time>
      </trkpt>
      <trkpt lat="47.6051660" lon="7.5604180">
        <ele>-164.4</ele>
        <time>2022-06-03T06:34:48Z</time>
      </trkpt>
      <trkpt lat="47.6053250" lon="7.5602530">
        <ele>-164.4</ele>
        <time>2022-06-03T06:34:52Z</time>
      </trkpt>
      <trkpt lat="47.6054830" lon="7.5601000">
        <ele>-165.0</ele>
        <time>2022-06-03T06:34:56Z</time>
      </trkpt>
      <trkpt lat="47.6056430" lon="7.5599460">
        <ele>-165.2</ele>
        <time>2022-06-03T06:35:00Z</time>
      </trkpt>
      <trkpt lat="47.6058010" lon="7.5597930">
        <ele>-164.6</ele>
        <time>2022-06-03T06:35:04Z</time>
      </trkpt>
      <trkpt lat="47.6059550" lon="7.5596460">
        <ele>-164.4</ele>
        <time>2022-06-03T06:35:08Z</time>
      </trkpt>
      <trkpt lat="47.6061060" lon="7.5595050">
        <ele>-164.4</ele>
        <time>2022-06-03T06:35:12Z</time>
      </trkpt>
      <trkpt lat="47.6062650" lon="7.5593460">
        <ele>-165.0</ele>
        <time>2022-06-03T06:35:16Z</time>
      </trkpt>
      <trkpt lat="47.6064310" lon="7.5591760">
        <ele>-164.8</ele>
        <time>2022-06-03T06:35:20Z</time>
      </trkpt>
      <trkpt lat="47.6065910" lon="7.5590100">
        <ele>-165.0</ele>
        <time>2022-06-03T06:35:24Z</time>
      </trkpt>
      <trkpt lat="47.6067550" lon="7.5588510">
        <ele>-164.6</ele>
        <time>2022-06-03T06:35:28Z</time>
      </trkpt>
      <trkpt lat="47.6069110" lon="7.5586930">
        <ele>-164.8</ele>
        <time>2022-06-03T06:35:32Z</time>
      </trkpt>
      <trkpt lat="47.6070710" lon="7.5585450">
        <ele>-164.6</ele>
        <time>2022-06-03T06:35:36Z</time>
      </trkpt>
      <trkpt lat="47.6072330" lon="7.5583900">
        <ele>-164.8</ele>
        <time>2022-06-03T06:35:40Z</time>
      </trkpt>
      <trkpt lat="47.6073900" lon="7.5582350">
        <ele>-165.0</ele>
        <time>2022-06-03T06:35:44Z</time>
      </trkpt>
      <trkpt lat="47.6075310" lon="7.5580760">
        <ele>-164.4</ele>
        <time>2022-06-03T06:35:48Z</time>
      </trkpt>
      <trkpt lat="47.6076780" lon="7.5579380">
        <ele>-165.2</ele>
        <time>2022-06-03T06:35:52Z</time>
      </trkpt>
      <trkpt lat="47.6078250" lon="7.5577950">
        <ele>-165.0</ele>
        <time>2022-06-03T06:35:56Z</time>
      </trkpt>
      <trkpt lat="47.6079600" lon="7.5576610">
        <ele>-164.4</ele>
        <time>2022-06-03T06:36:00Z</time>
      </trkpt>
      <trkpt lat="47.6081080" lon="7.5575080">
        <ele>-164.2</ele>
        <time>2022-06-03T06:36:04Z</time>
      </trkpt>
      <trkpt lat="47.6082660" lon="7.5573550">
        <ele>-164.2</ele>
        <time>2022-06-03T06:36:08Z</time>
      </trkpt>
      <trkpt lat="47.6084210" lon="7.5572100">
        <ele>-164.4</ele>
        <time>2022-06-03T06:36:12Z</time>
      </trkpt>
      <trkpt lat="47.6085750" lon="7.5570630">
        <ele>-164.0</ele>
        <time>2022-06-03T06:36:16Z</time>
      </trkpt>
      <trkpt lat="47.6087280" lon="7.5569130">
        <ele>-164.2</ele>
        <time>2022-06-03T06:36:20Z</time>
      </trkpt>
      <trkpt lat="47.6088800" lon="7.5567550">
        <ele>-164.0</ele>
        <time>2022-06-03T06:36:24Z</time>
      </trkpt>
      <trkpt lat="47.6090260" lon="7.5566150">
        <ele>-165.0</ele>
        <time>2022-06-03T06:36:28Z</time>
      </trkpt>
      <trkpt lat="47.6091860" lon="7.5564410">
        <ele>-165.0</ele>
        <time>2022-06-03T06:36:32Z</time>
      </trkpt>
      <trkpt lat="47.6093580" lon="7.5562810">
        <ele>-164.8</ele>
        <time>2022-06-03T06:36:36Z</time>
      </trkpt>
      <trkpt lat="47.6094830" lon="7.5561350">
        <ele>-164.6</ele>
        <time>2022-06-03T06:36:40Z</time>
      </trkpt>
      <trkpt lat="47.6096550" lon="7.5559800">
        <ele>-164.6</ele>
        <time>2022-06-03T06:36:44Z</time>
      </trkpt>
      <trkpt lat="47.6098300" lon="7.5558150">
        <ele>-164.0</ele>
        <time>2022-06-03T06:36:48Z</time>
      </trkpt>
      <trkpt lat="47.6099930" lon="7.5556610">
        <ele>-164.2</ele>
        <time>2022-06-03T06:36:52Z</time>
      </trkpt>
      <trkpt lat="47.6101450" lon="7.5555150">
        <ele>-164.4</ele>
        <time>2022-06-03T06:36:56Z</time>
      </trkpt>
      <trkpt lat="47.6102660" lon="7.5553750">
        <ele>-164.2</ele>
        <time>2022-06-03T06:37:00Z</time>
      </trkpt>
      <trkpt lat="47.6104280" lon="7.5552210">
        <ele>-165.0</ele>
        <time>2022-06-03T06:37:04Z</time>
      </trkpt>
      <trkpt lat="47.6105830" lon="7.5550760">
        <ele>-164.4</ele>
        <time>2022-06-03T06:37:08Z</time>
      </trkpt>
      <trkpt lat="47.6107380" lon="7.5549280">
        <ele>-164.8</ele>
        <time>2022-06-03T06:37:12Z</time>
      </trkpt>
      <trkpt lat="47.6109010" lon="7.5547680">
        <ele>-164.4</ele>
        <time>2022-06-03T06:37:16Z</time>
      </trkpt>
      <trkpt lat="47.6110560" lon="7.5546150">
        <ele>-164.2</ele>
        <time>2022-06-03T06:37:20Z</time>
      </trkpt>
      <trkpt lat="47.6112060" lon="7.5544680">
        <ele>-165.0</ele>
        <time>2022-06-03T06:37:24Z</time>
      </trkpt>
      <trkpt lat="47.6113560" lon="7.5543160">
        <ele>-164.4</ele>
        <time>2022-06-03T06:37:28Z</time>
      </trkpt>
      <trkpt lat="47.6115100" lon="7.5541650">
        <ele>-164.6</ele>
        <time>2022-06-03T06:37:32Z</time>
      </trkpt>
      <trkpt lat="47.6116560" lon="7.5540210">
        <ele>-164.6</ele>
        <time>2022-06-03T06:37:36Z</time>
      </trkpt>
      <trkpt lat="47.6118210" lon="7.5538680">
        <ele>-164.0</ele>
        <time>2022-06-03T06:37:40Z</time>
      </trkpt>
      <trkpt lat="47.6119750" lon="7.5537160">
        <ele>-165.0</ele>
        <time>2022-06-03T06:37:44Z</time>
      </trkpt>
      <trkpt lat="47.6121300" lon="7.5535700">
        <ele>-165.0</ele>
        <time>2022-06-03T06:37:48Z</time>
      </trkpt>
      <trkpt lat="47.6122830" lon="7.5534200">
        <ele>-164.8</ele>
        <time>2022-06-03T06:37:52Z</time>
      </trkpt>
      <trkpt lat="47.6124300" lon="7.5532800">
        <ele>-164.4</ele>
        <time>2022-06-03T06:37:56Z</time>
      </trkpt>
      <trkpt lat="47.6125750" lon="7.5531360">
        <ele>-165.0</ele>
        <time>2022-06-03T06:38:00Z</time>
      </trkpt>
      <trkpt lat="47.6127200" lon="7.5529980">
        <ele>-164.2</ele>
        <time>2022-06-03T06:38:04Z</time>
      </trkpt>
      <trkpt lat="47.6128560" lon="7.5528530">
        <ele>-165.0</ele>
        <time>2022-06-03T06:38:08Z</time>
      </trkpt>
      <trkpt lat="47.6130050" lon="7.5527060">
        <ele>-165.0</ele>
        <time>2022-06-03T06:38:12Z</time>
      </trkpt>
      <trkpt lat="47.6131530" lon="7.5525610">
        <ele>-164.6</ele>
        <time>2022-06-03T06:38:16Z</time>
      </trkpt>
      <trkpt lat="47.6132950" lon="7.5524280">
        <ele>-164.6</ele>
        <time>2022-06-03T06:38:20Z</time>
      </trkpt>
      <trkpt lat="47.6134180" lon="7.5522880">
        <ele>-165.0</ele>
        <time>2022-06-03T06:38:24Z</time>
      </trkpt>
      <trkpt lat="47.6135430" lon="7.5521530">
        <ele>-164.8</ele>
        <time>2022-06-03T06:38:28Z</time>
      </trkpt>
      <trkpt lat="47.6136760" lon="7.5520230">
        <ele>-164.8</ele>
        <time>2022-06-03T06:38:32Z</time>
      </trkpt>
      <trkpt lat="47.6138130" lon="7.5518910">
        <ele>-164.8</ele>
        <time>2022-06-03T06:38:36Z</time>
      </trkpt>
      <trkpt lat="47.6139580" lon="7.5517610">
        <ele>-165.4</ele>
        <time>2022-06-03T06:38:40Z</time>
      </trkpt>
      <trkpt lat="47.6140910" lon="7.5516250">
        <ele>-165.0</ele>
        <time>2022-06-03T06:38:44Z</time>
      </trkpt>
      <trkpt lat="47.6142260" lon="7.5514880">
        <ele>-165.0</ele>
        <time>2022-06-03T06:38:48Z</time>
      </trkpt>
      <trkpt lat="47.6143530" lon="7.5513680">
        <ele>-164.8</ele>
        <time>2022-06-03T06:38:52Z</time>
      </trkpt>
      <trkpt lat="47.6144950" lon="7.5512200">
        <ele>-164.8</ele>
        <time>2022-06-03T06:38:56Z</time>
      </trkpt>
      <trkpt lat="47.6146330" lon="7.5510730">
        <ele>-164.4</ele>
        <time>2022-06-03T06:39:00Z</time>
      </trkpt>
      <trkpt lat="47.6148080" lon="7.5508960">
        <ele>-164.4</ele>
        <time>2022-06-03T06:39:04Z</time>
      </trkpt>
      <trkpt lat="47.6149600" lon="7.5507660">
        <ele>-165.2</ele>
        <time>2022-06-03T06:39:08Z</time>
      </trkpt>
      <trkpt lat="47.6150900" lon="7.5506330">
        <ele>-165.0</ele>
        <time>2022-06-03T06:39:12Z</time>
      </trkpt>
      <trkpt lat="47.6152110" lon="7.5505000">
        <ele>-164.8</ele>
        <time>2022-06-03T06:39:16Z</time>
      </trkpt>
      <trkpt lat="47.6153410" lon="7.5503710">
        <ele>-165.0</ele>
        <time>2022-06-03T06:39:20Z</time>
      </trkpt>
      <trkpt lat="47.6154780" lon="7.5502350">
        <ele>-165.0</ele>
        <time>2022-06-03T06:39:24Z</time>
      </trkpt>
      <trkpt lat="47.6156310" lon="7.5500810">
        <ele>-165.0</ele>
        <time>2022-06-03T06:39:28Z</time>
      </trkpt>
      <trkpt lat="47.6157760" lon="7.5499360">
        <ele>-165.2</ele>
        <time>2022-06-03T06:39:32Z</time>
      </trkpt>
      <trkpt lat="47.6159430" lon="7.5497860">
        <ele>-164.8</ele>
        <time>2022-06-03T06:39:36Z</time>
      </trkpt>
      <trkpt lat="47.6160930" lon="7.5496400">
        <ele>-164.8</ele>
        <time>2022-06-03T06:39:40Z</time>
      </trkpt>
      <trkpt lat="47.6162650" lon="7.5494880">
        <ele>-165.2</ele>
        <time>2022-06-03T06:39:44Z</time>
      </trkpt>
      <trkpt lat="47.6164100" lon="7.5493430">
        <ele>-165.0</ele>
        <time>2022-06-03T06:39:48Z</time>
      </trkpt>
      <trkpt lat="47.6165460" lon="7.5492060">
        <ele>-165.6</ele>
        <time>2022-06-03T06:39:52Z</time>
      </trkpt>
      <trkpt lat="47.6166950" lon="7.5490550">
        <ele>-165.6</ele>
        <time>2022-06-03T06:39:56Z</time>
      </trkpt>
      <trkpt lat="47.6168400" lon="7.5489130">
        <ele>-165.2</ele>
        <time>2022-06-03T06:40:00Z</time>
      </trkpt>
      <trkpt lat="47.6169860" lon="7.5487760">
        <ele>-165.0</ele>
        <time>2022-06-03T06:40:04Z</time>
      </trkpt>
      <trkpt lat="47.6171230" lon="7.5486410">
        <ele>-164.6</ele>
        <time>2022-06-03T06:40:08Z</time>
      </trkpt>
      <trkpt lat="47.6172750" lon="7.5485100">
        <ele>-165.0</ele>
        <time>2022-06-03T06:40:12Z</time>
      </trkpt>
      <trkpt lat="47.6174080" lon="7.5483730">
        <ele>-165.0</ele>
        <time>2022-06-03T06:40:16Z</time>
      </trkpt>
      <trkpt lat="47.6175430" lon="7.5482360">
        <ele>-164.8</ele>
        <time>2022-06-03T06:40:20Z</time>
      </trkpt>
      <trkpt lat="47.6177010" lon="7.5480880">
        <ele>-165.0</ele>
        <time>2022-06-03T06:40:24Z</time>
      </trkpt>
      <trkpt lat="47.6178450" lon="7.5479480">
        <ele>-165.2</ele>
        <time>2022-06-03T06:40:28Z</time>
      </trkpt>
      <trkpt lat="47.6179880" lon="7.5478030">
        <ele>-164.6</ele>
        <time>2022-06-03T06:40:32Z</time>
      </trkpt>
      <trkpt lat="47.6181230" lon="7.5476660">
        <ele>-164.8</ele>
        <time>2022-06-03T06:40:36Z</time>
      </trkpt>
      <trkpt lat="47.6182600" lon="7.5475280">
        <ele>-165.2</ele>
        <time>2022-06-03T06:40:40Z</time>
      </trkpt>
      <trkpt lat="47.6184230" lon="7.5473710">
        <ele>-165.2</ele>
        <time>2022-06-03T06:40:44Z</time>
      </trkpt>
      <trkpt lat="47.6185710" lon="7.5472280">
        <ele>-165.6</ele>
        <time>2022-06-03T06:40:48Z</time>
      </trkpt>
      <trkpt lat="47.6187150" lon="7.5470950">
        <ele>-165.4</ele>
        <time>2022-06-03T06:40:52Z</time>
      </trkpt>
      <trkpt lat="47.6188600" lon="7.5469580">
        <ele>-165.6</ele>
        <time>2022-06-03T06:40:56Z</time>
      </trkpt>
      <trkpt lat="47.6189960" lon="7.5468200">
        <ele>-165.0</ele>
        <time>2022-06-03T06:41:00Z</time>
      </trkpt>
      <trkpt lat="47.6191160" lon="7.5467000">
        <ele>-166.4</ele>
        <time>2022-06-03T06:41:04Z</time>
      </trkpt>
      <trkpt lat="47.6192680" lon="7.5465850">
        <ele>-166.2</ele>
        <time>2022-06-03T06:41:08Z</time>
      </trkpt>
      <trkpt lat="47.6194330" lon="7.5464700">
        <ele>-165.8</ele>
        <time>2022-06-03T06:41:12Z</time>
      </trkpt>
      <trkpt lat="47.6195850" lon="7.5463450">
        <ele>-166.2</ele>
        <time>2022-06-03T06:41:16Z</time>
      </trkpt>
      <trkpt lat="47.6197300" lon="7.5462310">
        <ele>-165.6</ele>
        <time>2022-06-03T06:41:20Z</time>
      </trkpt>
      <trkpt lat="47.6198610" lon="7.5460880">
        <ele>-165.8</ele>
        <time>2022-06-03T06:41:24Z</time>
      </trkpt>
      <trkpt lat="47.6199960" lon="7.5459560">
        <ele>-166.4</ele>
        <time>2022-06-03T06:41:28Z</time>
      </trkpt>
      <trkpt lat="47.6200960" lon="7.5458560">
        <ele>-165.6</ele>
        <time>2022-06-03T06:41:32Z</time>
      </trkpt>
      <trkpt lat="47.6202000" lon="7.5457450">
        <ele>-165.8</ele>
        <time>2022-06-03T06:41:36Z</time>
      </trkpt>
      <trkpt lat="47.6203050" lon="7.5456230">
        <ele>-166.2</ele>
        <time>2022-06-03T06:41:40Z</time>
      </trkpt>
      <trkpt lat="47.6203950" lon="7.5455050">
        <ele>-166.0</ele>
        <time>2022-06-03T06:41:44Z</time>
      </trkpt>
      <trkpt lat="47.6205030" lon="7.5453850">
        <ele>-166.0</ele>
        <time>2022-06-03T06:41:48Z</time>
      </trkpt>
      <trkpt lat="47.6205810" lon="7.5452360">
        <ele>-166.4</ele>
        <time>2022-06-03T06:41:52Z</time>
      </trkpt>
      <trkpt lat="47.6206980" lon="7.5451510">
        <ele>-166.2</ele>
        <time>2022-06-03T06:41:56Z</time>
      </trkpt>
      <trkpt lat="47.6207850" lon="7.5450780">
        <ele>-166.4</ele>
        <time>2022-06-03T06:42:00Z</time>
      </trkpt>
      <trkpt lat="47.6207580" lon="7.5451200">
        <ele>-166.2</ele>
        <time>2022-06-03T06:42:04Z</time>
      </trkpt>
      <trkpt lat="47.6206960" lon="7.5451710">
        <ele>-166.8</ele>
        <time>2022-06-03T06:42:08Z</time>
      </trkpt>
      <trkpt lat="47.6206580" lon="7.5451830">
        <ele>-166.8</ele>
        <time>2022-06-03T06:42:12Z</time>
      </trkpt>
      <trkpt lat="47.6206580" lon="7.5451830">
        <ele>-166.2</ele>
        <time>2022-06-03T06:42:16Z</time>
      </trkpt>
      <trkpt lat="47.6206580" lon="7.5451830">
        <ele>-166.4</ele>
        <time>2022-06-03T06:42:20Z</time>
      </trkpt>
      <trkpt lat="47.6206580" lon="7.5451830">
        <ele>-166.6</ele>
        <time>2022-06-03T06:42:24Z</time>
      </trkpt>
      <trkpt lat="47.6206580" lon="7.5451830">
        <ele>-166.6</ele>
        <time>2022-06-03T06:42:28Z</time>
      </trkpt>
      <trkpt lat="47.6206580" lon="7.5451830">
        <ele>-166.4</ele>
        <time>2022-06-03T06:42:32Z</time>
      </trkpt>
      <trkpt lat="47.6206580" lon="7.5451830">
        <ele>-166.6</ele>
        <time>2022-06-03T06:42:36Z</time>
      </trkpt>
      <trkpt lat="47.6206580" lon="7.5451830">
        <ele>-166.2</ele>
        <time>2022-06-03T06:42:40Z</time>
      </trkpt>
      <trkpt lat="47.6206580" lon="7.5451830">
        <ele>-167.0</ele>
        <time>2022-06-03T06:42:44Z</time>
      </trkpt>
      <trkpt lat="47.6206580" lon="7.5451830">
        <ele>-166.8</ele>
        <time>2022-06-03T06:42:48Z</time>
      </trkpt>
      <trkpt lat="47.6206580" lon="7.5451830">
        <ele>-166.2</ele>
        <time>2022-06-03T06:42:52Z</time>
      </trkpt>
      <trkpt lat="47.6206750" lon="7.5451560">
        <ele>-166.6</ele>
        <time>2022-06-03T06:42:56Z</time>
      </trkpt>
      <trkpt lat="47.6206750" lon="7.5451560">
        <ele>-166.6</ele>
        <time>2022-06-03T06:43:00Z</time>
      </trkpt>
      <trkpt lat="47.6206750" lon="7.5451560">
        <ele>-166.6</ele>
        <time>2022-06-03T06:43:04Z</time>
      </trkpt>
      <trkpt lat="47.6206750" lon="7.5451560">
        <ele>-166.8</ele>
        <time>2022-06-03T06:43:08Z</time>
      </trkpt>
      <trkpt lat="47.6206750" lon="7.5451560">
        <ele>-166.8</ele>
        <time>2022-06-03T06:43:12Z</time>
      </trkpt>
      <trkpt lat="47.6206750" lon="7.5451560">
        <ele>-166.6</ele>
        <time>2022-06-03T06:43:16Z</time>
      </trkpt>
      <trkpt lat="47.6206750" lon="7.5451560">
        <ele>-166.6</ele>
        <time>2022-06-03T06:43:20Z</time>
      </trkpt>
      <trkpt lat="47.6206750" lon="7.5451560">
        <ele>-167.2</ele>
        <time>2022-06-03T06:43:24Z</time>
      </trkpt>
      <trkpt lat="47.6206750" lon="7.5451560">
        <ele>-166.8</ele>
        <time>2022-06-03T06:43:28Z</time>
      </trkpt>
      <trkpt lat="47.6206750" lon="7.5451560">
        <ele>-166.8</ele>
        <time>2022-06-03T06:43:32Z</time>
      </trkpt>
      <trkpt lat="47.6206750" lon="7.5451560">
        <ele>-167.0</ele>
        <time>2022-06-03T06:43:36Z</time>
      </trkpt>
      <trkpt lat="47.6206750" lon="7.5451560">
        <ele>-166.8</ele>
        <time>2022-06-03T06:43:40Z</time>
      </trkpt>
      <trkpt lat="47.6206750" lon="7.5451560">
        <ele>-167.4</ele>
        <time>2022-06-03T06:43:44Z</time>
      </trkpt>
      <trkpt lat="47.6206910" lon="7.5451850">
        <ele>-167.2</ele>
        <time>2022-06-03T06:43:48Z</time>
      </trkpt>
      <trkpt lat="47.6207310" lon="7.5451480">
        <ele>-167.4</ele>
        <time>2022-06-03T06:43:52Z</time>
      </trkpt>
      <trkpt lat="47.6208030" lon="7.5450700">
        <ele>-167.4</ele>
        <time>2022-06-03T06:43:56Z</time>
      </trkpt>
      <trkpt lat="47.6209150" lon="7.5449710">
        <ele>-167.0</ele>
        <time>2022-06-03T06:44:00Z</time>
      </trkpt>
      <trkpt lat="47.6210360" lon="7.5448480">
        <ele>-167.6</ele>
        <time>2022-06-03T06:44:04Z</time>
      </trkpt>
      <trkpt lat="47.6211750" lon="7.5447130">
        <ele>-167.6</ele>
        <time>2022-06-03T06:44:08Z</time>
      </trkpt>
      <trkpt lat="47.6213180" lon="7.5445760">
        <ele>-168.2</ele>
        <time>2022-06-03T06:44:12Z</time>
      </trkpt>
      <trkpt lat="47.6214610" lon="7.5444380">
        <ele>-167.8</ele>
        <time>2022-06-03T06:44:16Z</time>
      </trkpt>
      <trkpt lat="47.6215980" lon="7.5443050">
        <ele>-168.0</ele>
        <time>2022-06-03T06:44:20Z</time>
      </trkpt>
      <trkpt lat="47.6217260" lon="7.5441830">
        <ele>-168.6</ele>
        <time>2022-06-03T06:44:24Z</time>
      </trkpt>
      <trkpt lat="47.6218600" lon="7.5440560">
        <ele>-168.8</ele>
        <time>2022-06-03T06:44:28Z</time>
      </trkpt>
      <trkpt lat="47.6219880" lon="7.5439250">
        <ele>-168.8</ele>
        <time>2022-06-03T06:44:32Z</time>
      </trkpt>
      <trkpt lat="47.6221150" lon="7.5437910">
        <ele>-168.8</ele>
        <time>2022-06-03T06:44:36Z</time>
      </trkpt>
      <trkpt lat="47.6222360" lon="7.5436600">
        <ele>-168.4</ele>
        <time>2022-06-03T06:44:40Z</time>
      </trkpt>
      <trkpt lat="47.6223680" lon="7.5435330">
        <ele>-168.8</ele>
        <time>2022-06-03T06:44:44Z</time>
      </trkpt>
      <trkpt lat="47.6225000" lon="7.5434130">
        <ele>-169.0</ele>
        <time>2022-06-03T06:44:48Z</time>
      </trkpt>
      <trkpt lat="47.6226280" lon="7.5432880">
        <ele>-168.8</ele>
        <time>2022-06-03T06:44:52Z</time>
      </trkpt>
      <trkpt lat="47.6227680" lon="7.5431630">
        <ele>-168.6</ele>
        <time>2022-06-03T06:44:56Z</time>
      </trkpt>
      <trkpt lat="47.6229060" lon="7.5430280">
        <ele>-169.0</ele>
        <time>2022-06-03T06:45:00Z</time>
      </trkpt>
      <trkpt lat="47.6230410" lon="7.5428950">
        <ele>-168.8</ele>
        <time>2022-06-03T06:45:04Z</time>
      </trkpt>
      <trkpt lat="47.6231650" lon="7.5427660">
        <ele>-169.6</ele>
        <time>2022-06-03T06:45:08Z</time>
      </trkpt>
      <trkpt lat="47.6232800" lon="7.5426330">
        <ele>-169.0</ele>
        <time>2022-06-03T06:45:12Z</time>
      </trkpt>
      <trkpt lat="47.6234150" lon="7.5425050">
        <ele>-169.4</ele>
        <time>2022-06-03T06:45:16Z</time>
      </trkpt>
      <trkpt lat="47.6235560" lon="7.5423700">
        <ele>-169.6</ele>
        <time>2022-06-03T06:45:20Z</time>
      </trkpt>
      <trkpt lat="47.6237000" lon="7.5422280">
        <ele>-169.2</ele>
        <time>2022-06-03T06:45:24Z</time>
      </trkpt>
      <trkpt lat="47.6238410" lon="7.5420880">
        <ele>-169.2</ele>
        <time>2022-06-03T06:45:28Z</time>
      </trkpt>
      <trkpt lat="47.6239880" lon="7.5419480">
        <ele>-169.4</ele>
        <time>2022-06-03T06:45:32Z</time>
      </trkpt>
      <trkpt lat="47.6241250" lon="7.5418180">
        <ele>-169.6</ele>
        <time>2022-06-03T06:45:36Z</time>
      </trkpt>
      <trkpt lat="47.6242580" lon="7.5416830">
        <ele>-169.8</ele>
        <time>2022-06-03T06:45:40Z</time>
      </trkpt>
      <trkpt lat="47.6243880" lon="7.5415500">
        <ele>-169.4</ele>
        <time>2022-06-03T06:45:44Z</time>
      </trkpt>
      <trkpt lat="47.6245230" lon="7.5414160">
        <ele>-169.8</ele>
        <time>2022-06-03T06:45:48Z</time>
      </trkpt>
      <trkpt lat="47.6246530" lon="7.5412810">
        <ele>-169.8</ele>
        <time>2022-06-03T06:45:52Z</time>
      </trkpt>
      <trkpt lat="47.6247810" lon="7.5411580">
        <ele>-170.2</ele>
        <time>2022-06-03T06:45:56Z</time>
      </trkpt>
      <trkpt lat="47.6249100" lon="7.5410250">
        <ele>-170.2</ele>
        <time>2022-06-03T06:46:00Z</time>
      </trkpt>
      <trkpt lat="47.6250450" lon="7.5408950">
        <ele>-170.6</ele>
        <time>2022-06-03T06:46:04Z</time>
      </trkpt>
      <trkpt lat="47.6251660" lon="7.5407510">
        <ele>-170.2</ele>
        <time>2022-06-03T06:46:08Z</time>
      </trkpt>
      <trkpt lat="47.6253000" lon="7.5406200">
        <ele>-170.4</ele>
        <time>2022-06-03T06:46:12Z</time>
      </trkpt>
      <trkpt lat="47.6254260" lon="7.5404830">
        <ele>-170.6</ele>
        <time>2022-06-03T06:46:16Z</time>
      </trkpt>
      <trkpt lat="47.6255960" lon="7.5403510">
        <ele>-170.4</ele>
        <time>2022-06-03T06:46:20Z</time>
      </trkpt>
      <trkpt lat="47.6257230" lon="7.5402030">
        <ele>-170.2</ele>
        <time>2022-06-03T06:46:24Z</time>
      </trkpt>
      <trkpt lat="47.6258580" lon="7.5400610">
        <ele>-170.4</ele>
        <time>2022-06-03T06:46:28Z</time>
      </trkpt>
      <trkpt lat="47.6260150" lon="7.5399200">
        <ele>-169.8</ele>
        <time>2022-06-03T06:46:32Z</time>
      </trkpt>
      <trkpt lat="47.6261800" lon="7.5397780">
        <ele>-169.8</ele>
        <time>2022-06-03T06:46:36Z</time>
      </trkpt>
      <trkpt lat="47.6263130" lon="7.5396400">
        <ele>-170.2</ele>
        <time>2022-06-03T06:46:40Z</time>
      </trkpt>
      <trkpt lat="47.6264650" lon="7.5395050">
        <ele>-170.4</ele>
        <time>2022-06-03T06:46:44Z</time>
      </trkpt>
      <trkpt lat="47.6266000" lon="7.5393710">
        <ele>-169.8</ele>
        <time>2022-06-03T06:46:48Z</time>
      </trkpt>
      <trkpt lat="47.6267360" lon="7.5392450">
        <ele>-171.0</ele>
        <time>2022-06-03T06:46:52Z</time>
      </trkpt>
      <trkpt lat="47.6268550" lon="7.5391130">
        <ele>-171.0</ele>
        <time>2022-06-03T06:46:56Z</time>
      </trkpt>
      <trkpt lat="47.6269780" lon="7.5389850">
        <ele>-170.4</ele>
        <time>2022-06-03T06:47:00Z</time>
      </trkpt>
      <trkpt lat="47.6271210" lon="7.5388480">
        <ele>-171.0</ele>
        <time>2022-06-03T06:47:04Z</time>
      </trkpt>
      <trkpt lat="47.6272650" lon="7.5387200">
        <ele>-170.6</ele>
        <time>2022-06-03T06:47:08Z</time>
      </trkpt>
      <trkpt lat="47.6273930" lon="7.5385780">
        <ele>-170.4</ele>
        <time>2022-06-03T06:47:12Z</time>
      </trkpt>
      <trkpt lat="47.6275310" lon="7.5384380">
        <ele>-171.0</ele>
        <time>2022-06-03T06:47:16Z</time>
      </trkpt>
      <trkpt lat="47.6276730" lon="7.5383030">
        <ele>-170.0</ele>
        <time>2022-06-03T06:47:20Z</time>
      </trkpt>
      <trkpt lat="47.6278130" lon="7.5381660">
        <ele>-170.6</ele>
        <time>2022-06-03T06:47:24Z</time>
      </trkpt>
      <trkpt lat="47.6279510" lon="7.5380300">
        <ele>-170.6</ele>
        <time>2022-06-03T06:47:28Z</time>
      </trkpt>
      <trkpt lat="47.6280710" lon="7.5379030">
        <ele>-170.8</ele>
        <time>2022-06-03T06:47:32Z</time>
      </trkpt>
      <trkpt lat="47.6281960" lon="7.5377630">
        <ele>-170.8</ele>
        <time>2022-06-03T06:47:36Z</time>
      </trkpt>
      <trkpt lat="47.6283210" lon="7.5376350">
        <ele>-170.8</ele>
        <time>2022-06-03T06:47:40Z</time>
      </trkpt>
      <trkpt lat="47.6284650" lon="7.5375000">
        <ele>-171.2</ele>
        <time>2022-06-03T06:47:44Z</time>
      </trkpt>
      <trkpt lat="47.6286110" lon="7.5373750">
        <ele>-171.0</ele>
        <time>2022-06-03T06:47:48Z</time>
      </trkpt>
      <trkpt lat="47.6287500" lon="7.5372410">
        <ele>-171.0</ele>
        <time>2022-06-03T06:47:52Z</time>
      </trkpt>
      <trkpt lat="47.6288950" lon="7.5371110">
        <ele>-170.6</ele>
        <time>2022-06-03T06:47:56Z</time>
      </trkpt>
      <trkpt lat="47.6290180" lon="7.5369800">
        <ele>-171.2</ele>
        <time>2022-06-03T06:48:00Z</time>
      </trkpt>
      <trkpt lat="47.6291400" lon="7.5368460">
        <ele>-171.0</ele>
        <time>2022-06-03T06:48:04Z</time>
      </trkpt>
      <trkpt lat="47.6292750" lon="7.5367080">
        <ele>-171.0</ele>
        <time>2022-06-03T06:48:08Z</time>
      </trkpt>
      <trkpt lat="47.6294150" lon="7.5365800">
        <ele>-170.8</ele>
        <time>2022-06-03T06:48:12Z</time>
      </trkpt>
      <trkpt lat="47.6295480" lon="7.5364450">
        <ele>-170.4</ele>
        <time>2022-06-03T06:48:16Z</time>
      </trkpt>
      <trkpt lat="47.6296860" lon="7.5363200">
        <ele>-171.0</ele>
        <time>2022-06-03T06:48:20Z</time>
      </trkpt>
      <trkpt lat="47.6298230" lon="7.5361900">
        <ele>-170.8</ele>
        <time>2022-06-03T06:48:24Z</time>
      </trkpt>
      <trkpt lat="47.6299600" lon="7.5360600">
        <ele>-170.4</ele>
        <time>2022-06-03T06:48:28Z</time>
      </trkpt>
      <trkpt lat="47.6300950" lon="7.5359330">
        <ele>-171.4</ele>
        <time>2022-06-03T06:48:32Z</time>
      </trkpt>
      <trkpt lat="47.6302230" lon="7.5358050">
        <ele>-171.0</ele>
        <time>2022-06-03T06:48:36Z</time>
      </trkpt>
      <trkpt lat="47.6303510" lon="7.5356760">
        <ele>-171.0</ele>
        <time>2022-06-03T06:48:40Z</time>
      </trkpt>
      <trkpt lat="47.6304760" lon="7.5355460">
        <ele>-170.6</ele>
        <time>2022-06-03T06:48:44Z</time>
      </trkpt>
      <trkpt lat="47.6306100" lon="7.5354150">
        <ele>-170.6</ele>
        <time>2022-06-03T06:48:48Z</time>
      </trkpt>
      <trkpt lat="47.6307430" lon="7.5352800">
        <ele>-171.4</ele>
        <time>2022-06-03T06:48:52Z</time>
      </trkpt>
      <trkpt lat="47.6308630" lon="7.5351600">
        <ele>-170.8</ele>
        <time>2022-06-03T06:48:56Z</time>
      </trkpt>
      <trkpt lat="47.6309980" lon="7.5350300">
        <ele>-171.6</ele>
        <time>2022-06-03T06:49:00Z</time>
      </trkpt>
      <trkpt lat="47.6311250" lon="7.5348810">
        <ele>-171.0</ele>
        <time>2022-06-03T06:49:04Z</time>
      </trkpt>
      <trkpt lat="47.6312630" lon="7.5347600">
        <ele>-171.2</ele>
        <time>2022-06-03T06:49:08Z</time>
      </trkpt>
      <trkpt lat="47.6313960" lon="7.5346260">
        <ele>-170.4</ele>
        <time>2022-06-03T06:49:12Z</time>
      </trkpt>
      <trkpt lat="47.6315160" lon="7.5345100">
        <ele>-171.2</ele>
        <time>2022-06-03T06:49:16Z</time>
      </trkpt>
      <trkpt lat="47.6316580" lon="7.5343750">
        <ele>-171.0</ele>
        <time>2022-06-03T06:49:20Z</time>
      </trkpt>
      <trkpt lat="47.6317950" lon="7.5342400">
        <ele>-171.4</ele>
        <time>2022-06-03T06:49:24Z</time>
      </trkpt>
      <trkpt lat="47.6319310" lon="7.5341080">
        <ele>-171.0</ele>
        <time>2022-06-03T06:49:28Z</time>
      </trkpt>
      <trkpt lat="47.6320630" lon="7.5339660">
        <ele>-171.0</ele>
        <time>2022-06-03T06:49:32Z</time>
      </trkpt>
      <trkpt lat="47.6322050" lon="7.5338380">
        <ele>-171.0</ele>
        <time>2022-06-03T06:49:36Z</time>
      </trkpt>
      <trkpt lat="47.6323410" lon="7.5337000">
        <ele>-170.8</ele>
        <time>2022-06-03T06:49:40Z</time>
      </trkpt>
      <trkpt lat="47.6324800" lon="7.5335650">
        <ele>-171.0</ele>
        <time>2022-06-03T06:49:44Z</time>
      </trkpt>
      <trkpt lat="47.6326150" lon="7.5334160">
        <ele>-170.4</ele>
        <time>2022-06-03T06:49:48Z</time>
      </trkpt>
      <trkpt lat="47.6327560" lon="7.5332850">
        <ele>-171.0</ele>
        <time>2022-06-03T06:49:52Z</time>
      </trkpt>
      <trkpt lat="47.6328930" lon="7.5331460">
        <ele>-171.0</ele>
        <time>2022-06-03T06:49:56Z</time>
      </trkpt>
      <trkpt lat="47.6330330" lon="7.5330080">
        <ele>-171.4</ele>
        <time>2022-06-03T06:50:00Z</time>
      </trkpt>
      <trkpt lat="47.6331750" lon="7.5328730">
        <ele>-170.8</ele>
        <time>2022-06-03T06:50:04Z</time>
      </trkpt>
      <trkpt lat="47.6333050" lon="7.5327360">
        <ele>-171.0</ele>
        <time>2022-06-03T06:50:08Z</time>
      </trkpt>
      <trkpt lat="47.6334480" lon="7.5326000">
        <ele>-171.2</ele>
        <time>2022-06-03T06:50:12Z</time>
      </trkpt>
      <trkpt lat="47.6335930" lon="7.5324610">
        <ele>-171.2</ele>
        <time>2022-06-03T06:50:16Z</time>
      </trkpt>
      <trkpt lat="47.6337300" lon="7.5323360">
        <ele>-170.4</ele>
        <time>2022-06-03T06:50:20Z</time>
      </trkpt>
      <trkpt lat="47.6338550" lon="7.5321950">
        <ele>-170.6</ele>
        <time>2022-06-03T06:50:24Z</time>
      </trkpt>
      <trkpt lat="47.6339900" lon="7.5320600">
        <ele>-171.0</ele>
        <time>2022-06-03T06:50:28Z</time>
      </trkpt>
      <trkpt lat="47.6341280" lon="7.5319230">
        <ele>-171.0</ele>
        <time>2022-06-03T06:50:32Z</time>
      </trkpt>
      <trkpt lat="47.6342650" lon="7.5317950">
        <ele>-170.4</ele>
        <time>2022-06-03T06:50:36Z</time>
      </trkpt>
      <trkpt lat="47.6343980" lon="7.5316610">
        <ele>-171.0</ele>
        <time>2022-06-03T06:50:40Z</time>
      </trkpt>
      <trkpt lat="47.6345360" lon="7.5315250">
        <ele>-170.6</ele>
        <time>2022-06-03T06:50:44Z</time>
      </trkpt>
      <trkpt lat="47.6346680" lon="7.5313900">
        <ele>-170.8</ele>
        <time>2022-06-03T06:50:48Z</time>
      </trkpt>
      <trkpt lat="47.6348010" lon="7.5312600">
        <ele>-170.4</ele>
        <time>2022-06-03T06:50:52Z</time>
      </trkpt>
      <trkpt lat="47.6349210" lon="7.5311260">
        <ele>-170.8</ele>
        <time>2022-06-03T06:50:56Z</time>
      </trkpt>
      <trkpt lat="47.6350600" lon="7.5309900">
        <ele>-170.6</ele>
        <time>2022-06-03T06:51:00Z</time>
      </trkpt>
      <trkpt lat="47.6352000" lon="7.5308600">
        <ele>-170.6</ele>
        <time>2022-06-03T06:51:04Z</time>
      </trkpt>
      <trkpt lat="47.6353360" lon="7.5307330">
        <ele>-170.4</ele>
        <time>2022-06-03T06:51:08Z</time>
      </trkpt>
      <trkpt lat="47.6354660" lon="7.5306010">
        <ele>-170.6</ele>
        <time>2022-06-03T06:51:12Z</time>
      </trkpt>
      <trkpt lat="47.6355960" lon="7.5304610">
        <ele>-170.6</ele>
        <time>2022-06-03T06:51:16Z</time>
      </trkpt>
      <trkpt lat="47.6357310" lon="7.5303300">
        <ele>-170.8</ele>
        <time>2022-06-03T06:51:20Z</time>
      </trkpt>
      <trkpt lat="47.6358760" lon="7.5301950">
        <ele>-170.8</ele>
        <time>2022-06-03T06:51:24Z</time>
      </trkpt>
      <trkpt lat="47.6360300" lon="7.5300730">
        <ele>-171.2</ele>
        <time>2022-06-03T06:51:28Z</time>
      </trkpt>
      <trkpt lat="47.6361730" lon="7.5299400">
        <ele>-171.4</ele>
        <time>2022-06-03T06:51:32Z</time>
      </trkpt>
      <trkpt lat="47.6363000" lon="7.5298230">
        <ele>-171.4</ele>
        <time>2022-06-03T06:51:36Z</time>
      </trkpt>
      <trkpt lat="47.6364300" lon="7.5297250">
        <ele>-171.6</ele>
        <time>2022-06-03T06:51:40Z</time>
      </trkpt>
      <trkpt lat="47.6365550" lon="7.5296310">
        <ele>-171.6</ele>
        <time>2022-06-03T06:51:44Z</time>
      </trkpt>
      <trkpt lat="47.6366750" lon="7.5295450">
        <ele>-172.2</ele>
        <time>2022-06-03T06:51:48Z</time>
      </trkpt>
      <trkpt lat="47.6367850" lon="7.5294430">
        <ele>-172.4</ele>
        <time>2022-06-03T06:51:52Z</time>
      </trkpt>
      <trkpt lat="47.6368960" lon="7.5293260">
        <ele>-172.6</ele>
        <time>2022-06-03T06:51:56Z</time>
      </trkpt>
      <trkpt lat="47.6370330" lon="7.5292180">
        <ele>-172.8</ele>
        <time>2022-06-03T06:52:00Z</time>
      </trkpt>
      <trkpt lat="47.6371780" lon="7.5291060">
        <ele>-172.8</ele>
        <time>2022-06-03T06:52:04Z</time>
      </trkpt>
      <trkpt lat="47.6373200" lon="7.5289930">
        <ele>-172.6</ele>
        <time>2022-06-03T06:52:08Z</time>
      </trkpt>
      <trkpt lat="47.6374560" lon="7.5288900">
        <ele>-172.6</ele>
        <time>2022-06-03T06:52:12Z</time>
      </trkpt>
      <trkpt lat="47.6376000" lon="7.5287880">
        <ele>-172.6</ele>
        <time>2022-06-03T06:52:16Z</time>
      </trkpt>
      <trkpt lat="47.6377410" lon="7.5286700">
        <ele>-172.6</ele>
        <time>2022-06-03T06:52:20Z</time>
      </trkpt>
      <trkpt lat="47.6378910" lon="7.5285600">
        <ele>-172.8</ele>
        <time>2022-06-03T06:52:24Z</time>
      </trkpt>
      <trkpt lat="47.6380400" lon="7.5284430">
        <ele>-172.6</ele>
        <time>2022-06-03T06:52:28Z</time>
      </trkpt>
      <trkpt lat="47.6381800" lon="7.5283330">
        <ele>-172.6</ele>
        <time>2022-06-03T06:52:32Z</time>
      </trkpt>
      <trkpt lat="47.6383160" lon="7.5282360">
        <ele>-173.4</ele>
        <time>2022-06-03T06:52:36Z</time>
      </trkpt>
      <trkpt lat="47.6384850" lon="7.5281780">
        <ele>-173.8</ele>
        <time>2022-06-03T06:52:40Z</time>
      </trkpt>
      <trkpt lat="47.6386200" lon="7.5280180">
        <ele>-173.0</ele>
        <time>2022-06-03T06:52:44Z</time>
      </trkpt>
      <trkpt lat="47.6387550" lon="7.5278880">
        <ele>-173.4</ele>
        <time>2022-06-03T06:52:48Z</time>
      </trkpt>
      <trkpt lat="47.6389080" lon="7.5277630">
        <ele>-173.0</ele>
        <time>2022-06-03T06:52:52Z</time>
      </trkpt>
      <trkpt lat="47.6390580" lon="7.5276400">
        <ele>-172.8</ele>
        <time>2022-06-03T06:52:56Z</time>
      </trkpt>
      <trkpt lat="47.6392030" lon="7.5274980">
        <ele>-172.4</ele>
        <time>2022-06-03T06:53:00Z</time>
      </trkpt>
      <trkpt lat="47.6393550" lon="7.5273660">
        <ele>-173.4</ele>
        <time>2022-06-03T06:53:04Z</time>
      </trkpt>
      <trkpt lat="47.6395100" lon="7.5272380">
        <ele>-172.8</ele>
        <time>2022-06-03T06:53:08Z</time>
      </trkpt>
      <trkpt lat="47.6396500" lon="7.5271180">
        <ele>-172.8</ele>
        <time>2022-06-03T06:53:12Z</time>
      </trkpt>
      <trkpt lat="47.6397810" lon="7.5270010">
        <ele>-172.8</ele>
        <time>2022-06-03T06:53:16Z</time>
      </trkpt>
      <trkpt lat="47.6399260" lon="7.5268860">
        <ele>-172.8</ele>
        <time>2022-06-03T06:53:20Z</time>
      </trkpt>
      <trkpt lat="47.6400710" lon="7.5267610">
        <ele>-172.8</ele>
        <time>2022-06-03T06:53:24Z</time>
      </trkpt>
      <trkpt lat="47.6402200" lon="7.5266400">
        <ele>-173.4</ele>
        <time>2022-06-03T06:53:28Z</time>
      </trkpt>
      <trkpt lat="47.6403700" lon="7.5265200">
        <ele>-173.0</ele>
        <time>2022-06-03T06:53:32Z</time>
      </trkpt>
      <trkpt lat="47.6405200" lon="7.5263860">
        <ele>-173.4</ele>
        <time>2022-06-03T06:53:36Z</time>
      </trkpt>
      <trkpt lat="47.6406800" lon="7.5262580">
        <ele>-173.4</ele>
        <time>2022-06-03T06:53:40Z</time>
      </trkpt>
      <trkpt lat="47.6408380" lon="7.5261250">
        <ele>-174.0</ele>
        <time>2022-06-03T06:53:44Z</time>
      </trkpt>
      <trkpt lat="47.6409980" lon="7.5260010">
        <ele>-173.6</ele>
        <time>2022-06-03T06:53:48Z</time>
      </trkpt>
      <trkpt lat="47.6411530" lon="7.5258780">
        <ele>-173.6</ele>
        <time>2022-06-03T06:53:52Z</time>
      </trkpt>
      <trkpt lat="47.6413010" lon="7.5257550">
        <ele>-173.8</ele>
        <time>2022-06-03T06:53:56Z</time>
      </trkpt>
      <trkpt lat="47.6414480" lon="7.5256360">
        <ele>-173.4</ele>
        <time>2022-06-03T06:54:00Z</time>
      </trkpt>
      <trkpt lat="47.6415900" lon="7.5255110">
        <ele>-173.4</ele>
        <time>2022-06-03T06:54:04Z</time>
      </trkpt>
      <trkpt lat="47.6417330" lon="7.5253910">
        <ele>-173.6</ele>
        <time>2022-06-03T06:54:08Z</time>
      </trkpt>
      <trkpt lat="47.6418760" lon="7.5252800">
        <ele>-173.6</ele>
        <time>2022-06-03T06:54:12Z</time>
      </trkpt>
      <trkpt lat="47.6420150" lon="7.5251610">
        <ele>-174.0</ele>
        <time>2022-06-03T06:54:16Z</time>
      </trkpt>
      <trkpt lat="47.6421510" lon="7.5250500">
        <ele>-173.8</ele>
        <time>2022-06-03T06:54:20Z</time>
      </trkpt>
      <trkpt lat="47.6422900" lon="7.5249280">
        <ele>-173.8</ele>
        <time>2022-06-03T06:54:24Z</time>
      </trkpt>
      <trkpt lat="47.6424280" lon="7.5248160">
        <ele>-173.8</ele>
        <time>2022-06-03T06:54:28Z</time>
      </trkpt>
      <trkpt lat="47.6425600" lon="7.5247110">
        <ele>-174.0</ele>
        <time>2022-06-03T06:54:32Z</time>
      </trkpt>
      <trkpt lat="47.6426880" lon="7.5246080">
        <ele>-173.4</ele>
        <time>2022-06-03T06:54:36Z</time>
      </trkpt>
      <trkpt lat="47.6428330" lon="7.5244860">
        <ele>-174.0</ele>
        <time>2022-06-03T06:54:40Z</time>
      </trkpt>
      <trkpt lat="47.6429650" lon="7.5243600">
        <ele>-173.4</ele>
        <time>2022-06-03T06:54:44Z</time>
      </trkpt>
      <trkpt lat="47.6431060" lon="7.5242410">
        <ele>-173.0</ele>
        <time>2022-06-03T06:54:48Z</time>
      </trkpt>
      <trkpt lat="47.6432330" lon="7.5241360">
        <ele>-174.0</ele>
        <time>2022-06-03T06:54:52Z</time>
      </trkpt>
      <trkpt lat="47.6433660" lon="7.5240460">
        <ele>-174.0</ele>
        <time>2022-06-03T06:54:56Z</time>
      </trkpt>
      <trkpt lat="47.6434950" lon="7.5239450">
        <ele>-174.2</ele>
        <time>2022-06-03T06:55:00Z</time>
      </trkpt>
      <trkpt lat="47.6436400" lon="7.5238130">
        <ele>-173.8</ele>
        <time>2022-06-03T06:55:04Z</time>
      </trkpt>
      <trkpt lat="47.6437950" lon="7.5236780">
        <ele>-174.0</ele>
        <time>2022-06-03T06:55:08Z</time>
      </trkpt>
      <trkpt lat="47.6439510" lon="7.5235510">
        <ele>-173.4</ele>
        <time>2022-06-03T06:55:12Z</time>
      </trkpt>
      <trkpt lat="47.6441000" lon="7.5234330">
        <ele>-174.0</ele>
        <time>2022-06-03T06:55:16Z</time>
      </trkpt>
      <trkpt lat="47.6442380" lon="7.5233150">
        <ele>-174.0</ele>
        <time>2022-06-03T06:55:20Z</time>
      </trkpt>
      <trkpt lat="47.6443780" lon="7.5232030">
        <ele>-174.2</ele>
        <time>2022-06-03T06:55:24Z</time>
      </trkpt>
      <trkpt lat="47.6445100" lon="7.5230950">
        <ele>-174.0</ele>
        <time>2022-06-03T06:55:28Z</time>
      </trkpt>
      <trkpt lat="47.6446450" lon="7.5229760">
        <ele>-174.0</ele>
        <time>2022-06-03T06:55:32Z</time>
      </trkpt>
      <trkpt lat="47.6447860" lon="7.5228550">
        <ele>-173.8</ele>
        <time>2022-06-03T06:55:36Z</time>
      </trkpt>
      <trkpt lat="47.6449330" lon="7.5227400">
        <ele>-174.2</ele>
        <time>2022-06-03T06:55:40Z</time>
      </trkpt>
      <trkpt lat="47.6450760" lon="7.5226180">
        <ele>-173.8</ele>
        <time>2022-06-03T06:55:44Z</time>
      </trkpt>
      <trkpt lat="47.6452180" lon="7.5225010">
        <ele>-174.2</ele>
        <time>2022-06-03T06:55:48Z</time>
      </trkpt>
      <trkpt lat="47.6453500" lon="7.5223950">
        <ele>-173.6</ele>
        <time>2022-06-03T06:55:52Z</time>
      </trkpt>
      <trkpt lat="47.6455030" lon="7.5222580">
        <ele>-174.2</ele>
        <time>2022-06-03T06:55:56Z</time>
      </trkpt>
      <trkpt lat="47.6456530" lon="7.5221260">
        <ele>-174.4</ele>
        <time>2022-06-03T06:56:00Z</time>
      </trkpt>
      <trkpt lat="47.6458080" lon="7.5219980">
        <ele>-174.0</ele>
        <time>2022-06-03T06:56:04Z</time>
      </trkpt>
      <trkpt lat="47.6459630" lon="7.5218680">
        <ele>-173.8</ele>
        <time>2022-06-03T06:56:08Z</time>
      </trkpt>
      <trkpt lat="47.6461110" lon="7.5217450">
        <ele>-174.2</ele>
        <time>2022-06-03T06:56:12Z</time>
      </trkpt>
      <trkpt lat="47.6463000" lon="7.5215930">
        <ele>-174.2</ele>
        <time>2022-06-03T06:56:16Z</time>
      </trkpt>
      <trkpt lat="47.6464710" lon="7.5214610">
        <ele>-174.0</ele>
        <time>2022-06-03T06:56:20Z</time>
      </trkpt>
      <trkpt lat="47.6466310" lon="7.5213360">
        <ele>-174.0</ele>
        <time>2022-06-03T06:56:24Z</time>
      </trkpt>
      <trkpt lat="47.6467830" lon="7.5212130">
        <ele>-174.2</ele>
        <time>2022-06-03T06:56:28Z</time>
      </trkpt>
      <trkpt lat="47.6469350" lon="7.5210830">
        <ele>-174.0</ele>
        <time>2022-06-03T06:56:32Z</time>
      </trkpt>
      <trkpt lat="47.6470780" lon="7.5209550">
        <ele>-174.0</ele>
        <time>2022-06-03T06:56:36Z</time>
      </trkpt>
      <trkpt lat="47.6472300" lon="7.5208330">
        <ele>-173.6</ele>
        <time>2022-06-03T06:56:40Z</time>
      </trkpt>
      <trkpt lat="47.6473780" lon="7.5207230">
        <ele>-174.0</ele>
        <time>2022-06-03T06:56:44Z</time>
      </trkpt>
      <trkpt lat="47.6475350" lon="7.5205980">
        <ele>-174.4</ele>
        <time>2022-06-03T06:56:48Z</time>
      </trkpt>
      <trkpt lat="47.6476830" lon="7.5204630">
        <ele>-174.2</ele>
        <time>2022-06-03T06:56:52Z</time>
      </trkpt>
      <trkpt lat="47.6478300" lon="7.5203310">
        <ele>-174.2</ele>
        <time>2022-06-03T06:56:56Z</time>
      </trkpt>
      <trkpt lat="47.6479800" lon="7.5202060">
        <ele>-174.4</ele>
        <time>2022-06-03T06:57:00Z</time>
      </trkpt>
      <trkpt lat="47.6481280" lon="7.5200830">
        <ele>-174.2</ele>
        <time>2022-06-03T06:57:04Z</time>
      </trkpt>
      <trkpt lat="47.6482780" lon="7.5199530">
        <ele>-174.0</ele>
        <time>2022-06-03T06:57:08Z</time>
      </trkpt>
      <trkpt lat="47.6484210" lon="7.5198310">
        <ele>-174.2</ele>
        <time>2022-06-03T06:57:12Z</time>
      </trkpt>
      <trkpt lat="47.6485680" lon="7.5197110">
        <ele>-174.2</ele>
        <time>2022-06-03T06:57:16Z</time>
      </trkpt>
      <trkpt lat="47.6487130" lon="7.5195880">
        <ele>-174.0</ele>
        <time>2022-06-03T06:57:20Z</time>
      </trkpt>
      <trkpt lat="47.6488800" lon="7.5194650">
        <ele>-174.0</ele>
        <time>2022-06-03T06:57:24Z</time>
      </trkpt>
      <trkpt lat="47.6490480" lon="7.5193350">
        <ele>-174.0</ele>
        <time>2022-06-03T06:57:28Z</time>
      </trkpt>
      <trkpt lat="47.6491960" lon="7.5191960">
        <ele>-173.6</ele>
        <time>2022-06-03T06:57:32Z</time>
      </trkpt>
      <trkpt lat="47.6493480" lon="7.5190750">
        <ele>-174.2</ele>
        <time>2022-06-03T06:57:36Z</time>
      </trkpt>
      <trkpt lat="47.6494930" lon="7.5189580">
        <ele>-174.0</ele>
        <time>2022-06-03T06:57:40Z</time>
      </trkpt>
      <trkpt lat="47.6496310" lon="7.5188310">
        <ele>-173.4</ele>
        <time>2022-06-03T06:57:44Z</time>
      </trkpt>
      <trkpt lat="47.6497800" lon="7.5187060">
        <ele>-173.4</ele>
        <time>2022-06-03T06:57:48Z</time>
      </trkpt>
      <trkpt lat="47.6499160" lon="7.5185860">
        <ele>-173.6</ele>
        <time>2022-06-03T06:57:52Z</time>
      </trkpt>
      <trkpt lat="47.6500610" lon="7.5184630">
        <ele>-173.8</ele>
        <time>2022-06-03T06:57:56Z</time>
      </trkpt>
      <trkpt lat="47.6502230" lon="7.5183280">
        <ele>-174.0</ele>
        <time>2022-06-03T06:58:00Z</time>
      </trkpt>
      <trkpt lat="47.6504010" lon="7.5182000">
        <ele>-173.8</ele>
        <time>2022-06-03T06:58:04Z</time>
      </trkpt>
      <trkpt lat="47.6505300" lon="7.5180800">
        <ele>-174.2</ele>
        <time>2022-06-03T06:58:08Z</time>
      </trkpt>
      <trkpt lat="47.6506960" lon="7.5179480">
        <ele>-174.2</ele>
        <time>2022-06-03T06:58:12Z</time>
      </trkpt>
      <trkpt lat="47.6508680" lon="7.5178000">
        <ele>-173.8</ele>
        <time>2022-06-03T06:58:16Z</time>
      </trkpt>
      <trkpt lat="47.6510150" lon="7.5176780">
        <ele>-174.0</ele>
        <time>2022-06-03T06:58:20Z</time>
      </trkpt>
      <trkpt lat="47.6511710" lon="7.5175510">
        <ele>-173.8</ele>
        <time>2022-06-03T06:58:24Z</time>
      </trkpt>
      <trkpt lat="47.6513200" lon="7.5174330">
        <ele>-174.6</ele>
        <time>2022-06-03T06:58:28Z</time>
      </trkpt>
      <trkpt lat="47.6514750" lon="7.5173110">
        <ele>-174.2</ele>
        <time>2022-06-03T06:58:32Z</time>
      </trkpt>
      <trkpt lat="47.6516260" lon="7.5171900">
        <ele>-174.4</ele>
        <time>2022-06-03T06:58:36Z</time>
      </trkpt>
      <trkpt lat="47.6517830" lon="7.5170650">
        <ele>-174.0</ele>
        <time>2022-06-03T06:58:40Z</time>
      </trkpt>
      <trkpt lat="47.6519210" lon="7.5169480">
        <ele>-173.4</ele>
        <time>2022-06-03T06:58:44Z</time>
      </trkpt>
      <trkpt lat="47.6520610" lon="7.5168280">
        <ele>-173.4</ele>
        <time>2022-06-03T06:58:48Z</time>
      </trkpt>
      <trkpt lat="47.6521930" lon="7.5167030">
        <ele>-173.2</ele>
        <time>2022-06-03T06:58:52Z</time>
      </trkpt>
      <trkpt lat="47.6523480" lon="7.5165830">
        <ele>-173.4</ele>
        <time>2022-06-03T06:58:56Z</time>
      </trkpt>
      <trkpt lat="47.6525050" lon="7.5164600">
        <ele>-173.4</ele>
        <time>2022-06-03T06:59:00Z</time>
      </trkpt>
      <trkpt lat="47.6526560" lon="7.5163350">
        <ele>-173.6</ele>
        <time>2022-06-03T06:59:04Z</time>
      </trkpt>
      <trkpt lat="47.6528060" lon="7.5162110">
        <ele>-173.8</ele>
        <time>2022-06-03T06:59:08Z</time>
      </trkpt>
      <trkpt lat="47.6529560" lon="7.5160910">
        <ele>-173.4</ele>
        <time>2022-06-03T06:59:12Z</time>
      </trkpt>
      <trkpt lat="47.6531080" lon="7.5159730">
        <ele>-173.4</ele>
        <time>2022-06-03T06:59:16Z</time>
      </trkpt>
      <trkpt lat="47.6532500" lon="7.5158480">
        <ele>-173.4</ele>
        <time>2022-06-03T06:59:20Z</time>
      </trkpt>
      <trkpt lat="47.6534000" lon="7.5157230">
        <ele>-173.6</ele>
        <time>2022-06-03T06:59:24Z</time>
      </trkpt>
      <trkpt lat="47.6535480" lon="7.5155980">
        <ele>-173.4</ele>
        <time>2022-06-03T06:59:28Z</time>
      </trkpt>
      <trkpt lat="47.6536930" lon="7.5154810">
        <ele>-174.2</ele>
        <time>2022-06-03T06:59:32Z</time>
      </trkpt>
      <trkpt lat="47.6538330" lon="7.5153610">
        <ele>-174.0</ele>
        <time>2022-06-03T06:59:36Z</time>
      </trkpt>
      <trkpt lat="47.6539810" lon="7.5152450">
        <ele>-174.0</ele>
        <time>2022-06-03T06:59:40Z</time>
      </trkpt>
      <trkpt lat="47.6541350" lon="7.5151250">
        <ele>-173.6</ele>
        <time>2022-06-03T06:59:44Z</time>
      </trkpt>
      <trkpt lat="47.6542760" lon="7.5149910">
        <ele>-173.6</ele>
        <time>2022-06-03T06:59:48Z</time>
      </trkpt>
      <trkpt lat="47.6544330" lon="7.5148700">
        <ele>-174.0</ele>
        <time>2022-06-03T06:59:52Z</time>
      </trkpt>
      <trkpt lat="47.6545830" lon="7.5147430">
        <ele>-174.2</ele>
        <time>2022-06-03T06:59:56Z</time>
      </trkpt>
      <trkpt lat="47.6547360" lon="7.5146160">
        <ele>-173.8</ele>
        <time>2022-06-03T07:00:00Z</time>
      </trkpt>
      <trkpt lat="47.6548850" lon="7.5144930">
        <ele>-173.6</ele>
        <time>2022-06-03T07:00:04Z</time>
      </trkpt>
      <trkpt lat="47.6550330" lon="7.5143710">
        <ele>-173.8</ele>
        <time>2022-06-03T07:00:08Z</time>
      </trkpt>
      <trkpt lat="47.6551830" lon="7.5142500">
        <ele>-173.6</ele>
        <time>2022-06-03T07:00:12Z</time>
      </trkpt>
      <trkpt lat="47.6553300" lon="7.5141210">
        <ele>-174.2</ele>
        <time>2022-06-03T07:00:16Z</time>
      </trkpt>
      <trkpt lat="47.6554760" lon="7.5139960">
        <ele>-174.0</ele>
        <time>2022-06-03T07:00:20Z</time>
      </trkpt>
      <trkpt lat="47.6556210" lon="7.5138800">
        <ele>-174.0</ele>
        <time>2022-06-03T07:00:24Z</time>
      </trkpt>
      <trkpt lat="47.6557650" lon="7.5137680">
        <ele>-173.6</ele>
        <time>2022-06-03T07:00:28Z</time>
      </trkpt>
      <trkpt lat="47.6559060" lon="7.5136500">
        <ele>-174.2</ele>
        <time>2022-06-03T07:00:32Z</time>
      </trkpt>
      <trkpt lat="47.6560460" lon="7.5135330">
        <ele>-173.6</ele>
        <time>2022-06-03T07:00:36Z</time>
      </trkpt>
      <trkpt lat="47.6561750" lon="7.5134160">
        <ele>-173.4</ele>
        <time>2022-06-03T07:00:40Z</time>
      </trkpt>
      <trkpt lat="47.6563250" lon="7.5132850">
        <ele>-173.4</ele>
        <time>2022-06-03T07:00:44Z</time>
      </trkpt>
      <trkpt lat="47.6564880" lon="7.5131480">
        <ele>-173.4</ele>
        <time>2022-06-03T07:00:48Z</time>
      </trkpt>
      <trkpt lat="47.6566400" lon="7.5130110">
        <ele>-173.6</ele>
        <time>2022-06-03T07:00:52Z</time>
      </trkpt>
      <trkpt lat="47.6568200" lon="7.5128780">
        <ele>-173.6</ele>
        <time>2022-06-03T07:00:56Z</time>
      </trkpt>
      <trkpt lat="47.6569810" lon="7.5127530">
        <ele>-173.6</ele>
        <time>2022-06-03T07:01:00Z</time>
      </trkpt>
      <trkpt lat="47.6571380" lon="7.5126300">
        <ele>-174.0</ele>
        <time>2022-06-03T07:01:04Z</time>
      </trkpt>
      <trkpt lat="47.6572950" lon="7.5125000">
        <ele>-174.0</ele>
        <time>2022-06-03T07:01:08Z</time>
      </trkpt>
      <trkpt lat="47.6574460" lon="7.5123710">
        <ele>-173.4</ele>
        <time>2022-06-03T07:01:12Z</time>
      </trkpt>
      <trkpt lat="47.6576000" lon="7.5122450">
        <ele>-173.4</ele>
        <time>2022-06-03T07:01:16Z</time>
      </trkpt>
      <trkpt lat="47.6577500" lon="7.5121250">
        <ele>-173.6</ele>
        <time>2022-06-03T07:01:20Z</time>
      </trkpt>
      <trkpt lat="47.6578980" lon="7.5120000">
        <ele>-173.4</ele>
        <time>2022-06-03T07:01:24Z</time>
      </trkpt>
      <trkpt lat="47.6580500" lon="7.5118780">
        <ele>-173.4</ele>
        <time>2022-06-03T07:01:28Z</time>
      </trkpt>
      <trkpt lat="47.6582010" lon="7.5117580">
        <ele>-173.4</ele>
        <time>2022-06-03T07:01:32Z</time>
      </trkpt>
      <trkpt lat="47.6583480" lon="7.5116350">
        <ele>-173.6</ele>
        <time>2022-06-03T07:01:36Z</time>
      </trkpt>
      <trkpt lat="47.6584980" lon="7.5115150">
        <ele>-172.8</ele>
        <time>2022-06-03T07:01:40Z</time>
      </trkpt>
      <trkpt lat="47.6586430" lon="7.5113960">
        <ele>-173.0</ele>
        <time>2022-06-03T07:01:44Z</time>
      </trkpt>
      <trkpt lat="47.6587850" lon="7.5113280">
        <ele>-172.6</ele>
        <time>2022-06-03T07:01:48Z</time>
      </trkpt>
      <trkpt lat="47.6589430" lon="7.5112360">
        <ele>-174.0</ele>
        <time>2022-06-03T07:01:52Z</time>
      </trkpt>
      <trkpt lat="47.6591180" lon="7.5110980">
        <ele>-174.4</ele>
        <time>2022-06-03T07:01:56Z</time>
      </trkpt>
      <trkpt lat="47.6592830" lon="7.5109110">
        <ele>-174.2</ele>
        <time>2022-06-03T07:02:00Z</time>
      </trkpt>
      <trkpt lat="47.6594230" lon="7.5107300">
        <ele>-174.2</ele>
        <time>2022-06-03T07:02:04Z</time>
      </trkpt>
      <trkpt lat="47.6595960" lon="7.5105910">
        <ele>-174.0</ele>
        <time>2022-06-03T07:02:08Z</time>
      </trkpt>
      <trkpt lat="47.6597660" lon="7.5104610">
        <ele>-174.0</ele>
        <time>2022-06-03T07:02:12Z</time>
      </trkpt>
      <trkpt lat="47.6599260" lon="7.5103250">
        <ele>-173.6</ele>
        <time>2022-06-03T07:02:16Z</time>
      </trkpt>
      <trkpt lat="47.6600900" lon="7.5101950">
        <ele>-174.0</ele>
        <time>2022-06-03T07:02:20Z</time>
      </trkpt>
      <trkpt lat="47.6602500" lon="7.5100710">
        <ele>-174.8</ele>
        <time>2022-06-03T07:02:24Z</time>
      </trkpt>
      <trkpt lat="47.6603980" lon="7.5099360">
        <ele>-174.2</ele>
        <time>2022-06-03T07:02:28Z</time>
      </trkpt>
      <trkpt lat="47.6605500" lon="7.5098050">
        <ele>-173.4</ele>
        <time>2022-06-03T07:02:32Z</time>
      </trkpt>
      <trkpt lat="47.6607030" lon="7.5096710">
        <ele>-175.2</ele>
        <time>2022-06-03T07:02:36Z</time>
      </trkpt>
      <trkpt lat="47.6608530" lon="7.5095350">
        <ele>-174.2</ele>
        <time>2022-06-03T07:02:40Z</time>
      </trkpt>
      <trkpt lat="47.6610130" lon="7.5094010">
        <ele>-174.0</ele>
        <time>2022-06-03T07:02:44Z</time>
      </trkpt>
      <trkpt lat="47.6611680" lon="7.5092750">
        <ele>-174.4</ele>
        <time>2022-06-03T07:02:48Z</time>
      </trkpt>
      <trkpt lat="47.6613300" lon="7.5091580">
        <ele>-174.2</ele>
        <time>2022-06-03T07:02:52Z</time>
      </trkpt>
      <trkpt lat="47.6614910" lon="7.5090350">
        <ele>-174.0</ele>
        <time>2022-06-03T07:02:56Z</time>
      </trkpt>
      <trkpt lat="47.6616510" lon="7.5089050">
        <ele>-174.0</ele>
        <time>2022-06-03T07:03:00Z</time>
      </trkpt>
      <trkpt lat="47.6618050" lon="7.5087800">
        <ele>-173.8</ele>
        <time>2022-06-03T07:03:04Z</time>
      </trkpt>
      <trkpt lat="47.6619580" lon="7.5086510">
        <ele>-173.8</ele>
        <time>2022-06-03T07:03:08Z</time>
      </trkpt>
      <trkpt lat="47.6621100" lon="7.5085280">
        <ele>-174.2</ele>
        <time>2022-06-03T07:03:12Z</time>
      </trkpt>
      <trkpt lat="47.6622680" lon="7.5083910">
        <ele>-174.4</ele>
        <time>2022-06-03T07:03:16Z</time>
      </trkpt>
      <trkpt lat="47.6624230" lon="7.5082660">
        <ele>-174.2</ele>
        <time>2022-06-03T07:03:20Z</time>
      </trkpt>
      <trkpt lat="47.6625760" lon="7.5081260">
        <ele>-174.2</ele>
        <time>2022-06-03T07:03:24Z</time>
      </trkpt>
      <trkpt lat="47.6627310" lon="7.5079960">
        <ele>-173.6</ele>
        <time>2022-06-03T07:03:28Z</time>
      </trkpt>
      <trkpt lat="47.6628930" lon="7.5078600">
        <ele>-174.0</ele>
        <time>2022-06-03T07:03:32Z</time>
      </trkpt>
      <trkpt lat="47.6630250" lon="7.5077500">
        <ele>-173.6</ele>
        <time>2022-06-03T07:03:36Z</time>
      </trkpt>
      <trkpt lat="47.6631760" lon="7.5076260">
        <ele>-173.4</ele>
        <time>2022-06-03T07:03:40Z</time>
      </trkpt>
      <trkpt lat="47.6633110" lon="7.5075110">
        <ele>-173.6</ele>
        <time>2022-06-03T07:03:44Z</time>
      </trkpt>
      <trkpt lat="47.6634610" lon="7.5073930">
        <ele>-174.2</ele>
        <time>2022-06-03T07:03:48Z</time>
      </trkpt>
      <trkpt lat="47.6635960" lon="7.5072810">
        <ele>-174.2</ele>
        <time>2022-06-03T07:03:52Z</time>
      </trkpt>
      <trkpt lat="47.6637530" lon="7.5071460">
        <ele>-174.0</ele>
        <time>2022-06-03T07:03:56Z</time>
      </trkpt>
      <trkpt lat="47.6639210" lon="7.5070130">
        <ele>-174.2</ele>
        <time>2022-06-03T07:04:00Z</time>
      </trkpt>
      <trkpt lat="47.6640910" lon="7.5068860">
        <ele>-174.4</ele>
        <time>2022-06-03T07:04:04Z</time>
      </trkpt>
      <trkpt lat="47.6642510" lon="7.5067560">
        <ele>-174.2</ele>
        <time>2022-06-03T07:04:08Z</time>
      </trkpt>
      <trkpt lat="47.6644150" lon="7.5066230">
        <ele>-174.4</ele>
        <time>2022-06-03T07:04:12Z</time>
      </trkpt>
      <trkpt lat="47.6645700" lon="7.5064910">
        <ele>-174.2</ele>
        <time>2022-06-03T07:04:16Z</time>
      </trkpt>
      <trkpt lat="47.6647160" lon="7.5063630">
        <ele>-174.2</ele>
        <time>2022-06-03T07:04:20Z</time>
      </trkpt>
      <trkpt lat="47.6648800" lon="7.5062210">
        <ele>-174.0</ele>
        <time>2022-06-03T07:04:24Z</time>
      </trkpt>
      <trkpt lat="47.6650330" lon="7.5060900">
        <ele>-174.2</ele>
        <time>2022-06-03T07:04:28Z</time>
      </trkpt>
      <trkpt lat="47.6651910" lon="7.5059550">
        <ele>-174.8</ele>
        <time>2022-06-03T07:04:32Z</time>
      </trkpt>
      <trkpt lat="47.6653550" lon="7.5058200">
        <ele>-174.0</ele>
        <time>2022-06-03T07:04:36Z</time>
      </trkpt>
      <trkpt lat="47.6655130" lon="7.5056910">
        <ele>-174.4</ele>
        <time>2022-06-03T07:04:40Z</time>
      </trkpt>
      <trkpt lat="47.6656810" lon="7.5055630">
        <ele>-174.2</ele>
        <time>2022-06-03T07:04:44Z</time>
      </trkpt>
      <trkpt lat="47.6658430" lon="7.5054360">
        <ele>-174.4</ele>
        <time>2022-06-03T07:04:48Z</time>
      </trkpt>
      <trkpt lat="47.6660010" lon="7.5053130">
        <ele>-174.2</ele>
        <time>2022-06-03T07:04:52Z</time>
      </trkpt>
      <trkpt lat="47.6661600" lon="7.5051930">
        <ele>-174.4</ele>
        <time>2022-06-03T07:04:56Z</time>
      </trkpt>
      <trkpt lat="47.6663180" lon="7.5050750">
        <ele>-174.4</ele>
        <time>2022-06-03T07:05:00Z</time>
      </trkpt>
      <trkpt lat="47.6664750" lon="7.5049560">
        <ele>-174.0</ele>
        <time>2022-06-03T07:05:04Z</time>
      </trkpt>
      <trkpt lat="47.6666380" lon="7.5048680">
        <ele>-174.2</ele>
        <time>2022-06-03T07:05:08Z</time>
      </trkpt>
      <trkpt lat="47.6668060" lon="7.5047800">
        <ele>-174.8</ele>
        <time>2022-06-03T07:05:12Z</time>
      </trkpt>
      <trkpt lat="47.6669630" lon="7.5047030">
        <ele>-174.2</ele>
        <time>2022-06-03T07:05:16Z</time>
      </trkpt>
      <trkpt lat="47.6671160" lon="7.5046380">
        <ele>-174.4</ele>
        <time>2022-06-03T07:05:20Z</time>
      </trkpt>
      <trkpt lat="47.6672760" lon="7.5045680">
        <ele>-174.4</ele>
        <time>2022-06-03T07:05:24Z</time>
      </trkpt>
      <trkpt lat="47.6674430" lon="7.5044980">
        <ele>-174.2</ele>
        <time>2022-06-03T07:05:28Z</time>
      </trkpt>
      <trkpt lat="47.6676180" lon="7.5044330">
        <ele>-174.0</ele>
        <time>2022-06-03T07:05:32Z</time>
      </trkpt>
      <trkpt lat="47.6677730" lon="7.5043760">
        <ele>-174.0</ele>
        <time>2022-06-03T07:05:36Z</time>
      </trkpt>
      <trkpt lat="47.6679400" lon="7.5043310">
        <ele>-174.6</ele>
        <time>2022-06-03T07:05:40Z</time>
      </trkpt>
      <trkpt lat="47.6681100" lon="7.5042950">
        <ele>-174.2</ele>
        <time>2022-06-03T07:05:44Z</time>
      </trkpt>
      <trkpt lat="47.6682830" lon="7.5042630">
        <ele>-174.0</ele>
        <time>2022-06-03T07:05:48Z</time>
      </trkpt>
      <trkpt lat="47.6684550" lon="7.5042360">
        <ele>-174.6</ele>
        <time>2022-06-03T07:05:52Z</time>
      </trkpt>
      <trkpt lat="47.6686250" lon="7.5042210">
        <ele>-174.0</ele>
        <time>2022-06-03T07:05:56Z</time>
      </trkpt>
      <trkpt lat="47.6688030" lon="7.5042100">
        <ele>-174.0</ele>
        <time>2022-06-03T07:06:00Z</time>
      </trkpt>
      <trkpt lat="47.6689830" lon="7.5042000">
        <ele>-174.4</ele>
        <time>2022-06-03T07:06:04Z</time>
      </trkpt>
      <trkpt lat="47.6691660" lon="7.5042050">
        <ele>-174.8</ele>
        <time>2022-06-03T07:06:08Z</time>
      </trkpt>
      <trkpt lat="47.6693400" lon="7.5042180">
        <ele>-174.6</ele>
        <time>2022-06-03T07:06:12Z</time>
      </trkpt>
      <trkpt lat="47.6695250" lon="7.5042450">
        <ele>-174.4</ele>
        <time>2022-06-03T07:06:16Z</time>
      </trkpt>
      <trkpt lat="47.6697130" lon="7.5042800">
        <ele>-174.2</ele>
        <time>2022-06-03T07:06:20Z</time>
      </trkpt>
      <trkpt lat="47.6698700" lon="7.5043080">
        <ele>-174.2</ele>
        <time>2022-06-03T07:06:24Z</time>
      </trkpt>
      <trkpt lat="47.6700460" lon="7.5043350">
        <ele>-174.2</ele>
        <time>2022-06-03T07:06:28Z</time>
      </trkpt>
      <trkpt lat="47.6702360" lon="7.5043560">
        <ele>-174.0</ele>
        <time>2022-06-03T07:06:32Z</time>
      </trkpt>
      <trkpt lat="47.6704150" lon="7.5043800">
        <ele>-174.0</ele>
        <time>2022-06-03T07:06:36Z</time>
      </trkpt>
      <trkpt lat="47.6705930" lon="7.5044060">
        <ele>-174.2</ele>
        <time>2022-06-03T07:06:40Z</time>
      </trkpt>
      <trkpt lat="47.6707580" lon="7.5044400">
        <ele>-174.0</ele>
        <time>2022-06-03T07:06:44Z</time>
      </trkpt>
      <trkpt lat="47.6709400" lon="7.5044730">
        <ele>-174.0</ele>
        <time>2022-06-03T07:06:48Z</time>
      </trkpt>
      <trkpt lat="47.6711300" lon="7.5044980">
        <ele>-174.0</ele>
        <time>2022-06-03T07:06:52Z</time>
      </trkpt>
      <trkpt lat="47.6713130" lon="7.5045310">
        <ele>-174.2</ele>
        <time>2022-06-03T07:06:56Z</time>
      </trkpt>
      <trkpt lat="47.6714800" lon="7.5045480">
        <ele>-173.6</ele>
        <time>2022-06-03T07:07:00Z</time>
      </trkpt>
      <trkpt lat="47.6716450" lon="7.5045580">
        <ele>-174.2</ele>
        <time>2022-06-03T07:07:04Z</time>
      </trkpt>
      <trkpt lat="47.6718110" lon="7.5045930">
        <ele>-174.6</ele>
        <time>2022-06-03T07:07:08Z</time>
      </trkpt>
      <trkpt lat="47.6719860" lon="7.5046180">
        <ele>-174.0</ele>
        <time>2022-06-03T07:07:12Z</time>
      </trkpt>
      <trkpt lat="47.6721660" lon="7.5046550">
        <ele>-174.4</ele>
        <time>2022-06-03T07:07:16Z</time>
      </trkpt>
      <trkpt lat="47.6723460" lon="7.5046710">
        <ele>-173.4</ele>
        <time>2022-06-03T07:07:20Z</time>
      </trkpt>
      <trkpt lat="47.6725310" lon="7.5047080">
        <ele>-173.6</ele>
        <time>2022-06-03T07:07:24Z</time>
      </trkpt>
      <trkpt lat="47.6726930" lon="7.5047350">
        <ele>-173.8</ele>
        <time>2022-06-03T07:07:28Z</time>
      </trkpt>
      <trkpt lat="47.6728410" lon="7.5047550">
        <ele>-174.2</ele>
        <time>2022-06-03T07:07:32Z</time>
      </trkpt>
      <trkpt lat="47.6729930" lon="7.5047700">
        <ele>-173.6</ele>
        <time>2022-06-03T07:07:36Z</time>
      </trkpt>
      <trkpt lat="47.6731550" lon="7.5047980">
        <ele>-173.6</ele>
        <time>2022-06-03T07:07:40Z</time>
      </trkpt>
      <trkpt lat="47.6733350" lon="7.5048300">
        <ele>-174.2</ele>
        <time>2022-06-03T07:07:44Z</time>
      </trkpt>
      <trkpt lat="47.6735130" lon="7.5048410">
        <ele>-174.2</ele>
        <time>2022-06-03T07:07:48Z</time>
      </trkpt>
      <trkpt lat="47.6736950" lon="7.5048800">
        <ele>-173.4</ele>
        <time>2022-06-03T07:07:52Z</time>
      </trkpt>
      <trkpt lat="47.6738830" lon="7.5049130">
        <ele>-174.2</ele>
        <time>2022-06-03T07:07:56Z</time>
      </trkpt>
      <trkpt lat="47.6740710" lon="7.5049510">
        <ele>-173.8</ele>
        <time>2022-06-03T07:08:00Z</time>
      </trkpt>
      <trkpt lat="47.6742510" lon="7.5049860">
        <ele>-174.0</ele>
        <time>2022-06-03T07:08:04Z</time>
      </trkpt>
      <trkpt lat="47.6744330" lon="7.5050100">
        <ele>-174.4</ele>
        <time>2022-06-03T07:08:08Z</time>
      </trkpt>
      <trkpt lat="47.6746030" lon="7.5050600">
        <ele>-173.8</ele>
        <time>2022-06-03T07:08:12Z</time>
      </trkpt>
      <trkpt lat="47.6747780" lon="7.5050910">
        <ele>-174.4</ele>
        <time>2022-06-03T07:08:16Z</time>
      </trkpt>
      <trkpt lat="47.6749460" lon="7.5051230">
        <ele>-174.0</ele>
        <time>2022-06-03T07:08:20Z</time>
      </trkpt>
      <trkpt lat="47.6751130" lon="7.5051560">
        <ele>-173.8</ele>
        <time>2022-06-03T07:08:24Z</time>
      </trkpt>
      <trkpt lat="47.6752980" lon="7.5051780">
        <ele>-174.2</ele>
        <time>2022-06-03T07:08:28Z</time>
      </trkpt>
      <trkpt lat="47.6754810" lon="7.5052110">
        <ele>-174.4</ele>
        <time>2022-06-03T07:08:32Z</time>
      </trkpt>
      <trkpt lat="47.6756730" lon="7.5052350">
        <ele>-174.2</ele>
        <time>2022-06-03T07:08:36Z</time>
      </trkpt>
      <trkpt lat="47.6758460" lon="7.5052550">
        <ele>-174.0</ele>
        <time>2022-06-03T07:08:40Z</time>
      </trkpt>
      <trkpt lat="47.6760230" lon="7.5052830">
        <ele>-174.4</ele>
        <time>2022-06-03T07:08:44Z</time>
      </trkpt>
      <trkpt lat="47.6762260" lon="7.5052960">
        <ele>-174.6</ele>
        <time>2022-06-03T07:08:48Z</time>
      </trkpt>
      <trkpt lat="47.6764350" lon="7.5053200">
        <ele>-174.2</ele>
        <time>2022-06-03T07:08:52Z</time>
      </trkpt>
      <trkpt lat="47.6766360" lon="7.5053580">
        <ele>-174.8</ele>
        <time>2022-06-03T07:08:56Z</time>
      </trkpt>
      <trkpt lat="47.6768500" lon="7.5053930">
        <ele>-174.2</ele>
        <time>2022-06-03T07:09:00Z</time>
      </trkpt>
      <trkpt lat="47.6770830" lon="7.5054260">
        <ele>-173.8</ele>
        <time>2022-06-03T07:09:04Z</time>
      </trkpt>
      <trkpt lat="47.6772960" lon="7.5054560">
        <ele>-173.6</ele>
        <time>2022-06-03T07:09:08Z</time>
      </trkpt>
      <trkpt lat="47.6775150" lon="7.5054900">
        <ele>-173.6</ele>
        <time>2022-06-03T07:09:12Z</time>
      </trkpt>
      <trkpt lat="47.6777230" lon="7.5055230">
        <ele>-173.8</ele>
        <time>2022-06-03T07:09:16Z</time>
      </trkpt>
      <trkpt lat="47.6779310" lon="7.5055610">
        <ele>-174.4</ele>
        <time>2022-06-03T07:09:20Z</time>
      </trkpt>
      <trkpt lat="47.6781450" lon="7.5055880">
        <ele>-174.2</ele>
        <time>2022-06-03T07:09:24Z</time>
      </trkpt>
      <trkpt lat="47.6783460" lon="7.5056200">
        <ele>-174.0</ele>
        <time>2022-06-03T07:09:28Z</time>
      </trkpt>
      <trkpt lat="47.6785350" lon="7.5056500">
        <ele>-174.4</ele>
        <time>2022-06-03T07:09:32Z</time>
      </trkpt>
      <trkpt lat="47.6787250" lon="7.5056880">
        <ele>-174.0</ele>
        <time>2022-06-03T07:09:36Z</time>
      </trkpt>
      <trkpt lat="47.6789080" lon="7.5057100">
        <ele>-174.0</ele>
        <time>2022-06-03T07:09:40Z</time>
      </trkpt>
      <trkpt lat="47.6791030" lon="7.5057380">
        <ele>-174.0</ele>
        <time>2022-06-03T07:09:44Z</time>
      </trkpt>
      <trkpt lat="47.6792980" lon="7.5057550">
        <ele>-173.8</ele>
        <time>2022-06-03T07:09:48Z</time>
      </trkpt>
      <trkpt lat="47.6794860" lon="7.5057880">
        <ele>-174.2</ele>
        <time>2022-06-03T07:09:52Z</time>
      </trkpt>
      <trkpt lat="47.6796880" lon="7.5058100">
        <ele>-174.2</ele>
        <time>2022-06-03T07:09:56Z</time>
      </trkpt>
      <trkpt lat="47.6798830" lon="7.5058460">
        <ele>-174.2</ele>
        <time>2022-06-03T07:10:00Z</time>
      </trkpt>
      <trkpt lat="47.6800660" lon="7.5058680">
        <ele>-174.2</ele>
        <time>2022-06-03T07:10:04Z</time>
      </trkpt>
      <trkpt lat="47.6802330" lon="7.5059080">
        <ele>-174.2</ele>
        <time>2022-06-03T07:10:08Z</time>
      </trkpt>
      <trkpt lat="47.6803760" lon="7.5059330">
        <ele>-174.2</ele>
        <time>2022-06-03T07:10:12Z</time>
      </trkpt>
      <trkpt lat="47.6804910" lon="7.5059560">
        <ele>-174.2</ele>
        <time>2022-06-03T07:10:16Z</time>
      </trkpt>
      <trkpt lat="47.6805730" lon="7.5059730">
        <ele>-174.2</ele>
        <time>2022-06-03T07:10:20Z</time>
      </trkpt>
      <trkpt lat="47.6805730" lon="7.5059730">
        <ele>-174.4</ele>
        <time>2022-06-03T07:10:24Z</time>
      </trkpt>
      <trkpt lat="47.6805810" lon="7.5059600">
        <ele>-174.4</ele>
        <time>2022-06-03T07:10:28Z</time>
      </trkpt>
      <trkpt lat="47.6805400" lon="7.5059580">
        <ele>-174.4</ele>
        <time>2022-06-03T07:10:32Z</time>
      </trkpt>
      <trkpt lat="47.6804730" lon="7.5059610">
        <ele>-174.8</ele>
        <time>2022-06-03T07:10:36Z</time>
      </trkpt>
      <trkpt lat="47.6804000" lon="7.5059510">
        <ele>-174.8</ele>
        <time>2022-06-03T07:10:40Z</time>
      </trkpt>
      <trkpt lat="47.6803430" lon="7.5059410">
        <ele>-174.2</ele>
        <time>2022-06-03T07:10:44Z</time>
      </trkpt>
      <trkpt lat="47.6803430" lon="7.5059410">
        <ele>-174.4</ele>
        <time>2022-06-03T07:10:48Z</time>
      </trkpt>
      <trkpt lat="47.6803430" lon="7.5059410">
        <ele>-174.6</ele>
        <time>2022-06-03T07:10:52Z</time>
      </trkpt>
      <trkpt lat="47.6803430" lon="7.5059410">
        <ele>-174.2</ele>
        <time>2022-06-03T07:10:56Z</time>
      </trkpt>
      <trkpt lat="47.6803430" lon="7.5059410">
        <ele>-174.0</ele>
        <time>2022-06-03T07:11:00Z</time>
      </trkpt>
      <trkpt lat="47.6803430" lon="7.5059410">
        <ele>-174.2</ele>
        <time>2022-06-03T07:11:04Z</time>
      </trkpt>
      <trkpt lat="47.6803430" lon="7.5059410">
        <ele>-174.2</ele>
        <time>2022-06-03T07:11:08Z</time>
      </trkpt>
      <trkpt lat="47.6803430" lon="7.5059410">
        <ele>-174.2</ele>
        <time>2022-06-03T07:11:12Z</time>
      </trkpt>
      <trkpt lat="47.6803430" lon="7.5059410">
        <ele>-174.6</ele>
        <time>2022-06-03T07:11:16Z</time>
      </trkpt>
      <trkpt lat="47.6803430" lon="7.5059410">
        <ele>-174.4</ele>
        <time>2022-06-03T07:11:20Z</time>
      </trkpt>
      <trkpt lat="47.6803430" lon="7.5059410">
        <ele>-174.2</ele>
        <time>2022-06-03T07:11:24Z</time>
      </trkpt>
      <trkpt lat="47.6803430" lon="7.5059410">
        <ele>-174.4</ele>
        <time>2022-06-03T07:11:28Z</time>
      </trkpt>
      <trkpt lat="47.6803430" lon="7.5059410">
        <ele>-174.2</ele>
        <time>2022-06-03T07:11:32Z</time>
      </trkpt>
      <trkpt lat="47.6803430" lon="7.5059410">
        <ele>-174.4</ele>
        <time>2022-06-03T07:11:36Z</time>
      </trkpt>
      <trkpt lat="47.6803430" lon="7.5059410">
        <ele>-174.0</ele>
        <time>2022-06-03T07:11:40Z</time>
      </trkpt>
      <trkpt lat="47.6803430" lon="7.5059410">
        <ele>-174.2</ele>
        <time>2022-06-03T07:11:44Z</time>
      </trkpt>
      <trkpt lat="47.6803430" lon="7.5059410">
        <ele>-175.0</ele>
        <time>2022-06-03T07:11:48Z</time>
      </trkpt>
      <trkpt lat="47.6803430" lon="7.5059410">
        <ele>-174.4</ele>
        <time>2022-06-03T07:11:52Z</time>
      </trkpt>
      <trkpt lat="47.6803430" lon="7.5059410">
        <ele>-174.6</ele>
        <time>2022-06-03T07:11:56Z</time>
      </trkpt>
      <trkpt lat="47.6803430" lon="7.5059410">
        <ele>-174.4</ele>
        <time>2022-06-03T07:12:00Z</time>
      </trkpt>
      <trkpt lat="47.6803430" lon="7.5059410">
        <ele>-174.6</ele>
        <time>2022-06-03T07:12:04Z</time>
      </trkpt>
      <trkpt lat="47.6803430" lon="7.5059410">
        <ele>-174.2</ele>
        <time>2022-06-03T07:12:08Z</time>
      </trkpt>
      <trkpt lat="47.6803430" lon="7.5059410">
        <ele>-174.2</ele>
        <time>2022-06-03T07:12:12Z</time>
      </trkpt>
      <trkpt lat="47.6803430" lon="7.5059410">
        <ele>-174.4</ele>
        <time>2022-06-03T07:12:16Z</time>
      </trkpt>
      <trkpt lat="47.6803430" lon="7.5059410">
        <ele>-174.2</ele>
        <time>2022-06-03T07:12:20Z</time>
      </trkpt>
      <trkpt lat="47.6803430" lon="7.5059410">
        <ele>-174.2</ele>
        <time>2022-06-03T07:12:24Z</time>
      </trkpt>
      <trkpt lat="47.6803430" lon="7.5059410">
        <ele>-174.0</ele>
        <time>2022-06-03T07:12:28Z</time>
      </trkpt>
      <trkpt lat="47.6803430" lon="7.5059410">
        <ele>-174.4</ele>
        <time>2022-06-03T07:12:32Z</time>
      </trkpt>
      <trkpt lat="47.6803430" lon="7.5059410">
        <ele>-174.2</ele>
        <time>2022-06-03T07:12:36Z</time>
      </trkpt>
      <trkpt lat="47.6803430" lon="7.5059410">
        <ele>-174.2</ele>
        <time>2022-06-03T07:12:40Z</time>
      </trkpt>
      <trkpt lat="47.6803430" lon="7.5059410">
        <ele>-173.8</ele>
        <time>2022-06-03T07:12:44Z</time>
      </trkpt>
      <trkpt lat="47.6803430" lon="7.5059410">
        <ele>-173.8</ele>
        <time>2022-06-03T07:12:48Z</time>
      </trkpt>
      <trkpt lat="47.6803430" lon="7.5059410">
        <ele>-174.0</ele>
        <time>2022-06-03T07:12:52Z</time>
      </trkpt>
      <trkpt lat="47.6803430" lon="7.5059410">
        <ele>-174.0</ele>
        <time>2022-06-03T07:12:56Z</time>
      </trkpt>
      <trkpt lat="47.6803430" lon="7.5059410">
        <ele>-174.2</ele>
        <time>2022-06-03T07:13:00Z</time>
      </trkpt>
      <trkpt lat="47.6803430" lon="7.5059410">
        <ele>-174.2</ele>
        <time>2022-06-03T07:13:04Z</time>
      </trkpt>
      <trkpt lat="47.6803430" lon="7.5059410">
        <ele>-174.2</ele>
        <time>2022-06-03T07:13:08Z</time>
      </trkpt>
      <trkpt lat="47.6803430" lon="7.5059410">
        <ele>-174.2</ele>
        <time>2022-06-03T07:13:12Z</time>
      </trkpt>
      <trkpt lat="47.6803430" lon="7.5059410">
        <ele>-174.4</ele>
        <time>2022-06-03T07:13:16Z</time>
      </trkpt>
      <trkpt lat="47.6803430" lon="7.5059410">
        <ele>-174.0</ele>
        <time>2022-06-03T07:13:20Z</time>
      </trkpt>
      <trkpt lat="47.6803430" lon="7.5059410">
        <ele>-174.2</ele>
        <time>2022-06-03T07:13:24Z</time>
      </trkpt>
      <trkpt lat="47.6803430" lon="7.5059410">
        <ele>-174.2</ele>
        <time>2022-06-03T07:13:28Z</time>
      </trkpt>
      <trkpt lat="47.6803100" lon="7.5059800">
        <ele>-174.2</ele>
        <time>2022-06-03T07:13:32Z</time>
      </trkpt>
      <trkpt lat="47.6803480" lon="7.5059810">
        <ele>-173.8</ele>
        <time>2022-06-03T07:13:36Z</time>
      </trkpt>
      <trkpt lat="47.6803650" lon="7.5059750">
        <ele>-173.6</ele>
        <time>2022-06-03T07:13:40Z</time>
      </trkpt>
      <trkpt lat="47.6804300" lon="7.5059650">
        <ele>-173.8</ele>
        <time>2022-06-03T07:13:44Z</time>
      </trkpt>
      <trkpt lat="47.6805210" lon="7.5059630">
        <ele>-173.6</ele>
        <time>2022-06-03T07:13:48Z</time>
      </trkpt>
      <trkpt lat="47.6806360" lon="7.5059730">
        <ele>-173.4</ele>
        <time>2022-06-03T07:13:52Z</time>
      </trkpt>
      <trkpt lat="47.6807700" lon="7.5059910">
        <ele>-173.6</ele>
        <time>2022-06-03T07:13:56Z</time>
      </trkpt>
      <trkpt lat="47.6809200" lon="7.5060130">
        <ele>-173.2</ele>
        <time>2022-06-03T07:14:00Z</time>
      </trkpt>
      <trkpt lat="47.6810960" lon="7.5060360">
        <ele>-173.6</ele>
        <time>2022-06-03T07:14:04Z</time>
      </trkpt>
      <trkpt lat="47.6812880" lon="7.5060610">
        <ele>-173.4</ele>
        <time>2022-06-03T07:14:08Z</time>
      </trkpt>
      <trkpt lat="47.6814810" lon="7.5060960">
        <ele>-173.0</ele>
        <time>2022-06-03T07:14:12Z</time>
      </trkpt>
      <trkpt lat="47.6816730" lon="7.5061180">
        <ele>-173.4</ele>
        <time>2022-06-03T07:14:16Z</time>
      </trkpt>
      <trkpt lat="47.6818680" lon="7.5061560">
        <ele>-173.6</ele>
        <time>2022-06-03T07:14:20Z</time>
      </trkpt>
      <trkpt lat="47.6820680" lon="7.5061900">
        <ele>-172.8</ele>
        <time>2022-06-03T07:14:24Z</time>
      </trkpt>
      <trkpt lat="47.6822580" lon="7.5062130">
        <ele>-173.2</ele>
        <time>2022-06-03T07:14:28Z</time>
      </trkpt>
      <trkpt lat="47.6824360" lon="7.5062380">
        <ele>-173.6</ele>
        <time>2022-06-03T07:14:32Z</time>
      </trkpt>
      <trkpt lat="47.6826180" lon="7.5062760">
        <ele>-173.4</ele>
        <time>2022-06-03T07:14:36Z</time>
      </trkpt>
      <trkpt lat="47.6828000" lon="7.5063100">
        <ele>-173.4</ele>
        <time>2022-06-03T07:14:40Z</time>
      </trkpt>
      <trkpt lat="47.6829830" lon="7.5063230">
        <ele>-173.4</ele>
        <time>2022-06-03T07:14:44Z</time>
      </trkpt>
      <trkpt lat="47.6831550" lon="7.5063430">
        <ele>-173.4</ele>
        <time>2022-06-03T07:14:48Z</time>
      </trkpt>
      <trkpt lat="47.6833330" lon="7.5063610">
        <ele>-173.4</ele>
        <time>2022-06-03T07:14:52Z</time>
      </trkpt>
      <trkpt lat="47.6835050" lon="7.5063980">
        <ele>-173.2</ele>
        <time>2022-06-03T07:14:56Z</time>
      </trkpt>
      <trkpt lat="47.6836830" lon="7.5064230">
        <ele>-173.4</ele>
        <time>2022-06-03T07:15:00Z</time>
      </trkpt>
      <trkpt lat="47.6838610" lon="7.5064410">
        <ele>-173.2</ele>
        <time>2022-06-03T07:15:04Z</time>
      </trkpt>
      <trkpt lat="47.6840430" lon="7.5064730">
        <ele>-174.0</ele>
        <time>2022-06-03T07:15:08Z</time>
      </trkpt>
      <trkpt lat="47.6842300" lon="7.5064930">
        <ele>-173.4</ele>
        <time>2022-06-03T07:15:12Z</time>
      </trkpt>
      <trkpt lat="47.6844130" lon="7.5065330">
        <ele>-173.4</ele>
        <time>2022-06-03T07:15:16Z</time>
      </trkpt>
      <trkpt lat="47.6845910" lon="7.5065550">
        <ele>-173.4</ele>
        <time>2022-06-03T07:15:20Z</time>
      </trkpt>
      <trkpt lat="47.6847630" lon="7.5065800">
        <ele>-173.0</ele>
        <time>2022-06-03T07:15:24Z</time>
      </trkpt>
      <trkpt lat="47.6849500" lon="7.5066180">
        <ele>-173.4</ele>
        <time>2022-06-03T07:15:28Z</time>
      </trkpt>
      <trkpt lat="47.6851260" lon="7.5066360">
        <ele>-173.4</ele>
        <time>2022-06-03T07:15:32Z</time>
      </trkpt>
      <trkpt lat="47.6852950" lon="7.5066680">
        <ele>-173.8</ele>
        <time>2022-06-03T07:15:36Z</time>
      </trkpt>
      <trkpt lat="47.6854730" lon="7.5067010">
        <ele>-174.0</ele>
        <time>2022-06-03T07:15:40Z</time>
      </trkpt>
      <trkpt lat="47.6856550" lon="7.5067250">
        <ele>-173.4</ele>
        <time>2022-06-03T07:15:44Z</time>
      </trkpt>
      <trkpt lat="47.6858450" lon="7.5067380">
        <ele>-173.6</ele>
        <time>2022-06-03T07:15:48Z</time>
      </trkpt>
      <trkpt lat="47.6860310" lon="7.5067830">
        <ele>-174.2</ele>
        <time>2022-06-03T07:15:52Z</time>
      </trkpt>
      <trkpt lat="47.6862050" lon="7.5068110">
        <ele>-173.0</ele>
        <time>2022-06-03T07:15:56Z</time>
      </trkpt>
      <trkpt lat="47.6863680" lon="7.5068480">
        <ele>-173.6</ele>
        <time>2022-06-03T07:16:00Z</time>
      </trkpt>
      <trkpt lat="47.6865160" lon="7.5068710">
        <ele>-173.4</ele>
        <time>2022-06-03T07:16:04Z</time>
      </trkpt>
      <trkpt lat="47.6865160" lon="7.5068710">
        <ele>-173.4</ele>
        <time>2022-06-03T07:16:08Z</time>
      </trkpt>
      <trkpt lat="47.6865550" lon="7.5069030">
        <ele>-173.0</ele>
        <time>2022-06-03T07:16:12Z</time>
      </trkpt>
      <trkpt lat="47.6865610" lon="7.5069880">
        <ele>-173.0</ele>
        <time>2022-06-03T07:16:16Z</time>
      </trkpt>
      <trkpt lat="47.6865510" lon="7.5071080">
        <ele>-172.8</ele>
        <time>2022-06-03T07:16:20Z</time>
      </trkpt>
      <trkpt lat="47.6865400" lon="7.5072610">
        <ele>-172.8</ele>
        <time>2022-06-03T07:16:24Z</time>
      </trkpt>
      <trkpt lat="47.6865230" lon="7.5074260">
        <ele>-173.4</ele>
        <time>2022-06-03T07:16:28Z</time>
      </trkpt>
      <trkpt lat="47.6864650" lon="7.5075730">
        <ele>-173.4</ele>
        <time>2022-06-03T07:16:32Z</time>
      </trkpt>
      <trkpt lat="47.6865160" lon="7.5077380">
        <ele>-174.6</ele>
        <time>2022-06-03T07:16:36Z</time>
      </trkpt>
      <trkpt lat="47.6866030" lon="7.5078260">
        <ele>-175.0</ele>
        <time>2022-06-03T07:16:40Z</time>
      </trkpt>
      <trkpt lat="47.6866260" lon="7.5079430">
        <ele>-175.4</ele>
        <time>2022-06-03T07:16:44Z</time>
      </trkpt>
      <trkpt lat="47.6866850" lon="7.5079650">
        <ele>-175.4</ele>
        <time>2022-06-03T07:16:48Z</time>
      </trkpt>
      <trkpt lat="47.6867910" lon="7.5079630">
        <ele>-175.8</ele>
        <time>2022-06-03T07:16:52Z</time>
      </trkpt>
      <trkpt lat="47.6869350" lon="7.5079780">
        <ele>-175.6</ele>
        <time>2022-06-03T07:16:56Z</time>
      </trkpt>
      <trkpt lat="47.6870860" lon="7.5080010">
        <ele>-175.8</ele>
        <time>2022-06-03T07:17:00Z</time>
      </trkpt>
      <trkpt lat="47.6872410" lon="7.5080250">
        <ele>-175.6</ele>
        <time>2022-06-03T07:17:04Z</time>
      </trkpt>
      <trkpt lat="47.6873980" lon="7.5080430">
        <ele>-175.2</ele>
        <time>2022-06-03T07:17:08Z</time>
      </trkpt>
      <trkpt lat="47.6875550" lon="7.5080660">
        <ele>-174.8</ele>
        <time>2022-06-03T07:17:12Z</time>
      </trkpt>
      <trkpt lat="47.6877150" lon="7.5080860">
        <ele>-175.0</ele>
        <time>2022-06-03T07:17:16Z</time>
      </trkpt>
      <trkpt lat="47.6878730" lon="7.5081100">
        <ele>-175.8</ele>
        <time>2022-06-03T07:17:20Z</time>
      </trkpt>
      <trkpt lat="47.6880330" lon="7.5081030">
        <ele>-174.8</ele>
        <time>2022-06-03T07:17:24Z</time>
      </trkpt>
      <trkpt lat="47.6880910" lon="7.5079180">
        <ele>-174.0</ele>
        <time>2022-06-03T07:17:28Z</time>
      </trkpt>
      <trkpt lat="47.6881210" lon="7.5077710">
        <ele>-174.0</ele>
        <time>2022-06-03T07:17:32Z</time>
      </trkpt>
      <trkpt lat="47.6881750" lon="7.5076560">
        <ele>-173.2</ele>
        <time>2022-06-03T07:17:36Z</time>
      </trkpt>
      <trkpt lat="47.6882550" lon="7.5075480">
        <ele>-173.4</ele>
        <time>2022-06-03T07:17:40Z</time>
      </trkpt>
      <trkpt lat="47.6883560" lon="7.5074580">
        <ele>-173.4</ele>
        <time>2022-06-03T07:17:44Z</time>
      </trkpt>
      <trkpt lat="47.6884380" lon="7.5074500">
        <ele>-173.4</ele>
        <time>2022-06-03T07:17:48Z</time>
      </trkpt>
      <trkpt lat="47.6883930" lon="7.5074710">
        <ele>-172.8</ele>
        <time>2022-06-03T07:17:52Z</time>
      </trkpt>
      <trkpt lat="47.6883300" lon="7.5074780">
        <ele>-173.0</ele>
        <time>2022-06-03T07:17:56Z</time>
      </trkpt>
      <trkpt lat="47.6883300" lon="7.5074780">
        <ele>-173.0</ele>
        <time>2022-06-03T07:18:00Z</time>
      </trkpt>
      <trkpt lat="47.6883300" lon="7.5074780">
        <ele>-172.8</ele>
        <time>2022-06-03T07:18:04Z</time>
      </trkpt>
      <trkpt lat="47.6883280" lon="7.5074550">
        <ele>-173.0</ele>
        <time>2022-06-03T07:18:08Z</time>
      </trkpt>
      <trkpt lat="47.6883280" lon="7.5074550">
        <ele>-172.8</ele>
        <time>2022-06-03T07:18:12Z</time>
      </trkpt>
      <trkpt lat="47.6883280" lon="7.5074460">
        <ele>-173.4</ele>
        <time>2022-06-03T07:18:16Z</time>
      </trkpt>
      <trkpt lat="47.6883580" lon="7.5074560">
        <ele>-173.4</ele>
        <time>2022-06-03T07:18:20Z</time>
      </trkpt>
      <trkpt lat="47.6884230" lon="7.5074200">
        <ele>-173.4</ele>
        <time>2022-06-03T07:18:24Z</time>
      </trkpt>
      <trkpt lat="47.6885300" lon="7.5074050">
        <ele>-172.6</ele>
        <time>2022-06-03T07:18:28Z</time>
      </trkpt>
      <trkpt lat="47.6886910" lon="7.5073950">
        <ele>-173.4</ele>
        <time>2022-06-03T07:18:32Z</time>
      </trkpt>
      <trkpt lat="47.6888610" lon="7.5073780">
        <ele>-172.6</ele>
        <time>2022-06-03T07:18:36Z</time>
      </trkpt>
      <trkpt lat="47.6890260" lon="7.5073680">
        <ele>-172.8</ele>
        <time>2022-06-03T07:18:40Z</time>
      </trkpt>
      <trkpt lat="47.6892030" lon="7.5073550">
        <ele>-173.0</ele>
        <time>2022-06-03T07:18:44Z</time>
      </trkpt>
      <trkpt lat="47.6893800" lon="7.5073400">
        <ele>-172.8</ele>
        <time>2022-06-03T07:18:48Z</time>
      </trkpt>
      <trkpt lat="47.6895600" lon="7.5073200">
        <ele>-172.8</ele>
        <time>2022-06-03T07:18:52Z</time>
      </trkpt>
      <trkpt lat="47.6897430" lon="7.5073050">
        <ele>-172.6</ele>
        <time>2022-06-03T07:18:56Z</time>
      </trkpt>
      <trkpt lat="47.6899260" lon="7.5072910">
        <ele>-173.0</ele>
        <time>2022-06-03T07:19:00Z</time>
      </trkpt>
      <trkpt lat="47.6901030" lon="7.5072710">
        <ele>-172.8</ele>
        <time>2022-06-03T07:19:04Z</time>
      </trkpt>
      <trkpt lat="47.6902950" lon="7.5072360">
        <ele>-173.0</ele>
        <time>2022-06-03T07:19:08Z</time>
      </trkpt>
      <trkpt lat="47.6904910" lon="7.5072200">
        <ele>-172.8</ele>
        <time>2022-06-03T07:19:12Z</time>
      </trkpt>
      <trkpt lat="47.6906850" lon="7.5072000">
        <ele>-172.8</ele>
        <time>2022-06-03T07:19:16Z</time>
      </trkpt>
      <trkpt lat="47.6908730" lon="7.5071780">
        <ele>-173.4</ele>
        <time>2022-06-03T07:19:20Z</time>
      </trkpt>
      <trkpt lat="47.6910710" lon="7.5071600">
        <ele>-172.8</ele>
        <time>2022-06-03T07:19:24Z</time>
      </trkpt>
      <trkpt lat="47.6912660" lon="7.5071500">
        <ele>-172.8</ele>
        <time>2022-06-03T07:19:28Z</time>
      </trkpt>
      <trkpt lat="47.6914650" lon="7.5071110">
        <ele>-173.0</ele>
        <time>2022-06-03T07:19:32Z</time>
      </trkpt>
      <trkpt lat="47.6916550" lon="7.5070830">
        <ele>-173.4</ele>
        <time>2022-06-03T07:19:36Z</time>
      </trkpt>
      <trkpt lat="47.6918460" lon="7.5070560">
        <ele>-173.0</ele>
        <time>2022-06-03T07:19:40Z</time>
      </trkpt>
      <trkpt lat="47.6920350" lon="7.5070460">
        <ele>-173.4</ele>
        <time>2022-06-03T07:19:44Z</time>
      </trkpt>
      <trkpt lat="47.6922230" lon="7.5070360">
        <ele>-173.6</ele>
        <time>2022-06-03T07:19:48Z</time>
      </trkpt>
      <trkpt lat="47.6924110" lon="7.5070210">
        <ele>-173.4</ele>
        <time>2022-06-03T07:19:52Z</time>
      </trkpt>
      <trkpt lat="47.6926000" lon="7.5070050">
        <ele>-173.4</ele>
        <time>2022-06-03T07:19:56Z</time>
      </trkpt>
      <trkpt lat="47.6927810" lon="7.5069800">
        <ele>-172.8</ele>
        <time>2022-06-03T07:20:00Z</time>
      </trkpt>
      <trkpt lat="47.6929680" lon="7.5069610">
        <ele>-172.8</ele>
        <time>2022-06-03T07:20:04Z</time>
      </trkpt>
      <trkpt lat="47.6931550" lon="7.5069410">
        <ele>-173.2</ele>
        <time>2022-06-03T07:20:08Z</time>
      </trkpt>
      <trkpt lat="47.6933410" lon="7.5069330">
        <ele>-173.2</ele>
        <time>2022-06-03T07:20:12Z</time>
      </trkpt>
      <trkpt lat="47.6935260" lon="7.5069280">
        <ele>-172.8</ele>
        <time>2022-06-03T07:20:16Z</time>
      </trkpt>
      <trkpt lat="47.6937110" lon="7.5069060">
        <ele>-173.4</ele>
        <time>2022-06-03T07:20:20Z</time>
      </trkpt>
      <trkpt lat="47.6938950" lon="7.5068850">
        <ele>-172.4</ele>
        <time>2022-06-03T07:20:24Z</time>
      </trkpt>
      <trkpt lat="47.6940780" lon="7.5068660">
        <ele>-172.6</ele>
        <time>2022-06-03T07:20:28Z</time>
      </trkpt>
      <trkpt lat="47.6942580" lon="7.5068700">
        <ele>-173.0</ele>
        <time>2022-06-03T07:20:32Z</time>
      </trkpt>
      <trkpt lat="47.6944500" lon="7.5068860">
        <ele>-173.6</ele>
        <time>2022-06-03T07:20:36Z</time>
      </trkpt>
      <trkpt lat="47.6946680" lon="7.5068830">
        <ele>-175.2</ele>
        <time>2022-06-03T07:20:40Z</time>
      </trkpt>
      <trkpt lat="47.6949350" lon="7.5068650">
        <ele>-176.6</ele>
        <time>2022-06-03T07:20:44Z</time>
      </trkpt>
      <trkpt lat="47.6952100" lon="7.5068000">
        <ele>-177.4</ele>
        <time>2022-06-03T07:20:48Z</time>
      </trkpt>
      <trkpt lat="47.6954800" lon="7.5067130">
        <ele>-178.6</ele>
        <time>2022-06-03T07:20:52Z</time>
      </trkpt>
      <trkpt lat="47.6957460" lon="7.5066750">
        <ele>-179.2</ele>
        <time>2022-06-03T07:20:56Z</time>
      </trkpt>
      <trkpt lat="47.6960180" lon="7.5067610">
        <ele>-179.2</ele>
        <time>2022-06-03T07:21:00Z</time>
      </trkpt>
      <trkpt lat="47.6962100" lon="7.5068780">
        <ele>-178.4</ele>
        <time>2022-06-03T07:21:04Z</time>
      </trkpt>
      <trkpt lat="47.6963950" lon="7.5068780">
        <ele>-177.0</ele>
        <time>2022-06-03T07:21:08Z</time>
      </trkpt>
      <trkpt lat="47.6965730" lon="7.5068580">
        <ele>-176.6</ele>
        <time>2022-06-03T07:21:12Z</time>
      </trkpt>
      <trkpt lat="47.6967510" lon="7.5068550">
        <ele>-177.0</ele>
        <time>2022-06-03T07:21:16Z</time>
      </trkpt>
      <trkpt lat="47.6969280" lon="7.5068280">
        <ele>-176.8</ele>
        <time>2022-06-03T07:21:20Z</time>
      </trkpt>
      <trkpt lat="47.6970360" lon="7.5066600">
        <ele>-176.4</ele>
        <time>2022-06-03T07:21:24Z</time>
      </trkpt>
      <trkpt lat="47.6970280" lon="7.5064260">
        <ele>-175.8</ele>
        <time>2022-06-03T07:21:28Z</time>
      </trkpt>
      <trkpt lat="47.6970050" lon="7.5062060">
        <ele>-174.6</ele>
        <time>2022-06-03T07:21:32Z</time>
      </trkpt>
      <trkpt lat="47.6970480" lon="7.5060010">
        <ele>-174.2</ele>
        <time>2022-06-03T07:21:36Z</time>
      </trkpt>
      <trkpt lat="47.6971510" lon="7.5058560">
        <ele>-174.0</ele>
        <time>2022-06-03T07:21:40Z</time>
      </trkpt>
      <trkpt lat="47.6972780" lon="7.5057600">
        <ele>-173.0</ele>
        <time>2022-06-03T07:21:44Z</time>
      </trkpt>
      <trkpt lat="47.6973930" lon="7.5056800">
        <ele>-172.4</ele>
        <time>2022-06-03T07:21:48Z</time>
      </trkpt>
      <trkpt lat="47.6975110" lon="7.5056080">
        <ele>-172.0</ele>
        <time>2022-06-03T07:21:52Z</time>
      </trkpt>
      <trkpt lat="47.6976350" lon="7.5055510">
        <ele>-171.2</ele>
        <time>2022-06-03T07:21:56Z</time>
      </trkpt>
      <trkpt lat="47.6977710" lon="7.5054980">
        <ele>-171.4</ele>
        <time>2022-06-03T07:22:00Z</time>
      </trkpt>
      <trkpt lat="47.6979060" lon="7.5054450">
        <ele>-170.2</ele>
        <time>2022-06-03T07:22:04Z</time>
      </trkpt>
      <trkpt lat="47.6980350" lon="7.5054410">
        <ele>-170.2</ele>
        <time>2022-06-03T07:22:08Z</time>
      </trkpt>
      <trkpt lat="47.6981650" lon="7.5054500">
        <ele>-169.2</ele>
        <time>2022-06-03T07:22:12Z</time>
      </trkpt>
      <trkpt lat="47.6982960" lon="7.5054830">
        <ele>-169.2</ele>
        <time>2022-06-03T07:22:16Z</time>
      </trkpt>
      <trkpt lat="47.6984530" lon="7.5054760">
        <ele>-169.4</ele>
        <time>2022-06-03T07:22:20Z</time>
      </trkpt>
      <trkpt lat="47.6986360" lon="7.5054280">
        <ele>-169.4</ele>
        <time>2022-06-03T07:22:24Z</time>
      </trkpt>
      <trkpt lat="47.6988360" lon="7.5053780">
        <ele>-169.8</ele>
        <time>2022-06-03T07:22:28Z</time>
      </trkpt>
      <trkpt lat="47.6990510" lon="7.5053310">
        <ele>-170.6</ele>
        <time>2022-06-03T07:22:32Z</time>
      </trkpt>
      <trkpt lat="47.6992800" lon="7.5053110">
        <ele>-171.4</ele>
        <time>2022-06-03T07:22:36Z</time>
      </trkpt>
      <trkpt lat="47.6995360" lon="7.5053350">
        <ele>-171.6</ele>
        <time>2022-06-03T07:22:40Z</time>
      </trkpt>
      <trkpt lat="47.6998050" lon="7.5053800">
        <ele>-171.8</ele>
        <time>2022-06-03T07:22:44Z</time>
      </trkpt>
      <trkpt lat="47.7000600" lon="7.5054860">
        <ele>-172.2</ele>
        <time>2022-06-03T07:22:48Z</time>
      </trkpt>
      <trkpt lat="47.7002330" lon="7.5057860">
        <ele>-173.6</ele>
        <time>2022-06-03T07:22:52Z</time>
      </trkpt>
      <trkpt lat="47.7003280" lon="7.5061450">
        <ele>-173.4</ele>
        <time>2022-06-03T07:22:56Z</time>
      </trkpt>
      <trkpt lat="47.7003560" lon="7.5064800">
        <ele>-173.4</ele>
        <time>2022-06-03T07:23:00Z</time>
      </trkpt>
      <trkpt lat="47.7004580" lon="7.5067500">
        <ele>-173.4</ele>
        <time>2022-06-03T07:23:04Z</time>
      </trkpt>
      <trkpt lat="47.7006300" lon="7.5069010">
        <ele>-172.2</ele>
        <time>2022-06-03T07:23:08Z</time>
      </trkpt>
      <trkpt lat="47.7008360" lon="7.5069380">
        <ele>-172.4</ele>
        <time>2022-06-03T07:23:12Z</time>
      </trkpt>
      <trkpt lat="47.7010650" lon="7.5069410">
        <ele>-172.4</ele>
        <time>2022-06-03T07:23:16Z</time>
      </trkpt>
      <trkpt lat="47.7013080" lon="7.5068900">
        <ele>-172.6</ele>
        <time>2022-06-03T07:23:20Z</time>
      </trkpt>
      <trkpt lat="47.7015430" lon="7.5067810">
        <ele>-172.6</ele>
        <time>2022-06-03T07:23:24Z</time>
      </trkpt>
      <trkpt lat="47.7017700" lon="7.5066110">
        <ele>-172.6</ele>
        <time>2022-06-03T07:23:28Z</time>
      </trkpt>
      <trkpt lat="47.7019800" lon="7.5063860">
        <ele>-173.2</ele>
        <time>2022-06-03T07:23:32Z</time>
      </trkpt>
      <trkpt lat="47.7021580" lon="7.5061350">
        <ele>-172.8</ele>
        <time>2022-06-03T07:23:36Z</time>
      </trkpt>
      <trkpt lat="47.7023000" lon="7.5058780">
        <ele>-172.8</ele>
        <time>2022-06-03T07:23:40Z</time>
      </trkpt>
      <trkpt lat="47.7025010" lon="7.5057650">
        <ele>-173.0</ele>
        <time>2022-06-03T07:23:44Z</time>
      </trkpt>
      <trkpt lat="47.7027350" lon="7.5056710">
        <ele>-172.6</ele>
        <time>2022-06-03T07:23:48Z</time>
      </trkpt>
      <trkpt lat="47.7029560" lon="7.5056150">
        <ele>-171.8</ele>
        <time>2022-06-03T07:23:52Z</time>
      </trkpt>
      <trkpt lat="47.7031800" lon="7.5055700">
        <ele>-172.2</ele>
        <time>2022-06-03T07:23:56Z</time>
      </trkpt>
      <trkpt lat="47.7034060" lon="7.5055300">
        <ele>-172.2</ele>
        <time>2022-06-03T07:24:00Z</time>
      </trkpt>
      <trkpt lat="47.7036350" lon="7.5055160">
        <ele>-171.8</ele>
        <time>2022-06-03T07:24:04Z</time>
      </trkpt>
      <trkpt lat="47.7038530" lon="7.5055380">
        <ele>-172.0</ele>
        <time>2022-06-03T07:24:08Z</time>
      </trkpt>
      <trkpt lat="47.7040750" lon="7.5055310">
        <ele>-171.6</ele>
        <time>2022-06-03T07:24:12Z</time>
      </trkpt>
      <trkpt lat="47.7043130" lon="7.5055100">
        <ele>-172.0</ele>
        <time>2022-06-03T07:24:16Z</time>
      </trkpt>
      <trkpt lat="47.7045410" lon="7.5053930">
        <ele>-172.0</ele>
        <time>2022-06-03T07:24:20Z</time>
      </trkpt>
      <trkpt lat="47.7047300" lon="7.5051760">
        <ele>-172.4</ele>
        <time>2022-06-03T07:24:24Z</time>
      </trkpt>
      <trkpt lat="47.7048810" lon="7.5048950">
        <ele>-172.4</ele>
        <time>2022-06-03T07:24:28Z</time>
      </trkpt>
      <trkpt lat="47.7050180" lon="7.5046060">
        <ele>-172.2</ele>
        <time>2022-06-03T07:24:32Z</time>
      </trkpt>
      <trkpt lat="47.7051450" lon="7.5043280">
        <ele>-171.8</ele>
        <time>2022-06-03T07:24:36Z</time>
      </trkpt>
      <trkpt lat="47.7053000" lon="7.5040780">
        <ele>-172.6</ele>
        <time>2022-06-03T07:24:40Z</time>
      </trkpt>
      <trkpt lat="47.7054750" lon="7.5038600">
        <ele>-172.0</ele>
        <time>2022-06-03T07:24:44Z</time>
      </trkpt>
      <trkpt lat="47.7056730" lon="7.5036760">
        <ele>-171.8</ele>
        <time>2022-06-03T07:24:48Z</time>
      </trkpt>
      <trkpt lat="47.7058850" lon="7.5035350">
        <ele>-171.8</ele>
        <time>2022-06-03T07:24:52Z</time>
      </trkpt>
      <trkpt lat="47.7061000" lon="7.5034380">
        <ele>-172.4</ele>
        <time>2022-06-03T07:24:56Z</time>
      </trkpt>
      <trkpt lat="47.7063180" lon="7.5033850">
        <ele>-171.8</ele>
        <time>2022-06-03T07:25:00Z</time>
      </trkpt>
      <trkpt lat="47.7065350" lon="7.5033560">
        <ele>-172.0</ele>
        <time>2022-06-03T07:25:04Z</time>
      </trkpt>
      <trkpt lat="47.7067410" lon="7.5032860">
        <ele>-172.0</ele>
        <time>2022-06-03T07:25:08Z</time>
      </trkpt>
      <trkpt lat="47.7069260" lon="7.5031600">
        <ele>-171.6</ele>
        <time>2022-06-03T07:25:12Z</time>
      </trkpt>
      <trkpt lat="47.7070930" lon="7.5029980">
        <ele>-172.2</ele>
        <time>2022-06-03T07:25:16Z</time>
      </trkpt>
      <trkpt lat="47.7072500" lon="7.5028010">
        <ele>-172.2</ele>
        <time>2022-06-03T07:25:20Z</time>
      </trkpt>
      <trkpt lat="47.7074250" lon="7.5026300">
        <ele>-172.0</ele>
        <time>2022-06-03T07:25:24Z</time>
      </trkpt>
      <trkpt lat="47.7076250" lon="7.5025410">
        <ele>-172.0</ele>
        <time>2022-06-03T07:25:28Z</time>
      </trkpt>
      <trkpt lat="47.7078400" lon="7.5025060">
        <ele>-172.0</ele>
        <time>2022-06-03T07:25:32Z</time>
      </trkpt>
      <trkpt lat="47.7080600" lon="7.5024510">
        <ele>-172.0</ele>
        <time>2022-06-03T07:25:36Z</time>
      </trkpt>
      <trkpt lat="47.7082850" lon="7.5023550">
        <ele>-172.0</ele>
        <time>2022-06-03T07:25:40Z</time>
      </trkpt>
      <trkpt lat="47.7085010" lon="7.5022310">
        <ele>-171.8</ele>
        <time>2022-06-03T07:25:44Z</time>
      </trkpt>
      <trkpt lat="47.7087080" lon="7.5021100">
        <ele>-171.8</ele>
        <time>2022-06-03T07:25:48Z</time>
      </trkpt>
      <trkpt lat="47.7089100" lon="7.5020100">
        <ele>-172.0</ele>
        <time>2022-06-03T07:25:52Z</time>
      </trkpt>
      <trkpt lat="47.7091180" lon="7.5019480">
        <ele>-171.8</ele>
        <time>2022-06-03T07:25:56Z</time>
      </trkpt>
      <trkpt lat="47.7093160" lon="7.5019860">
        <ele>-171.2</ele>
        <time>2022-06-03T07:26:00Z</time>
      </trkpt>
      <trkpt lat="47.7094750" lon="7.5021600">
        <ele>-170.6</ele>
        <time>2022-06-03T07:26:04Z</time>
      </trkpt>
      <trkpt lat="47.7095750" lon="7.5023830">
        <ele>-170.2</ele>
        <time>2022-06-03T07:26:08Z</time>
      </trkpt>
      <trkpt lat="47.7096860" lon="7.5024150">
        <ele>-170.6</ele>
        <time>2022-06-03T07:26:12Z</time>
      </trkpt>
      <trkpt lat="47.7096600" lon="7.5022600">
        <ele>-169.0</ele>
        <time>2022-06-03T07:26:16Z</time>
      </trkpt>
      <trkpt lat="47.7096280" lon="7.5021410">
        <ele>-168.8</ele>
        <time>2022-06-03T07:26:20Z</time>
      </trkpt>
      <trkpt lat="47.7095950" lon="7.5019900">
        <ele>-168.6</ele>
        <time>2022-06-03T07:26:24Z</time>
      </trkpt>
      <trkpt lat="47.7095450" lon="7.5018260">
        <ele>-168.0</ele>
        <time>2022-06-03T07:26:28Z</time>
      </trkpt>
      <trkpt lat="47.7095080" lon="7.5016900">
        <ele>-167.6</ele>
        <time>2022-06-03T07:26:32Z</time>
      </trkpt>
      <trkpt lat="47.7094780" lon="7.5015580">
        <ele>-167.0</ele>
        <time>2022-06-03T07:26:36Z</time>
      </trkpt>
      <trkpt lat="47.7094410" lon="7.5014460">
        <ele>-167.2</ele>
        <time>2022-06-03T07:26:40Z</time>
      </trkpt>
      <trkpt lat="47.7094130" lon="7.5013030">
        <ele>-166.8</ele>
        <time>2022-06-03T07:26:44Z</time>
      </trkpt>
      <trkpt lat="47.7093800" lon="7.5011480">
        <ele>-167.2</ele>
        <time>2022-06-03T07:26:48Z</time>
      </trkpt>
      <trkpt lat="47.7093260" lon="7.5009630">
        <ele>-168.0</ele>
        <time>2022-06-03T07:26:52Z</time>
      </trkpt>
      <trkpt lat="47.7093330" lon="7.5007380">
        <ele>-167.8</ele>
        <time>2022-06-03T07:26:56Z</time>
      </trkpt>
      <trkpt lat="47.7094530" lon="7.5006380">
        <ele>-168.8</ele>
        <time>2022-06-03T07:27:00Z</time>
      </trkpt>
      <trkpt lat="47.7096550" lon="7.5006310">
        <ele>-170.6</ele>
        <time>2022-06-03T07:27:04Z</time>
      </trkpt>
      <trkpt lat="47.7099100" lon="7.5006500">
        <ele>-172.2</ele>
        <time>2022-06-03T07:27:08Z</time>
      </trkpt>
      <trkpt lat="47.7101910" lon="7.5006730">
        <ele>-172.2</ele>
        <time>2022-06-03T07:27:12Z</time>
      </trkpt>
      <trkpt lat="47.7104410" lon="7.5006700">
        <ele>-172.0</ele>
        <time>2022-06-03T07:27:16Z</time>
      </trkpt>
      <trkpt lat="47.7106630" lon="7.5006360">
        <ele>-172.4</ele>
        <time>2022-06-03T07:27:20Z</time>
      </trkpt>
      <trkpt lat="47.7108660" lon="7.5006030">
        <ele>-173.0</ele>
        <time>2022-06-03T07:27:24Z</time>
      </trkpt>
      <trkpt lat="47.7110610" lon="7.5005710">
        <ele>-172.8</ele>
        <time>2022-06-03T07:27:28Z</time>
      </trkpt>
      <trkpt lat="47.7112430" lon="7.5005360">
        <ele>-172.6</ele>
        <time>2022-06-03T07:27:32Z</time>
      </trkpt>
      <trkpt lat="47.7114210" lon="7.5005010">
        <ele>-172.4</ele>
        <time>2022-06-03T07:27:36Z</time>
      </trkpt>
      <trkpt lat="47.7116000" lon="7.5004580">
        <ele>-172.0</ele>
        <time>2022-06-03T07:27:40Z</time>
      </trkpt>
      <trkpt lat="47.7117810" lon="7.5004050">
        <ele>-172.2</ele>
        <time>2022-06-03T07:27:44Z</time>
      </trkpt>
      <trkpt lat="47.7119550" lon="7.5003580">
        <ele>-172.8</ele>
        <time>2022-06-03T07:27:48Z</time>
      </trkpt>
      <trkpt lat="47.7121250" lon="7.5003080">
        <ele>-171.6</ele>
        <time>2022-06-03T07:27:52Z</time>
      </trkpt>
      <trkpt lat="47.7122830" lon="7.5002700">
        <ele>-171.6</ele>
        <time>2022-06-03T07:27:56Z</time>
      </trkpt>
      <trkpt lat="47.7124480" lon="7.5002180">
        <ele>-172.0</ele>
        <time>2022-06-03T07:28:00Z</time>
      </trkpt>
      <trkpt lat="47.7126150" lon="7.5001550">
        <ele>-171.2</ele>
        <time>2022-06-03T07:28:04Z</time>
      </trkpt>
      <trkpt lat="47.7127780" lon="7.5000950">
        <ele>-171.6</ele>
        <time>2022-06-03T07:28:08Z</time>
      </trkpt>
      <trkpt lat="47.7129330" lon="7.5000380">
        <ele>-171.2</ele>
        <time>2022-06-03T07:28:12Z</time>
      </trkpt>
      <trkpt lat="47.7130860" lon="7.5000100">
        <ele>-171.6</ele>
        <time>2022-06-03T07:28:16Z</time>
      </trkpt>
      <trkpt lat="47.7132480" lon="7.4999700">
        <ele>-172.0</ele>
        <time>2022-06-03T07:28:20Z</time>
      </trkpt>
      <trkpt lat="47.7134230" lon="7.4999160">
        <ele>-172.2</ele>
        <time>2022-06-03T07:28:24Z</time>
      </trkpt>
      <trkpt lat="47.7135850" lon="7.4998450">
        <ele>-171.8</ele>
        <time>2022-06-03T07:28:28Z</time>
      </trkpt>
      <trkpt lat="47.7137600" lon="7.4998060">
        <ele>-171.8</ele>
        <time>2022-06-03T07:28:32Z</time>
      </trkpt>
      <trkpt lat="47.7139410" lon="7.4998260">
        <ele>-171.8</ele>
        <time>2022-06-03T07:28:36Z</time>
      </trkpt>
      <trkpt lat="47.7141110" lon="7.4998500">
        <ele>-172.2</ele>
        <time>2022-06-03T07:28:40Z</time>
      </trkpt>
      <trkpt lat="47.7142810" lon="7.4998110">
        <ele>-172.2</ele>
        <time>2022-06-03T07:28:44Z</time>
      </trkpt>
      <trkpt lat="47.7144460" lon="7.4997700">
        <ele>-172.2</ele>
        <time>2022-06-03T07:28:48Z</time>
      </trkpt>
      <trkpt lat="47.7146060" lon="7.4997310">
        <ele>-171.8</ele>
        <time>2022-06-03T07:28:52Z</time>
      </trkpt>
      <trkpt lat="47.7147660" lon="7.4996850">
        <ele>-171.2</ele>
        <time>2022-06-03T07:28:56Z</time>
      </trkpt>
      <trkpt lat="47.7149280" lon="7.4996400">
        <ele>-171.4</ele>
        <time>2022-06-03T07:29:00Z</time>
      </trkpt>
      <trkpt lat="47.7150830" lon="7.4995810">
        <ele>-171.0</ele>
        <time>2022-06-03T07:29:04Z</time>
      </trkpt>
      <trkpt lat="47.7152410" lon="7.4995160">
        <ele>-170.4</ele>
        <time>2022-06-03T07:29:08Z</time>
      </trkpt>
      <trkpt lat="47.7154050" lon="7.4994510">
        <ele>-170.4</ele>
        <time>2022-06-03T07:29:12Z</time>
      </trkpt>
      <trkpt lat="47.7155680" lon="7.4993860">
        <ele>-170.8</ele>
        <time>2022-06-03T07:29:16Z</time>
      </trkpt>
      <trkpt lat="47.7157310" lon="7.4993210">
        <ele>-170.2</ele>
        <time>2022-06-03T07:29:20Z</time>
      </trkpt>
      <trkpt lat="47.7158980" lon="7.4992480">
        <ele>-170.6</ele>
        <time>2022-06-03T07:29:24Z</time>
      </trkpt>
      <trkpt lat="47.7160630" lon="7.4991660">
        <ele>-170.4</ele>
        <time>2022-06-03T07:29:28Z</time>
      </trkpt>
      <trkpt lat="47.7162250" lon="7.4990710">
        <ele>-169.8</ele>
        <time>2022-06-03T07:29:32Z</time>
      </trkpt>
      <trkpt lat="47.7163750" lon="7.4989880">
        <ele>-169.6</ele>
        <time>2022-06-03T07:29:36Z</time>
      </trkpt>
      <trkpt lat="47.7165110" lon="7.4989030">
        <ele>-170.0</ele>
        <time>2022-06-03T07:29:40Z</time>
      </trkpt>
      <trkpt lat="47.7166610" lon="7.4988200">
        <ele>-170.0</ele>
        <time>2022-06-03T07:29:44Z</time>
      </trkpt>
      <trkpt lat="47.7168200" lon="7.4987110">
        <ele>-169.6</ele>
        <time>2022-06-03T07:29:48Z</time>
      </trkpt>
      <trkpt lat="47.7169680" lon="7.4985700">
        <ele>-169.2</ele>
        <time>2022-06-03T07:29:52Z</time>
      </trkpt>
      <trkpt lat="47.7171030" lon="7.4984280">
        <ele>-169.8</ele>
        <time>2022-06-03T07:29:56Z</time>
      </trkpt>
      <trkpt lat="47.7172600" lon="7.4983260">
        <ele>-169.8</ele>
        <time>2022-06-03T07:30:00Z</time>
      </trkpt>
      <trkpt lat="47.7174330" lon="7.4982710">
        <ele>-170.4</ele>
        <time>2022-06-03T07:30:04Z</time>
      </trkpt>
      <trkpt lat="47.7176150" lon="7.4982450">
        <ele>-170.2</ele>
        <time>2022-06-03T07:30:08Z</time>
      </trkpt>
      <trkpt lat="47.7178100" lon="7.4982080">
        <ele>-171.2</ele>
        <time>2022-06-03T07:30:12Z</time>
      </trkpt>
      <trkpt lat="47.7180100" lon="7.4981310">
        <ele>-171.6</ele>
        <time>2022-06-03T07:30:16Z</time>
      </trkpt>
      <trkpt lat="47.7182250" lon="7.4980430">
        <ele>-172.4</ele>
        <time>2022-06-03T07:30:20Z</time>
      </trkpt>
      <trkpt lat="47.7184410" lon="7.4979500">
        <ele>-172.6</ele>
        <time>2022-06-03T07:30:24Z</time>
      </trkpt>
      <trkpt lat="47.7186350" lon="7.4978560">
        <ele>-172.4</ele>
        <time>2022-06-03T07:30:28Z</time>
      </trkpt>
      <trkpt lat="47.7188250" lon="7.4977710">
        <ele>-172.6</ele>
        <time>2022-06-03T07:30:32Z</time>
      </trkpt>
      <trkpt lat="47.7190100" lon="7.4976780">
        <ele>-172.8</ele>
        <time>2022-06-03T07:30:36Z</time>
      </trkpt>
      <trkpt lat="47.7191930" lon="7.4975910">
        <ele>-172.4</ele>
        <time>2022-06-03T07:30:40Z</time>
      </trkpt>
      <trkpt lat="47.7193650" lon="7.4974960">
        <ele>-171.8</ele>
        <time>2022-06-03T07:30:44Z</time>
      </trkpt>
      <trkpt lat="47.7195350" lon="7.4974030">
        <ele>-172.4</ele>
        <time>2022-06-03T07:30:48Z</time>
      </trkpt>
      <trkpt lat="47.7197030" lon="7.4972860">
        <ele>-172.4</ele>
        <time>2022-06-03T07:30:52Z</time>
      </trkpt>
      <trkpt lat="47.7198680" lon="7.4971310">
        <ele>-171.8</ele>
        <time>2022-06-03T07:30:56Z</time>
      </trkpt>
      <trkpt lat="47.7200060" lon="7.4969700">
        <ele>-171.6</ele>
        <time>2022-06-03T07:31:00Z</time>
      </trkpt>
      <trkpt lat="47.7201680" lon="7.4968760">
        <ele>-172.0</ele>
        <time>2022-06-03T07:31:04Z</time>
      </trkpt>
      <trkpt lat="47.7203550" lon="7.4968280">
        <ele>-171.6</ele>
        <time>2022-06-03T07:31:08Z</time>
      </trkpt>
      <trkpt lat="47.7205560" lon="7.4967760">
        <ele>-172.6</ele>
        <time>2022-06-03T07:31:12Z</time>
      </trkpt>
      <trkpt lat="47.7207550" lon="7.4966860">
        <ele>-172.8</ele>
        <time>2022-06-03T07:31:16Z</time>
      </trkpt>
      <trkpt lat="47.7209330" lon="7.4965750">
        <ele>-172.8</ele>
        <time>2022-06-03T07:31:20Z</time>
      </trkpt>
      <trkpt lat="47.7211130" lon="7.4964660">
        <ele>-171.8</ele>
        <time>2022-06-03T07:31:24Z</time>
      </trkpt>
      <trkpt lat="47.7213080" lon="7.4963500">
        <ele>-172.2</ele>
        <time>2022-06-03T07:31:28Z</time>
      </trkpt>
      <trkpt lat="47.7214700" lon="7.4962260">
        <ele>-172.0</ele>
        <time>2022-06-03T07:31:32Z</time>
      </trkpt>
      <trkpt lat="47.7216510" lon="7.4961080">
        <ele>-172.2</ele>
        <time>2022-06-03T07:31:36Z</time>
      </trkpt>
      <trkpt lat="47.7218260" lon="7.4959850">
        <ele>-172.0</ele>
        <time>2022-06-03T07:31:40Z</time>
      </trkpt>
      <trkpt lat="47.7219960" lon="7.4958800">
        <ele>-172.0</ele>
        <time>2022-06-03T07:31:44Z</time>
      </trkpt>
      <trkpt lat="47.7222000" lon="7.4958010">
        <ele>-172.0</ele>
        <time>2022-06-03T07:31:48Z</time>
      </trkpt>
      <trkpt lat="47.7223930" lon="7.4957360">
        <ele>-171.8</ele>
        <time>2022-06-03T07:31:52Z</time>
      </trkpt>
      <trkpt lat="47.7225800" lon="7.4956630">
        <ele>-172.4</ele>
        <time>2022-06-03T07:31:56Z</time>
      </trkpt>
      <trkpt lat="47.7227830" lon="7.4955880">
        <ele>-172.4</ele>
        <time>2022-06-03T07:32:00Z</time>
      </trkpt>
      <trkpt lat="47.7229710" lon="7.4954830">
        <ele>-172.6</ele>
        <time>2022-06-03T07:32:04Z</time>
      </trkpt>
      <trkpt lat="47.7231260" lon="7.4953200">
        <ele>-171.8</ele>
        <time>2022-06-03T07:32:08Z</time>
      </trkpt>
      <trkpt lat="47.7232680" lon="7.4951410">
        <ele>-172.0</ele>
        <time>2022-06-03T07:32:12Z</time>
      </trkpt>
      <trkpt lat="47.7234450" lon="7.4951350">
        <ele>-172.2</ele>
        <time>2022-06-03T07:32:16Z</time>
      </trkpt>
      <trkpt lat="47.7236310" lon="7.4951760">
        <ele>-171.8</ele>
        <time>2022-06-03T07:32:20Z</time>
      </trkpt>
      <trkpt lat="47.7238130" lon="7.4951060">
        <ele>-172.2</ele>
        <time>2022-06-03T07:32:24Z</time>
      </trkpt>
      <trkpt lat="47.7239960" lon="7.4950130">
        <ele>-172.2</ele>
        <time>2022-06-03T07:32:28Z</time>
      </trkpt>
      <trkpt lat="47.7241680" lon="7.4949180">
        <ele>-172.0</ele>
        <time>2022-06-03T07:32:32Z</time>
      </trkpt>
      <trkpt lat="47.7243430" lon="7.4948280">
        <ele>-172.0</ele>
        <time>2022-06-03T07:32:36Z</time>
      </trkpt>
      <trkpt lat="47.7245200" lon="7.4947360">
        <ele>-171.6</ele>
        <time>2022-06-03T07:32:40Z</time>
      </trkpt>
      <trkpt lat="47.7247050" lon="7.4946350">
        <ele>-172.8</ele>
        <time>2022-06-03T07:32:44Z</time>
      </trkpt>
      <trkpt lat="47.7248780" lon="7.4945160">
        <ele>-172.2</ele>
        <time>2022-06-03T07:32:48Z</time>
      </trkpt>
      <trkpt lat="47.7250600" lon="7.4943850">
        <ele>-171.8</ele>
        <time>2022-06-03T07:32:52Z</time>
      </trkpt>
      <trkpt lat="47.7252260" lon="7.4942630">
        <ele>-171.0</ele>
        <time>2022-06-03T07:32:56Z</time>
      </trkpt>
      <trkpt lat="47.7253880" lon="7.4941760">
        <ele>-170.6</ele>
        <time>2022-06-03T07:33:00Z</time>
      </trkpt>
      <trkpt lat="47.7255480" lon="7.4940930">
        <ele>-170.4</ele>
        <time>2022-06-03T07:33:04Z</time>
      </trkpt>
      <trkpt lat="47.7257110" lon="7.4940110">
        <ele>-170.8</ele>
        <time>2022-06-03T07:33:08Z</time>
      </trkpt>
      <trkpt lat="47.7258710" lon="7.4939260">
        <ele>-170.4</ele>
        <time>2022-06-03T07:33:12Z</time>
      </trkpt>
      <trkpt lat="47.7260430" lon="7.4938300">
        <ele>-170.8</ele>
        <time>2022-06-03T07:33:16Z</time>
      </trkpt>
      <trkpt lat="47.7262110" lon="7.4937310">
        <ele>-170.4</ele>
        <time>2022-06-03T07:33:20Z</time>
      </trkpt>
      <trkpt lat="47.7263850" lon="7.4936380">
        <ele>-170.2</ele>
        <time>2022-06-03T07:33:24Z</time>
      </trkpt>
      <trkpt lat="47.7265660" lon="7.4935580">
        <ele>-170.2</ele>
        <time>2022-06-03T07:33:28Z</time>
      </trkpt>
      <trkpt lat="47.7267500" lon="7.4934680">
        <ele>-171.0</ele>
        <time>2022-06-03T07:33:32Z</time>
      </trkpt>
      <trkpt lat="47.7269380" lon="7.4933710">
        <ele>-170.6</ele>
        <time>2022-06-03T07:33:36Z</time>
      </trkpt>
      <trkpt lat="47.7271230" lon="7.4932750">
        <ele>-170.8</ele>
        <time>2022-06-03T07:33:40Z</time>
      </trkpt>
      <trkpt lat="47.7273010" lon="7.4931750">
        <ele>-170.4</ele>
        <time>2022-06-03T07:33:44Z</time>
      </trkpt>
      <trkpt lat="47.7274710" lon="7.4930710">
        <ele>-170.6</ele>
        <time>2022-06-03T07:33:48Z</time>
      </trkpt>
      <trkpt lat="47.7276430" lon="7.4929710">
        <ele>-170.6</ele>
        <time>2022-06-03T07:33:52Z</time>
      </trkpt>
      <trkpt lat="47.7278100" lon="7.4928550">
        <ele>-170.0</ele>
        <time>2022-06-03T07:33:56Z</time>
      </trkpt>
      <trkpt lat="47.7279680" lon="7.4927300">
        <ele>-169.8</ele>
        <time>2022-06-03T07:34:00Z</time>
      </trkpt>
      <trkpt lat="47.7281260" lon="7.4926460">
        <ele>-170.6</ele>
        <time>2022-06-03T07:34:04Z</time>
      </trkpt>
      <trkpt lat="47.7283150" lon="7.4926110">
        <ele>-171.0</ele>
        <time>2022-06-03T07:34:08Z</time>
      </trkpt>
      <trkpt lat="47.7285200" lon="7.4925650">
        <ele>-171.8</ele>
        <time>2022-06-03T07:34:12Z</time>
      </trkpt>
      <trkpt lat="47.7287530" lon="7.4924950">
        <ele>-172.4</ele>
        <time>2022-06-03T07:34:16Z</time>
      </trkpt>
      <trkpt lat="47.7289850" lon="7.4924130">
        <ele>-172.4</ele>
        <time>2022-06-03T07:34:20Z</time>
      </trkpt>
      <trkpt lat="47.7291550" lon="7.4922280">
        <ele>-172.0</ele>
        <time>2022-06-03T07:34:24Z</time>
      </trkpt>
      <trkpt lat="47.7291460" lon="7.4919330">
        <ele>-172.2</ele>
        <time>2022-06-03T07:34:28Z</time>
      </trkpt>
      <trkpt lat="47.7291410" lon="7.4916280">
        <ele>-172.6</ele>
        <time>2022-06-03T07:34:32Z</time>
      </trkpt>
      <trkpt lat="47.7291510" lon="7.4913300">
        <ele>-172.0</ele>
        <time>2022-06-03T07:34:36Z</time>
      </trkpt>
      <trkpt lat="47.7291810" lon="7.4910430">
        <ele>-172.0</ele>
        <time>2022-06-03T07:34:40Z</time>
      </trkpt>
      <trkpt lat="47.7292260" lon="7.4907710">
        <ele>-172.2</ele>
        <time>2022-06-03T07:34:44Z</time>
      </trkpt>
      <trkpt lat="47.7293250" lon="7.4906350">
        <ele>-171.2</ele>
        <time>2022-06-03T07:34:48Z</time>
      </trkpt>
      <trkpt lat="47.7293780" lon="7.4907080">
        <ele>-170.8</ele>
        <time>2022-06-03T07:34:52Z</time>
      </trkpt>
      <trkpt lat="47.7293780" lon="7.4908780">
        <ele>-170.0</ele>
        <time>2022-06-03T07:34:56Z</time>
      </trkpt>
      <trkpt lat="47.7293710" lon="7.4910510">
        <ele>-169.6</ele>
        <time>2022-06-03T07:35:00Z</time>
      </trkpt>
      <trkpt lat="47.7293550" lon="7.4912310">
        <ele>-168.6</ele>
        <time>2022-06-03T07:35:04Z</time>
      </trkpt>
      <trkpt lat="47.7293430" lon="7.4914100">
        <ele>-168.0</ele>
        <time>2022-06-03T07:35:08Z</time>
      </trkpt>
      <trkpt lat="47.7293480" lon="7.4915830">
        <ele>-167.2</ele>
        <time>2022-06-03T07:35:12Z</time>
      </trkpt>
      <trkpt lat="47.7293550" lon="7.4917510">
        <ele>-166.8</ele>
        <time>2022-06-03T07:35:16Z</time>
      </trkpt>
      <trkpt lat="47.7293780" lon="7.4919230">
        <ele>-166.2</ele>
        <time>2022-06-03T07:35:20Z</time>
      </trkpt>
      <trkpt lat="47.7294130" lon="7.4920660">
        <ele>-165.6</ele>
        <time>2022-06-03T07:35:24Z</time>
      </trkpt>
      <trkpt lat="47.7294380" lon="7.4922210">
        <ele>-165.0</ele>
        <time>2022-06-03T07:35:28Z</time>
      </trkpt>
      <trkpt lat="47.7294800" lon="7.4923730">
        <ele>-165.0</ele>
        <time>2022-06-03T07:35:32Z</time>
      </trkpt>
      <trkpt lat="47.7295160" lon="7.4925180">
        <ele>-165.0</ele>
        <time>2022-06-03T07:35:36Z</time>
      </trkpt>
      <trkpt lat="47.7295600" lon="7.4926450">
        <ele>-164.8</ele>
        <time>2022-06-03T07:35:40Z</time>
      </trkpt>
      <trkpt lat="47.7295950" lon="7.4927900">
        <ele>-165.2</ele>
        <time>2022-06-03T07:35:44Z</time>
      </trkpt>
      <trkpt lat="47.7296200" lon="7.4929600">
        <ele>-165.0</ele>
        <time>2022-06-03T07:35:48Z</time>
      </trkpt>
      <trkpt lat="47.7296630" lon="7.4931530">
        <ele>-165.6</ele>
        <time>2022-06-03T07:35:52Z</time>
      </trkpt>
      <trkpt lat="47.7297200" lon="7.4933850">
        <ele>-166.6</ele>
        <time>2022-06-03T07:35:56Z</time>
      </trkpt>
      <trkpt lat="47.7297650" lon="7.4936830">
        <ele>-168.6</ele>
        <time>2022-06-03T07:36:00Z</time>
      </trkpt>
      <trkpt lat="47.7297850" lon="7.4940560">
        <ele>-168.8</ele>
        <time>2022-06-03T07:36:04Z</time>
      </trkpt>
      <trkpt lat="47.7297860" lon="7.4944960">
        <ele>-172.2</ele>
        <time>2022-06-03T07:36:08Z</time>
      </trkpt>
      <trkpt lat="47.7297810" lon="7.4949850">
        <ele>-174.2</ele>
        <time>2022-06-03T07:36:12Z</time>
      </trkpt>
      <trkpt lat="47.7297910" lon="7.4954850">
        <ele>-175.2</ele>
        <time>2022-06-03T07:36:16Z</time>
      </trkpt>
      <trkpt lat="47.7298480" lon="7.4959310">
        <ele>-174.6</ele>
        <time>2022-06-03T07:36:20Z</time>
      </trkpt>
      <trkpt lat="47.7299000" lon="7.4963360">
        <ele>-174.0</ele>
        <time>2022-06-03T07:36:24Z</time>
      </trkpt>
      <trkpt lat="47.7299280" lon="7.4967160">
        <ele>-174.0</ele>
        <time>2022-06-03T07:36:28Z</time>
      </trkpt>
      <trkpt lat="47.7299610" lon="7.4970800">
        <ele>-174.2</ele>
        <time>2022-06-03T07:36:32Z</time>
      </trkpt>
      <trkpt lat="47.7299930" lon="7.4974300">
        <ele>-174.0</ele>
        <time>2022-06-03T07:36:36Z</time>
      </trkpt>
      <trkpt lat="47.7300180" lon="7.4977610">
        <ele>-173.8</ele>
        <time>2022-06-03T07:36:40Z</time>
      </trkpt>
      <trkpt lat="47.7300530" lon="7.4980910">
        <ele>-173.8</ele>
        <time>2022-06-03T07:36:44Z</time>
      </trkpt>
      <trkpt lat="47.7300700" lon="7.4984250">
        <ele>-174.6</ele>
        <time>2022-06-03T07:36:48Z</time>
      </trkpt>
      <trkpt lat="47.7300950" lon="7.4987630">
        <ele>-174.8</ele>
        <time>2022-06-03T07:36:52Z</time>
      </trkpt>
      <trkpt lat="47.7301200" lon="7.4991100">
        <ele>-175.2</ele>
        <time>2022-06-03T07:36:56Z</time>
      </trkpt>
      <trkpt lat="47.7301560" lon="7.4994630">
        <ele>-175.2</ele>
        <time>2022-06-03T07:37:00Z</time>
      </trkpt>
      <trkpt lat="47.7301730" lon="7.4998080">
        <ele>-176.2</ele>
        <time>2022-06-03T07:37:04Z</time>
      </trkpt>
      <trkpt lat="47.7301980" lon="7.5001180">
        <ele>-175.4</ele>
        <time>2022-06-03T07:37:08Z</time>
      </trkpt>
      <trkpt lat="47.7302250" lon="7.5004260">
        <ele>-175.8</ele>
        <time>2022-06-03T07:37:12Z</time>
      </trkpt>
      <trkpt lat="47.7302480" lon="7.5007300">
        <ele>-176.0</ele>
        <time>2022-06-03T07:37:16Z</time>
      </trkpt>
      <trkpt lat="47.7302680" lon="7.5010350">
        <ele>-176.2</ele>
        <time>2022-06-03T07:37:20Z</time>
      </trkpt>
      <trkpt lat="47.7302910" lon="7.5013380">
        <ele>-175.8</ele>
        <time>2022-06-03T07:37:24Z</time>
      </trkpt>
      <trkpt lat="47.7303150" lon="7.5016430">
        <ele>-175.8</ele>
        <time>2022-06-03T07:37:28Z</time>
      </trkpt>
      <trkpt lat="47.7303360" lon="7.5019550">
        <ele>-176.2</ele>
        <time>2022-06-03T07:37:32Z</time>
      </trkpt>
      <trkpt lat="47.7303680" lon="7.5022830">
        <ele>-177.4</ele>
        <time>2022-06-03T07:37:36Z</time>
      </trkpt>
      <trkpt lat="47.7304010" lon="7.5026400">
        <ele>-177.2</ele>
        <time>2022-06-03T07:37:40Z</time>
      </trkpt>
      <trkpt lat="47.7304310" lon="7.5029800">
        <ele>-177.2</ele>
        <time>2022-06-03T07:37:44Z</time>
      </trkpt>
      <trkpt lat="47.7304580" lon="7.5032710">
        <ele>-176.2</ele>
        <time>2022-06-03T07:37:48Z</time>
      </trkpt>
      <trkpt lat="47.7304810" lon="7.5035310">
        <ele>-175.8</ele>
        <time>2022-06-03T07:37:52Z</time>
      </trkpt>
      <trkpt lat="47.7305010" lon="7.5037760">
        <ele>-175.8</ele>
        <time>2022-06-03T07:37:56Z</time>
      </trkpt>
      <trkpt lat="47.7305230" lon="7.5040550">
        <ele>-176.6</ele>
        <time>2022-06-03T07:38:00Z</time>
      </trkpt>
      <trkpt lat="47.7305460" lon="7.5043710">
        <ele>-177.4</ele>
        <time>2022-06-03T07:38:04Z</time>
      </trkpt>
      <trkpt lat="47.7305710" lon="7.5047080">
        <ele>-177.6</ele>
        <time>2022-06-03T07:38:08Z</time>
      </trkpt>
      <trkpt lat="47.7306010" lon="7.5050180">
        <ele>-177.2</ele>
        <time>2022-06-03T07:38:12Z</time>
      </trkpt>
      <trkpt lat="47.7306400" lon="7.5053350">
        <ele>-178.6</ele>
        <time>2022-06-03T07:38:16Z</time>
      </trkpt>
      <trkpt lat="47.7307050" lon="7.5056660">
        <ele>-179.8</ele>
        <time>2022-06-03T07:38:20Z</time>
      </trkpt>
      <trkpt lat="47.7307810" lon="7.5059930">
        <ele>-180.4</ele>
        <time>2022-06-03T07:38:24Z</time>
      </trkpt>
      <trkpt lat="47.7308600" lon="7.5063280">
        <ele>-180.2</ele>
        <time>2022-06-03T07:38:28Z</time>
      </trkpt>
      <trkpt lat="47.7309150" lon="7.5066660">
        <ele>-180.4</ele>
        <time>2022-06-03T07:38:32Z</time>
      </trkpt>
      <trkpt lat="47.7309430" lon="7.5069850">
        <ele>-179.6</ele>
        <time>2022-06-03T07:38:36Z</time>
      </trkpt>
      <trkpt lat="47.7309630" lon="7.5072880">
        <ele>-179.8</ele>
        <time>2022-06-03T07:38:40Z</time>
      </trkpt>
      <trkpt lat="47.7309800" lon="7.5075880">
        <ele>-180.0</ele>
        <time>2022-06-03T07:38:44Z</time>
      </trkpt>
      <trkpt lat="47.7309900" lon="7.5078910">
        <ele>-180.2</ele>
        <time>2022-06-03T07:38:48Z</time>
      </trkpt>
      <trkpt lat="47.7309980" lon="7.5082010">
        <ele>-180.4</ele>
        <time>2022-06-03T07:38:52Z</time>
      </trkpt>
      <trkpt lat="47.7310130" lon="7.5085080">
        <ele>-180.4</ele>
        <time>2022-06-03T07:38:56Z</time>
      </trkpt>
      <trkpt lat="47.7310300" lon="7.5088100">
        <ele>-180.4</ele>
        <time>2022-06-03T07:39:00Z</time>
      </trkpt>
      <trkpt lat="47.7310460" lon="7.5091100">
        <ele>-180.0</ele>
        <time>2022-06-03T07:39:04Z</time>
      </trkpt>
      <trkpt lat="47.7310410" lon="7.5093860">
        <ele>-180.0</ele>
        <time>2022-06-03T07:39:08Z</time>
      </trkpt>
      <trkpt lat="47.7310410" lon="7.5096550">
        <ele>-179.6</ele>
        <time>2022-06-03T07:39:12Z</time>
      </trkpt>
      <trkpt lat="47.7310430" lon="7.5099200">
        <ele>-179.2</ele>
        <time>2022-06-03T07:39:16Z</time>
      </trkpt>
      <trkpt lat="47.7310450" lon="7.5101760">
        <ele>-180.0</ele>
        <time>2022-06-03T07:39:20Z</time>
      </trkpt>
      <trkpt lat="47.7310410" lon="7.5104080">
        <ele>-179.4</ele>
        <time>2022-06-03T07:39:24Z</time>
      </trkpt>
      <trkpt lat="47.7310400" lon="7.5105130">
        <ele>-179.8</ele>
        <time>2022-06-03T07:39:28Z</time>
      </trkpt>
      <trkpt lat="47.7310200" lon="7.5106180">
        <ele>-179.2</ele>
        <time>2022-06-03T07:39:32Z</time>
      </trkpt>
      <trkpt lat="47.7309900" lon="7.5107610">
        <ele>-179.6</ele>
        <time>2022-06-03T07:39:36Z</time>
      </trkpt>
      <trkpt lat="47.7309530" lon="7.5109300">
        <ele>-179.2</ele>
        <time>2022-06-03T07:39:40Z</time>
      </trkpt>
      <trkpt lat="47.7309150" lon="7.5110900">
        <ele>-178.2</ele>
        <time>2022-06-03T07:39:44Z</time>
      </trkpt>
      <trkpt lat="47.7309160" lon="7.5112230">
        <ele>-177.4</ele>
        <time>2022-06-03T07:39:48Z</time>
      </trkpt>
      <trkpt lat="47.7310030" lon="7.5112780">
        <ele>-178.2</ele>
        <time>2022-06-03T07:39:52Z</time>
      </trkpt>
      <trkpt lat="47.7311410" lon="7.5112560">
        <ele>-177.4</ele>
        <time>2022-06-03T07:39:56Z</time>
      </trkpt>
      <trkpt lat="47.7312950" lon="7.5112060">
        <ele>-177.8</ele>
        <time>2022-06-03T07:40:00Z</time>
      </trkpt>
      <trkpt lat="47.7314580" lon="7.5111550">
        <ele>-178.0</ele>
        <time>2022-06-03T07:40:04Z</time>
      </trkpt>
      <trkpt lat="47.7316180" lon="7.5111100">
        <ele>-178.0</ele>
        <time>2022-06-03T07:40:08Z</time>
      </trkpt>
      <trkpt lat="47.7317780" lon="7.5110660">
        <ele>-177.8</ele>
        <time>2022-06-03T07:40:12Z</time>
      </trkpt>
      <trkpt lat="47.7319460" lon="7.5110230">
        <ele>-178.2</ele>
        <time>2022-06-03T07:40:16Z</time>
      </trkpt>
      <trkpt lat="47.7321160" lon="7.5109800">
        <ele>-177.8</ele>
        <time>2022-06-03T07:40:20Z</time>
      </trkpt>
      <trkpt lat="47.7322910" lon="7.5109280">
        <ele>-177.8</ele>
        <time>2022-06-03T07:40:24Z</time>
      </trkpt>
      <trkpt lat="47.7324780" lon="7.5108800">
        <ele>-178.6</ele>
        <time>2022-06-03T07:40:28Z</time>
      </trkpt>
      <trkpt lat="47.7326750" lon="7.5108300">
        <ele>-178.4</ele>
        <time>2022-06-03T07:40:32Z</time>
      </trkpt>
      <trkpt lat="47.7328760" lon="7.5107730">
        <ele>-178.2</ele>
        <time>2022-06-03T07:40:36Z</time>
      </trkpt>
      <trkpt lat="47.7330860" lon="7.5107210">
        <ele>-178.2</ele>
        <time>2022-06-03T07:40:40Z</time>
      </trkpt>
      <trkpt lat="47.7333030" lon="7.5106610">
        <ele>-178.6</ele>
        <time>2022-06-03T07:40:44Z</time>
      </trkpt>
      <trkpt lat="47.7335200" lon="7.5106000">
        <ele>-178.6</ele>
        <time>2022-06-03T07:40:48Z</time>
      </trkpt>
      <trkpt lat="47.7337360" lon="7.5105410">
        <ele>-179.0</ele>
        <time>2022-06-03T07:40:52Z</time>
      </trkpt>
      <trkpt lat="47.7339410" lon="7.5104850">
        <ele>-178.6</ele>
        <time>2022-06-03T07:40:56Z</time>
      </trkpt>
      <trkpt lat="47.7341460" lon="7.5104310">
        <ele>-178.8</ele>
        <time>2022-06-03T07:41:00Z</time>
      </trkpt>
      <trkpt lat="47.7343410" lon="7.5103780">
        <ele>-178.2</ele>
        <time>2022-06-03T07:41:04Z</time>
      </trkpt>
      <trkpt lat="47.7345300" lon="7.5103110">
        <ele>-178.4</ele>
        <time>2022-06-03T07:41:08Z</time>
      </trkpt>
      <trkpt lat="47.7347180" lon="7.5102310">
        <ele>-178.4</ele>
        <time>2022-06-03T07:41:12Z</time>
      </trkpt>
      <trkpt lat="47.7349050" lon="7.5101300">
        <ele>-178.0</ele>
        <time>2022-06-03T07:41:16Z</time>
      </trkpt>
      <trkpt lat="47.7350930" lon="7.5100150">
        <ele>-179.0</ele>
        <time>2022-06-03T07:41:20Z</time>
      </trkpt>
      <trkpt lat="47.7352860" lon="7.5098950">
        <ele>-178.6</ele>
        <time>2022-06-03T07:41:24Z</time>
      </trkpt>
      <trkpt lat="47.7354760" lon="7.5097800">
        <ele>-178.2</ele>
        <time>2022-06-03T07:41:28Z</time>
      </trkpt>
      <trkpt lat="47.7356650" lon="7.5096680">
        <ele>-178.6</ele>
        <time>2022-06-03T07:41:32Z</time>
      </trkpt>
      <trkpt lat="47.7358510" lon="7.5095610">
        <ele>-178.6</ele>
        <time>2022-06-03T07:41:36Z</time>
      </trkpt>
      <trkpt lat="47.7360410" lon="7.5094530">
        <ele>-178.8</ele>
        <time>2022-06-03T07:41:40Z</time>
      </trkpt>
      <trkpt lat="47.7362330" lon="7.5093480">
        <ele>-179.4</ele>
        <time>2022-06-03T07:41:44Z</time>
      </trkpt>
      <trkpt lat="47.7364200" lon="7.5092450">
        <ele>-179.4</ele>
        <time>2022-06-03T07:41:48Z</time>
      </trkpt>
      <trkpt lat="47.7366080" lon="7.5091480">
        <ele>-179.4</ele>
        <time>2022-06-03T07:41:52Z</time>
      </trkpt>
      <trkpt lat="47.7368000" lon="7.5090700">
        <ele>-179.0</ele>
        <time>2022-06-03T07:41:56Z</time>
      </trkpt>
      <trkpt lat="47.7369960" lon="7.5090160">
        <ele>-178.6</ele>
        <time>2022-06-03T07:42:00Z</time>
      </trkpt>
      <trkpt lat="47.7372000" lon="7.5089780">
        <ele>-178.8</ele>
        <time>2022-06-03T07:42:04Z</time>
      </trkpt>
      <trkpt lat="47.7374080" lon="7.5089400">
        <ele>-178.6</ele>
        <time>2022-06-03T07:42:08Z</time>
      </trkpt>
      <trkpt lat="47.7376260" lon="7.5089030">
        <ele>-179.6</ele>
        <time>2022-06-03T07:42:12Z</time>
      </trkpt>
      <trkpt lat="47.7378450" lon="7.5088680">
        <ele>-179.6</ele>
        <time>2022-06-03T07:42:16Z</time>
      </trkpt>
      <trkpt lat="47.7380660" lon="7.5088330">
        <ele>-179.4</ele>
        <time>2022-06-03T07:42:20Z</time>
      </trkpt>
      <trkpt lat="47.7382810" lon="7.5087930">
        <ele>-179.6</ele>
        <time>2022-06-03T07:42:24Z</time>
      </trkpt>
      <trkpt lat="47.7384950" lon="7.5087400">
        <ele>-179.6</ele>
        <time>2022-06-03T07:42:28Z</time>
      </trkpt>
      <trkpt lat="47.7387080" lon="7.5086650">
        <ele>-179.8</ele>
        <time>2022-06-03T07:42:32Z</time>
      </trkpt>
      <trkpt lat="47.7389100" lon="7.5085610">
        <ele>-180.0</ele>
        <time>2022-06-03T07:42:36Z</time>
      </trkpt>
      <trkpt lat="47.7391030" lon="7.5084350">
        <ele>-179.8</ele>
        <time>2022-06-03T07:42:40Z</time>
      </trkpt>
      <trkpt lat="47.7392800" lon="7.5082810">
        <ele>-179.4</ele>
        <time>2022-06-03T07:42:44Z</time>
      </trkpt>
      <trkpt lat="47.7394460" lon="7.5080910">
        <ele>-179.8</ele>
        <time>2022-06-03T07:42:48Z</time>
      </trkpt>
      <trkpt lat="47.7396010" lon="7.5078880">
        <ele>-179.6</ele>
        <time>2022-06-03T07:42:52Z</time>
      </trkpt>
      <trkpt lat="47.7397480" lon="7.5076780">
        <ele>-179.6</ele>
        <time>2022-06-03T07:42:56Z</time>
      </trkpt>
      <trkpt lat="47.7398930" lon="7.5074710">
        <ele>-179.4</ele>
        <time>2022-06-03T07:43:00Z</time>
      </trkpt>
      <trkpt lat="47.7400280" lon="7.5072600">
        <ele>-179.0</ele>
        <time>2022-06-03T07:43:04Z</time>
      </trkpt>
      <trkpt lat="47.7401710" lon="7.5070550">
        <ele>-178.4</ele>
        <time>2022-06-03T07:43:08Z</time>
      </trkpt>
      <trkpt lat="47.7403160" lon="7.5068530">
        <ele>-178.6</ele>
        <time>2022-06-03T07:43:12Z</time>
      </trkpt>
      <trkpt lat="47.7404660" lon="7.5066560">
        <ele>-177.4</ele>
        <time>2022-06-03T07:43:16Z</time>
      </trkpt>
      <trkpt lat="47.7406200" lon="7.5064710">
        <ele>-177.4</ele>
        <time>2022-06-03T07:43:20Z</time>
      </trkpt>
      <trkpt lat="47.7407710" lon="7.5062980">
        <ele>-177.4</ele>
        <time>2022-06-03T07:43:24Z</time>
      </trkpt>
      <trkpt lat="47.7409260" lon="7.5061300">
        <ele>-177.8</ele>
        <time>2022-06-03T07:43:28Z</time>
      </trkpt>
      <trkpt lat="47.7410900" lon="7.5059530">
        <ele>-176.8</ele>
        <time>2022-06-03T07:43:32Z</time>
      </trkpt>
      <trkpt lat="47.7412510" lon="7.5057780">
        <ele>-176.8</ele>
        <time>2022-06-03T07:43:36Z</time>
      </trkpt>
      <trkpt lat="47.7414150" lon="7.5056100">
        <ele>-176.8</ele>
        <time>2022-06-03T07:43:40Z</time>
      </trkpt>
      <trkpt lat="47.7415800" lon="7.5054460">
        <ele>-177.0</ele>
        <time>2022-06-03T07:43:44Z</time>
      </trkpt>
      <trkpt lat="47.7417460" lon="7.5052900">
        <ele>-176.8</ele>
        <time>2022-06-03T07:43:48Z</time>
      </trkpt>
      <trkpt lat="47.7419150" lon="7.5051350">
        <ele>-177.2</ele>
        <time>2022-06-03T07:43:52Z</time>
      </trkpt>
      <trkpt lat="47.7420810" lon="7.5049950">
        <ele>-177.4</ele>
        <time>2022-06-03T07:43:56Z</time>
      </trkpt>
      <trkpt lat="47.7422500" lon="7.5048560">
        <ele>-177.2</ele>
        <time>2022-06-03T07:44:00Z</time>
      </trkpt>
      <trkpt lat="47.7424330" lon="7.5047380">
        <ele>-177.6</ele>
        <time>2022-06-03T07:44:04Z</time>
      </trkpt>
      <trkpt lat="47.7426230" lon="7.5046260">
        <ele>-177.4</ele>
        <time>2022-06-03T07:44:08Z</time>
      </trkpt>
      <trkpt lat="47.7428160" lon="7.5045230">
        <ele>-177.2</ele>
        <time>2022-06-03T07:44:12Z</time>
      </trkpt>
      <trkpt lat="47.7430100" lon="7.5044350">
        <ele>-177.0</ele>
        <time>2022-06-03T07:44:16Z</time>
      </trkpt>
      <trkpt lat="47.7432010" lon="7.5043580">
        <ele>-177.4</ele>
        <time>2022-06-03T07:44:20Z</time>
      </trkpt>
      <trkpt lat="47.7433960" lon="7.5042880">
        <ele>-176.8</ele>
        <time>2022-06-03T07:44:24Z</time>
      </trkpt>
      <trkpt lat="47.7435950" lon="7.5042280">
        <ele>-176.6</ele>
        <time>2022-06-03T07:44:28Z</time>
      </trkpt>
      <trkpt lat="47.7438000" lon="7.5041900">
        <ele>-176.4</ele>
        <time>2022-06-03T07:44:32Z</time>
      </trkpt>
      <trkpt lat="47.7440080" lon="7.5041710">
        <ele>-176.4</ele>
        <time>2022-06-03T07:44:36Z</time>
      </trkpt>
      <trkpt lat="47.7442230" lon="7.5041700">
        <ele>-176.8</ele>
        <time>2022-06-03T07:44:40Z</time>
      </trkpt>
      <trkpt lat="47.7444330" lon="7.5041830">
        <ele>-176.6</ele>
        <time>2022-06-03T07:44:44Z</time>
      </trkpt>
      <trkpt lat="47.7446450" lon="7.5042110">
        <ele>-177.0</ele>
        <time>2022-06-03T07:44:48Z</time>
      </trkpt>
      <trkpt lat="47.7448580" lon="7.5042480">
        <ele>-177.0</ele>
        <time>2022-06-03T07:44:52Z</time>
      </trkpt>
      <trkpt lat="47.7450730" lon="7.5042910">
        <ele>-176.8</ele>
        <time>2022-06-03T07:44:56Z</time>
      </trkpt>
      <trkpt lat="47.7452860" lon="7.5043310">
        <ele>-177.4</ele>
        <time>2022-06-03T07:45:00Z</time>
      </trkpt>
      <trkpt lat="47.7454980" lon="7.5043750">
        <ele>-177.4</ele>
        <time>2022-06-03T07:45:04Z</time>
      </trkpt>
      <trkpt lat="47.7457130" lon="7.5044150">
        <ele>-177.6</ele>
        <time>2022-06-03T07:45:08Z</time>
      </trkpt>
      <trkpt lat="47.7459280" lon="7.5044600">
        <ele>-178.0</ele>
        <time>2022-06-03T07:45:12Z</time>
      </trkpt>
      <trkpt lat="47.7461430" lon="7.5045000">
        <ele>-177.6</ele>
        <time>2022-06-03T07:45:16Z</time>
      </trkpt>
      <trkpt lat="47.7463560" lon="7.5045380">
        <ele>-177.6</ele>
        <time>2022-06-03T07:45:20Z</time>
      </trkpt>
      <trkpt lat="47.7465660" lon="7.5045800">
        <ele>-178.0</ele>
        <time>2022-06-03T07:45:24Z</time>
      </trkpt>
      <trkpt lat="47.7467760" lon="7.5046230">
        <ele>-178.0</ele>
        <time>2022-06-03T07:45:28Z</time>
      </trkpt>
      <trkpt lat="47.7469860" lon="7.5046650">
        <ele>-177.4</ele>
        <time>2022-06-03T07:45:32Z</time>
      </trkpt>
      <trkpt lat="47.7471980" lon="7.5047010">
        <ele>-177.8</ele>
        <time>2022-06-03T07:45:36Z</time>
      </trkpt>
      <trkpt lat="47.7474100" lon="7.5047360">
        <ele>-177.4</ele>
        <time>2022-06-03T07:45:40Z</time>
      </trkpt>
      <trkpt lat="47.7476210" lon="7.5047610">
        <ele>-177.4</ele>
        <time>2022-06-03T07:45:44Z</time>
      </trkpt>
      <trkpt lat="47.7478360" lon="7.5047880">
        <ele>-178.0</ele>
        <time>2022-06-03T07:45:48Z</time>
      </trkpt>
      <trkpt lat="47.7480580" lon="7.5048110">
        <ele>-178.4</ele>
        <time>2022-06-03T07:45:52Z</time>
      </trkpt>
      <trkpt lat="47.7482860" lon="7.5048360">
        <ele>-178.4</ele>
        <time>2022-06-03T07:45:56Z</time>
      </trkpt>
      <trkpt lat="47.7485150" lon="7.5048680">
        <ele>-178.8</ele>
        <time>2022-06-03T07:46:00Z</time>
      </trkpt>
      <trkpt lat="47.7487510" lon="7.5048960">
        <ele>-178.8</ele>
        <time>2022-06-03T07:46:04Z</time>
      </trkpt>
      <trkpt lat="47.7489880" lon="7.5049180">
        <ele>-178.8</ele>
        <time>2022-06-03T07:46:08Z</time>
      </trkpt>
      <trkpt lat="47.7492110" lon="7.5049280">
        <ele>-179.2</ele>
        <time>2022-06-03T07:46:12Z</time>
      </trkpt>
      <trkpt lat="47.7494350" lon="7.5049180">
        <ele>-179.4</ele>
        <time>2022-06-03T07:46:16Z</time>
      </trkpt>
      <trkpt lat="47.7496400" lon="7.5049280">
        <ele>-179.6</ele>
        <time>2022-06-03T07:46:20Z</time>
      </trkpt>
      <trkpt lat="47.7498500" lon="7.5049250">
        <ele>-179.6</ele>
        <time>2022-06-03T07:46:24Z</time>
      </trkpt>
      <trkpt lat="47.7500600" lon="7.5049230">
        <ele>-179.2</ele>
        <time>2022-06-03T07:46:28Z</time>
      </trkpt>
      <trkpt lat="47.7502650" lon="7.5049230">
        <ele>-179.4</ele>
        <time>2022-06-03T07:46:32Z</time>
      </trkpt>
      <trkpt lat="47.7504680" lon="7.5049180">
        <ele>-179.6</ele>
        <time>2022-06-03T07:46:36Z</time>
      </trkpt>
      <trkpt lat="47.7506710" lon="7.5049150">
        <ele>-179.6</ele>
        <time>2022-06-03T07:46:40Z</time>
      </trkpt>
      <trkpt lat="47.7508700" lon="7.5049110">
        <ele>-179.0</ele>
        <time>2022-06-03T07:46:44Z</time>
      </trkpt>
      <trkpt lat="47.7510800" lon="7.5049100">
        <ele>-179.2</ele>
        <time>2022-06-03T07:46:48Z</time>
      </trkpt>
      <trkpt lat="47.7512930" lon="7.5049100">
        <ele>-178.8</ele>
        <time>2022-06-03T07:46:52Z</time>
      </trkpt>
      <trkpt lat="47.7515000" lon="7.5049000">
        <ele>-179.4</ele>
        <time>2022-06-03T07:46:56Z</time>
      </trkpt>
      <trkpt lat="47.7517030" lon="7.5048950">
        <ele>-179.4</ele>
        <time>2022-06-03T07:47:00Z</time>
      </trkpt>
      <trkpt lat="47.7518980" lon="7.5048900">
        <ele>-179.2</ele>
        <time>2022-06-03T07:47:04Z</time>
      </trkpt>
      <trkpt lat="47.7520910" lon="7.5048830">
        <ele>-179.8</ele>
        <time>2022-06-03T07:47:08Z</time>
      </trkpt>
      <trkpt lat="47.7522830" lon="7.5048750">
        <ele>-179.2</ele>
        <time>2022-06-03T07:47:12Z</time>
      </trkpt>
      <trkpt lat="47.7524710" lon="7.5048630">
        <ele>-179.2</ele>
        <time>2022-06-03T07:47:16Z</time>
      </trkpt>
      <trkpt lat="47.7526600" lon="7.5048580">
        <ele>-179.4</ele>
        <time>2022-06-03T07:47:20Z</time>
      </trkpt>
      <trkpt lat="47.7528480" lon="7.5048610">
        <ele>-179.8</ele>
        <time>2022-06-03T07:47:24Z</time>
      </trkpt>
      <trkpt lat="47.7530350" lon="7.5048500">
        <ele>-179.8</ele>
        <time>2022-06-03T07:47:28Z</time>
      </trkpt>
      <trkpt lat="47.7532250" lon="7.5048510">
        <ele>-179.6</ele>
        <time>2022-06-03T07:47:32Z</time>
      </trkpt>
      <trkpt lat="47.7534210" lon="7.5048480">
        <ele>-179.2</ele>
        <time>2022-06-03T07:47:36Z</time>
      </trkpt>
      <trkpt lat="47.7536080" lon="7.5048400">
        <ele>-179.8</ele>
        <time>2022-06-03T07:47:40Z</time>
      </trkpt>
      <trkpt lat="47.7537930" lon="7.5048360">
        <ele>-180.0</ele>
        <time>2022-06-03T07:47:44Z</time>
      </trkpt>
      <trkpt lat="47.7539730" lon="7.5048210">
        <ele>-179.6</ele>
        <time>2022-06-03T07:47:48Z</time>
      </trkpt>
      <trkpt lat="47.7541650" lon="7.5048200">
        <ele>-180.0</ele>
        <time>2022-06-03T07:47:52Z</time>
      </trkpt>
      <trkpt lat="47.7543580" lon="7.5048180">
        <ele>-179.8</ele>
        <time>2022-06-03T07:47:56Z</time>
      </trkpt>
      <trkpt lat="47.7545500" lon="7.5048430">
        <ele>-180.2</ele>
        <time>2022-06-03T07:48:00Z</time>
      </trkpt>
      <trkpt lat="47.7547260" lon="7.5048930">
        <ele>-179.8</ele>
        <time>2022-06-03T07:48:04Z</time>
      </trkpt>
      <trkpt lat="47.7548900" lon="7.5049760">
        <ele>-179.6</ele>
        <time>2022-06-03T07:48:08Z</time>
      </trkpt>
      <trkpt lat="47.7550500" lon="7.5050860">
        <ele>-179.0</ele>
        <time>2022-06-03T07:48:12Z</time>
      </trkpt>
      <trkpt lat="47.7552080" lon="7.5051910">
        <ele>-178.6</ele>
        <time>2022-06-03T07:48:16Z</time>
      </trkpt>
      <trkpt lat="47.7553630" lon="7.5053050">
        <ele>-178.4</ele>
        <time>2022-06-03T07:48:20Z</time>
      </trkpt>
      <trkpt lat="47.7555280" lon="7.5054000">
        <ele>-178.4</ele>
        <time>2022-06-03T07:48:24Z</time>
      </trkpt>
      <trkpt lat="47.7557010" lon="7.5054650">
        <ele>-178.4</ele>
        <time>2022-06-03T07:48:28Z</time>
      </trkpt>
      <trkpt lat="47.7558750" lon="7.5055280">
        <ele>-178.4</ele>
        <time>2022-06-03T07:48:32Z</time>
      </trkpt>
      <trkpt lat="47.7560580" lon="7.5055850">
        <ele>-178.2</ele>
        <time>2022-06-03T07:48:36Z</time>
      </trkpt>
      <trkpt lat="47.7562430" lon="7.5056400">
        <ele>-178.8</ele>
        <time>2022-06-03T07:48:40Z</time>
      </trkpt>
      <trkpt lat="47.7564350" lon="7.5056830">
        <ele>-178.8</ele>
        <time>2022-06-03T07:48:44Z</time>
      </trkpt>
      <trkpt lat="47.7566310" lon="7.5057310">
        <ele>-178.2</ele>
        <time>2022-06-03T07:48:48Z</time>
      </trkpt>
      <trkpt lat="47.7568210" lon="7.5057910">
        <ele>-179.0</ele>
        <time>2022-06-03T07:48:52Z</time>
      </trkpt>
      <trkpt lat="47.7570130" lon="7.5058000">
        <ele>-178.6</ele>
        <time>2022-06-03T07:48:56Z</time>
      </trkpt>
      <trkpt lat="47.7571950" lon="7.5057400">
        <ele>-178.2</ele>
        <time>2022-06-03T07:49:00Z</time>
      </trkpt>
      <trkpt lat="47.7573780" lon="7.5056260">
        <ele>-178.4</ele>
        <time>2022-06-03T07:49:04Z</time>
      </trkpt>
      <trkpt lat="47.7575510" lon="7.5054900">
        <ele>-178.4</ele>
        <time>2022-06-03T07:49:08Z</time>
      </trkpt>
      <trkpt lat="47.7577430" lon="7.5054000">
        <ele>-179.2</ele>
        <time>2022-06-03T07:49:12Z</time>
      </trkpt>
      <trkpt lat="47.7579260" lon="7.5053230">
        <ele>-179.2</ele>
        <time>2022-06-03T07:49:16Z</time>
      </trkpt>
      <trkpt lat="47.7581150" lon="7.5052760">
        <ele>-178.4</ele>
        <time>2022-06-03T07:49:20Z</time>
      </trkpt>
      <trkpt lat="47.7583060" lon="7.5052410">
        <ele>-179.2</ele>
        <time>2022-06-03T07:49:24Z</time>
      </trkpt>
      <trkpt lat="47.7584910" lon="7.5051860">
        <ele>-178.4</ele>
        <time>2022-06-03T07:49:28Z</time>
      </trkpt>
      <trkpt lat="47.7586730" lon="7.5051560">
        <ele>-178.8</ele>
        <time>2022-06-03T07:49:32Z</time>
      </trkpt>
      <trkpt lat="47.7588600" lon="7.5051160">
        <ele>-179.2</ele>
        <time>2022-06-03T07:49:36Z</time>
      </trkpt>
      <trkpt lat="47.7590350" lon="7.5050750">
        <ele>-179.8</ele>
        <time>2022-06-03T07:49:40Z</time>
      </trkpt>
      <trkpt lat="47.7591860" lon="7.5050210">
        <ele>-179.2</ele>
        <time>2022-06-03T07:49:44Z</time>
      </trkpt>
      <trkpt lat="47.7593260" lon="7.5049300">
        <ele>-179.4</ele>
        <time>2022-06-03T07:49:48Z</time>
      </trkpt>
      <trkpt lat="47.7594900" lon="7.5048400">
        <ele>-179.2</ele>
        <time>2022-06-03T07:49:52Z</time>
      </trkpt>
      <trkpt lat="47.7596530" lon="7.5047410">
        <ele>-179.8</ele>
        <time>2022-06-03T07:49:56Z</time>
      </trkpt>
      <trkpt lat="47.7598100" lon="7.5046280">
        <ele>-179.4</ele>
        <time>2022-06-03T07:50:00Z</time>
      </trkpt>
      <trkpt lat="47.7599610" lon="7.5045080">
        <ele>-179.8</ele>
        <time>2022-06-03T07:50:04Z</time>
      </trkpt>
      <trkpt lat="47.7601160" lon="7.5044010">
        <ele>-179.6</ele>
        <time>2022-06-03T07:50:08Z</time>
      </trkpt>
      <trkpt lat="47.7602600" lon="7.5043150">
        <ele>-179.8</ele>
        <time>2022-06-03T07:50:12Z</time>
      </trkpt>
      <trkpt lat="47.7603810" lon="7.5043350">
        <ele>-180.4</ele>
        <time>2022-06-03T07:50:16Z</time>
      </trkpt>
      <trkpt lat="47.7605100" lon="7.5043150">
        <ele>-180.8</ele>
        <time>2022-06-03T07:50:20Z</time>
      </trkpt>
      <trkpt lat="47.7605960" lon="7.5043080">
        <ele>-180.8</ele>
        <time>2022-06-03T07:50:24Z</time>
      </trkpt>
      <trkpt lat="47.7606080" lon="7.5043710">
        <ele>-180.8</ele>
        <time>2022-06-03T07:50:28Z</time>
      </trkpt>
      <trkpt lat="47.7605260" lon="7.5043560">
        <ele>-180.2</ele>
        <time>2022-06-03T07:50:32Z</time>
      </trkpt>
      <trkpt lat="47.7604250" lon="7.5043550">
        <ele>-179.8</ele>
        <time>2022-06-03T07:50:36Z</time>
      </trkpt>
      <trkpt lat="47.7603200" lon="7.5043300">
        <ele>-179.8</ele>
        <time>2022-06-03T07:50:40Z</time>
      </trkpt>
      <trkpt lat="47.7602710" lon="7.5042860">
        <ele>-179.6</ele>
        <time>2022-06-03T07:50:44Z</time>
      </trkpt>
      <trkpt lat="47.7602260" lon="7.5042600">
        <ele>-179.6</ele>
        <time>2022-06-03T07:50:48Z</time>
      </trkpt>
      <trkpt lat="47.7601700" lon="7.5043210">
        <ele>-179.8</ele>
        <time>2022-06-03T07:50:52Z</time>
      </trkpt>
      <trkpt lat="47.7602210" lon="7.5043160">
        <ele>-179.0</ele>
        <time>2022-06-03T07:50:56Z</time>
      </trkpt>
      <trkpt lat="47.7602710" lon="7.5041680">
        <ele>-179.2</ele>
        <time>2022-06-03T07:51:00Z</time>
      </trkpt>
      <trkpt lat="47.7603110" lon="7.5040160">
        <ele>-179.4</ele>
        <time>2022-06-03T07:51:04Z</time>
      </trkpt>
      <trkpt lat="47.7603680" lon="7.5038750">
        <ele>-179.0</ele>
        <time>2022-06-03T07:51:08Z</time>
      </trkpt>
      <trkpt lat="47.7604330" lon="7.5037760">
        <ele>-179.4</ele>
        <time>2022-06-03T07:51:12Z</time>
      </trkpt>
      <trkpt lat="47.7604510" lon="7.5038430">
        <ele>-179.2</ele>
        <time>2022-06-03T07:51:16Z</time>
      </trkpt>
      <trkpt lat="47.7603960" lon="7.5039910">
        <ele>-178.8</ele>
        <time>2022-06-03T07:51:20Z</time>
      </trkpt>
      <trkpt lat="47.7603010" lon="7.5041310">
        <ele>-179.4</ele>
        <time>2022-06-03T07:51:24Z</time>
      </trkpt>
      <trkpt lat="47.7602350" lon="7.5043130">
        <ele>-179.2</ele>
        <time>2022-06-03T07:51:28Z</time>
      </trkpt>
      <trkpt lat="47.7601400" lon="7.5044680">
        <ele>-179.0</ele>
        <time>2022-06-03T07:51:32Z</time>
      </trkpt>
      <trkpt lat="47.7600100" lon="7.5045450">
        <ele>-178.8</ele>
        <time>2022-06-03T07:51:36Z</time>
      </trkpt>
      <trkpt lat="47.7598760" lon="7.5046150">
        <ele>-179.6</ele>
        <time>2022-06-03T07:51:40Z</time>
      </trkpt>
      <trkpt lat="47.7597310" lon="7.5046860">
        <ele>-178.8</ele>
        <time>2022-06-03T07:51:44Z</time>
      </trkpt>
      <trkpt lat="47.7595860" lon="7.5047630">
        <ele>-179.8</ele>
        <time>2022-06-03T07:51:48Z</time>
      </trkpt>
      <trkpt lat="47.7594480" lon="7.5048760">
        <ele>-179.4</ele>
        <time>2022-06-03T07:51:52Z</time>
      </trkpt>
      <trkpt lat="47.7593280" lon="7.5049950">
        <ele>-179.2</ele>
        <time>2022-06-03T07:51:56Z</time>
      </trkpt>
      <trkpt lat="47.7593280" lon="7.5049950">
        <ele>-178.6</ele>
        <time>2022-06-03T07:52:00Z</time>
      </trkpt>
      <trkpt lat="47.7593280" lon="7.5049950">
        <ele>-178.4</ele>
        <time>2022-06-03T07:52:04Z</time>
      </trkpt>
      <trkpt lat="47.7593280" lon="7.5049950">
        <ele>-178.4</ele>
        <time>2022-06-03T07:52:08Z</time>
      </trkpt>
      <trkpt lat="47.7593280" lon="7.5049950">
        <ele>-178.4</ele>
        <time>2022-06-03T07:52:12Z</time>
      </trkpt>
      <trkpt lat="47.7593280" lon="7.5049950">
        <ele>-178.8</ele>
        <time>2022-06-03T07:52:16Z</time>
      </trkpt>
      <trkpt lat="47.7593280" lon="7.5049950">
        <ele>-178.6</ele>
        <time>2022-06-03T07:52:20Z</time>
      </trkpt>
      <trkpt lat="47.7593280" lon="7.5049950">
        <ele>-178.6</ele>
        <time>2022-06-03T07:52:24Z</time>
      </trkpt>
      <trkpt lat="47.7593280" lon="7.5049950">
        <ele>-178.6</ele>
        <time>2022-06-03T07:52:28Z</time>
      </trkpt>
      <trkpt lat="47.7593280" lon="7.5049950">
        <ele>-178.6</ele>
        <time>2022-06-03T07:52:32Z</time>
      </trkpt>
      <trkpt lat="47.7593280" lon="7.5049950">
        <ele>-178.4</ele>
        <time>2022-06-03T07:52:36Z</time>
      </trkpt>
      <trkpt lat="47.7593280" lon="7.5049950">
        <ele>-178.2</ele>
        <time>2022-06-03T07:52:40Z</time>
      </trkpt>
      <trkpt lat="47.7593280" lon="7.5049950">
        <ele>-178.2</ele>
        <time>2022-06-03T07:52:44Z</time>
      </trkpt>
      <trkpt lat="47.7593280" lon="7.5049950">
        <ele>-178.4</ele>
        <time>2022-06-03T07:52:48Z</time>
      </trkpt>
      <trkpt lat="47.7593280" lon="7.5049950">
        <ele>-178.2</ele>
        <time>2022-06-03T07:52:52Z</time>
      </trkpt>
      <trkpt lat="47.7593280" lon="7.5049950">
        <ele>-178.0</ele>
        <time>2022-06-03T07:52:56Z</time>
      </trkpt>
      <trkpt lat="47.7593280" lon="7.5049950">
        <ele>-178.2</ele>
        <time>2022-06-03T07:53:00Z</time>
      </trkpt>
      <trkpt lat="47.7593280" lon="7.5049950">
        <ele>-178.2</ele>
        <time>2022-06-03T07:53:04Z</time>
      </trkpt>
      <trkpt lat="47.7593280" lon="7.5049950">
        <ele>-178.2</ele>
        <time>2022-06-03T07:53:08Z</time>
      </trkpt>
      <trkpt lat="47.7593280" lon="7.5049950">
        <ele>-178.2</ele>
        <time>2022-06-03T07:53:12Z</time>
      </trkpt>
      <trkpt lat="47.7593280" lon="7.5049950">
        <ele>-178.2</ele>
        <time>2022-06-03T07:53:16Z</time>
      </trkpt>
      <trkpt lat="47.7593280" lon="7.5049950">
        <ele>-178.2</ele>
        <time>2022-06-03T07:53:20Z</time>
      </trkpt>
      <trkpt lat="47.7593280" lon="7.5049950">
        <ele>-178.2</ele>
        <time>2022-06-03T07:53:24Z</time>
      </trkpt>
      <trkpt lat="47.7593280" lon="7.5049950">
        <ele>-178.0</ele>
        <time>2022-06-03T07:53:28Z</time>
      </trkpt>
      <trkpt lat="47.7593280" lon="7.5049950">
        <ele>-178.2</ele>
        <time>2022-06-03T07:53:32Z</time>
      </trkpt>
      <trkpt lat="47.7593280" lon="7.5049950">
        <ele>-177.8</ele>
        <time>2022-06-03T07:53:36Z</time>
      </trkpt>
      <trkpt lat="47.7593280" lon="7.5049950">
        <ele>-178.0</ele>
        <time>2022-06-03T07:53:40Z</time>
      </trkpt>
      <trkpt lat="47.7593280" lon="7.5049950">
        <ele>-178.0</ele>
        <time>2022-06-03T07:53:44Z</time>
      </trkpt>
      <trkpt lat="47.7593280" lon="7.5049950">
        <ele>-177.8</ele>
        <time>2022-06-03T07:53:48Z</time>
      </trkpt>
      <trkpt lat="47.7593280" lon="7.5049950">
        <ele>-177.8</ele>
        <time>2022-06-03T07:53:52Z</time>
      </trkpt>
      <trkpt lat="47.7593280" lon="7.5049950">
        <ele>-177.6</ele>
        <time>2022-06-03T07:53:56Z</time>
      </trkpt>
      <trkpt lat="47.7593280" lon="7.5049950">
        <ele>-177.8</ele>
        <time>2022-06-03T07:54:00Z</time>
      </trkpt>
      <trkpt lat="47.7593280" lon="7.5049950">
        <ele>-177.6</ele>
        <time>2022-06-03T07:54:04Z</time>
      </trkpt>
      <trkpt lat="47.7593280" lon="7.5049950">
        <ele>-177.4</ele>
        <time>2022-06-03T07:54:08Z</time>
      </trkpt>
      <trkpt lat="47.7593280" lon="7.5049950">
        <ele>-177.6</ele>
        <time>2022-06-03T07:54:12Z</time>
      </trkpt>
      <trkpt lat="47.7593280" lon="7.5049950">
        <ele>-177.8</ele>
        <time>2022-06-03T07:54:16Z</time>
      </trkpt>
      <trkpt lat="47.7593280" lon="7.5049950">
        <ele>-177.4</ele>
        <time>2022-06-03T07:54:20Z</time>
      </trkpt>
      <trkpt lat="47.7593280" lon="7.5049950">
        <ele>-177.4</ele>
        <time>2022-06-03T07:54:24Z</time>
      </trkpt>
      <trkpt lat="47.7593280" lon="7.5049950">
        <ele>-177.4</ele>
        <time>2022-06-03T07:54:28Z</time>
      </trkpt>
      <trkpt lat="47.7593280" lon="7.5049950">
        <ele>-177.2</ele>
        <time>2022-06-03T07:54:32Z</time>
      </trkpt>
      <trkpt lat="47.7593280" lon="7.5049950">
        <ele>-177.6</ele>
        <time>2022-06-03T07:54:36Z</time>
      </trkpt>
      <trkpt lat="47.7593280" lon="7.5049950">
        <ele>-177.6</ele>
        <time>2022-06-03T07:54:40Z</time>
      </trkpt>
      <trkpt lat="47.7593280" lon="7.5049950">
        <ele>-177.4</ele>
        <time>2022-06-03T07:54:44Z</time>
      </trkpt>
      <trkpt lat="47.7593280" lon="7.5049950">
        <ele>-177.8</ele>
        <time>2022-06-03T07:54:48Z</time>
      </trkpt>
      <trkpt lat="47.7593280" lon="7.5049950">
        <ele>-177.6</ele>
        <time>2022-06-03T07:54:52Z</time>
      </trkpt>
      <trkpt lat="47.7593280" lon="7.5049950">
        <ele>-177.2</ele>
        <time>2022-06-03T07:54:56Z</time>
      </trkpt>
      <trkpt lat="47.7593280" lon="7.5049950">
        <ele>-177.2</ele>
        <time>2022-06-03T07:55:00Z</time>
      </trkpt>
      <trkpt lat="47.7593280" lon="7.5049950">
        <ele>-177.4</ele>
        <time>2022-06-03T07:55:04Z</time>
      </trkpt>
      <trkpt lat="47.7593280" lon="7.5049950">
        <ele>-177.4</ele>
        <time>2022-06-03T07:55:08Z</time>
      </trkpt>
      <trkpt lat="47.7593280" lon="7.5049950">
        <ele>-177.2</ele>
        <time>2022-06-03T07:55:12Z</time>
      </trkpt>
      <trkpt lat="47.7593280" lon="7.5049950">
        <ele>-177.4</ele>
        <time>2022-06-03T07:55:16Z</time>
      </trkpt>
      <trkpt lat="47.7593280" lon="7.5049950">
        <ele>-177.0</ele>
        <time>2022-06-03T07:55:20Z</time>
      </trkpt>
      <trkpt lat="47.7593280" lon="7.5049950">
        <ele>-177.2</ele>
        <time>2022-06-03T07:55:24Z</time>
      </trkpt>
      <trkpt lat="47.7593280" lon="7.5049950">
        <ele>-177.4</ele>
        <time>2022-06-03T07:55:28Z</time>
      </trkpt>
      <trkpt lat="47.7593280" lon="7.5049950">
        <ele>-177.2</ele>
        <time>2022-06-03T07:55:32Z</time>
      </trkpt>
      <trkpt lat="47.7593280" lon="7.5049950">
        <ele>-177.2</ele>
        <time>2022-06-03T07:55:36Z</time>
      </trkpt>
      <trkpt lat="47.7593280" lon="7.5049950">
        <ele>-177.2</ele>
        <time>2022-06-03T07:55:40Z</time>
      </trkpt>
      <trkpt lat="47.7593280" lon="7.5049950">
        <ele>-177.2</ele>
        <time>2022-06-03T07:55:44Z</time>
      </trkpt>
      <trkpt lat="47.7593280" lon="7.5049950">
        <ele>-177.0</ele>
        <time>2022-06-03T07:55:48Z</time>
      </trkpt>
      <trkpt lat="47.7593280" lon="7.5049950">
        <ele>-177.2</ele>
        <time>2022-06-03T07:55:52Z</time>
      </trkpt>
      <trkpt lat="47.7593280" lon="7.5049950">
        <ele>-177.4</ele>
        <time>2022-06-03T07:55:56Z</time>
      </trkpt>
      <trkpt lat="47.7593280" lon="7.5049950">
        <ele>-177.4</ele>
        <time>2022-06-03T07:56:00Z</time>
      </trkpt>
      <trkpt lat="47.7593280" lon="7.5049950">
        <ele>-177.2</ele>
        <time>2022-06-03T07:56:04Z</time>
      </trkpt>
      <trkpt lat="47.7593280" lon="7.5049950">
        <ele>-177.0</ele>
        <time>2022-06-03T07:56:08Z</time>
      </trkpt>
      <trkpt lat="47.7593280" lon="7.5049950">
        <ele>-177.0</ele>
        <time>2022-06-03T07:56:12Z</time>
      </trkpt>
      <trkpt lat="47.7593280" lon="7.5049950">
        <ele>-177.0</ele>
        <time>2022-06-03T07:56:16Z</time>
      </trkpt>
      <trkpt lat="47.7591800" lon="7.5049000">
        <ele>-177.4</ele>
        <time>2022-06-03T07:56:20Z</time>
      </trkpt>
      <trkpt lat="47.7591750" lon="7.5049130">
        <ele>-177.2</ele>
        <time>2022-06-03T07:56:24Z</time>
      </trkpt>
      <trkpt lat="47.7592410" lon="7.5048580">
        <ele>-177.4</ele>
        <time>2022-06-03T07:56:28Z</time>
      </trkpt>
      <trkpt lat="47.7593660" lon="7.5048310">
        <ele>-177.4</ele>
        <time>2022-06-03T07:56:32Z</time>
      </trkpt>
      <trkpt lat="47.7595110" lon="7.5047710">
        <ele>-177.2</ele>
        <time>2022-06-03T07:56:36Z</time>
      </trkpt>
      <trkpt lat="47.7596780" lon="7.5047010">
        <ele>-177.4</ele>
        <time>2022-06-03T07:56:40Z</time>
      </trkpt>
      <trkpt lat="47.7598380" lon="7.5046000">
        <ele>-177.4</ele>
        <time>2022-06-03T07:56:44Z</time>
      </trkpt>
      <trkpt lat="47.7599800" lon="7.5044760">
        <ele>-177.6</ele>
        <time>2022-06-03T07:56:48Z</time>
      </trkpt>
      <trkpt lat="47.7601360" lon="7.5043550">
        <ele>-177.6</ele>
        <time>2022-06-03T07:56:52Z</time>
      </trkpt>
      <trkpt lat="47.7602400" lon="7.5041750">
        <ele>-177.8</ele>
        <time>2022-06-03T07:56:56Z</time>
      </trkpt>
      <trkpt lat="47.7603030" lon="7.5040010">
        <ele>-177.4</ele>
        <time>2022-06-03T07:57:00Z</time>
      </trkpt>
      <trkpt lat="47.7603400" lon="7.5038660">
        <ele>-177.4</ele>
        <time>2022-06-03T07:57:04Z</time>
      </trkpt>
      <trkpt lat="47.7603850" lon="7.5037530">
        <ele>-177.4</ele>
        <time>2022-06-03T07:57:08Z</time>
      </trkpt>
      <trkpt lat="47.7603850" lon="7.5037530">
        <ele>-177.2</ele>
        <time>2022-06-03T07:57:12Z</time>
      </trkpt>
      <trkpt lat="47.7603680" lon="7.5037150">
        <ele>-177.6</ele>
        <time>2022-06-03T07:57:16Z</time>
      </trkpt>
      <trkpt lat="47.7603500" lon="7.5037600">
        <ele>-177.4</ele>
        <time>2022-06-03T07:57:20Z</time>
      </trkpt>
      <trkpt lat="47.7603400" lon="7.5037960">
        <ele>-177.4</ele>
        <time>2022-06-03T07:57:24Z</time>
      </trkpt>
      <trkpt lat="47.7603250" lon="7.5038330">
        <ele>-177.0</ele>
        <time>2022-06-03T07:57:28Z</time>
      </trkpt>
      <trkpt lat="47.7603060" lon="7.5038680">
        <ele>-177.2</ele>
        <time>2022-06-03T07:57:32Z</time>
      </trkpt>
      <trkpt lat="47.7603060" lon="7.5038680">
        <ele>-177.2</ele>
        <time>2022-06-03T07:57:36Z</time>
      </trkpt>
      <trkpt lat="47.7603060" lon="7.5038680">
        <ele>-177.0</ele>
        <time>2022-06-03T07:57:40Z</time>
      </trkpt>
      <trkpt lat="47.7603060" lon="7.5038680">
        <ele>-177.2</ele>
        <time>2022-06-03T07:57:44Z</time>
      </trkpt>
      <trkpt lat="47.7602830" lon="7.5039010">
        <ele>-177.2</ele>
        <time>2022-06-03T07:57:48Z</time>
      </trkpt>
      <trkpt lat="47.7602830" lon="7.5039010">
        <ele>-177.2</ele>
        <time>2022-06-03T07:57:52Z</time>
      </trkpt>
      <trkpt lat="47.7602900" lon="7.5039160">
        <ele>-177.4</ele>
        <time>2022-06-03T07:57:56Z</time>
      </trkpt>
      <trkpt lat="47.7602900" lon="7.5039160">
        <ele>-177.4</ele>
        <time>2022-06-03T07:58:00Z</time>
      </trkpt>
      <trkpt lat="47.7602900" lon="7.5039160">
        <ele>-177.6</ele>
        <time>2022-06-03T07:58:04Z</time>
      </trkpt>
      <trkpt lat="47.7602900" lon="7.5039160">
        <ele>-177.0</ele>
        <time>2022-06-03T07:58:08Z</time>
      </trkpt>
      <trkpt lat="47.7602900" lon="7.5039160">
        <ele>-177.4</ele>
        <time>2022-06-03T07:58:12Z</time>
      </trkpt>
      <trkpt lat="47.7602900" lon="7.5039160">
        <ele>-177.2</ele>
        <time>2022-06-03T07:58:16Z</time>
      </trkpt>
      <trkpt lat="47.7602900" lon="7.5039160">
        <ele>-177.2</ele>
        <time>2022-06-03T07:58:20Z</time>
      </trkpt>
      <trkpt lat="47.7602900" lon="7.5039160">
        <ele>-177.4</ele>
        <time>2022-06-03T07:58:24Z</time>
      </trkpt>
      <trkpt lat="47.7602900" lon="7.5039160">
        <ele>-177.2</ele>
        <time>2022-06-03T07:58:28Z</time>
      </trkpt>
      <trkpt lat="47.7602900" lon="7.5039160">
        <ele>-177.6</ele>
        <time>2022-06-03T07:58:32Z</time>
      </trkpt>
      <trkpt lat="47.7602900" lon="7.5039160">
        <ele>-177.2</ele>
        <time>2022-06-03T07:58:36Z</time>
      </trkpt>
      <trkpt lat="47.7602900" lon="7.5039160">
        <ele>-177.4</ele>
        <time>2022-06-03T07:58:40Z</time>
      </trkpt>
      <trkpt lat="47.7602900" lon="7.5039160">
        <ele>-177.8</ele>
        <time>2022-06-03T07:58:44Z</time>
      </trkpt>
      <trkpt lat="47.7602900" lon="7.5039160">
        <ele>-177.6</ele>
        <time>2022-06-03T07:58:48Z</time>
      </trkpt>
      <trkpt lat="47.7602900" lon="7.5039160">
        <ele>-177.6</ele>
        <time>2022-06-03T07:58:52Z</time>
      </trkpt>
      <trkpt lat="47.7602900" lon="7.5039160">
        <ele>-177.4</ele>
        <time>2022-06-03T07:58:56Z</time>
      </trkpt>
      <trkpt lat="47.7602900" lon="7.5039160">
        <ele>-177.6</ele>
        <time>2022-06-03T07:59:00Z</time>
      </trkpt>
      <trkpt lat="47.7602900" lon="7.5039160">
        <ele>-177.6</ele>
        <time>2022-06-03T07:59:04Z</time>
      </trkpt>
      <trkpt lat="47.7602900" lon="7.5039160">
        <ele>-177.4</ele>
        <time>2022-06-03T07:59:08Z</time>
      </trkpt>
      <trkpt lat="47.7602900" lon="7.5039160">
        <ele>-177.4</ele>
        <time>2022-06-03T07:59:12Z</time>
      </trkpt>
      <trkpt lat="47.7602900" lon="7.5039160">
        <ele>-177.4</ele>
        <time>2022-06-03T07:59:16Z</time>
      </trkpt>
      <trkpt lat="47.7602900" lon="7.5039160">
        <ele>-177.4</ele>
        <time>2022-06-03T07:59:20Z</time>
      </trkpt>
      <trkpt lat="47.7602900" lon="7.5039160">
        <ele>-177.4</ele>
        <time>2022-06-03T07:59:24Z</time>
      </trkpt>
      <trkpt lat="47.7602900" lon="7.5039160">
        <ele>-177.6</ele>
        <time>2022-06-03T07:59:28Z</time>
      </trkpt>
      <trkpt lat="47.7602900" lon="7.5039160">
        <ele>-177.2</ele>
        <time>2022-06-03T07:59:32Z</time>
      </trkpt>
      <trkpt lat="47.7602900" lon="7.5039160">
        <ele>-177.4</ele>
        <time>2022-06-03T07:59:36Z</time>
      </trkpt>
      <trkpt lat="47.7602900" lon="7.5039160">
        <ele>-177.2</ele>
        <time>2022-06-03T07:59:40Z</time>
      </trkpt>
      <trkpt lat="47.7602900" lon="7.5039160">
        <ele>-177.4</ele>
        <time>2022-06-03T07:59:44Z</time>
      </trkpt>
      <trkpt lat="47.7602900" lon="7.5039160">
        <ele>-177.6</ele>
        <time>2022-06-03T07:59:48Z</time>
      </trkpt>
      <trkpt lat="47.7602900" lon="7.5039160">
        <ele>-177.4</ele>
        <time>2022-06-03T07:59:52Z</time>
      </trkpt>
      <trkpt lat="47.7602900" lon="7.5039160">
        <ele>-177.8</ele>
        <time>2022-06-03T07:59:56Z</time>
      </trkpt>
      <trkpt lat="47.7602900" lon="7.5039160">
        <ele>-177.6</ele>
        <time>2022-06-03T08:00:00Z</time>
      </trkpt>
      <trkpt lat="47.7602900" lon="7.5039160">
        <ele>-177.6</ele>
        <time>2022-06-03T08:00:04Z</time>
      </trkpt>
      <trkpt lat="47.7602900" lon="7.5039160">
        <ele>-177.6</ele>
        <time>2022-06-03T08:00:08Z</time>
      </trkpt>
      <trkpt lat="47.7602900" lon="7.5039160">
        <ele>-177.4</ele>
        <time>2022-06-03T08:00:12Z</time>
      </trkpt>
      <trkpt lat="47.7602900" lon="7.5039160">
        <ele>-177.2</ele>
        <time>2022-06-03T08:00:16Z</time>
      </trkpt>
      <trkpt lat="47.7602900" lon="7.5039160">
        <ele>-177.6</ele>
        <time>2022-06-03T08:00:20Z</time>
      </trkpt>
      <trkpt lat="47.7602900" lon="7.5039160">
        <ele>-177.2</ele>
        <time>2022-06-03T08:00:24Z</time>
      </trkpt>
      <trkpt lat="47.7602900" lon="7.5039160">
        <ele>-177.4</ele>
        <time>2022-06-03T08:00:28Z</time>
      </trkpt>
      <trkpt lat="47.7602900" lon="7.5039160">
        <ele>-177.4</ele>
        <time>2022-06-03T08:00:32Z</time>
      </trkpt>
      <trkpt lat="47.7602900" lon="7.5039160">
        <ele>-177.8</ele>
        <time>2022-06-03T08:00:36Z</time>
      </trkpt>
      <trkpt lat="47.7602900" lon="7.5039160">
        <ele>-177.4</ele>
        <time>2022-06-03T08:00:40Z</time>
      </trkpt>
      <trkpt lat="47.7602900" lon="7.5039160">
        <ele>-177.8</ele>
        <time>2022-06-03T08:00:44Z</time>
      </trkpt>
      <trkpt lat="47.7602900" lon="7.5039160">
        <ele>-177.6</ele>
        <time>2022-06-03T08:00:48Z</time>
      </trkpt>
      <trkpt lat="47.7602900" lon="7.5039160">
        <ele>-177.4</ele>
        <time>2022-06-03T08:00:52Z</time>
      </trkpt>
      <trkpt lat="47.7602900" lon="7.5039160">
        <ele>-177.4</ele>
        <time>2022-06-03T08:00:56Z</time>
      </trkpt>
      <trkpt lat="47.7602900" lon="7.5039160">
        <ele>-177.8</ele>
        <time>2022-06-03T08:01:00Z</time>
      </trkpt>
      <trkpt lat="47.7602900" lon="7.5039160">
        <ele>-177.6</ele>
        <time>2022-06-03T08:01:04Z</time>
      </trkpt>
      <trkpt lat="47.7602900" lon="7.5039160">
        <ele>-177.4</ele>
        <time>2022-06-03T08:01:08Z</time>
      </trkpt>
      <trkpt lat="47.7602900" lon="7.5039160">
        <ele>-177.4</ele>
        <time>2022-06-03T08:01:12Z</time>
      </trkpt>
      <trkpt lat="47.7602900" lon="7.5039160">
        <ele>-177.4</ele>
        <time>2022-06-03T08:01:16Z</time>
      </trkpt>
      <trkpt lat="47.7602900" lon="7.5039160">
        <ele>-177.4</ele>
        <time>2022-06-03T08:01:20Z</time>
      </trkpt>
      <trkpt lat="47.7602900" lon="7.5039160">
        <ele>-177.4</ele>
        <time>2022-06-03T08:01:24Z</time>
      </trkpt>
      <trkpt lat="47.7602900" lon="7.5039160">
        <ele>-177.0</ele>
        <time>2022-06-03T08:01:28Z</time>
      </trkpt>
      <trkpt lat="47.7602900" lon="7.5039160">
        <ele>-177.2</ele>
        <time>2022-06-03T08:01:32Z</time>
      </trkpt>
      <trkpt lat="47.7602900" lon="7.5039160">
        <ele>-177.6</ele>
        <time>2022-06-03T08:01:36Z</time>
      </trkpt>
      <trkpt lat="47.7602900" lon="7.5039160">
        <ele>-177.4</ele>
        <time>2022-06-03T08:01:40Z</time>
      </trkpt>
      <trkpt lat="47.7602900" lon="7.5039160">
        <ele>-177.4</ele>
        <time>2022-06-03T08:01:44Z</time>
      </trkpt>
      <trkpt lat="47.7602900" lon="7.5039160">
        <ele>-177.6</ele>
        <time>2022-06-03T08:01:48Z</time>
      </trkpt>
      <trkpt lat="47.7602900" lon="7.5039160">
        <ele>-177.6</ele>
        <time>2022-06-03T08:01:52Z</time>
      </trkpt>
      <trkpt lat="47.7602900" lon="7.5039160">
        <ele>-177.4</ele>
        <time>2022-06-03T08:01:56Z</time>
      </trkpt>
      <trkpt lat="47.7602900" lon="7.5039160">
        <ele>-177.4</ele>
        <time>2022-06-03T08:02:00Z</time>
      </trkpt>
      <trkpt lat="47.7602900" lon="7.5039160">
        <ele>-178.0</ele>
        <time>2022-06-03T08:02:04Z</time>
      </trkpt>
      <trkpt lat="47.7602900" lon="7.5039160">
        <ele>-177.6</ele>
        <time>2022-06-03T08:02:08Z</time>
      </trkpt>
      <trkpt lat="47.7602900" lon="7.5039160">
        <ele>-177.4</ele>
        <time>2022-06-03T08:02:12Z</time>
      </trkpt>
      <trkpt lat="47.7602900" lon="7.5039160">
        <ele>-177.4</ele>
        <time>2022-06-03T08:02:16Z</time>
      </trkpt>
      <trkpt lat="47.7602900" lon="7.5039160">
        <ele>-177.4</ele>
        <time>2022-06-03T08:02:20Z</time>
      </trkpt>
      <trkpt lat="47.7602900" lon="7.5039160">
        <ele>-177.4</ele>
        <time>2022-06-03T08:02:24Z</time>
      </trkpt>
      <trkpt lat="47.7602900" lon="7.5039160">
        <ele>-177.2</ele>
        <time>2022-06-03T08:02:28Z</time>
      </trkpt>
      <trkpt lat="47.7602900" lon="7.5039160">
        <ele>-177.4</ele>
        <time>2022-06-03T08:02:32Z</time>
      </trkpt>
      <trkpt lat="47.7602900" lon="7.5039160">
        <ele>-177.0</ele>
        <time>2022-06-03T08:02:36Z</time>
      </trkpt>
      <trkpt lat="47.7602900" lon="7.5039160">
        <ele>-177.2</ele>
        <time>2022-06-03T08:02:40Z</time>
      </trkpt>
      <trkpt lat="47.7602900" lon="7.5039160">
        <ele>-177.6</ele>
        <time>2022-06-03T08:02:44Z</time>
      </trkpt>
      <trkpt lat="47.7602900" lon="7.5039160">
        <ele>-177.6</ele>
        <time>2022-06-03T08:02:48Z</time>
      </trkpt>
      <trkpt lat="47.7602900" lon="7.5039160">
        <ele>-177.4</ele>
        <time>2022-06-03T08:02:52Z</time>
      </trkpt>
      <trkpt lat="47.7602900" lon="7.5039160">
        <ele>-177.4</ele>
        <time>2022-06-03T08:02:56Z</time>
      </trkpt>
      <trkpt lat="47.7602900" lon="7.5039160">
        <ele>-177.6</ele>
        <time>2022-06-03T08:03:00Z</time>
      </trkpt>
      <trkpt lat="47.7602900" lon="7.5039160">
        <ele>-177.8</ele>
        <time>2022-06-03T08:03:04Z</time>
      </trkpt>
      <trkpt lat="47.7602900" lon="7.5039160">
        <ele>-177.8</ele>
        <time>2022-06-03T08:03:08Z</time>
      </trkpt>
      <trkpt lat="47.7602900" lon="7.5039160">
        <ele>-177.6</ele>
        <time>2022-06-03T08:03:12Z</time>
      </trkpt>
      <trkpt lat="47.7602900" lon="7.5039160">
        <ele>-177.6</ele>
        <time>2022-06-03T08:03:16Z</time>
      </trkpt>
      <trkpt lat="47.7602900" lon="7.5039160">
        <ele>-177.6</ele>
        <time>2022-06-03T08:03:20Z</time>
      </trkpt>
      <trkpt lat="47.7602900" lon="7.5039160">
        <ele>-178.2</ele>
        <time>2022-06-03T08:03:24Z</time>
      </trkpt>
      <trkpt lat="47.7602900" lon="7.5039160">
        <ele>-177.8</ele>
        <time>2022-06-03T08:03:28Z</time>
      </trkpt>
      <trkpt lat="47.7602900" lon="7.5039160">
        <ele>-177.6</ele>
        <time>2022-06-03T08:03:32Z</time>
      </trkpt>
      <trkpt lat="47.7602900" lon="7.5039160">
        <ele>-177.2</ele>
        <time>2022-06-03T08:03:36Z</time>
      </trkpt>
      <trkpt lat="47.7602900" lon="7.5039160">
        <ele>-177.4</ele>
        <time>2022-06-03T08:03:40Z</time>
      </trkpt>
      <trkpt lat="47.7602900" lon="7.5039160">
        <ele>-177.8</ele>
        <time>2022-06-03T08:03:44Z</time>
      </trkpt>
      <trkpt lat="47.7602900" lon="7.5039160">
        <ele>-177.6</ele>
        <time>2022-06-03T08:03:48Z</time>
      </trkpt>
      <trkpt lat="47.7602900" lon="7.5039160">
        <ele>-177.8</ele>
        <time>2022-06-03T08:03:52Z</time>
      </trkpt>
      <trkpt lat="47.7602900" lon="7.5039160">
        <ele>-177.8</ele>
        <time>2022-06-03T08:03:56Z</time>
      </trkpt>
      <trkpt lat="47.7602900" lon="7.5039160">
        <ele>-177.6</ele>
        <time>2022-06-03T08:04:00Z</time>
      </trkpt>
      <trkpt lat="47.7602900" lon="7.5039160">
        <ele>-177.8</ele>
        <time>2022-06-03T08:04:04Z</time>
      </trkpt>
      <trkpt lat="47.7602900" lon="7.5039160">
        <ele>-177.6</ele>
        <time>2022-06-03T08:04:08Z</time>
      </trkpt>
      <trkpt lat="47.7602900" lon="7.5039160">
        <ele>-177.4</ele>
        <time>2022-06-03T08:04:12Z</time>
      </trkpt>
      <trkpt lat="47.7602900" lon="7.5039160">
        <ele>-177.6</ele>
        <time>2022-06-03T08:04:16Z</time>
      </trkpt>
      <trkpt lat="47.7602900" lon="7.5039160">
        <ele>-178.0</ele>
        <time>2022-06-03T08:04:20Z</time>
      </trkpt>
      <trkpt lat="47.7602900" lon="7.5039160">
        <ele>-178.0</ele>
        <time>2022-06-03T08:04:24Z</time>
      </trkpt>
      <trkpt lat="47.7602900" lon="7.5039160">
        <ele>-178.0</ele>
        <time>2022-06-03T08:04:28Z</time>
      </trkpt>
      <trkpt lat="47.7602900" lon="7.5039160">
        <ele>-178.0</ele>
        <time>2022-06-03T08:04:32Z</time>
      </trkpt>
      <trkpt lat="47.7602900" lon="7.5039160">
        <ele>-177.8</ele>
        <time>2022-06-03T08:04:36Z</time>
      </trkpt>
      <trkpt lat="47.7602900" lon="7.5039160">
        <ele>-177.8</ele>
        <time>2022-06-03T08:04:40Z</time>
      </trkpt>
      <trkpt lat="47.7602900" lon="7.5039160">
        <ele>-177.8</ele>
        <time>2022-06-03T08:04:44Z</time>
      </trkpt>
      <trkpt lat="47.7602900" lon="7.5039160">
        <ele>-178.0</ele>
        <time>2022-06-03T08:04:48Z</time>
      </trkpt>
      <trkpt lat="47.7602900" lon="7.5039160">
        <ele>-178.0</ele>
        <time>2022-06-03T08:04:52Z</time>
      </trkpt>
      <trkpt lat="47.7602900" lon="7.5039160">
        <ele>-178.0</ele>
        <time>2022-06-03T08:04:56Z</time>
      </trkpt>
      <trkpt lat="47.7602900" lon="7.5039160">
        <ele>-178.0</ele>
        <time>2022-06-03T08:05:00Z</time>
      </trkpt>
      <trkpt lat="47.7602900" lon="7.5039160">
        <ele>-177.8</ele>
        <time>2022-06-03T08:05:04Z</time>
      </trkpt>
      <trkpt lat="47.7602900" lon="7.5039160">
        <ele>-177.4</ele>
        <time>2022-06-03T08:05:08Z</time>
      </trkpt>
      <trkpt lat="47.7602900" lon="7.5039160">
        <ele>-177.4</ele>
        <time>2022-06-03T08:05:12Z</time>
      </trkpt>
      <trkpt lat="47.7602900" lon="7.5039160">
        <ele>-177.6</ele>
        <time>2022-06-03T08:05:16Z</time>
      </trkpt>
      <trkpt lat="47.7602900" lon="7.5039160">
        <ele>-177.8</ele>
        <time>2022-06-03T08:05:20Z</time>
      </trkpt>
      <trkpt lat="47.7602900" lon="7.5039160">
        <ele>-177.8</ele>
        <time>2022-06-03T08:05:24Z</time>
      </trkpt>
      <trkpt lat="47.7602900" lon="7.5039160">
        <ele>-177.4</ele>
        <time>2022-06-03T08:05:28Z</time>
      </trkpt>
      <trkpt lat="47.7602900" lon="7.5039160">
        <ele>-177.8</ele>
        <time>2022-06-03T08:05:32Z</time>
      </trkpt>
      <trkpt lat="47.7602900" lon="7.5039160">
        <ele>-177.6</ele>
        <time>2022-06-03T08:05:36Z</time>
      </trkpt>
      <trkpt lat="47.7602900" lon="7.5039160">
        <ele>-177.2</ele>
        <time>2022-06-03T08:05:40Z</time>
      </trkpt>
      <trkpt lat="47.7602900" lon="7.5039160">
        <ele>-177.6</ele>
        <time>2022-06-03T08:05:44Z</time>
      </trkpt>
      <trkpt lat="47.7602900" lon="7.5039160">
        <ele>-177.4</ele>
        <time>2022-06-03T08:05:48Z</time>
      </trkpt>
      <trkpt lat="47.7602900" lon="7.5039160">
        <ele>-177.4</ele>
        <time>2022-06-03T08:05:52Z</time>
      </trkpt>
      <trkpt lat="47.7602900" lon="7.5039160">
        <ele>-177.4</ele>
        <time>2022-06-03T08:05:56Z</time>
      </trkpt>
      <trkpt lat="47.7602900" lon="7.5039160">
        <ele>-177.2</ele>
        <time>2022-06-03T08:06:00Z</time>
      </trkpt>
      <trkpt lat="47.7602900" lon="7.5039160">
        <ele>-177.2</ele>
        <time>2022-06-03T08:06:04Z</time>
      </trkpt>
      <trkpt lat="47.7602900" lon="7.5039160">
        <ele>-177.4</ele>
        <time>2022-06-03T08:06:08Z</time>
      </trkpt>
      <trkpt lat="47.7602900" lon="7.5039160">
        <ele>-177.4</ele>
        <time>2022-06-03T08:06:12Z</time>
      </trkpt>
      <trkpt lat="47.7602900" lon="7.5039160">
        <ele>-177.0</ele>
        <time>2022-06-03T08:06:16Z</time>
      </trkpt>
      <trkpt lat="47.7602900" lon="7.5039160">
        <ele>-177.4</ele>
        <time>2022-06-03T08:06:20Z</time>
      </trkpt>
      <trkpt lat="47.7602900" lon="7.5039160">
        <ele>-177.2</ele>
        <time>2022-06-03T08:06:24Z</time>
      </trkpt>
      <trkpt lat="47.7602900" lon="7.5039160">
        <ele>-177.2</ele>
        <time>2022-06-03T08:06:28Z</time>
      </trkpt>
      <trkpt lat="47.7602900" lon="7.5039160">
        <ele>-177.0</ele>
        <time>2022-06-03T08:06:32Z</time>
      </trkpt>
      <trkpt lat="47.7602900" lon="7.5039160">
        <ele>-177.4</ele>
        <time>2022-06-03T08:06:36Z</time>
      </trkpt>
      <trkpt lat="47.7602900" lon="7.5039160">
        <ele>-177.4</ele>
        <time>2022-06-03T08:06:40Z</time>
      </trkpt>
      <trkpt lat="47.7602900" lon="7.5039160">
        <ele>-177.4</ele>
        <time>2022-06-03T08:06:44Z</time>
      </trkpt>
      <trkpt lat="47.7602900" lon="7.5039160">
        <ele>-177.4</ele>
        <time>2022-06-03T08:06:48Z</time>
      </trkpt>
      <trkpt lat="47.7602900" lon="7.5039160">
        <ele>-177.4</ele>
        <time>2022-06-03T08:06:52Z</time>
      </trkpt>
      <trkpt lat="47.7602900" lon="7.5039160">
        <ele>-177.2</ele>
        <time>2022-06-03T08:06:56Z</time>
      </trkpt>
      <trkpt lat="47.7602900" lon="7.5039160">
        <ele>-177.4</ele>
        <time>2022-06-03T08:07:00Z</time>
      </trkpt>
      <trkpt lat="47.7602900" lon="7.5039160">
        <ele>-177.4</ele>
        <time>2022-06-03T08:07:04Z</time>
      </trkpt>
      <trkpt lat="47.7602900" lon="7.5039160">
        <ele>-177.4</ele>
        <time>2022-06-03T08:07:08Z</time>
      </trkpt>
      <trkpt lat="47.7602900" lon="7.5039160">
        <ele>-177.2</ele>
        <time>2022-06-03T08:07:12Z</time>
      </trkpt>
      <trkpt lat="47.7602900" lon="7.5039160">
        <ele>-177.0</ele>
        <time>2022-06-03T08:07:16Z</time>
      </trkpt>
      <trkpt lat="47.7602900" lon="7.5039160">
        <ele>-177.4</ele>
        <time>2022-06-03T08:07:20Z</time>
      </trkpt>
      <trkpt lat="47.7602900" lon="7.5039160">
        <ele>-177.2</ele>
        <time>2022-06-03T08:07:24Z</time>
      </trkpt>
      <trkpt lat="47.7602900" lon="7.5039160">
        <ele>-177.4</ele>
        <time>2022-06-03T08:07:28Z</time>
      </trkpt>
      <trkpt lat="47.7602900" lon="7.5039160">
        <ele>-177.4</ele>
        <time>2022-06-03T08:07:32Z</time>
      </trkpt>
      <trkpt lat="47.7602900" lon="7.5039160">
        <ele>-177.0</ele>
        <time>2022-06-03T08:07:36Z</time>
      </trkpt>
      <trkpt lat="47.7602900" lon="7.5039160">
        <ele>-177.4</ele>
        <time>2022-06-03T08:07:40Z</time>
      </trkpt>
      <trkpt lat="47.7602900" lon="7.5039160">
        <ele>-177.2</ele>
        <time>2022-06-03T08:07:44Z</time>
      </trkpt>
      <trkpt lat="47.7602900" lon="7.5039160">
        <ele>-177.2</ele>
        <time>2022-06-03T08:07:48Z</time>
      </trkpt>
      <trkpt lat="47.7602900" lon="7.5039160">
        <ele>-177.0</ele>
        <time>2022-06-03T08:07:52Z</time>
      </trkpt>
      <trkpt lat="47.7602900" lon="7.5039160">
        <ele>-177.0</ele>
        <time>2022-06-03T08:07:56Z</time>
      </trkpt>
      <trkpt lat="47.7602900" lon="7.5039160">
        <ele>-177.0</ele>
        <time>2022-06-03T08:08:00Z</time>
      </trkpt>
      <trkpt lat="47.7602900" lon="7.5039160">
        <ele>-177.0</ele>
        <time>2022-06-03T08:08:04Z</time>
      </trkpt>
      <trkpt lat="47.7602900" lon="7.5039160">
        <ele>-176.8</ele>
        <time>2022-06-03T08:08:08Z</time>
      </trkpt>
      <trkpt lat="47.7602900" lon="7.5039160">
        <ele>-177.0</ele>
        <time>2022-06-03T08:08:12Z</time>
      </trkpt>
      <trkpt lat="47.7602900" lon="7.5039160">
        <ele>-177.0</ele>
        <time>2022-06-03T08:08:16Z</time>
      </trkpt>
      <trkpt lat="47.7602900" lon="7.5039160">
        <ele>-176.8</ele>
        <time>2022-06-03T08:08:20Z</time>
      </trkpt>
      <trkpt lat="47.7602900" lon="7.5039160">
        <ele>-176.6</ele>
        <time>2022-06-03T08:08:24Z</time>
      </trkpt>
      <trkpt lat="47.7602900" lon="7.5039160">
        <ele>-176.6</ele>
        <time>2022-06-03T08:08:28Z</time>
      </trkpt>
      <trkpt lat="47.7602900" lon="7.5039160">
        <ele>-176.6</ele>
        <time>2022-06-03T08:08:32Z</time>
      </trkpt>
      <trkpt lat="47.7602900" lon="7.5039160">
        <ele>-177.0</ele>
        <time>2022-06-03T08:08:36Z</time>
      </trkpt>
      <trkpt lat="47.7602900" lon="7.5039160">
        <ele>-177.0</ele>
        <time>2022-06-03T08:08:40Z</time>
      </trkpt>
      <trkpt lat="47.7602900" lon="7.5039160">
        <ele>-177.0</ele>
        <time>2022-06-03T08:08:44Z</time>
      </trkpt>
      <trkpt lat="47.7602900" lon="7.5039160">
        <ele>-177.2</ele>
        <time>2022-06-03T08:08:48Z</time>
      </trkpt>
      <trkpt lat="47.7602900" lon="7.5039160">
        <ele>-177.0</ele>
        <time>2022-06-03T08:08:52Z</time>
      </trkpt>
      <trkpt lat="47.7602900" lon="7.5039160">
        <ele>-177.0</ele>
        <time>2022-06-03T08:08:56Z</time>
      </trkpt>
      <trkpt lat="47.7602900" lon="7.5039160">
        <ele>-176.8</ele>
        <time>2022-06-03T08:09:00Z</time>
      </trkpt>
      <trkpt lat="47.7602900" lon="7.5039160">
        <ele>-176.8</ele>
        <time>2022-06-03T08:09:04Z</time>
      </trkpt>
      <trkpt lat="47.7602900" lon="7.5039160">
        <ele>-176.8</ele>
        <time>2022-06-03T08:09:08Z</time>
      </trkpt>
      <trkpt lat="47.7602900" lon="7.5039160">
        <ele>-176.8</ele>
        <time>2022-06-03T08:09:12Z</time>
      </trkpt>
      <trkpt lat="47.7602900" lon="7.5039160">
        <ele>-176.6</ele>
        <time>2022-06-03T08:09:16Z</time>
      </trkpt>
      <trkpt lat="47.7602900" lon="7.5039160">
        <ele>-176.8</ele>
        <time>2022-06-03T08:09:20Z</time>
      </trkpt>
      <trkpt lat="47.7602900" lon="7.5039160">
        <ele>-177.0</ele>
        <time>2022-06-03T08:09:24Z</time>
      </trkpt>
      <trkpt lat="47.7602900" lon="7.5039160">
        <ele>-176.8</ele>
        <time>2022-06-03T08:09:28Z</time>
      </trkpt>
      <trkpt lat="47.7602900" lon="7.5039160">
        <ele>-176.6</ele>
        <time>2022-06-03T08:09:32Z</time>
      </trkpt>
      <trkpt lat="47.7602900" lon="7.5039160">
        <ele>-176.8</ele>
        <time>2022-06-03T08:09:36Z</time>
      </trkpt>
      <trkpt lat="47.7602900" lon="7.5039160">
        <ele>-176.4</ele>
        <time>2022-06-03T08:09:40Z</time>
      </trkpt>
      <trkpt lat="47.7602900" lon="7.5039160">
        <ele>-176.6</ele>
        <time>2022-06-03T08:09:44Z</time>
      </trkpt>
      <trkpt lat="47.7602900" lon="7.5039160">
        <ele>-176.6</ele>
        <time>2022-06-03T08:09:48Z</time>
      </trkpt>
      <trkpt lat="47.7602900" lon="7.5039160">
        <ele>-176.6</ele>
        <time>2022-06-03T08:09:52Z</time>
      </trkpt>
      <trkpt lat="47.7602900" lon="7.5039160">
        <ele>-176.8</ele>
        <time>2022-06-03T08:09:56Z</time>
      </trkpt>
      <trkpt lat="47.7602900" lon="7.5039160">
        <ele>-176.8</ele>
        <time>2022-06-03T08:10:00Z</time>
      </trkpt>
      <trkpt lat="47.7602900" lon="7.5039160">
        <ele>-176.6</ele>
        <time>2022-06-03T08:10:04Z</time>
      </trkpt>
      <trkpt lat="47.7602900" lon="7.5039160">
        <ele>-176.4</ele>
        <time>2022-06-03T08:10:08Z</time>
      </trkpt>
      <trkpt lat="47.7602900" lon="7.5039160">
        <ele>-176.6</ele>
        <time>2022-06-03T08:10:12Z</time>
      </trkpt>
      <trkpt lat="47.7602900" lon="7.5039160">
        <ele>-176.4</ele>
        <time>2022-06-03T08:10:16Z</time>
      </trkpt>
      <trkpt lat="47.7602900" lon="7.5039160">
        <ele>-176.6</ele>
        <time>2022-06-03T08:10:20Z</time>
      </trkpt>
      <trkpt lat="47.7602900" lon="7.5039160">
        <ele>-176.6</ele>
        <time>2022-06-03T08:10:24Z</time>
      </trkpt>
      <trkpt lat="47.7602900" lon="7.5039160">
        <ele>-176.4</ele>
        <time>2022-06-03T08:10:28Z</time>
      </trkpt>
      <trkpt lat="47.7602900" lon="7.5039160">
        <ele>-176.8</ele>
        <time>2022-06-03T08:10:32Z</time>
      </trkpt>
      <trkpt lat="47.7602900" lon="7.5039160">
        <ele>-176.4</ele>
        <time>2022-06-03T08:10:36Z</time>
      </trkpt>
      <trkpt lat="47.7602900" lon="7.5039160">
        <ele>-176.6</ele>
        <time>2022-06-03T08:10:40Z</time>
      </trkpt>
      <trkpt lat="47.7602900" lon="7.5039160">
        <ele>-176.4</ele>
        <time>2022-06-03T08:10:44Z</time>
      </trkpt>
      <trkpt lat="47.7602900" lon="7.5039160">
        <ele>-176.2</ele>
        <time>2022-06-03T08:10:48Z</time>
      </trkpt>
      <trkpt lat="47.7602900" lon="7.5039160">
        <ele>-176.2</ele>
        <time>2022-06-03T08:10:52Z</time>
      </trkpt>
      <trkpt lat="47.7602900" lon="7.5039160">
        <ele>-176.4</ele>
        <time>2022-06-03T08:10:56Z</time>
      </trkpt>
      <trkpt lat="47.7602900" lon="7.5039160">
        <ele>-176.6</ele>
        <time>2022-06-03T08:11:00Z</time>
      </trkpt>
      <trkpt lat="47.7602900" lon="7.5039160">
        <ele>-176.4</ele>
        <time>2022-06-03T08:11:04Z</time>
      </trkpt>
      <trkpt lat="47.7602900" lon="7.5039160">
        <ele>-176.6</ele>
        <time>2022-06-03T08:11:08Z</time>
      </trkpt>
      <trkpt lat="47.7602900" lon="7.5039160">
        <ele>-176.6</ele>
        <time>2022-06-03T08:11:12Z</time>
      </trkpt>
      <trkpt lat="47.7602900" lon="7.5039160">
        <ele>-176.2</ele>
        <time>2022-06-03T08:11:16Z</time>
      </trkpt>
      <trkpt lat="47.7602900" lon="7.5039160">
        <ele>-176.4</ele>
        <time>2022-06-03T08:11:20Z</time>
      </trkpt>
      <trkpt lat="47.7602900" lon="7.5039160">
        <ele>-176.2</ele>
        <time>2022-06-03T08:11:24Z</time>
      </trkpt>
      <trkpt lat="47.7602900" lon="7.5039160">
        <ele>-175.8</ele>
        <time>2022-06-03T08:11:28Z</time>
      </trkpt>
      <trkpt lat="47.7602900" lon="7.5039160">
        <ele>-176.0</ele>
        <time>2022-06-03T08:11:32Z</time>
      </trkpt>
      <trkpt lat="47.7602900" lon="7.5039160">
        <ele>-176.0</ele>
        <time>2022-06-03T08:11:36Z</time>
      </trkpt>
      <trkpt lat="47.7602900" lon="7.5039160">
        <ele>-176.4</ele>
        <time>2022-06-03T08:11:40Z</time>
      </trkpt>
      <trkpt lat="47.7602900" lon="7.5039160">
        <ele>-176.2</ele>
        <time>2022-06-03T08:11:44Z</time>
      </trkpt>
      <trkpt lat="47.7602900" lon="7.5039160">
        <ele>-176.2</ele>
        <time>2022-06-03T08:11:48Z</time>
      </trkpt>
      <trkpt lat="47.7602900" lon="7.5039160">
        <ele>-175.8</ele>
        <time>2022-06-03T08:11:52Z</time>
      </trkpt>
      <trkpt lat="47.7602900" lon="7.5039160">
        <ele>-176.0</ele>
        <time>2022-06-03T08:11:56Z</time>
      </trkpt>
      <trkpt lat="47.7602900" lon="7.5039160">
        <ele>-175.8</ele>
        <time>2022-06-03T08:12:00Z</time>
      </trkpt>
      <trkpt lat="47.7602900" lon="7.5039160">
        <ele>-176.0</ele>
        <time>2022-06-03T08:12:04Z</time>
      </trkpt>
      <trkpt lat="47.7602900" lon="7.5039160">
        <ele>-176.2</ele>
        <time>2022-06-03T08:12:08Z</time>
      </trkpt>
      <trkpt lat="47.7602900" lon="7.5039160">
        <ele>-176.2</ele>
        <time>2022-06-03T08:12:12Z</time>
      </trkpt>
      <trkpt lat="47.7602900" lon="7.5039160">
        <ele>-176.0</ele>
        <time>2022-06-03T08:12:16Z</time>
      </trkpt>
      <trkpt lat="47.7602900" lon="7.5039160">
        <ele>-176.2</ele>
        <time>2022-06-03T08:12:20Z</time>
      </trkpt>
      <trkpt lat="47.7602900" lon="7.5039160">
        <ele>-176.0</ele>
        <time>2022-06-03T08:12:24Z</time>
      </trkpt>
      <trkpt lat="47.7602900" lon="7.5039160">
        <ele>-175.8</ele>
        <time>2022-06-03T08:12:28Z</time>
      </trkpt>
      <trkpt lat="47.7602900" lon="7.5039160">
        <ele>-176.0</ele>
        <time>2022-06-03T08:12:32Z</time>
      </trkpt>
      <trkpt lat="47.7602900" lon="7.5039160">
        <ele>-176.2</ele>
        <time>2022-06-03T08:12:36Z</time>
      </trkpt>
      <trkpt lat="47.7602900" lon="7.5039160">
        <ele>-175.8</ele>
        <time>2022-06-03T08:12:40Z</time>
      </trkpt>
      <trkpt lat="47.7602900" lon="7.5039160">
        <ele>-176.0</ele>
        <time>2022-06-03T08:12:44Z</time>
      </trkpt>
      <trkpt lat="47.7602900" lon="7.5039160">
        <ele>-176.0</ele>
        <time>2022-06-03T08:12:48Z</time>
      </trkpt>
      <trkpt lat="47.7602900" lon="7.5039160">
        <ele>-176.2</ele>
        <time>2022-06-03T08:12:52Z</time>
      </trkpt>
      <trkpt lat="47.7602900" lon="7.5039160">
        <ele>-176.2</ele>
        <time>2022-06-03T08:12:56Z</time>
      </trkpt>
      <trkpt lat="47.7602900" lon="7.5039160">
        <ele>-175.8</ele>
        <time>2022-06-03T08:13:00Z</time>
      </trkpt>
      <trkpt lat="47.7602900" lon="7.5039160">
        <ele>-175.8</ele>
        <time>2022-06-03T08:13:04Z</time>
      </trkpt>
      <trkpt lat="47.7602900" lon="7.5039160">
        <ele>-175.8</ele>
        <time>2022-06-03T08:13:08Z</time>
      </trkpt>
      <trkpt lat="47.7602900" lon="7.5039160">
        <ele>-175.6</ele>
        <time>2022-06-03T08:13:12Z</time>
      </trkpt>
      <trkpt lat="47.7602900" lon="7.5039160">
        <ele>-175.8</ele>
        <time>2022-06-03T08:13:16Z</time>
      </trkpt>
      <trkpt lat="47.7602900" lon="7.5039160">
        <ele>-175.8</ele>
        <time>2022-06-03T08:13:20Z</time>
      </trkpt>
      <trkpt lat="47.7602900" lon="7.5039160">
        <ele>-176.2</ele>
        <time>2022-06-03T08:13:24Z</time>
      </trkpt>
      <trkpt lat="47.7602900" lon="7.5039160">
        <ele>-176.2</ele>
        <time>2022-06-03T08:13:28Z</time>
      </trkpt>
      <trkpt lat="47.7602900" lon="7.5039160">
        <ele>-175.2</ele>
        <time>2022-06-03T08:13:32Z</time>
      </trkpt>
      <trkpt lat="47.7602900" lon="7.5039160">
        <ele>-175.6</ele>
        <time>2022-06-03T08:13:36Z</time>
      </trkpt>
      <trkpt lat="47.7602900" lon="7.5039160">
        <ele>-175.2</ele>
        <time>2022-06-03T08:13:40Z</time>
      </trkpt>
      <trkpt lat="47.7602900" lon="7.5039160">
        <ele>-175.6</ele>
        <time>2022-06-03T08:13:44Z</time>
      </trkpt>
      <trkpt lat="47.7602900" lon="7.5039160">
        <ele>-175.6</ele>
        <time>2022-06-03T08:13:48Z</time>
      </trkpt>
      <trkpt lat="47.7602900" lon="7.5039160">
        <ele>-175.2</ele>
        <time>2022-06-03T08:13:52Z</time>
      </trkpt>
      <trkpt lat="47.7602900" lon="7.5039160">
        <ele>-175.2</ele>
        <time>2022-06-03T08:13:56Z</time>
      </trkpt>
      <trkpt lat="47.7602900" lon="7.5039160">
        <ele>-175.2</ele>
        <time>2022-06-03T08:14:00Z</time>
      </trkpt>
      <trkpt lat="47.7602900" lon="7.5039160">
        <ele>-175.2</ele>
        <time>2022-06-03T08:14:04Z</time>
      </trkpt>
      <trkpt lat="47.7602900" lon="7.5039160">
        <ele>-175.2</ele>
        <time>2022-06-03T08:14:08Z</time>
      </trkpt>
      <trkpt lat="47.7602900" lon="7.5039160">
        <ele>-175.6</ele>
        <time>2022-06-03T08:14:12Z</time>
      </trkpt>
      <trkpt lat="47.7602900" lon="7.5039160">
        <ele>-175.8</ele>
        <time>2022-06-03T08:14:16Z</time>
      </trkpt>
      <trkpt lat="47.7602900" lon="7.5039160">
        <ele>-175.8</ele>
        <time>2022-06-03T08:14:20Z</time>
      </trkpt>
      <trkpt lat="47.7602900" lon="7.5039160">
        <ele>-175.2</ele>
        <time>2022-06-03T08:14:24Z</time>
      </trkpt>
      <trkpt lat="47.7602900" lon="7.5039160">
        <ele>-175.4</ele>
        <time>2022-06-03T08:14:28Z</time>
      </trkpt>
      <trkpt lat="47.7602900" lon="7.5039160">
        <ele>-175.4</ele>
        <time>2022-06-03T08:14:32Z</time>
      </trkpt>
      <trkpt lat="47.7602900" lon="7.5039160">
        <ele>-175.0</ele>
        <time>2022-06-03T08:14:36Z</time>
      </trkpt>
      <trkpt lat="47.7602900" lon="7.5039160">
        <ele>-175.4</ele>
        <time>2022-06-03T08:14:40Z</time>
      </trkpt>
      <trkpt lat="47.7602900" lon="7.5039160">
        <ele>-175.2</ele>
        <time>2022-06-03T08:14:44Z</time>
      </trkpt>
      <trkpt lat="47.7602900" lon="7.5039160">
        <ele>-175.2</ele>
        <time>2022-06-03T08:14:48Z</time>
      </trkpt>
      <trkpt lat="47.7602900" lon="7.5039160">
        <ele>-175.2</ele>
        <time>2022-06-03T08:14:52Z</time>
      </trkpt>
      <trkpt lat="47.7602900" lon="7.5039160">
        <ele>-175.2</ele>
        <time>2022-06-03T08:14:56Z</time>
      </trkpt>
      <trkpt lat="47.7602900" lon="7.5039160">
        <ele>-175.2</ele>
        <time>2022-06-03T08:15:00Z</time>
      </trkpt>
      <trkpt lat="47.7602900" lon="7.5039160">
        <ele>-175.2</ele>
        <time>2022-06-03T08:15:04Z</time>
      </trkpt>
      <trkpt lat="47.7602900" lon="7.5039160">
        <ele>-175.4</ele>
        <time>2022-06-03T08:15:08Z</time>
      </trkpt>
      <trkpt lat="47.7602900" lon="7.5039160">
        <ele>-175.0</ele>
        <time>2022-06-03T08:15:12Z</time>
      </trkpt>
      <trkpt lat="47.7602900" lon="7.5039160">
        <ele>-175.2</ele>
        <time>2022-06-03T08:15:16Z</time>
      </trkpt>
      <trkpt lat="47.7602900" lon="7.5039160">
        <ele>-175.0</ele>
        <time>2022-06-03T08:15:20Z</time>
      </trkpt>
      <trkpt lat="47.7602900" lon="7.5039160">
        <ele>-175.0</ele>
        <time>2022-06-03T08:15:24Z</time>
      </trkpt>
      <trkpt lat="47.7602900" lon="7.5039160">
        <ele>-174.8</ele>
        <time>2022-06-03T08:15:28Z</time>
      </trkpt>
      <trkpt lat="47.7602900" lon="7.5039160">
        <ele>-174.6</ele>
        <time>2022-06-03T08:15:32Z</time>
      </trkpt>
      <trkpt lat="47.7602900" lon="7.5039160">
        <ele>-174.6</ele>
        <time>2022-06-03T08:15:36Z</time>
      </trkpt>
      <trkpt lat="47.7602900" lon="7.5039160">
        <ele>-174.6</ele>
        <time>2022-06-03T08:15:40Z</time>
      </trkpt>
      <trkpt lat="47.7602900" lon="7.5039160">
        <ele>-174.6</ele>
        <time>2022-06-03T08:15:44Z</time>
      </trkpt>
      <trkpt lat="47.7602900" lon="7.5039160">
        <ele>-175.0</ele>
        <time>2022-06-03T08:15:48Z</time>
      </trkpt>
      <trkpt lat="47.7602900" lon="7.5039160">
        <ele>-175.0</ele>
        <time>2022-06-03T08:15:52Z</time>
      </trkpt>
      <trkpt lat="47.7602900" lon="7.5039160">
        <ele>-175.0</ele>
        <time>2022-06-03T08:15:56Z</time>
      </trkpt>
      <trkpt lat="47.7602900" lon="7.5039160">
        <ele>-175.0</ele>
        <time>2022-06-03T08:16:00Z</time>
      </trkpt>
      <trkpt lat="47.7602900" lon="7.5039160">
        <ele>-175.4</ele>
        <time>2022-06-03T08:16:04Z</time>
      </trkpt>
      <trkpt lat="47.7602900" lon="7.5039160">
        <ele>-175.2</ele>
        <time>2022-06-03T08:16:08Z</time>
      </trkpt>
      <trkpt lat="47.7602900" lon="7.5039160">
        <ele>-175.0</ele>
        <time>2022-06-03T08:16:12Z</time>
      </trkpt>
      <trkpt lat="47.7602900" lon="7.5039160">
        <ele>-174.8</ele>
        <time>2022-06-03T08:16:16Z</time>
      </trkpt>
      <trkpt lat="47.7602900" lon="7.5039160">
        <ele>-175.0</ele>
        <time>2022-06-03T08:16:20Z</time>
      </trkpt>
      <trkpt lat="47.7602900" lon="7.5039160">
        <ele>-174.6</ele>
        <time>2022-06-03T08:16:24Z</time>
      </trkpt>
      <trkpt lat="47.7602900" lon="7.5039160">
        <ele>-174.6</ele>
        <time>2022-06-03T08:16:28Z</time>
      </trkpt>
      <trkpt lat="47.7602900" lon="7.5039160">
        <ele>-174.4</ele>
        <time>2022-06-03T08:16:32Z</time>
      </trkpt>
      <trkpt lat="47.7602900" lon="7.5039160">
        <ele>-175.4</ele>
        <time>2022-06-03T08:16:36Z</time>
      </trkpt>
      <trkpt lat="47.7602900" lon="7.5039160">
        <ele>-175.2</ele>
        <time>2022-06-03T08:16:40Z</time>
      </trkpt>
      <trkpt lat="47.7602900" lon="7.5039160">
        <ele>-174.8</ele>
        <time>2022-06-03T08:16:44Z</time>
      </trkpt>
      <trkpt lat="47.7602900" lon="7.5039160">
        <ele>-174.6</ele>
        <time>2022-06-03T08:16:48Z</time>
      </trkpt>
      <trkpt lat="47.7602900" lon="7.5039160">
        <ele>-174.8</ele>
        <time>2022-06-03T08:16:52Z</time>
      </trkpt>
      <trkpt lat="47.7602900" lon="7.5039160">
        <ele>-175.2</ele>
        <time>2022-06-03T08:16:56Z</time>
      </trkpt>
      <trkpt lat="47.7602900" lon="7.5039160">
        <ele>-174.8</ele>
        <time>2022-06-03T08:17:00Z</time>
      </trkpt>
      <trkpt lat="47.7602900" lon="7.5039160">
        <ele>-175.0</ele>
        <time>2022-06-03T08:17:04Z</time>
      </trkpt>
      <trkpt lat="47.7602900" lon="7.5039160">
        <ele>-174.8</ele>
        <time>2022-06-03T08:17:08Z</time>
      </trkpt>
      <trkpt lat="47.7602900" lon="7.5039160">
        <ele>-174.8</ele>
        <time>2022-06-03T08:17:12Z</time>
      </trkpt>
      <trkpt lat="47.7602900" lon="7.5039160">
        <ele>-174.8</ele>
        <time>2022-06-03T08:17:16Z</time>
      </trkpt>
      <trkpt lat="47.7602900" lon="7.5039160">
        <ele>-174.8</ele>
        <time>2022-06-03T08:17:20Z</time>
      </trkpt>
      <trkpt lat="47.7602900" lon="7.5039160">
        <ele>-174.8</ele>
        <time>2022-06-03T08:17:24Z</time>
      </trkpt>
      <trkpt lat="47.7602900" lon="7.5039160">
        <ele>-174.8</ele>
        <time>2022-06-03T08:17:28Z</time>
      </trkpt>
      <trkpt lat="47.7602900" lon="7.5039160">
        <ele>-174.6</ele>
        <time>2022-06-03T08:17:32Z</time>
      </trkpt>
      <trkpt lat="47.7602900" lon="7.5039160">
        <ele>-175.0</ele>
        <time>2022-06-03T08:17:36Z</time>
      </trkpt>
      <trkpt lat="47.7602900" lon="7.5039160">
        <ele>-175.2</ele>
        <time>2022-06-03T08:17:40Z</time>
      </trkpt>
      <trkpt lat="47.7602900" lon="7.5039160">
        <ele>-174.6</ele>
        <time>2022-06-03T08:17:44Z</time>
      </trkpt>
      <trkpt lat="47.7602900" lon="7.5039160">
        <ele>-175.0</ele>
        <time>2022-06-03T08:17:48Z</time>
      </trkpt>
      <trkpt lat="47.7602900" lon="7.5039160">
        <ele>-174.8</ele>
        <time>2022-06-03T08:17:52Z</time>
      </trkpt>
      <trkpt lat="47.7602900" lon="7.5039160">
        <ele>-174.4</ele>
        <time>2022-06-03T08:17:56Z</time>
      </trkpt>
      <trkpt lat="47.7602900" lon="7.5039160">
        <ele>-174.4</ele>
        <time>2022-06-03T08:18:00Z</time>
      </trkpt>
      <trkpt lat="47.7602900" lon="7.5039160">
        <ele>-174.6</ele>
        <time>2022-06-03T08:18:04Z</time>
      </trkpt>
      <trkpt lat="47.7602900" lon="7.5039160">
        <ele>-174.6</ele>
        <time>2022-06-03T08:18:08Z</time>
      </trkpt>
      <trkpt lat="47.7602900" lon="7.5039160">
        <ele>-174.6</ele>
        <time>2022-06-03T08:18:12Z</time>
      </trkpt>
      <trkpt lat="47.7602900" lon="7.5039160">
        <ele>-174.6</ele>
        <time>2022-06-03T08:18:16Z</time>
      </trkpt>
      <trkpt lat="47.7602900" lon="7.5039160">
        <ele>-174.6</ele>
        <time>2022-06-03T08:18:20Z</time>
      </trkpt>
      <trkpt lat="47.7602900" lon="7.5039160">
        <ele>-174.4</ele>
        <time>2022-06-03T08:18:24Z</time>
      </trkpt>
      <trkpt lat="47.7602900" lon="7.5039160">
        <ele>-174.4</ele>
        <time>2022-06-03T08:18:28Z</time>
      </trkpt>
      <trkpt lat="47.7602900" lon="7.5039160">
        <ele>-175.0</ele>
        <time>2022-06-03T08:18:32Z</time>
      </trkpt>
      <trkpt lat="47.7602900" lon="7.5039160">
        <ele>-174.6</ele>
        <time>2022-06-03T08:18:36Z</time>
      </trkpt>
      <trkpt lat="47.7602900" lon="7.5039160">
        <ele>-174.2</ele>
        <time>2022-06-03T08:18:40Z</time>
      </trkpt>
      <trkpt lat="47.7602900" lon="7.5039160">
        <ele>-174.2</ele>
        <time>2022-06-03T08:18:44Z</time>
      </trkpt>
      <trkpt lat="47.7602900" lon="7.5039160">
        <ele>-174.2</ele>
        <time>2022-06-03T08:18:48Z</time>
      </trkpt>
      <trkpt lat="47.7602900" lon="7.5039160">
        <ele>-174.2</ele>
        <time>2022-06-03T08:18:52Z</time>
      </trkpt>
      <trkpt lat="47.7602900" lon="7.5039160">
        <ele>-174.0</ele>
        <time>2022-06-03T08:18:56Z</time>
      </trkpt>
      <trkpt lat="47.7602900" lon="7.5039160">
        <ele>-174.4</ele>
        <time>2022-06-03T08:19:00Z</time>
      </trkpt>
      <trkpt lat="47.7602900" lon="7.5039160">
        <ele>-174.2</ele>
        <time>2022-06-03T08:19:04Z</time>
      </trkpt>
      <trkpt lat="47.7602900" lon="7.5039160">
        <ele>-174.4</ele>
        <time>2022-06-03T08:19:08Z</time>
      </trkpt>
      <trkpt lat="47.7602900" lon="7.5039160">
        <ele>-174.2</ele>
        <time>2022-06-03T08:19:12Z</time>
      </trkpt>
      <trkpt lat="47.7602900" lon="7.5039160">
        <ele>-174.2</ele>
        <time>2022-06-03T08:19:16Z</time>
      </trkpt>
      <trkpt lat="47.7602900" lon="7.5039160">
        <ele>-174.4</ele>
        <time>2022-06-03T08:19:20Z</time>
      </trkpt>
      <trkpt lat="47.7602900" lon="7.5039160">
        <ele>-174.4</ele>
        <time>2022-06-03T08:19:24Z</time>
      </trkpt>
      <trkpt lat="47.7602900" lon="7.5039160">
        <ele>-174.2</ele>
        <time>2022-06-03T08:19:28Z</time>
      </trkpt>
      <trkpt lat="47.7602900" lon="7.5039160">
        <ele>-174.2</ele>
        <time>2022-06-03T08:19:32Z</time>
      </trkpt>
      <trkpt lat="47.7602900" lon="7.5039160">
        <ele>-174.4</ele>
        <time>2022-06-03T08:19:36Z</time>
      </trkpt>
      <trkpt lat="47.7602900" lon="7.5039160">
        <ele>-174.4</ele>
        <time>2022-06-03T08:19:40Z</time>
      </trkpt>
      <trkpt lat="47.7602900" lon="7.5039160">
        <ele>-174.4</ele>
        <time>2022-06-03T08:19:44Z</time>
      </trkpt>
      <trkpt lat="47.7602900" lon="7.5039160">
        <ele>-174.2</ele>
        <time>2022-06-03T08:19:48Z</time>
      </trkpt>
      <trkpt lat="47.7602900" lon="7.5039160">
        <ele>-174.4</ele>
        <time>2022-06-03T08:19:52Z</time>
      </trkpt>
      <trkpt lat="47.7602900" lon="7.5039160">
        <ele>-174.4</ele>
        <time>2022-06-03T08:19:56Z</time>
      </trkpt>
      <trkpt lat="47.7602900" lon="7.5039160">
        <ele>-174.2</ele>
        <time>2022-06-03T08:20:00Z</time>
      </trkpt>
      <trkpt lat="47.7602900" lon="7.5039160">
        <ele>-174.0</ele>
        <time>2022-06-03T08:20:04Z</time>
      </trkpt>
      <trkpt lat="47.7602900" lon="7.5039160">
        <ele>-174.8</ele>
        <time>2022-06-03T08:20:08Z</time>
      </trkpt>
      <trkpt lat="47.7602900" lon="7.5039160">
        <ele>-174.4</ele>
        <time>2022-06-03T08:20:12Z</time>
      </trkpt>
      <trkpt lat="47.7602900" lon="7.5039160">
        <ele>-174.2</ele>
        <time>2022-06-03T08:20:16Z</time>
      </trkpt>
      <trkpt lat="47.7602900" lon="7.5039160">
        <ele>-174.2</ele>
        <time>2022-06-03T08:20:20Z</time>
      </trkpt>
      <trkpt lat="47.7602900" lon="7.5039160">
        <ele>-174.6</ele>
        <time>2022-06-03T08:20:24Z</time>
      </trkpt>
      <trkpt lat="47.7602900" lon="7.5039160">
        <ele>-174.4</ele>
        <time>2022-06-03T08:20:28Z</time>
      </trkpt>
      <trkpt lat="47.7602900" lon="7.5039160">
        <ele>-174.6</ele>
        <time>2022-06-03T08:20:32Z</time>
      </trkpt>
      <trkpt lat="47.7602900" lon="7.5039160">
        <ele>-174.4</ele>
        <time>2022-06-03T08:20:36Z</time>
      </trkpt>
      <trkpt lat="47.7602900" lon="7.5039160">
        <ele>-174.2</ele>
        <time>2022-06-03T08:20:40Z</time>
      </trkpt>
      <trkpt lat="47.7602900" lon="7.5039160">
        <ele>-174.6</ele>
        <time>2022-06-03T08:20:44Z</time>
      </trkpt>
      <trkpt lat="47.7602900" lon="7.5039160">
        <ele>-174.6</ele>
        <time>2022-06-03T08:20:48Z</time>
      </trkpt>
      <trkpt lat="47.7602900" lon="7.5039160">
        <ele>-174.6</ele>
        <time>2022-06-03T08:20:52Z</time>
      </trkpt>
      <trkpt lat="47.7602900" lon="7.5039160">
        <ele>-174.4</ele>
        <time>2022-06-03T08:20:56Z</time>
      </trkpt>
      <trkpt lat="47.7602900" lon="7.5039160">
        <ele>-174.4</ele>
        <time>2022-06-03T08:21:00Z</time>
      </trkpt>
      <trkpt lat="47.7602900" lon="7.5039160">
        <ele>-174.4</ele>
        <time>2022-06-03T08:21:04Z</time>
      </trkpt>
      <trkpt lat="47.7602900" lon="7.5039160">
        <ele>-174.6</ele>
        <time>2022-06-03T08:21:08Z</time>
      </trkpt>
      <trkpt lat="47.7602900" lon="7.5039160">
        <ele>-174.4</ele>
        <time>2022-06-03T08:21:12Z</time>
      </trkpt>
      <trkpt lat="47.7602900" lon="7.5039160">
        <ele>-174.0</ele>
        <time>2022-06-03T08:21:16Z</time>
      </trkpt>
      <trkpt lat="47.7602900" lon="7.5039160">
        <ele>-174.8</ele>
        <time>2022-06-03T08:21:20Z</time>
      </trkpt>
      <trkpt lat="47.7602900" lon="7.5039160">
        <ele>-174.4</ele>
        <time>2022-06-03T08:21:24Z</time>
      </trkpt>
      <trkpt lat="47.7602900" lon="7.5039160">
        <ele>-174.4</ele>
        <time>2022-06-03T08:21:28Z</time>
      </trkpt>
      <trkpt lat="47.7602900" lon="7.5039160">
        <ele>-174.8</ele>
        <time>2022-06-03T08:21:32Z</time>
      </trkpt>
      <trkpt lat="47.7602900" lon="7.5039160">
        <ele>-174.8</ele>
        <time>2022-06-03T08:21:36Z</time>
      </trkpt>
      <trkpt lat="47.7602900" lon="7.5039160">
        <ele>-174.4</ele>
        <time>2022-06-03T08:21:40Z</time>
      </trkpt>
      <trkpt lat="47.7602900" lon="7.5039160">
        <ele>-174.6</ele>
        <time>2022-06-03T08:21:44Z</time>
      </trkpt>
      <trkpt lat="47.7602900" lon="7.5039160">
        <ele>-174.4</ele>
        <time>2022-06-03T08:21:48Z</time>
      </trkpt>
      <trkpt lat="47.7602900" lon="7.5039160">
        <ele>-174.2</ele>
        <time>2022-06-03T08:21:52Z</time>
      </trkpt>
      <trkpt lat="47.7602900" lon="7.5039160">
        <ele>-174.6</ele>
        <time>2022-06-03T08:21:56Z</time>
      </trkpt>
      <trkpt lat="47.7602900" lon="7.5039160">
        <ele>-174.6</ele>
        <time>2022-06-03T08:22:00Z</time>
      </trkpt>
      <trkpt lat="47.7602900" lon="7.5039160">
        <ele>-174.2</ele>
        <time>2022-06-03T08:22:04Z</time>
      </trkpt>
      <trkpt lat="47.7602900" lon="7.5039160">
        <ele>-174.4</ele>
        <time>2022-06-03T08:22:08Z</time>
      </trkpt>
      <trkpt lat="47.7602900" lon="7.5039160">
        <ele>-174.2</ele>
        <time>2022-06-03T08:22:12Z</time>
      </trkpt>
      <trkpt lat="47.7602900" lon="7.5039160">
        <ele>-174.0</ele>
        <time>2022-06-03T08:22:16Z</time>
      </trkpt>
      <trkpt lat="47.7602900" lon="7.5039160">
        <ele>-174.2</ele>
        <time>2022-06-03T08:22:20Z</time>
      </trkpt>
      <trkpt lat="47.7602660" lon="7.5039330">
        <ele>-174.2</ele>
        <time>2022-06-03T08:22:24Z</time>
      </trkpt>
      <trkpt lat="47.7602650" lon="7.5038950">
        <ele>-174.2</ele>
        <time>2022-06-03T08:22:28Z</time>
      </trkpt>
      <trkpt lat="47.7602810" lon="7.5038630">
        <ele>-174.4</ele>
        <time>2022-06-03T08:22:32Z</time>
      </trkpt>
      <trkpt lat="47.7602810" lon="7.5038630">
        <ele>-174.0</ele>
        <time>2022-06-03T08:22:36Z</time>
      </trkpt>
      <trkpt lat="47.7602810" lon="7.5038630">
        <ele>-174.4</ele>
        <time>2022-06-03T08:22:40Z</time>
      </trkpt>
      <trkpt lat="47.7602950" lon="7.5038350">
        <ele>-174.2</ele>
        <time>2022-06-03T08:22:44Z</time>
      </trkpt>
      <trkpt lat="47.7603280" lon="7.5037800">
        <ele>-174.2</ele>
        <time>2022-06-03T08:22:48Z</time>
      </trkpt>
      <trkpt lat="47.7603660" lon="7.5037230">
        <ele>-174.6</ele>
        <time>2022-06-03T08:22:52Z</time>
      </trkpt>
      <trkpt lat="47.7604180" lon="7.5037410">
        <ele>-174.2</ele>
        <time>2022-06-03T08:22:56Z</time>
      </trkpt>
      <trkpt lat="47.7604230" lon="7.5036880">
        <ele>-174.4</ele>
        <time>2022-06-03T08:23:00Z</time>
      </trkpt>
      <trkpt lat="47.7603750" lon="7.5037250">
        <ele>-174.4</ele>
        <time>2022-06-03T08:23:04Z</time>
      </trkpt>
      <trkpt lat="47.7603750" lon="7.5037250">
        <ele>-174.6</ele>
        <time>2022-06-03T08:23:08Z</time>
      </trkpt>
      <trkpt lat="47.7603750" lon="7.5037250">
        <ele>-174.2</ele>
        <time>2022-06-03T08:23:12Z</time>
      </trkpt>
      <trkpt lat="47.7603750" lon="7.5037250">
        <ele>-174.2</ele>
        <time>2022-06-03T08:23:16Z</time>
      </trkpt>
      <trkpt lat="47.7603750" lon="7.5037250">
        <ele>-174.4</ele>
        <time>2022-06-03T08:23:20Z</time>
      </trkpt>
      <trkpt lat="47.7603750" lon="7.5037250">
        <ele>-174.2</ele>
        <time>2022-06-03T08:23:24Z</time>
      </trkpt>
      <trkpt lat="47.7603750" lon="7.5037250">
        <ele>-174.4</ele>
        <time>2022-06-03T08:23:28Z</time>
      </trkpt>
      <trkpt lat="47.7603750" lon="7.5037250">
        <ele>-174.0</ele>
        <time>2022-06-03T08:23:32Z</time>
      </trkpt>
      <trkpt lat="47.7603750" lon="7.5037250">
        <ele>-174.2</ele>
        <time>2022-06-03T08:23:36Z</time>
      </trkpt>
      <trkpt lat="47.7603750" lon="7.5037250">
        <ele>-174.2</ele>
        <time>2022-06-03T08:23:40Z</time>
      </trkpt>
      <trkpt lat="47.7603750" lon="7.5037250">
        <ele>-174.0</ele>
        <time>2022-06-03T08:23:44Z</time>
      </trkpt>
      <trkpt lat="47.7603750" lon="7.5037250">
        <ele>-174.2</ele>
        <time>2022-06-03T08:23:48Z</time>
      </trkpt>
      <trkpt lat="47.7603750" lon="7.5037250">
        <ele>-174.2</ele>
        <time>2022-06-03T08:23:52Z</time>
      </trkpt>
      <trkpt lat="47.7603750" lon="7.5037250">
        <ele>-174.0</ele>
        <time>2022-06-03T08:23:56Z</time>
      </trkpt>
      <trkpt lat="47.7603750" lon="7.5037250">
        <ele>-174.0</ele>
        <time>2022-06-03T08:24:00Z</time>
      </trkpt>
      <trkpt lat="47.7603750" lon="7.5037250">
        <ele>-173.6</ele>
        <time>2022-06-03T08:24:04Z</time>
      </trkpt>
      <trkpt lat="47.7603750" lon="7.5037250">
        <ele>-174.0</ele>
        <time>2022-06-03T08:24:08Z</time>
      </trkpt>
      <trkpt lat="47.7603750" lon="7.5037250">
        <ele>-173.6</ele>
        <time>2022-06-03T08:24:12Z</time>
      </trkpt>
      <trkpt lat="47.7603750" lon="7.5037250">
        <ele>-174.2</ele>
        <time>2022-06-03T08:24:16Z</time>
      </trkpt>
      <trkpt lat="47.7603750" lon="7.5037250">
        <ele>-174.0</ele>
        <time>2022-06-03T08:24:20Z</time>
      </trkpt>
      <trkpt lat="47.7603750" lon="7.5037250">
        <ele>-173.8</ele>
        <time>2022-06-03T08:24:24Z</time>
      </trkpt>
      <trkpt lat="47.7603750" lon="7.5037250">
        <ele>-174.0</ele>
        <time>2022-06-03T08:24:28Z</time>
      </trkpt>
      <trkpt lat="47.7603750" lon="7.5037250">
        <ele>-173.8</ele>
        <time>2022-06-03T08:24:32Z</time>
      </trkpt>
      <trkpt lat="47.7603750" lon="7.5037250">
        <ele>-174.0</ele>
        <time>2022-06-03T08:24:36Z</time>
      </trkpt>
      <trkpt lat="47.7603750" lon="7.5037250">
        <ele>-173.8</ele>
        <time>2022-06-03T08:24:40Z</time>
      </trkpt>
      <trkpt lat="47.7603750" lon="7.5037250">
        <ele>-174.0</ele>
        <time>2022-06-03T08:24:44Z</time>
      </trkpt>
      <trkpt lat="47.7603750" lon="7.5037250">
        <ele>-174.0</ele>
        <time>2022-06-03T08:24:48Z</time>
      </trkpt>
      <trkpt lat="47.7603750" lon="7.5037250">
        <ele>-174.0</ele>
        <time>2022-06-03T08:24:52Z</time>
      </trkpt>
      <trkpt lat="47.7603750" lon="7.5037250">
        <ele>-174.0</ele>
        <time>2022-06-03T08:24:56Z</time>
      </trkpt>
      <trkpt lat="47.7603750" lon="7.5037250">
        <ele>-174.0</ele>
        <time>2022-06-03T08:25:00Z</time>
      </trkpt>
      <trkpt lat="47.7603750" lon="7.5037250">
        <ele>-173.6</ele>
        <time>2022-06-03T08:25:04Z</time>
      </trkpt>
      <trkpt lat="47.7603750" lon="7.5037250">
        <ele>-173.6</ele>
        <time>2022-06-03T08:25:08Z</time>
      </trkpt>
      <trkpt lat="47.7603750" lon="7.5037250">
        <ele>-173.4</ele>
        <time>2022-06-03T08:25:12Z</time>
      </trkpt>
      <trkpt lat="47.7603750" lon="7.5037250">
        <ele>-173.8</ele>
        <time>2022-06-03T08:25:16Z</time>
      </trkpt>
      <trkpt lat="47.7603750" lon="7.5037250">
        <ele>-174.0</ele>
        <time>2022-06-03T08:25:20Z</time>
      </trkpt>
      <trkpt lat="47.7603750" lon="7.5037250">
        <ele>-173.6</ele>
        <time>2022-06-03T08:25:24Z</time>
      </trkpt>
      <trkpt lat="47.7603750" lon="7.5037250">
        <ele>-173.8</ele>
        <time>2022-06-03T08:25:28Z</time>
      </trkpt>
      <trkpt lat="47.7603750" lon="7.5037250">
        <ele>-174.0</ele>
        <time>2022-06-03T08:25:32Z</time>
      </trkpt>
      <trkpt lat="47.7603750" lon="7.5037250">
        <ele>-173.4</ele>
        <time>2022-06-03T08:25:36Z</time>
      </trkpt>
      <trkpt lat="47.7603750" lon="7.5037250">
        <ele>-173.6</ele>
        <time>2022-06-03T08:25:40Z</time>
      </trkpt>
      <trkpt lat="47.7603750" lon="7.5037250">
        <ele>-173.8</ele>
        <time>2022-06-03T08:25:44Z</time>
      </trkpt>
      <trkpt lat="47.7603750" lon="7.5037250">
        <ele>-174.0</ele>
        <time>2022-06-03T08:25:48Z</time>
      </trkpt>
      <trkpt lat="47.7603750" lon="7.5037250">
        <ele>-173.4</ele>
        <time>2022-06-03T08:25:52Z</time>
      </trkpt>
      <trkpt lat="47.7603750" lon="7.5037250">
        <ele>-173.6</ele>
        <time>2022-06-03T08:25:56Z</time>
      </trkpt>
      <trkpt lat="47.7603750" lon="7.5037250">
        <ele>-173.6</ele>
        <time>2022-06-03T08:26:00Z</time>
      </trkpt>
      <trkpt lat="47.7603750" lon="7.5037250">
        <ele>-173.6</ele>
        <time>2022-06-03T08:26:04Z</time>
      </trkpt>
      <trkpt lat="47.7603750" lon="7.5037250">
        <ele>-173.6</ele>
        <time>2022-06-03T08:26:08Z</time>
      </trkpt>
      <trkpt lat="47.7603750" lon="7.5037250">
        <ele>-174.0</ele>
        <time>2022-06-03T08:26:12Z</time>
      </trkpt>
      <trkpt lat="47.7603750" lon="7.5037250">
        <ele>-173.6</ele>
        <time>2022-06-03T08:26:16Z</time>
      </trkpt>
      <trkpt lat="47.7603750" lon="7.5037250">
        <ele>-173.4</ele>
        <time>2022-06-03T08:26:20Z</time>
      </trkpt>
      <trkpt lat="47.7603750" lon="7.5037250">
        <ele>-173.4</ele>
        <time>2022-06-03T08:26:24Z</time>
      </trkpt>
      <trkpt lat="47.7603750" lon="7.5037250">
        <ele>-173.4</ele>
        <time>2022-06-03T08:26:28Z</time>
      </trkpt>
      <trkpt lat="47.7603750" lon="7.5037250">
        <ele>-173.6</ele>
        <time>2022-06-03T08:26:32Z</time>
      </trkpt>
      <trkpt lat="47.7603750" lon="7.5037250">
        <ele>-173.6</ele>
        <time>2022-06-03T08:26:36Z</time>
      </trkpt>
      <trkpt lat="47.7603750" lon="7.5037250">
        <ele>-173.8</ele>
        <time>2022-06-03T08:26:40Z</time>
      </trkpt>
      <trkpt lat="47.7603750" lon="7.5037250">
        <ele>-173.6</ele>
        <time>2022-06-03T08:26:44Z</time>
      </trkpt>
      <trkpt lat="47.7603750" lon="7.5037250">
        <ele>-173.6</ele>
        <time>2022-06-03T08:26:48Z</time>
      </trkpt>
      <trkpt lat="47.7603750" lon="7.5037250">
        <ele>-173.6</ele>
        <time>2022-06-03T08:26:52Z</time>
      </trkpt>
      <trkpt lat="47.7603750" lon="7.5037250">
        <ele>-174.0</ele>
        <time>2022-06-03T08:26:56Z</time>
      </trkpt>
      <trkpt lat="47.7603750" lon="7.5037250">
        <ele>-174.0</ele>
        <time>2022-06-03T08:27:00Z</time>
      </trkpt>
      <trkpt lat="47.7603750" lon="7.5037250">
        <ele>-173.4</ele>
        <time>2022-06-03T08:27:04Z</time>
      </trkpt>
      <trkpt lat="47.7603750" lon="7.5037250">
        <ele>-173.6</ele>
        <time>2022-06-03T08:27:08Z</time>
      </trkpt>
      <trkpt lat="47.7603750" lon="7.5037250">
        <ele>-173.4</ele>
        <time>2022-06-03T08:27:12Z</time>
      </trkpt>
      <trkpt lat="47.7603750" lon="7.5037250">
        <ele>-173.6</ele>
        <time>2022-06-03T08:27:16Z</time>
      </trkpt>
      <trkpt lat="47.7603750" lon="7.5037250">
        <ele>-173.8</ele>
        <time>2022-06-03T08:27:20Z</time>
      </trkpt>
      <trkpt lat="47.7603750" lon="7.5037250">
        <ele>-174.0</ele>
        <time>2022-06-03T08:27:24Z</time>
      </trkpt>
      <trkpt lat="47.7603750" lon="7.5037250">
        <ele>-173.8</ele>
        <time>2022-06-03T08:27:28Z</time>
      </trkpt>
      <trkpt lat="47.7603750" lon="7.5037250">
        <ele>-173.6</ele>
        <time>2022-06-03T08:27:32Z</time>
      </trkpt>
      <trkpt lat="47.7603750" lon="7.5037250">
        <ele>-173.4</ele>
        <time>2022-06-03T08:27:36Z</time>
      </trkpt>
      <trkpt lat="47.7603750" lon="7.5037250">
        <ele>-173.6</ele>
        <time>2022-06-03T08:27:40Z</time>
      </trkpt>
      <trkpt lat="47.7603750" lon="7.5037250">
        <ele>-173.6</ele>
        <time>2022-06-03T08:27:44Z</time>
      </trkpt>
      <trkpt lat="47.7603750" lon="7.5037250">
        <ele>-173.8</ele>
        <time>2022-06-03T08:27:48Z</time>
      </trkpt>
      <trkpt lat="47.7603750" lon="7.5037250">
        <ele>-173.8</ele>
        <time>2022-06-03T08:27:52Z</time>
      </trkpt>
      <trkpt lat="47.7603750" lon="7.5037250">
        <ele>-173.8</ele>
        <time>2022-06-03T08:27:56Z</time>
      </trkpt>
      <trkpt lat="47.7603750" lon="7.5037250">
        <ele>-173.4</ele>
        <time>2022-06-03T08:28:00Z</time>
      </trkpt>
      <trkpt lat="47.7603750" lon="7.5037250">
        <ele>-174.0</ele>
        <time>2022-06-03T08:28:04Z</time>
      </trkpt>
      <trkpt lat="47.7603750" lon="7.5037250">
        <ele>-173.8</ele>
        <time>2022-06-03T08:28:08Z</time>
      </trkpt>
      <trkpt lat="47.7603750" lon="7.5037250">
        <ele>-173.6</ele>
        <time>2022-06-03T08:28:12Z</time>
      </trkpt>
      <trkpt lat="47.7603750" lon="7.5037250">
        <ele>-174.0</ele>
        <time>2022-06-03T08:28:16Z</time>
      </trkpt>
      <trkpt lat="47.7603750" lon="7.5037250">
        <ele>-174.0</ele>
        <time>2022-06-03T08:28:20Z</time>
      </trkpt>
      <trkpt lat="47.7603750" lon="7.5037250">
        <ele>-174.4</ele>
        <time>2022-06-03T08:28:24Z</time>
      </trkpt>
      <trkpt lat="47.7603750" lon="7.5037250">
        <ele>-173.8</ele>
        <time>2022-06-03T08:28:28Z</time>
      </trkpt>
      <trkpt lat="47.7603750" lon="7.5037250">
        <ele>-173.8</ele>
        <time>2022-06-03T08:28:32Z</time>
      </trkpt>
      <trkpt lat="47.7603750" lon="7.5037250">
        <ele>-173.8</ele>
        <time>2022-06-03T08:28:36Z</time>
      </trkpt>
      <trkpt lat="47.7603750" lon="7.5037250">
        <ele>-174.0</ele>
        <time>2022-06-03T08:28:40Z</time>
      </trkpt>
      <trkpt lat="47.7603750" lon="7.5037250">
        <ele>-173.8</ele>
        <time>2022-06-03T08:28:44Z</time>
      </trkpt>
      <trkpt lat="47.7603750" lon="7.5037250">
        <ele>-174.0</ele>
        <time>2022-06-03T08:28:48Z</time>
      </trkpt>
      <trkpt lat="47.7603750" lon="7.5037250">
        <ele>-174.0</ele>
        <time>2022-06-03T08:28:52Z</time>
      </trkpt>
      <trkpt lat="47.7603750" lon="7.5037250">
        <ele>-174.2</ele>
        <time>2022-06-03T08:28:56Z</time>
      </trkpt>
      <trkpt lat="47.7603750" lon="7.5037250">
        <ele>-174.2</ele>
        <time>2022-06-03T08:29:00Z</time>
      </trkpt>
      <trkpt lat="47.7603750" lon="7.5037250">
        <ele>-173.8</ele>
        <time>2022-06-03T08:29:04Z</time>
      </trkpt>
      <trkpt lat="47.7603750" lon="7.5037250">
        <ele>-174.2</ele>
        <time>2022-06-03T08:29:08Z</time>
      </trkpt>
      <trkpt lat="47.7603750" lon="7.5037250">
        <ele>-174.0</ele>
        <time>2022-06-03T08:29:12Z</time>
      </trkpt>
      <trkpt lat="47.7603750" lon="7.5037250">
        <ele>-173.4</ele>
        <time>2022-06-03T08:29:16Z</time>
      </trkpt>
      <trkpt lat="47.7603750" lon="7.5037250">
        <ele>-173.6</ele>
        <time>2022-06-03T08:29:20Z</time>
      </trkpt>
      <trkpt lat="47.7603610" lon="7.5037160">
        <ele>-173.6</ele>
        <time>2022-06-03T08:29:24Z</time>
      </trkpt>
      <trkpt lat="47.7603610" lon="7.5037160">
        <ele>-173.4</ele>
        <time>2022-06-03T08:29:28Z</time>
      </trkpt>
      <trkpt lat="47.7603610" lon="7.5037160">
        <ele>-173.4</ele>
        <time>2022-06-03T08:29:32Z</time>
      </trkpt>
      <trkpt lat="47.7603610" lon="7.5037160">
        <ele>-174.2</ele>
        <time>2022-06-03T08:29:36Z</time>
      </trkpt>
      <trkpt lat="47.7603610" lon="7.5037160">
        <ele>-174.0</ele>
        <time>2022-06-03T08:29:40Z</time>
      </trkpt>
      <trkpt lat="47.7603610" lon="7.5037160">
        <ele>-174.0</ele>
        <time>2022-06-03T08:29:44Z</time>
      </trkpt>
      <trkpt lat="47.7603610" lon="7.5037160">
        <ele>-174.0</ele>
        <time>2022-06-03T08:29:48Z</time>
      </trkpt>
      <trkpt lat="47.7603610" lon="7.5037160">
        <ele>-174.2</ele>
        <time>2022-06-03T08:29:52Z</time>
      </trkpt>
      <trkpt lat="47.7603610" lon="7.5037160">
        <ele>-174.2</ele>
        <time>2022-06-03T08:29:56Z</time>
      </trkpt>
      <trkpt lat="47.7603610" lon="7.5037160">
        <ele>-174.0</ele>
        <time>2022-06-03T08:30:00Z</time>
      </trkpt>
      <trkpt lat="47.7603610" lon="7.5037160">
        <ele>-174.2</ele>
        <time>2022-06-03T08:30:04Z</time>
      </trkpt>
      <trkpt lat="47.7603610" lon="7.5037160">
        <ele>-174.2</ele>
        <time>2022-06-03T08:30:08Z</time>
      </trkpt>
      <trkpt lat="47.7603610" lon="7.5037160">
        <ele>-173.8</ele>
        <time>2022-06-03T08:30:12Z</time>
      </trkpt>
      <trkpt lat="47.7603610" lon="7.5037160">
        <ele>-174.0</ele>
        <time>2022-06-03T08:30:16Z</time>
      </trkpt>
      <trkpt lat="47.7603610" lon="7.5037160">
        <ele>-174.0</ele>
        <time>2022-06-03T08:30:20Z</time>
      </trkpt>
      <trkpt lat="47.7603610" lon="7.5037160">
        <ele>-174.0</ele>
        <time>2022-06-03T08:30:24Z</time>
      </trkpt>
      <trkpt lat="47.7603610" lon="7.5037160">
        <ele>-174.0</ele>
        <time>2022-06-03T08:30:28Z</time>
      </trkpt>
      <trkpt lat="47.7603610" lon="7.5037160">
        <ele>-174.0</ele>
        <time>2022-06-03T08:30:32Z</time>
      </trkpt>
      <trkpt lat="47.7603610" lon="7.5037160">
        <ele>-174.2</ele>
        <time>2022-06-03T08:30:36Z</time>
      </trkpt>
      <trkpt lat="47.7603610" lon="7.5037160">
        <ele>-174.2</ele>
        <time>2022-06-03T08:30:40Z</time>
      </trkpt>
      <trkpt lat="47.7603610" lon="7.5037160">
        <ele>-174.2</ele>
        <time>2022-06-03T08:30:44Z</time>
      </trkpt>
      <trkpt lat="47.7603700" lon="7.5036960">
        <ele>-174.6</ele>
        <time>2022-06-03T08:30:48Z</time>
      </trkpt>
      <trkpt lat="47.7603830" lon="7.5037030">
        <ele>-174.2</ele>
        <time>2022-06-03T08:30:52Z</time>
      </trkpt>
      <trkpt lat="47.7603830" lon="7.5037030">
        <ele>-174.2</ele>
        <time>2022-06-03T08:30:56Z</time>
      </trkpt>
      <trkpt lat="47.7603860" lon="7.5037100">
        <ele>-174.4</ele>
        <time>2022-06-03T08:31:00Z</time>
      </trkpt>
      <trkpt lat="47.7603930" lon="7.5037580">
        <ele>-174.2</ele>
        <time>2022-06-03T08:31:04Z</time>
      </trkpt>
      <trkpt lat="47.7603900" lon="7.5037850">
        <ele>-174.2</ele>
        <time>2022-06-03T08:31:08Z</time>
      </trkpt>
      <trkpt lat="47.7603710" lon="7.5038700">
        <ele>-174.2</ele>
        <time>2022-06-03T08:31:12Z</time>
      </trkpt>
      <trkpt lat="47.7603260" lon="7.5039900">
        <ele>-174.4</ele>
        <time>2022-06-03T08:31:16Z</time>
      </trkpt>
      <trkpt lat="47.7602730" lon="7.5041360">
        <ele>-174.8</ele>
        <time>2022-06-03T08:31:20Z</time>
      </trkpt>
      <trkpt lat="47.7602910" lon="7.5042960">
        <ele>-174.2</ele>
        <time>2022-06-03T08:31:24Z</time>
      </trkpt>
      <trkpt lat="47.7604280" lon="7.5043380">
        <ele>-175.2</ele>
        <time>2022-06-03T08:31:28Z</time>
      </trkpt>
      <trkpt lat="47.7606130" lon="7.5043530">
        <ele>-176.0</ele>
        <time>2022-06-03T08:31:32Z</time>
      </trkpt>
      <trkpt lat="47.7607960" lon="7.5044330">
        <ele>-176.4</ele>
        <time>2022-06-03T08:31:36Z</time>
      </trkpt>
      <trkpt lat="47.7609760" lon="7.5045450">
        <ele>-176.2</ele>
        <time>2022-06-03T08:31:40Z</time>
      </trkpt>
      <trkpt lat="47.7611630" lon="7.5046060">
        <ele>-177.0</ele>
        <time>2022-06-03T08:31:44Z</time>
      </trkpt>
      <trkpt lat="47.7613450" lon="7.5046600">
        <ele>-176.6</ele>
        <time>2022-06-03T08:31:48Z</time>
      </trkpt>
      <trkpt lat="47.7615210" lon="7.5047010">
        <ele>-176.2</ele>
        <time>2022-06-03T08:31:52Z</time>
      </trkpt>
      <trkpt lat="47.7616910" lon="7.5047450">
        <ele>-177.2</ele>
        <time>2022-06-03T08:31:56Z</time>
      </trkpt>
      <trkpt lat="47.7618610" lon="7.5047860">
        <ele>-176.6</ele>
        <time>2022-06-03T08:32:00Z</time>
      </trkpt>
      <trkpt lat="47.7620210" lon="7.5048350">
        <ele>-177.2</ele>
        <time>2022-06-03T08:32:04Z</time>
      </trkpt>
      <trkpt lat="47.7621900" lon="7.5048600">
        <ele>-177.4</ele>
        <time>2022-06-03T08:32:08Z</time>
      </trkpt>
      <trkpt lat="47.7623650" lon="7.5048950">
        <ele>-177.0</ele>
        <time>2022-06-03T08:32:12Z</time>
      </trkpt>
      <trkpt lat="47.7625410" lon="7.5049180">
        <ele>-176.8</ele>
        <time>2022-06-03T08:32:16Z</time>
      </trkpt>
      <trkpt lat="47.7627200" lon="7.5049410">
        <ele>-176.6</ele>
        <time>2022-06-03T08:32:20Z</time>
      </trkpt>
      <trkpt lat="47.7629000" lon="7.5049580">
        <ele>-177.4</ele>
        <time>2022-06-03T08:32:24Z</time>
      </trkpt>
      <trkpt lat="47.7630800" lon="7.5049900">
        <ele>-177.0</ele>
        <time>2022-06-03T08:32:28Z</time>
      </trkpt>
      <trkpt lat="47.7632580" lon="7.5050060">
        <ele>-177.2</ele>
        <time>2022-06-03T08:32:32Z</time>
      </trkpt>
      <trkpt lat="47.7634450" lon="7.5050310">
        <ele>-177.4</ele>
        <time>2022-06-03T08:32:36Z</time>
      </trkpt>
      <trkpt lat="47.7636250" lon="7.5050650">
        <ele>-177.0</ele>
        <time>2022-06-03T08:32:40Z</time>
      </trkpt>
      <trkpt lat="47.7638080" lon="7.5050950">
        <ele>-177.4</ele>
        <time>2022-06-03T08:32:44Z</time>
      </trkpt>
      <trkpt lat="47.7639930" lon="7.5051150">
        <ele>-177.8</ele>
        <time>2022-06-03T08:32:48Z</time>
      </trkpt>
      <trkpt lat="47.7641760" lon="7.5051310">
        <ele>-178.0</ele>
        <time>2022-06-03T08:32:52Z</time>
      </trkpt>
      <trkpt lat="47.7643650" lon="7.5051430">
        <ele>-177.4</ele>
        <time>2022-06-03T08:32:56Z</time>
      </trkpt>
      <trkpt lat="47.7645580" lon="7.5051410">
        <ele>-177.4</ele>
        <time>2022-06-03T08:33:00Z</time>
      </trkpt>
      <trkpt lat="47.7647580" lon="7.5051550">
        <ele>-177.4</ele>
        <time>2022-06-03T08:33:04Z</time>
      </trkpt>
      <trkpt lat="47.7649630" lon="7.5051610">
        <ele>-177.4</ele>
        <time>2022-06-03T08:33:08Z</time>
      </trkpt>
      <trkpt lat="47.7651660" lon="7.5051750">
        <ele>-177.8</ele>
        <time>2022-06-03T08:33:12Z</time>
      </trkpt>
      <trkpt lat="47.7653610" lon="7.5051860">
        <ele>-177.6</ele>
        <time>2022-06-03T08:33:16Z</time>
      </trkpt>
      <trkpt lat="47.7655550" lon="7.5051880">
        <ele>-177.8</ele>
        <time>2022-06-03T08:33:20Z</time>
      </trkpt>
      <trkpt lat="47.7657450" lon="7.5051910">
        <ele>-178.0</ele>
        <time>2022-06-03T08:33:24Z</time>
      </trkpt>
      <trkpt lat="47.7659130" lon="7.5052010">
        <ele>-178.0</ele>
        <time>2022-06-03T08:33:28Z</time>
      </trkpt>
      <trkpt lat="47.7660860" lon="7.5051980">
        <ele>-177.4</ele>
        <time>2022-06-03T08:33:32Z</time>
      </trkpt>
      <trkpt lat="47.7662850" lon="7.5051710">
        <ele>-177.4</ele>
        <time>2022-06-03T08:33:36Z</time>
      </trkpt>
      <trkpt lat="47.7664750" lon="7.5051530">
        <ele>-177.0</ele>
        <time>2022-06-03T08:33:40Z</time>
      </trkpt>
      <trkpt lat="47.7666650" lon="7.5051350">
        <ele>-177.4</ele>
        <time>2022-06-03T08:33:44Z</time>
      </trkpt>
      <trkpt lat="47.7668610" lon="7.5051080">
        <ele>-178.0</ele>
        <time>2022-06-03T08:33:48Z</time>
      </trkpt>
      <trkpt lat="47.7670630" lon="7.5050950">
        <ele>-178.0</ele>
        <time>2022-06-03T08:33:52Z</time>
      </trkpt>
      <trkpt lat="47.7672660" lon="7.5050910">
        <ele>-178.2</ele>
        <time>2022-06-03T08:33:56Z</time>
      </trkpt>
      <trkpt lat="47.7674700" lon="7.5051050">
        <ele>-177.8</ele>
        <time>2022-06-03T08:34:00Z</time>
      </trkpt>
      <trkpt lat="47.7676750" lon="7.5051230">
        <ele>-177.6</ele>
        <time>2022-06-03T08:34:04Z</time>
      </trkpt>
      <trkpt lat="47.7678710" lon="7.5051680">
        <ele>-177.6</ele>
        <time>2022-06-03T08:34:08Z</time>
      </trkpt>
      <trkpt lat="47.7680610" lon="7.5052110">
        <ele>-177.2</ele>
        <time>2022-06-03T08:34:12Z</time>
      </trkpt>
      <trkpt lat="47.7682500" lon="7.5052610">
        <ele>-177.6</ele>
        <time>2022-06-03T08:34:16Z</time>
      </trkpt>
      <trkpt lat="47.7684350" lon="7.5053080">
        <ele>-177.6</ele>
        <time>2022-06-03T08:34:20Z</time>
      </trkpt>
      <trkpt lat="47.7686230" lon="7.5053530">
        <ele>-178.0</ele>
        <time>2022-06-03T08:34:24Z</time>
      </trkpt>
      <trkpt lat="47.7688200" lon="7.5053960">
        <ele>-178.2</ele>
        <time>2022-06-03T08:34:28Z</time>
      </trkpt>
      <trkpt lat="47.7690180" lon="7.5054500">
        <ele>-178.0</ele>
        <time>2022-06-03T08:34:32Z</time>
      </trkpt>
      <trkpt lat="47.7692150" lon="7.5054960">
        <ele>-177.8</ele>
        <time>2022-06-03T08:34:36Z</time>
      </trkpt>
      <trkpt lat="47.7694000" lon="7.5055460">
        <ele>-178.2</ele>
        <time>2022-06-03T08:34:40Z</time>
      </trkpt>
      <trkpt lat="47.7695850" lon="7.5055660">
        <ele>-178.0</ele>
        <time>2022-06-03T08:34:44Z</time>
      </trkpt>
      <trkpt lat="47.7697700" lon="7.5055700">
        <ele>-178.0</ele>
        <time>2022-06-03T08:34:48Z</time>
      </trkpt>
      <trkpt lat="47.7699600" lon="7.5055700">
        <ele>-178.0</ele>
        <time>2022-06-03T08:34:52Z</time>
      </trkpt>
      <trkpt lat="47.7701500" lon="7.5055700">
        <ele>-178.2</ele>
        <time>2022-06-03T08:34:56Z</time>
      </trkpt>
      <trkpt lat="47.7703450" lon="7.5055750">
        <ele>-178.4</ele>
        <time>2022-06-03T08:35:00Z</time>
      </trkpt>
      <trkpt lat="47.7705350" lon="7.5055780">
        <ele>-178.4</ele>
        <time>2022-06-03T08:35:04Z</time>
      </trkpt>
      <trkpt lat="47.7707280" lon="7.5055830">
        <ele>-178.6</ele>
        <time>2022-06-03T08:35:08Z</time>
      </trkpt>
      <trkpt lat="47.7709310" lon="7.5055780">
        <ele>-178.6</ele>
        <time>2022-06-03T08:35:12Z</time>
      </trkpt>
      <trkpt lat="47.7711360" lon="7.5055780">
        <ele>-178.8</ele>
        <time>2022-06-03T08:35:16Z</time>
      </trkpt>
      <trkpt lat="47.7713400" lon="7.5056000">
        <ele>-179.2</ele>
        <time>2022-06-03T08:35:20Z</time>
      </trkpt>
      <trkpt lat="47.7715450" lon="7.5056080">
        <ele>-179.0</ele>
        <time>2022-06-03T08:35:24Z</time>
      </trkpt>
      <trkpt lat="47.7717450" lon="7.5056060">
        <ele>-179.2</ele>
        <time>2022-06-03T08:35:28Z</time>
      </trkpt>
      <trkpt lat="47.7719480" lon="7.5056060">
        <ele>-179.4</ele>
        <time>2022-06-03T08:35:32Z</time>
      </trkpt>
      <trkpt lat="47.7721500" lon="7.5056050">
        <ele>-179.0</ele>
        <time>2022-06-03T08:35:36Z</time>
      </trkpt>
      <trkpt lat="47.7723500" lon="7.5056000">
        <ele>-178.8</ele>
        <time>2022-06-03T08:35:40Z</time>
      </trkpt>
      <trkpt lat="47.7725600" lon="7.5055960">
        <ele>-179.2</ele>
        <time>2022-06-03T08:35:44Z</time>
      </trkpt>
      <trkpt lat="47.7727780" lon="7.5056000">
        <ele>-179.4</ele>
        <time>2022-06-03T08:35:48Z</time>
      </trkpt>
      <trkpt lat="47.7729980" lon="7.5056010">
        <ele>-179.4</ele>
        <time>2022-06-03T08:35:52Z</time>
      </trkpt>
      <trkpt lat="47.7732080" lon="7.5056000">
        <ele>-179.6</ele>
        <time>2022-06-03T08:35:56Z</time>
      </trkpt>
      <trkpt lat="47.7734110" lon="7.5056000">
        <ele>-179.4</ele>
        <time>2022-06-03T08:36:00Z</time>
      </trkpt>
      <trkpt lat="47.7736060" lon="7.5055980">
        <ele>-179.2</ele>
        <time>2022-06-03T08:36:04Z</time>
      </trkpt>
      <trkpt lat="47.7737980" lon="7.5056030">
        <ele>-179.4</ele>
        <time>2022-06-03T08:36:08Z</time>
      </trkpt>
      <trkpt lat="47.7739860" lon="7.5055910">
        <ele>-179.0</ele>
        <time>2022-06-03T08:36:12Z</time>
      </trkpt>
      <trkpt lat="47.7741800" lon="7.5055910">
        <ele>-179.2</ele>
        <time>2022-06-03T08:36:16Z</time>
      </trkpt>
      <trkpt lat="47.7743800" lon="7.5056010">
        <ele>-179.0</ele>
        <time>2022-06-03T08:36:20Z</time>
      </trkpt>
      <trkpt lat="47.7745700" lon="7.5055950">
        <ele>-179.6</ele>
        <time>2022-06-03T08:36:24Z</time>
      </trkpt>
      <trkpt lat="47.7747800" lon="7.5055960">
        <ele>-180.2</ele>
        <time>2022-06-03T08:36:28Z</time>
      </trkpt>
      <trkpt lat="47.7749930" lon="7.5056080">
        <ele>-180.0</ele>
        <time>2022-06-03T08:36:32Z</time>
      </trkpt>
      <trkpt lat="47.7752030" lon="7.5056050">
        <ele>-179.8</ele>
        <time>2022-06-03T08:36:36Z</time>
      </trkpt>
      <trkpt lat="47.7754010" lon="7.5056030">
        <ele>-180.0</ele>
        <time>2022-06-03T08:36:40Z</time>
      </trkpt>
      <trkpt lat="47.7755950" lon="7.5056100">
        <ele>-179.8</ele>
        <time>2022-06-03T08:36:44Z</time>
      </trkpt>
      <trkpt lat="47.7757900" lon="7.5056050">
        <ele>-180.4</ele>
        <time>2022-06-03T08:36:48Z</time>
      </trkpt>
      <trkpt lat="47.7760000" lon="7.5056060">
        <ele>-181.4</ele>
        <time>2022-06-03T08:36:52Z</time>
      </trkpt>
      <trkpt lat="47.7762180" lon="7.5056060">
        <ele>-181.0</ele>
        <time>2022-06-03T08:36:56Z</time>
      </trkpt>
      <trkpt lat="47.7764280" lon="7.5056030">
        <ele>-180.8</ele>
        <time>2022-06-03T08:37:00Z</time>
      </trkpt>
      <trkpt lat="47.7766160" lon="7.5056000">
        <ele>-180.4</ele>
        <time>2022-06-03T08:37:04Z</time>
      </trkpt>
      <trkpt lat="47.7767950" lon="7.5056010">
        <ele>-181.2</ele>
        <time>2022-06-03T08:37:08Z</time>
      </trkpt>
      <trkpt lat="47.7770060" lon="7.5056000">
        <ele>-183.2</ele>
        <time>2022-06-03T08:37:12Z</time>
      </trkpt>
      <trkpt lat="47.7772810" lon="7.5055960">
        <ele>-186.2</ele>
        <time>2022-06-03T08:37:16Z</time>
      </trkpt>
      <trkpt lat="47.7776110" lon="7.5056000">
        <ele>-187.0</ele>
        <time>2022-06-03T08:37:20Z</time>
      </trkpt>
      <trkpt lat="47.7778250" lon="7.5056650">
        <ele>-185.4</ele>
        <time>2022-06-03T08:37:24Z</time>
      </trkpt>
      <trkpt lat="47.7778930" lon="7.5058680">
        <ele>-185.6</ele>
        <time>2022-06-03T08:37:28Z</time>
      </trkpt>
      <trkpt lat="47.7782850" lon="7.5055960">
        <ele>-184.6</ele>
        <time>2022-06-03T08:37:32Z</time>
      </trkpt>
      <trkpt lat="47.7785930" lon="7.5055660">
        <ele>-183.0</ele>
        <time>2022-06-03T08:37:36Z</time>
      </trkpt>
      <trkpt lat="47.7788210" lon="7.5055700">
        <ele>-182.8</ele>
        <time>2022-06-03T08:37:40Z</time>
      </trkpt>
      <trkpt lat="47.7789810" lon="7.5055630">
        <ele>-180.6</ele>
        <time>2022-06-03T08:37:44Z</time>
      </trkpt>
      <trkpt lat="47.7791160" lon="7.5056030">
        <ele>-181.0</ele>
        <time>2022-06-03T08:37:48Z</time>
      </trkpt>
      <trkpt lat="47.7792550" lon="7.5055930">
        <ele>-181.0</ele>
        <time>2022-06-03T08:37:52Z</time>
      </trkpt>
      <trkpt lat="47.7794160" lon="7.5055910">
        <ele>-180.4</ele>
        <time>2022-06-03T08:37:56Z</time>
      </trkpt>
      <trkpt lat="47.7795910" lon="7.5055910">
        <ele>-180.8</ele>
        <time>2022-06-03T08:38:00Z</time>
      </trkpt>
      <trkpt lat="47.7797750" lon="7.5056010">
        <ele>-180.0</ele>
        <time>2022-06-03T08:38:04Z</time>
      </trkpt>
      <trkpt lat="47.7799500" lon="7.5056050">
        <ele>-180.2</ele>
        <time>2022-06-03T08:38:08Z</time>
      </trkpt>
      <trkpt lat="47.7801080" lon="7.5056100">
        <ele>-180.4</ele>
        <time>2022-06-03T08:38:12Z</time>
      </trkpt>
      <trkpt lat="47.7803060" lon="7.5056060">
        <ele>-180.6</ele>
        <time>2022-06-03T08:38:16Z</time>
      </trkpt>
      <trkpt lat="47.7805160" lon="7.5056060">
        <ele>-180.8</ele>
        <time>2022-06-03T08:38:20Z</time>
      </trkpt>
      <trkpt lat="47.7807250" lon="7.5056080">
        <ele>-180.4</ele>
        <time>2022-06-03T08:38:24Z</time>
      </trkpt>
      <trkpt lat="47.7809280" lon="7.5056030">
        <ele>-181.2</ele>
        <time>2022-06-03T08:38:28Z</time>
      </trkpt>
      <trkpt lat="47.7811360" lon="7.5056110">
        <ele>-181.2</ele>
        <time>2022-06-03T08:38:32Z</time>
      </trkpt>
      <trkpt lat="47.7813350" lon="7.5056130">
        <ele>-180.8</ele>
        <time>2022-06-03T08:38:36Z</time>
      </trkpt>
      <trkpt lat="47.7815250" lon="7.5056200">
        <ele>-180.4</ele>
        <time>2022-06-03T08:38:40Z</time>
      </trkpt>
      <trkpt lat="47.7817180" lon="7.5056180">
        <ele>-180.8</ele>
        <time>2022-06-03T08:38:44Z</time>
      </trkpt>
      <trkpt lat="47.7819010" lon="7.5056210">
        <ele>-180.4</ele>
        <time>2022-06-03T08:38:48Z</time>
      </trkpt>
      <trkpt lat="47.7820880" lon="7.5056280">
        <ele>-180.2</ele>
        <time>2022-06-03T08:38:52Z</time>
      </trkpt>
      <trkpt lat="47.7822800" lon="7.5056250">
        <ele>-180.6</ele>
        <time>2022-06-03T08:38:56Z</time>
      </trkpt>
      <trkpt lat="47.7824730" lon="7.5056230">
        <ele>-181.2</ele>
        <time>2022-06-03T08:39:00Z</time>
      </trkpt>
      <trkpt lat="47.7826730" lon="7.5056250">
        <ele>-181.8</ele>
        <time>2022-06-03T08:39:04Z</time>
      </trkpt>
      <trkpt lat="47.7828750" lon="7.5056230">
        <ele>-181.6</ele>
        <time>2022-06-03T08:39:08Z</time>
      </trkpt>
      <trkpt lat="47.7830730" lon="7.5056310">
        <ele>-180.8</ele>
        <time>2022-06-03T08:39:12Z</time>
      </trkpt>
      <trkpt lat="47.7832660" lon="7.5056280">
        <ele>-181.0</ele>
        <time>2022-06-03T08:39:16Z</time>
      </trkpt>
      <trkpt lat="47.7834580" lon="7.5056300">
        <ele>-181.0</ele>
        <time>2022-06-03T08:39:20Z</time>
      </trkpt>
      <trkpt lat="47.7836330" lon="7.5056250">
        <ele>-181.4</ele>
        <time>2022-06-03T08:39:24Z</time>
      </trkpt>
      <trkpt lat="47.7837600" lon="7.5056280">
        <ele>-180.8</ele>
        <time>2022-06-03T08:39:28Z</time>
      </trkpt>
      <trkpt lat="47.7839180" lon="7.5056110">
        <ele>-181.2</ele>
        <time>2022-06-03T08:39:32Z</time>
      </trkpt>
      <trkpt lat="47.7840900" lon="7.5056100">
        <ele>-181.4</ele>
        <time>2022-06-03T08:39:36Z</time>
      </trkpt>
      <trkpt lat="47.7842780" lon="7.5056250">
        <ele>-182.8</ele>
        <time>2022-06-03T08:39:40Z</time>
      </trkpt>
      <trkpt lat="47.7844710" lon="7.5056180">
        <ele>-183.0</ele>
        <time>2022-06-03T08:39:44Z</time>
      </trkpt>
      <trkpt lat="47.7846660" lon="7.5056060">
        <ele>-182.6</ele>
        <time>2022-06-03T08:39:48Z</time>
      </trkpt>
      <trkpt lat="47.7848480" lon="7.5055880">
        <ele>-182.0</ele>
        <time>2022-06-03T08:39:52Z</time>
      </trkpt>
      <trkpt lat="47.7850060" lon="7.5055450">
        <ele>-181.4</ele>
        <time>2022-06-03T08:39:56Z</time>
      </trkpt>
      <trkpt lat="47.7851360" lon="7.5055110">
        <ele>-181.6</ele>
        <time>2022-06-03T08:40:00Z</time>
      </trkpt>
      <trkpt lat="47.7852330" lon="7.5055860">
        <ele>-181.6</ele>
        <time>2022-06-03T08:40:04Z</time>
      </trkpt>
      <trkpt lat="47.7853330" lon="7.5057350">
        <ele>-181.6</ele>
        <time>2022-06-03T08:40:08Z</time>
      </trkpt>
      <trkpt lat="47.7854460" lon="7.5058980">
        <ele>-181.6</ele>
        <time>2022-06-03T08:40:12Z</time>
      </trkpt>
      <trkpt lat="47.7855710" lon="7.5060660">
        <ele>-181.6</ele>
        <time>2022-06-03T08:40:16Z</time>
      </trkpt>
      <trkpt lat="47.7857100" lon="7.5062110">
        <ele>-182.2</ele>
        <time>2022-06-03T08:40:20Z</time>
      </trkpt>
      <trkpt lat="47.7858460" lon="7.5063360">
        <ele>-181.6</ele>
        <time>2022-06-03T08:40:24Z</time>
      </trkpt>
      <trkpt lat="47.7859930" lon="7.5064200">
        <ele>-181.6</ele>
        <time>2022-06-03T08:40:28Z</time>
      </trkpt>
      <trkpt lat="47.7861460" lon="7.5064780">
        <ele>-181.4</ele>
        <time>2022-06-03T08:40:32Z</time>
      </trkpt>
      <trkpt lat="47.7863050" lon="7.5064960">
        <ele>-181.8</ele>
        <time>2022-06-03T08:40:36Z</time>
      </trkpt>
      <trkpt lat="47.7864600" lon="7.5064950">
        <ele>-182.0</ele>
        <time>2022-06-03T08:40:40Z</time>
      </trkpt>
      <trkpt lat="47.7866050" lon="7.5064730">
        <ele>-182.6</ele>
        <time>2022-06-03T08:40:44Z</time>
      </trkpt>
      <trkpt lat="47.7867380" lon="7.5064530">
        <ele>-182.4</ele>
        <time>2022-06-03T08:40:48Z</time>
      </trkpt>
      <trkpt lat="47.7868630" lon="7.5064830">
        <ele>-182.2</ele>
        <time>2022-06-03T08:40:52Z</time>
      </trkpt>
      <trkpt lat="47.7869260" lon="7.5065860">
        <ele>-182.2</ele>
        <time>2022-06-03T08:40:56Z</time>
      </trkpt>
      <trkpt lat="47.7869660" lon="7.5066960">
        <ele>-182.2</ele>
        <time>2022-06-03T08:41:00Z</time>
      </trkpt>
      <trkpt lat="47.7870060" lon="7.5068050">
        <ele>-181.8</ele>
        <time>2022-06-03T08:41:04Z</time>
      </trkpt>
      <trkpt lat="47.7870230" lon="7.5068760">
        <ele>-181.6</ele>
        <time>2022-06-03T08:41:08Z</time>
      </trkpt>
      <trkpt lat="47.7870600" lon="7.5069150">
        <ele>-182.2</ele>
        <time>2022-06-03T08:41:12Z</time>
      </trkpt>
      <trkpt lat="47.7870750" lon="7.5069980">
        <ele>-182.0</ele>
        <time>2022-06-03T08:41:16Z</time>
      </trkpt>
      <trkpt lat="47.7870750" lon="7.5069980">
        <ele>-181.6</ele>
        <time>2022-06-03T08:41:20Z</time>
      </trkpt>
      <trkpt lat="47.7870750" lon="7.5069980">
        <ele>-181.6</ele>
        <time>2022-06-03T08:41:24Z</time>
      </trkpt>
      <trkpt lat="47.7870750" lon="7.5069980">
        <ele>-181.4</ele>
        <time>2022-06-03T08:41:28Z</time>
      </trkpt>
      <trkpt lat="47.7870750" lon="7.5069980">
        <ele>-181.8</ele>
        <time>2022-06-03T08:41:32Z</time>
      </trkpt>
      <trkpt lat="47.7870750" lon="7.5069980">
        <ele>-181.6</ele>
        <time>2022-06-03T08:41:36Z</time>
      </trkpt>
      <trkpt lat="47.7870750" lon="7.5069980">
        <ele>-181.6</ele>
        <time>2022-06-03T08:41:40Z</time>
      </trkpt>
      <trkpt lat="47.7870750" lon="7.5069980">
        <ele>-181.6</ele>
        <time>2022-06-03T08:41:44Z</time>
      </trkpt>
      <trkpt lat="47.7870750" lon="7.5069980">
        <ele>-181.6</ele>
        <time>2022-06-03T08:41:48Z</time>
      </trkpt>
      <trkpt lat="47.7870750" lon="7.5069980">
        <ele>-181.4</ele>
        <time>2022-06-03T08:41:52Z</time>
      </trkpt>
      <trkpt lat="47.7870750" lon="7.5069980">
        <ele>-181.6</ele>
        <time>2022-06-03T08:41:56Z</time>
      </trkpt>
      <trkpt lat="47.7870750" lon="7.5069980">
        <ele>-181.8</ele>
        <time>2022-06-03T08:42:00Z</time>
      </trkpt>
      <trkpt lat="47.7870750" lon="7.5069980">
        <ele>-181.6</ele>
        <time>2022-06-03T08:42:04Z</time>
      </trkpt>
      <trkpt lat="47.7870750" lon="7.5069980">
        <ele>-181.4</ele>
        <time>2022-06-03T08:42:08Z</time>
      </trkpt>
      <trkpt lat="47.7870750" lon="7.5069980">
        <ele>-181.6</ele>
        <time>2022-06-03T08:42:12Z</time>
      </trkpt>
      <trkpt lat="47.7870750" lon="7.5069980">
        <ele>-181.4</ele>
        <time>2022-06-03T08:42:16Z</time>
      </trkpt>
      <trkpt lat="47.7870750" lon="7.5069980">
        <ele>-181.4</ele>
        <time>2022-06-03T08:42:20Z</time>
      </trkpt>
      <trkpt lat="47.7870750" lon="7.5069980">
        <ele>-181.6</ele>
        <time>2022-06-03T08:42:24Z</time>
      </trkpt>
      <trkpt lat="47.7870650" lon="7.5070600">
        <ele>-181.6</ele>
        <time>2022-06-03T08:42:28Z</time>
      </trkpt>
      <trkpt lat="47.7871100" lon="7.5070550">
        <ele>-181.6</ele>
        <time>2022-06-03T08:42:32Z</time>
      </trkpt>
      <trkpt lat="47.7871830" lon="7.5070700">
        <ele>-181.6</ele>
        <time>2022-06-03T08:42:36Z</time>
      </trkpt>
      <trkpt lat="47.7872550" lon="7.5070960">
        <ele>-181.6</ele>
        <time>2022-06-03T08:42:40Z</time>
      </trkpt>
      <trkpt lat="47.7872550" lon="7.5070960">
        <ele>-181.4</ele>
        <time>2022-06-03T08:42:44Z</time>
      </trkpt>
      <trkpt lat="47.7872550" lon="7.5070960">
        <ele>-181.6</ele>
        <time>2022-06-03T08:42:48Z</time>
      </trkpt>
      <trkpt lat="47.7872780" lon="7.5071600">
        <ele>-181.4</ele>
        <time>2022-06-03T08:42:52Z</time>
      </trkpt>
      <trkpt lat="47.7872780" lon="7.5071600">
        <ele>-181.2</ele>
        <time>2022-06-03T08:42:56Z</time>
      </trkpt>
      <trkpt lat="47.7872780" lon="7.5071600">
        <ele>-181.4</ele>
        <time>2022-06-03T08:43:00Z</time>
      </trkpt>
      <trkpt lat="47.7872780" lon="7.5071600">
        <ele>-181.6</ele>
        <time>2022-06-03T08:43:04Z</time>
      </trkpt>
      <trkpt lat="47.7872780" lon="7.5071600">
        <ele>-181.0</ele>
        <time>2022-06-03T08:43:08Z</time>
      </trkpt>
      <trkpt lat="47.7872780" lon="7.5071600">
        <ele>-181.4</ele>
        <time>2022-06-03T08:43:12Z</time>
      </trkpt>
      <trkpt lat="47.7872780" lon="7.5072050">
        <ele>-181.2</ele>
        <time>2022-06-03T08:43:16Z</time>
      </trkpt>
      <trkpt lat="47.7872780" lon="7.5072050">
        <ele>-181.4</ele>
        <time>2022-06-03T08:43:20Z</time>
      </trkpt>
      <trkpt lat="47.7872780" lon="7.5072050">
        <ele>-181.4</ele>
        <time>2022-06-03T08:43:24Z</time>
      </trkpt>
      <trkpt lat="47.7872780" lon="7.5072050">
        <ele>-181.4</ele>
        <time>2022-06-03T08:43:28Z</time>
      </trkpt>
      <trkpt lat="47.7872780" lon="7.5072050">
        <ele>-181.2</ele>
        <time>2022-06-03T08:43:32Z</time>
      </trkpt>
      <trkpt lat="47.7872780" lon="7.5072050">
        <ele>-181.2</ele>
        <time>2022-06-03T08:43:36Z</time>
      </trkpt>
      <trkpt lat="47.7872780" lon="7.5072050">
        <ele>-181.4</ele>
        <time>2022-06-03T08:43:40Z</time>
      </trkpt>
      <trkpt lat="47.7872410" lon="7.5071580">
        <ele>-181.6</ele>
        <time>2022-06-03T08:43:44Z</time>
      </trkpt>
      <trkpt lat="47.7872080" lon="7.5070810">
        <ele>-181.4</ele>
        <time>2022-06-03T08:43:48Z</time>
      </trkpt>
      <trkpt lat="47.7871450" lon="7.5069760">
        <ele>-181.8</ele>
        <time>2022-06-03T08:43:52Z</time>
      </trkpt>
      <trkpt lat="47.7870660" lon="7.5068450">
        <ele>-181.8</ele>
        <time>2022-06-03T08:43:56Z</time>
      </trkpt>
      <trkpt lat="47.7870210" lon="7.5066810">
        <ele>-182.0</ele>
        <time>2022-06-03T08:44:00Z</time>
      </trkpt>
      <trkpt lat="47.7870030" lon="7.5065960">
        <ele>-182.2</ele>
        <time>2022-06-03T08:44:04Z</time>
      </trkpt>
      <trkpt lat="47.7870510" lon="7.5065180">
        <ele>-182.0</ele>
        <time>2022-06-03T08:44:08Z</time>
      </trkpt>
      <trkpt lat="47.7871400" lon="7.5064960">
        <ele>-182.2</ele>
        <time>2022-06-03T08:44:12Z</time>
      </trkpt>
      <trkpt lat="47.7872180" lon="7.5065010">
        <ele>-182.2</ele>
        <time>2022-06-03T08:44:16Z</time>
      </trkpt>
      <trkpt lat="47.7873030" lon="7.5064910">
        <ele>-182.2</ele>
        <time>2022-06-03T08:44:20Z</time>
      </trkpt>
      <trkpt lat="47.7874000" lon="7.5064310">
        <ele>-182.2</ele>
        <time>2022-06-03T08:44:24Z</time>
      </trkpt>
      <trkpt lat="47.7875000" lon="7.5063950">
        <ele>-182.4</ele>
        <time>2022-06-03T08:44:28Z</time>
      </trkpt>
      <trkpt lat="47.7876510" lon="7.5064000">
        <ele>-182.6</ele>
        <time>2022-06-03T08:44:32Z</time>
      </trkpt>
      <trkpt lat="47.7878010" lon="7.5063930">
        <ele>-182.0</ele>
        <time>2022-06-03T08:44:36Z</time>
      </trkpt>
      <trkpt lat="47.7879510" lon="7.5063780">
        <ele>-182.4</ele>
        <time>2022-06-03T08:44:40Z</time>
      </trkpt>
      <trkpt lat="47.7881030" lon="7.5063660">
        <ele>-182.2</ele>
        <time>2022-06-03T08:44:44Z</time>
      </trkpt>
      <trkpt lat="47.7882560" lon="7.5063550">
        <ele>-182.4</ele>
        <time>2022-06-03T08:44:48Z</time>
      </trkpt>
      <trkpt lat="47.7884110" lon="7.5063400">
        <ele>-182.2</ele>
        <time>2022-06-03T08:44:52Z</time>
      </trkpt>
      <trkpt lat="47.7885610" lon="7.5063400">
        <ele>-182.0</ele>
        <time>2022-06-03T08:44:56Z</time>
      </trkpt>
      <trkpt lat="47.7887230" lon="7.5063230">
        <ele>-182.4</ele>
        <time>2022-06-03T08:45:00Z</time>
      </trkpt>
      <trkpt lat="47.7888950" lon="7.5063060">
        <ele>-183.0</ele>
        <time>2022-06-03T08:45:04Z</time>
      </trkpt>
      <trkpt lat="47.7890610" lon="7.5062830">
        <ele>-182.8</ele>
        <time>2022-06-03T08:45:08Z</time>
      </trkpt>
      <trkpt lat="47.7892350" lon="7.5062680">
        <ele>-182.6</ele>
        <time>2022-06-03T08:45:12Z</time>
      </trkpt>
      <trkpt lat="47.7894060" lon="7.5062550">
        <ele>-183.4</ele>
        <time>2022-06-03T08:45:16Z</time>
      </trkpt>
      <trkpt lat="47.7895660" lon="7.5062310">
        <ele>-182.8</ele>
        <time>2022-06-03T08:45:20Z</time>
      </trkpt>
      <trkpt lat="47.7897430" lon="7.5061980">
        <ele>-182.4</ele>
        <time>2022-06-03T08:45:24Z</time>
      </trkpt>
      <trkpt lat="47.7899000" lon="7.5061030">
        <ele>-182.8</ele>
        <time>2022-06-03T08:45:28Z</time>
      </trkpt>
      <trkpt lat="47.7900130" lon="7.5059210">
        <ele>-182.8</ele>
        <time>2022-06-03T08:45:32Z</time>
      </trkpt>
      <trkpt lat="47.7901150" lon="7.5057210">
        <ele>-181.8</ele>
        <time>2022-06-03T08:45:36Z</time>
      </trkpt>
      <trkpt lat="47.7902150" lon="7.5055180">
        <ele>-181.8</ele>
        <time>2022-06-03T08:45:40Z</time>
      </trkpt>
      <trkpt lat="47.7903650" lon="7.5054210">
        <ele>-182.4</ele>
        <time>2022-06-03T08:45:44Z</time>
      </trkpt>
      <trkpt lat="47.7905400" lon="7.5054160">
        <ele>-182.4</ele>
        <time>2022-06-03T08:45:48Z</time>
      </trkpt>
      <trkpt lat="47.7907160" lon="7.5054130">
        <ele>-182.4</ele>
        <time>2022-06-03T08:45:52Z</time>
      </trkpt>
      <trkpt lat="47.7908880" lon="7.5054000">
        <ele>-181.8</ele>
        <time>2022-06-03T08:45:56Z</time>
      </trkpt>
      <trkpt lat="47.7910610" lon="7.5054010">
        <ele>-181.8</ele>
        <time>2022-06-03T08:46:00Z</time>
      </trkpt>
      <trkpt lat="47.7912330" lon="7.5053930">
        <ele>-181.8</ele>
        <time>2022-06-03T08:46:04Z</time>
      </trkpt>
      <trkpt lat="47.7913900" lon="7.5053300">
        <ele>-181.0</ele>
        <time>2022-06-03T08:46:08Z</time>
      </trkpt>
      <trkpt lat="47.7915260" lon="7.5052260">
        <ele>-180.8</ele>
        <time>2022-06-03T08:46:12Z</time>
      </trkpt>
      <trkpt lat="47.7916330" lon="7.5050780">
        <ele>-181.0</ele>
        <time>2022-06-03T08:46:16Z</time>
      </trkpt>
      <trkpt lat="47.7917160" lon="7.5049010">
        <ele>-181.0</ele>
        <time>2022-06-03T08:46:20Z</time>
      </trkpt>
      <trkpt lat="47.7918080" lon="7.5047350">
        <ele>-180.6</ele>
        <time>2022-06-03T08:46:24Z</time>
      </trkpt>
      <trkpt lat="47.7919050" lon="7.5045450">
        <ele>-180.0</ele>
        <time>2022-06-03T08:46:28Z</time>
      </trkpt>
      <trkpt lat="47.7920350" lon="7.5043610">
        <ele>-180.0</ele>
        <time>2022-06-03T08:46:32Z</time>
      </trkpt>
      <trkpt lat="47.7921750" lon="7.5042000">
        <ele>-180.0</ele>
        <time>2022-06-03T08:46:36Z</time>
      </trkpt>
      <trkpt lat="47.7923180" lon="7.5040680">
        <ele>-179.6</ele>
        <time>2022-06-03T08:46:40Z</time>
      </trkpt>
      <trkpt lat="47.7924680" lon="7.5039830">
        <ele>-179.4</ele>
        <time>2022-06-03T08:46:44Z</time>
      </trkpt>
      <trkpt lat="47.7926350" lon="7.5039600">
        <ele>-178.8</ele>
        <time>2022-06-03T08:46:48Z</time>
      </trkpt>
      <trkpt lat="47.7927960" lon="7.5039530">
        <ele>-178.8</ele>
        <time>2022-06-03T08:46:52Z</time>
      </trkpt>
      <trkpt lat="47.7929480" lon="7.5039610">
        <ele>-178.8</ele>
        <time>2022-06-03T08:46:56Z</time>
      </trkpt>
      <trkpt lat="47.7931030" lon="7.5039810">
        <ele>-179.2</ele>
        <time>2022-06-03T08:47:00Z</time>
      </trkpt>
      <trkpt lat="47.7932380" lon="7.5040860">
        <ele>-180.2</ele>
        <time>2022-06-03T08:47:04Z</time>
      </trkpt>
      <trkpt lat="47.7934410" lon="7.5041380">
        <ele>-180.6</ele>
        <time>2022-06-03T08:47:08Z</time>
      </trkpt>
      <trkpt lat="47.7936480" lon="7.5041700">
        <ele>-181.0</ele>
        <time>2022-06-03T08:47:12Z</time>
      </trkpt>
      <trkpt lat="47.7938530" lon="7.5042160">
        <ele>-181.0</ele>
        <time>2022-06-03T08:47:16Z</time>
      </trkpt>
      <trkpt lat="47.7940560" lon="7.5042600">
        <ele>-180.6</ele>
        <time>2022-06-03T08:47:20Z</time>
      </trkpt>
      <trkpt lat="47.7942580" lon="7.5042960">
        <ele>-181.0</ele>
        <time>2022-06-03T08:47:24Z</time>
      </trkpt>
      <trkpt lat="47.7944500" lon="7.5043500">
        <ele>-180.4</ele>
        <time>2022-06-03T08:47:28Z</time>
      </trkpt>
      <trkpt lat="47.7946230" lon="7.5044710">
        <ele>-181.4</ele>
        <time>2022-06-03T08:47:32Z</time>
      </trkpt>
      <trkpt lat="47.7948250" lon="7.5044850">
        <ele>-180.4</ele>
        <time>2022-06-03T08:47:36Z</time>
      </trkpt>
      <trkpt lat="47.7950160" lon="7.5045080">
        <ele>-180.4</ele>
        <time>2022-06-03T08:47:40Z</time>
      </trkpt>
      <trkpt lat="47.7952050" lon="7.5045410">
        <ele>-180.6</ele>
        <time>2022-06-03T08:47:44Z</time>
      </trkpt>
      <trkpt lat="47.7953980" lon="7.5045600">
        <ele>-180.4</ele>
        <time>2022-06-03T08:47:48Z</time>
      </trkpt>
      <trkpt lat="47.7955960" lon="7.5045810">
        <ele>-180.0</ele>
        <time>2022-06-03T08:47:52Z</time>
      </trkpt>
      <trkpt lat="47.7958000" lon="7.5046060">
        <ele>-180.4</ele>
        <time>2022-06-03T08:47:56Z</time>
      </trkpt>
      <trkpt lat="47.7960050" lon="7.5046400">
        <ele>-181.0</ele>
        <time>2022-06-03T08:48:00Z</time>
      </trkpt>
      <trkpt lat="47.7962130" lon="7.5046700">
        <ele>-180.8</ele>
        <time>2022-06-03T08:48:04Z</time>
      </trkpt>
      <trkpt lat="47.7964280" lon="7.5047010">
        <ele>-180.8</ele>
        <time>2022-06-03T08:48:08Z</time>
      </trkpt>
      <trkpt lat="47.7966430" lon="7.5047330">
        <ele>-181.2</ele>
        <time>2022-06-03T08:48:12Z</time>
      </trkpt>
      <trkpt lat="47.7968600" lon="7.5047660">
        <ele>-181.4</ele>
        <time>2022-06-03T08:48:16Z</time>
      </trkpt>
      <trkpt lat="47.7970710" lon="7.5048100">
        <ele>-181.6</ele>
        <time>2022-06-03T08:48:20Z</time>
      </trkpt>
      <trkpt lat="47.7972760" lon="7.5048550">
        <ele>-181.8</ele>
        <time>2022-06-03T08:48:24Z</time>
      </trkpt>
      <trkpt lat="47.7974830" lon="7.5048980">
        <ele>-182.2</ele>
        <time>2022-06-03T08:48:28Z</time>
      </trkpt>
      <trkpt lat="47.7976900" lon="7.5049360">
        <ele>-182.2</ele>
        <time>2022-06-03T08:48:32Z</time>
      </trkpt>
      <trkpt lat="47.7978960" lon="7.5049750">
        <ele>-181.6</ele>
        <time>2022-06-03T08:48:36Z</time>
      </trkpt>
      <trkpt lat="47.7981060" lon="7.5050100">
        <ele>-182.2</ele>
        <time>2022-06-03T08:48:40Z</time>
      </trkpt>
      <trkpt lat="47.7983150" lon="7.5050350">
        <ele>-182.2</ele>
        <time>2022-06-03T08:48:44Z</time>
      </trkpt>
      <trkpt lat="47.7985210" lon="7.5050700">
        <ele>-182.2</ele>
        <time>2022-06-03T08:48:48Z</time>
      </trkpt>
      <trkpt lat="47.7987260" lon="7.5050980">
        <ele>-182.4</ele>
        <time>2022-06-03T08:48:52Z</time>
      </trkpt>
      <trkpt lat="47.7989300" lon="7.5051280">
        <ele>-182.2</ele>
        <time>2022-06-03T08:48:56Z</time>
      </trkpt>
      <trkpt lat="47.7991310" lon="7.5051530">
        <ele>-182.2</ele>
        <time>2022-06-03T08:49:00Z</time>
      </trkpt>
      <trkpt lat="47.7993250" lon="7.5051810">
        <ele>-182.4</ele>
        <time>2022-06-03T08:49:04Z</time>
      </trkpt>
      <trkpt lat="47.7995100" lon="7.5051900">
        <ele>-182.4</ele>
        <time>2022-06-03T08:49:08Z</time>
      </trkpt>
      <trkpt lat="47.7996950" lon="7.5052080">
        <ele>-182.6</ele>
        <time>2022-06-03T08:49:12Z</time>
      </trkpt>
      <trkpt lat="47.7998650" lon="7.5052350">
        <ele>-182.8</ele>
        <time>2022-06-03T08:49:16Z</time>
      </trkpt>
      <trkpt lat="47.8000580" lon="7.5052550">
        <ele>-182.8</ele>
        <time>2022-06-03T08:49:20Z</time>
      </trkpt>
      <trkpt lat="47.8002600" lon="7.5052750">
        <ele>-182.2</ele>
        <time>2022-06-03T08:49:24Z</time>
      </trkpt>
      <trkpt lat="47.8004610" lon="7.5052900">
        <ele>-182.8</ele>
        <time>2022-06-03T08:49:28Z</time>
      </trkpt>
      <trkpt lat="47.8006550" lon="7.5053080">
        <ele>-182.4</ele>
        <time>2022-06-03T08:49:32Z</time>
      </trkpt>
      <trkpt lat="47.8008430" lon="7.5053280">
        <ele>-182.8</ele>
        <time>2022-06-03T08:49:36Z</time>
      </trkpt>
      <trkpt lat="47.8010330" lon="7.5053430">
        <ele>-183.2</ele>
        <time>2022-06-03T08:49:40Z</time>
      </trkpt>
      <trkpt lat="47.8012260" lon="7.5053650">
        <ele>-183.2</ele>
        <time>2022-06-03T08:49:44Z</time>
      </trkpt>
      <trkpt lat="47.8014180" lon="7.5053880">
        <ele>-183.6</ele>
        <time>2022-06-03T08:49:48Z</time>
      </trkpt>
      <trkpt lat="47.8016130" lon="7.5054080">
        <ele>-183.4</ele>
        <time>2022-06-03T08:49:52Z</time>
      </trkpt>
      <trkpt lat="47.8018110" lon="7.5054310">
        <ele>-184.0</ele>
        <time>2022-06-03T08:49:56Z</time>
      </trkpt>
      <trkpt lat="47.8020110" lon="7.5054630">
        <ele>-184.0</ele>
        <time>2022-06-03T08:50:00Z</time>
      </trkpt>
      <trkpt lat="47.8022100" lon="7.5054930">
        <ele>-184.6</ele>
        <time>2022-06-03T08:50:04Z</time>
      </trkpt>
      <trkpt lat="47.8023910" lon="7.5055280">
        <ele>-184.0</ele>
        <time>2022-06-03T08:50:08Z</time>
      </trkpt>
      <trkpt lat="47.8025680" lon="7.5055350">
        <ele>-184.8</ele>
        <time>2022-06-03T08:50:12Z</time>
      </trkpt>
      <trkpt lat="47.8027430" lon="7.5055600">
        <ele>-184.6</ele>
        <time>2022-06-03T08:50:16Z</time>
      </trkpt>
      <trkpt lat="47.8029380" lon="7.5055780">
        <ele>-184.6</ele>
        <time>2022-06-03T08:50:20Z</time>
      </trkpt>
      <trkpt lat="47.8031310" lon="7.5056030">
        <ele>-184.4</ele>
        <time>2022-06-03T08:50:24Z</time>
      </trkpt>
      <trkpt lat="47.8033250" lon="7.5056310">
        <ele>-184.0</ele>
        <time>2022-06-03T08:50:28Z</time>
      </trkpt>
      <trkpt lat="47.8035180" lon="7.5056600">
        <ele>-183.8</ele>
        <time>2022-06-03T08:50:32Z</time>
      </trkpt>
      <trkpt lat="47.8037110" lon="7.5056850">
        <ele>-184.6</ele>
        <time>2022-06-03T08:50:36Z</time>
      </trkpt>
      <trkpt lat="47.8039050" lon="7.5057050">
        <ele>-183.8</ele>
        <time>2022-06-03T08:50:40Z</time>
      </trkpt>
      <trkpt lat="47.8040850" lon="7.5057300">
        <ele>-184.0</ele>
        <time>2022-06-03T08:50:44Z</time>
      </trkpt>
      <trkpt lat="47.8042600" lon="7.5057560">
        <ele>-184.0</ele>
        <time>2022-06-03T08:50:48Z</time>
      </trkpt>
      <trkpt lat="47.8044360" lon="7.5057800">
        <ele>-184.2</ele>
        <time>2022-06-03T08:50:52Z</time>
      </trkpt>
      <trkpt lat="47.8045960" lon="7.5057930">
        <ele>-184.8</ele>
        <time>2022-06-03T08:50:56Z</time>
      </trkpt>
      <trkpt lat="47.8047810" lon="7.5058080">
        <ele>-184.8</ele>
        <time>2022-06-03T08:51:00Z</time>
      </trkpt>
      <trkpt lat="47.8049900" lon="7.5058250">
        <ele>-185.2</ele>
        <time>2022-06-03T08:51:04Z</time>
      </trkpt>
      <trkpt lat="47.8051950" lon="7.5058310">
        <ele>-185.2</ele>
        <time>2022-06-03T08:51:08Z</time>
      </trkpt>
      <trkpt lat="47.8053960" lon="7.5058360">
        <ele>-185.2</ele>
        <time>2022-06-03T08:51:12Z</time>
      </trkpt>
      <trkpt lat="47.8055950" lon="7.5058410">
        <ele>-185.0</ele>
        <time>2022-06-03T08:51:16Z</time>
      </trkpt>
      <trkpt lat="47.8057880" lon="7.5058480">
        <ele>-185.2</ele>
        <time>2022-06-03T08:51:20Z</time>
      </trkpt>
      <trkpt lat="47.8059860" lon="7.5058530">
        <ele>-185.6</ele>
        <time>2022-06-03T08:51:24Z</time>
      </trkpt>
      <trkpt lat="47.8061800" lon="7.5058610">
        <ele>-185.4</ele>
        <time>2022-06-03T08:51:28Z</time>
      </trkpt>
      <trkpt lat="47.8063710" lon="7.5058660">
        <ele>-185.4</ele>
        <time>2022-06-03T08:51:32Z</time>
      </trkpt>
      <trkpt lat="47.8065600" lon="7.5058800">
        <ele>-185.6</ele>
        <time>2022-06-03T08:51:36Z</time>
      </trkpt>
      <trkpt lat="47.8067460" lon="7.5058950">
        <ele>-185.6</ele>
        <time>2022-06-03T08:51:40Z</time>
      </trkpt>
      <trkpt lat="47.8069360" lon="7.5059200">
        <ele>-185.4</ele>
        <time>2022-06-03T08:51:44Z</time>
      </trkpt>
      <trkpt lat="47.8071300" lon="7.5059460">
        <ele>-185.8</ele>
        <time>2022-06-03T08:51:48Z</time>
      </trkpt>
      <trkpt lat="47.8073250" lon="7.5059660">
        <ele>-185.4</ele>
        <time>2022-06-03T08:51:52Z</time>
      </trkpt>
      <trkpt lat="47.8075130" lon="7.5059630">
        <ele>-185.2</ele>
        <time>2022-06-03T08:51:56Z</time>
      </trkpt>
      <trkpt lat="47.8076710" lon="7.5059750">
        <ele>-185.2</ele>
        <time>2022-06-03T08:52:00Z</time>
      </trkpt>
      <trkpt lat="47.8078410" lon="7.5059900">
        <ele>-185.2</ele>
        <time>2022-06-03T08:52:04Z</time>
      </trkpt>
      <trkpt lat="47.8080310" lon="7.5060210">
        <ele>-185.4</ele>
        <time>2022-06-03T08:52:08Z</time>
      </trkpt>
      <trkpt lat="47.8082310" lon="7.5060410">
        <ele>-185.6</ele>
        <time>2022-06-03T08:52:12Z</time>
      </trkpt>
      <trkpt lat="47.8084310" lon="7.5060580">
        <ele>-186.0</ele>
        <time>2022-06-03T08:52:16Z</time>
      </trkpt>
      <trkpt lat="47.8086380" lon="7.5060650">
        <ele>-186.2</ele>
        <time>2022-06-03T08:52:20Z</time>
      </trkpt>
      <trkpt lat="47.8088350" lon="7.5060800">
        <ele>-186.6</ele>
        <time>2022-06-03T08:52:24Z</time>
      </trkpt>
      <trkpt lat="47.8090200" lon="7.5060910">
        <ele>-186.6</ele>
        <time>2022-06-03T08:52:28Z</time>
      </trkpt>
      <trkpt lat="47.8092050" lon="7.5061010">
        <ele>-186.6</ele>
        <time>2022-06-03T08:52:32Z</time>
      </trkpt>
      <trkpt lat="47.8093730" lon="7.5061030">
        <ele>-187.0</ele>
        <time>2022-06-03T08:52:36Z</time>
      </trkpt>
      <trkpt lat="47.8095260" lon="7.5061060">
        <ele>-186.6</ele>
        <time>2022-06-03T08:52:40Z</time>
      </trkpt>
      <trkpt lat="47.8096850" lon="7.5061160">
        <ele>-187.0</ele>
        <time>2022-06-03T08:52:44Z</time>
      </trkpt>
      <trkpt lat="47.8098460" lon="7.5061160">
        <ele>-186.4</ele>
        <time>2022-06-03T08:52:48Z</time>
      </trkpt>
      <trkpt lat="47.8100030" lon="7.5061300">
        <ele>-186.8</ele>
        <time>2022-06-03T08:52:52Z</time>
      </trkpt>
      <trkpt lat="47.8101810" lon="7.5061460">
        <ele>-187.0</ele>
        <time>2022-06-03T08:52:56Z</time>
      </trkpt>
      <trkpt lat="47.8103660" lon="7.5061580">
        <ele>-187.4</ele>
        <time>2022-06-03T08:53:00Z</time>
      </trkpt>
      <trkpt lat="47.8105460" lon="7.5061510">
        <ele>-186.8</ele>
        <time>2022-06-03T08:53:04Z</time>
      </trkpt>
      <trkpt lat="47.8107130" lon="7.5061510">
        <ele>-187.0</ele>
        <time>2022-06-03T08:53:08Z</time>
      </trkpt>
      <trkpt lat="47.8108850" lon="7.5061660">
        <ele>-187.4</ele>
        <time>2022-06-03T08:53:12Z</time>
      </trkpt>
      <trkpt lat="47.8110680" lon="7.5061730">
        <ele>-187.0</ele>
        <time>2022-06-03T08:53:16Z</time>
      </trkpt>
      <trkpt lat="47.8112560" lon="7.5061580">
        <ele>-187.0</ele>
        <time>2022-06-03T08:53:20Z</time>
      </trkpt>
      <trkpt lat="47.8114500" lon="7.5061610">
        <ele>-187.4</ele>
        <time>2022-06-03T08:53:24Z</time>
      </trkpt>
      <trkpt lat="47.8116460" lon="7.5061530">
        <ele>-188.0</ele>
        <time>2022-06-03T08:53:28Z</time>
      </trkpt>
      <trkpt lat="47.8118330" lon="7.5061410">
        <ele>-187.4</ele>
        <time>2022-06-03T08:53:32Z</time>
      </trkpt>
      <trkpt lat="47.8120200" lon="7.5061230">
        <ele>-187.4</ele>
        <time>2022-06-03T08:53:36Z</time>
      </trkpt>
      <trkpt lat="47.8122010" lon="7.5061130">
        <ele>-187.8</ele>
        <time>2022-06-03T08:53:40Z</time>
      </trkpt>
      <trkpt lat="47.8123950" lon="7.5061180">
        <ele>-187.2</ele>
        <time>2022-06-03T08:53:44Z</time>
      </trkpt>
      <trkpt lat="47.8125880" lon="7.5061330">
        <ele>-187.8</ele>
        <time>2022-06-03T08:53:48Z</time>
      </trkpt>
      <trkpt lat="47.8127830" lon="7.5061460">
        <ele>-187.6</ele>
        <time>2022-06-03T08:53:52Z</time>
      </trkpt>
      <trkpt lat="47.8129750" lon="7.5061610">
        <ele>-187.6</ele>
        <time>2022-06-03T08:53:56Z</time>
      </trkpt>
      <trkpt lat="47.8131680" lon="7.5061760">
        <ele>-187.6</ele>
        <time>2022-06-03T08:54:00Z</time>
      </trkpt>
      <trkpt lat="47.8133610" lon="7.5061780">
        <ele>-187.8</ele>
        <time>2022-06-03T08:54:04Z</time>
      </trkpt>
      <trkpt lat="47.8135510" lon="7.5061780">
        <ele>-187.8</ele>
        <time>2022-06-03T08:54:08Z</time>
      </trkpt>
      <trkpt lat="47.8137430" lon="7.5062060">
        <ele>-187.6</ele>
        <time>2022-06-03T08:54:12Z</time>
      </trkpt>
      <trkpt lat="47.8139100" lon="7.5063280">
        <ele>-187.6</ele>
        <time>2022-06-03T08:54:16Z</time>
      </trkpt>
      <trkpt lat="47.8140780" lon="7.5062360">
        <ele>-187.6</ele>
        <time>2022-06-03T08:54:20Z</time>
      </trkpt>
      <trkpt lat="47.8142430" lon="7.5061700">
        <ele>-187.4</ele>
        <time>2022-06-03T08:54:24Z</time>
      </trkpt>
      <trkpt lat="47.8144130" lon="7.5062580">
        <ele>-188.0</ele>
        <time>2022-06-03T08:54:28Z</time>
      </trkpt>
      <trkpt lat="47.8146030" lon="7.5063260">
        <ele>-188.6</ele>
        <time>2022-06-03T08:54:32Z</time>
      </trkpt>
      <trkpt lat="47.8147960" lon="7.5063310">
        <ele>-188.0</ele>
        <time>2022-06-03T08:54:36Z</time>
      </trkpt>
      <trkpt lat="47.8149910" lon="7.5063460">
        <ele>-189.0</ele>
        <time>2022-06-03T08:54:40Z</time>
      </trkpt>
      <trkpt lat="47.8151860" lon="7.5063560">
        <ele>-188.4</ele>
        <time>2022-06-03T08:54:44Z</time>
      </trkpt>
      <trkpt lat="47.8153830" lon="7.5063750">
        <ele>-188.4</ele>
        <time>2022-06-03T08:54:48Z</time>
      </trkpt>
      <trkpt lat="47.8155830" lon="7.5063950">
        <ele>-188.8</ele>
        <time>2022-06-03T08:54:52Z</time>
      </trkpt>
      <trkpt lat="47.8157800" lon="7.5064110">
        <ele>-189.0</ele>
        <time>2022-06-03T08:54:56Z</time>
      </trkpt>
      <trkpt lat="47.8159760" lon="7.5064280">
        <ele>-188.2</ele>
        <time>2022-06-03T08:55:00Z</time>
      </trkpt>
      <trkpt lat="47.8161710" lon="7.5064500">
        <ele>-188.6</ele>
        <time>2022-06-03T08:55:04Z</time>
      </trkpt>
      <trkpt lat="47.8163630" lon="7.5064680">
        <ele>-188.2</ele>
        <time>2022-06-03T08:55:08Z</time>
      </trkpt>
      <trkpt lat="47.8165500" lon="7.5064880">
        <ele>-188.2</ele>
        <time>2022-06-03T08:55:12Z</time>
      </trkpt>
      <trkpt lat="47.8167360" lon="7.5065050">
        <ele>-188.4</ele>
        <time>2022-06-03T08:55:16Z</time>
      </trkpt>
      <trkpt lat="47.8169180" lon="7.5065180">
        <ele>-188.4</ele>
        <time>2022-06-03T08:55:20Z</time>
      </trkpt>
      <trkpt lat="47.8171050" lon="7.5065410">
        <ele>-188.8</ele>
        <time>2022-06-03T08:55:24Z</time>
      </trkpt>
      <trkpt lat="47.8172980" lon="7.5065510">
        <ele>-189.2</ele>
        <time>2022-06-03T08:55:28Z</time>
      </trkpt>
      <trkpt lat="47.8175000" lon="7.5065680">
        <ele>-189.4</ele>
        <time>2022-06-03T08:55:32Z</time>
      </trkpt>
      <trkpt lat="47.8177030" lon="7.5065730">
        <ele>-189.6</ele>
        <time>2022-06-03T08:55:36Z</time>
      </trkpt>
      <trkpt lat="47.8179100" lon="7.5065830">
        <ele>-189.2</ele>
        <time>2022-06-03T08:55:40Z</time>
      </trkpt>
      <trkpt lat="47.8181160" lon="7.5065930">
        <ele>-189.2</ele>
        <time>2022-06-03T08:55:44Z</time>
      </trkpt>
      <trkpt lat="47.8183160" lon="7.5066010">
        <ele>-189.2</ele>
        <time>2022-06-03T08:55:48Z</time>
      </trkpt>
      <trkpt lat="47.8185160" lon="7.5066250">
        <ele>-189.2</ele>
        <time>2022-06-03T08:55:52Z</time>
      </trkpt>
      <trkpt lat="47.8187130" lon="7.5066550">
        <ele>-189.4</ele>
        <time>2022-06-03T08:55:56Z</time>
      </trkpt>
      <trkpt lat="47.8189110" lon="7.5066830">
        <ele>-189.6</ele>
        <time>2022-06-03T08:56:00Z</time>
      </trkpt>
      <trkpt lat="47.8190950" lon="7.5067130">
        <ele>-190.2</ele>
        <time>2022-06-03T08:56:04Z</time>
      </trkpt>
      <trkpt lat="47.8192850" lon="7.5067430">
        <ele>-189.8</ele>
        <time>2022-06-03T08:56:08Z</time>
      </trkpt>
      <trkpt lat="47.8194850" lon="7.5067850">
        <ele>-189.8</ele>
        <time>2022-06-03T08:56:12Z</time>
      </trkpt>
      <trkpt lat="47.8196930" lon="7.5068200">
        <ele>-190.2</ele>
        <time>2022-06-03T08:56:16Z</time>
      </trkpt>
      <trkpt lat="47.8199010" lon="7.5068610">
        <ele>-190.4</ele>
        <time>2022-06-03T08:56:20Z</time>
      </trkpt>
      <trkpt lat="47.8201110" lon="7.5069000">
        <ele>-191.0</ele>
        <time>2022-06-03T08:56:24Z</time>
      </trkpt>
      <trkpt lat="47.8203160" lon="7.5069400">
        <ele>-190.4</ele>
        <time>2022-06-03T08:56:28Z</time>
      </trkpt>
      <trkpt lat="47.8205280" lon="7.5070030">
        <ele>-190.8</ele>
        <time>2022-06-03T08:56:32Z</time>
      </trkpt>
      <trkpt lat="47.8207360" lon="7.5071200">
        <ele>-191.0</ele>
        <time>2022-06-03T08:56:36Z</time>
      </trkpt>
      <trkpt lat="47.8209110" lon="7.5073010">
        <ele>-190.8</ele>
        <time>2022-06-03T08:56:40Z</time>
      </trkpt>
      <trkpt lat="47.8210660" lon="7.5075350">
        <ele>-190.8</ele>
        <time>2022-06-03T08:56:44Z</time>
      </trkpt>
      <trkpt lat="47.8212250" lon="7.5077710">
        <ele>-191.0</ele>
        <time>2022-06-03T08:56:48Z</time>
      </trkpt>
      <trkpt lat="47.8213800" lon="7.5080110">
        <ele>-191.2</ele>
        <time>2022-06-03T08:56:52Z</time>
      </trkpt>
      <trkpt lat="47.8215360" lon="7.5082580">
        <ele>-191.2</ele>
        <time>2022-06-03T08:56:56Z</time>
      </trkpt>
      <trkpt lat="47.8216960" lon="7.5085000">
        <ele>-191.8</ele>
        <time>2022-06-03T08:57:00Z</time>
      </trkpt>
      <trkpt lat="47.8218580" lon="7.5087310">
        <ele>-191.6</ele>
        <time>2022-06-03T08:57:04Z</time>
      </trkpt>
      <trkpt lat="47.8220150" lon="7.5089560">
        <ele>-191.6</ele>
        <time>2022-06-03T08:57:08Z</time>
      </trkpt>
      <trkpt lat="47.8221700" lon="7.5091810">
        <ele>-191.6</ele>
        <time>2022-06-03T08:57:12Z</time>
      </trkpt>
      <trkpt lat="47.8223230" lon="7.5094080">
        <ele>-192.0</ele>
        <time>2022-06-03T08:57:16Z</time>
      </trkpt>
      <trkpt lat="47.8224860" lon="7.5096430">
        <ele>-191.6</ele>
        <time>2022-06-03T08:57:20Z</time>
      </trkpt>
      <trkpt lat="47.8226480" lon="7.5098730">
        <ele>-192.0</ele>
        <time>2022-06-03T08:57:24Z</time>
      </trkpt>
      <trkpt lat="47.8228030" lon="7.5101100">
        <ele>-192.2</ele>
        <time>2022-06-03T08:57:28Z</time>
      </trkpt>
      <trkpt lat="47.8229550" lon="7.5103450">
        <ele>-192.0</ele>
        <time>2022-06-03T08:57:32Z</time>
      </trkpt>
      <trkpt lat="47.8231000" lon="7.5105760">
        <ele>-192.2</ele>
        <time>2022-06-03T08:57:36Z</time>
      </trkpt>
      <trkpt lat="47.8232550" lon="7.5108110">
        <ele>-192.0</ele>
        <time>2022-06-03T08:57:40Z</time>
      </trkpt>
      <trkpt lat="47.8234030" lon="7.5110680">
        <ele>-192.2</ele>
        <time>2022-06-03T08:57:44Z</time>
      </trkpt>
      <trkpt lat="47.8235510" lon="7.5113250">
        <ele>-192.4</ele>
        <time>2022-06-03T08:57:48Z</time>
      </trkpt>
      <trkpt lat="47.8236960" lon="7.5115910">
        <ele>-192.6</ele>
        <time>2022-06-03T08:57:52Z</time>
      </trkpt>
      <trkpt lat="47.8238300" lon="7.5118700">
        <ele>-193.4</ele>
        <time>2022-06-03T08:57:56Z</time>
      </trkpt>
      <trkpt lat="47.8239450" lon="7.5121580">
        <ele>-193.4</ele>
        <time>2022-06-03T08:58:00Z</time>
      </trkpt>
      <trkpt lat="47.8240300" lon="7.5124500">
        <ele>-193.4</ele>
        <time>2022-06-03T08:58:04Z</time>
      </trkpt>
      <trkpt lat="47.8241150" lon="7.5127480">
        <ele>-193.6</ele>
        <time>2022-06-03T08:58:08Z</time>
      </trkpt>
      <trkpt lat="47.8242060" lon="7.5130460">
        <ele>-192.8</ele>
        <time>2022-06-03T08:58:12Z</time>
      </trkpt>
      <trkpt lat="47.8242880" lon="7.5133510">
        <ele>-193.2</ele>
        <time>2022-06-03T08:58:16Z</time>
      </trkpt>
      <trkpt lat="47.8244030" lon="7.5136360">
        <ele>-193.4</ele>
        <time>2022-06-03T08:58:20Z</time>
      </trkpt>
      <trkpt lat="47.8245660" lon="7.5138800">
        <ele>-193.0</ele>
        <time>2022-06-03T08:58:24Z</time>
      </trkpt>
      <trkpt lat="47.8247380" lon="7.5140910">
        <ele>-192.8</ele>
        <time>2022-06-03T08:58:28Z</time>
      </trkpt>
      <trkpt lat="47.8249380" lon="7.5142260">
        <ele>-192.6</ele>
        <time>2022-06-03T08:58:32Z</time>
      </trkpt>
      <trkpt lat="47.8251560" lon="7.5142960">
        <ele>-192.4</ele>
        <time>2022-06-03T08:58:36Z</time>
      </trkpt>
      <trkpt lat="47.8253710" lon="7.5143680">
        <ele>-192.6</ele>
        <time>2022-06-03T08:58:40Z</time>
      </trkpt>
      <trkpt lat="47.8255710" lon="7.5144250">
        <ele>-192.6</ele>
        <time>2022-06-03T08:58:44Z</time>
      </trkpt>
      <trkpt lat="47.8257750" lon="7.5144850">
        <ele>-192.4</ele>
        <time>2022-06-03T08:58:48Z</time>
      </trkpt>
      <trkpt lat="47.8259750" lon="7.5145400">
        <ele>-192.6</ele>
        <time>2022-06-03T08:58:52Z</time>
      </trkpt>
      <trkpt lat="47.8261750" lon="7.5145760">
        <ele>-192.6</ele>
        <time>2022-06-03T08:58:56Z</time>
      </trkpt>
      <trkpt lat="47.8263810" lon="7.5146030">
        <ele>-192.8</ele>
        <time>2022-06-03T08:59:00Z</time>
      </trkpt>
      <trkpt lat="47.8265910" lon="7.5146280">
        <ele>-193.2</ele>
        <time>2022-06-03T08:59:04Z</time>
      </trkpt>
      <trkpt lat="47.8268000" lon="7.5146500">
        <ele>-192.2</ele>
        <time>2022-06-03T08:59:08Z</time>
      </trkpt>
      <trkpt lat="47.8270080" lon="7.5146700">
        <ele>-193.0</ele>
        <time>2022-06-03T08:59:12Z</time>
      </trkpt>
      <trkpt lat="47.8272180" lon="7.5146910">
        <ele>-192.6</ele>
        <time>2022-06-03T08:59:16Z</time>
      </trkpt>
      <trkpt lat="47.8274360" lon="7.5147150">
        <ele>-193.2</ele>
        <time>2022-06-03T08:59:20Z</time>
      </trkpt>
      <trkpt lat="47.8276500" lon="7.5147280">
        <ele>-193.4</ele>
        <time>2022-06-03T08:59:24Z</time>
      </trkpt>
      <trkpt lat="47.8278550" lon="7.5147430">
        <ele>-192.4</ele>
        <time>2022-06-03T08:59:28Z</time>
      </trkpt>
      <trkpt lat="47.8280600" lon="7.5147410">
        <ele>-192.8</ele>
        <time>2022-06-03T08:59:32Z</time>
      </trkpt>
      <trkpt lat="47.8282580" lon="7.5147160">
        <ele>-192.4</ele>
        <time>2022-06-03T08:59:36Z</time>
      </trkpt>
      <trkpt lat="47.8284630" lon="7.5147000">
        <ele>-192.4</ele>
        <time>2022-06-03T08:59:40Z</time>
      </trkpt>
      <trkpt lat="47.8286700" lon="7.5146430">
        <ele>-192.8</ele>
        <time>2022-06-03T08:59:44Z</time>
      </trkpt>
      <trkpt lat="47.8288710" lon="7.5145860">
        <ele>-192.6</ele>
        <time>2022-06-03T08:59:48Z</time>
      </trkpt>
      <trkpt lat="47.8290730" lon="7.5145250">
        <ele>-193.2</ele>
        <time>2022-06-03T08:59:52Z</time>
      </trkpt>
      <trkpt lat="47.8292760" lon="7.5144560">
        <ele>-193.0</ele>
        <time>2022-06-03T08:59:56Z</time>
      </trkpt>
      <trkpt lat="47.8294830" lon="7.5143980">
        <ele>-193.8</ele>
        <time>2022-06-03T09:00:00Z</time>
      </trkpt>
      <trkpt lat="47.8296880" lon="7.5143430">
        <ele>-193.0</ele>
        <time>2022-06-03T09:00:04Z</time>
      </trkpt>
      <trkpt lat="47.8298950" lon="7.5143150">
        <ele>-194.0</ele>
        <time>2022-06-03T09:00:08Z</time>
      </trkpt>
      <trkpt lat="47.8301050" lon="7.5142850">
        <ele>-193.2</ele>
        <time>2022-06-03T09:00:12Z</time>
      </trkpt>
      <trkpt lat="47.8303110" lon="7.5142660">
        <ele>-193.6</ele>
        <time>2022-06-03T09:00:16Z</time>
      </trkpt>
      <trkpt lat="47.8305250" lon="7.5142510">
        <ele>-193.6</ele>
        <time>2022-06-03T09:00:20Z</time>
      </trkpt>
      <trkpt lat="47.8307450" lon="7.5142410">
        <ele>-193.6</ele>
        <time>2022-06-03T09:00:24Z</time>
      </trkpt>
      <trkpt lat="47.8309700" lon="7.5142430">
        <ele>-194.4</ele>
        <time>2022-06-03T09:00:28Z</time>
      </trkpt>
      <trkpt lat="47.8311930" lon="7.5142600">
        <ele>-193.4</ele>
        <time>2022-06-03T09:00:32Z</time>
      </trkpt>
      <trkpt lat="47.8314110" lon="7.5142700">
        <ele>-194.0</ele>
        <time>2022-06-03T09:00:36Z</time>
      </trkpt>
      <trkpt lat="47.8316330" lon="7.5142850">
        <ele>-194.0</ele>
        <time>2022-06-03T09:00:40Z</time>
      </trkpt>
      <trkpt lat="47.8318380" lon="7.5143530">
        <ele>-194.0</ele>
        <time>2022-06-03T09:00:44Z</time>
      </trkpt>
      <trkpt lat="47.8319110" lon="7.5141250">
        <ele>-194.0</ele>
        <time>2022-06-03T09:00:48Z</time>
      </trkpt>
      <trkpt lat="47.8320730" lon="7.5140060">
        <ele>-195.6</ele>
        <time>2022-06-03T09:00:52Z</time>
      </trkpt>
      <trkpt lat="47.8322860" lon="7.5140960">
        <ele>-195.0</ele>
        <time>2022-06-03T09:00:56Z</time>
      </trkpt>
      <trkpt lat="47.8325100" lon="7.5140910">
        <ele>-195.0</ele>
        <time>2022-06-03T09:01:00Z</time>
      </trkpt>
      <trkpt lat="47.8327280" lon="7.5140450">
        <ele>-195.2</ele>
        <time>2022-06-03T09:01:04Z</time>
      </trkpt>
      <trkpt lat="47.8329460" lon="7.5139880">
        <ele>-194.2</ele>
        <time>2022-06-03T09:01:08Z</time>
      </trkpt>
      <trkpt lat="47.8331610" lon="7.5139150">
        <ele>-193.8</ele>
        <time>2022-06-03T09:01:12Z</time>
      </trkpt>
      <trkpt lat="47.8333760" lon="7.5138550">
        <ele>-193.8</ele>
        <time>2022-06-03T09:01:16Z</time>
      </trkpt>
      <trkpt lat="47.8335930" lon="7.5137800">
        <ele>-194.4</ele>
        <time>2022-06-03T09:01:20Z</time>
      </trkpt>
      <trkpt lat="47.8338060" lon="7.5137030">
        <ele>-195.2</ele>
        <time>2022-06-03T09:01:24Z</time>
      </trkpt>
      <trkpt lat="47.8340130" lon="7.5136300">
        <ele>-195.2</ele>
        <time>2022-06-03T09:01:28Z</time>
      </trkpt>
      <trkpt lat="47.8342210" lon="7.5135580">
        <ele>-195.4</ele>
        <time>2022-06-03T09:01:32Z</time>
      </trkpt>
      <trkpt lat="47.8344260" lon="7.5134830">
        <ele>-195.4</ele>
        <time>2022-06-03T09:01:36Z</time>
      </trkpt>
      <trkpt lat="47.8346230" lon="7.5134130">
        <ele>-195.2</ele>
        <time>2022-06-03T09:01:40Z</time>
      </trkpt>
      <trkpt lat="47.8348150" lon="7.5133500">
        <ele>-195.0</ele>
        <time>2022-06-03T09:01:44Z</time>
      </trkpt>
      <trkpt lat="47.8350050" lon="7.5132810">
        <ele>-195.0</ele>
        <time>2022-06-03T09:01:48Z</time>
      </trkpt>
      <trkpt lat="47.8351910" lon="7.5132150">
        <ele>-195.6</ele>
        <time>2022-06-03T09:01:52Z</time>
      </trkpt>
      <trkpt lat="47.8353800" lon="7.5131460">
        <ele>-195.6</ele>
        <time>2022-06-03T09:01:56Z</time>
      </trkpt>
      <trkpt lat="47.8355700" lon="7.5130900">
        <ele>-195.4</ele>
        <time>2022-06-03T09:02:00Z</time>
      </trkpt>
      <trkpt lat="47.8357560" lon="7.5130160">
        <ele>-195.2</ele>
        <time>2022-06-03T09:02:04Z</time>
      </trkpt>
      <trkpt lat="47.8359380" lon="7.5129600">
        <ele>-195.4</ele>
        <time>2022-06-03T09:02:08Z</time>
      </trkpt>
      <trkpt lat="47.8361200" lon="7.5129060">
        <ele>-195.6</ele>
        <time>2022-06-03T09:02:12Z</time>
      </trkpt>
      <trkpt lat="47.8362960" lon="7.5128600">
        <ele>-195.8</ele>
        <time>2022-06-03T09:02:16Z</time>
      </trkpt>
      <trkpt lat="47.8364810" lon="7.5128250">
        <ele>-195.8</ele>
        <time>2022-06-03T09:02:20Z</time>
      </trkpt>
      <trkpt lat="47.8366610" lon="7.5127880">
        <ele>-195.6</ele>
        <time>2022-06-03T09:02:24Z</time>
      </trkpt>
      <trkpt lat="47.8368480" lon="7.5127610">
        <ele>-196.0</ele>
        <time>2022-06-03T09:02:28Z</time>
      </trkpt>
      <trkpt lat="47.8370400" lon="7.5127550">
        <ele>-196.0</ele>
        <time>2022-06-03T09:02:32Z</time>
      </trkpt>
      <trkpt lat="47.8372330" lon="7.5127550">
        <ele>-195.6</ele>
        <time>2022-06-03T09:02:36Z</time>
      </trkpt>
      <trkpt lat="47.8374300" lon="7.5127660">
        <ele>-195.4</ele>
        <time>2022-06-03T09:02:40Z</time>
      </trkpt>
      <trkpt lat="47.8376280" lon="7.5127660">
        <ele>-195.6</ele>
        <time>2022-06-03T09:02:44Z</time>
      </trkpt>
      <trkpt lat="47.8378260" lon="7.5127710">
        <ele>-195.6</ele>
        <time>2022-06-03T09:02:48Z</time>
      </trkpt>
      <trkpt lat="47.8380200" lon="7.5127650">
        <ele>-196.0</ele>
        <time>2022-06-03T09:02:52Z</time>
      </trkpt>
      <trkpt lat="47.8382180" lon="7.5127700">
        <ele>-196.4</ele>
        <time>2022-06-03T09:02:56Z</time>
      </trkpt>
      <trkpt lat="47.8384160" lon="7.5127810">
        <ele>-195.8</ele>
        <time>2022-06-03T09:03:00Z</time>
      </trkpt>
      <trkpt lat="47.8386180" lon="7.5128010">
        <ele>-196.4</ele>
        <time>2022-06-03T09:03:04Z</time>
      </trkpt>
      <trkpt lat="47.8388180" lon="7.5128560">
        <ele>-195.8</ele>
        <time>2022-06-03T09:03:08Z</time>
      </trkpt>
      <trkpt lat="47.8390100" lon="7.5129530">
        <ele>-195.6</ele>
        <time>2022-06-03T09:03:12Z</time>
      </trkpt>
      <trkpt lat="47.8392010" lon="7.5130480">
        <ele>-195.8</ele>
        <time>2022-06-03T09:03:16Z</time>
      </trkpt>
      <trkpt lat="47.8393930" lon="7.5131480">
        <ele>-195.8</ele>
        <time>2022-06-03T09:03:20Z</time>
      </trkpt>
      <trkpt lat="47.8395830" lon="7.5132650">
        <ele>-195.6</ele>
        <time>2022-06-03T09:03:24Z</time>
      </trkpt>
      <trkpt lat="47.8397800" lon="7.5133860">
        <ele>-195.8</ele>
        <time>2022-06-03T09:03:28Z</time>
      </trkpt>
      <trkpt lat="47.8399800" lon="7.5135180">
        <ele>-195.2</ele>
        <time>2022-06-03T09:03:32Z</time>
      </trkpt>
      <trkpt lat="47.8401850" lon="7.5136730">
        <ele>-195.2</ele>
        <time>2022-06-03T09:03:36Z</time>
      </trkpt>
      <trkpt lat="47.8403730" lon="7.5138460">
        <ele>-195.0</ele>
        <time>2022-06-03T09:03:40Z</time>
      </trkpt>
      <trkpt lat="47.8405550" lon="7.5140180">
        <ele>-194.4</ele>
        <time>2022-06-03T09:03:44Z</time>
      </trkpt>
      <trkpt lat="47.8407330" lon="7.5141850">
        <ele>-194.4</ele>
        <time>2022-06-03T09:03:48Z</time>
      </trkpt>
      <trkpt lat="47.8409210" lon="7.5143610">
        <ele>-195.0</ele>
        <time>2022-06-03T09:03:52Z</time>
      </trkpt>
      <trkpt lat="47.8411460" lon="7.5144830">
        <ele>-195.6</ele>
        <time>2022-06-03T09:03:56Z</time>
      </trkpt>
      <trkpt lat="47.8413810" lon="7.5145710">
        <ele>-196.2</ele>
        <time>2022-06-03T09:04:00Z</time>
      </trkpt>
      <trkpt lat="47.8416030" lon="7.5146610">
        <ele>-195.6</ele>
        <time>2022-06-03T09:04:04Z</time>
      </trkpt>
      <trkpt lat="47.8418150" lon="7.5147350">
        <ele>-195.6</ele>
        <time>2022-06-03T09:04:08Z</time>
      </trkpt>
      <trkpt lat="47.8420110" lon="7.5147960">
        <ele>-195.0</ele>
        <time>2022-06-03T09:04:12Z</time>
      </trkpt>
      <trkpt lat="47.8422130" lon="7.5148560">
        <ele>-195.4</ele>
        <time>2022-06-03T09:04:16Z</time>
      </trkpt>
      <trkpt lat="47.8424150" lon="7.5149080">
        <ele>-195.2</ele>
        <time>2022-06-03T09:04:20Z</time>
      </trkpt>
      <trkpt lat="47.8426200" lon="7.5149680">
        <ele>-195.6</ele>
        <time>2022-06-03T09:04:24Z</time>
      </trkpt>
      <trkpt lat="47.8428300" lon="7.5150360">
        <ele>-195.4</ele>
        <time>2022-06-03T09:04:28Z</time>
      </trkpt>
      <trkpt lat="47.8430380" lon="7.5150980">
        <ele>-195.8</ele>
        <time>2022-06-03T09:04:32Z</time>
      </trkpt>
      <trkpt lat="47.8432450" lon="7.5151650">
        <ele>-195.4</ele>
        <time>2022-06-03T09:04:36Z</time>
      </trkpt>
      <trkpt lat="47.8434530" lon="7.5152330">
        <ele>-195.4</ele>
        <time>2022-06-03T09:04:40Z</time>
      </trkpt>
      <trkpt lat="47.8436650" lon="7.5152960">
        <ele>-195.6</ele>
        <time>2022-06-03T09:04:44Z</time>
      </trkpt>
      <trkpt lat="47.8438750" lon="7.5153730">
        <ele>-195.4</ele>
        <time>2022-06-03T09:04:48Z</time>
      </trkpt>
      <trkpt lat="47.8440910" lon="7.5154410">
        <ele>-195.6</ele>
        <time>2022-06-03T09:04:52Z</time>
      </trkpt>
      <trkpt lat="47.8443060" lon="7.5155080">
        <ele>-195.2</ele>
        <time>2022-06-03T09:04:56Z</time>
      </trkpt>
      <trkpt lat="47.8445180" lon="7.5155760">
        <ele>-195.2</ele>
        <time>2022-06-03T09:05:00Z</time>
      </trkpt>
      <trkpt lat="47.8447350" lon="7.5156480">
        <ele>-194.6</ele>
        <time>2022-06-03T09:05:04Z</time>
      </trkpt>
      <trkpt lat="47.8449460" lon="7.5157200">
        <ele>-194.4</ele>
        <time>2022-06-03T09:05:08Z</time>
      </trkpt>
      <trkpt lat="47.8451430" lon="7.5157860">
        <ele>-194.6</ele>
        <time>2022-06-03T09:05:12Z</time>
      </trkpt>
      <trkpt lat="47.8453150" lon="7.5158430">
        <ele>-195.0</ele>
        <time>2022-06-03T09:05:16Z</time>
      </trkpt>
      <trkpt lat="47.8454760" lon="7.5158930">
        <ele>-195.0</ele>
        <time>2022-06-03T09:05:20Z</time>
      </trkpt>
      <trkpt lat="47.8455980" lon="7.5159910">
        <ele>-194.8</ele>
        <time>2022-06-03T09:05:24Z</time>
      </trkpt>
      <trkpt lat="47.8457250" lon="7.5161030">
        <ele>-194.4</ele>
        <time>2022-06-03T09:05:28Z</time>
      </trkpt>
      <trkpt lat="47.8458810" lon="7.5162300">
        <ele>-195.4</ele>
        <time>2022-06-03T09:05:32Z</time>
      </trkpt>
      <trkpt lat="47.8460730" lon="7.5163050">
        <ele>-195.0</ele>
        <time>2022-06-03T09:05:36Z</time>
      </trkpt>
      <trkpt lat="47.8462560" lon="7.5163610">
        <ele>-194.4</ele>
        <time>2022-06-03T09:05:40Z</time>
      </trkpt>
      <trkpt lat="47.8464250" lon="7.5164060">
        <ele>-194.6</ele>
        <time>2022-06-03T09:05:44Z</time>
      </trkpt>
      <trkpt lat="47.8466030" lon="7.5164700">
        <ele>-195.0</ele>
        <time>2022-06-03T09:05:48Z</time>
      </trkpt>
      <trkpt lat="47.8467860" lon="7.5165410">
        <ele>-194.6</ele>
        <time>2022-06-03T09:05:52Z</time>
      </trkpt>
      <trkpt lat="47.8469660" lon="7.5166100">
        <ele>-195.0</ele>
        <time>2022-06-03T09:05:56Z</time>
      </trkpt>
      <trkpt lat="47.8471310" lon="7.5166760">
        <ele>-194.6</ele>
        <time>2022-06-03T09:06:00Z</time>
      </trkpt>
      <trkpt lat="47.8472850" lon="7.5167850">
        <ele>-194.6</ele>
        <time>2022-06-03T09:06:04Z</time>
      </trkpt>
      <trkpt lat="47.8474310" lon="7.5168910">
        <ele>-194.6</ele>
        <time>2022-06-03T09:06:08Z</time>
      </trkpt>
      <trkpt lat="47.8475930" lon="7.5169650">
        <ele>-195.2</ele>
        <time>2022-06-03T09:06:12Z</time>
      </trkpt>
      <trkpt lat="47.8477660" lon="7.5169400">
        <ele>-195.4</ele>
        <time>2022-06-03T09:06:16Z</time>
      </trkpt>
      <trkpt lat="47.8479560" lon="7.5169250">
        <ele>-195.0</ele>
        <time>2022-06-03T09:06:20Z</time>
      </trkpt>
      <trkpt lat="47.8481450" lon="7.5169760">
        <ele>-195.0</ele>
        <time>2022-06-03T09:06:24Z</time>
      </trkpt>
      <trkpt lat="47.8483280" lon="7.5170400">
        <ele>-195.0</ele>
        <time>2022-06-03T09:06:28Z</time>
      </trkpt>
      <trkpt lat="47.8485110" lon="7.5170950">
        <ele>-194.8</ele>
        <time>2022-06-03T09:06:32Z</time>
      </trkpt>
      <trkpt lat="47.8486780" lon="7.5171360">
        <ele>-195.0</ele>
        <time>2022-06-03T09:06:36Z</time>
      </trkpt>
      <trkpt lat="47.8488480" lon="7.5171880">
        <ele>-194.6</ele>
        <time>2022-06-03T09:06:40Z</time>
      </trkpt>
      <trkpt lat="47.8490200" lon="7.5172260">
        <ele>-194.8</ele>
        <time>2022-06-03T09:06:44Z</time>
      </trkpt>
      <trkpt lat="47.8491910" lon="7.5172780">
        <ele>-194.6</ele>
        <time>2022-06-03T09:06:48Z</time>
      </trkpt>
      <trkpt lat="47.8493660" lon="7.5173300">
        <ele>-194.6</ele>
        <time>2022-06-03T09:06:52Z</time>
      </trkpt>
      <trkpt lat="47.8495550" lon="7.5173930">
        <ele>-194.4</ele>
        <time>2022-06-03T09:06:56Z</time>
      </trkpt>
      <trkpt lat="47.8497230" lon="7.5174310">
        <ele>-194.6</ele>
        <time>2022-06-03T09:07:00Z</time>
      </trkpt>
      <trkpt lat="47.8498550" lon="7.5174300">
        <ele>-194.6</ele>
        <time>2022-06-03T09:07:04Z</time>
      </trkpt>
      <trkpt lat="47.8499750" lon="7.5173910">
        <ele>-193.6</ele>
        <time>2022-06-03T09:07:08Z</time>
      </trkpt>
      <trkpt lat="47.8501330" lon="7.5174110">
        <ele>-194.4</ele>
        <time>2022-06-03T09:07:12Z</time>
      </trkpt>
      <trkpt lat="47.8503110" lon="7.5174300">
        <ele>-194.4</ele>
        <time>2022-06-03T09:07:16Z</time>
      </trkpt>
      <trkpt lat="47.8505030" lon="7.5174500">
        <ele>-194.4</ele>
        <time>2022-06-03T09:07:20Z</time>
      </trkpt>
      <trkpt lat="47.8506910" lon="7.5174660">
        <ele>-195.0</ele>
        <time>2022-06-03T09:07:24Z</time>
      </trkpt>
      <trkpt lat="47.8508730" lon="7.5174810">
        <ele>-194.8</ele>
        <time>2022-06-03T09:07:28Z</time>
      </trkpt>
      <trkpt lat="47.8510580" lon="7.5174910">
        <ele>-194.6</ele>
        <time>2022-06-03T09:07:32Z</time>
      </trkpt>
      <trkpt lat="47.8512460" lon="7.5175060">
        <ele>-195.0</ele>
        <time>2022-06-03T09:07:36Z</time>
      </trkpt>
      <trkpt lat="47.8514380" lon="7.5175130">
        <ele>-195.0</ele>
        <time>2022-06-03T09:07:40Z</time>
      </trkpt>
      <trkpt lat="47.8516380" lon="7.5175250">
        <ele>-195.8</ele>
        <time>2022-06-03T09:07:44Z</time>
      </trkpt>
      <trkpt lat="47.8518380" lon="7.5175300">
        <ele>-195.6</ele>
        <time>2022-06-03T09:07:48Z</time>
      </trkpt>
      <trkpt lat="47.8520450" lon="7.5175410">
        <ele>-196.6</ele>
        <time>2022-06-03T09:07:52Z</time>
      </trkpt>
      <trkpt lat="47.8522330" lon="7.5175580">
        <ele>-196.6</ele>
        <time>2022-06-03T09:07:56Z</time>
      </trkpt>
      <trkpt lat="47.8524280" lon="7.5175680">
        <ele>-196.2</ele>
        <time>2022-06-03T09:08:00Z</time>
      </trkpt>
      <trkpt lat="47.8526160" lon="7.5175710">
        <ele>-195.8</ele>
        <time>2022-06-03T09:08:04Z</time>
      </trkpt>
      <trkpt lat="47.8528110" lon="7.5175780">
        <ele>-196.2</ele>
        <time>2022-06-03T09:08:08Z</time>
      </trkpt>
      <trkpt lat="47.8530080" lon="7.5176630">
        <ele>-197.0</ele>
        <time>2022-06-03T09:08:12Z</time>
      </trkpt>
      <trkpt lat="47.8532260" lon="7.5176760">
        <ele>-197.2</ele>
        <time>2022-06-03T09:08:16Z</time>
      </trkpt>
      <trkpt lat="47.8534400" lon="7.5176810">
        <ele>-196.8</ele>
        <time>2022-06-03T09:08:20Z</time>
      </trkpt>
      <trkpt lat="47.8536460" lon="7.5176930">
        <ele>-197.2</ele>
        <time>2022-06-03T09:08:24Z</time>
      </trkpt>
      <trkpt lat="47.8538500" lon="7.5177000">
        <ele>-197.0</ele>
        <time>2022-06-03T09:08:28Z</time>
      </trkpt>
      <trkpt lat="47.8540500" lon="7.5177010">
        <ele>-197.0</ele>
        <time>2022-06-03T09:08:32Z</time>
      </trkpt>
      <trkpt lat="47.8542330" lon="7.5176930">
        <ele>-197.2</ele>
        <time>2022-06-03T09:08:36Z</time>
      </trkpt>
      <trkpt lat="47.8544100" lon="7.5176900">
        <ele>-197.2</ele>
        <time>2022-06-03T09:08:40Z</time>
      </trkpt>
      <trkpt lat="47.8545910" lon="7.5176910">
        <ele>-197.4</ele>
        <time>2022-06-03T09:08:44Z</time>
      </trkpt>
      <trkpt lat="47.8547800" lon="7.5176850">
        <ele>-198.0</ele>
        <time>2022-06-03T09:08:48Z</time>
      </trkpt>
      <trkpt lat="47.8549760" lon="7.5176910">
        <ele>-198.4</ele>
        <time>2022-06-03T09:08:52Z</time>
      </trkpt>
      <trkpt lat="47.8551830" lon="7.5177050">
        <ele>-198.4</ele>
        <time>2022-06-03T09:08:56Z</time>
      </trkpt>
      <trkpt lat="47.8553780" lon="7.5177150">
        <ele>-197.6</ele>
        <time>2022-06-03T09:09:00Z</time>
      </trkpt>
      <trkpt lat="47.8555650" lon="7.5177480">
        <ele>-198.0</ele>
        <time>2022-06-03T09:09:04Z</time>
      </trkpt>
      <trkpt lat="47.8557610" lon="7.5177810">
        <ele>-198.0</ele>
        <time>2022-06-03T09:09:08Z</time>
      </trkpt>
      <trkpt lat="47.8559480" lon="7.5178150">
        <ele>-198.0</ele>
        <time>2022-06-03T09:09:12Z</time>
      </trkpt>
      <trkpt lat="47.8561400" lon="7.5178610">
        <ele>-198.2</ele>
        <time>2022-06-03T09:09:16Z</time>
      </trkpt>
      <trkpt lat="47.8563460" lon="7.5179130">
        <ele>-198.0</ele>
        <time>2022-06-03T09:09:20Z</time>
      </trkpt>
      <trkpt lat="47.8565510" lon="7.5179730">
        <ele>-198.2</ele>
        <time>2022-06-03T09:09:24Z</time>
      </trkpt>
      <trkpt lat="47.8567460" lon="7.5180330">
        <ele>-197.8</ele>
        <time>2022-06-03T09:09:28Z</time>
      </trkpt>
      <trkpt lat="47.8569350" lon="7.5181000">
        <ele>-197.8</ele>
        <time>2022-06-03T09:09:32Z</time>
      </trkpt>
      <trkpt lat="47.8571230" lon="7.5181810">
        <ele>-197.8</ele>
        <time>2022-06-03T09:09:36Z</time>
      </trkpt>
      <trkpt lat="47.8573160" lon="7.5182650">
        <ele>-198.0</ele>
        <time>2022-06-03T09:09:40Z</time>
      </trkpt>
      <trkpt lat="47.8575100" lon="7.5183460">
        <ele>-197.8</ele>
        <time>2022-06-03T09:09:44Z</time>
      </trkpt>
      <trkpt lat="47.8576930" lon="7.5184450">
        <ele>-197.4</ele>
        <time>2022-06-03T09:09:48Z</time>
      </trkpt>
      <trkpt lat="47.8578760" lon="7.5185410">
        <ele>-197.6</ele>
        <time>2022-06-03T09:09:52Z</time>
      </trkpt>
      <trkpt lat="47.8580480" lon="7.5186580">
        <ele>-197.4</ele>
        <time>2022-06-03T09:09:56Z</time>
      </trkpt>
      <trkpt lat="47.8582250" lon="7.5187900">
        <ele>-197.6</ele>
        <time>2022-06-03T09:10:00Z</time>
      </trkpt>
      <trkpt lat="47.8584060" lon="7.5189250">
        <ele>-197.6</ele>
        <time>2022-06-03T09:10:04Z</time>
      </trkpt>
      <trkpt lat="47.8585860" lon="7.5190600">
        <ele>-197.8</ele>
        <time>2022-06-03T09:10:08Z</time>
      </trkpt>
      <trkpt lat="47.8587630" lon="7.5191900">
        <ele>-197.4</ele>
        <time>2022-06-03T09:10:12Z</time>
      </trkpt>
      <trkpt lat="47.8589330" lon="7.5193150">
        <ele>-197.0</ele>
        <time>2022-06-03T09:10:16Z</time>
      </trkpt>
      <trkpt lat="47.8591250" lon="7.5194400">
        <ele>-197.4</ele>
        <time>2022-06-03T09:10:20Z</time>
      </trkpt>
      <trkpt lat="47.8593160" lon="7.5195610">
        <ele>-197.2</ele>
        <time>2022-06-03T09:10:24Z</time>
      </trkpt>
      <trkpt lat="47.8595150" lon="7.5196430">
        <ele>-197.6</ele>
        <time>2022-06-03T09:10:28Z</time>
      </trkpt>
      <trkpt lat="47.8597100" lon="7.5197200">
        <ele>-197.4</ele>
        <time>2022-06-03T09:10:32Z</time>
      </trkpt>
      <trkpt lat="47.8599110" lon="7.5197810">
        <ele>-197.6</ele>
        <time>2022-06-03T09:10:36Z</time>
      </trkpt>
      <trkpt lat="47.8601050" lon="7.5198380">
        <ele>-197.4</ele>
        <time>2022-06-03T09:10:40Z</time>
      </trkpt>
      <trkpt lat="47.8602900" lon="7.5198900">
        <ele>-197.6</ele>
        <time>2022-06-03T09:10:44Z</time>
      </trkpt>
      <trkpt lat="47.8604830" lon="7.5199450">
        <ele>-197.6</ele>
        <time>2022-06-03T09:10:48Z</time>
      </trkpt>
      <trkpt lat="47.8606830" lon="7.5200130">
        <ele>-197.6</ele>
        <time>2022-06-03T09:10:52Z</time>
      </trkpt>
      <trkpt lat="47.8608830" lon="7.5200950">
        <ele>-198.0</ele>
        <time>2022-06-03T09:10:56Z</time>
      </trkpt>
      <trkpt lat="47.8610830" lon="7.5201930">
        <ele>-197.8</ele>
        <time>2022-06-03T09:11:00Z</time>
      </trkpt>
      <trkpt lat="47.8612800" lon="7.5202910">
        <ele>-198.4</ele>
        <time>2022-06-03T09:11:04Z</time>
      </trkpt>
      <trkpt lat="47.8614780" lon="7.5203930">
        <ele>-198.2</ele>
        <time>2022-06-03T09:11:08Z</time>
      </trkpt>
      <trkpt lat="47.8616750" lon="7.5205050">
        <ele>-198.4</ele>
        <time>2022-06-03T09:11:12Z</time>
      </trkpt>
      <trkpt lat="47.8618760" lon="7.5206250">
        <ele>-198.0</ele>
        <time>2022-06-03T09:11:16Z</time>
      </trkpt>
      <trkpt lat="47.8620800" lon="7.5207600">
        <ele>-198.0</ele>
        <time>2022-06-03T09:11:20Z</time>
      </trkpt>
      <trkpt lat="47.8622680" lon="7.5208910">
        <ele>-198.0</ele>
        <time>2022-06-03T09:11:24Z</time>
      </trkpt>
      <trkpt lat="47.8624630" lon="7.5210300">
        <ele>-197.4</ele>
        <time>2022-06-03T09:11:28Z</time>
      </trkpt>
      <trkpt lat="47.8626450" lon="7.5211660">
        <ele>-197.8</ele>
        <time>2022-06-03T09:11:32Z</time>
      </trkpt>
      <trkpt lat="47.8628200" lon="7.5212960">
        <ele>-197.2</ele>
        <time>2022-06-03T09:11:36Z</time>
      </trkpt>
      <trkpt lat="47.8630150" lon="7.5214360">
        <ele>-197.6</ele>
        <time>2022-06-03T09:11:40Z</time>
      </trkpt>
      <trkpt lat="47.8632080" lon="7.5215710">
        <ele>-197.6</ele>
        <time>2022-06-03T09:11:44Z</time>
      </trkpt>
      <trkpt lat="47.8633960" lon="7.5216980">
        <ele>-198.0</ele>
        <time>2022-06-03T09:11:48Z</time>
      </trkpt>
      <trkpt lat="47.8635800" lon="7.5218150">
        <ele>-197.6</ele>
        <time>2022-06-03T09:11:52Z</time>
      </trkpt>
      <trkpt lat="47.8637810" lon="7.5219010">
        <ele>-198.2</ele>
        <time>2022-06-03T09:11:56Z</time>
      </trkpt>
      <trkpt lat="47.8639910" lon="7.5219880">
        <ele>-199.0</ele>
        <time>2022-06-03T09:12:00Z</time>
      </trkpt>
      <trkpt lat="47.8642130" lon="7.5220500">
        <ele>-199.0</ele>
        <time>2022-06-03T09:12:04Z</time>
      </trkpt>
      <trkpt lat="47.8644310" lon="7.5220880">
        <ele>-198.4</ele>
        <time>2022-06-03T09:12:08Z</time>
      </trkpt>
      <trkpt lat="47.8646450" lon="7.5221060">
        <ele>-199.0</ele>
        <time>2022-06-03T09:12:12Z</time>
      </trkpt>
      <trkpt lat="47.8648610" lon="7.5221050">
        <ele>-199.0</ele>
        <time>2022-06-03T09:12:16Z</time>
      </trkpt>
      <trkpt lat="47.8650800" lon="7.5220810">
        <ele>-199.4</ele>
        <time>2022-06-03T09:12:20Z</time>
      </trkpt>
      <trkpt lat="47.8652880" lon="7.5220450">
        <ele>-199.2</ele>
        <time>2022-06-03T09:12:24Z</time>
      </trkpt>
      <trkpt lat="47.8654980" lon="7.5219960">
        <ele>-200.2</ele>
        <time>2022-06-03T09:12:28Z</time>
      </trkpt>
      <trkpt lat="47.8657010" lon="7.5219450">
        <ele>-199.6</ele>
        <time>2022-06-03T09:12:32Z</time>
      </trkpt>
      <trkpt lat="47.8658930" lon="7.5218930">
        <ele>-199.4</ele>
        <time>2022-06-03T09:12:36Z</time>
      </trkpt>
      <trkpt lat="47.8660760" lon="7.5218480">
        <ele>-198.8</ele>
        <time>2022-06-03T09:12:40Z</time>
      </trkpt>
      <trkpt lat="47.8662550" lon="7.5218030">
        <ele>-199.0</ele>
        <time>2022-06-03T09:12:44Z</time>
      </trkpt>
      <trkpt lat="47.8664510" lon="7.5217780">
        <ele>-198.4</ele>
        <time>2022-06-03T09:12:48Z</time>
      </trkpt>
      <trkpt lat="47.8666450" lon="7.5217610">
        <ele>-198.4</ele>
        <time>2022-06-03T09:12:52Z</time>
      </trkpt>
      <trkpt lat="47.8668400" lon="7.5217600">
        <ele>-198.2</ele>
        <time>2022-06-03T09:12:56Z</time>
      </trkpt>
      <trkpt lat="47.8670280" lon="7.5217710">
        <ele>-198.0</ele>
        <time>2022-06-03T09:13:00Z</time>
      </trkpt>
      <trkpt lat="47.8672380" lon="7.5218080">
        <ele>-198.4</ele>
        <time>2022-06-03T09:13:04Z</time>
      </trkpt>
      <trkpt lat="47.8674600" lon="7.5218460">
        <ele>-198.6</ele>
        <time>2022-06-03T09:13:08Z</time>
      </trkpt>
      <trkpt lat="47.8676830" lon="7.5218850">
        <ele>-199.4</ele>
        <time>2022-06-03T09:13:12Z</time>
      </trkpt>
      <trkpt lat="47.8679210" lon="7.5219280">
        <ele>-199.8</ele>
        <time>2022-06-03T09:13:16Z</time>
      </trkpt>
      <trkpt lat="47.8681480" lon="7.5219830">
        <ele>-199.4</ele>
        <time>2022-06-03T09:13:20Z</time>
      </trkpt>
      <trkpt lat="47.8683650" lon="7.5220360">
        <ele>-198.2</ele>
        <time>2022-06-03T09:13:24Z</time>
      </trkpt>
      <trkpt lat="47.8685780" lon="7.5221200">
        <ele>-199.0</ele>
        <time>2022-06-03T09:13:28Z</time>
      </trkpt>
      <trkpt lat="47.8687980" lon="7.5222130">
        <ele>-199.0</ele>
        <time>2022-06-03T09:13:32Z</time>
      </trkpt>
      <trkpt lat="47.8690160" lon="7.5223100">
        <ele>-199.0</ele>
        <time>2022-06-03T09:13:36Z</time>
      </trkpt>
      <trkpt lat="47.8692330" lon="7.5224000">
        <ele>-199.6</ele>
        <time>2022-06-03T09:13:40Z</time>
      </trkpt>
      <trkpt lat="47.8694480" lon="7.5225080">
        <ele>-199.6</ele>
        <time>2022-06-03T09:13:44Z</time>
      </trkpt>
      <trkpt lat="47.8696610" lon="7.5226130">
        <ele>-199.4</ele>
        <time>2022-06-03T09:13:48Z</time>
      </trkpt>
      <trkpt lat="47.8698700" lon="7.5227210">
        <ele>-199.6</ele>
        <time>2022-06-03T09:13:52Z</time>
      </trkpt>
      <trkpt lat="47.8700760" lon="7.5228160">
        <ele>-199.2</ele>
        <time>2022-06-03T09:13:56Z</time>
      </trkpt>
      <trkpt lat="47.8702750" lon="7.5229110">
        <ele>-199.2</ele>
        <time>2022-06-03T09:14:00Z</time>
      </trkpt>
      <trkpt lat="47.8704650" lon="7.5230100">
        <ele>-199.0</ele>
        <time>2022-06-03T09:14:04Z</time>
      </trkpt>
      <trkpt lat="47.8706510" lon="7.5231130">
        <ele>-198.8</ele>
        <time>2022-06-03T09:14:08Z</time>
      </trkpt>
      <trkpt lat="47.8708360" lon="7.5232060">
        <ele>-198.4</ele>
        <time>2022-06-03T09:14:12Z</time>
      </trkpt>
      <trkpt lat="47.8710180" lon="7.5232980">
        <ele>-198.8</ele>
        <time>2022-06-03T09:14:16Z</time>
      </trkpt>
      <trkpt lat="47.8712010" lon="7.5233760">
        <ele>-198.2</ele>
        <time>2022-06-03T09:14:20Z</time>
      </trkpt>
      <trkpt lat="47.8713800" lon="7.5234750">
        <ele>-198.6</ele>
        <time>2022-06-03T09:14:24Z</time>
      </trkpt>
      <trkpt lat="47.8715610" lon="7.5235680">
        <ele>-198.0</ele>
        <time>2022-06-03T09:14:28Z</time>
      </trkpt>
      <trkpt lat="47.8717480" lon="7.5236600">
        <ele>-198.8</ele>
        <time>2022-06-03T09:14:32Z</time>
      </trkpt>
      <trkpt lat="47.8719250" lon="7.5237530">
        <ele>-198.6</ele>
        <time>2022-06-03T09:14:36Z</time>
      </trkpt>
      <trkpt lat="47.8721160" lon="7.5238530">
        <ele>-199.0</ele>
        <time>2022-06-03T09:14:40Z</time>
      </trkpt>
      <trkpt lat="47.8723030" lon="7.5239460">
        <ele>-198.4</ele>
        <time>2022-06-03T09:14:44Z</time>
      </trkpt>
      <trkpt lat="47.8724850" lon="7.5240310">
        <ele>-198.0</ele>
        <time>2022-06-03T09:14:48Z</time>
      </trkpt>
      <trkpt lat="47.8726610" lon="7.5241380">
        <ele>-198.6</ele>
        <time>2022-06-03T09:14:52Z</time>
      </trkpt>
      <trkpt lat="47.8728330" lon="7.5242760">
        <ele>-199.0</ele>
        <time>2022-06-03T09:14:56Z</time>
      </trkpt>
      <trkpt lat="47.8730060" lon="7.5244050">
        <ele>-198.6</ele>
        <time>2022-06-03T09:15:00Z</time>
      </trkpt>
      <trkpt lat="47.8731700" lon="7.5245250">
        <ele>-199.2</ele>
        <time>2022-06-03T09:15:04Z</time>
      </trkpt>
      <trkpt lat="47.8733360" lon="7.5246460">
        <ele>-199.6</ele>
        <time>2022-06-03T09:15:08Z</time>
      </trkpt>
      <trkpt lat="47.8734900" lon="7.5247760">
        <ele>-199.2</ele>
        <time>2022-06-03T09:15:12Z</time>
      </trkpt>
      <trkpt lat="47.8736550" lon="7.5249050">
        <ele>-199.0</ele>
        <time>2022-06-03T09:15:16Z</time>
      </trkpt>
      <trkpt lat="47.8738400" lon="7.5250380">
        <ele>-199.2</ele>
        <time>2022-06-03T09:15:20Z</time>
      </trkpt>
      <trkpt lat="47.8740260" lon="7.5251750">
        <ele>-199.6</ele>
        <time>2022-06-03T09:15:24Z</time>
      </trkpt>
      <trkpt lat="47.8742210" lon="7.5253210">
        <ele>-199.6</ele>
        <time>2022-06-03T09:15:28Z</time>
      </trkpt>
      <trkpt lat="47.8744110" lon="7.5254760">
        <ele>-198.6</ele>
        <time>2022-06-03T09:15:32Z</time>
      </trkpt>
      <trkpt lat="47.8746030" lon="7.5256130">
        <ele>-198.4</ele>
        <time>2022-06-03T09:15:36Z</time>
      </trkpt>
      <trkpt lat="47.8748000" lon="7.5257660">
        <ele>-200.0</ele>
        <time>2022-06-03T09:15:40Z</time>
      </trkpt>
      <trkpt lat="47.8749950" lon="7.5259130">
        <ele>-199.6</ele>
        <time>2022-06-03T09:15:44Z</time>
      </trkpt>
      <trkpt lat="47.8751750" lon="7.5260500">
        <ele>-199.0</ele>
        <time>2022-06-03T09:15:48Z</time>
      </trkpt>
      <trkpt lat="47.8753530" lon="7.5261900">
        <ele>-199.0</ele>
        <time>2022-06-03T09:15:52Z</time>
      </trkpt>
      <trkpt lat="47.8755400" lon="7.5263260">
        <ele>-199.6</ele>
        <time>2022-06-03T09:15:56Z</time>
      </trkpt>
      <trkpt lat="47.8757280" lon="7.5264660">
        <ele>-199.4</ele>
        <time>2022-06-03T09:16:00Z</time>
      </trkpt>
      <trkpt lat="47.8759060" lon="7.5266010">
        <ele>-199.6</ele>
        <time>2022-06-03T09:16:04Z</time>
      </trkpt>
      <trkpt lat="47.8760930" lon="7.5267430">
        <ele>-199.6</ele>
        <time>2022-06-03T09:16:08Z</time>
      </trkpt>
      <trkpt lat="47.8762700" lon="7.5268800">
        <ele>-199.6</ele>
        <time>2022-06-03T09:16:12Z</time>
      </trkpt>
      <trkpt lat="47.8764560" lon="7.5270200">
        <ele>-199.8</ele>
        <time>2022-06-03T09:16:16Z</time>
      </trkpt>
      <trkpt lat="47.8766310" lon="7.5271510">
        <ele>-199.6</ele>
        <time>2022-06-03T09:16:20Z</time>
      </trkpt>
      <trkpt lat="47.8768200" lon="7.5272830">
        <ele>-199.6</ele>
        <time>2022-06-03T09:16:24Z</time>
      </trkpt>
      <trkpt lat="47.8770080" lon="7.5274080">
        <ele>-199.6</ele>
        <time>2022-06-03T09:16:28Z</time>
      </trkpt>
      <trkpt lat="47.8771960" lon="7.5275400">
        <ele>-199.0</ele>
        <time>2022-06-03T09:16:32Z</time>
      </trkpt>
      <trkpt lat="47.8773700" lon="7.5276710">
        <ele>-198.8</ele>
        <time>2022-06-03T09:16:36Z</time>
      </trkpt>
      <trkpt lat="47.8775410" lon="7.5278080">
        <ele>-198.4</ele>
        <time>2022-06-03T09:16:40Z</time>
      </trkpt>
      <trkpt lat="47.8777230" lon="7.5279300">
        <ele>-198.4</ele>
        <time>2022-06-03T09:16:44Z</time>
      </trkpt>
      <trkpt lat="47.8778950" lon="7.5280610">
        <ele>-199.0</ele>
        <time>2022-06-03T09:16:48Z</time>
      </trkpt>
      <trkpt lat="47.8780700" lon="7.5281910">
        <ele>-199.2</ele>
        <time>2022-06-03T09:16:52Z</time>
      </trkpt>
      <trkpt lat="47.8782510" lon="7.5283250">
        <ele>-200.0</ele>
        <time>2022-06-03T09:16:56Z</time>
      </trkpt>
      <trkpt lat="47.8784400" lon="7.5284550">
        <ele>-199.6</ele>
        <time>2022-06-03T09:17:00Z</time>
      </trkpt>
      <trkpt lat="47.8786380" lon="7.5285900">
        <ele>-200.2</ele>
        <time>2022-06-03T09:17:04Z</time>
      </trkpt>
      <trkpt lat="47.8788160" lon="7.5287160">
        <ele>-199.6</ele>
        <time>2022-06-03T09:17:08Z</time>
      </trkpt>
      <trkpt lat="47.8790010" lon="7.5288480">
        <ele>-200.2</ele>
        <time>2022-06-03T09:17:12Z</time>
      </trkpt>
      <trkpt lat="47.8791900" lon="7.5289800">
        <ele>-200.0</ele>
        <time>2022-06-03T09:17:16Z</time>
      </trkpt>
      <trkpt lat="47.8793680" lon="7.5291100">
        <ele>-199.8</ele>
        <time>2022-06-03T09:17:20Z</time>
      </trkpt>
      <trkpt lat="47.8795560" lon="7.5292430">
        <ele>-199.6</ele>
        <time>2022-06-03T09:17:24Z</time>
      </trkpt>
      <trkpt lat="47.8797410" lon="7.5293760">
        <ele>-201.0</ele>
        <time>2022-06-03T09:17:28Z</time>
      </trkpt>
      <trkpt lat="47.8799230" lon="7.5295110">
        <ele>-200.2</ele>
        <time>2022-06-03T09:17:32Z</time>
      </trkpt>
      <trkpt lat="47.8801130" lon="7.5296410">
        <ele>-200.4</ele>
        <time>2022-06-03T09:17:36Z</time>
      </trkpt>
      <trkpt lat="47.8803100" lon="7.5297830">
        <ele>-200.2</ele>
        <time>2022-06-03T09:17:40Z</time>
      </trkpt>
      <trkpt lat="47.8804950" lon="7.5299060">
        <ele>-200.6</ele>
        <time>2022-06-03T09:17:44Z</time>
      </trkpt>
      <trkpt lat="47.8806760" lon="7.5300300">
        <ele>-200.6</ele>
        <time>2022-06-03T09:17:48Z</time>
      </trkpt>
      <trkpt lat="47.8808660" lon="7.5301560">
        <ele>-200.8</ele>
        <time>2022-06-03T09:17:52Z</time>
      </trkpt>
      <trkpt lat="47.8810530" lon="7.5302710">
        <ele>-200.8</ele>
        <time>2022-06-03T09:17:56Z</time>
      </trkpt>
      <trkpt lat="47.8812310" lon="7.5304030">
        <ele>-201.8</ele>
        <time>2022-06-03T09:18:00Z</time>
      </trkpt>
      <trkpt lat="47.8813610" lon="7.5305730">
        <ele>-201.2</ele>
        <time>2022-06-03T09:18:04Z</time>
      </trkpt>
      <trkpt lat="47.8815180" lon="7.5306760">
        <ele>-200.8</ele>
        <time>2022-06-03T09:18:08Z</time>
      </trkpt>
      <trkpt lat="47.8816780" lon="7.5307550">
        <ele>-201.4</ele>
        <time>2022-06-03T09:18:12Z</time>
      </trkpt>
      <trkpt lat="47.8818510" lon="7.5307980">
        <ele>-201.0</ele>
        <time>2022-06-03T09:18:16Z</time>
      </trkpt>
      <trkpt lat="47.8820200" lon="7.5308530">
        <ele>-200.6</ele>
        <time>2022-06-03T09:18:20Z</time>
      </trkpt>
      <trkpt lat="47.8821830" lon="7.5309500">
        <ele>-200.2</ele>
        <time>2022-06-03T09:18:24Z</time>
      </trkpt>
      <trkpt lat="47.8823360" lon="7.5310830">
        <ele>-199.8</ele>
        <time>2022-06-03T09:18:28Z</time>
      </trkpt>
      <trkpt lat="47.8824910" lon="7.5312480">
        <ele>-200.4</ele>
        <time>2022-06-03T09:18:32Z</time>
      </trkpt>
      <trkpt lat="47.8826410" lon="7.5314360">
        <ele>-200.2</ele>
        <time>2022-06-03T09:18:36Z</time>
      </trkpt>
      <trkpt lat="47.8827830" lon="7.5316280">
        <ele>-200.6</ele>
        <time>2022-06-03T09:18:40Z</time>
      </trkpt>
      <trkpt lat="47.8829150" lon="7.5318260">
        <ele>-200.2</ele>
        <time>2022-06-03T09:18:44Z</time>
      </trkpt>
      <trkpt lat="47.8830380" lon="7.5320160">
        <ele>-200.2</ele>
        <time>2022-06-03T09:18:48Z</time>
      </trkpt>
      <trkpt lat="47.8831550" lon="7.5322210">
        <ele>-200.2</ele>
        <time>2022-06-03T09:18:52Z</time>
      </trkpt>
      <trkpt lat="47.8832660" lon="7.5324350">
        <ele>-200.2</ele>
        <time>2022-06-03T09:18:56Z</time>
      </trkpt>
      <trkpt lat="47.8833810" lon="7.5326500">
        <ele>-200.2</ele>
        <time>2022-06-03T09:19:00Z</time>
      </trkpt>
      <trkpt lat="47.8834850" lon="7.5328730">
        <ele>-199.8</ele>
        <time>2022-06-03T09:19:04Z</time>
      </trkpt>
      <trkpt lat="47.8835910" lon="7.5330900">
        <ele>-199.6</ele>
        <time>2022-06-03T09:19:08Z</time>
      </trkpt>
      <trkpt lat="47.8837160" lon="7.5333060">
        <ele>-200.0</ele>
        <time>2022-06-03T09:19:12Z</time>
      </trkpt>
      <trkpt lat="47.8838480" lon="7.5335160">
        <ele>-199.8</ele>
        <time>2022-06-03T09:19:16Z</time>
      </trkpt>
      <trkpt lat="47.8839960" lon="7.5337110">
        <ele>-199.8</ele>
        <time>2022-06-03T09:19:20Z</time>
      </trkpt>
      <trkpt lat="47.8841460" lon="7.5339030">
        <ele>-200.4</ele>
        <time>2022-06-03T09:19:24Z</time>
      </trkpt>
      <trkpt lat="47.8843100" lon="7.5340880">
        <ele>-199.6</ele>
        <time>2022-06-03T09:19:28Z</time>
      </trkpt>
      <trkpt lat="47.8844710" lon="7.5342380">
        <ele>-200.8</ele>
        <time>2022-06-03T09:19:32Z</time>
      </trkpt>
      <trkpt lat="47.8846280" lon="7.5344000">
        <ele>-200.4</ele>
        <time>2022-06-03T09:19:36Z</time>
      </trkpt>
      <trkpt lat="47.8847910" lon="7.5345450">
        <ele>-199.6</ele>
        <time>2022-06-03T09:19:40Z</time>
      </trkpt>
      <trkpt lat="47.8849530" lon="7.5346810">
        <ele>-200.6</ele>
        <time>2022-06-03T09:19:44Z</time>
      </trkpt>
      <trkpt lat="47.8851260" lon="7.5347980">
        <ele>-200.2</ele>
        <time>2022-06-03T09:19:48Z</time>
      </trkpt>
      <trkpt lat="47.8852980" lon="7.5349430">
        <ele>-200.6</ele>
        <time>2022-06-03T09:19:52Z</time>
      </trkpt>
      <trkpt lat="47.8854730" lon="7.5350880">
        <ele>-201.2</ele>
        <time>2022-06-03T09:19:56Z</time>
      </trkpt>
      <trkpt lat="47.8856350" lon="7.5352410">
        <ele>-201.0</ele>
        <time>2022-06-03T09:20:00Z</time>
      </trkpt>
      <trkpt lat="47.8857850" lon="7.5354000">
        <ele>-201.4</ele>
        <time>2022-06-03T09:20:04Z</time>
      </trkpt>
      <trkpt lat="47.8859460" lon="7.5355450">
        <ele>-201.4</ele>
        <time>2022-06-03T09:20:08Z</time>
      </trkpt>
      <trkpt lat="47.8861080" lon="7.5356580">
        <ele>-201.4</ele>
        <time>2022-06-03T09:20:12Z</time>
      </trkpt>
      <trkpt lat="47.8862800" lon="7.5357650">
        <ele>-202.0</ele>
        <time>2022-06-03T09:20:16Z</time>
      </trkpt>
      <trkpt lat="47.8864650" lon="7.5358910">
        <ele>-201.6</ele>
        <time>2022-06-03T09:20:20Z</time>
      </trkpt>
      <trkpt lat="47.8866400" lon="7.5360180">
        <ele>-201.2</ele>
        <time>2022-06-03T09:20:24Z</time>
      </trkpt>
      <trkpt lat="47.8868060" lon="7.5361230">
        <ele>-201.2</ele>
        <time>2022-06-03T09:20:28Z</time>
      </trkpt>
      <trkpt lat="47.8869560" lon="7.5362260">
        <ele>-200.8</ele>
        <time>2022-06-03T09:20:32Z</time>
      </trkpt>
      <trkpt lat="47.8871210" lon="7.5363280">
        <ele>-200.6</ele>
        <time>2022-06-03T09:20:36Z</time>
      </trkpt>
      <trkpt lat="47.8872880" lon="7.5363730">
        <ele>-201.2</ele>
        <time>2022-06-03T09:20:40Z</time>
      </trkpt>
      <trkpt lat="47.8874660" lon="7.5363810">
        <ele>-201.4</ele>
        <time>2022-06-03T09:20:44Z</time>
      </trkpt>
      <trkpt lat="47.8876510" lon="7.5363750">
        <ele>-201.4</ele>
        <time>2022-06-03T09:20:48Z</time>
      </trkpt>
      <trkpt lat="47.8878350" lon="7.5363630">
        <ele>-201.0</ele>
        <time>2022-06-03T09:20:52Z</time>
      </trkpt>
      <trkpt lat="47.8880230" lon="7.5363510">
        <ele>-201.0</ele>
        <time>2022-06-03T09:20:56Z</time>
      </trkpt>
      <trkpt lat="47.8882110" lon="7.5363400">
        <ele>-200.8</ele>
        <time>2022-06-03T09:21:00Z</time>
      </trkpt>
      <trkpt lat="47.8883910" lon="7.5363280">
        <ele>-201.2</ele>
        <time>2022-06-03T09:21:04Z</time>
      </trkpt>
      <trkpt lat="47.8885680" lon="7.5363080">
        <ele>-201.2</ele>
        <time>2022-06-03T09:21:08Z</time>
      </trkpt>
      <trkpt lat="47.8887510" lon="7.5362950">
        <ele>-200.8</ele>
        <time>2022-06-03T09:21:12Z</time>
      </trkpt>
      <trkpt lat="47.8889410" lon="7.5362950">
        <ele>-200.4</ele>
        <time>2022-06-03T09:21:16Z</time>
      </trkpt>
      <trkpt lat="47.8891330" lon="7.5363050">
        <ele>-201.0</ele>
        <time>2022-06-03T09:21:20Z</time>
      </trkpt>
      <trkpt lat="47.8893300" lon="7.5363180">
        <ele>-200.8</ele>
        <time>2022-06-03T09:21:24Z</time>
      </trkpt>
      <trkpt lat="47.8895300" lon="7.5363350">
        <ele>-200.6</ele>
        <time>2022-06-03T09:21:28Z</time>
      </trkpt>
      <trkpt lat="47.8897280" lon="7.5363480">
        <ele>-200.8</ele>
        <time>2022-06-03T09:21:32Z</time>
      </trkpt>
      <trkpt lat="47.8899310" lon="7.5363600">
        <ele>-200.6</ele>
        <time>2022-06-03T09:21:36Z</time>
      </trkpt>
      <trkpt lat="47.8901280" lon="7.5363750">
        <ele>-201.6</ele>
        <time>2022-06-03T09:21:40Z</time>
      </trkpt>
      <trkpt lat="47.8903050" lon="7.5363950">
        <ele>-201.2</ele>
        <time>2022-06-03T09:21:44Z</time>
      </trkpt>
      <trkpt lat="47.8904630" lon="7.5364660">
        <ele>-201.4</ele>
        <time>2022-06-03T09:21:48Z</time>
      </trkpt>
      <trkpt lat="47.8906260" lon="7.5364860">
        <ele>-201.8</ele>
        <time>2022-06-03T09:21:52Z</time>
      </trkpt>
      <trkpt lat="47.8907960" lon="7.5365050">
        <ele>-201.4</ele>
        <time>2022-06-03T09:21:56Z</time>
      </trkpt>
      <trkpt lat="47.8909810" lon="7.5365280">
        <ele>-201.2</ele>
        <time>2022-06-03T09:22:00Z</time>
      </trkpt>
      <trkpt lat="47.8911680" lon="7.5365450">
        <ele>-201.6</ele>
        <time>2022-06-03T09:22:04Z</time>
      </trkpt>
      <trkpt lat="47.8913580" lon="7.5365610">
        <ele>-202.2</ele>
        <time>2022-06-03T09:22:08Z</time>
      </trkpt>
      <trkpt lat="47.8915410" lon="7.5365830">
        <ele>-201.6</ele>
        <time>2022-06-03T09:22:12Z</time>
      </trkpt>
      <trkpt lat="47.8917210" lon="7.5366030">
        <ele>-201.4</ele>
        <time>2022-06-03T09:22:16Z</time>
      </trkpt>
      <trkpt lat="47.8919010" lon="7.5366280">
        <ele>-201.8</ele>
        <time>2022-06-03T09:22:20Z</time>
      </trkpt>
      <trkpt lat="47.8920780" lon="7.5366480">
        <ele>-202.0</ele>
        <time>2022-06-03T09:22:24Z</time>
      </trkpt>
      <trkpt lat="47.8922510" lon="7.5366660">
        <ele>-201.4</ele>
        <time>2022-06-03T09:22:28Z</time>
      </trkpt>
      <trkpt lat="47.8924300" lon="7.5366850">
        <ele>-202.0</ele>
        <time>2022-06-03T09:22:32Z</time>
      </trkpt>
      <trkpt lat="47.8926160" lon="7.5367180">
        <ele>-201.6</ele>
        <time>2022-06-03T09:22:36Z</time>
      </trkpt>
      <trkpt lat="47.8928010" lon="7.5367380">
        <ele>-202.2</ele>
        <time>2022-06-03T09:22:40Z</time>
      </trkpt>
      <trkpt lat="47.8929880" lon="7.5367630">
        <ele>-202.0</ele>
        <time>2022-06-03T09:22:44Z</time>
      </trkpt>
      <trkpt lat="47.8931750" lon="7.5367780">
        <ele>-201.0</ele>
        <time>2022-06-03T09:22:48Z</time>
      </trkpt>
      <trkpt lat="47.8933560" lon="7.5368030">
        <ele>-200.8</ele>
        <time>2022-06-03T09:22:52Z</time>
      </trkpt>
      <trkpt lat="47.8935380" lon="7.5368200">
        <ele>-201.2</ele>
        <time>2022-06-03T09:22:56Z</time>
      </trkpt>
      <trkpt lat="47.8937210" lon="7.5368480">
        <ele>-201.4</ele>
        <time>2022-06-03T09:23:00Z</time>
      </trkpt>
      <trkpt lat="47.8939050" lon="7.5368710">
        <ele>-201.4</ele>
        <time>2022-06-03T09:23:04Z</time>
      </trkpt>
      <trkpt lat="47.8940900" lon="7.5368860">
        <ele>-201.6</ele>
        <time>2022-06-03T09:23:08Z</time>
      </trkpt>
      <trkpt lat="47.8942750" lon="7.5369030">
        <ele>-202.0</ele>
        <time>2022-06-03T09:23:12Z</time>
      </trkpt>
      <trkpt lat="47.8944660" lon="7.5369230">
        <ele>-201.6</ele>
        <time>2022-06-03T09:23:16Z</time>
      </trkpt>
      <trkpt lat="47.8946600" lon="7.5369530">
        <ele>-201.4</ele>
        <time>2022-06-03T09:23:20Z</time>
      </trkpt>
      <trkpt lat="47.8948510" lon="7.5369700">
        <ele>-201.4</ele>
        <time>2022-06-03T09:23:24Z</time>
      </trkpt>
      <trkpt lat="47.8950480" lon="7.5369760">
        <ele>-202.6</ele>
        <time>2022-06-03T09:23:28Z</time>
      </trkpt>
      <trkpt lat="47.8952530" lon="7.5369960">
        <ele>-202.2</ele>
        <time>2022-06-03T09:23:32Z</time>
      </trkpt>
      <trkpt lat="47.8954550" lon="7.5370250">
        <ele>-201.6</ele>
        <time>2022-06-03T09:23:36Z</time>
      </trkpt>
      <trkpt lat="47.8956480" lon="7.5370500">
        <ele>-202.2</ele>
        <time>2022-06-03T09:23:40Z</time>
      </trkpt>
      <trkpt lat="47.8958310" lon="7.5370700">
        <ele>-201.4</ele>
        <time>2022-06-03T09:23:44Z</time>
      </trkpt>
      <trkpt lat="47.8960150" lon="7.5370900">
        <ele>-201.8</ele>
        <time>2022-06-03T09:23:48Z</time>
      </trkpt>
      <trkpt lat="47.8962050" lon="7.5371150">
        <ele>-202.2</ele>
        <time>2022-06-03T09:23:52Z</time>
      </trkpt>
      <trkpt lat="47.8963960" lon="7.5371450">
        <ele>-202.0</ele>
        <time>2022-06-03T09:23:56Z</time>
      </trkpt>
      <trkpt lat="47.8965810" lon="7.5371680">
        <ele>-201.4</ele>
        <time>2022-06-03T09:24:00Z</time>
      </trkpt>
      <trkpt lat="47.8967730" lon="7.5371950">
        <ele>-201.4</ele>
        <time>2022-06-03T09:24:04Z</time>
      </trkpt>
      <trkpt lat="47.8969630" lon="7.5372180">
        <ele>-201.6</ele>
        <time>2022-06-03T09:24:08Z</time>
      </trkpt>
      <trkpt lat="47.8971450" lon="7.5372430">
        <ele>-201.6</ele>
        <time>2022-06-03T09:24:12Z</time>
      </trkpt>
      <trkpt lat="47.8973300" lon="7.5372660">
        <ele>-202.2</ele>
        <time>2022-06-03T09:24:16Z</time>
      </trkpt>
      <trkpt lat="47.8975230" lon="7.5372910">
        <ele>-202.0</ele>
        <time>2022-06-03T09:24:20Z</time>
      </trkpt>
      <trkpt lat="47.8977110" lon="7.5373180">
        <ele>-202.0</ele>
        <time>2022-06-03T09:24:24Z</time>
      </trkpt>
      <trkpt lat="47.8978930" lon="7.5373460">
        <ele>-201.6</ele>
        <time>2022-06-03T09:24:28Z</time>
      </trkpt>
      <trkpt lat="47.8980800" lon="7.5373780">
        <ele>-202.4</ele>
        <time>2022-06-03T09:24:32Z</time>
      </trkpt>
      <trkpt lat="47.8982600" lon="7.5374050">
        <ele>-201.8</ele>
        <time>2022-06-03T09:24:36Z</time>
      </trkpt>
      <trkpt lat="47.8984280" lon="7.5374300">
        <ele>-201.4</ele>
        <time>2022-06-03T09:24:40Z</time>
      </trkpt>
      <trkpt lat="47.8986030" lon="7.5374560">
        <ele>-201.4</ele>
        <time>2022-06-03T09:24:44Z</time>
      </trkpt>
      <trkpt lat="47.8987910" lon="7.5374900">
        <ele>-202.0</ele>
        <time>2022-06-03T09:24:48Z</time>
      </trkpt>
      <trkpt lat="47.8989850" lon="7.5375230">
        <ele>-201.8</ele>
        <time>2022-06-03T09:24:52Z</time>
      </trkpt>
      <trkpt lat="47.8991730" lon="7.5375530">
        <ele>-202.0</ele>
        <time>2022-06-03T09:24:56Z</time>
      </trkpt>
      <trkpt lat="47.8993610" lon="7.5375760">
        <ele>-202.4</ele>
        <time>2022-06-03T09:25:00Z</time>
      </trkpt>
      <trkpt lat="47.8995480" lon="7.5376130">
        <ele>-202.0</ele>
        <time>2022-06-03T09:25:04Z</time>
      </trkpt>
      <trkpt lat="47.8997400" lon="7.5376400">
        <ele>-202.8</ele>
        <time>2022-06-03T09:25:08Z</time>
      </trkpt>
      <trkpt lat="47.8999250" lon="7.5376610">
        <ele>-202.0</ele>
        <time>2022-06-03T09:25:12Z</time>
      </trkpt>
      <trkpt lat="47.9001130" lon="7.5376810">
        <ele>-202.6</ele>
        <time>2022-06-03T09:25:16Z</time>
      </trkpt>
      <trkpt lat="47.9003060" lon="7.5377050">
        <ele>-202.2</ele>
        <time>2022-06-03T09:25:20Z</time>
      </trkpt>
      <trkpt lat="47.9005010" lon="7.5377310">
        <ele>-202.6</ele>
        <time>2022-06-03T09:25:24Z</time>
      </trkpt>
      <trkpt lat="47.9006930" lon="7.5377500">
        <ele>-202.2</ele>
        <time>2022-06-03T09:25:28Z</time>
      </trkpt>
      <trkpt lat="47.9008800" lon="7.5377710">
        <ele>-202.6</ele>
        <time>2022-06-03T09:25:32Z</time>
      </trkpt>
      <trkpt lat="47.9010600" lon="7.5377960">
        <ele>-202.4</ele>
        <time>2022-06-03T09:25:36Z</time>
      </trkpt>
      <trkpt lat="47.9012430" lon="7.5378230">
        <ele>-202.6</ele>
        <time>2022-06-03T09:25:40Z</time>
      </trkpt>
      <trkpt lat="47.9014280" lon="7.5378430">
        <ele>-202.8</ele>
        <time>2022-06-03T09:25:44Z</time>
      </trkpt>
      <trkpt lat="47.9016150" lon="7.5378680">
        <ele>-202.6</ele>
        <time>2022-06-03T09:25:48Z</time>
      </trkpt>
      <trkpt lat="47.9017980" lon="7.5378930">
        <ele>-203.0</ele>
        <time>2022-06-03T09:25:52Z</time>
      </trkpt>
      <trkpt lat="47.9019950" lon="7.5379130">
        <ele>-202.4</ele>
        <time>2022-06-03T09:25:56Z</time>
      </trkpt>
      <trkpt lat="47.9021880" lon="7.5379350">
        <ele>-203.2</ele>
        <time>2022-06-03T09:26:00Z</time>
      </trkpt>
      <trkpt lat="47.9023780" lon="7.5379600">
        <ele>-203.0</ele>
        <time>2022-06-03T09:26:04Z</time>
      </trkpt>
      <trkpt lat="47.9025680" lon="7.5379850">
        <ele>-203.2</ele>
        <time>2022-06-03T09:26:08Z</time>
      </trkpt>
      <trkpt lat="47.9027580" lon="7.5380080">
        <ele>-203.2</ele>
        <time>2022-06-03T09:26:12Z</time>
      </trkpt>
      <trkpt lat="47.9029450" lon="7.5380330">
        <ele>-203.2</ele>
        <time>2022-06-03T09:26:16Z</time>
      </trkpt>
      <trkpt lat="47.9031400" lon="7.5380530">
        <ele>-202.8</ele>
        <time>2022-06-03T09:26:20Z</time>
      </trkpt>
      <trkpt lat="47.9033350" lon="7.5380760">
        <ele>-202.6</ele>
        <time>2022-06-03T09:26:24Z</time>
      </trkpt>
      <trkpt lat="47.9035210" lon="7.5381010">
        <ele>-203.4</ele>
        <time>2022-06-03T09:26:28Z</time>
      </trkpt>
      <trkpt lat="47.9037160" lon="7.5381260">
        <ele>-203.6</ele>
        <time>2022-06-03T09:26:32Z</time>
      </trkpt>
      <trkpt lat="47.9039050" lon="7.5381480">
        <ele>-203.2</ele>
        <time>2022-06-03T09:26:36Z</time>
      </trkpt>
      <trkpt lat="47.9040980" lon="7.5381750">
        <ele>-203.2</ele>
        <time>2022-06-03T09:26:40Z</time>
      </trkpt>
      <trkpt lat="47.9042880" lon="7.5381960">
        <ele>-203.4</ele>
        <time>2022-06-03T09:26:44Z</time>
      </trkpt>
      <trkpt lat="47.9044800" lon="7.5382180">
        <ele>-202.8</ele>
        <time>2022-06-03T09:26:48Z</time>
      </trkpt>
      <trkpt lat="47.9046680" lon="7.5382450">
        <ele>-203.0</ele>
        <time>2022-06-03T09:26:52Z</time>
      </trkpt>
      <trkpt lat="47.9048580" lon="7.5382710">
        <ele>-204.0</ele>
        <time>2022-06-03T09:26:56Z</time>
      </trkpt>
      <trkpt lat="47.9050460" lon="7.5382960">
        <ele>-203.2</ele>
        <time>2022-06-03T09:27:00Z</time>
      </trkpt>
      <trkpt lat="47.9052360" lon="7.5383210">
        <ele>-202.8</ele>
        <time>2022-06-03T09:27:04Z</time>
      </trkpt>
      <trkpt lat="47.9054260" lon="7.5383400">
        <ele>-203.8</ele>
        <time>2022-06-03T09:27:08Z</time>
      </trkpt>
      <trkpt lat="47.9056050" lon="7.5383410">
        <ele>-203.0</ele>
        <time>2022-06-03T09:27:12Z</time>
      </trkpt>
      <trkpt lat="47.9057830" lon="7.5383580">
        <ele>-203.0</ele>
        <time>2022-06-03T09:27:16Z</time>
      </trkpt>
      <trkpt lat="47.9059660" lon="7.5383750">
        <ele>-202.4</ele>
        <time>2022-06-03T09:27:20Z</time>
      </trkpt>
      <trkpt lat="47.9061460" lon="7.5384060">
        <ele>-201.6</ele>
        <time>2022-06-03T09:27:24Z</time>
      </trkpt>
      <trkpt lat="47.9063260" lon="7.5384350">
        <ele>-202.0</ele>
        <time>2022-06-03T09:27:28Z</time>
      </trkpt>
      <trkpt lat="47.9065110" lon="7.5384480">
        <ele>-201.8</ele>
        <time>2022-06-03T09:27:32Z</time>
      </trkpt>
      <trkpt lat="47.9067080" lon="7.5384580">
        <ele>-201.6</ele>
        <time>2022-06-03T09:27:36Z</time>
      </trkpt>
      <trkpt lat="47.9069050" lon="7.5384900">
        <ele>-201.4</ele>
        <time>2022-06-03T09:27:40Z</time>
      </trkpt>
      <trkpt lat="47.9070960" lon="7.5385150">
        <ele>-202.2</ele>
        <time>2022-06-03T09:27:44Z</time>
      </trkpt>
      <trkpt lat="47.9072830" lon="7.5385350">
        <ele>-201.2</ele>
        <time>2022-06-03T09:27:48Z</time>
      </trkpt>
      <trkpt lat="47.9074610" lon="7.5385280">
        <ele>-202.0</ele>
        <time>2022-06-03T09:27:52Z</time>
      </trkpt>
      <trkpt lat="47.9076450" lon="7.5385460">
        <ele>-201.0</ele>
        <time>2022-06-03T09:27:56Z</time>
      </trkpt>
      <trkpt lat="47.9078330" lon="7.5385710">
        <ele>-202.0</ele>
        <time>2022-06-03T09:28:00Z</time>
      </trkpt>
      <trkpt lat="47.9080250" lon="7.5385930">
        <ele>-202.2</ele>
        <time>2022-06-03T09:28:04Z</time>
      </trkpt>
      <trkpt lat="47.9082150" lon="7.5386200">
        <ele>-202.4</ele>
        <time>2022-06-03T09:28:08Z</time>
      </trkpt>
      <trkpt lat="47.9084060" lon="7.5386460">
        <ele>-202.0</ele>
        <time>2022-06-03T09:28:12Z</time>
      </trkpt>
      <trkpt lat="47.9085930" lon="7.5386650">
        <ele>-202.6</ele>
        <time>2022-06-03T09:28:16Z</time>
      </trkpt>
      <trkpt lat="47.9087850" lon="7.5386930">
        <ele>-202.6</ele>
        <time>2022-06-03T09:28:20Z</time>
      </trkpt>
      <trkpt lat="47.9089750" lon="7.5387150">
        <ele>-203.0</ele>
        <time>2022-06-03T09:28:24Z</time>
      </trkpt>
      <trkpt lat="47.9091610" lon="7.5387380">
        <ele>-203.0</ele>
        <time>2022-06-03T09:28:28Z</time>
      </trkpt>
      <trkpt lat="47.9093460" lon="7.5387500">
        <ele>-202.8</ele>
        <time>2022-06-03T09:28:32Z</time>
      </trkpt>
      <trkpt lat="47.9095350" lon="7.5387510">
        <ele>-201.8</ele>
        <time>2022-06-03T09:28:36Z</time>
      </trkpt>
      <trkpt lat="47.9097260" lon="7.5387630">
        <ele>-201.8</ele>
        <time>2022-06-03T09:28:40Z</time>
      </trkpt>
      <trkpt lat="47.9099210" lon="7.5388200">
        <ele>-203.0</ele>
        <time>2022-06-03T09:28:44Z</time>
      </trkpt>
      <trkpt lat="47.9101180" lon="7.5388600">
        <ele>-202.6</ele>
        <time>2022-06-03T09:28:48Z</time>
      </trkpt>
      <trkpt lat="47.9103110" lon="7.5388850">
        <ele>-203.4</ele>
        <time>2022-06-03T09:28:52Z</time>
      </trkpt>
      <trkpt lat="47.9104760" lon="7.5388780">
        <ele>-202.6</ele>
        <time>2022-06-03T09:28:56Z</time>
      </trkpt>
      <trkpt lat="47.9106350" lon="7.5388110">
        <ele>-202.6</ele>
        <time>2022-06-03T09:29:00Z</time>
      </trkpt>
      <trkpt lat="47.9106730" lon="7.5385860">
        <ele>-202.6</ele>
        <time>2022-06-03T09:29:04Z</time>
      </trkpt>
      <trkpt lat="47.9106480" lon="7.5383030">
        <ele>-202.8</ele>
        <time>2022-06-03T09:29:08Z</time>
      </trkpt>
      <trkpt lat="47.9106210" lon="7.5380230">
        <ele>-203.0</ele>
        <time>2022-06-03T09:29:12Z</time>
      </trkpt>
      <trkpt lat="47.9105910" lon="7.5377650">
        <ele>-202.8</ele>
        <time>2022-06-03T09:29:16Z</time>
      </trkpt>
      <trkpt lat="47.9105600" lon="7.5375000">
        <ele>-203.0</ele>
        <time>2022-06-03T09:29:20Z</time>
      </trkpt>
      <trkpt lat="47.9105260" lon="7.5372260">
        <ele>-202.8</ele>
        <time>2022-06-03T09:29:24Z</time>
      </trkpt>
      <trkpt lat="47.9104980" lon="7.5369530">
        <ele>-202.8</ele>
        <time>2022-06-03T09:29:28Z</time>
      </trkpt>
      <trkpt lat="47.9104750" lon="7.5366910">
        <ele>-202.8</ele>
        <time>2022-06-03T09:29:32Z</time>
      </trkpt>
      <trkpt lat="47.9104550" lon="7.5364330">
        <ele>-203.0</ele>
        <time>2022-06-03T09:29:36Z</time>
      </trkpt>
      <trkpt lat="47.9104280" lon="7.5361780">
        <ele>-203.0</ele>
        <time>2022-06-03T09:29:40Z</time>
      </trkpt>
      <trkpt lat="47.9104100" lon="7.5359100">
        <ele>-202.8</ele>
        <time>2022-06-03T09:29:44Z</time>
      </trkpt>
      <trkpt lat="47.9103830" lon="7.5356300">
        <ele>-202.8</ele>
        <time>2022-06-03T09:29:48Z</time>
      </trkpt>
      <trkpt lat="47.9103580" lon="7.5353560">
        <ele>-202.8</ele>
        <time>2022-06-03T09:29:52Z</time>
      </trkpt>
      <trkpt lat="47.9103300" lon="7.5350810">
        <ele>-203.2</ele>
        <time>2022-06-03T09:29:56Z</time>
      </trkpt>
      <trkpt lat="47.9103010" lon="7.5348110">
        <ele>-202.8</ele>
        <time>2022-06-03T09:30:00Z</time>
      </trkpt>
      <trkpt lat="47.9102710" lon="7.5345400">
        <ele>-202.6</ele>
        <time>2022-06-03T09:30:04Z</time>
      </trkpt>
      <trkpt lat="47.9102410" lon="7.5342810">
        <ele>-202.4</ele>
        <time>2022-06-03T09:30:08Z</time>
      </trkpt>
      <trkpt lat="47.9102080" lon="7.5340380">
        <ele>-202.4</ele>
        <time>2022-06-03T09:30:12Z</time>
      </trkpt>
      <trkpt lat="47.9101860" lon="7.5337710">
        <ele>-202.0</ele>
        <time>2022-06-03T09:30:16Z</time>
      </trkpt>
      <trkpt lat="47.9101600" lon="7.5335110">
        <ele>-201.4</ele>
        <time>2022-06-03T09:30:20Z</time>
      </trkpt>
      <trkpt lat="47.9101350" lon="7.5332500">
        <ele>-201.2</ele>
        <time>2022-06-03T09:30:24Z</time>
      </trkpt>
      <trkpt lat="47.9101080" lon="7.5329830">
        <ele>-201.6</ele>
        <time>2022-06-03T09:30:28Z</time>
      </trkpt>
      <trkpt lat="47.9100800" lon="7.5327110">
        <ele>-201.8</ele>
        <time>2022-06-03T09:30:32Z</time>
      </trkpt>
      <trkpt lat="47.9100510" lon="7.5324410">
        <ele>-201.6</ele>
        <time>2022-06-03T09:30:36Z</time>
      </trkpt>
      <trkpt lat="47.9100260" lon="7.5321650">
        <ele>-201.4</ele>
        <time>2022-06-03T09:30:40Z</time>
      </trkpt>
      <trkpt lat="47.9100000" lon="7.5318930">
        <ele>-201.8</ele>
        <time>2022-06-03T09:30:44Z</time>
      </trkpt>
      <trkpt lat="47.9099750" lon="7.5316200">
        <ele>-202.2</ele>
        <time>2022-06-03T09:30:48Z</time>
      </trkpt>
      <trkpt lat="47.9099450" lon="7.5313560">
        <ele>-201.8</ele>
        <time>2022-06-03T09:30:52Z</time>
      </trkpt>
      <trkpt lat="47.9099180" lon="7.5310750">
        <ele>-202.0</ele>
        <time>2022-06-03T09:30:56Z</time>
      </trkpt>
      <trkpt lat="47.9098860" lon="7.5308060">
        <ele>-202.0</ele>
        <time>2022-06-03T09:31:00Z</time>
      </trkpt>
      <trkpt lat="47.9098560" lon="7.5305250">
        <ele>-202.0</ele>
        <time>2022-06-03T09:31:04Z</time>
      </trkpt>
      <trkpt lat="47.9098210" lon="7.5302460">
        <ele>-202.0</ele>
        <time>2022-06-03T09:31:08Z</time>
      </trkpt>
      <trkpt lat="47.9097980" lon="7.5300130">
        <ele>-201.8</ele>
        <time>2022-06-03T09:31:12Z</time>
      </trkpt>
      <trkpt lat="47.9098660" lon="7.5298760">
        <ele>-202.2</ele>
        <time>2022-06-03T09:31:16Z</time>
      </trkpt>
      <trkpt lat="47.9100360" lon="7.5299000">
        <ele>-202.6</ele>
        <time>2022-06-03T09:31:20Z</time>
      </trkpt>
      <trkpt lat="47.9102380" lon="7.5299510">
        <ele>-202.4</ele>
        <time>2022-06-03T09:31:24Z</time>
      </trkpt>
      <trkpt lat="47.9104300" lon="7.5300030">
        <ele>-202.6</ele>
        <time>2022-06-03T09:31:28Z</time>
      </trkpt>
      <trkpt lat="47.9106250" lon="7.5300610">
        <ele>-202.8</ele>
        <time>2022-06-03T09:31:32Z</time>
      </trkpt>
      <trkpt lat="47.9108210" lon="7.5301210">
        <ele>-203.0</ele>
        <time>2022-06-03T09:31:36Z</time>
      </trkpt>
      <trkpt lat="47.9110080" lon="7.5301650">
        <ele>-202.6</ele>
        <time>2022-06-03T09:31:40Z</time>
      </trkpt>
      <trkpt lat="47.9112030" lon="7.5302030">
        <ele>-203.0</ele>
        <time>2022-06-03T09:31:44Z</time>
      </trkpt>
      <trkpt lat="47.9113900" lon="7.5302460">
        <ele>-203.2</ele>
        <time>2022-06-03T09:31:48Z</time>
      </trkpt>
      <trkpt lat="47.9115750" lon="7.5303100">
        <ele>-203.0</ele>
        <time>2022-06-03T09:31:52Z</time>
      </trkpt>
      <trkpt lat="47.9117480" lon="7.5303560">
        <ele>-203.0</ele>
        <time>2022-06-03T09:31:56Z</time>
      </trkpt>
      <trkpt lat="47.9119000" lon="7.5304000">
        <ele>-202.6</ele>
        <time>2022-06-03T09:32:00Z</time>
      </trkpt>
      <trkpt lat="47.9120630" lon="7.5304480">
        <ele>-203.0</ele>
        <time>2022-06-03T09:32:04Z</time>
      </trkpt>
      <trkpt lat="47.9122600" lon="7.5304950">
        <ele>-202.6</ele>
        <time>2022-06-03T09:32:08Z</time>
      </trkpt>
      <trkpt lat="47.9124550" lon="7.5305360">
        <ele>-202.6</ele>
        <time>2022-06-03T09:32:12Z</time>
      </trkpt>
      <trkpt lat="47.9126430" lon="7.5305930">
        <ele>-203.6</ele>
        <time>2022-06-03T09:32:16Z</time>
      </trkpt>
      <trkpt lat="47.9128250" lon="7.5306480">
        <ele>-204.0</ele>
        <time>2022-06-03T09:32:20Z</time>
      </trkpt>
      <trkpt lat="47.9130060" lon="7.5307160">
        <ele>-203.2</ele>
        <time>2022-06-03T09:32:24Z</time>
      </trkpt>
      <trkpt lat="47.9131580" lon="7.5307660">
        <ele>-202.8</ele>
        <time>2022-06-03T09:32:28Z</time>
      </trkpt>
      <trkpt lat="47.9133010" lon="7.5307800">
        <ele>-203.4</ele>
        <time>2022-06-03T09:32:32Z</time>
      </trkpt>
      <trkpt lat="47.9134150" lon="7.5307880">
        <ele>-203.0</ele>
        <time>2022-06-03T09:32:36Z</time>
      </trkpt>
      <trkpt lat="47.9135050" lon="7.5308110">
        <ele>-203.0</ele>
        <time>2022-06-03T09:32:40Z</time>
      </trkpt>
      <trkpt lat="47.9135980" lon="7.5308380">
        <ele>-203.0</ele>
        <time>2022-06-03T09:32:44Z</time>
      </trkpt>
      <trkpt lat="47.9137100" lon="7.5308750">
        <ele>-203.2</ele>
        <time>2022-06-03T09:32:48Z</time>
      </trkpt>
      <trkpt lat="47.9138530" lon="7.5309130">
        <ele>-203.0</ele>
        <time>2022-06-03T09:32:52Z</time>
      </trkpt>
      <trkpt lat="47.9140160" lon="7.5309650">
        <ele>-203.4</ele>
        <time>2022-06-03T09:32:56Z</time>
      </trkpt>
      <trkpt lat="47.9141850" lon="7.5309980">
        <ele>-203.4</ele>
        <time>2022-06-03T09:33:00Z</time>
      </trkpt>
      <trkpt lat="47.9143560" lon="7.5310250">
        <ele>-202.6</ele>
        <time>2022-06-03T09:33:04Z</time>
      </trkpt>
      <trkpt lat="47.9145280" lon="7.5310660">
        <ele>-202.4</ele>
        <time>2022-06-03T09:33:08Z</time>
      </trkpt>
      <trkpt lat="47.9147080" lon="7.5311260">
        <ele>-202.6</ele>
        <time>2022-06-03T09:33:12Z</time>
      </trkpt>
      <trkpt lat="47.9148810" lon="7.5311880">
        <ele>-202.6</ele>
        <time>2022-06-03T09:33:16Z</time>
      </trkpt>
      <trkpt lat="47.9150530" lon="7.5312350">
        <ele>-202.6</ele>
        <time>2022-06-03T09:33:20Z</time>
      </trkpt>
      <trkpt lat="47.9152230" lon="7.5312830">
        <ele>-203.2</ele>
        <time>2022-06-03T09:33:24Z</time>
      </trkpt>
      <trkpt lat="47.9154080" lon="7.5313380">
        <ele>-202.0</ele>
        <time>2022-06-03T09:33:28Z</time>
      </trkpt>
      <trkpt lat="47.9155730" lon="7.5313810">
        <ele>-202.6</ele>
        <time>2022-06-03T09:33:32Z</time>
      </trkpt>
      <trkpt lat="47.9157150" lon="7.5314160">
        <ele>-202.2</ele>
        <time>2022-06-03T09:33:36Z</time>
      </trkpt>
      <trkpt lat="47.9158710" lon="7.5314660">
        <ele>-202.8</ele>
        <time>2022-06-03T09:33:40Z</time>
      </trkpt>
      <trkpt lat="47.9160530" lon="7.5315110">
        <ele>-202.6</ele>
        <time>2022-06-03T09:33:44Z</time>
      </trkpt>
      <trkpt lat="47.9162150" lon="7.5315430">
        <ele>-202.2</ele>
        <time>2022-06-03T09:33:48Z</time>
      </trkpt>
      <trkpt lat="47.9163880" lon="7.5315880">
        <ele>-202.2</ele>
        <time>2022-06-03T09:33:52Z</time>
      </trkpt>
      <trkpt lat="47.9165580" lon="7.5316360">
        <ele>-202.2</ele>
        <time>2022-06-03T09:33:56Z</time>
      </trkpt>
      <trkpt lat="47.9167350" lon="7.5316850">
        <ele>-202.2</ele>
        <time>2022-06-03T09:34:00Z</time>
      </trkpt>
      <trkpt lat="47.9169150" lon="7.5317380">
        <ele>-201.8</ele>
        <time>2022-06-03T09:34:04Z</time>
      </trkpt>
      <trkpt lat="47.9170980" lon="7.5317950">
        <ele>-202.4</ele>
        <time>2022-06-03T09:34:08Z</time>
      </trkpt>
      <trkpt lat="47.9172760" lon="7.5318410">
        <ele>-202.2</ele>
        <time>2022-06-03T09:34:12Z</time>
      </trkpt>
      <trkpt lat="47.9174460" lon="7.5318880">
        <ele>-202.2</ele>
        <time>2022-06-03T09:34:16Z</time>
      </trkpt>
      <trkpt lat="47.9176030" lon="7.5319210">
        <ele>-202.4</ele>
        <time>2022-06-03T09:34:20Z</time>
      </trkpt>
      <trkpt lat="47.9177060" lon="7.5319450">
        <ele>-201.6</ele>
        <time>2022-06-03T09:34:24Z</time>
      </trkpt>
      <trkpt lat="47.9178080" lon="7.5319760">
        <ele>-201.6</ele>
        <time>2022-06-03T09:34:28Z</time>
      </trkpt>
      <trkpt lat="47.9179500" lon="7.5320150">
        <ele>-202.6</ele>
        <time>2022-06-03T09:34:32Z</time>
      </trkpt>
      <trkpt lat="47.9181200" lon="7.5320730">
        <ele>-202.8</ele>
        <time>2022-06-03T09:34:36Z</time>
      </trkpt>
      <trkpt lat="47.9182930" lon="7.5321050">
        <ele>-202.2</ele>
        <time>2022-06-03T09:34:40Z</time>
      </trkpt>
      <trkpt lat="47.9184780" lon="7.5321600">
        <ele>-202.8</ele>
        <time>2022-06-03T09:34:44Z</time>
      </trkpt>
      <trkpt lat="47.9186680" lon="7.5322100">
        <ele>-203.2</ele>
        <time>2022-06-03T09:34:48Z</time>
      </trkpt>
      <trkpt lat="47.9188560" lon="7.5322610">
        <ele>-203.6</ele>
        <time>2022-06-03T09:34:52Z</time>
      </trkpt>
      <trkpt lat="47.9190460" lon="7.5323060">
        <ele>-203.2</ele>
        <time>2022-06-03T09:34:56Z</time>
      </trkpt>
      <trkpt lat="47.9192360" lon="7.5323480">
        <ele>-203.8</ele>
        <time>2022-06-03T09:35:00Z</time>
      </trkpt>
      <trkpt lat="47.9194250" lon="7.5324000">
        <ele>-203.6</ele>
        <time>2022-06-03T09:35:04Z</time>
      </trkpt>
      <trkpt lat="47.9196030" lon="7.5324450">
        <ele>-202.8</ele>
        <time>2022-06-03T09:35:08Z</time>
      </trkpt>
      <trkpt lat="47.9197800" lon="7.5324930">
        <ele>-204.0</ele>
        <time>2022-06-03T09:35:12Z</time>
      </trkpt>
      <trkpt lat="47.9199550" lon="7.5325410">
        <ele>-204.4</ele>
        <time>2022-06-03T09:35:16Z</time>
      </trkpt>
      <trkpt lat="47.9201480" lon="7.5326010">
        <ele>-203.6</ele>
        <time>2022-06-03T09:35:20Z</time>
      </trkpt>
      <trkpt lat="47.9203510" lon="7.5326580">
        <ele>-203.4</ele>
        <time>2022-06-03T09:35:24Z</time>
      </trkpt>
      <trkpt lat="47.9205500" lon="7.5327060">
        <ele>-203.2</ele>
        <time>2022-06-03T09:35:28Z</time>
      </trkpt>
      <trkpt lat="47.9207480" lon="7.5327630">
        <ele>-204.0</ele>
        <time>2022-06-03T09:35:32Z</time>
      </trkpt>
      <trkpt lat="47.9209400" lon="7.5328110">
        <ele>-204.4</ele>
        <time>2022-06-03T09:35:36Z</time>
      </trkpt>
      <trkpt lat="47.9211280" lon="7.5328580">
        <ele>-204.8</ele>
        <time>2022-06-03T09:35:40Z</time>
      </trkpt>
      <trkpt lat="47.9213080" lon="7.5329050">
        <ele>-204.8</ele>
        <time>2022-06-03T09:35:44Z</time>
      </trkpt>
      <trkpt lat="47.9214680" lon="7.5329480">
        <ele>-204.2</ele>
        <time>2022-06-03T09:35:48Z</time>
      </trkpt>
      <trkpt lat="47.9216280" lon="7.5329910">
        <ele>-205.0</ele>
        <time>2022-06-03T09:35:52Z</time>
      </trkpt>
      <trkpt lat="47.9218000" lon="7.5330350">
        <ele>-204.6</ele>
        <time>2022-06-03T09:35:56Z</time>
      </trkpt>
      <trkpt lat="47.9219630" lon="7.5330930">
        <ele>-205.4</ele>
        <time>2022-06-03T09:36:00Z</time>
      </trkpt>
      <trkpt lat="47.9221310" lon="7.5331330">
        <ele>-205.4</ele>
        <time>2022-06-03T09:36:04Z</time>
      </trkpt>
      <trkpt lat="47.9223100" lon="7.5331800">
        <ele>-205.4</ele>
        <time>2022-06-03T09:36:08Z</time>
      </trkpt>
      <trkpt lat="47.9224760" lon="7.5332280">
        <ele>-205.0</ele>
        <time>2022-06-03T09:36:12Z</time>
      </trkpt>
      <trkpt lat="47.9226280" lon="7.5332710">
        <ele>-205.0</ele>
        <time>2022-06-03T09:36:16Z</time>
      </trkpt>
      <trkpt lat="47.9227830" lon="7.5333180">
        <ele>-205.0</ele>
        <time>2022-06-03T09:36:20Z</time>
      </trkpt>
      <trkpt lat="47.9229430" lon="7.5333510">
        <ele>-205.4</ele>
        <time>2022-06-03T09:36:24Z</time>
      </trkpt>
      <trkpt lat="47.9231060" lon="7.5334000">
        <ele>-205.2</ele>
        <time>2022-06-03T09:36:28Z</time>
      </trkpt>
      <trkpt lat="47.9232680" lon="7.5334380">
        <ele>-204.8</ele>
        <time>2022-06-03T09:36:32Z</time>
      </trkpt>
      <trkpt lat="47.9234310" lon="7.5334830">
        <ele>-204.6</ele>
        <time>2022-06-03T09:36:36Z</time>
      </trkpt>
      <trkpt lat="47.9236030" lon="7.5335210">
        <ele>-204.6</ele>
        <time>2022-06-03T09:36:40Z</time>
      </trkpt>
      <trkpt lat="47.9237760" lon="7.5335680">
        <ele>-205.4</ele>
        <time>2022-06-03T09:36:44Z</time>
      </trkpt>
      <trkpt lat="47.9239480" lon="7.5336150">
        <ele>-205.4</ele>
        <time>2022-06-03T09:36:48Z</time>
      </trkpt>
      <trkpt lat="47.9241180" lon="7.5336600">
        <ele>-205.4</ele>
        <time>2022-06-03T09:36:52Z</time>
      </trkpt>
      <trkpt lat="47.9242880" lon="7.5337050">
        <ele>-206.0</ele>
        <time>2022-06-03T09:36:56Z</time>
      </trkpt>
      <trkpt lat="47.9244610" lon="7.5337510">
        <ele>-205.4</ele>
        <time>2022-06-03T09:37:00Z</time>
      </trkpt>
      <trkpt lat="47.9246330" lon="7.5337910">
        <ele>-205.4</ele>
        <time>2022-06-03T09:37:04Z</time>
      </trkpt>
      <trkpt lat="47.9248050" lon="7.5338350">
        <ele>-204.8</ele>
        <time>2022-06-03T09:37:08Z</time>
      </trkpt>
      <trkpt lat="47.9249760" lon="7.5338810">
        <ele>-204.8</ele>
        <time>2022-06-03T09:37:12Z</time>
      </trkpt>
      <trkpt lat="47.9251480" lon="7.5339300">
        <ele>-205.4</ele>
        <time>2022-06-03T09:37:16Z</time>
      </trkpt>
      <trkpt lat="47.9253150" lon="7.5339760">
        <ele>-205.6</ele>
        <time>2022-06-03T09:37:20Z</time>
      </trkpt>
      <trkpt lat="47.9254880" lon="7.5340260">
        <ele>-205.0</ele>
        <time>2022-06-03T09:37:24Z</time>
      </trkpt>
      <trkpt lat="47.9256610" lon="7.5340700">
        <ele>-205.2</ele>
        <time>2022-06-03T09:37:28Z</time>
      </trkpt>
      <trkpt lat="47.9258330" lon="7.5341160">
        <ele>-205.8</ele>
        <time>2022-06-03T09:37:32Z</time>
      </trkpt>
      <trkpt lat="47.9260060" lon="7.5341580">
        <ele>-205.2</ele>
        <time>2022-06-03T09:37:36Z</time>
      </trkpt>
      <trkpt lat="47.9261760" lon="7.5342080">
        <ele>-205.8</ele>
        <time>2022-06-03T09:37:40Z</time>
      </trkpt>
      <trkpt lat="47.9263230" lon="7.5342510">
        <ele>-206.2</ele>
        <time>2022-06-03T09:37:44Z</time>
      </trkpt>
      <trkpt lat="47.9264500" lon="7.5342730">
        <ele>-206.4</ele>
        <time>2022-06-03T09:37:48Z</time>
      </trkpt>
      <trkpt lat="47.9265700" lon="7.5343210">
        <ele>-205.8</ele>
        <time>2022-06-03T09:37:52Z</time>
      </trkpt>
      <trkpt lat="47.9266930" lon="7.5343480">
        <ele>-205.8</ele>
        <time>2022-06-03T09:37:56Z</time>
      </trkpt>
      <trkpt lat="47.9268100" lon="7.5344000">
        <ele>-206.2</ele>
        <time>2022-06-03T09:38:00Z</time>
      </trkpt>
      <trkpt lat="47.9269650" lon="7.5344480">
        <ele>-206.4</ele>
        <time>2022-06-03T09:38:04Z</time>
      </trkpt>
      <trkpt lat="47.9271410" lon="7.5345050">
        <ele>-206.4</ele>
        <time>2022-06-03T09:38:08Z</time>
      </trkpt>
      <trkpt lat="47.9273000" lon="7.5345550">
        <ele>-206.2</ele>
        <time>2022-06-03T09:38:12Z</time>
      </trkpt>
      <trkpt lat="47.9274550" lon="7.5346110">
        <ele>-205.8</ele>
        <time>2022-06-03T09:38:16Z</time>
      </trkpt>
      <trkpt lat="47.9275980" lon="7.5346710">
        <ele>-206.0</ele>
        <time>2022-06-03T09:38:20Z</time>
      </trkpt>
      <trkpt lat="47.9277200" lon="7.5347200">
        <ele>-206.0</ele>
        <time>2022-06-03T09:38:24Z</time>
      </trkpt>
      <trkpt lat="47.9278110" lon="7.5347310">
        <ele>-206.4</ele>
        <time>2022-06-03T09:38:28Z</time>
      </trkpt>
      <trkpt lat="47.9279330" lon="7.5348100">
        <ele>-206.6</ele>
        <time>2022-06-03T09:38:32Z</time>
      </trkpt>
      <trkpt lat="47.9280580" lon="7.5348510">
        <ele>-206.4</ele>
        <time>2022-06-03T09:38:36Z</time>
      </trkpt>
      <trkpt lat="47.9282030" lon="7.5349060">
        <ele>-206.8</ele>
        <time>2022-06-03T09:38:40Z</time>
      </trkpt>
      <trkpt lat="47.9283630" lon="7.5349810">
        <ele>-206.4</ele>
        <time>2022-06-03T09:38:44Z</time>
      </trkpt>
      <trkpt lat="47.9285260" lon="7.5350500">
        <ele>-205.4</ele>
        <time>2022-06-03T09:38:48Z</time>
      </trkpt>
      <trkpt lat="47.9286880" lon="7.5351300">
        <ele>-205.8</ele>
        <time>2022-06-03T09:38:52Z</time>
      </trkpt>
      <trkpt lat="47.9288480" lon="7.5351950">
        <ele>-206.2</ele>
        <time>2022-06-03T09:38:56Z</time>
      </trkpt>
      <trkpt lat="47.9290010" lon="7.5352630">
        <ele>-206.0</ele>
        <time>2022-06-03T09:39:00Z</time>
      </trkpt>
      <trkpt lat="47.9291580" lon="7.5353410">
        <ele>-205.8</ele>
        <time>2022-06-03T09:39:04Z</time>
      </trkpt>
      <trkpt lat="47.9293160" lon="7.5354160">
        <ele>-205.8</ele>
        <time>2022-06-03T09:39:08Z</time>
      </trkpt>
      <trkpt lat="47.9294800" lon="7.5354850">
        <ele>-206.0</ele>
        <time>2022-06-03T09:39:12Z</time>
      </trkpt>
      <trkpt lat="47.9296310" lon="7.5355610">
        <ele>-205.6</ele>
        <time>2022-06-03T09:39:16Z</time>
      </trkpt>
      <trkpt lat="47.9297480" lon="7.5356060">
        <ele>-205.8</ele>
        <time>2022-06-03T09:39:20Z</time>
      </trkpt>
      <trkpt lat="47.9298510" lon="7.5356700">
        <ele>-206.4</ele>
        <time>2022-06-03T09:39:24Z</time>
      </trkpt>
      <trkpt lat="47.9299350" lon="7.5357130">
        <ele>-205.8</ele>
        <time>2022-06-03T09:39:28Z</time>
      </trkpt>
      <trkpt lat="47.9299900" lon="7.5357130">
        <ele>-206.2</ele>
        <time>2022-06-03T09:39:32Z</time>
      </trkpt>
      <trkpt lat="47.9299900" lon="7.5357130">
        <ele>-206.2</ele>
        <time>2022-06-03T09:39:36Z</time>
      </trkpt>
      <trkpt lat="47.9299900" lon="7.5357130">
        <ele>-206.0</ele>
        <time>2022-06-03T09:39:40Z</time>
      </trkpt>
      <trkpt lat="47.9299900" lon="7.5357130">
        <ele>-206.0</ele>
        <time>2022-06-03T09:39:44Z</time>
      </trkpt>
      <trkpt lat="47.9299900" lon="7.5357130">
        <ele>-206.0</ele>
        <time>2022-06-03T09:39:48Z</time>
      </trkpt>
      <trkpt lat="47.9299900" lon="7.5357130">
        <ele>-206.0</ele>
        <time>2022-06-03T09:39:52Z</time>
      </trkpt>
      <trkpt lat="47.9299900" lon="7.5357130">
        <ele>-206.0</ele>
        <time>2022-06-03T09:39:56Z</time>
      </trkpt>
      <trkpt lat="47.9299900" lon="7.5357130">
        <ele>-206.0</ele>
        <time>2022-06-03T09:40:00Z</time>
      </trkpt>
      <trkpt lat="47.9299900" lon="7.5357130">
        <ele>-206.2</ele>
        <time>2022-06-03T09:40:04Z</time>
      </trkpt>
      <trkpt lat="47.9299900" lon="7.5357130">
        <ele>-206.0</ele>
        <time>2022-06-03T09:40:08Z</time>
      </trkpt>
      <trkpt lat="47.9299900" lon="7.5357130">
        <ele>-206.0</ele>
        <time>2022-06-03T09:40:12Z</time>
      </trkpt>
      <trkpt lat="47.9299900" lon="7.5357130">
        <ele>-205.8</ele>
        <time>2022-06-03T09:40:16Z</time>
      </trkpt>
      <trkpt lat="47.9299900" lon="7.5357130">
        <ele>-205.8</ele>
        <time>2022-06-03T09:40:20Z</time>
      </trkpt>
      <trkpt lat="47.9299900" lon="7.5357130">
        <ele>-205.8</ele>
        <time>2022-06-03T09:40:24Z</time>
      </trkpt>
      <trkpt lat="47.9299900" lon="7.5357130">
        <ele>-205.6</ele>
        <time>2022-06-03T09:40:28Z</time>
      </trkpt>
      <trkpt lat="47.9299900" lon="7.5357130">
        <ele>-205.6</ele>
        <time>2022-06-03T09:40:32Z</time>
      </trkpt>
      <trkpt lat="47.9299900" lon="7.5357130">
        <ele>-206.0</ele>
        <time>2022-06-03T09:40:36Z</time>
      </trkpt>
      <trkpt lat="47.9299900" lon="7.5357130">
        <ele>-205.6</ele>
        <time>2022-06-03T09:40:40Z</time>
      </trkpt>
      <trkpt lat="47.9299900" lon="7.5357130">
        <ele>-205.6</ele>
        <time>2022-06-03T09:40:44Z</time>
      </trkpt>
      <trkpt lat="47.9299900" lon="7.5357130">
        <ele>-205.6</ele>
        <time>2022-06-03T09:40:48Z</time>
      </trkpt>
      <trkpt lat="47.9299900" lon="7.5357130">
        <ele>-205.6</ele>
        <time>2022-06-03T09:40:52Z</time>
      </trkpt>
      <trkpt lat="47.9299900" lon="7.5357130">
        <ele>-206.2</ele>
        <time>2022-06-03T09:40:56Z</time>
      </trkpt>
      <trkpt lat="47.9299900" lon="7.5357130">
        <ele>-205.6</ele>
        <time>2022-06-03T09:41:00Z</time>
      </trkpt>
      <trkpt lat="47.9299900" lon="7.5357130">
        <ele>-205.8</ele>
        <time>2022-06-03T09:41:04Z</time>
      </trkpt>
      <trkpt lat="47.9300360" lon="7.5357300">
        <ele>-206.4</ele>
        <time>2022-06-03T09:41:08Z</time>
      </trkpt>
      <trkpt lat="47.9300760" lon="7.5357760">
        <ele>-205.8</ele>
        <time>2022-06-03T09:41:12Z</time>
      </trkpt>
      <trkpt lat="47.9301580" lon="7.5358160">
        <ele>-206.0</ele>
        <time>2022-06-03T09:41:16Z</time>
      </trkpt>
      <trkpt lat="47.9302680" lon="7.5358680">
        <ele>-205.2</ele>
        <time>2022-06-03T09:41:20Z</time>
      </trkpt>
      <trkpt lat="47.9304060" lon="7.5359260">
        <ele>-205.8</ele>
        <time>2022-06-03T09:41:24Z</time>
      </trkpt>
      <trkpt lat="47.9305510" lon="7.5359980">
        <ele>-205.4</ele>
        <time>2022-06-03T09:41:28Z</time>
      </trkpt>
      <trkpt lat="47.9307080" lon="7.5360780">
        <ele>-205.4</ele>
        <time>2022-06-03T09:41:32Z</time>
      </trkpt>
      <trkpt lat="47.9308710" lon="7.5361550">
        <ele>-205.6</ele>
        <time>2022-06-03T09:41:36Z</time>
      </trkpt>
      <trkpt lat="47.9310380" lon="7.5362250">
        <ele>-205.2</ele>
        <time>2022-06-03T09:41:40Z</time>
      </trkpt>
      <trkpt lat="47.9312010" lon="7.5363100">
        <ele>-206.4</ele>
        <time>2022-06-03T09:41:44Z</time>
      </trkpt>
      <trkpt lat="47.9313710" lon="7.5363880">
        <ele>-205.6</ele>
        <time>2022-06-03T09:41:48Z</time>
      </trkpt>
      <trkpt lat="47.9315330" lon="7.5364660">
        <ele>-205.6</ele>
        <time>2022-06-03T09:41:52Z</time>
      </trkpt>
      <trkpt lat="47.9317000" lon="7.5365480">
        <ele>-205.8</ele>
        <time>2022-06-03T09:41:56Z</time>
      </trkpt>
      <trkpt lat="47.9318660" lon="7.5366310">
        <ele>-205.4</ele>
        <time>2022-06-03T09:42:00Z</time>
      </trkpt>
      <trkpt lat="47.9320330" lon="7.5367130">
        <ele>-205.4</ele>
        <time>2022-06-03T09:42:04Z</time>
      </trkpt>
      <trkpt lat="47.9321980" lon="7.5367900">
        <ele>-205.8</ele>
        <time>2022-06-03T09:42:08Z</time>
      </trkpt>
      <trkpt lat="47.9323360" lon="7.5368830">
        <ele>-205.2</ele>
        <time>2022-06-03T09:42:12Z</time>
      </trkpt>
      <trkpt lat="47.9324360" lon="7.5369830">
        <ele>-205.6</ele>
        <time>2022-06-03T09:42:16Z</time>
      </trkpt>
      <trkpt lat="47.9325730" lon="7.5370510">
        <ele>-205.4</ele>
        <time>2022-06-03T09:42:20Z</time>
      </trkpt>
      <trkpt lat="47.9327330" lon="7.5371300">
        <ele>-205.4</ele>
        <time>2022-06-03T09:42:24Z</time>
      </trkpt>
      <trkpt lat="47.9328950" lon="7.5372000">
        <ele>-205.2</ele>
        <time>2022-06-03T09:42:28Z</time>
      </trkpt>
      <trkpt lat="47.9330260" lon="7.5371910">
        <ele>-205.4</ele>
        <time>2022-06-03T09:42:32Z</time>
      </trkpt>
      <trkpt lat="47.9331430" lon="7.5372430">
        <ele>-205.6</ele>
        <time>2022-06-03T09:42:36Z</time>
      </trkpt>
      <trkpt lat="47.9333050" lon="7.5373110">
        <ele>-206.4</ele>
        <time>2022-06-03T09:42:40Z</time>
      </trkpt>
      <trkpt lat="47.9334910" lon="7.5373910">
        <ele>-205.2</ele>
        <time>2022-06-03T09:42:44Z</time>
      </trkpt>
      <trkpt lat="47.9336660" lon="7.5374730">
        <ele>-206.2</ele>
        <time>2022-06-03T09:42:48Z</time>
      </trkpt>
      <trkpt lat="47.9338600" lon="7.5375600">
        <ele>-205.4</ele>
        <time>2022-06-03T09:42:52Z</time>
      </trkpt>
      <trkpt lat="47.9340580" lon="7.5376610">
        <ele>-206.0</ele>
        <time>2022-06-03T09:42:56Z</time>
      </trkpt>
      <trkpt lat="47.9342360" lon="7.5377450">
        <ele>-206.4</ele>
        <time>2022-06-03T09:43:00Z</time>
      </trkpt>
      <trkpt lat="47.9344100" lon="7.5378230">
        <ele>-206.4</ele>
        <time>2022-06-03T09:43:04Z</time>
      </trkpt>
      <trkpt lat="47.9345780" lon="7.5379060">
        <ele>-205.8</ele>
        <time>2022-06-03T09:43:08Z</time>
      </trkpt>
      <trkpt lat="47.9347480" lon="7.5379810">
        <ele>-206.0</ele>
        <time>2022-06-03T09:43:12Z</time>
      </trkpt>
      <trkpt lat="47.9349100" lon="7.5380580">
        <ele>-206.4</ele>
        <time>2022-06-03T09:43:16Z</time>
      </trkpt>
      <trkpt lat="47.9350810" lon="7.5381330">
        <ele>-205.6</ele>
        <time>2022-06-03T09:43:20Z</time>
      </trkpt>
      <trkpt lat="47.9352410" lon="7.5382050">
        <ele>-206.6</ele>
        <time>2022-06-03T09:43:24Z</time>
      </trkpt>
      <trkpt lat="47.9353950" lon="7.5382880">
        <ele>-206.4</ele>
        <time>2022-06-03T09:43:28Z</time>
      </trkpt>
      <trkpt lat="47.9355580" lon="7.5383550">
        <ele>-206.2</ele>
        <time>2022-06-03T09:43:32Z</time>
      </trkpt>
      <trkpt lat="47.9357350" lon="7.5384460">
        <ele>-205.4</ele>
        <time>2022-06-03T09:43:36Z</time>
      </trkpt>
      <trkpt lat="47.9359030" lon="7.5385330">
        <ele>-205.4</ele>
        <time>2022-06-03T09:43:40Z</time>
      </trkpt>
      <trkpt lat="47.9360700" lon="7.5386230">
        <ele>-205.8</ele>
        <time>2022-06-03T09:43:44Z</time>
      </trkpt>
      <trkpt lat="47.9362380" lon="7.5387010">
        <ele>-205.4</ele>
        <time>2022-06-03T09:43:48Z</time>
      </trkpt>
      <trkpt lat="47.9364050" lon="7.5387800">
        <ele>-205.4</ele>
        <time>2022-06-03T09:43:52Z</time>
      </trkpt>
      <trkpt lat="47.9365730" lon="7.5388600">
        <ele>-205.6</ele>
        <time>2022-06-03T09:43:56Z</time>
      </trkpt>
      <trkpt lat="47.9367380" lon="7.5389380">
        <ele>-205.6</ele>
        <time>2022-06-03T09:44:00Z</time>
      </trkpt>
      <trkpt lat="47.9368930" lon="7.5390130">
        <ele>-205.4</ele>
        <time>2022-06-03T09:44:04Z</time>
      </trkpt>
      <trkpt lat="47.9370310" lon="7.5390830">
        <ele>-206.6</ele>
        <time>2022-06-03T09:44:08Z</time>
      </trkpt>
      <trkpt lat="47.9371760" lon="7.5391480">
        <ele>-206.4</ele>
        <time>2022-06-03T09:44:12Z</time>
      </trkpt>
      <trkpt lat="47.9373360" lon="7.5392200">
        <ele>-205.8</ele>
        <time>2022-06-03T09:44:16Z</time>
      </trkpt>
      <trkpt lat="47.9374980" lon="7.5392950">
        <ele>-206.0</ele>
        <time>2022-06-03T09:44:20Z</time>
      </trkpt>
      <trkpt lat="47.9376610" lon="7.5393780">
        <ele>-207.2</ele>
        <time>2022-06-03T09:44:24Z</time>
      </trkpt>
      <trkpt lat="47.9378280" lon="7.5394500">
        <ele>-207.6</ele>
        <time>2022-06-03T09:44:28Z</time>
      </trkpt>
      <trkpt lat="47.9380030" lon="7.5395310">
        <ele>-206.0</ele>
        <time>2022-06-03T09:44:32Z</time>
      </trkpt>
      <trkpt lat="47.9381710" lon="7.5396150">
        <ele>-207.4</ele>
        <time>2022-06-03T09:44:36Z</time>
      </trkpt>
      <trkpt lat="47.9383380" lon="7.5396950">
        <ele>-206.4</ele>
        <time>2022-06-03T09:44:40Z</time>
      </trkpt>
      <trkpt lat="47.9385130" lon="7.5397760">
        <ele>-206.6</ele>
        <time>2022-06-03T09:44:44Z</time>
      </trkpt>
      <trkpt lat="47.9386950" lon="7.5398650">
        <ele>-206.6</ele>
        <time>2022-06-03T09:44:48Z</time>
      </trkpt>
      <trkpt lat="47.9388780" lon="7.5399560">
        <ele>-207.2</ele>
        <time>2022-06-03T09:44:52Z</time>
      </trkpt>
      <trkpt lat="47.9390680" lon="7.5400460">
        <ele>-207.2</ele>
        <time>2022-06-03T09:44:56Z</time>
      </trkpt>
      <trkpt lat="47.9392530" lon="7.5401360">
        <ele>-207.8</ele>
        <time>2022-06-03T09:45:00Z</time>
      </trkpt>
      <trkpt lat="47.9394330" lon="7.5402280">
        <ele>-208.0</ele>
        <time>2022-06-03T09:45:04Z</time>
      </trkpt>
      <trkpt lat="47.9396150" lon="7.5403200">
        <ele>-207.6</ele>
        <time>2022-06-03T09:45:08Z</time>
      </trkpt>
      <trkpt lat="47.9397860" lon="7.5404080">
        <ele>-208.6</ele>
        <time>2022-06-03T09:45:12Z</time>
      </trkpt>
      <trkpt lat="47.9399610" lon="7.5404810">
        <ele>-209.0</ele>
        <time>2022-06-03T09:45:16Z</time>
      </trkpt>
      <trkpt lat="47.9401330" lon="7.5405600">
        <ele>-208.8</ele>
        <time>2022-06-03T09:45:20Z</time>
      </trkpt>
      <trkpt lat="47.9403110" lon="7.5406450">
        <ele>-207.2</ele>
        <time>2022-06-03T09:45:24Z</time>
      </trkpt>
      <trkpt lat="47.9404760" lon="7.5407280">
        <ele>-207.8</ele>
        <time>2022-06-03T09:45:28Z</time>
      </trkpt>
      <trkpt lat="47.9406510" lon="7.5408150">
        <ele>-208.0</ele>
        <time>2022-06-03T09:45:32Z</time>
      </trkpt>
      <trkpt lat="47.9408250" lon="7.5408900">
        <ele>-208.4</ele>
        <time>2022-06-03T09:45:36Z</time>
      </trkpt>
      <trkpt lat="47.9409950" lon="7.5409760">
        <ele>-207.6</ele>
        <time>2022-06-03T09:45:40Z</time>
      </trkpt>
      <trkpt lat="47.9411660" lon="7.5410560">
        <ele>-207.8</ele>
        <time>2022-06-03T09:45:44Z</time>
      </trkpt>
      <trkpt lat="47.9413410" lon="7.5411350">
        <ele>-207.4</ele>
        <time>2022-06-03T09:45:48Z</time>
      </trkpt>
      <trkpt lat="47.9415130" lon="7.5412160">
        <ele>-208.2</ele>
        <time>2022-06-03T09:45:52Z</time>
      </trkpt>
      <trkpt lat="47.9416900" lon="7.5412910">
        <ele>-207.6</ele>
        <time>2022-06-03T09:45:56Z</time>
      </trkpt>
      <trkpt lat="47.9418610" lon="7.5413730">
        <ele>-208.8</ele>
        <time>2022-06-03T09:46:00Z</time>
      </trkpt>
      <trkpt lat="47.9420250" lon="7.5414500">
        <ele>-207.8</ele>
        <time>2022-06-03T09:46:04Z</time>
      </trkpt>
      <trkpt lat="47.9421880" lon="7.5415250">
        <ele>-208.0</ele>
        <time>2022-06-03T09:46:08Z</time>
      </trkpt>
      <trkpt lat="47.9423580" lon="7.5416030">
        <ele>-208.2</ele>
        <time>2022-06-03T09:46:12Z</time>
      </trkpt>
      <trkpt lat="47.9425250" lon="7.5416850">
        <ele>-209.0</ele>
        <time>2022-06-03T09:46:16Z</time>
      </trkpt>
      <trkpt lat="47.9426960" lon="7.5417680">
        <ele>-208.0</ele>
        <time>2022-06-03T09:46:20Z</time>
      </trkpt>
      <trkpt lat="47.9428680" lon="7.5418480">
        <ele>-209.4</ele>
        <time>2022-06-03T09:46:24Z</time>
      </trkpt>
      <trkpt lat="47.9430410" lon="7.5419280">
        <ele>-209.2</ele>
        <time>2022-06-03T09:46:28Z</time>
      </trkpt>
      <trkpt lat="47.9432110" lon="7.5420110">
        <ele>-209.0</ele>
        <time>2022-06-03T09:46:32Z</time>
      </trkpt>
      <trkpt lat="47.9433750" lon="7.5420910">
        <ele>-208.4</ele>
        <time>2022-06-03T09:46:36Z</time>
      </trkpt>
      <trkpt lat="47.9435410" lon="7.5421730">
        <ele>-208.8</ele>
        <time>2022-06-03T09:46:40Z</time>
      </trkpt>
      <trkpt lat="47.9436980" lon="7.5422500">
        <ele>-208.6</ele>
        <time>2022-06-03T09:46:44Z</time>
      </trkpt>
      <trkpt lat="47.9438530" lon="7.5423250">
        <ele>-209.0</ele>
        <time>2022-06-03T09:46:48Z</time>
      </trkpt>
      <trkpt lat="47.9439980" lon="7.5423910">
        <ele>-209.0</ele>
        <time>2022-06-03T09:46:52Z</time>
      </trkpt>
      <trkpt lat="47.9441330" lon="7.5424480">
        <ele>-208.8</ele>
        <time>2022-06-03T09:46:56Z</time>
      </trkpt>
      <trkpt lat="47.9442760" lon="7.5424050">
        <ele>-209.6</ele>
        <time>2022-06-03T09:47:00Z</time>
      </trkpt>
      <trkpt lat="47.9444100" lon="7.5422200">
        <ele>-209.8</ele>
        <time>2022-06-03T09:47:04Z</time>
      </trkpt>
      <trkpt lat="47.9445450" lon="7.5420260">
        <ele>-209.4</ele>
        <time>2022-06-03T09:47:08Z</time>
      </trkpt>
      <trkpt lat="47.9446810" lon="7.5418410">
        <ele>-210.0</ele>
        <time>2022-06-03T09:47:12Z</time>
      </trkpt>
      <trkpt lat="47.9448230" lon="7.5416460">
        <ele>-209.4</ele>
        <time>2022-06-03T09:47:16Z</time>
      </trkpt>
      <trkpt lat="47.9449580" lon="7.5414550">
        <ele>-209.6</ele>
        <time>2022-06-03T09:47:20Z</time>
      </trkpt>
      <trkpt lat="47.9450780" lon="7.5412810">
        <ele>-209.4</ele>
        <time>2022-06-03T09:47:24Z</time>
      </trkpt>
      <trkpt lat="47.9451960" lon="7.5411230">
        <ele>-208.8</ele>
        <time>2022-06-03T09:47:28Z</time>
      </trkpt>
      <trkpt lat="47.9453250" lon="7.5409610">
        <ele>-208.6</ele>
        <time>2022-06-03T09:47:32Z</time>
      </trkpt>
      <trkpt lat="47.9454550" lon="7.5407660">
        <ele>-208.4</ele>
        <time>2022-06-03T09:47:36Z</time>
      </trkpt>
      <trkpt lat="47.9455810" lon="7.5405630">
        <ele>-208.4</ele>
        <time>2022-06-03T09:47:40Z</time>
      </trkpt>
      <trkpt lat="47.9456910" lon="7.5403580">
        <ele>-208.0</ele>
        <time>2022-06-03T09:47:44Z</time>
      </trkpt>
      <trkpt lat="47.9457860" lon="7.5401430">
        <ele>-208.0</ele>
        <time>2022-06-03T09:47:48Z</time>
      </trkpt>
      <trkpt lat="47.9458700" lon="7.5398980">
        <ele>-208.6</ele>
        <time>2022-06-03T09:47:52Z</time>
      </trkpt>
      <trkpt lat="47.9459560" lon="7.5396380">
        <ele>-208.8</ele>
        <time>2022-06-03T09:47:56Z</time>
      </trkpt>
      <trkpt lat="47.9460410" lon="7.5393850">
        <ele>-209.2</ele>
        <time>2022-06-03T09:48:00Z</time>
      </trkpt>
      <trkpt lat="47.9461380" lon="7.5391660">
        <ele>-208.8</ele>
        <time>2022-06-03T09:48:04Z</time>
      </trkpt>
      <trkpt lat="47.9462350" lon="7.5389660">
        <ele>-208.6</ele>
        <time>2022-06-03T09:48:08Z</time>
      </trkpt>
      <trkpt lat="47.9463450" lon="7.5387750">
        <ele>-208.2</ele>
        <time>2022-06-03T09:48:12Z</time>
      </trkpt>
      <trkpt lat="47.9464700" lon="7.5385830">
        <ele>-207.4</ele>
        <time>2022-06-03T09:48:16Z</time>
      </trkpt>
      <trkpt lat="47.9465960" lon="7.5383900">
        <ele>-208.2</ele>
        <time>2022-06-03T09:48:20Z</time>
      </trkpt>
      <trkpt lat="47.9467360" lon="7.5382110">
        <ele>-208.2</ele>
        <time>2022-06-03T09:48:24Z</time>
      </trkpt>
      <trkpt lat="47.9468800" lon="7.5380360">
        <ele>-208.4</ele>
        <time>2022-06-03T09:48:28Z</time>
      </trkpt>
      <trkpt lat="47.9470350" lon="7.5378900">
        <ele>-208.4</ele>
        <time>2022-06-03T09:48:32Z</time>
      </trkpt>
      <trkpt lat="47.9472000" lon="7.5377530">
        <ele>-208.4</ele>
        <time>2022-06-03T09:48:36Z</time>
      </trkpt>
      <trkpt lat="47.9473800" lon="7.5376360">
        <ele>-208.4</ele>
        <time>2022-06-03T09:48:40Z</time>
      </trkpt>
      <trkpt lat="47.9475600" lon="7.5375210">
        <ele>-208.2</ele>
        <time>2022-06-03T09:48:44Z</time>
      </trkpt>
      <trkpt lat="47.9477380" lon="7.5374030">
        <ele>-208.8</ele>
        <time>2022-06-03T09:48:48Z</time>
      </trkpt>
      <trkpt lat="47.9479230" lon="7.5372960">
        <ele>-209.0</ele>
        <time>2022-06-03T09:48:52Z</time>
      </trkpt>
      <trkpt lat="47.9481050" lon="7.5372110">
        <ele>-209.0</ele>
        <time>2022-06-03T09:48:56Z</time>
      </trkpt>
      <trkpt lat="47.9482810" lon="7.5371550">
        <ele>-208.4</ele>
        <time>2022-06-03T09:49:00Z</time>
      </trkpt>
      <trkpt lat="47.9484710" lon="7.5371080">
        <ele>-208.4</ele>
        <time>2022-06-03T09:49:04Z</time>
      </trkpt>
      <trkpt lat="47.9486550" lon="7.5370630">
        <ele>-207.8</ele>
        <time>2022-06-03T09:49:08Z</time>
      </trkpt>
      <trkpt lat="47.9488310" lon="7.5370230">
        <ele>-208.8</ele>
        <time>2022-06-03T09:49:12Z</time>
      </trkpt>
      <trkpt lat="47.9490080" lon="7.5370060">
        <ele>-208.4</ele>
        <time>2022-06-03T09:49:16Z</time>
      </trkpt>
      <trkpt lat="47.9491900" lon="7.5369860">
        <ele>-208.4</ele>
        <time>2022-06-03T09:49:20Z</time>
      </trkpt>
      <trkpt lat="47.9493800" lon="7.5369660">
        <ele>-209.4</ele>
        <time>2022-06-03T09:49:24Z</time>
      </trkpt>
      <trkpt lat="47.9495800" lon="7.5369660">
        <ele>-208.4</ele>
        <time>2022-06-03T09:49:28Z</time>
      </trkpt>
      <trkpt lat="47.9497530" lon="7.5370050">
        <ele>-208.2</ele>
        <time>2022-06-03T09:49:32Z</time>
      </trkpt>
      <trkpt lat="47.9499030" lon="7.5370460">
        <ele>-207.0</ele>
        <time>2022-06-03T09:49:36Z</time>
      </trkpt>
      <trkpt lat="47.9500480" lon="7.5370860">
        <ele>-206.6</ele>
        <time>2022-06-03T09:49:40Z</time>
      </trkpt>
      <trkpt lat="47.9502010" lon="7.5371530">
        <ele>-206.2</ele>
        <time>2022-06-03T09:49:44Z</time>
      </trkpt>
      <trkpt lat="47.9503600" lon="7.5372180">
        <ele>-206.0</ele>
        <time>2022-06-03T09:49:48Z</time>
      </trkpt>
      <trkpt lat="47.9505280" lon="7.5372980">
        <ele>-205.6</ele>
        <time>2022-06-03T09:49:52Z</time>
      </trkpt>
      <trkpt lat="47.9507050" lon="7.5373700">
        <ele>-206.2</ele>
        <time>2022-06-03T09:49:56Z</time>
      </trkpt>
      <trkpt lat="47.9508930" lon="7.5374450">
        <ele>-206.0</ele>
        <time>2022-06-03T09:50:00Z</time>
      </trkpt>
      <trkpt lat="47.9510860" lon="7.5374980">
        <ele>-206.6</ele>
        <time>2022-06-03T09:50:04Z</time>
      </trkpt>
      <trkpt lat="47.9512800" lon="7.5375480">
        <ele>-207.0</ele>
        <time>2022-06-03T09:50:08Z</time>
      </trkpt>
      <trkpt lat="47.9514700" lon="7.5375810">
        <ele>-206.6</ele>
        <time>2022-06-03T09:50:12Z</time>
      </trkpt>
      <trkpt lat="47.9516500" lon="7.5375880">
        <ele>-206.8</ele>
        <time>2022-06-03T09:50:16Z</time>
      </trkpt>
      <trkpt lat="47.9518280" lon="7.5375730">
        <ele>-207.2</ele>
        <time>2022-06-03T09:50:20Z</time>
      </trkpt>
      <trkpt lat="47.9520110" lon="7.5375560">
        <ele>-206.6</ele>
        <time>2022-06-03T09:50:24Z</time>
      </trkpt>
      <trkpt lat="47.9521930" lon="7.5375380">
        <ele>-207.2</ele>
        <time>2022-06-03T09:50:28Z</time>
      </trkpt>
      <trkpt lat="47.9523800" lon="7.5375250">
        <ele>-206.6</ele>
        <time>2022-06-03T09:50:32Z</time>
      </trkpt>
      <trkpt lat="47.9525680" lon="7.5375110">
        <ele>-208.0</ele>
        <time>2022-06-03T09:50:36Z</time>
      </trkpt>
      <trkpt lat="47.9527550" lon="7.5374930">
        <ele>-207.4</ele>
        <time>2022-06-03T09:50:40Z</time>
      </trkpt>
      <trkpt lat="47.9529360" lon="7.5374750">
        <ele>-206.6</ele>
        <time>2022-06-03T09:50:44Z</time>
      </trkpt>
      <trkpt lat="47.9531110" lon="7.5374550">
        <ele>-207.2</ele>
        <time>2022-06-03T09:50:48Z</time>
      </trkpt>
      <trkpt lat="47.9532850" lon="7.5374430">
        <ele>-206.6</ele>
        <time>2022-06-03T09:50:52Z</time>
      </trkpt>
      <trkpt lat="47.9534550" lon="7.5374280">
        <ele>-206.6</ele>
        <time>2022-06-03T09:50:56Z</time>
      </trkpt>
      <trkpt lat="47.9536350" lon="7.5374130">
        <ele>-206.6</ele>
        <time>2022-06-03T09:51:00Z</time>
      </trkpt>
      <trkpt lat="47.9538230" lon="7.5374210">
        <ele>-206.8</ele>
        <time>2022-06-03T09:51:04Z</time>
      </trkpt>
      <trkpt lat="47.9540180" lon="7.5374230">
        <ele>-207.2</ele>
        <time>2022-06-03T09:51:08Z</time>
      </trkpt>
      <trkpt lat="47.9542200" lon="7.5374330">
        <ele>-207.8</ele>
        <time>2022-06-03T09:51:12Z</time>
      </trkpt>
      <trkpt lat="47.9544310" lon="7.5374560">
        <ele>-208.2</ele>
        <time>2022-06-03T09:51:16Z</time>
      </trkpt>
      <trkpt lat="47.9546500" lon="7.5374880">
        <ele>-208.6</ele>
        <time>2022-06-03T09:51:20Z</time>
      </trkpt>
      <trkpt lat="47.9548660" lon="7.5375380">
        <ele>-208.4</ele>
        <time>2022-06-03T09:51:24Z</time>
      </trkpt>
      <trkpt lat="47.9550710" lon="7.5375810">
        <ele>-208.0</ele>
        <time>2022-06-03T09:51:28Z</time>
      </trkpt>
      <trkpt lat="47.9552750" lon="7.5376130">
        <ele>-208.6</ele>
        <time>2022-06-03T09:51:32Z</time>
      </trkpt>
      <trkpt lat="47.9554710" lon="7.5376500">
        <ele>-207.4</ele>
        <time>2022-06-03T09:51:36Z</time>
      </trkpt>
      <trkpt lat="47.9556700" lon="7.5376860">
        <ele>-207.0</ele>
        <time>2022-06-03T09:51:40Z</time>
      </trkpt>
      <trkpt lat="47.9558650" lon="7.5377210">
        <ele>-207.8</ele>
        <time>2022-06-03T09:51:44Z</time>
      </trkpt>
      <trkpt lat="47.9560630" lon="7.5377580">
        <ele>-208.4</ele>
        <time>2022-06-03T09:51:48Z</time>
      </trkpt>
      <trkpt lat="47.9562630" lon="7.5377980">
        <ele>-208.4</ele>
        <time>2022-06-03T09:51:52Z</time>
      </trkpt>
      <trkpt lat="47.9564610" lon="7.5378310">
        <ele>-207.4</ele>
        <time>2022-06-03T09:51:56Z</time>
      </trkpt>
      <trkpt lat="47.9566580" lon="7.5378780">
        <ele>-208.2</ele>
        <time>2022-06-03T09:52:00Z</time>
      </trkpt>
      <trkpt lat="47.9568530" lon="7.5379250">
        <ele>-207.2</ele>
        <time>2022-06-03T09:52:04Z</time>
      </trkpt>
      <trkpt lat="47.9570510" lon="7.5379650">
        <ele>-207.2</ele>
        <time>2022-06-03T09:52:08Z</time>
      </trkpt>
      <trkpt lat="47.9572460" lon="7.5380000">
        <ele>-207.6</ele>
        <time>2022-06-03T09:52:12Z</time>
      </trkpt>
      <trkpt lat="47.9574380" lon="7.5380310">
        <ele>-208.4</ele>
        <time>2022-06-03T09:52:16Z</time>
      </trkpt>
      <trkpt lat="47.9576300" lon="7.5380530">
        <ele>-208.0</ele>
        <time>2022-06-03T09:52:20Z</time>
      </trkpt>
      <trkpt lat="47.9578150" lon="7.5380650">
        <ele>-208.6</ele>
        <time>2022-06-03T09:52:24Z</time>
      </trkpt>
      <trkpt lat="47.9579930" lon="7.5380530">
        <ele>-208.4</ele>
        <time>2022-06-03T09:52:28Z</time>
      </trkpt>
      <trkpt lat="47.9581800" lon="7.5380180">
        <ele>-208.2</ele>
        <time>2022-06-03T09:52:32Z</time>
      </trkpt>
      <trkpt lat="47.9583630" lon="7.5379600">
        <ele>-208.6</ele>
        <time>2022-06-03T09:52:36Z</time>
      </trkpt>
      <trkpt lat="47.9585460" lon="7.5379030">
        <ele>-208.4</ele>
        <time>2022-06-03T09:52:40Z</time>
      </trkpt>
      <trkpt lat="47.9587250" lon="7.5378380">
        <ele>-208.0</ele>
        <time>2022-06-03T09:52:44Z</time>
      </trkpt>
      <trkpt lat="47.9589050" lon="7.5377760">
        <ele>-208.4</ele>
        <time>2022-06-03T09:52:48Z</time>
      </trkpt>
      <trkpt lat="47.9590910" lon="7.5377160">
        <ele>-209.0</ele>
        <time>2022-06-03T09:52:52Z</time>
      </trkpt>
      <trkpt lat="47.9592700" lon="7.5376500">
        <ele>-209.2</ele>
        <time>2022-06-03T09:52:56Z</time>
      </trkpt>
      <trkpt lat="47.9594500" lon="7.5375830">
        <ele>-209.8</ele>
        <time>2022-06-03T09:53:00Z</time>
      </trkpt>
      <trkpt lat="47.9596310" lon="7.5375130">
        <ele>-209.0</ele>
        <time>2022-06-03T09:53:04Z</time>
      </trkpt>
      <trkpt lat="47.9598130" lon="7.5374310">
        <ele>-209.0</ele>
        <time>2022-06-03T09:53:08Z</time>
      </trkpt>
      <trkpt lat="47.9599930" lon="7.5373650">
        <ele>-209.2</ele>
        <time>2022-06-03T09:53:12Z</time>
      </trkpt>
      <trkpt lat="47.9601730" lon="7.5372880">
        <ele>-208.4</ele>
        <time>2022-06-03T09:53:16Z</time>
      </trkpt>
      <trkpt lat="47.9603480" lon="7.5372180">
        <ele>-208.6</ele>
        <time>2022-06-03T09:53:20Z</time>
      </trkpt>
      <trkpt lat="47.9605210" lon="7.5371450">
        <ele>-208.6</ele>
        <time>2022-06-03T09:53:24Z</time>
      </trkpt>
      <trkpt lat="47.9607000" lon="7.5370800">
        <ele>-209.2</ele>
        <time>2022-06-03T09:53:28Z</time>
      </trkpt>
      <trkpt lat="47.9608710" lon="7.5370130">
        <ele>-209.0</ele>
        <time>2022-06-03T09:53:32Z</time>
      </trkpt>
      <trkpt lat="47.9610400" lon="7.5369400">
        <ele>-208.8</ele>
        <time>2022-06-03T09:53:36Z</time>
      </trkpt>
      <trkpt lat="47.9612050" lon="7.5368680">
        <ele>-208.2</ele>
        <time>2022-06-03T09:53:40Z</time>
      </trkpt>
      <trkpt lat="47.9613680" lon="7.5367830">
        <ele>-209.0</ele>
        <time>2022-06-03T09:53:44Z</time>
      </trkpt>
      <trkpt lat="47.9615330" lon="7.5366930">
        <ele>-209.0</ele>
        <time>2022-06-03T09:53:48Z</time>
      </trkpt>
      <trkpt lat="47.9617060" lon="7.5366010">
        <ele>-208.4</ele>
        <time>2022-06-03T09:53:52Z</time>
      </trkpt>
      <trkpt lat="47.9618730" lon="7.5365050">
        <ele>-208.4</ele>
        <time>2022-06-03T09:53:56Z</time>
      </trkpt>
      <trkpt lat="47.9620360" lon="7.5364100">
        <ele>-209.4</ele>
        <time>2022-06-03T09:54:00Z</time>
      </trkpt>
      <trkpt lat="47.9622050" lon="7.5363210">
        <ele>-209.0</ele>
        <time>2022-06-03T09:54:04Z</time>
      </trkpt>
      <trkpt lat="47.9623710" lon="7.5362250">
        <ele>-209.4</ele>
        <time>2022-06-03T09:54:08Z</time>
      </trkpt>
      <trkpt lat="47.9625450" lon="7.5361460">
        <ele>-209.0</ele>
        <time>2022-06-03T09:54:12Z</time>
      </trkpt>
      <trkpt lat="47.9627200" lon="7.5360910">
        <ele>-209.2</ele>
        <time>2022-06-03T09:54:16Z</time>
      </trkpt>
      <trkpt lat="47.9628950" lon="7.5360580">
        <ele>-209.0</ele>
        <time>2022-06-03T09:54:20Z</time>
      </trkpt>
      <trkpt lat="47.9630560" lon="7.5360580">
        <ele>-209.8</ele>
        <time>2022-06-03T09:54:24Z</time>
      </trkpt>
      <trkpt lat="47.9632330" lon="7.5360460">
        <ele>-210.2</ele>
        <time>2022-06-03T09:54:28Z</time>
      </trkpt>
      <trkpt lat="47.9634050" lon="7.5359900">
        <ele>-208.8</ele>
        <time>2022-06-03T09:54:32Z</time>
      </trkpt>
      <trkpt lat="47.9635800" lon="7.5359730">
        <ele>-209.2</ele>
        <time>2022-06-03T09:54:36Z</time>
      </trkpt>
      <trkpt lat="47.9637580" lon="7.5359680">
        <ele>-209.2</ele>
        <time>2022-06-03T09:54:40Z</time>
      </trkpt>
      <trkpt lat="47.9639260" lon="7.5359700">
        <ele>-209.4</ele>
        <time>2022-06-03T09:54:44Z</time>
      </trkpt>
      <trkpt lat="47.9640830" lon="7.5359660">
        <ele>-209.4</ele>
        <time>2022-06-03T09:54:48Z</time>
      </trkpt>
      <trkpt lat="47.9642160" lon="7.5359730">
        <ele>-209.2</ele>
        <time>2022-06-03T09:54:52Z</time>
      </trkpt>
      <trkpt lat="47.9643360" lon="7.5359760">
        <ele>-208.6</ele>
        <time>2022-06-03T09:54:56Z</time>
      </trkpt>
      <trkpt lat="47.9644260" lon="7.5360500">
        <ele>-209.0</ele>
        <time>2022-06-03T09:55:00Z</time>
      </trkpt>
      <trkpt lat="47.9645480" lon="7.5361130">
        <ele>-208.8</ele>
        <time>2022-06-03T09:55:04Z</time>
      </trkpt>
      <trkpt lat="47.9647010" lon="7.5361380">
        <ele>-209.0</ele>
        <time>2022-06-03T09:55:08Z</time>
      </trkpt>
      <trkpt lat="47.9648730" lon="7.5361610">
        <ele>-208.4</ele>
        <time>2022-06-03T09:55:12Z</time>
      </trkpt>
      <trkpt lat="47.9650480" lon="7.5362000">
        <ele>-208.4</ele>
        <time>2022-06-03T09:55:16Z</time>
      </trkpt>
      <trkpt lat="47.9652200" lon="7.5362230">
        <ele>-208.6</ele>
        <time>2022-06-03T09:55:20Z</time>
      </trkpt>
      <trkpt lat="47.9653950" lon="7.5362660">
        <ele>-208.8</ele>
        <time>2022-06-03T09:55:24Z</time>
      </trkpt>
      <trkpt lat="47.9655750" lon="7.5363010">
        <ele>-208.4</ele>
        <time>2022-06-03T09:55:28Z</time>
      </trkpt>
      <trkpt lat="47.9657530" lon="7.5363280">
        <ele>-208.4</ele>
        <time>2022-06-03T09:55:32Z</time>
      </trkpt>
      <trkpt lat="47.9659350" lon="7.5363510">
        <ele>-209.2</ele>
        <time>2022-06-03T09:55:36Z</time>
      </trkpt>
      <trkpt lat="47.9661180" lon="7.5363660">
        <ele>-209.4</ele>
        <time>2022-06-03T09:55:40Z</time>
      </trkpt>
      <trkpt lat="47.9663050" lon="7.5363850">
        <ele>-209.2</ele>
        <time>2022-06-03T09:55:44Z</time>
      </trkpt>
      <trkpt lat="47.9664880" lon="7.5363950">
        <ele>-209.4</ele>
        <time>2022-06-03T09:55:48Z</time>
      </trkpt>
      <trkpt lat="47.9666760" lon="7.5364010">
        <ele>-210.0</ele>
        <time>2022-06-03T09:55:52Z</time>
      </trkpt>
      <trkpt lat="47.9668680" lon="7.5364180">
        <ele>-209.0</ele>
        <time>2022-06-03T09:55:56Z</time>
      </trkpt>
      <trkpt lat="47.9670550" lon="7.5364230">
        <ele>-209.2</ele>
        <time>2022-06-03T09:56:00Z</time>
      </trkpt>
      <trkpt lat="47.9672410" lon="7.5364250">
        <ele>-209.4</ele>
        <time>2022-06-03T09:56:04Z</time>
      </trkpt>
      <trkpt lat="47.9674260" lon="7.5364300">
        <ele>-209.6</ele>
        <time>2022-06-03T09:56:08Z</time>
      </trkpt>
      <trkpt lat="47.9676080" lon="7.5364300">
        <ele>-209.8</ele>
        <time>2022-06-03T09:56:12Z</time>
      </trkpt>
      <trkpt lat="47.9677750" lon="7.5364450">
        <ele>-209.4</ele>
        <time>2022-06-03T09:56:16Z</time>
      </trkpt>
      <trkpt lat="47.9679380" lon="7.5364600">
        <ele>-209.6</ele>
        <time>2022-06-03T09:56:20Z</time>
      </trkpt>
      <trkpt lat="47.9681050" lon="7.5365010">
        <ele>-209.4</ele>
        <time>2022-06-03T09:56:24Z</time>
      </trkpt>
      <trkpt lat="47.9682700" lon="7.5365730">
        <ele>-209.4</ele>
        <time>2022-06-03T09:56:28Z</time>
      </trkpt>
      <trkpt lat="47.9684250" lon="7.5366730">
        <ele>-210.0</ele>
        <time>2022-06-03T09:56:32Z</time>
      </trkpt>
      <trkpt lat="47.9685830" lon="7.5367910">
        <ele>-209.4</ele>
        <time>2022-06-03T09:56:36Z</time>
      </trkpt>
      <trkpt lat="47.9687400" lon="7.5369280">
        <ele>-210.2</ele>
        <time>2022-06-03T09:56:40Z</time>
      </trkpt>
      <trkpt lat="47.9688980" lon="7.5370750">
        <ele>-210.6</ele>
        <time>2022-06-03T09:56:44Z</time>
      </trkpt>
      <trkpt lat="47.9690400" lon="7.5372430">
        <ele>-211.4</ele>
        <time>2022-06-03T09:56:48Z</time>
      </trkpt>
      <trkpt lat="47.9691750" lon="7.5374430">
        <ele>-211.0</ele>
        <time>2022-06-03T09:56:52Z</time>
      </trkpt>
      <trkpt lat="47.9692980" lon="7.5376530">
        <ele>-211.2</ele>
        <time>2022-06-03T09:56:56Z</time>
      </trkpt>
      <trkpt lat="47.9694200" lon="7.5378600">
        <ele>-210.6</ele>
        <time>2022-06-03T09:57:00Z</time>
      </trkpt>
      <trkpt lat="47.9695260" lon="7.5380750">
        <ele>-211.4</ele>
        <time>2022-06-03T09:57:04Z</time>
      </trkpt>
      <trkpt lat="47.9696250" lon="7.5383050">
        <ele>-211.2</ele>
        <time>2022-06-03T09:57:08Z</time>
      </trkpt>
      <trkpt lat="47.9697060" lon="7.5385480">
        <ele>-211.2</ele>
        <time>2022-06-03T09:57:12Z</time>
      </trkpt>
      <trkpt lat="47.9697510" lon="7.5388000">
        <ele>-210.8</ele>
        <time>2022-06-03T09:57:16Z</time>
      </trkpt>
      <trkpt lat="47.9697960" lon="7.5390500">
        <ele>-210.6</ele>
        <time>2022-06-03T09:57:20Z</time>
      </trkpt>
      <trkpt lat="47.9698560" lon="7.5392800">
        <ele>-210.2</ele>
        <time>2022-06-03T09:57:24Z</time>
      </trkpt>
      <trkpt lat="47.9698380" lon="7.5395100">
        <ele>-211.2</ele>
        <time>2022-06-03T09:57:28Z</time>
      </trkpt>
      <trkpt lat="47.9697730" lon="7.5397780">
        <ele>-211.2</ele>
        <time>2022-06-03T09:57:32Z</time>
      </trkpt>
      <trkpt lat="47.9697050" lon="7.5400880">
        <ele>-212.2</ele>
        <time>2022-06-03T09:57:36Z</time>
      </trkpt>
      <trkpt lat="47.9696280" lon="7.5404080">
        <ele>-213.2</ele>
        <time>2022-06-03T09:57:40Z</time>
      </trkpt>
      <trkpt lat="47.9695560" lon="7.5407250">
        <ele>-213.0</ele>
        <time>2022-06-03T09:57:44Z</time>
      </trkpt>
      <trkpt lat="47.9694880" lon="7.5410430">
        <ele>-213.8</ele>
        <time>2022-06-03T09:57:48Z</time>
      </trkpt>
      <trkpt lat="47.9694010" lon="7.5413400">
        <ele>-214.4</ele>
        <time>2022-06-03T09:57:52Z</time>
      </trkpt>
      <trkpt lat="47.9693150" lon="7.5416260">
        <ele>-214.2</ele>
        <time>2022-06-03T09:57:56Z</time>
      </trkpt>
      <trkpt lat="47.9692400" lon="7.5419100">
        <ele>-213.8</ele>
        <time>2022-06-03T09:58:00Z</time>
      </trkpt>
      <trkpt lat="47.9691650" lon="7.5421560">
        <ele>-214.2</ele>
        <time>2022-06-03T09:58:04Z</time>
      </trkpt>
      <trkpt lat="47.9691150" lon="7.5423930">
        <ele>-213.8</ele>
        <time>2022-06-03T09:58:08Z</time>
      </trkpt>
      <trkpt lat="47.9691000" lon="7.5426430">
        <ele>-213.8</ele>
        <time>2022-06-03T09:58:12Z</time>
      </trkpt>
      <trkpt lat="47.9690930" lon="7.5429000">
        <ele>-213.8</ele>
        <time>2022-06-03T09:58:16Z</time>
      </trkpt>
      <trkpt lat="47.9690850" lon="7.5431610">
        <ele>-214.0</ele>
        <time>2022-06-03T09:58:20Z</time>
      </trkpt>
      <trkpt lat="47.9690800" lon="7.5434200">
        <ele>-214.0</ele>
        <time>2022-06-03T09:58:24Z</time>
      </trkpt>
      <trkpt lat="47.9690800" lon="7.5436830">
        <ele>-214.2</ele>
        <time>2022-06-03T09:58:28Z</time>
      </trkpt>
      <trkpt lat="47.9690810" lon="7.5439450">
        <ele>-214.2</ele>
        <time>2022-06-03T09:58:32Z</time>
      </trkpt>
      <trkpt lat="47.9690660" lon="7.5442050">
        <ele>-214.4</ele>
        <time>2022-06-03T09:58:36Z</time>
      </trkpt>
      <trkpt lat="47.9690700" lon="7.5444610">
        <ele>-214.0</ele>
        <time>2022-06-03T09:58:40Z</time>
      </trkpt>
      <trkpt lat="47.9690630" lon="7.5447230">
        <ele>-213.4</ele>
        <time>2022-06-03T09:58:44Z</time>
      </trkpt>
      <trkpt lat="47.9690700" lon="7.5449850">
        <ele>-214.0</ele>
        <time>2022-06-03T09:58:48Z</time>
      </trkpt>
      <trkpt lat="47.9690680" lon="7.5452500">
        <ele>-214.0</ele>
        <time>2022-06-03T09:58:52Z</time>
      </trkpt>
      <trkpt lat="47.9690530" lon="7.5455080">
        <ele>-214.0</ele>
        <time>2022-06-03T09:58:56Z</time>
      </trkpt>
      <trkpt lat="47.9690460" lon="7.5457680">
        <ele>-214.2</ele>
        <time>2022-06-03T09:59:00Z</time>
      </trkpt>
      <trkpt lat="47.9690460" lon="7.5460280">
        <ele>-214.2</ele>
        <time>2022-06-03T09:59:04Z</time>
      </trkpt>
      <trkpt lat="47.9690360" lon="7.5462900">
        <ele>-214.6</ele>
        <time>2022-06-03T09:59:08Z</time>
      </trkpt>
      <trkpt lat="47.9690050" lon="7.5465480">
        <ele>-214.0</ele>
        <time>2022-06-03T09:59:12Z</time>
      </trkpt>
      <trkpt lat="47.9689710" lon="7.5468010">
        <ele>-213.6</ele>
        <time>2022-06-03T09:59:16Z</time>
      </trkpt>
      <trkpt lat="47.9689410" lon="7.5470580">
        <ele>-213.0</ele>
        <time>2022-06-03T09:59:20Z</time>
      </trkpt>
      <trkpt lat="47.9689160" lon="7.5473150">
        <ele>-214.6</ele>
        <time>2022-06-03T09:59:24Z</time>
      </trkpt>
      <trkpt lat="47.9689010" lon="7.5475450">
        <ele>-214.0</ele>
        <time>2022-06-03T09:59:28Z</time>
      </trkpt>
      <trkpt lat="47.9688750" lon="7.5477810">
        <ele>-214.0</ele>
        <time>2022-06-03T09:59:32Z</time>
      </trkpt>
      <trkpt lat="47.9688350" lon="7.5480300">
        <ele>-213.4</ele>
        <time>2022-06-03T09:59:36Z</time>
      </trkpt>
      <trkpt lat="47.9687860" lon="7.5482660">
        <ele>-213.2</ele>
        <time>2022-06-03T09:59:40Z</time>
      </trkpt>
      <trkpt lat="47.9687230" lon="7.5484950">
        <ele>-213.6</ele>
        <time>2022-06-03T09:59:44Z</time>
      </trkpt>
      <trkpt lat="47.9686550" lon="7.5487410">
        <ele>-212.8</ele>
        <time>2022-06-03T09:59:48Z</time>
      </trkpt>
      <trkpt lat="47.9685860" lon="7.5489850">
        <ele>-214.0</ele>
        <time>2022-06-03T09:59:52Z</time>
      </trkpt>
      <trkpt lat="47.9685130" lon="7.5492400">
        <ele>-213.2</ele>
        <time>2022-06-03T09:59:56Z</time>
      </trkpt>
      <trkpt lat="47.9684280" lon="7.5494810">
        <ele>-213.6</ele>
        <time>2022-06-03T10:00:00Z</time>
      </trkpt>
      <trkpt lat="47.9683450" lon="7.5497230">
        <ele>-213.6</ele>
        <time>2022-06-03T10:00:04Z</time>
      </trkpt>
      <trkpt lat="47.9682660" lon="7.5499580">
        <ele>-213.8</ele>
        <time>2022-06-03T10:00:08Z</time>
      </trkpt>
      <trkpt lat="47.9681930" lon="7.5501910">
        <ele>-213.6</ele>
        <time>2022-06-03T10:00:12Z</time>
      </trkpt>
      <trkpt lat="47.9681160" lon="7.5504060">
        <ele>-213.2</ele>
        <time>2022-06-03T10:00:16Z</time>
      </trkpt>
      <trkpt lat="47.9680460" lon="7.5506400">
        <ele>-213.4</ele>
        <time>2022-06-03T10:00:20Z</time>
      </trkpt>
      <trkpt lat="47.9679750" lon="7.5508880">
        <ele>-213.4</ele>
        <time>2022-06-03T10:00:24Z</time>
      </trkpt>
      <trkpt lat="47.9679010" lon="7.5511230">
        <ele>-214.2</ele>
        <time>2022-06-03T10:00:28Z</time>
      </trkpt>
      <trkpt lat="47.9678250" lon="7.5513610">
        <ele>-214.0</ele>
        <time>2022-06-03T10:00:32Z</time>
      </trkpt>
      <trkpt lat="47.9677480" lon="7.5516060">
        <ele>-214.6</ele>
        <time>2022-06-03T10:00:36Z</time>
      </trkpt>
      <trkpt lat="47.9676780" lon="7.5518380">
        <ele>-214.4</ele>
        <time>2022-06-03T10:00:40Z</time>
      </trkpt>
      <trkpt lat="47.9676200" lon="7.5520680">
        <ele>-214.0</ele>
        <time>2022-06-03T10:00:44Z</time>
      </trkpt>
      <trkpt lat="47.9675650" lon="7.5522460">
        <ele>-213.4</ele>
        <time>2022-06-03T10:00:48Z</time>
      </trkpt>
      <trkpt lat="47.9675380" lon="7.5523810">
        <ele>-213.6</ele>
        <time>2022-06-03T10:00:52Z</time>
      </trkpt>
      <trkpt lat="47.9676380" lon="7.5524750">
        <ele>-214.0</ele>
        <time>2022-06-03T10:00:56Z</time>
      </trkpt>
      <trkpt lat="47.9677850" lon="7.5525200">
        <ele>-214.6</ele>
        <time>2022-06-03T10:01:00Z</time>
      </trkpt>
      <trkpt lat="47.9679450" lon="7.5525300">
        <ele>-213.8</ele>
        <time>2022-06-03T10:01:04Z</time>
      </trkpt>
      <trkpt lat="47.9681030" lon="7.5525410">
        <ele>-213.4</ele>
        <time>2022-06-03T10:01:08Z</time>
      </trkpt>
      <trkpt lat="47.9682710" lon="7.5525460">
        <ele>-213.8</ele>
        <time>2022-06-03T10:01:12Z</time>
      </trkpt>
      <trkpt lat="47.9684410" lon="7.5525560">
        <ele>-214.0</ele>
        <time>2022-06-03T10:01:16Z</time>
      </trkpt>
      <trkpt lat="47.9686030" lon="7.5525580">
        <ele>-213.4</ele>
        <time>2022-06-03T10:01:20Z</time>
      </trkpt>
      <trkpt lat="47.9687800" lon="7.5525610">
        <ele>-213.2</ele>
        <time>2022-06-03T10:01:24Z</time>
      </trkpt>
      <trkpt lat="47.9689560" lon="7.5525750">
        <ele>-213.8</ele>
        <time>2022-06-03T10:01:28Z</time>
      </trkpt>
      <trkpt lat="47.9691350" lon="7.5525880">
        <ele>-213.8</ele>
        <time>2022-06-03T10:01:32Z</time>
      </trkpt>
      <trkpt lat="47.9693180" lon="7.5525930">
        <ele>-214.0</ele>
        <time>2022-06-03T10:01:36Z</time>
      </trkpt>
      <trkpt lat="47.9695030" lon="7.5526050">
        <ele>-213.6</ele>
        <time>2022-06-03T10:01:40Z</time>
      </trkpt>
      <trkpt lat="47.9696880" lon="7.5526000">
        <ele>-213.2</ele>
        <time>2022-06-03T10:01:44Z</time>
      </trkpt>
      <trkpt lat="47.9698560" lon="7.5526000">
        <ele>-213.8</ele>
        <time>2022-06-03T10:01:48Z</time>
      </trkpt>
      <trkpt lat="47.9700010" lon="7.5525900">
        <ele>-213.0</ele>
        <time>2022-06-03T10:01:52Z</time>
      </trkpt>
      <trkpt lat="47.9701630" lon="7.5525860">
        <ele>-213.2</ele>
        <time>2022-06-03T10:01:56Z</time>
      </trkpt>
      <trkpt lat="47.9703400" lon="7.5525810">
        <ele>-213.2</ele>
        <time>2022-06-03T10:02:00Z</time>
      </trkpt>
      <trkpt lat="47.9705130" lon="7.5525730">
        <ele>-213.4</ele>
        <time>2022-06-03T10:02:04Z</time>
      </trkpt>
      <trkpt lat="47.9706930" lon="7.5525610">
        <ele>-213.2</ele>
        <time>2022-06-03T10:02:08Z</time>
      </trkpt>
      <trkpt lat="47.9708750" lon="7.5525510">
        <ele>-213.6</ele>
        <time>2022-06-03T10:02:12Z</time>
      </trkpt>
      <trkpt lat="47.9710550" lon="7.5525410">
        <ele>-213.6</ele>
        <time>2022-06-03T10:02:16Z</time>
      </trkpt>
      <trkpt lat="47.9712310" lon="7.5525330">
        <ele>-214.0</ele>
        <time>2022-06-03T10:02:20Z</time>
      </trkpt>
      <trkpt lat="47.9714080" lon="7.5525180">
        <ele>-213.4</ele>
        <time>2022-06-03T10:02:24Z</time>
      </trkpt>
      <trkpt lat="47.9715800" lon="7.5524950">
        <ele>-213.4</ele>
        <time>2022-06-03T10:02:28Z</time>
      </trkpt>
      <trkpt lat="47.9717610" lon="7.5524730">
        <ele>-213.2</ele>
        <time>2022-06-03T10:02:32Z</time>
      </trkpt>
      <trkpt lat="47.9719460" lon="7.5524450">
        <ele>-213.4</ele>
        <time>2022-06-03T10:02:36Z</time>
      </trkpt>
      <trkpt lat="47.9721310" lon="7.5524180">
        <ele>-213.6</ele>
        <time>2022-06-03T10:02:40Z</time>
      </trkpt>
      <trkpt lat="47.9723130" lon="7.5523910">
        <ele>-214.0</ele>
        <time>2022-06-03T10:02:44Z</time>
      </trkpt>
      <trkpt lat="47.9724960" lon="7.5523810">
        <ele>-213.8</ele>
        <time>2022-06-03T10:02:48Z</time>
      </trkpt>
      <trkpt lat="47.9726880" lon="7.5523730">
        <ele>-213.8</ele>
        <time>2022-06-03T10:02:52Z</time>
      </trkpt>
      <trkpt lat="47.9728800" lon="7.5523630">
        <ele>-213.4</ele>
        <time>2022-06-03T10:02:56Z</time>
      </trkpt>
      <trkpt lat="47.9730560" lon="7.5523330">
        <ele>-213.6</ele>
        <time>2022-06-03T10:03:00Z</time>
      </trkpt>
      <trkpt lat="47.9732450" lon="7.5523100">
        <ele>-213.8</ele>
        <time>2022-06-03T10:03:04Z</time>
      </trkpt>
      <trkpt lat="47.9734350" lon="7.5522830">
        <ele>-213.8</ele>
        <time>2022-06-03T10:03:08Z</time>
      </trkpt>
      <trkpt lat="47.9736200" lon="7.5522610">
        <ele>-213.6</ele>
        <time>2022-06-03T10:03:12Z</time>
      </trkpt>
      <trkpt lat="47.9738050" lon="7.5522380">
        <ele>-214.2</ele>
        <time>2022-06-03T10:03:16Z</time>
      </trkpt>
      <trkpt lat="47.9739930" lon="7.5522150">
        <ele>-214.0</ele>
        <time>2022-06-03T10:03:20Z</time>
      </trkpt>
      <trkpt lat="47.9741760" lon="7.5521930">
        <ele>-214.0</ele>
        <time>2022-06-03T10:03:24Z</time>
      </trkpt>
      <trkpt lat="47.9743660" lon="7.5521760">
        <ele>-213.6</ele>
        <time>2022-06-03T10:03:28Z</time>
      </trkpt>
      <trkpt lat="47.9745530" lon="7.5521610">
        <ele>-213.4</ele>
        <time>2022-06-03T10:03:32Z</time>
      </trkpt>
      <trkpt lat="47.9747430" lon="7.5521430">
        <ele>-213.4</ele>
        <time>2022-06-03T10:03:36Z</time>
      </trkpt>
      <trkpt lat="47.9749450" lon="7.5521280">
        <ele>-213.6</ele>
        <time>2022-06-03T10:03:40Z</time>
      </trkpt>
      <trkpt lat="47.9751400" lon="7.5520980">
        <ele>-213.2</ele>
        <time>2022-06-03T10:03:44Z</time>
      </trkpt>
      <trkpt lat="47.9753200" lon="7.5520760">
        <ele>-213.8</ele>
        <time>2022-06-03T10:03:48Z</time>
      </trkpt>
      <trkpt lat="47.9755000" lon="7.5520560">
        <ele>-213.4</ele>
        <time>2022-06-03T10:03:52Z</time>
      </trkpt>
      <trkpt lat="47.9756800" lon="7.5520330">
        <ele>-213.6</ele>
        <time>2022-06-03T10:03:56Z</time>
      </trkpt>
      <trkpt lat="47.9758550" lon="7.5520080">
        <ele>-214.0</ele>
        <time>2022-06-03T10:04:00Z</time>
      </trkpt>
      <trkpt lat="47.9760380" lon="7.5519850">
        <ele>-214.2</ele>
        <time>2022-06-03T10:04:04Z</time>
      </trkpt>
      <trkpt lat="47.9762230" lon="7.5519750">
        <ele>-213.6</ele>
        <time>2022-06-03T10:04:08Z</time>
      </trkpt>
      <trkpt lat="47.9764100" lon="7.5519550">
        <ele>-214.0</ele>
        <time>2022-06-03T10:04:12Z</time>
      </trkpt>
      <trkpt lat="47.9765910" lon="7.5519430">
        <ele>-213.8</ele>
        <time>2022-06-03T10:04:16Z</time>
      </trkpt>
      <trkpt lat="47.9767680" lon="7.5519230">
        <ele>-213.4</ele>
        <time>2022-06-03T10:04:20Z</time>
      </trkpt>
      <trkpt lat="47.9769360" lon="7.5519010">
        <ele>-213.0</ele>
        <time>2022-06-03T10:04:24Z</time>
      </trkpt>
      <trkpt lat="47.9771250" lon="7.5518800">
        <ele>-213.6</ele>
        <time>2022-06-03T10:04:28Z</time>
      </trkpt>
      <trkpt lat="47.9773100" lon="7.5518510">
        <ele>-213.8</ele>
        <time>2022-06-03T10:04:32Z</time>
      </trkpt>
      <trkpt lat="47.9775010" lon="7.5518300">
        <ele>-214.2</ele>
        <time>2022-06-03T10:04:36Z</time>
      </trkpt>
      <trkpt lat="47.9776960" lon="7.5518110">
        <ele>-213.8</ele>
        <time>2022-06-03T10:04:40Z</time>
      </trkpt>
      <trkpt lat="47.9778850" lon="7.5517860">
        <ele>-214.6</ele>
        <time>2022-06-03T10:04:44Z</time>
      </trkpt>
      <trkpt lat="47.9780780" lon="7.5517680">
        <ele>-214.0</ele>
        <time>2022-06-03T10:04:48Z</time>
      </trkpt>
      <trkpt lat="47.9782660" lon="7.5517450">
        <ele>-214.0</ele>
        <time>2022-06-03T10:04:52Z</time>
      </trkpt>
      <trkpt lat="47.9784600" lon="7.5517200">
        <ele>-213.8</ele>
        <time>2022-06-03T10:04:56Z</time>
      </trkpt>
      <trkpt lat="47.9786510" lon="7.5516950">
        <ele>-214.2</ele>
        <time>2022-06-03T10:05:00Z</time>
      </trkpt>
      <trkpt lat="47.9788450" lon="7.5516760">
        <ele>-214.0</ele>
        <time>2022-06-03T10:05:04Z</time>
      </trkpt>
      <trkpt lat="47.9790360" lon="7.5516530">
        <ele>-213.2</ele>
        <time>2022-06-03T10:05:08Z</time>
      </trkpt>
      <trkpt lat="47.9792260" lon="7.5516350">
        <ele>-213.8</ele>
        <time>2022-06-03T10:05:12Z</time>
      </trkpt>
      <trkpt lat="47.9794150" lon="7.5516080">
        <ele>-214.0</ele>
        <time>2022-06-03T10:05:16Z</time>
      </trkpt>
      <trkpt lat="47.9796000" lon="7.5515880">
        <ele>-213.6</ele>
        <time>2022-06-03T10:05:20Z</time>
      </trkpt>
      <trkpt lat="47.9797880" lon="7.5515630">
        <ele>-214.0</ele>
        <time>2022-06-03T10:05:24Z</time>
      </trkpt>
      <trkpt lat="47.9799710" lon="7.5515450">
        <ele>-214.0</ele>
        <time>2022-06-03T10:05:28Z</time>
      </trkpt>
      <trkpt lat="47.9801360" lon="7.5515280">
        <ele>-213.8</ele>
        <time>2022-06-03T10:05:32Z</time>
      </trkpt>
      <trkpt lat="47.9802860" lon="7.5515050">
        <ele>-214.2</ele>
        <time>2022-06-03T10:05:36Z</time>
      </trkpt>
      <trkpt lat="47.9804350" lon="7.5514880">
        <ele>-214.6</ele>
        <time>2022-06-03T10:05:40Z</time>
      </trkpt>
      <trkpt lat="47.9805810" lon="7.5514700">
        <ele>-213.8</ele>
        <time>2022-06-03T10:05:44Z</time>
      </trkpt>
      <trkpt lat="47.9807380" lon="7.5514560">
        <ele>-214.4</ele>
        <time>2022-06-03T10:05:48Z</time>
      </trkpt>
      <trkpt lat="47.9808850" lon="7.5514330">
        <ele>-214.0</ele>
        <time>2022-06-03T10:05:52Z</time>
      </trkpt>
      <trkpt lat="47.9810330" lon="7.5514130">
        <ele>-214.6</ele>
        <time>2022-06-03T10:05:56Z</time>
      </trkpt>
      <trkpt lat="47.9811980" lon="7.5513950">
        <ele>-214.4</ele>
        <time>2022-06-03T10:06:00Z</time>
      </trkpt>
      <trkpt lat="47.9813560" lon="7.5513750">
        <ele>-214.2</ele>
        <time>2022-06-03T10:06:04Z</time>
      </trkpt>
      <trkpt lat="47.9815250" lon="7.5513510">
        <ele>-214.6</ele>
        <time>2022-06-03T10:06:08Z</time>
      </trkpt>
      <trkpt lat="47.9816960" lon="7.5513330">
        <ele>-214.4</ele>
        <time>2022-06-03T10:06:12Z</time>
      </trkpt>
      <trkpt lat="47.9818650" lon="7.5513160">
        <ele>-214.2</ele>
        <time>2022-06-03T10:06:16Z</time>
      </trkpt>
      <trkpt lat="47.9820360" lon="7.5512960">
        <ele>-214.8</ele>
        <time>2022-06-03T10:06:20Z</time>
      </trkpt>
      <trkpt lat="47.9822130" lon="7.5512800">
        <ele>-214.4</ele>
        <time>2022-06-03T10:06:24Z</time>
      </trkpt>
      <trkpt lat="47.9823900" lon="7.5512610">
        <ele>-214.6</ele>
        <time>2022-06-03T10:06:28Z</time>
      </trkpt>
      <trkpt lat="47.9825580" lon="7.5512380">
        <ele>-214.6</ele>
        <time>2022-06-03T10:06:32Z</time>
      </trkpt>
      <trkpt lat="47.9827330" lon="7.5512260">
        <ele>-214.6</ele>
        <time>2022-06-03T10:06:36Z</time>
      </trkpt>
      <trkpt lat="47.9828980" lon="7.5512260">
        <ele>-214.2</ele>
        <time>2022-06-03T10:06:40Z</time>
      </trkpt>
      <trkpt lat="47.9830700" lon="7.5512200">
        <ele>-214.6</ele>
        <time>2022-06-03T10:06:44Z</time>
      </trkpt>
      <trkpt lat="47.9832510" lon="7.5512010">
        <ele>-214.2</ele>
        <time>2022-06-03T10:06:48Z</time>
      </trkpt>
      <trkpt lat="47.9834300" lon="7.5511810">
        <ele>-214.0</ele>
        <time>2022-06-03T10:06:52Z</time>
      </trkpt>
      <trkpt lat="47.9836100" lon="7.5511630">
        <ele>-214.2</ele>
        <time>2022-06-03T10:06:56Z</time>
      </trkpt>
      <trkpt lat="47.9837950" lon="7.5511380">
        <ele>-214.6</ele>
        <time>2022-06-03T10:07:00Z</time>
      </trkpt>
      <trkpt lat="47.9839830" lon="7.5511150">
        <ele>-214.6</ele>
        <time>2022-06-03T10:07:04Z</time>
      </trkpt>
      <trkpt lat="47.9841700" lon="7.5510900">
        <ele>-214.2</ele>
        <time>2022-06-03T10:07:08Z</time>
      </trkpt>
      <trkpt lat="47.9843560" lon="7.5510650">
        <ele>-214.8</ele>
        <time>2022-06-03T10:07:12Z</time>
      </trkpt>
      <trkpt lat="47.9845400" lon="7.5510450">
        <ele>-214.6</ele>
        <time>2022-06-03T10:07:16Z</time>
      </trkpt>
      <trkpt lat="47.9847250" lon="7.5510210">
        <ele>-214.2</ele>
        <time>2022-06-03T10:07:20Z</time>
      </trkpt>
      <trkpt lat="47.9849110" lon="7.5509950">
        <ele>-214.0</ele>
        <time>2022-06-03T10:07:24Z</time>
      </trkpt>
      <trkpt lat="47.9850880" lon="7.5509730">
        <ele>-214.0</ele>
        <time>2022-06-03T10:07:28Z</time>
      </trkpt>
      <trkpt lat="47.9852560" lon="7.5509510">
        <ele>-214.6</ele>
        <time>2022-06-03T10:07:32Z</time>
      </trkpt>
      <trkpt lat="47.9854250" lon="7.5509250">
        <ele>-214.6</ele>
        <time>2022-06-03T10:07:36Z</time>
      </trkpt>
      <trkpt lat="47.9855980" lon="7.5509130">
        <ele>-214.0</ele>
        <time>2022-06-03T10:07:40Z</time>
      </trkpt>
      <trkpt lat="47.9857360" lon="7.5508900">
        <ele>-214.4</ele>
        <time>2022-06-03T10:07:44Z</time>
      </trkpt>
      <trkpt lat="47.9857130" lon="7.5509100">
        <ele>-214.4</ele>
        <time>2022-06-03T10:07:48Z</time>
      </trkpt>
      <trkpt lat="47.9857130" lon="7.5509100">
        <ele>-214.2</ele>
        <time>2022-06-03T10:07:52Z</time>
      </trkpt>
      <trkpt lat="47.9857130" lon="7.5509100">
        <ele>-214.0</ele>
        <time>2022-06-03T10:07:56Z</time>
      </trkpt>
      <trkpt lat="47.9856830" lon="7.5508950">
        <ele>-214.6</ele>
        <time>2022-06-03T10:08:00Z</time>
      </trkpt>
      <trkpt lat="47.9856830" lon="7.5508950">
        <ele>-214.8</ele>
        <time>2022-06-03T10:08:04Z</time>
      </trkpt>
      <trkpt lat="47.9856830" lon="7.5508950">
        <ele>-214.6</ele>
        <time>2022-06-03T10:08:08Z</time>
      </trkpt>
      <trkpt lat="47.9856830" lon="7.5508950">
        <ele>-214.6</ele>
        <time>2022-06-03T10:08:12Z</time>
      </trkpt>
      <trkpt lat="47.9856830" lon="7.5508950">
        <ele>-214.0</ele>
        <time>2022-06-03T10:08:16Z</time>
      </trkpt>
      <trkpt lat="47.9856830" lon="7.5508950">
        <ele>-214.6</ele>
        <time>2022-06-03T10:08:20Z</time>
      </trkpt>
      <trkpt lat="47.9856830" lon="7.5508950">
        <ele>-214.0</ele>
        <time>2022-06-03T10:08:24Z</time>
      </trkpt>
      <trkpt lat="47.9856830" lon="7.5508950">
        <ele>-214.4</ele>
        <time>2022-06-03T10:08:28Z</time>
      </trkpt>
      <trkpt lat="47.9856830" lon="7.5508950">
        <ele>-214.6</ele>
        <time>2022-06-03T10:08:32Z</time>
      </trkpt>
      <trkpt lat="47.9856830" lon="7.5508950">
        <ele>-214.6</ele>
        <time>2022-06-03T10:08:36Z</time>
      </trkpt>
      <trkpt lat="47.9856830" lon="7.5508950">
        <ele>-214.6</ele>
        <time>2022-06-03T10:08:40Z</time>
      </trkpt>
      <trkpt lat="47.9856830" lon="7.5508950">
        <ele>-214.6</ele>
        <time>2022-06-03T10:08:44Z</time>
      </trkpt>
      <trkpt lat="47.9856830" lon="7.5508950">
        <ele>-214.4</ele>
        <time>2022-06-03T10:08:48Z</time>
      </trkpt>
      <trkpt lat="47.9856830" lon="7.5508950">
        <ele>-214.0</ele>
        <time>2022-06-03T10:08:52Z</time>
      </trkpt>
      <trkpt lat="47.9857080" lon="7.5508830">
        <ele>-214.2</ele>
        <time>2022-06-03T10:08:56Z</time>
      </trkpt>
      <trkpt lat="47.9857680" lon="7.5508780">
        <ele>-214.8</ele>
        <time>2022-06-03T10:09:00Z</time>
      </trkpt>
      <trkpt lat="47.9858730" lon="7.5508760">
        <ele>-214.2</ele>
        <time>2022-06-03T10:09:04Z</time>
      </trkpt>
      <trkpt lat="47.9860100" lon="7.5508560">
        <ele>-214.4</ele>
        <time>2022-06-03T10:09:08Z</time>
      </trkpt>
      <trkpt lat="47.9861680" lon="7.5508330">
        <ele>-214.2</ele>
        <time>2022-06-03T10:09:12Z</time>
      </trkpt>
      <trkpt lat="47.9863450" lon="7.5508130">
        <ele>-214.6</ele>
        <time>2022-06-03T10:09:16Z</time>
      </trkpt>
      <trkpt lat="47.9865150" lon="7.5507880">
        <ele>-214.2</ele>
        <time>2022-06-03T10:09:20Z</time>
      </trkpt>
      <trkpt lat="47.9866910" lon="7.5507680">
        <ele>-214.0</ele>
        <time>2022-06-03T10:09:24Z</time>
      </trkpt>
      <trkpt lat="47.9868660" lon="7.5507480">
        <ele>-214.4</ele>
        <time>2022-06-03T10:09:28Z</time>
      </trkpt>
      <trkpt lat="47.9870400" lon="7.5507280">
        <ele>-213.6</ele>
        <time>2022-06-03T10:09:32Z</time>
      </trkpt>
      <trkpt lat="47.9872050" lon="7.5507080">
        <ele>-213.0</ele>
        <time>2022-06-03T10:09:36Z</time>
      </trkpt>
      <trkpt lat="47.9873580" lon="7.5506900">
        <ele>-213.6</ele>
        <time>2022-06-03T10:09:40Z</time>
      </trkpt>
      <trkpt lat="47.9875480" lon="7.5506680">
        <ele>-213.6</ele>
        <time>2022-06-03T10:09:44Z</time>
      </trkpt>
      <trkpt lat="47.9877350" lon="7.5506550">
        <ele>-213.2</ele>
        <time>2022-06-03T10:09:48Z</time>
      </trkpt>
      <trkpt lat="47.9879230" lon="7.5506130">
        <ele>-213.2</ele>
        <time>2022-06-03T10:09:52Z</time>
      </trkpt>
      <trkpt lat="47.9881030" lon="7.5505950">
        <ele>-213.2</ele>
        <time>2022-06-03T10:09:56Z</time>
      </trkpt>
      <trkpt lat="47.9882850" lon="7.5505800">
        <ele>-213.0</ele>
        <time>2022-06-03T10:10:00Z</time>
      </trkpt>
      <trkpt lat="47.9884750" lon="7.5505510">
        <ele>-212.0</ele>
        <time>2022-06-03T10:10:04Z</time>
      </trkpt>
      <trkpt lat="47.9886680" lon="7.5505300">
        <ele>-211.8</ele>
        <time>2022-06-03T10:10:08Z</time>
      </trkpt>
      <trkpt lat="47.9888560" lon="7.5505130">
        <ele>-212.4</ele>
        <time>2022-06-03T10:10:12Z</time>
      </trkpt>
      <trkpt lat="47.9890380" lon="7.5504900">
        <ele>-211.8</ele>
        <time>2022-06-03T10:10:16Z</time>
      </trkpt>
      <trkpt lat="47.9892080" lon="7.5505050">
        <ele>-211.8</ele>
        <time>2022-06-03T10:10:20Z</time>
      </trkpt>
      <trkpt lat="47.9893530" lon="7.5504030">
        <ele>-212.4</ele>
        <time>2022-06-03T10:10:24Z</time>
      </trkpt>
      <trkpt lat="47.9894930" lon="7.5504000">
        <ele>-212.8</ele>
        <time>2022-06-03T10:10:28Z</time>
      </trkpt>
      <trkpt lat="47.9896680" lon="7.5503850">
        <ele>-212.2</ele>
        <time>2022-06-03T10:10:32Z</time>
      </trkpt>
      <trkpt lat="47.9898650" lon="7.5503930">
        <ele>-212.0</ele>
        <time>2022-06-03T10:10:36Z</time>
      </trkpt>
      <trkpt lat="47.9900650" lon="7.5503800">
        <ele>-212.8</ele>
        <time>2022-06-03T10:10:40Z</time>
      </trkpt>
      <trkpt lat="47.9902650" lon="7.5503460">
        <ele>-213.2</ele>
        <time>2022-06-03T10:10:44Z</time>
      </trkpt>
      <trkpt lat="47.9904650" lon="7.5503260">
        <ele>-212.2</ele>
        <time>2022-06-03T10:10:48Z</time>
      </trkpt>
      <trkpt lat="47.9906680" lon="7.5503050">
        <ele>-212.2</ele>
        <time>2022-06-03T10:10:52Z</time>
      </trkpt>
      <trkpt lat="47.9908660" lon="7.5502780">
        <ele>-212.4</ele>
        <time>2022-06-03T10:10:56Z</time>
      </trkpt>
      <trkpt lat="47.9910700" lon="7.5502560">
        <ele>-212.4</ele>
        <time>2022-06-03T10:11:00Z</time>
      </trkpt>
      <trkpt lat="47.9912710" lon="7.5502310">
        <ele>-212.8</ele>
        <time>2022-06-03T10:11:04Z</time>
      </trkpt>
      <trkpt lat="47.9914710" lon="7.5502080">
        <ele>-212.6</ele>
        <time>2022-06-03T10:11:08Z</time>
      </trkpt>
      <trkpt lat="47.9916660" lon="7.5501910">
        <ele>-213.0</ele>
        <time>2022-06-03T10:11:12Z</time>
      </trkpt>
      <trkpt lat="47.9918580" lon="7.5501600">
        <ele>-212.2</ele>
        <time>2022-06-03T10:11:16Z</time>
      </trkpt>
      <trkpt lat="47.9920530" lon="7.5501300">
        <ele>-212.4</ele>
        <time>2022-06-03T10:11:20Z</time>
      </trkpt>
      <trkpt lat="47.9922530" lon="7.5501060">
        <ele>-213.4</ele>
        <time>2022-06-03T10:11:24Z</time>
      </trkpt>
      <trkpt lat="47.9924560" lon="7.5500730">
        <ele>-212.8</ele>
        <time>2022-06-03T10:11:28Z</time>
      </trkpt>
      <trkpt lat="47.9926560" lon="7.5500560">
        <ele>-212.8</ele>
        <time>2022-06-03T10:11:32Z</time>
      </trkpt>
      <trkpt lat="47.9928600" lon="7.5500350">
        <ele>-212.6</ele>
        <time>2022-06-03T10:11:36Z</time>
      </trkpt>
      <trkpt lat="47.9930580" lon="7.5500130">
        <ele>-213.0</ele>
        <time>2022-06-03T10:11:40Z</time>
      </trkpt>
      <trkpt lat="47.9932610" lon="7.5499850">
        <ele>-213.2</ele>
        <time>2022-06-03T10:11:44Z</time>
      </trkpt>
      <trkpt lat="47.9934510" lon="7.5499410">
        <ele>-213.4</ele>
        <time>2022-06-03T10:11:48Z</time>
      </trkpt>
      <trkpt lat="47.9936560" lon="7.5499200">
        <ele>-213.6</ele>
        <time>2022-06-03T10:11:52Z</time>
      </trkpt>
      <trkpt lat="47.9938550" lon="7.5498830">
        <ele>-213.8</ele>
        <time>2022-06-03T10:11:56Z</time>
      </trkpt>
      <trkpt lat="47.9940300" lon="7.5498510">
        <ele>-213.4</ele>
        <time>2022-06-03T10:12:00Z</time>
      </trkpt>
      <trkpt lat="47.9942280" lon="7.5498330">
        <ele>-213.0</ele>
        <time>2022-06-03T10:12:04Z</time>
      </trkpt>
      <trkpt lat="47.9944100" lon="7.5498180">
        <ele>-213.4</ele>
        <time>2022-06-03T10:12:08Z</time>
      </trkpt>
      <trkpt lat="47.9945910" lon="7.5498080">
        <ele>-213.8</ele>
        <time>2022-06-03T10:12:12Z</time>
      </trkpt>
      <trkpt lat="47.9948030" lon="7.5498030">
        <ele>-213.8</ele>
        <time>2022-06-03T10:12:16Z</time>
      </trkpt>
      <trkpt lat="47.9950100" lon="7.5497980">
        <ele>-213.6</ele>
        <time>2022-06-03T10:12:20Z</time>
      </trkpt>
      <trkpt lat="47.9951950" lon="7.5498000">
        <ele>-214.0</ele>
        <time>2022-06-03T10:12:24Z</time>
      </trkpt>
      <trkpt lat="47.9953560" lon="7.5497930">
        <ele>-214.4</ele>
        <time>2022-06-03T10:12:28Z</time>
      </trkpt>
      <trkpt lat="47.9955110" lon="7.5497680">
        <ele>-214.6</ele>
        <time>2022-06-03T10:12:32Z</time>
      </trkpt>
      <trkpt lat="47.9955960" lon="7.5497410">
        <ele>-214.0</ele>
        <time>2022-06-03T10:12:36Z</time>
      </trkpt>
      <trkpt lat="47.9955480" lon="7.5497260">
        <ele>-214.2</ele>
        <time>2022-06-03T10:12:40Z</time>
      </trkpt>
      <trkpt lat="47.9954850" lon="7.5497650">
        <ele>-214.2</ele>
        <time>2022-06-03T10:12:44Z</time>
      </trkpt>
      <trkpt lat="47.9954100" lon="7.5497860">
        <ele>-213.8</ele>
        <time>2022-06-03T10:12:48Z</time>
      </trkpt>
      <trkpt lat="47.9953280" lon="7.5497960">
        <ele>-213.8</ele>
        <time>2022-06-03T10:12:52Z</time>
      </trkpt>
      <trkpt lat="47.9952510" lon="7.5497910">
        <ele>-213.6</ele>
        <time>2022-06-03T10:12:56Z</time>
      </trkpt>
      <trkpt lat="47.9951850" lon="7.5497880">
        <ele>-213.6</ele>
        <time>2022-06-03T10:13:00Z</time>
      </trkpt>
      <trkpt lat="47.9951980" lon="7.5498100">
        <ele>-214.2</ele>
        <time>2022-06-03T10:13:04Z</time>
      </trkpt>
      <trkpt lat="47.9952060" lon="7.5498000">
        <ele>-213.8</ele>
        <time>2022-06-03T10:13:08Z</time>
      </trkpt>
      <trkpt lat="47.9952750" lon="7.5497930">
        <ele>-213.8</ele>
        <time>2022-06-03T10:13:12Z</time>
      </trkpt>
      <trkpt lat="47.9953810" lon="7.5497680">
        <ele>-213.6</ele>
        <time>2022-06-03T10:13:16Z</time>
      </trkpt>
      <trkpt lat="47.9955230" lon="7.5497410">
        <ele>-213.6</ele>
        <time>2022-06-03T10:13:20Z</time>
      </trkpt>
      <trkpt lat="47.9956850" lon="7.5497210">
        <ele>-214.6</ele>
        <time>2022-06-03T10:13:24Z</time>
      </trkpt>
      <trkpt lat="47.9958500" lon="7.5496900">
        <ele>-213.4</ele>
        <time>2022-06-03T10:13:28Z</time>
      </trkpt>
      <trkpt lat="47.9960100" lon="7.5496680">
        <ele>-213.0</ele>
        <time>2022-06-03T10:13:32Z</time>
      </trkpt>
      <trkpt lat="47.9961780" lon="7.5496650">
        <ele>-213.6</ele>
        <time>2022-06-03T10:13:36Z</time>
      </trkpt>
      <trkpt lat="47.9963530" lon="7.5496550">
        <ele>-214.0</ele>
        <time>2022-06-03T10:13:40Z</time>
      </trkpt>
      <trkpt lat="47.9965450" lon="7.5496350">
        <ele>-213.8</ele>
        <time>2022-06-03T10:13:44Z</time>
      </trkpt>
      <trkpt lat="47.9967400" lon="7.5496100">
        <ele>-213.0</ele>
        <time>2022-06-03T10:13:48Z</time>
      </trkpt>
      <trkpt lat="47.9969380" lon="7.5495950">
        <ele>-213.4</ele>
        <time>2022-06-03T10:13:52Z</time>
      </trkpt>
      <trkpt lat="47.9971430" lon="7.5495750">
        <ele>-213.6</ele>
        <time>2022-06-03T10:13:56Z</time>
      </trkpt>
      <trkpt lat="47.9973430" lon="7.5495760">
        <ele>-213.4</ele>
        <time>2022-06-03T10:14:00Z</time>
      </trkpt>
      <trkpt lat="47.9975400" lon="7.5495660">
        <ele>-213.4</ele>
        <time>2022-06-03T10:14:04Z</time>
      </trkpt>
      <trkpt lat="47.9977410" lon="7.5495610">
        <ele>-213.6</ele>
        <time>2022-06-03T10:14:08Z</time>
      </trkpt>
      <trkpt lat="47.9979430" lon="7.5495730">
        <ele>-213.6</ele>
        <time>2022-06-03T10:14:12Z</time>
      </trkpt>
      <trkpt lat="47.9981350" lon="7.5495700">
        <ele>-213.6</ele>
        <time>2022-06-03T10:14:16Z</time>
      </trkpt>
      <trkpt lat="47.9983280" lon="7.5495830">
        <ele>-213.6</ele>
        <time>2022-06-03T10:14:20Z</time>
      </trkpt>
      <trkpt lat="47.9985250" lon="7.5495960">
        <ele>-213.2</ele>
        <time>2022-06-03T10:14:24Z</time>
      </trkpt>
      <trkpt lat="47.9987230" lon="7.5496210">
        <ele>-213.2</ele>
        <time>2022-06-03T10:14:28Z</time>
      </trkpt>
      <trkpt lat="47.9989250" lon="7.5496500">
        <ele>-213.0</ele>
        <time>2022-06-03T10:14:32Z</time>
      </trkpt>
      <trkpt lat="47.9991310" lon="7.5496830">
        <ele>-212.8</ele>
        <time>2022-06-03T10:14:36Z</time>
      </trkpt>
      <trkpt lat="47.9993310" lon="7.5497180">
        <ele>-213.4</ele>
        <time>2022-06-03T10:14:40Z</time>
      </trkpt>
      <trkpt lat="47.9995310" lon="7.5497630">
        <ele>-213.4</ele>
        <time>2022-06-03T10:14:44Z</time>
      </trkpt>
      <trkpt lat="47.9997280" lon="7.5497930">
        <ele>-213.2</ele>
        <time>2022-06-03T10:14:48Z</time>
      </trkpt>
      <trkpt lat="47.9999180" lon="7.5498450">
        <ele>-213.0</ele>
        <time>2022-06-03T10:14:52Z</time>
      </trkpt>
      <trkpt lat="48.0001080" lon="7.5499200">
        <ele>-213.0</ele>
        <time>2022-06-03T10:14:56Z</time>
      </trkpt>
      <trkpt lat="48.0003000" lon="7.5499900">
        <ele>-213.0</ele>
        <time>2022-06-03T10:15:00Z</time>
      </trkpt>
      <trkpt lat="48.0004950" lon="7.5500510">
        <ele>-213.2</ele>
        <time>2022-06-03T10:15:04Z</time>
      </trkpt>
      <trkpt lat="48.0006850" lon="7.5501180">
        <ele>-213.4</ele>
        <time>2022-06-03T10:15:08Z</time>
      </trkpt>
      <trkpt lat="48.0008760" lon="7.5501980">
        <ele>-213.0</ele>
        <time>2022-06-03T10:15:12Z</time>
      </trkpt>
      <trkpt lat="48.0010600" lon="7.5502850">
        <ele>-213.2</ele>
        <time>2022-06-03T10:15:16Z</time>
      </trkpt>
      <trkpt lat="48.0012330" lon="7.5503850">
        <ele>-214.0</ele>
        <time>2022-06-03T10:15:20Z</time>
      </trkpt>
      <trkpt lat="48.0014250" lon="7.5505030">
        <ele>-213.6</ele>
        <time>2022-06-03T10:15:24Z</time>
      </trkpt>
      <trkpt lat="48.0016200" lon="7.5506010">
        <ele>-213.0</ele>
        <time>2022-06-03T10:15:28Z</time>
      </trkpt>
      <trkpt lat="48.0018130" lon="7.5507110">
        <ele>-213.6</ele>
        <time>2022-06-03T10:15:32Z</time>
      </trkpt>
      <trkpt lat="48.0019980" lon="7.5508210">
        <ele>-213.0</ele>
        <time>2022-06-03T10:15:36Z</time>
      </trkpt>
      <trkpt lat="48.0021900" lon="7.5509380">
        <ele>-213.6</ele>
        <time>2022-06-03T10:15:40Z</time>
      </trkpt>
      <trkpt lat="48.0023760" lon="7.5510610">
        <ele>-213.8</ele>
        <time>2022-06-03T10:15:44Z</time>
      </trkpt>
      <trkpt lat="48.0025560" lon="7.5511900">
        <ele>-213.6</ele>
        <time>2022-06-03T10:15:48Z</time>
      </trkpt>
      <trkpt lat="48.0027260" lon="7.5513130">
        <ele>-214.6</ele>
        <time>2022-06-03T10:15:52Z</time>
      </trkpt>
      <trkpt lat="48.0028960" lon="7.5514430">
        <ele>-214.6</ele>
        <time>2022-06-03T10:15:56Z</time>
      </trkpt>
      <trkpt lat="48.0030680" lon="7.5515850">
        <ele>-214.6</ele>
        <time>2022-06-03T10:16:00Z</time>
      </trkpt>
      <trkpt lat="48.0032380" lon="7.5517300">
        <ele>-214.6</ele>
        <time>2022-06-03T10:16:04Z</time>
      </trkpt>
      <trkpt lat="48.0034030" lon="7.5518650">
        <ele>-214.4</ele>
        <time>2022-06-03T10:16:08Z</time>
      </trkpt>
      <trkpt lat="48.0035550" lon="7.5520100">
        <ele>-215.0</ele>
        <time>2022-06-03T10:16:12Z</time>
      </trkpt>
      <trkpt lat="48.0036950" lon="7.5521480">
        <ele>-214.8</ele>
        <time>2022-06-03T10:16:16Z</time>
      </trkpt>
      <trkpt lat="48.0038230" lon="7.5522750">
        <ele>-214.4</ele>
        <time>2022-06-03T10:16:20Z</time>
      </trkpt>
      <trkpt lat="48.0039410" lon="7.5523910">
        <ele>-214.4</ele>
        <time>2022-06-03T10:16:24Z</time>
      </trkpt>
      <trkpt lat="48.0040550" lon="7.5525050">
        <ele>-214.6</ele>
        <time>2022-06-03T10:16:28Z</time>
      </trkpt>
      <trkpt lat="48.0041830" lon="7.5526350">
        <ele>-214.2</ele>
        <time>2022-06-03T10:16:32Z</time>
      </trkpt>
      <trkpt lat="48.0043160" lon="7.5527850">
        <ele>-214.2</ele>
        <time>2022-06-03T10:16:36Z</time>
      </trkpt>
      <trkpt lat="48.0044510" lon="7.5529330">
        <ele>-214.2</ele>
        <time>2022-06-03T10:16:40Z</time>
      </trkpt>
      <trkpt lat="48.0045680" lon="7.5530630">
        <ele>-214.4</ele>
        <time>2022-06-03T10:16:44Z</time>
      </trkpt>
      <trkpt lat="48.0046950" lon="7.5531880">
        <ele>-214.6</ele>
        <time>2022-06-03T10:16:48Z</time>
      </trkpt>
      <trkpt lat="48.0048200" lon="7.5533330">
        <ele>-214.8</ele>
        <time>2022-06-03T10:16:52Z</time>
      </trkpt>
      <trkpt lat="48.0049480" lon="7.5534780">
        <ele>-215.0</ele>
        <time>2022-06-03T10:16:56Z</time>
      </trkpt>
      <trkpt lat="48.0050880" lon="7.5536330">
        <ele>-215.0</ele>
        <time>2022-06-03T10:17:00Z</time>
      </trkpt>
      <trkpt lat="48.0052380" lon="7.5537930">
        <ele>-214.6</ele>
        <time>2022-06-03T10:17:04Z</time>
      </trkpt>
      <trkpt lat="48.0053730" lon="7.5539510">
        <ele>-214.6</ele>
        <time>2022-06-03T10:17:08Z</time>
      </trkpt>
      <trkpt lat="48.0055130" lon="7.5541060">
        <ele>-215.2</ele>
        <time>2022-06-03T10:17:12Z</time>
      </trkpt>
      <trkpt lat="48.0056480" lon="7.5542610">
        <ele>-215.2</ele>
        <time>2022-06-03T10:17:16Z</time>
      </trkpt>
      <trkpt lat="48.0057760" lon="7.5544230">
        <ele>-214.8</ele>
        <time>2022-06-03T10:17:20Z</time>
      </trkpt>
      <trkpt lat="48.0059150" lon="7.5545830">
        <ele>-215.0</ele>
        <time>2022-06-03T10:17:24Z</time>
      </trkpt>
      <trkpt lat="48.0060550" lon="7.5547350">
        <ele>-215.0</ele>
        <time>2022-06-03T10:17:28Z</time>
      </trkpt>
      <trkpt lat="48.0061880" lon="7.5548860">
        <ele>-214.4</ele>
        <time>2022-06-03T10:17:32Z</time>
      </trkpt>
      <trkpt lat="48.0063250" lon="7.5550430">
        <ele>-214.0</ele>
        <time>2022-06-03T10:17:36Z</time>
      </trkpt>
      <trkpt lat="48.0064710" lon="7.5551960">
        <ele>-214.0</ele>
        <time>2022-06-03T10:17:40Z</time>
      </trkpt>
      <trkpt lat="48.0066150" lon="7.5553580">
        <ele>-213.8</ele>
        <time>2022-06-03T10:17:44Z</time>
      </trkpt>
      <trkpt lat="48.0067510" lon="7.5555110">
        <ele>-214.0</ele>
        <time>2022-06-03T10:17:48Z</time>
      </trkpt>
      <trkpt lat="48.0068710" lon="7.5556350">
        <ele>-214.4</ele>
        <time>2022-06-03T10:17:52Z</time>
      </trkpt>
      <trkpt lat="48.0069860" lon="7.5557350">
        <ele>-214.2</ele>
        <time>2022-06-03T10:17:56Z</time>
      </trkpt>
      <trkpt lat="48.0071200" lon="7.5557200">
        <ele>-214.6</ele>
        <time>2022-06-03T10:18:00Z</time>
      </trkpt>
      <trkpt lat="48.0073060" lon="7.5557260">
        <ele>-214.4</ele>
        <time>2022-06-03T10:18:04Z</time>
      </trkpt>
      <trkpt lat="48.0074930" lon="7.5557800">
        <ele>-214.8</ele>
        <time>2022-06-03T10:18:08Z</time>
      </trkpt>
      <trkpt lat="48.0076660" lon="7.5558300">
        <ele>-214.6</ele>
        <time>2022-06-03T10:18:12Z</time>
      </trkpt>
      <trkpt lat="48.0078360" lon="7.5558780">
        <ele>-214.2</ele>
        <time>2022-06-03T10:18:16Z</time>
      </trkpt>
      <trkpt lat="48.0080200" lon="7.5559360">
        <ele>-214.0</ele>
        <time>2022-06-03T10:18:20Z</time>
      </trkpt>
      <trkpt lat="48.0082150" lon="7.5559580">
        <ele>-213.6</ele>
        <time>2022-06-03T10:18:24Z</time>
      </trkpt>
      <trkpt lat="48.0084130" lon="7.5559530">
        <ele>-214.0</ele>
        <time>2022-06-03T10:18:28Z</time>
      </trkpt>
      <trkpt lat="48.0086000" lon="7.5559060">
        <ele>-213.8</ele>
        <time>2022-06-03T10:18:32Z</time>
      </trkpt>
      <trkpt lat="48.0087910" lon="7.5558460">
        <ele>-214.0</ele>
        <time>2022-06-03T10:18:36Z</time>
      </trkpt>
      <trkpt lat="48.0089810" lon="7.5557800">
        <ele>-213.2</ele>
        <time>2022-06-03T10:18:40Z</time>
      </trkpt>
      <trkpt lat="48.0091760" lon="7.5557130">
        <ele>-214.6</ele>
        <time>2022-06-03T10:18:44Z</time>
      </trkpt>
      <trkpt lat="48.0093760" lon="7.5556500">
        <ele>-213.6</ele>
        <time>2022-06-03T10:18:48Z</time>
      </trkpt>
      <trkpt lat="48.0095750" lon="7.5555760">
        <ele>-214.2</ele>
        <time>2022-06-03T10:18:52Z</time>
      </trkpt>
      <trkpt lat="48.0097830" lon="7.5555050">
        <ele>-214.2</ele>
        <time>2022-06-03T10:18:56Z</time>
      </trkpt>
      <trkpt lat="48.0099850" lon="7.5554430">
        <ele>-214.0</ele>
        <time>2022-06-03T10:19:00Z</time>
      </trkpt>
      <trkpt lat="48.0101760" lon="7.5553760">
        <ele>-215.0</ele>
        <time>2022-06-03T10:19:04Z</time>
      </trkpt>
      <trkpt lat="48.0103610" lon="7.5553160">
        <ele>-214.6</ele>
        <time>2022-06-03T10:19:08Z</time>
      </trkpt>
      <trkpt lat="48.0105410" lon="7.5552530">
        <ele>-214.6</ele>
        <time>2022-06-03T10:19:12Z</time>
      </trkpt>
      <trkpt lat="48.0107160" lon="7.5551530">
        <ele>-214.0</ele>
        <time>2022-06-03T10:19:16Z</time>
      </trkpt>
      <trkpt lat="48.0108750" lon="7.5550080">
        <ele>-214.4</ele>
        <time>2022-06-03T10:19:20Z</time>
      </trkpt>
      <trkpt lat="48.0110480" lon="7.5549700">
        <ele>-214.0</ele>
        <time>2022-06-03T10:19:24Z</time>
      </trkpt>
      <trkpt lat="48.0111800" lon="7.5550430">
        <ele>-214.2</ele>
        <time>2022-06-03T10:19:28Z</time>
      </trkpt>
      <trkpt lat="48.0113150" lon="7.5552060">
        <ele>-214.0</ele>
        <time>2022-06-03T10:19:32Z</time>
      </trkpt>
      <trkpt lat="48.0115050" lon="7.5552100">
        <ele>-213.6</ele>
        <time>2022-06-03T10:19:36Z</time>
      </trkpt>
      <trkpt lat="48.0116430" lon="7.5550050">
        <ele>-214.4</ele>
        <time>2022-06-03T10:19:40Z</time>
      </trkpt>
      <trkpt lat="48.0116110" lon="7.5547200">
        <ele>-214.2</ele>
        <time>2022-06-03T10:19:44Z</time>
      </trkpt>
      <trkpt lat="48.0114530" lon="7.5545330">
        <ele>-214.0</ele>
        <time>2022-06-03T10:19:48Z</time>
      </trkpt>
      <trkpt lat="48.0113010" lon="7.5543230">
        <ele>-214.2</ele>
        <time>2022-06-03T10:19:52Z</time>
      </trkpt>
      <trkpt lat="48.0111950" lon="7.5540310">
        <ele>-214.6</ele>
        <time>2022-06-03T10:19:56Z</time>
      </trkpt>
      <trkpt lat="48.0111010" lon="7.5537300">
        <ele>-214.4</ele>
        <time>2022-06-03T10:20:00Z</time>
      </trkpt>
      <trkpt lat="48.0110000" lon="7.5534360">
        <ele>-213.4</ele>
        <time>2022-06-03T10:20:04Z</time>
      </trkpt>
      <trkpt lat="48.0109050" lon="7.5531280">
        <ele>-214.2</ele>
        <time>2022-06-03T10:20:08Z</time>
      </trkpt>
      <trkpt lat="48.0108060" lon="7.5528230">
        <ele>-213.4</ele>
        <time>2022-06-03T10:20:12Z</time>
      </trkpt>
      <trkpt lat="48.0107080" lon="7.5525210">
        <ele>-213.8</ele>
        <time>2022-06-03T10:20:16Z</time>
      </trkpt>
      <trkpt lat="48.0106130" lon="7.5522200">
        <ele>-213.6</ele>
        <time>2022-06-03T10:20:20Z</time>
      </trkpt>
      <trkpt lat="48.0105180" lon="7.5519160">
        <ele>-213.6</ele>
        <time>2022-06-03T10:20:24Z</time>
      </trkpt>
      <trkpt lat="48.0104230" lon="7.5516080">
        <ele>-213.2</ele>
        <time>2022-06-03T10:20:28Z</time>
      </trkpt>
      <trkpt lat="48.0103260" lon="7.5512950">
        <ele>-213.2</ele>
        <time>2022-06-03T10:20:32Z</time>
      </trkpt>
      <trkpt lat="48.0102330" lon="7.5509880">
        <ele>-213.0</ele>
        <time>2022-06-03T10:20:36Z</time>
      </trkpt>
      <trkpt lat="48.0101450" lon="7.5506810">
        <ele>-213.6</ele>
        <time>2022-06-03T10:20:40Z</time>
      </trkpt>
      <trkpt lat="48.0100600" lon="7.5503700">
        <ele>-213.2</ele>
        <time>2022-06-03T10:20:44Z</time>
      </trkpt>
      <trkpt lat="48.0099780" lon="7.5500480">
        <ele>-213.6</ele>
        <time>2022-06-03T10:20:48Z</time>
      </trkpt>
      <trkpt lat="48.0099050" lon="7.5497210">
        <ele>-212.8</ele>
        <time>2022-06-03T10:20:52Z</time>
      </trkpt>
      <trkpt lat="48.0098310" lon="7.5493880">
        <ele>-212.6</ele>
        <time>2022-06-03T10:20:56Z</time>
      </trkpt>
      <trkpt lat="48.0097630" lon="7.5490460">
        <ele>-212.2</ele>
        <time>2022-06-03T10:21:00Z</time>
      </trkpt>
      <trkpt lat="48.0097060" lon="7.5486960">
        <ele>-212.2</ele>
        <time>2022-06-03T10:21:04Z</time>
      </trkpt>
      <trkpt lat="48.0096510" lon="7.5483350">
        <ele>-212.4</ele>
        <time>2022-06-03T10:21:08Z</time>
      </trkpt>
      <trkpt lat="48.0096030" lon="7.5479730">
        <ele>-211.4</ele>
        <time>2022-06-03T10:21:12Z</time>
      </trkpt>
      <trkpt lat="48.0095650" lon="7.5476330">
        <ele>-212.0</ele>
        <time>2022-06-03T10:21:16Z</time>
      </trkpt>
      <trkpt lat="48.0095280" lon="7.5472830">
        <ele>-211.8</ele>
        <time>2022-06-03T10:21:20Z</time>
      </trkpt>
      <trkpt lat="48.0095010" lon="7.5469300">
        <ele>-211.2</ele>
        <time>2022-06-03T10:21:24Z</time>
      </trkpt>
      <trkpt lat="48.0094830" lon="7.5465650">
        <ele>-211.8</ele>
        <time>2022-06-03T10:21:28Z</time>
      </trkpt>
      <trkpt lat="48.0094710" lon="7.5461930">
        <ele>-211.2</ele>
        <time>2022-06-03T10:21:32Z</time>
      </trkpt>
      <trkpt lat="48.0094610" lon="7.5458310">
        <ele>-211.0</ele>
        <time>2022-06-03T10:21:36Z</time>
      </trkpt>
      <trkpt lat="48.0094550" lon="7.5454760">
        <ele>-211.4</ele>
        <time>2022-06-03T10:21:40Z</time>
      </trkpt>
      <trkpt lat="48.0094500" lon="7.5451310">
        <ele>-210.2</ele>
        <time>2022-06-03T10:21:44Z</time>
      </trkpt>
      <trkpt lat="48.0094530" lon="7.5447950">
        <ele>-210.2</ele>
        <time>2022-06-03T10:21:48Z</time>
      </trkpt>
      <trkpt lat="48.0094460" lon="7.5444510">
        <ele>-210.0</ele>
        <time>2022-06-03T10:21:52Z</time>
      </trkpt>
      <trkpt lat="48.0094300" lon="7.5441160">
        <ele>-210.2</ele>
        <time>2022-06-03T10:21:56Z</time>
      </trkpt>
      <trkpt lat="48.0094210" lon="7.5438200">
        <ele>-209.6</ele>
        <time>2022-06-03T10:22:00Z</time>
      </trkpt>
      <trkpt lat="48.0094160" lon="7.5435410">
        <ele>-210.0</ele>
        <time>2022-06-03T10:22:04Z</time>
      </trkpt>
      <trkpt lat="48.0094230" lon="7.5433430">
        <ele>-209.8</ele>
        <time>2022-06-03T10:22:08Z</time>
      </trkpt>
      <trkpt lat="48.0094310" lon="7.5432310">
        <ele>-210.0</ele>
        <time>2022-06-03T10:22:12Z</time>
      </trkpt>
      <trkpt lat="48.0094310" lon="7.5432310">
        <ele>-210.6</ele>
        <time>2022-06-03T10:22:16Z</time>
      </trkpt>
      <trkpt lat="48.0094400" lon="7.5432110">
        <ele>-210.2</ele>
        <time>2022-06-03T10:22:20Z</time>
      </trkpt>
      <trkpt lat="48.0094400" lon="7.5432110">
        <ele>-210.2</ele>
        <time>2022-06-03T10:22:24Z</time>
      </trkpt>
      <trkpt lat="48.0094400" lon="7.5432110">
        <ele>-209.4</ele>
        <time>2022-06-03T10:22:28Z</time>
      </trkpt>
      <trkpt lat="48.0094400" lon="7.5432110">
        <ele>-210.0</ele>
        <time>2022-06-03T10:22:32Z</time>
      </trkpt>
      <trkpt lat="48.0094400" lon="7.5432110">
        <ele>-209.8</ele>
        <time>2022-06-03T10:22:36Z</time>
      </trkpt>
      <trkpt lat="48.0094400" lon="7.5432110">
        <ele>-209.6</ele>
        <time>2022-06-03T10:22:40Z</time>
      </trkpt>
      <trkpt lat="48.0094430" lon="7.5432160">
        <ele>-209.8</ele>
        <time>2022-06-03T10:22:44Z</time>
      </trkpt>
      <trkpt lat="48.0094350" lon="7.5432510">
        <ele>-210.2</ele>
        <time>2022-06-03T10:22:48Z</time>
      </trkpt>
      <trkpt lat="48.0094310" lon="7.5433030">
        <ele>-209.6</ele>
        <time>2022-06-03T10:22:52Z</time>
      </trkpt>
      <trkpt lat="48.0094500" lon="7.5433880">
        <ele>-209.8</ele>
        <time>2022-06-03T10:22:56Z</time>
      </trkpt>
      <trkpt lat="48.0094930" lon="7.5434860">
        <ele>-209.8</ele>
        <time>2022-06-03T10:23:00Z</time>
      </trkpt>
      <trkpt lat="48.0095210" lon="7.5436150">
        <ele>-211.2</ele>
        <time>2022-06-03T10:23:04Z</time>
      </trkpt>
      <trkpt lat="48.0095300" lon="7.5437230">
        <ele>-211.2</ele>
        <time>2022-06-03T10:23:08Z</time>
      </trkpt>
      <trkpt lat="48.0095350" lon="7.5438460">
        <ele>-210.8</ele>
        <time>2022-06-03T10:23:12Z</time>
      </trkpt>
      <trkpt lat="48.0095530" lon="7.5439780">
        <ele>-211.2</ele>
        <time>2022-06-03T10:23:16Z</time>
      </trkpt>
      <trkpt lat="48.0095800" lon="7.5441030">
        <ele>-211.8</ele>
        <time>2022-06-03T10:23:20Z</time>
      </trkpt>
      <trkpt lat="48.0096300" lon="7.5442060">
        <ele>-211.2</ele>
        <time>2022-06-03T10:23:24Z</time>
      </trkpt>
      <trkpt lat="48.0096900" lon="7.5442560">
        <ele>-210.8</ele>
        <time>2022-06-03T10:23:28Z</time>
      </trkpt>
      <trkpt lat="48.0097860" lon="7.5441830">
        <ele>-211.8</ele>
        <time>2022-06-03T10:23:32Z</time>
      </trkpt>
      <trkpt lat="48.0098700" lon="7.5440750">
        <ele>-210.8</ele>
        <time>2022-06-03T10:23:36Z</time>
      </trkpt>
      <trkpt lat="48.0099450" lon="7.5439910">
        <ele>-210.2</ele>
        <time>2022-06-03T10:23:40Z</time>
      </trkpt>
      <trkpt lat="48.0100050" lon="7.5438980">
        <ele>-210.0</ele>
        <time>2022-06-03T10:23:44Z</time>
      </trkpt>
      <trkpt lat="48.0100810" lon="7.5438750">
        <ele>-210.0</ele>
        <time>2022-06-03T10:23:48Z</time>
      </trkpt>
      <trkpt lat="48.0101460" lon="7.5438000">
        <ele>-209.4</ele>
        <time>2022-06-03T10:23:52Z</time>
      </trkpt>
      <trkpt lat="48.0102000" lon="7.5435980">
        <ele>-210.4</ele>
        <time>2022-06-03T10:23:56Z</time>
      </trkpt>
      <trkpt lat="48.0102800" lon="7.5433760">
        <ele>-210.0</ele>
        <time>2022-06-03T10:24:00Z</time>
      </trkpt>
      <trkpt lat="48.0103780" lon="7.5431500">
        <ele>-210.6</ele>
        <time>2022-06-03T10:24:04Z</time>
      </trkpt>
      <trkpt lat="48.0104910" lon="7.5429230">
        <ele>-210.0</ele>
        <time>2022-06-03T10:24:08Z</time>
      </trkpt>
      <trkpt lat="48.0105930" lon="7.5426950">
        <ele>-210.2</ele>
        <time>2022-06-03T10:24:12Z</time>
      </trkpt>
      <trkpt lat="48.0106860" lon="7.5424760">
        <ele>-210.0</ele>
        <time>2022-06-03T10:24:16Z</time>
      </trkpt>
      <trkpt lat="48.0107830" lon="7.5422600">
        <ele>-210.8</ele>
        <time>2022-06-03T10:24:20Z</time>
      </trkpt>
      <trkpt lat="48.0108800" lon="7.5420310">
        <ele>-210.2</ele>
        <time>2022-06-03T10:24:24Z</time>
      </trkpt>
      <trkpt lat="48.0109710" lon="7.5418180">
        <ele>-210.2</ele>
        <time>2022-06-03T10:24:28Z</time>
      </trkpt>
      <trkpt lat="48.0110550" lon="7.5416250">
        <ele>-209.8</ele>
        <time>2022-06-03T10:24:32Z</time>
      </trkpt>
      <trkpt lat="48.0111480" lon="7.5414280">
        <ele>-210.2</ele>
        <time>2022-06-03T10:24:36Z</time>
      </trkpt>
      <trkpt lat="48.0112350" lon="7.5412150">
        <ele>-209.4</ele>
        <time>2022-06-03T10:24:40Z</time>
      </trkpt>
      <trkpt lat="48.0113250" lon="7.5410100">
        <ele>-209.6</ele>
        <time>2022-06-03T10:24:44Z</time>
      </trkpt>
      <trkpt lat="48.0114210" lon="7.5408000">
        <ele>-210.0</ele>
        <time>2022-06-03T10:24:48Z</time>
      </trkpt>
      <trkpt lat="48.0115230" lon="7.5405710">
        <ele>-210.2</ele>
        <time>2022-06-03T10:24:52Z</time>
      </trkpt>
      <trkpt lat="48.0116150" lon="7.5403510">
        <ele>-209.6</ele>
        <time>2022-06-03T10:24:56Z</time>
      </trkpt>
      <trkpt lat="48.0117160" lon="7.5401260">
        <ele>-209.4</ele>
        <time>2022-06-03T10:25:00Z</time>
      </trkpt>
      <trkpt lat="48.0118260" lon="7.5398950">
        <ele>-209.2</ele>
        <time>2022-06-03T10:25:04Z</time>
      </trkpt>
      <trkpt lat="48.0119300" lon="7.5396680">
        <ele>-209.8</ele>
        <time>2022-06-03T10:25:08Z</time>
      </trkpt>
      <trkpt lat="48.0120310" lon="7.5394400">
        <ele>-209.6</ele>
        <time>2022-06-03T10:25:12Z</time>
      </trkpt>
      <trkpt lat="48.0121330" lon="7.5392160">
        <ele>-209.6</ele>
        <time>2022-06-03T10:25:16Z</time>
      </trkpt>
      <trkpt lat="48.0122510" lon="7.5390060">
        <ele>-209.4</ele>
        <time>2022-06-03T10:25:20Z</time>
      </trkpt>
      <trkpt lat="48.0123650" lon="7.5387700">
        <ele>-209.8</ele>
        <time>2022-06-03T10:25:24Z</time>
      </trkpt>
      <trkpt lat="48.0124650" lon="7.5385330">
        <ele>-209.8</ele>
        <time>2022-06-03T10:25:28Z</time>
      </trkpt>
      <trkpt lat="48.0125630" lon="7.5383080">
        <ele>-209.6</ele>
        <time>2022-06-03T10:25:32Z</time>
      </trkpt>
      <trkpt lat="48.0126730" lon="7.5381250">
        <ele>-209.4</ele>
        <time>2022-06-03T10:25:36Z</time>
      </trkpt>
      <trkpt lat="48.0128250" lon="7.5380180">
        <ele>-209.2</ele>
        <time>2022-06-03T10:25:40Z</time>
      </trkpt>
      <trkpt lat="48.0130000" lon="7.5379580">
        <ele>-209.2</ele>
        <time>2022-06-03T10:25:44Z</time>
      </trkpt>
      <trkpt lat="48.0131860" lon="7.5379830">
        <ele>-209.0</ele>
        <time>2022-06-03T10:25:48Z</time>
      </trkpt>
      <trkpt lat="48.0133710" lon="7.5379980">
        <ele>-209.2</ele>
        <time>2022-06-03T10:25:52Z</time>
      </trkpt>
      <trkpt lat="48.0135600" lon="7.5380180">
        <ele>-208.8</ele>
        <time>2022-06-03T10:25:56Z</time>
      </trkpt>
      <trkpt lat="48.0137510" lon="7.5380430">
        <ele>-209.0</ele>
        <time>2022-06-03T10:26:00Z</time>
      </trkpt>
      <trkpt lat="48.0139380" lon="7.5380760">
        <ele>-209.0</ele>
        <time>2022-06-03T10:26:04Z</time>
      </trkpt>
      <trkpt lat="48.0141250" lon="7.5380580">
        <ele>-209.0</ele>
        <time>2022-06-03T10:26:08Z</time>
      </trkpt>
      <trkpt lat="48.0143130" lon="7.5380780">
        <ele>-209.8</ele>
        <time>2022-06-03T10:26:12Z</time>
      </trkpt>
      <trkpt lat="48.0145150" lon="7.5380850">
        <ele>-209.6</ele>
        <time>2022-06-03T10:26:16Z</time>
      </trkpt>
      <trkpt lat="48.0147200" lon="7.5380900">
        <ele>-209.6</ele>
        <time>2022-06-03T10:26:20Z</time>
      </trkpt>
      <trkpt lat="48.0149300" lon="7.5381100">
        <ele>-209.6</ele>
        <time>2022-06-03T10:26:24Z</time>
      </trkpt>
      <trkpt lat="48.0151350" lon="7.5381450">
        <ele>-209.2</ele>
        <time>2022-06-03T10:26:28Z</time>
      </trkpt>
      <trkpt lat="48.0153410" lon="7.5381850">
        <ele>-209.0</ele>
        <time>2022-06-03T10:26:32Z</time>
      </trkpt>
      <trkpt lat="48.0155460" lon="7.5382210">
        <ele>-209.2</ele>
        <time>2022-06-03T10:26:36Z</time>
      </trkpt>
      <trkpt lat="48.0157510" lon="7.5382710">
        <ele>-209.4</ele>
        <time>2022-06-03T10:26:40Z</time>
      </trkpt>
      <trkpt lat="48.0159560" lon="7.5383400">
        <ele>-209.4</ele>
        <time>2022-06-03T10:26:44Z</time>
      </trkpt>
      <trkpt lat="48.0161600" lon="7.5384060">
        <ele>-209.2</ele>
        <time>2022-06-03T10:26:48Z</time>
      </trkpt>
      <trkpt lat="48.0163650" lon="7.5384650">
        <ele>-210.0</ele>
        <time>2022-06-03T10:26:52Z</time>
      </trkpt>
      <trkpt lat="48.0165730" lon="7.5385210">
        <ele>-209.4</ele>
        <time>2022-06-03T10:26:56Z</time>
      </trkpt>
      <trkpt lat="48.0167800" lon="7.5385710">
        <ele>-210.2</ele>
        <time>2022-06-03T10:27:00Z</time>
      </trkpt>
      <trkpt lat="48.0169810" lon="7.5386330">
        <ele>-209.6</ele>
        <time>2022-06-03T10:27:04Z</time>
      </trkpt>
      <trkpt lat="48.0171760" lon="7.5386910">
        <ele>-209.6</ele>
        <time>2022-06-03T10:27:08Z</time>
      </trkpt>
      <trkpt lat="48.0173660" lon="7.5387580">
        <ele>-210.0</ele>
        <time>2022-06-03T10:27:12Z</time>
      </trkpt>
      <trkpt lat="48.0175660" lon="7.5388200">
        <ele>-210.2</ele>
        <time>2022-06-03T10:27:16Z</time>
      </trkpt>
      <trkpt lat="48.0177700" lon="7.5388760">
        <ele>-210.2</ele>
        <time>2022-06-03T10:27:20Z</time>
      </trkpt>
      <trkpt lat="48.0179810" lon="7.5389330">
        <ele>-210.8</ele>
        <time>2022-06-03T10:27:24Z</time>
      </trkpt>
      <trkpt lat="48.0181800" lon="7.5389930">
        <ele>-210.8</ele>
        <time>2022-06-03T10:27:28Z</time>
      </trkpt>
      <trkpt lat="48.0183530" lon="7.5390350">
        <ele>-210.8</ele>
        <time>2022-06-03T10:27:32Z</time>
      </trkpt>
      <trkpt lat="48.0184850" lon="7.5390230">
        <ele>-210.4</ele>
        <time>2022-06-03T10:27:36Z</time>
      </trkpt>
      <trkpt lat="48.0185460" lon="7.5389880">
        <ele>-210.6</ele>
        <time>2022-06-03T10:27:40Z</time>
      </trkpt>
      <trkpt lat="48.0186200" lon="7.5390080">
        <ele>-210.2</ele>
        <time>2022-06-03T10:27:44Z</time>
      </trkpt>
      <trkpt lat="48.0187060" lon="7.5389930">
        <ele>-210.0</ele>
        <time>2022-06-03T10:27:48Z</time>
      </trkpt>
      <trkpt lat="48.0187830" lon="7.5388910">
        <ele>-210.0</ele>
        <time>2022-06-03T10:27:52Z</time>
      </trkpt>
      <trkpt lat="48.0188130" lon="7.5387510">
        <ele>-210.0</ele>
        <time>2022-06-03T10:27:56Z</time>
      </trkpt>
      <trkpt lat="48.0188130" lon="7.5387510">
        <ele>-210.2</ele>
        <time>2022-06-03T10:28:00Z</time>
      </trkpt>
      <trkpt lat="48.0188130" lon="7.5387510">
        <ele>-210.4</ele>
        <time>2022-06-03T10:28:04Z</time>
      </trkpt>
      <trkpt lat="48.0188130" lon="7.5387510">
        <ele>-210.2</ele>
        <time>2022-06-03T10:28:08Z</time>
      </trkpt>
      <trkpt lat="48.0188130" lon="7.5387510">
        <ele>-210.6</ele>
        <time>2022-06-03T10:28:12Z</time>
      </trkpt>
      <trkpt lat="48.0188130" lon="7.5387510">
        <ele>-210.4</ele>
        <time>2022-06-03T10:28:16Z</time>
      </trkpt>
      <trkpt lat="48.0188130" lon="7.5387510">
        <ele>-210.6</ele>
        <time>2022-06-03T10:28:20Z</time>
      </trkpt>
      <trkpt lat="48.0188130" lon="7.5387510">
        <ele>-210.4</ele>
        <time>2022-06-03T10:28:24Z</time>
      </trkpt>
      <trkpt lat="48.0188130" lon="7.5387510">
        <ele>-210.2</ele>
        <time>2022-06-03T10:28:28Z</time>
      </trkpt>
      <trkpt lat="48.0188130" lon="7.5387510">
        <ele>-210.4</ele>
        <time>2022-06-03T10:28:32Z</time>
      </trkpt>
      <trkpt lat="48.0188200" lon="7.5387080">
        <ele>-210.4</ele>
        <time>2022-06-03T10:28:36Z</time>
      </trkpt>
      <trkpt lat="48.0188710" lon="7.5386350">
        <ele>-211.2</ele>
        <time>2022-06-03T10:28:40Z</time>
      </trkpt>
      <trkpt lat="48.0189100" lon="7.5384660">
        <ele>-210.2</ele>
        <time>2022-06-03T10:28:44Z</time>
      </trkpt>
      <trkpt lat="48.0189410" lon="7.5382630">
        <ele>-210.2</ele>
        <time>2022-06-03T10:28:48Z</time>
      </trkpt>
      <trkpt lat="48.0189410" lon="7.5380310">
        <ele>-210.2</ele>
        <time>2022-06-03T10:28:52Z</time>
      </trkpt>
      <trkpt lat="48.0189460" lon="7.5377780">
        <ele>-210.4</ele>
        <time>2022-06-03T10:28:56Z</time>
      </trkpt>
      <trkpt lat="48.0189900" lon="7.5375110">
        <ele>-210.6</ele>
        <time>2022-06-03T10:29:00Z</time>
      </trkpt>
      <trkpt lat="48.0190850" lon="7.5372850">
        <ele>-210.0</ele>
        <time>2022-06-03T10:29:04Z</time>
      </trkpt>
      <trkpt lat="48.0192130" lon="7.5371280">
        <ele>-210.0</ele>
        <time>2022-06-03T10:29:08Z</time>
      </trkpt>
      <trkpt lat="48.0193510" lon="7.5370100">
        <ele>-209.6</ele>
        <time>2022-06-03T10:29:12Z</time>
      </trkpt>
      <trkpt lat="48.0194880" lon="7.5369110">
        <ele>-210.2</ele>
        <time>2022-06-03T10:29:16Z</time>
      </trkpt>
      <trkpt lat="48.0196260" lon="7.5368080">
        <ele>-210.2</ele>
        <time>2022-06-03T10:29:20Z</time>
      </trkpt>
      <trkpt lat="48.0197750" lon="7.5366900">
        <ele>-210.4</ele>
        <time>2022-06-03T10:29:24Z</time>
      </trkpt>
      <trkpt lat="48.0199280" lon="7.5365680">
        <ele>-210.6</ele>
        <time>2022-06-03T10:29:28Z</time>
      </trkpt>
      <trkpt lat="48.0200910" lon="7.5364410">
        <ele>-209.8</ele>
        <time>2022-06-03T10:29:32Z</time>
      </trkpt>
      <trkpt lat="48.0202460" lon="7.5363110">
        <ele>-210.0</ele>
        <time>2022-06-03T10:29:36Z</time>
      </trkpt>
      <trkpt lat="48.0204200" lon="7.5361910">
        <ele>-210.2</ele>
        <time>2022-06-03T10:29:40Z</time>
      </trkpt>
      <trkpt lat="48.0206010" lon="7.5361030">
        <ele>-210.2</ele>
        <time>2022-06-03T10:29:44Z</time>
      </trkpt>
      <trkpt lat="48.0207800" lon="7.5360200">
        <ele>-210.4</ele>
        <time>2022-06-03T10:29:48Z</time>
      </trkpt>
      <trkpt lat="48.0209460" lon="7.5359660">
        <ele>-210.4</ele>
        <time>2022-06-03T10:29:52Z</time>
      </trkpt>
      <trkpt lat="48.0211110" lon="7.5359330">
        <ele>-210.6</ele>
        <time>2022-06-03T10:29:56Z</time>
      </trkpt>
      <trkpt lat="48.0212660" lon="7.5358950">
        <ele>-210.0</ele>
        <time>2022-06-03T10:30:00Z</time>
      </trkpt>
      <trkpt lat="48.0213710" lon="7.5357810">
        <ele>-210.6</ele>
        <time>2022-06-03T10:30:04Z</time>
      </trkpt>
      <trkpt lat="48.0213530" lon="7.5356880">
        <ele>-209.8</ele>
        <time>2022-06-03T10:30:08Z</time>
      </trkpt>
      <trkpt lat="48.0213280" lon="7.5356030">
        <ele>-209.8</ele>
        <time>2022-06-03T10:30:12Z</time>
      </trkpt>
      <trkpt lat="48.0213560" lon="7.5354380">
        <ele>-210.0</ele>
        <time>2022-06-03T10:30:16Z</time>
      </trkpt>
      <trkpt lat="48.0214660" lon="7.5352950">
        <ele>-210.4</ele>
        <time>2022-06-03T10:30:20Z</time>
      </trkpt>
      <trkpt lat="48.0216100" lon="7.5351760">
        <ele>-210.4</ele>
        <time>2022-06-03T10:30:24Z</time>
      </trkpt>
      <trkpt lat="48.0217530" lon="7.5350600">
        <ele>-210.6</ele>
        <time>2022-06-03T10:30:28Z</time>
      </trkpt>
      <trkpt lat="48.0219030" lon="7.5349400">
        <ele>-210.6</ele>
        <time>2022-06-03T10:30:32Z</time>
      </trkpt>
      <trkpt lat="48.0220650" lon="7.5348210">
        <ele>-210.2</ele>
        <time>2022-06-03T10:30:36Z</time>
      </trkpt>
      <trkpt lat="48.0222330" lon="7.5347000">
        <ele>-210.6</ele>
        <time>2022-06-03T10:30:40Z</time>
      </trkpt>
      <trkpt lat="48.0223850" lon="7.5345310">
        <ele>-210.8</ele>
        <time>2022-06-03T10:30:44Z</time>
      </trkpt>
      <trkpt lat="48.0225080" lon="7.5343230">
        <ele>-210.6</ele>
        <time>2022-06-03T10:30:48Z</time>
      </trkpt>
      <trkpt lat="48.0226200" lon="7.5341050">
        <ele>-211.0</ele>
        <time>2022-06-03T10:30:52Z</time>
      </trkpt>
      <trkpt lat="48.0227110" lon="7.5338400">
        <ele>-211.0</ele>
        <time>2022-06-03T10:30:56Z</time>
      </trkpt>
      <trkpt lat="48.0227900" lon="7.5336100">
        <ele>-211.2</ele>
        <time>2022-06-03T10:31:00Z</time>
      </trkpt>
      <trkpt lat="48.0228330" lon="7.5333230">
        <ele>-212.0</ele>
        <time>2022-06-03T10:31:04Z</time>
      </trkpt>
      <trkpt lat="48.0229060" lon="7.5330950">
        <ele>-212.0</ele>
        <time>2022-06-03T10:31:08Z</time>
      </trkpt>
      <trkpt lat="48.0229680" lon="7.5328810">
        <ele>-211.8</ele>
        <time>2022-06-03T10:31:12Z</time>
      </trkpt>
      <trkpt lat="48.0230380" lon="7.5326180">
        <ele>-211.4</ele>
        <time>2022-06-03T10:31:16Z</time>
      </trkpt>
      <trkpt lat="48.0231150" lon="7.5323500">
        <ele>-211.2</ele>
        <time>2022-06-03T10:31:20Z</time>
      </trkpt>
      <trkpt lat="48.0232080" lon="7.5321530">
        <ele>-211.2</ele>
        <time>2022-06-03T10:31:24Z</time>
      </trkpt>
      <trkpt lat="48.0232760" lon="7.5320030">
        <ele>-211.6</ele>
        <time>2022-06-03T10:31:28Z</time>
      </trkpt>
      <trkpt lat="48.0233530" lon="7.5318850">
        <ele>-211.6</ele>
        <time>2022-06-03T10:31:32Z</time>
      </trkpt>
      <trkpt lat="48.0234300" lon="7.5317960">
        <ele>-211.4</ele>
        <time>2022-06-03T10:31:36Z</time>
      </trkpt>
      <trkpt lat="48.0234110" lon="7.5317900">
        <ele>-211.8</ele>
        <time>2022-06-03T10:31:40Z</time>
      </trkpt>
      <trkpt lat="48.0233660" lon="7.5318550">
        <ele>-211.6</ele>
        <time>2022-06-03T10:31:44Z</time>
      </trkpt>
      <trkpt lat="48.0233110" lon="7.5319350">
        <ele>-211.6</ele>
        <time>2022-06-03T10:31:48Z</time>
      </trkpt>
      <trkpt lat="48.0232630" lon="7.5320330">
        <ele>-212.0</ele>
        <time>2022-06-03T10:31:52Z</time>
      </trkpt>
      <trkpt lat="48.0231850" lon="7.5321500">
        <ele>-212.8</ele>
        <time>2022-06-03T10:31:56Z</time>
      </trkpt>
      <trkpt lat="48.0231050" lon="7.5323250">
        <ele>-212.4</ele>
        <time>2022-06-03T10:32:00Z</time>
      </trkpt>
      <trkpt lat="48.0230450" lon="7.5325030">
        <ele>-212.2</ele>
        <time>2022-06-03T10:32:04Z</time>
      </trkpt>
      <trkpt lat="48.0229900" lon="7.5326630">
        <ele>-212.2</ele>
        <time>2022-06-03T10:32:08Z</time>
      </trkpt>
      <trkpt lat="48.0229480" lon="7.5328350">
        <ele>-212.0</ele>
        <time>2022-06-03T10:32:12Z</time>
      </trkpt>
      <trkpt lat="48.0229450" lon="7.5329480">
        <ele>-212.0</ele>
        <time>2022-06-03T10:32:16Z</time>
      </trkpt>
      <trkpt lat="48.0228910" lon="7.5330360">
        <ele>-211.8</ele>
        <time>2022-06-03T10:32:20Z</time>
      </trkpt>
      <trkpt lat="48.0228710" lon="7.5331850">
        <ele>-211.8</ele>
        <time>2022-06-03T10:32:24Z</time>
      </trkpt>
      <trkpt lat="48.0228730" lon="7.5333610">
        <ele>-211.8</ele>
        <time>2022-06-03T10:32:28Z</time>
      </trkpt>
      <trkpt lat="48.0228630" lon="7.5335450">
        <ele>-211.4</ele>
        <time>2022-06-03T10:32:32Z</time>
      </trkpt>
      <trkpt lat="48.0228160" lon="7.5337180">
        <ele>-211.2</ele>
        <time>2022-06-03T10:32:36Z</time>
      </trkpt>
      <trkpt lat="48.0227580" lon="7.5339100">
        <ele>-211.2</ele>
        <time>2022-06-03T10:32:40Z</time>
      </trkpt>
      <trkpt lat="48.0227010" lon="7.5340260">
        <ele>-212.0</ele>
        <time>2022-06-03T10:32:44Z</time>
      </trkpt>
      <trkpt lat="48.0227010" lon="7.5340260">
        <ele>-211.6</ele>
        <time>2022-06-03T10:32:48Z</time>
      </trkpt>
      <trkpt lat="48.0227010" lon="7.5340260">
        <ele>-211.8</ele>
        <time>2022-06-03T10:32:52Z</time>
      </trkpt>
      <trkpt lat="48.0227010" lon="7.5340260">
        <ele>-211.4</ele>
        <time>2022-06-03T10:32:56Z</time>
      </trkpt>
      <trkpt lat="48.0227010" lon="7.5340260">
        <ele>-211.8</ele>
        <time>2022-06-03T10:33:00Z</time>
      </trkpt>
      <trkpt lat="48.0227010" lon="7.5340260">
        <ele>-211.8</ele>
        <time>2022-06-03T10:33:04Z</time>
      </trkpt>
      <trkpt lat="48.0226680" lon="7.5340980">
        <ele>-211.2</ele>
        <time>2022-06-03T10:33:08Z</time>
      </trkpt>
      <trkpt lat="48.0226330" lon="7.5341760">
        <ele>-211.6</ele>
        <time>2022-06-03T10:33:12Z</time>
      </trkpt>
      <trkpt lat="48.0225680" lon="7.5343080">
        <ele>-211.6</ele>
        <time>2022-06-03T10:33:16Z</time>
      </trkpt>
      <trkpt lat="48.0224880" lon="7.5344610">
        <ele>-211.2</ele>
        <time>2022-06-03T10:33:20Z</time>
      </trkpt>
      <trkpt lat="48.0223800" lon="7.5346000">
        <ele>-211.4</ele>
        <time>2022-06-03T10:33:24Z</time>
      </trkpt>
      <trkpt lat="48.0222600" lon="7.5347130">
        <ele>-211.2</ele>
        <time>2022-06-03T10:33:28Z</time>
      </trkpt>
      <trkpt lat="48.0221350" lon="7.5348130">
        <ele>-211.6</ele>
        <time>2022-06-03T10:33:32Z</time>
      </trkpt>
      <trkpt lat="48.0219960" lon="7.5349100">
        <ele>-211.2</ele>
        <time>2022-06-03T10:33:36Z</time>
      </trkpt>
      <trkpt lat="48.0218650" lon="7.5350150">
        <ele>-211.2</ele>
        <time>2022-06-03T10:33:40Z</time>
      </trkpt>
      <trkpt lat="48.0217410" lon="7.5351030">
        <ele>-211.2</ele>
        <time>2022-06-03T10:33:44Z</time>
      </trkpt>
      <trkpt lat="48.0215910" lon="7.5352150">
        <ele>-211.4</ele>
        <time>2022-06-03T10:33:48Z</time>
      </trkpt>
      <trkpt lat="48.0214550" lon="7.5353450">
        <ele>-211.4</ele>
        <time>2022-06-03T10:33:52Z</time>
      </trkpt>
      <trkpt lat="48.0214100" lon="7.5355200">
        <ele>-211.4</ele>
        <time>2022-06-03T10:33:56Z</time>
      </trkpt>
      <trkpt lat="48.0214250" lon="7.5356650">
        <ele>-211.2</ele>
        <time>2022-06-03T10:34:00Z</time>
      </trkpt>
      <trkpt lat="48.0214450" lon="7.5357710">
        <ele>-211.2</ele>
        <time>2022-06-03T10:34:04Z</time>
      </trkpt>
      <trkpt lat="48.0214450" lon="7.5357710">
        <ele>-211.2</ele>
        <time>2022-06-03T10:34:08Z</time>
      </trkpt>
      <trkpt lat="48.0214450" lon="7.5357710">
        <ele>-210.8</ele>
        <time>2022-06-03T10:34:12Z</time>
      </trkpt>
      <trkpt lat="48.0214350" lon="7.5358030">
        <ele>-210.6</ele>
        <time>2022-06-03T10:34:16Z</time>
      </trkpt>
      <trkpt lat="48.0214830" lon="7.5358550">
        <ele>-211.2</ele>
        <time>2022-06-03T10:34:20Z</time>
      </trkpt>
      <trkpt lat="48.0215830" lon="7.5358430">
        <ele>-211.0</ele>
        <time>2022-06-03T10:34:24Z</time>
      </trkpt>
      <trkpt lat="48.0217160" lon="7.5358150">
        <ele>-211.2</ele>
        <time>2022-06-03T10:34:28Z</time>
      </trkpt>
      <trkpt lat="48.0218710" lon="7.5357750">
        <ele>-210.8</ele>
        <time>2022-06-03T10:34:32Z</time>
      </trkpt>
      <trkpt lat="48.0220380" lon="7.5357550">
        <ele>-210.8</ele>
        <time>2022-06-03T10:34:36Z</time>
      </trkpt>
      <trkpt lat="48.0222260" lon="7.5357450">
        <ele>-210.2</ele>
        <time>2022-06-03T10:34:40Z</time>
      </trkpt>
      <trkpt lat="48.0224130" lon="7.5357210">
        <ele>-210.4</ele>
        <time>2022-06-03T10:34:44Z</time>
      </trkpt>
      <trkpt lat="48.0226010" lon="7.5356700">
        <ele>-211.0</ele>
        <time>2022-06-03T10:34:48Z</time>
      </trkpt>
      <trkpt lat="48.0227800" lon="7.5355730">
        <ele>-211.0</ele>
        <time>2022-06-03T10:34:52Z</time>
      </trkpt>
      <trkpt lat="48.0229460" lon="7.5354310">
        <ele>-210.8</ele>
        <time>2022-06-03T10:34:56Z</time>
      </trkpt>
      <trkpt lat="48.0230860" lon="7.5352480">
        <ele>-210.6</ele>
        <time>2022-06-03T10:35:00Z</time>
      </trkpt>
      <trkpt lat="48.0232080" lon="7.5350450">
        <ele>-210.2</ele>
        <time>2022-06-03T10:35:04Z</time>
      </trkpt>
      <trkpt lat="48.0233430" lon="7.5348780">
        <ele>-210.0</ele>
        <time>2022-06-03T10:35:08Z</time>
      </trkpt>
      <trkpt lat="48.0235030" lon="7.5347860">
        <ele>-209.6</ele>
        <time>2022-06-03T10:35:12Z</time>
      </trkpt>
      <trkpt lat="48.0236710" lon="7.5346800">
        <ele>-210.4</ele>
        <time>2022-06-03T10:35:16Z</time>
      </trkpt>
      <trkpt lat="48.0237680" lon="7.5344400">
        <ele>-210.0</ele>
        <time>2022-06-03T10:35:20Z</time>
      </trkpt>
      <trkpt lat="48.0237200" lon="7.5341700">
        <ele>-210.0</ele>
        <time>2022-06-03T10:35:24Z</time>
      </trkpt>
      <trkpt lat="48.0235710" lon="7.5340130">
        <ele>-209.4</ele>
        <time>2022-06-03T10:35:28Z</time>
      </trkpt>
      <trkpt lat="48.0234060" lon="7.5338810">
        <ele>-209.0</ele>
        <time>2022-06-03T10:35:32Z</time>
      </trkpt>
      <trkpt lat="48.0232730" lon="7.5337180">
        <ele>-208.4</ele>
        <time>2022-06-03T10:35:36Z</time>
      </trkpt>
      <trkpt lat="48.0231650" lon="7.5335380">
        <ele>-207.6</ele>
        <time>2022-06-03T10:35:40Z</time>
      </trkpt>
      <trkpt lat="48.0230600" lon="7.5333400">
        <ele>-207.2</ele>
        <time>2022-06-03T10:35:44Z</time>
      </trkpt>
      <trkpt lat="48.0229430" lon="7.5331380">
        <ele>-207.2</ele>
        <time>2022-06-03T10:35:48Z</time>
      </trkpt>
      <trkpt lat="48.0228300" lon="7.5329230">
        <ele>-207.0</ele>
        <time>2022-06-03T10:35:52Z</time>
      </trkpt>
      <trkpt lat="48.0227060" lon="7.5326960">
        <ele>-207.4</ele>
        <time>2022-06-03T10:35:56Z</time>
      </trkpt>
      <trkpt lat="48.0225760" lon="7.5324580">
        <ele>-208.0</ele>
        <time>2022-06-03T10:36:00Z</time>
      </trkpt>
      <trkpt lat="48.0224530" lon="7.5322030">
        <ele>-208.0</ele>
        <time>2022-06-03T10:36:04Z</time>
      </trkpt>
      <trkpt lat="48.0222930" lon="7.5319480">
        <ele>-208.2</ele>
        <time>2022-06-03T10:36:08Z</time>
      </trkpt>
      <trkpt lat="48.0220960" lon="7.5317310">
        <ele>-209.8</ele>
        <time>2022-06-03T10:36:12Z</time>
      </trkpt>
      <trkpt lat="48.0218700" lon="7.5316080">
        <ele>-210.0</ele>
        <time>2022-06-03T10:36:16Z</time>
      </trkpt>
      <trkpt lat="48.0216300" lon="7.5315710">
        <ele>-210.0</ele>
        <time>2022-06-03T10:36:20Z</time>
      </trkpt>
      <trkpt lat="48.0213760" lon="7.5315900">
        <ele>-211.2</ele>
        <time>2022-06-03T10:36:24Z</time>
      </trkpt>
      <trkpt lat="48.0211280" lon="7.5316480">
        <ele>-211.2</ele>
        <time>2022-06-03T10:36:28Z</time>
      </trkpt>
      <trkpt lat="48.0209060" lon="7.5317110">
        <ele>-211.2</ele>
        <time>2022-06-03T10:36:32Z</time>
      </trkpt>
      <trkpt lat="48.0206900" lon="7.5317310">
        <ele>-211.4</ele>
        <time>2022-06-03T10:36:36Z</time>
      </trkpt>
      <trkpt lat="48.0205030" lon="7.5316230">
        <ele>-211.4</ele>
        <time>2022-06-03T10:36:40Z</time>
      </trkpt>
      <trkpt lat="48.0203650" lon="7.5314650">
        <ele>-211.2</ele>
        <time>2022-06-03T10:36:44Z</time>
      </trkpt>
      <trkpt lat="48.0202260" lon="7.5312730">
        <ele>-211.0</ele>
        <time>2022-06-03T10:36:48Z</time>
      </trkpt>
      <trkpt lat="48.0200950" lon="7.5311000">
        <ele>-212.0</ele>
        <time>2022-06-03T10:36:52Z</time>
      </trkpt>
      <trkpt lat="48.0200180" lon="7.5310030">
        <ele>-211.6</ele>
        <time>2022-06-03T10:36:56Z</time>
      </trkpt>
      <trkpt lat="48.0199380" lon="7.5309060">
        <ele>-212.2</ele>
        <time>2022-06-03T10:37:00Z</time>
      </trkpt>
      <trkpt lat="48.0198450" lon="7.5307880">
        <ele>-212.0</ele>
        <time>2022-06-03T10:37:04Z</time>
      </trkpt>
      <trkpt lat="48.0197560" lon="7.5306760">
        <ele>-211.8</ele>
        <time>2022-06-03T10:37:08Z</time>
      </trkpt>
      <trkpt lat="48.0196700" lon="7.5305710">
        <ele>-211.8</ele>
        <time>2022-06-03T10:37:12Z</time>
      </trkpt>
      <trkpt lat="48.0196850" lon="7.5304710">
        <ele>-212.6</ele>
        <time>2022-06-03T10:37:16Z</time>
      </trkpt>
      <trkpt lat="48.0196850" lon="7.5304710">
        <ele>-212.0</ele>
        <time>2022-06-03T10:37:20Z</time>
      </trkpt>
      <trkpt lat="48.0196850" lon="7.5304710">
        <ele>-212.0</ele>
        <time>2022-06-03T10:37:24Z</time>
      </trkpt>
      <trkpt lat="48.0196850" lon="7.5304710">
        <ele>-211.8</ele>
        <time>2022-06-03T10:37:28Z</time>
      </trkpt>
      <trkpt lat="48.0196850" lon="7.5304710">
        <ele>-211.8</ele>
        <time>2022-06-03T10:37:32Z</time>
      </trkpt>
      <trkpt lat="48.0196850" lon="7.5304710">
        <ele>-212.0</ele>
        <time>2022-06-03T10:37:36Z</time>
      </trkpt>
      <trkpt lat="48.0196850" lon="7.5304710">
        <ele>-212.2</ele>
        <time>2022-06-03T10:37:40Z</time>
      </trkpt>
      <trkpt lat="48.0197130" lon="7.5304750">
        <ele>-212.4</ele>
        <time>2022-06-03T10:37:44Z</time>
      </trkpt>
      <trkpt lat="48.0197260" lon="7.5305250">
        <ele>-212.6</ele>
        <time>2022-06-03T10:37:48Z</time>
      </trkpt>
      <trkpt lat="48.0197460" lon="7.5305000">
        <ele>-212.4</ele>
        <time>2022-06-03T10:37:52Z</time>
      </trkpt>
      <trkpt lat="48.0197460" lon="7.5305000">
        <ele>-211.8</ele>
        <time>2022-06-03T10:37:56Z</time>
      </trkpt>
      <trkpt lat="48.0197460" lon="7.5305000">
        <ele>-212.0</ele>
        <time>2022-06-03T10:38:00Z</time>
      </trkpt>
      <trkpt lat="48.0197310" lon="7.5304850">
        <ele>-212.4</ele>
        <time>2022-06-03T10:38:04Z</time>
      </trkpt>
      <trkpt lat="48.0197050" lon="7.5304700">
        <ele>-212.2</ele>
        <time>2022-06-03T10:38:08Z</time>
      </trkpt>
      <trkpt lat="48.0196530" lon="7.5304830">
        <ele>-212.2</ele>
        <time>2022-06-03T10:38:12Z</time>
      </trkpt>
      <trkpt lat="48.0195780" lon="7.5304980">
        <ele>-212.2</ele>
        <time>2022-06-03T10:38:16Z</time>
      </trkpt>
      <trkpt lat="48.0194900" lon="7.5304050">
        <ele>-212.2</ele>
        <time>2022-06-03T10:38:20Z</time>
      </trkpt>
      <trkpt lat="48.0193800" lon="7.5302730">
        <ele>-211.6</ele>
        <time>2022-06-03T10:38:24Z</time>
      </trkpt>
      <trkpt lat="48.0192610" lon="7.5301360">
        <ele>-211.4</ele>
        <time>2022-06-03T10:38:28Z</time>
      </trkpt>
      <trkpt lat="48.0191430" lon="7.5299950">
        <ele>-212.0</ele>
        <time>2022-06-03T10:38:32Z</time>
      </trkpt>
      <trkpt lat="48.0190210" lon="7.5298530">
        <ele>-211.4</ele>
        <time>2022-06-03T10:38:36Z</time>
      </trkpt>
      <trkpt lat="48.0189150" lon="7.5297160">
        <ele>-211.6</ele>
        <time>2022-06-03T10:38:40Z</time>
      </trkpt>
      <trkpt lat="48.0187930" lon="7.5295800">
        <ele>-212.0</ele>
        <time>2022-06-03T10:38:44Z</time>
      </trkpt>
      <trkpt lat="48.0186930" lon="7.5294380">
        <ele>-211.4</ele>
        <time>2022-06-03T10:38:48Z</time>
      </trkpt>
      <trkpt lat="48.0185910" lon="7.5292810">
        <ele>-211.4</ele>
        <time>2022-06-03T10:38:52Z</time>
      </trkpt>
      <trkpt lat="48.0184600" lon="7.5291210">
        <ele>-211.8</ele>
        <time>2022-06-03T10:38:56Z</time>
      </trkpt>
      <trkpt lat="48.0183480" lon="7.5289730">
        <ele>-211.2</ele>
        <time>2022-06-03T10:39:00Z</time>
      </trkpt>
      <trkpt lat="48.0183000" lon="7.5287910">
        <ele>-212.0</ele>
        <time>2022-06-03T10:39:04Z</time>
      </trkpt>
      <trkpt lat="48.0183600" lon="7.5285680">
        <ele>-211.4</ele>
        <time>2022-06-03T10:39:08Z</time>
      </trkpt>
      <trkpt lat="48.0184450" lon="7.5283880">
        <ele>-212.0</ele>
        <time>2022-06-03T10:39:12Z</time>
      </trkpt>
      <trkpt lat="48.0184950" lon="7.5281910">
        <ele>-211.4</ele>
        <time>2022-06-03T10:39:16Z</time>
      </trkpt>
      <trkpt lat="48.0183780" lon="7.5280380">
        <ele>-212.2</ele>
        <time>2022-06-03T10:39:20Z</time>
      </trkpt>
      <trkpt lat="48.0182710" lon="7.5278950">
        <ele>-212.2</ele>
        <time>2022-06-03T10:39:24Z</time>
      </trkpt>
      <trkpt lat="48.0182210" lon="7.5277300">
        <ele>-212.0</ele>
        <time>2022-06-03T10:39:28Z</time>
      </trkpt>
      <trkpt lat="48.0182580" lon="7.5275660">
        <ele>-211.8</ele>
        <time>2022-06-03T10:39:32Z</time>
      </trkpt>
      <trkpt lat="48.0183450" lon="7.5274050">
        <ele>-211.6</ele>
        <time>2022-06-03T10:39:36Z</time>
      </trkpt>
      <trkpt lat="48.0184210" lon="7.5272380">
        <ele>-211.8</ele>
        <time>2022-06-03T10:39:40Z</time>
      </trkpt>
      <trkpt lat="48.0185000" lon="7.5270810">
        <ele>-211.8</ele>
        <time>2022-06-03T10:39:44Z</time>
      </trkpt>
      <trkpt lat="48.0185850" lon="7.5269410">
        <ele>-212.2</ele>
        <time>2022-06-03T10:39:48Z</time>
      </trkpt>
      <trkpt lat="48.0186750" lon="7.5267880">
        <ele>-212.4</ele>
        <time>2022-06-03T10:39:52Z</time>
      </trkpt>
      <trkpt lat="48.0187610" lon="7.5266410">
        <ele>-212.6</ele>
        <time>2022-06-03T10:39:56Z</time>
      </trkpt>
      <trkpt lat="48.0188450" lon="7.5264950">
        <ele>-212.6</ele>
        <time>2022-06-03T10:40:00Z</time>
      </trkpt>
      <trkpt lat="48.0189160" lon="7.5263400">
        <ele>-212.8</ele>
        <time>2022-06-03T10:40:04Z</time>
      </trkpt>
      <trkpt lat="48.0189900" lon="7.5262060">
        <ele>-212.6</ele>
        <time>2022-06-03T10:40:08Z</time>
      </trkpt>
      <trkpt lat="48.0190650" lon="7.5260610">
        <ele>-212.4</ele>
        <time>2022-06-03T10:40:12Z</time>
      </trkpt>
      <trkpt lat="48.0191450" lon="7.5259100">
        <ele>-212.6</ele>
        <time>2022-06-03T10:40:16Z</time>
      </trkpt>
      <trkpt lat="48.0192300" lon="7.5257710">
        <ele>-212.6</ele>
        <time>2022-06-03T10:40:20Z</time>
      </trkpt>
      <trkpt lat="48.0193100" lon="7.5256360">
        <ele>-212.8</ele>
        <time>2022-06-03T10:40:24Z</time>
      </trkpt>
      <trkpt lat="48.0193860" lon="7.5255060">
        <ele>-213.0</ele>
        <time>2022-06-03T10:40:28Z</time>
      </trkpt>
      <trkpt lat="48.0194460" lon="7.5253860">
        <ele>-212.8</ele>
        <time>2022-06-03T10:40:32Z</time>
      </trkpt>
      <trkpt lat="48.0195030" lon="7.5253200">
        <ele>-213.0</ele>
        <time>2022-06-03T10:40:36Z</time>
      </trkpt>
      <trkpt lat="48.0196310" lon="7.5250300">
        <ele>-212.8</ele>
        <time>2022-06-03T10:40:40Z</time>
      </trkpt>
      <trkpt lat="48.0197330" lon="7.5248600">
        <ele>-212.4</ele>
        <time>2022-06-03T10:40:44Z</time>
      </trkpt>
      <trkpt lat="48.0198180" lon="7.5247180">
        <ele>-212.8</ele>
        <time>2022-06-03T10:40:48Z</time>
      </trkpt>
      <trkpt lat="48.0198750" lon="7.5246050">
        <ele>-213.0</ele>
        <time>2022-06-03T10:40:52Z</time>
      </trkpt>
      <trkpt lat="48.0199500" lon="7.5244710">
        <ele>-213.4</ele>
        <time>2022-06-03T10:40:56Z</time>
      </trkpt>
      <trkpt lat="48.0200360" lon="7.5243180">
        <ele>-213.4</ele>
        <time>2022-06-03T10:41:00Z</time>
      </trkpt>
      <trkpt lat="48.0200960" lon="7.5241700">
        <ele>-213.2</ele>
        <time>2022-06-03T10:41:04Z</time>
      </trkpt>
      <trkpt lat="48.0201260" lon="7.5240080">
        <ele>-212.8</ele>
        <time>2022-06-03T10:41:08Z</time>
      </trkpt>
      <trkpt lat="48.0201280" lon="7.5238400">
        <ele>-212.8</ele>
        <time>2022-06-03T10:41:12Z</time>
      </trkpt>
      <trkpt lat="48.0201250" lon="7.5236450">
        <ele>-213.0</ele>
        <time>2022-06-03T10:41:16Z</time>
      </trkpt>
      <trkpt lat="48.0201080" lon="7.5234450">
        <ele>-212.6</ele>
        <time>2022-06-03T10:41:20Z</time>
      </trkpt>
      <trkpt lat="48.0200880" lon="7.5232460">
        <ele>-212.8</ele>
        <time>2022-06-03T10:41:24Z</time>
      </trkpt>
      <trkpt lat="48.0200650" lon="7.5230180">
        <ele>-213.0</ele>
        <time>2022-06-03T10:41:28Z</time>
      </trkpt>
      <trkpt lat="48.0200360" lon="7.5227760">
        <ele>-212.8</ele>
        <time>2022-06-03T10:41:32Z</time>
      </trkpt>
      <trkpt lat="48.0200280" lon="7.5225280">
        <ele>-213.0</ele>
        <time>2022-06-03T10:41:36Z</time>
      </trkpt>
      <trkpt lat="48.0200500" lon="7.5222680">
        <ele>-213.2</ele>
        <time>2022-06-03T10:41:40Z</time>
      </trkpt>
      <trkpt lat="48.0200850" lon="7.5220050">
        <ele>-213.6</ele>
        <time>2022-06-03T10:41:44Z</time>
      </trkpt>
      <trkpt lat="48.0201550" lon="7.5217580">
        <ele>-213.6</ele>
        <time>2022-06-03T10:41:48Z</time>
      </trkpt>
      <trkpt lat="48.0202250" lon="7.5215130">
        <ele>-213.2</ele>
        <time>2022-06-03T10:41:52Z</time>
      </trkpt>
      <trkpt lat="48.0202980" lon="7.5212910">
        <ele>-213.0</ele>
        <time>2022-06-03T10:41:56Z</time>
      </trkpt>
      <trkpt lat="48.0204510" lon="7.5211830">
        <ele>-213.4</ele>
        <time>2022-06-03T10:42:00Z</time>
      </trkpt>
      <trkpt lat="48.0206250" lon="7.5211430">
        <ele>-212.8</ele>
        <time>2022-06-03T10:42:04Z</time>
      </trkpt>
      <trkpt lat="48.0207850" lon="7.5210580">
        <ele>-212.8</ele>
        <time>2022-06-03T10:42:08Z</time>
      </trkpt>
      <trkpt lat="48.0209450" lon="7.5209330">
        <ele>-212.6</ele>
        <time>2022-06-03T10:42:12Z</time>
      </trkpt>
      <trkpt lat="48.0210900" lon="7.5207880">
        <ele>-213.8</ele>
        <time>2022-06-03T10:42:16Z</time>
      </trkpt>
      <trkpt lat="48.0212310" lon="7.5206650">
        <ele>-213.6</ele>
        <time>2022-06-03T10:42:20Z</time>
      </trkpt>
      <trkpt lat="48.0213560" lon="7.5205550">
        <ele>-213.2</ele>
        <time>2022-06-03T10:42:24Z</time>
      </trkpt>
      <trkpt lat="48.0214860" lon="7.5204180">
        <ele>-213.8</ele>
        <time>2022-06-03T10:42:28Z</time>
      </trkpt>
      <trkpt lat="48.0216130" lon="7.5202850">
        <ele>-213.2</ele>
        <time>2022-06-03T10:42:32Z</time>
      </trkpt>
      <trkpt lat="48.0217500" lon="7.5201500">
        <ele>-213.2</ele>
        <time>2022-06-03T10:42:36Z</time>
      </trkpt>
      <trkpt lat="48.0218860" lon="7.5200130">
        <ele>-213.0</ele>
        <time>2022-06-03T10:42:40Z</time>
      </trkpt>
      <trkpt lat="48.0220210" lon="7.5198850">
        <ele>-213.2</ele>
        <time>2022-06-03T10:42:44Z</time>
      </trkpt>
      <trkpt lat="48.0221600" lon="7.5197510">
        <ele>-213.4</ele>
        <time>2022-06-03T10:42:48Z</time>
      </trkpt>
      <trkpt lat="48.0222910" lon="7.5196010">
        <ele>-213.6</ele>
        <time>2022-06-03T10:42:52Z</time>
      </trkpt>
      <trkpt lat="48.0224330" lon="7.5194600">
        <ele>-214.6</ele>
        <time>2022-06-03T10:42:56Z</time>
      </trkpt>
      <trkpt lat="48.0225760" lon="7.5192760">
        <ele>-214.6</ele>
        <time>2022-06-03T10:43:00Z</time>
      </trkpt>
      <trkpt lat="48.0226960" lon="7.5190780">
        <ele>-214.0</ele>
        <time>2022-06-03T10:43:04Z</time>
      </trkpt>
      <trkpt lat="48.0227780" lon="7.5188580">
        <ele>-214.6</ele>
        <time>2022-06-03T10:43:08Z</time>
      </trkpt>
      <trkpt lat="48.0228550" lon="7.5186560">
        <ele>-213.8</ele>
        <time>2022-06-03T10:43:12Z</time>
      </trkpt>
      <trkpt lat="48.0229680" lon="7.5184980">
        <ele>-214.0</ele>
        <time>2022-06-03T10:43:16Z</time>
      </trkpt>
      <trkpt lat="48.0231050" lon="7.5183480">
        <ele>-213.8</ele>
        <time>2022-06-03T10:43:20Z</time>
      </trkpt>
      <trkpt lat="48.0232200" lon="7.5181430">
        <ele>-214.0</ele>
        <time>2022-06-03T10:43:24Z</time>
      </trkpt>
      <trkpt lat="48.0233150" lon="7.5179310">
        <ele>-213.6</ele>
        <time>2022-06-03T10:43:28Z</time>
      </trkpt>
      <trkpt lat="48.0234030" lon="7.5177110">
        <ele>-213.4</ele>
        <time>2022-06-03T10:43:32Z</time>
      </trkpt>
      <trkpt lat="48.0234800" lon="7.5174760">
        <ele>-213.4</ele>
        <time>2022-06-03T10:43:36Z</time>
      </trkpt>
      <trkpt lat="48.0235930" lon="7.5172550">
        <ele>-213.8</ele>
        <time>2022-06-03T10:43:40Z</time>
      </trkpt>
      <trkpt lat="48.0237280" lon="7.5170430">
        <ele>-213.8</ele>
        <time>2022-06-03T10:43:44Z</time>
      </trkpt>
      <trkpt lat="48.0238460" lon="7.5168180">
        <ele>-213.6</ele>
        <time>2022-06-03T10:43:48Z</time>
      </trkpt>
      <trkpt lat="48.0239560" lon="7.5166000">
        <ele>-213.4</ele>
        <time>2022-06-03T10:43:52Z</time>
      </trkpt>
      <trkpt lat="48.0240110" lon="7.5163400">
        <ele>-213.6</ele>
        <time>2022-06-03T10:43:56Z</time>
      </trkpt>
      <trkpt lat="48.0241060" lon="7.5160900">
        <ele>-214.0</ele>
        <time>2022-06-03T10:44:00Z</time>
      </trkpt>
      <trkpt lat="48.0241850" lon="7.5158400">
        <ele>-213.6</ele>
        <time>2022-06-03T10:44:04Z</time>
      </trkpt>
      <trkpt lat="48.0242880" lon="7.5156130">
        <ele>-213.6</ele>
        <time>2022-06-03T10:44:08Z</time>
      </trkpt>
      <trkpt lat="48.0244050" lon="7.5153810">
        <ele>-213.6</ele>
        <time>2022-06-03T10:44:12Z</time>
      </trkpt>
      <trkpt lat="48.0245150" lon="7.5151580">
        <ele>-213.8</ele>
        <time>2022-06-03T10:44:16Z</time>
      </trkpt>
      <trkpt lat="48.0246130" lon="7.5149300">
        <ele>-214.2</ele>
        <time>2022-06-03T10:44:20Z</time>
      </trkpt>
      <trkpt lat="48.0247050" lon="7.5147150">
        <ele>-214.2</ele>
        <time>2022-06-03T10:44:24Z</time>
      </trkpt>
      <trkpt lat="48.0248050" lon="7.5144960">
        <ele>-214.2</ele>
        <time>2022-06-03T10:44:28Z</time>
      </trkpt>
      <trkpt lat="48.0249110" lon="7.5142610">
        <ele>-214.0</ele>
        <time>2022-06-03T10:44:32Z</time>
      </trkpt>
      <trkpt lat="48.0250200" lon="7.5140210">
        <ele>-214.4</ele>
        <time>2022-06-03T10:44:36Z</time>
      </trkpt>
      <trkpt lat="48.0251310" lon="7.5137860">
        <ele>-213.4</ele>
        <time>2022-06-03T10:44:40Z</time>
      </trkpt>
      <trkpt lat="48.0252360" lon="7.5135450">
        <ele>-213.6</ele>
        <time>2022-06-03T10:44:44Z</time>
      </trkpt>
      <trkpt lat="48.0253460" lon="7.5133100">
        <ele>-213.6</ele>
        <time>2022-06-03T10:44:48Z</time>
      </trkpt>
      <trkpt lat="48.0254510" lon="7.5130780">
        <ele>-214.0</ele>
        <time>2022-06-03T10:44:52Z</time>
      </trkpt>
      <trkpt lat="48.0255530" lon="7.5128400">
        <ele>-213.6</ele>
        <time>2022-06-03T10:44:56Z</time>
      </trkpt>
      <trkpt lat="48.0256580" lon="7.5126150">
        <ele>-213.8</ele>
        <time>2022-06-03T10:45:00Z</time>
      </trkpt>
      <trkpt lat="48.0257600" lon="7.5123950">
        <ele>-214.0</ele>
        <time>2022-06-03T10:45:04Z</time>
      </trkpt>
      <trkpt lat="48.0258610" lon="7.5121630">
        <ele>-214.2</ele>
        <time>2022-06-03T10:45:08Z</time>
      </trkpt>
      <trkpt lat="48.0259710" lon="7.5119210">
        <ele>-214.6</ele>
        <time>2022-06-03T10:45:12Z</time>
      </trkpt>
      <trkpt lat="48.0260880" lon="7.5116880">
        <ele>-214.8</ele>
        <time>2022-06-03T10:45:16Z</time>
      </trkpt>
      <trkpt lat="48.0261950" lon="7.5114560">
        <ele>-215.0</ele>
        <time>2022-06-03T10:45:20Z</time>
      </trkpt>
      <trkpt lat="48.0263000" lon="7.5112380">
        <ele>-215.0</ele>
        <time>2022-06-03T10:45:24Z</time>
      </trkpt>
      <trkpt lat="48.0264060" lon="7.5109980">
        <ele>-215.0</ele>
        <time>2022-06-03T10:45:28Z</time>
      </trkpt>
      <trkpt lat="48.0265130" lon="7.5107400">
        <ele>-215.0</ele>
        <time>2022-06-03T10:45:32Z</time>
      </trkpt>
      <trkpt lat="48.0266260" lon="7.5104960">
        <ele>-214.8</ele>
        <time>2022-06-03T10:45:36Z</time>
      </trkpt>
      <trkpt lat="48.0267310" lon="7.5102500">
        <ele>-215.0</ele>
        <time>2022-06-03T10:45:40Z</time>
      </trkpt>
      <trkpt lat="48.0268250" lon="7.5100100">
        <ele>-214.8</ele>
        <time>2022-06-03T10:45:44Z</time>
      </trkpt>
      <trkpt lat="48.0269280" lon="7.5097860">
        <ele>-214.6</ele>
        <time>2022-06-03T10:45:48Z</time>
      </trkpt>
      <trkpt lat="48.0270280" lon="7.5095610">
        <ele>-214.4</ele>
        <time>2022-06-03T10:45:52Z</time>
      </trkpt>
      <trkpt lat="48.0271400" lon="7.5093200">
        <ele>-214.8</ele>
        <time>2022-06-03T10:45:56Z</time>
      </trkpt>
      <trkpt lat="48.0272530" lon="7.5090710">
        <ele>-214.6</ele>
        <time>2022-06-03T10:46:00Z</time>
      </trkpt>
      <trkpt lat="48.0273660" lon="7.5088230">
        <ele>-215.0</ele>
        <time>2022-06-03T10:46:04Z</time>
      </trkpt>
      <trkpt lat="48.0274380" lon="7.5086380">
        <ele>-215.0</ele>
        <time>2022-06-03T10:46:08Z</time>
      </trkpt>
      <trkpt lat="48.0275050" lon="7.5084630">
        <ele>-215.2</ele>
        <time>2022-06-03T10:46:12Z</time>
      </trkpt>
      <trkpt lat="48.0276080" lon="7.5082400">
        <ele>-215.0</ele>
        <time>2022-06-03T10:46:16Z</time>
      </trkpt>
      <trkpt lat="48.0277350" lon="7.5080160">
        <ele>-215.2</ele>
        <time>2022-06-03T10:46:20Z</time>
      </trkpt>
      <trkpt lat="48.0278410" lon="7.5077850">
        <ele>-215.2</ele>
        <time>2022-06-03T10:46:24Z</time>
      </trkpt>
      <trkpt lat="48.0279460" lon="7.5075580">
        <ele>-215.0</ele>
        <time>2022-06-03T10:46:28Z</time>
      </trkpt>
      <trkpt lat="48.0280480" lon="7.5073210">
        <ele>-215.2</ele>
        <time>2022-06-03T10:46:32Z</time>
      </trkpt>
      <trkpt lat="48.0281630" lon="7.5070830">
        <ele>-215.2</ele>
        <time>2022-06-03T10:46:36Z</time>
      </trkpt>
      <trkpt lat="48.0282680" lon="7.5068430">
        <ele>-215.4</ele>
        <time>2022-06-03T10:46:40Z</time>
      </trkpt>
      <trkpt lat="48.0283700" lon="7.5066030">
        <ele>-215.2</ele>
        <time>2022-06-03T10:46:44Z</time>
      </trkpt>
      <trkpt lat="48.0284760" lon="7.5063710">
        <ele>-215.4</ele>
        <time>2022-06-03T10:46:48Z</time>
      </trkpt>
      <trkpt lat="48.0285750" lon="7.5061380">
        <ele>-215.4</ele>
        <time>2022-06-03T10:46:52Z</time>
      </trkpt>
      <trkpt lat="48.0286830" lon="7.5059080">
        <ele>-215.8</ele>
        <time>2022-06-03T10:46:56Z</time>
      </trkpt>
      <trkpt lat="48.0288050" lon="7.5056700">
        <ele>-215.6</ele>
        <time>2022-06-03T10:47:00Z</time>
      </trkpt>
      <trkpt lat="48.0289210" lon="7.5054180">
        <ele>-215.6</ele>
        <time>2022-06-03T10:47:04Z</time>
      </trkpt>
      <trkpt lat="48.0290050" lon="7.5051410">
        <ele>-216.2</ele>
        <time>2022-06-03T10:47:08Z</time>
      </trkpt>
      <trkpt lat="48.0290330" lon="7.5048280">
        <ele>-216.4</ele>
        <time>2022-06-03T10:47:12Z</time>
      </trkpt>
      <trkpt lat="48.0290580" lon="7.5045050">
        <ele>-215.8</ele>
        <time>2022-06-03T10:47:16Z</time>
      </trkpt>
      <trkpt lat="48.0290730" lon="7.5041810">
        <ele>-216.0</ele>
        <time>2022-06-03T10:47:20Z</time>
      </trkpt>
      <trkpt lat="48.0290650" lon="7.5038550">
        <ele>-216.2</ele>
        <time>2022-06-03T10:47:24Z</time>
      </trkpt>
      <trkpt lat="48.0290530" lon="7.5035280">
        <ele>-217.2</ele>
        <time>2022-06-03T10:47:28Z</time>
      </trkpt>
      <trkpt lat="48.0290360" lon="7.5032050">
        <ele>-217.6</ele>
        <time>2022-06-03T10:47:32Z</time>
      </trkpt>
      <trkpt lat="48.0290280" lon="7.5028960">
        <ele>-216.6</ele>
        <time>2022-06-03T10:47:36Z</time>
      </trkpt>
      <trkpt lat="48.0290150" lon="7.5026200">
        <ele>-217.4</ele>
        <time>2022-06-03T10:47:40Z</time>
      </trkpt>
      <trkpt lat="48.0289880" lon="7.5024200">
        <ele>-216.8</ele>
        <time>2022-06-03T10:47:44Z</time>
      </trkpt>
      <trkpt lat="48.0288560" lon="7.5023680">
        <ele>-216.4</ele>
        <time>2022-06-03T10:47:48Z</time>
      </trkpt>
      <trkpt lat="48.0286810" lon="7.5023060">
        <ele>-215.6</ele>
        <time>2022-06-03T10:47:52Z</time>
      </trkpt>
      <trkpt lat="48.0285110" lon="7.5022800">
        <ele>-215.8</ele>
        <time>2022-06-03T10:47:56Z</time>
      </trkpt>
      <trkpt lat="48.0283480" lon="7.5022280">
        <ele>-215.6</ele>
        <time>2022-06-03T10:48:00Z</time>
      </trkpt>
      <trkpt lat="48.0281780" lon="7.5021730">
        <ele>-215.6</ele>
        <time>2022-06-03T10:48:04Z</time>
      </trkpt>
      <trkpt lat="48.0280050" lon="7.5021130">
        <ele>-216.0</ele>
        <time>2022-06-03T10:48:08Z</time>
      </trkpt>
      <trkpt lat="48.0278480" lon="7.5020080">
        <ele>-215.4</ele>
        <time>2022-06-03T10:48:12Z</time>
      </trkpt>
      <trkpt lat="48.0277550" lon="7.5018310">
        <ele>-215.6</ele>
        <time>2022-06-03T10:48:16Z</time>
      </trkpt>
      <trkpt lat="48.0277450" lon="7.5016150">
        <ele>-216.4</ele>
        <time>2022-06-03T10:48:20Z</time>
      </trkpt>
      <trkpt lat="48.0277710" lon="7.5014150">
        <ele>-216.2</ele>
        <time>2022-06-03T10:48:24Z</time>
      </trkpt>
      <trkpt lat="48.0278250" lon="7.5012360">
        <ele>-216.2</ele>
        <time>2022-06-03T10:48:28Z</time>
      </trkpt>
      <trkpt lat="48.0279450" lon="7.5010730">
        <ele>-216.4</ele>
        <time>2022-06-03T10:48:32Z</time>
      </trkpt>
      <trkpt lat="48.0280450" lon="7.5008830">
        <ele>-216.2</ele>
        <time>2022-06-03T10:48:36Z</time>
      </trkpt>
      <trkpt lat="48.0281250" lon="7.5006630">
        <ele>-216.2</ele>
        <time>2022-06-03T10:48:40Z</time>
      </trkpt>
      <trkpt lat="48.0281950" lon="7.5004330">
        <ele>-216.0</ele>
        <time>2022-06-03T10:48:44Z</time>
      </trkpt>
      <trkpt lat="48.0282480" lon="7.5001960">
        <ele>-216.0</ele>
        <time>2022-06-03T10:48:48Z</time>
      </trkpt>
      <trkpt lat="48.0282810" lon="7.4999480">
        <ele>-216.0</ele>
        <time>2022-06-03T10:48:52Z</time>
      </trkpt>
      <trkpt lat="48.0282950" lon="7.4996930">
        <ele>-216.2</ele>
        <time>2022-06-03T10:48:56Z</time>
      </trkpt>
      <trkpt lat="48.0283050" lon="7.4994360">
        <ele>-215.8</ele>
        <time>2022-06-03T10:49:00Z</time>
      </trkpt>
      <trkpt lat="48.0283030" lon="7.4991810">
        <ele>-215.8</ele>
        <time>2022-06-03T10:49:04Z</time>
      </trkpt>
      <trkpt lat="48.0282980" lon="7.4989130">
        <ele>-216.2</ele>
        <time>2022-06-03T10:49:08Z</time>
      </trkpt>
      <trkpt lat="48.0283030" lon="7.4986450">
        <ele>-216.4</ele>
        <time>2022-06-03T10:49:12Z</time>
      </trkpt>
      <trkpt lat="48.0283160" lon="7.4983760">
        <ele>-215.8</ele>
        <time>2022-06-03T10:49:16Z</time>
      </trkpt>
      <trkpt lat="48.0283060" lon="7.4981310">
        <ele>-216.0</ele>
        <time>2022-06-03T10:49:20Z</time>
      </trkpt>
      <trkpt lat="48.0282280" lon="7.4979380">
        <ele>-216.4</ele>
        <time>2022-06-03T10:49:24Z</time>
      </trkpt>
      <trkpt lat="48.0282300" lon="7.4976560">
        <ele>-216.2</ele>
        <time>2022-06-03T10:49:28Z</time>
      </trkpt>
      <trkpt lat="48.0282510" lon="7.4973750">
        <ele>-216.0</ele>
        <time>2022-06-03T10:49:32Z</time>
      </trkpt>
      <trkpt lat="48.0282460" lon="7.4970900">
        <ele>-216.2</ele>
        <time>2022-06-03T10:49:36Z</time>
      </trkpt>
      <trkpt lat="48.0282610" lon="7.4968350">
        <ele>-215.8</ele>
        <time>2022-06-03T10:49:40Z</time>
      </trkpt>
      <trkpt lat="48.0282660" lon="7.4965780">
        <ele>-216.0</ele>
        <time>2022-06-03T10:49:44Z</time>
      </trkpt>
      <trkpt lat="48.0282660" lon="7.4963230">
        <ele>-215.6</ele>
        <time>2022-06-03T10:49:48Z</time>
      </trkpt>
      <trkpt lat="48.0282630" lon="7.4960730">
        <ele>-215.6</ele>
        <time>2022-06-03T10:49:52Z</time>
      </trkpt>
      <trkpt lat="48.0282650" lon="7.4958150">
        <ele>-215.2</ele>
        <time>2022-06-03T10:49:56Z</time>
      </trkpt>
      <trkpt lat="48.0282660" lon="7.4955780">
        <ele>-215.0</ele>
        <time>2022-06-03T10:50:00Z</time>
      </trkpt>
      <trkpt lat="48.0283210" lon="7.4953860">
        <ele>-214.6</ele>
        <time>2022-06-03T10:50:04Z</time>
      </trkpt>
      <trkpt lat="48.0283480" lon="7.4951780">
        <ele>-214.8</ele>
        <time>2022-06-03T10:50:08Z</time>
      </trkpt>
      <trkpt lat="48.0283230" lon="7.4949310">
        <ele>-215.0</ele>
        <time>2022-06-03T10:50:12Z</time>
      </trkpt>
      <trkpt lat="48.0282910" lon="7.4946810">
        <ele>-215.0</ele>
        <time>2022-06-03T10:50:16Z</time>
      </trkpt>
      <trkpt lat="48.0282810" lon="7.4944050">
        <ele>-215.4</ele>
        <time>2022-06-03T10:50:20Z</time>
      </trkpt>
      <trkpt lat="48.0282810" lon="7.4941080">
        <ele>-215.2</ele>
        <time>2022-06-03T10:50:24Z</time>
      </trkpt>
      <trkpt lat="48.0282800" lon="7.4938000">
        <ele>-215.4</ele>
        <time>2022-06-03T10:50:28Z</time>
      </trkpt>
      <trkpt lat="48.0282780" lon="7.4934900">
        <ele>-215.6</ele>
        <time>2022-06-03T10:50:32Z</time>
      </trkpt>
      <trkpt lat="48.0282800" lon="7.4931930">
        <ele>-215.4</ele>
        <time>2022-06-03T10:50:36Z</time>
      </trkpt>
      <trkpt lat="48.0282760" lon="7.4929080">
        <ele>-215.2</ele>
        <time>2022-06-03T10:50:40Z</time>
      </trkpt>
      <trkpt lat="48.0282750" lon="7.4926160">
        <ele>-215.4</ele>
        <time>2022-06-03T10:50:44Z</time>
      </trkpt>
      <trkpt lat="48.0282750" lon="7.4923200">
        <ele>-215.2</ele>
        <time>2022-06-03T10:50:48Z</time>
      </trkpt>
      <trkpt lat="48.0282730" lon="7.4920200">
        <ele>-215.4</ele>
        <time>2022-06-03T10:50:52Z</time>
      </trkpt>
      <trkpt lat="48.0282700" lon="7.4917200">
        <ele>-215.6</ele>
        <time>2022-06-03T10:50:56Z</time>
      </trkpt>
      <trkpt lat="48.0282650" lon="7.4914210">
        <ele>-215.2</ele>
        <time>2022-06-03T10:51:00Z</time>
      </trkpt>
      <trkpt lat="48.0282610" lon="7.4911130">
        <ele>-215.8</ele>
        <time>2022-06-03T10:51:04Z</time>
      </trkpt>
      <trkpt lat="48.0282530" lon="7.4908010">
        <ele>-215.6</ele>
        <time>2022-06-03T10:51:08Z</time>
      </trkpt>
      <trkpt lat="48.0282450" lon="7.4905100">
        <ele>-215.8</ele>
        <time>2022-06-03T10:51:12Z</time>
      </trkpt>
      <trkpt lat="48.0282400" lon="7.4902250">
        <ele>-215.8</ele>
        <time>2022-06-03T10:51:16Z</time>
      </trkpt>
      <trkpt lat="48.0282360" lon="7.4899380">
        <ele>-215.8</ele>
        <time>2022-06-03T10:51:20Z</time>
      </trkpt>
      <trkpt lat="48.0282310" lon="7.4896500">
        <ele>-216.2</ele>
        <time>2022-06-03T10:51:24Z</time>
      </trkpt>
      <trkpt lat="48.0282260" lon="7.4893630">
        <ele>-216.0</ele>
        <time>2022-06-03T10:51:28Z</time>
      </trkpt>
      <trkpt lat="48.0282130" lon="7.4890900">
        <ele>-216.2</ele>
        <time>2022-06-03T10:51:32Z</time>
      </trkpt>
      <trkpt lat="48.0282030" lon="7.4888110">
        <ele>-216.4</ele>
        <time>2022-06-03T10:51:36Z</time>
      </trkpt>
      <trkpt lat="48.0281930" lon="7.4885310">
        <ele>-216.8</ele>
        <time>2022-06-03T10:51:40Z</time>
      </trkpt>
      <trkpt lat="48.0281900" lon="7.4882730">
        <ele>-216.4</ele>
        <time>2022-06-03T10:51:44Z</time>
      </trkpt>
      <trkpt lat="48.0281830" lon="7.4880260">
        <ele>-216.2</ele>
        <time>2022-06-03T10:51:48Z</time>
      </trkpt>
      <trkpt lat="48.0281750" lon="7.4877850">
        <ele>-216.2</ele>
        <time>2022-06-03T10:51:52Z</time>
      </trkpt>
      <trkpt lat="48.0281700" lon="7.4875250">
        <ele>-215.8</ele>
        <time>2022-06-03T10:51:56Z</time>
      </trkpt>
      <trkpt lat="48.0281630" lon="7.4872650">
        <ele>-215.8</ele>
        <time>2022-06-03T10:52:00Z</time>
      </trkpt>
      <trkpt lat="48.0281560" lon="7.4870060">
        <ele>-215.2</ele>
        <time>2022-06-03T10:52:04Z</time>
      </trkpt>
      <trkpt lat="48.0281460" lon="7.4867510">
        <ele>-215.4</ele>
        <time>2022-06-03T10:52:08Z</time>
      </trkpt>
      <trkpt lat="48.0281330" lon="7.4864880">
        <ele>-215.8</ele>
        <time>2022-06-03T10:52:12Z</time>
      </trkpt>
      <trkpt lat="48.0281210" lon="7.4862310">
        <ele>-216.0</ele>
        <time>2022-06-03T10:52:16Z</time>
      </trkpt>
      <trkpt lat="48.0281110" lon="7.4859750">
        <ele>-215.4</ele>
        <time>2022-06-03T10:52:20Z</time>
      </trkpt>
      <trkpt lat="48.0281050" lon="7.4857210">
        <ele>-215.8</ele>
        <time>2022-06-03T10:52:24Z</time>
      </trkpt>
      <trkpt lat="48.0280850" lon="7.4854480">
        <ele>-215.8</ele>
        <time>2022-06-03T10:52:28Z</time>
      </trkpt>
      <trkpt lat="48.0280750" lon="7.4851860">
        <ele>-215.2</ele>
        <time>2022-06-03T10:52:32Z</time>
      </trkpt>
      <trkpt lat="48.0280730" lon="7.4849180">
        <ele>-216.0</ele>
        <time>2022-06-03T10:52:36Z</time>
      </trkpt>
      <trkpt lat="48.0280650" lon="7.4846400">
        <ele>-215.8</ele>
        <time>2022-06-03T10:52:40Z</time>
      </trkpt>
      <trkpt lat="48.0280510" lon="7.4843610">
        <ele>-216.0</ele>
        <time>2022-06-03T10:52:44Z</time>
      </trkpt>
      <trkpt lat="48.0280400" lon="7.4840680">
        <ele>-216.2</ele>
        <time>2022-06-03T10:52:48Z</time>
      </trkpt>
      <trkpt lat="48.0280280" lon="7.4837810">
        <ele>-216.6</ele>
        <time>2022-06-03T10:52:52Z</time>
      </trkpt>
      <trkpt lat="48.0280100" lon="7.4834760">
        <ele>-216.6</ele>
        <time>2022-06-03T10:52:56Z</time>
      </trkpt>
      <trkpt lat="48.0279950" lon="7.4831800">
        <ele>-216.6</ele>
        <time>2022-06-03T10:53:00Z</time>
      </trkpt>
      <trkpt lat="48.0279880" lon="7.4828930">
        <ele>-216.6</ele>
        <time>2022-06-03T10:53:04Z</time>
      </trkpt>
      <trkpt lat="48.0279700" lon="7.4826110">
        <ele>-216.2</ele>
        <time>2022-06-03T10:53:08Z</time>
      </trkpt>
      <trkpt lat="48.0279550" lon="7.4823250">
        <ele>-215.8</ele>
        <time>2022-06-03T10:53:12Z</time>
      </trkpt>
      <trkpt lat="48.0279430" lon="7.4820380">
        <ele>-216.4</ele>
        <time>2022-06-03T10:53:16Z</time>
      </trkpt>
      <trkpt lat="48.0279300" lon="7.4817680">
        <ele>-216.4</ele>
        <time>2022-06-03T10:53:20Z</time>
      </trkpt>
      <trkpt lat="48.0279200" lon="7.4815200">
        <ele>-216.4</ele>
        <time>2022-06-03T10:53:24Z</time>
      </trkpt>
      <trkpt lat="48.0279080" lon="7.4812750">
        <ele>-215.8</ele>
        <time>2022-06-03T10:53:28Z</time>
      </trkpt>
      <trkpt lat="48.0278960" lon="7.4810180">
        <ele>-215.8</ele>
        <time>2022-06-03T10:53:32Z</time>
      </trkpt>
      <trkpt lat="48.0278900" lon="7.4807580">
        <ele>-216.0</ele>
        <time>2022-06-03T10:53:36Z</time>
      </trkpt>
      <trkpt lat="48.0278710" lon="7.4804800">
        <ele>-215.8</ele>
        <time>2022-06-03T10:53:40Z</time>
      </trkpt>
      <trkpt lat="48.0278660" lon="7.4802200">
        <ele>-216.0</ele>
        <time>2022-06-03T10:53:44Z</time>
      </trkpt>
      <trkpt lat="48.0278550" lon="7.4799330">
        <ele>-216.2</ele>
        <time>2022-06-03T10:53:48Z</time>
      </trkpt>
      <trkpt lat="48.0278550" lon="7.4796350">
        <ele>-216.8</ele>
        <time>2022-06-03T10:53:52Z</time>
      </trkpt>
      <trkpt lat="48.0278480" lon="7.4793460">
        <ele>-217.0</ele>
        <time>2022-06-03T10:53:56Z</time>
      </trkpt>
      <trkpt lat="48.0278280" lon="7.4790600">
        <ele>-216.4</ele>
        <time>2022-06-03T10:54:00Z</time>
      </trkpt>
      <trkpt lat="48.0278280" lon="7.4787730">
        <ele>-216.6</ele>
        <time>2022-06-03T10:54:04Z</time>
      </trkpt>
      <trkpt lat="48.0278180" lon="7.4784900">
        <ele>-216.8</ele>
        <time>2022-06-03T10:54:08Z</time>
      </trkpt>
      <trkpt lat="48.0278030" lon="7.4782030">
        <ele>-216.8</ele>
        <time>2022-06-03T10:54:12Z</time>
      </trkpt>
      <trkpt lat="48.0277930" lon="7.4778960">
        <ele>-217.0</ele>
        <time>2022-06-03T10:54:16Z</time>
      </trkpt>
      <trkpt lat="48.0277710" lon="7.4775800">
        <ele>-217.4</ele>
        <time>2022-06-03T10:54:20Z</time>
      </trkpt>
      <trkpt lat="48.0277560" lon="7.4772700">
        <ele>-217.0</ele>
        <time>2022-06-03T10:54:24Z</time>
      </trkpt>
      <trkpt lat="48.0277350" lon="7.4769810">
        <ele>-216.2</ele>
        <time>2022-06-03T10:54:28Z</time>
      </trkpt>
      <trkpt lat="48.0277200" lon="7.4767010">
        <ele>-216.4</ele>
        <time>2022-06-03T10:54:32Z</time>
      </trkpt>
      <trkpt lat="48.0276980" lon="7.4764110">
        <ele>-216.4</ele>
        <time>2022-06-03T10:54:36Z</time>
      </trkpt>
      <trkpt lat="48.0276830" lon="7.4761160">
        <ele>-217.0</ele>
        <time>2022-06-03T10:54:40Z</time>
      </trkpt>
      <trkpt lat="48.0276730" lon="7.4758400">
        <ele>-216.4</ele>
        <time>2022-06-03T10:54:44Z</time>
      </trkpt>
      <trkpt lat="48.0276680" lon="7.4755530">
        <ele>-216.8</ele>
        <time>2022-06-03T10:54:48Z</time>
      </trkpt>
      <trkpt lat="48.0276730" lon="7.4752830">
        <ele>-216.4</ele>
        <time>2022-06-03T10:54:52Z</time>
      </trkpt>
      <trkpt lat="48.0276900" lon="7.4750150">
        <ele>-215.8</ele>
        <time>2022-06-03T10:54:56Z</time>
      </trkpt>
      <trkpt lat="48.0277060" lon="7.4747430">
        <ele>-216.2</ele>
        <time>2022-06-03T10:55:00Z</time>
      </trkpt>
      <trkpt lat="48.0277180" lon="7.4744600">
        <ele>-216.0</ele>
        <time>2022-06-03T10:55:04Z</time>
      </trkpt>
      <trkpt lat="48.0277350" lon="7.4741710">
        <ele>-216.0</ele>
        <time>2022-06-03T10:55:08Z</time>
      </trkpt>
      <trkpt lat="48.0277500" lon="7.4738810">
        <ele>-215.8</ele>
        <time>2022-06-03T10:55:12Z</time>
      </trkpt>
      <trkpt lat="48.0277660" lon="7.4736010">
        <ele>-215.4</ele>
        <time>2022-06-03T10:55:16Z</time>
      </trkpt>
      <trkpt lat="48.0277760" lon="7.4733110">
        <ele>-215.8</ele>
        <time>2022-06-03T10:55:20Z</time>
      </trkpt>
      <trkpt lat="48.0277900" lon="7.4730000">
        <ele>-215.8</ele>
        <time>2022-06-03T10:55:24Z</time>
      </trkpt>
      <trkpt lat="48.0278080" lon="7.4726800">
        <ele>-216.4</ele>
        <time>2022-06-03T10:55:28Z</time>
      </trkpt>
      <trkpt lat="48.0278250" lon="7.4723600">
        <ele>-216.4</ele>
        <time>2022-06-03T10:55:32Z</time>
      </trkpt>
      <trkpt lat="48.0278450" lon="7.4720530">
        <ele>-216.4</ele>
        <time>2022-06-03T10:55:36Z</time>
      </trkpt>
      <trkpt lat="48.0278660" lon="7.4717530">
        <ele>-217.2</ele>
        <time>2022-06-03T10:55:40Z</time>
      </trkpt>
      <trkpt lat="48.0278850" lon="7.4714700">
        <ele>-216.4</ele>
        <time>2022-06-03T10:55:44Z</time>
      </trkpt>
      <trkpt lat="48.0279010" lon="7.4711850">
        <ele>-216.4</ele>
        <time>2022-06-03T10:55:48Z</time>
      </trkpt>
      <trkpt lat="48.0279330" lon="7.4708980">
        <ele>-216.2</ele>
        <time>2022-06-03T10:55:52Z</time>
      </trkpt>
      <trkpt lat="48.0279760" lon="7.4705930">
        <ele>-216.2</ele>
        <time>2022-06-03T10:55:56Z</time>
      </trkpt>
      <trkpt lat="48.0280060" lon="7.4702560">
        <ele>-216.6</ele>
        <time>2022-06-03T10:56:00Z</time>
      </trkpt>
      <trkpt lat="48.0280400" lon="7.4699410">
        <ele>-215.8</ele>
        <time>2022-06-03T10:56:04Z</time>
      </trkpt>
      <trkpt lat="48.0280830" lon="7.4696260">
        <ele>-216.0</ele>
        <time>2022-06-03T10:56:08Z</time>
      </trkpt>
      <trkpt lat="48.0281280" lon="7.4693080">
        <ele>-216.6</ele>
        <time>2022-06-03T10:56:12Z</time>
      </trkpt>
      <trkpt lat="48.0281700" lon="7.4689810">
        <ele>-216.4</ele>
        <time>2022-06-03T10:56:16Z</time>
      </trkpt>
      <trkpt lat="48.0282180" lon="7.4686750">
        <ele>-216.8</ele>
        <time>2022-06-03T10:56:20Z</time>
      </trkpt>
      <trkpt lat="48.0282610" lon="7.4683630">
        <ele>-216.6</ele>
        <time>2022-06-03T10:56:24Z</time>
      </trkpt>
      <trkpt lat="48.0283030" lon="7.4680500">
        <ele>-217.0</ele>
        <time>2022-06-03T10:56:28Z</time>
      </trkpt>
      <trkpt lat="48.0283300" lon="7.4677150">
        <ele>-216.8</ele>
        <time>2022-06-03T10:56:32Z</time>
      </trkpt>
      <trkpt lat="48.0283730" lon="7.4673880">
        <ele>-216.8</ele>
        <time>2022-06-03T10:56:36Z</time>
      </trkpt>
      <trkpt lat="48.0284130" lon="7.4670660">
        <ele>-216.0</ele>
        <time>2022-06-03T10:56:40Z</time>
      </trkpt>
      <trkpt lat="48.0284500" lon="7.4667450">
        <ele>-216.0</ele>
        <time>2022-06-03T10:56:44Z</time>
      </trkpt>
      <trkpt lat="48.0284850" lon="7.4664030">
        <ele>-216.8</ele>
        <time>2022-06-03T10:56:48Z</time>
      </trkpt>
      <trkpt lat="48.0285200" lon="7.4660580">
        <ele>-216.4</ele>
        <time>2022-06-03T10:56:52Z</time>
      </trkpt>
      <trkpt lat="48.0285630" lon="7.4657250">
        <ele>-216.4</ele>
        <time>2022-06-03T10:56:56Z</time>
      </trkpt>
      <trkpt lat="48.0286010" lon="7.4653880">
        <ele>-215.8</ele>
        <time>2022-06-03T10:57:00Z</time>
      </trkpt>
      <trkpt lat="48.0286500" lon="7.4650560">
        <ele>-216.0</ele>
        <time>2022-06-03T10:57:04Z</time>
      </trkpt>
      <trkpt lat="48.0286950" lon="7.4647110">
        <ele>-216.0</ele>
        <time>2022-06-03T10:57:08Z</time>
      </trkpt>
      <trkpt lat="48.0287400" lon="7.4643710">
        <ele>-216.4</ele>
        <time>2022-06-03T10:57:12Z</time>
      </trkpt>
      <trkpt lat="48.0287800" lon="7.4640260">
        <ele>-216.0</ele>
        <time>2022-06-03T10:57:16Z</time>
      </trkpt>
      <trkpt lat="48.0288230" lon="7.4636800">
        <ele>-216.0</ele>
        <time>2022-06-03T10:57:20Z</time>
      </trkpt>
      <trkpt lat="48.0288600" lon="7.4633130">
        <ele>-216.6</ele>
        <time>2022-06-03T10:57:24Z</time>
      </trkpt>
      <trkpt lat="48.0289000" lon="7.4629350">
        <ele>-216.4</ele>
        <time>2022-06-03T10:57:28Z</time>
      </trkpt>
      <trkpt lat="48.0289430" lon="7.4625700">
        <ele>-217.0</ele>
        <time>2022-06-03T10:57:32Z</time>
      </trkpt>
      <trkpt lat="48.0289860" lon="7.4622180">
        <ele>-217.0</ele>
        <time>2022-06-03T10:57:36Z</time>
      </trkpt>
      <trkpt lat="48.0290260" lon="7.4618750">
        <ele>-216.4</ele>
        <time>2022-06-03T10:57:40Z</time>
      </trkpt>
      <trkpt lat="48.0290700" lon="7.4615250">
        <ele>-216.4</ele>
        <time>2022-06-03T10:57:44Z</time>
      </trkpt>
      <trkpt lat="48.0291200" lon="7.4611660">
        <ele>-216.2</ele>
        <time>2022-06-03T10:57:48Z</time>
      </trkpt>
      <trkpt lat="48.0291660" lon="7.4608030">
        <ele>-216.2</ele>
        <time>2022-06-03T10:57:52Z</time>
      </trkpt>
      <trkpt lat="48.0292100" lon="7.4604550">
        <ele>-216.4</ele>
        <time>2022-06-03T10:57:56Z</time>
      </trkpt>
      <trkpt lat="48.0292650" lon="7.4601060">
        <ele>-216.4</ele>
        <time>2022-06-03T10:58:00Z</time>
      </trkpt>
      <trkpt lat="48.0293130" lon="7.4597450">
        <ele>-216.4</ele>
        <time>2022-06-03T10:58:04Z</time>
      </trkpt>
      <trkpt lat="48.0293750" lon="7.4593850">
        <ele>-217.0</ele>
        <time>2022-06-03T10:58:08Z</time>
      </trkpt>
      <trkpt lat="48.0294300" lon="7.4590280">
        <ele>-217.0</ele>
        <time>2022-06-03T10:58:12Z</time>
      </trkpt>
      <trkpt lat="48.0294910" lon="7.4586750">
        <ele>-217.0</ele>
        <time>2022-06-03T10:58:16Z</time>
      </trkpt>
      <trkpt lat="48.0295450" lon="7.4583300">
        <ele>-216.6</ele>
        <time>2022-06-03T10:58:20Z</time>
      </trkpt>
      <trkpt lat="48.0296010" lon="7.4579860">
        <ele>-217.0</ele>
        <time>2022-06-03T10:58:24Z</time>
      </trkpt>
      <trkpt lat="48.0296580" lon="7.4576430">
        <ele>-217.0</ele>
        <time>2022-06-03T10:58:28Z</time>
      </trkpt>
      <trkpt lat="48.0297180" lon="7.4572980">
        <ele>-217.4</ele>
        <time>2022-06-03T10:58:32Z</time>
      </trkpt>
      <trkpt lat="48.0297750" lon="7.4569450">
        <ele>-217.2</ele>
        <time>2022-06-03T10:58:36Z</time>
      </trkpt>
      <trkpt lat="48.0298330" lon="7.4565960">
        <ele>-217.0</ele>
        <time>2022-06-03T10:58:40Z</time>
      </trkpt>
      <trkpt lat="48.0298910" lon="7.4562630">
        <ele>-217.0</ele>
        <time>2022-06-03T10:58:44Z</time>
      </trkpt>
      <trkpt lat="48.0299500" lon="7.4559250">
        <ele>-217.4</ele>
        <time>2022-06-03T10:58:48Z</time>
      </trkpt>
      <trkpt lat="48.0300030" lon="7.4555880">
        <ele>-217.6</ele>
        <time>2022-06-03T10:58:52Z</time>
      </trkpt>
      <trkpt lat="48.0300500" lon="7.4552730">
        <ele>-217.4</ele>
        <time>2022-06-03T10:58:56Z</time>
      </trkpt>
      <trkpt lat="48.0300950" lon="7.4549730">
        <ele>-217.0</ele>
        <time>2022-06-03T10:59:00Z</time>
      </trkpt>
      <trkpt lat="48.0301400" lon="7.4546910">
        <ele>-217.2</ele>
        <time>2022-06-03T10:59:04Z</time>
      </trkpt>
      <trkpt lat="48.0301800" lon="7.4544210">
        <ele>-217.2</ele>
        <time>2022-06-03T10:59:08Z</time>
      </trkpt>
      <trkpt lat="48.0302150" lon="7.4541660">
        <ele>-217.6</ele>
        <time>2022-06-03T10:59:12Z</time>
      </trkpt>
      <trkpt lat="48.0302600" lon="7.4538960">
        <ele>-217.2</ele>
        <time>2022-06-03T10:59:16Z</time>
      </trkpt>
      <trkpt lat="48.0303100" lon="7.4536100">
        <ele>-217.4</ele>
        <time>2022-06-03T10:59:20Z</time>
      </trkpt>
      <trkpt lat="48.0303580" lon="7.4533200">
        <ele>-217.0</ele>
        <time>2022-06-03T10:59:24Z</time>
      </trkpt>
      <trkpt lat="48.0304110" lon="7.4530260">
        <ele>-216.8</ele>
        <time>2022-06-03T10:59:28Z</time>
      </trkpt>
      <trkpt lat="48.0304650" lon="7.4527180">
        <ele>-216.6</ele>
        <time>2022-06-03T10:59:32Z</time>
      </trkpt>
      <trkpt lat="48.0305200" lon="7.4524000">
        <ele>-216.6</ele>
        <time>2022-06-03T10:59:36Z</time>
      </trkpt>
      <trkpt lat="48.0305730" lon="7.4520710">
        <ele>-216.8</ele>
        <time>2022-06-03T10:59:40Z</time>
      </trkpt>
      <trkpt lat="48.0306380" lon="7.4517280">
        <ele>-217.0</ele>
        <time>2022-06-03T10:59:44Z</time>
      </trkpt>
      <trkpt lat="48.0306960" lon="7.4513800">
        <ele>-216.4</ele>
        <time>2022-06-03T10:59:48Z</time>
      </trkpt>
      <trkpt lat="48.0307530" lon="7.4510430">
        <ele>-216.0</ele>
        <time>2022-06-03T10:59:52Z</time>
      </trkpt>
      <trkpt lat="48.0307960" lon="7.4507080">
        <ele>-216.4</ele>
        <time>2022-06-03T10:59:56Z</time>
      </trkpt>
      <trkpt lat="48.0308060" lon="7.4503700">
        <ele>-216.6</ele>
        <time>2022-06-03T11:00:00Z</time>
      </trkpt>
      <trkpt lat="48.0307830" lon="7.4500310">
        <ele>-217.0</ele>
        <time>2022-06-03T11:00:04Z</time>
      </trkpt>
      <trkpt lat="48.0307350" lon="7.4497100">
        <ele>-217.6</ele>
        <time>2022-06-03T11:00:08Z</time>
      </trkpt>
      <trkpt lat="48.0306760" lon="7.4493980">
        <ele>-217.6</ele>
        <time>2022-06-03T11:00:12Z</time>
      </trkpt>
      <trkpt lat="48.0306030" lon="7.4490980">
        <ele>-217.6</ele>
        <time>2022-06-03T11:00:16Z</time>
      </trkpt>
      <trkpt lat="48.0305250" lon="7.4487910">
        <ele>-218.2</ele>
        <time>2022-06-03T11:00:20Z</time>
      </trkpt>
      <trkpt lat="48.0304380" lon="7.4484830">
        <ele>-218.2</ele>
        <time>2022-06-03T11:00:24Z</time>
      </trkpt>
      <trkpt lat="48.0303480" lon="7.4481780">
        <ele>-217.8</ele>
        <time>2022-06-03T11:00:28Z</time>
      </trkpt>
      <trkpt lat="48.0302660" lon="7.4478750">
        <ele>-217.8</ele>
        <time>2022-06-03T11:00:32Z</time>
      </trkpt>
      <trkpt lat="48.0301730" lon="7.4475880">
        <ele>-217.6</ele>
        <time>2022-06-03T11:00:36Z</time>
      </trkpt>
      <trkpt lat="48.0300950" lon="7.4473030">
        <ele>-217.8</ele>
        <time>2022-06-03T11:00:40Z</time>
      </trkpt>
      <trkpt lat="48.0300180" lon="7.4470260">
        <ele>-217.8</ele>
        <time>2022-06-03T11:00:44Z</time>
      </trkpt>
      <trkpt lat="48.0299430" lon="7.4467510">
        <ele>-217.8</ele>
        <time>2022-06-03T11:00:48Z</time>
      </trkpt>
      <trkpt lat="48.0298600" lon="7.4464630">
        <ele>-217.8</ele>
        <time>2022-06-03T11:00:52Z</time>
      </trkpt>
      <trkpt lat="48.0297730" lon="7.4461730">
        <ele>-217.8</ele>
        <time>2022-06-03T11:00:56Z</time>
      </trkpt>
      <trkpt lat="48.0296900" lon="7.4458910">
        <ele>-218.4</ele>
        <time>2022-06-03T11:01:00Z</time>
      </trkpt>
      <trkpt lat="48.0296160" lon="7.4456110">
        <ele>-218.4</ele>
        <time>2022-06-03T11:01:04Z</time>
      </trkpt>
      <trkpt lat="48.0295560" lon="7.4453210">
        <ele>-218.2</ele>
        <time>2022-06-03T11:01:08Z</time>
      </trkpt>
      <trkpt lat="48.0295250" lon="7.4450230">
        <ele>-218.0</ele>
        <time>2022-06-03T11:01:12Z</time>
      </trkpt>
      <trkpt lat="48.0295280" lon="7.4447130">
        <ele>-218.2</ele>
        <time>2022-06-03T11:01:16Z</time>
      </trkpt>
      <trkpt lat="48.0295280" lon="7.4443960">
        <ele>-217.8</ele>
        <time>2022-06-03T11:01:20Z</time>
      </trkpt>
      <trkpt lat="48.0295260" lon="7.4440730">
        <ele>-218.4</ele>
        <time>2022-06-03T11:01:24Z</time>
      </trkpt>
      <trkpt lat="48.0295210" lon="7.4437580">
        <ele>-218.0</ele>
        <time>2022-06-03T11:01:28Z</time>
      </trkpt>
      <trkpt lat="48.0295100" lon="7.4434410">
        <ele>-218.2</ele>
        <time>2022-06-03T11:01:32Z</time>
      </trkpt>
      <trkpt lat="48.0295100" lon="7.4431150">
        <ele>-218.6</ele>
        <time>2022-06-03T11:01:36Z</time>
      </trkpt>
      <trkpt lat="48.0295150" lon="7.4428010">
        <ele>-219.0</ele>
        <time>2022-06-03T11:01:40Z</time>
      </trkpt>
      <trkpt lat="48.0295310" lon="7.4425000">
        <ele>-218.6</ele>
        <time>2022-06-03T11:01:44Z</time>
      </trkpt>
      <trkpt lat="48.0295450" lon="7.4421860">
        <ele>-218.2</ele>
        <time>2022-06-03T11:01:48Z</time>
      </trkpt>
      <trkpt lat="48.0295580" lon="7.4418810">
        <ele>-218.6</ele>
        <time>2022-06-03T11:01:52Z</time>
      </trkpt>
      <trkpt lat="48.0295550" lon="7.4415750">
        <ele>-219.2</ele>
        <time>2022-06-03T11:01:56Z</time>
      </trkpt>
      <trkpt lat="48.0295080" lon="7.4412700">
        <ele>-218.4</ele>
        <time>2022-06-03T11:02:00Z</time>
      </trkpt>
      <trkpt lat="48.0294310" lon="7.4409850">
        <ele>-219.6</ele>
        <time>2022-06-03T11:02:04Z</time>
      </trkpt>
      <trkpt lat="48.0292960" lon="7.4407530">
        <ele>-218.8</ele>
        <time>2022-06-03T11:02:08Z</time>
      </trkpt>
      <trkpt lat="48.0292250" lon="7.4404830">
        <ele>-218.6</ele>
        <time>2022-06-03T11:02:12Z</time>
      </trkpt>
      <trkpt lat="48.0293130" lon="7.4402060">
        <ele>-219.2</ele>
        <time>2022-06-03T11:02:16Z</time>
      </trkpt>
      <trkpt lat="48.0294380" lon="7.4399600">
        <ele>-220.0</ele>
        <time>2022-06-03T11:02:20Z</time>
      </trkpt>
      <trkpt lat="48.0295750" lon="7.4396980">
        <ele>-220.2</ele>
        <time>2022-06-03T11:02:24Z</time>
      </trkpt>
      <trkpt lat="48.0297130" lon="7.4394550">
        <ele>-219.4</ele>
        <time>2022-06-03T11:02:28Z</time>
      </trkpt>
      <trkpt lat="48.0298300" lon="7.4391980">
        <ele>-219.4</ele>
        <time>2022-06-03T11:02:32Z</time>
      </trkpt>
      <trkpt lat="48.0299150" lon="7.4389280">
        <ele>-219.2</ele>
        <time>2022-06-03T11:02:36Z</time>
      </trkpt>
      <trkpt lat="48.0299760" lon="7.4386450">
        <ele>-218.6</ele>
        <time>2022-06-03T11:02:40Z</time>
      </trkpt>
      <trkpt lat="48.0300350" lon="7.4383660">
        <ele>-219.2</ele>
        <time>2022-06-03T11:02:44Z</time>
      </trkpt>
      <trkpt lat="48.0300930" lon="7.4381000">
        <ele>-219.0</ele>
        <time>2022-06-03T11:02:48Z</time>
      </trkpt>
      <trkpt lat="48.0301530" lon="7.4378180">
        <ele>-219.6</ele>
        <time>2022-06-03T11:02:52Z</time>
      </trkpt>
      <trkpt lat="48.0302200" lon="7.4375150">
        <ele>-219.2</ele>
        <time>2022-06-03T11:02:56Z</time>
      </trkpt>
      <trkpt lat="48.0302800" lon="7.4372160">
        <ele>-219.2</ele>
        <time>2022-06-03T11:03:00Z</time>
      </trkpt>
      <trkpt lat="48.0303380" lon="7.4369310">
        <ele>-218.8</ele>
        <time>2022-06-03T11:03:04Z</time>
      </trkpt>
      <trkpt lat="48.0304010" lon="7.4366450">
        <ele>-218.2</ele>
        <time>2022-06-03T11:03:08Z</time>
      </trkpt>
      <trkpt lat="48.0304630" lon="7.4363600">
        <ele>-218.6</ele>
        <time>2022-06-03T11:03:12Z</time>
      </trkpt>
      <trkpt lat="48.0305260" lon="7.4360710">
        <ele>-218.8</ele>
        <time>2022-06-03T11:03:16Z</time>
      </trkpt>
      <trkpt lat="48.0306060" lon="7.4357850">
        <ele>-219.0</ele>
        <time>2022-06-03T11:03:20Z</time>
      </trkpt>
      <trkpt lat="48.0307130" lon="7.4355150">
        <ele>-219.2</ele>
        <time>2022-06-03T11:03:24Z</time>
      </trkpt>
      <trkpt lat="48.0308500" lon="7.4352660">
        <ele>-219.4</ele>
        <time>2022-06-03T11:03:28Z</time>
      </trkpt>
      <trkpt lat="48.0310110" lon="7.4350480">
        <ele>-219.4</ele>
        <time>2022-06-03T11:03:32Z</time>
      </trkpt>
      <trkpt lat="48.0311810" lon="7.4348360">
        <ele>-219.6</ele>
        <time>2022-06-03T11:03:36Z</time>
      </trkpt>
      <trkpt lat="48.0313560" lon="7.4346200">
        <ele>-219.6</ele>
        <time>2022-06-03T11:03:40Z</time>
      </trkpt>
      <trkpt lat="48.0315310" lon="7.4344000">
        <ele>-219.8</ele>
        <time>2022-06-03T11:03:44Z</time>
      </trkpt>
      <trkpt lat="48.0317080" lon="7.4341900">
        <ele>-219.8</ele>
        <time>2022-06-03T11:03:48Z</time>
      </trkpt>
      <trkpt lat="48.0318850" lon="7.4339650">
        <ele>-219.8</ele>
        <time>2022-06-03T11:03:52Z</time>
      </trkpt>
      <trkpt lat="48.0320600" lon="7.4337450">
        <ele>-219.6</ele>
        <time>2022-06-03T11:03:56Z</time>
      </trkpt>
      <trkpt lat="48.0322350" lon="7.4335400">
        <ele>-219.6</ele>
        <time>2022-06-03T11:04:00Z</time>
      </trkpt>
      <trkpt lat="48.0324160" lon="7.4333310">
        <ele>-220.2</ele>
        <time>2022-06-03T11:04:04Z</time>
      </trkpt>
      <trkpt lat="48.0326010" lon="7.4331410">
        <ele>-219.8</ele>
        <time>2022-06-03T11:04:08Z</time>
      </trkpt>
      <trkpt lat="48.0327910" lon="7.4329730">
        <ele>-219.8</ele>
        <time>2022-06-03T11:04:12Z</time>
      </trkpt>
      <trkpt lat="48.0329800" lon="7.4328010">
        <ele>-219.8</ele>
        <time>2022-06-03T11:04:16Z</time>
      </trkpt>
      <trkpt lat="48.0331700" lon="7.4326360">
        <ele>-219.4</ele>
        <time>2022-06-03T11:04:20Z</time>
      </trkpt>
      <trkpt lat="48.0333600" lon="7.4324660">
        <ele>-219.6</ele>
        <time>2022-06-03T11:04:24Z</time>
      </trkpt>
      <trkpt lat="48.0335530" lon="7.4322880">
        <ele>-219.6</ele>
        <time>2022-06-03T11:04:28Z</time>
      </trkpt>
      <trkpt lat="48.0337480" lon="7.4321160">
        <ele>-219.8</ele>
        <time>2022-06-03T11:04:32Z</time>
      </trkpt>
      <trkpt lat="48.0339430" lon="7.4319410">
        <ele>-219.8</ele>
        <time>2022-06-03T11:04:36Z</time>
      </trkpt>
      <trkpt lat="48.0341400" lon="7.4317660">
        <ele>-219.4</ele>
        <time>2022-06-03T11:04:40Z</time>
      </trkpt>
      <trkpt lat="48.0343400" lon="7.4315930">
        <ele>-219.4</ele>
        <time>2022-06-03T11:04:44Z</time>
      </trkpt>
      <trkpt lat="48.0345310" lon="7.4314080">
        <ele>-219.2</ele>
        <time>2022-06-03T11:04:48Z</time>
      </trkpt>
      <trkpt lat="48.0347200" lon="7.4312360">
        <ele>-219.6</ele>
        <time>2022-06-03T11:04:52Z</time>
      </trkpt>
      <trkpt lat="48.0349080" lon="7.4310610">
        <ele>-219.0</ele>
        <time>2022-06-03T11:04:56Z</time>
      </trkpt>
      <trkpt lat="48.0350880" lon="7.4308750">
        <ele>-219.4</ele>
        <time>2022-06-03T11:05:00Z</time>
      </trkpt>
      <trkpt lat="48.0352650" lon="7.4306630">
        <ele>-219.0</ele>
        <time>2022-06-03T11:05:04Z</time>
      </trkpt>
      <trkpt lat="48.0354150" lon="7.4304180">
        <ele>-219.0</ele>
        <time>2022-06-03T11:05:08Z</time>
      </trkpt>
      <trkpt lat="48.0355560" lon="7.4301680">
        <ele>-219.0</ele>
        <time>2022-06-03T11:05:12Z</time>
      </trkpt>
      <trkpt lat="48.0356900" lon="7.4298960">
        <ele>-219.2</ele>
        <time>2022-06-03T11:05:16Z</time>
      </trkpt>
      <trkpt lat="48.0358010" lon="7.4296010">
        <ele>-219.6</ele>
        <time>2022-06-03T11:05:20Z</time>
      </trkpt>
      <trkpt lat="48.0358950" lon="7.4293000">
        <ele>-219.4</ele>
        <time>2022-06-03T11:05:24Z</time>
      </trkpt>
      <trkpt lat="48.0359680" lon="7.4290060">
        <ele>-219.6</ele>
        <time>2022-06-03T11:05:28Z</time>
      </trkpt>
      <trkpt lat="48.0360280" lon="7.4287050">
        <ele>-219.4</ele>
        <time>2022-06-03T11:05:32Z</time>
      </trkpt>
      <trkpt lat="48.0360850" lon="7.4284050">
        <ele>-219.8</ele>
        <time>2022-06-03T11:05:36Z</time>
      </trkpt>
      <trkpt lat="48.0361410" lon="7.4281100">
        <ele>-219.8</ele>
        <time>2022-06-03T11:05:40Z</time>
      </trkpt>
      <trkpt lat="48.0361950" lon="7.4278180">
        <ele>-219.8</ele>
        <time>2022-06-03T11:05:44Z</time>
      </trkpt>
      <trkpt lat="48.0362500" lon="7.4275360">
        <ele>-219.6</ele>
        <time>2022-06-03T11:05:48Z</time>
      </trkpt>
      <trkpt lat="48.0363300" lon="7.4272650">
        <ele>-219.6</ele>
        <time>2022-06-03T11:05:52Z</time>
      </trkpt>
      <trkpt lat="48.0364160" lon="7.4269900">
        <ele>-219.4</ele>
        <time>2022-06-03T11:05:56Z</time>
      </trkpt>
      <trkpt lat="48.0365310" lon="7.4267310">
        <ele>-219.6</ele>
        <time>2022-06-03T11:06:00Z</time>
      </trkpt>
      <trkpt lat="48.0366700" lon="7.4264850">
        <ele>-219.8</ele>
        <time>2022-06-03T11:06:04Z</time>
      </trkpt>
      <trkpt lat="48.0368150" lon="7.4262530">
        <ele>-219.8</ele>
        <time>2022-06-03T11:06:08Z</time>
      </trkpt>
      <trkpt lat="48.0369530" lon="7.4260080">
        <ele>-219.6</ele>
        <time>2022-06-03T11:06:12Z</time>
      </trkpt>
      <trkpt lat="48.0370880" lon="7.4257510">
        <ele>-219.8</ele>
        <time>2022-06-03T11:06:16Z</time>
      </trkpt>
      <trkpt lat="48.0372130" lon="7.4254850">
        <ele>-219.8</ele>
        <time>2022-06-03T11:06:20Z</time>
      </trkpt>
      <trkpt lat="48.0373400" lon="7.4252180">
        <ele>-219.8</ele>
        <time>2022-06-03T11:06:24Z</time>
      </trkpt>
      <trkpt lat="48.0374710" lon="7.4249580">
        <ele>-219.6</ele>
        <time>2022-06-03T11:06:28Z</time>
      </trkpt>
      <trkpt lat="48.0376150" lon="7.4247110">
        <ele>-219.2</ele>
        <time>2022-06-03T11:06:32Z</time>
      </trkpt>
      <trkpt lat="48.0377660" lon="7.4244760">
        <ele>-219.6</ele>
        <time>2022-06-03T11:06:36Z</time>
      </trkpt>
      <trkpt lat="48.0379230" lon="7.4242530">
        <ele>-219.6</ele>
        <time>2022-06-03T11:06:40Z</time>
      </trkpt>
      <trkpt lat="48.0380850" lon="7.4240260">
        <ele>-220.0</ele>
        <time>2022-06-03T11:06:44Z</time>
      </trkpt>
      <trkpt lat="48.0382560" lon="7.4238180">
        <ele>-219.6</ele>
        <time>2022-06-03T11:06:48Z</time>
      </trkpt>
      <trkpt lat="48.0384300" lon="7.4236130">
        <ele>-219.8</ele>
        <time>2022-06-03T11:06:52Z</time>
      </trkpt>
      <trkpt lat="48.0386110" lon="7.4234210">
        <ele>-219.8</ele>
        <time>2022-06-03T11:06:56Z</time>
      </trkpt>
      <trkpt lat="48.0387900" lon="7.4232360">
        <ele>-219.4</ele>
        <time>2022-06-03T11:07:00Z</time>
      </trkpt>
      <trkpt lat="48.0389780" lon="7.4230610">
        <ele>-219.6</ele>
        <time>2022-06-03T11:07:04Z</time>
      </trkpt>
      <trkpt lat="48.0391680" lon="7.4229010">
        <ele>-219.4</ele>
        <time>2022-06-03T11:07:08Z</time>
      </trkpt>
      <trkpt lat="48.0393710" lon="7.4227650">
        <ele>-219.6</ele>
        <time>2022-06-03T11:07:12Z</time>
      </trkpt>
      <trkpt lat="48.0395730" lon="7.4226280">
        <ele>-219.6</ele>
        <time>2022-06-03T11:07:16Z</time>
      </trkpt>
      <trkpt lat="48.0397800" lon="7.4225180">
        <ele>-219.4</ele>
        <time>2022-06-03T11:07:20Z</time>
      </trkpt>
      <trkpt lat="48.0399730" lon="7.4224230">
        <ele>-219.2</ele>
        <time>2022-06-03T11:07:24Z</time>
      </trkpt>
      <trkpt lat="48.0401660" lon="7.4223150">
        <ele>-219.4</ele>
        <time>2022-06-03T11:07:28Z</time>
      </trkpt>
      <trkpt lat="48.0403630" lon="7.4222010">
        <ele>-219.2</ele>
        <time>2022-06-03T11:07:32Z</time>
      </trkpt>
      <trkpt lat="48.0405600" lon="7.4220950">
        <ele>-219.4</ele>
        <time>2022-06-03T11:07:36Z</time>
      </trkpt>
      <trkpt lat="48.0407650" lon="7.4219930">
        <ele>-219.2</ele>
        <time>2022-06-03T11:07:40Z</time>
      </trkpt>
      <trkpt lat="48.0409680" lon="7.4218880">
        <ele>-219.2</ele>
        <time>2022-06-03T11:07:44Z</time>
      </trkpt>
      <trkpt lat="48.0411750" lon="7.4217860">
        <ele>-218.8</ele>
        <time>2022-06-03T11:07:48Z</time>
      </trkpt>
      <trkpt lat="48.0413760" lon="7.4216800">
        <ele>-218.8</ele>
        <time>2022-06-03T11:07:52Z</time>
      </trkpt>
      <trkpt lat="48.0415760" lon="7.4215550">
        <ele>-219.2</ele>
        <time>2022-06-03T11:07:56Z</time>
      </trkpt>
      <trkpt lat="48.0417630" lon="7.4213850">
        <ele>-218.8</ele>
        <time>2022-06-03T11:08:00Z</time>
      </trkpt>
      <trkpt lat="48.0419380" lon="7.4211900">
        <ele>-218.8</ele>
        <time>2022-06-03T11:08:04Z</time>
      </trkpt>
      <trkpt lat="48.0420910" lon="7.4209700">
        <ele>-219.4</ele>
        <time>2022-06-03T11:08:08Z</time>
      </trkpt>
      <trkpt lat="48.0422280" lon="7.4207210">
        <ele>-219.0</ele>
        <time>2022-06-03T11:08:12Z</time>
      </trkpt>
      <trkpt lat="48.0423430" lon="7.4204600">
        <ele>-218.6</ele>
        <time>2022-06-03T11:08:16Z</time>
      </trkpt>
      <trkpt lat="48.0424280" lon="7.4201780">
        <ele>-218.2</ele>
        <time>2022-06-03T11:08:20Z</time>
      </trkpt>
      <trkpt lat="48.0424900" lon="7.4198900">
        <ele>-217.8</ele>
        <time>2022-06-03T11:08:24Z</time>
      </trkpt>
      <trkpt lat="48.0425350" lon="7.4195910">
        <ele>-218.0</ele>
        <time>2022-06-03T11:08:28Z</time>
      </trkpt>
      <trkpt lat="48.0425750" lon="7.4193010">
        <ele>-218.2</ele>
        <time>2022-06-03T11:08:32Z</time>
      </trkpt>
      <trkpt lat="48.0426360" lon="7.4190530">
        <ele>-217.8</ele>
        <time>2022-06-03T11:08:36Z</time>
      </trkpt>
      <trkpt lat="48.0426910" lon="7.4187960">
        <ele>-217.4</ele>
        <time>2022-06-03T11:08:40Z</time>
      </trkpt>
      <trkpt lat="48.0425660" lon="7.4185750">
        <ele>-217.4</ele>
        <time>2022-06-03T11:08:44Z</time>
      </trkpt>
      <trkpt lat="48.0424810" lon="7.4183230">
        <ele>-217.4</ele>
        <time>2022-06-03T11:08:48Z</time>
      </trkpt>
      <trkpt lat="48.0424480" lon="7.4180980">
        <ele>-217.6</ele>
        <time>2022-06-03T11:08:52Z</time>
      </trkpt>
      <trkpt lat="48.0424300" lon="7.4178960">
        <ele>-217.2</ele>
        <time>2022-06-03T11:08:56Z</time>
      </trkpt>
      <trkpt lat="48.0423960" lon="7.4176650">
        <ele>-218.2</ele>
        <time>2022-06-03T11:09:00Z</time>
      </trkpt>
      <trkpt lat="48.0423630" lon="7.4173880">
        <ele>-217.2</ele>
        <time>2022-06-03T11:09:04Z</time>
      </trkpt>
      <trkpt lat="48.0423530" lon="7.4170860">
        <ele>-218.4</ele>
        <time>2022-06-03T11:09:08Z</time>
      </trkpt>
      <trkpt lat="48.0424000" lon="7.4167350">
        <ele>-219.8</ele>
        <time>2022-06-03T11:09:12Z</time>
      </trkpt>
      <trkpt lat="48.0424580" lon="7.4163800">
        <ele>-219.2</ele>
        <time>2022-06-03T11:09:16Z</time>
      </trkpt>
      <trkpt lat="48.0424910" lon="7.4160450">
        <ele>-219.4</ele>
        <time>2022-06-03T11:09:20Z</time>
      </trkpt>
      <trkpt lat="48.0424980" lon="7.4157100">
        <ele>-219.6</ele>
        <time>2022-06-03T11:09:24Z</time>
      </trkpt>
      <trkpt lat="48.0424830" lon="7.4153830">
        <ele>-219.6</ele>
        <time>2022-06-03T11:09:28Z</time>
      </trkpt>
      <trkpt lat="48.0424980" lon="7.4150550">
        <ele>-220.0</ele>
        <time>2022-06-03T11:09:32Z</time>
      </trkpt>
      <trkpt lat="48.0425450" lon="7.4147230">
        <ele>-219.8</ele>
        <time>2022-06-03T11:09:36Z</time>
      </trkpt>
      <trkpt lat="48.0425950" lon="7.4144050">
        <ele>-219.6</ele>
        <time>2022-06-03T11:09:40Z</time>
      </trkpt>
      <trkpt lat="48.0426430" lon="7.4140850">
        <ele>-220.4</ele>
        <time>2022-06-03T11:09:44Z</time>
      </trkpt>
      <trkpt lat="48.0426800" lon="7.4137500">
        <ele>-219.8</ele>
        <time>2022-06-03T11:09:48Z</time>
      </trkpt>
      <trkpt lat="48.0427160" lon="7.4134250">
        <ele>-219.8</ele>
        <time>2022-06-03T11:09:52Z</time>
      </trkpt>
      <trkpt lat="48.0427600" lon="7.4131200">
        <ele>-219.8</ele>
        <time>2022-06-03T11:09:56Z</time>
      </trkpt>
      <trkpt lat="48.0428080" lon="7.4128000">
        <ele>-220.6</ele>
        <time>2022-06-03T11:10:00Z</time>
      </trkpt>
      <trkpt lat="48.0428460" lon="7.4124810">
        <ele>-220.8</ele>
        <time>2022-06-03T11:10:04Z</time>
      </trkpt>
      <trkpt lat="48.0428830" lon="7.4121650">
        <ele>-220.2</ele>
        <time>2022-06-03T11:10:08Z</time>
      </trkpt>
      <trkpt lat="48.0429180" lon="7.4118510">
        <ele>-220.2</ele>
        <time>2022-06-03T11:10:12Z</time>
      </trkpt>
      <trkpt lat="48.0429510" lon="7.4115280">
        <ele>-220.0</ele>
        <time>2022-06-03T11:10:16Z</time>
      </trkpt>
      <trkpt lat="48.0429960" lon="7.4112110">
        <ele>-220.2</ele>
        <time>2022-06-03T11:10:20Z</time>
      </trkpt>
      <trkpt lat="48.0430410" lon="7.4109080">
        <ele>-220.0</ele>
        <time>2022-06-03T11:10:24Z</time>
      </trkpt>
      <trkpt lat="48.0431110" lon="7.4106150">
        <ele>-219.4</ele>
        <time>2022-06-03T11:10:28Z</time>
      </trkpt>
      <trkpt lat="48.0432060" lon="7.4103360">
        <ele>-219.8</ele>
        <time>2022-06-03T11:10:32Z</time>
      </trkpt>
      <trkpt lat="48.0433260" lon="7.4100760">
        <ele>-219.6</ele>
        <time>2022-06-03T11:10:36Z</time>
      </trkpt>
      <trkpt lat="48.0434730" lon="7.4098160">
        <ele>-220.2</ele>
        <time>2022-06-03T11:10:40Z</time>
      </trkpt>
      <trkpt lat="48.0436230" lon="7.4095930">
        <ele>-220.4</ele>
        <time>2022-06-03T11:10:44Z</time>
      </trkpt>
      <trkpt lat="48.0437850" lon="7.4094080">
        <ele>-219.6</ele>
        <time>2022-06-03T11:10:48Z</time>
      </trkpt>
      <trkpt lat="48.0439750" lon="7.4092580">
        <ele>-219.8</ele>
        <time>2022-06-03T11:10:52Z</time>
      </trkpt>
      <trkpt lat="48.0441850" lon="7.4091380">
        <ele>-220.0</ele>
        <time>2022-06-03T11:10:56Z</time>
      </trkpt>
      <trkpt lat="48.0444030" lon="7.4090430">
        <ele>-219.8</ele>
        <time>2022-06-03T11:11:00Z</time>
      </trkpt>
      <trkpt lat="48.0446360" lon="7.4089930">
        <ele>-220.0</ele>
        <time>2022-06-03T11:11:04Z</time>
      </trkpt>
      <trkpt lat="48.0448660" lon="7.4089430">
        <ele>-219.8</ele>
        <time>2022-06-03T11:11:08Z</time>
      </trkpt>
      <trkpt lat="48.0450900" lon="7.4088900">
        <ele>-220.0</ele>
        <time>2022-06-03T11:11:12Z</time>
      </trkpt>
      <trkpt lat="48.0453180" lon="7.4088560">
        <ele>-220.2</ele>
        <time>2022-06-03T11:11:16Z</time>
      </trkpt>
      <trkpt lat="48.0455400" lon="7.4087530">
        <ele>-220.4</ele>
        <time>2022-06-03T11:11:20Z</time>
      </trkpt>
      <trkpt lat="48.0457380" lon="7.4086230">
        <ele>-220.8</ele>
        <time>2022-06-03T11:11:24Z</time>
      </trkpt>
      <trkpt lat="48.0459100" lon="7.4084900">
        <ele>-220.4</ele>
        <time>2022-06-03T11:11:28Z</time>
      </trkpt>
      <trkpt lat="48.0460810" lon="7.4083200">
        <ele>-220.0</ele>
        <time>2022-06-03T11:11:32Z</time>
      </trkpt>
      <trkpt lat="48.0462610" lon="7.4081630">
        <ele>-220.6</ele>
        <time>2022-06-03T11:11:36Z</time>
      </trkpt>
      <trkpt lat="48.0464400" lon="7.4080060">
        <ele>-220.6</ele>
        <time>2022-06-03T11:11:40Z</time>
      </trkpt>
      <trkpt lat="48.0466080" lon="7.4078430">
        <ele>-221.2</ele>
        <time>2022-06-03T11:11:44Z</time>
      </trkpt>
      <trkpt lat="48.0467530" lon="7.4076960">
        <ele>-220.8</ele>
        <time>2022-06-03T11:11:48Z</time>
      </trkpt>
      <trkpt lat="48.0468850" lon="7.4075630">
        <ele>-221.0</ele>
        <time>2022-06-03T11:11:52Z</time>
      </trkpt>
      <trkpt lat="48.0470330" lon="7.4075560">
        <ele>-221.0</ele>
        <time>2022-06-03T11:11:56Z</time>
      </trkpt>
      <trkpt lat="48.0471430" lon="7.4074230">
        <ele>-221.4</ele>
        <time>2022-06-03T11:12:00Z</time>
      </trkpt>
      <trkpt lat="48.0472310" lon="7.4071750">
        <ele>-221.4</ele>
        <time>2022-06-03T11:12:04Z</time>
      </trkpt>
      <trkpt lat="48.0474000" lon="7.4069660">
        <ele>-221.4</ele>
        <time>2022-06-03T11:12:08Z</time>
      </trkpt>
      <trkpt lat="48.0475930" lon="7.4067730">
        <ele>-221.8</ele>
        <time>2022-06-03T11:12:12Z</time>
      </trkpt>
      <trkpt lat="48.0477830" lon="7.4065810">
        <ele>-221.6</ele>
        <time>2022-06-03T11:12:16Z</time>
      </trkpt>
      <trkpt lat="48.0479630" lon="7.4063950">
        <ele>-221.4</ele>
        <time>2022-06-03T11:12:20Z</time>
      </trkpt>
      <trkpt lat="48.0481430" lon="7.4062280">
        <ele>-221.6</ele>
        <time>2022-06-03T11:12:24Z</time>
      </trkpt>
      <trkpt lat="48.0483250" lon="7.4060660">
        <ele>-221.0</ele>
        <time>2022-06-03T11:12:28Z</time>
      </trkpt>
      <trkpt lat="48.0485100" lon="7.4058760">
        <ele>-221.0</ele>
        <time>2022-06-03T11:12:32Z</time>
      </trkpt>
      <trkpt lat="48.0486900" lon="7.4056830">
        <ele>-221.0</ele>
        <time>2022-06-03T11:12:36Z</time>
      </trkpt>
      <trkpt lat="48.0488660" lon="7.4054850">
        <ele>-221.2</ele>
        <time>2022-06-03T11:12:40Z</time>
      </trkpt>
      <trkpt lat="48.0490350" lon="7.4052860">
        <ele>-221.0</ele>
        <time>2022-06-03T11:12:44Z</time>
      </trkpt>
      <trkpt lat="48.0491900" lon="7.4050860">
        <ele>-220.4</ele>
        <time>2022-06-03T11:12:48Z</time>
      </trkpt>
      <trkpt lat="48.0493530" lon="7.4049110">
        <ele>-220.2</ele>
        <time>2022-06-03T11:12:52Z</time>
      </trkpt>
      <trkpt lat="48.0495080" lon="7.4047060">
        <ele>-219.6</ele>
        <time>2022-06-03T11:12:56Z</time>
      </trkpt>
      <trkpt lat="48.0496480" lon="7.4044560">
        <ele>-220.0</ele>
        <time>2022-06-03T11:13:00Z</time>
      </trkpt>
      <trkpt lat="48.0497780" lon="7.4041680">
        <ele>-220.4</ele>
        <time>2022-06-03T11:13:04Z</time>
      </trkpt>
      <trkpt lat="48.0498910" lon="7.4038530">
        <ele>-221.0</ele>
        <time>2022-06-03T11:13:08Z</time>
      </trkpt>
      <trkpt lat="48.0499850" lon="7.4035180">
        <ele>-222.0</ele>
        <time>2022-06-03T11:13:12Z</time>
      </trkpt>
      <trkpt lat="48.0500730" lon="7.4031850">
        <ele>-221.8</ele>
        <time>2022-06-03T11:13:16Z</time>
      </trkpt>
      <trkpt lat="48.0501610" lon="7.4028460">
        <ele>-221.6</ele>
        <time>2022-06-03T11:13:20Z</time>
      </trkpt>
      <trkpt lat="48.0502610" lon="7.4025130">
        <ele>-221.4</ele>
        <time>2022-06-03T11:13:24Z</time>
      </trkpt>
      <trkpt lat="48.0503780" lon="7.4021960">
        <ele>-222.0</ele>
        <time>2022-06-03T11:13:28Z</time>
      </trkpt>
      <trkpt lat="48.0505100" lon="7.4019060">
        <ele>-221.4</ele>
        <time>2022-06-03T11:13:32Z</time>
      </trkpt>
      <trkpt lat="48.0506650" lon="7.4016400">
        <ele>-222.2</ele>
        <time>2022-06-03T11:13:36Z</time>
      </trkpt>
      <trkpt lat="48.0508430" lon="7.4014050">
        <ele>-221.8</ele>
        <time>2022-06-03T11:13:40Z</time>
      </trkpt>
      <trkpt lat="48.0510410" lon="7.4012080">
        <ele>-222.2</ele>
        <time>2022-06-03T11:13:44Z</time>
      </trkpt>
      <trkpt lat="48.0512380" lon="7.4010360">
        <ele>-221.4</ele>
        <time>2022-06-03T11:13:48Z</time>
      </trkpt>
      <trkpt lat="48.0514660" lon="7.4009230">
        <ele>-222.0</ele>
        <time>2022-06-03T11:13:52Z</time>
      </trkpt>
      <trkpt lat="48.0517000" lon="7.4008330">
        <ele>-220.6</ele>
        <time>2022-06-03T11:13:56Z</time>
      </trkpt>
      <trkpt lat="48.0518880" lon="7.4007300">
        <ele>-221.4</ele>
        <time>2022-06-03T11:14:00Z</time>
      </trkpt>
      <trkpt lat="48.0520810" lon="7.4006350">
        <ele>-221.6</ele>
        <time>2022-06-03T11:14:04Z</time>
      </trkpt>
      <trkpt lat="48.0522750" lon="7.4005260">
        <ele>-221.8</ele>
        <time>2022-06-03T11:14:08Z</time>
      </trkpt>
      <trkpt lat="48.0524680" lon="7.4004300">
        <ele>-221.6</ele>
        <time>2022-06-03T11:14:12Z</time>
      </trkpt>
      <trkpt lat="48.0526750" lon="7.4003660">
        <ele>-222.2</ele>
        <time>2022-06-03T11:14:16Z</time>
      </trkpt>
      <trkpt lat="48.0528600" lon="7.4002680">
        <ele>-221.8</ele>
        <time>2022-06-03T11:14:20Z</time>
      </trkpt>
      <trkpt lat="48.0530460" lon="7.4001710">
        <ele>-222.2</ele>
        <time>2022-06-03T11:14:24Z</time>
      </trkpt>
      <trkpt lat="48.0532050" lon="7.4000760">
        <ele>-222.4</ele>
        <time>2022-06-03T11:14:28Z</time>
      </trkpt>
      <trkpt lat="48.0534110" lon="7.3999680">
        <ele>-222.0</ele>
        <time>2022-06-03T11:14:32Z</time>
      </trkpt>
      <trkpt lat="48.0535980" lon="7.3998650">
        <ele>-222.2</ele>
        <time>2022-06-03T11:14:36Z</time>
      </trkpt>
      <trkpt lat="48.0537800" lon="7.3997600">
        <ele>-221.6</ele>
        <time>2022-06-03T11:14:40Z</time>
      </trkpt>
      <trkpt lat="48.0539700" lon="7.3996530">
        <ele>-222.0</ele>
        <time>2022-06-03T11:14:44Z</time>
      </trkpt>
      <trkpt lat="48.0541980" lon="7.3995580">
        <ele>-221.4</ele>
        <time>2022-06-03T11:14:48Z</time>
      </trkpt>
      <trkpt lat="48.0544210" lon="7.3994630">
        <ele>-221.2</ele>
        <time>2022-06-03T11:14:52Z</time>
      </trkpt>
      <trkpt lat="48.0545850" lon="7.3993760">
        <ele>-222.0</ele>
        <time>2022-06-03T11:14:56Z</time>
      </trkpt>
      <trkpt lat="48.0547960" lon="7.3992660">
        <ele>-222.0</ele>
        <time>2022-06-03T11:15:00Z</time>
      </trkpt>
      <trkpt lat="48.0549950" lon="7.3991710">
        <ele>-222.0</ele>
        <time>2022-06-03T11:15:04Z</time>
      </trkpt>
      <trkpt lat="48.0551730" lon="7.3990760">
        <ele>-221.6</ele>
        <time>2022-06-03T11:15:08Z</time>
      </trkpt>
      <trkpt lat="48.0553480" lon="7.3989780">
        <ele>-221.8</ele>
        <time>2022-06-03T11:15:12Z</time>
      </trkpt>
      <trkpt lat="48.0556250" lon="7.3988860">
        <ele>-222.0</ele>
        <time>2022-06-03T11:15:16Z</time>
      </trkpt>
      <trkpt lat="48.0558500" lon="7.3987900">
        <ele>-221.6</ele>
        <time>2022-06-03T11:15:20Z</time>
      </trkpt>
      <trkpt lat="48.0560630" lon="7.3986630">
        <ele>-221.8</ele>
        <time>2022-06-03T11:15:24Z</time>
      </trkpt>
      <trkpt lat="48.0562680" lon="7.3985660">
        <ele>-222.6</ele>
        <time>2022-06-03T11:15:28Z</time>
      </trkpt>
      <trkpt lat="48.0565250" lon="7.3984410">
        <ele>-222.0</ele>
        <time>2022-06-03T11:15:32Z</time>
      </trkpt>
      <trkpt lat="48.0567800" lon="7.3983350">
        <ele>-222.0</ele>
        <time>2022-06-03T11:15:36Z</time>
      </trkpt>
      <trkpt lat="48.0570350" lon="7.3982360">
        <ele>-222.2</ele>
        <time>2022-06-03T11:15:40Z</time>
      </trkpt>
      <trkpt lat="48.0572810" lon="7.3981280">
        <ele>-222.2</ele>
        <time>2022-06-03T11:15:44Z</time>
      </trkpt>
      <trkpt lat="48.0575050" lon="7.3980280">
        <ele>-222.2</ele>
        <time>2022-06-03T11:15:48Z</time>
      </trkpt>
      <trkpt lat="48.0577450" lon="7.3979280">
        <ele>-221.6</ele>
        <time>2022-06-03T11:15:52Z</time>
      </trkpt>
      <trkpt lat="48.0579600" lon="7.3978330">
        <ele>-221.8</ele>
        <time>2022-06-03T11:15:56Z</time>
      </trkpt>
      <trkpt lat="48.0581980" lon="7.3977180">
        <ele>-222.2</ele>
        <time>2022-06-03T11:16:00Z</time>
      </trkpt>
      <trkpt lat="48.0584450" lon="7.3976100">
        <ele>-222.4</ele>
        <time>2022-06-03T11:16:04Z</time>
      </trkpt>
      <trkpt lat="48.0586930" lon="7.3975050">
        <ele>-222.6</ele>
        <time>2022-06-03T11:16:08Z</time>
      </trkpt>
      <trkpt lat="48.0589410" lon="7.3974030">
        <ele>-221.6</ele>
        <time>2022-06-03T11:16:12Z</time>
      </trkpt>
      <trkpt lat="48.0591810" lon="7.3973060">
        <ele>-222.4</ele>
        <time>2022-06-03T11:16:16Z</time>
      </trkpt>
      <trkpt lat="48.0594160" lon="7.3972050">
        <ele>-222.6</ele>
        <time>2022-06-03T11:16:20Z</time>
      </trkpt>
      <trkpt lat="48.0596480" lon="7.3971100">
        <ele>-222.8</ele>
        <time>2022-06-03T11:16:24Z</time>
      </trkpt>
      <trkpt lat="48.0598780" lon="7.3970100">
        <ele>-221.8</ele>
        <time>2022-06-03T11:16:28Z</time>
      </trkpt>
      <trkpt lat="48.0601100" lon="7.3969160">
        <ele>-222.4</ele>
        <time>2022-06-03T11:16:32Z</time>
      </trkpt>
      <trkpt lat="48.0603380" lon="7.3968160">
        <ele>-222.0</ele>
        <time>2022-06-03T11:16:36Z</time>
      </trkpt>
      <trkpt lat="48.0605650" lon="7.3967260">
        <ele>-222.0</ele>
        <time>2022-06-03T11:16:40Z</time>
      </trkpt>
      <trkpt lat="48.0607950" lon="7.3966150">
        <ele>-222.0</ele>
        <time>2022-06-03T11:16:44Z</time>
      </trkpt>
      <trkpt lat="48.0610150" lon="7.3965110">
        <ele>-222.4</ele>
        <time>2022-06-03T11:16:48Z</time>
      </trkpt>
      <trkpt lat="48.0612450" lon="7.3964100">
        <ele>-222.6</ele>
        <time>2022-06-03T11:16:52Z</time>
      </trkpt>
      <trkpt lat="48.0614730" lon="7.3963180">
        <ele>-222.2</ele>
        <time>2022-06-03T11:16:56Z</time>
      </trkpt>
      <trkpt lat="48.0616980" lon="7.3962230">
        <ele>-222.6</ele>
        <time>2022-06-03T11:17:00Z</time>
      </trkpt>
      <trkpt lat="48.0619210" lon="7.3961350">
        <ele>-222.6</ele>
        <time>2022-06-03T11:17:04Z</time>
      </trkpt>
      <trkpt lat="48.0621510" lon="7.3960350">
        <ele>-222.4</ele>
        <time>2022-06-03T11:17:08Z</time>
      </trkpt>
      <trkpt lat="48.0623860" lon="7.3959310">
        <ele>-222.6</ele>
        <time>2022-06-03T11:17:12Z</time>
      </trkpt>
      <trkpt lat="48.0626110" lon="7.3958330">
        <ele>-222.6</ele>
        <time>2022-06-03T11:17:16Z</time>
      </trkpt>
      <trkpt lat="48.0628380" lon="7.3957360">
        <ele>-222.4</ele>
        <time>2022-06-03T11:17:20Z</time>
      </trkpt>
      <trkpt lat="48.0630580" lon="7.3956400">
        <ele>-222.6</ele>
        <time>2022-06-03T11:17:24Z</time>
      </trkpt>
      <trkpt lat="48.0632800" lon="7.3955530">
        <ele>-222.8</ele>
        <time>2022-06-03T11:17:28Z</time>
      </trkpt>
      <trkpt lat="48.0634950" lon="7.3954530">
        <ele>-223.2</ele>
        <time>2022-06-03T11:17:32Z</time>
      </trkpt>
      <trkpt lat="48.0637100" lon="7.3953580">
        <ele>-223.6</ele>
        <time>2022-06-03T11:17:36Z</time>
      </trkpt>
      <trkpt lat="48.0639250" lon="7.3952600">
        <ele>-222.8</ele>
        <time>2022-06-03T11:17:40Z</time>
      </trkpt>
      <trkpt lat="48.0641460" lon="7.3951730">
        <ele>-222.6</ele>
        <time>2022-06-03T11:17:44Z</time>
      </trkpt>
      <trkpt lat="48.0643630" lon="7.3950850">
        <ele>-222.4</ele>
        <time>2022-06-03T11:17:48Z</time>
      </trkpt>
      <trkpt lat="48.0645810" lon="7.3949830">
        <ele>-221.8</ele>
        <time>2022-06-03T11:17:52Z</time>
      </trkpt>
      <trkpt lat="48.0648010" lon="7.3948960">
        <ele>-222.2</ele>
        <time>2022-06-03T11:17:56Z</time>
      </trkpt>
      <trkpt lat="48.0650230" lon="7.3948130">
        <ele>-222.0</ele>
        <time>2022-06-03T11:18:00Z</time>
      </trkpt>
      <trkpt lat="48.0652400" lon="7.3947280">
        <ele>-222.2</ele>
        <time>2022-06-03T11:18:04Z</time>
      </trkpt>
      <trkpt lat="48.0654510" lon="7.3946510">
        <ele>-222.4</ele>
        <time>2022-06-03T11:18:08Z</time>
      </trkpt>
      <trkpt lat="48.0656380" lon="7.3946100">
        <ele>-222.6</ele>
        <time>2022-06-03T11:18:12Z</time>
      </trkpt>
      <trkpt lat="48.0658010" lon="7.3947350">
        <ele>-222.4</ele>
        <time>2022-06-03T11:18:16Z</time>
      </trkpt>
      <trkpt lat="48.0660010" lon="7.3948330">
        <ele>-222.0</ele>
        <time>2022-06-03T11:18:20Z</time>
      </trkpt>
      <trkpt lat="48.0662180" lon="7.3947280">
        <ele>-222.0</ele>
        <time>2022-06-03T11:18:24Z</time>
      </trkpt>
      <trkpt lat="48.0663510" lon="7.3944660">
        <ele>-222.4</ele>
        <time>2022-06-03T11:18:28Z</time>
      </trkpt>
      <trkpt lat="48.0663410" lon="7.3941880">
        <ele>-222.2</ele>
        <time>2022-06-03T11:18:32Z</time>
      </trkpt>
      <trkpt lat="48.0662710" lon="7.3939180">
        <ele>-222.8</ele>
        <time>2022-06-03T11:18:36Z</time>
      </trkpt>
      <trkpt lat="48.0663160" lon="7.3936280">
        <ele>-223.2</ele>
        <time>2022-06-03T11:18:40Z</time>
      </trkpt>
      <trkpt lat="48.0664100" lon="7.3935050">
        <ele>-223.0</ele>
        <time>2022-06-03T11:18:44Z</time>
      </trkpt>
      <trkpt lat="48.0664630" lon="7.3934080">
        <ele>-222.8</ele>
        <time>2022-06-03T11:18:48Z</time>
      </trkpt>
      <trkpt lat="48.0665100" lon="7.3932410">
        <ele>-223.0</ele>
        <time>2022-06-03T11:18:52Z</time>
      </trkpt>
      <trkpt lat="48.0665800" lon="7.3930450">
        <ele>-223.4</ele>
        <time>2022-06-03T11:18:56Z</time>
      </trkpt>
      <trkpt lat="48.0666400" lon="7.3928060">
        <ele>-223.2</ele>
        <time>2022-06-03T11:19:00Z</time>
      </trkpt>
      <trkpt lat="48.0667160" lon="7.3925550">
        <ele>-223.0</ele>
        <time>2022-06-03T11:19:04Z</time>
      </trkpt>
      <trkpt lat="48.0667910" lon="7.3922930">
        <ele>-223.4</ele>
        <time>2022-06-03T11:19:08Z</time>
      </trkpt>
      <trkpt lat="48.0668750" lon="7.3920180">
        <ele>-223.4</ele>
        <time>2022-06-03T11:19:12Z</time>
      </trkpt>
      <trkpt lat="48.0669600" lon="7.3917330">
        <ele>-223.6</ele>
        <time>2022-06-03T11:19:16Z</time>
      </trkpt>
      <trkpt lat="48.0670480" lon="7.3914510">
        <ele>-223.2</ele>
        <time>2022-06-03T11:19:20Z</time>
      </trkpt>
      <trkpt lat="48.0671310" lon="7.3911610">
        <ele>-223.4</ele>
        <time>2022-06-03T11:19:24Z</time>
      </trkpt>
      <trkpt lat="48.0672110" lon="7.3908930">
        <ele>-223.4</ele>
        <time>2022-06-03T11:19:28Z</time>
      </trkpt>
      <trkpt lat="48.0672880" lon="7.3906330">
        <ele>-223.4</ele>
        <time>2022-06-03T11:19:32Z</time>
      </trkpt>
      <trkpt lat="48.0673600" lon="7.3903600">
        <ele>-223.6</ele>
        <time>2022-06-03T11:19:36Z</time>
      </trkpt>
      <trkpt lat="48.0674350" lon="7.3900880">
        <ele>-223.2</ele>
        <time>2022-06-03T11:19:40Z</time>
      </trkpt>
      <trkpt lat="48.0674960" lon="7.3898210">
        <ele>-223.2</ele>
        <time>2022-06-03T11:19:44Z</time>
      </trkpt>
      <trkpt lat="48.0675580" lon="7.3895550">
        <ele>-223.0</ele>
        <time>2022-06-03T11:19:48Z</time>
      </trkpt>
      <trkpt lat="48.0676180" lon="7.3892900">
        <ele>-223.0</ele>
        <time>2022-06-03T11:19:52Z</time>
      </trkpt>
      <trkpt lat="48.0676960" lon="7.3890250">
        <ele>-222.4</ele>
        <time>2022-06-03T11:19:56Z</time>
      </trkpt>
      <trkpt lat="48.0677850" lon="7.3887580">
        <ele>-223.2</ele>
        <time>2022-06-03T11:20:00Z</time>
      </trkpt>
      <trkpt lat="48.0678680" lon="7.3884830">
        <ele>-222.4</ele>
        <time>2022-06-03T11:20:04Z</time>
      </trkpt>
      <trkpt lat="48.0679480" lon="7.3882100">
        <ele>-222.2</ele>
        <time>2022-06-03T11:20:08Z</time>
      </trkpt>
      <trkpt lat="48.0680300" lon="7.3879480">
        <ele>-221.6</ele>
        <time>2022-06-03T11:20:12Z</time>
      </trkpt>
      <trkpt lat="48.0680980" lon="7.3876980">
        <ele>-221.2</ele>
        <time>2022-06-03T11:20:16Z</time>
      </trkpt>
      <trkpt lat="48.0681600" lon="7.3874450">
        <ele>-221.6</ele>
        <time>2022-06-03T11:20:20Z</time>
      </trkpt>
      <trkpt lat="48.0682160" lon="7.3871960">
        <ele>-222.4</ele>
        <time>2022-06-03T11:20:24Z</time>
      </trkpt>
      <trkpt lat="48.0682580" lon="7.3869060">
        <ele>-223.2</ele>
        <time>2022-06-03T11:20:28Z</time>
      </trkpt>
      <trkpt lat="48.0682950" lon="7.3865950">
        <ele>-223.4</ele>
        <time>2022-06-03T11:20:32Z</time>
      </trkpt>
      <trkpt lat="48.0683300" lon="7.3863160">
        <ele>-223.8</ele>
        <time>2022-06-03T11:20:36Z</time>
      </trkpt>
      <trkpt lat="48.0683610" lon="7.3861050">
        <ele>-223.6</ele>
        <time>2022-06-03T11:20:40Z</time>
      </trkpt>
      <trkpt lat="48.0683700" lon="7.3859980">
        <ele>-223.2</ele>
        <time>2022-06-03T11:20:44Z</time>
      </trkpt>
      <trkpt lat="48.0683700" lon="7.3859980">
        <ele>-234.2</ele>
        <time>2022-06-03T11:20:48Z</time>
      </trkpt>
      <trkpt lat="48.0683700" lon="7.3859980">
        <ele>-223.6</ele>
        <time>2022-06-03T11:20:52Z</time>
      </trkpt>
      <trkpt lat="48.0683700" lon="7.3859980">
        <ele>-223.6</ele>
        <time>2022-06-03T11:20:56Z</time>
      </trkpt>
      <trkpt lat="48.0683700" lon="7.3859980">
        <ele>-223.4</ele>
        <time>2022-06-03T11:21:00Z</time>
      </trkpt>
      <trkpt lat="48.0683700" lon="7.3859980">
        <ele>-223.2</ele>
        <time>2022-06-03T11:21:04Z</time>
      </trkpt>
      <trkpt lat="48.0683600" lon="7.3860200">
        <ele>-223.4</ele>
        <time>2022-06-03T11:21:08Z</time>
      </trkpt>
      <trkpt lat="48.0683550" lon="7.3860810">
        <ele>-223.4</ele>
        <time>2022-06-03T11:21:12Z</time>
      </trkpt>
      <trkpt lat="48.0683530" lon="7.3862080">
        <ele>-223.2</ele>
        <time>2022-06-03T11:21:16Z</time>
      </trkpt>
      <trkpt lat="48.0683330" lon="7.3863810">
        <ele>-223.4</ele>
        <time>2022-06-03T11:21:20Z</time>
      </trkpt>
      <trkpt lat="48.0683060" lon="7.3865930">
        <ele>-223.2</ele>
        <time>2022-06-03T11:21:24Z</time>
      </trkpt>
      <trkpt lat="48.0682660" lon="7.3868080">
        <ele>-222.6</ele>
        <time>2022-06-03T11:21:28Z</time>
      </trkpt>
      <trkpt lat="48.0682400" lon="7.3870210">
        <ele>-222.2</ele>
        <time>2022-06-03T11:21:32Z</time>
      </trkpt>
      <trkpt lat="48.0682310" lon="7.3871950">
        <ele>-221.6</ele>
        <time>2022-06-03T11:21:36Z</time>
      </trkpt>
      <trkpt lat="48.0681860" lon="7.3872650">
        <ele>-221.4</ele>
        <time>2022-06-03T11:21:40Z</time>
      </trkpt>
      <trkpt lat="48.0681400" lon="7.3871380">
        <ele>-221.4</ele>
        <time>2022-06-03T11:21:44Z</time>
      </trkpt>
      <trkpt lat="48.0681200" lon="7.3870600">
        <ele>-219.2</ele>
        <time>2022-06-03T11:21:48Z</time>
      </trkpt>
      <trkpt lat="48.0680860" lon="7.3870030">
        <ele>-219.0</ele>
        <time>2022-06-03T11:21:52Z</time>
      </trkpt>
      <trkpt lat="48.0680130" lon="7.3870430">
        <ele>-219.6</ele>
        <time>2022-06-03T11:21:56Z</time>
      </trkpt>
      <trkpt lat="48.0679510" lon="7.3869980">
        <ele>-220.0</ele>
        <time>2022-06-03T11:22:00Z</time>
      </trkpt>
      <trkpt lat="48.0679830" lon="7.3870530">
        <ele>-220.0</ele>
        <time>2022-06-03T11:22:04Z</time>
      </trkpt>
      <trkpt lat="48.0680760" lon="7.3870050">
        <ele>-219.8</ele>
        <time>2022-06-03T11:22:08Z</time>
      </trkpt>
      <trkpt lat="48.0681180" lon="7.3869000">
        <ele>-219.2</ele>
        <time>2022-06-03T11:22:12Z</time>
      </trkpt>
      <trkpt lat="48.0680800" lon="7.3867830">
        <ele>-218.2</ele>
        <time>2022-06-03T11:22:16Z</time>
      </trkpt>
      <trkpt lat="48.0680650" lon="7.3866850">
        <ele>-217.0</ele>
        <time>2022-06-03T11:22:20Z</time>
      </trkpt>
      <trkpt lat="48.0680580" lon="7.3865450">
        <ele>-216.8</ele>
        <time>2022-06-03T11:22:24Z</time>
      </trkpt>
      <trkpt lat="48.0680680" lon="7.3863860">
        <ele>-216.2</ele>
        <time>2022-06-03T11:22:28Z</time>
      </trkpt>
      <trkpt lat="48.0680850" lon="7.3862330">
        <ele>-215.8</ele>
        <time>2022-06-03T11:22:32Z</time>
      </trkpt>
      <trkpt lat="48.0681050" lon="7.3860700">
        <ele>-216.4</ele>
        <time>2022-06-03T11:22:36Z</time>
      </trkpt>
      <trkpt lat="48.0681300" lon="7.3859060">
        <ele>-215.8</ele>
        <time>2022-06-03T11:22:40Z</time>
      </trkpt>
      <trkpt lat="48.0681600" lon="7.3857410">
        <ele>-215.6</ele>
        <time>2022-06-03T11:22:44Z</time>
      </trkpt>
      <trkpt lat="48.0682000" lon="7.3855960">
        <ele>-215.6</ele>
        <time>2022-06-03T11:22:48Z</time>
      </trkpt>
      <trkpt lat="48.0682460" lon="7.3854860">
        <ele>-216.0</ele>
        <time>2022-06-03T11:22:52Z</time>
      </trkpt>
      <trkpt lat="48.0683080" lon="7.3854030">
        <ele>-216.2</ele>
        <time>2022-06-03T11:22:56Z</time>
      </trkpt>
      <trkpt lat="48.0683860" lon="7.3853500">
        <ele>-215.8</ele>
        <time>2022-06-03T11:23:00Z</time>
      </trkpt>
      <trkpt lat="48.0683810" lon="7.3853780">
        <ele>-216.4</ele>
        <time>2022-06-03T11:23:04Z</time>
      </trkpt>
      <trkpt lat="48.0683030" lon="7.3854230">
        <ele>-215.8</ele>
        <time>2022-06-03T11:23:08Z</time>
      </trkpt>
      <trkpt lat="48.0682210" lon="7.3855530">
        <ele>-215.6</ele>
        <time>2022-06-03T11:23:12Z</time>
      </trkpt>
      <trkpt lat="48.0681700" lon="7.3857500">
        <ele>-215.8</ele>
        <time>2022-06-03T11:23:16Z</time>
      </trkpt>
      <trkpt lat="48.0681450" lon="7.3859730">
        <ele>-215.8</ele>
        <time>2022-06-03T11:23:20Z</time>
      </trkpt>
      <trkpt lat="48.0681050" lon="7.3862260">
        <ele>-215.8</ele>
        <time>2022-06-03T11:23:24Z</time>
      </trkpt>
      <trkpt lat="48.0680760" lon="7.3864810">
        <ele>-216.6</ele>
        <time>2022-06-03T11:23:28Z</time>
      </trkpt>
      <trkpt lat="48.0680900" lon="7.3867280">
        <ele>-216.6</ele>
        <time>2022-06-03T11:23:32Z</time>
      </trkpt>
      <trkpt lat="48.0681150" lon="7.3869750">
        <ele>-218.0</ele>
        <time>2022-06-03T11:23:36Z</time>
      </trkpt>
      <trkpt lat="48.0680110" lon="7.3870310">
        <ele>-219.2</ele>
        <time>2022-06-03T11:23:40Z</time>
      </trkpt>
      <trkpt lat="48.0679510" lon="7.3869580">
        <ele>-219.4</ele>
        <time>2022-06-03T11:23:44Z</time>
      </trkpt>
      <trkpt lat="48.0679360" lon="7.3868760">
        <ele>-219.0</ele>
        <time>2022-06-03T11:23:48Z</time>
      </trkpt>
      <trkpt lat="48.0679330" lon="7.3868660">
        <ele>-219.2</ele>
        <time>2022-06-03T11:23:52Z</time>
      </trkpt>
      <trkpt lat="48.0679330" lon="7.3867910">
        <ele>-219.0</ele>
        <time>2022-06-03T11:23:56Z</time>
      </trkpt>
      <trkpt lat="48.0679450" lon="7.3866260">
        <ele>-218.6</ele>
        <time>2022-06-03T11:24:00Z</time>
      </trkpt>
      <trkpt lat="48.0679500" lon="7.3863600">
        <ele>-218.6</ele>
        <time>2022-06-03T11:24:04Z</time>
      </trkpt>
      <trkpt lat="48.0679760" lon="7.3860210">
        <ele>-218.2</ele>
        <time>2022-06-03T11:24:08Z</time>
      </trkpt>
      <trkpt lat="48.0680060" lon="7.3856810">
        <ele>-217.0</ele>
        <time>2022-06-03T11:24:12Z</time>
      </trkpt>
      <trkpt lat="48.0680310" lon="7.3853650">
        <ele>-217.4</ele>
        <time>2022-06-03T11:24:16Z</time>
      </trkpt>
      <trkpt lat="48.0680560" lon="7.3850710">
        <ele>-217.0</ele>
        <time>2022-06-03T11:24:20Z</time>
      </trkpt>
      <trkpt lat="48.0680860" lon="7.3847760">
        <ele>-217.0</ele>
        <time>2022-06-03T11:24:24Z</time>
      </trkpt>
      <trkpt lat="48.0681080" lon="7.3845250">
        <ele>-216.8</ele>
        <time>2022-06-03T11:24:28Z</time>
      </trkpt>
      <trkpt lat="48.0681260" lon="7.3842730">
        <ele>-215.8</ele>
        <time>2022-06-03T11:24:32Z</time>
      </trkpt>
      <trkpt lat="48.0681480" lon="7.3840360">
        <ele>-216.8</ele>
        <time>2022-06-03T11:24:36Z</time>
      </trkpt>
      <trkpt lat="48.0681730" lon="7.3837910">
        <ele>-217.4</ele>
        <time>2022-06-03T11:24:40Z</time>
      </trkpt>
      <trkpt lat="48.0681930" lon="7.3835260">
        <ele>-217.6</ele>
        <time>2022-06-03T11:24:44Z</time>
      </trkpt>
      <trkpt lat="48.0682160" lon="7.3832380">
        <ele>-217.6</ele>
        <time>2022-06-03T11:24:48Z</time>
      </trkpt>
      <trkpt lat="48.0682410" lon="7.3829310">
        <ele>-218.0</ele>
        <time>2022-06-03T11:24:52Z</time>
      </trkpt>
      <trkpt lat="48.0682660" lon="7.3826060">
        <ele>-219.0</ele>
        <time>2022-06-03T11:24:56Z</time>
      </trkpt>
      <trkpt lat="48.0682950" lon="7.3822510">
        <ele>-219.8</ele>
        <time>2022-06-03T11:25:00Z</time>
      </trkpt>
      <trkpt lat="48.0683300" lon="7.3818550">
        <ele>-221.0</ele>
        <time>2022-06-03T11:25:04Z</time>
      </trkpt>
      <trkpt lat="48.0683660" lon="7.3814160">
        <ele>-223.0</ele>
        <time>2022-06-03T11:25:08Z</time>
      </trkpt>
      <trkpt lat="48.0684050" lon="7.3809680">
        <ele>-223.0</ele>
        <time>2022-06-03T11:25:12Z</time>
      </trkpt>
      <trkpt lat="48.0684410" lon="7.3805360">
        <ele>-222.8</ele>
        <time>2022-06-03T11:25:16Z</time>
      </trkpt>
      <trkpt lat="48.0684680" lon="7.3801410">
        <ele>-224.0</ele>
        <time>2022-06-03T11:25:20Z</time>
      </trkpt>
      <trkpt lat="48.0685050" lon="7.3797930">
        <ele>-223.0</ele>
        <time>2022-06-03T11:25:24Z</time>
      </trkpt>
      <trkpt lat="48.0685880" lon="7.3795830">
        <ele>-223.4</ele>
        <time>2022-06-03T11:25:28Z</time>
      </trkpt>
      <trkpt lat="48.0685850" lon="7.3793650">
        <ele>-223.4</ele>
        <time>2022-06-03T11:25:32Z</time>
      </trkpt>
      <trkpt lat="48.0685500" lon="7.3791080">
        <ele>-223.4</ele>
        <time>2022-06-03T11:25:36Z</time>
      </trkpt>
      <trkpt lat="48.0685560" lon="7.3788430">
        <ele>-223.2</ele>
        <time>2022-06-03T11:25:40Z</time>
      </trkpt>
      <trkpt lat="48.0685660" lon="7.3785680">
        <ele>-223.4</ele>
        <time>2022-06-03T11:25:44Z</time>
      </trkpt>
      <trkpt lat="48.0685810" lon="7.3782900">
        <ele>-223.2</ele>
        <time>2022-06-03T11:25:48Z</time>
      </trkpt>
      <trkpt lat="48.0685910" lon="7.3780100">
        <ele>-223.8</ele>
        <time>2022-06-03T11:25:52Z</time>
      </trkpt>
      <trkpt lat="48.0686010" lon="7.3777350">
        <ele>-223.6</ele>
        <time>2022-06-03T11:25:56Z</time>
      </trkpt>
      <trkpt lat="48.0686100" lon="7.3774880">
        <ele>-223.4</ele>
        <time>2022-06-03T11:26:00Z</time>
      </trkpt>
      <trkpt lat="48.0686200" lon="7.3772530">
        <ele>-224.2</ele>
        <time>2022-06-03T11:26:04Z</time>
      </trkpt>
      <trkpt lat="48.0686260" lon="7.3770380">
        <ele>-223.2</ele>
        <time>2022-06-03T11:26:08Z</time>
      </trkpt>
      <trkpt lat="48.0686310" lon="7.3768310">
        <ele>-223.2</ele>
        <time>2022-06-03T11:26:12Z</time>
      </trkpt>
      <trkpt lat="48.0686430" lon="7.3766260">
        <ele>-223.0</ele>
        <time>2022-06-03T11:26:16Z</time>
      </trkpt>
      <trkpt lat="48.0686560" lon="7.3764160">
        <ele>-223.4</ele>
        <time>2022-06-03T11:26:20Z</time>
      </trkpt>
      <trkpt lat="48.0686650" lon="7.3762460">
        <ele>-223.2</ele>
        <time>2022-06-03T11:26:24Z</time>
      </trkpt>
      <trkpt lat="48.0686710" lon="7.3761180">
        <ele>-222.8</ele>
        <time>2022-06-03T11:26:28Z</time>
      </trkpt>
      <trkpt lat="48.0686760" lon="7.3760300">
        <ele>-222.6</ele>
        <time>2022-06-03T11:26:32Z</time>
      </trkpt>
      <trkpt lat="48.0686760" lon="7.3760300">
        <ele>-223.2</ele>
        <time>2022-06-03T11:26:36Z</time>
      </trkpt>
      <trkpt lat="48.0686760" lon="7.3760300">
        <ele>-222.8</ele>
        <time>2022-06-03T11:26:40Z</time>
      </trkpt>
      <trkpt lat="48.0686760" lon="7.3760300">
        <ele>-222.6</ele>
        <time>2022-06-03T11:26:44Z</time>
      </trkpt>
      <trkpt lat="48.0686760" lon="7.3760300">
        <ele>-222.4</ele>
        <time>2022-06-03T11:26:48Z</time>
      </trkpt>
      <trkpt lat="48.0686760" lon="7.3760300">
        <ele>-222.6</ele>
        <time>2022-06-03T11:26:52Z</time>
      </trkpt>
      <trkpt lat="48.0686760" lon="7.3760300">
        <ele>-222.4</ele>
        <time>2022-06-03T11:26:56Z</time>
      </trkpt>
      <trkpt lat="48.0686760" lon="7.3760300">
        <ele>-223.0</ele>
        <time>2022-06-03T11:27:00Z</time>
      </trkpt>
      <trkpt lat="48.0686760" lon="7.3760300">
        <ele>-222.6</ele>
        <time>2022-06-03T11:27:04Z</time>
      </trkpt>
      <trkpt lat="48.0686760" lon="7.3760300">
        <ele>-222.8</ele>
        <time>2022-06-03T11:27:08Z</time>
      </trkpt>
      <trkpt lat="48.0686760" lon="7.3760300">
        <ele>-222.6</ele>
        <time>2022-06-03T11:27:12Z</time>
      </trkpt>
      <trkpt lat="48.0686760" lon="7.3760300">
        <ele>-222.2</ele>
        <time>2022-06-03T11:27:16Z</time>
      </trkpt>
      <trkpt lat="48.0686760" lon="7.3760300">
        <ele>-222.4</ele>
        <time>2022-06-03T11:27:20Z</time>
      </trkpt>
      <trkpt lat="48.0686760" lon="7.3760300">
        <ele>-223.0</ele>
        <time>2022-06-03T11:27:24Z</time>
      </trkpt>
      <trkpt lat="48.0686760" lon="7.3760300">
        <ele>-222.4</ele>
        <time>2022-06-03T11:27:28Z</time>
      </trkpt>
      <trkpt lat="48.0686760" lon="7.3760300">
        <ele>-222.4</ele>
        <time>2022-06-03T11:27:32Z</time>
      </trkpt>
      <trkpt lat="48.0686760" lon="7.3760300">
        <ele>-222.2</ele>
        <time>2022-06-03T11:27:36Z</time>
      </trkpt>
      <trkpt lat="48.0686760" lon="7.3760300">
        <ele>-222.6</ele>
        <time>2022-06-03T11:27:40Z</time>
      </trkpt>
      <trkpt lat="48.0686760" lon="7.3760300">
        <ele>-222.6</ele>
        <time>2022-06-03T11:27:44Z</time>
      </trkpt>
      <trkpt lat="48.0686760" lon="7.3760300">
        <ele>-222.8</ele>
        <time>2022-06-03T11:27:48Z</time>
      </trkpt>
      <trkpt lat="48.0686760" lon="7.3760300">
        <ele>-222.2</ele>
        <time>2022-06-03T11:27:52Z</time>
      </trkpt>
      <trkpt lat="48.0686760" lon="7.3760300">
        <ele>-222.0</ele>
        <time>2022-06-03T11:27:56Z</time>
      </trkpt>
      <trkpt lat="48.0686760" lon="7.3760300">
        <ele>-221.8</ele>
        <time>2022-06-03T11:28:00Z</time>
      </trkpt>
      <trkpt lat="48.0686760" lon="7.3760300">
        <ele>-221.8</ele>
        <time>2022-06-03T11:28:04Z</time>
      </trkpt>
      <trkpt lat="48.0686760" lon="7.3760300">
        <ele>-222.0</ele>
        <time>2022-06-03T11:28:08Z</time>
      </trkpt>
      <trkpt lat="48.0686760" lon="7.3760300">
        <ele>-222.0</ele>
        <time>2022-06-03T11:28:12Z</time>
      </trkpt>
      <trkpt lat="48.0686760" lon="7.3760300">
        <ele>-222.0</ele>
        <time>2022-06-03T11:28:16Z</time>
      </trkpt>
      <trkpt lat="48.0686760" lon="7.3760300">
        <ele>-222.0</ele>
        <time>2022-06-03T11:28:20Z</time>
      </trkpt>
      <trkpt lat="48.0686760" lon="7.3760300">
        <ele>-221.6</ele>
        <time>2022-06-03T11:28:24Z</time>
      </trkpt>
      <trkpt lat="48.0686760" lon="7.3760300">
        <ele>-222.2</ele>
        <time>2022-06-03T11:28:28Z</time>
      </trkpt>
      <trkpt lat="48.0686760" lon="7.3760300">
        <ele>-221.6</ele>
        <time>2022-06-03T11:28:32Z</time>
      </trkpt>
      <trkpt lat="48.0686760" lon="7.3760300">
        <ele>-222.0</ele>
        <time>2022-06-03T11:28:36Z</time>
      </trkpt>
      <trkpt lat="48.0686760" lon="7.3760300">
        <ele>-222.0</ele>
        <time>2022-06-03T11:28:40Z</time>
      </trkpt>
      <trkpt lat="48.0686760" lon="7.3760300">
        <ele>-222.0</ele>
        <time>2022-06-03T11:28:44Z</time>
      </trkpt>
      <trkpt lat="48.0686760" lon="7.3760300">
        <ele>-221.8</ele>
        <time>2022-06-03T11:28:48Z</time>
      </trkpt>
      <trkpt lat="48.0686760" lon="7.3760300">
        <ele>-221.4</ele>
        <time>2022-06-03T11:28:52Z</time>
      </trkpt>
      <trkpt lat="48.0686760" lon="7.3760300">
        <ele>-221.6</ele>
        <time>2022-06-03T11:28:56Z</time>
      </trkpt>
      <trkpt lat="48.0686760" lon="7.3760300">
        <ele>-221.2</ele>
        <time>2022-06-03T11:29:00Z</time>
      </trkpt>
      <trkpt lat="48.0686760" lon="7.3760300">
        <ele>-221.4</ele>
        <time>2022-06-03T11:29:04Z</time>
      </trkpt>
      <trkpt lat="48.0686760" lon="7.3760300">
        <ele>-221.6</ele>
        <time>2022-06-03T11:29:08Z</time>
      </trkpt>
      <trkpt lat="48.0686760" lon="7.3760300">
        <ele>-221.8</ele>
        <time>2022-06-03T11:29:12Z</time>
      </trkpt>
      <trkpt lat="48.0686760" lon="7.3760300">
        <ele>-221.4</ele>
        <time>2022-06-03T11:29:16Z</time>
      </trkpt>
      <trkpt lat="48.0686760" lon="7.3760300">
        <ele>-221.4</ele>
        <time>2022-06-03T11:29:20Z</time>
      </trkpt>
      <trkpt lat="48.0686760" lon="7.3760300">
        <ele>-221.4</ele>
        <time>2022-06-03T11:29:24Z</time>
      </trkpt>
      <trkpt lat="48.0686760" lon="7.3760300">
        <ele>-221.6</ele>
        <time>2022-06-03T11:29:28Z</time>
      </trkpt>
      <trkpt lat="48.0686760" lon="7.3760300">
        <ele>-221.6</ele>
        <time>2022-06-03T11:29:32Z</time>
      </trkpt>
      <trkpt lat="48.0686760" lon="7.3760300">
        <ele>-221.6</ele>
        <time>2022-06-03T11:29:36Z</time>
      </trkpt>
      <trkpt lat="48.0686760" lon="7.3760300">
        <ele>-221.6</ele>
        <time>2022-06-03T11:29:40Z</time>
      </trkpt>
      <trkpt lat="48.0686760" lon="7.3760300">
        <ele>-221.6</ele>
        <time>2022-06-03T11:29:44Z</time>
      </trkpt>
      <trkpt lat="48.0686760" lon="7.3760300">
        <ele>-221.4</ele>
        <time>2022-06-03T11:29:48Z</time>
      </trkpt>
      <trkpt lat="48.0686760" lon="7.3760300">
        <ele>-221.6</ele>
        <time>2022-06-03T11:29:52Z</time>
      </trkpt>
      <trkpt lat="48.0686760" lon="7.3760300">
        <ele>-221.6</ele>
        <time>2022-06-03T11:29:56Z</time>
      </trkpt>
      <trkpt lat="48.0686760" lon="7.3760300">
        <ele>-221.4</ele>
        <time>2022-06-03T11:30:00Z</time>
      </trkpt>
      <trkpt lat="48.0686760" lon="7.3760300">
        <ele>-221.6</ele>
        <time>2022-06-03T11:30:04Z</time>
      </trkpt>
      <trkpt lat="48.0686760" lon="7.3760300">
        <ele>-221.8</ele>
        <time>2022-06-03T11:30:08Z</time>
      </trkpt>
      <trkpt lat="48.0686760" lon="7.3760300">
        <ele>-221.6</ele>
        <time>2022-06-03T11:30:12Z</time>
      </trkpt>
      <trkpt lat="48.0686760" lon="7.3760300">
        <ele>-221.6</ele>
        <time>2022-06-03T11:30:16Z</time>
      </trkpt>
      <trkpt lat="48.0686760" lon="7.3760300">
        <ele>-221.2</ele>
        <time>2022-06-03T11:30:20Z</time>
      </trkpt>
      <trkpt lat="48.0686760" lon="7.3760300">
        <ele>-221.2</ele>
        <time>2022-06-03T11:30:24Z</time>
      </trkpt>
      <trkpt lat="48.0686760" lon="7.3760300">
        <ele>-221.2</ele>
        <time>2022-06-03T11:30:28Z</time>
      </trkpt>
      <trkpt lat="48.0686760" lon="7.3760300">
        <ele>-221.0</ele>
        <time>2022-06-03T11:30:32Z</time>
      </trkpt>
      <trkpt lat="48.0686760" lon="7.3760300">
        <ele>-221.0</ele>
        <time>2022-06-03T11:30:36Z</time>
      </trkpt>
      <trkpt lat="48.0686760" lon="7.3760300">
        <ele>-221.2</ele>
        <time>2022-06-03T11:30:40Z</time>
      </trkpt>
      <trkpt lat="48.0686760" lon="7.3760300">
        <ele>-221.2</ele>
        <time>2022-06-03T11:30:44Z</time>
      </trkpt>
      <trkpt lat="48.0686760" lon="7.3760300">
        <ele>-221.4</ele>
        <time>2022-06-03T11:30:48Z</time>
      </trkpt>
      <trkpt lat="48.0686760" lon="7.3760300">
        <ele>-221.4</ele>
        <time>2022-06-03T11:30:52Z</time>
      </trkpt>
      <trkpt lat="48.0686760" lon="7.3760300">
        <ele>-221.0</ele>
        <time>2022-06-03T11:30:56Z</time>
      </trkpt>
      <trkpt lat="48.0686760" lon="7.3760300">
        <ele>-221.4</ele>
        <time>2022-06-03T11:31:00Z</time>
      </trkpt>
      <trkpt lat="48.0686760" lon="7.3760300">
        <ele>-221.4</ele>
        <time>2022-06-03T11:31:04Z</time>
      </trkpt>
      <trkpt lat="48.0686760" lon="7.3760300">
        <ele>-221.6</ele>
        <time>2022-06-03T11:31:08Z</time>
      </trkpt>
      <trkpt lat="48.0686760" lon="7.3760300">
        <ele>-221.6</ele>
        <time>2022-06-03T11:31:12Z</time>
      </trkpt>
      <trkpt lat="48.0686760" lon="7.3760300">
        <ele>-221.6</ele>
        <time>2022-06-03T11:31:16Z</time>
      </trkpt>
      <trkpt lat="48.0686760" lon="7.3760300">
        <ele>-221.6</ele>
        <time>2022-06-03T11:31:20Z</time>
      </trkpt>
      <trkpt lat="48.0686760" lon="7.3760300">
        <ele>-221.6</ele>
        <time>2022-06-03T11:31:24Z</time>
      </trkpt>
      <trkpt lat="48.0686760" lon="7.3760300">
        <ele>-221.4</ele>
        <time>2022-06-03T11:31:28Z</time>
      </trkpt>
      <trkpt lat="48.0686800" lon="7.3759430">
        <ele>-221.4</ele>
        <time>2022-06-03T11:31:32Z</time>
      </trkpt>
      <trkpt lat="48.0686830" lon="7.3758660">
        <ele>-221.2</ele>
        <time>2022-06-03T11:31:36Z</time>
      </trkpt>
      <trkpt lat="48.0686760" lon="7.3757580">
        <ele>-221.2</ele>
        <time>2022-06-03T11:31:40Z</time>
      </trkpt>
      <trkpt lat="48.0686800" lon="7.3756050">
        <ele>-221.0</ele>
        <time>2022-06-03T11:31:44Z</time>
      </trkpt>
      <trkpt lat="48.0686880" lon="7.3754130">
        <ele>-220.8</ele>
        <time>2022-06-03T11:31:48Z</time>
      </trkpt>
      <trkpt lat="48.0686980" lon="7.3752110">
        <ele>-220.8</ele>
        <time>2022-06-03T11:31:52Z</time>
      </trkpt>
      <trkpt lat="48.0687030" lon="7.3750030">
        <ele>-221.4</ele>
        <time>2022-06-03T11:31:56Z</time>
      </trkpt>
      <trkpt lat="48.0687030" lon="7.3747900">
        <ele>-220.6</ele>
        <time>2022-06-03T11:32:00Z</time>
      </trkpt>
      <trkpt lat="48.0687030" lon="7.3745680">
        <ele>-221.0</ele>
        <time>2022-06-03T11:32:04Z</time>
      </trkpt>
      <trkpt lat="48.0687000" lon="7.3743530">
        <ele>-221.4</ele>
        <time>2022-06-03T11:32:08Z</time>
      </trkpt>
      <trkpt lat="48.0686850" lon="7.3741350">
        <ele>-221.0</ele>
        <time>2022-06-03T11:32:12Z</time>
      </trkpt>
      <trkpt lat="48.0686950" lon="7.3738850">
        <ele>-221.0</ele>
        <time>2022-06-03T11:32:16Z</time>
      </trkpt>
      <trkpt lat="48.0686980" lon="7.3736380">
        <ele>-221.2</ele>
        <time>2022-06-03T11:32:20Z</time>
      </trkpt>
      <trkpt lat="48.0687000" lon="7.3733760">
        <ele>-221.4</ele>
        <time>2022-06-03T11:32:24Z</time>
      </trkpt>
      <trkpt lat="48.0687000" lon="7.3731100">
        <ele>-221.4</ele>
        <time>2022-06-03T11:32:28Z</time>
      </trkpt>
      <trkpt lat="48.0687000" lon="7.3728380">
        <ele>-221.8</ele>
        <time>2022-06-03T11:32:32Z</time>
      </trkpt>
      <trkpt lat="48.0687200" lon="7.3725730">
        <ele>-221.8</ele>
        <time>2022-06-03T11:32:36Z</time>
      </trkpt>
      <trkpt lat="48.0687580" lon="7.3723100">
        <ele>-221.2</ele>
        <time>2022-06-03T11:32:40Z</time>
      </trkpt>
      <trkpt lat="48.0688010" lon="7.3720710">
        <ele>-221.6</ele>
        <time>2022-06-03T11:32:44Z</time>
      </trkpt>
      <trkpt lat="48.0688530" lon="7.3718210">
        <ele>-221.6</ele>
        <time>2022-06-03T11:32:48Z</time>
      </trkpt>
      <trkpt lat="48.0689050" lon="7.3715680">
        <ele>-221.0</ele>
        <time>2022-06-03T11:32:52Z</time>
      </trkpt>
      <trkpt lat="48.0689530" lon="7.3713200">
        <ele>-221.6</ele>
        <time>2022-06-03T11:32:56Z</time>
      </trkpt>
      <trkpt lat="48.0690000" lon="7.3710780">
        <ele>-221.6</ele>
        <time>2022-06-03T11:33:00Z</time>
      </trkpt>
      <trkpt lat="48.0690510" lon="7.3708450">
        <ele>-221.6</ele>
        <time>2022-06-03T11:33:04Z</time>
      </trkpt>
      <trkpt lat="48.0691030" lon="7.3706100">
        <ele>-221.8</ele>
        <time>2022-06-03T11:33:08Z</time>
      </trkpt>
      <trkpt lat="48.0691480" lon="7.3703580">
        <ele>-221.2</ele>
        <time>2022-06-03T11:33:12Z</time>
      </trkpt>
      <trkpt lat="48.0691960" lon="7.3700980">
        <ele>-221.4</ele>
        <time>2022-06-03T11:33:16Z</time>
      </trkpt>
      <trkpt lat="48.0692500" lon="7.3698360">
        <ele>-221.6</ele>
        <time>2022-06-03T11:33:20Z</time>
      </trkpt>
      <trkpt lat="48.0693010" lon="7.3695660">
        <ele>-221.6</ele>
        <time>2022-06-03T11:33:24Z</time>
      </trkpt>
      <trkpt lat="48.0693610" lon="7.3692960">
        <ele>-221.6</ele>
        <time>2022-06-03T11:33:28Z</time>
      </trkpt>
      <trkpt lat="48.0694180" lon="7.3690260">
        <ele>-222.2</ele>
        <time>2022-06-03T11:33:32Z</time>
      </trkpt>
      <trkpt lat="48.0694530" lon="7.3687580">
        <ele>-221.6</ele>
        <time>2022-06-03T11:33:36Z</time>
      </trkpt>
      <trkpt lat="48.0694810" lon="7.3684960">
        <ele>-222.8</ele>
        <time>2022-06-03T11:33:40Z</time>
      </trkpt>
      <trkpt lat="48.0695080" lon="7.3682260">
        <ele>-221.6</ele>
        <time>2022-06-03T11:33:44Z</time>
      </trkpt>
      <trkpt lat="48.0695260" lon="7.3679460">
        <ele>-221.6</ele>
        <time>2022-06-03T11:33:48Z</time>
      </trkpt>
      <trkpt lat="48.0695480" lon="7.3676680">
        <ele>-222.2</ele>
        <time>2022-06-03T11:33:52Z</time>
      </trkpt>
      <trkpt lat="48.0695680" lon="7.3674010">
        <ele>-222.0</ele>
        <time>2022-06-03T11:33:56Z</time>
      </trkpt>
      <trkpt lat="48.0695780" lon="7.3671350">
        <ele>-221.8</ele>
        <time>2022-06-03T11:34:00Z</time>
      </trkpt>
      <trkpt lat="48.0696000" lon="7.3668660">
        <ele>-222.2</ele>
        <time>2022-06-03T11:34:04Z</time>
      </trkpt>
      <trkpt lat="48.0696180" lon="7.3665980">
        <ele>-221.4</ele>
        <time>2022-06-03T11:34:08Z</time>
      </trkpt>
      <trkpt lat="48.0696410" lon="7.3663360">
        <ele>-221.2</ele>
        <time>2022-06-03T11:34:12Z</time>
      </trkpt>
      <trkpt lat="48.0696580" lon="7.3660760">
        <ele>-221.2</ele>
        <time>2022-06-03T11:34:16Z</time>
      </trkpt>
      <trkpt lat="48.0696800" lon="7.3658300">
        <ele>-221.4</ele>
        <time>2022-06-03T11:34:20Z</time>
      </trkpt>
      <trkpt lat="48.0697300" lon="7.3656010">
        <ele>-221.4</ele>
        <time>2022-06-03T11:34:24Z</time>
      </trkpt>
      <trkpt lat="48.0698410" lon="7.3654560">
        <ele>-221.2</ele>
        <time>2022-06-03T11:34:28Z</time>
      </trkpt>
      <trkpt lat="48.0700050" lon="7.3654850">
        <ele>-220.6</ele>
        <time>2022-06-03T11:34:32Z</time>
      </trkpt>
      <trkpt lat="48.0701760" lon="7.3655260">
        <ele>-220.8</ele>
        <time>2022-06-03T11:34:36Z</time>
      </trkpt>
      <trkpt lat="48.0703460" lon="7.3655610">
        <ele>-221.2</ele>
        <time>2022-06-03T11:34:40Z</time>
      </trkpt>
      <trkpt lat="48.0705230" lon="7.3656060">
        <ele>-220.6</ele>
        <time>2022-06-03T11:34:44Z</time>
      </trkpt>
      <trkpt lat="48.0707030" lon="7.3656480">
        <ele>-221.0</ele>
        <time>2022-06-03T11:34:48Z</time>
      </trkpt>
      <trkpt lat="48.0708800" lon="7.3656760">
        <ele>-221.0</ele>
        <time>2022-06-03T11:34:52Z</time>
      </trkpt>
      <trkpt lat="48.0710550" lon="7.3657050">
        <ele>-221.0</ele>
        <time>2022-06-03T11:34:56Z</time>
      </trkpt>
      <trkpt lat="48.0712480" lon="7.3657500">
        <ele>-221.0</ele>
        <time>2022-06-03T11:35:00Z</time>
      </trkpt>
      <trkpt lat="48.0714430" lon="7.3657910">
        <ele>-221.2</ele>
        <time>2022-06-03T11:35:04Z</time>
      </trkpt>
      <trkpt lat="48.0716310" lon="7.3658280">
        <ele>-221.4</ele>
        <time>2022-06-03T11:35:08Z</time>
      </trkpt>
      <trkpt lat="48.0718260" lon="7.3658700">
        <ele>-222.0</ele>
        <time>2022-06-03T11:35:12Z</time>
      </trkpt>
      <trkpt lat="48.0720230" lon="7.3659110">
        <ele>-221.0</ele>
        <time>2022-06-03T11:35:16Z</time>
      </trkpt>
      <trkpt lat="48.0722160" lon="7.3659510">
        <ele>-221.8</ele>
        <time>2022-06-03T11:35:20Z</time>
      </trkpt>
      <trkpt lat="48.0724110" lon="7.3659860">
        <ele>-221.6</ele>
        <time>2022-06-03T11:35:24Z</time>
      </trkpt>
      <trkpt lat="48.0725960" lon="7.3660130">
        <ele>-221.6</ele>
        <time>2022-06-03T11:35:28Z</time>
      </trkpt>
      <trkpt lat="48.0727780" lon="7.3660400">
        <ele>-221.6</ele>
        <time>2022-06-03T11:35:32Z</time>
      </trkpt>
      <trkpt lat="48.0729680" lon="7.3660900">
        <ele>-221.2</ele>
        <time>2022-06-03T11:35:36Z</time>
      </trkpt>
      <trkpt lat="48.0731510" lon="7.3661280">
        <ele>-221.2</ele>
        <time>2022-06-03T11:35:40Z</time>
      </trkpt>
      <trkpt lat="48.0733350" lon="7.3661910">
        <ele>-221.6</ele>
        <time>2022-06-03T11:35:44Z</time>
      </trkpt>
      <trkpt lat="48.0735380" lon="7.3662930">
        <ele>-222.0</ele>
        <time>2022-06-03T11:35:48Z</time>
      </trkpt>
      <trkpt lat="48.0737180" lon="7.3663910">
        <ele>-221.8</ele>
        <time>2022-06-03T11:35:52Z</time>
      </trkpt>
      <trkpt lat="48.0739010" lon="7.3665000">
        <ele>-221.4</ele>
        <time>2022-06-03T11:35:56Z</time>
      </trkpt>
      <trkpt lat="48.0740880" lon="7.3666100">
        <ele>-221.8</ele>
        <time>2022-06-03T11:36:00Z</time>
      </trkpt>
      <trkpt lat="48.0742630" lon="7.3667130">
        <ele>-221.6</ele>
        <time>2022-06-03T11:36:04Z</time>
      </trkpt>
      <trkpt lat="48.0744400" lon="7.3667850">
        <ele>-221.0</ele>
        <time>2022-06-03T11:36:08Z</time>
      </trkpt>
      <trkpt lat="48.0746200" lon="7.3668330">
        <ele>-221.6</ele>
        <time>2022-06-03T11:36:12Z</time>
      </trkpt>
      <trkpt lat="48.0747980" lon="7.3668480">
        <ele>-222.0</ele>
        <time>2022-06-03T11:36:16Z</time>
      </trkpt>
      <trkpt lat="48.0749900" lon="7.3668280">
        <ele>-221.6</ele>
        <time>2022-06-03T11:36:20Z</time>
      </trkpt>
      <trkpt lat="48.0751980" lon="7.3667980">
        <ele>-222.0</ele>
        <time>2022-06-03T11:36:24Z</time>
      </trkpt>
      <trkpt lat="48.0753750" lon="7.3667410">
        <ele>-221.6</ele>
        <time>2022-06-03T11:36:28Z</time>
      </trkpt>
      <trkpt lat="48.0755230" lon="7.3666730">
        <ele>-221.6</ele>
        <time>2022-06-03T11:36:32Z</time>
      </trkpt>
      <trkpt lat="48.0756880" lon="7.3666000">
        <ele>-221.6</ele>
        <time>2022-06-03T11:36:36Z</time>
      </trkpt>
      <trkpt lat="48.0758580" lon="7.3665210">
        <ele>-221.2</ele>
        <time>2022-06-03T11:36:40Z</time>
      </trkpt>
      <trkpt lat="48.0760300" lon="7.3664510">
        <ele>-220.6</ele>
        <time>2022-06-03T11:36:44Z</time>
      </trkpt>
      <trkpt lat="48.0762080" lon="7.3663800">
        <ele>-221.2</ele>
        <time>2022-06-03T11:36:48Z</time>
      </trkpt>
      <trkpt lat="48.0763610" lon="7.3663080">
        <ele>-221.0</ele>
        <time>2022-06-03T11:36:52Z</time>
      </trkpt>
      <trkpt lat="48.0765230" lon="7.3662330">
        <ele>-221.2</ele>
        <time>2022-06-03T11:36:56Z</time>
      </trkpt>
      <trkpt lat="48.0766450" lon="7.3661850">
        <ele>-221.2</ele>
        <time>2022-06-03T11:37:00Z</time>
      </trkpt>
      <trkpt lat="48.0768050" lon="7.3661200">
        <ele>-220.8</ele>
        <time>2022-06-03T11:37:04Z</time>
      </trkpt>
      <trkpt lat="48.0769780" lon="7.3660260">
        <ele>-220.8</ele>
        <time>2022-06-03T11:37:08Z</time>
      </trkpt>
      <trkpt lat="48.0771550" lon="7.3659380">
        <ele>-221.4</ele>
        <time>2022-06-03T11:37:12Z</time>
      </trkpt>
      <trkpt lat="48.0773310" lon="7.3658460">
        <ele>-220.8</ele>
        <time>2022-06-03T11:37:16Z</time>
      </trkpt>
      <trkpt lat="48.0775280" lon="7.3657580">
        <ele>-220.8</ele>
        <time>2022-06-03T11:37:20Z</time>
      </trkpt>
      <trkpt lat="48.0777200" lon="7.3656710">
        <ele>-221.0</ele>
        <time>2022-06-03T11:37:24Z</time>
      </trkpt>
      <trkpt lat="48.0778980" lon="7.3655800">
        <ele>-220.8</ele>
        <time>2022-06-03T11:37:28Z</time>
      </trkpt>
      <trkpt lat="48.0780230" lon="7.3655250">
        <ele>-220.8</ele>
        <time>2022-06-03T11:37:32Z</time>
      </trkpt>
      <trkpt lat="48.0780230" lon="7.3655250">
        <ele>-220.6</ele>
        <time>2022-06-03T11:37:36Z</time>
      </trkpt>
      <trkpt lat="48.0780500" lon="7.3655160">
        <ele>-221.0</ele>
        <time>2022-06-03T11:37:40Z</time>
      </trkpt>
      <trkpt lat="48.0781210" lon="7.3654750">
        <ele>-220.4</ele>
        <time>2022-06-03T11:37:44Z</time>
      </trkpt>
      <trkpt lat="48.0782460" lon="7.3654110">
        <ele>-220.4</ele>
        <time>2022-06-03T11:37:48Z</time>
      </trkpt>
      <trkpt lat="48.0783960" lon="7.3653380">
        <ele>-220.4</ele>
        <time>2022-06-03T11:37:52Z</time>
      </trkpt>
      <trkpt lat="48.0785600" lon="7.3652650">
        <ele>-221.0</ele>
        <time>2022-06-03T11:37:56Z</time>
      </trkpt>
      <trkpt lat="48.0787210" lon="7.3651880">
        <ele>-220.2</ele>
        <time>2022-06-03T11:38:00Z</time>
      </trkpt>
      <trkpt lat="48.0788910" lon="7.3651460">
        <ele>-219.8</ele>
        <time>2022-06-03T11:38:04Z</time>
      </trkpt>
      <trkpt lat="48.0790780" lon="7.3651910">
        <ele>-220.0</ele>
        <time>2022-06-03T11:38:08Z</time>
      </trkpt>
      <trkpt lat="48.0792160" lon="7.3651130">
        <ele>-220.2</ele>
        <time>2022-06-03T11:38:12Z</time>
      </trkpt>
      <trkpt lat="48.0792160" lon="7.3651130">
        <ele>-220.0</ele>
        <time>2022-06-03T11:38:16Z</time>
      </trkpt>
      <trkpt lat="48.0792160" lon="7.3651130">
        <ele>-220.2</ele>
        <time>2022-06-03T11:38:20Z</time>
      </trkpt>
      <trkpt lat="48.0792160" lon="7.3651130">
        <ele>-220.2</ele>
        <time>2022-06-03T11:38:24Z</time>
      </trkpt>
      <trkpt lat="48.0792160" lon="7.3651130">
        <ele>-220.0</ele>
        <time>2022-06-03T11:38:28Z</time>
      </trkpt>
      <trkpt lat="48.0792160" lon="7.3651130">
        <ele>-220.2</ele>
        <time>2022-06-03T11:38:32Z</time>
      </trkpt>
      <trkpt lat="48.0792160" lon="7.3651130">
        <ele>-219.8</ele>
        <time>2022-06-03T11:38:36Z</time>
      </trkpt>
      <trkpt lat="48.0792160" lon="7.3651130">
        <ele>-220.2</ele>
        <time>2022-06-03T11:38:40Z</time>
      </trkpt>
      <trkpt lat="48.0792160" lon="7.3651130">
        <ele>-220.4</ele>
        <time>2022-06-03T11:38:44Z</time>
      </trkpt>
      <trkpt lat="48.0792160" lon="7.3651130">
        <ele>-221.0</ele>
        <time>2022-06-03T11:38:48Z</time>
      </trkpt>
      <trkpt lat="48.0792160" lon="7.3651130">
        <ele>-219.8</ele>
        <time>2022-06-03T11:38:52Z</time>
      </trkpt>
      <trkpt lat="48.0792160" lon="7.3651130">
        <ele>-219.8</ele>
        <time>2022-06-03T11:38:56Z</time>
      </trkpt>
      <trkpt lat="48.0792900" lon="7.3650660">
        <ele>-220.2</ele>
        <time>2022-06-03T11:39:00Z</time>
      </trkpt>
      <trkpt lat="48.0793410" lon="7.3650250">
        <ele>-219.8</ele>
        <time>2022-06-03T11:39:04Z</time>
      </trkpt>
      <trkpt lat="48.0793610" lon="7.3648680">
        <ele>-219.6</ele>
        <time>2022-06-03T11:39:08Z</time>
      </trkpt>
      <trkpt lat="48.0793410" lon="7.3646410">
        <ele>-220.0</ele>
        <time>2022-06-03T11:39:12Z</time>
      </trkpt>
      <trkpt lat="48.0792760" lon="7.3644380">
        <ele>-219.8</ele>
        <time>2022-06-03T11:39:16Z</time>
      </trkpt>
      <trkpt lat="48.0792100" lon="7.3642550">
        <ele>-219.4</ele>
        <time>2022-06-03T11:39:20Z</time>
      </trkpt>
      <trkpt lat="48.0791780" lon="7.3640210">
        <ele>-219.2</ele>
        <time>2022-06-03T11:39:24Z</time>
      </trkpt>
      <trkpt lat="48.0791850" lon="7.3638630">
        <ele>-219.6</ele>
        <time>2022-06-03T11:39:28Z</time>
      </trkpt>
      <trkpt lat="48.0790900" lon="7.3637230">
        <ele>-220.4</ele>
        <time>2022-06-03T11:39:32Z</time>
      </trkpt>
      <trkpt lat="48.0789350" lon="7.3636080">
        <ele>-220.6</ele>
        <time>2022-06-03T11:39:36Z</time>
      </trkpt>
      <trkpt lat="48.0787710" lon="7.3635100">
        <ele>-219.6</ele>
        <time>2022-06-03T11:39:40Z</time>
      </trkpt>
      <trkpt lat="48.0785960" lon="7.3634210">
        <ele>-221.0</ele>
        <time>2022-06-03T11:39:44Z</time>
      </trkpt>
      <trkpt lat="48.0784210" lon="7.3633450">
        <ele>-221.2</ele>
        <time>2022-06-03T11:39:48Z</time>
      </trkpt>
      <trkpt lat="48.0782610" lon="7.3632600">
        <ele>-220.4</ele>
        <time>2022-06-03T11:39:52Z</time>
      </trkpt>
      <trkpt lat="48.0781010" lon="7.3631750">
        <ele>-221.2</ele>
        <time>2022-06-03T11:39:56Z</time>
      </trkpt>
      <trkpt lat="48.0779360" lon="7.3630880">
        <ele>-221.4</ele>
        <time>2022-06-03T11:40:00Z</time>
      </trkpt>
      <trkpt lat="48.0777780" lon="7.3629760">
        <ele>-220.6</ele>
        <time>2022-06-03T11:40:04Z</time>
      </trkpt>
      <trkpt lat="48.0776450" lon="7.3628600">
        <ele>-221.0</ele>
        <time>2022-06-03T11:40:08Z</time>
      </trkpt>
      <trkpt lat="48.0775010" lon="7.3627310">
        <ele>-220.2</ele>
        <time>2022-06-03T11:40:12Z</time>
      </trkpt>
      <trkpt lat="48.0773750" lon="7.3626180">
        <ele>-221.0</ele>
        <time>2022-06-03T11:40:16Z</time>
      </trkpt>
      <trkpt lat="48.0772750" lon="7.3626930">
        <ele>-221.0</ele>
        <time>2022-06-03T11:40:20Z</time>
      </trkpt>
      <trkpt lat="48.0772600" lon="7.3629010">
        <ele>-220.4</ele>
        <time>2022-06-03T11:40:24Z</time>
      </trkpt>
      <trkpt lat="48.0772550" lon="7.3630800">
        <ele>-220.2</ele>
        <time>2022-06-03T11:40:28Z</time>
      </trkpt>
      <trkpt lat="48.0772360" lon="7.3632130">
        <ele>-220.2</ele>
        <time>2022-06-03T11:40:32Z</time>
      </trkpt>
      <trkpt lat="48.0772360" lon="7.3632130">
        <ele>-220.2</ele>
        <time>2022-06-03T11:40:36Z</time>
      </trkpt>
      <trkpt lat="48.0772360" lon="7.3632130">
        <ele>-220.4</ele>
        <time>2022-06-03T11:40:40Z</time>
      </trkpt>
      <trkpt lat="48.0771860" lon="7.3632550">
        <ele>-220.4</ele>
        <time>2022-06-03T11:40:44Z</time>
      </trkpt>
      <trkpt lat="48.0771530" lon="7.3632600">
        <ele>-220.2</ele>
        <time>2022-06-03T11:40:48Z</time>
      </trkpt>
      <trkpt lat="48.0771380" lon="7.3632700">
        <ele>-220.2</ele>
        <time>2022-06-03T11:40:52Z</time>
      </trkpt>
      <trkpt lat="48.0771030" lon="7.3632300">
        <ele>-220.4</ele>
        <time>2022-06-03T11:40:56Z</time>
      </trkpt>
      <trkpt lat="48.0770350" lon="7.3632200">
        <ele>-220.4</ele>
        <time>2022-06-03T11:41:00Z</time>
      </trkpt>
      <trkpt lat="48.0770230" lon="7.3632380">
        <ele>-220.2</ele>
        <time>2022-06-03T11:41:04Z</time>
      </trkpt>
      <trkpt lat="48.0770230" lon="7.3632380">
        <ele>-220.4</ele>
        <time>2022-06-03T11:41:08Z</time>
      </trkpt>
      <trkpt lat="48.0770230" lon="7.3632380">
        <ele>-220.4</ele>
        <time>2022-06-03T11:41:12Z</time>
      </trkpt>
      <trkpt lat="48.0773010" lon="7.3637260">
        <ele>-236.0</ele>
        <time>2022-06-04T06:02:36Z</time>
      </trkpt>
      <trkpt lat="48.0773010" lon="7.3637260">
        <ele>-236.0</ele>
        <time>2022-06-04T06:02:40Z</time>
      </trkpt>
      <trkpt lat="48.0773010" lon="7.3637260">
        <ele>-236.2</ele>
        <time>2022-06-04T06:02:44Z</time>
      </trkpt>
      <trkpt lat="48.0772280" lon="7.3637060">
        <ele>-236.0</ele>
        <time>2022-06-04T06:02:48Z</time>
      </trkpt>
      <trkpt lat="48.0771330" lon="7.3636850">
        <ele>-236.4</ele>
        <time>2022-06-04T06:02:52Z</time>
      </trkpt>
      <trkpt lat="48.0770580" lon="7.3637830">
        <ele>-236.2</ele>
        <time>2022-06-04T06:02:56Z</time>
      </trkpt>
      <trkpt lat="48.0770500" lon="7.3639150">
        <ele>-236.0</ele>
        <time>2022-06-04T06:03:00Z</time>
      </trkpt>
      <trkpt lat="48.0770500" lon="7.3640450">
        <ele>-236.6</ele>
        <time>2022-06-04T06:03:04Z</time>
      </trkpt>
      <trkpt lat="48.0770360" lon="7.3641610">
        <ele>-236.4</ele>
        <time>2022-06-04T06:03:08Z</time>
      </trkpt>
      <trkpt lat="48.0770110" lon="7.3642680">
        <ele>-236.0</ele>
        <time>2022-06-04T06:03:12Z</time>
      </trkpt>
      <trkpt lat="48.0770510" lon="7.3643330">
        <ele>-236.0</ele>
        <time>2022-06-04T06:03:16Z</time>
      </trkpt>
      <trkpt lat="48.0771380" lon="7.3643860">
        <ele>-236.6</ele>
        <time>2022-06-04T06:03:20Z</time>
      </trkpt>
      <trkpt lat="48.0772330" lon="7.3644350">
        <ele>-236.0</ele>
        <time>2022-06-04T06:03:24Z</time>
      </trkpt>
      <trkpt lat="48.0773450" lon="7.3644780">
        <ele>-236.6</ele>
        <time>2022-06-04T06:03:28Z</time>
      </trkpt>
      <trkpt lat="48.0774710" lon="7.3644760">
        <ele>-236.6</ele>
        <time>2022-06-04T06:03:32Z</time>
      </trkpt>
      <trkpt lat="48.0775700" lon="7.3644650">
        <ele>-236.0</ele>
        <time>2022-06-04T06:03:36Z</time>
      </trkpt>
      <trkpt lat="48.0776880" lon="7.3644510">
        <ele>-236.6</ele>
        <time>2022-06-04T06:03:40Z</time>
      </trkpt>
      <trkpt lat="48.0777930" lon="7.3644350">
        <ele>-236.2</ele>
        <time>2022-06-04T06:03:44Z</time>
      </trkpt>
      <trkpt lat="48.0779050" lon="7.3644350">
        <ele>-236.4</ele>
        <time>2022-06-04T06:03:48Z</time>
      </trkpt>
      <trkpt lat="48.0779980" lon="7.3643880">
        <ele>-236.2</ele>
        <time>2022-06-04T06:03:52Z</time>
      </trkpt>
      <trkpt lat="48.0780210" lon="7.3642650">
        <ele>-236.2</ele>
        <time>2022-06-04T06:03:56Z</time>
      </trkpt>
      <trkpt lat="48.0780330" lon="7.3641110">
        <ele>-236.4</ele>
        <time>2022-06-04T06:04:00Z</time>
      </trkpt>
      <trkpt lat="48.0780260" lon="7.3639280">
        <ele>-236.4</ele>
        <time>2022-06-04T06:04:04Z</time>
      </trkpt>
      <trkpt lat="48.0780360" lon="7.3637580">
        <ele>-236.2</ele>
        <time>2022-06-04T06:04:08Z</time>
      </trkpt>
      <trkpt lat="48.0780380" lon="7.3635980">
        <ele>-236.6</ele>
        <time>2022-06-04T06:04:12Z</time>
      </trkpt>
      <trkpt lat="48.0780400" lon="7.3634260">
        <ele>-236.8</ele>
        <time>2022-06-04T06:04:16Z</time>
      </trkpt>
      <trkpt lat="48.0780310" lon="7.3632450">
        <ele>-236.4</ele>
        <time>2022-06-04T06:04:20Z</time>
      </trkpt>
      <trkpt lat="48.0780730" lon="7.3630810">
        <ele>-236.6</ele>
        <time>2022-06-04T06:04:24Z</time>
      </trkpt>
      <trkpt lat="48.0781210" lon="7.3629010">
        <ele>-236.6</ele>
        <time>2022-06-04T06:04:28Z</time>
      </trkpt>
      <trkpt lat="48.0781660" lon="7.3627150">
        <ele>-236.0</ele>
        <time>2022-06-04T06:04:32Z</time>
      </trkpt>
      <trkpt lat="48.0781880" lon="7.3625410">
        <ele>-236.8</ele>
        <time>2022-06-04T06:04:36Z</time>
      </trkpt>
      <trkpt lat="48.0782060" lon="7.3623580">
        <ele>-236.0</ele>
        <time>2022-06-04T06:04:40Z</time>
      </trkpt>
      <trkpt lat="48.0782150" lon="7.3621630">
        <ele>-235.6</ele>
        <time>2022-06-04T06:04:44Z</time>
      </trkpt>
      <trkpt lat="48.0782230" lon="7.3619650">
        <ele>-235.6</ele>
        <time>2022-06-04T06:04:48Z</time>
      </trkpt>
      <trkpt lat="48.0782310" lon="7.3617730">
        <ele>-235.2</ele>
        <time>2022-06-04T06:04:52Z</time>
      </trkpt>
      <trkpt lat="48.0782530" lon="7.3615860">
        <ele>-235.0</ele>
        <time>2022-06-04T06:04:56Z</time>
      </trkpt>
      <trkpt lat="48.0782930" lon="7.3614260">
        <ele>-234.6</ele>
        <time>2022-06-04T06:05:00Z</time>
      </trkpt>
      <trkpt lat="48.0783080" lon="7.3613410">
        <ele>-234.2</ele>
        <time>2022-06-04T06:05:04Z</time>
      </trkpt>
      <trkpt lat="48.0784250" lon="7.3613630">
        <ele>-234.4</ele>
        <time>2022-06-04T06:05:08Z</time>
      </trkpt>
      <trkpt lat="48.0785280" lon="7.3614100">
        <ele>-234.8</ele>
        <time>2022-06-04T06:05:12Z</time>
      </trkpt>
      <trkpt lat="48.0786330" lon="7.3614930">
        <ele>-234.6</ele>
        <time>2022-06-04T06:05:16Z</time>
      </trkpt>
      <trkpt lat="48.0787410" lon="7.3615800">
        <ele>-234.4</ele>
        <time>2022-06-04T06:05:20Z</time>
      </trkpt>
      <trkpt lat="48.0788630" lon="7.3616650">
        <ele>-234.6</ele>
        <time>2022-06-04T06:05:24Z</time>
      </trkpt>
      <trkpt lat="48.0789780" lon="7.3617510">
        <ele>-234.2</ele>
        <time>2022-06-04T06:05:28Z</time>
      </trkpt>
      <trkpt lat="48.0790860" lon="7.3618480">
        <ele>-234.4</ele>
        <time>2022-06-04T06:05:32Z</time>
      </trkpt>
      <trkpt lat="48.0792510" lon="7.3619410">
        <ele>-234.0</ele>
        <time>2022-06-04T06:05:36Z</time>
      </trkpt>
      <trkpt lat="48.0793460" lon="7.3620860">
        <ele>-234.2</ele>
        <time>2022-06-04T06:05:40Z</time>
      </trkpt>
      <trkpt lat="48.0794630" lon="7.3622200">
        <ele>-234.0</ele>
        <time>2022-06-04T06:05:44Z</time>
      </trkpt>
      <trkpt lat="48.0795800" lon="7.3623210">
        <ele>-233.6</ele>
        <time>2022-06-04T06:05:48Z</time>
      </trkpt>
      <trkpt lat="48.0796550" lon="7.3624050">
        <ele>-234.0</ele>
        <time>2022-06-04T06:05:52Z</time>
      </trkpt>
      <trkpt lat="48.0797200" lon="7.3625180">
        <ele>-233.6</ele>
        <time>2022-06-04T06:05:56Z</time>
      </trkpt>
      <trkpt lat="48.0797930" lon="7.3626680">
        <ele>-233.4</ele>
        <time>2022-06-04T06:06:00Z</time>
      </trkpt>
      <trkpt lat="48.0798980" lon="7.3628160">
        <ele>-233.6</ele>
        <time>2022-06-04T06:06:04Z</time>
      </trkpt>
      <trkpt lat="48.0799780" lon="7.3629900">
        <ele>-233.8</ele>
        <time>2022-06-04T06:06:08Z</time>
      </trkpt>
      <trkpt lat="48.0800560" lon="7.3631660">
        <ele>-233.4</ele>
        <time>2022-06-04T06:06:12Z</time>
      </trkpt>
      <trkpt lat="48.0801510" lon="7.3633430">
        <ele>-233.4</ele>
        <time>2022-06-04T06:06:16Z</time>
      </trkpt>
      <trkpt lat="48.0802060" lon="7.3635260">
        <ele>-233.0</ele>
        <time>2022-06-04T06:06:20Z</time>
      </trkpt>
      <trkpt lat="48.0802430" lon="7.3636800">
        <ele>-233.2</ele>
        <time>2022-06-04T06:06:24Z</time>
      </trkpt>
      <trkpt lat="48.0803000" lon="7.3636750">
        <ele>-232.8</ele>
        <time>2022-06-04T06:06:28Z</time>
      </trkpt>
      <trkpt lat="48.0803660" lon="7.3636360">
        <ele>-233.2</ele>
        <time>2022-06-04T06:06:32Z</time>
      </trkpt>
      <trkpt lat="48.0804410" lon="7.3636580">
        <ele>-233.2</ele>
        <time>2022-06-04T06:06:36Z</time>
      </trkpt>
      <trkpt lat="48.0805450" lon="7.3637510">
        <ele>-233.4</ele>
        <time>2022-06-04T06:06:40Z</time>
      </trkpt>
      <trkpt lat="48.0806780" lon="7.3638160">
        <ele>-233.4</ele>
        <time>2022-06-04T06:06:44Z</time>
      </trkpt>
      <trkpt lat="48.0808110" lon="7.3638730">
        <ele>-233.6</ele>
        <time>2022-06-04T06:06:48Z</time>
      </trkpt>
      <trkpt lat="48.0809260" lon="7.3639530">
        <ele>-233.4</ele>
        <time>2022-06-04T06:06:52Z</time>
      </trkpt>
      <trkpt lat="48.0809860" lon="7.3639980">
        <ele>-233.4</ele>
        <time>2022-06-04T06:06:56Z</time>
      </trkpt>
      <trkpt lat="48.0809860" lon="7.3639980">
        <ele>-233.4</ele>
        <time>2022-06-04T06:07:00Z</time>
      </trkpt>
      <trkpt lat="48.0809860" lon="7.3639980">
        <ele>-233.6</ele>
        <time>2022-06-04T06:07:04Z</time>
      </trkpt>
      <trkpt lat="48.0809860" lon="7.3639980">
        <ele>-233.6</ele>
        <time>2022-06-04T06:07:08Z</time>
      </trkpt>
      <trkpt lat="48.0809860" lon="7.3639980">
        <ele>-233.4</ele>
        <time>2022-06-04T06:07:12Z</time>
      </trkpt>
      <trkpt lat="48.0809860" lon="7.3639980">
        <ele>-233.4</ele>
        <time>2022-06-04T06:07:16Z</time>
      </trkpt>
      <trkpt lat="48.0809860" lon="7.3639980">
        <ele>-233.4</ele>
        <time>2022-06-04T06:07:20Z</time>
      </trkpt>
      <trkpt lat="48.0809860" lon="7.3639980">
        <ele>-233.0</ele>
        <time>2022-06-04T06:07:24Z</time>
      </trkpt>
      <trkpt lat="48.0809860" lon="7.3639980">
        <ele>-233.4</ele>
        <time>2022-06-04T06:07:28Z</time>
      </trkpt>
      <trkpt lat="48.0809860" lon="7.3639980">
        <ele>-233.2</ele>
        <time>2022-06-04T06:07:32Z</time>
      </trkpt>
      <trkpt lat="48.0809860" lon="7.3639980">
        <ele>-233.2</ele>
        <time>2022-06-04T06:07:36Z</time>
      </trkpt>
      <trkpt lat="48.0809860" lon="7.3639980">
        <ele>-233.2</ele>
        <time>2022-06-04T06:07:40Z</time>
      </trkpt>
      <trkpt lat="48.0809860" lon="7.3639980">
        <ele>-233.2</ele>
        <time>2022-06-04T06:07:44Z</time>
      </trkpt>
      <trkpt lat="48.0809860" lon="7.3639980">
        <ele>-233.4</ele>
        <time>2022-06-04T06:07:48Z</time>
      </trkpt>
      <trkpt lat="48.0809860" lon="7.3639980">
        <ele>-233.4</ele>
        <time>2022-06-04T06:07:52Z</time>
      </trkpt>
      <trkpt lat="48.0809860" lon="7.3639980">
        <ele>-233.4</ele>
        <time>2022-06-04T06:07:56Z</time>
      </trkpt>
      <trkpt lat="48.0810300" lon="7.3640350">
        <ele>-233.4</ele>
        <time>2022-06-04T06:08:00Z</time>
      </trkpt>
      <trkpt lat="48.0810650" lon="7.3641580">
        <ele>-233.6</ele>
        <time>2022-06-04T06:08:04Z</time>
      </trkpt>
      <trkpt lat="48.0811750" lon="7.3641960">
        <ele>-233.6</ele>
        <time>2022-06-04T06:08:08Z</time>
      </trkpt>
      <trkpt lat="48.0813050" lon="7.3641560">
        <ele>-233.6</ele>
        <time>2022-06-04T06:08:12Z</time>
      </trkpt>
      <trkpt lat="48.0814100" lon="7.3643010">
        <ele>-233.8</ele>
        <time>2022-06-04T06:08:16Z</time>
      </trkpt>
      <trkpt lat="48.0815450" lon="7.3644480">
        <ele>-234.0</ele>
        <time>2022-06-04T06:08:20Z</time>
      </trkpt>
      <trkpt lat="48.0817130" lon="7.3645730">
        <ele>-234.6</ele>
        <time>2022-06-04T06:08:24Z</time>
      </trkpt>
      <trkpt lat="48.0818810" lon="7.3646880">
        <ele>-234.6</ele>
        <time>2022-06-04T06:08:28Z</time>
      </trkpt>
      <trkpt lat="48.0820650" lon="7.3648080">
        <ele>-234.6</ele>
        <time>2022-06-04T06:08:32Z</time>
      </trkpt>
      <trkpt lat="48.0822360" lon="7.3649330">
        <ele>-234.6</ele>
        <time>2022-06-04T06:08:36Z</time>
      </trkpt>
      <trkpt lat="48.0824130" lon="7.3650660">
        <ele>-234.6</ele>
        <time>2022-06-04T06:08:40Z</time>
      </trkpt>
      <trkpt lat="48.0825810" lon="7.3652000">
        <ele>-234.2</ele>
        <time>2022-06-04T06:08:44Z</time>
      </trkpt>
      <trkpt lat="48.0827660" lon="7.3653210">
        <ele>-235.0</ele>
        <time>2022-06-04T06:08:48Z</time>
      </trkpt>
      <trkpt lat="48.0829410" lon="7.3654450">
        <ele>-235.0</ele>
        <time>2022-06-04T06:08:52Z</time>
      </trkpt>
      <trkpt lat="48.0831230" lon="7.3655880">
        <ele>-235.2</ele>
        <time>2022-06-04T06:08:56Z</time>
      </trkpt>
      <trkpt lat="48.0833130" lon="7.3657260">
        <ele>-235.2</ele>
        <time>2022-06-04T06:09:00Z</time>
      </trkpt>
      <trkpt lat="48.0835000" lon="7.3658580">
        <ele>-235.4</ele>
        <time>2022-06-04T06:09:04Z</time>
      </trkpt>
      <trkpt lat="48.0836780" lon="7.3659880">
        <ele>-235.8</ele>
        <time>2022-06-04T06:09:08Z</time>
      </trkpt>
      <trkpt lat="48.0838560" lon="7.3661150">
        <ele>-235.4</ele>
        <time>2022-06-04T06:09:12Z</time>
      </trkpt>
      <trkpt lat="48.0840400" lon="7.3662400">
        <ele>-235.4</ele>
        <time>2022-06-04T06:09:16Z</time>
      </trkpt>
      <trkpt lat="48.0842230" lon="7.3663700">
        <ele>-235.6</ele>
        <time>2022-06-04T06:09:20Z</time>
      </trkpt>
      <trkpt lat="48.0843950" lon="7.3665030">
        <ele>-235.8</ele>
        <time>2022-06-04T06:09:24Z</time>
      </trkpt>
      <trkpt lat="48.0845810" lon="7.3666310">
        <ele>-235.2</ele>
        <time>2022-06-04T06:09:28Z</time>
      </trkpt>
      <trkpt lat="48.0847680" lon="7.3667710">
        <ele>-235.2</ele>
        <time>2022-06-04T06:09:32Z</time>
      </trkpt>
      <trkpt lat="48.0849510" lon="7.3668900">
        <ele>-235.6</ele>
        <time>2022-06-04T06:09:36Z</time>
      </trkpt>
      <trkpt lat="48.0851350" lon="7.3670100">
        <ele>-236.0</ele>
        <time>2022-06-04T06:09:40Z</time>
      </trkpt>
      <trkpt lat="48.0853210" lon="7.3671230">
        <ele>-235.2</ele>
        <time>2022-06-04T06:09:44Z</time>
      </trkpt>
      <trkpt lat="48.0855060" lon="7.3672280">
        <ele>-236.0</ele>
        <time>2022-06-04T06:09:48Z</time>
      </trkpt>
      <trkpt lat="48.0857110" lon="7.3673460">
        <ele>-236.0</ele>
        <time>2022-06-04T06:09:52Z</time>
      </trkpt>
      <trkpt lat="48.0858960" lon="7.3674330">
        <ele>-235.8</ele>
        <time>2022-06-04T06:09:56Z</time>
      </trkpt>
      <trkpt lat="48.0860700" lon="7.3675350">
        <ele>-236.0</ele>
        <time>2022-06-04T06:10:00Z</time>
      </trkpt>
      <trkpt lat="48.0862510" lon="7.3676450">
        <ele>-236.4</ele>
        <time>2022-06-04T06:10:04Z</time>
      </trkpt>
      <trkpt lat="48.0864380" lon="7.3677650">
        <ele>-236.2</ele>
        <time>2022-06-04T06:10:08Z</time>
      </trkpt>
      <trkpt lat="48.0866230" lon="7.3678800">
        <ele>-236.2</ele>
        <time>2022-06-04T06:10:12Z</time>
      </trkpt>
      <trkpt lat="48.0868050" lon="7.3679750">
        <ele>-236.4</ele>
        <time>2022-06-04T06:10:16Z</time>
      </trkpt>
      <trkpt lat="48.0869260" lon="7.3680400">
        <ele>-236.6</ele>
        <time>2022-06-04T06:10:20Z</time>
      </trkpt>
      <trkpt lat="48.0869710" lon="7.3680760">
        <ele>-236.6</ele>
        <time>2022-06-04T06:10:24Z</time>
      </trkpt>
      <trkpt lat="48.0870650" lon="7.3681180">
        <ele>-236.4</ele>
        <time>2022-06-04T06:10:28Z</time>
      </trkpt>
      <trkpt lat="48.0871960" lon="7.3681930">
        <ele>-236.6</ele>
        <time>2022-06-04T06:10:32Z</time>
      </trkpt>
      <trkpt lat="48.0873450" lon="7.3682800">
        <ele>-236.2</ele>
        <time>2022-06-04T06:10:36Z</time>
      </trkpt>
      <trkpt lat="48.0875030" lon="7.3683650">
        <ele>-236.4</ele>
        <time>2022-06-04T06:10:40Z</time>
      </trkpt>
      <trkpt lat="48.0876630" lon="7.3684660">
        <ele>-236.2</ele>
        <time>2022-06-04T06:10:44Z</time>
      </trkpt>
      <trkpt lat="48.0878130" lon="7.3685800">
        <ele>-236.0</ele>
        <time>2022-06-04T06:10:48Z</time>
      </trkpt>
      <trkpt lat="48.0879780" lon="7.3686900">
        <ele>-236.4</ele>
        <time>2022-06-04T06:10:52Z</time>
      </trkpt>
      <trkpt lat="48.0881480" lon="7.3688100">
        <ele>-236.0</ele>
        <time>2022-06-04T06:10:56Z</time>
      </trkpt>
      <trkpt lat="48.0883130" lon="7.3689300">
        <ele>-236.2</ele>
        <time>2022-06-04T06:11:00Z</time>
      </trkpt>
      <trkpt lat="48.0884710" lon="7.3690650">
        <ele>-236.4</ele>
        <time>2022-06-04T06:11:04Z</time>
      </trkpt>
      <trkpt lat="48.0886050" lon="7.3692100">
        <ele>-236.4</ele>
        <time>2022-06-04T06:11:08Z</time>
      </trkpt>
      <trkpt lat="48.0887430" lon="7.3693430">
        <ele>-236.0</ele>
        <time>2022-06-04T06:11:12Z</time>
      </trkpt>
      <trkpt lat="48.0888980" lon="7.3694580">
        <ele>-236.2</ele>
        <time>2022-06-04T06:11:16Z</time>
      </trkpt>
      <trkpt lat="48.0890450" lon="7.3695700">
        <ele>-236.0</ele>
        <time>2022-06-04T06:11:20Z</time>
      </trkpt>
      <trkpt lat="48.0891980" lon="7.3696860">
        <ele>-236.2</ele>
        <time>2022-06-04T06:11:24Z</time>
      </trkpt>
      <trkpt lat="48.0893560" lon="7.3698100">
        <ele>-236.0</ele>
        <time>2022-06-04T06:11:28Z</time>
      </trkpt>
      <trkpt lat="48.0895110" lon="7.3699280">
        <ele>-236.0</ele>
        <time>2022-06-04T06:11:32Z</time>
      </trkpt>
      <trkpt lat="48.0896650" lon="7.3700550">
        <ele>-236.0</ele>
        <time>2022-06-04T06:11:36Z</time>
      </trkpt>
      <trkpt lat="48.0898380" lon="7.3701760">
        <ele>-236.6</ele>
        <time>2022-06-04T06:11:40Z</time>
      </trkpt>
      <trkpt lat="48.0900010" lon="7.3703060">
        <ele>-236.4</ele>
        <time>2022-06-04T06:11:44Z</time>
      </trkpt>
      <trkpt lat="48.0901660" lon="7.3704230">
        <ele>-236.2</ele>
        <time>2022-06-04T06:11:48Z</time>
      </trkpt>
      <trkpt lat="48.0903280" lon="7.3705380">
        <ele>-236.2</ele>
        <time>2022-06-04T06:11:52Z</time>
      </trkpt>
      <trkpt lat="48.0904900" lon="7.3706560">
        <ele>-236.0</ele>
        <time>2022-06-04T06:11:56Z</time>
      </trkpt>
      <trkpt lat="48.0906410" lon="7.3707660">
        <ele>-236.4</ele>
        <time>2022-06-04T06:12:00Z</time>
      </trkpt>
      <trkpt lat="48.0907750" lon="7.3708660">
        <ele>-236.4</ele>
        <time>2022-06-04T06:12:04Z</time>
      </trkpt>
      <trkpt lat="48.0909000" lon="7.3709600">
        <ele>-236.2</ele>
        <time>2022-06-04T06:12:08Z</time>
      </trkpt>
      <trkpt lat="48.0910480" lon="7.3710660">
        <ele>-236.2</ele>
        <time>2022-06-04T06:12:12Z</time>
      </trkpt>
      <trkpt lat="48.0912060" lon="7.3711800">
        <ele>-236.4</ele>
        <time>2022-06-04T06:12:16Z</time>
      </trkpt>
      <trkpt lat="48.0913530" lon="7.3712860">
        <ele>-236.6</ele>
        <time>2022-06-04T06:12:20Z</time>
      </trkpt>
      <trkpt lat="48.0915030" lon="7.3714000">
        <ele>-236.2</ele>
        <time>2022-06-04T06:12:24Z</time>
      </trkpt>
      <trkpt lat="48.0916500" lon="7.3715080">
        <ele>-236.0</ele>
        <time>2022-06-04T06:12:28Z</time>
      </trkpt>
      <trkpt lat="48.0918000" lon="7.3716200">
        <ele>-235.8</ele>
        <time>2022-06-04T06:12:32Z</time>
      </trkpt>
      <trkpt lat="48.0919530" lon="7.3717350">
        <ele>-236.0</ele>
        <time>2022-06-04T06:12:36Z</time>
      </trkpt>
      <trkpt lat="48.0921160" lon="7.3718530">
        <ele>-236.0</ele>
        <time>2022-06-04T06:12:40Z</time>
      </trkpt>
      <trkpt lat="48.0922710" lon="7.3719680">
        <ele>-236.2</ele>
        <time>2022-06-04T06:12:44Z</time>
      </trkpt>
      <trkpt lat="48.0924210" lon="7.3720830">
        <ele>-236.0</ele>
        <time>2022-06-04T06:12:48Z</time>
      </trkpt>
      <trkpt lat="48.0925680" lon="7.3722210">
        <ele>-236.0</ele>
        <time>2022-06-04T06:12:52Z</time>
      </trkpt>
      <trkpt lat="48.0927160" lon="7.3723650">
        <ele>-236.0</ele>
        <time>2022-06-04T06:12:56Z</time>
      </trkpt>
      <trkpt lat="48.0928660" lon="7.3724980">
        <ele>-236.0</ele>
        <time>2022-06-04T06:13:00Z</time>
      </trkpt>
      <trkpt lat="48.0930100" lon="7.3726380">
        <ele>-236.4</ele>
        <time>2022-06-04T06:13:04Z</time>
      </trkpt>
      <trkpt lat="48.0931510" lon="7.3727730">
        <ele>-236.6</ele>
        <time>2022-06-04T06:13:08Z</time>
      </trkpt>
      <trkpt lat="48.0932810" lon="7.3728930">
        <ele>-236.8</ele>
        <time>2022-06-04T06:13:12Z</time>
      </trkpt>
      <trkpt lat="48.0934180" lon="7.3730160">
        <ele>-237.2</ele>
        <time>2022-06-04T06:13:16Z</time>
      </trkpt>
      <trkpt lat="48.0935500" lon="7.3731450">
        <ele>-236.8</ele>
        <time>2022-06-04T06:13:20Z</time>
      </trkpt>
      <trkpt lat="48.0936810" lon="7.3732760">
        <ele>-236.8</ele>
        <time>2022-06-04T06:13:24Z</time>
      </trkpt>
      <trkpt lat="48.0938160" lon="7.3734010">
        <ele>-236.8</ele>
        <time>2022-06-04T06:13:28Z</time>
      </trkpt>
      <trkpt lat="48.0939550" lon="7.3735400">
        <ele>-236.8</ele>
        <time>2022-06-04T06:13:32Z</time>
      </trkpt>
      <trkpt lat="48.0940900" lon="7.3736730">
        <ele>-237.4</ele>
        <time>2022-06-04T06:13:36Z</time>
      </trkpt>
      <trkpt lat="48.0942280" lon="7.3738100">
        <ele>-237.0</ele>
        <time>2022-06-04T06:13:40Z</time>
      </trkpt>
      <trkpt lat="48.0943650" lon="7.3739460">
        <ele>-237.2</ele>
        <time>2022-06-04T06:13:44Z</time>
      </trkpt>
      <trkpt lat="48.0944960" lon="7.3740680">
        <ele>-237.2</ele>
        <time>2022-06-04T06:13:48Z</time>
      </trkpt>
      <trkpt lat="48.0946180" lon="7.3741830">
        <ele>-237.4</ele>
        <time>2022-06-04T06:13:52Z</time>
      </trkpt>
      <trkpt lat="48.0947330" lon="7.3742600">
        <ele>-237.8</ele>
        <time>2022-06-04T06:13:56Z</time>
      </trkpt>
      <trkpt lat="48.0948260" lon="7.3742830">
        <ele>-238.0</ele>
        <time>2022-06-04T06:14:00Z</time>
      </trkpt>
      <trkpt lat="48.0949200" lon="7.3742310">
        <ele>-237.8</ele>
        <time>2022-06-04T06:14:04Z</time>
      </trkpt>
      <trkpt lat="48.0950050" lon="7.3741930">
        <ele>-237.6</ele>
        <time>2022-06-04T06:14:08Z</time>
      </trkpt>
      <trkpt lat="48.0950750" lon="7.3740950">
        <ele>-238.2</ele>
        <time>2022-06-04T06:14:12Z</time>
      </trkpt>
      <trkpt lat="48.0951350" lon="7.3739900">
        <ele>-238.4</ele>
        <time>2022-06-04T06:14:16Z</time>
      </trkpt>
      <trkpt lat="48.0951660" lon="7.3739450">
        <ele>-238.2</ele>
        <time>2022-06-04T06:14:20Z</time>
      </trkpt>
      <trkpt lat="48.0951660" lon="7.3739450">
        <ele>-238.0</ele>
        <time>2022-06-04T06:14:24Z</time>
      </trkpt>
      <trkpt lat="48.0951660" lon="7.3739450">
        <ele>-238.4</ele>
        <time>2022-06-04T06:14:28Z</time>
      </trkpt>
      <trkpt lat="48.0951660" lon="7.3739450">
        <ele>-238.4</ele>
        <time>2022-06-04T06:14:32Z</time>
      </trkpt>
      <trkpt lat="48.0951660" lon="7.3739450">
        <ele>-238.2</ele>
        <time>2022-06-04T06:14:36Z</time>
      </trkpt>
      <trkpt lat="48.0951660" lon="7.3739450">
        <ele>-238.4</ele>
        <time>2022-06-04T06:14:40Z</time>
      </trkpt>
      <trkpt lat="48.0951660" lon="7.3739450">
        <ele>-238.6</ele>
        <time>2022-06-04T06:14:44Z</time>
      </trkpt>
      <trkpt lat="48.0951660" lon="7.3739450">
        <ele>-238.6</ele>
        <time>2022-06-04T06:14:48Z</time>
      </trkpt>
      <trkpt lat="48.0951660" lon="7.3739450">
        <ele>-238.0</ele>
        <time>2022-06-04T06:14:52Z</time>
      </trkpt>
      <trkpt lat="48.0951660" lon="7.3739450">
        <ele>-238.4</ele>
        <time>2022-06-04T06:14:56Z</time>
      </trkpt>
      <trkpt lat="48.0951660" lon="7.3739450">
        <ele>-238.0</ele>
        <time>2022-06-04T06:15:00Z</time>
      </trkpt>
      <trkpt lat="48.0951660" lon="7.3739450">
        <ele>-238.6</ele>
        <time>2022-06-04T06:15:04Z</time>
      </trkpt>
      <trkpt lat="48.0951660" lon="7.3739450">
        <ele>-238.6</ele>
        <time>2022-06-04T06:15:08Z</time>
      </trkpt>
      <trkpt lat="48.0951660" lon="7.3739450">
        <ele>-238.4</ele>
        <time>2022-06-04T06:15:12Z</time>
      </trkpt>
      <trkpt lat="48.0951660" lon="7.3739450">
        <ele>-238.6</ele>
        <time>2022-06-04T06:15:16Z</time>
      </trkpt>
      <trkpt lat="48.0951660" lon="7.3739450">
        <ele>-238.4</ele>
        <time>2022-06-04T06:15:20Z</time>
      </trkpt>
      <trkpt lat="48.0951660" lon="7.3739450">
        <ele>-238.0</ele>
        <time>2022-06-04T06:15:24Z</time>
      </trkpt>
      <trkpt lat="48.0951660" lon="7.3739450">
        <ele>-238.0</ele>
        <time>2022-06-04T06:15:28Z</time>
      </trkpt>
      <trkpt lat="48.0951660" lon="7.3739450">
        <ele>-238.6</ele>
        <time>2022-06-04T06:15:32Z</time>
      </trkpt>
      <trkpt lat="48.0951660" lon="7.3739450">
        <ele>-238.6</ele>
        <time>2022-06-04T06:15:36Z</time>
      </trkpt>
      <trkpt lat="48.0951660" lon="7.3739450">
        <ele>-238.4</ele>
        <time>2022-06-04T06:15:40Z</time>
      </trkpt>
      <trkpt lat="48.0951660" lon="7.3739450">
        <ele>-238.0</ele>
        <time>2022-06-04T06:15:44Z</time>
      </trkpt>
      <trkpt lat="48.0951660" lon="7.3739450">
        <ele>-238.2</ele>
        <time>2022-06-04T06:15:48Z</time>
      </trkpt>
      <trkpt lat="48.0951660" lon="7.3739450">
        <ele>-237.8</ele>
        <time>2022-06-04T06:15:52Z</time>
      </trkpt>
      <trkpt lat="48.0951660" lon="7.3739450">
        <ele>-238.0</ele>
        <time>2022-06-04T06:15:56Z</time>
      </trkpt>
      <trkpt lat="48.0951660" lon="7.3739450">
        <ele>-238.0</ele>
        <time>2022-06-04T06:16:00Z</time>
      </trkpt>
      <trkpt lat="48.0951660" lon="7.3739450">
        <ele>-238.2</ele>
        <time>2022-06-04T06:16:04Z</time>
      </trkpt>
      <trkpt lat="48.0951660" lon="7.3739450">
        <ele>-238.4</ele>
        <time>2022-06-04T06:16:08Z</time>
      </trkpt>
      <trkpt lat="48.0951660" lon="7.3739450">
        <ele>-238.2</ele>
        <time>2022-06-04T06:16:12Z</time>
      </trkpt>
      <trkpt lat="48.0951660" lon="7.3739450">
        <ele>-238.4</ele>
        <time>2022-06-04T06:16:16Z</time>
      </trkpt>
      <trkpt lat="48.0951660" lon="7.3739450">
        <ele>-238.0</ele>
        <time>2022-06-04T06:16:20Z</time>
      </trkpt>
      <trkpt lat="48.0951660" lon="7.3739450">
        <ele>-237.8</ele>
        <time>2022-06-04T06:16:24Z</time>
      </trkpt>
      <trkpt lat="48.0951660" lon="7.3739450">
        <ele>-238.6</ele>
        <time>2022-06-04T06:16:28Z</time>
      </trkpt>
      <trkpt lat="48.0951660" lon="7.3739450">
        <ele>-238.2</ele>
        <time>2022-06-04T06:16:32Z</time>
      </trkpt>
      <trkpt lat="48.0951660" lon="7.3739450">
        <ele>-238.4</ele>
        <time>2022-06-04T06:16:36Z</time>
      </trkpt>
      <trkpt lat="48.0951660" lon="7.3739450">
        <ele>-238.2</ele>
        <time>2022-06-04T06:16:40Z</time>
      </trkpt>
      <trkpt lat="48.0951660" lon="7.3739450">
        <ele>-238.2</ele>
        <time>2022-06-04T06:16:44Z</time>
      </trkpt>
      <trkpt lat="48.0951660" lon="7.3739450">
        <ele>-238.6</ele>
        <time>2022-06-04T06:16:48Z</time>
      </trkpt>
      <trkpt lat="48.0951660" lon="7.3739450">
        <ele>-238.0</ele>
        <time>2022-06-04T06:16:52Z</time>
      </trkpt>
      <trkpt lat="48.0951660" lon="7.3739450">
        <ele>-238.0</ele>
        <time>2022-06-04T06:16:56Z</time>
      </trkpt>
      <trkpt lat="48.0951660" lon="7.3739450">
        <ele>-238.2</ele>
        <time>2022-06-04T06:17:00Z</time>
      </trkpt>
      <trkpt lat="48.0951660" lon="7.3739450">
        <ele>-238.2</ele>
        <time>2022-06-04T06:17:04Z</time>
      </trkpt>
      <trkpt lat="48.0951660" lon="7.3739450">
        <ele>-238.2</ele>
        <time>2022-06-04T06:17:08Z</time>
      </trkpt>
      <trkpt lat="48.0951660" lon="7.3739450">
        <ele>-238.4</ele>
        <time>2022-06-04T06:17:12Z</time>
      </trkpt>
      <trkpt lat="48.0951660" lon="7.3739450">
        <ele>-238.2</ele>
        <time>2022-06-04T06:17:16Z</time>
      </trkpt>
      <trkpt lat="48.0951660" lon="7.3739450">
        <ele>-237.8</ele>
        <time>2022-06-04T06:17:20Z</time>
      </trkpt>
      <trkpt lat="48.0951660" lon="7.3739450">
        <ele>-238.0</ele>
        <time>2022-06-04T06:17:24Z</time>
      </trkpt>
      <trkpt lat="48.0951660" lon="7.3739450">
        <ele>-237.8</ele>
        <time>2022-06-04T06:17:28Z</time>
      </trkpt>
      <trkpt lat="48.0951660" lon="7.3739450">
        <ele>-238.0</ele>
        <time>2022-06-04T06:17:32Z</time>
      </trkpt>
      <trkpt lat="48.0951660" lon="7.3739450">
        <ele>-238.0</ele>
        <time>2022-06-04T06:17:36Z</time>
      </trkpt>
      <trkpt lat="48.0951660" lon="7.3739450">
        <ele>-237.4</ele>
        <time>2022-06-04T06:17:40Z</time>
      </trkpt>
      <trkpt lat="48.0951660" lon="7.3739450">
        <ele>-238.0</ele>
        <time>2022-06-04T06:17:44Z</time>
      </trkpt>
      <trkpt lat="48.0951660" lon="7.3739450">
        <ele>-238.2</ele>
        <time>2022-06-04T06:17:48Z</time>
      </trkpt>
      <trkpt lat="48.0951660" lon="7.3739450">
        <ele>-238.0</ele>
        <time>2022-06-04T06:17:52Z</time>
      </trkpt>
      <trkpt lat="48.0951660" lon="7.3739450">
        <ele>-238.0</ele>
        <time>2022-06-04T06:17:56Z</time>
      </trkpt>
      <trkpt lat="48.0951660" lon="7.3739450">
        <ele>-238.0</ele>
        <time>2022-06-04T06:18:00Z</time>
      </trkpt>
      <trkpt lat="48.0951660" lon="7.3739450">
        <ele>-238.2</ele>
        <time>2022-06-04T06:18:04Z</time>
      </trkpt>
      <trkpt lat="48.0951660" lon="7.3739450">
        <ele>-238.0</ele>
        <time>2022-06-04T06:18:08Z</time>
      </trkpt>
      <trkpt lat="48.0951660" lon="7.3739450">
        <ele>-237.8</ele>
        <time>2022-06-04T06:18:12Z</time>
      </trkpt>
      <trkpt lat="48.0951830" lon="7.3739680">
        <ele>-238.0</ele>
        <time>2022-06-04T06:18:16Z</time>
      </trkpt>
      <trkpt lat="48.0951950" lon="7.3739860">
        <ele>-237.6</ele>
        <time>2022-06-04T06:18:20Z</time>
      </trkpt>
      <trkpt lat="48.0952160" lon="7.3740610">
        <ele>-237.4</ele>
        <time>2022-06-04T06:18:24Z</time>
      </trkpt>
      <trkpt lat="48.0952680" lon="7.3741450">
        <ele>-237.4</ele>
        <time>2022-06-04T06:18:28Z</time>
      </trkpt>
      <trkpt lat="48.0953000" lon="7.3742660">
        <ele>-237.4</ele>
        <time>2022-06-04T06:18:32Z</time>
      </trkpt>
      <trkpt lat="48.0953180" lon="7.3743850">
        <ele>-237.0</ele>
        <time>2022-06-04T06:18:36Z</time>
      </trkpt>
      <trkpt lat="48.0953660" lon="7.3744260">
        <ele>-237.4</ele>
        <time>2022-06-04T06:18:40Z</time>
      </trkpt>
      <trkpt lat="48.0953660" lon="7.3744260">
        <ele>-236.8</ele>
        <time>2022-06-04T06:18:44Z</time>
      </trkpt>
      <trkpt lat="48.0953810" lon="7.3744300">
        <ele>-237.2</ele>
        <time>2022-06-04T06:18:48Z</time>
      </trkpt>
      <trkpt lat="48.0953810" lon="7.3744300">
        <ele>-236.8</ele>
        <time>2022-06-04T06:18:52Z</time>
      </trkpt>
      <trkpt lat="48.0953810" lon="7.3744300">
        <ele>-236.8</ele>
        <time>2022-06-04T06:18:56Z</time>
      </trkpt>
      <trkpt lat="48.0953810" lon="7.3744300">
        <ele>-237.4</ele>
        <time>2022-06-04T06:19:00Z</time>
      </trkpt>
      <trkpt lat="48.0953810" lon="7.3744300">
        <ele>-236.8</ele>
        <time>2022-06-04T06:19:04Z</time>
      </trkpt>
      <trkpt lat="48.0953810" lon="7.3744300">
        <ele>-236.8</ele>
        <time>2022-06-04T06:19:08Z</time>
      </trkpt>
      <trkpt lat="48.0954000" lon="7.3744350">
        <ele>-236.8</ele>
        <time>2022-06-04T06:19:12Z</time>
      </trkpt>
      <trkpt lat="48.0954180" lon="7.3744750">
        <ele>-236.8</ele>
        <time>2022-06-04T06:19:16Z</time>
      </trkpt>
      <trkpt lat="48.0953630" lon="7.3745060">
        <ele>-236.6</ele>
        <time>2022-06-04T06:19:20Z</time>
      </trkpt>
      <trkpt lat="48.0953130" lon="7.3744910">
        <ele>-237.2</ele>
        <time>2022-06-04T06:19:24Z</time>
      </trkpt>
      <trkpt lat="48.0952680" lon="7.3744480">
        <ele>-237.2</ele>
        <time>2022-06-04T06:19:28Z</time>
      </trkpt>
      <trkpt lat="48.0952000" lon="7.3744200">
        <ele>-237.2</ele>
        <time>2022-06-04T06:19:32Z</time>
      </trkpt>
      <trkpt lat="48.0951150" lon="7.3744410">
        <ele>-237.0</ele>
        <time>2022-06-04T06:19:36Z</time>
      </trkpt>
      <trkpt lat="48.0951550" lon="7.3746060">
        <ele>-237.4</ele>
        <time>2022-06-04T06:19:40Z</time>
      </trkpt>
      <trkpt lat="48.0952680" lon="7.3747380">
        <ele>-237.4</ele>
        <time>2022-06-04T06:19:44Z</time>
      </trkpt>
      <trkpt lat="48.0953800" lon="7.3748730">
        <ele>-236.8</ele>
        <time>2022-06-04T06:19:48Z</time>
      </trkpt>
      <trkpt lat="48.0954600" lon="7.3750280">
        <ele>-237.4</ele>
        <time>2022-06-04T06:19:52Z</time>
      </trkpt>
      <trkpt lat="48.0955280" lon="7.3752350">
        <ele>-237.0</ele>
        <time>2022-06-04T06:19:56Z</time>
      </trkpt>
      <trkpt lat="48.0956410" lon="7.3753910">
        <ele>-236.6</ele>
        <time>2022-06-04T06:20:00Z</time>
      </trkpt>
      <trkpt lat="48.0958010" lon="7.3753910">
        <ele>-236.6</ele>
        <time>2022-06-04T06:20:04Z</time>
      </trkpt>
      <trkpt lat="48.0959700" lon="7.3754180">
        <ele>-236.8</ele>
        <time>2022-06-04T06:20:08Z</time>
      </trkpt>
      <trkpt lat="48.0961110" lon="7.3755680">
        <ele>-236.4</ele>
        <time>2022-06-04T06:20:12Z</time>
      </trkpt>
      <trkpt lat="48.0962650" lon="7.3757210">
        <ele>-236.8</ele>
        <time>2022-06-04T06:20:16Z</time>
      </trkpt>
      <trkpt lat="48.0964230" lon="7.3758680">
        <ele>-236.6</ele>
        <time>2022-06-04T06:20:20Z</time>
      </trkpt>
      <trkpt lat="48.0965860" lon="7.3760200">
        <ele>-236.8</ele>
        <time>2022-06-04T06:20:24Z</time>
      </trkpt>
      <trkpt lat="48.0967530" lon="7.3761650">
        <ele>-237.2</ele>
        <time>2022-06-04T06:20:28Z</time>
      </trkpt>
      <trkpt lat="48.0969210" lon="7.3763250">
        <ele>-237.6</ele>
        <time>2022-06-04T06:20:32Z</time>
      </trkpt>
      <trkpt lat="48.0970910" lon="7.3764860">
        <ele>-237.4</ele>
        <time>2022-06-04T06:20:36Z</time>
      </trkpt>
      <trkpt lat="48.0972560" lon="7.3766480">
        <ele>-237.4</ele>
        <time>2022-06-04T06:20:40Z</time>
      </trkpt>
      <trkpt lat="48.0974200" lon="7.3768010">
        <ele>-237.6</ele>
        <time>2022-06-04T06:20:44Z</time>
      </trkpt>
      <trkpt lat="48.0975800" lon="7.3769530">
        <ele>-237.2</ele>
        <time>2022-06-04T06:20:48Z</time>
      </trkpt>
      <trkpt lat="48.0977360" lon="7.3771100">
        <ele>-237.4</ele>
        <time>2022-06-04T06:20:52Z</time>
      </trkpt>
      <trkpt lat="48.0978980" lon="7.3772650">
        <ele>-237.2</ele>
        <time>2022-06-04T06:20:56Z</time>
      </trkpt>
      <trkpt lat="48.0980630" lon="7.3774260">
        <ele>-237.4</ele>
        <time>2022-06-04T06:21:00Z</time>
      </trkpt>
      <trkpt lat="48.0982300" lon="7.3775810">
        <ele>-237.0</ele>
        <time>2022-06-04T06:21:04Z</time>
      </trkpt>
      <trkpt lat="48.0983930" lon="7.3777500">
        <ele>-237.8</ele>
        <time>2022-06-04T06:21:08Z</time>
      </trkpt>
      <trkpt lat="48.0985610" lon="7.3779150">
        <ele>-237.8</ele>
        <time>2022-06-04T06:21:12Z</time>
      </trkpt>
      <trkpt lat="48.0987330" lon="7.3780810">
        <ele>-237.4</ele>
        <time>2022-06-04T06:21:16Z</time>
      </trkpt>
      <trkpt lat="48.0989050" lon="7.3782460">
        <ele>-237.2</ele>
        <time>2022-06-04T06:21:20Z</time>
      </trkpt>
      <trkpt lat="48.0990750" lon="7.3784200">
        <ele>-237.4</ele>
        <time>2022-06-04T06:21:24Z</time>
      </trkpt>
      <trkpt lat="48.0992500" lon="7.3785800">
        <ele>-238.0</ele>
        <time>2022-06-04T06:21:28Z</time>
      </trkpt>
      <trkpt lat="48.0994210" lon="7.3787450">
        <ele>-237.6</ele>
        <time>2022-06-04T06:21:32Z</time>
      </trkpt>
      <trkpt lat="48.0995980" lon="7.3789150">
        <ele>-237.8</ele>
        <time>2022-06-04T06:21:36Z</time>
      </trkpt>
      <trkpt lat="48.0997680" lon="7.3790850">
        <ele>-237.4</ele>
        <time>2022-06-04T06:21:40Z</time>
      </trkpt>
      <trkpt lat="48.0999410" lon="7.3792550">
        <ele>-238.0</ele>
        <time>2022-06-04T06:21:44Z</time>
      </trkpt>
      <trkpt lat="48.1001100" lon="7.3794130">
        <ele>-237.0</ele>
        <time>2022-06-04T06:21:48Z</time>
      </trkpt>
      <trkpt lat="48.1002780" lon="7.3795650">
        <ele>-237.4</ele>
        <time>2022-06-04T06:21:52Z</time>
      </trkpt>
      <trkpt lat="48.1004500" lon="7.3797330">
        <ele>-236.8</ele>
        <time>2022-06-04T06:21:56Z</time>
      </trkpt>
      <trkpt lat="48.1006230" lon="7.3799080">
        <ele>-237.8</ele>
        <time>2022-06-04T06:22:00Z</time>
      </trkpt>
      <trkpt lat="48.1007950" lon="7.3800750">
        <ele>-238.0</ele>
        <time>2022-06-04T06:22:04Z</time>
      </trkpt>
      <trkpt lat="48.1009760" lon="7.3802150">
        <ele>-237.6</ele>
        <time>2022-06-04T06:22:08Z</time>
      </trkpt>
      <trkpt lat="48.1011650" lon="7.3803260">
        <ele>-237.4</ele>
        <time>2022-06-04T06:22:12Z</time>
      </trkpt>
      <trkpt lat="48.1013650" lon="7.3803930">
        <ele>-237.4</ele>
        <time>2022-06-04T06:22:16Z</time>
      </trkpt>
      <trkpt lat="48.1015630" lon="7.3804010">
        <ele>-238.0</ele>
        <time>2022-06-04T06:22:20Z</time>
      </trkpt>
      <trkpt lat="48.1017700" lon="7.3803700">
        <ele>-238.0</ele>
        <time>2022-06-04T06:22:24Z</time>
      </trkpt>
      <trkpt lat="48.1019760" lon="7.3802900">
        <ele>-238.2</ele>
        <time>2022-06-04T06:22:28Z</time>
      </trkpt>
      <trkpt lat="48.1021700" lon="7.3801760">
        <ele>-237.4</ele>
        <time>2022-06-04T06:22:32Z</time>
      </trkpt>
      <trkpt lat="48.1023500" lon="7.3802010">
        <ele>-237.8</ele>
        <time>2022-06-04T06:22:36Z</time>
      </trkpt>
      <trkpt lat="48.1025210" lon="7.3801710">
        <ele>-237.6</ele>
        <time>2022-06-04T06:22:40Z</time>
      </trkpt>
      <trkpt lat="48.1026310" lon="7.3799600">
        <ele>-237.8</ele>
        <time>2022-06-04T06:22:44Z</time>
      </trkpt>
      <trkpt lat="48.1027880" lon="7.3797830">
        <ele>-238.4</ele>
        <time>2022-06-04T06:22:48Z</time>
      </trkpt>
      <trkpt lat="48.1029680" lon="7.3796660">
        <ele>-238.2</ele>
        <time>2022-06-04T06:22:52Z</time>
      </trkpt>
      <trkpt lat="48.1031480" lon="7.3795480">
        <ele>-237.4</ele>
        <time>2022-06-04T06:22:56Z</time>
      </trkpt>
      <trkpt lat="48.1033230" lon="7.3794380">
        <ele>-238.0</ele>
        <time>2022-06-04T06:23:00Z</time>
      </trkpt>
      <trkpt lat="48.1035000" lon="7.3793280">
        <ele>-238.0</ele>
        <time>2022-06-04T06:23:04Z</time>
      </trkpt>
      <trkpt lat="48.1036780" lon="7.3792150">
        <ele>-237.8</ele>
        <time>2022-06-04T06:23:08Z</time>
      </trkpt>
      <trkpt lat="48.1038580" lon="7.3791060">
        <ele>-238.0</ele>
        <time>2022-06-04T06:23:12Z</time>
      </trkpt>
      <trkpt lat="48.1040450" lon="7.3790010">
        <ele>-238.0</ele>
        <time>2022-06-04T06:23:16Z</time>
      </trkpt>
      <trkpt lat="48.1042360" lon="7.3789180">
        <ele>-238.0</ele>
        <time>2022-06-04T06:23:20Z</time>
      </trkpt>
      <trkpt lat="48.1044310" lon="7.3788600">
        <ele>-237.8</ele>
        <time>2022-06-04T06:23:24Z</time>
      </trkpt>
      <trkpt lat="48.1046300" lon="7.3788210">
        <ele>-237.8</ele>
        <time>2022-06-04T06:23:28Z</time>
      </trkpt>
      <trkpt lat="48.1048250" lon="7.3788150">
        <ele>-237.8</ele>
        <time>2022-06-04T06:23:32Z</time>
      </trkpt>
      <trkpt lat="48.1050210" lon="7.3788380">
        <ele>-238.4</ele>
        <time>2022-06-04T06:23:36Z</time>
      </trkpt>
      <trkpt lat="48.1052160" lon="7.3788710">
        <ele>-238.2</ele>
        <time>2022-06-04T06:23:40Z</time>
      </trkpt>
      <trkpt lat="48.1054080" lon="7.3789060">
        <ele>-238.2</ele>
        <time>2022-06-04T06:23:44Z</time>
      </trkpt>
      <trkpt lat="48.1056000" lon="7.3789460">
        <ele>-238.6</ele>
        <time>2022-06-04T06:23:48Z</time>
      </trkpt>
      <trkpt lat="48.1057980" lon="7.3789830">
        <ele>-238.2</ele>
        <time>2022-06-04T06:23:52Z</time>
      </trkpt>
      <trkpt lat="48.1060000" lon="7.3790250">
        <ele>-237.8</ele>
        <time>2022-06-04T06:23:56Z</time>
      </trkpt>
      <trkpt lat="48.1062000" lon="7.3790630">
        <ele>-238.0</ele>
        <time>2022-06-04T06:24:00Z</time>
      </trkpt>
      <trkpt lat="48.1063960" lon="7.3791030">
        <ele>-237.8</ele>
        <time>2022-06-04T06:24:04Z</time>
      </trkpt>
      <trkpt lat="48.1065930" lon="7.3791400">
        <ele>-238.4</ele>
        <time>2022-06-04T06:24:08Z</time>
      </trkpt>
      <trkpt lat="48.1067880" lon="7.3791780">
        <ele>-238.6</ele>
        <time>2022-06-04T06:24:12Z</time>
      </trkpt>
      <trkpt lat="48.1069760" lon="7.3792560">
        <ele>-238.0</ele>
        <time>2022-06-04T06:24:16Z</time>
      </trkpt>
      <trkpt lat="48.1071560" lon="7.3793810">
        <ele>-237.6</ele>
        <time>2022-06-04T06:24:20Z</time>
      </trkpt>
      <trkpt lat="48.1073000" lon="7.3795750">
        <ele>-238.0</ele>
        <time>2022-06-04T06:24:24Z</time>
      </trkpt>
      <trkpt lat="48.1074200" lon="7.3798000">
        <ele>-238.0</ele>
        <time>2022-06-04T06:24:28Z</time>
      </trkpt>
      <trkpt lat="48.1074750" lon="7.3800910">
        <ele>-238.4</ele>
        <time>2022-06-04T06:24:32Z</time>
      </trkpt>
      <trkpt lat="48.1075110" lon="7.3803780">
        <ele>-238.6</ele>
        <time>2022-06-04T06:24:36Z</time>
      </trkpt>
      <trkpt lat="48.1075280" lon="7.3806660">
        <ele>-237.4</ele>
        <time>2022-06-04T06:24:40Z</time>
      </trkpt>
      <trkpt lat="48.1075400" lon="7.3809480">
        <ele>-237.4</ele>
        <time>2022-06-04T06:24:44Z</time>
      </trkpt>
      <trkpt lat="48.1075430" lon="7.3812000">
        <ele>-236.0</ele>
        <time>2022-06-04T06:24:48Z</time>
      </trkpt>
      <trkpt lat="48.1075350" lon="7.3814330">
        <ele>-235.8</ele>
        <time>2022-06-04T06:24:52Z</time>
      </trkpt>
      <trkpt lat="48.1075280" lon="7.3816460">
        <ele>-234.4</ele>
        <time>2022-06-04T06:24:56Z</time>
      </trkpt>
      <trkpt lat="48.1075230" lon="7.3818510">
        <ele>-234.0</ele>
        <time>2022-06-04T06:25:00Z</time>
      </trkpt>
      <trkpt lat="48.1075180" lon="7.3820550">
        <ele>-232.8</ele>
        <time>2022-06-04T06:25:04Z</time>
      </trkpt>
      <trkpt lat="48.1075160" lon="7.3822610">
        <ele>-232.4</ele>
        <time>2022-06-04T06:25:08Z</time>
      </trkpt>
      <trkpt lat="48.1075110" lon="7.3824800">
        <ele>-232.2</ele>
        <time>2022-06-04T06:25:12Z</time>
      </trkpt>
      <trkpt lat="48.1075080" lon="7.3827230">
        <ele>-232.2</ele>
        <time>2022-06-04T06:25:16Z</time>
      </trkpt>
      <trkpt lat="48.1074950" lon="7.3829760">
        <ele>-231.8</ele>
        <time>2022-06-04T06:25:20Z</time>
      </trkpt>
      <trkpt lat="48.1074860" lon="7.3832400">
        <ele>-232.4</ele>
        <time>2022-06-04T06:25:24Z</time>
      </trkpt>
      <trkpt lat="48.1074650" lon="7.3835300">
        <ele>-233.0</ele>
        <time>2022-06-04T06:25:28Z</time>
      </trkpt>
      <trkpt lat="48.1074260" lon="7.3838750">
        <ele>-233.6</ele>
        <time>2022-06-04T06:25:32Z</time>
      </trkpt>
      <trkpt lat="48.1073800" lon="7.3842860">
        <ele>-235.0</ele>
        <time>2022-06-04T06:25:36Z</time>
      </trkpt>
      <trkpt lat="48.1073250" lon="7.3847380">
        <ele>-236.0</ele>
        <time>2022-06-04T06:25:40Z</time>
      </trkpt>
      <trkpt lat="48.1072660" lon="7.3851830">
        <ele>-237.2</ele>
        <time>2022-06-04T06:25:44Z</time>
      </trkpt>
      <trkpt lat="48.1071930" lon="7.3855830">
        <ele>-236.2</ele>
        <time>2022-06-04T06:25:48Z</time>
      </trkpt>
      <trkpt lat="48.1071130" lon="7.3859250">
        <ele>-236.0</ele>
        <time>2022-06-04T06:25:52Z</time>
      </trkpt>
      <trkpt lat="48.1070350" lon="7.3862250">
        <ele>-235.8</ele>
        <time>2022-06-04T06:25:56Z</time>
      </trkpt>
      <trkpt lat="48.1069730" lon="7.3864660">
        <ele>-234.2</ele>
        <time>2022-06-04T06:26:00Z</time>
      </trkpt>
      <trkpt lat="48.1069060" lon="7.3867100">
        <ele>-234.6</ele>
        <time>2022-06-04T06:26:04Z</time>
      </trkpt>
      <trkpt lat="48.1068300" lon="7.3869800">
        <ele>-234.6</ele>
        <time>2022-06-04T06:26:08Z</time>
      </trkpt>
      <trkpt lat="48.1067450" lon="7.3872710">
        <ele>-235.2</ele>
        <time>2022-06-04T06:26:12Z</time>
      </trkpt>
      <trkpt lat="48.1066460" lon="7.3876030">
        <ele>-236.2</ele>
        <time>2022-06-04T06:26:16Z</time>
      </trkpt>
      <trkpt lat="48.1065410" lon="7.3879560">
        <ele>-236.6</ele>
        <time>2022-06-04T06:26:20Z</time>
      </trkpt>
      <trkpt lat="48.1064430" lon="7.3883400">
        <ele>-236.4</ele>
        <time>2022-06-04T06:26:24Z</time>
      </trkpt>
      <trkpt lat="48.1063810" lon="7.3887260">
        <ele>-236.8</ele>
        <time>2022-06-04T06:26:28Z</time>
      </trkpt>
      <trkpt lat="48.1063580" lon="7.3891180">
        <ele>-237.4</ele>
        <time>2022-06-04T06:26:32Z</time>
      </trkpt>
      <trkpt lat="48.1063730" lon="7.3895050">
        <ele>-237.0</ele>
        <time>2022-06-04T06:26:36Z</time>
      </trkpt>
      <trkpt lat="48.1064310" lon="7.3898730">
        <ele>-237.4</ele>
        <time>2022-06-04T06:26:40Z</time>
      </trkpt>
      <trkpt lat="48.1065260" lon="7.3902210">
        <ele>-237.4</ele>
        <time>2022-06-04T06:26:44Z</time>
      </trkpt>
      <trkpt lat="48.1066430" lon="7.3905550">
        <ele>-238.0</ele>
        <time>2022-06-04T06:26:48Z</time>
      </trkpt>
      <trkpt lat="48.1067610" lon="7.3908730">
        <ele>-238.0</ele>
        <time>2022-06-04T06:26:52Z</time>
      </trkpt>
      <trkpt lat="48.1068750" lon="7.3911730">
        <ele>-237.4</ele>
        <time>2022-06-04T06:26:56Z</time>
      </trkpt>
      <trkpt lat="48.1069730" lon="7.3914330">
        <ele>-238.0</ele>
        <time>2022-06-04T06:27:00Z</time>
      </trkpt>
      <trkpt lat="48.1069730" lon="7.3914330">
        <ele>-238.4</ele>
        <time>2022-06-04T06:27:04Z</time>
      </trkpt>
      <trkpt lat="48.1069730" lon="7.3914330">
        <ele>-238.6</ele>
        <time>2022-06-04T06:27:08Z</time>
      </trkpt>
      <trkpt lat="48.1069730" lon="7.3914330">
        <ele>-238.6</ele>
        <time>2022-06-04T06:27:12Z</time>
      </trkpt>
      <trkpt lat="48.1069730" lon="7.3914330">
        <ele>-238.6</ele>
        <time>2022-06-04T06:27:16Z</time>
      </trkpt>
      <trkpt lat="48.1069730" lon="7.3914330">
        <ele>-238.2</ele>
        <time>2022-06-04T06:27:20Z</time>
      </trkpt>
      <trkpt lat="48.1069730" lon="7.3914330">
        <ele>-238.6</ele>
        <time>2022-06-04T06:27:24Z</time>
      </trkpt>
      <trkpt lat="48.1069730" lon="7.3914330">
        <ele>-238.2</ele>
        <time>2022-06-04T06:27:28Z</time>
      </trkpt>
      <trkpt lat="48.1069730" lon="7.3914330">
        <ele>-238.2</ele>
        <time>2022-06-04T06:27:32Z</time>
      </trkpt>
      <trkpt lat="48.1069730" lon="7.3914330">
        <ele>-238.6</ele>
        <time>2022-06-04T06:27:36Z</time>
      </trkpt>
      <trkpt lat="48.1069730" lon="7.3914330">
        <ele>-238.4</ele>
        <time>2022-06-04T06:27:40Z</time>
      </trkpt>
      <trkpt lat="48.1069730" lon="7.3914330">
        <ele>-238.2</ele>
        <time>2022-06-04T06:27:44Z</time>
      </trkpt>
      <trkpt lat="48.1069730" lon="7.3914330">
        <ele>-237.8</ele>
        <time>2022-06-04T06:27:48Z</time>
      </trkpt>
      <trkpt lat="48.1069730" lon="7.3914330">
        <ele>-238.2</ele>
        <time>2022-06-04T06:27:52Z</time>
      </trkpt>
      <trkpt lat="48.1069730" lon="7.3914330">
        <ele>-238.0</ele>
        <time>2022-06-04T06:27:56Z</time>
      </trkpt>
      <trkpt lat="48.1069730" lon="7.3914330">
        <ele>-238.4</ele>
        <time>2022-06-04T06:28:00Z</time>
      </trkpt>
      <trkpt lat="48.1069730" lon="7.3914330">
        <ele>-238.2</ele>
        <time>2022-06-04T06:28:04Z</time>
      </trkpt>
      <trkpt lat="48.1069730" lon="7.3914330">
        <ele>-238.2</ele>
        <time>2022-06-04T06:28:08Z</time>
      </trkpt>
      <trkpt lat="48.1069730" lon="7.3914330">
        <ele>-238.2</ele>
        <time>2022-06-04T06:28:12Z</time>
      </trkpt>
      <trkpt lat="48.1069730" lon="7.3914330">
        <ele>-238.0</ele>
        <time>2022-06-04T06:28:16Z</time>
      </trkpt>
      <trkpt lat="48.1069730" lon="7.3914330">
        <ele>-238.0</ele>
        <time>2022-06-04T06:28:20Z</time>
      </trkpt>
      <trkpt lat="48.1069730" lon="7.3914330">
        <ele>-238.2</ele>
        <time>2022-06-04T06:28:24Z</time>
      </trkpt>
      <trkpt lat="48.1069730" lon="7.3914330">
        <ele>-238.0</ele>
        <time>2022-06-04T06:28:28Z</time>
      </trkpt>
      <trkpt lat="48.1069730" lon="7.3914330">
        <ele>-238.4</ele>
        <time>2022-06-04T06:28:32Z</time>
      </trkpt>
      <trkpt lat="48.1069980" lon="7.3915530">
        <ele>-238.2</ele>
        <time>2022-06-04T06:28:36Z</time>
      </trkpt>
      <trkpt lat="48.1069980" lon="7.3915530">
        <ele>-238.2</ele>
        <time>2022-06-04T06:28:40Z</time>
      </trkpt>
      <trkpt lat="48.1069980" lon="7.3915530">
        <ele>-238.0</ele>
        <time>2022-06-04T06:28:44Z</time>
      </trkpt>
      <trkpt lat="48.1069980" lon="7.3915530">
        <ele>-238.0</ele>
        <time>2022-06-04T06:28:48Z</time>
      </trkpt>
      <trkpt lat="48.1069980" lon="7.3915530">
        <ele>-238.0</ele>
        <time>2022-06-04T06:28:52Z</time>
      </trkpt>
      <trkpt lat="48.1070130" lon="7.3915430">
        <ele>-237.6</ele>
        <time>2022-06-04T06:28:56Z</time>
      </trkpt>
      <trkpt lat="48.1070210" lon="7.3914680">
        <ele>-237.6</ele>
        <time>2022-06-04T06:29:00Z</time>
      </trkpt>
      <trkpt lat="48.1069900" lon="7.3913160">
        <ele>-237.6</ele>
        <time>2022-06-04T06:29:04Z</time>
      </trkpt>
      <trkpt lat="48.1069160" lon="7.3911230">
        <ele>-237.8</ele>
        <time>2022-06-04T06:29:08Z</time>
      </trkpt>
      <trkpt lat="48.1068260" lon="7.3909050">
        <ele>-237.4</ele>
        <time>2022-06-04T06:29:12Z</time>
      </trkpt>
      <trkpt lat="48.1067350" lon="7.3906360">
        <ele>-237.4</ele>
        <time>2022-06-04T06:29:16Z</time>
      </trkpt>
      <trkpt lat="48.1066300" lon="7.3903510">
        <ele>-237.8</ele>
        <time>2022-06-04T06:29:20Z</time>
      </trkpt>
      <trkpt lat="48.1065380" lon="7.3900600">
        <ele>-237.8</ele>
        <time>2022-06-04T06:29:24Z</time>
      </trkpt>
      <trkpt lat="48.1064660" lon="7.3897600">
        <ele>-238.4</ele>
        <time>2022-06-04T06:29:28Z</time>
      </trkpt>
      <trkpt lat="48.1064200" lon="7.3894550">
        <ele>-237.8</ele>
        <time>2022-06-04T06:29:32Z</time>
      </trkpt>
      <trkpt lat="48.1064050" lon="7.3891430">
        <ele>-238.0</ele>
        <time>2022-06-04T06:29:36Z</time>
      </trkpt>
      <trkpt lat="48.1064210" lon="7.3888250">
        <ele>-237.6</ele>
        <time>2022-06-04T06:29:40Z</time>
      </trkpt>
      <trkpt lat="48.1064600" lon="7.3885180">
        <ele>-237.8</ele>
        <time>2022-06-04T06:29:44Z</time>
      </trkpt>
      <trkpt lat="48.1065180" lon="7.3882300">
        <ele>-237.2</ele>
        <time>2022-06-04T06:29:48Z</time>
      </trkpt>
      <trkpt lat="48.1065850" lon="7.3879760">
        <ele>-236.2</ele>
        <time>2022-06-04T06:29:52Z</time>
      </trkpt>
      <trkpt lat="48.1066510" lon="7.3877360">
        <ele>-235.2</ele>
        <time>2022-06-04T06:29:56Z</time>
      </trkpt>
      <trkpt lat="48.1067210" lon="7.3874910">
        <ele>-235.4</ele>
        <time>2022-06-04T06:30:00Z</time>
      </trkpt>
      <trkpt lat="48.1067910" lon="7.3872400">
        <ele>-234.6</ele>
        <time>2022-06-04T06:30:04Z</time>
      </trkpt>
      <trkpt lat="48.1068630" lon="7.3869910">
        <ele>-234.2</ele>
        <time>2022-06-04T06:30:08Z</time>
      </trkpt>
      <trkpt lat="48.1069350" lon="7.3867410">
        <ele>-234.6</ele>
        <time>2022-06-04T06:30:12Z</time>
      </trkpt>
      <trkpt lat="48.1070110" lon="7.3864710">
        <ele>-234.4</ele>
        <time>2022-06-04T06:30:16Z</time>
      </trkpt>
      <trkpt lat="48.1071030" lon="7.3861760">
        <ele>-235.8</ele>
        <time>2022-06-04T06:30:20Z</time>
      </trkpt>
      <trkpt lat="48.1072010" lon="7.3858580">
        <ele>-236.4</ele>
        <time>2022-06-04T06:30:24Z</time>
      </trkpt>
      <trkpt lat="48.1072950" lon="7.3855280">
        <ele>-236.0</ele>
        <time>2022-06-04T06:30:28Z</time>
      </trkpt>
      <trkpt lat="48.1073730" lon="7.3852000">
        <ele>-236.8</ele>
        <time>2022-06-04T06:30:32Z</time>
      </trkpt>
      <trkpt lat="48.1074380" lon="7.3848680">
        <ele>-236.0</ele>
        <time>2022-06-04T06:30:36Z</time>
      </trkpt>
      <trkpt lat="48.1074750" lon="7.3845360">
        <ele>-235.4</ele>
        <time>2022-06-04T06:30:40Z</time>
      </trkpt>
      <trkpt lat="48.1075010" lon="7.3842480">
        <ele>-234.2</ele>
        <time>2022-06-04T06:30:44Z</time>
      </trkpt>
      <trkpt lat="48.1075210" lon="7.3839900">
        <ele>-233.8</ele>
        <time>2022-06-04T06:30:48Z</time>
      </trkpt>
      <trkpt lat="48.1075400" lon="7.3837500">
        <ele>-233.0</ele>
        <time>2022-06-04T06:30:52Z</time>
      </trkpt>
      <trkpt lat="48.1075500" lon="7.3835160">
        <ele>-232.6</ele>
        <time>2022-06-04T06:30:56Z</time>
      </trkpt>
      <trkpt lat="48.1075610" lon="7.3832660">
        <ele>-232.0</ele>
        <time>2022-06-04T06:31:00Z</time>
      </trkpt>
      <trkpt lat="48.1075650" lon="7.3830080">
        <ele>-232.2</ele>
        <time>2022-06-04T06:31:04Z</time>
      </trkpt>
      <trkpt lat="48.1075730" lon="7.3827480">
        <ele>-231.2</ele>
        <time>2022-06-04T06:31:08Z</time>
      </trkpt>
      <trkpt lat="48.1075810" lon="7.3824780">
        <ele>-232.0</ele>
        <time>2022-06-04T06:31:12Z</time>
      </trkpt>
      <trkpt lat="48.1075930" lon="7.3821780">
        <ele>-233.0</ele>
        <time>2022-06-04T06:31:16Z</time>
      </trkpt>
      <trkpt lat="48.1076050" lon="7.3818310">
        <ele>-234.2</ele>
        <time>2022-06-04T06:31:20Z</time>
      </trkpt>
      <trkpt lat="48.1076150" lon="7.3814330">
        <ele>-236.4</ele>
        <time>2022-06-04T06:31:24Z</time>
      </trkpt>
      <trkpt lat="48.1076150" lon="7.3809730">
        <ele>-238.6</ele>
        <time>2022-06-04T06:31:28Z</time>
      </trkpt>
      <trkpt lat="48.1075980" lon="7.3804910">
        <ele>-239.0</ele>
        <time>2022-06-04T06:31:32Z</time>
      </trkpt>
      <trkpt lat="48.1075980" lon="7.3800510">
        <ele>-238.4</ele>
        <time>2022-06-04T06:31:36Z</time>
      </trkpt>
      <trkpt lat="48.1076450" lon="7.3796930">
        <ele>-238.4</ele>
        <time>2022-06-04T06:31:40Z</time>
      </trkpt>
      <trkpt lat="48.1077400" lon="7.3793780">
        <ele>-238.4</ele>
        <time>2022-06-04T06:31:44Z</time>
      </trkpt>
      <trkpt lat="48.1076750" lon="7.3790750">
        <ele>-237.4</ele>
        <time>2022-06-04T06:31:48Z</time>
      </trkpt>
      <trkpt lat="48.1075280" lon="7.3788450">
        <ele>-238.4</ele>
        <time>2022-06-04T06:31:52Z</time>
      </trkpt>
      <trkpt lat="48.1074810" lon="7.3785600">
        <ele>-238.0</ele>
        <time>2022-06-04T06:31:56Z</time>
      </trkpt>
      <trkpt lat="48.1074630" lon="7.3782630">
        <ele>-237.4</ele>
        <time>2022-06-04T06:32:00Z</time>
      </trkpt>
      <trkpt lat="48.1074480" lon="7.3779750">
        <ele>-237.4</ele>
        <time>2022-06-04T06:32:04Z</time>
      </trkpt>
      <trkpt lat="48.1074350" lon="7.3776850">
        <ele>-237.4</ele>
        <time>2022-06-04T06:32:08Z</time>
      </trkpt>
      <trkpt lat="48.1074180" lon="7.3773910">
        <ele>-238.0</ele>
        <time>2022-06-04T06:32:12Z</time>
      </trkpt>
      <trkpt lat="48.1074030" lon="7.3770950">
        <ele>-237.2</ele>
        <time>2022-06-04T06:32:16Z</time>
      </trkpt>
      <trkpt lat="48.1073760" lon="7.3768030">
        <ele>-237.8</ele>
        <time>2022-06-04T06:32:20Z</time>
      </trkpt>
      <trkpt lat="48.1073550" lon="7.3765130">
        <ele>-237.4</ele>
        <time>2022-06-04T06:32:24Z</time>
      </trkpt>
      <trkpt lat="48.1073580" lon="7.3762280">
        <ele>-237.6</ele>
        <time>2022-06-04T06:32:28Z</time>
      </trkpt>
      <trkpt lat="48.1073450" lon="7.3759450">
        <ele>-237.8</ele>
        <time>2022-06-04T06:32:32Z</time>
      </trkpt>
      <trkpt lat="48.1073700" lon="7.3756680">
        <ele>-236.8</ele>
        <time>2022-06-04T06:32:36Z</time>
      </trkpt>
      <trkpt lat="48.1073930" lon="7.3753880">
        <ele>-237.4</ele>
        <time>2022-06-04T06:32:40Z</time>
      </trkpt>
      <trkpt lat="48.1074180" lon="7.3751080">
        <ele>-237.4</ele>
        <time>2022-06-04T06:32:44Z</time>
      </trkpt>
      <trkpt lat="48.1074480" lon="7.3748310">
        <ele>-237.8</ele>
        <time>2022-06-04T06:32:48Z</time>
      </trkpt>
      <trkpt lat="48.1074710" lon="7.3745560">
        <ele>-237.4</ele>
        <time>2022-06-04T06:32:52Z</time>
      </trkpt>
      <trkpt lat="48.1074960" lon="7.3742800">
        <ele>-236.6</ele>
        <time>2022-06-04T06:32:56Z</time>
      </trkpt>
      <trkpt lat="48.1075150" lon="7.3740050">
        <ele>-237.4</ele>
        <time>2022-06-04T06:33:00Z</time>
      </trkpt>
      <trkpt lat="48.1075410" lon="7.3737310">
        <ele>-236.2</ele>
        <time>2022-06-04T06:33:04Z</time>
      </trkpt>
      <trkpt lat="48.1075610" lon="7.3734650">
        <ele>-236.2</ele>
        <time>2022-06-04T06:33:08Z</time>
      </trkpt>
      <trkpt lat="48.1075830" lon="7.3731950">
        <ele>-236.2</ele>
        <time>2022-06-04T06:33:12Z</time>
      </trkpt>
      <trkpt lat="48.1076080" lon="7.3729300">
        <ele>-236.2</ele>
        <time>2022-06-04T06:33:16Z</time>
      </trkpt>
      <trkpt lat="48.1076310" lon="7.3726630">
        <ele>-236.6</ele>
        <time>2022-06-04T06:33:20Z</time>
      </trkpt>
      <trkpt lat="48.1076530" lon="7.3723980">
        <ele>-236.4</ele>
        <time>2022-06-04T06:33:24Z</time>
      </trkpt>
      <trkpt lat="48.1076750" lon="7.3721350">
        <ele>-236.6</ele>
        <time>2022-06-04T06:33:28Z</time>
      </trkpt>
      <trkpt lat="48.1076980" lon="7.3718710">
        <ele>-236.6</ele>
        <time>2022-06-04T06:33:32Z</time>
      </trkpt>
      <trkpt lat="48.1077230" lon="7.3716010">
        <ele>-236.6</ele>
        <time>2022-06-04T06:33:36Z</time>
      </trkpt>
      <trkpt lat="48.1077480" lon="7.3713300">
        <ele>-236.4</ele>
        <time>2022-06-04T06:33:40Z</time>
      </trkpt>
      <trkpt lat="48.1077760" lon="7.3710510">
        <ele>-236.2</ele>
        <time>2022-06-04T06:33:44Z</time>
      </trkpt>
      <trkpt lat="48.1078030" lon="7.3707750">
        <ele>-236.0</ele>
        <time>2022-06-04T06:33:48Z</time>
      </trkpt>
      <trkpt lat="48.1078280" lon="7.3705130">
        <ele>-236.0</ele>
        <time>2022-06-04T06:33:52Z</time>
      </trkpt>
      <trkpt lat="48.1078550" lon="7.3702380">
        <ele>-236.0</ele>
        <time>2022-06-04T06:33:56Z</time>
      </trkpt>
      <trkpt lat="48.1078760" lon="7.3699650">
        <ele>-236.0</ele>
        <time>2022-06-04T06:34:00Z</time>
      </trkpt>
      <trkpt lat="48.1079030" lon="7.3696900">
        <ele>-236.8</ele>
        <time>2022-06-04T06:34:04Z</time>
      </trkpt>
      <trkpt lat="48.1079250" lon="7.3694200">
        <ele>-236.2</ele>
        <time>2022-06-04T06:34:08Z</time>
      </trkpt>
      <trkpt lat="48.1079460" lon="7.3691500">
        <ele>-236.8</ele>
        <time>2022-06-04T06:34:12Z</time>
      </trkpt>
      <trkpt lat="48.1079700" lon="7.3688760">
        <ele>-235.8</ele>
        <time>2022-06-04T06:34:16Z</time>
      </trkpt>
      <trkpt lat="48.1079930" lon="7.3686010">
        <ele>-236.6</ele>
        <time>2022-06-04T06:34:20Z</time>
      </trkpt>
      <trkpt lat="48.1080180" lon="7.3683210">
        <ele>-236.4</ele>
        <time>2022-06-04T06:34:24Z</time>
      </trkpt>
      <trkpt lat="48.1080450" lon="7.3680480">
        <ele>-236.0</ele>
        <time>2022-06-04T06:34:28Z</time>
      </trkpt>
      <trkpt lat="48.1080700" lon="7.3677800">
        <ele>-236.0</ele>
        <time>2022-06-04T06:34:32Z</time>
      </trkpt>
      <trkpt lat="48.1080950" lon="7.3675100">
        <ele>-235.6</ele>
        <time>2022-06-04T06:34:36Z</time>
      </trkpt>
      <trkpt lat="48.1081210" lon="7.3672510">
        <ele>-235.8</ele>
        <time>2022-06-04T06:34:40Z</time>
      </trkpt>
      <trkpt lat="48.1081450" lon="7.3669900">
        <ele>-235.2</ele>
        <time>2022-06-04T06:34:44Z</time>
      </trkpt>
      <trkpt lat="48.1081680" lon="7.3667230">
        <ele>-235.2</ele>
        <time>2022-06-04T06:34:48Z</time>
      </trkpt>
      <trkpt lat="48.1081910" lon="7.3664580">
        <ele>-235.2</ele>
        <time>2022-06-04T06:34:52Z</time>
      </trkpt>
      <trkpt lat="48.1082130" lon="7.3661930">
        <ele>-235.4</ele>
        <time>2022-06-04T06:34:56Z</time>
      </trkpt>
      <trkpt lat="48.1082380" lon="7.3659300">
        <ele>-235.2</ele>
        <time>2022-06-04T06:35:00Z</time>
      </trkpt>
      <trkpt lat="48.1082600" lon="7.3656630">
        <ele>-234.6</ele>
        <time>2022-06-04T06:35:04Z</time>
      </trkpt>
      <trkpt lat="48.1082810" lon="7.3653950">
        <ele>-234.4</ele>
        <time>2022-06-04T06:35:08Z</time>
      </trkpt>
      <trkpt lat="48.1083060" lon="7.3651310">
        <ele>-235.2</ele>
        <time>2022-06-04T06:35:12Z</time>
      </trkpt>
      <trkpt lat="48.1083310" lon="7.3648710">
        <ele>-234.4</ele>
        <time>2022-06-04T06:35:16Z</time>
      </trkpt>
      <trkpt lat="48.1083560" lon="7.3646180">
        <ele>-234.2</ele>
        <time>2022-06-04T06:35:20Z</time>
      </trkpt>
      <trkpt lat="48.1083900" lon="7.3643750">
        <ele>-234.4</ele>
        <time>2022-06-04T06:35:24Z</time>
      </trkpt>
      <trkpt lat="48.1084250" lon="7.3641430">
        <ele>-234.0</ele>
        <time>2022-06-04T06:35:28Z</time>
      </trkpt>
      <trkpt lat="48.1084810" lon="7.3639360">
        <ele>-233.8</ele>
        <time>2022-06-04T06:35:32Z</time>
      </trkpt>
      <trkpt lat="48.1085300" lon="7.3637900">
        <ele>-233.6</ele>
        <time>2022-06-04T06:35:36Z</time>
      </trkpt>
      <trkpt lat="48.1085300" lon="7.3637900">
        <ele>-233.2</ele>
        <time>2022-06-04T06:35:40Z</time>
      </trkpt>
      <trkpt lat="48.1085300" lon="7.3637900">
        <ele>-233.2</ele>
        <time>2022-06-04T06:35:44Z</time>
      </trkpt>
      <trkpt lat="48.1085300" lon="7.3637900">
        <ele>-233.6</ele>
        <time>2022-06-04T06:35:48Z</time>
      </trkpt>
      <trkpt lat="48.1085300" lon="7.3637900">
        <ele>-233.4</ele>
        <time>2022-06-04T06:35:52Z</time>
      </trkpt>
      <trkpt lat="48.1085300" lon="7.3637900">
        <ele>-233.2</ele>
        <time>2022-06-04T06:35:56Z</time>
      </trkpt>
      <trkpt lat="48.1085300" lon="7.3637900">
        <ele>-233.6</ele>
        <time>2022-06-04T06:36:00Z</time>
      </trkpt>
      <trkpt lat="48.1085300" lon="7.3637900">
        <ele>-233.8</ele>
        <time>2022-06-04T06:36:04Z</time>
      </trkpt>
      <trkpt lat="48.1085300" lon="7.3637900">
        <ele>-234.0</ele>
        <time>2022-06-04T06:36:08Z</time>
      </trkpt>
      <trkpt lat="48.1085300" lon="7.3637900">
        <ele>-233.8</ele>
        <time>2022-06-04T06:36:12Z</time>
      </trkpt>
      <trkpt lat="48.1085300" lon="7.3637900">
        <ele>-233.8</ele>
        <time>2022-06-04T06:36:16Z</time>
      </trkpt>
      <trkpt lat="48.1085300" lon="7.3637900">
        <ele>-233.8</ele>
        <time>2022-06-04T06:36:20Z</time>
      </trkpt>
      <trkpt lat="48.1085300" lon="7.3637900">
        <ele>-233.4</ele>
        <time>2022-06-04T06:36:24Z</time>
      </trkpt>
      <trkpt lat="48.1085300" lon="7.3637900">
        <ele>-233.8</ele>
        <time>2022-06-04T06:36:28Z</time>
      </trkpt>
      <trkpt lat="48.1085300" lon="7.3637900">
        <ele>-233.8</ele>
        <time>2022-06-04T06:36:32Z</time>
      </trkpt>
      <trkpt lat="48.1085300" lon="7.3637900">
        <ele>-233.4</ele>
        <time>2022-06-04T06:36:36Z</time>
      </trkpt>
      <trkpt lat="48.1085300" lon="7.3637900">
        <ele>-233.6</ele>
        <time>2022-06-04T06:36:40Z</time>
      </trkpt>
      <trkpt lat="48.1085300" lon="7.3637900">
        <ele>-233.4</ele>
        <time>2022-06-04T06:36:44Z</time>
      </trkpt>
      <trkpt lat="48.1085300" lon="7.3637900">
        <ele>-233.8</ele>
        <time>2022-06-04T06:36:48Z</time>
      </trkpt>
      <trkpt lat="48.1085300" lon="7.3637900">
        <ele>-234.0</ele>
        <time>2022-06-04T06:36:52Z</time>
      </trkpt>
      <trkpt lat="48.1085300" lon="7.3637900">
        <ele>-234.0</ele>
        <time>2022-06-04T06:36:56Z</time>
      </trkpt>
      <trkpt lat="48.1085300" lon="7.3637900">
        <ele>-233.6</ele>
        <time>2022-06-04T06:37:00Z</time>
      </trkpt>
      <trkpt lat="48.1085300" lon="7.3637900">
        <ele>-234.0</ele>
        <time>2022-06-04T06:37:04Z</time>
      </trkpt>
      <trkpt lat="48.1085300" lon="7.3637900">
        <ele>-234.0</ele>
        <time>2022-06-04T06:37:08Z</time>
      </trkpt>
      <trkpt lat="48.1085300" lon="7.3637900">
        <ele>-233.6</ele>
        <time>2022-06-04T06:37:12Z</time>
      </trkpt>
      <trkpt lat="48.1085300" lon="7.3637900">
        <ele>-233.8</ele>
        <time>2022-06-04T06:37:16Z</time>
      </trkpt>
      <trkpt lat="48.1085300" lon="7.3637900">
        <ele>-233.6</ele>
        <time>2022-06-04T06:37:20Z</time>
      </trkpt>
      <trkpt lat="48.1085300" lon="7.3637900">
        <ele>-233.8</ele>
        <time>2022-06-04T06:37:24Z</time>
      </trkpt>
      <trkpt lat="48.1085300" lon="7.3637900">
        <ele>-233.6</ele>
        <time>2022-06-04T06:37:28Z</time>
      </trkpt>
      <trkpt lat="48.1085300" lon="7.3637900">
        <ele>-233.8</ele>
        <time>2022-06-04T06:37:32Z</time>
      </trkpt>
      <trkpt lat="48.1085300" lon="7.3637900">
        <ele>-233.6</ele>
        <time>2022-06-04T06:37:36Z</time>
      </trkpt>
      <trkpt lat="48.1085300" lon="7.3637900">
        <ele>-233.4</ele>
        <time>2022-06-04T06:37:40Z</time>
      </trkpt>
      <trkpt lat="48.1085300" lon="7.3637900">
        <ele>-233.8</ele>
        <time>2022-06-04T06:37:44Z</time>
      </trkpt>
      <trkpt lat="48.1085300" lon="7.3637900">
        <ele>-233.4</ele>
        <time>2022-06-04T06:37:48Z</time>
      </trkpt>
      <trkpt lat="48.1085300" lon="7.3637900">
        <ele>-234.0</ele>
        <time>2022-06-04T06:37:52Z</time>
      </trkpt>
      <trkpt lat="48.1085300" lon="7.3637900">
        <ele>-233.6</ele>
        <time>2022-06-04T06:37:56Z</time>
      </trkpt>
      <trkpt lat="48.1085300" lon="7.3637900">
        <ele>-233.6</ele>
        <time>2022-06-04T06:38:00Z</time>
      </trkpt>
      <trkpt lat="48.1085300" lon="7.3637900">
        <ele>-233.4</ele>
        <time>2022-06-04T06:38:04Z</time>
      </trkpt>
      <trkpt lat="48.1085300" lon="7.3637900">
        <ele>-233.8</ele>
        <time>2022-06-04T06:38:08Z</time>
      </trkpt>
      <trkpt lat="48.1085300" lon="7.3637900">
        <ele>-233.8</ele>
        <time>2022-06-04T06:38:12Z</time>
      </trkpt>
      <trkpt lat="48.1085300" lon="7.3637900">
        <ele>-233.6</ele>
        <time>2022-06-04T06:38:16Z</time>
      </trkpt>
      <trkpt lat="48.1085300" lon="7.3637900">
        <ele>-233.8</ele>
        <time>2022-06-04T06:38:20Z</time>
      </trkpt>
      <trkpt lat="48.1085300" lon="7.3637900">
        <ele>-233.4</ele>
        <time>2022-06-04T06:38:24Z</time>
      </trkpt>
      <trkpt lat="48.1085300" lon="7.3637900">
        <ele>-234.0</ele>
        <time>2022-06-04T06:38:28Z</time>
      </trkpt>
      <trkpt lat="48.1085300" lon="7.3637900">
        <ele>-234.0</ele>
        <time>2022-06-04T06:38:32Z</time>
      </trkpt>
      <trkpt lat="48.1085300" lon="7.3637900">
        <ele>-234.0</ele>
        <time>2022-06-04T06:38:36Z</time>
      </trkpt>
      <trkpt lat="48.1085300" lon="7.3637900">
        <ele>-234.0</ele>
        <time>2022-06-04T06:38:40Z</time>
      </trkpt>
      <trkpt lat="48.1085300" lon="7.3637900">
        <ele>-234.0</ele>
        <time>2022-06-04T06:38:44Z</time>
      </trkpt>
      <trkpt lat="48.1085300" lon="7.3637900">
        <ele>-234.0</ele>
        <time>2022-06-04T06:38:48Z</time>
      </trkpt>
      <trkpt lat="48.1085430" lon="7.3637310">
        <ele>-233.6</ele>
        <time>2022-06-04T06:38:52Z</time>
      </trkpt>
      <trkpt lat="48.1085110" lon="7.3636910">
        <ele>-233.4</ele>
        <time>2022-06-04T06:38:56Z</time>
      </trkpt>
      <trkpt lat="48.1084830" lon="7.3636730">
        <ele>-233.6</ele>
        <time>2022-06-04T06:39:00Z</time>
      </trkpt>
      <trkpt lat="48.1084830" lon="7.3636730">
        <ele>-232.4</ele>
        <time>2022-06-04T06:39:04Z</time>
      </trkpt>
      <trkpt lat="48.1084830" lon="7.3636730">
        <ele>-232.6</ele>
        <time>2022-06-04T06:39:08Z</time>
      </trkpt>
      <trkpt lat="48.1084830" lon="7.3636730">
        <ele>-233.2</ele>
        <time>2022-06-04T06:39:12Z</time>
      </trkpt>
      <trkpt lat="48.1084830" lon="7.3636730">
        <ele>-233.0</ele>
        <time>2022-06-04T06:39:16Z</time>
      </trkpt>
      <trkpt lat="48.1084830" lon="7.3636730">
        <ele>-232.8</ele>
        <time>2022-06-04T06:39:20Z</time>
      </trkpt>
      <trkpt lat="48.1084830" lon="7.3636730">
        <ele>-233.0</ele>
        <time>2022-06-04T06:39:24Z</time>
      </trkpt>
      <trkpt lat="48.1084830" lon="7.3636730">
        <ele>-233.0</ele>
        <time>2022-06-04T06:39:28Z</time>
      </trkpt>
      <trkpt lat="48.1084830" lon="7.3636730">
        <ele>-233.2</ele>
        <time>2022-06-04T06:39:32Z</time>
      </trkpt>
      <trkpt lat="48.1084830" lon="7.3636730">
        <ele>-233.2</ele>
        <time>2022-06-04T06:39:36Z</time>
      </trkpt>
      <trkpt lat="48.1084610" lon="7.3636450">
        <ele>-233.8</ele>
        <time>2022-06-04T06:39:40Z</time>
      </trkpt>
      <trkpt lat="48.1085330" lon="7.3636960">
        <ele>-233.8</ele>
        <time>2022-06-04T06:39:44Z</time>
      </trkpt>
      <trkpt lat="48.1085330" lon="7.3636960">
        <ele>-234.0</ele>
        <time>2022-06-04T06:39:48Z</time>
      </trkpt>
      <trkpt lat="48.1085330" lon="7.3636960">
        <ele>-234.4</ele>
        <time>2022-06-04T06:39:52Z</time>
      </trkpt>
      <trkpt lat="48.1085330" lon="7.3636960">
        <ele>-234.0</ele>
        <time>2022-06-04T06:39:56Z</time>
      </trkpt>
      <trkpt lat="48.1085330" lon="7.3636960">
        <ele>-234.0</ele>
        <time>2022-06-04T06:40:00Z</time>
      </trkpt>
      <trkpt lat="48.1085330" lon="7.3636960">
        <ele>-234.0</ele>
        <time>2022-06-04T06:40:04Z</time>
      </trkpt>
      <trkpt lat="48.1085330" lon="7.3636960">
        <ele>-233.6</ele>
        <time>2022-06-04T06:40:08Z</time>
      </trkpt>
      <trkpt lat="48.1085330" lon="7.3636960">
        <ele>-234.0</ele>
        <time>2022-06-04T06:40:12Z</time>
      </trkpt>
      <trkpt lat="48.1085330" lon="7.3636960">
        <ele>-234.0</ele>
        <time>2022-06-04T06:40:16Z</time>
      </trkpt>
      <trkpt lat="48.1085330" lon="7.3636960">
        <ele>-234.2</ele>
        <time>2022-06-04T06:40:20Z</time>
      </trkpt>
      <trkpt lat="48.1085330" lon="7.3636960">
        <ele>-234.0</ele>
        <time>2022-06-04T06:40:24Z</time>
      </trkpt>
      <trkpt lat="48.1085330" lon="7.3636960">
        <ele>-234.2</ele>
        <time>2022-06-04T06:40:28Z</time>
      </trkpt>
      <trkpt lat="48.1085330" lon="7.3636960">
        <ele>-234.0</ele>
        <time>2022-06-04T06:40:32Z</time>
      </trkpt>
      <trkpt lat="48.1085330" lon="7.3636960">
        <ele>-234.4</ele>
        <time>2022-06-04T06:40:36Z</time>
      </trkpt>
      <trkpt lat="48.1085330" lon="7.3636960">
        <ele>-234.2</ele>
        <time>2022-06-04T06:40:40Z</time>
      </trkpt>
      <trkpt lat="48.1085330" lon="7.3636960">
        <ele>-234.4</ele>
        <time>2022-06-04T06:40:44Z</time>
      </trkpt>
      <trkpt lat="48.1085330" lon="7.3636960">
        <ele>-234.0</ele>
        <time>2022-06-04T06:40:48Z</time>
      </trkpt>
      <trkpt lat="48.1085330" lon="7.3636960">
        <ele>-234.2</ele>
        <time>2022-06-04T06:40:52Z</time>
      </trkpt>
      <trkpt lat="48.1085330" lon="7.3636960">
        <ele>-234.0</ele>
        <time>2022-06-04T06:40:56Z</time>
      </trkpt>
      <trkpt lat="48.1085330" lon="7.3636960">
        <ele>-234.4</ele>
        <time>2022-06-04T06:41:00Z</time>
      </trkpt>
      <trkpt lat="48.1085330" lon="7.3636960">
        <ele>-234.2</ele>
        <time>2022-06-04T06:41:04Z</time>
      </trkpt>
      <trkpt lat="48.1085330" lon="7.3636960">
        <ele>-234.4</ele>
        <time>2022-06-04T06:41:08Z</time>
      </trkpt>
      <trkpt lat="48.1085330" lon="7.3636960">
        <ele>-234.4</ele>
        <time>2022-06-04T06:41:12Z</time>
      </trkpt>
      <trkpt lat="48.1085330" lon="7.3636960">
        <ele>-234.2</ele>
        <time>2022-06-04T06:41:16Z</time>
      </trkpt>
      <trkpt lat="48.1085330" lon="7.3636960">
        <ele>-234.4</ele>
        <time>2022-06-04T06:41:20Z</time>
      </trkpt>
      <trkpt lat="48.1085330" lon="7.3636960">
        <ele>-234.2</ele>
        <time>2022-06-04T06:41:24Z</time>
      </trkpt>
      <trkpt lat="48.1085330" lon="7.3636960">
        <ele>-234.6</ele>
        <time>2022-06-04T06:41:28Z</time>
      </trkpt>
      <trkpt lat="48.1085330" lon="7.3636960">
        <ele>-234.6</ele>
        <time>2022-06-04T06:41:32Z</time>
      </trkpt>
      <trkpt lat="48.1085330" lon="7.3636960">
        <ele>-234.6</ele>
        <time>2022-06-04T06:41:36Z</time>
      </trkpt>
      <trkpt lat="48.1085330" lon="7.3636960">
        <ele>-234.6</ele>
        <time>2022-06-04T06:41:40Z</time>
      </trkpt>
      <trkpt lat="48.1085330" lon="7.3636960">
        <ele>-234.2</ele>
        <time>2022-06-04T06:41:44Z</time>
      </trkpt>
      <trkpt lat="48.1085330" lon="7.3636960">
        <ele>-234.6</ele>
        <time>2022-06-04T06:41:48Z</time>
      </trkpt>
      <trkpt lat="48.1085330" lon="7.3636960">
        <ele>-234.6</ele>
        <time>2022-06-04T06:41:52Z</time>
      </trkpt>
      <trkpt lat="48.1085330" lon="7.3636960">
        <ele>-234.8</ele>
        <time>2022-06-04T06:41:56Z</time>
      </trkpt>
      <trkpt lat="48.1085330" lon="7.3636960">
        <ele>-234.8</ele>
        <time>2022-06-04T06:42:00Z</time>
      </trkpt>
      <trkpt lat="48.1085330" lon="7.3636960">
        <ele>-235.0</ele>
        <time>2022-06-04T06:42:04Z</time>
      </trkpt>
      <trkpt lat="48.1085330" lon="7.3636960">
        <ele>-234.6</ele>
        <time>2022-06-04T06:42:08Z</time>
      </trkpt>
      <trkpt lat="48.1085330" lon="7.3636960">
        <ele>-234.8</ele>
        <time>2022-06-04T06:42:12Z</time>
      </trkpt>
      <trkpt lat="48.1085330" lon="7.3636960">
        <ele>-234.6</ele>
        <time>2022-06-04T06:42:16Z</time>
      </trkpt>
      <trkpt lat="48.1085330" lon="7.3636960">
        <ele>-234.8</ele>
        <time>2022-06-04T06:42:20Z</time>
      </trkpt>
      <trkpt lat="48.1085330" lon="7.3636960">
        <ele>-234.6</ele>
        <time>2022-06-04T06:42:24Z</time>
      </trkpt>
      <trkpt lat="48.1085330" lon="7.3636960">
        <ele>-235.0</ele>
        <time>2022-06-04T06:42:28Z</time>
      </trkpt>
      <trkpt lat="48.1085330" lon="7.3636960">
        <ele>-234.8</ele>
        <time>2022-06-04T06:42:32Z</time>
      </trkpt>
      <trkpt lat="48.1085330" lon="7.3636960">
        <ele>-235.0</ele>
        <time>2022-06-04T06:42:36Z</time>
      </trkpt>
      <trkpt lat="48.1085330" lon="7.3636960">
        <ele>-234.8</ele>
        <time>2022-06-04T06:42:40Z</time>
      </trkpt>
      <trkpt lat="48.1085330" lon="7.3636960">
        <ele>-235.0</ele>
        <time>2022-06-04T06:42:44Z</time>
      </trkpt>
      <trkpt lat="48.1085330" lon="7.3636960">
        <ele>-235.0</ele>
        <time>2022-06-04T06:42:48Z</time>
      </trkpt>
      <trkpt lat="48.1085330" lon="7.3636960">
        <ele>-235.2</ele>
        <time>2022-06-04T06:42:52Z</time>
      </trkpt>
      <trkpt lat="48.1085330" lon="7.3636960">
        <ele>-235.0</ele>
        <time>2022-06-04T06:42:56Z</time>
      </trkpt>
      <trkpt lat="48.1085730" lon="7.3637400">
        <ele>-235.0</ele>
        <time>2022-06-04T06:43:00Z</time>
      </trkpt>
      <trkpt lat="48.1085810" lon="7.3636960">
        <ele>-235.0</ele>
        <time>2022-06-04T06:43:04Z</time>
      </trkpt>
      <trkpt lat="48.1085810" lon="7.3636260">
        <ele>-235.2</ele>
        <time>2022-06-04T06:43:08Z</time>
      </trkpt>
      <trkpt lat="48.1085410" lon="7.3634960">
        <ele>-235.0</ele>
        <time>2022-06-04T06:43:12Z</time>
      </trkpt>
      <trkpt lat="48.1084360" lon="7.3634030">
        <ele>-235.6</ele>
        <time>2022-06-04T06:43:16Z</time>
      </trkpt>
      <trkpt lat="48.1083210" lon="7.3634410">
        <ele>-235.2</ele>
        <time>2022-06-04T06:43:20Z</time>
      </trkpt>
      <trkpt lat="48.1082550" lon="7.3635300">
        <ele>-234.8</ele>
        <time>2022-06-04T06:43:24Z</time>
      </trkpt>
      <trkpt lat="48.1082200" lon="7.3636200">
        <ele>-234.8</ele>
        <time>2022-06-04T06:43:28Z</time>
      </trkpt>
      <trkpt lat="48.1082250" lon="7.3638280">
        <ele>-235.2</ele>
        <time>2022-06-04T06:43:32Z</time>
      </trkpt>
      <trkpt lat="48.1082900" lon="7.3641330">
        <ele>-235.4</ele>
        <time>2022-06-04T06:43:36Z</time>
      </trkpt>
      <trkpt lat="48.1082930" lon="7.3644810">
        <ele>-236.0</ele>
        <time>2022-06-04T06:43:40Z</time>
      </trkpt>
      <trkpt lat="48.1082650" lon="7.3648380">
        <ele>-236.0</ele>
        <time>2022-06-04T06:43:44Z</time>
      </trkpt>
      <trkpt lat="48.1082310" lon="7.3651880">
        <ele>-236.2</ele>
        <time>2022-06-04T06:43:48Z</time>
      </trkpt>
      <trkpt lat="48.1082050" lon="7.3655380">
        <ele>-236.4</ele>
        <time>2022-06-04T06:43:52Z</time>
      </trkpt>
      <trkpt lat="48.1081680" lon="7.3658810">
        <ele>-236.6</ele>
        <time>2022-06-04T06:43:56Z</time>
      </trkpt>
      <trkpt lat="48.1081360" lon="7.3662160">
        <ele>-236.4</ele>
        <time>2022-06-04T06:44:00Z</time>
      </trkpt>
      <trkpt lat="48.1081080" lon="7.3665450">
        <ele>-236.4</ele>
        <time>2022-06-04T06:44:04Z</time>
      </trkpt>
      <trkpt lat="48.1080800" lon="7.3668650">
        <ele>-236.8</ele>
        <time>2022-06-04T06:44:08Z</time>
      </trkpt>
      <trkpt lat="48.1080530" lon="7.3671750">
        <ele>-236.6</ele>
        <time>2022-06-04T06:44:12Z</time>
      </trkpt>
      <trkpt lat="48.1080250" lon="7.3674880">
        <ele>-237.0</ele>
        <time>2022-06-04T06:44:16Z</time>
      </trkpt>
      <trkpt lat="48.1080000" lon="7.3678030">
        <ele>-237.8</ele>
        <time>2022-06-04T06:44:20Z</time>
      </trkpt>
      <trkpt lat="48.1079730" lon="7.3681160">
        <ele>-237.4</ele>
        <time>2022-06-04T06:44:24Z</time>
      </trkpt>
      <trkpt lat="48.1079480" lon="7.3684260">
        <ele>-238.0</ele>
        <time>2022-06-04T06:44:28Z</time>
      </trkpt>
      <trkpt lat="48.1079210" lon="7.3687400">
        <ele>-237.4</ele>
        <time>2022-06-04T06:44:32Z</time>
      </trkpt>
      <trkpt lat="48.1078930" lon="7.3690600">
        <ele>-237.4</ele>
        <time>2022-06-04T06:44:36Z</time>
      </trkpt>
      <trkpt lat="48.1078630" lon="7.3693860">
        <ele>-238.2</ele>
        <time>2022-06-04T06:44:40Z</time>
      </trkpt>
      <trkpt lat="48.1078380" lon="7.3697030">
        <ele>-237.6</ele>
        <time>2022-06-04T06:44:44Z</time>
      </trkpt>
      <trkpt lat="48.1078100" lon="7.3700280">
        <ele>-238.0</ele>
        <time>2022-06-04T06:44:48Z</time>
      </trkpt>
      <trkpt lat="48.1077900" lon="7.3703130">
        <ele>-238.4</ele>
        <time>2022-06-04T06:44:52Z</time>
      </trkpt>
      <trkpt lat="48.1077650" lon="7.3704210">
        <ele>-238.0</ele>
        <time>2022-06-04T06:44:56Z</time>
      </trkpt>
      <trkpt lat="48.1077650" lon="7.3704210">
        <ele>-238.4</ele>
        <time>2022-06-04T06:45:00Z</time>
      </trkpt>
      <trkpt lat="48.1077660" lon="7.3704450">
        <ele>-238.2</ele>
        <time>2022-06-04T06:45:04Z</time>
      </trkpt>
      <trkpt lat="48.1077500" lon="7.3705730">
        <ele>-237.8</ele>
        <time>2022-06-04T06:45:08Z</time>
      </trkpt>
      <trkpt lat="48.1077160" lon="7.3708000">
        <ele>-238.0</ele>
        <time>2022-06-04T06:45:12Z</time>
      </trkpt>
      <trkpt lat="48.1077000" lon="7.3710760">
        <ele>-238.0</ele>
        <time>2022-06-04T06:45:16Z</time>
      </trkpt>
      <trkpt lat="48.1076800" lon="7.3713460">
        <ele>-237.8</ele>
        <time>2022-06-04T06:45:20Z</time>
      </trkpt>
      <trkpt lat="48.1076700" lon="7.3716080">
        <ele>-237.4</ele>
        <time>2022-06-04T06:45:24Z</time>
      </trkpt>
      <trkpt lat="48.1076500" lon="7.3718700">
        <ele>-237.4</ele>
        <time>2022-06-04T06:45:28Z</time>
      </trkpt>
      <trkpt lat="48.1076260" lon="7.3721310">
        <ele>-237.4</ele>
        <time>2022-06-04T06:45:32Z</time>
      </trkpt>
      <trkpt lat="48.1076030" lon="7.3723910">
        <ele>-237.4</ele>
        <time>2022-06-04T06:45:36Z</time>
      </trkpt>
      <trkpt lat="48.1075780" lon="7.3726530">
        <ele>-237.0</ele>
        <time>2022-06-04T06:45:40Z</time>
      </trkpt>
      <trkpt lat="48.1075530" lon="7.3729180">
        <ele>-237.4</ele>
        <time>2022-06-04T06:45:44Z</time>
      </trkpt>
      <trkpt lat="48.1075310" lon="7.3731760">
        <ele>-237.4</ele>
        <time>2022-06-04T06:45:48Z</time>
      </trkpt>
      <trkpt lat="48.1075100" lon="7.3734160">
        <ele>-237.4</ele>
        <time>2022-06-04T06:45:52Z</time>
      </trkpt>
      <trkpt lat="48.1074850" lon="7.3736660">
        <ele>-238.0</ele>
        <time>2022-06-04T06:45:56Z</time>
      </trkpt>
      <trkpt lat="48.1074610" lon="7.3739230">
        <ele>-238.2</ele>
        <time>2022-06-04T06:46:00Z</time>
      </trkpt>
      <trkpt lat="48.1074410" lon="7.3741850">
        <ele>-237.8</ele>
        <time>2022-06-04T06:46:04Z</time>
      </trkpt>
      <trkpt lat="48.1074180" lon="7.3744480">
        <ele>-238.2</ele>
        <time>2022-06-04T06:46:08Z</time>
      </trkpt>
      <trkpt lat="48.1073980" lon="7.3747080">
        <ele>-238.8</ele>
        <time>2022-06-04T06:46:12Z</time>
      </trkpt>
      <trkpt lat="48.1073730" lon="7.3749780">
        <ele>-238.4</ele>
        <time>2022-06-04T06:46:16Z</time>
      </trkpt>
      <trkpt lat="48.1073500" lon="7.3752480">
        <ele>-238.6</ele>
        <time>2022-06-04T06:46:20Z</time>
      </trkpt>
      <trkpt lat="48.1073260" lon="7.3755180">
        <ele>-238.8</ele>
        <time>2022-06-04T06:46:24Z</time>
      </trkpt>
      <trkpt lat="48.1073060" lon="7.3757810">
        <ele>-238.6</ele>
        <time>2022-06-04T06:46:28Z</time>
      </trkpt>
      <trkpt lat="48.1072750" lon="7.3760400">
        <ele>-239.0</ele>
        <time>2022-06-04T06:46:32Z</time>
      </trkpt>
      <trkpt lat="48.1072730" lon="7.3763300">
        <ele>-239.0</ele>
        <time>2022-06-04T06:46:36Z</time>
      </trkpt>
      <trkpt lat="48.1073050" lon="7.3766380">
        <ele>-239.2</ele>
        <time>2022-06-04T06:46:40Z</time>
      </trkpt>
      <trkpt lat="48.1073200" lon="7.3769560">
        <ele>-239.6</ele>
        <time>2022-06-04T06:46:44Z</time>
      </trkpt>
      <trkpt lat="48.1073350" lon="7.3772800">
        <ele>-239.4</ele>
        <time>2022-06-04T06:46:48Z</time>
      </trkpt>
      <trkpt lat="48.1073550" lon="7.3775950">
        <ele>-239.6</ele>
        <time>2022-06-04T06:46:52Z</time>
      </trkpt>
      <trkpt lat="48.1073700" lon="7.3779080">
        <ele>-238.6</ele>
        <time>2022-06-04T06:46:56Z</time>
      </trkpt>
      <trkpt lat="48.1073830" lon="7.3782150">
        <ele>-238.8</ele>
        <time>2022-06-04T06:47:00Z</time>
      </trkpt>
      <trkpt lat="48.1073950" lon="7.3785160">
        <ele>-238.6</ele>
        <time>2022-06-04T06:47:04Z</time>
      </trkpt>
      <trkpt lat="48.1073880" lon="7.3788210">
        <ele>-239.2</ele>
        <time>2022-06-04T06:47:08Z</time>
      </trkpt>
      <trkpt lat="48.1073150" lon="7.3790850">
        <ele>-238.6</ele>
        <time>2022-06-04T06:47:12Z</time>
      </trkpt>
      <trkpt lat="48.1072600" lon="7.3793630">
        <ele>-238.4</ele>
        <time>2022-06-04T06:47:16Z</time>
      </trkpt>
      <trkpt lat="48.1073350" lon="7.3796350">
        <ele>-238.6</ele>
        <time>2022-06-04T06:47:20Z</time>
      </trkpt>
      <trkpt lat="48.1074510" lon="7.3798810">
        <ele>-238.6</ele>
        <time>2022-06-04T06:47:24Z</time>
      </trkpt>
      <trkpt lat="48.1075010" lon="7.3802000">
        <ele>-239.8</ele>
        <time>2022-06-04T06:47:28Z</time>
      </trkpt>
      <trkpt lat="48.1075310" lon="7.3805260">
        <ele>-239.6</ele>
        <time>2022-06-04T06:47:32Z</time>
      </trkpt>
      <trkpt lat="48.1075410" lon="7.3808400">
        <ele>-239.0</ele>
        <time>2022-06-04T06:47:36Z</time>
      </trkpt>
      <trkpt lat="48.1075430" lon="7.3811300">
        <ele>-237.8</ele>
        <time>2022-06-04T06:47:40Z</time>
      </trkpt>
      <trkpt lat="48.1075400" lon="7.3813950">
        <ele>-236.6</ele>
        <time>2022-06-04T06:47:44Z</time>
      </trkpt>
      <trkpt lat="48.1075300" lon="7.3816400">
        <ele>-235.2</ele>
        <time>2022-06-04T06:47:48Z</time>
      </trkpt>
      <trkpt lat="48.1075210" lon="7.3818680">
        <ele>-234.2</ele>
        <time>2022-06-04T06:47:52Z</time>
      </trkpt>
      <trkpt lat="48.1075110" lon="7.3820950">
        <ele>-233.4</ele>
        <time>2022-06-04T06:47:56Z</time>
      </trkpt>
      <trkpt lat="48.1075060" lon="7.3823200">
        <ele>-232.4</ele>
        <time>2022-06-04T06:48:00Z</time>
      </trkpt>
      <trkpt lat="48.1075000" lon="7.3825530">
        <ele>-232.4</ele>
        <time>2022-06-04T06:48:04Z</time>
      </trkpt>
      <trkpt lat="48.1074950" lon="7.3827930">
        <ele>-232.4</ele>
        <time>2022-06-04T06:48:08Z</time>
      </trkpt>
      <trkpt lat="48.1074860" lon="7.3830430">
        <ele>-232.4</ele>
        <time>2022-06-04T06:48:12Z</time>
      </trkpt>
      <trkpt lat="48.1074730" lon="7.3833060">
        <ele>-232.6</ele>
        <time>2022-06-04T06:48:16Z</time>
      </trkpt>
      <trkpt lat="48.1074460" lon="7.3835980">
        <ele>-233.2</ele>
        <time>2022-06-04T06:48:20Z</time>
      </trkpt>
      <trkpt lat="48.1074060" lon="7.3839480">
        <ele>-235.2</ele>
        <time>2022-06-04T06:48:24Z</time>
      </trkpt>
      <trkpt lat="48.1073650" lon="7.3843610">
        <ele>-237.2</ele>
        <time>2022-06-04T06:48:28Z</time>
      </trkpt>
      <trkpt lat="48.1073100" lon="7.3848060">
        <ele>-236.8</ele>
        <time>2022-06-04T06:48:32Z</time>
      </trkpt>
      <trkpt lat="48.1072500" lon="7.3852330">
        <ele>-238.0</ele>
        <time>2022-06-04T06:48:36Z</time>
      </trkpt>
      <trkpt lat="48.1071760" lon="7.3856160">
        <ele>-237.4</ele>
        <time>2022-06-04T06:48:40Z</time>
      </trkpt>
      <trkpt lat="48.1071080" lon="7.3859600">
        <ele>-236.4</ele>
        <time>2022-06-04T06:48:44Z</time>
      </trkpt>
      <trkpt lat="48.1070280" lon="7.3862710">
        <ele>-235.4</ele>
        <time>2022-06-04T06:48:48Z</time>
      </trkpt>
      <trkpt lat="48.1069460" lon="7.3865750">
        <ele>-235.4</ele>
        <time>2022-06-04T06:48:52Z</time>
      </trkpt>
      <trkpt lat="48.1068600" lon="7.3868580">
        <ele>-235.2</ele>
        <time>2022-06-04T06:48:56Z</time>
      </trkpt>
      <trkpt lat="48.1067780" lon="7.3871410">
        <ele>-235.8</ele>
        <time>2022-06-04T06:49:00Z</time>
      </trkpt>
      <trkpt lat="48.1066910" lon="7.3874380">
        <ele>-235.8</ele>
        <time>2022-06-04T06:49:04Z</time>
      </trkpt>
      <trkpt lat="48.1065960" lon="7.3877610">
        <ele>-236.2</ele>
        <time>2022-06-04T06:49:08Z</time>
      </trkpt>
      <trkpt lat="48.1064950" lon="7.3881200">
        <ele>-236.8</ele>
        <time>2022-06-04T06:49:12Z</time>
      </trkpt>
      <trkpt lat="48.1064030" lon="7.3885030">
        <ele>-238.8</ele>
        <time>2022-06-04T06:49:16Z</time>
      </trkpt>
      <trkpt lat="48.1063600" lon="7.3888960">
        <ele>-238.0</ele>
        <time>2022-06-04T06:49:20Z</time>
      </trkpt>
      <trkpt lat="48.1063500" lon="7.3892860">
        <ele>-238.0</ele>
        <time>2022-06-04T06:49:24Z</time>
      </trkpt>
      <trkpt lat="48.1063850" lon="7.3896560">
        <ele>-238.6</ele>
        <time>2022-06-04T06:49:28Z</time>
      </trkpt>
      <trkpt lat="48.1064610" lon="7.3900100">
        <ele>-238.0</ele>
        <time>2022-06-04T06:49:32Z</time>
      </trkpt>
      <trkpt lat="48.1065630" lon="7.3903400">
        <ele>-238.4</ele>
        <time>2022-06-04T06:49:36Z</time>
      </trkpt>
      <trkpt lat="48.1066780" lon="7.3906600">
        <ele>-238.2</ele>
        <time>2022-06-04T06:49:40Z</time>
      </trkpt>
      <trkpt lat="48.1067980" lon="7.3909750">
        <ele>-238.6</ele>
        <time>2022-06-04T06:49:44Z</time>
      </trkpt>
      <trkpt lat="48.1069200" lon="7.3912950">
        <ele>-238.6</ele>
        <time>2022-06-04T06:49:48Z</time>
      </trkpt>
      <trkpt lat="48.1070380" lon="7.3916100">
        <ele>-239.2</ele>
        <time>2022-06-04T06:49:52Z</time>
      </trkpt>
      <trkpt lat="48.1071610" lon="7.3919280">
        <ele>-238.4</ele>
        <time>2022-06-04T06:49:56Z</time>
      </trkpt>
      <trkpt lat="48.1072810" lon="7.3922460">
        <ele>-238.8</ele>
        <time>2022-06-04T06:50:00Z</time>
      </trkpt>
      <trkpt lat="48.1074010" lon="7.3925680">
        <ele>-238.6</ele>
        <time>2022-06-04T06:50:04Z</time>
      </trkpt>
      <trkpt lat="48.1075230" lon="7.3928930">
        <ele>-239.0</ele>
        <time>2022-06-04T06:50:08Z</time>
      </trkpt>
      <trkpt lat="48.1076450" lon="7.3932200">
        <ele>-238.4</ele>
        <time>2022-06-04T06:50:12Z</time>
      </trkpt>
      <trkpt lat="48.1077650" lon="7.3935430">
        <ele>-238.4</ele>
        <time>2022-06-04T06:50:16Z</time>
      </trkpt>
      <trkpt lat="48.1078850" lon="7.3938580">
        <ele>-238.4</ele>
        <time>2022-06-04T06:50:20Z</time>
      </trkpt>
      <trkpt lat="48.1080050" lon="7.3941750">
        <ele>-238.6</ele>
        <time>2022-06-04T06:50:24Z</time>
      </trkpt>
      <trkpt lat="48.1081260" lon="7.3944930">
        <ele>-238.6</ele>
        <time>2022-06-04T06:50:28Z</time>
      </trkpt>
      <trkpt lat="48.1082430" lon="7.3948110">
        <ele>-238.8</ele>
        <time>2022-06-04T06:50:32Z</time>
      </trkpt>
      <trkpt lat="48.1083600" lon="7.3951260">
        <ele>-239.2</ele>
        <time>2022-06-04T06:50:36Z</time>
      </trkpt>
      <trkpt lat="48.1084760" lon="7.3954300">
        <ele>-238.4</ele>
        <time>2022-06-04T06:50:40Z</time>
      </trkpt>
      <trkpt lat="48.1085910" lon="7.3957380">
        <ele>-239.2</ele>
        <time>2022-06-04T06:50:44Z</time>
      </trkpt>
      <trkpt lat="48.1087100" lon="7.3960480">
        <ele>-239.2</ele>
        <time>2022-06-04T06:50:48Z</time>
      </trkpt>
      <trkpt lat="48.1088310" lon="7.3963600">
        <ele>-239.2</ele>
        <time>2022-06-04T06:50:52Z</time>
      </trkpt>
      <trkpt lat="48.1089510" lon="7.3966760">
        <ele>-238.8</ele>
        <time>2022-06-04T06:50:56Z</time>
      </trkpt>
      <trkpt lat="48.1090700" lon="7.3969910">
        <ele>-239.2</ele>
        <time>2022-06-04T06:51:00Z</time>
      </trkpt>
      <trkpt lat="48.1091900" lon="7.3973110">
        <ele>-239.6</ele>
        <time>2022-06-04T06:51:04Z</time>
      </trkpt>
      <trkpt lat="48.1093050" lon="7.3976350">
        <ele>-239.6</ele>
        <time>2022-06-04T06:51:08Z</time>
      </trkpt>
      <trkpt lat="48.1094080" lon="7.3979650">
        <ele>-239.2</ele>
        <time>2022-06-04T06:51:12Z</time>
      </trkpt>
      <trkpt lat="48.1094960" lon="7.3982980">
        <ele>-239.2</ele>
        <time>2022-06-04T06:51:16Z</time>
      </trkpt>
      <trkpt lat="48.1095800" lon="7.3986260">
        <ele>-239.0</ele>
        <time>2022-06-04T06:51:20Z</time>
      </trkpt>
      <trkpt lat="48.1096650" lon="7.3989530">
        <ele>-238.6</ele>
        <time>2022-06-04T06:51:24Z</time>
      </trkpt>
      <trkpt lat="48.1097480" lon="7.3992830">
        <ele>-239.4</ele>
        <time>2022-06-04T06:51:28Z</time>
      </trkpt>
      <trkpt lat="48.1098330" lon="7.3996110">
        <ele>-239.2</ele>
        <time>2022-06-04T06:51:32Z</time>
      </trkpt>
      <trkpt lat="48.1099200" lon="7.3999500">
        <ele>-239.2</ele>
        <time>2022-06-04T06:51:36Z</time>
      </trkpt>
      <trkpt lat="48.1100050" lon="7.4002850">
        <ele>-239.2</ele>
        <time>2022-06-04T06:51:40Z</time>
      </trkpt>
      <trkpt lat="48.1100900" lon="7.4006130">
        <ele>-239.2</ele>
        <time>2022-06-04T06:51:44Z</time>
      </trkpt>
      <trkpt lat="48.1101750" lon="7.4009480">
        <ele>-238.8</ele>
        <time>2022-06-04T06:51:48Z</time>
      </trkpt>
      <trkpt lat="48.1102630" lon="7.4012760">
        <ele>-239.2</ele>
        <time>2022-06-04T06:51:52Z</time>
      </trkpt>
      <trkpt lat="48.1103510" lon="7.4016110">
        <ele>-239.4</ele>
        <time>2022-06-04T06:51:56Z</time>
      </trkpt>
      <trkpt lat="48.1104360" lon="7.4019480">
        <ele>-239.2</ele>
        <time>2022-06-04T06:52:00Z</time>
      </trkpt>
      <trkpt lat="48.1105230" lon="7.4022800">
        <ele>-239.6</ele>
        <time>2022-06-04T06:52:04Z</time>
      </trkpt>
      <trkpt lat="48.1106110" lon="7.4026110">
        <ele>-239.4</ele>
        <time>2022-06-04T06:52:08Z</time>
      </trkpt>
      <trkpt lat="48.1106960" lon="7.4029430">
        <ele>-239.2</ele>
        <time>2022-06-04T06:52:12Z</time>
      </trkpt>
      <trkpt lat="48.1107780" lon="7.4032660">
        <ele>-239.8</ele>
        <time>2022-06-04T06:52:16Z</time>
      </trkpt>
      <trkpt lat="48.1108600" lon="7.4035780">
        <ele>-239.2</ele>
        <time>2022-06-04T06:52:20Z</time>
      </trkpt>
      <trkpt lat="48.1109380" lon="7.4038960">
        <ele>-239.2</ele>
        <time>2022-06-04T06:52:24Z</time>
      </trkpt>
      <trkpt lat="48.1110210" lon="7.4042080">
        <ele>-239.4</ele>
        <time>2022-06-04T06:52:28Z</time>
      </trkpt>
      <trkpt lat="48.1111030" lon="7.4045160">
        <ele>-239.4</ele>
        <time>2022-06-04T06:52:32Z</time>
      </trkpt>
      <trkpt lat="48.1111810" lon="7.4048350">
        <ele>-239.6</ele>
        <time>2022-06-04T06:52:36Z</time>
      </trkpt>
      <trkpt lat="48.1112630" lon="7.4051610">
        <ele>-239.2</ele>
        <time>2022-06-04T06:52:40Z</time>
      </trkpt>
      <trkpt lat="48.1113430" lon="7.4054900">
        <ele>-239.6</ele>
        <time>2022-06-04T06:52:44Z</time>
      </trkpt>
      <trkpt lat="48.1114150" lon="7.4058200">
        <ele>-239.2</ele>
        <time>2022-06-04T06:52:48Z</time>
      </trkpt>
      <trkpt lat="48.1114730" lon="7.4061600">
        <ele>-239.6</ele>
        <time>2022-06-04T06:52:52Z</time>
      </trkpt>
      <trkpt lat="48.1115180" lon="7.4065050">
        <ele>-239.4</ele>
        <time>2022-06-04T06:52:56Z</time>
      </trkpt>
      <trkpt lat="48.1115480" lon="7.4068530">
        <ele>-239.2</ele>
        <time>2022-06-04T06:53:00Z</time>
      </trkpt>
      <trkpt lat="48.1115650" lon="7.4071980">
        <ele>-240.0</ele>
        <time>2022-06-04T06:53:04Z</time>
      </trkpt>
      <trkpt lat="48.1115660" lon="7.4075380">
        <ele>-239.8</ele>
        <time>2022-06-04T06:53:08Z</time>
      </trkpt>
      <trkpt lat="48.1115560" lon="7.4078760">
        <ele>-239.8</ele>
        <time>2022-06-04T06:53:12Z</time>
      </trkpt>
      <trkpt lat="48.1115360" lon="7.4082080">
        <ele>-239.8</ele>
        <time>2022-06-04T06:53:16Z</time>
      </trkpt>
      <trkpt lat="48.1115080" lon="7.4085350">
        <ele>-240.0</ele>
        <time>2022-06-04T06:53:20Z</time>
      </trkpt>
      <trkpt lat="48.1114750" lon="7.4088630">
        <ele>-239.4</ele>
        <time>2022-06-04T06:53:24Z</time>
      </trkpt>
      <trkpt lat="48.1114460" lon="7.4091860">
        <ele>-239.6</ele>
        <time>2022-06-04T06:53:28Z</time>
      </trkpt>
      <trkpt lat="48.1114160" lon="7.4095110">
        <ele>-239.6</ele>
        <time>2022-06-04T06:53:32Z</time>
      </trkpt>
      <trkpt lat="48.1113830" lon="7.4098430">
        <ele>-240.0</ele>
        <time>2022-06-04T06:53:36Z</time>
      </trkpt>
      <trkpt lat="48.1113500" lon="7.4101750">
        <ele>-240.4</ele>
        <time>2022-06-04T06:53:40Z</time>
      </trkpt>
      <trkpt lat="48.1113200" lon="7.4104950">
        <ele>-240.0</ele>
        <time>2022-06-04T06:53:44Z</time>
      </trkpt>
      <trkpt lat="48.1112880" lon="7.4108060">
        <ele>-240.2</ele>
        <time>2022-06-04T06:53:48Z</time>
      </trkpt>
      <trkpt lat="48.1112600" lon="7.4111160">
        <ele>-240.0</ele>
        <time>2022-06-04T06:53:52Z</time>
      </trkpt>
      <trkpt lat="48.1112280" lon="7.4114210">
        <ele>-240.4</ele>
        <time>2022-06-04T06:53:56Z</time>
      </trkpt>
      <trkpt lat="48.1111960" lon="7.4117300">
        <ele>-240.2</ele>
        <time>2022-06-04T06:54:00Z</time>
      </trkpt>
      <trkpt lat="48.1111580" lon="7.4120450">
        <ele>-240.2</ele>
        <time>2022-06-04T06:54:04Z</time>
      </trkpt>
      <trkpt lat="48.1111210" lon="7.4123430">
        <ele>-240.0</ele>
        <time>2022-06-04T06:54:08Z</time>
      </trkpt>
      <trkpt lat="48.1111050" lon="7.4126400">
        <ele>-239.8</ele>
        <time>2022-06-04T06:54:12Z</time>
      </trkpt>
      <trkpt lat="48.1110760" lon="7.4129360">
        <ele>-240.2</ele>
        <time>2022-06-04T06:54:16Z</time>
      </trkpt>
      <trkpt lat="48.1110400" lon="7.4132380">
        <ele>-240.4</ele>
        <time>2022-06-04T06:54:20Z</time>
      </trkpt>
      <trkpt lat="48.1110150" lon="7.4135430">
        <ele>-240.4</ele>
        <time>2022-06-04T06:54:24Z</time>
      </trkpt>
      <trkpt lat="48.1109750" lon="7.4138500">
        <ele>-240.2</ele>
        <time>2022-06-04T06:54:28Z</time>
      </trkpt>
      <trkpt lat="48.1109430" lon="7.4141460">
        <ele>-240.4</ele>
        <time>2022-06-04T06:54:32Z</time>
      </trkpt>
      <trkpt lat="48.1109080" lon="7.4144350">
        <ele>-240.6</ele>
        <time>2022-06-04T06:54:36Z</time>
      </trkpt>
      <trkpt lat="48.1108650" lon="7.4146910">
        <ele>-240.6</ele>
        <time>2022-06-04T06:54:40Z</time>
      </trkpt>
      <trkpt lat="48.1108160" lon="7.4149450">
        <ele>-240.8</ele>
        <time>2022-06-04T06:54:44Z</time>
      </trkpt>
      <trkpt lat="48.1107500" lon="7.4151960">
        <ele>-241.0</ele>
        <time>2022-06-04T06:54:48Z</time>
      </trkpt>
      <trkpt lat="48.1107410" lon="7.4154480">
        <ele>-241.2</ele>
        <time>2022-06-04T06:54:52Z</time>
      </trkpt>
      <trkpt lat="48.1107650" lon="7.4156930">
        <ele>-240.8</ele>
        <time>2022-06-04T06:54:56Z</time>
      </trkpt>
      <trkpt lat="48.1107700" lon="7.4159760">
        <ele>-240.8</ele>
        <time>2022-06-04T06:55:00Z</time>
      </trkpt>
      <trkpt lat="48.1107330" lon="7.4162630">
        <ele>-240.8</ele>
        <time>2022-06-04T06:55:04Z</time>
      </trkpt>
      <trkpt lat="48.1107010" lon="7.4165500">
        <ele>-240.8</ele>
        <time>2022-06-04T06:55:08Z</time>
      </trkpt>
      <trkpt lat="48.1106860" lon="7.4168430">
        <ele>-241.4</ele>
        <time>2022-06-04T06:55:12Z</time>
      </trkpt>
      <trkpt lat="48.1106600" lon="7.4171250">
        <ele>-240.8</ele>
        <time>2022-06-04T06:55:16Z</time>
      </trkpt>
      <trkpt lat="48.1106400" lon="7.4173910">
        <ele>-240.8</ele>
        <time>2022-06-04T06:55:20Z</time>
      </trkpt>
      <trkpt lat="48.1106210" lon="7.4176500">
        <ele>-240.8</ele>
        <time>2022-06-04T06:55:24Z</time>
      </trkpt>
      <trkpt lat="48.1105980" lon="7.4179080">
        <ele>-241.0</ele>
        <time>2022-06-04T06:55:28Z</time>
      </trkpt>
      <trkpt lat="48.1105730" lon="7.4181530">
        <ele>-240.8</ele>
        <time>2022-06-04T06:55:32Z</time>
      </trkpt>
      <trkpt lat="48.1105530" lon="7.4183480">
        <ele>-240.8</ele>
        <time>2022-06-04T06:55:36Z</time>
      </trkpt>
      <trkpt lat="48.1105580" lon="7.4184730">
        <ele>-240.8</ele>
        <time>2022-06-04T06:55:40Z</time>
      </trkpt>
      <trkpt lat="48.1106330" lon="7.4185800">
        <ele>-241.0</ele>
        <time>2022-06-04T06:55:44Z</time>
      </trkpt>
      <trkpt lat="48.1106300" lon="7.4188230">
        <ele>-240.8</ele>
        <time>2022-06-04T06:55:48Z</time>
      </trkpt>
      <trkpt lat="48.1106210" lon="7.4191010">
        <ele>-241.0</ele>
        <time>2022-06-04T06:55:52Z</time>
      </trkpt>
      <trkpt lat="48.1106110" lon="7.4193900">
        <ele>-241.0</ele>
        <time>2022-06-04T06:55:56Z</time>
      </trkpt>
      <trkpt lat="48.1106050" lon="7.4196810">
        <ele>-241.2</ele>
        <time>2022-06-04T06:56:00Z</time>
      </trkpt>
      <trkpt lat="48.1105960" lon="7.4199780">
        <ele>-241.6</ele>
        <time>2022-06-04T06:56:04Z</time>
      </trkpt>
      <trkpt lat="48.1105880" lon="7.4202750">
        <ele>-240.4</ele>
        <time>2022-06-04T06:56:08Z</time>
      </trkpt>
      <trkpt lat="48.1105860" lon="7.4205650">
        <ele>-241.4</ele>
        <time>2022-06-04T06:56:12Z</time>
      </trkpt>
      <trkpt lat="48.1105780" lon="7.4208500">
        <ele>-241.6</ele>
        <time>2022-06-04T06:56:16Z</time>
      </trkpt>
      <trkpt lat="48.1105630" lon="7.4211310">
        <ele>-241.4</ele>
        <time>2022-06-04T06:56:20Z</time>
      </trkpt>
      <trkpt lat="48.1105550" lon="7.4214160">
        <ele>-242.0</ele>
        <time>2022-06-04T06:56:24Z</time>
      </trkpt>
      <trkpt lat="48.1104830" lon="7.4216160">
        <ele>-241.6</ele>
        <time>2022-06-04T06:56:28Z</time>
      </trkpt>
      <trkpt lat="48.1103150" lon="7.4216250">
        <ele>-241.6</ele>
        <time>2022-06-04T06:56:32Z</time>
      </trkpt>
      <trkpt lat="48.1101330" lon="7.4216100">
        <ele>-241.8</ele>
        <time>2022-06-04T06:56:36Z</time>
      </trkpt>
      <trkpt lat="48.1099550" lon="7.4215930">
        <ele>-242.0</ele>
        <time>2022-06-04T06:56:40Z</time>
      </trkpt>
      <trkpt lat="48.1097800" lon="7.4215810">
        <ele>-241.8</ele>
        <time>2022-06-04T06:56:44Z</time>
      </trkpt>
      <trkpt lat="48.1096060" lon="7.4215760">
        <ele>-241.6</ele>
        <time>2022-06-04T06:56:48Z</time>
      </trkpt>
      <trkpt lat="48.1094360" lon="7.4215200">
        <ele>-242.0</ele>
        <time>2022-06-04T06:56:52Z</time>
      </trkpt>
      <trkpt lat="48.1092680" lon="7.4214480">
        <ele>-241.2</ele>
        <time>2022-06-04T06:56:56Z</time>
      </trkpt>
      <trkpt lat="48.1091010" lon="7.4213850">
        <ele>-241.8</ele>
        <time>2022-06-04T06:57:00Z</time>
      </trkpt>
      <trkpt lat="48.1089330" lon="7.4213250">
        <ele>-241.4</ele>
        <time>2022-06-04T06:57:04Z</time>
      </trkpt>
      <trkpt lat="48.1087700" lon="7.4212480">
        <ele>-240.8</ele>
        <time>2022-06-04T06:57:08Z</time>
      </trkpt>
      <trkpt lat="48.1086080" lon="7.4211810">
        <ele>-241.4</ele>
        <time>2022-06-04T06:57:12Z</time>
      </trkpt>
      <trkpt lat="48.1084580" lon="7.4211230">
        <ele>-241.0</ele>
        <time>2022-06-04T06:57:16Z</time>
      </trkpt>
      <trkpt lat="48.1083660" lon="7.4212750">
        <ele>-241.4</ele>
        <time>2022-06-04T06:57:20Z</time>
      </trkpt>
      <trkpt lat="48.1083030" lon="7.4214810">
        <ele>-241.4</ele>
        <time>2022-06-04T06:57:24Z</time>
      </trkpt>
      <trkpt lat="48.1082360" lon="7.4216950">
        <ele>-241.4</ele>
        <time>2022-06-04T06:57:28Z</time>
      </trkpt>
      <trkpt lat="48.1081800" lon="7.4219180">
        <ele>-240.8</ele>
        <time>2022-06-04T06:57:32Z</time>
      </trkpt>
      <trkpt lat="48.1081280" lon="7.4221430">
        <ele>-240.8</ele>
        <time>2022-06-04T06:57:36Z</time>
      </trkpt>
      <trkpt lat="48.1081130" lon="7.4223930">
        <ele>-241.2</ele>
        <time>2022-06-04T06:57:40Z</time>
      </trkpt>
      <trkpt lat="48.1081250" lon="7.4226480">
        <ele>-241.2</ele>
        <time>2022-06-04T06:57:44Z</time>
      </trkpt>
      <trkpt lat="48.1081260" lon="7.4228930">
        <ele>-240.6</ele>
        <time>2022-06-04T06:57:48Z</time>
      </trkpt>
      <trkpt lat="48.1081130" lon="7.4231350">
        <ele>-241.6</ele>
        <time>2022-06-04T06:57:52Z</time>
      </trkpt>
      <trkpt lat="48.1080560" lon="7.4233510">
        <ele>-241.8</ele>
        <time>2022-06-04T06:57:56Z</time>
      </trkpt>
      <trkpt lat="48.1079880" lon="7.4235630">
        <ele>-241.8</ele>
        <time>2022-06-04T06:58:00Z</time>
      </trkpt>
      <trkpt lat="48.1079180" lon="7.4237730">
        <ele>-241.4</ele>
        <time>2022-06-04T06:58:04Z</time>
      </trkpt>
      <trkpt lat="48.1078410" lon="7.4239810">
        <ele>-241.2</ele>
        <time>2022-06-04T06:58:08Z</time>
      </trkpt>
      <trkpt lat="48.1077660" lon="7.4242030">
        <ele>-241.0</ele>
        <time>2022-06-04T06:58:12Z</time>
      </trkpt>
      <trkpt lat="48.1076930" lon="7.4244130">
        <ele>-241.2</ele>
        <time>2022-06-04T06:58:16Z</time>
      </trkpt>
      <trkpt lat="48.1076200" lon="7.4246280">
        <ele>-241.4</ele>
        <time>2022-06-04T06:58:20Z</time>
      </trkpt>
      <trkpt lat="48.1075450" lon="7.4248430">
        <ele>-241.4</ele>
        <time>2022-06-04T06:58:24Z</time>
      </trkpt>
      <trkpt lat="48.1074730" lon="7.4250650">
        <ele>-241.2</ele>
        <time>2022-06-04T06:58:28Z</time>
      </trkpt>
      <trkpt lat="48.1073980" lon="7.4252730">
        <ele>-240.8</ele>
        <time>2022-06-04T06:58:32Z</time>
      </trkpt>
      <trkpt lat="48.1073300" lon="7.4254850">
        <ele>-240.8</ele>
        <time>2022-06-04T06:58:36Z</time>
      </trkpt>
      <trkpt lat="48.1072700" lon="7.4256900">
        <ele>-240.0</ele>
        <time>2022-06-04T06:58:40Z</time>
      </trkpt>
      <trkpt lat="48.1072200" lon="7.4258730">
        <ele>-240.8</ele>
        <time>2022-06-04T06:58:44Z</time>
      </trkpt>
      <trkpt lat="48.1071660" lon="7.4260680">
        <ele>-240.6</ele>
        <time>2022-06-04T06:58:48Z</time>
      </trkpt>
      <trkpt lat="48.1071130" lon="7.4262780">
        <ele>-240.4</ele>
        <time>2022-06-04T06:58:52Z</time>
      </trkpt>
      <trkpt lat="48.1070510" lon="7.4265080">
        <ele>-240.4</ele>
        <time>2022-06-04T06:58:56Z</time>
      </trkpt>
      <trkpt lat="48.1069880" lon="7.4267430">
        <ele>-240.0</ele>
        <time>2022-06-04T06:59:00Z</time>
      </trkpt>
      <trkpt lat="48.1069280" lon="7.4269760">
        <ele>-240.6</ele>
        <time>2022-06-04T06:59:04Z</time>
      </trkpt>
      <trkpt lat="48.1068660" lon="7.4272050">
        <ele>-240.2</ele>
        <time>2022-06-04T06:59:08Z</time>
      </trkpt>
      <trkpt lat="48.1068060" lon="7.4274250">
        <ele>-239.8</ele>
        <time>2022-06-04T06:59:12Z</time>
      </trkpt>
      <trkpt lat="48.1067430" lon="7.4276450">
        <ele>-240.2</ele>
        <time>2022-06-04T06:59:16Z</time>
      </trkpt>
      <trkpt lat="48.1066760" lon="7.4278350">
        <ele>-240.2</ele>
        <time>2022-06-04T06:59:20Z</time>
      </trkpt>
      <trkpt lat="48.1066110" lon="7.4280280">
        <ele>-240.6</ele>
        <time>2022-06-04T06:59:24Z</time>
      </trkpt>
      <trkpt lat="48.1065350" lon="7.4282380">
        <ele>-240.2</ele>
        <time>2022-06-04T06:59:28Z</time>
      </trkpt>
      <trkpt lat="48.1064680" lon="7.4284530">
        <ele>-240.4</ele>
        <time>2022-06-04T06:59:32Z</time>
      </trkpt>
      <trkpt lat="48.1064050" lon="7.4286600">
        <ele>-240.2</ele>
        <time>2022-06-04T06:59:36Z</time>
      </trkpt>
      <trkpt lat="48.1063480" lon="7.4288610">
        <ele>-240.8</ele>
        <time>2022-06-04T06:59:40Z</time>
      </trkpt>
      <trkpt lat="48.1063060" lon="7.4290510">
        <ele>-240.6</ele>
        <time>2022-06-04T06:59:44Z</time>
      </trkpt>
      <trkpt lat="48.1062000" lon="7.4291350">
        <ele>-240.0</ele>
        <time>2022-06-04T06:59:48Z</time>
      </trkpt>
      <trkpt lat="48.1060630" lon="7.4290300">
        <ele>-240.2</ele>
        <time>2022-06-04T06:59:52Z</time>
      </trkpt>
      <trkpt lat="48.1059230" lon="7.4289200">
        <ele>-239.8</ele>
        <time>2022-06-04T06:59:56Z</time>
      </trkpt>
      <trkpt lat="48.1057830" lon="7.4288330">
        <ele>-239.2</ele>
        <time>2022-06-04T07:00:00Z</time>
      </trkpt>
      <trkpt lat="48.1056610" lon="7.4287000">
        <ele>-240.0</ele>
        <time>2022-06-04T07:00:04Z</time>
      </trkpt>
      <trkpt lat="48.1055230" lon="7.4285800">
        <ele>-240.4</ele>
        <time>2022-06-04T07:00:08Z</time>
      </trkpt>
      <trkpt lat="48.1053510" lon="7.4284450">
        <ele>-240.0</ele>
        <time>2022-06-04T07:00:12Z</time>
      </trkpt>
      <trkpt lat="48.1051830" lon="7.4283060">
        <ele>-239.8</ele>
        <time>2022-06-04T07:00:16Z</time>
      </trkpt>
      <trkpt lat="48.1050330" lon="7.4281760">
        <ele>-239.6</ele>
        <time>2022-06-04T07:00:20Z</time>
      </trkpt>
      <trkpt lat="48.1048880" lon="7.4281300">
        <ele>-239.0</ele>
        <time>2022-06-04T07:00:24Z</time>
      </trkpt>
      <trkpt lat="48.1048060" lon="7.4282550">
        <ele>-240.0</ele>
        <time>2022-06-04T07:00:28Z</time>
      </trkpt>
      <trkpt lat="48.1047910" lon="7.4283410">
        <ele>-239.8</ele>
        <time>2022-06-04T07:00:32Z</time>
      </trkpt>
      <trkpt lat="48.1047860" lon="7.4283260">
        <ele>-239.8</ele>
        <time>2022-06-04T07:00:36Z</time>
      </trkpt>
      <trkpt lat="48.1048160" lon="7.4282460">
        <ele>-240.0</ele>
        <time>2022-06-04T07:00:40Z</time>
      </trkpt>
      <trkpt lat="48.1047500" lon="7.4281210">
        <ele>-240.0</ele>
        <time>2022-06-04T07:00:44Z</time>
      </trkpt>
      <trkpt lat="48.1046150" lon="7.4280010">
        <ele>-239.8</ele>
        <time>2022-06-04T07:00:48Z</time>
      </trkpt>
      <trkpt lat="48.1044660" lon="7.4278750">
        <ele>-239.6</ele>
        <time>2022-06-04T07:00:52Z</time>
      </trkpt>
      <trkpt lat="48.1042980" lon="7.4277900">
        <ele>-239.6</ele>
        <time>2022-06-04T07:00:56Z</time>
      </trkpt>
      <trkpt lat="48.1041160" lon="7.4277850">
        <ele>-238.6</ele>
        <time>2022-06-04T07:01:00Z</time>
      </trkpt>
      <trkpt lat="48.1039710" lon="7.4278410">
        <ele>-238.0</ele>
        <time>2022-06-04T07:01:04Z</time>
      </trkpt>
      <trkpt lat="48.1038510" lon="7.4279110">
        <ele>-236.8</ele>
        <time>2022-06-04T07:01:08Z</time>
      </trkpt>
      <trkpt lat="48.1037180" lon="7.4280000">
        <ele>-236.6</ele>
        <time>2022-06-04T07:01:12Z</time>
      </trkpt>
      <trkpt lat="48.1035850" lon="7.4280650">
        <ele>-235.6</ele>
        <time>2022-06-04T07:01:16Z</time>
      </trkpt>
      <trkpt lat="48.1034700" lon="7.4281110">
        <ele>-234.6</ele>
        <time>2022-06-04T07:01:20Z</time>
      </trkpt>
      <trkpt lat="48.1033650" lon="7.4281500">
        <ele>-234.2</ele>
        <time>2022-06-04T07:01:24Z</time>
      </trkpt>
      <trkpt lat="48.1032800" lon="7.4281780">
        <ele>-234.6</ele>
        <time>2022-06-04T07:01:28Z</time>
      </trkpt>
      <trkpt lat="48.1032280" lon="7.4282130">
        <ele>-234.8</ele>
        <time>2022-06-04T07:01:32Z</time>
      </trkpt>
      <trkpt lat="48.1031860" lon="7.4282560">
        <ele>-235.2</ele>
        <time>2022-06-04T07:01:36Z</time>
      </trkpt>
      <trkpt lat="48.1031860" lon="7.4282560">
        <ele>-235.2</ele>
        <time>2022-06-04T07:01:40Z</time>
      </trkpt>
      <trkpt lat="48.1031750" lon="7.4282680">
        <ele>-235.2</ele>
        <time>2022-06-04T07:01:44Z</time>
      </trkpt>
      <trkpt lat="48.1031280" lon="7.4282550">
        <ele>-235.2</ele>
        <time>2022-06-04T07:01:48Z</time>
      </trkpt>
      <trkpt lat="48.1031450" lon="7.4282660">
        <ele>-234.8</ele>
        <time>2022-06-04T07:01:52Z</time>
      </trkpt>
      <trkpt lat="48.1031780" lon="7.4282530">
        <ele>-235.2</ele>
        <time>2022-06-04T07:01:56Z</time>
      </trkpt>
      <trkpt lat="48.1031780" lon="7.4282530">
        <ele>-235.0</ele>
        <time>2022-06-04T07:02:00Z</time>
      </trkpt>
      <trkpt lat="48.1031780" lon="7.4282530">
        <ele>-235.4</ele>
        <time>2022-06-04T07:02:04Z</time>
      </trkpt>
      <trkpt lat="48.1032100" lon="7.4282710">
        <ele>-236.4</ele>
        <time>2022-06-04T07:02:08Z</time>
      </trkpt>
      <trkpt lat="48.1032250" lon="7.4283000">
        <ele>-238.0</ele>
        <time>2022-06-04T07:02:12Z</time>
      </trkpt>
      <trkpt lat="48.1032580" lon="7.4283550">
        <ele>-237.8</ele>
        <time>2022-06-04T07:02:16Z</time>
      </trkpt>
      <trkpt lat="48.1032630" lon="7.4283960">
        <ele>-238.0</ele>
        <time>2022-06-04T07:02:20Z</time>
      </trkpt>
      <trkpt lat="48.1032900" lon="7.4285260">
        <ele>-237.4</ele>
        <time>2022-06-04T07:02:24Z</time>
      </trkpt>
      <trkpt lat="48.1033310" lon="7.4287200">
        <ele>-237.8</ele>
        <time>2022-06-04T07:02:28Z</time>
      </trkpt>
      <trkpt lat="48.1033780" lon="7.4289680">
        <ele>-237.4</ele>
        <time>2022-06-04T07:02:32Z</time>
      </trkpt>
      <trkpt lat="48.1034410" lon="7.4292560">
        <ele>-237.4</ele>
        <time>2022-06-04T07:02:36Z</time>
      </trkpt>
      <trkpt lat="48.1034960" lon="7.4295630">
        <ele>-237.4</ele>
        <time>2022-06-04T07:02:40Z</time>
      </trkpt>
      <trkpt lat="48.1035530" lon="7.4298480">
        <ele>-237.6</ele>
        <time>2022-06-04T07:02:44Z</time>
      </trkpt>
      <trkpt lat="48.1036200" lon="7.4301380">
        <ele>-237.4</ele>
        <time>2022-06-04T07:02:48Z</time>
      </trkpt>
      <trkpt lat="48.1036830" lon="7.4304210">
        <ele>-237.4</ele>
        <time>2022-06-04T07:02:52Z</time>
      </trkpt>
      <trkpt lat="48.1037410" lon="7.4307060">
        <ele>-237.8</ele>
        <time>2022-06-04T07:02:56Z</time>
      </trkpt>
      <trkpt lat="48.1038050" lon="7.4309860">
        <ele>-237.4</ele>
        <time>2022-06-04T07:03:00Z</time>
      </trkpt>
      <trkpt lat="48.1038650" lon="7.4312630">
        <ele>-237.6</ele>
        <time>2022-06-04T07:03:04Z</time>
      </trkpt>
      <trkpt lat="48.1039200" lon="7.4315450">
        <ele>-237.4</ele>
        <time>2022-06-04T07:03:08Z</time>
      </trkpt>
      <trkpt lat="48.1039830" lon="7.4318160">
        <ele>-237.8</ele>
        <time>2022-06-04T07:03:12Z</time>
      </trkpt>
      <trkpt lat="48.1040410" lon="7.4320930">
        <ele>-237.6</ele>
        <time>2022-06-04T07:03:16Z</time>
      </trkpt>
      <trkpt lat="48.1041060" lon="7.4323710">
        <ele>-237.8</ele>
        <time>2022-06-04T07:03:20Z</time>
      </trkpt>
      <trkpt lat="48.1041650" lon="7.4326560">
        <ele>-237.4</ele>
        <time>2022-06-04T07:03:24Z</time>
      </trkpt>
      <trkpt lat="48.1042300" lon="7.4329280">
        <ele>-237.8</ele>
        <time>2022-06-04T07:03:28Z</time>
      </trkpt>
      <trkpt lat="48.1042850" lon="7.4331710">
        <ele>-237.2</ele>
        <time>2022-06-04T07:03:32Z</time>
      </trkpt>
      <trkpt lat="48.1043330" lon="7.4334160">
        <ele>-236.8</ele>
        <time>2022-06-04T07:03:36Z</time>
      </trkpt>
      <trkpt lat="48.1043750" lon="7.4336660">
        <ele>-237.4</ele>
        <time>2022-06-04T07:03:40Z</time>
      </trkpt>
      <trkpt lat="48.1044010" lon="7.4339210">
        <ele>-237.0</ele>
        <time>2022-06-04T07:03:44Z</time>
      </trkpt>
      <trkpt lat="48.1044260" lon="7.4341800">
        <ele>-237.0</ele>
        <time>2022-06-04T07:03:48Z</time>
      </trkpt>
      <trkpt lat="48.1044460" lon="7.4344460">
        <ele>-237.8</ele>
        <time>2022-06-04T07:03:52Z</time>
      </trkpt>
      <trkpt lat="48.1044730" lon="7.4347210">
        <ele>-237.4</ele>
        <time>2022-06-04T07:03:56Z</time>
      </trkpt>
      <trkpt lat="48.1045000" lon="7.4350030">
        <ele>-237.8</ele>
        <time>2022-06-04T07:04:00Z</time>
      </trkpt>
      <trkpt lat="48.1045230" lon="7.4352830">
        <ele>-237.8</ele>
        <time>2022-06-04T07:04:04Z</time>
      </trkpt>
      <trkpt lat="48.1045410" lon="7.4355680">
        <ele>-237.8</ele>
        <time>2022-06-04T07:04:08Z</time>
      </trkpt>
      <trkpt lat="48.1045550" lon="7.4358530">
        <ele>-238.0</ele>
        <time>2022-06-04T07:04:12Z</time>
      </trkpt>
      <trkpt lat="48.1045830" lon="7.4361280">
        <ele>-237.4</ele>
        <time>2022-06-04T07:04:16Z</time>
      </trkpt>
      <trkpt lat="48.1046060" lon="7.4364130">
        <ele>-237.4</ele>
        <time>2022-06-04T07:04:20Z</time>
      </trkpt>
      <trkpt lat="48.1046350" lon="7.4366930">
        <ele>-236.6</ele>
        <time>2022-06-04T07:04:24Z</time>
      </trkpt>
      <trkpt lat="48.1046660" lon="7.4369610">
        <ele>-236.4</ele>
        <time>2022-06-04T07:04:28Z</time>
      </trkpt>
      <trkpt lat="48.1046900" lon="7.4372280">
        <ele>-236.6</ele>
        <time>2022-06-04T07:04:32Z</time>
      </trkpt>
      <trkpt lat="48.1047050" lon="7.4374930">
        <ele>-236.8</ele>
        <time>2022-06-04T07:04:36Z</time>
      </trkpt>
      <trkpt lat="48.1047100" lon="7.4377600">
        <ele>-236.6</ele>
        <time>2022-06-04T07:04:40Z</time>
      </trkpt>
      <trkpt lat="48.1047160" lon="7.4380130">
        <ele>-236.6</ele>
        <time>2022-06-04T07:04:44Z</time>
      </trkpt>
      <trkpt lat="48.1047700" lon="7.4382210">
        <ele>-237.2</ele>
        <time>2022-06-04T07:04:48Z</time>
      </trkpt>
      <trkpt lat="48.1047100" lon="7.4384600">
        <ele>-236.8</ele>
        <time>2022-06-04T07:04:52Z</time>
      </trkpt>
      <trkpt lat="48.1047110" lon="7.4386960">
        <ele>-236.4</ele>
        <time>2022-06-04T07:04:56Z</time>
      </trkpt>
      <trkpt lat="48.1047010" lon="7.4388730">
        <ele>-236.2</ele>
        <time>2022-06-04T07:05:00Z</time>
      </trkpt>
      <trkpt lat="48.1047160" lon="7.4391010">
        <ele>-236.4</ele>
        <time>2022-06-04T07:05:04Z</time>
      </trkpt>
      <trkpt lat="48.1047400" lon="7.4394030">
        <ele>-236.8</ele>
        <time>2022-06-04T07:05:08Z</time>
      </trkpt>
      <trkpt lat="48.1047680" lon="7.4396980">
        <ele>-236.4</ele>
        <time>2022-06-04T07:05:12Z</time>
      </trkpt>
      <trkpt lat="48.1047800" lon="7.4399930">
        <ele>-237.2</ele>
        <time>2022-06-04T07:05:16Z</time>
      </trkpt>
      <trkpt lat="48.1047900" lon="7.4402800">
        <ele>-236.6</ele>
        <time>2022-06-04T07:05:20Z</time>
      </trkpt>
      <trkpt lat="48.1047910" lon="7.4405680">
        <ele>-236.6</ele>
        <time>2022-06-04T07:05:24Z</time>
      </trkpt>
      <trkpt lat="48.1047960" lon="7.4408460">
        <ele>-236.8</ele>
        <time>2022-06-04T07:05:28Z</time>
      </trkpt>
      <trkpt lat="48.1047680" lon="7.4410960">
        <ele>-238.4</ele>
        <time>2022-06-04T07:05:32Z</time>
      </trkpt>
      <trkpt lat="48.1047480" lon="7.4414780">
        <ele>-238.6</ele>
        <time>2022-06-04T07:05:36Z</time>
      </trkpt>
      <trkpt lat="48.1047600" lon="7.4418530">
        <ele>-238.2</ele>
        <time>2022-06-04T07:05:40Z</time>
      </trkpt>
      <trkpt lat="48.1047750" lon="7.4421810">
        <ele>-239.2</ele>
        <time>2022-06-04T07:05:44Z</time>
      </trkpt>
      <trkpt lat="48.1047900" lon="7.4425000">
        <ele>-239.0</ele>
        <time>2022-06-04T07:05:48Z</time>
      </trkpt>
      <trkpt lat="48.1048230" lon="7.4428030">
        <ele>-238.4</ele>
        <time>2022-06-04T07:05:52Z</time>
      </trkpt>
      <trkpt lat="48.1048310" lon="7.4431410">
        <ele>-238.4</ele>
        <time>2022-06-04T07:05:56Z</time>
      </trkpt>
      <trkpt lat="48.1048480" lon="7.4434560">
        <ele>-238.4</ele>
        <time>2022-06-04T07:06:00Z</time>
      </trkpt>
      <trkpt lat="48.1048650" lon="7.4437600">
        <ele>-238.2</ele>
        <time>2022-06-04T07:06:04Z</time>
      </trkpt>
      <trkpt lat="48.1048760" lon="7.4440730">
        <ele>-237.4</ele>
        <time>2022-06-04T07:06:08Z</time>
      </trkpt>
      <trkpt lat="48.1049150" lon="7.4443660">
        <ele>-236.8</ele>
        <time>2022-06-04T07:06:12Z</time>
      </trkpt>
      <trkpt lat="48.1049510" lon="7.4446180">
        <ele>-236.4</ele>
        <time>2022-06-04T07:06:16Z</time>
      </trkpt>
      <trkpt lat="48.1049510" lon="7.4448930">
        <ele>-236.6</ele>
        <time>2022-06-04T07:06:20Z</time>
      </trkpt>
      <trkpt lat="48.1049530" lon="7.4451750">
        <ele>-236.6</ele>
        <time>2022-06-04T07:06:24Z</time>
      </trkpt>
      <trkpt lat="48.1049630" lon="7.4454560">
        <ele>-236.4</ele>
        <time>2022-06-04T07:06:28Z</time>
      </trkpt>
      <trkpt lat="48.1049610" lon="7.4457350">
        <ele>-236.6</ele>
        <time>2022-06-04T07:06:32Z</time>
      </trkpt>
      <trkpt lat="48.1049710" lon="7.4460130">
        <ele>-236.2</ele>
        <time>2022-06-04T07:06:36Z</time>
      </trkpt>
      <trkpt lat="48.1049860" lon="7.4462910">
        <ele>-236.6</ele>
        <time>2022-06-04T07:06:40Z</time>
      </trkpt>
      <trkpt lat="48.1049960" lon="7.4465750">
        <ele>-236.2</ele>
        <time>2022-06-04T07:06:44Z</time>
      </trkpt>
      <trkpt lat="48.1050100" lon="7.4468600">
        <ele>-236.6</ele>
        <time>2022-06-04T07:06:48Z</time>
      </trkpt>
      <trkpt lat="48.1050210" lon="7.4471400">
        <ele>-236.4</ele>
        <time>2022-06-04T07:06:52Z</time>
      </trkpt>
      <trkpt lat="48.1050380" lon="7.4474150">
        <ele>-236.8</ele>
        <time>2022-06-04T07:06:56Z</time>
      </trkpt>
      <trkpt lat="48.1050510" lon="7.4477060">
        <ele>-236.8</ele>
        <time>2022-06-04T07:07:00Z</time>
      </trkpt>
      <trkpt lat="48.1050600" lon="7.4479960">
        <ele>-236.8</ele>
        <time>2022-06-04T07:07:04Z</time>
      </trkpt>
      <trkpt lat="48.1050960" lon="7.4482730">
        <ele>-236.6</ele>
        <time>2022-06-04T07:07:08Z</time>
      </trkpt>
      <trkpt lat="48.1051460" lon="7.4485480">
        <ele>-236.6</ele>
        <time>2022-06-04T07:07:12Z</time>
      </trkpt>
      <trkpt lat="48.1051380" lon="7.4488230">
        <ele>-236.6</ele>
        <time>2022-06-04T07:07:16Z</time>
      </trkpt>
      <trkpt lat="48.1051100" lon="7.4490530">
        <ele>-237.0</ele>
        <time>2022-06-04T07:07:20Z</time>
      </trkpt>
      <trkpt lat="48.1051100" lon="7.4493110">
        <ele>-236.8</ele>
        <time>2022-06-04T07:07:24Z</time>
      </trkpt>
      <trkpt lat="48.1051230" lon="7.4495910">
        <ele>-237.2</ele>
        <time>2022-06-04T07:07:28Z</time>
      </trkpt>
      <trkpt lat="48.1051260" lon="7.4498760">
        <ele>-238.4</ele>
        <time>2022-06-04T07:07:32Z</time>
      </trkpt>
      <trkpt lat="48.1050610" lon="7.4501660">
        <ele>-239.0</ele>
        <time>2022-06-04T07:07:36Z</time>
      </trkpt>
      <trkpt lat="48.1050680" lon="7.4505280">
        <ele>-238.6</ele>
        <time>2022-06-04T07:07:40Z</time>
      </trkpt>
      <trkpt lat="48.1050930" lon="7.4508680">
        <ele>-238.8</ele>
        <time>2022-06-04T07:07:44Z</time>
      </trkpt>
      <trkpt lat="48.1051150" lon="7.4511910">
        <ele>-239.2</ele>
        <time>2022-06-04T07:07:48Z</time>
      </trkpt>
      <trkpt lat="48.1051280" lon="7.4514910">
        <ele>-238.8</ele>
        <time>2022-06-04T07:07:52Z</time>
      </trkpt>
      <trkpt lat="48.1051600" lon="7.4517880">
        <ele>-238.4</ele>
        <time>2022-06-04T07:07:56Z</time>
      </trkpt>
      <trkpt lat="48.1051710" lon="7.4520800">
        <ele>-238.2</ele>
        <time>2022-06-04T07:08:00Z</time>
      </trkpt>
      <trkpt lat="48.1051800" lon="7.4523700">
        <ele>-238.8</ele>
        <time>2022-06-04T07:08:04Z</time>
      </trkpt>
      <trkpt lat="48.1051800" lon="7.4526600">
        <ele>-238.4</ele>
        <time>2022-06-04T07:08:08Z</time>
      </trkpt>
      <trkpt lat="48.1051930" lon="7.4529500">
        <ele>-238.4</ele>
        <time>2022-06-04T07:08:12Z</time>
      </trkpt>
      <trkpt lat="48.1051960" lon="7.4532400">
        <ele>-238.6</ele>
        <time>2022-06-04T07:08:16Z</time>
      </trkpt>
      <trkpt lat="48.1052030" lon="7.4535280">
        <ele>-238.6</ele>
        <time>2022-06-04T07:08:20Z</time>
      </trkpt>
      <trkpt lat="48.1052410" lon="7.4537930">
        <ele>-237.4</ele>
        <time>2022-06-04T07:08:24Z</time>
      </trkpt>
      <trkpt lat="48.1052850" lon="7.4539950">
        <ele>-237.2</ele>
        <time>2022-06-04T07:08:28Z</time>
      </trkpt>
      <trkpt lat="48.1053210" lon="7.4542250">
        <ele>-236.4</ele>
        <time>2022-06-04T07:08:32Z</time>
      </trkpt>
      <trkpt lat="48.1053000" lon="7.4545010">
        <ele>-236.4</ele>
        <time>2022-06-04T07:08:36Z</time>
      </trkpt>
      <trkpt lat="48.1053150" lon="7.4547780">
        <ele>-236.8</ele>
        <time>2022-06-04T07:08:40Z</time>
      </trkpt>
      <trkpt lat="48.1053250" lon="7.4550530">
        <ele>-235.8</ele>
        <time>2022-06-04T07:08:44Z</time>
      </trkpt>
      <trkpt lat="48.1053380" lon="7.4553260">
        <ele>-235.8</ele>
        <time>2022-06-04T07:08:48Z</time>
      </trkpt>
      <trkpt lat="48.1053460" lon="7.4555960">
        <ele>-235.6</ele>
        <time>2022-06-04T07:08:52Z</time>
      </trkpt>
      <trkpt lat="48.1053610" lon="7.4558660">
        <ele>-236.2</ele>
        <time>2022-06-04T07:08:56Z</time>
      </trkpt>
      <trkpt lat="48.1053700" lon="7.4561410">
        <ele>-235.8</ele>
        <time>2022-06-04T07:09:00Z</time>
      </trkpt>
      <trkpt lat="48.1053750" lon="7.4564100">
        <ele>-236.8</ele>
        <time>2022-06-04T07:09:04Z</time>
      </trkpt>
      <trkpt lat="48.1053010" lon="7.4566560">
        <ele>-237.8</ele>
        <time>2022-06-04T07:09:08Z</time>
      </trkpt>
      <trkpt lat="48.1052210" lon="7.4569660">
        <ele>-238.4</ele>
        <time>2022-06-04T07:09:12Z</time>
      </trkpt>
      <trkpt lat="48.1052230" lon="7.4572850">
        <ele>-238.4</ele>
        <time>2022-06-04T07:09:16Z</time>
      </trkpt>
      <trkpt lat="48.1052300" lon="7.4576030">
        <ele>-239.2</ele>
        <time>2022-06-04T07:09:20Z</time>
      </trkpt>
      <trkpt lat="48.1052050" lon="7.4579210">
        <ele>-238.2</ele>
        <time>2022-06-04T07:09:24Z</time>
      </trkpt>
      <trkpt lat="48.1051730" lon="7.4582130">
        <ele>-238.6</ele>
        <time>2022-06-04T07:09:28Z</time>
      </trkpt>
      <trkpt lat="48.1051280" lon="7.4585000">
        <ele>-238.2</ele>
        <time>2022-06-04T07:09:32Z</time>
      </trkpt>
      <trkpt lat="48.1050800" lon="7.4587910">
        <ele>-238.8</ele>
        <time>2022-06-04T07:09:36Z</time>
      </trkpt>
      <trkpt lat="48.1050250" lon="7.4590910">
        <ele>-238.8</ele>
        <time>2022-06-04T07:09:40Z</time>
      </trkpt>
      <trkpt lat="48.1049660" lon="7.4593900">
        <ele>-238.4</ele>
        <time>2022-06-04T07:09:44Z</time>
      </trkpt>
      <trkpt lat="48.1049160" lon="7.4596830">
        <ele>-238.8</ele>
        <time>2022-06-04T07:09:48Z</time>
      </trkpt>
      <trkpt lat="48.1048850" lon="7.4599600">
        <ele>-238.6</ele>
        <time>2022-06-04T07:09:52Z</time>
      </trkpt>
      <trkpt lat="48.1049430" lon="7.4601960">
        <ele>-238.2</ele>
        <time>2022-06-04T07:09:56Z</time>
      </trkpt>
      <trkpt lat="48.1051130" lon="7.4603080">
        <ele>-238.6</ele>
        <time>2022-06-04T07:10:00Z</time>
      </trkpt>
      <trkpt lat="48.1053080" lon="7.4603860">
        <ele>-237.4</ele>
        <time>2022-06-04T07:10:04Z</time>
      </trkpt>
      <trkpt lat="48.1054830" lon="7.4604750">
        <ele>-236.4</ele>
        <time>2022-06-04T07:10:08Z</time>
      </trkpt>
      <trkpt lat="48.1055380" lon="7.4606910">
        <ele>-236.2</ele>
        <time>2022-06-04T07:10:12Z</time>
      </trkpt>
      <trkpt lat="48.1055410" lon="7.4609500">
        <ele>-236.6</ele>
        <time>2022-06-04T07:10:16Z</time>
      </trkpt>
      <trkpt lat="48.1055450" lon="7.4612300">
        <ele>-236.4</ele>
        <time>2022-06-04T07:10:20Z</time>
      </trkpt>
      <trkpt lat="48.1055510" lon="7.4615160">
        <ele>-236.4</ele>
        <time>2022-06-04T07:10:24Z</time>
      </trkpt>
      <trkpt lat="48.1055610" lon="7.4618050">
        <ele>-236.4</ele>
        <time>2022-06-04T07:10:28Z</time>
      </trkpt>
      <trkpt lat="48.1055750" lon="7.4620910">
        <ele>-236.0</ele>
        <time>2022-06-04T07:10:32Z</time>
      </trkpt>
      <trkpt lat="48.1055830" lon="7.4623760">
        <ele>-236.6</ele>
        <time>2022-06-04T07:10:36Z</time>
      </trkpt>
      <trkpt lat="48.1055980" lon="7.4626630">
        <ele>-236.2</ele>
        <time>2022-06-04T07:10:40Z</time>
      </trkpt>
      <trkpt lat="48.1056050" lon="7.4629460">
        <ele>-235.8</ele>
        <time>2022-06-04T07:10:44Z</time>
      </trkpt>
      <trkpt lat="48.1056160" lon="7.4632230">
        <ele>-236.4</ele>
        <time>2022-06-04T07:10:48Z</time>
      </trkpt>
      <trkpt lat="48.1056230" lon="7.4635150">
        <ele>-236.4</ele>
        <time>2022-06-04T07:10:52Z</time>
      </trkpt>
      <trkpt lat="48.1056410" lon="7.4638110">
        <ele>-236.8</ele>
        <time>2022-06-04T07:10:56Z</time>
      </trkpt>
      <trkpt lat="48.1056530" lon="7.4640960">
        <ele>-236.6</ele>
        <time>2022-06-04T07:11:00Z</time>
      </trkpt>
      <trkpt lat="48.1056630" lon="7.4643730">
        <ele>-236.4</ele>
        <time>2022-06-04T07:11:04Z</time>
      </trkpt>
      <trkpt lat="48.1056650" lon="7.4646550">
        <ele>-236.4</ele>
        <time>2022-06-04T07:11:08Z</time>
      </trkpt>
      <trkpt lat="48.1056710" lon="7.4649360">
        <ele>-236.6</ele>
        <time>2022-06-04T07:11:12Z</time>
      </trkpt>
      <trkpt lat="48.1056880" lon="7.4652200">
        <ele>-236.6</ele>
        <time>2022-06-04T07:11:16Z</time>
      </trkpt>
      <trkpt lat="48.1056960" lon="7.4655010">
        <ele>-236.4</ele>
        <time>2022-06-04T07:11:20Z</time>
      </trkpt>
      <trkpt lat="48.1057100" lon="7.4657760">
        <ele>-236.2</ele>
        <time>2022-06-04T07:11:24Z</time>
      </trkpt>
      <trkpt lat="48.1057150" lon="7.4660580">
        <ele>-236.0</ele>
        <time>2022-06-04T07:11:28Z</time>
      </trkpt>
      <trkpt lat="48.1057280" lon="7.4663400">
        <ele>-236.2</ele>
        <time>2022-06-04T07:11:32Z</time>
      </trkpt>
      <trkpt lat="48.1057310" lon="7.4666230">
        <ele>-236.4</ele>
        <time>2022-06-04T07:11:36Z</time>
      </trkpt>
      <trkpt lat="48.1057430" lon="7.4669010">
        <ele>-236.4</ele>
        <time>2022-06-04T07:11:40Z</time>
      </trkpt>
      <trkpt lat="48.1057550" lon="7.4671680">
        <ele>-236.6</ele>
        <time>2022-06-04T07:11:44Z</time>
      </trkpt>
      <trkpt lat="48.1057850" lon="7.4674230">
        <ele>-236.4</ele>
        <time>2022-06-04T07:11:48Z</time>
      </trkpt>
      <trkpt lat="48.1057880" lon="7.4676880">
        <ele>-236.6</ele>
        <time>2022-06-04T07:11:52Z</time>
      </trkpt>
      <trkpt lat="48.1057910" lon="7.4679650">
        <ele>-236.4</ele>
        <time>2022-06-04T07:11:56Z</time>
      </trkpt>
      <trkpt lat="48.1058000" lon="7.4682480">
        <ele>-236.6</ele>
        <time>2022-06-04T07:12:00Z</time>
      </trkpt>
      <trkpt lat="48.1058100" lon="7.4685450">
        <ele>-236.8</ele>
        <time>2022-06-04T07:12:04Z</time>
      </trkpt>
      <trkpt lat="48.1058230" lon="7.4688410">
        <ele>-236.4</ele>
        <time>2022-06-04T07:12:08Z</time>
      </trkpt>
      <trkpt lat="48.1058280" lon="7.4691380">
        <ele>-236.4</ele>
        <time>2022-06-04T07:12:12Z</time>
      </trkpt>
      <trkpt lat="48.1058300" lon="7.4694280">
        <ele>-236.0</ele>
        <time>2022-06-04T07:12:16Z</time>
      </trkpt>
      <trkpt lat="48.1058400" lon="7.4697030">
        <ele>-236.2</ele>
        <time>2022-06-04T07:12:20Z</time>
      </trkpt>
      <trkpt lat="48.1058410" lon="7.4699480">
        <ele>-236.4</ele>
        <time>2022-06-04T07:12:24Z</time>
      </trkpt>
      <trkpt lat="48.1058960" lon="7.4701660">
        <ele>-236.6</ele>
        <time>2022-06-04T07:12:28Z</time>
      </trkpt>
      <trkpt lat="48.1058910" lon="7.4704110">
        <ele>-237.0</ele>
        <time>2022-06-04T07:12:32Z</time>
      </trkpt>
      <trkpt lat="48.1058630" lon="7.4706950">
        <ele>-236.8</ele>
        <time>2022-06-04T07:12:36Z</time>
      </trkpt>
      <trkpt lat="48.1058810" lon="7.4709860">
        <ele>-236.4</ele>
        <time>2022-06-04T07:12:40Z</time>
      </trkpt>
      <trkpt lat="48.1058910" lon="7.4712810">
        <ele>-236.4</ele>
        <time>2022-06-04T07:12:44Z</time>
      </trkpt>
      <trkpt lat="48.1059030" lon="7.4715660">
        <ele>-237.0</ele>
        <time>2022-06-04T07:12:48Z</time>
      </trkpt>
      <trkpt lat="48.1059410" lon="7.4718280">
        <ele>-236.8</ele>
        <time>2022-06-04T07:12:52Z</time>
      </trkpt>
      <trkpt lat="48.1059180" lon="7.4721060">
        <ele>-237.0</ele>
        <time>2022-06-04T07:12:56Z</time>
      </trkpt>
      <trkpt lat="48.1059310" lon="7.4723980">
        <ele>-236.8</ele>
        <time>2022-06-04T07:13:00Z</time>
      </trkpt>
      <trkpt lat="48.1059460" lon="7.4726880">
        <ele>-236.8</ele>
        <time>2022-06-04T07:13:04Z</time>
      </trkpt>
      <trkpt lat="48.1059630" lon="7.4729850">
        <ele>-236.6</ele>
        <time>2022-06-04T07:13:08Z</time>
      </trkpt>
      <trkpt lat="48.1059710" lon="7.4732780">
        <ele>-236.8</ele>
        <time>2022-06-04T07:13:12Z</time>
      </trkpt>
      <trkpt lat="48.1059860" lon="7.4735700">
        <ele>-236.8</ele>
        <time>2022-06-04T07:13:16Z</time>
      </trkpt>
      <trkpt lat="48.1059950" lon="7.4738530">
        <ele>-236.6</ele>
        <time>2022-06-04T07:13:20Z</time>
      </trkpt>
      <trkpt lat="48.1060060" lon="7.4741360">
        <ele>-236.6</ele>
        <time>2022-06-04T07:13:24Z</time>
      </trkpt>
      <trkpt lat="48.1060180" lon="7.4744280">
        <ele>-236.6</ele>
        <time>2022-06-04T07:13:28Z</time>
      </trkpt>
      <trkpt lat="48.1060260" lon="7.4747250">
        <ele>-237.2</ele>
        <time>2022-06-04T07:13:32Z</time>
      </trkpt>
      <trkpt lat="48.1060350" lon="7.4750200">
        <ele>-237.2</ele>
        <time>2022-06-04T07:13:36Z</time>
      </trkpt>
      <trkpt lat="48.1060530" lon="7.4753150">
        <ele>-236.4</ele>
        <time>2022-06-04T07:13:40Z</time>
      </trkpt>
      <trkpt lat="48.1060710" lon="7.4756100">
        <ele>-236.4</ele>
        <time>2022-06-04T07:13:44Z</time>
      </trkpt>
      <trkpt lat="48.1060800" lon="7.4759050">
        <ele>-236.6</ele>
        <time>2022-06-04T07:13:48Z</time>
      </trkpt>
      <trkpt lat="48.1060780" lon="7.4761960">
        <ele>-237.0</ele>
        <time>2022-06-04T07:13:52Z</time>
      </trkpt>
      <trkpt lat="48.1060930" lon="7.4764880">
        <ele>-237.0</ele>
        <time>2022-06-04T07:13:56Z</time>
      </trkpt>
      <trkpt lat="48.1061080" lon="7.4767730">
        <ele>-236.8</ele>
        <time>2022-06-04T07:14:00Z</time>
      </trkpt>
      <trkpt lat="48.1061210" lon="7.4770600">
        <ele>-236.6</ele>
        <time>2022-06-04T07:14:04Z</time>
      </trkpt>
      <trkpt lat="48.1061310" lon="7.4773530">
        <ele>-236.8</ele>
        <time>2022-06-04T07:14:08Z</time>
      </trkpt>
      <trkpt lat="48.1061500" lon="7.4776430">
        <ele>-236.6</ele>
        <time>2022-06-04T07:14:12Z</time>
      </trkpt>
      <trkpt lat="48.1061560" lon="7.4779280">
        <ele>-236.8</ele>
        <time>2022-06-04T07:14:16Z</time>
      </trkpt>
      <trkpt lat="48.1061630" lon="7.4782130">
        <ele>-236.8</ele>
        <time>2022-06-04T07:14:20Z</time>
      </trkpt>
      <trkpt lat="48.1061710" lon="7.4784950">
        <ele>-237.2</ele>
        <time>2022-06-04T07:14:24Z</time>
      </trkpt>
      <trkpt lat="48.1061830" lon="7.4787780">
        <ele>-237.0</ele>
        <time>2022-06-04T07:14:28Z</time>
      </trkpt>
      <trkpt lat="48.1061910" lon="7.4790600">
        <ele>-236.8</ele>
        <time>2022-06-04T07:14:32Z</time>
      </trkpt>
      <trkpt lat="48.1062050" lon="7.4793430">
        <ele>-237.2</ele>
        <time>2022-06-04T07:14:36Z</time>
      </trkpt>
      <trkpt lat="48.1062010" lon="7.4796310">
        <ele>-236.8</ele>
        <time>2022-06-04T07:14:40Z</time>
      </trkpt>
      <trkpt lat="48.1062080" lon="7.4799180">
        <ele>-236.6</ele>
        <time>2022-06-04T07:14:44Z</time>
      </trkpt>
      <trkpt lat="48.1062260" lon="7.4802060">
        <ele>-236.8</ele>
        <time>2022-06-04T07:14:48Z</time>
      </trkpt>
      <trkpt lat="48.1062380" lon="7.4804900">
        <ele>-236.6</ele>
        <time>2022-06-04T07:14:52Z</time>
      </trkpt>
      <trkpt lat="48.1062500" lon="7.4807660">
        <ele>-236.6</ele>
        <time>2022-06-04T07:14:56Z</time>
      </trkpt>
      <trkpt lat="48.1062600" lon="7.4810410">
        <ele>-237.4</ele>
        <time>2022-06-04T07:15:00Z</time>
      </trkpt>
      <trkpt lat="48.1062650" lon="7.4813200">
        <ele>-237.2</ele>
        <time>2022-06-04T07:15:04Z</time>
      </trkpt>
      <trkpt lat="48.1062700" lon="7.4816030">
        <ele>-236.6</ele>
        <time>2022-06-04T07:15:08Z</time>
      </trkpt>
      <trkpt lat="48.1062810" lon="7.4818860">
        <ele>-236.6</ele>
        <time>2022-06-04T07:15:12Z</time>
      </trkpt>
      <trkpt lat="48.1062880" lon="7.4821710">
        <ele>-237.4</ele>
        <time>2022-06-04T07:15:16Z</time>
      </trkpt>
      <trkpt lat="48.1063760" lon="7.4824000">
        <ele>-236.8</ele>
        <time>2022-06-04T07:15:20Z</time>
      </trkpt>
      <trkpt lat="48.1063210" lon="7.4826310">
        <ele>-236.8</ele>
        <time>2022-06-04T07:15:24Z</time>
      </trkpt>
      <trkpt lat="48.1063230" lon="7.4828830">
        <ele>-236.8</ele>
        <time>2022-06-04T07:15:28Z</time>
      </trkpt>
      <trkpt lat="48.1063310" lon="7.4831610">
        <ele>-237.2</ele>
        <time>2022-06-04T07:15:32Z</time>
      </trkpt>
      <trkpt lat="48.1063360" lon="7.4834360">
        <ele>-237.0</ele>
        <time>2022-06-04T07:15:36Z</time>
      </trkpt>
      <trkpt lat="48.1063510" lon="7.4837160">
        <ele>-237.2</ele>
        <time>2022-06-04T07:15:40Z</time>
      </trkpt>
      <trkpt lat="48.1063600" lon="7.4840030">
        <ele>-237.0</ele>
        <time>2022-06-04T07:15:44Z</time>
      </trkpt>
      <trkpt lat="48.1063680" lon="7.4842780">
        <ele>-237.4</ele>
        <time>2022-06-04T07:15:48Z</time>
      </trkpt>
      <trkpt lat="48.1063730" lon="7.4845530">
        <ele>-237.4</ele>
        <time>2022-06-04T07:15:52Z</time>
      </trkpt>
      <trkpt lat="48.1063710" lon="7.4848380">
        <ele>-237.4</ele>
        <time>2022-06-04T07:15:56Z</time>
      </trkpt>
      <trkpt lat="48.1063850" lon="7.4851250">
        <ele>-237.4</ele>
        <time>2022-06-04T07:16:00Z</time>
      </trkpt>
      <trkpt lat="48.1063930" lon="7.4854100">
        <ele>-237.4</ele>
        <time>2022-06-04T07:16:04Z</time>
      </trkpt>
      <trkpt lat="48.1063880" lon="7.4856960">
        <ele>-237.4</ele>
        <time>2022-06-04T07:16:08Z</time>
      </trkpt>
      <trkpt lat="48.1064030" lon="7.4859800">
        <ele>-237.6</ele>
        <time>2022-06-04T07:16:12Z</time>
      </trkpt>
      <trkpt lat="48.1064210" lon="7.4862700">
        <ele>-237.0</ele>
        <time>2022-06-04T07:16:16Z</time>
      </trkpt>
      <trkpt lat="48.1064380" lon="7.4865580">
        <ele>-237.2</ele>
        <time>2022-06-04T07:16:20Z</time>
      </trkpt>
      <trkpt lat="48.1064510" lon="7.4868410">
        <ele>-237.0</ele>
        <time>2022-06-04T07:16:24Z</time>
      </trkpt>
      <trkpt lat="48.1064580" lon="7.4871280">
        <ele>-237.6</ele>
        <time>2022-06-04T07:16:28Z</time>
      </trkpt>
      <trkpt lat="48.1064650" lon="7.4873980">
        <ele>-237.4</ele>
        <time>2022-06-04T07:16:32Z</time>
      </trkpt>
      <trkpt lat="48.1064800" lon="7.4876730">
        <ele>-237.2</ele>
        <time>2022-06-04T07:16:36Z</time>
      </trkpt>
      <trkpt lat="48.1064930" lon="7.4879550">
        <ele>-237.2</ele>
        <time>2022-06-04T07:16:40Z</time>
      </trkpt>
      <trkpt lat="48.1065010" lon="7.4882380">
        <ele>-237.4</ele>
        <time>2022-06-04T07:16:44Z</time>
      </trkpt>
      <trkpt lat="48.1065150" lon="7.4885250">
        <ele>-237.6</ele>
        <time>2022-06-04T07:16:48Z</time>
      </trkpt>
      <trkpt lat="48.1065250" lon="7.4888110">
        <ele>-237.2</ele>
        <time>2022-06-04T07:16:52Z</time>
      </trkpt>
      <trkpt lat="48.1065350" lon="7.4891010">
        <ele>-237.4</ele>
        <time>2022-06-04T07:16:56Z</time>
      </trkpt>
      <trkpt lat="48.1065450" lon="7.4893900">
        <ele>-237.4</ele>
        <time>2022-06-04T07:17:00Z</time>
      </trkpt>
      <trkpt lat="48.1065600" lon="7.4896700">
        <ele>-237.2</ele>
        <time>2022-06-04T07:17:04Z</time>
      </trkpt>
      <trkpt lat="48.1065730" lon="7.4899460">
        <ele>-236.8</ele>
        <time>2022-06-04T07:17:08Z</time>
      </trkpt>
      <trkpt lat="48.1065830" lon="7.4902330">
        <ele>-236.8</ele>
        <time>2022-06-04T07:17:12Z</time>
      </trkpt>
      <trkpt lat="48.1065930" lon="7.4905300">
        <ele>-237.4</ele>
        <time>2022-06-04T07:17:16Z</time>
      </trkpt>
      <trkpt lat="48.1065950" lon="7.4908260">
        <ele>-237.4</ele>
        <time>2022-06-04T07:17:20Z</time>
      </trkpt>
      <trkpt lat="48.1066080" lon="7.4911160">
        <ele>-237.8</ele>
        <time>2022-06-04T07:17:24Z</time>
      </trkpt>
      <trkpt lat="48.1066130" lon="7.4914010">
        <ele>-237.2</ele>
        <time>2022-06-04T07:17:28Z</time>
      </trkpt>
      <trkpt lat="48.1066250" lon="7.4916760">
        <ele>-237.2</ele>
        <time>2022-06-04T07:17:32Z</time>
      </trkpt>
      <trkpt lat="48.1066310" lon="7.4919580">
        <ele>-237.4</ele>
        <time>2022-06-04T07:17:36Z</time>
      </trkpt>
      <trkpt lat="48.1066400" lon="7.4922330">
        <ele>-237.4</ele>
        <time>2022-06-04T07:17:40Z</time>
      </trkpt>
      <trkpt lat="48.1066460" lon="7.4925130">
        <ele>-237.4</ele>
        <time>2022-06-04T07:17:44Z</time>
      </trkpt>
      <trkpt lat="48.1066530" lon="7.4927960">
        <ele>-237.6</ele>
        <time>2022-06-04T07:17:48Z</time>
      </trkpt>
      <trkpt lat="48.1066710" lon="7.4930710">
        <ele>-237.2</ele>
        <time>2022-06-04T07:17:52Z</time>
      </trkpt>
      <trkpt lat="48.1066630" lon="7.4933400">
        <ele>-237.4</ele>
        <time>2022-06-04T07:17:56Z</time>
      </trkpt>
      <trkpt lat="48.1066730" lon="7.4936210">
        <ele>-237.2</ele>
        <time>2022-06-04T07:18:00Z</time>
      </trkpt>
      <trkpt lat="48.1066800" lon="7.4939100">
        <ele>-237.2</ele>
        <time>2022-06-04T07:18:04Z</time>
      </trkpt>
      <trkpt lat="48.1066980" lon="7.4941950">
        <ele>-237.6</ele>
        <time>2022-06-04T07:18:08Z</time>
      </trkpt>
      <trkpt lat="48.1067760" lon="7.4944210">
        <ele>-237.4</ele>
        <time>2022-06-04T07:18:12Z</time>
      </trkpt>
      <trkpt lat="48.1067280" lon="7.4946550">
        <ele>-237.4</ele>
        <time>2022-06-04T07:18:16Z</time>
      </trkpt>
      <trkpt lat="48.1067130" lon="7.4949180">
        <ele>-238.2</ele>
        <time>2022-06-04T07:18:20Z</time>
      </trkpt>
      <trkpt lat="48.1066630" lon="7.4951910">
        <ele>-238.4</ele>
        <time>2022-06-04T07:18:24Z</time>
      </trkpt>
      <trkpt lat="48.1066810" lon="7.4955030">
        <ele>-238.2</ele>
        <time>2022-06-04T07:18:28Z</time>
      </trkpt>
      <trkpt lat="48.1066900" lon="7.4958110">
        <ele>-238.8</ele>
        <time>2022-06-04T07:18:32Z</time>
      </trkpt>
      <trkpt lat="48.1066910" lon="7.4961050">
        <ele>-238.8</ele>
        <time>2022-06-04T07:18:36Z</time>
      </trkpt>
      <trkpt lat="48.1066800" lon="7.4964010">
        <ele>-238.8</ele>
        <time>2022-06-04T07:18:40Z</time>
      </trkpt>
      <trkpt lat="48.1067110" lon="7.4966930">
        <ele>-238.4</ele>
        <time>2022-06-04T07:18:44Z</time>
      </trkpt>
      <trkpt lat="48.1067310" lon="7.4969880">
        <ele>-238.6</ele>
        <time>2022-06-04T07:18:48Z</time>
      </trkpt>
      <trkpt lat="48.1067510" lon="7.4972800">
        <ele>-238.0</ele>
        <time>2022-06-04T07:18:52Z</time>
      </trkpt>
      <trkpt lat="48.1067630" lon="7.4975660">
        <ele>-238.4</ele>
        <time>2022-06-04T07:18:56Z</time>
      </trkpt>
      <trkpt lat="48.1067730" lon="7.4978510">
        <ele>-238.4</ele>
        <time>2022-06-04T07:19:00Z</time>
      </trkpt>
      <trkpt lat="48.1067950" lon="7.4981380">
        <ele>-238.4</ele>
        <time>2022-06-04T07:19:04Z</time>
      </trkpt>
      <trkpt lat="48.1068010" lon="7.4984260">
        <ele>-238.6</ele>
        <time>2022-06-04T07:19:08Z</time>
      </trkpt>
      <trkpt lat="48.1068100" lon="7.4987050">
        <ele>-238.2</ele>
        <time>2022-06-04T07:19:12Z</time>
      </trkpt>
      <trkpt lat="48.1068150" lon="7.4989910">
        <ele>-238.2</ele>
        <time>2022-06-04T07:19:16Z</time>
      </trkpt>
      <trkpt lat="48.1068250" lon="7.4992710">
        <ele>-238.8</ele>
        <time>2022-06-04T07:19:20Z</time>
      </trkpt>
      <trkpt lat="48.1068380" lon="7.4995460">
        <ele>-238.4</ele>
        <time>2022-06-04T07:19:24Z</time>
      </trkpt>
      <trkpt lat="48.1068450" lon="7.4998250">
        <ele>-238.8</ele>
        <time>2022-06-04T07:19:28Z</time>
      </trkpt>
      <trkpt lat="48.1068630" lon="7.5001030">
        <ele>-238.2</ele>
        <time>2022-06-04T07:19:32Z</time>
      </trkpt>
      <trkpt lat="48.1068730" lon="7.5003830">
        <ele>-238.4</ele>
        <time>2022-06-04T07:19:36Z</time>
      </trkpt>
      <trkpt lat="48.1068780" lon="7.5006650">
        <ele>-238.6</ele>
        <time>2022-06-04T07:19:40Z</time>
      </trkpt>
      <trkpt lat="48.1068830" lon="7.5009430">
        <ele>-238.4</ele>
        <time>2022-06-04T07:19:44Z</time>
      </trkpt>
      <trkpt lat="48.1069430" lon="7.5011900">
        <ele>-237.2</ele>
        <time>2022-06-04T07:19:48Z</time>
      </trkpt>
      <trkpt lat="48.1069830" lon="7.5014030">
        <ele>-237.4</ele>
        <time>2022-06-04T07:19:52Z</time>
      </trkpt>
      <trkpt lat="48.1069900" lon="7.5016700">
        <ele>-236.8</ele>
        <time>2022-06-04T07:19:56Z</time>
      </trkpt>
      <trkpt lat="48.1069980" lon="7.5019430">
        <ele>-237.2</ele>
        <time>2022-06-04T07:20:00Z</time>
      </trkpt>
      <trkpt lat="48.1070110" lon="7.5022180">
        <ele>-237.0</ele>
        <time>2022-06-04T07:20:04Z</time>
      </trkpt>
      <trkpt lat="48.1070050" lon="7.5024860">
        <ele>-237.0</ele>
        <time>2022-06-04T07:20:08Z</time>
      </trkpt>
      <trkpt lat="48.1069960" lon="7.5027500">
        <ele>-237.4</ele>
        <time>2022-06-04T07:20:12Z</time>
      </trkpt>
      <trkpt lat="48.1069950" lon="7.5030010">
        <ele>-236.8</ele>
        <time>2022-06-04T07:20:16Z</time>
      </trkpt>
      <trkpt lat="48.1070030" lon="7.5032650">
        <ele>-236.8</ele>
        <time>2022-06-04T07:20:20Z</time>
      </trkpt>
      <trkpt lat="48.1070110" lon="7.5035400">
        <ele>-237.2</ele>
        <time>2022-06-04T07:20:24Z</time>
      </trkpt>
      <trkpt lat="48.1070130" lon="7.5038230">
        <ele>-236.6</ele>
        <time>2022-06-04T07:20:28Z</time>
      </trkpt>
      <trkpt lat="48.1070330" lon="7.5041050">
        <ele>-236.6</ele>
        <time>2022-06-04T07:20:32Z</time>
      </trkpt>
      <trkpt lat="48.1070450" lon="7.5043900">
        <ele>-236.8</ele>
        <time>2022-06-04T07:20:36Z</time>
      </trkpt>
      <trkpt lat="48.1070610" lon="7.5046710">
        <ele>-236.6</ele>
        <time>2022-06-04T07:20:40Z</time>
      </trkpt>
      <trkpt lat="48.1070780" lon="7.5049450">
        <ele>-236.8</ele>
        <time>2022-06-04T07:20:44Z</time>
      </trkpt>
      <trkpt lat="48.1070910" lon="7.5052200">
        <ele>-236.6</ele>
        <time>2022-06-04T07:20:48Z</time>
      </trkpt>
      <trkpt lat="48.1071110" lon="7.5054910">
        <ele>-236.6</ele>
        <time>2022-06-04T07:20:52Z</time>
      </trkpt>
      <trkpt lat="48.1071260" lon="7.5057580">
        <ele>-236.8</ele>
        <time>2022-06-04T07:20:56Z</time>
      </trkpt>
      <trkpt lat="48.1071380" lon="7.5060250">
        <ele>-236.6</ele>
        <time>2022-06-04T07:21:00Z</time>
      </trkpt>
      <trkpt lat="48.1071500" lon="7.5062910">
        <ele>-236.6</ele>
        <time>2022-06-04T07:21:04Z</time>
      </trkpt>
      <trkpt lat="48.1071730" lon="7.5065710">
        <ele>-236.6</ele>
        <time>2022-06-04T07:21:08Z</time>
      </trkpt>
      <trkpt lat="48.1071750" lon="7.5068460">
        <ele>-236.6</ele>
        <time>2022-06-04T07:21:12Z</time>
      </trkpt>
      <trkpt lat="48.1071880" lon="7.5071110">
        <ele>-236.8</ele>
        <time>2022-06-04T07:21:16Z</time>
      </trkpt>
      <trkpt lat="48.1071900" lon="7.5073800">
        <ele>-236.8</ele>
        <time>2022-06-04T07:21:20Z</time>
      </trkpt>
      <trkpt lat="48.1071960" lon="7.5076480">
        <ele>-236.6</ele>
        <time>2022-06-04T07:21:24Z</time>
      </trkpt>
      <trkpt lat="48.1072010" lon="7.5079210">
        <ele>-236.6</ele>
        <time>2022-06-04T07:21:28Z</time>
      </trkpt>
      <trkpt lat="48.1072300" lon="7.5081780">
        <ele>-237.4</ele>
        <time>2022-06-04T07:21:32Z</time>
      </trkpt>
      <trkpt lat="48.1072900" lon="7.5084100">
        <ele>-238.0</ele>
        <time>2022-06-04T07:21:36Z</time>
      </trkpt>
      <trkpt lat="48.1072350" lon="7.5086430">
        <ele>-237.2</ele>
        <time>2022-06-04T07:21:40Z</time>
      </trkpt>
      <trkpt lat="48.1072400" lon="7.5089150">
        <ele>-238.0</ele>
        <time>2022-06-04T07:21:44Z</time>
      </trkpt>
      <trkpt lat="48.1072730" lon="7.5091700">
        <ele>-237.4</ele>
        <time>2022-06-04T07:21:48Z</time>
      </trkpt>
      <trkpt lat="48.1072560" lon="7.5094680">
        <ele>-237.2</ele>
        <time>2022-06-04T07:21:52Z</time>
      </trkpt>
      <trkpt lat="48.1072660" lon="7.5097610">
        <ele>-237.4</ele>
        <time>2022-06-04T07:21:56Z</time>
      </trkpt>
      <trkpt lat="48.1072730" lon="7.5100660">
        <ele>-237.2</ele>
        <time>2022-06-04T07:22:00Z</time>
      </trkpt>
      <trkpt lat="48.1072610" lon="7.5103560">
        <ele>-238.0</ele>
        <time>2022-06-04T07:22:04Z</time>
      </trkpt>
      <trkpt lat="48.1072660" lon="7.5106610">
        <ele>-237.4</ele>
        <time>2022-06-04T07:22:08Z</time>
      </trkpt>
      <trkpt lat="48.1072930" lon="7.5109630">
        <ele>-237.8</ele>
        <time>2022-06-04T07:22:12Z</time>
      </trkpt>
      <trkpt lat="48.1073060" lon="7.5112510">
        <ele>-237.6</ele>
        <time>2022-06-04T07:22:16Z</time>
      </trkpt>
      <trkpt lat="48.1073210" lon="7.5115330">
        <ele>-237.4</ele>
        <time>2022-06-04T07:22:20Z</time>
      </trkpt>
      <trkpt lat="48.1073150" lon="7.5118160">
        <ele>-238.0</ele>
        <time>2022-06-04T07:22:24Z</time>
      </trkpt>
      <trkpt lat="48.1073360" lon="7.5121050">
        <ele>-238.0</ele>
        <time>2022-06-04T07:22:28Z</time>
      </trkpt>
      <trkpt lat="48.1073500" lon="7.5124000">
        <ele>-238.0</ele>
        <time>2022-06-04T07:22:32Z</time>
      </trkpt>
      <trkpt lat="48.1073600" lon="7.5126900">
        <ele>-237.2</ele>
        <time>2022-06-04T07:22:36Z</time>
      </trkpt>
      <trkpt lat="48.1073610" lon="7.5129750">
        <ele>-237.8</ele>
        <time>2022-06-04T07:22:40Z</time>
      </trkpt>
      <trkpt lat="48.1073810" lon="7.5132610">
        <ele>-237.8</ele>
        <time>2022-06-04T07:22:44Z</time>
      </trkpt>
      <trkpt lat="48.1073910" lon="7.5135500">
        <ele>-237.4</ele>
        <time>2022-06-04T07:22:48Z</time>
      </trkpt>
      <trkpt lat="48.1074060" lon="7.5138460">
        <ele>-237.4</ele>
        <time>2022-06-04T07:22:52Z</time>
      </trkpt>
      <trkpt lat="48.1074200" lon="7.5141510">
        <ele>-237.6</ele>
        <time>2022-06-04T07:22:56Z</time>
      </trkpt>
      <trkpt lat="48.1074400" lon="7.5144560">
        <ele>-238.0</ele>
        <time>2022-06-04T07:23:00Z</time>
      </trkpt>
      <trkpt lat="48.1074510" lon="7.5147500">
        <ele>-237.4</ele>
        <time>2022-06-04T07:23:04Z</time>
      </trkpt>
      <trkpt lat="48.1074500" lon="7.5150410">
        <ele>-238.0</ele>
        <time>2022-06-04T07:23:08Z</time>
      </trkpt>
      <trkpt lat="48.1074750" lon="7.5153330">
        <ele>-237.4</ele>
        <time>2022-06-04T07:23:12Z</time>
      </trkpt>
      <trkpt lat="48.1074850" lon="7.5156230">
        <ele>-238.0</ele>
        <time>2022-06-04T07:23:16Z</time>
      </trkpt>
      <trkpt lat="48.1074830" lon="7.5159150">
        <ele>-237.4</ele>
        <time>2022-06-04T07:23:20Z</time>
      </trkpt>
      <trkpt lat="48.1074860" lon="7.5162080">
        <ele>-237.4</ele>
        <time>2022-06-04T07:23:24Z</time>
      </trkpt>
      <trkpt lat="48.1075010" lon="7.5164950">
        <ele>-237.4</ele>
        <time>2022-06-04T07:23:28Z</time>
      </trkpt>
      <trkpt lat="48.1075160" lon="7.5167910">
        <ele>-238.0</ele>
        <time>2022-06-04T07:23:32Z</time>
      </trkpt>
      <trkpt lat="48.1075360" lon="7.5170930">
        <ele>-238.2</ele>
        <time>2022-06-04T07:23:36Z</time>
      </trkpt>
      <trkpt lat="48.1075460" lon="7.5173900">
        <ele>-238.6</ele>
        <time>2022-06-04T07:23:40Z</time>
      </trkpt>
      <trkpt lat="48.1075580" lon="7.5176760">
        <ele>-237.4</ele>
        <time>2022-06-04T07:23:44Z</time>
      </trkpt>
      <trkpt lat="48.1075610" lon="7.5179630">
        <ele>-237.2</ele>
        <time>2022-06-04T07:23:48Z</time>
      </trkpt>
      <trkpt lat="48.1075760" lon="7.5182530">
        <ele>-237.4</ele>
        <time>2022-06-04T07:23:52Z</time>
      </trkpt>
      <trkpt lat="48.1075810" lon="7.5185460">
        <ele>-237.8</ele>
        <time>2022-06-04T07:23:56Z</time>
      </trkpt>
      <trkpt lat="48.1075900" lon="7.5188330">
        <ele>-237.4</ele>
        <time>2022-06-04T07:24:00Z</time>
      </trkpt>
      <trkpt lat="48.1075980" lon="7.5191150">
        <ele>-237.4</ele>
        <time>2022-06-04T07:24:04Z</time>
      </trkpt>
      <trkpt lat="48.1076100" lon="7.5193980">
        <ele>-238.0</ele>
        <time>2022-06-04T07:24:08Z</time>
      </trkpt>
      <trkpt lat="48.1076260" lon="7.5196900">
        <ele>-237.4</ele>
        <time>2022-06-04T07:24:12Z</time>
      </trkpt>
      <trkpt lat="48.1076400" lon="7.5199780">
        <ele>-237.2</ele>
        <time>2022-06-04T07:24:16Z</time>
      </trkpt>
      <trkpt lat="48.1076460" lon="7.5202630">
        <ele>-237.4</ele>
        <time>2022-06-04T07:24:20Z</time>
      </trkpt>
      <trkpt lat="48.1076600" lon="7.5205460">
        <ele>-237.8</ele>
        <time>2022-06-04T07:24:24Z</time>
      </trkpt>
      <trkpt lat="48.1076700" lon="7.5208330">
        <ele>-237.2</ele>
        <time>2022-06-04T07:24:28Z</time>
      </trkpt>
      <trkpt lat="48.1076780" lon="7.5211300">
        <ele>-237.8</ele>
        <time>2022-06-04T07:24:32Z</time>
      </trkpt>
      <trkpt lat="48.1076880" lon="7.5214360">
        <ele>-237.8</ele>
        <time>2022-06-04T07:24:36Z</time>
      </trkpt>
      <trkpt lat="48.1077000" lon="7.5217350">
        <ele>-237.6</ele>
        <time>2022-06-04T07:24:40Z</time>
      </trkpt>
      <trkpt lat="48.1077180" lon="7.5220230">
        <ele>-237.0</ele>
        <time>2022-06-04T07:24:44Z</time>
      </trkpt>
      <trkpt lat="48.1077280" lon="7.5223160">
        <ele>-237.0</ele>
        <time>2022-06-04T07:24:48Z</time>
      </trkpt>
      <trkpt lat="48.1077380" lon="7.5226060">
        <ele>-236.8</ele>
        <time>2022-06-04T07:24:52Z</time>
      </trkpt>
      <trkpt lat="48.1077410" lon="7.5228910">
        <ele>-236.8</ele>
        <time>2022-06-04T07:24:56Z</time>
      </trkpt>
      <trkpt lat="48.1077530" lon="7.5231760">
        <ele>-237.2</ele>
        <time>2022-06-04T07:25:00Z</time>
      </trkpt>
      <trkpt lat="48.1077630" lon="7.5234760">
        <ele>-237.0</ele>
        <time>2022-06-04T07:25:04Z</time>
      </trkpt>
      <trkpt lat="48.1077700" lon="7.5237700">
        <ele>-236.8</ele>
        <time>2022-06-04T07:25:08Z</time>
      </trkpt>
      <trkpt lat="48.1077850" lon="7.5240580">
        <ele>-237.0</ele>
        <time>2022-06-04T07:25:12Z</time>
      </trkpt>
      <trkpt lat="48.1077980" lon="7.5243510">
        <ele>-236.8</ele>
        <time>2022-06-04T07:25:16Z</time>
      </trkpt>
      <trkpt lat="48.1078150" lon="7.5246510">
        <ele>-237.4</ele>
        <time>2022-06-04T07:25:20Z</time>
      </trkpt>
      <trkpt lat="48.1078160" lon="7.5249380">
        <ele>-237.4</ele>
        <time>2022-06-04T07:25:24Z</time>
      </trkpt>
      <trkpt lat="48.1078130" lon="7.5252150">
        <ele>-237.2</ele>
        <time>2022-06-04T07:25:28Z</time>
      </trkpt>
      <trkpt lat="48.1078210" lon="7.5253830">
        <ele>-237.4</ele>
        <time>2022-06-04T07:25:32Z</time>
      </trkpt>
      <trkpt lat="48.1078210" lon="7.5253830">
        <ele>-237.8</ele>
        <time>2022-06-04T07:25:36Z</time>
      </trkpt>
      <trkpt lat="48.1078210" lon="7.5253830">
        <ele>-237.6</ele>
        <time>2022-06-04T07:25:40Z</time>
      </trkpt>
      <trkpt lat="48.1078210" lon="7.5253830">
        <ele>-238.0</ele>
        <time>2022-06-04T07:25:44Z</time>
      </trkpt>
      <trkpt lat="48.1078210" lon="7.5253830">
        <ele>-237.4</ele>
        <time>2022-06-04T07:25:48Z</time>
      </trkpt>
      <trkpt lat="48.1078210" lon="7.5253830">
        <ele>-237.8</ele>
        <time>2022-06-04T07:25:52Z</time>
      </trkpt>
      <trkpt lat="48.1078210" lon="7.5253830">
        <ele>-237.4</ele>
        <time>2022-06-04T07:25:56Z</time>
      </trkpt>
      <trkpt lat="48.1078210" lon="7.5253830">
        <ele>-237.8</ele>
        <time>2022-06-04T07:26:00Z</time>
      </trkpt>
      <trkpt lat="48.1078210" lon="7.5253830">
        <ele>-237.4</ele>
        <time>2022-06-04T07:26:04Z</time>
      </trkpt>
      <trkpt lat="48.1078210" lon="7.5253830">
        <ele>-238.0</ele>
        <time>2022-06-04T07:26:08Z</time>
      </trkpt>
      <trkpt lat="48.1078650" lon="7.5254460">
        <ele>-237.8</ele>
        <time>2022-06-04T07:26:12Z</time>
      </trkpt>
      <trkpt lat="48.1078650" lon="7.5254460">
        <ele>-238.0</ele>
        <time>2022-06-04T07:26:16Z</time>
      </trkpt>
      <trkpt lat="48.1078650" lon="7.5254460">
        <ele>-237.4</ele>
        <time>2022-06-04T07:26:20Z</time>
      </trkpt>
      <trkpt lat="48.1078650" lon="7.5254460">
        <ele>-237.4</ele>
        <time>2022-06-04T07:26:24Z</time>
      </trkpt>
      <trkpt lat="48.1078780" lon="7.5254900">
        <ele>-237.8</ele>
        <time>2022-06-04T07:26:28Z</time>
      </trkpt>
      <trkpt lat="48.1078900" lon="7.5255930">
        <ele>-238.0</ele>
        <time>2022-06-04T07:26:32Z</time>
      </trkpt>
      <trkpt lat="48.1078880" lon="7.5257360">
        <ele>-237.8</ele>
        <time>2022-06-04T07:26:36Z</time>
      </trkpt>
      <trkpt lat="48.1078850" lon="7.5258980">
        <ele>-237.6</ele>
        <time>2022-06-04T07:26:40Z</time>
      </trkpt>
      <trkpt lat="48.1078760" lon="7.5260810">
        <ele>-237.8</ele>
        <time>2022-06-04T07:26:44Z</time>
      </trkpt>
      <trkpt lat="48.1078830" lon="7.5262960">
        <ele>-237.2</ele>
        <time>2022-06-04T07:26:48Z</time>
      </trkpt>
      <trkpt lat="48.1078760" lon="7.5265150">
        <ele>-236.8</ele>
        <time>2022-06-04T07:26:52Z</time>
      </trkpt>
      <trkpt lat="48.1078530" lon="7.5267230">
        <ele>-236.6</ele>
        <time>2022-06-04T07:26:56Z</time>
      </trkpt>
      <trkpt lat="48.1078450" lon="7.5269150">
        <ele>-235.6</ele>
        <time>2022-06-04T07:27:00Z</time>
      </trkpt>
      <trkpt lat="48.1078280" lon="7.5271000">
        <ele>-234.8</ele>
        <time>2022-06-04T07:27:04Z</time>
      </trkpt>
      <trkpt lat="48.1078560" lon="7.5272210">
        <ele>-233.8</ele>
        <time>2022-06-04T07:27:08Z</time>
      </trkpt>
      <trkpt lat="48.1079560" lon="7.5272360">
        <ele>-233.8</ele>
        <time>2022-06-04T07:27:12Z</time>
      </trkpt>
      <trkpt lat="48.1080860" lon="7.5272330">
        <ele>-234.0</ele>
        <time>2022-06-04T07:27:16Z</time>
      </trkpt>
      <trkpt lat="48.1082000" lon="7.5272560">
        <ele>-234.4</ele>
        <time>2022-06-04T07:27:20Z</time>
      </trkpt>
      <trkpt lat="48.1081700" lon="7.5273580">
        <ele>-235.2</ele>
        <time>2022-06-04T07:27:24Z</time>
      </trkpt>
      <trkpt lat="48.1081710" lon="7.5275980">
        <ele>-236.0</ele>
        <time>2022-06-04T07:27:28Z</time>
      </trkpt>
      <trkpt lat="48.1081860" lon="7.5279150">
        <ele>-236.8</ele>
        <time>2022-06-04T07:27:32Z</time>
      </trkpt>
      <trkpt lat="48.1081930" lon="7.5282880">
        <ele>-237.4</ele>
        <time>2022-06-04T07:27:36Z</time>
      </trkpt>
      <trkpt lat="48.1082030" lon="7.5286250">
        <ele>-238.0</ele>
        <time>2022-06-04T07:27:40Z</time>
      </trkpt>
      <trkpt lat="48.1082150" lon="7.5289300">
        <ele>-237.6</ele>
        <time>2022-06-04T07:27:44Z</time>
      </trkpt>
      <trkpt lat="48.1082350" lon="7.5292050">
        <ele>-237.4</ele>
        <time>2022-06-04T07:27:48Z</time>
      </trkpt>
      <trkpt lat="48.1082500" lon="7.5295050">
        <ele>-237.4</ele>
        <time>2022-06-04T07:27:52Z</time>
      </trkpt>
      <trkpt lat="48.1082680" lon="7.5298050">
        <ele>-237.4</ele>
        <time>2022-06-04T07:27:56Z</time>
      </trkpt>
      <trkpt lat="48.1083160" lon="7.5300910">
        <ele>-237.8</ele>
        <time>2022-06-04T07:28:00Z</time>
      </trkpt>
      <trkpt lat="48.1083150" lon="7.5304160">
        <ele>-237.8</ele>
        <time>2022-06-04T07:28:04Z</time>
      </trkpt>
      <trkpt lat="48.1083330" lon="7.5307400">
        <ele>-238.2</ele>
        <time>2022-06-04T07:28:08Z</time>
      </trkpt>
      <trkpt lat="48.1083400" lon="7.5310550">
        <ele>-238.2</ele>
        <time>2022-06-04T07:28:12Z</time>
      </trkpt>
      <trkpt lat="48.1083450" lon="7.5313730">
        <ele>-237.4</ele>
        <time>2022-06-04T07:28:16Z</time>
      </trkpt>
      <trkpt lat="48.1083580" lon="7.5316900">
        <ele>-237.8</ele>
        <time>2022-06-04T07:28:20Z</time>
      </trkpt>
      <trkpt lat="48.1083900" lon="7.5319830">
        <ele>-236.2</ele>
        <time>2022-06-04T07:28:24Z</time>
      </trkpt>
      <trkpt lat="48.1084450" lon="7.5321650">
        <ele>-236.2</ele>
        <time>2022-06-04T07:28:28Z</time>
      </trkpt>
      <trkpt lat="48.1085210" lon="7.5322880">
        <ele>-236.6</ele>
        <time>2022-06-04T07:28:32Z</time>
      </trkpt>
      <trkpt lat="48.1086530" lon="7.5323860">
        <ele>-237.4</ele>
        <time>2022-06-04T07:28:36Z</time>
      </trkpt>
      <trkpt lat="48.1088080" lon="7.5324450">
        <ele>-237.4</ele>
        <time>2022-06-04T07:28:40Z</time>
      </trkpt>
      <trkpt lat="48.1090210" lon="7.5324710">
        <ele>-237.4</ele>
        <time>2022-06-04T07:28:44Z</time>
      </trkpt>
      <trkpt lat="48.1092260" lon="7.5324800">
        <ele>-237.2</ele>
        <time>2022-06-04T07:28:48Z</time>
      </trkpt>
      <trkpt lat="48.1094430" lon="7.5324980">
        <ele>-237.8</ele>
        <time>2022-06-04T07:28:52Z</time>
      </trkpt>
      <trkpt lat="48.1096510" lon="7.5325210">
        <ele>-237.8</ele>
        <time>2022-06-04T07:28:56Z</time>
      </trkpt>
      <trkpt lat="48.1098500" lon="7.5325410">
        <ele>-238.0</ele>
        <time>2022-06-04T07:29:00Z</time>
      </trkpt>
      <trkpt lat="48.1100480" lon="7.5325510">
        <ele>-237.8</ele>
        <time>2022-06-04T07:29:04Z</time>
      </trkpt>
      <trkpt lat="48.1102360" lon="7.5325760">
        <ele>-238.0</ele>
        <time>2022-06-04T07:29:08Z</time>
      </trkpt>
      <trkpt lat="48.1104380" lon="7.5325700">
        <ele>-238.4</ele>
        <time>2022-06-04T07:29:12Z</time>
      </trkpt>
      <trkpt lat="48.1106300" lon="7.5325780">
        <ele>-238.4</ele>
        <time>2022-06-04T07:29:16Z</time>
      </trkpt>
      <trkpt lat="48.1108450" lon="7.5325830">
        <ele>-238.2</ele>
        <time>2022-06-04T07:29:20Z</time>
      </trkpt>
      <trkpt lat="48.1110330" lon="7.5325830">
        <ele>-238.2</ele>
        <time>2022-06-04T07:29:24Z</time>
      </trkpt>
      <trkpt lat="48.1112200" lon="7.5325910">
        <ele>-237.8</ele>
        <time>2022-06-04T07:29:28Z</time>
      </trkpt>
      <trkpt lat="48.1113880" lon="7.5326060">
        <ele>-237.8</ele>
        <time>2022-06-04T07:29:32Z</time>
      </trkpt>
      <trkpt lat="48.1115610" lon="7.5326230">
        <ele>-238.4</ele>
        <time>2022-06-04T07:29:36Z</time>
      </trkpt>
      <trkpt lat="48.1117480" lon="7.5326360">
        <ele>-237.4</ele>
        <time>2022-06-04T07:29:40Z</time>
      </trkpt>
      <trkpt lat="48.1119180" lon="7.5326500">
        <ele>-237.8</ele>
        <time>2022-06-04T07:29:44Z</time>
      </trkpt>
      <trkpt lat="48.1120760" lon="7.5326550">
        <ele>-237.8</ele>
        <time>2022-06-04T07:29:48Z</time>
      </trkpt>
      <trkpt lat="48.1122930" lon="7.5326560">
        <ele>-238.0</ele>
        <time>2022-06-04T07:29:52Z</time>
      </trkpt>
      <trkpt lat="48.1124960" lon="7.5326750">
        <ele>-237.8</ele>
        <time>2022-06-04T07:29:56Z</time>
      </trkpt>
      <trkpt lat="48.1126930" lon="7.5326750">
        <ele>-237.4</ele>
        <time>2022-06-04T07:30:00Z</time>
      </trkpt>
      <trkpt lat="48.1128810" lon="7.5326610">
        <ele>-237.4</ele>
        <time>2022-06-04T07:30:04Z</time>
      </trkpt>
      <trkpt lat="48.1130880" lon="7.5326600">
        <ele>-238.4</ele>
        <time>2022-06-04T07:30:08Z</time>
      </trkpt>
      <trkpt lat="48.1132700" lon="7.5326610">
        <ele>-238.4</ele>
        <time>2022-06-04T07:30:12Z</time>
      </trkpt>
      <trkpt lat="48.1134850" lon="7.5326580">
        <ele>-238.6</ele>
        <time>2022-06-04T07:30:16Z</time>
      </trkpt>
      <trkpt lat="48.1136830" lon="7.5326660">
        <ele>-238.4</ele>
        <time>2022-06-04T07:30:20Z</time>
      </trkpt>
      <trkpt lat="48.1138910" lon="7.5326880">
        <ele>-238.0</ele>
        <time>2022-06-04T07:30:24Z</time>
      </trkpt>
      <trkpt lat="48.1141180" lon="7.5327230">
        <ele>-238.4</ele>
        <time>2022-06-04T07:30:28Z</time>
      </trkpt>
      <trkpt lat="48.1143350" lon="7.5327460">
        <ele>-239.0</ele>
        <time>2022-06-04T07:30:32Z</time>
      </trkpt>
      <trkpt lat="48.1145580" lon="7.5327630">
        <ele>-238.4</ele>
        <time>2022-06-04T07:30:36Z</time>
      </trkpt>
      <trkpt lat="48.1147680" lon="7.5328080">
        <ele>-238.2</ele>
        <time>2022-06-04T07:30:40Z</time>
      </trkpt>
      <trkpt lat="48.1149730" lon="7.5328160">
        <ele>-238.0</ele>
        <time>2022-06-04T07:30:44Z</time>
      </trkpt>
      <trkpt lat="48.1151810" lon="7.5328160">
        <ele>-238.2</ele>
        <time>2022-06-04T07:30:48Z</time>
      </trkpt>
      <trkpt lat="48.1153560" lon="7.5328210">
        <ele>-238.2</ele>
        <time>2022-06-04T07:30:52Z</time>
      </trkpt>
      <trkpt lat="48.1155360" lon="7.5328310">
        <ele>-238.2</ele>
        <time>2022-06-04T07:30:56Z</time>
      </trkpt>
      <trkpt lat="48.1157380" lon="7.5328450">
        <ele>-238.0</ele>
        <time>2022-06-04T07:31:00Z</time>
      </trkpt>
      <trkpt lat="48.1159230" lon="7.5328630">
        <ele>-237.8</ele>
        <time>2022-06-04T07:31:04Z</time>
      </trkpt>
      <trkpt lat="48.1160910" lon="7.5329180">
        <ele>-238.2</ele>
        <time>2022-06-04T07:31:08Z</time>
      </trkpt>
      <trkpt lat="48.1162450" lon="7.5329300">
        <ele>-238.0</ele>
        <time>2022-06-04T07:31:12Z</time>
      </trkpt>
      <trkpt lat="48.1163860" lon="7.5329280">
        <ele>-239.0</ele>
        <time>2022-06-04T07:31:16Z</time>
      </trkpt>
      <trkpt lat="48.1165410" lon="7.5329480">
        <ele>-239.8</ele>
        <time>2022-06-04T07:31:20Z</time>
      </trkpt>
      <trkpt lat="48.1167160" lon="7.5328810">
        <ele>-240.0</ele>
        <time>2022-06-04T07:31:24Z</time>
      </trkpt>
      <trkpt lat="48.1168960" lon="7.5328860">
        <ele>-240.4</ele>
        <time>2022-06-04T07:31:28Z</time>
      </trkpt>
      <trkpt lat="48.1171110" lon="7.5328980">
        <ele>-240.6</ele>
        <time>2022-06-04T07:31:32Z</time>
      </trkpt>
      <trkpt lat="48.1173230" lon="7.5329010">
        <ele>-240.0</ele>
        <time>2022-06-04T07:31:36Z</time>
      </trkpt>
      <trkpt lat="48.1175480" lon="7.5328980">
        <ele>-240.0</ele>
        <time>2022-06-04T07:31:40Z</time>
      </trkpt>
      <trkpt lat="48.1177730" lon="7.5329180">
        <ele>-240.6</ele>
        <time>2022-06-04T07:31:44Z</time>
      </trkpt>
      <trkpt lat="48.1179910" lon="7.5329310">
        <ele>-240.2</ele>
        <time>2022-06-04T07:31:48Z</time>
      </trkpt>
      <trkpt lat="48.1182130" lon="7.5329260">
        <ele>-240.0</ele>
        <time>2022-06-04T07:31:52Z</time>
      </trkpt>
      <trkpt lat="48.1184300" lon="7.5329400">
        <ele>-240.2</ele>
        <time>2022-06-04T07:31:56Z</time>
      </trkpt>
      <trkpt lat="48.1186500" lon="7.5329530">
        <ele>-240.0</ele>
        <time>2022-06-04T07:32:00Z</time>
      </trkpt>
      <trkpt lat="48.1188810" lon="7.5329580">
        <ele>-240.4</ele>
        <time>2022-06-04T07:32:04Z</time>
      </trkpt>
      <trkpt lat="48.1191000" lon="7.5329830">
        <ele>-240.2</ele>
        <time>2022-06-04T07:32:08Z</time>
      </trkpt>
      <trkpt lat="48.1193230" lon="7.5329950">
        <ele>-239.8</ele>
        <time>2022-06-04T07:32:12Z</time>
      </trkpt>
      <trkpt lat="48.1195350" lon="7.5330060">
        <ele>-239.8</ele>
        <time>2022-06-04T07:32:16Z</time>
      </trkpt>
      <trkpt lat="48.1197380" lon="7.5330150">
        <ele>-239.8</ele>
        <time>2022-06-04T07:32:20Z</time>
      </trkpt>
      <trkpt lat="48.1199410" lon="7.5330230">
        <ele>-240.0</ele>
        <time>2022-06-04T07:32:24Z</time>
      </trkpt>
      <trkpt lat="48.1201430" lon="7.5330230">
        <ele>-240.2</ele>
        <time>2022-06-04T07:32:28Z</time>
      </trkpt>
      <trkpt lat="48.1203630" lon="7.5330400">
        <ele>-240.2</ele>
        <time>2022-06-04T07:32:32Z</time>
      </trkpt>
      <trkpt lat="48.1205650" lon="7.5330480">
        <ele>-240.6</ele>
        <time>2022-06-04T07:32:36Z</time>
      </trkpt>
      <trkpt lat="48.1207800" lon="7.5330610">
        <ele>-240.4</ele>
        <time>2022-06-04T07:32:40Z</time>
      </trkpt>
      <trkpt lat="48.1209900" lon="7.5330730">
        <ele>-239.6</ele>
        <time>2022-06-04T07:32:44Z</time>
      </trkpt>
      <trkpt lat="48.1212130" lon="7.5330960">
        <ele>-240.2</ele>
        <time>2022-06-04T07:32:48Z</time>
      </trkpt>
      <trkpt lat="48.1214230" lon="7.5331060">
        <ele>-240.0</ele>
        <time>2022-06-04T07:32:52Z</time>
      </trkpt>
      <trkpt lat="48.1216180" lon="7.5331150">
        <ele>-239.4</ele>
        <time>2022-06-04T07:32:56Z</time>
      </trkpt>
      <trkpt lat="48.1218200" lon="7.5331150">
        <ele>-239.2</ele>
        <time>2022-06-04T07:33:00Z</time>
      </trkpt>
      <trkpt lat="48.1220350" lon="7.5331210">
        <ele>-240.0</ele>
        <time>2022-06-04T07:33:04Z</time>
      </trkpt>
      <trkpt lat="48.1222400" lon="7.5331230">
        <ele>-240.2</ele>
        <time>2022-06-04T07:33:08Z</time>
      </trkpt>
      <trkpt lat="48.1224730" lon="7.5331410">
        <ele>-240.2</ele>
        <time>2022-06-04T07:33:12Z</time>
      </trkpt>
      <trkpt lat="48.1227080" lon="7.5331450">
        <ele>-239.6</ele>
        <time>2022-06-04T07:33:16Z</time>
      </trkpt>
      <trkpt lat="48.1229450" lon="7.5331450">
        <ele>-240.4</ele>
        <time>2022-06-04T07:33:20Z</time>
      </trkpt>
      <trkpt lat="48.1231710" lon="7.5331430">
        <ele>-239.8</ele>
        <time>2022-06-04T07:33:24Z</time>
      </trkpt>
      <trkpt lat="48.1234000" lon="7.5331410">
        <ele>-240.8</ele>
        <time>2022-06-04T07:33:28Z</time>
      </trkpt>
      <trkpt lat="48.1236560" lon="7.5331630">
        <ele>-240.4</ele>
        <time>2022-06-04T07:33:32Z</time>
      </trkpt>
      <trkpt lat="48.1238950" lon="7.5331650">
        <ele>-240.0</ele>
        <time>2022-06-04T07:33:36Z</time>
      </trkpt>
      <trkpt lat="48.1241410" lon="7.5331550">
        <ele>-240.2</ele>
        <time>2022-06-04T07:33:40Z</time>
      </trkpt>
      <trkpt lat="48.1243960" lon="7.5331810">
        <ele>-240.6</ele>
        <time>2022-06-04T07:33:44Z</time>
      </trkpt>
      <trkpt lat="48.1246560" lon="7.5331780">
        <ele>-240.2</ele>
        <time>2022-06-04T07:33:48Z</time>
      </trkpt>
      <trkpt lat="48.1249210" lon="7.5332450">
        <ele>-240.2</ele>
        <time>2022-06-04T07:33:52Z</time>
      </trkpt>
      <trkpt lat="48.1251680" lon="7.5333210">
        <ele>-239.8</ele>
        <time>2022-06-04T07:33:56Z</time>
      </trkpt>
      <trkpt lat="48.1254130" lon="7.5333250">
        <ele>-239.4</ele>
        <time>2022-06-04T07:34:00Z</time>
      </trkpt>
      <trkpt lat="48.1256460" lon="7.5333400">
        <ele>-239.8</ele>
        <time>2022-06-04T07:34:04Z</time>
      </trkpt>
      <trkpt lat="48.1258660" lon="7.5333610">
        <ele>-239.8</ele>
        <time>2022-06-04T07:34:08Z</time>
      </trkpt>
      <trkpt lat="48.1260950" lon="7.5333550">
        <ele>-240.2</ele>
        <time>2022-06-04T07:34:12Z</time>
      </trkpt>
      <trkpt lat="48.1263110" lon="7.5333580">
        <ele>-239.4</ele>
        <time>2022-06-04T07:34:16Z</time>
      </trkpt>
      <trkpt lat="48.1264950" lon="7.5333430">
        <ele>-239.2</ele>
        <time>2022-06-04T07:34:20Z</time>
      </trkpt>
      <trkpt lat="48.1267030" lon="7.5333510">
        <ele>-239.2</ele>
        <time>2022-06-04T07:34:24Z</time>
      </trkpt>
      <trkpt lat="48.1269130" lon="7.5333750">
        <ele>-239.6</ele>
        <time>2022-06-04T07:34:28Z</time>
      </trkpt>
      <trkpt lat="48.1271080" lon="7.5333930">
        <ele>-239.8</ele>
        <time>2022-06-04T07:34:32Z</time>
      </trkpt>
      <trkpt lat="48.1273030" lon="7.5334130">
        <ele>-239.0</ele>
        <time>2022-06-04T07:34:36Z</time>
      </trkpt>
      <trkpt lat="48.1274960" lon="7.5334230">
        <ele>-239.8</ele>
        <time>2022-06-04T07:34:40Z</time>
      </trkpt>
      <trkpt lat="48.1277210" lon="7.5334260">
        <ele>-239.2</ele>
        <time>2022-06-04T07:34:44Z</time>
      </trkpt>
      <trkpt lat="48.1279050" lon="7.5334460">
        <ele>-240.2</ele>
        <time>2022-06-04T07:34:48Z</time>
      </trkpt>
      <trkpt lat="48.1280810" lon="7.5334500">
        <ele>-239.8</ele>
        <time>2022-06-04T07:34:52Z</time>
      </trkpt>
      <trkpt lat="48.1282580" lon="7.5334660">
        <ele>-240.0</ele>
        <time>2022-06-04T07:34:56Z</time>
      </trkpt>
      <trkpt lat="48.1284680" lon="7.5334860">
        <ele>-239.8</ele>
        <time>2022-06-04T07:35:00Z</time>
      </trkpt>
      <trkpt lat="48.1286810" lon="7.5334810">
        <ele>-239.8</ele>
        <time>2022-06-04T07:35:04Z</time>
      </trkpt>
      <trkpt lat="48.1289100" lon="7.5334730">
        <ele>-239.6</ele>
        <time>2022-06-04T07:35:08Z</time>
      </trkpt>
      <trkpt lat="48.1291050" lon="7.5334800">
        <ele>-240.2</ele>
        <time>2022-06-04T07:35:12Z</time>
      </trkpt>
      <trkpt lat="48.1293230" lon="7.5334850">
        <ele>-239.8</ele>
        <time>2022-06-04T07:35:16Z</time>
      </trkpt>
      <trkpt lat="48.1295530" lon="7.5335130">
        <ele>-239.8</ele>
        <time>2022-06-04T07:35:20Z</time>
      </trkpt>
      <trkpt lat="48.1297930" lon="7.5335200">
        <ele>-239.8</ele>
        <time>2022-06-04T07:35:24Z</time>
      </trkpt>
      <trkpt lat="48.1300230" lon="7.5335300">
        <ele>-239.6</ele>
        <time>2022-06-04T07:35:28Z</time>
      </trkpt>
      <trkpt lat="48.1302500" lon="7.5335580">
        <ele>-239.4</ele>
        <time>2022-06-04T07:35:32Z</time>
      </trkpt>
      <trkpt lat="48.1304680" lon="7.5335610">
        <ele>-239.6</ele>
        <time>2022-06-04T07:35:36Z</time>
      </trkpt>
      <trkpt lat="48.1306810" lon="7.5335930">
        <ele>-239.6</ele>
        <time>2022-06-04T07:35:40Z</time>
      </trkpt>
      <trkpt lat="48.1308930" lon="7.5336210">
        <ele>-239.2</ele>
        <time>2022-06-04T07:35:44Z</time>
      </trkpt>
      <trkpt lat="48.1311030" lon="7.5336250">
        <ele>-239.2</ele>
        <time>2022-06-04T07:35:48Z</time>
      </trkpt>
      <trkpt lat="48.1313000" lon="7.5336230">
        <ele>-238.6</ele>
        <time>2022-06-04T07:35:52Z</time>
      </trkpt>
      <trkpt lat="48.1314980" lon="7.5336280">
        <ele>-239.2</ele>
        <time>2022-06-04T07:35:56Z</time>
      </trkpt>
      <trkpt lat="48.1317030" lon="7.5336330">
        <ele>-239.0</ele>
        <time>2022-06-04T07:36:00Z</time>
      </trkpt>
      <trkpt lat="48.1319210" lon="7.5336330">
        <ele>-239.6</ele>
        <time>2022-06-04T07:36:04Z</time>
      </trkpt>
      <trkpt lat="48.1321400" lon="7.5336530">
        <ele>-239.2</ele>
        <time>2022-06-04T07:36:08Z</time>
      </trkpt>
      <trkpt lat="48.1323350" lon="7.5336460">
        <ele>-239.4</ele>
        <time>2022-06-04T07:36:12Z</time>
      </trkpt>
      <trkpt lat="48.1325260" lon="7.5336630">
        <ele>-239.8</ele>
        <time>2022-06-04T07:36:16Z</time>
      </trkpt>
      <trkpt lat="48.1327330" lon="7.5336500">
        <ele>-239.4</ele>
        <time>2022-06-04T07:36:20Z</time>
      </trkpt>
      <trkpt lat="48.1329330" lon="7.5336560">
        <ele>-239.8</ele>
        <time>2022-06-04T07:36:24Z</time>
      </trkpt>
      <trkpt lat="48.1331180" lon="7.5336750">
        <ele>-239.6</ele>
        <time>2022-06-04T07:36:28Z</time>
      </trkpt>
      <trkpt lat="48.1333160" lon="7.5336880">
        <ele>-239.6</ele>
        <time>2022-06-04T07:36:32Z</time>
      </trkpt>
      <trkpt lat="48.1335480" lon="7.5336780">
        <ele>-239.8</ele>
        <time>2022-06-04T07:36:36Z</time>
      </trkpt>
      <trkpt lat="48.1337810" lon="7.5336830">
        <ele>-239.4</ele>
        <time>2022-06-04T07:36:40Z</time>
      </trkpt>
      <trkpt lat="48.1340060" lon="7.5337250">
        <ele>-238.6</ele>
        <time>2022-06-04T07:36:44Z</time>
      </trkpt>
      <trkpt lat="48.1342300" lon="7.5337430">
        <ele>-239.4</ele>
        <time>2022-06-04T07:36:48Z</time>
      </trkpt>
      <trkpt lat="48.1344530" lon="7.5337530">
        <ele>-238.6</ele>
        <time>2022-06-04T07:36:52Z</time>
      </trkpt>
      <trkpt lat="48.1346560" lon="7.5337660">
        <ele>-239.2</ele>
        <time>2022-06-04T07:36:56Z</time>
      </trkpt>
      <trkpt lat="48.1348530" lon="7.5337860">
        <ele>-238.6</ele>
        <time>2022-06-04T07:37:00Z</time>
      </trkpt>
      <trkpt lat="48.1350500" lon="7.5338110">
        <ele>-238.6</ele>
        <time>2022-06-04T07:37:04Z</time>
      </trkpt>
      <trkpt lat="48.1352500" lon="7.5338460">
        <ele>-238.8</ele>
        <time>2022-06-04T07:37:08Z</time>
      </trkpt>
      <trkpt lat="48.1354450" lon="7.5338910">
        <ele>-239.2</ele>
        <time>2022-06-04T07:37:12Z</time>
      </trkpt>
      <trkpt lat="48.1356330" lon="7.5338800">
        <ele>-239.2</ele>
        <time>2022-06-04T07:37:16Z</time>
      </trkpt>
      <trkpt lat="48.1358010" lon="7.5338410">
        <ele>-240.2</ele>
        <time>2022-06-04T07:37:20Z</time>
      </trkpt>
      <trkpt lat="48.1360350" lon="7.5338580">
        <ele>-240.6</ele>
        <time>2022-06-04T07:37:24Z</time>
      </trkpt>
      <trkpt lat="48.1362600" lon="7.5338530">
        <ele>-241.2</ele>
        <time>2022-06-04T07:37:28Z</time>
      </trkpt>
      <trkpt lat="48.1365050" lon="7.5338800">
        <ele>-241.4</ele>
        <time>2022-06-04T07:37:32Z</time>
      </trkpt>
      <trkpt lat="48.1367200" lon="7.5338880">
        <ele>-241.0</ele>
        <time>2022-06-04T07:37:36Z</time>
      </trkpt>
      <trkpt lat="48.1369230" lon="7.5339030">
        <ele>-240.8</ele>
        <time>2022-06-04T07:37:40Z</time>
      </trkpt>
      <trkpt lat="48.1370830" lon="7.5339150">
        <ele>-240.8</ele>
        <time>2022-06-04T07:37:44Z</time>
      </trkpt>
      <trkpt lat="48.1372400" lon="7.5339210">
        <ele>-240.6</ele>
        <time>2022-06-04T07:37:48Z</time>
      </trkpt>
      <trkpt lat="48.1372400" lon="7.5339210">
        <ele>-240.8</ele>
        <time>2022-06-04T07:37:52Z</time>
      </trkpt>
      <trkpt lat="48.1373200" lon="7.5339400">
        <ele>-240.8</ele>
        <time>2022-06-04T07:37:56Z</time>
      </trkpt>
      <trkpt lat="48.1373850" lon="7.5339300">
        <ele>-241.2</ele>
        <time>2022-06-04T07:38:00Z</time>
      </trkpt>
      <trkpt lat="48.1374910" lon="7.5339360">
        <ele>-240.8</ele>
        <time>2022-06-04T07:38:04Z</time>
      </trkpt>
      <trkpt lat="48.1376500" lon="7.5339530">
        <ele>-240.8</ele>
        <time>2022-06-04T07:38:08Z</time>
      </trkpt>
      <trkpt lat="48.1378160" lon="7.5339310">
        <ele>-241.0</ele>
        <time>2022-06-04T07:38:12Z</time>
      </trkpt>
      <trkpt lat="48.1380110" lon="7.5339280">
        <ele>-240.8</ele>
        <time>2022-06-04T07:38:16Z</time>
      </trkpt>
      <trkpt lat="48.1381810" lon="7.5339330">
        <ele>-240.8</ele>
        <time>2022-06-04T07:38:20Z</time>
      </trkpt>
      <trkpt lat="48.1383760" lon="7.5339480">
        <ele>-241.2</ele>
        <time>2022-06-04T07:38:24Z</time>
      </trkpt>
      <trkpt lat="48.1385810" lon="7.5339480">
        <ele>-241.4</ele>
        <time>2022-06-04T07:38:28Z</time>
      </trkpt>
      <trkpt lat="48.1387810" lon="7.5339580">
        <ele>-241.4</ele>
        <time>2022-06-04T07:38:32Z</time>
      </trkpt>
      <trkpt lat="48.1389860" lon="7.5339650">
        <ele>-241.0</ele>
        <time>2022-06-04T07:38:36Z</time>
      </trkpt>
      <trkpt lat="48.1391960" lon="7.5339600">
        <ele>-240.4</ele>
        <time>2022-06-04T07:38:40Z</time>
      </trkpt>
      <trkpt lat="48.1394100" lon="7.5339680">
        <ele>-240.6</ele>
        <time>2022-06-04T07:38:44Z</time>
      </trkpt>
      <trkpt lat="48.1396210" lon="7.5339730">
        <ele>-240.6</ele>
        <time>2022-06-04T07:38:48Z</time>
      </trkpt>
      <trkpt lat="48.1398210" lon="7.5340010">
        <ele>-240.6</ele>
        <time>2022-06-04T07:38:52Z</time>
      </trkpt>
      <trkpt lat="48.1400080" lon="7.5340160">
        <ele>-240.6</ele>
        <time>2022-06-04T07:38:56Z</time>
      </trkpt>
      <trkpt lat="48.1402100" lon="7.5340260">
        <ele>-241.4</ele>
        <time>2022-06-04T07:39:00Z</time>
      </trkpt>
      <trkpt lat="48.1403800" lon="7.5340530">
        <ele>-241.2</ele>
        <time>2022-06-04T07:39:04Z</time>
      </trkpt>
      <trkpt lat="48.1405500" lon="7.5340550">
        <ele>-241.4</ele>
        <time>2022-06-04T07:39:08Z</time>
      </trkpt>
      <trkpt lat="48.1407250" lon="7.5340730">
        <ele>-241.0</ele>
        <time>2022-06-04T07:39:12Z</time>
      </trkpt>
      <trkpt lat="48.1409480" lon="7.5341050">
        <ele>-240.6</ele>
        <time>2022-06-04T07:39:16Z</time>
      </trkpt>
      <trkpt lat="48.1411850" lon="7.5341080">
        <ele>-241.2</ele>
        <time>2022-06-04T07:39:20Z</time>
      </trkpt>
      <trkpt lat="48.1413880" lon="7.5341100">
        <ele>-240.4</ele>
        <time>2022-06-04T07:39:24Z</time>
      </trkpt>
      <trkpt lat="48.1415910" lon="7.5341180">
        <ele>-240.6</ele>
        <time>2022-06-04T07:39:28Z</time>
      </trkpt>
      <trkpt lat="48.1418060" lon="7.5341360">
        <ele>-241.4</ele>
        <time>2022-06-04T07:39:32Z</time>
      </trkpt>
      <trkpt lat="48.1420110" lon="7.5341400">
        <ele>-241.0</ele>
        <time>2022-06-04T07:39:36Z</time>
      </trkpt>
      <trkpt lat="48.1422110" lon="7.5341330">
        <ele>-240.8</ele>
        <time>2022-06-04T07:39:40Z</time>
      </trkpt>
      <trkpt lat="48.1424410" lon="7.5341550">
        <ele>-240.8</ele>
        <time>2022-06-04T07:39:44Z</time>
      </trkpt>
      <trkpt lat="48.1426330" lon="7.5341510">
        <ele>-240.8</ele>
        <time>2022-06-04T07:39:48Z</time>
      </trkpt>
      <trkpt lat="48.1428380" lon="7.5341580">
        <ele>-240.2</ele>
        <time>2022-06-04T07:39:52Z</time>
      </trkpt>
      <trkpt lat="48.1430810" lon="7.5341760">
        <ele>-241.2</ele>
        <time>2022-06-04T07:39:56Z</time>
      </trkpt>
      <trkpt lat="48.1433030" lon="7.5342110">
        <ele>-240.8</ele>
        <time>2022-06-04T07:40:00Z</time>
      </trkpt>
      <trkpt lat="48.1435030" lon="7.5342180">
        <ele>-241.0</ele>
        <time>2022-06-04T07:40:04Z</time>
      </trkpt>
      <trkpt lat="48.1437030" lon="7.5342260">
        <ele>-240.8</ele>
        <time>2022-06-04T07:40:08Z</time>
      </trkpt>
      <trkpt lat="48.1439110" lon="7.5342360">
        <ele>-241.2</ele>
        <time>2022-06-04T07:40:12Z</time>
      </trkpt>
      <trkpt lat="48.1441060" lon="7.5342410">
        <ele>-241.2</ele>
        <time>2022-06-04T07:40:16Z</time>
      </trkpt>
      <trkpt lat="48.1443230" lon="7.5342410">
        <ele>-241.0</ele>
        <time>2022-06-04T07:40:20Z</time>
      </trkpt>
      <trkpt lat="48.1445150" lon="7.5342600">
        <ele>-241.4</ele>
        <time>2022-06-04T07:40:24Z</time>
      </trkpt>
      <trkpt lat="48.1447280" lon="7.5342830">
        <ele>-241.8</ele>
        <time>2022-06-04T07:40:28Z</time>
      </trkpt>
      <trkpt lat="48.1449610" lon="7.5343130">
        <ele>-241.0</ele>
        <time>2022-06-04T07:40:32Z</time>
      </trkpt>
      <trkpt lat="48.1451610" lon="7.5343300">
        <ele>-241.2</ele>
        <time>2022-06-04T07:40:36Z</time>
      </trkpt>
      <trkpt lat="48.1453600" lon="7.5343410">
        <ele>-241.0</ele>
        <time>2022-06-04T07:40:40Z</time>
      </trkpt>
      <trkpt lat="48.1455730" lon="7.5343500">
        <ele>-241.2</ele>
        <time>2022-06-04T07:40:44Z</time>
      </trkpt>
      <trkpt lat="48.1457910" lon="7.5343580">
        <ele>-241.4</ele>
        <time>2022-06-04T07:40:48Z</time>
      </trkpt>
      <trkpt lat="48.1460080" lon="7.5343680">
        <ele>-240.8</ele>
        <time>2022-06-04T07:40:52Z</time>
      </trkpt>
      <trkpt lat="48.1462380" lon="7.5343830">
        <ele>-241.0</ele>
        <time>2022-06-04T07:40:56Z</time>
      </trkpt>
      <trkpt lat="48.1464700" lon="7.5344100">
        <ele>-241.2</ele>
        <time>2022-06-04T07:41:00Z</time>
      </trkpt>
      <trkpt lat="48.1467080" lon="7.5344160">
        <ele>-241.8</ele>
        <time>2022-06-04T07:41:04Z</time>
      </trkpt>
      <trkpt lat="48.1469260" lon="7.5344250">
        <ele>-241.8</ele>
        <time>2022-06-04T07:41:08Z</time>
      </trkpt>
      <trkpt lat="48.1471300" lon="7.5344350">
        <ele>-241.2</ele>
        <time>2022-06-04T07:41:12Z</time>
      </trkpt>
      <trkpt lat="48.1473780" lon="7.5344560">
        <ele>-241.0</ele>
        <time>2022-06-04T07:41:16Z</time>
      </trkpt>
      <trkpt lat="48.1476030" lon="7.5344630">
        <ele>-241.6</ele>
        <time>2022-06-04T07:41:20Z</time>
      </trkpt>
      <trkpt lat="48.1478450" lon="7.5344730">
        <ele>-241.4</ele>
        <time>2022-06-04T07:41:24Z</time>
      </trkpt>
      <trkpt lat="48.1480430" lon="7.5344860">
        <ele>-241.0</ele>
        <time>2022-06-04T07:41:28Z</time>
      </trkpt>
      <trkpt lat="48.1482700" lon="7.5344950">
        <ele>-241.0</ele>
        <time>2022-06-04T07:41:32Z</time>
      </trkpt>
      <trkpt lat="48.1484950" lon="7.5345010">
        <ele>-242.0</ele>
        <time>2022-06-04T07:41:36Z</time>
      </trkpt>
      <trkpt lat="48.1486960" lon="7.5345150">
        <ele>-242.4</ele>
        <time>2022-06-04T07:41:40Z</time>
      </trkpt>
      <trkpt lat="48.1488930" lon="7.5345430">
        <ele>-242.2</ele>
        <time>2022-06-04T07:41:44Z</time>
      </trkpt>
      <trkpt lat="48.1491010" lon="7.5345460">
        <ele>-241.4</ele>
        <time>2022-06-04T07:41:48Z</time>
      </trkpt>
      <trkpt lat="48.1493110" lon="7.5345500">
        <ele>-241.4</ele>
        <time>2022-06-04T07:41:52Z</time>
      </trkpt>
      <trkpt lat="48.1495010" lon="7.5345460">
        <ele>-241.8</ele>
        <time>2022-06-04T07:41:56Z</time>
      </trkpt>
      <trkpt lat="48.1497080" lon="7.5345660">
        <ele>-241.8</ele>
        <time>2022-06-04T07:42:00Z</time>
      </trkpt>
      <trkpt lat="48.1499360" lon="7.5345600">
        <ele>-241.6</ele>
        <time>2022-06-04T07:42:04Z</time>
      </trkpt>
      <trkpt lat="48.1501760" lon="7.5345700">
        <ele>-241.4</ele>
        <time>2022-06-04T07:42:08Z</time>
      </trkpt>
      <trkpt lat="48.1504150" lon="7.5345850">
        <ele>-241.6</ele>
        <time>2022-06-04T07:42:12Z</time>
      </trkpt>
      <trkpt lat="48.1506330" lon="7.5346000">
        <ele>-241.4</ele>
        <time>2022-06-04T07:42:16Z</time>
      </trkpt>
      <trkpt lat="48.1508600" lon="7.5346130">
        <ele>-242.0</ele>
        <time>2022-06-04T07:42:20Z</time>
      </trkpt>
      <trkpt lat="48.1510660" lon="7.5346180">
        <ele>-242.0</ele>
        <time>2022-06-04T07:42:24Z</time>
      </trkpt>
      <trkpt lat="48.1512860" lon="7.5346350">
        <ele>-242.4</ele>
        <time>2022-06-04T07:42:28Z</time>
      </trkpt>
      <trkpt lat="48.1515010" lon="7.5346410">
        <ele>-242.2</ele>
        <time>2022-06-04T07:42:32Z</time>
      </trkpt>
      <trkpt lat="48.1517030" lon="7.5346460">
        <ele>-242.0</ele>
        <time>2022-06-04T07:42:36Z</time>
      </trkpt>
      <trkpt lat="48.1519260" lon="7.5346680">
        <ele>-242.0</ele>
        <time>2022-06-04T07:42:40Z</time>
      </trkpt>
      <trkpt lat="48.1521410" lon="7.5347000">
        <ele>-242.2</ele>
        <time>2022-06-04T07:42:44Z</time>
      </trkpt>
      <trkpt lat="48.1523610" lon="7.5347000">
        <ele>-242.2</ele>
        <time>2022-06-04T07:42:48Z</time>
      </trkpt>
      <trkpt lat="48.1525780" lon="7.5347100">
        <ele>-242.6</ele>
        <time>2022-06-04T07:42:52Z</time>
      </trkpt>
      <trkpt lat="48.1527860" lon="7.5347080">
        <ele>-241.8</ele>
        <time>2022-06-04T07:42:56Z</time>
      </trkpt>
      <trkpt lat="48.1529810" lon="7.5347150">
        <ele>-242.0</ele>
        <time>2022-06-04T07:43:00Z</time>
      </trkpt>
      <trkpt lat="48.1532080" lon="7.5347360">
        <ele>-242.2</ele>
        <time>2022-06-04T07:43:04Z</time>
      </trkpt>
      <trkpt lat="48.1534280" lon="7.5347510">
        <ele>-241.8</ele>
        <time>2022-06-04T07:43:08Z</time>
      </trkpt>
      <trkpt lat="48.1536200" lon="7.5347660">
        <ele>-241.8</ele>
        <time>2022-06-04T07:43:12Z</time>
      </trkpt>
      <trkpt lat="48.1538250" lon="7.5347830">
        <ele>-241.8</ele>
        <time>2022-06-04T07:43:16Z</time>
      </trkpt>
      <trkpt lat="48.1540230" lon="7.5347930">
        <ele>-242.0</ele>
        <time>2022-06-04T07:43:20Z</time>
      </trkpt>
      <trkpt lat="48.1542400" lon="7.5348010">
        <ele>-242.0</ele>
        <time>2022-06-04T07:43:24Z</time>
      </trkpt>
      <trkpt lat="48.1544530" lon="7.5348150">
        <ele>-242.0</ele>
        <time>2022-06-04T07:43:28Z</time>
      </trkpt>
      <trkpt lat="48.1546560" lon="7.5348300">
        <ele>-242.2</ele>
        <time>2022-06-04T07:43:32Z</time>
      </trkpt>
      <trkpt lat="48.1548760" lon="7.5348400">
        <ele>-242.2</ele>
        <time>2022-06-04T07:43:36Z</time>
      </trkpt>
      <trkpt lat="48.1550810" lon="7.5348330">
        <ele>-242.4</ele>
        <time>2022-06-04T07:43:40Z</time>
      </trkpt>
      <trkpt lat="48.1552780" lon="7.5348380">
        <ele>-242.2</ele>
        <time>2022-06-04T07:43:44Z</time>
      </trkpt>
      <trkpt lat="48.1554760" lon="7.5348500">
        <ele>-242.0</ele>
        <time>2022-06-04T07:43:48Z</time>
      </trkpt>
      <trkpt lat="48.1556700" lon="7.5348460">
        <ele>-242.6</ele>
        <time>2022-06-04T07:43:52Z</time>
      </trkpt>
      <trkpt lat="48.1558730" lon="7.5348750">
        <ele>-242.2</ele>
        <time>2022-06-04T07:43:56Z</time>
      </trkpt>
      <trkpt lat="48.1560610" lon="7.5348800">
        <ele>-242.2</ele>
        <time>2022-06-04T07:44:00Z</time>
      </trkpt>
      <trkpt lat="48.1562430" lon="7.5349000">
        <ele>-242.4</ele>
        <time>2022-06-04T07:44:04Z</time>
      </trkpt>
      <trkpt lat="48.1564010" lon="7.5348980">
        <ele>-242.6</ele>
        <time>2022-06-04T07:44:08Z</time>
      </trkpt>
      <trkpt lat="48.1565800" lon="7.5348980">
        <ele>-242.8</ele>
        <time>2022-06-04T07:44:12Z</time>
      </trkpt>
      <trkpt lat="48.1567730" lon="7.5349060">
        <ele>-242.6</ele>
        <time>2022-06-04T07:44:16Z</time>
      </trkpt>
      <trkpt lat="48.1569700" lon="7.5349260">
        <ele>-242.0</ele>
        <time>2022-06-04T07:44:20Z</time>
      </trkpt>
      <trkpt lat="48.1571530" lon="7.5349480">
        <ele>-242.8</ele>
        <time>2022-06-04T07:44:24Z</time>
      </trkpt>
      <trkpt lat="48.1572180" lon="7.5349460">
        <ele>-242.6</ele>
        <time>2022-06-04T07:44:28Z</time>
      </trkpt>
      <trkpt lat="48.1572100" lon="7.5349350">
        <ele>-242.4</ele>
        <time>2022-06-04T07:44:32Z</time>
      </trkpt>
      <trkpt lat="48.1571510" lon="7.5349500">
        <ele>-242.2</ele>
        <time>2022-06-04T07:44:36Z</time>
      </trkpt>
      <trkpt lat="48.1570580" lon="7.5349450">
        <ele>-242.4</ele>
        <time>2022-06-04T07:44:40Z</time>
      </trkpt>
      <trkpt lat="48.1570210" lon="7.5347500">
        <ele>-243.6</ele>
        <time>2022-06-04T07:44:44Z</time>
      </trkpt>
      <trkpt lat="48.1571050" lon="7.5345010">
        <ele>-244.6</ele>
        <time>2022-06-04T07:44:48Z</time>
      </trkpt>
      <trkpt lat="48.1573250" lon="7.5344980">
        <ele>-244.4</ele>
        <time>2022-06-04T07:44:52Z</time>
      </trkpt>
      <trkpt lat="48.1575500" lon="7.5345030">
        <ele>-244.8</ele>
        <time>2022-06-04T07:44:56Z</time>
      </trkpt>
      <trkpt lat="48.1577700" lon="7.5345250">
        <ele>-243.6</ele>
        <time>2022-06-04T07:45:00Z</time>
      </trkpt>
      <trkpt lat="48.1579780" lon="7.5345450">
        <ele>-244.0</ele>
        <time>2022-06-04T07:45:04Z</time>
      </trkpt>
      <trkpt lat="48.1581780" lon="7.5345610">
        <ele>-243.8</ele>
        <time>2022-06-04T07:45:08Z</time>
      </trkpt>
      <trkpt lat="48.1583660" lon="7.5345760">
        <ele>-243.6</ele>
        <time>2022-06-04T07:45:12Z</time>
      </trkpt>
      <trkpt lat="48.1585560" lon="7.5345800">
        <ele>-244.8</ele>
        <time>2022-06-04T07:45:16Z</time>
      </trkpt>
      <trkpt lat="48.1587330" lon="7.5345600">
        <ele>-244.0</ele>
        <time>2022-06-04T07:45:20Z</time>
      </trkpt>
      <trkpt lat="48.1588830" lon="7.5345230">
        <ele>-244.2</ele>
        <time>2022-06-04T07:45:24Z</time>
      </trkpt>
      <trkpt lat="48.1590600" lon="7.5344780">
        <ele>-244.8</ele>
        <time>2022-06-04T07:45:28Z</time>
      </trkpt>
      <trkpt lat="48.1592510" lon="7.5344510">
        <ele>-244.6</ele>
        <time>2022-06-04T07:45:32Z</time>
      </trkpt>
      <trkpt lat="48.1594530" lon="7.5344530">
        <ele>-244.8</ele>
        <time>2022-06-04T07:45:36Z</time>
      </trkpt>
      <trkpt lat="48.1596550" lon="7.5344630">
        <ele>-244.8</ele>
        <time>2022-06-04T07:45:40Z</time>
      </trkpt>
      <trkpt lat="48.1598350" lon="7.5343700">
        <ele>-245.2</ele>
        <time>2022-06-04T07:45:44Z</time>
      </trkpt>
      <trkpt lat="48.1599400" lon="7.5341250">
        <ele>-244.8</ele>
        <time>2022-06-04T07:45:48Z</time>
      </trkpt>
      <trkpt lat="48.1599750" lon="7.5338500">
        <ele>-245.4</ele>
        <time>2022-06-04T07:45:52Z</time>
      </trkpt>
      <trkpt lat="48.1600000" lon="7.5335650">
        <ele>-244.8</ele>
        <time>2022-06-04T07:45:56Z</time>
      </trkpt>
      <trkpt lat="48.1599980" lon="7.5332750">
        <ele>-245.0</ele>
        <time>2022-06-04T07:46:00Z</time>
      </trkpt>
      <trkpt lat="48.1600230" lon="7.5330160">
        <ele>-244.2</ele>
        <time>2022-06-04T07:46:04Z</time>
      </trkpt>
      <trkpt lat="48.1601460" lon="7.5329130">
        <ele>-244.2</ele>
        <time>2022-06-04T07:46:08Z</time>
      </trkpt>
      <trkpt lat="48.1601900" lon="7.5330700">
        <ele>-243.8</ele>
        <time>2022-06-04T07:46:12Z</time>
      </trkpt>
      <trkpt lat="48.1601760" lon="7.5332930">
        <ele>-243.6</ele>
        <time>2022-06-04T07:46:16Z</time>
      </trkpt>
      <trkpt lat="48.1601500" lon="7.5335300">
        <ele>-242.8</ele>
        <time>2022-06-04T07:46:20Z</time>
      </trkpt>
      <trkpt lat="48.1601200" lon="7.5337010">
        <ele>-243.0</ele>
        <time>2022-06-04T07:46:24Z</time>
      </trkpt>
      <trkpt lat="48.1600980" lon="7.5338710">
        <ele>-242.2</ele>
        <time>2022-06-04T07:46:28Z</time>
      </trkpt>
      <trkpt lat="48.1600650" lon="7.5340850">
        <ele>-242.0</ele>
        <time>2022-06-04T07:46:32Z</time>
      </trkpt>
      <trkpt lat="48.1600350" lon="7.5343130">
        <ele>-241.4</ele>
        <time>2022-06-04T07:46:36Z</time>
      </trkpt>
      <trkpt lat="48.1600130" lon="7.5345230">
        <ele>-240.8</ele>
        <time>2022-06-04T07:46:40Z</time>
      </trkpt>
      <trkpt lat="48.1600000" lon="7.5347330">
        <ele>-240.6</ele>
        <time>2022-06-04T07:46:44Z</time>
      </trkpt>
      <trkpt lat="48.1599910" lon="7.5349260">
        <ele>-240.4</ele>
        <time>2022-06-04T07:46:48Z</time>
      </trkpt>
      <trkpt lat="48.1599900" lon="7.5351250">
        <ele>-240.4</ele>
        <time>2022-06-04T07:46:52Z</time>
      </trkpt>
      <trkpt lat="48.1599850" lon="7.5353280">
        <ele>-239.8</ele>
        <time>2022-06-04T07:46:56Z</time>
      </trkpt>
      <trkpt lat="48.1599780" lon="7.5355580">
        <ele>-239.6</ele>
        <time>2022-06-04T07:47:00Z</time>
      </trkpt>
      <trkpt lat="48.1599700" lon="7.5358310">
        <ele>-241.4</ele>
        <time>2022-06-04T07:47:04Z</time>
      </trkpt>
      <trkpt lat="48.1599450" lon="7.5361250">
        <ele>-241.4</ele>
        <time>2022-06-04T07:47:08Z</time>
      </trkpt>
      <trkpt lat="48.1599060" lon="7.5364160">
        <ele>-242.0</ele>
        <time>2022-06-04T07:47:12Z</time>
      </trkpt>
      <trkpt lat="48.1598910" lon="7.5366650">
        <ele>-243.2</ele>
        <time>2022-06-04T07:47:16Z</time>
      </trkpt>
      <trkpt lat="48.1598710" lon="7.5368980">
        <ele>-243.4</ele>
        <time>2022-06-04T07:47:20Z</time>
      </trkpt>
      <trkpt lat="48.1598510" lon="7.5371030">
        <ele>-243.6</ele>
        <time>2022-06-04T07:47:24Z</time>
      </trkpt>
      <trkpt lat="48.1598410" lon="7.5373360">
        <ele>-243.6</ele>
        <time>2022-06-04T07:47:28Z</time>
      </trkpt>
      <trkpt lat="48.1598250" lon="7.5376060">
        <ele>-244.2</ele>
        <time>2022-06-04T07:47:32Z</time>
      </trkpt>
      <trkpt lat="48.1598060" lon="7.5378960">
        <ele>-243.6</ele>
        <time>2022-06-04T07:47:36Z</time>
      </trkpt>
      <trkpt lat="48.1597930" lon="7.5381960">
        <ele>-244.8</ele>
        <time>2022-06-04T07:47:40Z</time>
      </trkpt>
      <trkpt lat="48.1597830" lon="7.5384910">
        <ele>-243.6</ele>
        <time>2022-06-04T07:47:44Z</time>
      </trkpt>
      <trkpt lat="48.1597630" lon="7.5387850">
        <ele>-244.0</ele>
        <time>2022-06-04T07:47:48Z</time>
      </trkpt>
      <trkpt lat="48.1597650" lon="7.5390750">
        <ele>-245.4</ele>
        <time>2022-06-04T07:47:52Z</time>
      </trkpt>
      <trkpt lat="48.1597630" lon="7.5393660">
        <ele>-245.4</ele>
        <time>2022-06-04T07:47:56Z</time>
      </trkpt>
      <trkpt lat="48.1597530" lon="7.5396530">
        <ele>-245.0</ele>
        <time>2022-06-04T07:48:00Z</time>
      </trkpt>
      <trkpt lat="48.1597480" lon="7.5399330">
        <ele>-245.2</ele>
        <time>2022-06-04T07:48:04Z</time>
      </trkpt>
      <trkpt lat="48.1597430" lon="7.5402160">
        <ele>-245.4</ele>
        <time>2022-06-04T07:48:08Z</time>
      </trkpt>
      <trkpt lat="48.1597150" lon="7.5405010">
        <ele>-246.0</ele>
        <time>2022-06-04T07:48:12Z</time>
      </trkpt>
      <trkpt lat="48.1597000" lon="7.5407830">
        <ele>-245.6</ele>
        <time>2022-06-04T07:48:16Z</time>
      </trkpt>
      <trkpt lat="48.1596860" lon="7.5410600">
        <ele>-245.2</ele>
        <time>2022-06-04T07:48:20Z</time>
      </trkpt>
      <trkpt lat="48.1596660" lon="7.5413200">
        <ele>-245.4</ele>
        <time>2022-06-04T07:48:24Z</time>
      </trkpt>
      <trkpt lat="48.1596510" lon="7.5415700">
        <ele>-244.8</ele>
        <time>2022-06-04T07:48:28Z</time>
      </trkpt>
      <trkpt lat="48.1596230" lon="7.5418380">
        <ele>-245.2</ele>
        <time>2022-06-04T07:48:32Z</time>
      </trkpt>
      <trkpt lat="48.1595950" lon="7.5421080">
        <ele>-245.0</ele>
        <time>2022-06-04T07:48:36Z</time>
      </trkpt>
      <trkpt lat="48.1595710" lon="7.5423710">
        <ele>-245.4</ele>
        <time>2022-06-04T07:48:40Z</time>
      </trkpt>
      <trkpt lat="48.1595280" lon="7.5426250">
        <ele>-245.4</ele>
        <time>2022-06-04T07:48:44Z</time>
      </trkpt>
      <trkpt lat="48.1594800" lon="7.5428850">
        <ele>-244.2</ele>
        <time>2022-06-04T07:48:48Z</time>
      </trkpt>
      <trkpt lat="48.1594380" lon="7.5431450">
        <ele>-244.8</ele>
        <time>2022-06-04T07:48:52Z</time>
      </trkpt>
      <trkpt lat="48.1594030" lon="7.5434050">
        <ele>-245.8</ele>
        <time>2022-06-04T07:48:56Z</time>
      </trkpt>
      <trkpt lat="48.1593550" lon="7.5436530">
        <ele>-244.8</ele>
        <time>2022-06-04T07:49:00Z</time>
      </trkpt>
      <trkpt lat="48.1593380" lon="7.5439130">
        <ele>-244.8</ele>
        <time>2022-06-04T07:49:04Z</time>
      </trkpt>
      <trkpt lat="48.1593160" lon="7.5441610">
        <ele>-245.4</ele>
        <time>2022-06-04T07:49:08Z</time>
      </trkpt>
      <trkpt lat="48.1593500" lon="7.5444210">
        <ele>-245.2</ele>
        <time>2022-06-04T07:49:12Z</time>
      </trkpt>
      <trkpt lat="48.1593600" lon="7.5447130">
        <ele>-246.2</ele>
        <time>2022-06-04T07:49:16Z</time>
      </trkpt>
      <trkpt lat="48.1593680" lon="7.5450130">
        <ele>-245.8</ele>
        <time>2022-06-04T07:49:20Z</time>
      </trkpt>
      <trkpt lat="48.1593680" lon="7.5453180">
        <ele>-246.0</ele>
        <time>2022-06-04T07:49:24Z</time>
      </trkpt>
      <trkpt lat="48.1593630" lon="7.5456300">
        <ele>-246.0</ele>
        <time>2022-06-04T07:49:28Z</time>
      </trkpt>
      <trkpt lat="48.1593680" lon="7.5459450">
        <ele>-245.8</ele>
        <time>2022-06-04T07:49:32Z</time>
      </trkpt>
      <trkpt lat="48.1593850" lon="7.5462560">
        <ele>-246.2</ele>
        <time>2022-06-04T07:49:36Z</time>
      </trkpt>
      <trkpt lat="48.1594250" lon="7.5465650">
        <ele>-247.0</ele>
        <time>2022-06-04T07:49:40Z</time>
      </trkpt>
      <trkpt lat="48.1594750" lon="7.5468750">
        <ele>-247.0</ele>
        <time>2022-06-04T07:49:44Z</time>
      </trkpt>
      <trkpt lat="48.1595250" lon="7.5471830">
        <ele>-246.4</ele>
        <time>2022-06-04T07:49:48Z</time>
      </trkpt>
      <trkpt lat="48.1595700" lon="7.5474680">
        <ele>-246.4</ele>
        <time>2022-06-04T07:49:52Z</time>
      </trkpt>
      <trkpt lat="48.1596130" lon="7.5477550">
        <ele>-246.4</ele>
        <time>2022-06-04T07:49:56Z</time>
      </trkpt>
      <trkpt lat="48.1596650" lon="7.5480480">
        <ele>-246.2</ele>
        <time>2022-06-04T07:50:00Z</time>
      </trkpt>
      <trkpt lat="48.1597430" lon="7.5483310">
        <ele>-246.4</ele>
        <time>2022-06-04T07:50:04Z</time>
      </trkpt>
      <trkpt lat="48.1598360" lon="7.5486050">
        <ele>-246.2</ele>
        <time>2022-06-04T07:50:08Z</time>
      </trkpt>
      <trkpt lat="48.1599510" lon="7.5488600">
        <ele>-247.0</ele>
        <time>2022-06-04T07:50:12Z</time>
      </trkpt>
      <trkpt lat="48.1600380" lon="7.5491310">
        <ele>-247.0</ele>
        <time>2022-06-04T07:50:16Z</time>
      </trkpt>
      <trkpt lat="48.1600860" lon="7.5494100">
        <ele>-246.4</ele>
        <time>2022-06-04T07:50:20Z</time>
      </trkpt>
      <trkpt lat="48.1602000" lon="7.5496530">
        <ele>-246.8</ele>
        <time>2022-06-04T07:50:24Z</time>
      </trkpt>
      <trkpt lat="48.1602780" lon="7.5499330">
        <ele>-246.6</ele>
        <time>2022-06-04T07:50:28Z</time>
      </trkpt>
      <trkpt lat="48.1602880" lon="7.5502310">
        <ele>-246.2</ele>
        <time>2022-06-04T07:50:32Z</time>
      </trkpt>
      <trkpt lat="48.1602700" lon="7.5505200">
        <ele>-246.4</ele>
        <time>2022-06-04T07:50:36Z</time>
      </trkpt>
      <trkpt lat="48.1602360" lon="7.5507860">
        <ele>-246.2</ele>
        <time>2022-06-04T07:50:40Z</time>
      </trkpt>
      <trkpt lat="48.1601750" lon="7.5510610">
        <ele>-246.0</ele>
        <time>2022-06-04T07:50:44Z</time>
      </trkpt>
      <trkpt lat="48.1600760" lon="7.5513100">
        <ele>-246.2</ele>
        <time>2022-06-04T07:50:48Z</time>
      </trkpt>
      <trkpt lat="48.1600080" lon="7.5515780">
        <ele>-246.4</ele>
        <time>2022-06-04T07:50:52Z</time>
      </trkpt>
      <trkpt lat="48.1599410" lon="7.5518510">
        <ele>-246.0</ele>
        <time>2022-06-04T07:50:56Z</time>
      </trkpt>
      <trkpt lat="48.1598810" lon="7.5521250">
        <ele>-246.4</ele>
        <time>2022-06-04T07:51:00Z</time>
      </trkpt>
      <trkpt lat="48.1598110" lon="7.5523810">
        <ele>-246.4</ele>
        <time>2022-06-04T07:51:04Z</time>
      </trkpt>
      <trkpt lat="48.1597560" lon="7.5526380">
        <ele>-246.2</ele>
        <time>2022-06-04T07:51:08Z</time>
      </trkpt>
      <trkpt lat="48.1597060" lon="7.5529010">
        <ele>-246.6</ele>
        <time>2022-06-04T07:51:12Z</time>
      </trkpt>
      <trkpt lat="48.1596660" lon="7.5531850">
        <ele>-246.4</ele>
        <time>2022-06-04T07:51:16Z</time>
      </trkpt>
      <trkpt lat="48.1596080" lon="7.5534680">
        <ele>-246.4</ele>
        <time>2022-06-04T07:51:20Z</time>
      </trkpt>
      <trkpt lat="48.1595460" lon="7.5537360">
        <ele>-246.2</ele>
        <time>2022-06-04T07:51:24Z</time>
      </trkpt>
      <trkpt lat="48.1594630" lon="7.5539800">
        <ele>-246.4</ele>
        <time>2022-06-04T07:51:28Z</time>
      </trkpt>
      <trkpt lat="48.1594010" lon="7.5542360">
        <ele>-246.6</ele>
        <time>2022-06-04T07:51:32Z</time>
      </trkpt>
      <trkpt lat="48.1593400" lon="7.5544850">
        <ele>-245.8</ele>
        <time>2022-06-04T07:51:36Z</time>
      </trkpt>
      <trkpt lat="48.1592760" lon="7.5547130">
        <ele>-246.4</ele>
        <time>2022-06-04T07:51:40Z</time>
      </trkpt>
      <trkpt lat="48.1591560" lon="7.5547530">
        <ele>-246.6</ele>
        <time>2022-06-04T07:51:44Z</time>
      </trkpt>
      <trkpt lat="48.1590150" lon="7.5546710">
        <ele>-246.4</ele>
        <time>2022-06-04T07:51:48Z</time>
      </trkpt>
      <trkpt lat="48.1588700" lon="7.5545830">
        <ele>-246.4</ele>
        <time>2022-06-04T07:51:52Z</time>
      </trkpt>
      <trkpt lat="48.1587210" lon="7.5544810">
        <ele>-246.8</ele>
        <time>2022-06-04T07:51:56Z</time>
      </trkpt>
      <trkpt lat="48.1585800" lon="7.5543710">
        <ele>-246.8</ele>
        <time>2022-06-04T07:52:00Z</time>
      </trkpt>
      <trkpt lat="48.1584480" lon="7.5543130">
        <ele>-246.2</ele>
        <time>2022-06-04T07:52:04Z</time>
      </trkpt>
      <trkpt lat="48.1583280" lon="7.5542430">
        <ele>-246.2</ele>
        <time>2022-06-04T07:52:08Z</time>
      </trkpt>
      <trkpt lat="48.1582260" lon="7.5541910">
        <ele>-246.2</ele>
        <time>2022-06-04T07:52:12Z</time>
      </trkpt>
      <trkpt lat="48.1582210" lon="7.5541130">
        <ele>-246.0</ele>
        <time>2022-06-04T07:52:16Z</time>
      </trkpt>
      <trkpt lat="48.1583310" lon="7.5542410">
        <ele>-246.2</ele>
        <time>2022-06-04T07:52:20Z</time>
      </trkpt>
      <trkpt lat="48.1585080" lon="7.5543360">
        <ele>-246.4</ele>
        <time>2022-06-04T07:52:24Z</time>
      </trkpt>
      <trkpt lat="48.1586980" lon="7.5544680">
        <ele>-246.2</ele>
        <time>2022-06-04T07:52:28Z</time>
      </trkpt>
      <trkpt lat="48.1588860" lon="7.5545880">
        <ele>-246.6</ele>
        <time>2022-06-04T07:52:32Z</time>
      </trkpt>
      <trkpt lat="48.1590750" lon="7.5547000">
        <ele>-247.0</ele>
        <time>2022-06-04T07:52:36Z</time>
      </trkpt>
      <trkpt lat="48.1592210" lon="7.5548730">
        <ele>-246.8</ele>
        <time>2022-06-04T07:52:40Z</time>
      </trkpt>
      <trkpt lat="48.1591550" lon="7.5551330">
        <ele>-246.0</ele>
        <time>2022-06-04T07:52:44Z</time>
      </trkpt>
      <trkpt lat="48.1590580" lon="7.5553560">
        <ele>-246.0</ele>
        <time>2022-06-04T07:52:48Z</time>
      </trkpt>
      <trkpt lat="48.1589050" lon="7.5554260">
        <ele>-247.2</ele>
        <time>2022-06-04T07:52:52Z</time>
      </trkpt>
      <trkpt lat="48.1587400" lon="7.5553910">
        <ele>-248.2</ele>
        <time>2022-06-04T07:52:56Z</time>
      </trkpt>
      <trkpt lat="48.1586010" lon="7.5553510">
        <ele>-247.6</ele>
        <time>2022-06-04T07:53:00Z</time>
      </trkpt>
      <trkpt lat="48.1584910" lon="7.5552860">
        <ele>-248.0</ele>
        <time>2022-06-04T07:53:04Z</time>
      </trkpt>
      <trkpt lat="48.1583730" lon="7.5552350">
        <ele>-247.0</ele>
        <time>2022-06-04T07:53:08Z</time>
      </trkpt>
      <trkpt lat="48.1582480" lon="7.5551980">
        <ele>-248.2</ele>
        <time>2022-06-04T07:53:12Z</time>
      </trkpt>
      <trkpt lat="48.1581380" lon="7.5552580">
        <ele>-247.6</ele>
        <time>2022-06-04T07:53:16Z</time>
      </trkpt>
      <trkpt lat="48.1580750" lon="7.5553960">
        <ele>-247.6</ele>
        <time>2022-06-04T07:53:20Z</time>
      </trkpt>
      <trkpt lat="48.1580050" lon="7.5554980">
        <ele>-247.6</ele>
        <time>2022-06-04T07:53:24Z</time>
      </trkpt>
      <trkpt lat="48.1579450" lon="7.5555900">
        <ele>-247.4</ele>
        <time>2022-06-04T07:53:28Z</time>
      </trkpt>
      <trkpt lat="48.1579000" lon="7.5556500">
        <ele>-247.4</ele>
        <time>2022-06-04T07:53:32Z</time>
      </trkpt>
      <trkpt lat="48.1579000" lon="7.5556500">
        <ele>-247.4</ele>
        <time>2022-06-04T07:53:36Z</time>
      </trkpt>
      <trkpt lat="48.1579000" lon="7.5556500">
        <ele>-247.4</ele>
        <time>2022-06-04T07:53:40Z</time>
      </trkpt>
      <trkpt lat="48.1579000" lon="7.5556500">
        <ele>-247.0</ele>
        <time>2022-06-04T07:53:44Z</time>
      </trkpt>
      <trkpt lat="48.1579000" lon="7.5556500">
        <ele>-246.8</ele>
        <time>2022-06-04T07:53:48Z</time>
      </trkpt>
      <trkpt lat="48.1579000" lon="7.5556500">
        <ele>-247.0</ele>
        <time>2022-06-04T07:53:52Z</time>
      </trkpt>
      <trkpt lat="48.1578700" lon="7.5556630">
        <ele>-247.0</ele>
        <time>2022-06-04T07:53:56Z</time>
      </trkpt>
      <trkpt lat="48.1578500" lon="7.5556860">
        <ele>-247.0</ele>
        <time>2022-06-04T07:54:00Z</time>
      </trkpt>
      <trkpt lat="48.1578310" lon="7.5557250">
        <ele>-246.8</ele>
        <time>2022-06-04T07:54:04Z</time>
      </trkpt>
      <trkpt lat="48.1578180" lon="7.5557680">
        <ele>-246.8</ele>
        <time>2022-06-04T07:54:08Z</time>
      </trkpt>
      <trkpt lat="48.1578180" lon="7.5557680">
        <ele>-246.6</ele>
        <time>2022-06-04T07:54:12Z</time>
      </trkpt>
      <trkpt lat="48.1578180" lon="7.5557680">
        <ele>-247.0</ele>
        <time>2022-06-04T07:54:16Z</time>
      </trkpt>
      <trkpt lat="48.1578180" lon="7.5557680">
        <ele>-246.8</ele>
        <time>2022-06-04T07:54:20Z</time>
      </trkpt>
      <trkpt lat="48.1578180" lon="7.5557680">
        <ele>-247.0</ele>
        <time>2022-06-04T07:54:24Z</time>
      </trkpt>
      <trkpt lat="48.1578180" lon="7.5557680">
        <ele>-247.2</ele>
        <time>2022-06-04T07:54:28Z</time>
      </trkpt>
      <trkpt lat="48.1578180" lon="7.5557680">
        <ele>-246.4</ele>
        <time>2022-06-04T07:54:32Z</time>
      </trkpt>
      <trkpt lat="48.1578180" lon="7.5557680">
        <ele>-247.4</ele>
        <time>2022-06-04T07:54:36Z</time>
      </trkpt>
      <trkpt lat="48.1578180" lon="7.5557680">
        <ele>-246.8</ele>
        <time>2022-06-04T07:54:40Z</time>
      </trkpt>
      <trkpt lat="48.1578180" lon="7.5557680">
        <ele>-247.0</ele>
        <time>2022-06-04T07:54:44Z</time>
      </trkpt>
      <trkpt lat="48.1578180" lon="7.5557680">
        <ele>-247.0</ele>
        <time>2022-06-04T07:54:48Z</time>
      </trkpt>
      <trkpt lat="48.1578180" lon="7.5557680">
        <ele>-246.6</ele>
        <time>2022-06-04T07:54:52Z</time>
      </trkpt>
      <trkpt lat="48.1578180" lon="7.5557680">
        <ele>-246.8</ele>
        <time>2022-06-04T07:54:56Z</time>
      </trkpt>
      <trkpt lat="48.1578180" lon="7.5557680">
        <ele>-247.0</ele>
        <time>2022-06-04T07:55:00Z</time>
      </trkpt>
      <trkpt lat="48.1578180" lon="7.5557680">
        <ele>-247.0</ele>
        <time>2022-06-04T07:55:04Z</time>
      </trkpt>
      <trkpt lat="48.1578180" lon="7.5557680">
        <ele>-247.0</ele>
        <time>2022-06-04T07:55:08Z</time>
      </trkpt>
      <trkpt lat="48.1578180" lon="7.5557680">
        <ele>-246.6</ele>
        <time>2022-06-04T07:55:12Z</time>
      </trkpt>
      <trkpt lat="48.1578180" lon="7.5557680">
        <ele>-246.8</ele>
        <time>2022-06-04T07:55:16Z</time>
      </trkpt>
      <trkpt lat="48.1578180" lon="7.5557680">
        <ele>-247.0</ele>
        <time>2022-06-04T07:55:20Z</time>
      </trkpt>
      <trkpt lat="48.1578180" lon="7.5557680">
        <ele>-246.6</ele>
        <time>2022-06-04T07:55:24Z</time>
      </trkpt>
      <trkpt lat="48.1578180" lon="7.5557680">
        <ele>-246.8</ele>
        <time>2022-06-04T07:55:28Z</time>
      </trkpt>
      <trkpt lat="48.1578180" lon="7.5557680">
        <ele>-246.8</ele>
        <time>2022-06-04T07:55:32Z</time>
      </trkpt>
      <trkpt lat="48.1578180" lon="7.5557680">
        <ele>-246.8</ele>
        <time>2022-06-04T07:55:36Z</time>
      </trkpt>
      <trkpt lat="48.1578180" lon="7.5557680">
        <ele>-246.6</ele>
        <time>2022-06-04T07:55:40Z</time>
      </trkpt>
      <trkpt lat="48.1578180" lon="7.5557680">
        <ele>-247.0</ele>
        <time>2022-06-04T07:55:44Z</time>
      </trkpt>
      <trkpt lat="48.1578180" lon="7.5557680">
        <ele>-247.0</ele>
        <time>2022-06-04T07:55:48Z</time>
      </trkpt>
      <trkpt lat="48.1578180" lon="7.5557680">
        <ele>-246.4</ele>
        <time>2022-06-04T07:55:52Z</time>
      </trkpt>
      <trkpt lat="48.1578180" lon="7.5557680">
        <ele>-246.8</ele>
        <time>2022-06-04T07:55:56Z</time>
      </trkpt>
      <trkpt lat="48.1578180" lon="7.5557680">
        <ele>-246.8</ele>
        <time>2022-06-04T07:56:00Z</time>
      </trkpt>
      <trkpt lat="48.1578180" lon="7.5557680">
        <ele>-246.8</ele>
        <time>2022-06-04T07:56:04Z</time>
      </trkpt>
      <trkpt lat="48.1578180" lon="7.5557680">
        <ele>-246.8</ele>
        <time>2022-06-04T07:56:08Z</time>
      </trkpt>
      <trkpt lat="48.1578180" lon="7.5557680">
        <ele>-247.4</ele>
        <time>2022-06-04T07:56:12Z</time>
      </trkpt>
      <trkpt lat="48.1578180" lon="7.5557680">
        <ele>-247.4</ele>
        <time>2022-06-04T07:56:16Z</time>
      </trkpt>
      <trkpt lat="48.1578180" lon="7.5557680">
        <ele>-247.4</ele>
        <time>2022-06-04T07:56:20Z</time>
      </trkpt>
      <trkpt lat="48.1578180" lon="7.5557680">
        <ele>-247.0</ele>
        <time>2022-06-04T07:56:24Z</time>
      </trkpt>
      <trkpt lat="48.1578180" lon="7.5557680">
        <ele>-246.6</ele>
        <time>2022-06-04T07:56:28Z</time>
      </trkpt>
      <trkpt lat="48.1578180" lon="7.5557680">
        <ele>-247.4</ele>
        <time>2022-06-04T07:56:32Z</time>
      </trkpt>
      <trkpt lat="48.1578180" lon="7.5557680">
        <ele>-247.0</ele>
        <time>2022-06-04T07:56:36Z</time>
      </trkpt>
      <trkpt lat="48.1578180" lon="7.5557680">
        <ele>-247.0</ele>
        <time>2022-06-04T07:56:40Z</time>
      </trkpt>
      <trkpt lat="48.1578180" lon="7.5557680">
        <ele>-246.8</ele>
        <time>2022-06-04T07:56:44Z</time>
      </trkpt>
      <trkpt lat="48.1578180" lon="7.5557680">
        <ele>-247.0</ele>
        <time>2022-06-04T07:56:48Z</time>
      </trkpt>
      <trkpt lat="48.1578180" lon="7.5557680">
        <ele>-246.8</ele>
        <time>2022-06-04T07:56:52Z</time>
      </trkpt>
      <trkpt lat="48.1578180" lon="7.5557680">
        <ele>-247.2</ele>
        <time>2022-06-04T07:56:56Z</time>
      </trkpt>
      <trkpt lat="48.1578180" lon="7.5557680">
        <ele>-246.6</ele>
        <time>2022-06-04T07:57:00Z</time>
      </trkpt>
      <trkpt lat="48.1578180" lon="7.5557680">
        <ele>-247.6</ele>
        <time>2022-06-04T07:57:04Z</time>
      </trkpt>
      <trkpt lat="48.1578180" lon="7.5557680">
        <ele>-247.4</ele>
        <time>2022-06-04T07:57:08Z</time>
      </trkpt>
      <trkpt lat="48.1578180" lon="7.5557680">
        <ele>-247.0</ele>
        <time>2022-06-04T07:57:12Z</time>
      </trkpt>
      <trkpt lat="48.1578180" lon="7.5557680">
        <ele>-247.0</ele>
        <time>2022-06-04T07:57:16Z</time>
      </trkpt>
      <trkpt lat="48.1578180" lon="7.5557680">
        <ele>-247.0</ele>
        <time>2022-06-04T07:57:20Z</time>
      </trkpt>
      <trkpt lat="48.1578180" lon="7.5557680">
        <ele>-247.0</ele>
        <time>2022-06-04T07:57:24Z</time>
      </trkpt>
      <trkpt lat="48.1578180" lon="7.5557680">
        <ele>-247.2</ele>
        <time>2022-06-04T07:57:28Z</time>
      </trkpt>
      <trkpt lat="48.1578180" lon="7.5557680">
        <ele>-247.2</ele>
        <time>2022-06-04T07:57:32Z</time>
      </trkpt>
      <trkpt lat="48.1578180" lon="7.5557680">
        <ele>-246.8</ele>
        <time>2022-06-04T07:57:36Z</time>
      </trkpt>
      <trkpt lat="48.1578180" lon="7.5557680">
        <ele>-246.6</ele>
        <time>2022-06-04T07:57:40Z</time>
      </trkpt>
      <trkpt lat="48.1578180" lon="7.5557680">
        <ele>-247.0</ele>
        <time>2022-06-04T07:57:44Z</time>
      </trkpt>
      <trkpt lat="48.1578180" lon="7.5557680">
        <ele>-246.6</ele>
        <time>2022-06-04T07:57:48Z</time>
      </trkpt>
      <trkpt lat="48.1578180" lon="7.5557680">
        <ele>-246.8</ele>
        <time>2022-06-04T07:57:52Z</time>
      </trkpt>
      <trkpt lat="48.1578180" lon="7.5557680">
        <ele>-246.8</ele>
        <time>2022-06-04T07:57:56Z</time>
      </trkpt>
      <trkpt lat="48.1578180" lon="7.5557680">
        <ele>-246.8</ele>
        <time>2022-06-04T07:58:00Z</time>
      </trkpt>
      <trkpt lat="48.1578180" lon="7.5557680">
        <ele>-247.2</ele>
        <time>2022-06-04T07:58:04Z</time>
      </trkpt>
      <trkpt lat="48.1578180" lon="7.5557680">
        <ele>-247.0</ele>
        <time>2022-06-04T07:58:08Z</time>
      </trkpt>
      <trkpt lat="48.1578180" lon="7.5557680">
        <ele>-247.0</ele>
        <time>2022-06-04T07:58:12Z</time>
      </trkpt>
      <trkpt lat="48.1578180" lon="7.5557680">
        <ele>-247.0</ele>
        <time>2022-06-04T07:58:16Z</time>
      </trkpt>
      <trkpt lat="48.1578180" lon="7.5557680">
        <ele>-246.4</ele>
        <time>2022-06-04T07:58:20Z</time>
      </trkpt>
      <trkpt lat="48.1578180" lon="7.5557680">
        <ele>-246.8</ele>
        <time>2022-06-04T07:58:24Z</time>
      </trkpt>
      <trkpt lat="48.1578180" lon="7.5557680">
        <ele>-247.0</ele>
        <time>2022-06-04T07:58:28Z</time>
      </trkpt>
      <trkpt lat="48.1578180" lon="7.5557680">
        <ele>-247.0</ele>
        <time>2022-06-04T07:58:32Z</time>
      </trkpt>
      <trkpt lat="48.1578180" lon="7.5557680">
        <ele>-246.4</ele>
        <time>2022-06-04T07:58:36Z</time>
      </trkpt>
      <trkpt lat="48.1578180" lon="7.5557680">
        <ele>-246.8</ele>
        <time>2022-06-04T07:58:40Z</time>
      </trkpt>
      <trkpt lat="48.1578180" lon="7.5557680">
        <ele>-246.8</ele>
        <time>2022-06-04T07:58:44Z</time>
      </trkpt>
      <trkpt lat="48.1578180" lon="7.5557680">
        <ele>-246.6</ele>
        <time>2022-06-04T07:58:48Z</time>
      </trkpt>
      <trkpt lat="48.1578180" lon="7.5557680">
        <ele>-246.6</ele>
        <time>2022-06-04T07:58:52Z</time>
      </trkpt>
      <trkpt lat="48.1578180" lon="7.5557680">
        <ele>-246.6</ele>
        <time>2022-06-04T07:58:56Z</time>
      </trkpt>
      <trkpt lat="48.1578180" lon="7.5557680">
        <ele>-246.6</ele>
        <time>2022-06-04T07:59:00Z</time>
      </trkpt>
      <trkpt lat="48.1578180" lon="7.5557680">
        <ele>-246.6</ele>
        <time>2022-06-04T07:59:04Z</time>
      </trkpt>
      <trkpt lat="48.1578180" lon="7.5557680">
        <ele>-246.6</ele>
        <time>2022-06-04T07:59:08Z</time>
      </trkpt>
      <trkpt lat="48.1578180" lon="7.5557680">
        <ele>-246.6</ele>
        <time>2022-06-04T07:59:12Z</time>
      </trkpt>
      <trkpt lat="48.1578180" lon="7.5557680">
        <ele>-246.6</ele>
        <time>2022-06-04T07:59:16Z</time>
      </trkpt>
      <trkpt lat="48.1578180" lon="7.5557680">
        <ele>-246.8</ele>
        <time>2022-06-04T07:59:20Z</time>
      </trkpt>
      <trkpt lat="48.1578180" lon="7.5557680">
        <ele>-247.0</ele>
        <time>2022-06-04T07:59:24Z</time>
      </trkpt>
      <trkpt lat="48.1578180" lon="7.5557680">
        <ele>-247.4</ele>
        <time>2022-06-04T07:59:28Z</time>
      </trkpt>
      <trkpt lat="48.1578180" lon="7.5557680">
        <ele>-247.0</ele>
        <time>2022-06-04T07:59:32Z</time>
      </trkpt>
      <trkpt lat="48.1578180" lon="7.5557680">
        <ele>-247.2</ele>
        <time>2022-06-04T07:59:36Z</time>
      </trkpt>
      <trkpt lat="48.1578180" lon="7.5557680">
        <ele>-247.0</ele>
        <time>2022-06-04T07:59:40Z</time>
      </trkpt>
      <trkpt lat="48.1578180" lon="7.5557680">
        <ele>-246.8</ele>
        <time>2022-06-04T07:59:44Z</time>
      </trkpt>
      <trkpt lat="48.1578180" lon="7.5557680">
        <ele>-246.4</ele>
        <time>2022-06-04T07:59:48Z</time>
      </trkpt>
      <trkpt lat="48.1578180" lon="7.5557680">
        <ele>-246.4</ele>
        <time>2022-06-04T07:59:52Z</time>
      </trkpt>
      <trkpt lat="48.1578180" lon="7.5557680">
        <ele>-246.8</ele>
        <time>2022-06-04T07:59:56Z</time>
      </trkpt>
      <trkpt lat="48.1578180" lon="7.5557680">
        <ele>-247.0</ele>
        <time>2022-06-04T08:00:00Z</time>
      </trkpt>
      <trkpt lat="48.1578180" lon="7.5557680">
        <ele>-246.6</ele>
        <time>2022-06-04T08:00:04Z</time>
      </trkpt>
      <trkpt lat="48.1578180" lon="7.5557680">
        <ele>-246.8</ele>
        <time>2022-06-04T08:00:08Z</time>
      </trkpt>
      <trkpt lat="48.1578180" lon="7.5557680">
        <ele>-246.6</ele>
        <time>2022-06-04T08:00:12Z</time>
      </trkpt>
      <trkpt lat="48.1578180" lon="7.5557680">
        <ele>-246.6</ele>
        <time>2022-06-04T08:00:16Z</time>
      </trkpt>
      <trkpt lat="48.1578180" lon="7.5557680">
        <ele>-246.6</ele>
        <time>2022-06-04T08:00:20Z</time>
      </trkpt>
      <trkpt lat="48.1578180" lon="7.5557680">
        <ele>-246.4</ele>
        <time>2022-06-04T08:00:24Z</time>
      </trkpt>
      <trkpt lat="48.1578180" lon="7.5557680">
        <ele>-246.4</ele>
        <time>2022-06-04T08:00:28Z</time>
      </trkpt>
      <trkpt lat="48.1578180" lon="7.5557680">
        <ele>-246.2</ele>
        <time>2022-06-04T08:00:32Z</time>
      </trkpt>
      <trkpt lat="48.1578180" lon="7.5557680">
        <ele>-246.0</ele>
        <time>2022-06-04T08:00:36Z</time>
      </trkpt>
      <trkpt lat="48.1578180" lon="7.5557680">
        <ele>-246.4</ele>
        <time>2022-06-04T08:00:40Z</time>
      </trkpt>
      <trkpt lat="48.1578180" lon="7.5557680">
        <ele>-246.4</ele>
        <time>2022-06-04T08:00:44Z</time>
      </trkpt>
      <trkpt lat="48.1578180" lon="7.5557680">
        <ele>-246.2</ele>
        <time>2022-06-04T08:00:48Z</time>
      </trkpt>
      <trkpt lat="48.1578180" lon="7.5557680">
        <ele>-246.2</ele>
        <time>2022-06-04T08:00:52Z</time>
      </trkpt>
      <trkpt lat="48.1578180" lon="7.5557680">
        <ele>-247.0</ele>
        <time>2022-06-04T08:00:56Z</time>
      </trkpt>
      <trkpt lat="48.1578180" lon="7.5557680">
        <ele>-246.6</ele>
        <time>2022-06-04T08:01:00Z</time>
      </trkpt>
      <trkpt lat="48.1578180" lon="7.5557680">
        <ele>-247.0</ele>
        <time>2022-06-04T08:01:04Z</time>
      </trkpt>
      <trkpt lat="48.1578180" lon="7.5557680">
        <ele>-246.2</ele>
        <time>2022-06-04T08:01:08Z</time>
      </trkpt>
      <trkpt lat="48.1578180" lon="7.5557680">
        <ele>-246.6</ele>
        <time>2022-06-04T08:01:12Z</time>
      </trkpt>
      <trkpt lat="48.1578180" lon="7.5557680">
        <ele>-246.6</ele>
        <time>2022-06-04T08:01:16Z</time>
      </trkpt>
      <trkpt lat="48.1578180" lon="7.5557680">
        <ele>-247.0</ele>
        <time>2022-06-04T08:01:20Z</time>
      </trkpt>
      <trkpt lat="48.1578180" lon="7.5557680">
        <ele>-246.4</ele>
        <time>2022-06-04T08:01:24Z</time>
      </trkpt>
      <trkpt lat="48.1578180" lon="7.5557680">
        <ele>-246.6</ele>
        <time>2022-06-04T08:01:28Z</time>
      </trkpt>
      <trkpt lat="48.1578180" lon="7.5557680">
        <ele>-246.6</ele>
        <time>2022-06-04T08:01:32Z</time>
      </trkpt>
      <trkpt lat="48.1578180" lon="7.5557680">
        <ele>-246.6</ele>
        <time>2022-06-04T08:01:36Z</time>
      </trkpt>
      <trkpt lat="48.1578180" lon="7.5557680">
        <ele>-246.8</ele>
        <time>2022-06-04T08:01:40Z</time>
      </trkpt>
      <trkpt lat="48.1578180" lon="7.5557680">
        <ele>-246.4</ele>
        <time>2022-06-04T08:01:44Z</time>
      </trkpt>
      <trkpt lat="48.1578180" lon="7.5557680">
        <ele>-246.8</ele>
        <time>2022-06-04T08:01:48Z</time>
      </trkpt>
      <trkpt lat="48.1578180" lon="7.5557680">
        <ele>-246.4</ele>
        <time>2022-06-04T08:01:52Z</time>
      </trkpt>
      <trkpt lat="48.1578180" lon="7.5557680">
        <ele>-246.4</ele>
        <time>2022-06-04T08:01:56Z</time>
      </trkpt>
      <trkpt lat="48.1578180" lon="7.5557680">
        <ele>-246.6</ele>
        <time>2022-06-04T08:02:00Z</time>
      </trkpt>
      <trkpt lat="48.1578180" lon="7.5557680">
        <ele>-246.8</ele>
        <time>2022-06-04T08:02:04Z</time>
      </trkpt>
      <trkpt lat="48.1578180" lon="7.5557680">
        <ele>-246.8</ele>
        <time>2022-06-04T08:02:08Z</time>
      </trkpt>
      <trkpt lat="48.1578180" lon="7.5557680">
        <ele>-247.2</ele>
        <time>2022-06-04T08:02:12Z</time>
      </trkpt>
      <trkpt lat="48.1578180" lon="7.5557680">
        <ele>-247.0</ele>
        <time>2022-06-04T08:02:16Z</time>
      </trkpt>
      <trkpt lat="48.1578180" lon="7.5557680">
        <ele>-247.0</ele>
        <time>2022-06-04T08:02:20Z</time>
      </trkpt>
      <trkpt lat="48.1578180" lon="7.5557680">
        <ele>-246.6</ele>
        <time>2022-06-04T08:02:24Z</time>
      </trkpt>
      <trkpt lat="48.1578180" lon="7.5557680">
        <ele>-246.6</ele>
        <time>2022-06-04T08:02:28Z</time>
      </trkpt>
      <trkpt lat="48.1578180" lon="7.5557680">
        <ele>-247.0</ele>
        <time>2022-06-04T08:02:32Z</time>
      </trkpt>
      <trkpt lat="48.1578180" lon="7.5557680">
        <ele>-246.8</ele>
        <time>2022-06-04T08:02:36Z</time>
      </trkpt>
      <trkpt lat="48.1578180" lon="7.5557680">
        <ele>-246.8</ele>
        <time>2022-06-04T08:02:40Z</time>
      </trkpt>
      <trkpt lat="48.1578180" lon="7.5557680">
        <ele>-246.8</ele>
        <time>2022-06-04T08:02:44Z</time>
      </trkpt>
      <trkpt lat="48.1578180" lon="7.5557680">
        <ele>-247.2</ele>
        <time>2022-06-04T08:02:48Z</time>
      </trkpt>
      <trkpt lat="48.1578180" lon="7.5557680">
        <ele>-247.6</ele>
        <time>2022-06-04T08:02:52Z</time>
      </trkpt>
      <trkpt lat="48.1578180" lon="7.5557680">
        <ele>-246.8</ele>
        <time>2022-06-04T08:02:56Z</time>
      </trkpt>
      <trkpt lat="48.1578180" lon="7.5557680">
        <ele>-246.8</ele>
        <time>2022-06-04T08:03:00Z</time>
      </trkpt>
      <trkpt lat="48.1578180" lon="7.5557680">
        <ele>-246.6</ele>
        <time>2022-06-04T08:03:04Z</time>
      </trkpt>
      <trkpt lat="48.1578180" lon="7.5557680">
        <ele>-247.4</ele>
        <time>2022-06-04T08:03:08Z</time>
      </trkpt>
      <trkpt lat="48.1578180" lon="7.5557680">
        <ele>-247.0</ele>
        <time>2022-06-04T08:03:12Z</time>
      </trkpt>
      <trkpt lat="48.1578180" lon="7.5557680">
        <ele>-247.0</ele>
        <time>2022-06-04T08:03:16Z</time>
      </trkpt>
      <trkpt lat="48.1578180" lon="7.5557680">
        <ele>-247.2</ele>
        <time>2022-06-04T08:03:20Z</time>
      </trkpt>
      <trkpt lat="48.1578180" lon="7.5557680">
        <ele>-247.2</ele>
        <time>2022-06-04T08:03:24Z</time>
      </trkpt>
      <trkpt lat="48.1578180" lon="7.5557680">
        <ele>-246.6</ele>
        <time>2022-06-04T08:03:28Z</time>
      </trkpt>
      <trkpt lat="48.1578180" lon="7.5557680">
        <ele>-247.0</ele>
        <time>2022-06-04T08:03:32Z</time>
      </trkpt>
      <trkpt lat="48.1578180" lon="7.5557680">
        <ele>-246.6</ele>
        <time>2022-06-04T08:03:36Z</time>
      </trkpt>
      <trkpt lat="48.1578180" lon="7.5557680">
        <ele>-247.0</ele>
        <time>2022-06-04T08:03:40Z</time>
      </trkpt>
      <trkpt lat="48.1578180" lon="7.5557680">
        <ele>-247.0</ele>
        <time>2022-06-04T08:03:44Z</time>
      </trkpt>
      <trkpt lat="48.1578180" lon="7.5557680">
        <ele>-247.0</ele>
        <time>2022-06-04T08:03:48Z</time>
      </trkpt>
      <trkpt lat="48.1578180" lon="7.5557680">
        <ele>-247.2</ele>
        <time>2022-06-04T08:03:52Z</time>
      </trkpt>
      <trkpt lat="48.1578180" lon="7.5557680">
        <ele>-247.0</ele>
        <time>2022-06-04T08:03:56Z</time>
      </trkpt>
      <trkpt lat="48.1578180" lon="7.5557680">
        <ele>-247.4</ele>
        <time>2022-06-04T08:04:00Z</time>
      </trkpt>
      <trkpt lat="48.1578180" lon="7.5557680">
        <ele>-247.4</ele>
        <time>2022-06-04T08:04:04Z</time>
      </trkpt>
      <trkpt lat="48.1578180" lon="7.5557680">
        <ele>-247.0</ele>
        <time>2022-06-04T08:04:08Z</time>
      </trkpt>
      <trkpt lat="48.1578180" lon="7.5557680">
        <ele>-247.2</ele>
        <time>2022-06-04T08:04:12Z</time>
      </trkpt>
      <trkpt lat="48.1578180" lon="7.5557680">
        <ele>-247.6</ele>
        <time>2022-06-04T08:04:16Z</time>
      </trkpt>
      <trkpt lat="48.1578180" lon="7.5557680">
        <ele>-247.6</ele>
        <time>2022-06-04T08:04:20Z</time>
      </trkpt>
      <trkpt lat="48.1578180" lon="7.5557680">
        <ele>-247.6</ele>
        <time>2022-06-04T08:04:24Z</time>
      </trkpt>
      <trkpt lat="48.1578180" lon="7.5557680">
        <ele>-247.6</ele>
        <time>2022-06-04T08:04:28Z</time>
      </trkpt>
      <trkpt lat="48.1578180" lon="7.5557680">
        <ele>-247.2</ele>
        <time>2022-06-04T08:04:32Z</time>
      </trkpt>
      <trkpt lat="48.1578180" lon="7.5557680">
        <ele>-247.6</ele>
        <time>2022-06-04T08:04:36Z</time>
      </trkpt>
      <trkpt lat="48.1578180" lon="7.5557680">
        <ele>-247.8</ele>
        <time>2022-06-04T08:04:40Z</time>
      </trkpt>
      <trkpt lat="48.1578180" lon="7.5557680">
        <ele>-247.8</ele>
        <time>2022-06-04T08:04:44Z</time>
      </trkpt>
      <trkpt lat="48.1578180" lon="7.5557680">
        <ele>-247.6</ele>
        <time>2022-06-04T08:04:48Z</time>
      </trkpt>
      <trkpt lat="48.1578180" lon="7.5557680">
        <ele>-247.6</ele>
        <time>2022-06-04T08:04:52Z</time>
      </trkpt>
      <trkpt lat="48.1578180" lon="7.5557680">
        <ele>-247.4</ele>
        <time>2022-06-04T08:04:56Z</time>
      </trkpt>
      <trkpt lat="48.1578180" lon="7.5557680">
        <ele>-247.6</ele>
        <time>2022-06-04T08:05:00Z</time>
      </trkpt>
      <trkpt lat="48.1578180" lon="7.5557680">
        <ele>-247.6</ele>
        <time>2022-06-04T08:05:04Z</time>
      </trkpt>
      <trkpt lat="48.1578180" lon="7.5557680">
        <ele>-247.6</ele>
        <time>2022-06-04T08:05:08Z</time>
      </trkpt>
      <trkpt lat="48.1578180" lon="7.5557680">
        <ele>-247.4</ele>
        <time>2022-06-04T08:05:12Z</time>
      </trkpt>
      <trkpt lat="48.1578180" lon="7.5557680">
        <ele>-247.6</ele>
        <time>2022-06-04T08:05:16Z</time>
      </trkpt>
      <trkpt lat="48.1578180" lon="7.5557680">
        <ele>-247.6</ele>
        <time>2022-06-04T08:05:20Z</time>
      </trkpt>
      <trkpt lat="48.1578180" lon="7.5557680">
        <ele>-247.6</ele>
        <time>2022-06-04T08:05:24Z</time>
      </trkpt>
      <trkpt lat="48.1578180" lon="7.5557680">
        <ele>-247.6</ele>
        <time>2022-06-04T08:05:28Z</time>
      </trkpt>
      <trkpt lat="48.1578180" lon="7.5557680">
        <ele>-248.2</ele>
        <time>2022-06-04T08:05:32Z</time>
      </trkpt>
      <trkpt lat="48.1578460" lon="7.5556260">
        <ele>-247.6</ele>
        <time>2022-06-04T08:05:36Z</time>
      </trkpt>
      <trkpt lat="48.1578280" lon="7.5556380">
        <ele>-247.6</ele>
        <time>2022-06-04T08:05:40Z</time>
      </trkpt>
      <trkpt lat="48.1578310" lon="7.5556010">
        <ele>-248.2</ele>
        <time>2022-06-04T08:05:44Z</time>
      </trkpt>
      <trkpt lat="48.1578850" lon="7.5555730">
        <ele>-248.2</ele>
        <time>2022-06-04T08:05:48Z</time>
      </trkpt>
      <trkpt lat="48.1579580" lon="7.5555100">
        <ele>-248.2</ele>
        <time>2022-06-04T08:05:52Z</time>
      </trkpt>
      <trkpt lat="48.1580430" lon="7.5553980">
        <ele>-248.6</ele>
        <time>2022-06-04T08:05:56Z</time>
      </trkpt>
      <trkpt lat="48.1581080" lon="7.5552780">
        <ele>-247.8</ele>
        <time>2022-06-04T08:06:00Z</time>
      </trkpt>
      <trkpt lat="48.1581360" lon="7.5551500">
        <ele>-247.8</ele>
        <time>2022-06-04T08:06:04Z</time>
      </trkpt>
      <trkpt lat="48.1580460" lon="7.5551100">
        <ele>-248.2</ele>
        <time>2022-06-04T08:06:08Z</time>
      </trkpt>
      <trkpt lat="48.1579360" lon="7.5551000">
        <ele>-248.2</ele>
        <time>2022-06-04T08:06:12Z</time>
      </trkpt>
      <trkpt lat="48.1578550" lon="7.5551310">
        <ele>-247.8</ele>
        <time>2022-06-04T08:06:16Z</time>
      </trkpt>
      <trkpt lat="48.1577810" lon="7.5551380">
        <ele>-247.8</ele>
        <time>2022-06-04T08:06:20Z</time>
      </trkpt>
      <trkpt lat="48.1576930" lon="7.5551530">
        <ele>-248.2</ele>
        <time>2022-06-04T08:06:24Z</time>
      </trkpt>
      <trkpt lat="48.1576000" lon="7.5551930">
        <ele>-247.6</ele>
        <time>2022-06-04T08:06:28Z</time>
      </trkpt>
      <trkpt lat="48.1575230" lon="7.5552900">
        <ele>-247.6</ele>
        <time>2022-06-04T08:06:32Z</time>
      </trkpt>
      <trkpt lat="48.1574630" lon="7.5553900">
        <ele>-247.6</ele>
        <time>2022-06-04T08:06:36Z</time>
      </trkpt>
      <trkpt lat="48.1574060" lon="7.5554830">
        <ele>-247.0</ele>
        <time>2022-06-04T08:06:40Z</time>
      </trkpt>
      <trkpt lat="48.1573480" lon="7.5555930">
        <ele>-247.4</ele>
        <time>2022-06-04T08:06:44Z</time>
      </trkpt>
      <trkpt lat="48.1572830" lon="7.5557130">
        <ele>-247.4</ele>
        <time>2022-06-04T08:06:48Z</time>
      </trkpt>
      <trkpt lat="48.1572350" lon="7.5558500">
        <ele>-246.8</ele>
        <time>2022-06-04T08:06:52Z</time>
      </trkpt>
      <trkpt lat="48.1572810" lon="7.5559460">
        <ele>-247.6</ele>
        <time>2022-06-04T08:06:56Z</time>
      </trkpt>
      <trkpt lat="48.1573500" lon="7.5559660">
        <ele>-247.0</ele>
        <time>2022-06-04T08:07:00Z</time>
      </trkpt>
      <trkpt lat="48.1574210" lon="7.5559910">
        <ele>-247.6</ele>
        <time>2022-06-04T08:07:04Z</time>
      </trkpt>
      <trkpt lat="48.1574560" lon="7.5559210">
        <ele>-247.8</ele>
        <time>2022-06-04T08:07:08Z</time>
      </trkpt>
      <trkpt lat="48.1575310" lon="7.5558830">
        <ele>-248.2</ele>
        <time>2022-06-04T08:07:12Z</time>
      </trkpt>
      <trkpt lat="48.1575850" lon="7.5558060">
        <ele>-248.2</ele>
        <time>2022-06-04T08:07:16Z</time>
      </trkpt>
      <trkpt lat="48.1575380" lon="7.5558050">
        <ele>-248.2</ele>
        <time>2022-06-04T08:07:20Z</time>
      </trkpt>
      <trkpt lat="48.1574880" lon="7.5559310">
        <ele>-248.0</ele>
        <time>2022-06-04T08:07:24Z</time>
      </trkpt>
      <trkpt lat="48.1574130" lon="7.5559910">
        <ele>-247.6</ele>
        <time>2022-06-04T08:07:28Z</time>
      </trkpt>
      <trkpt lat="48.1573580" lon="7.5559980">
        <ele>-247.8</ele>
        <time>2022-06-04T08:07:32Z</time>
      </trkpt>
      <trkpt lat="48.1573150" lon="7.5559550">
        <ele>-247.6</ele>
        <time>2022-06-04T08:07:36Z</time>
      </trkpt>
      <trkpt lat="48.1573150" lon="7.5559550">
        <ele>-247.4</ele>
        <time>2022-06-04T08:07:40Z</time>
      </trkpt>
      <trkpt lat="48.1573150" lon="7.5559550">
        <ele>-247.6</ele>
        <time>2022-06-04T08:07:44Z</time>
      </trkpt>
      <trkpt lat="48.1573150" lon="7.5559550">
        <ele>-247.6</ele>
        <time>2022-06-04T08:07:48Z</time>
      </trkpt>
      <trkpt lat="48.1573150" lon="7.5559550">
        <ele>-247.6</ele>
        <time>2022-06-04T08:07:52Z</time>
      </trkpt>
      <trkpt lat="48.1573100" lon="7.5559960">
        <ele>-247.6</ele>
        <time>2022-06-04T08:07:56Z</time>
      </trkpt>
      <trkpt lat="48.1573430" lon="7.5559900">
        <ele>-247.4</ele>
        <time>2022-06-04T08:08:00Z</time>
      </trkpt>
      <trkpt lat="48.1574050" lon="7.5559930">
        <ele>-247.8</ele>
        <time>2022-06-04T08:08:04Z</time>
      </trkpt>
      <trkpt lat="48.1574850" lon="7.5559600">
        <ele>-248.2</ele>
        <time>2022-06-04T08:08:08Z</time>
      </trkpt>
      <trkpt lat="48.1575530" lon="7.5558750">
        <ele>-248.2</ele>
        <time>2022-06-04T08:08:12Z</time>
      </trkpt>
      <trkpt lat="48.1575760" lon="7.5557850">
        <ele>-247.6</ele>
        <time>2022-06-04T08:08:16Z</time>
      </trkpt>
      <trkpt lat="48.1575760" lon="7.5557850">
        <ele>-248.0</ele>
        <time>2022-06-04T08:08:20Z</time>
      </trkpt>
      <trkpt lat="48.1575760" lon="7.5557850">
        <ele>-247.8</ele>
        <time>2022-06-04T08:08:24Z</time>
      </trkpt>
      <trkpt lat="48.1575760" lon="7.5557850">
        <ele>-248.0</ele>
        <time>2022-06-04T08:08:28Z</time>
      </trkpt>
      <trkpt lat="48.1575900" lon="7.5557480">
        <ele>-248.2</ele>
        <time>2022-06-04T08:08:32Z</time>
      </trkpt>
      <trkpt lat="48.1575760" lon="7.5557060">
        <ele>-247.8</ele>
        <time>2022-06-04T08:08:36Z</time>
      </trkpt>
      <trkpt lat="48.1576060" lon="7.5556630">
        <ele>-248.0</ele>
        <time>2022-06-04T08:08:40Z</time>
      </trkpt>
      <trkpt lat="48.1576530" lon="7.5556580">
        <ele>-248.2</ele>
        <time>2022-06-04T08:08:44Z</time>
      </trkpt>
      <trkpt lat="48.1577060" lon="7.5555930">
        <ele>-247.8</ele>
        <time>2022-06-04T08:08:48Z</time>
      </trkpt>
      <trkpt lat="48.1577710" lon="7.5555260">
        <ele>-248.2</ele>
        <time>2022-06-04T08:08:52Z</time>
      </trkpt>
      <trkpt lat="48.1578360" lon="7.5554160">
        <ele>-248.2</ele>
        <time>2022-06-04T08:08:56Z</time>
      </trkpt>
      <trkpt lat="48.1579230" lon="7.5553280">
        <ele>-248.4</ele>
        <time>2022-06-04T08:09:00Z</time>
      </trkpt>
      <trkpt lat="48.1580150" lon="7.5552610">
        <ele>-248.6</ele>
        <time>2022-06-04T08:09:04Z</time>
      </trkpt>
      <trkpt lat="48.1581010" lon="7.5552060">
        <ele>-248.4</ele>
        <time>2022-06-04T08:09:08Z</time>
      </trkpt>
      <trkpt lat="48.1581010" lon="7.5552060">
        <ele>-248.6</ele>
        <time>2022-06-04T08:09:12Z</time>
      </trkpt>
      <trkpt lat="48.1581010" lon="7.5552060">
        <ele>-249.0</ele>
        <time>2022-06-04T08:09:16Z</time>
      </trkpt>
      <trkpt lat="48.1581210" lon="7.5551860">
        <ele>-248.2</ele>
        <time>2022-06-04T08:09:20Z</time>
      </trkpt>
      <trkpt lat="48.1581700" lon="7.5551880">
        <ele>-248.8</ele>
        <time>2022-06-04T08:09:24Z</time>
      </trkpt>
      <trkpt lat="48.1582410" lon="7.5551980">
        <ele>-249.0</ele>
        <time>2022-06-04T08:09:28Z</time>
      </trkpt>
      <trkpt lat="48.1583610" lon="7.5552360">
        <ele>-248.6</ele>
        <time>2022-06-04T08:09:32Z</time>
      </trkpt>
      <trkpt lat="48.1584950" lon="7.5552980">
        <ele>-248.8</ele>
        <time>2022-06-04T08:09:36Z</time>
      </trkpt>
      <trkpt lat="48.1586150" lon="7.5553900">
        <ele>-249.2</ele>
        <time>2022-06-04T08:09:40Z</time>
      </trkpt>
      <trkpt lat="48.1587480" lon="7.5554530">
        <ele>-249.0</ele>
        <time>2022-06-04T08:09:44Z</time>
      </trkpt>
      <trkpt lat="48.1588660" lon="7.5554230">
        <ele>-248.4</ele>
        <time>2022-06-04T08:09:48Z</time>
      </trkpt>
      <trkpt lat="48.1589300" lon="7.5554230">
        <ele>-248.2</ele>
        <time>2022-06-04T08:09:52Z</time>
      </trkpt>
      <trkpt lat="48.1589980" lon="7.5554080">
        <ele>-247.6</ele>
        <time>2022-06-04T08:09:56Z</time>
      </trkpt>
      <trkpt lat="48.1590900" lon="7.5553660">
        <ele>-248.0</ele>
        <time>2022-06-04T08:10:00Z</time>
      </trkpt>
      <trkpt lat="48.1591880" lon="7.5553100">
        <ele>-247.8</ele>
        <time>2022-06-04T08:10:04Z</time>
      </trkpt>
      <trkpt lat="48.1592600" lon="7.5551900">
        <ele>-247.8</ele>
        <time>2022-06-04T08:10:08Z</time>
      </trkpt>
      <trkpt lat="48.1593110" lon="7.5550110">
        <ele>-248.2</ele>
        <time>2022-06-04T08:10:12Z</time>
      </trkpt>
      <trkpt lat="48.1593550" lon="7.5548160">
        <ele>-248.0</ele>
        <time>2022-06-04T08:10:16Z</time>
      </trkpt>
      <trkpt lat="48.1594030" lon="7.5546110">
        <ele>-248.4</ele>
        <time>2022-06-04T08:10:20Z</time>
      </trkpt>
      <trkpt lat="48.1594600" lon="7.5543880">
        <ele>-248.2</ele>
        <time>2022-06-04T08:10:24Z</time>
      </trkpt>
      <trkpt lat="48.1595080" lon="7.5541580">
        <ele>-248.4</ele>
        <time>2022-06-04T08:10:28Z</time>
      </trkpt>
      <trkpt lat="48.1595610" lon="7.5539180">
        <ele>-248.6</ele>
        <time>2022-06-04T08:10:32Z</time>
      </trkpt>
      <trkpt lat="48.1596200" lon="7.5536760">
        <ele>-248.2</ele>
        <time>2022-06-04T08:10:36Z</time>
      </trkpt>
      <trkpt lat="48.1596750" lon="7.5534280">
        <ele>-248.2</ele>
        <time>2022-06-04T08:10:40Z</time>
      </trkpt>
      <trkpt lat="48.1597210" lon="7.5531800">
        <ele>-248.2</ele>
        <time>2022-06-04T08:10:44Z</time>
      </trkpt>
      <trkpt lat="48.1597630" lon="7.5529650">
        <ele>-248.0</ele>
        <time>2022-06-04T08:10:48Z</time>
      </trkpt>
      <trkpt lat="48.1598160" lon="7.5527300">
        <ele>-248.2</ele>
        <time>2022-06-04T08:10:52Z</time>
      </trkpt>
      <trkpt lat="48.1598760" lon="7.5524880">
        <ele>-247.6</ele>
        <time>2022-06-04T08:10:56Z</time>
      </trkpt>
      <trkpt lat="48.1599350" lon="7.5522360">
        <ele>-247.6</ele>
        <time>2022-06-04T08:11:00Z</time>
      </trkpt>
      <trkpt lat="48.1599960" lon="7.5519780">
        <ele>-247.6</ele>
        <time>2022-06-04T08:11:04Z</time>
      </trkpt>
      <trkpt lat="48.1600530" lon="7.5517230">
        <ele>-247.8</ele>
        <time>2022-06-04T08:11:08Z</time>
      </trkpt>
      <trkpt lat="48.1601130" lon="7.5514730">
        <ele>-247.4</ele>
        <time>2022-06-04T08:11:12Z</time>
      </trkpt>
      <trkpt lat="48.1601610" lon="7.5512300">
        <ele>-246.8</ele>
        <time>2022-06-04T08:11:16Z</time>
      </trkpt>
      <trkpt lat="48.1602130" lon="7.5509850">
        <ele>-247.6</ele>
        <time>2022-06-04T08:11:20Z</time>
      </trkpt>
      <trkpt lat="48.1602630" lon="7.5507400">
        <ele>-247.4</ele>
        <time>2022-06-04T08:11:24Z</time>
      </trkpt>
      <trkpt lat="48.1602930" lon="7.5504880">
        <ele>-247.6</ele>
        <time>2022-06-04T08:11:28Z</time>
      </trkpt>
      <trkpt lat="48.1603160" lon="7.5502310">
        <ele>-247.6</ele>
        <time>2022-06-04T08:11:32Z</time>
      </trkpt>
      <trkpt lat="48.1603250" lon="7.5499610">
        <ele>-247.6</ele>
        <time>2022-06-04T08:11:36Z</time>
      </trkpt>
      <trkpt lat="48.1602850" lon="7.5496860">
        <ele>-248.2</ele>
        <time>2022-06-04T08:11:40Z</time>
      </trkpt>
      <trkpt lat="48.1603400" lon="7.5494450">
        <ele>-248.2</ele>
        <time>2022-06-04T08:11:44Z</time>
      </trkpt>
      <trkpt lat="48.1605030" lon="7.5492880">
        <ele>-248.2</ele>
        <time>2022-06-04T08:11:48Z</time>
      </trkpt>
      <trkpt lat="48.1606760" lon="7.5490880">
        <ele>-247.8</ele>
        <time>2022-06-04T08:11:52Z</time>
      </trkpt>
      <trkpt lat="48.1607900" lon="7.5488230">
        <ele>-247.8</ele>
        <time>2022-06-04T08:11:56Z</time>
      </trkpt>
      <trkpt lat="48.1609260" lon="7.5485950">
        <ele>-248.2</ele>
        <time>2022-06-04T08:12:00Z</time>
      </trkpt>
      <trkpt lat="48.1610710" lon="7.5483960">
        <ele>-247.6</ele>
        <time>2022-06-04T08:12:04Z</time>
      </trkpt>
      <trkpt lat="48.1612130" lon="7.5481930">
        <ele>-247.4</ele>
        <time>2022-06-04T08:12:08Z</time>
      </trkpt>
      <trkpt lat="48.1613550" lon="7.5479960">
        <ele>-248.0</ele>
        <time>2022-06-04T08:12:12Z</time>
      </trkpt>
      <trkpt lat="48.1615000" lon="7.5478000">
        <ele>-247.6</ele>
        <time>2022-06-04T08:12:16Z</time>
      </trkpt>
      <trkpt lat="48.1616410" lon="7.5476150">
        <ele>-247.6</ele>
        <time>2022-06-04T08:12:20Z</time>
      </trkpt>
      <trkpt lat="48.1617680" lon="7.5474350">
        <ele>-247.8</ele>
        <time>2022-06-04T08:12:24Z</time>
      </trkpt>
      <trkpt lat="48.1618830" lon="7.5472500">
        <ele>-247.6</ele>
        <time>2022-06-04T08:12:28Z</time>
      </trkpt>
      <trkpt lat="48.1620130" lon="7.5470860">
        <ele>-247.6</ele>
        <time>2022-06-04T08:12:32Z</time>
      </trkpt>
      <trkpt lat="48.1621700" lon="7.5470010">
        <ele>-247.6</ele>
        <time>2022-06-04T08:12:36Z</time>
      </trkpt>
      <trkpt lat="48.1623500" lon="7.5470130">
        <ele>-247.4</ele>
        <time>2022-06-04T08:12:40Z</time>
      </trkpt>
      <trkpt lat="48.1625260" lon="7.5470350">
        <ele>-247.6</ele>
        <time>2022-06-04T08:12:44Z</time>
      </trkpt>
      <trkpt lat="48.1627010" lon="7.5471000">
        <ele>-247.8</ele>
        <time>2022-06-04T08:12:48Z</time>
      </trkpt>
      <trkpt lat="48.1628700" lon="7.5471530">
        <ele>-248.4</ele>
        <time>2022-06-04T08:12:52Z</time>
      </trkpt>
      <trkpt lat="48.1630330" lon="7.5472160">
        <ele>-248.8</ele>
        <time>2022-06-04T08:12:56Z</time>
      </trkpt>
      <trkpt lat="48.1632180" lon="7.5473080">
        <ele>-248.0</ele>
        <time>2022-06-04T08:13:00Z</time>
      </trkpt>
      <trkpt lat="48.1633960" lon="7.5473780">
        <ele>-248.4</ele>
        <time>2022-06-04T08:13:04Z</time>
      </trkpt>
      <trkpt lat="48.1635700" lon="7.5474600">
        <ele>-248.2</ele>
        <time>2022-06-04T08:13:08Z</time>
      </trkpt>
      <trkpt lat="48.1637350" lon="7.5475380">
        <ele>-248.4</ele>
        <time>2022-06-04T08:13:12Z</time>
      </trkpt>
      <trkpt lat="48.1638410" lon="7.5475410">
        <ele>-248.4</ele>
        <time>2022-06-04T08:13:16Z</time>
      </trkpt>
      <trkpt lat="48.1638980" lon="7.5474480">
        <ele>-248.2</ele>
        <time>2022-06-04T08:13:20Z</time>
      </trkpt>
      <trkpt lat="48.1639230" lon="7.5472450">
        <ele>-247.8</ele>
        <time>2022-06-04T08:13:24Z</time>
      </trkpt>
      <trkpt lat="48.1639380" lon="7.5470300">
        <ele>-248.2</ele>
        <time>2022-06-04T08:13:28Z</time>
      </trkpt>
      <trkpt lat="48.1639650" lon="7.5468130">
        <ele>-248.0</ele>
        <time>2022-06-04T08:13:32Z</time>
      </trkpt>
      <trkpt lat="48.1639810" lon="7.5465750">
        <ele>-248.0</ele>
        <time>2022-06-04T08:13:36Z</time>
      </trkpt>
      <trkpt lat="48.1640060" lon="7.5463380">
        <ele>-247.8</ele>
        <time>2022-06-04T08:13:40Z</time>
      </trkpt>
      <trkpt lat="48.1640300" lon="7.5461260">
        <ele>-248.0</ele>
        <time>2022-06-04T08:13:44Z</time>
      </trkpt>
      <trkpt lat="48.1640430" lon="7.5459350">
        <ele>-247.6</ele>
        <time>2022-06-04T08:13:48Z</time>
      </trkpt>
      <trkpt lat="48.1640600" lon="7.5457230">
        <ele>-247.4</ele>
        <time>2022-06-04T08:13:52Z</time>
      </trkpt>
      <trkpt lat="48.1640800" lon="7.5455010">
        <ele>-247.6</ele>
        <time>2022-06-04T08:13:56Z</time>
      </trkpt>
      <trkpt lat="48.1641210" lon="7.5452980">
        <ele>-247.8</ele>
        <time>2022-06-04T08:14:00Z</time>
      </trkpt>
      <trkpt lat="48.1641510" lon="7.5451060">
        <ele>-247.6</ele>
        <time>2022-06-04T08:14:04Z</time>
      </trkpt>
      <trkpt lat="48.1642030" lon="7.5449050">
        <ele>-247.8</ele>
        <time>2022-06-04T08:14:08Z</time>
      </trkpt>
      <trkpt lat="48.1642600" lon="7.5447110">
        <ele>-247.4</ele>
        <time>2022-06-04T08:14:12Z</time>
      </trkpt>
      <trkpt lat="48.1643030" lon="7.5445210">
        <ele>-247.6</ele>
        <time>2022-06-04T08:14:16Z</time>
      </trkpt>
      <trkpt lat="48.1643330" lon="7.5443360">
        <ele>-247.0</ele>
        <time>2022-06-04T08:14:20Z</time>
      </trkpt>
      <trkpt lat="48.1643700" lon="7.5441760">
        <ele>-246.8</ele>
        <time>2022-06-04T08:14:24Z</time>
      </trkpt>
      <trkpt lat="48.1643910" lon="7.5440450">
        <ele>-247.0</ele>
        <time>2022-06-04T08:14:28Z</time>
      </trkpt>
      <trkpt lat="48.1643810" lon="7.5440010">
        <ele>-246.8</ele>
        <time>2022-06-04T08:14:32Z</time>
      </trkpt>
      <trkpt lat="48.1643800" lon="7.5439250">
        <ele>-247.0</ele>
        <time>2022-06-04T08:14:36Z</time>
      </trkpt>
      <trkpt lat="48.1642910" lon="7.5438780">
        <ele>-246.4</ele>
        <time>2022-06-04T08:14:40Z</time>
      </trkpt>
      <trkpt lat="48.1641860" lon="7.5438460">
        <ele>-246.4</ele>
        <time>2022-06-04T08:14:44Z</time>
      </trkpt>
      <trkpt lat="48.1640550" lon="7.5438260">
        <ele>-246.4</ele>
        <time>2022-06-04T08:14:48Z</time>
      </trkpt>
      <trkpt lat="48.1639260" lon="7.5438080">
        <ele>-246.4</ele>
        <time>2022-06-04T08:14:52Z</time>
      </trkpt>
      <trkpt lat="48.1638030" lon="7.5438010">
        <ele>-246.4</ele>
        <time>2022-06-04T08:14:56Z</time>
      </trkpt>
      <trkpt lat="48.1636780" lon="7.5437750">
        <ele>-246.4</ele>
        <time>2022-06-04T08:15:00Z</time>
      </trkpt>
      <trkpt lat="48.1635410" lon="7.5437650">
        <ele>-246.4</ele>
        <time>2022-06-04T08:15:04Z</time>
      </trkpt>
      <trkpt lat="48.1634000" lon="7.5437510">
        <ele>-246.2</ele>
        <time>2022-06-04T08:15:08Z</time>
      </trkpt>
      <trkpt lat="48.1632650" lon="7.5437480">
        <ele>-245.8</ele>
        <time>2022-06-04T08:15:12Z</time>
      </trkpt>
      <trkpt lat="48.1631110" lon="7.5437380">
        <ele>-246.0</ele>
        <time>2022-06-04T08:15:16Z</time>
      </trkpt>
      <trkpt lat="48.1629550" lon="7.5437330">
        <ele>-246.4</ele>
        <time>2022-06-04T08:15:20Z</time>
      </trkpt>
      <trkpt lat="48.1627950" lon="7.5437230">
        <ele>-246.6</ele>
        <time>2022-06-04T08:15:24Z</time>
      </trkpt>
      <trkpt lat="48.1626450" lon="7.5437150">
        <ele>-246.6</ele>
        <time>2022-06-04T08:15:28Z</time>
      </trkpt>
      <trkpt lat="48.1625150" lon="7.5436930">
        <ele>-246.4</ele>
        <time>2022-06-04T08:15:32Z</time>
      </trkpt>
      <trkpt lat="48.1623830" lon="7.5436480">
        <ele>-246.6</ele>
        <time>2022-06-04T08:15:36Z</time>
      </trkpt>
      <trkpt lat="48.1622660" lon="7.5435330">
        <ele>-246.4</ele>
        <time>2022-06-04T08:15:40Z</time>
      </trkpt>
      <trkpt lat="48.1621960" lon="7.5433350">
        <ele>-247.0</ele>
        <time>2022-06-04T08:15:44Z</time>
      </trkpt>
      <trkpt lat="48.1621230" lon="7.5431230">
        <ele>-247.0</ele>
        <time>2022-06-04T08:15:48Z</time>
      </trkpt>
      <trkpt lat="48.1620460" lon="7.5428930">
        <ele>-247.0</ele>
        <time>2022-06-04T08:15:52Z</time>
      </trkpt>
      <trkpt lat="48.1619730" lon="7.5426710">
        <ele>-246.8</ele>
        <time>2022-06-04T08:15:56Z</time>
      </trkpt>
      <trkpt lat="48.1618980" lon="7.5424510">
        <ele>-247.6</ele>
        <time>2022-06-04T08:16:00Z</time>
      </trkpt>
      <trkpt lat="48.1618230" lon="7.5422010">
        <ele>-247.4</ele>
        <time>2022-06-04T08:16:04Z</time>
      </trkpt>
      <trkpt lat="48.1617360" lon="7.5419560">
        <ele>-247.6</ele>
        <time>2022-06-04T08:16:08Z</time>
      </trkpt>
      <trkpt lat="48.1616530" lon="7.5417250">
        <ele>-247.2</ele>
        <time>2022-06-04T08:16:12Z</time>
      </trkpt>
      <trkpt lat="48.1615800" lon="7.5414960">
        <ele>-246.4</ele>
        <time>2022-06-04T08:16:16Z</time>
      </trkpt>
      <trkpt lat="48.1615080" lon="7.5412580">
        <ele>-246.8</ele>
        <time>2022-06-04T08:16:20Z</time>
      </trkpt>
      <trkpt lat="48.1614350" lon="7.5410250">
        <ele>-247.0</ele>
        <time>2022-06-04T08:16:24Z</time>
      </trkpt>
      <trkpt lat="48.1613600" lon="7.5407850">
        <ele>-246.6</ele>
        <time>2022-06-04T08:16:28Z</time>
      </trkpt>
      <trkpt lat="48.1612750" lon="7.5405350">
        <ele>-247.0</ele>
        <time>2022-06-04T08:16:32Z</time>
      </trkpt>
      <trkpt lat="48.1612030" lon="7.5402980">
        <ele>-247.0</ele>
        <time>2022-06-04T08:16:36Z</time>
      </trkpt>
      <trkpt lat="48.1611230" lon="7.5400610">
        <ele>-247.0</ele>
        <time>2022-06-04T08:16:40Z</time>
      </trkpt>
      <trkpt lat="48.1610430" lon="7.5398330">
        <ele>-247.0</ele>
        <time>2022-06-04T08:16:44Z</time>
      </trkpt>
      <trkpt lat="48.1609630" lon="7.5395960">
        <ele>-246.8</ele>
        <time>2022-06-04T08:16:48Z</time>
      </trkpt>
      <trkpt lat="48.1608800" lon="7.5393510">
        <ele>-247.0</ele>
        <time>2022-06-04T08:16:52Z</time>
      </trkpt>
      <trkpt lat="48.1608100" lon="7.5390980">
        <ele>-246.6</ele>
        <time>2022-06-04T08:16:56Z</time>
      </trkpt>
      <trkpt lat="48.1607260" lon="7.5388560">
        <ele>-247.4</ele>
        <time>2022-06-04T08:17:00Z</time>
      </trkpt>
      <trkpt lat="48.1606380" lon="7.5386030">
        <ele>-247.4</ele>
        <time>2022-06-04T08:17:04Z</time>
      </trkpt>
      <trkpt lat="48.1605560" lon="7.5383460">
        <ele>-246.8</ele>
        <time>2022-06-04T08:17:08Z</time>
      </trkpt>
      <trkpt lat="48.1604710" lon="7.5381150">
        <ele>-246.4</ele>
        <time>2022-06-04T08:17:12Z</time>
      </trkpt>
      <trkpt lat="48.1603930" lon="7.5378680">
        <ele>-247.2</ele>
        <time>2022-06-04T08:17:16Z</time>
      </trkpt>
      <trkpt lat="48.1603100" lon="7.5376360">
        <ele>-247.6</ele>
        <time>2022-06-04T08:17:20Z</time>
      </trkpt>
      <trkpt lat="48.1602210" lon="7.5374150">
        <ele>-246.6</ele>
        <time>2022-06-04T08:17:24Z</time>
      </trkpt>
      <trkpt lat="48.1601550" lon="7.5371900">
        <ele>-246.0</ele>
        <time>2022-06-04T08:17:28Z</time>
      </trkpt>
      <trkpt lat="48.1600880" lon="7.5369910">
        <ele>-246.0</ele>
        <time>2022-06-04T08:17:32Z</time>
      </trkpt>
      <trkpt lat="48.1600330" lon="7.5368010">
        <ele>-245.4</ele>
        <time>2022-06-04T08:17:36Z</time>
      </trkpt>
      <trkpt lat="48.1600060" lon="7.5366450">
        <ele>-244.8</ele>
        <time>2022-06-04T08:17:40Z</time>
      </trkpt>
      <trkpt lat="48.1600010" lon="7.5364630">
        <ele>-244.4</ele>
        <time>2022-06-04T08:17:44Z</time>
      </trkpt>
      <trkpt lat="48.1600180" lon="7.5362700">
        <ele>-243.6</ele>
        <time>2022-06-04T08:17:48Z</time>
      </trkpt>
      <trkpt lat="48.1600280" lon="7.5360680">
        <ele>-243.4</ele>
        <time>2022-06-04T08:17:52Z</time>
      </trkpt>
      <trkpt lat="48.1600380" lon="7.5358560">
        <ele>-243.0</ele>
        <time>2022-06-04T08:17:56Z</time>
      </trkpt>
      <trkpt lat="48.1600510" lon="7.5356400">
        <ele>-242.6</ele>
        <time>2022-06-04T08:18:00Z</time>
      </trkpt>
      <trkpt lat="48.1600560" lon="7.5354360">
        <ele>-242.4</ele>
        <time>2022-06-04T08:18:04Z</time>
      </trkpt>
      <trkpt lat="48.1600580" lon="7.5352400">
        <ele>-242.2</ele>
        <time>2022-06-04T08:18:08Z</time>
      </trkpt>
      <trkpt lat="48.1600660" lon="7.5350360">
        <ele>-242.8</ele>
        <time>2022-06-04T08:18:12Z</time>
      </trkpt>
      <trkpt lat="48.1600760" lon="7.5348180">
        <ele>-242.2</ele>
        <time>2022-06-04T08:18:16Z</time>
      </trkpt>
      <trkpt lat="48.1600900" lon="7.5345560">
        <ele>-243.4</ele>
        <time>2022-06-04T08:18:20Z</time>
      </trkpt>
      <trkpt lat="48.1601150" lon="7.5342700">
        <ele>-243.6</ele>
        <time>2022-06-04T08:18:24Z</time>
      </trkpt>
      <trkpt lat="48.1601500" lon="7.5339710">
        <ele>-244.6</ele>
        <time>2022-06-04T08:18:28Z</time>
      </trkpt>
      <trkpt lat="48.1601810" lon="7.5336700">
        <ele>-245.0</ele>
        <time>2022-06-04T08:18:32Z</time>
      </trkpt>
      <trkpt lat="48.1602160" lon="7.5334450">
        <ele>-245.2</ele>
        <time>2022-06-04T08:18:36Z</time>
      </trkpt>
      <trkpt lat="48.1602480" lon="7.5335180">
        <ele>-245.6</ele>
        <time>2022-06-04T08:18:40Z</time>
      </trkpt>
      <trkpt lat="48.1602100" lon="7.5337150">
        <ele>-245.4</ele>
        <time>2022-06-04T08:18:44Z</time>
      </trkpt>
      <trkpt lat="48.1601900" lon="7.5339560">
        <ele>-245.4</ele>
        <time>2022-06-04T08:18:48Z</time>
      </trkpt>
      <trkpt lat="48.1601750" lon="7.5341910">
        <ele>-245.4</ele>
        <time>2022-06-04T08:18:52Z</time>
      </trkpt>
      <trkpt lat="48.1602600" lon="7.5343800">
        <ele>-245.4</ele>
        <time>2022-06-04T08:18:56Z</time>
      </trkpt>
      <trkpt lat="48.1604250" lon="7.5344730">
        <ele>-246.2</ele>
        <time>2022-06-04T08:19:00Z</time>
      </trkpt>
      <trkpt lat="48.1606030" lon="7.5345850">
        <ele>-246.4</ele>
        <time>2022-06-04T08:19:04Z</time>
      </trkpt>
      <trkpt lat="48.1607830" lon="7.5346900">
        <ele>-246.2</ele>
        <time>2022-06-04T08:19:08Z</time>
      </trkpt>
      <trkpt lat="48.1609750" lon="7.5347530">
        <ele>-246.4</ele>
        <time>2022-06-04T08:19:12Z</time>
      </trkpt>
      <trkpt lat="48.1611710" lon="7.5347580">
        <ele>-246.2</ele>
        <time>2022-06-04T08:19:16Z</time>
      </trkpt>
      <trkpt lat="48.1613800" lon="7.5347510">
        <ele>-247.6</ele>
        <time>2022-06-04T08:19:20Z</time>
      </trkpt>
      <trkpt lat="48.1615910" lon="7.5347810">
        <ele>-247.2</ele>
        <time>2022-06-04T08:19:24Z</time>
      </trkpt>
      <trkpt lat="48.1617960" lon="7.5348310">
        <ele>-247.0</ele>
        <time>2022-06-04T08:19:28Z</time>
      </trkpt>
      <trkpt lat="48.1619350" lon="7.5349750">
        <ele>-246.2</ele>
        <time>2022-06-04T08:19:32Z</time>
      </trkpt>
      <trkpt lat="48.1620030" lon="7.5351710">
        <ele>-246.0</ele>
        <time>2022-06-04T08:19:36Z</time>
      </trkpt>
      <trkpt lat="48.1621560" lon="7.5352080">
        <ele>-245.8</ele>
        <time>2022-06-04T08:19:40Z</time>
      </trkpt>
      <trkpt lat="48.1623300" lon="7.5352150">
        <ele>-245.6</ele>
        <time>2022-06-04T08:19:44Z</time>
      </trkpt>
      <trkpt lat="48.1625030" lon="7.5352250">
        <ele>-246.2</ele>
        <time>2022-06-04T08:19:48Z</time>
      </trkpt>
      <trkpt lat="48.1626560" lon="7.5352310">
        <ele>-246.0</ele>
        <time>2022-06-04T08:19:52Z</time>
      </trkpt>
      <trkpt lat="48.1628310" lon="7.5352300">
        <ele>-245.4</ele>
        <time>2022-06-04T08:19:56Z</time>
      </trkpt>
      <trkpt lat="48.1630100" lon="7.5352350">
        <ele>-246.6</ele>
        <time>2022-06-04T08:20:00Z</time>
      </trkpt>
      <trkpt lat="48.1631700" lon="7.5352460">
        <ele>-246.4</ele>
        <time>2022-06-04T08:20:04Z</time>
      </trkpt>
      <trkpt lat="48.1633550" lon="7.5352530">
        <ele>-246.2</ele>
        <time>2022-06-04T08:20:08Z</time>
      </trkpt>
      <trkpt lat="48.1635330" lon="7.5352700">
        <ele>-246.4</ele>
        <time>2022-06-04T08:20:12Z</time>
      </trkpt>
      <trkpt lat="48.1637150" lon="7.5352730">
        <ele>-245.4</ele>
        <time>2022-06-04T08:20:16Z</time>
      </trkpt>
      <trkpt lat="48.1638860" lon="7.5352810">
        <ele>-246.2</ele>
        <time>2022-06-04T08:20:20Z</time>
      </trkpt>
      <trkpt lat="48.1640450" lon="7.5352900">
        <ele>-246.4</ele>
        <time>2022-06-04T08:20:24Z</time>
      </trkpt>
      <trkpt lat="48.1642110" lon="7.5352960">
        <ele>-246.4</ele>
        <time>2022-06-04T08:20:28Z</time>
      </trkpt>
      <trkpt lat="48.1643610" lon="7.5353010">
        <ele>-246.2</ele>
        <time>2022-06-04T08:20:32Z</time>
      </trkpt>
      <trkpt lat="48.1645000" lon="7.5353080">
        <ele>-246.4</ele>
        <time>2022-06-04T08:20:36Z</time>
      </trkpt>
      <trkpt lat="48.1646480" lon="7.5353150">
        <ele>-246.0</ele>
        <time>2022-06-04T08:20:40Z</time>
      </trkpt>
      <trkpt lat="48.1647980" lon="7.5353260">
        <ele>-246.0</ele>
        <time>2022-06-04T08:20:44Z</time>
      </trkpt>
      <trkpt lat="48.1649560" lon="7.5353310">
        <ele>-246.2</ele>
        <time>2022-06-04T08:20:48Z</time>
      </trkpt>
      <trkpt lat="48.1651060" lon="7.5353400">
        <ele>-246.0</ele>
        <time>2022-06-04T08:20:52Z</time>
      </trkpt>
      <trkpt lat="48.1652530" lon="7.5353610">
        <ele>-246.2</ele>
        <time>2022-06-04T08:20:56Z</time>
      </trkpt>
      <trkpt lat="48.1653980" lon="7.5353650">
        <ele>-246.2</ele>
        <time>2022-06-04T08:21:00Z</time>
      </trkpt>
      <trkpt lat="48.1655350" lon="7.5353660">
        <ele>-246.4</ele>
        <time>2022-06-04T08:21:04Z</time>
      </trkpt>
      <trkpt lat="48.1656710" lon="7.5353800">
        <ele>-246.2</ele>
        <time>2022-06-04T08:21:08Z</time>
      </trkpt>
      <trkpt lat="48.1658050" lon="7.5353730">
        <ele>-246.0</ele>
        <time>2022-06-04T08:21:12Z</time>
      </trkpt>
      <trkpt lat="48.1659460" lon="7.5353850">
        <ele>-246.0</ele>
        <time>2022-06-04T08:21:16Z</time>
      </trkpt>
      <trkpt lat="48.1660860" lon="7.5353860">
        <ele>-247.0</ele>
        <time>2022-06-04T08:21:20Z</time>
      </trkpt>
      <trkpt lat="48.1662310" lon="7.5353960">
        <ele>-246.4</ele>
        <time>2022-06-04T08:21:24Z</time>
      </trkpt>
      <trkpt lat="48.1663650" lon="7.5354100">
        <ele>-246.2</ele>
        <time>2022-06-04T08:21:28Z</time>
      </trkpt>
      <trkpt lat="48.1664960" lon="7.5354160">
        <ele>-246.2</ele>
        <time>2022-06-04T08:21:32Z</time>
      </trkpt>
      <trkpt lat="48.1666500" lon="7.5354280">
        <ele>-245.8</ele>
        <time>2022-06-04T08:21:36Z</time>
      </trkpt>
      <trkpt lat="48.1668050" lon="7.5354360">
        <ele>-246.4</ele>
        <time>2022-06-04T08:21:40Z</time>
      </trkpt>
      <trkpt lat="48.1669710" lon="7.5354510">
        <ele>-246.4</ele>
        <time>2022-06-04T08:21:44Z</time>
      </trkpt>
      <trkpt lat="48.1671450" lon="7.5354530">
        <ele>-246.2</ele>
        <time>2022-06-04T08:21:48Z</time>
      </trkpt>
      <trkpt lat="48.1673210" lon="7.5354680">
        <ele>-247.0</ele>
        <time>2022-06-04T08:21:52Z</time>
      </trkpt>
      <trkpt lat="48.1675060" lon="7.5354780">
        <ele>-246.6</ele>
        <time>2022-06-04T08:21:56Z</time>
      </trkpt>
      <trkpt lat="48.1676980" lon="7.5354910">
        <ele>-247.0</ele>
        <time>2022-06-04T08:22:00Z</time>
      </trkpt>
      <trkpt lat="48.1678900" lon="7.5354930">
        <ele>-246.8</ele>
        <time>2022-06-04T08:22:04Z</time>
      </trkpt>
      <trkpt lat="48.1680800" lon="7.5355060">
        <ele>-247.0</ele>
        <time>2022-06-04T08:22:08Z</time>
      </trkpt>
      <trkpt lat="48.1682710" lon="7.5355180">
        <ele>-246.6</ele>
        <time>2022-06-04T08:22:12Z</time>
      </trkpt>
      <trkpt lat="48.1684630" lon="7.5355350">
        <ele>-247.6</ele>
        <time>2022-06-04T08:22:16Z</time>
      </trkpt>
      <trkpt lat="48.1686510" lon="7.5355460">
        <ele>-246.6</ele>
        <time>2022-06-04T08:22:20Z</time>
      </trkpt>
      <trkpt lat="48.1688350" lon="7.5355560">
        <ele>-246.6</ele>
        <time>2022-06-04T08:22:24Z</time>
      </trkpt>
      <trkpt lat="48.1690110" lon="7.5354030">
        <ele>-246.6</ele>
        <time>2022-06-04T08:22:28Z</time>
      </trkpt>
      <trkpt lat="48.1691950" lon="7.5353250">
        <ele>-246.0</ele>
        <time>2022-06-04T08:22:32Z</time>
      </trkpt>
      <trkpt lat="48.1693600" lon="7.5353500">
        <ele>-245.8</ele>
        <time>2022-06-04T08:22:36Z</time>
      </trkpt>
      <trkpt lat="48.1694950" lon="7.5353680">
        <ele>-245.2</ele>
        <time>2022-06-04T08:22:40Z</time>
      </trkpt>
      <trkpt lat="48.1696230" lon="7.5353810">
        <ele>-244.8</ele>
        <time>2022-06-04T08:22:44Z</time>
      </trkpt>
      <trkpt lat="48.1697600" lon="7.5354060">
        <ele>-244.8</ele>
        <time>2022-06-04T08:22:48Z</time>
      </trkpt>
      <trkpt lat="48.1698880" lon="7.5354230">
        <ele>-244.6</ele>
        <time>2022-06-04T08:22:52Z</time>
      </trkpt>
      <trkpt lat="48.1699960" lon="7.5354580">
        <ele>-244.4</ele>
        <time>2022-06-04T08:22:56Z</time>
      </trkpt>
      <trkpt lat="48.1701130" lon="7.5354850">
        <ele>-244.2</ele>
        <time>2022-06-04T08:23:00Z</time>
      </trkpt>
      <trkpt lat="48.1702630" lon="7.5355260">
        <ele>-244.8</ele>
        <time>2022-06-04T08:23:04Z</time>
      </trkpt>
      <trkpt lat="48.1704280" lon="7.5356000">
        <ele>-244.8</ele>
        <time>2022-06-04T08:23:08Z</time>
      </trkpt>
      <trkpt lat="48.1706060" lon="7.5356750">
        <ele>-246.0</ele>
        <time>2022-06-04T08:23:12Z</time>
      </trkpt>
      <trkpt lat="48.1708110" lon="7.5357630">
        <ele>-247.2</ele>
        <time>2022-06-04T08:23:16Z</time>
      </trkpt>
      <trkpt lat="48.1709780" lon="7.5359900">
        <ele>-248.2</ele>
        <time>2022-06-04T08:23:20Z</time>
      </trkpt>
      <trkpt lat="48.1711000" lon="7.5361900">
        <ele>-246.8</ele>
        <time>2022-06-04T08:23:24Z</time>
      </trkpt>
      <trkpt lat="48.1712810" lon="7.5362800">
        <ele>-246.8</ele>
        <time>2022-06-04T08:23:28Z</time>
      </trkpt>
      <trkpt lat="48.1714610" lon="7.5363780">
        <ele>-246.4</ele>
        <time>2022-06-04T08:23:32Z</time>
      </trkpt>
      <trkpt lat="48.1716430" lon="7.5364830">
        <ele>-246.6</ele>
        <time>2022-06-04T08:23:36Z</time>
      </trkpt>
      <trkpt lat="48.1718260" lon="7.5366100">
        <ele>-247.2</ele>
        <time>2022-06-04T08:23:40Z</time>
      </trkpt>
      <trkpt lat="48.1720030" lon="7.5367110">
        <ele>-246.8</ele>
        <time>2022-06-04T08:23:44Z</time>
      </trkpt>
      <trkpt lat="48.1721780" lon="7.5368360">
        <ele>-247.0</ele>
        <time>2022-06-04T08:23:48Z</time>
      </trkpt>
      <trkpt lat="48.1723500" lon="7.5369750">
        <ele>-247.2</ele>
        <time>2022-06-04T08:23:52Z</time>
      </trkpt>
      <trkpt lat="48.1725150" lon="7.5371010">
        <ele>-246.4</ele>
        <time>2022-06-04T08:23:56Z</time>
      </trkpt>
      <trkpt lat="48.1726730" lon="7.5371980">
        <ele>-246.8</ele>
        <time>2022-06-04T08:24:00Z</time>
      </trkpt>
      <trkpt lat="48.1728500" lon="7.5373210">
        <ele>-247.0</ele>
        <time>2022-06-04T08:24:04Z</time>
      </trkpt>
      <trkpt lat="48.1730330" lon="7.5374760">
        <ele>-246.6</ele>
        <time>2022-06-04T08:24:08Z</time>
      </trkpt>
      <trkpt lat="48.1732060" lon="7.5376100">
        <ele>-247.0</ele>
        <time>2022-06-04T08:24:12Z</time>
      </trkpt>
      <trkpt lat="48.1733780" lon="7.5377460">
        <ele>-247.0</ele>
        <time>2022-06-04T08:24:16Z</time>
      </trkpt>
      <trkpt lat="48.1735580" lon="7.5378710">
        <ele>-246.4</ele>
        <time>2022-06-04T08:24:20Z</time>
      </trkpt>
      <trkpt lat="48.1737410" lon="7.5380010">
        <ele>-247.0</ele>
        <time>2022-06-04T08:24:24Z</time>
      </trkpt>
      <trkpt lat="48.1739250" lon="7.5381330">
        <ele>-246.8</ele>
        <time>2022-06-04T08:24:28Z</time>
      </trkpt>
      <trkpt lat="48.1740930" lon="7.5382660">
        <ele>-247.4</ele>
        <time>2022-06-04T08:24:32Z</time>
      </trkpt>
      <trkpt lat="48.1742750" lon="7.5384000">
        <ele>-247.0</ele>
        <time>2022-06-04T08:24:36Z</time>
      </trkpt>
      <trkpt lat="48.1744660" lon="7.5385310">
        <ele>-247.2</ele>
        <time>2022-06-04T08:24:40Z</time>
      </trkpt>
      <trkpt lat="48.1746510" lon="7.5386660">
        <ele>-247.6</ele>
        <time>2022-06-04T08:24:44Z</time>
      </trkpt>
      <trkpt lat="48.1748350" lon="7.5388250">
        <ele>-247.0</ele>
        <time>2022-06-04T08:24:48Z</time>
      </trkpt>
      <trkpt lat="48.1750110" lon="7.5389700">
        <ele>-246.6</ele>
        <time>2022-06-04T08:24:52Z</time>
      </trkpt>
      <trkpt lat="48.1751860" lon="7.5391100">
        <ele>-246.8</ele>
        <time>2022-06-04T08:24:56Z</time>
      </trkpt>
      <trkpt lat="48.1753610" lon="7.5392560">
        <ele>-246.8</ele>
        <time>2022-06-04T08:25:00Z</time>
      </trkpt>
      <trkpt lat="48.1755280" lon="7.5393730">
        <ele>-246.6</ele>
        <time>2022-06-04T08:25:04Z</time>
      </trkpt>
      <trkpt lat="48.1756910" lon="7.5395180">
        <ele>-246.8</ele>
        <time>2022-06-04T08:25:08Z</time>
      </trkpt>
      <trkpt lat="48.1758400" lon="7.5396310">
        <ele>-246.8</ele>
        <time>2022-06-04T08:25:12Z</time>
      </trkpt>
      <trkpt lat="48.1760230" lon="7.5397510">
        <ele>-247.4</ele>
        <time>2022-06-04T08:25:16Z</time>
      </trkpt>
      <trkpt lat="48.1762000" lon="7.5399050">
        <ele>-247.0</ele>
        <time>2022-06-04T08:25:20Z</time>
      </trkpt>
      <trkpt lat="48.1763850" lon="7.5400300">
        <ele>-247.6</ele>
        <time>2022-06-04T08:25:24Z</time>
      </trkpt>
      <trkpt lat="48.1765560" lon="7.5401650">
        <ele>-247.4</ele>
        <time>2022-06-04T08:25:28Z</time>
      </trkpt>
      <trkpt lat="48.1767310" lon="7.5403160">
        <ele>-247.0</ele>
        <time>2022-06-04T08:25:32Z</time>
      </trkpt>
      <trkpt lat="48.1769110" lon="7.5404450">
        <ele>-247.4</ele>
        <time>2022-06-04T08:25:36Z</time>
      </trkpt>
      <trkpt lat="48.1770860" lon="7.5405830">
        <ele>-247.6</ele>
        <time>2022-06-04T08:25:40Z</time>
      </trkpt>
      <trkpt lat="48.1772660" lon="7.5407200">
        <ele>-246.6</ele>
        <time>2022-06-04T08:25:44Z</time>
      </trkpt>
      <trkpt lat="48.1774510" lon="7.5408550">
        <ele>-247.0</ele>
        <time>2022-06-04T08:25:48Z</time>
      </trkpt>
      <trkpt lat="48.1776230" lon="7.5409960">
        <ele>-247.0</ele>
        <time>2022-06-04T08:25:52Z</time>
      </trkpt>
      <trkpt lat="48.1777980" lon="7.5411400">
        <ele>-247.6</ele>
        <time>2022-06-04T08:25:56Z</time>
      </trkpt>
      <trkpt lat="48.1779630" lon="7.5412810">
        <ele>-246.8</ele>
        <time>2022-06-04T08:26:00Z</time>
      </trkpt>
      <trkpt lat="48.1781300" lon="7.5413980">
        <ele>-247.0</ele>
        <time>2022-06-04T08:26:04Z</time>
      </trkpt>
      <trkpt lat="48.1782680" lon="7.5415750">
        <ele>-247.6</ele>
        <time>2022-06-04T08:26:08Z</time>
      </trkpt>
      <trkpt lat="48.1784400" lon="7.5417110">
        <ele>-247.6</ele>
        <time>2022-06-04T08:26:12Z</time>
      </trkpt>
      <trkpt lat="48.1786210" lon="7.5418630">
        <ele>-249.2</ele>
        <time>2022-06-04T08:26:16Z</time>
      </trkpt>
      <trkpt lat="48.1788160" lon="7.5419860">
        <ele>-249.4</ele>
        <time>2022-06-04T08:26:20Z</time>
      </trkpt>
      <trkpt lat="48.1790400" lon="7.5421200">
        <ele>-249.8</ele>
        <time>2022-06-04T08:26:24Z</time>
      </trkpt>
      <trkpt lat="48.1792860" lon="7.5422560">
        <ele>-249.0</ele>
        <time>2022-06-04T08:26:28Z</time>
      </trkpt>
      <trkpt lat="48.1795100" lon="7.5424210">
        <ele>-249.2</ele>
        <time>2022-06-04T08:26:32Z</time>
      </trkpt>
      <trkpt lat="48.1797110" lon="7.5425700">
        <ele>-249.2</ele>
        <time>2022-06-04T08:26:36Z</time>
      </trkpt>
      <trkpt lat="48.1799110" lon="7.5427430">
        <ele>-249.8</ele>
        <time>2022-06-04T08:26:40Z</time>
      </trkpt>
      <trkpt lat="48.1801100" lon="7.5429110">
        <ele>-249.8</ele>
        <time>2022-06-04T08:26:44Z</time>
      </trkpt>
      <trkpt lat="48.1803060" lon="7.5430650">
        <ele>-249.0</ele>
        <time>2022-06-04T08:26:48Z</time>
      </trkpt>
      <trkpt lat="48.1804960" lon="7.5432150">
        <ele>-249.0</ele>
        <time>2022-06-04T08:26:52Z</time>
      </trkpt>
      <trkpt lat="48.1806830" lon="7.5433560">
        <ele>-249.4</ele>
        <time>2022-06-04T08:26:56Z</time>
      </trkpt>
      <trkpt lat="48.1808680" lon="7.5435080">
        <ele>-249.2</ele>
        <time>2022-06-04T08:27:00Z</time>
      </trkpt>
      <trkpt lat="48.1810580" lon="7.5436500">
        <ele>-249.2</ele>
        <time>2022-06-04T08:27:04Z</time>
      </trkpt>
      <trkpt lat="48.1812580" lon="7.5437950">
        <ele>-249.2</ele>
        <time>2022-06-04T08:27:08Z</time>
      </trkpt>
      <trkpt lat="48.1814530" lon="7.5439480">
        <ele>-249.6</ele>
        <time>2022-06-04T08:27:12Z</time>
      </trkpt>
      <trkpt lat="48.1816450" lon="7.5440910">
        <ele>-249.6</ele>
        <time>2022-06-04T08:27:16Z</time>
      </trkpt>
      <trkpt lat="48.1818350" lon="7.5442400">
        <ele>-249.4</ele>
        <time>2022-06-04T08:27:20Z</time>
      </trkpt>
      <trkpt lat="48.1820300" lon="7.5443880">
        <ele>-249.8</ele>
        <time>2022-06-04T08:27:24Z</time>
      </trkpt>
      <trkpt lat="48.1822210" lon="7.5445400">
        <ele>-249.2</ele>
        <time>2022-06-04T08:27:28Z</time>
      </trkpt>
      <trkpt lat="48.1824060" lon="7.5446960">
        <ele>-249.2</ele>
        <time>2022-06-04T08:27:32Z</time>
      </trkpt>
      <trkpt lat="48.1825860" lon="7.5448410">
        <ele>-249.4</ele>
        <time>2022-06-04T08:27:36Z</time>
      </trkpt>
      <trkpt lat="48.1827600" lon="7.5449830">
        <ele>-249.8</ele>
        <time>2022-06-04T08:27:40Z</time>
      </trkpt>
      <trkpt lat="48.1829480" lon="7.5451210">
        <ele>-250.2</ele>
        <time>2022-06-04T08:27:44Z</time>
      </trkpt>
      <trkpt lat="48.1831360" lon="7.5452560">
        <ele>-249.2</ele>
        <time>2022-06-04T08:27:48Z</time>
      </trkpt>
      <trkpt lat="48.1833250" lon="7.5453780">
        <ele>-248.8</ele>
        <time>2022-06-04T08:27:52Z</time>
      </trkpt>
      <trkpt lat="48.1835080" lon="7.5455160">
        <ele>-248.8</ele>
        <time>2022-06-04T08:27:56Z</time>
      </trkpt>
      <trkpt lat="48.1837010" lon="7.5456600">
        <ele>-249.2</ele>
        <time>2022-06-04T08:28:00Z</time>
      </trkpt>
      <trkpt lat="48.1839060" lon="7.5458210">
        <ele>-249.2</ele>
        <time>2022-06-04T08:28:04Z</time>
      </trkpt>
      <trkpt lat="48.1841110" lon="7.5459750">
        <ele>-249.0</ele>
        <time>2022-06-04T08:28:08Z</time>
      </trkpt>
      <trkpt lat="48.1843230" lon="7.5461310">
        <ele>-249.2</ele>
        <time>2022-06-04T08:28:12Z</time>
      </trkpt>
      <trkpt lat="48.1845360" lon="7.5462930">
        <ele>-249.2</ele>
        <time>2022-06-04T08:28:16Z</time>
      </trkpt>
      <trkpt lat="48.1847460" lon="7.5464580">
        <ele>-249.4</ele>
        <time>2022-06-04T08:28:20Z</time>
      </trkpt>
      <trkpt lat="48.1849510" lon="7.5466280">
        <ele>-249.2</ele>
        <time>2022-06-04T08:28:24Z</time>
      </trkpt>
      <trkpt lat="48.1851600" lon="7.5467850">
        <ele>-249.2</ele>
        <time>2022-06-04T08:28:28Z</time>
      </trkpt>
      <trkpt lat="48.1853650" lon="7.5469360">
        <ele>-249.4</ele>
        <time>2022-06-04T08:28:32Z</time>
      </trkpt>
      <trkpt lat="48.1855610" lon="7.5470850">
        <ele>-249.8</ele>
        <time>2022-06-04T08:28:36Z</time>
      </trkpt>
      <trkpt lat="48.1857530" lon="7.5472180">
        <ele>-249.4</ele>
        <time>2022-06-04T08:28:40Z</time>
      </trkpt>
      <trkpt lat="48.1859430" lon="7.5473780">
        <ele>-250.2</ele>
        <time>2022-06-04T08:28:44Z</time>
      </trkpt>
      <trkpt lat="48.1861350" lon="7.5475100">
        <ele>-249.8</ele>
        <time>2022-06-04T08:28:48Z</time>
      </trkpt>
      <trkpt lat="48.1863200" lon="7.5476580">
        <ele>-249.4</ele>
        <time>2022-06-04T08:28:52Z</time>
      </trkpt>
      <trkpt lat="48.1865030" lon="7.5477760">
        <ele>-249.6</ele>
        <time>2022-06-04T08:28:56Z</time>
      </trkpt>
      <trkpt lat="48.1866850" lon="7.5479230">
        <ele>-249.4</ele>
        <time>2022-06-04T08:29:00Z</time>
      </trkpt>
      <trkpt lat="48.1868610" lon="7.5480660">
        <ele>-249.8</ele>
        <time>2022-06-04T08:29:04Z</time>
      </trkpt>
      <trkpt lat="48.1870200" lon="7.5481930">
        <ele>-249.6</ele>
        <time>2022-06-04T08:29:08Z</time>
      </trkpt>
      <trkpt lat="48.1871950" lon="7.5483300">
        <ele>-249.2</ele>
        <time>2022-06-04T08:29:12Z</time>
      </trkpt>
      <trkpt lat="48.1873730" lon="7.5484800">
        <ele>-250.0</ele>
        <time>2022-06-04T08:29:16Z</time>
      </trkpt>
      <trkpt lat="48.1875510" lon="7.5486130">
        <ele>-249.6</ele>
        <time>2022-06-04T08:29:20Z</time>
      </trkpt>
      <trkpt lat="48.1877410" lon="7.5487460">
        <ele>-249.4</ele>
        <time>2022-06-04T08:29:24Z</time>
      </trkpt>
      <trkpt lat="48.1879300" lon="7.5488910">
        <ele>-249.4</ele>
        <time>2022-06-04T08:29:28Z</time>
      </trkpt>
      <trkpt lat="48.1881150" lon="7.5490310">
        <ele>-249.4</ele>
        <time>2022-06-04T08:29:32Z</time>
      </trkpt>
      <trkpt lat="48.1883000" lon="7.5491830">
        <ele>-249.8</ele>
        <time>2022-06-04T08:29:36Z</time>
      </trkpt>
      <trkpt lat="48.1884860" lon="7.5493180">
        <ele>-249.2</ele>
        <time>2022-06-04T08:29:40Z</time>
      </trkpt>
      <trkpt lat="48.1886730" lon="7.5494580">
        <ele>-249.4</ele>
        <time>2022-06-04T08:29:44Z</time>
      </trkpt>
      <trkpt lat="48.1888560" lon="7.5496030">
        <ele>-249.4</ele>
        <time>2022-06-04T08:29:48Z</time>
      </trkpt>
      <trkpt lat="48.1890460" lon="7.5497450">
        <ele>-250.0</ele>
        <time>2022-06-04T08:29:52Z</time>
      </trkpt>
      <trkpt lat="48.1892410" lon="7.5498900">
        <ele>-249.6</ele>
        <time>2022-06-04T08:29:56Z</time>
      </trkpt>
      <trkpt lat="48.1894350" lon="7.5500500">
        <ele>-249.8</ele>
        <time>2022-06-04T08:30:00Z</time>
      </trkpt>
      <trkpt lat="48.1896330" lon="7.5502050">
        <ele>-249.8</ele>
        <time>2022-06-04T08:30:04Z</time>
      </trkpt>
      <trkpt lat="48.1898360" lon="7.5503700">
        <ele>-250.0</ele>
        <time>2022-06-04T08:30:08Z</time>
      </trkpt>
      <trkpt lat="48.1900480" lon="7.5505410">
        <ele>-249.8</ele>
        <time>2022-06-04T08:30:12Z</time>
      </trkpt>
      <trkpt lat="48.1902610" lon="7.5507030">
        <ele>-249.8</ele>
        <time>2022-06-04T08:30:16Z</time>
      </trkpt>
      <trkpt lat="48.1904730" lon="7.5508680">
        <ele>-249.6</ele>
        <time>2022-06-04T08:30:20Z</time>
      </trkpt>
      <trkpt lat="48.1906750" lon="7.5510210">
        <ele>-249.8</ele>
        <time>2022-06-04T08:30:24Z</time>
      </trkpt>
      <trkpt lat="48.1908660" lon="7.5511710">
        <ele>-249.2</ele>
        <time>2022-06-04T08:30:28Z</time>
      </trkpt>
      <trkpt lat="48.1910450" lon="7.5513180">
        <ele>-249.2</ele>
        <time>2022-06-04T08:30:32Z</time>
      </trkpt>
      <trkpt lat="48.1912300" lon="7.5514700">
        <ele>-249.8</ele>
        <time>2022-06-04T08:30:36Z</time>
      </trkpt>
      <trkpt lat="48.1914180" lon="7.5516230">
        <ele>-249.6</ele>
        <time>2022-06-04T08:30:40Z</time>
      </trkpt>
      <trkpt lat="48.1915930" lon="7.5518150">
        <ele>-249.8</ele>
        <time>2022-06-04T08:30:44Z</time>
      </trkpt>
      <trkpt lat="48.1917810" lon="7.5519510">
        <ele>-251.0</ele>
        <time>2022-06-04T08:30:48Z</time>
      </trkpt>
      <trkpt lat="48.1919860" lon="7.5520850">
        <ele>-251.0</ele>
        <time>2022-06-04T08:30:52Z</time>
      </trkpt>
      <trkpt lat="48.1921960" lon="7.5522230">
        <ele>-251.6</ele>
        <time>2022-06-04T08:30:56Z</time>
      </trkpt>
      <trkpt lat="48.1924110" lon="7.5523660">
        <ele>-251.2</ele>
        <time>2022-06-04T08:31:00Z</time>
      </trkpt>
      <trkpt lat="48.1926260" lon="7.5525080">
        <ele>-251.6</ele>
        <time>2022-06-04T08:31:04Z</time>
      </trkpt>
      <trkpt lat="48.1928280" lon="7.5526500">
        <ele>-251.2</ele>
        <time>2022-06-04T08:31:08Z</time>
      </trkpt>
      <trkpt lat="48.1930260" lon="7.5528060">
        <ele>-251.2</ele>
        <time>2022-06-04T08:31:12Z</time>
      </trkpt>
      <trkpt lat="48.1932280" lon="7.5529610">
        <ele>-251.0</ele>
        <time>2022-06-04T08:31:16Z</time>
      </trkpt>
      <trkpt lat="48.1934350" lon="7.5531160">
        <ele>-251.6</ele>
        <time>2022-06-04T08:31:20Z</time>
      </trkpt>
      <trkpt lat="48.1936330" lon="7.5532800">
        <ele>-251.2</ele>
        <time>2022-06-04T08:31:24Z</time>
      </trkpt>
      <trkpt lat="48.1938330" lon="7.5534460">
        <ele>-251.2</ele>
        <time>2022-06-04T08:31:28Z</time>
      </trkpt>
      <trkpt lat="48.1940430" lon="7.5535980">
        <ele>-251.0</ele>
        <time>2022-06-04T08:31:32Z</time>
      </trkpt>
      <trkpt lat="48.1942430" lon="7.5537500">
        <ele>-251.8</ele>
        <time>2022-06-04T08:31:36Z</time>
      </trkpt>
      <trkpt lat="48.1944400" lon="7.5539180">
        <ele>-251.4</ele>
        <time>2022-06-04T08:31:40Z</time>
      </trkpt>
      <trkpt lat="48.1946400" lon="7.5540760">
        <ele>-251.2</ele>
        <time>2022-06-04T08:31:44Z</time>
      </trkpt>
      <trkpt lat="48.1948360" lon="7.5542210">
        <ele>-251.0</ele>
        <time>2022-06-04T08:31:48Z</time>
      </trkpt>
      <trkpt lat="48.1950350" lon="7.5543680">
        <ele>-252.0</ele>
        <time>2022-06-04T08:31:52Z</time>
      </trkpt>
      <trkpt lat="48.1952250" lon="7.5545160">
        <ele>-251.6</ele>
        <time>2022-06-04T08:31:56Z</time>
      </trkpt>
      <trkpt lat="48.1954160" lon="7.5546660">
        <ele>-251.4</ele>
        <time>2022-06-04T08:32:00Z</time>
      </trkpt>
      <trkpt lat="48.1956160" lon="7.5548130">
        <ele>-251.8</ele>
        <time>2022-06-04T08:32:04Z</time>
      </trkpt>
      <trkpt lat="48.1958130" lon="7.5549630">
        <ele>-252.0</ele>
        <time>2022-06-04T08:32:08Z</time>
      </trkpt>
      <trkpt lat="48.1960130" lon="7.5551060">
        <ele>-251.8</ele>
        <time>2022-06-04T08:32:12Z</time>
      </trkpt>
      <trkpt lat="48.1962100" lon="7.5552600">
        <ele>-251.8</ele>
        <time>2022-06-04T08:32:16Z</time>
      </trkpt>
      <trkpt lat="48.1964100" lon="7.5554180">
        <ele>-251.4</ele>
        <time>2022-06-04T08:32:20Z</time>
      </trkpt>
      <trkpt lat="48.1966260" lon="7.5555760">
        <ele>-251.6</ele>
        <time>2022-06-04T08:32:24Z</time>
      </trkpt>
      <trkpt lat="48.1968280" lon="7.5557250">
        <ele>-251.6</ele>
        <time>2022-06-04T08:32:28Z</time>
      </trkpt>
      <trkpt lat="48.1970150" lon="7.5558710">
        <ele>-251.0</ele>
        <time>2022-06-04T08:32:32Z</time>
      </trkpt>
      <trkpt lat="48.1972060" lon="7.5560160">
        <ele>-251.4</ele>
        <time>2022-06-04T08:32:36Z</time>
      </trkpt>
      <trkpt lat="48.1974030" lon="7.5561680">
        <ele>-251.6</ele>
        <time>2022-06-04T08:32:40Z</time>
      </trkpt>
      <trkpt lat="48.1975950" lon="7.5563280">
        <ele>-251.2</ele>
        <time>2022-06-04T08:32:44Z</time>
      </trkpt>
      <trkpt lat="48.1977930" lon="7.5564780">
        <ele>-251.2</ele>
        <time>2022-06-04T08:32:48Z</time>
      </trkpt>
      <trkpt lat="48.1979900" lon="7.5566310">
        <ele>-251.4</ele>
        <time>2022-06-04T08:32:52Z</time>
      </trkpt>
      <trkpt lat="48.1981900" lon="7.5567900">
        <ele>-251.6</ele>
        <time>2022-06-04T08:32:56Z</time>
      </trkpt>
      <trkpt lat="48.1983910" lon="7.5569480">
        <ele>-251.2</ele>
        <time>2022-06-04T08:33:00Z</time>
      </trkpt>
      <trkpt lat="48.1985930" lon="7.5571030">
        <ele>-251.2</ele>
        <time>2022-06-04T08:33:04Z</time>
      </trkpt>
      <trkpt lat="48.1987960" lon="7.5572530">
        <ele>-251.2</ele>
        <time>2022-06-04T08:33:08Z</time>
      </trkpt>
      <trkpt lat="48.1989950" lon="7.5574030">
        <ele>-251.2</ele>
        <time>2022-06-04T08:33:12Z</time>
      </trkpt>
      <trkpt lat="48.1991950" lon="7.5575460">
        <ele>-251.2</ele>
        <time>2022-06-04T08:33:16Z</time>
      </trkpt>
      <trkpt lat="48.1993880" lon="7.5577110">
        <ele>-251.6</ele>
        <time>2022-06-04T08:33:20Z</time>
      </trkpt>
      <trkpt lat="48.1995960" lon="7.5578580">
        <ele>-252.2</ele>
        <time>2022-06-04T08:33:24Z</time>
      </trkpt>
      <trkpt lat="48.1998180" lon="7.5580150">
        <ele>-251.2</ele>
        <time>2022-06-04T08:33:28Z</time>
      </trkpt>
      <trkpt lat="48.2000360" lon="7.5581810">
        <ele>-251.2</ele>
        <time>2022-06-04T08:33:32Z</time>
      </trkpt>
      <trkpt lat="48.2002510" lon="7.5583460">
        <ele>-251.4</ele>
        <time>2022-06-04T08:33:36Z</time>
      </trkpt>
      <trkpt lat="48.2004700" lon="7.5585050">
        <ele>-251.4</ele>
        <time>2022-06-04T08:33:40Z</time>
      </trkpt>
      <trkpt lat="48.2006830" lon="7.5586730">
        <ele>-251.2</ele>
        <time>2022-06-04T08:33:44Z</time>
      </trkpt>
      <trkpt lat="48.2009050" lon="7.5588430">
        <ele>-251.6</ele>
        <time>2022-06-04T08:33:48Z</time>
      </trkpt>
      <trkpt lat="48.2011330" lon="7.5590080">
        <ele>-251.6</ele>
        <time>2022-06-04T08:33:52Z</time>
      </trkpt>
      <trkpt lat="48.2013600" lon="7.5591810">
        <ele>-251.4</ele>
        <time>2022-06-04T08:33:56Z</time>
      </trkpt>
      <trkpt lat="48.2015830" lon="7.5593610">
        <ele>-251.6</ele>
        <time>2022-06-04T08:34:00Z</time>
      </trkpt>
      <trkpt lat="48.2018050" lon="7.5595380">
        <ele>-251.4</ele>
        <time>2022-06-04T08:34:04Z</time>
      </trkpt>
      <trkpt lat="48.2020210" lon="7.5597110">
        <ele>-251.6</ele>
        <time>2022-06-04T08:34:08Z</time>
      </trkpt>
      <trkpt lat="48.2022360" lon="7.5598760">
        <ele>-251.4</ele>
        <time>2022-06-04T08:34:12Z</time>
      </trkpt>
      <trkpt lat="48.2024580" lon="7.5600460">
        <ele>-251.2</ele>
        <time>2022-06-04T08:34:16Z</time>
      </trkpt>
      <trkpt lat="48.2026760" lon="7.5602150">
        <ele>-251.2</ele>
        <time>2022-06-04T08:34:20Z</time>
      </trkpt>
      <trkpt lat="48.2028980" lon="7.5603930">
        <ele>-251.4</ele>
        <time>2022-06-04T08:34:24Z</time>
      </trkpt>
      <trkpt lat="48.2031210" lon="7.5605680">
        <ele>-251.4</ele>
        <time>2022-06-04T08:34:28Z</time>
      </trkpt>
      <trkpt lat="48.2033480" lon="7.5607380">
        <ele>-251.2</ele>
        <time>2022-06-04T08:34:32Z</time>
      </trkpt>
      <trkpt lat="48.2035630" lon="7.5608950">
        <ele>-251.8</ele>
        <time>2022-06-04T08:34:36Z</time>
      </trkpt>
      <trkpt lat="48.2037850" lon="7.5610660">
        <ele>-251.6</ele>
        <time>2022-06-04T08:34:40Z</time>
      </trkpt>
      <trkpt lat="48.2040060" lon="7.5612330">
        <ele>-251.6</ele>
        <time>2022-06-04T08:34:44Z</time>
      </trkpt>
      <trkpt lat="48.2042210" lon="7.5613960">
        <ele>-251.6</ele>
        <time>2022-06-04T08:34:48Z</time>
      </trkpt>
      <trkpt lat="48.2044300" lon="7.5615580">
        <ele>-251.8</ele>
        <time>2022-06-04T08:34:52Z</time>
      </trkpt>
      <trkpt lat="48.2046330" lon="7.5617200">
        <ele>-251.8</ele>
        <time>2022-06-04T08:34:56Z</time>
      </trkpt>
      <trkpt lat="48.2048350" lon="7.5618650">
        <ele>-251.0</ele>
        <time>2022-06-04T08:35:00Z</time>
      </trkpt>
      <trkpt lat="48.2050300" lon="7.5620260">
        <ele>-251.6</ele>
        <time>2022-06-04T08:35:04Z</time>
      </trkpt>
      <trkpt lat="48.2052310" lon="7.5621830">
        <ele>-251.8</ele>
        <time>2022-06-04T08:35:08Z</time>
      </trkpt>
      <trkpt lat="48.2054180" lon="7.5623580">
        <ele>-252.2</ele>
        <time>2022-06-04T08:35:12Z</time>
      </trkpt>
      <trkpt lat="48.2056080" lon="7.5625380">
        <ele>-252.2</ele>
        <time>2022-06-04T08:35:16Z</time>
      </trkpt>
      <trkpt lat="48.2058300" lon="7.5626280">
        <ele>-251.8</ele>
        <time>2022-06-04T08:35:20Z</time>
      </trkpt>
      <trkpt lat="48.2060310" lon="7.5627810">
        <ele>-252.4</ele>
        <time>2022-06-04T08:35:24Z</time>
      </trkpt>
      <trkpt lat="48.2062160" lon="7.5629350">
        <ele>-252.4</ele>
        <time>2022-06-04T08:35:28Z</time>
      </trkpt>
      <trkpt lat="48.2064050" lon="7.5630700">
        <ele>-252.0</ele>
        <time>2022-06-04T08:35:32Z</time>
      </trkpt>
      <trkpt lat="48.2065830" lon="7.5632230">
        <ele>-252.2</ele>
        <time>2022-06-04T08:35:36Z</time>
      </trkpt>
      <trkpt lat="48.2067750" lon="7.5633510">
        <ele>-252.0</ele>
        <time>2022-06-04T08:35:40Z</time>
      </trkpt>
      <trkpt lat="48.2069730" lon="7.5635030">
        <ele>-252.2</ele>
        <time>2022-06-04T08:35:44Z</time>
      </trkpt>
      <trkpt lat="48.2071680" lon="7.5636550">
        <ele>-252.0</ele>
        <time>2022-06-04T08:35:48Z</time>
      </trkpt>
      <trkpt lat="48.2073580" lon="7.5637930">
        <ele>-252.0</ele>
        <time>2022-06-04T08:35:52Z</time>
      </trkpt>
      <trkpt lat="48.2075430" lon="7.5639360">
        <ele>-252.4</ele>
        <time>2022-06-04T08:35:56Z</time>
      </trkpt>
      <trkpt lat="48.2077300" lon="7.5640880">
        <ele>-252.6</ele>
        <time>2022-06-04T08:36:00Z</time>
      </trkpt>
      <trkpt lat="48.2079230" lon="7.5642350">
        <ele>-252.2</ele>
        <time>2022-06-04T08:36:04Z</time>
      </trkpt>
      <trkpt lat="48.2081110" lon="7.5643730">
        <ele>-252.6</ele>
        <time>2022-06-04T08:36:08Z</time>
      </trkpt>
      <trkpt lat="48.2082980" lon="7.5645180">
        <ele>-251.8</ele>
        <time>2022-06-04T08:36:12Z</time>
      </trkpt>
      <trkpt lat="48.2084780" lon="7.5646600">
        <ele>-252.6</ele>
        <time>2022-06-04T08:36:16Z</time>
      </trkpt>
      <trkpt lat="48.2086650" lon="7.5648010">
        <ele>-252.6</ele>
        <time>2022-06-04T08:36:20Z</time>
      </trkpt>
      <trkpt lat="48.2088450" lon="7.5649460">
        <ele>-252.4</ele>
        <time>2022-06-04T08:36:24Z</time>
      </trkpt>
      <trkpt lat="48.2090300" lon="7.5650900">
        <ele>-252.4</ele>
        <time>2022-06-04T08:36:28Z</time>
      </trkpt>
      <trkpt lat="48.2092150" lon="7.5652200">
        <ele>-252.4</ele>
        <time>2022-06-04T08:36:32Z</time>
      </trkpt>
      <trkpt lat="48.2093900" lon="7.5653750">
        <ele>-252.6</ele>
        <time>2022-06-04T08:36:36Z</time>
      </trkpt>
      <trkpt lat="48.2095700" lon="7.5655080">
        <ele>-252.0</ele>
        <time>2022-06-04T08:36:40Z</time>
      </trkpt>
      <trkpt lat="48.2097460" lon="7.5656480">
        <ele>-252.8</ele>
        <time>2022-06-04T08:36:44Z</time>
      </trkpt>
      <trkpt lat="48.2099410" lon="7.5657830">
        <ele>-252.6</ele>
        <time>2022-06-04T08:36:48Z</time>
      </trkpt>
      <trkpt lat="48.2101250" lon="7.5659400">
        <ele>-252.6</ele>
        <time>2022-06-04T08:36:52Z</time>
      </trkpt>
      <trkpt lat="48.2103110" lon="7.5660930">
        <ele>-252.2</ele>
        <time>2022-06-04T08:36:56Z</time>
      </trkpt>
      <trkpt lat="48.2105030" lon="7.5662180">
        <ele>-252.0</ele>
        <time>2022-06-04T08:37:00Z</time>
      </trkpt>
      <trkpt lat="48.2106830" lon="7.5663480">
        <ele>-252.2</ele>
        <time>2022-06-04T08:37:04Z</time>
      </trkpt>
      <trkpt lat="48.2108610" lon="7.5664910">
        <ele>-251.8</ele>
        <time>2022-06-04T08:37:08Z</time>
      </trkpt>
      <trkpt lat="48.2110250" lon="7.5666780">
        <ele>-252.6</ele>
        <time>2022-06-04T08:37:12Z</time>
      </trkpt>
      <trkpt lat="48.2112050" lon="7.5668430">
        <ele>-252.4</ele>
        <time>2022-06-04T08:37:16Z</time>
      </trkpt>
      <trkpt lat="48.2113310" lon="7.5669160">
        <ele>-252.2</ele>
        <time>2022-06-04T08:37:20Z</time>
      </trkpt>
      <trkpt lat="48.2114750" lon="7.5669900">
        <ele>-253.2</ele>
        <time>2022-06-04T08:37:24Z</time>
      </trkpt>
      <trkpt lat="48.2116730" lon="7.5671280">
        <ele>-254.2</ele>
        <time>2022-06-04T08:37:28Z</time>
      </trkpt>
      <trkpt lat="48.2118810" lon="7.5672830">
        <ele>-254.8</ele>
        <time>2022-06-04T08:37:32Z</time>
      </trkpt>
      <trkpt lat="48.2120800" lon="7.5674360">
        <ele>-254.6</ele>
        <time>2022-06-04T08:37:36Z</time>
      </trkpt>
      <trkpt lat="48.2122650" lon="7.5675910">
        <ele>-254.6</ele>
        <time>2022-06-04T08:37:40Z</time>
      </trkpt>
      <trkpt lat="48.2124480" lon="7.5677300">
        <ele>-253.8</ele>
        <time>2022-06-04T08:37:44Z</time>
      </trkpt>
      <trkpt lat="48.2126350" lon="7.5678600">
        <ele>-254.4</ele>
        <time>2022-06-04T08:37:48Z</time>
      </trkpt>
      <trkpt lat="48.2128160" lon="7.5679960">
        <ele>-254.6</ele>
        <time>2022-06-04T08:37:52Z</time>
      </trkpt>
      <trkpt lat="48.2129930" lon="7.5681300">
        <ele>-254.6</ele>
        <time>2022-06-04T08:37:56Z</time>
      </trkpt>
      <trkpt lat="48.2131850" lon="7.5682510">
        <ele>-254.8</ele>
        <time>2022-06-04T08:38:00Z</time>
      </trkpt>
      <trkpt lat="48.2133810" lon="7.5683980">
        <ele>-254.8</ele>
        <time>2022-06-04T08:38:04Z</time>
      </trkpt>
      <trkpt lat="48.2135750" lon="7.5685500">
        <ele>-254.6</ele>
        <time>2022-06-04T08:38:08Z</time>
      </trkpt>
      <trkpt lat="48.2137650" lon="7.5687050">
        <ele>-253.8</ele>
        <time>2022-06-04T08:38:12Z</time>
      </trkpt>
      <trkpt lat="48.2139560" lon="7.5688580">
        <ele>-253.8</ele>
        <time>2022-06-04T08:38:16Z</time>
      </trkpt>
      <trkpt lat="48.2141460" lon="7.5690000">
        <ele>-254.4</ele>
        <time>2022-06-04T08:38:20Z</time>
      </trkpt>
      <trkpt lat="48.2143460" lon="7.5691480">
        <ele>-255.0</ele>
        <time>2022-06-04T08:38:24Z</time>
      </trkpt>
      <trkpt lat="48.2145480" lon="7.5693180">
        <ele>-254.4</ele>
        <time>2022-06-04T08:38:28Z</time>
      </trkpt>
      <trkpt lat="48.2147460" lon="7.5694810">
        <ele>-254.4</ele>
        <time>2022-06-04T08:38:32Z</time>
      </trkpt>
      <trkpt lat="48.2149380" lon="7.5696260">
        <ele>-254.8</ele>
        <time>2022-06-04T08:38:36Z</time>
      </trkpt>
      <trkpt lat="48.2151330" lon="7.5697750">
        <ele>-254.6</ele>
        <time>2022-06-04T08:38:40Z</time>
      </trkpt>
      <trkpt lat="48.2153300" lon="7.5699280">
        <ele>-254.6</ele>
        <time>2022-06-04T08:38:44Z</time>
      </trkpt>
      <trkpt lat="48.2155280" lon="7.5700730">
        <ele>-254.6</ele>
        <time>2022-06-04T08:38:48Z</time>
      </trkpt>
      <trkpt lat="48.2157260" lon="7.5702350">
        <ele>-254.4</ele>
        <time>2022-06-04T08:38:52Z</time>
      </trkpt>
      <trkpt lat="48.2159300" lon="7.5703850">
        <ele>-255.2</ele>
        <time>2022-06-04T08:38:56Z</time>
      </trkpt>
      <trkpt lat="48.2161410" lon="7.5705310">
        <ele>-255.2</ele>
        <time>2022-06-04T08:39:00Z</time>
      </trkpt>
      <trkpt lat="48.2163510" lon="7.5706950">
        <ele>-255.2</ele>
        <time>2022-06-04T08:39:04Z</time>
      </trkpt>
      <trkpt lat="48.2165580" lon="7.5708530">
        <ele>-255.2</ele>
        <time>2022-06-04T08:39:08Z</time>
      </trkpt>
      <trkpt lat="48.2167680" lon="7.5710180">
        <ele>-255.0</ele>
        <time>2022-06-04T08:39:12Z</time>
      </trkpt>
      <trkpt lat="48.2169700" lon="7.5711830">
        <ele>-255.2</ele>
        <time>2022-06-04T08:39:16Z</time>
      </trkpt>
      <trkpt lat="48.2171760" lon="7.5713460">
        <ele>-254.8</ele>
        <time>2022-06-04T08:39:20Z</time>
      </trkpt>
      <trkpt lat="48.2173800" lon="7.5714980">
        <ele>-254.6</ele>
        <time>2022-06-04T08:39:24Z</time>
      </trkpt>
      <trkpt lat="48.2175760" lon="7.5716530">
        <ele>-255.2</ele>
        <time>2022-06-04T08:39:28Z</time>
      </trkpt>
      <trkpt lat="48.2177850" lon="7.5717980">
        <ele>-255.2</ele>
        <time>2022-06-04T08:39:32Z</time>
      </trkpt>
      <trkpt lat="48.2179960" lon="7.5719600">
        <ele>-255.4</ele>
        <time>2022-06-04T08:39:36Z</time>
      </trkpt>
      <trkpt lat="48.2182000" lon="7.5721130">
        <ele>-254.8</ele>
        <time>2022-06-04T08:39:40Z</time>
      </trkpt>
      <trkpt lat="48.2184000" lon="7.5722780">
        <ele>-254.8</ele>
        <time>2022-06-04T08:39:44Z</time>
      </trkpt>
      <trkpt lat="48.2186050" lon="7.5724460">
        <ele>-255.6</ele>
        <time>2022-06-04T08:39:48Z</time>
      </trkpt>
      <trkpt lat="48.2188110" lon="7.5726050">
        <ele>-255.0</ele>
        <time>2022-06-04T08:39:52Z</time>
      </trkpt>
      <trkpt lat="48.2190060" lon="7.5727550">
        <ele>-255.0</ele>
        <time>2022-06-04T08:39:56Z</time>
      </trkpt>
      <trkpt lat="48.2192030" lon="7.5729130">
        <ele>-255.4</ele>
        <time>2022-06-04T08:40:00Z</time>
      </trkpt>
      <trkpt lat="48.2194080" lon="7.5730680">
        <ele>-255.2</ele>
        <time>2022-06-04T08:40:04Z</time>
      </trkpt>
      <trkpt lat="48.2196060" lon="7.5732250">
        <ele>-254.6</ele>
        <time>2022-06-04T08:40:08Z</time>
      </trkpt>
      <trkpt lat="48.2198080" lon="7.5733780">
        <ele>-255.2</ele>
        <time>2022-06-04T08:40:12Z</time>
      </trkpt>
      <trkpt lat="48.2199880" lon="7.5735350">
        <ele>-255.2</ele>
        <time>2022-06-04T08:40:16Z</time>
      </trkpt>
      <trkpt lat="48.2201900" lon="7.5736700">
        <ele>-255.2</ele>
        <time>2022-06-04T08:40:20Z</time>
      </trkpt>
      <trkpt lat="48.2203950" lon="7.5738210">
        <ele>-255.2</ele>
        <time>2022-06-04T08:40:24Z</time>
      </trkpt>
      <trkpt lat="48.2205860" lon="7.5739530">
        <ele>-255.2</ele>
        <time>2022-06-04T08:40:28Z</time>
      </trkpt>
      <trkpt lat="48.2207660" lon="7.5741110">
        <ele>-255.4</ele>
        <time>2022-06-04T08:40:32Z</time>
      </trkpt>
      <trkpt lat="48.2209700" lon="7.5742650">
        <ele>-255.2</ele>
        <time>2022-06-04T08:40:36Z</time>
      </trkpt>
      <trkpt lat="48.2211650" lon="7.5743950">
        <ele>-255.4</ele>
        <time>2022-06-04T08:40:40Z</time>
      </trkpt>
      <trkpt lat="48.2213500" lon="7.5745380">
        <ele>-255.2</ele>
        <time>2022-06-04T08:40:44Z</time>
      </trkpt>
      <trkpt lat="48.2215380" lon="7.5746980">
        <ele>-255.4</ele>
        <time>2022-06-04T08:40:48Z</time>
      </trkpt>
      <trkpt lat="48.2217310" lon="7.5748500">
        <ele>-255.0</ele>
        <time>2022-06-04T08:40:52Z</time>
      </trkpt>
      <trkpt lat="48.2219280" lon="7.5749860">
        <ele>-255.6</ele>
        <time>2022-06-04T08:40:56Z</time>
      </trkpt>
      <trkpt lat="48.2221200" lon="7.5751150">
        <ele>-255.0</ele>
        <time>2022-06-04T08:41:00Z</time>
      </trkpt>
      <trkpt lat="48.2223110" lon="7.5752750">
        <ele>-255.0</ele>
        <time>2022-06-04T08:41:04Z</time>
      </trkpt>
      <trkpt lat="48.2224910" lon="7.5754350">
        <ele>-255.2</ele>
        <time>2022-06-04T08:41:08Z</time>
      </trkpt>
      <trkpt lat="48.2226950" lon="7.5755800">
        <ele>-254.8</ele>
        <time>2022-06-04T08:41:12Z</time>
      </trkpt>
      <trkpt lat="48.2229060" lon="7.5757360">
        <ele>-254.4</ele>
        <time>2022-06-04T08:41:16Z</time>
      </trkpt>
      <trkpt lat="48.2231110" lon="7.5758960">
        <ele>-254.8</ele>
        <time>2022-06-04T08:41:20Z</time>
      </trkpt>
      <trkpt lat="48.2233280" lon="7.5760530">
        <ele>-255.0</ele>
        <time>2022-06-04T08:41:24Z</time>
      </trkpt>
      <trkpt lat="48.2235260" lon="7.5762130">
        <ele>-255.2</ele>
        <time>2022-06-04T08:41:28Z</time>
      </trkpt>
      <trkpt lat="48.2237260" lon="7.5763650">
        <ele>-255.4</ele>
        <time>2022-06-04T08:41:32Z</time>
      </trkpt>
      <trkpt lat="48.2239430" lon="7.5765260">
        <ele>-254.4</ele>
        <time>2022-06-04T08:41:36Z</time>
      </trkpt>
      <trkpt lat="48.2241500" lon="7.5766930">
        <ele>-254.6</ele>
        <time>2022-06-04T08:41:40Z</time>
      </trkpt>
      <trkpt lat="48.2243680" lon="7.5768650">
        <ele>-255.2</ele>
        <time>2022-06-04T08:41:44Z</time>
      </trkpt>
      <trkpt lat="48.2245910" lon="7.5770330">
        <ele>-255.0</ele>
        <time>2022-06-04T08:41:48Z</time>
      </trkpt>
      <trkpt lat="48.2248050" lon="7.5771780">
        <ele>-254.6</ele>
        <time>2022-06-04T08:41:52Z</time>
      </trkpt>
      <trkpt lat="48.2250260" lon="7.5773450">
        <ele>-254.6</ele>
        <time>2022-06-04T08:41:56Z</time>
      </trkpt>
      <trkpt lat="48.2252330" lon="7.5775100">
        <ele>-254.6</ele>
        <time>2022-06-04T08:42:00Z</time>
      </trkpt>
      <trkpt lat="48.2254330" lon="7.5776630">
        <ele>-255.4</ele>
        <time>2022-06-04T08:42:04Z</time>
      </trkpt>
      <trkpt lat="48.2256260" lon="7.5778030">
        <ele>-255.0</ele>
        <time>2022-06-04T08:42:08Z</time>
      </trkpt>
      <trkpt lat="48.2258110" lon="7.5779660">
        <ele>-255.0</ele>
        <time>2022-06-04T08:42:12Z</time>
      </trkpt>
      <trkpt lat="48.2260010" lon="7.5781000">
        <ele>-254.8</ele>
        <time>2022-06-04T08:42:16Z</time>
      </trkpt>
      <trkpt lat="48.2261700" lon="7.5782310">
        <ele>-254.8</ele>
        <time>2022-06-04T08:42:20Z</time>
      </trkpt>
      <trkpt lat="48.2263350" lon="7.5783600">
        <ele>-255.0</ele>
        <time>2022-06-04T08:42:24Z</time>
      </trkpt>
      <trkpt lat="48.2265300" lon="7.5785130">
        <ele>-255.2</ele>
        <time>2022-06-04T08:42:28Z</time>
      </trkpt>
      <trkpt lat="48.2267180" lon="7.5786660">
        <ele>-254.8</ele>
        <time>2022-06-04T08:42:32Z</time>
      </trkpt>
      <trkpt lat="48.2269180" lon="7.5788210">
        <ele>-255.0</ele>
        <time>2022-06-04T08:42:36Z</time>
      </trkpt>
      <trkpt lat="48.2271480" lon="7.5790000">
        <ele>-255.2</ele>
        <time>2022-06-04T08:42:40Z</time>
      </trkpt>
      <trkpt lat="48.2273550" lon="7.5791650">
        <ele>-255.0</ele>
        <time>2022-06-04T08:42:44Z</time>
      </trkpt>
      <trkpt lat="48.2275660" lon="7.5793250">
        <ele>-254.8</ele>
        <time>2022-06-04T08:42:48Z</time>
      </trkpt>
      <trkpt lat="48.2277650" lon="7.5794880">
        <ele>-254.8</ele>
        <time>2022-06-04T08:42:52Z</time>
      </trkpt>
      <trkpt lat="48.2279580" lon="7.5796460">
        <ele>-254.4</ele>
        <time>2022-06-04T08:42:56Z</time>
      </trkpt>
      <trkpt lat="48.2281480" lon="7.5798030">
        <ele>-255.0</ele>
        <time>2022-06-04T08:43:00Z</time>
      </trkpt>
      <trkpt lat="48.2283230" lon="7.5799800">
        <ele>-255.0</ele>
        <time>2022-06-04T08:43:04Z</time>
      </trkpt>
      <trkpt lat="48.2285100" lon="7.5801200">
        <ele>-255.6</ele>
        <time>2022-06-04T08:43:08Z</time>
      </trkpt>
      <trkpt lat="48.2286950" lon="7.5802460">
        <ele>-256.6</ele>
        <time>2022-06-04T08:43:12Z</time>
      </trkpt>
      <trkpt lat="48.2289150" lon="7.5803530">
        <ele>-256.6</ele>
        <time>2022-06-04T08:43:16Z</time>
      </trkpt>
      <trkpt lat="48.2291380" lon="7.5805060">
        <ele>-257.0</ele>
        <time>2022-06-04T08:43:20Z</time>
      </trkpt>
      <trkpt lat="48.2293460" lon="7.5806760">
        <ele>-257.0</ele>
        <time>2022-06-04T08:43:24Z</time>
      </trkpt>
      <trkpt lat="48.2295580" lon="7.5808430">
        <ele>-257.0</ele>
        <time>2022-06-04T08:43:28Z</time>
      </trkpt>
      <trkpt lat="48.2297610" lon="7.5809960">
        <ele>-256.4</ele>
        <time>2022-06-04T08:43:32Z</time>
      </trkpt>
      <trkpt lat="48.2299580" lon="7.5811480">
        <ele>-256.4</ele>
        <time>2022-06-04T08:43:36Z</time>
      </trkpt>
      <trkpt lat="48.2301450" lon="7.5813050">
        <ele>-256.4</ele>
        <time>2022-06-04T08:43:40Z</time>
      </trkpt>
      <trkpt lat="48.2303410" lon="7.5814530">
        <ele>-256.4</ele>
        <time>2022-06-04T08:43:44Z</time>
      </trkpt>
      <trkpt lat="48.2305360" lon="7.5816030">
        <ele>-256.4</ele>
        <time>2022-06-04T08:43:48Z</time>
      </trkpt>
      <trkpt lat="48.2307300" lon="7.5817480">
        <ele>-256.4</ele>
        <time>2022-06-04T08:43:52Z</time>
      </trkpt>
      <trkpt lat="48.2309350" lon="7.5818960">
        <ele>-256.2</ele>
        <time>2022-06-04T08:43:56Z</time>
      </trkpt>
      <trkpt lat="48.2311380" lon="7.5820530">
        <ele>-256.4</ele>
        <time>2022-06-04T08:44:00Z</time>
      </trkpt>
      <trkpt lat="48.2313330" lon="7.5822130">
        <ele>-256.6</ele>
        <time>2022-06-04T08:44:04Z</time>
      </trkpt>
      <trkpt lat="48.2315310" lon="7.5823600">
        <ele>-256.4</ele>
        <time>2022-06-04T08:44:08Z</time>
      </trkpt>
      <trkpt lat="48.2317410" lon="7.5825130">
        <ele>-256.4</ele>
        <time>2022-06-04T08:44:12Z</time>
      </trkpt>
      <trkpt lat="48.2319450" lon="7.5826510">
        <ele>-256.0</ele>
        <time>2022-06-04T08:44:16Z</time>
      </trkpt>
      <trkpt lat="48.2321310" lon="7.5827900">
        <ele>-256.2</ele>
        <time>2022-06-04T08:44:20Z</time>
      </trkpt>
      <trkpt lat="48.2323210" lon="7.5829400">
        <ele>-256.4</ele>
        <time>2022-06-04T08:44:24Z</time>
      </trkpt>
      <trkpt lat="48.2325310" lon="7.5830860">
        <ele>-256.2</ele>
        <time>2022-06-04T08:44:28Z</time>
      </trkpt>
      <trkpt lat="48.2327380" lon="7.5832560">
        <ele>-255.4</ele>
        <time>2022-06-04T08:44:32Z</time>
      </trkpt>
      <trkpt lat="48.2329330" lon="7.5834150">
        <ele>-256.0</ele>
        <time>2022-06-04T08:44:36Z</time>
      </trkpt>
      <trkpt lat="48.2331200" lon="7.5835610">
        <ele>-256.4</ele>
        <time>2022-06-04T08:44:40Z</time>
      </trkpt>
      <trkpt lat="48.2333080" lon="7.5837050">
        <ele>-256.8</ele>
        <time>2022-06-04T08:44:44Z</time>
      </trkpt>
      <trkpt lat="48.2334880" lon="7.5838260">
        <ele>-256.6</ele>
        <time>2022-06-04T08:44:48Z</time>
      </trkpt>
      <trkpt lat="48.2336830" lon="7.5839600">
        <ele>-256.6</ele>
        <time>2022-06-04T08:44:52Z</time>
      </trkpt>
      <trkpt lat="48.2338850" lon="7.5841180">
        <ele>-256.0</ele>
        <time>2022-06-04T08:44:56Z</time>
      </trkpt>
      <trkpt lat="48.2340780" lon="7.5842760">
        <ele>-256.4</ele>
        <time>2022-06-04T08:45:00Z</time>
      </trkpt>
      <trkpt lat="48.2342960" lon="7.5844280">
        <ele>-256.2</ele>
        <time>2022-06-04T08:45:04Z</time>
      </trkpt>
      <trkpt lat="48.2345010" lon="7.5845980">
        <ele>-256.6</ele>
        <time>2022-06-04T08:45:08Z</time>
      </trkpt>
      <trkpt lat="48.2346880" lon="7.5847530">
        <ele>-256.2</ele>
        <time>2022-06-04T08:45:12Z</time>
      </trkpt>
      <trkpt lat="48.2348930" lon="7.5849000">
        <ele>-256.0</ele>
        <time>2022-06-04T08:45:16Z</time>
      </trkpt>
      <trkpt lat="48.2351280" lon="7.5850780">
        <ele>-255.6</ele>
        <time>2022-06-04T08:45:20Z</time>
      </trkpt>
      <trkpt lat="48.2353330" lon="7.5852380">
        <ele>-256.6</ele>
        <time>2022-06-04T08:45:24Z</time>
      </trkpt>
      <trkpt lat="48.2355110" lon="7.5853830">
        <ele>-257.0</ele>
        <time>2022-06-04T08:45:28Z</time>
      </trkpt>
      <trkpt lat="48.2356780" lon="7.5855480">
        <ele>-257.0</ele>
        <time>2022-06-04T08:45:32Z</time>
      </trkpt>
      <trkpt lat="48.2358980" lon="7.5857100">
        <ele>-256.4</ele>
        <time>2022-06-04T08:45:36Z</time>
      </trkpt>
      <trkpt lat="48.2361260" lon="7.5858850">
        <ele>-256.0</ele>
        <time>2022-06-04T08:45:40Z</time>
      </trkpt>
      <trkpt lat="48.2363280" lon="7.5860230">
        <ele>-256.0</ele>
        <time>2022-06-04T08:45:44Z</time>
      </trkpt>
      <trkpt lat="48.2365280" lon="7.5861380">
        <ele>-256.6</ele>
        <time>2022-06-04T08:45:48Z</time>
      </trkpt>
      <trkpt lat="48.2367130" lon="7.5862780">
        <ele>-256.6</ele>
        <time>2022-06-04T08:45:52Z</time>
      </trkpt>
      <trkpt lat="48.2369510" lon="7.5864780">
        <ele>-256.4</ele>
        <time>2022-06-04T08:45:56Z</time>
      </trkpt>
      <trkpt lat="48.2371910" lon="7.5866880">
        <ele>-256.2</ele>
        <time>2022-06-04T08:46:00Z</time>
      </trkpt>
      <trkpt lat="48.2374180" lon="7.5868550">
        <ele>-257.0</ele>
        <time>2022-06-04T08:46:04Z</time>
      </trkpt>
      <trkpt lat="48.2376710" lon="7.5870010">
        <ele>-256.8</ele>
        <time>2022-06-04T08:46:08Z</time>
      </trkpt>
      <trkpt lat="48.2379130" lon="7.5872060">
        <ele>-256.6</ele>
        <time>2022-06-04T08:46:12Z</time>
      </trkpt>
      <trkpt lat="48.2381410" lon="7.5873830">
        <ele>-256.0</ele>
        <time>2022-06-04T08:46:16Z</time>
      </trkpt>
      <trkpt lat="48.2383550" lon="7.5875680">
        <ele>-256.0</ele>
        <time>2022-06-04T08:46:20Z</time>
      </trkpt>
      <trkpt lat="48.2385650" lon="7.5877330">
        <ele>-256.2</ele>
        <time>2022-06-04T08:46:24Z</time>
      </trkpt>
      <trkpt lat="48.2387680" lon="7.5879000">
        <ele>-256.0</ele>
        <time>2022-06-04T08:46:28Z</time>
      </trkpt>
      <trkpt lat="48.2389560" lon="7.5880360">
        <ele>-256.6</ele>
        <time>2022-06-04T08:46:32Z</time>
      </trkpt>
      <trkpt lat="48.2391480" lon="7.5881860">
        <ele>-256.6</ele>
        <time>2022-06-04T08:46:36Z</time>
      </trkpt>
      <trkpt lat="48.2393460" lon="7.5883350">
        <ele>-256.6</ele>
        <time>2022-06-04T08:46:40Z</time>
      </trkpt>
      <trkpt lat="48.2395380" lon="7.5884760">
        <ele>-256.2</ele>
        <time>2022-06-04T08:46:44Z</time>
      </trkpt>
      <trkpt lat="48.2397410" lon="7.5886360">
        <ele>-256.2</ele>
        <time>2022-06-04T08:46:48Z</time>
      </trkpt>
      <trkpt lat="48.2399300" lon="7.5887830">
        <ele>-256.6</ele>
        <time>2022-06-04T08:46:52Z</time>
      </trkpt>
      <trkpt lat="48.2401160" lon="7.5889100">
        <ele>-257.0</ele>
        <time>2022-06-04T08:46:56Z</time>
      </trkpt>
      <trkpt lat="48.2403060" lon="7.5890650">
        <ele>-256.6</ele>
        <time>2022-06-04T08:47:00Z</time>
      </trkpt>
      <trkpt lat="48.2405050" lon="7.5892200">
        <ele>-256.6</ele>
        <time>2022-06-04T08:47:04Z</time>
      </trkpt>
      <trkpt lat="48.2406700" lon="7.5893600">
        <ele>-256.6</ele>
        <time>2022-06-04T08:47:08Z</time>
      </trkpt>
      <trkpt lat="48.2408500" lon="7.5894900">
        <ele>-256.2</ele>
        <time>2022-06-04T08:47:12Z</time>
      </trkpt>
      <trkpt lat="48.2410350" lon="7.5896180">
        <ele>-256.6</ele>
        <time>2022-06-04T08:47:16Z</time>
      </trkpt>
      <trkpt lat="48.2412230" lon="7.5897560">
        <ele>-256.6</ele>
        <time>2022-06-04T08:47:20Z</time>
      </trkpt>
      <trkpt lat="48.2413980" lon="7.5898760">
        <ele>-256.4</ele>
        <time>2022-06-04T08:47:24Z</time>
      </trkpt>
      <trkpt lat="48.2415710" lon="7.5899880">
        <ele>-256.6</ele>
        <time>2022-06-04T08:47:28Z</time>
      </trkpt>
      <trkpt lat="48.2417360" lon="7.5901350">
        <ele>-256.8</ele>
        <time>2022-06-04T08:47:32Z</time>
      </trkpt>
      <trkpt lat="48.2419200" lon="7.5903010">
        <ele>-256.6</ele>
        <time>2022-06-04T08:47:36Z</time>
      </trkpt>
      <trkpt lat="48.2420910" lon="7.5904350">
        <ele>-257.0</ele>
        <time>2022-06-04T08:47:40Z</time>
      </trkpt>
      <trkpt lat="48.2422760" lon="7.5905910">
        <ele>-257.0</ele>
        <time>2022-06-04T08:47:44Z</time>
      </trkpt>
      <trkpt lat="48.2424580" lon="7.5907330">
        <ele>-257.2</ele>
        <time>2022-06-04T08:47:48Z</time>
      </trkpt>
      <trkpt lat="48.2426200" lon="7.5908810">
        <ele>-256.2</ele>
        <time>2022-06-04T08:47:52Z</time>
      </trkpt>
      <trkpt lat="48.2428160" lon="7.5910400">
        <ele>-256.4</ele>
        <time>2022-06-04T08:47:56Z</time>
      </trkpt>
      <trkpt lat="48.2430080" lon="7.5911750">
        <ele>-256.6</ele>
        <time>2022-06-04T08:48:00Z</time>
      </trkpt>
      <trkpt lat="48.2431930" lon="7.5913160">
        <ele>-256.6</ele>
        <time>2022-06-04T08:48:04Z</time>
      </trkpt>
      <trkpt lat="48.2433910" lon="7.5914630">
        <ele>-256.2</ele>
        <time>2022-06-04T08:48:08Z</time>
      </trkpt>
      <trkpt lat="48.2435930" lon="7.5916230">
        <ele>-256.4</ele>
        <time>2022-06-04T08:48:12Z</time>
      </trkpt>
      <trkpt lat="48.2437900" lon="7.5917810">
        <ele>-257.0</ele>
        <time>2022-06-04T08:48:16Z</time>
      </trkpt>
      <trkpt lat="48.2439780" lon="7.5919150">
        <ele>-256.6</ele>
        <time>2022-06-04T08:48:20Z</time>
      </trkpt>
      <trkpt lat="48.2441650" lon="7.5920510">
        <ele>-256.8</ele>
        <time>2022-06-04T08:48:24Z</time>
      </trkpt>
      <trkpt lat="48.2443500" lon="7.5921930">
        <ele>-257.0</ele>
        <time>2022-06-04T08:48:28Z</time>
      </trkpt>
      <trkpt lat="48.2445380" lon="7.5923310">
        <ele>-256.8</ele>
        <time>2022-06-04T08:48:32Z</time>
      </trkpt>
      <trkpt lat="48.2447360" lon="7.5924860">
        <ele>-256.8</ele>
        <time>2022-06-04T08:48:36Z</time>
      </trkpt>
      <trkpt lat="48.2449200" lon="7.5926280">
        <ele>-256.6</ele>
        <time>2022-06-04T08:48:40Z</time>
      </trkpt>
      <trkpt lat="48.2450980" lon="7.5927780">
        <ele>-256.6</ele>
        <time>2022-06-04T08:48:44Z</time>
      </trkpt>
      <trkpt lat="48.2452950" lon="7.5929330">
        <ele>-257.0</ele>
        <time>2022-06-04T08:48:48Z</time>
      </trkpt>
      <trkpt lat="48.2454930" lon="7.5930810">
        <ele>-257.2</ele>
        <time>2022-06-04T08:48:52Z</time>
      </trkpt>
      <trkpt lat="48.2456880" lon="7.5932400">
        <ele>-257.4</ele>
        <time>2022-06-04T08:48:56Z</time>
      </trkpt>
      <trkpt lat="48.2458860" lon="7.5933910">
        <ele>-257.2</ele>
        <time>2022-06-04T08:49:00Z</time>
      </trkpt>
      <trkpt lat="48.2460830" lon="7.5935330">
        <ele>-257.2</ele>
        <time>2022-06-04T08:49:04Z</time>
      </trkpt>
      <trkpt lat="48.2462800" lon="7.5936910">
        <ele>-257.2</ele>
        <time>2022-06-04T08:49:08Z</time>
      </trkpt>
      <trkpt lat="48.2464780" lon="7.5938280">
        <ele>-257.2</ele>
        <time>2022-06-04T08:49:12Z</time>
      </trkpt>
      <trkpt lat="48.2466750" lon="7.5939710">
        <ele>-257.2</ele>
        <time>2022-06-04T08:49:16Z</time>
      </trkpt>
      <trkpt lat="48.2468600" lon="7.5941210">
        <ele>-257.0</ele>
        <time>2022-06-04T08:49:20Z</time>
      </trkpt>
      <trkpt lat="48.2470410" lon="7.5942400">
        <ele>-256.6</ele>
        <time>2022-06-04T08:49:24Z</time>
      </trkpt>
      <trkpt lat="48.2472430" lon="7.5944030">
        <ele>-256.6</ele>
        <time>2022-06-04T08:49:28Z</time>
      </trkpt>
      <trkpt lat="48.2474480" lon="7.5945630">
        <ele>-256.4</ele>
        <time>2022-06-04T08:49:32Z</time>
      </trkpt>
      <trkpt lat="48.2476510" lon="7.5947110">
        <ele>-256.6</ele>
        <time>2022-06-04T08:49:36Z</time>
      </trkpt>
      <trkpt lat="48.2478450" lon="7.5948610">
        <ele>-257.2</ele>
        <time>2022-06-04T08:49:40Z</time>
      </trkpt>
      <trkpt lat="48.2480430" lon="7.5950060">
        <ele>-257.0</ele>
        <time>2022-06-04T08:49:44Z</time>
      </trkpt>
      <trkpt lat="48.2482400" lon="7.5951630">
        <ele>-257.4</ele>
        <time>2022-06-04T08:49:48Z</time>
      </trkpt>
      <trkpt lat="48.2484210" lon="7.5953200">
        <ele>-257.4</ele>
        <time>2022-06-04T08:49:52Z</time>
      </trkpt>
      <trkpt lat="48.2486110" lon="7.5954650">
        <ele>-257.2</ele>
        <time>2022-06-04T08:49:56Z</time>
      </trkpt>
      <trkpt lat="48.2488110" lon="7.5956180">
        <ele>-257.0</ele>
        <time>2022-06-04T08:50:00Z</time>
      </trkpt>
      <trkpt lat="48.2490060" lon="7.5957560">
        <ele>-257.4</ele>
        <time>2022-06-04T08:50:04Z</time>
      </trkpt>
      <trkpt lat="48.2491980" lon="7.5959160">
        <ele>-256.8</ele>
        <time>2022-06-04T08:50:08Z</time>
      </trkpt>
      <trkpt lat="48.2493980" lon="7.5960680">
        <ele>-256.4</ele>
        <time>2022-06-04T08:50:12Z</time>
      </trkpt>
      <trkpt lat="48.2496060" lon="7.5962260">
        <ele>-257.2</ele>
        <time>2022-06-04T08:50:16Z</time>
      </trkpt>
      <trkpt lat="48.2498050" lon="7.5963810">
        <ele>-257.4</ele>
        <time>2022-06-04T08:50:20Z</time>
      </trkpt>
      <trkpt lat="48.2500010" lon="7.5965310">
        <ele>-257.0</ele>
        <time>2022-06-04T08:50:24Z</time>
      </trkpt>
      <trkpt lat="48.2502060" lon="7.5966860">
        <ele>-257.6</ele>
        <time>2022-06-04T08:50:28Z</time>
      </trkpt>
      <trkpt lat="48.2504000" lon="7.5968600">
        <ele>-257.4</ele>
        <time>2022-06-04T08:50:32Z</time>
      </trkpt>
      <trkpt lat="48.2505950" lon="7.5970060">
        <ele>-257.0</ele>
        <time>2022-06-04T08:50:36Z</time>
      </trkpt>
      <trkpt lat="48.2507950" lon="7.5971730">
        <ele>-257.8</ele>
        <time>2022-06-04T08:50:40Z</time>
      </trkpt>
      <trkpt lat="48.2509860" lon="7.5973400">
        <ele>-257.4</ele>
        <time>2022-06-04T08:50:44Z</time>
      </trkpt>
      <trkpt lat="48.2511760" lon="7.5974950">
        <ele>-257.6</ele>
        <time>2022-06-04T08:50:48Z</time>
      </trkpt>
      <trkpt lat="48.2513580" lon="7.5976560">
        <ele>-258.8</ele>
        <time>2022-06-04T08:50:52Z</time>
      </trkpt>
      <trkpt lat="48.2515450" lon="7.5978150">
        <ele>-259.4</ele>
        <time>2022-06-04T08:50:56Z</time>
      </trkpt>
      <trkpt lat="48.2517700" lon="7.5979180">
        <ele>-258.8</ele>
        <time>2022-06-04T08:51:00Z</time>
      </trkpt>
      <trkpt lat="48.2519850" lon="7.5980710">
        <ele>-259.4</ele>
        <time>2022-06-04T08:51:04Z</time>
      </trkpt>
      <trkpt lat="48.2521900" lon="7.5982330">
        <ele>-259.4</ele>
        <time>2022-06-04T08:51:08Z</time>
      </trkpt>
      <trkpt lat="48.2524100" lon="7.5983380">
        <ele>-259.6</ele>
        <time>2022-06-04T08:51:12Z</time>
      </trkpt>
      <trkpt lat="48.2526410" lon="7.5983150">
        <ele>-259.8</ele>
        <time>2022-06-04T08:51:16Z</time>
      </trkpt>
      <trkpt lat="48.2528550" lon="7.5983860">
        <ele>-259.2</ele>
        <time>2022-06-04T08:51:20Z</time>
      </trkpt>
      <trkpt lat="48.2530460" lon="7.5984980">
        <ele>-259.4</ele>
        <time>2022-06-04T08:51:24Z</time>
      </trkpt>
      <trkpt lat="48.2532410" lon="7.5986430">
        <ele>-259.8</ele>
        <time>2022-06-04T08:51:28Z</time>
      </trkpt>
      <trkpt lat="48.2533600" lon="7.5989030">
        <ele>-259.8</ele>
        <time>2022-06-04T08:51:32Z</time>
      </trkpt>
      <trkpt lat="48.2534600" lon="7.5991800">
        <ele>-259.2</ele>
        <time>2022-06-04T08:51:36Z</time>
      </trkpt>
      <trkpt lat="48.2536160" lon="7.5993310">
        <ele>-259.8</ele>
        <time>2022-06-04T08:51:40Z</time>
      </trkpt>
      <trkpt lat="48.2537800" lon="7.5994730">
        <ele>-259.2</ele>
        <time>2022-06-04T08:51:44Z</time>
      </trkpt>
      <trkpt lat="48.2539710" lon="7.5996100">
        <ele>-259.2</ele>
        <time>2022-06-04T08:51:48Z</time>
      </trkpt>
      <trkpt lat="48.2541660" lon="7.5997630">
        <ele>-259.0</ele>
        <time>2022-06-04T08:51:52Z</time>
      </trkpt>
      <trkpt lat="48.2543650" lon="7.5999160">
        <ele>-259.2</ele>
        <time>2022-06-04T08:51:56Z</time>
      </trkpt>
      <trkpt lat="48.2545610" lon="7.6000780">
        <ele>-258.8</ele>
        <time>2022-06-04T08:52:00Z</time>
      </trkpt>
      <trkpt lat="48.2547650" lon="7.6002330">
        <ele>-259.8</ele>
        <time>2022-06-04T08:52:04Z</time>
      </trkpt>
      <trkpt lat="48.2549680" lon="7.6003750">
        <ele>-259.0</ele>
        <time>2022-06-04T08:52:08Z</time>
      </trkpt>
      <trkpt lat="48.2551750" lon="7.6005250">
        <ele>-258.8</ele>
        <time>2022-06-04T08:52:12Z</time>
      </trkpt>
      <trkpt lat="48.2553830" lon="7.6006730">
        <ele>-259.4</ele>
        <time>2022-06-04T08:52:16Z</time>
      </trkpt>
      <trkpt lat="48.2555850" lon="7.6008280">
        <ele>-258.8</ele>
        <time>2022-06-04T08:52:20Z</time>
      </trkpt>
      <trkpt lat="48.2557830" lon="7.6009810">
        <ele>-260.0</ele>
        <time>2022-06-04T08:52:24Z</time>
      </trkpt>
      <trkpt lat="48.2559780" lon="7.6011380">
        <ele>-259.8</ele>
        <time>2022-06-04T08:52:28Z</time>
      </trkpt>
      <trkpt lat="48.2561730" lon="7.6012810">
        <ele>-259.4</ele>
        <time>2022-06-04T08:52:32Z</time>
      </trkpt>
      <trkpt lat="48.2563700" lon="7.6014250">
        <ele>-259.8</ele>
        <time>2022-06-04T08:52:36Z</time>
      </trkpt>
      <trkpt lat="48.2565610" lon="7.6015750">
        <ele>-260.0</ele>
        <time>2022-06-04T08:52:40Z</time>
      </trkpt>
      <trkpt lat="48.2567460" lon="7.6017200">
        <ele>-259.4</ele>
        <time>2022-06-04T08:52:44Z</time>
      </trkpt>
      <trkpt lat="48.2569350" lon="7.6018650">
        <ele>-259.4</ele>
        <time>2022-06-04T08:52:48Z</time>
      </trkpt>
      <trkpt lat="48.2571250" lon="7.6020100">
        <ele>-260.0</ele>
        <time>2022-06-04T08:52:52Z</time>
      </trkpt>
      <trkpt lat="48.2573110" lon="7.6021530">
        <ele>-260.0</ele>
        <time>2022-06-04T08:52:56Z</time>
      </trkpt>
      <trkpt lat="48.2575050" lon="7.6023030">
        <ele>-259.6</ele>
        <time>2022-06-04T08:53:00Z</time>
      </trkpt>
      <trkpt lat="48.2576950" lon="7.6024650">
        <ele>-259.8</ele>
        <time>2022-06-04T08:53:04Z</time>
      </trkpt>
      <trkpt lat="48.2578950" lon="7.6026180">
        <ele>-259.4</ele>
        <time>2022-06-04T08:53:08Z</time>
      </trkpt>
      <trkpt lat="48.2580850" lon="7.6027610">
        <ele>-259.4</ele>
        <time>2022-06-04T08:53:12Z</time>
      </trkpt>
      <trkpt lat="48.2582710" lon="7.6029050">
        <ele>-259.4</ele>
        <time>2022-06-04T08:53:16Z</time>
      </trkpt>
      <trkpt lat="48.2584580" lon="7.6030550">
        <ele>-259.4</ele>
        <time>2022-06-04T08:53:20Z</time>
      </trkpt>
      <trkpt lat="48.2586430" lon="7.6031950">
        <ele>-259.2</ele>
        <time>2022-06-04T08:53:24Z</time>
      </trkpt>
      <trkpt lat="48.2588280" lon="7.6033410">
        <ele>-259.4</ele>
        <time>2022-06-04T08:53:28Z</time>
      </trkpt>
      <trkpt lat="48.2590150" lon="7.6034760">
        <ele>-259.4</ele>
        <time>2022-06-04T08:53:32Z</time>
      </trkpt>
      <trkpt lat="48.2592000" lon="7.6036250">
        <ele>-259.2</ele>
        <time>2022-06-04T08:53:36Z</time>
      </trkpt>
      <trkpt lat="48.2594000" lon="7.6037780">
        <ele>-260.0</ele>
        <time>2022-06-04T08:53:40Z</time>
      </trkpt>
      <trkpt lat="48.2596050" lon="7.6039350">
        <ele>-259.0</ele>
        <time>2022-06-04T08:53:44Z</time>
      </trkpt>
      <trkpt lat="48.2598130" lon="7.6040980">
        <ele>-258.8</ele>
        <time>2022-06-04T08:53:48Z</time>
      </trkpt>
      <trkpt lat="48.2600180" lon="7.6042560">
        <ele>-259.2</ele>
        <time>2022-06-04T08:53:52Z</time>
      </trkpt>
      <trkpt lat="48.2602230" lon="7.6044130">
        <ele>-259.0</ele>
        <time>2022-06-04T08:53:56Z</time>
      </trkpt>
      <trkpt lat="48.2604230" lon="7.6045710">
        <ele>-259.2</ele>
        <time>2022-06-04T08:54:00Z</time>
      </trkpt>
      <trkpt lat="48.2606280" lon="7.6047200">
        <ele>-259.2</ele>
        <time>2022-06-04T08:54:04Z</time>
      </trkpt>
      <trkpt lat="48.2608230" lon="7.6048610">
        <ele>-259.2</ele>
        <time>2022-06-04T08:54:08Z</time>
      </trkpt>
      <trkpt lat="48.2609980" lon="7.6050110">
        <ele>-258.8</ele>
        <time>2022-06-04T08:54:12Z</time>
      </trkpt>
      <trkpt lat="48.2611950" lon="7.6051500">
        <ele>-258.8</ele>
        <time>2022-06-04T08:54:16Z</time>
      </trkpt>
      <trkpt lat="48.2613950" lon="7.6053050">
        <ele>-259.8</ele>
        <time>2022-06-04T08:54:20Z</time>
      </trkpt>
      <trkpt lat="48.2616080" lon="7.6054680">
        <ele>-259.4</ele>
        <time>2022-06-04T08:54:24Z</time>
      </trkpt>
      <trkpt lat="48.2618230" lon="7.6056330">
        <ele>-259.0</ele>
        <time>2022-06-04T08:54:28Z</time>
      </trkpt>
      <trkpt lat="48.2620250" lon="7.6057950">
        <ele>-259.2</ele>
        <time>2022-06-04T08:54:32Z</time>
      </trkpt>
      <trkpt lat="48.2622300" lon="7.6059430">
        <ele>-259.8</ele>
        <time>2022-06-04T08:54:36Z</time>
      </trkpt>
      <trkpt lat="48.2624300" lon="7.6060930">
        <ele>-259.4</ele>
        <time>2022-06-04T08:54:40Z</time>
      </trkpt>
      <trkpt lat="48.2626350" lon="7.6062560">
        <ele>-259.4</ele>
        <time>2022-06-04T08:54:44Z</time>
      </trkpt>
      <trkpt lat="48.2628350" lon="7.6064150">
        <ele>-259.0</ele>
        <time>2022-06-04T08:54:48Z</time>
      </trkpt>
      <trkpt lat="48.2630410" lon="7.6065680">
        <ele>-259.2</ele>
        <time>2022-06-04T08:54:52Z</time>
      </trkpt>
      <trkpt lat="48.2632510" lon="7.6067210">
        <ele>-259.4</ele>
        <time>2022-06-04T08:54:56Z</time>
      </trkpt>
      <trkpt lat="48.2634510" lon="7.6068750">
        <ele>-260.0</ele>
        <time>2022-06-04T08:55:00Z</time>
      </trkpt>
      <trkpt lat="48.2636660" lon="7.6070330">
        <ele>-258.8</ele>
        <time>2022-06-04T08:55:04Z</time>
      </trkpt>
      <trkpt lat="48.2638800" lon="7.6071880">
        <ele>-259.4</ele>
        <time>2022-06-04T08:55:08Z</time>
      </trkpt>
      <trkpt lat="48.2640750" lon="7.6073350">
        <ele>-259.4</ele>
        <time>2022-06-04T08:55:12Z</time>
      </trkpt>
      <trkpt lat="48.2642750" lon="7.6074810">
        <ele>-260.0</ele>
        <time>2022-06-04T08:55:16Z</time>
      </trkpt>
      <trkpt lat="48.2644900" lon="7.6076580">
        <ele>-259.8</ele>
        <time>2022-06-04T08:55:20Z</time>
      </trkpt>
      <trkpt lat="48.2647110" lon="7.6078330">
        <ele>-259.8</ele>
        <time>2022-06-04T08:55:24Z</time>
      </trkpt>
      <trkpt lat="48.2649280" lon="7.6080060">
        <ele>-259.8</ele>
        <time>2022-06-04T08:55:28Z</time>
      </trkpt>
      <trkpt lat="48.2651480" lon="7.6081760">
        <ele>-260.0</ele>
        <time>2022-06-04T08:55:32Z</time>
      </trkpt>
      <trkpt lat="48.2653650" lon="7.6083380">
        <ele>-259.4</ele>
        <time>2022-06-04T08:55:36Z</time>
      </trkpt>
      <trkpt lat="48.2655730" lon="7.6084960">
        <ele>-259.4</ele>
        <time>2022-06-04T08:55:40Z</time>
      </trkpt>
      <trkpt lat="48.2657700" lon="7.6086380">
        <ele>-258.8</ele>
        <time>2022-06-04T08:55:44Z</time>
      </trkpt>
      <trkpt lat="48.2659600" lon="7.6087960">
        <ele>-258.8</ele>
        <time>2022-06-04T08:55:48Z</time>
      </trkpt>
      <trkpt lat="48.2661510" lon="7.6089360">
        <ele>-259.6</ele>
        <time>2022-06-04T08:55:52Z</time>
      </trkpt>
      <trkpt lat="48.2663380" lon="7.6090830">
        <ele>-259.2</ele>
        <time>2022-06-04T08:55:56Z</time>
      </trkpt>
      <trkpt lat="48.2665310" lon="7.6092400">
        <ele>-260.0</ele>
        <time>2022-06-04T08:56:00Z</time>
      </trkpt>
      <trkpt lat="48.2667180" lon="7.6094300">
        <ele>-259.2</ele>
        <time>2022-06-04T08:56:04Z</time>
      </trkpt>
      <trkpt lat="48.2669100" lon="7.6095860">
        <ele>-260.4</ele>
        <time>2022-06-04T08:56:08Z</time>
      </trkpt>
      <trkpt lat="48.2671160" lon="7.6097660">
        <ele>-261.8</ele>
        <time>2022-06-04T08:56:12Z</time>
      </trkpt>
      <trkpt lat="48.2673230" lon="7.6098780">
        <ele>-261.2</ele>
        <time>2022-06-04T08:56:16Z</time>
      </trkpt>
      <trkpt lat="48.2675110" lon="7.6100230">
        <ele>-261.4</ele>
        <time>2022-06-04T08:56:20Z</time>
      </trkpt>
      <trkpt lat="48.2677430" lon="7.6101950">
        <ele>-261.6</ele>
        <time>2022-06-04T08:56:24Z</time>
      </trkpt>
      <trkpt lat="48.2679610" lon="7.6103550">
        <ele>-262.2</ele>
        <time>2022-06-04T08:56:28Z</time>
      </trkpt>
      <trkpt lat="48.2681780" lon="7.6105050">
        <ele>-262.2</ele>
        <time>2022-06-04T08:56:32Z</time>
      </trkpt>
      <trkpt lat="48.2683980" lon="7.6106730">
        <ele>-261.4</ele>
        <time>2022-06-04T08:56:36Z</time>
      </trkpt>
      <trkpt lat="48.2685930" lon="7.6108260">
        <ele>-261.6</ele>
        <time>2022-06-04T08:56:40Z</time>
      </trkpt>
      <trkpt lat="48.2688200" lon="7.6110050">
        <ele>-262.2</ele>
        <time>2022-06-04T08:56:44Z</time>
      </trkpt>
      <trkpt lat="48.2690510" lon="7.6111810">
        <ele>-261.8</ele>
        <time>2022-06-04T08:56:48Z</time>
      </trkpt>
      <trkpt lat="48.2692700" lon="7.6113460">
        <ele>-260.8</ele>
        <time>2022-06-04T08:56:52Z</time>
      </trkpt>
      <trkpt lat="48.2695010" lon="7.6115280">
        <ele>-262.0</ele>
        <time>2022-06-04T08:56:56Z</time>
      </trkpt>
      <trkpt lat="48.2697360" lon="7.6117110">
        <ele>-261.0</ele>
        <time>2022-06-04T08:57:00Z</time>
      </trkpt>
      <trkpt lat="48.2699550" lon="7.6118850">
        <ele>-261.6</ele>
        <time>2022-06-04T08:57:04Z</time>
      </trkpt>
      <trkpt lat="48.2701660" lon="7.6120410">
        <ele>-261.2</ele>
        <time>2022-06-04T08:57:08Z</time>
      </trkpt>
      <trkpt lat="48.2703680" lon="7.6121880">
        <ele>-261.0</ele>
        <time>2022-06-04T08:57:12Z</time>
      </trkpt>
      <trkpt lat="48.2705610" lon="7.6123200">
        <ele>-260.8</ele>
        <time>2022-06-04T08:57:16Z</time>
      </trkpt>
      <trkpt lat="48.2707980" lon="7.6125010">
        <ele>-261.4</ele>
        <time>2022-06-04T08:57:20Z</time>
      </trkpt>
      <trkpt lat="48.2710030" lon="7.6126730">
        <ele>-260.8</ele>
        <time>2022-06-04T08:57:24Z</time>
      </trkpt>
      <trkpt lat="48.2712200" lon="7.6128480">
        <ele>-260.8</ele>
        <time>2022-06-04T08:57:28Z</time>
      </trkpt>
      <trkpt lat="48.2714500" lon="7.6130200">
        <ele>-260.8</ele>
        <time>2022-06-04T08:57:32Z</time>
      </trkpt>
      <trkpt lat="48.2717000" lon="7.6132030">
        <ele>-261.0</ele>
        <time>2022-06-04T08:57:36Z</time>
      </trkpt>
      <trkpt lat="48.2719210" lon="7.6133750">
        <ele>-262.0</ele>
        <time>2022-06-04T08:57:40Z</time>
      </trkpt>
      <trkpt lat="48.2721380" lon="7.6135450">
        <ele>-261.2</ele>
        <time>2022-06-04T08:57:44Z</time>
      </trkpt>
      <trkpt lat="48.2723550" lon="7.6137200">
        <ele>-261.8</ele>
        <time>2022-06-04T08:57:48Z</time>
      </trkpt>
      <trkpt lat="48.2725910" lon="7.6138960">
        <ele>-261.6</ele>
        <time>2022-06-04T08:57:52Z</time>
      </trkpt>
      <trkpt lat="48.2728260" lon="7.6140860">
        <ele>-261.6</ele>
        <time>2022-06-04T08:57:56Z</time>
      </trkpt>
      <trkpt lat="48.2730500" lon="7.6142560">
        <ele>-261.8</ele>
        <time>2022-06-04T08:58:00Z</time>
      </trkpt>
      <trkpt lat="48.2732510" lon="7.6144150">
        <ele>-261.6</ele>
        <time>2022-06-04T08:58:04Z</time>
      </trkpt>
      <trkpt lat="48.2734800" lon="7.6145910">
        <ele>-262.0</ele>
        <time>2022-06-04T08:58:08Z</time>
      </trkpt>
      <trkpt lat="48.2737110" lon="7.6147630">
        <ele>-262.2</ele>
        <time>2022-06-04T08:58:12Z</time>
      </trkpt>
      <trkpt lat="48.2739450" lon="7.6149400">
        <ele>-261.8</ele>
        <time>2022-06-04T08:58:16Z</time>
      </trkpt>
      <trkpt lat="48.2741880" lon="7.6151300">
        <ele>-261.6</ele>
        <time>2022-06-04T08:58:20Z</time>
      </trkpt>
      <trkpt lat="48.2744160" lon="7.6153110">
        <ele>-261.8</ele>
        <time>2022-06-04T08:58:24Z</time>
      </trkpt>
      <trkpt lat="48.2746500" lon="7.6154850">
        <ele>-261.2</ele>
        <time>2022-06-04T08:58:28Z</time>
      </trkpt>
      <trkpt lat="48.2748850" lon="7.6156650">
        <ele>-261.4</ele>
        <time>2022-06-04T08:58:32Z</time>
      </trkpt>
      <trkpt lat="48.2751050" lon="7.6158400">
        <ele>-261.4</ele>
        <time>2022-06-04T08:58:36Z</time>
      </trkpt>
      <trkpt lat="48.2753310" lon="7.6160150">
        <ele>-261.2</ele>
        <time>2022-06-04T08:58:40Z</time>
      </trkpt>
      <trkpt lat="48.2755580" lon="7.6161910">
        <ele>-261.6</ele>
        <time>2022-06-04T08:58:44Z</time>
      </trkpt>
      <trkpt lat="48.2757880" lon="7.6163680">
        <ele>-261.0</ele>
        <time>2022-06-04T08:58:48Z</time>
      </trkpt>
      <trkpt lat="48.2760100" lon="7.6165360">
        <ele>-261.4</ele>
        <time>2022-06-04T08:58:52Z</time>
      </trkpt>
      <trkpt lat="48.2762280" lon="7.6167030">
        <ele>-261.2</ele>
        <time>2022-06-04T08:58:56Z</time>
      </trkpt>
      <trkpt lat="48.2764410" lon="7.6168750">
        <ele>-261.0</ele>
        <time>2022-06-04T08:59:00Z</time>
      </trkpt>
      <trkpt lat="48.2766450" lon="7.6170300">
        <ele>-261.4</ele>
        <time>2022-06-04T08:59:04Z</time>
      </trkpt>
      <trkpt lat="48.2768600" lon="7.6171960">
        <ele>-260.8</ele>
        <time>2022-06-04T08:59:08Z</time>
      </trkpt>
      <trkpt lat="48.2770650" lon="7.6173500">
        <ele>-260.8</ele>
        <time>2022-06-04T08:59:12Z</time>
      </trkpt>
      <trkpt lat="48.2772700" lon="7.6175030">
        <ele>-260.8</ele>
        <time>2022-06-04T08:59:16Z</time>
      </trkpt>
      <trkpt lat="48.2774600" lon="7.6176510">
        <ele>-261.0</ele>
        <time>2022-06-04T08:59:20Z</time>
      </trkpt>
      <trkpt lat="48.2776530" lon="7.6178030">
        <ele>-261.2</ele>
        <time>2022-06-04T08:59:24Z</time>
      </trkpt>
      <trkpt lat="48.2778410" lon="7.6179460">
        <ele>-261.0</ele>
        <time>2022-06-04T08:59:28Z</time>
      </trkpt>
      <trkpt lat="48.2780300" lon="7.6180900">
        <ele>-261.2</ele>
        <time>2022-06-04T08:59:32Z</time>
      </trkpt>
      <trkpt lat="48.2782150" lon="7.6182230">
        <ele>-261.6</ele>
        <time>2022-06-04T08:59:36Z</time>
      </trkpt>
      <trkpt lat="48.2784060" lon="7.6183630">
        <ele>-261.4</ele>
        <time>2022-06-04T08:59:40Z</time>
      </trkpt>
      <trkpt lat="48.2785860" lon="7.6185100">
        <ele>-261.0</ele>
        <time>2022-06-04T08:59:44Z</time>
      </trkpt>
      <trkpt lat="48.2787560" lon="7.6186460">
        <ele>-261.6</ele>
        <time>2022-06-04T08:59:48Z</time>
      </trkpt>
      <trkpt lat="48.2789310" lon="7.6187780">
        <ele>-261.4</ele>
        <time>2022-06-04T08:59:52Z</time>
      </trkpt>
      <trkpt lat="48.2790960" lon="7.6189060">
        <ele>-261.6</ele>
        <time>2022-06-04T08:59:56Z</time>
      </trkpt>
      <trkpt lat="48.2792480" lon="7.6190280">
        <ele>-261.0</ele>
        <time>2022-06-04T09:00:00Z</time>
      </trkpt>
      <trkpt lat="48.2794000" lon="7.6191410">
        <ele>-260.6</ele>
        <time>2022-06-04T09:00:04Z</time>
      </trkpt>
      <trkpt lat="48.2795450" lon="7.6192530">
        <ele>-261.4</ele>
        <time>2022-06-04T09:00:08Z</time>
      </trkpt>
      <trkpt lat="48.2797100" lon="7.6193810">
        <ele>-261.2</ele>
        <time>2022-06-04T09:00:12Z</time>
      </trkpt>
      <trkpt lat="48.2798660" lon="7.6195000">
        <ele>-261.2</ele>
        <time>2022-06-04T09:00:16Z</time>
      </trkpt>
      <trkpt lat="48.2800110" lon="7.6196100">
        <ele>-261.4</ele>
        <time>2022-06-04T09:00:20Z</time>
      </trkpt>
      <trkpt lat="48.2801250" lon="7.6196900">
        <ele>-261.6</ele>
        <time>2022-06-04T09:00:24Z</time>
      </trkpt>
      <trkpt lat="48.2802450" lon="7.6197800">
        <ele>-261.4</ele>
        <time>2022-06-04T09:00:28Z</time>
      </trkpt>
      <trkpt lat="48.2803710" lon="7.6199060">
        <ele>-260.8</ele>
        <time>2022-06-04T09:00:32Z</time>
      </trkpt>
      <trkpt lat="48.2805030" lon="7.6199960">
        <ele>-261.2</ele>
        <time>2022-06-04T09:00:36Z</time>
      </trkpt>
      <trkpt lat="48.2806380" lon="7.6201530">
        <ele>-261.2</ele>
        <time>2022-06-04T09:00:40Z</time>
      </trkpt>
      <trkpt lat="48.2807760" lon="7.6202230">
        <ele>-260.4</ele>
        <time>2022-06-04T09:00:44Z</time>
      </trkpt>
      <trkpt lat="48.2808660" lon="7.6202830">
        <ele>-260.0</ele>
        <time>2022-06-04T09:00:48Z</time>
      </trkpt>
      <trkpt lat="48.2809550" lon="7.6203260">
        <ele>-259.0</ele>
        <time>2022-06-04T09:00:52Z</time>
      </trkpt>
      <trkpt lat="48.2810080" lon="7.6203210">
        <ele>-259.4</ele>
        <time>2022-06-04T09:00:56Z</time>
      </trkpt>
      <trkpt lat="48.2810810" lon="7.6202680">
        <ele>-260.0</ele>
        <time>2022-06-04T09:01:00Z</time>
      </trkpt>
      <trkpt lat="48.2811380" lon="7.6201210">
        <ele>-260.0</ele>
        <time>2022-06-04T09:01:04Z</time>
      </trkpt>
      <trkpt lat="48.2811860" lon="7.6199060">
        <ele>-260.6</ele>
        <time>2022-06-04T09:01:08Z</time>
      </trkpt>
      <trkpt lat="48.2812030" lon="7.6196330">
        <ele>-261.4</ele>
        <time>2022-06-04T09:01:12Z</time>
      </trkpt>
      <trkpt lat="48.2811860" lon="7.6193310">
        <ele>-262.2</ele>
        <time>2022-06-04T09:01:16Z</time>
      </trkpt>
      <trkpt lat="48.2811510" lon="7.6190060">
        <ele>-262.8</ele>
        <time>2022-06-04T09:01:20Z</time>
      </trkpt>
      <trkpt lat="48.2811150" lon="7.6186650">
        <ele>-263.4</ele>
        <time>2022-06-04T09:01:24Z</time>
      </trkpt>
      <trkpt lat="48.2810680" lon="7.6183160">
        <ele>-263.4</ele>
        <time>2022-06-04T09:01:28Z</time>
      </trkpt>
      <trkpt lat="48.2810710" lon="7.6179800">
        <ele>-263.6</ele>
        <time>2022-06-04T09:01:32Z</time>
      </trkpt>
      <trkpt lat="48.2811060" lon="7.6176750">
        <ele>-263.6</ele>
        <time>2022-06-04T09:01:36Z</time>
      </trkpt>
      <trkpt lat="48.2811530" lon="7.6173850">
        <ele>-263.6</ele>
        <time>2022-06-04T09:01:40Z</time>
      </trkpt>
      <trkpt lat="48.2812080" lon="7.6170980">
        <ele>-264.0</ele>
        <time>2022-06-04T09:01:44Z</time>
      </trkpt>
      <trkpt lat="48.2812650" lon="7.6168160">
        <ele>-263.8</ele>
        <time>2022-06-04T09:01:48Z</time>
      </trkpt>
      <trkpt lat="48.2813250" lon="7.6165400">
        <ele>-264.2</ele>
        <time>2022-06-04T09:01:52Z</time>
      </trkpt>
      <trkpt lat="48.2813900" lon="7.6162660">
        <ele>-264.4</ele>
        <time>2022-06-04T09:01:56Z</time>
      </trkpt>
      <trkpt lat="48.2814530" lon="7.6160000">
        <ele>-264.2</ele>
        <time>2022-06-04T09:02:00Z</time>
      </trkpt>
      <trkpt lat="48.2815160" lon="7.6157800">
        <ele>-264.0</ele>
        <time>2022-06-04T09:02:04Z</time>
      </trkpt>
      <trkpt lat="48.2815580" lon="7.6155560">
        <ele>-264.4</ele>
        <time>2022-06-04T09:02:08Z</time>
      </trkpt>
      <trkpt lat="48.2816310" lon="7.6153260">
        <ele>-264.2</ele>
        <time>2022-06-04T09:02:12Z</time>
      </trkpt>
      <trkpt lat="48.2816950" lon="7.6150930">
        <ele>-263.8</ele>
        <time>2022-06-04T09:02:16Z</time>
      </trkpt>
      <trkpt lat="48.2817600" lon="7.6148630">
        <ele>-263.8</ele>
        <time>2022-06-04T09:02:20Z</time>
      </trkpt>
      <trkpt lat="48.2818250" lon="7.6146280">
        <ele>-263.4</ele>
        <time>2022-06-04T09:02:24Z</time>
      </trkpt>
      <trkpt lat="48.2818860" lon="7.6143880">
        <ele>-264.4</ele>
        <time>2022-06-04T09:02:28Z</time>
      </trkpt>
      <trkpt lat="48.2819450" lon="7.6141380">
        <ele>-264.4</ele>
        <time>2022-06-04T09:02:32Z</time>
      </trkpt>
      <trkpt lat="48.2820030" lon="7.6138950">
        <ele>-264.0</ele>
        <time>2022-06-04T09:02:36Z</time>
      </trkpt>
      <trkpt lat="48.2820610" lon="7.6136530">
        <ele>-264.2</ele>
        <time>2022-06-04T09:02:40Z</time>
      </trkpt>
      <trkpt lat="48.2821230" lon="7.6134050">
        <ele>-264.4</ele>
        <time>2022-06-04T09:02:44Z</time>
      </trkpt>
      <trkpt lat="48.2821680" lon="7.6131550">
        <ele>-264.2</ele>
        <time>2022-06-04T09:02:48Z</time>
      </trkpt>
      <trkpt lat="48.2822180" lon="7.6129250">
        <ele>-264.4</ele>
        <time>2022-06-04T09:02:52Z</time>
      </trkpt>
      <trkpt lat="48.2822550" lon="7.6127210">
        <ele>-264.4</ele>
        <time>2022-06-04T09:02:56Z</time>
      </trkpt>
      <trkpt lat="48.2822930" lon="7.6125100">
        <ele>-264.4</ele>
        <time>2022-06-04T09:03:00Z</time>
      </trkpt>
      <trkpt lat="48.2823430" lon="7.6122880">
        <ele>-264.2</ele>
        <time>2022-06-04T09:03:04Z</time>
      </trkpt>
      <trkpt lat="48.2823830" lon="7.6120510">
        <ele>-264.6</ele>
        <time>2022-06-04T09:03:08Z</time>
      </trkpt>
      <trkpt lat="48.2824310" lon="7.6118210">
        <ele>-264.2</ele>
        <time>2022-06-04T09:03:12Z</time>
      </trkpt>
      <trkpt lat="48.2824760" lon="7.6115960">
        <ele>-264.2</ele>
        <time>2022-06-04T09:03:16Z</time>
      </trkpt>
      <trkpt lat="48.2825510" lon="7.6114310">
        <ele>-264.0</ele>
        <time>2022-06-04T09:03:20Z</time>
      </trkpt>
      <trkpt lat="48.2826760" lon="7.6114200">
        <ele>-264.4</ele>
        <time>2022-06-04T09:03:24Z</time>
      </trkpt>
      <trkpt lat="48.2828060" lon="7.6114300">
        <ele>-264.4</ele>
        <time>2022-06-04T09:03:28Z</time>
      </trkpt>
      <trkpt lat="48.2829260" lon="7.6114410">
        <ele>-264.8</ele>
        <time>2022-06-04T09:03:32Z</time>
      </trkpt>
      <trkpt lat="48.2830380" lon="7.6113700">
        <ele>-264.8</ele>
        <time>2022-06-04T09:03:36Z</time>
      </trkpt>
      <trkpt lat="48.2831330" lon="7.6112500">
        <ele>-264.6</ele>
        <time>2022-06-04T09:03:40Z</time>
      </trkpt>
      <trkpt lat="48.2832360" lon="7.6111060">
        <ele>-264.6</ele>
        <time>2022-06-04T09:03:44Z</time>
      </trkpt>
      <trkpt lat="48.2833430" lon="7.6109460">
        <ele>-265.0</ele>
        <time>2022-06-04T09:03:48Z</time>
      </trkpt>
      <trkpt lat="48.2834450" lon="7.6107850">
        <ele>-264.4</ele>
        <time>2022-06-04T09:03:52Z</time>
      </trkpt>
      <trkpt lat="48.2835310" lon="7.6106450">
        <ele>-264.8</ele>
        <time>2022-06-04T09:03:56Z</time>
      </trkpt>
      <trkpt lat="48.2835230" lon="7.6105710">
        <ele>-264.6</ele>
        <time>2022-06-04T09:04:00Z</time>
      </trkpt>
      <trkpt lat="48.2835230" lon="7.6105710">
        <ele>-264.8</ele>
        <time>2022-06-04T09:04:04Z</time>
      </trkpt>
      <trkpt lat="48.2835230" lon="7.6105710">
        <ele>-264.8</ele>
        <time>2022-06-04T09:04:08Z</time>
      </trkpt>
      <trkpt lat="48.2834960" lon="7.6106180">
        <ele>-264.4</ele>
        <time>2022-06-04T09:04:12Z</time>
      </trkpt>
      <trkpt lat="48.2835330" lon="7.6106210">
        <ele>-264.2</ele>
        <time>2022-06-04T09:04:16Z</time>
      </trkpt>
      <trkpt lat="48.2835830" lon="7.6105460">
        <ele>-264.4</ele>
        <time>2022-06-04T09:04:20Z</time>
      </trkpt>
      <trkpt lat="48.2836500" lon="7.6104360">
        <ele>-264.4</ele>
        <time>2022-06-04T09:04:24Z</time>
      </trkpt>
      <trkpt lat="48.2837180" lon="7.6102800">
        <ele>-264.6</ele>
        <time>2022-06-04T09:04:28Z</time>
      </trkpt>
      <trkpt lat="48.2837960" lon="7.6101060">
        <ele>-264.2</ele>
        <time>2022-06-04T09:04:32Z</time>
      </trkpt>
      <trkpt lat="48.2838800" lon="7.6099150">
        <ele>-264.8</ele>
        <time>2022-06-04T09:04:36Z</time>
      </trkpt>
      <trkpt lat="48.2839600" lon="7.6097100">
        <ele>-264.8</ele>
        <time>2022-06-04T09:04:40Z</time>
      </trkpt>
      <trkpt lat="48.2840380" lon="7.6095050">
        <ele>-264.2</ele>
        <time>2022-06-04T09:04:44Z</time>
      </trkpt>
      <trkpt lat="48.2840830" lon="7.6093230">
        <ele>-264.4</ele>
        <time>2022-06-04T09:04:48Z</time>
      </trkpt>
      <trkpt lat="48.2841210" lon="7.6091760">
        <ele>-264.8</ele>
        <time>2022-06-04T09:04:52Z</time>
      </trkpt>
      <trkpt lat="48.2841360" lon="7.6090730">
        <ele>-264.6</ele>
        <time>2022-06-04T09:04:56Z</time>
      </trkpt>
      <trkpt lat="48.2841360" lon="7.6090730">
        <ele>-264.4</ele>
        <time>2022-06-04T09:05:00Z</time>
      </trkpt>
      <trkpt lat="48.2841380" lon="7.6090500">
        <ele>-264.4</ele>
        <time>2022-06-04T09:05:04Z</time>
      </trkpt>
      <trkpt lat="48.2841450" lon="7.6090050">
        <ele>-264.2</ele>
        <time>2022-06-04T09:05:08Z</time>
      </trkpt>
      <trkpt lat="48.2841450" lon="7.6090050">
        <ele>-264.0</ele>
        <time>2022-06-04T09:05:12Z</time>
      </trkpt>
      <trkpt lat="48.2841450" lon="7.6090050">
        <ele>-264.4</ele>
        <time>2022-06-04T09:05:16Z</time>
      </trkpt>
      <trkpt lat="48.2841450" lon="7.6090050">
        <ele>-264.4</ele>
        <time>2022-06-04T09:05:20Z</time>
      </trkpt>
      <trkpt lat="48.2841450" lon="7.6090050">
        <ele>-264.2</ele>
        <time>2022-06-04T09:05:24Z</time>
      </trkpt>
      <trkpt lat="48.2841450" lon="7.6090050">
        <ele>-264.4</ele>
        <time>2022-06-04T09:05:28Z</time>
      </trkpt>
      <trkpt lat="48.2841450" lon="7.6090050">
        <ele>-264.4</ele>
        <time>2022-06-04T09:05:32Z</time>
      </trkpt>
      <trkpt lat="48.2841450" lon="7.6090050">
        <ele>-264.6</ele>
        <time>2022-06-04T09:05:36Z</time>
      </trkpt>
      <trkpt lat="48.2841450" lon="7.6090050">
        <ele>-264.6</ele>
        <time>2022-06-04T09:05:40Z</time>
      </trkpt>
      <trkpt lat="48.2841450" lon="7.6090050">
        <ele>-264.4</ele>
        <time>2022-06-04T09:05:44Z</time>
      </trkpt>
      <trkpt lat="48.2841450" lon="7.6090050">
        <ele>-264.2</ele>
        <time>2022-06-04T09:05:48Z</time>
      </trkpt>
      <trkpt lat="48.2841450" lon="7.6090050">
        <ele>-264.6</ele>
        <time>2022-06-04T09:05:52Z</time>
      </trkpt>
      <trkpt lat="48.2841450" lon="7.6090050">
        <ele>-264.4</ele>
        <time>2022-06-04T09:05:56Z</time>
      </trkpt>
      <trkpt lat="48.2841450" lon="7.6090050">
        <ele>-264.4</ele>
        <time>2022-06-04T09:06:00Z</time>
      </trkpt>
      <trkpt lat="48.2841450" lon="7.6090050">
        <ele>-264.0</ele>
        <time>2022-06-04T09:06:04Z</time>
      </trkpt>
      <trkpt lat="48.2841450" lon="7.6090050">
        <ele>-264.4</ele>
        <time>2022-06-04T09:06:08Z</time>
      </trkpt>
      <trkpt lat="48.2841450" lon="7.6090050">
        <ele>-264.4</ele>
        <time>2022-06-04T09:06:12Z</time>
      </trkpt>
      <trkpt lat="48.2841450" lon="7.6090050">
        <ele>-263.8</ele>
        <time>2022-06-04T09:06:16Z</time>
      </trkpt>
      <trkpt lat="48.2841450" lon="7.6090050">
        <ele>-264.4</ele>
        <time>2022-06-04T09:06:20Z</time>
      </trkpt>
      <trkpt lat="48.2841450" lon="7.6090050">
        <ele>-264.4</ele>
        <time>2022-06-04T09:06:24Z</time>
      </trkpt>
      <trkpt lat="48.2841450" lon="7.6090050">
        <ele>-264.2</ele>
        <time>2022-06-04T09:06:28Z</time>
      </trkpt>
      <trkpt lat="48.2841450" lon="7.6090050">
        <ele>-264.2</ele>
        <time>2022-06-04T09:06:32Z</time>
      </trkpt>
      <trkpt lat="48.2841450" lon="7.6090050">
        <ele>-264.4</ele>
        <time>2022-06-04T09:06:36Z</time>
      </trkpt>
      <trkpt lat="48.2841450" lon="7.6090050">
        <ele>-264.6</ele>
        <time>2022-06-04T09:06:40Z</time>
      </trkpt>
      <trkpt lat="48.2841450" lon="7.6090050">
        <ele>-264.4</ele>
        <time>2022-06-04T09:06:44Z</time>
      </trkpt>
      <trkpt lat="48.2841450" lon="7.6090050">
        <ele>-264.2</ele>
        <time>2022-06-04T09:06:48Z</time>
      </trkpt>
      <trkpt lat="48.2841450" lon="7.6090050">
        <ele>-264.0</ele>
        <time>2022-06-04T09:06:52Z</time>
      </trkpt>
      <trkpt lat="48.2841450" lon="7.6090050">
        <ele>-264.2</ele>
        <time>2022-06-04T09:06:56Z</time>
      </trkpt>
      <trkpt lat="48.2841450" lon="7.6090050">
        <ele>-264.2</ele>
        <time>2022-06-04T09:07:00Z</time>
      </trkpt>
      <trkpt lat="48.2841450" lon="7.6090050">
        <ele>-264.4</ele>
        <time>2022-06-04T09:07:04Z</time>
      </trkpt>
      <trkpt lat="48.2841450" lon="7.6090050">
        <ele>-263.8</ele>
        <time>2022-06-04T09:07:08Z</time>
      </trkpt>
      <trkpt lat="48.2841450" lon="7.6090050">
        <ele>-264.4</ele>
        <time>2022-06-04T09:07:12Z</time>
      </trkpt>
      <trkpt lat="48.2841450" lon="7.6090050">
        <ele>-264.0</ele>
        <time>2022-06-04T09:07:16Z</time>
      </trkpt>
      <trkpt lat="48.2841450" lon="7.6090050">
        <ele>-264.4</ele>
        <time>2022-06-04T09:07:20Z</time>
      </trkpt>
      <trkpt lat="48.2841450" lon="7.6090050">
        <ele>-264.2</ele>
        <time>2022-06-04T09:07:24Z</time>
      </trkpt>
      <trkpt lat="48.2841450" lon="7.6090050">
        <ele>-264.2</ele>
        <time>2022-06-04T09:07:28Z</time>
      </trkpt>
      <trkpt lat="48.2841450" lon="7.6090050">
        <ele>-263.8</ele>
        <time>2022-06-04T09:07:32Z</time>
      </trkpt>
      <trkpt lat="48.2841450" lon="7.6090050">
        <ele>-264.0</ele>
        <time>2022-06-04T09:07:36Z</time>
      </trkpt>
      <trkpt lat="48.2841450" lon="7.6090050">
        <ele>-264.0</ele>
        <time>2022-06-04T09:07:40Z</time>
      </trkpt>
      <trkpt lat="48.2841450" lon="7.6090050">
        <ele>-264.2</ele>
        <time>2022-06-04T09:07:44Z</time>
      </trkpt>
      <trkpt lat="48.2841450" lon="7.6090050">
        <ele>-264.0</ele>
        <time>2022-06-04T09:07:48Z</time>
      </trkpt>
      <trkpt lat="48.2841450" lon="7.6090050">
        <ele>-264.4</ele>
        <time>2022-06-04T09:07:52Z</time>
      </trkpt>
      <trkpt lat="48.2841450" lon="7.6090050">
        <ele>-264.0</ele>
        <time>2022-06-04T09:07:56Z</time>
      </trkpt>
      <trkpt lat="48.2841450" lon="7.6090050">
        <ele>-264.4</ele>
        <time>2022-06-04T09:08:00Z</time>
      </trkpt>
      <trkpt lat="48.2841450" lon="7.6090050">
        <ele>-264.4</ele>
        <time>2022-06-04T09:08:04Z</time>
      </trkpt>
      <trkpt lat="48.2841450" lon="7.6090050">
        <ele>-264.0</ele>
        <time>2022-06-04T09:08:08Z</time>
      </trkpt>
      <trkpt lat="48.2841450" lon="7.6090050">
        <ele>-263.8</ele>
        <time>2022-06-04T09:08:12Z</time>
      </trkpt>
      <trkpt lat="48.2841450" lon="7.6090050">
        <ele>-264.4</ele>
        <time>2022-06-04T09:08:16Z</time>
      </trkpt>
      <trkpt lat="48.2841450" lon="7.6090050">
        <ele>-264.4</ele>
        <time>2022-06-04T09:08:20Z</time>
      </trkpt>
      <trkpt lat="48.2841450" lon="7.6090050">
        <ele>-264.2</ele>
        <time>2022-06-04T09:08:24Z</time>
      </trkpt>
      <trkpt lat="48.2841450" lon="7.6090050">
        <ele>-264.4</ele>
        <time>2022-06-04T09:08:28Z</time>
      </trkpt>
      <trkpt lat="48.2841450" lon="7.6090050">
        <ele>-264.2</ele>
        <time>2022-06-04T09:08:32Z</time>
      </trkpt>
      <trkpt lat="48.2841450" lon="7.6090050">
        <ele>-264.2</ele>
        <time>2022-06-04T09:08:36Z</time>
      </trkpt>
      <trkpt lat="48.2841450" lon="7.6090050">
        <ele>-264.2</ele>
        <time>2022-06-04T09:08:40Z</time>
      </trkpt>
      <trkpt lat="48.2841450" lon="7.6090050">
        <ele>-264.4</ele>
        <time>2022-06-04T09:08:44Z</time>
      </trkpt>
      <trkpt lat="48.2841450" lon="7.6090050">
        <ele>-264.6</ele>
        <time>2022-06-04T09:08:48Z</time>
      </trkpt>
      <trkpt lat="48.2841450" lon="7.6090050">
        <ele>-264.4</ele>
        <time>2022-06-04T09:08:52Z</time>
      </trkpt>
      <trkpt lat="48.2841450" lon="7.6090050">
        <ele>-264.0</ele>
        <time>2022-06-04T09:08:56Z</time>
      </trkpt>
      <trkpt lat="48.2841450" lon="7.6090050">
        <ele>-264.6</ele>
        <time>2022-06-04T09:09:00Z</time>
      </trkpt>
      <trkpt lat="48.2841450" lon="7.6090050">
        <ele>-264.4</ele>
        <time>2022-06-04T09:09:04Z</time>
      </trkpt>
      <trkpt lat="48.2841450" lon="7.6090050">
        <ele>-264.2</ele>
        <time>2022-06-04T09:09:08Z</time>
      </trkpt>
      <trkpt lat="48.2841450" lon="7.6090050">
        <ele>-264.2</ele>
        <time>2022-06-04T09:09:12Z</time>
      </trkpt>
      <trkpt lat="48.2841450" lon="7.6090050">
        <ele>-264.6</ele>
        <time>2022-06-04T09:09:16Z</time>
      </trkpt>
      <trkpt lat="48.2841450" lon="7.6090050">
        <ele>-264.4</ele>
        <time>2022-06-04T09:09:20Z</time>
      </trkpt>
      <trkpt lat="48.2841450" lon="7.6090050">
        <ele>-264.4</ele>
        <time>2022-06-04T09:09:24Z</time>
      </trkpt>
      <trkpt lat="48.2841450" lon="7.6090050">
        <ele>-264.4</ele>
        <time>2022-06-04T09:09:28Z</time>
      </trkpt>
      <trkpt lat="48.2841450" lon="7.6090050">
        <ele>-264.6</ele>
        <time>2022-06-04T09:09:32Z</time>
      </trkpt>
      <trkpt lat="48.2841450" lon="7.6090050">
        <ele>-264.2</ele>
        <time>2022-06-04T09:09:36Z</time>
      </trkpt>
      <trkpt lat="48.2841450" lon="7.6090050">
        <ele>-264.4</ele>
        <time>2022-06-04T09:09:40Z</time>
      </trkpt>
      <trkpt lat="48.2841450" lon="7.6090050">
        <ele>-264.2</ele>
        <time>2022-06-04T09:09:44Z</time>
      </trkpt>
      <trkpt lat="48.2841450" lon="7.6090050">
        <ele>-264.2</ele>
        <time>2022-06-04T09:09:48Z</time>
      </trkpt>
      <trkpt lat="48.2841450" lon="7.6090050">
        <ele>-264.2</ele>
        <time>2022-06-04T09:09:52Z</time>
      </trkpt>
      <trkpt lat="48.2841450" lon="7.6090050">
        <ele>-264.2</ele>
        <time>2022-06-04T09:09:56Z</time>
      </trkpt>
      <trkpt lat="48.2841450" lon="7.6090050">
        <ele>-264.0</ele>
        <time>2022-06-04T09:10:00Z</time>
      </trkpt>
      <trkpt lat="48.2841450" lon="7.6090050">
        <ele>-264.0</ele>
        <time>2022-06-04T09:10:04Z</time>
      </trkpt>
      <trkpt lat="48.2841450" lon="7.6090050">
        <ele>-264.4</ele>
        <time>2022-06-04T09:10:08Z</time>
      </trkpt>
      <trkpt lat="48.2841450" lon="7.6090050">
        <ele>-264.2</ele>
        <time>2022-06-04T09:10:12Z</time>
      </trkpt>
      <trkpt lat="48.2841450" lon="7.6090050">
        <ele>-264.2</ele>
        <time>2022-06-04T09:10:16Z</time>
      </trkpt>
      <trkpt lat="48.2841450" lon="7.6090050">
        <ele>-264.2</ele>
        <time>2022-06-04T09:10:20Z</time>
      </trkpt>
      <trkpt lat="48.2841450" lon="7.6090050">
        <ele>-264.2</ele>
        <time>2022-06-04T09:10:24Z</time>
      </trkpt>
      <trkpt lat="48.2841450" lon="7.6090050">
        <ele>-264.2</ele>
        <time>2022-06-04T09:10:28Z</time>
      </trkpt>
      <trkpt lat="48.2841450" lon="7.6090050">
        <ele>-264.4</ele>
        <time>2022-06-04T09:10:32Z</time>
      </trkpt>
      <trkpt lat="48.2841450" lon="7.6090050">
        <ele>-264.4</ele>
        <time>2022-06-04T09:10:36Z</time>
      </trkpt>
      <trkpt lat="48.2841450" lon="7.6090050">
        <ele>-264.6</ele>
        <time>2022-06-04T09:10:40Z</time>
      </trkpt>
      <trkpt lat="48.2841450" lon="7.6090050">
        <ele>-264.2</ele>
        <time>2022-06-04T09:10:44Z</time>
      </trkpt>
      <trkpt lat="48.2841450" lon="7.6090050">
        <ele>-264.2</ele>
        <time>2022-06-04T09:10:48Z</time>
      </trkpt>
      <trkpt lat="48.2841450" lon="7.6090050">
        <ele>-264.4</ele>
        <time>2022-06-04T09:10:52Z</time>
      </trkpt>
      <trkpt lat="48.2841450" lon="7.6090050">
        <ele>-264.4</ele>
        <time>2022-06-04T09:10:56Z</time>
      </trkpt>
      <trkpt lat="48.2841450" lon="7.6090050">
        <ele>-264.2</ele>
        <time>2022-06-04T09:11:00Z</time>
      </trkpt>
      <trkpt lat="48.2841450" lon="7.6090050">
        <ele>-264.2</ele>
        <time>2022-06-04T09:11:04Z</time>
      </trkpt>
      <trkpt lat="48.2841450" lon="7.6090050">
        <ele>-264.2</ele>
        <time>2022-06-04T09:11:08Z</time>
      </trkpt>
      <trkpt lat="48.2841450" lon="7.6090050">
        <ele>-264.2</ele>
        <time>2022-06-04T09:11:12Z</time>
      </trkpt>
      <trkpt lat="48.2841450" lon="7.6090050">
        <ele>-264.0</ele>
        <time>2022-06-04T09:11:16Z</time>
      </trkpt>
      <trkpt lat="48.2841450" lon="7.6090050">
        <ele>-264.2</ele>
        <time>2022-06-04T09:11:20Z</time>
      </trkpt>
      <trkpt lat="48.2841450" lon="7.6090050">
        <ele>-264.2</ele>
        <time>2022-06-04T09:11:24Z</time>
      </trkpt>
      <trkpt lat="48.2841450" lon="7.6090050">
        <ele>-264.0</ele>
        <time>2022-06-04T09:11:28Z</time>
      </trkpt>
      <trkpt lat="48.2841450" lon="7.6090050">
        <ele>-264.0</ele>
        <time>2022-06-04T09:11:32Z</time>
      </trkpt>
      <trkpt lat="48.2841450" lon="7.6090050">
        <ele>-264.4</ele>
        <time>2022-06-04T09:11:36Z</time>
      </trkpt>
      <trkpt lat="48.2841450" lon="7.6090050">
        <ele>-264.0</ele>
        <time>2022-06-04T09:11:40Z</time>
      </trkpt>
      <trkpt lat="48.2841450" lon="7.6090050">
        <ele>-264.0</ele>
        <time>2022-06-04T09:11:44Z</time>
      </trkpt>
      <trkpt lat="48.2841450" lon="7.6090050">
        <ele>-263.8</ele>
        <time>2022-06-04T09:11:48Z</time>
      </trkpt>
      <trkpt lat="48.2841450" lon="7.6090050">
        <ele>-263.8</ele>
        <time>2022-06-04T09:11:52Z</time>
      </trkpt>
      <trkpt lat="48.2841450" lon="7.6090050">
        <ele>-264.6</ele>
        <time>2022-06-04T09:11:56Z</time>
      </trkpt>
      <trkpt lat="48.2841450" lon="7.6090050">
        <ele>-264.4</ele>
        <time>2022-06-04T09:12:00Z</time>
      </trkpt>
      <trkpt lat="48.2841450" lon="7.6090050">
        <ele>-264.4</ele>
        <time>2022-06-04T09:12:04Z</time>
      </trkpt>
      <trkpt lat="48.2841450" lon="7.6090050">
        <ele>-264.0</ele>
        <time>2022-06-04T09:12:08Z</time>
      </trkpt>
      <trkpt lat="48.2841450" lon="7.6090050">
        <ele>-263.6</ele>
        <time>2022-06-04T09:12:12Z</time>
      </trkpt>
      <trkpt lat="48.2841450" lon="7.6090050">
        <ele>-263.6</ele>
        <time>2022-06-04T09:12:16Z</time>
      </trkpt>
      <trkpt lat="48.2841450" lon="7.6090050">
        <ele>-263.6</ele>
        <time>2022-06-04T09:12:20Z</time>
      </trkpt>
      <trkpt lat="48.2841450" lon="7.6090050">
        <ele>-264.0</ele>
        <time>2022-06-04T09:12:24Z</time>
      </trkpt>
      <trkpt lat="48.2841450" lon="7.6090050">
        <ele>-263.8</ele>
        <time>2022-06-04T09:12:28Z</time>
      </trkpt>
      <trkpt lat="48.2841450" lon="7.6090050">
        <ele>-263.8</ele>
        <time>2022-06-04T09:12:32Z</time>
      </trkpt>
      <trkpt lat="48.2841450" lon="7.6090050">
        <ele>-263.8</ele>
        <time>2022-06-04T09:12:36Z</time>
      </trkpt>
      <trkpt lat="48.2841450" lon="7.6090050">
        <ele>-263.8</ele>
        <time>2022-06-04T09:12:40Z</time>
      </trkpt>
      <trkpt lat="48.2841450" lon="7.6090050">
        <ele>-264.0</ele>
        <time>2022-06-04T09:12:44Z</time>
      </trkpt>
      <trkpt lat="48.2841450" lon="7.6090050">
        <ele>-263.8</ele>
        <time>2022-06-04T09:12:48Z</time>
      </trkpt>
      <trkpt lat="48.2841450" lon="7.6090050">
        <ele>-263.8</ele>
        <time>2022-06-04T09:12:52Z</time>
      </trkpt>
      <trkpt lat="48.2841450" lon="7.6090050">
        <ele>-263.4</ele>
        <time>2022-06-04T09:12:56Z</time>
      </trkpt>
      <trkpt lat="48.2841450" lon="7.6090050">
        <ele>-263.8</ele>
        <time>2022-06-04T09:13:00Z</time>
      </trkpt>
      <trkpt lat="48.2841450" lon="7.6090050">
        <ele>-263.6</ele>
        <time>2022-06-04T09:13:04Z</time>
      </trkpt>
      <trkpt lat="48.2841450" lon="7.6090050">
        <ele>-263.8</ele>
        <time>2022-06-04T09:13:08Z</time>
      </trkpt>
      <trkpt lat="48.2841450" lon="7.6090050">
        <ele>-264.0</ele>
        <time>2022-06-04T09:13:12Z</time>
      </trkpt>
      <trkpt lat="48.2841450" lon="7.6090050">
        <ele>-263.6</ele>
        <time>2022-06-04T09:13:16Z</time>
      </trkpt>
      <trkpt lat="48.2841450" lon="7.6090050">
        <ele>-263.8</ele>
        <time>2022-06-04T09:13:20Z</time>
      </trkpt>
      <trkpt lat="48.2841450" lon="7.6090050">
        <ele>-264.0</ele>
        <time>2022-06-04T09:13:24Z</time>
      </trkpt>
      <trkpt lat="48.2841450" lon="7.6090050">
        <ele>-263.8</ele>
        <time>2022-06-04T09:13:28Z</time>
      </trkpt>
      <trkpt lat="48.2841450" lon="7.6090050">
        <ele>-263.8</ele>
        <time>2022-06-04T09:13:32Z</time>
      </trkpt>
      <trkpt lat="48.2841450" lon="7.6090050">
        <ele>-264.0</ele>
        <time>2022-06-04T09:13:36Z</time>
      </trkpt>
      <trkpt lat="48.2841450" lon="7.6090050">
        <ele>-264.2</ele>
        <time>2022-06-04T09:13:40Z</time>
      </trkpt>
      <trkpt lat="48.2841450" lon="7.6090050">
        <ele>-264.2</ele>
        <time>2022-06-04T09:13:44Z</time>
      </trkpt>
      <trkpt lat="48.2841450" lon="7.6090050">
        <ele>-264.0</ele>
        <time>2022-06-04T09:13:48Z</time>
      </trkpt>
      <trkpt lat="48.2841450" lon="7.6090050">
        <ele>-264.0</ele>
        <time>2022-06-04T09:13:52Z</time>
      </trkpt>
      <trkpt lat="48.2841450" lon="7.6090050">
        <ele>-264.2</ele>
        <time>2022-06-04T09:13:56Z</time>
      </trkpt>
      <trkpt lat="48.2841450" lon="7.6090050">
        <ele>-264.4</ele>
        <time>2022-06-04T09:14:00Z</time>
      </trkpt>
      <trkpt lat="48.2841450" lon="7.6090050">
        <ele>-263.8</ele>
        <time>2022-06-04T09:14:04Z</time>
      </trkpt>
      <trkpt lat="48.2841450" lon="7.6090050">
        <ele>-264.0</ele>
        <time>2022-06-04T09:14:08Z</time>
      </trkpt>
      <trkpt lat="48.2841450" lon="7.6090050">
        <ele>-264.4</ele>
        <time>2022-06-04T09:14:12Z</time>
      </trkpt>
      <trkpt lat="48.2841450" lon="7.6090050">
        <ele>-264.2</ele>
        <time>2022-06-04T09:14:16Z</time>
      </trkpt>
      <trkpt lat="48.2841450" lon="7.6090050">
        <ele>-263.8</ele>
        <time>2022-06-04T09:14:20Z</time>
      </trkpt>
      <trkpt lat="48.2841450" lon="7.6090050">
        <ele>-264.0</ele>
        <time>2022-06-04T09:14:24Z</time>
      </trkpt>
      <trkpt lat="48.2841450" lon="7.6090050">
        <ele>-264.2</ele>
        <time>2022-06-04T09:14:28Z</time>
      </trkpt>
      <trkpt lat="48.2841450" lon="7.6090050">
        <ele>-264.2</ele>
        <time>2022-06-04T09:14:32Z</time>
      </trkpt>
      <trkpt lat="48.2841450" lon="7.6090050">
        <ele>-264.4</ele>
        <time>2022-06-04T09:14:36Z</time>
      </trkpt>
      <trkpt lat="48.2841450" lon="7.6090050">
        <ele>-264.2</ele>
        <time>2022-06-04T09:14:40Z</time>
      </trkpt>
      <trkpt lat="48.2841450" lon="7.6090050">
        <ele>-264.4</ele>
        <time>2022-06-04T09:14:44Z</time>
      </trkpt>
      <trkpt lat="48.2841450" lon="7.6090050">
        <ele>-264.2</ele>
        <time>2022-06-04T09:14:48Z</time>
      </trkpt>
      <trkpt lat="48.2841450" lon="7.6090050">
        <ele>-263.8</ele>
        <time>2022-06-04T09:14:52Z</time>
      </trkpt>
      <trkpt lat="48.2841450" lon="7.6090050">
        <ele>-264.2</ele>
        <time>2022-06-04T09:14:56Z</time>
      </trkpt>
      <trkpt lat="48.2841450" lon="7.6090050">
        <ele>-264.4</ele>
        <time>2022-06-04T09:15:00Z</time>
      </trkpt>
      <trkpt lat="48.2841550" lon="7.6089630">
        <ele>-263.8</ele>
        <time>2022-06-04T09:15:04Z</time>
      </trkpt>
      <trkpt lat="48.2841560" lon="7.6089930">
        <ele>-264.2</ele>
        <time>2022-06-04T09:15:08Z</time>
      </trkpt>
      <trkpt lat="48.2841560" lon="7.6089930">
        <ele>-264.0</ele>
        <time>2022-06-04T09:15:12Z</time>
      </trkpt>
      <trkpt lat="48.2841560" lon="7.6089930">
        <ele>-264.2</ele>
        <time>2022-06-04T09:15:16Z</time>
      </trkpt>
      <trkpt lat="48.2841310" lon="7.6090450">
        <ele>-263.8</ele>
        <time>2022-06-04T09:15:20Z</time>
      </trkpt>
      <trkpt lat="48.2841200" lon="7.6091210">
        <ele>-264.4</ele>
        <time>2022-06-04T09:15:24Z</time>
      </trkpt>
      <trkpt lat="48.2840910" lon="7.6092430">
        <ele>-263.8</ele>
        <time>2022-06-04T09:15:28Z</time>
      </trkpt>
      <trkpt lat="48.2840400" lon="7.6094050">
        <ele>-264.4</ele>
        <time>2022-06-04T09:15:32Z</time>
      </trkpt>
      <trkpt lat="48.2839750" lon="7.6095930">
        <ele>-264.4</ele>
        <time>2022-06-04T09:15:36Z</time>
      </trkpt>
      <trkpt lat="48.2839050" lon="7.6097580">
        <ele>-264.2</ele>
        <time>2022-06-04T09:15:40Z</time>
      </trkpt>
      <trkpt lat="48.2838500" lon="7.6099150">
        <ele>-264.2</ele>
        <time>2022-06-04T09:15:44Z</time>
      </trkpt>
      <trkpt lat="48.2837900" lon="7.6100880">
        <ele>-264.4</ele>
        <time>2022-06-04T09:15:48Z</time>
      </trkpt>
      <trkpt lat="48.2837210" lon="7.6102530">
        <ele>-263.8</ele>
        <time>2022-06-04T09:15:52Z</time>
      </trkpt>
      <trkpt lat="48.2836400" lon="7.6104150">
        <ele>-263.8</ele>
        <time>2022-06-04T09:15:56Z</time>
      </trkpt>
      <trkpt lat="48.2835450" lon="7.6105810">
        <ele>-264.0</ele>
        <time>2022-06-04T09:16:00Z</time>
      </trkpt>
      <trkpt lat="48.2834480" lon="7.6107310">
        <ele>-263.8</ele>
        <time>2022-06-04T09:16:04Z</time>
      </trkpt>
      <trkpt lat="48.2833300" lon="7.6108810">
        <ele>-264.0</ele>
        <time>2022-06-04T09:16:08Z</time>
      </trkpt>
      <trkpt lat="48.2832330" lon="7.6110460">
        <ele>-264.8</ele>
        <time>2022-06-04T09:16:12Z</time>
      </trkpt>
      <trkpt lat="48.2831350" lon="7.6111930">
        <ele>-264.4</ele>
        <time>2022-06-04T09:16:16Z</time>
      </trkpt>
      <trkpt lat="48.2830430" lon="7.6113180">
        <ele>-264.2</ele>
        <time>2022-06-04T09:16:20Z</time>
      </trkpt>
      <trkpt lat="48.2829430" lon="7.6114300">
        <ele>-264.0</ele>
        <time>2022-06-04T09:16:24Z</time>
      </trkpt>
      <trkpt lat="48.2828860" lon="7.6115500">
        <ele>-264.0</ele>
        <time>2022-06-04T09:16:28Z</time>
      </trkpt>
      <trkpt lat="48.2828760" lon="7.6116630">
        <ele>-263.8</ele>
        <time>2022-06-04T09:16:32Z</time>
      </trkpt>
      <trkpt lat="48.2828880" lon="7.6117710">
        <ele>-263.8</ele>
        <time>2022-06-04T09:16:36Z</time>
      </trkpt>
      <trkpt lat="48.2828880" lon="7.6117710">
        <ele>-263.6</ele>
        <time>2022-06-04T09:16:40Z</time>
      </trkpt>
      <trkpt lat="48.2828880" lon="7.6117710">
        <ele>-263.8</ele>
        <time>2022-06-04T09:16:44Z</time>
      </trkpt>
      <trkpt lat="48.2829210" lon="7.6118160">
        <ele>-264.0</ele>
        <time>2022-06-04T09:16:48Z</time>
      </trkpt>
      <trkpt lat="48.2829210" lon="7.6118160">
        <ele>-264.2</ele>
        <time>2022-06-04T09:16:52Z</time>
      </trkpt>
      <trkpt lat="48.2829210" lon="7.6118160">
        <ele>-263.4</ele>
        <time>2022-06-04T09:16:56Z</time>
      </trkpt>
      <trkpt lat="48.2829210" lon="7.6118160">
        <ele>-263.4</ele>
        <time>2022-06-04T09:17:00Z</time>
      </trkpt>
      <trkpt lat="48.2829210" lon="7.6118160">
        <ele>-264.2</ele>
        <time>2022-06-04T09:17:04Z</time>
      </trkpt>
      <trkpt lat="48.2829210" lon="7.6118160">
        <ele>-263.8</ele>
        <time>2022-06-04T09:17:08Z</time>
      </trkpt>
      <trkpt lat="48.2829210" lon="7.6118160">
        <ele>-263.8</ele>
        <time>2022-06-04T09:17:12Z</time>
      </trkpt>
      <trkpt lat="48.2829210" lon="7.6118160">
        <ele>-263.8</ele>
        <time>2022-06-04T09:17:16Z</time>
      </trkpt>
      <trkpt lat="48.2829210" lon="7.6118160">
        <ele>-263.8</ele>
        <time>2022-06-04T09:17:20Z</time>
      </trkpt>
      <trkpt lat="48.2829210" lon="7.6118160">
        <ele>-263.8</ele>
        <time>2022-06-04T09:17:24Z</time>
      </trkpt>
      <trkpt lat="48.2829210" lon="7.6118160">
        <ele>-263.8</ele>
        <time>2022-06-04T09:17:28Z</time>
      </trkpt>
      <trkpt lat="48.2829210" lon="7.6118160">
        <ele>-263.4</ele>
        <time>2022-06-04T09:17:32Z</time>
      </trkpt>
      <trkpt lat="48.2829210" lon="7.6118160">
        <ele>-263.8</ele>
        <time>2022-06-04T09:17:36Z</time>
      </trkpt>
      <trkpt lat="48.2829210" lon="7.6118160">
        <ele>-263.6</ele>
        <time>2022-06-04T09:17:40Z</time>
      </trkpt>
      <trkpt lat="48.2829210" lon="7.6118160">
        <ele>-263.8</ele>
        <time>2022-06-04T09:17:44Z</time>
      </trkpt>
      <trkpt lat="48.2829210" lon="7.6118160">
        <ele>-263.8</ele>
        <time>2022-06-04T09:17:48Z</time>
      </trkpt>
      <trkpt lat="48.2829210" lon="7.6118160">
        <ele>-263.8</ele>
        <time>2022-06-04T09:17:52Z</time>
      </trkpt>
      <trkpt lat="48.2829210" lon="7.6118160">
        <ele>-264.0</ele>
        <time>2022-06-04T09:17:56Z</time>
      </trkpt>
      <trkpt lat="48.2829210" lon="7.6118160">
        <ele>-263.6</ele>
        <time>2022-06-04T09:18:00Z</time>
      </trkpt>
      <trkpt lat="48.2829210" lon="7.6118160">
        <ele>-263.4</ele>
        <time>2022-06-04T09:18:04Z</time>
      </trkpt>
      <trkpt lat="48.2829210" lon="7.6118160">
        <ele>-263.8</ele>
        <time>2022-06-04T09:18:08Z</time>
      </trkpt>
      <trkpt lat="48.2829210" lon="7.6118160">
        <ele>-264.0</ele>
        <time>2022-06-04T09:18:12Z</time>
      </trkpt>
      <trkpt lat="48.2829210" lon="7.6118160">
        <ele>-263.8</ele>
        <time>2022-06-04T09:18:16Z</time>
      </trkpt>
      <trkpt lat="48.2829210" lon="7.6118160">
        <ele>-263.2</ele>
        <time>2022-06-04T09:18:20Z</time>
      </trkpt>
      <trkpt lat="48.2829210" lon="7.6118160">
        <ele>-263.4</ele>
        <time>2022-06-04T09:18:24Z</time>
      </trkpt>
      <trkpt lat="48.2829210" lon="7.6118160">
        <ele>-263.6</ele>
        <time>2022-06-04T09:18:28Z</time>
      </trkpt>
      <trkpt lat="48.2829210" lon="7.6118160">
        <ele>-263.0</ele>
        <time>2022-06-04T09:18:32Z</time>
      </trkpt>
      <trkpt lat="48.2829210" lon="7.6118160">
        <ele>-263.2</ele>
        <time>2022-06-04T09:18:36Z</time>
      </trkpt>
      <trkpt lat="48.2829210" lon="7.6118160">
        <ele>-263.4</ele>
        <time>2022-06-04T09:18:40Z</time>
      </trkpt>
      <trkpt lat="48.2829210" lon="7.6118160">
        <ele>-263.2</ele>
        <time>2022-06-04T09:18:44Z</time>
      </trkpt>
      <trkpt lat="48.2829210" lon="7.6118160">
        <ele>-263.2</ele>
        <time>2022-06-04T09:18:48Z</time>
      </trkpt>
      <trkpt lat="48.2829210" lon="7.6118160">
        <ele>-263.2</ele>
        <time>2022-06-04T09:18:52Z</time>
      </trkpt>
      <trkpt lat="48.2829210" lon="7.6118160">
        <ele>-263.2</ele>
        <time>2022-06-04T09:18:56Z</time>
      </trkpt>
      <trkpt lat="48.2829210" lon="7.6118160">
        <ele>-263.4</ele>
        <time>2022-06-04T09:19:00Z</time>
      </trkpt>
      <trkpt lat="48.2829210" lon="7.6118160">
        <ele>-263.0</ele>
        <time>2022-06-04T09:19:04Z</time>
      </trkpt>
      <trkpt lat="48.2829210" lon="7.6118160">
        <ele>-263.6</ele>
        <time>2022-06-04T09:19:08Z</time>
      </trkpt>
      <trkpt lat="48.2829210" lon="7.6118160">
        <ele>-263.2</ele>
        <time>2022-06-04T09:19:12Z</time>
      </trkpt>
      <trkpt lat="48.2829210" lon="7.6118160">
        <ele>-263.0</ele>
        <time>2022-06-04T09:19:16Z</time>
      </trkpt>
      <trkpt lat="48.2829210" lon="7.6118160">
        <ele>-263.2</ele>
        <time>2022-06-04T09:19:20Z</time>
      </trkpt>
      <trkpt lat="48.2829210" lon="7.6118160">
        <ele>-263.0</ele>
        <time>2022-06-04T09:19:24Z</time>
      </trkpt>
      <trkpt lat="48.2829210" lon="7.6118160">
        <ele>-263.2</ele>
        <time>2022-06-04T09:19:28Z</time>
      </trkpt>
      <trkpt lat="48.2829210" lon="7.6118160">
        <ele>-263.0</ele>
        <time>2022-06-04T09:19:32Z</time>
      </trkpt>
      <trkpt lat="48.2829210" lon="7.6118160">
        <ele>-263.4</ele>
        <time>2022-06-04T09:19:36Z</time>
      </trkpt>
      <trkpt lat="48.2829210" lon="7.6118160">
        <ele>-263.8</ele>
        <time>2022-06-04T09:19:40Z</time>
      </trkpt>
      <trkpt lat="48.2829210" lon="7.6118160">
        <ele>-263.4</ele>
        <time>2022-06-04T09:19:44Z</time>
      </trkpt>
      <trkpt lat="48.2827730" lon="7.6119460">
        <ele>-263.8</ele>
        <time>2022-06-04T09:19:48Z</time>
      </trkpt>
      <trkpt lat="48.2827730" lon="7.6119460">
        <ele>-263.2</ele>
        <time>2022-06-04T09:19:52Z</time>
      </trkpt>
      <trkpt lat="48.2827750" lon="7.6119530">
        <ele>-263.8</ele>
        <time>2022-06-04T09:19:56Z</time>
      </trkpt>
      <trkpt lat="48.2827750" lon="7.6119530">
        <ele>-263.2</ele>
        <time>2022-06-04T09:20:00Z</time>
      </trkpt>
      <trkpt lat="48.2827750" lon="7.6119530">
        <ele>-263.4</ele>
        <time>2022-06-04T09:20:04Z</time>
      </trkpt>
      <trkpt lat="48.2827750" lon="7.6119530">
        <ele>-263.6</ele>
        <time>2022-06-04T09:20:08Z</time>
      </trkpt>
      <trkpt lat="48.2827750" lon="7.6119530">
        <ele>-263.6</ele>
        <time>2022-06-04T09:20:12Z</time>
      </trkpt>
      <trkpt lat="48.2827750" lon="7.6119530">
        <ele>-263.2</ele>
        <time>2022-06-04T09:20:16Z</time>
      </trkpt>
      <trkpt lat="48.2827750" lon="7.6119530">
        <ele>-263.2</ele>
        <time>2022-06-04T09:20:20Z</time>
      </trkpt>
      <trkpt lat="48.2827750" lon="7.6119530">
        <ele>-263.4</ele>
        <time>2022-06-04T09:20:24Z</time>
      </trkpt>
      <trkpt lat="48.2827750" lon="7.6119530">
        <ele>-263.6</ele>
        <time>2022-06-04T09:20:28Z</time>
      </trkpt>
      <trkpt lat="48.2827750" lon="7.6119530">
        <ele>-263.2</ele>
        <time>2022-06-04T09:20:32Z</time>
      </trkpt>
      <trkpt lat="48.2827750" lon="7.6119530">
        <ele>-263.4</ele>
        <time>2022-06-04T09:20:36Z</time>
      </trkpt>
      <trkpt lat="48.2827750" lon="7.6119530">
        <ele>-263.6</ele>
        <time>2022-06-04T09:20:40Z</time>
      </trkpt>
      <trkpt lat="48.2827750" lon="7.6119530">
        <ele>-262.8</ele>
        <time>2022-06-04T09:20:44Z</time>
      </trkpt>
      <trkpt lat="48.2827750" lon="7.6119530">
        <ele>-263.2</ele>
        <time>2022-06-04T09:20:48Z</time>
      </trkpt>
      <trkpt lat="48.2827750" lon="7.6119530">
        <ele>-263.6</ele>
        <time>2022-06-04T09:20:52Z</time>
      </trkpt>
      <trkpt lat="48.2827750" lon="7.6119530">
        <ele>-263.6</ele>
        <time>2022-06-04T09:20:56Z</time>
      </trkpt>
      <trkpt lat="48.2827750" lon="7.6119530">
        <ele>-263.0</ele>
        <time>2022-06-04T09:21:00Z</time>
      </trkpt>
      <trkpt lat="48.2827750" lon="7.6119530">
        <ele>-263.2</ele>
        <time>2022-06-04T09:21:04Z</time>
      </trkpt>
      <trkpt lat="48.2827750" lon="7.6119530">
        <ele>-263.4</ele>
        <time>2022-06-04T09:21:08Z</time>
      </trkpt>
      <trkpt lat="48.2827500" lon="7.6119460">
        <ele>-263.8</ele>
        <time>2022-06-04T09:21:12Z</time>
      </trkpt>
      <trkpt lat="48.2827460" lon="7.6119360">
        <ele>-263.2</ele>
        <time>2022-06-04T09:21:16Z</time>
      </trkpt>
      <trkpt lat="48.2827460" lon="7.6119360">
        <ele>-263.6</ele>
        <time>2022-06-04T09:21:20Z</time>
      </trkpt>
      <trkpt lat="48.2827430" lon="7.6119130">
        <ele>-263.6</ele>
        <time>2022-06-04T09:21:24Z</time>
      </trkpt>
      <trkpt lat="48.2827310" lon="7.6119050">
        <ele>-263.8</ele>
        <time>2022-06-04T09:21:28Z</time>
      </trkpt>
      <trkpt lat="48.2827310" lon="7.6119050">
        <ele>-263.6</ele>
        <time>2022-06-04T09:21:32Z</time>
      </trkpt>
      <trkpt lat="48.2827310" lon="7.6119050">
        <ele>-263.4</ele>
        <time>2022-06-04T09:21:36Z</time>
      </trkpt>
      <trkpt lat="48.2827310" lon="7.6119050">
        <ele>-263.4</ele>
        <time>2022-06-04T09:21:40Z</time>
      </trkpt>
      <trkpt lat="48.2827310" lon="7.6119050">
        <ele>-263.6</ele>
        <time>2022-06-04T09:21:44Z</time>
      </trkpt>
      <trkpt lat="48.2827310" lon="7.6119050">
        <ele>-263.4</ele>
        <time>2022-06-04T09:21:48Z</time>
      </trkpt>
      <trkpt lat="48.2827310" lon="7.6119050">
        <ele>-263.2</ele>
        <time>2022-06-04T09:21:52Z</time>
      </trkpt>
      <trkpt lat="48.2827310" lon="7.6119050">
        <ele>-263.6</ele>
        <time>2022-06-04T09:21:56Z</time>
      </trkpt>
      <trkpt lat="48.2827310" lon="7.6119050">
        <ele>-263.6</ele>
        <time>2022-06-04T09:22:00Z</time>
      </trkpt>
      <trkpt lat="48.2827310" lon="7.6119050">
        <ele>-263.8</ele>
        <time>2022-06-04T09:22:04Z</time>
      </trkpt>
      <trkpt lat="48.2827310" lon="7.6119050">
        <ele>-263.6</ele>
        <time>2022-06-04T09:22:08Z</time>
      </trkpt>
      <trkpt lat="48.2827310" lon="7.6119050">
        <ele>-263.6</ele>
        <time>2022-06-04T09:22:12Z</time>
      </trkpt>
      <trkpt lat="48.2827310" lon="7.6119050">
        <ele>-263.8</ele>
        <time>2022-06-04T09:22:16Z</time>
      </trkpt>
      <trkpt lat="48.2827310" lon="7.6119050">
        <ele>-263.8</ele>
        <time>2022-06-04T09:22:20Z</time>
      </trkpt>
      <trkpt lat="48.2827310" lon="7.6119050">
        <ele>-263.6</ele>
        <time>2022-06-04T09:22:24Z</time>
      </trkpt>
      <trkpt lat="48.2827310" lon="7.6119050">
        <ele>-263.6</ele>
        <time>2022-06-04T09:22:28Z</time>
      </trkpt>
      <trkpt lat="48.2827310" lon="7.6119050">
        <ele>-263.8</ele>
        <time>2022-06-04T09:22:32Z</time>
      </trkpt>
      <trkpt lat="48.2827310" lon="7.6119050">
        <ele>-263.8</ele>
        <time>2022-06-04T09:22:36Z</time>
      </trkpt>
      <trkpt lat="48.2827310" lon="7.6119050">
        <ele>-264.0</ele>
        <time>2022-06-04T09:22:40Z</time>
      </trkpt>
      <trkpt lat="48.2827310" lon="7.6119050">
        <ele>-263.4</ele>
        <time>2022-06-04T09:22:44Z</time>
      </trkpt>
      <trkpt lat="48.2827310" lon="7.6119050">
        <ele>-263.2</ele>
        <time>2022-06-04T09:22:48Z</time>
      </trkpt>
      <trkpt lat="48.2827310" lon="7.6119050">
        <ele>-263.4</ele>
        <time>2022-06-04T09:22:52Z</time>
      </trkpt>
      <trkpt lat="48.2827310" lon="7.6119050">
        <ele>-263.4</ele>
        <time>2022-06-04T09:22:56Z</time>
      </trkpt>
      <trkpt lat="48.2827310" lon="7.6119050">
        <ele>-263.6</ele>
        <time>2022-06-04T09:23:00Z</time>
      </trkpt>
      <trkpt lat="48.2827310" lon="7.6119050">
        <ele>-263.8</ele>
        <time>2022-06-04T09:23:04Z</time>
      </trkpt>
      <trkpt lat="48.2827310" lon="7.6119050">
        <ele>-263.4</ele>
        <time>2022-06-04T09:23:08Z</time>
      </trkpt>
      <trkpt lat="48.2827310" lon="7.6119050">
        <ele>-263.8</ele>
        <time>2022-06-04T09:23:12Z</time>
      </trkpt>
      <trkpt lat="48.2827310" lon="7.6119050">
        <ele>-263.8</ele>
        <time>2022-06-04T09:23:16Z</time>
      </trkpt>
      <trkpt lat="48.2827310" lon="7.6119050">
        <ele>-263.8</ele>
        <time>2022-06-04T09:23:20Z</time>
      </trkpt>
      <trkpt lat="48.2827310" lon="7.6119050">
        <ele>-264.0</ele>
        <time>2022-06-04T09:23:24Z</time>
      </trkpt>
      <trkpt lat="48.2827310" lon="7.6119050">
        <ele>-264.2</ele>
        <time>2022-06-04T09:23:28Z</time>
      </trkpt>
      <trkpt lat="48.2827310" lon="7.6119050">
        <ele>-264.0</ele>
        <time>2022-06-04T09:23:32Z</time>
      </trkpt>
      <trkpt lat="48.2827310" lon="7.6119050">
        <ele>-264.0</ele>
        <time>2022-06-04T09:23:36Z</time>
      </trkpt>
      <trkpt lat="48.2827310" lon="7.6119050">
        <ele>-263.8</ele>
        <time>2022-06-04T09:23:40Z</time>
      </trkpt>
      <trkpt lat="48.2827310" lon="7.6119050">
        <ele>-263.6</ele>
        <time>2022-06-04T09:23:44Z</time>
      </trkpt>
      <trkpt lat="48.2827310" lon="7.6119050">
        <ele>-264.0</ele>
        <time>2022-06-04T09:23:48Z</time>
      </trkpt>
      <trkpt lat="48.2827310" lon="7.6119050">
        <ele>-263.8</ele>
        <time>2022-06-04T09:23:52Z</time>
      </trkpt>
      <trkpt lat="48.2827310" lon="7.6119050">
        <ele>-264.4</ele>
        <time>2022-06-04T09:23:56Z</time>
      </trkpt>
      <trkpt lat="48.2827310" lon="7.6119050">
        <ele>-264.4</ele>
        <time>2022-06-04T09:24:00Z</time>
      </trkpt>
      <trkpt lat="48.2827310" lon="7.6119050">
        <ele>-264.4</ele>
        <time>2022-06-04T09:24:04Z</time>
      </trkpt>
      <trkpt lat="48.2827310" lon="7.6119050">
        <ele>-263.8</ele>
        <time>2022-06-04T09:24:08Z</time>
      </trkpt>
      <trkpt lat="48.2827310" lon="7.6119050">
        <ele>-264.2</ele>
        <time>2022-06-04T09:24:12Z</time>
      </trkpt>
      <trkpt lat="48.2827310" lon="7.6119050">
        <ele>-264.2</ele>
        <time>2022-06-04T09:24:16Z</time>
      </trkpt>
      <trkpt lat="48.2827310" lon="7.6119050">
        <ele>-264.2</ele>
        <time>2022-06-04T09:24:20Z</time>
      </trkpt>
      <trkpt lat="48.2827310" lon="7.6119050">
        <ele>-264.2</ele>
        <time>2022-06-04T09:24:24Z</time>
      </trkpt>
      <trkpt lat="48.2827310" lon="7.6119050">
        <ele>-264.4</ele>
        <time>2022-06-04T09:24:28Z</time>
      </trkpt>
      <trkpt lat="48.2827310" lon="7.6119050">
        <ele>-264.2</ele>
        <time>2022-06-04T09:24:32Z</time>
      </trkpt>
      <trkpt lat="48.2827310" lon="7.6119050">
        <ele>-264.2</ele>
        <time>2022-06-04T09:24:36Z</time>
      </trkpt>
      <trkpt lat="48.2827310" lon="7.6119050">
        <ele>-264.2</ele>
        <time>2022-06-04T09:24:40Z</time>
      </trkpt>
      <trkpt lat="48.2827310" lon="7.6119050">
        <ele>-264.6</ele>
        <time>2022-06-04T09:24:44Z</time>
      </trkpt>
      <trkpt lat="48.2827310" lon="7.6119050">
        <ele>-264.2</ele>
        <time>2022-06-04T09:24:48Z</time>
      </trkpt>
      <trkpt lat="48.2827310" lon="7.6119050">
        <ele>-264.4</ele>
        <time>2022-06-04T09:24:52Z</time>
      </trkpt>
      <trkpt lat="48.2827310" lon="7.6119050">
        <ele>-264.2</ele>
        <time>2022-06-04T09:24:56Z</time>
      </trkpt>
      <trkpt lat="48.2827310" lon="7.6119050">
        <ele>-264.4</ele>
        <time>2022-06-04T09:25:00Z</time>
      </trkpt>
      <trkpt lat="48.2827310" lon="7.6119050">
        <ele>-264.4</ele>
        <time>2022-06-04T09:25:04Z</time>
      </trkpt>
      <trkpt lat="48.2827310" lon="7.6119050">
        <ele>-264.4</ele>
        <time>2022-06-04T09:25:08Z</time>
      </trkpt>
      <trkpt lat="48.2827310" lon="7.6119050">
        <ele>-264.4</ele>
        <time>2022-06-04T09:25:12Z</time>
      </trkpt>
      <trkpt lat="48.2827310" lon="7.6119050">
        <ele>-264.2</ele>
        <time>2022-06-04T09:25:16Z</time>
      </trkpt>
      <trkpt lat="48.2827310" lon="7.6119050">
        <ele>-264.4</ele>
        <time>2022-06-04T09:25:20Z</time>
      </trkpt>
      <trkpt lat="48.2827310" lon="7.6119050">
        <ele>-264.4</ele>
        <time>2022-06-04T09:25:24Z</time>
      </trkpt>
      <trkpt lat="48.2827310" lon="7.6119050">
        <ele>-264.0</ele>
        <time>2022-06-04T09:25:28Z</time>
      </trkpt>
      <trkpt lat="48.2827310" lon="7.6119050">
        <ele>-264.2</ele>
        <time>2022-06-04T09:25:32Z</time>
      </trkpt>
      <trkpt lat="48.2827310" lon="7.6119050">
        <ele>-264.4</ele>
        <time>2022-06-04T09:25:36Z</time>
      </trkpt>
      <trkpt lat="48.2827310" lon="7.6119050">
        <ele>-264.8</ele>
        <time>2022-06-04T09:25:40Z</time>
      </trkpt>
      <trkpt lat="48.2827310" lon="7.6119050">
        <ele>-264.6</ele>
        <time>2022-06-04T09:25:44Z</time>
      </trkpt>
      <trkpt lat="48.2827310" lon="7.6119050">
        <ele>-264.4</ele>
        <time>2022-06-04T09:25:48Z</time>
      </trkpt>
      <trkpt lat="48.2827310" lon="7.6119050">
        <ele>-264.4</ele>
        <time>2022-06-04T09:25:52Z</time>
      </trkpt>
      <trkpt lat="48.2827310" lon="7.6119050">
        <ele>-264.4</ele>
        <time>2022-06-04T09:25:56Z</time>
      </trkpt>
      <trkpt lat="48.2827310" lon="7.6119050">
        <ele>-264.4</ele>
        <time>2022-06-04T09:26:00Z</time>
      </trkpt>
      <trkpt lat="48.2827310" lon="7.6119050">
        <ele>-264.6</ele>
        <time>2022-06-04T09:26:04Z</time>
      </trkpt>
      <trkpt lat="48.2827310" lon="7.6119050">
        <ele>-264.4</ele>
        <time>2022-06-04T09:26:08Z</time>
      </trkpt>
      <trkpt lat="48.2827310" lon="7.6119050">
        <ele>-264.4</ele>
        <time>2022-06-04T09:26:12Z</time>
      </trkpt>
      <trkpt lat="48.2827310" lon="7.6119050">
        <ele>-264.2</ele>
        <time>2022-06-04T09:26:16Z</time>
      </trkpt>
      <trkpt lat="48.2827310" lon="7.6119050">
        <ele>-264.0</ele>
        <time>2022-06-04T09:26:20Z</time>
      </trkpt>
      <trkpt lat="48.2827310" lon="7.6119050">
        <ele>-264.2</ele>
        <time>2022-06-04T09:26:24Z</time>
      </trkpt>
      <trkpt lat="48.2827310" lon="7.6119050">
        <ele>-264.4</ele>
        <time>2022-06-04T09:26:28Z</time>
      </trkpt>
      <trkpt lat="48.2827310" lon="7.6119050">
        <ele>-264.4</ele>
        <time>2022-06-04T09:26:32Z</time>
      </trkpt>
      <trkpt lat="48.2827310" lon="7.6119050">
        <ele>-264.2</ele>
        <time>2022-06-04T09:26:36Z</time>
      </trkpt>
      <trkpt lat="48.2827310" lon="7.6119050">
        <ele>-264.4</ele>
        <time>2022-06-04T09:26:40Z</time>
      </trkpt>
      <trkpt lat="48.2827310" lon="7.6119050">
        <ele>-264.4</ele>
        <time>2022-06-04T09:26:44Z</time>
      </trkpt>
      <trkpt lat="48.2827310" lon="7.6119050">
        <ele>-264.0</ele>
        <time>2022-06-04T09:26:48Z</time>
      </trkpt>
      <trkpt lat="48.2827310" lon="7.6119050">
        <ele>-264.8</ele>
        <time>2022-06-04T09:26:52Z</time>
      </trkpt>
      <trkpt lat="48.2827310" lon="7.6119050">
        <ele>-264.2</ele>
        <time>2022-06-04T09:26:56Z</time>
      </trkpt>
      <trkpt lat="48.2827310" lon="7.6119050">
        <ele>-264.6</ele>
        <time>2022-06-04T09:27:00Z</time>
      </trkpt>
      <trkpt lat="48.2827310" lon="7.6119050">
        <ele>-264.4</ele>
        <time>2022-06-04T09:27:04Z</time>
      </trkpt>
      <trkpt lat="48.2827310" lon="7.6119050">
        <ele>-264.4</ele>
        <time>2022-06-04T09:27:08Z</time>
      </trkpt>
      <trkpt lat="48.2827310" lon="7.6119050">
        <ele>-264.4</ele>
        <time>2022-06-04T09:27:12Z</time>
      </trkpt>
      <trkpt lat="48.2827310" lon="7.6119050">
        <ele>-264.2</ele>
        <time>2022-06-04T09:27:16Z</time>
      </trkpt>
      <trkpt lat="48.2827310" lon="7.6119050">
        <ele>-264.2</ele>
        <time>2022-06-04T09:27:20Z</time>
      </trkpt>
      <trkpt lat="48.2827310" lon="7.6119050">
        <ele>-264.4</ele>
        <time>2022-06-04T09:27:24Z</time>
      </trkpt>
      <trkpt lat="48.2827310" lon="7.6119050">
        <ele>-264.0</ele>
        <time>2022-06-04T09:27:28Z</time>
      </trkpt>
      <trkpt lat="48.2827310" lon="7.6119050">
        <ele>-265.0</ele>
        <time>2022-06-04T09:27:32Z</time>
      </trkpt>
      <trkpt lat="48.2827310" lon="7.6119050">
        <ele>-265.2</ele>
        <time>2022-06-04T09:27:36Z</time>
      </trkpt>
      <trkpt lat="48.2827310" lon="7.6119050">
        <ele>-264.4</ele>
        <time>2022-06-04T09:27:40Z</time>
      </trkpt>
      <trkpt lat="48.2827310" lon="7.6119050">
        <ele>-264.4</ele>
        <time>2022-06-04T09:27:44Z</time>
      </trkpt>
      <trkpt lat="48.2827310" lon="7.6119050">
        <ele>-264.8</ele>
        <time>2022-06-04T09:27:48Z</time>
      </trkpt>
      <trkpt lat="48.2827310" lon="7.6119050">
        <ele>-264.8</ele>
        <time>2022-06-04T09:27:52Z</time>
      </trkpt>
      <trkpt lat="48.2827310" lon="7.6119050">
        <ele>-264.8</ele>
        <time>2022-06-04T09:27:56Z</time>
      </trkpt>
      <trkpt lat="48.2827310" lon="7.6119050">
        <ele>-264.4</ele>
        <time>2022-06-04T09:28:00Z</time>
      </trkpt>
      <trkpt lat="48.2827310" lon="7.6119050">
        <ele>-264.2</ele>
        <time>2022-06-04T09:28:04Z</time>
      </trkpt>
      <trkpt lat="48.2827310" lon="7.6119050">
        <ele>-264.6</ele>
        <time>2022-06-04T09:28:08Z</time>
      </trkpt>
      <trkpt lat="48.2827310" lon="7.6119050">
        <ele>-264.8</ele>
        <time>2022-06-04T09:28:12Z</time>
      </trkpt>
      <trkpt lat="48.2827310" lon="7.6119050">
        <ele>-264.8</ele>
        <time>2022-06-04T09:28:16Z</time>
      </trkpt>
      <trkpt lat="48.2827310" lon="7.6119050">
        <ele>-264.6</ele>
        <time>2022-06-04T09:28:20Z</time>
      </trkpt>
      <trkpt lat="48.2827310" lon="7.6119050">
        <ele>-264.2</ele>
        <time>2022-06-04T09:28:24Z</time>
      </trkpt>
      <trkpt lat="48.2827310" lon="7.6119050">
        <ele>-264.4</ele>
        <time>2022-06-04T09:28:28Z</time>
      </trkpt>
      <trkpt lat="48.2827310" lon="7.6119050">
        <ele>-264.2</ele>
        <time>2022-06-04T09:28:32Z</time>
      </trkpt>
      <trkpt lat="48.2827310" lon="7.6119050">
        <ele>-264.6</ele>
        <time>2022-06-04T09:28:36Z</time>
      </trkpt>
      <trkpt lat="48.2827310" lon="7.6119050">
        <ele>-264.4</ele>
        <time>2022-06-04T09:28:40Z</time>
      </trkpt>
      <trkpt lat="48.2827310" lon="7.6119050">
        <ele>-264.6</ele>
        <time>2022-06-04T09:28:44Z</time>
      </trkpt>
      <trkpt lat="48.2827310" lon="7.6119050">
        <ele>-264.4</ele>
        <time>2022-06-04T09:28:48Z</time>
      </trkpt>
      <trkpt lat="48.2827310" lon="7.6119050">
        <ele>-264.4</ele>
        <time>2022-06-04T09:28:52Z</time>
      </trkpt>
      <trkpt lat="48.2827310" lon="7.6119050">
        <ele>-264.4</ele>
        <time>2022-06-04T09:28:56Z</time>
      </trkpt>
      <trkpt lat="48.2827310" lon="7.6119050">
        <ele>-264.2</ele>
        <time>2022-06-04T09:29:00Z</time>
      </trkpt>
      <trkpt lat="48.2827310" lon="7.6119050">
        <ele>-264.4</ele>
        <time>2022-06-04T09:29:04Z</time>
      </trkpt>
      <trkpt lat="48.2827310" lon="7.6119050">
        <ele>-264.4</ele>
        <time>2022-06-04T09:29:08Z</time>
      </trkpt>
      <trkpt lat="48.2827310" lon="7.6119050">
        <ele>-264.8</ele>
        <time>2022-06-04T09:29:12Z</time>
      </trkpt>
      <trkpt lat="48.2827310" lon="7.6119050">
        <ele>-264.4</ele>
        <time>2022-06-04T09:29:16Z</time>
      </trkpt>
      <trkpt lat="48.2827310" lon="7.6119050">
        <ele>-264.4</ele>
        <time>2022-06-04T09:29:20Z</time>
      </trkpt>
      <trkpt lat="48.2827310" lon="7.6119050">
        <ele>-264.4</ele>
        <time>2022-06-04T09:29:24Z</time>
      </trkpt>
      <trkpt lat="48.2827310" lon="7.6119050">
        <ele>-264.6</ele>
        <time>2022-06-04T09:29:28Z</time>
      </trkpt>
      <trkpt lat="48.2827310" lon="7.6119050">
        <ele>-264.8</ele>
        <time>2022-06-04T09:29:32Z</time>
      </trkpt>
      <trkpt lat="48.2827310" lon="7.6119050">
        <ele>-264.8</ele>
        <time>2022-06-04T09:29:36Z</time>
      </trkpt>
      <trkpt lat="48.2827310" lon="7.6119050">
        <ele>-264.8</ele>
        <time>2022-06-04T09:29:40Z</time>
      </trkpt>
      <trkpt lat="48.2827310" lon="7.6119050">
        <ele>-264.8</ele>
        <time>2022-06-04T09:29:44Z</time>
      </trkpt>
      <trkpt lat="48.2827310" lon="7.6119050">
        <ele>-264.8</ele>
        <time>2022-06-04T09:29:48Z</time>
      </trkpt>
      <trkpt lat="48.2827310" lon="7.6119050">
        <ele>-264.8</ele>
        <time>2022-06-04T09:29:52Z</time>
      </trkpt>
      <trkpt lat="48.2827310" lon="7.6119050">
        <ele>-265.0</ele>
        <time>2022-06-04T09:29:56Z</time>
      </trkpt>
      <trkpt lat="48.2827310" lon="7.6119050">
        <ele>-264.8</ele>
        <time>2022-06-04T09:30:00Z</time>
      </trkpt>
      <trkpt lat="48.2827310" lon="7.6119050">
        <ele>-264.8</ele>
        <time>2022-06-04T09:30:04Z</time>
      </trkpt>
      <trkpt lat="48.2827310" lon="7.6119050">
        <ele>-264.8</ele>
        <time>2022-06-04T09:30:08Z</time>
      </trkpt>
      <trkpt lat="48.2827310" lon="7.6119050">
        <ele>-265.0</ele>
        <time>2022-06-04T09:30:12Z</time>
      </trkpt>
      <trkpt lat="48.2827310" lon="7.6119050">
        <ele>-264.6</ele>
        <time>2022-06-04T09:30:16Z</time>
      </trkpt>
      <trkpt lat="48.2827310" lon="7.6119050">
        <ele>-265.0</ele>
        <time>2022-06-04T09:30:20Z</time>
      </trkpt>
      <trkpt lat="48.2827310" lon="7.6119050">
        <ele>-265.0</ele>
        <time>2022-06-04T09:30:24Z</time>
      </trkpt>
      <trkpt lat="48.2827310" lon="7.6119050">
        <ele>-265.0</ele>
        <time>2022-06-04T09:30:28Z</time>
      </trkpt>
      <trkpt lat="48.2827310" lon="7.6119050">
        <ele>-264.4</ele>
        <time>2022-06-04T09:30:32Z</time>
      </trkpt>
      <trkpt lat="48.2827310" lon="7.6119050">
        <ele>-264.6</ele>
        <time>2022-06-04T09:30:36Z</time>
      </trkpt>
      <trkpt lat="48.2827310" lon="7.6119050">
        <ele>-265.0</ele>
        <time>2022-06-04T09:30:40Z</time>
      </trkpt>
      <trkpt lat="48.2827310" lon="7.6119050">
        <ele>-264.6</ele>
        <time>2022-06-04T09:30:44Z</time>
      </trkpt>
      <trkpt lat="48.2827310" lon="7.6119050">
        <ele>-265.0</ele>
        <time>2022-06-04T09:30:48Z</time>
      </trkpt>
      <trkpt lat="48.2827310" lon="7.6119050">
        <ele>-264.8</ele>
        <time>2022-06-04T09:30:52Z</time>
      </trkpt>
      <trkpt lat="48.2827310" lon="7.6119050">
        <ele>-265.0</ele>
        <time>2022-06-04T09:30:56Z</time>
      </trkpt>
      <trkpt lat="48.2827310" lon="7.6119050">
        <ele>-265.2</ele>
        <time>2022-06-04T09:31:00Z</time>
      </trkpt>
      <trkpt lat="48.2827310" lon="7.6119050">
        <ele>-265.2</ele>
        <time>2022-06-04T09:31:04Z</time>
      </trkpt>
      <trkpt lat="48.2827310" lon="7.6119050">
        <ele>-265.0</ele>
        <time>2022-06-04T09:31:08Z</time>
      </trkpt>
      <trkpt lat="48.2827310" lon="7.6119050">
        <ele>-265.0</ele>
        <time>2022-06-04T09:31:12Z</time>
      </trkpt>
      <trkpt lat="48.2827310" lon="7.6119050">
        <ele>-265.2</ele>
        <time>2022-06-04T09:31:16Z</time>
      </trkpt>
      <trkpt lat="48.2827310" lon="7.6119050">
        <ele>-265.0</ele>
        <time>2022-06-04T09:31:20Z</time>
      </trkpt>
      <trkpt lat="48.2827310" lon="7.6119050">
        <ele>-265.0</ele>
        <time>2022-06-04T09:31:24Z</time>
      </trkpt>
      <trkpt lat="48.2827310" lon="7.6119050">
        <ele>-264.8</ele>
        <time>2022-06-04T09:31:28Z</time>
      </trkpt>
      <trkpt lat="48.2827310" lon="7.6119050">
        <ele>-265.0</ele>
        <time>2022-06-04T09:31:32Z</time>
      </trkpt>
      <trkpt lat="48.2827310" lon="7.6119050">
        <ele>-264.8</ele>
        <time>2022-06-04T09:31:36Z</time>
      </trkpt>
      <trkpt lat="48.2827310" lon="7.6119050">
        <ele>-265.2</ele>
        <time>2022-06-04T09:31:40Z</time>
      </trkpt>
      <trkpt lat="48.2827310" lon="7.6119050">
        <ele>-265.4</ele>
        <time>2022-06-04T09:31:44Z</time>
      </trkpt>
      <trkpt lat="48.2827310" lon="7.6119050">
        <ele>-265.0</ele>
        <time>2022-06-04T09:31:48Z</time>
      </trkpt>
      <trkpt lat="48.2827310" lon="7.6119050">
        <ele>-265.6</ele>
        <time>2022-06-04T09:31:52Z</time>
      </trkpt>
      <trkpt lat="48.2827310" lon="7.6119050">
        <ele>-265.2</ele>
        <time>2022-06-04T09:31:56Z</time>
      </trkpt>
      <trkpt lat="48.2827310" lon="7.6119050">
        <ele>-265.2</ele>
        <time>2022-06-04T09:32:00Z</time>
      </trkpt>
      <trkpt lat="48.2827310" lon="7.6119050">
        <ele>-265.0</ele>
        <time>2022-06-04T09:32:04Z</time>
      </trkpt>
      <trkpt lat="48.2827310" lon="7.6119050">
        <ele>-265.0</ele>
        <time>2022-06-04T09:32:08Z</time>
      </trkpt>
      <trkpt lat="48.2827310" lon="7.6119050">
        <ele>-265.4</ele>
        <time>2022-06-04T09:32:12Z</time>
      </trkpt>
      <trkpt lat="48.2827310" lon="7.6119050">
        <ele>-265.4</ele>
        <time>2022-06-04T09:32:16Z</time>
      </trkpt>
      <trkpt lat="48.2827310" lon="7.6119050">
        <ele>-265.4</ele>
        <time>2022-06-04T09:32:20Z</time>
      </trkpt>
      <trkpt lat="48.2827310" lon="7.6119050">
        <ele>-265.0</ele>
        <time>2022-06-04T09:32:24Z</time>
      </trkpt>
      <trkpt lat="48.2827310" lon="7.6119050">
        <ele>-265.0</ele>
        <time>2022-06-04T09:32:28Z</time>
      </trkpt>
      <trkpt lat="48.2827310" lon="7.6119050">
        <ele>-265.2</ele>
        <time>2022-06-04T09:32:32Z</time>
      </trkpt>
      <trkpt lat="48.2827310" lon="7.6119050">
        <ele>-265.2</ele>
        <time>2022-06-04T09:32:36Z</time>
      </trkpt>
      <trkpt lat="48.2827310" lon="7.6119050">
        <ele>-265.0</ele>
        <time>2022-06-04T09:32:40Z</time>
      </trkpt>
      <trkpt lat="48.2827310" lon="7.6119050">
        <ele>-265.4</ele>
        <time>2022-06-04T09:32:44Z</time>
      </trkpt>
      <trkpt lat="48.2827310" lon="7.6119050">
        <ele>-265.4</ele>
        <time>2022-06-04T09:32:48Z</time>
      </trkpt>
      <trkpt lat="48.2827310" lon="7.6119050">
        <ele>-265.0</ele>
        <time>2022-06-04T09:32:52Z</time>
      </trkpt>
      <trkpt lat="48.2827310" lon="7.6119050">
        <ele>-265.4</ele>
        <time>2022-06-04T09:32:56Z</time>
      </trkpt>
      <trkpt lat="48.2827310" lon="7.6119050">
        <ele>-265.4</ele>
        <time>2022-06-04T09:33:00Z</time>
      </trkpt>
      <trkpt lat="48.2827310" lon="7.6119050">
        <ele>-265.4</ele>
        <time>2022-06-04T09:33:04Z</time>
      </trkpt>
      <trkpt lat="48.2827310" lon="7.6119050">
        <ele>-265.4</ele>
        <time>2022-06-04T09:33:08Z</time>
      </trkpt>
      <trkpt lat="48.2827310" lon="7.6119050">
        <ele>-265.2</ele>
        <time>2022-06-04T09:33:12Z</time>
      </trkpt>
      <trkpt lat="48.2827310" lon="7.6119050">
        <ele>-265.4</ele>
        <time>2022-06-04T09:33:16Z</time>
      </trkpt>
      <trkpt lat="48.2827310" lon="7.6119050">
        <ele>-265.4</ele>
        <time>2022-06-04T09:33:20Z</time>
      </trkpt>
      <trkpt lat="48.2827310" lon="7.6119050">
        <ele>-265.2</ele>
        <time>2022-06-04T09:33:24Z</time>
      </trkpt>
      <trkpt lat="48.2827310" lon="7.6119050">
        <ele>-265.2</ele>
        <time>2022-06-04T09:33:28Z</time>
      </trkpt>
      <trkpt lat="48.2827310" lon="7.6119050">
        <ele>-265.4</ele>
        <time>2022-06-04T09:33:32Z</time>
      </trkpt>
      <trkpt lat="48.2827310" lon="7.6119050">
        <ele>-265.4</ele>
        <time>2022-06-04T09:33:36Z</time>
      </trkpt>
      <trkpt lat="48.2827310" lon="7.6119050">
        <ele>-265.6</ele>
        <time>2022-06-04T09:33:40Z</time>
      </trkpt>
      <trkpt lat="48.2827310" lon="7.6119050">
        <ele>-265.8</ele>
        <time>2022-06-04T09:33:44Z</time>
      </trkpt>
      <trkpt lat="48.2827310" lon="7.6119050">
        <ele>-265.4</ele>
        <time>2022-06-04T09:33:48Z</time>
      </trkpt>
      <trkpt lat="48.2827310" lon="7.6119050">
        <ele>-265.2</ele>
        <time>2022-06-04T09:33:52Z</time>
      </trkpt>
      <trkpt lat="48.2827310" lon="7.6119050">
        <ele>-265.6</ele>
        <time>2022-06-04T09:33:56Z</time>
      </trkpt>
      <trkpt lat="48.2827310" lon="7.6119050">
        <ele>-265.4</ele>
        <time>2022-06-04T09:34:00Z</time>
      </trkpt>
      <trkpt lat="48.2827310" lon="7.6119050">
        <ele>-265.6</ele>
        <time>2022-06-04T09:34:04Z</time>
      </trkpt>
      <trkpt lat="48.2827310" lon="7.6119050">
        <ele>-265.2</ele>
        <time>2022-06-04T09:34:08Z</time>
      </trkpt>
      <trkpt lat="48.2827310" lon="7.6119050">
        <ele>-265.8</ele>
        <time>2022-06-04T09:34:12Z</time>
      </trkpt>
      <trkpt lat="48.2827310" lon="7.6119050">
        <ele>-265.2</ele>
        <time>2022-06-04T09:34:16Z</time>
      </trkpt>
      <trkpt lat="48.2827310" lon="7.6119050">
        <ele>-265.4</ele>
        <time>2022-06-04T09:34:20Z</time>
      </trkpt>
      <trkpt lat="48.2827310" lon="7.6119050">
        <ele>-265.2</ele>
        <time>2022-06-04T09:34:24Z</time>
      </trkpt>
      <trkpt lat="48.2827310" lon="7.6119050">
        <ele>-265.2</ele>
        <time>2022-06-04T09:34:28Z</time>
      </trkpt>
      <trkpt lat="48.2827310" lon="7.6119050">
        <ele>-265.4</ele>
        <time>2022-06-04T09:34:32Z</time>
      </trkpt>
      <trkpt lat="48.2827310" lon="7.6119050">
        <ele>-265.0</ele>
        <time>2022-06-04T09:34:36Z</time>
      </trkpt>
      <trkpt lat="48.2827310" lon="7.6119050">
        <ele>-265.4</ele>
        <time>2022-06-04T09:34:40Z</time>
      </trkpt>
      <trkpt lat="48.2827310" lon="7.6119050">
        <ele>-265.0</ele>
        <time>2022-06-04T09:34:44Z</time>
      </trkpt>
      <trkpt lat="48.2827310" lon="7.6119050">
        <ele>-265.4</ele>
        <time>2022-06-04T09:34:48Z</time>
      </trkpt>
      <trkpt lat="48.2827310" lon="7.6119050">
        <ele>-265.8</ele>
        <time>2022-06-04T09:34:52Z</time>
      </trkpt>
      <trkpt lat="48.2827310" lon="7.6119050">
        <ele>-265.8</ele>
        <time>2022-06-04T09:34:56Z</time>
      </trkpt>
      <trkpt lat="48.2827310" lon="7.6119050">
        <ele>-265.6</ele>
        <time>2022-06-04T09:35:00Z</time>
      </trkpt>
      <trkpt lat="48.2827310" lon="7.6119050">
        <ele>-265.4</ele>
        <time>2022-06-04T09:35:04Z</time>
      </trkpt>
      <trkpt lat="48.2827310" lon="7.6119050">
        <ele>-265.4</ele>
        <time>2022-06-04T09:35:08Z</time>
      </trkpt>
      <trkpt lat="48.2827310" lon="7.6119050">
        <ele>-265.8</ele>
        <time>2022-06-04T09:35:12Z</time>
      </trkpt>
      <trkpt lat="48.2827310" lon="7.6119050">
        <ele>-265.4</ele>
        <time>2022-06-04T09:35:16Z</time>
      </trkpt>
      <trkpt lat="48.2827310" lon="7.6119050">
        <ele>-265.6</ele>
        <time>2022-06-04T09:35:20Z</time>
      </trkpt>
      <trkpt lat="48.2827310" lon="7.6119050">
        <ele>-265.0</ele>
        <time>2022-06-04T09:35:24Z</time>
      </trkpt>
      <trkpt lat="48.2827310" lon="7.6119050">
        <ele>-265.4</ele>
        <time>2022-06-04T09:35:28Z</time>
      </trkpt>
      <trkpt lat="48.2827310" lon="7.6119050">
        <ele>-265.4</ele>
        <time>2022-06-04T09:35:32Z</time>
      </trkpt>
      <trkpt lat="48.2827310" lon="7.6119050">
        <ele>-265.8</ele>
        <time>2022-06-04T09:35:36Z</time>
      </trkpt>
      <trkpt lat="48.2827310" lon="7.6119050">
        <ele>-265.4</ele>
        <time>2022-06-04T09:35:40Z</time>
      </trkpt>
      <trkpt lat="48.2827310" lon="7.6119050">
        <ele>-265.4</ele>
        <time>2022-06-04T09:35:44Z</time>
      </trkpt>
      <trkpt lat="48.2827310" lon="7.6119050">
        <ele>-265.4</ele>
        <time>2022-06-04T09:35:48Z</time>
      </trkpt>
      <trkpt lat="48.2827310" lon="7.6119050">
        <ele>-265.2</ele>
        <time>2022-06-04T09:35:52Z</time>
      </trkpt>
      <trkpt lat="48.2827310" lon="7.6119050">
        <ele>-265.4</ele>
        <time>2022-06-04T09:35:56Z</time>
      </trkpt>
      <trkpt lat="48.2827310" lon="7.6119050">
        <ele>-265.6</ele>
        <time>2022-06-04T09:36:00Z</time>
      </trkpt>
      <trkpt lat="48.2827310" lon="7.6119050">
        <ele>-265.4</ele>
        <time>2022-06-04T09:36:04Z</time>
      </trkpt>
      <trkpt lat="48.2827310" lon="7.6119050">
        <ele>-266.0</ele>
        <time>2022-06-04T09:36:08Z</time>
      </trkpt>
      <trkpt lat="48.2827310" lon="7.6119050">
        <ele>-265.8</ele>
        <time>2022-06-04T09:36:12Z</time>
      </trkpt>
      <trkpt lat="48.2827310" lon="7.6119050">
        <ele>-265.6</ele>
        <time>2022-06-04T09:36:16Z</time>
      </trkpt>
      <trkpt lat="48.2827310" lon="7.6119050">
        <ele>-265.8</ele>
        <time>2022-06-04T09:36:20Z</time>
      </trkpt>
      <trkpt lat="48.2827310" lon="7.6119050">
        <ele>-265.6</ele>
        <time>2022-06-04T09:36:24Z</time>
      </trkpt>
      <trkpt lat="48.2827310" lon="7.6119050">
        <ele>-265.4</ele>
        <time>2022-06-04T09:36:28Z</time>
      </trkpt>
      <trkpt lat="48.2827310" lon="7.6119050">
        <ele>-266.0</ele>
        <time>2022-06-04T09:36:32Z</time>
      </trkpt>
      <trkpt lat="48.2827310" lon="7.6119050">
        <ele>-266.0</ele>
        <time>2022-06-04T09:36:36Z</time>
      </trkpt>
      <trkpt lat="48.2827310" lon="7.6119050">
        <ele>-266.0</ele>
        <time>2022-06-04T09:36:40Z</time>
      </trkpt>
      <trkpt lat="48.2827310" lon="7.6119050">
        <ele>-265.6</ele>
        <time>2022-06-04T09:36:44Z</time>
      </trkpt>
      <trkpt lat="48.2827310" lon="7.6119050">
        <ele>-265.8</ele>
        <time>2022-06-04T09:36:48Z</time>
      </trkpt>
      <trkpt lat="48.2827310" lon="7.6119050">
        <ele>-265.8</ele>
        <time>2022-06-04T09:36:52Z</time>
      </trkpt>
      <trkpt lat="48.2827310" lon="7.6119050">
        <ele>-266.0</ele>
        <time>2022-06-04T09:36:56Z</time>
      </trkpt>
      <trkpt lat="48.2827310" lon="7.6119050">
        <ele>-266.0</ele>
        <time>2022-06-04T09:37:00Z</time>
      </trkpt>
      <trkpt lat="48.2827310" lon="7.6119050">
        <ele>-265.8</ele>
        <time>2022-06-04T09:37:04Z</time>
      </trkpt>
      <trkpt lat="48.2827310" lon="7.6119050">
        <ele>-265.8</ele>
        <time>2022-06-04T09:37:08Z</time>
      </trkpt>
      <trkpt lat="48.2827310" lon="7.6119050">
        <ele>-265.6</ele>
        <time>2022-06-04T09:37:12Z</time>
      </trkpt>
      <trkpt lat="48.2827310" lon="7.6119050">
        <ele>-265.8</ele>
        <time>2022-06-04T09:37:16Z</time>
      </trkpt>
      <trkpt lat="48.2827310" lon="7.6119050">
        <ele>-265.6</ele>
        <time>2022-06-04T09:37:20Z</time>
      </trkpt>
      <trkpt lat="48.2827310" lon="7.6119050">
        <ele>-266.0</ele>
        <time>2022-06-04T09:37:24Z</time>
      </trkpt>
      <trkpt lat="48.2827310" lon="7.6119050">
        <ele>-265.8</ele>
        <time>2022-06-04T09:37:28Z</time>
      </trkpt>
      <trkpt lat="48.2827310" lon="7.6119050">
        <ele>-265.6</ele>
        <time>2022-06-04T09:37:32Z</time>
      </trkpt>
      <trkpt lat="48.2827310" lon="7.6119050">
        <ele>-265.6</ele>
        <time>2022-06-04T09:37:36Z</time>
      </trkpt>
      <trkpt lat="48.2827310" lon="7.6119050">
        <ele>-265.4</ele>
        <time>2022-06-04T09:37:40Z</time>
      </trkpt>
      <trkpt lat="48.2827310" lon="7.6119050">
        <ele>-265.8</ele>
        <time>2022-06-04T09:37:44Z</time>
      </trkpt>
      <trkpt lat="48.2827310" lon="7.6119050">
        <ele>-265.2</ele>
        <time>2022-06-04T09:37:48Z</time>
      </trkpt>
      <trkpt lat="48.2827310" lon="7.6119050">
        <ele>-265.6</ele>
        <time>2022-06-04T09:37:52Z</time>
      </trkpt>
      <trkpt lat="48.2828200" lon="7.6118910">
        <ele>-265.8</ele>
        <time>2022-06-04T09:37:56Z</time>
      </trkpt>
      <trkpt lat="48.2828450" lon="7.6118350">
        <ele>-265.6</ele>
        <time>2022-06-04T09:38:00Z</time>
      </trkpt>
      <trkpt lat="48.2828500" lon="7.6117700">
        <ele>-265.6</ele>
        <time>2022-06-04T09:38:04Z</time>
      </trkpt>
      <trkpt lat="48.2828550" lon="7.6117080">
        <ele>-266.0</ele>
        <time>2022-06-04T09:38:08Z</time>
      </trkpt>
      <trkpt lat="48.2828600" lon="7.6116460">
        <ele>-266.0</ele>
        <time>2022-06-04T09:38:12Z</time>
      </trkpt>
      <trkpt lat="48.2828660" lon="7.6115900">
        <ele>-266.2</ele>
        <time>2022-06-04T09:38:16Z</time>
      </trkpt>
      <trkpt lat="48.2828730" lon="7.6115310">
        <ele>-266.4</ele>
        <time>2022-06-04T09:38:20Z</time>
      </trkpt>
      <trkpt lat="48.2828730" lon="7.6115310">
        <ele>-266.2</ele>
        <time>2022-06-04T09:38:24Z</time>
      </trkpt>
      <trkpt lat="48.2828730" lon="7.6115310">
        <ele>-266.6</ele>
        <time>2022-06-04T09:38:28Z</time>
      </trkpt>
      <trkpt lat="48.2828730" lon="7.6115310">
        <ele>-266.4</ele>
        <time>2022-06-04T09:38:32Z</time>
      </trkpt>
      <trkpt lat="48.2828730" lon="7.6115310">
        <ele>-266.2</ele>
        <time>2022-06-04T09:38:36Z</time>
      </trkpt>
      <trkpt lat="48.2828730" lon="7.6115310">
        <ele>-266.6</ele>
        <time>2022-06-04T09:38:40Z</time>
      </trkpt>
      <trkpt lat="48.2828730" lon="7.6115310">
        <ele>-266.4</ele>
        <time>2022-06-04T09:38:44Z</time>
      </trkpt>
      <trkpt lat="48.2828730" lon="7.6115310">
        <ele>-266.4</ele>
        <time>2022-06-04T09:38:48Z</time>
      </trkpt>
      <trkpt lat="48.2828730" lon="7.6115310">
        <ele>-266.0</ele>
        <time>2022-06-04T09:38:52Z</time>
      </trkpt>
      <trkpt lat="48.2828730" lon="7.6115310">
        <ele>-266.4</ele>
        <time>2022-06-04T09:38:56Z</time>
      </trkpt>
      <trkpt lat="48.2828730" lon="7.6115310">
        <ele>-265.8</ele>
        <time>2022-06-04T09:39:00Z</time>
      </trkpt>
      <trkpt lat="48.2828730" lon="7.6115310">
        <ele>-266.0</ele>
        <time>2022-06-04T09:39:04Z</time>
      </trkpt>
      <trkpt lat="48.2828730" lon="7.6115310">
        <ele>-266.0</ele>
        <time>2022-06-04T09:39:08Z</time>
      </trkpt>
      <trkpt lat="48.2828730" lon="7.6115310">
        <ele>-266.0</ele>
        <time>2022-06-04T09:39:12Z</time>
      </trkpt>
      <trkpt lat="48.2828730" lon="7.6115310">
        <ele>-266.2</ele>
        <time>2022-06-04T09:39:16Z</time>
      </trkpt>
      <trkpt lat="48.2828730" lon="7.6115310">
        <ele>-266.2</ele>
        <time>2022-06-04T09:39:20Z</time>
      </trkpt>
      <trkpt lat="48.2828730" lon="7.6115310">
        <ele>-266.0</ele>
        <time>2022-06-04T09:39:24Z</time>
      </trkpt>
      <trkpt lat="48.2828730" lon="7.6115310">
        <ele>-266.0</ele>
        <time>2022-06-04T09:39:28Z</time>
      </trkpt>
      <trkpt lat="48.2828730" lon="7.6115310">
        <ele>-266.2</ele>
        <time>2022-06-04T09:39:32Z</time>
      </trkpt>
      <trkpt lat="48.2828730" lon="7.6115310">
        <ele>-266.2</ele>
        <time>2022-06-04T09:39:36Z</time>
      </trkpt>
      <trkpt lat="48.2828860" lon="7.6115080">
        <ele>-266.4</ele>
        <time>2022-06-04T09:39:40Z</time>
      </trkpt>
      <trkpt lat="48.2828980" lon="7.6115330">
        <ele>-266.0</ele>
        <time>2022-06-04T09:39:44Z</time>
      </trkpt>
      <trkpt lat="48.2828950" lon="7.6115500">
        <ele>-266.0</ele>
        <time>2022-06-04T09:39:48Z</time>
      </trkpt>
      <trkpt lat="48.2828900" lon="7.6116130">
        <ele>-266.0</ele>
        <time>2022-06-04T09:39:52Z</time>
      </trkpt>
      <trkpt lat="48.2828530" lon="7.6116530">
        <ele>-266.0</ele>
        <time>2022-06-04T09:39:56Z</time>
      </trkpt>
      <trkpt lat="48.2828030" lon="7.6116530">
        <ele>-265.2</ele>
        <time>2022-06-04T09:40:00Z</time>
      </trkpt>
      <trkpt lat="48.2827550" lon="7.6116460">
        <ele>-265.4</ele>
        <time>2022-06-04T09:40:04Z</time>
      </trkpt>
      <trkpt lat="48.2827260" lon="7.6116710">
        <ele>-265.6</ele>
        <time>2022-06-04T09:40:08Z</time>
      </trkpt>
      <trkpt lat="48.2827310" lon="7.6117650">
        <ele>-265.2</ele>
        <time>2022-06-04T09:40:12Z</time>
      </trkpt>
      <trkpt lat="48.2827480" lon="7.6118680">
        <ele>-265.6</ele>
        <time>2022-06-04T09:40:16Z</time>
      </trkpt>
      <trkpt lat="48.2828000" lon="7.6119430">
        <ele>-265.4</ele>
        <time>2022-06-04T09:40:20Z</time>
      </trkpt>
      <trkpt lat="48.2828000" lon="7.6120280">
        <ele>-265.8</ele>
        <time>2022-06-04T09:40:24Z</time>
      </trkpt>
      <trkpt lat="48.2827350" lon="7.6120900">
        <ele>-265.6</ele>
        <time>2022-06-04T09:40:28Z</time>
      </trkpt>
      <trkpt lat="48.2826650" lon="7.6121410">
        <ele>-265.4</ele>
        <time>2022-06-04T09:40:32Z</time>
      </trkpt>
      <trkpt lat="48.2826100" lon="7.6120800">
        <ele>-265.4</ele>
        <time>2022-06-04T09:40:36Z</time>
      </trkpt>
      <trkpt lat="48.2826030" lon="7.6119460">
        <ele>-265.4</ele>
        <time>2022-06-04T09:40:40Z</time>
      </trkpt>
      <trkpt lat="48.2826010" lon="7.6118000">
        <ele>-265.8</ele>
        <time>2022-06-04T09:40:44Z</time>
      </trkpt>
      <trkpt lat="48.2826150" lon="7.6116500">
        <ele>-266.0</ele>
        <time>2022-06-04T09:40:48Z</time>
      </trkpt>
      <trkpt lat="48.2826760" lon="7.6115730">
        <ele>-265.8</ele>
        <time>2022-06-04T09:40:52Z</time>
      </trkpt>
      <trkpt lat="48.2827360" lon="7.6116580">
        <ele>-265.8</ele>
        <time>2022-06-04T09:40:56Z</time>
      </trkpt>
      <trkpt lat="48.2827600" lon="7.6116760">
        <ele>-265.8</ele>
        <time>2022-06-04T09:41:00Z</time>
      </trkpt>
      <trkpt lat="48.2828600" lon="7.6116210">
        <ele>-266.2</ele>
        <time>2022-06-04T09:41:04Z</time>
      </trkpt>
      <trkpt lat="48.2828710" lon="7.6114730">
        <ele>-266.6</ele>
        <time>2022-06-04T09:41:08Z</time>
      </trkpt>
      <trkpt lat="48.2827880" lon="7.6114410">
        <ele>-266.6</ele>
        <time>2022-06-04T09:41:12Z</time>
      </trkpt>
      <trkpt lat="48.2826850" lon="7.6114060">
        <ele>-266.6</ele>
        <time>2022-06-04T09:41:16Z</time>
      </trkpt>
      <trkpt lat="48.2825900" lon="7.6114030">
        <ele>-266.4</ele>
        <time>2022-06-04T09:41:20Z</time>
      </trkpt>
      <trkpt lat="48.2825360" lon="7.6114130">
        <ele>-266.0</ele>
        <time>2022-06-04T09:41:24Z</time>
      </trkpt>
      <trkpt lat="48.2824900" lon="7.6113800">
        <ele>-266.0</ele>
        <time>2022-06-04T09:41:28Z</time>
      </trkpt>
      <trkpt lat="48.2824900" lon="7.6113800">
        <ele>-266.0</ele>
        <time>2022-06-04T09:41:32Z</time>
      </trkpt>
      <trkpt lat="48.2824900" lon="7.6113800">
        <ele>-266.6</ele>
        <time>2022-06-04T09:41:36Z</time>
      </trkpt>
      <trkpt lat="48.2824900" lon="7.6113800">
        <ele>-266.2</ele>
        <time>2022-06-04T09:41:40Z</time>
      </trkpt>
      <trkpt lat="48.2824900" lon="7.6113800">
        <ele>-266.2</ele>
        <time>2022-06-04T09:41:44Z</time>
      </trkpt>
      <trkpt lat="48.2824900" lon="7.6113800">
        <ele>-266.4</ele>
        <time>2022-06-04T09:41:48Z</time>
      </trkpt>
      <trkpt lat="48.2824730" lon="7.6113930">
        <ele>-267.0</ele>
        <time>2022-06-04T09:41:52Z</time>
      </trkpt>
      <trkpt lat="48.2824750" lon="7.6114550">
        <ele>-267.0</ele>
        <time>2022-06-04T09:41:56Z</time>
      </trkpt>
      <trkpt lat="48.2824710" lon="7.6115860">
        <ele>-266.2</ele>
        <time>2022-06-04T09:42:00Z</time>
      </trkpt>
      <trkpt lat="48.2824580" lon="7.6117730">
        <ele>-266.6</ele>
        <time>2022-06-04T09:42:04Z</time>
      </trkpt>
      <trkpt lat="48.2824310" lon="7.6119930">
        <ele>-266.2</ele>
        <time>2022-06-04T09:42:08Z</time>
      </trkpt>
      <trkpt lat="48.2823850" lon="7.6122360">
        <ele>-266.8</ele>
        <time>2022-06-04T09:42:12Z</time>
      </trkpt>
      <trkpt lat="48.2823280" lon="7.6124880">
        <ele>-266.4</ele>
        <time>2022-06-04T09:42:16Z</time>
      </trkpt>
      <trkpt lat="48.2822780" lon="7.6127430">
        <ele>-266.6</ele>
        <time>2022-06-04T09:42:20Z</time>
      </trkpt>
      <trkpt lat="48.2822480" lon="7.6129850">
        <ele>-265.6</ele>
        <time>2022-06-04T09:42:24Z</time>
      </trkpt>
      <trkpt lat="48.2821910" lon="7.6132280">
        <ele>-266.6</ele>
        <time>2022-06-04T09:42:28Z</time>
      </trkpt>
      <trkpt lat="48.2821250" lon="7.6134760">
        <ele>-266.0</ele>
        <time>2022-06-04T09:42:32Z</time>
      </trkpt>
      <trkpt lat="48.2820550" lon="7.6137360">
        <ele>-266.0</ele>
        <time>2022-06-04T09:42:36Z</time>
      </trkpt>
      <trkpt lat="48.2819960" lon="7.6139880">
        <ele>-266.2</ele>
        <time>2022-06-04T09:42:40Z</time>
      </trkpt>
      <trkpt lat="48.2819400" lon="7.6142450">
        <ele>-266.2</ele>
        <time>2022-06-04T09:42:44Z</time>
      </trkpt>
      <trkpt lat="48.2818750" lon="7.6144960">
        <ele>-266.2</ele>
        <time>2022-06-04T09:42:48Z</time>
      </trkpt>
      <trkpt lat="48.2818060" lon="7.6147400">
        <ele>-266.2</ele>
        <time>2022-06-04T09:42:52Z</time>
      </trkpt>
      <trkpt lat="48.2817460" lon="7.6149850">
        <ele>-265.4</ele>
        <time>2022-06-04T09:42:56Z</time>
      </trkpt>
      <trkpt lat="48.2816850" lon="7.6152350">
        <ele>-266.6</ele>
        <time>2022-06-04T09:43:00Z</time>
      </trkpt>
      <trkpt lat="48.2816130" lon="7.6154910">
        <ele>-266.2</ele>
        <time>2022-06-04T09:43:04Z</time>
      </trkpt>
      <trkpt lat="48.2815310" lon="7.6157560">
        <ele>-266.6</ele>
        <time>2022-06-04T09:43:08Z</time>
      </trkpt>
      <trkpt lat="48.2814560" lon="7.6160260">
        <ele>-266.2</ele>
        <time>2022-06-04T09:43:12Z</time>
      </trkpt>
      <trkpt lat="48.2813860" lon="7.6163000">
        <ele>-266.0</ele>
        <time>2022-06-04T09:43:16Z</time>
      </trkpt>
      <trkpt lat="48.2813260" lon="7.6165750">
        <ele>-266.2</ele>
        <time>2022-06-04T09:43:20Z</time>
      </trkpt>
      <trkpt lat="48.2812630" lon="7.6168550">
        <ele>-266.6</ele>
        <time>2022-06-04T09:43:24Z</time>
      </trkpt>
      <trkpt lat="48.2812080" lon="7.6171350">
        <ele>-266.8</ele>
        <time>2022-06-04T09:43:28Z</time>
      </trkpt>
      <trkpt lat="48.2811600" lon="7.6174100">
        <ele>-267.0</ele>
        <time>2022-06-04T09:43:32Z</time>
      </trkpt>
      <trkpt lat="48.2811210" lon="7.6176700">
        <ele>-266.6</ele>
        <time>2022-06-04T09:43:36Z</time>
      </trkpt>
      <trkpt lat="48.2810880" lon="7.6178910">
        <ele>-266.4</ele>
        <time>2022-06-04T09:43:40Z</time>
      </trkpt>
      <trkpt lat="48.2809760" lon="7.6179230">
        <ele>-266.8</ele>
        <time>2022-06-04T09:43:44Z</time>
      </trkpt>
      <trkpt lat="48.2808450" lon="7.6178180">
        <ele>-266.6</ele>
        <time>2022-06-04T09:43:48Z</time>
      </trkpt>
      <trkpt lat="48.2806960" lon="7.6177350">
        <ele>-266.4</ele>
        <time>2022-06-04T09:43:52Z</time>
      </trkpt>
      <trkpt lat="48.2805500" lon="7.6177480">
        <ele>-267.4</ele>
        <time>2022-06-04T09:43:56Z</time>
      </trkpt>
      <trkpt lat="48.2804960" lon="7.6180080">
        <ele>-267.2</ele>
        <time>2022-06-04T09:44:00Z</time>
      </trkpt>
      <trkpt lat="48.2804530" lon="7.6182900">
        <ele>-267.0</ele>
        <time>2022-06-04T09:44:04Z</time>
      </trkpt>
      <trkpt lat="48.2804010" lon="7.6185700">
        <ele>-267.4</ele>
        <time>2022-06-04T09:44:08Z</time>
      </trkpt>
      <trkpt lat="48.2803460" lon="7.6188430">
        <ele>-267.2</ele>
        <time>2022-06-04T09:44:12Z</time>
      </trkpt>
      <trkpt lat="48.2803010" lon="7.6190850">
        <ele>-267.6</ele>
        <time>2022-06-04T09:44:16Z</time>
      </trkpt>
      <trkpt lat="48.2802630" lon="7.6193030">
        <ele>-267.4</ele>
        <time>2022-06-04T09:44:20Z</time>
      </trkpt>
      <trkpt lat="48.2802110" lon="7.6195150">
        <ele>-266.0</ele>
        <time>2022-06-04T09:44:24Z</time>
      </trkpt>
      <trkpt lat="48.2801700" lon="7.6196410">
        <ele>-265.0</ele>
        <time>2022-06-04T09:44:28Z</time>
      </trkpt>
      <trkpt lat="48.2802050" lon="7.6197330">
        <ele>-265.0</ele>
        <time>2022-06-04T09:44:32Z</time>
      </trkpt>
      <trkpt lat="48.2803160" lon="7.6198210">
        <ele>-264.8</ele>
        <time>2022-06-04T09:44:36Z</time>
      </trkpt>
      <trkpt lat="48.2804300" lon="7.6199180">
        <ele>-264.6</ele>
        <time>2022-06-04T09:44:40Z</time>
      </trkpt>
      <trkpt lat="48.2805550" lon="7.6200260">
        <ele>-265.2</ele>
        <time>2022-06-04T09:44:44Z</time>
      </trkpt>
      <trkpt lat="48.2806880" lon="7.6201800">
        <ele>-265.2</ele>
        <time>2022-06-04T09:44:48Z</time>
      </trkpt>
      <trkpt lat="48.2808330" lon="7.6203030">
        <ele>-266.2</ele>
        <time>2022-06-04T09:44:52Z</time>
      </trkpt>
      <trkpt lat="48.2810110" lon="7.6204510">
        <ele>-267.0</ele>
        <time>2022-06-04T09:44:56Z</time>
      </trkpt>
      <trkpt lat="48.2812310" lon="7.6205210">
        <ele>-266.8</ele>
        <time>2022-06-04T09:45:00Z</time>
      </trkpt>
      <trkpt lat="48.2814330" lon="7.6206810">
        <ele>-266.2</ele>
        <time>2022-06-04T09:45:04Z</time>
      </trkpt>
      <trkpt lat="48.2816230" lon="7.6208400">
        <ele>-266.6</ele>
        <time>2022-06-04T09:45:08Z</time>
      </trkpt>
      <trkpt lat="48.2818100" lon="7.6209850">
        <ele>-267.4</ele>
        <time>2022-06-04T09:45:12Z</time>
      </trkpt>
      <trkpt lat="48.2819810" lon="7.6211210">
        <ele>-266.8</ele>
        <time>2022-06-04T09:45:16Z</time>
      </trkpt>
      <trkpt lat="48.2821500" lon="7.6212500">
        <ele>-267.0</ele>
        <time>2022-06-04T09:45:20Z</time>
      </trkpt>
      <trkpt lat="48.2823180" lon="7.6213850">
        <ele>-266.8</ele>
        <time>2022-06-04T09:45:24Z</time>
      </trkpt>
      <trkpt lat="48.2824900" lon="7.6215130">
        <ele>-267.0</ele>
        <time>2022-06-04T09:45:28Z</time>
      </trkpt>
      <trkpt lat="48.2826310" lon="7.6216230">
        <ele>-267.0</ele>
        <time>2022-06-04T09:45:32Z</time>
      </trkpt>
      <trkpt lat="48.2827900" lon="7.6217600">
        <ele>-267.0</ele>
        <time>2022-06-04T09:45:36Z</time>
      </trkpt>
      <trkpt lat="48.2829480" lon="7.6218800">
        <ele>-267.0</ele>
        <time>2022-06-04T09:45:40Z</time>
      </trkpt>
      <trkpt lat="48.2831180" lon="7.6220000">
        <ele>-267.2</ele>
        <time>2022-06-04T09:45:44Z</time>
      </trkpt>
      <trkpt lat="48.2832860" lon="7.6221230">
        <ele>-267.2</ele>
        <time>2022-06-04T09:45:48Z</time>
      </trkpt>
      <trkpt lat="48.2834550" lon="7.6222600">
        <ele>-267.2</ele>
        <time>2022-06-04T09:45:52Z</time>
      </trkpt>
      <trkpt lat="48.2836330" lon="7.6223860">
        <ele>-267.2</ele>
        <time>2022-06-04T09:45:56Z</time>
      </trkpt>
      <trkpt lat="48.2838010" lon="7.6225110">
        <ele>-266.8</ele>
        <time>2022-06-04T09:46:00Z</time>
      </trkpt>
      <trkpt lat="48.2839680" lon="7.6226480">
        <ele>-266.6</ele>
        <time>2022-06-04T09:46:04Z</time>
      </trkpt>
      <trkpt lat="48.2841460" lon="7.6227860">
        <ele>-267.4</ele>
        <time>2022-06-04T09:46:08Z</time>
      </trkpt>
      <trkpt lat="48.2843230" lon="7.6229200">
        <ele>-266.8</ele>
        <time>2022-06-04T09:46:12Z</time>
      </trkpt>
      <trkpt lat="48.2844980" lon="7.6230610">
        <ele>-266.6</ele>
        <time>2022-06-04T09:46:16Z</time>
      </trkpt>
      <trkpt lat="48.2846700" lon="7.6232000">
        <ele>-266.8</ele>
        <time>2022-06-04T09:46:20Z</time>
      </trkpt>
      <trkpt lat="48.2848460" lon="7.6233460">
        <ele>-267.0</ele>
        <time>2022-06-04T09:46:24Z</time>
      </trkpt>
      <trkpt lat="48.2850260" lon="7.6234680">
        <ele>-266.8</ele>
        <time>2022-06-04T09:46:28Z</time>
      </trkpt>
      <trkpt lat="48.2851950" lon="7.6236030">
        <ele>-267.0</ele>
        <time>2022-06-04T09:46:32Z</time>
      </trkpt>
      <trkpt lat="48.2853680" lon="7.6237360">
        <ele>-267.0</ele>
        <time>2022-06-04T09:46:36Z</time>
      </trkpt>
      <trkpt lat="48.2855380" lon="7.6238630">
        <ele>-267.0</ele>
        <time>2022-06-04T09:46:40Z</time>
      </trkpt>
      <trkpt lat="48.2857160" lon="7.6239980">
        <ele>-266.8</ele>
        <time>2022-06-04T09:46:44Z</time>
      </trkpt>
      <trkpt lat="48.2858850" lon="7.6241280">
        <ele>-266.8</ele>
        <time>2022-06-04T09:46:48Z</time>
      </trkpt>
      <trkpt lat="48.2860630" lon="7.6242530">
        <ele>-267.2</ele>
        <time>2022-06-04T09:46:52Z</time>
      </trkpt>
      <trkpt lat="48.2862410" lon="7.6243930">
        <ele>-267.4</ele>
        <time>2022-06-04T09:46:56Z</time>
      </trkpt>
      <trkpt lat="48.2864080" lon="7.6245260">
        <ele>-267.2</ele>
        <time>2022-06-04T09:47:00Z</time>
      </trkpt>
      <trkpt lat="48.2865810" lon="7.6246630">
        <ele>-267.4</ele>
        <time>2022-06-04T09:47:04Z</time>
      </trkpt>
      <trkpt lat="48.2867580" lon="7.6247930">
        <ele>-267.8</ele>
        <time>2022-06-04T09:47:08Z</time>
      </trkpt>
      <trkpt lat="48.2869350" lon="7.6249300">
        <ele>-267.2</ele>
        <time>2022-06-04T09:47:12Z</time>
      </trkpt>
      <trkpt lat="48.2871100" lon="7.6250660">
        <ele>-267.2</ele>
        <time>2022-06-04T09:47:16Z</time>
      </trkpt>
      <trkpt lat="48.2872860" lon="7.6252060">
        <ele>-267.2</ele>
        <time>2022-06-04T09:47:20Z</time>
      </trkpt>
      <trkpt lat="48.2874710" lon="7.6253410">
        <ele>-267.2</ele>
        <time>2022-06-04T09:47:24Z</time>
      </trkpt>
      <trkpt lat="48.2876550" lon="7.6254780">
        <ele>-267.0</ele>
        <time>2022-06-04T09:47:28Z</time>
      </trkpt>
      <trkpt lat="48.2878200" lon="7.6256210">
        <ele>-267.2</ele>
        <time>2022-06-04T09:47:32Z</time>
      </trkpt>
      <trkpt lat="48.2879930" lon="7.6257530">
        <ele>-267.4</ele>
        <time>2022-06-04T09:47:36Z</time>
      </trkpt>
      <trkpt lat="48.2881710" lon="7.6258900">
        <ele>-267.2</ele>
        <time>2022-06-04T09:47:40Z</time>
      </trkpt>
      <trkpt lat="48.2883630" lon="7.6260300">
        <ele>-267.4</ele>
        <time>2022-06-04T09:47:44Z</time>
      </trkpt>
      <trkpt lat="48.2885430" lon="7.6261730">
        <ele>-267.2</ele>
        <time>2022-06-04T09:47:48Z</time>
      </trkpt>
      <trkpt lat="48.2887260" lon="7.6263180">
        <ele>-267.2</ele>
        <time>2022-06-04T09:47:52Z</time>
      </trkpt>
      <trkpt lat="48.2889080" lon="7.6264560">
        <ele>-267.2</ele>
        <time>2022-06-04T09:47:56Z</time>
      </trkpt>
      <trkpt lat="48.2890880" lon="7.6266010">
        <ele>-267.0</ele>
        <time>2022-06-04T09:48:00Z</time>
      </trkpt>
      <trkpt lat="48.2892730" lon="7.6267360">
        <ele>-267.2</ele>
        <time>2022-06-04T09:48:04Z</time>
      </trkpt>
      <trkpt lat="48.2894560" lon="7.6268710">
        <ele>-267.0</ele>
        <time>2022-06-04T09:48:08Z</time>
      </trkpt>
      <trkpt lat="48.2896450" lon="7.6270180">
        <ele>-266.8</ele>
        <time>2022-06-04T09:48:12Z</time>
      </trkpt>
      <trkpt lat="48.2898280" lon="7.6271580">
        <ele>-267.4</ele>
        <time>2022-06-04T09:48:16Z</time>
      </trkpt>
      <trkpt lat="48.2900130" lon="7.6273050">
        <ele>-266.8</ele>
        <time>2022-06-04T09:48:20Z</time>
      </trkpt>
      <trkpt lat="48.2902000" lon="7.6274410">
        <ele>-267.4</ele>
        <time>2022-06-04T09:48:24Z</time>
      </trkpt>
      <trkpt lat="48.2903850" lon="7.6275780">
        <ele>-267.4</ele>
        <time>2022-06-04T09:48:28Z</time>
      </trkpt>
      <trkpt lat="48.2905630" lon="7.6277150">
        <ele>-266.8</ele>
        <time>2022-06-04T09:48:32Z</time>
      </trkpt>
      <trkpt lat="48.2907310" lon="7.6278480">
        <ele>-267.2</ele>
        <time>2022-06-04T09:48:36Z</time>
      </trkpt>
      <trkpt lat="48.2908960" lon="7.6279750">
        <ele>-267.0</ele>
        <time>2022-06-04T09:48:40Z</time>
      </trkpt>
      <trkpt lat="48.2910480" lon="7.6281050">
        <ele>-267.2</ele>
        <time>2022-06-04T09:48:44Z</time>
      </trkpt>
      <trkpt lat="48.2912080" lon="7.6282300">
        <ele>-267.2</ele>
        <time>2022-06-04T09:48:48Z</time>
      </trkpt>
      <trkpt lat="48.2913630" lon="7.6283400">
        <ele>-267.4</ele>
        <time>2022-06-04T09:48:52Z</time>
      </trkpt>
      <trkpt lat="48.2915510" lon="7.6284930">
        <ele>-267.4</ele>
        <time>2022-06-04T09:48:56Z</time>
      </trkpt>
      <trkpt lat="48.2917250" lon="7.6286300">
        <ele>-267.2</ele>
        <time>2022-06-04T09:49:00Z</time>
      </trkpt>
      <trkpt lat="48.2919000" lon="7.6287500">
        <ele>-267.4</ele>
        <time>2022-06-04T09:49:04Z</time>
      </trkpt>
      <trkpt lat="48.2920650" lon="7.6288760">
        <ele>-267.2</ele>
        <time>2022-06-04T09:49:08Z</time>
      </trkpt>
      <trkpt lat="48.2922400" lon="7.6290080">
        <ele>-266.8</ele>
        <time>2022-06-04T09:49:12Z</time>
      </trkpt>
      <trkpt lat="48.2924130" lon="7.6291480">
        <ele>-267.2</ele>
        <time>2022-06-04T09:49:16Z</time>
      </trkpt>
      <trkpt lat="48.2925930" lon="7.6292800">
        <ele>-267.0</ele>
        <time>2022-06-04T09:49:20Z</time>
      </trkpt>
      <trkpt lat="48.2927560" lon="7.6294010">
        <ele>-267.6</ele>
        <time>2022-06-04T09:49:24Z</time>
      </trkpt>
      <trkpt lat="48.2929280" lon="7.6295600">
        <ele>-267.4</ele>
        <time>2022-06-04T09:49:28Z</time>
      </trkpt>
      <trkpt lat="48.2931150" lon="7.6297000">
        <ele>-267.4</ele>
        <time>2022-06-04T09:49:32Z</time>
      </trkpt>
      <trkpt lat="48.2932860" lon="7.6298400">
        <ele>-267.4</ele>
        <time>2022-06-04T09:49:36Z</time>
      </trkpt>
      <trkpt lat="48.2934650" lon="7.6299760">
        <ele>-268.2</ele>
        <time>2022-06-04T09:49:40Z</time>
      </trkpt>
      <trkpt lat="48.2936380" lon="7.6301030">
        <ele>-267.6</ele>
        <time>2022-06-04T09:49:44Z</time>
      </trkpt>
      <trkpt lat="48.2938180" lon="7.6302400">
        <ele>-267.2</ele>
        <time>2022-06-04T09:49:48Z</time>
      </trkpt>
      <trkpt lat="48.2939860" lon="7.6303730">
        <ele>-267.2</ele>
        <time>2022-06-04T09:49:52Z</time>
      </trkpt>
      <trkpt lat="48.2941780" lon="7.6305150">
        <ele>-267.2</ele>
        <time>2022-06-04T09:49:56Z</time>
      </trkpt>
      <trkpt lat="48.2943550" lon="7.6306610">
        <ele>-267.8</ele>
        <time>2022-06-04T09:50:00Z</time>
      </trkpt>
      <trkpt lat="48.2945400" lon="7.6308050">
        <ele>-267.8</ele>
        <time>2022-06-04T09:50:04Z</time>
      </trkpt>
      <trkpt lat="48.2947260" lon="7.6309400">
        <ele>-267.4</ele>
        <time>2022-06-04T09:50:08Z</time>
      </trkpt>
      <trkpt lat="48.2949110" lon="7.6310830">
        <ele>-267.4</ele>
        <time>2022-06-04T09:50:12Z</time>
      </trkpt>
      <trkpt lat="48.2950860" lon="7.6312180">
        <ele>-267.2</ele>
        <time>2022-06-04T09:50:16Z</time>
      </trkpt>
      <trkpt lat="48.2952510" lon="7.6313450">
        <ele>-266.8</ele>
        <time>2022-06-04T09:50:20Z</time>
      </trkpt>
      <trkpt lat="48.2954250" lon="7.6314880">
        <ele>-267.0</ele>
        <time>2022-06-04T09:50:24Z</time>
      </trkpt>
      <trkpt lat="48.2955900" lon="7.6315880">
        <ele>-267.2</ele>
        <time>2022-06-04T09:50:28Z</time>
      </trkpt>
      <trkpt lat="48.2957060" lon="7.6316760">
        <ele>-267.2</ele>
        <time>2022-06-04T09:50:32Z</time>
      </trkpt>
      <trkpt lat="48.2957060" lon="7.6316760">
        <ele>-267.0</ele>
        <time>2022-06-04T09:50:36Z</time>
      </trkpt>
      <trkpt lat="48.2957060" lon="7.6316760">
        <ele>-267.2</ele>
        <time>2022-06-04T09:50:40Z</time>
      </trkpt>
      <trkpt lat="48.2957060" lon="7.6316760">
        <ele>-267.6</ele>
        <time>2022-06-04T09:50:44Z</time>
      </trkpt>
      <trkpt lat="48.2957060" lon="7.6316760">
        <ele>-267.2</ele>
        <time>2022-06-04T09:50:48Z</time>
      </trkpt>
      <trkpt lat="48.2957060" lon="7.6316760">
        <ele>-267.4</ele>
        <time>2022-06-04T09:50:52Z</time>
      </trkpt>
      <trkpt lat="48.2957060" lon="7.6316760">
        <ele>-267.0</ele>
        <time>2022-06-04T09:50:56Z</time>
      </trkpt>
      <trkpt lat="48.2957060" lon="7.6316760">
        <ele>-267.2</ele>
        <time>2022-06-04T09:51:00Z</time>
      </trkpt>
      <trkpt lat="48.2957060" lon="7.6316760">
        <ele>-267.0</ele>
        <time>2022-06-04T09:51:04Z</time>
      </trkpt>
      <trkpt lat="48.2957060" lon="7.6316760">
        <ele>-267.4</ele>
        <time>2022-06-04T09:51:08Z</time>
      </trkpt>
      <trkpt lat="48.2957060" lon="7.6316760">
        <ele>-267.2</ele>
        <time>2022-06-04T09:51:12Z</time>
      </trkpt>
      <trkpt lat="48.2957060" lon="7.6316760">
        <ele>-267.2</ele>
        <time>2022-06-04T09:51:16Z</time>
      </trkpt>
      <trkpt lat="48.2957060" lon="7.6316760">
        <ele>-267.2</ele>
        <time>2022-06-04T09:51:20Z</time>
      </trkpt>
      <trkpt lat="48.2958750" lon="7.6317180">
        <ele>-266.8</ele>
        <time>2022-06-04T09:51:24Z</time>
      </trkpt>
      <trkpt lat="48.2959160" lon="7.6317700">
        <ele>-267.4</ele>
        <time>2022-06-04T09:51:28Z</time>
      </trkpt>
      <trkpt lat="48.2959680" lon="7.6318330">
        <ele>-267.2</ele>
        <time>2022-06-04T09:51:32Z</time>
      </trkpt>
      <trkpt lat="48.2960430" lon="7.6319010">
        <ele>-267.2</ele>
        <time>2022-06-04T09:51:36Z</time>
      </trkpt>
      <trkpt lat="48.2961530" lon="7.6319880">
        <ele>-266.8</ele>
        <time>2022-06-04T09:51:40Z</time>
      </trkpt>
      <trkpt lat="48.2962900" lon="7.6320980">
        <ele>-267.0</ele>
        <time>2022-06-04T09:51:44Z</time>
      </trkpt>
      <trkpt lat="48.2964350" lon="7.6322030">
        <ele>-267.4</ele>
        <time>2022-06-04T09:51:48Z</time>
      </trkpt>
      <trkpt lat="48.2965880" lon="7.6323180">
        <ele>-267.2</ele>
        <time>2022-06-04T09:51:52Z</time>
      </trkpt>
      <trkpt lat="48.2967530" lon="7.6324460">
        <ele>-266.6</ele>
        <time>2022-06-04T09:51:56Z</time>
      </trkpt>
      <trkpt lat="48.2969150" lon="7.6325800">
        <ele>-267.2</ele>
        <time>2022-06-04T09:52:00Z</time>
      </trkpt>
      <trkpt lat="48.2970760" lon="7.6327030">
        <ele>-267.4</ele>
        <time>2022-06-04T09:52:04Z</time>
      </trkpt>
      <trkpt lat="48.2972280" lon="7.6328480">
        <ele>-267.6</ele>
        <time>2022-06-04T09:52:08Z</time>
      </trkpt>
      <trkpt lat="48.2973780" lon="7.6329750">
        <ele>-267.4</ele>
        <time>2022-06-04T09:52:12Z</time>
      </trkpt>
      <trkpt lat="48.2975530" lon="7.6330950">
        <ele>-267.2</ele>
        <time>2022-06-04T09:52:16Z</time>
      </trkpt>
      <trkpt lat="48.2977150" lon="7.6332100">
        <ele>-267.4</ele>
        <time>2022-06-04T09:52:20Z</time>
      </trkpt>
      <trkpt lat="48.2978550" lon="7.6333230">
        <ele>-267.6</ele>
        <time>2022-06-04T09:52:24Z</time>
      </trkpt>
      <trkpt lat="48.2979830" lon="7.6334130">
        <ele>-267.0</ele>
        <time>2022-06-04T09:52:28Z</time>
      </trkpt>
      <trkpt lat="48.2981210" lon="7.6335280">
        <ele>-267.4</ele>
        <time>2022-06-04T09:52:32Z</time>
      </trkpt>
      <trkpt lat="48.2982630" lon="7.6336510">
        <ele>-267.2</ele>
        <time>2022-06-04T09:52:36Z</time>
      </trkpt>
      <trkpt lat="48.2984360" lon="7.6337700">
        <ele>-267.6</ele>
        <time>2022-06-04T09:52:40Z</time>
      </trkpt>
      <trkpt lat="48.2986110" lon="7.6339100">
        <ele>-266.6</ele>
        <time>2022-06-04T09:52:44Z</time>
      </trkpt>
      <trkpt lat="48.2987810" lon="7.6340400">
        <ele>-267.6</ele>
        <time>2022-06-04T09:52:48Z</time>
      </trkpt>
      <trkpt lat="48.2989460" lon="7.6341730">
        <ele>-267.4</ele>
        <time>2022-06-04T09:52:52Z</time>
      </trkpt>
      <trkpt lat="48.2991110" lon="7.6343110">
        <ele>-267.6</ele>
        <time>2022-06-04T09:52:56Z</time>
      </trkpt>
      <trkpt lat="48.2992960" lon="7.6344260">
        <ele>-267.4</ele>
        <time>2022-06-04T09:53:00Z</time>
      </trkpt>
      <trkpt lat="48.2994730" lon="7.6345630">
        <ele>-267.4</ele>
        <time>2022-06-04T09:53:04Z</time>
      </trkpt>
      <trkpt lat="48.2996500" lon="7.6346960">
        <ele>-267.4</ele>
        <time>2022-06-04T09:53:08Z</time>
      </trkpt>
      <trkpt lat="48.2998180" lon="7.6348160">
        <ele>-268.0</ele>
        <time>2022-06-04T09:53:12Z</time>
      </trkpt>
      <trkpt lat="48.2999850" lon="7.6349630">
        <ele>-268.0</ele>
        <time>2022-06-04T09:53:16Z</time>
      </trkpt>
      <trkpt lat="48.3001610" lon="7.6351050">
        <ele>-268.2</ele>
        <time>2022-06-04T09:53:20Z</time>
      </trkpt>
      <trkpt lat="48.3003330" lon="7.6352230">
        <ele>-267.6</ele>
        <time>2022-06-04T09:53:24Z</time>
      </trkpt>
      <trkpt lat="48.3005130" lon="7.6353430">
        <ele>-268.2</ele>
        <time>2022-06-04T09:53:28Z</time>
      </trkpt>
      <trkpt lat="48.3006980" lon="7.6354760">
        <ele>-267.8</ele>
        <time>2022-06-04T09:53:32Z</time>
      </trkpt>
      <trkpt lat="48.3008830" lon="7.6356210">
        <ele>-267.8</ele>
        <time>2022-06-04T09:53:36Z</time>
      </trkpt>
      <trkpt lat="48.3010830" lon="7.6357800">
        <ele>-267.8</ele>
        <time>2022-06-04T09:53:40Z</time>
      </trkpt>
      <trkpt lat="48.3012680" lon="7.6359310">
        <ele>-267.8</ele>
        <time>2022-06-04T09:53:44Z</time>
      </trkpt>
      <trkpt lat="48.3014560" lon="7.6360800">
        <ele>-267.6</ele>
        <time>2022-06-04T09:53:48Z</time>
      </trkpt>
      <trkpt lat="48.3016410" lon="7.6362210">
        <ele>-268.0</ele>
        <time>2022-06-04T09:53:52Z</time>
      </trkpt>
      <trkpt lat="48.3018200" lon="7.6363580">
        <ele>-267.8</ele>
        <time>2022-06-04T09:53:56Z</time>
      </trkpt>
      <trkpt lat="48.3020080" lon="7.6364930">
        <ele>-268.0</ele>
        <time>2022-06-04T09:54:00Z</time>
      </trkpt>
      <trkpt lat="48.3021910" lon="7.6366280">
        <ele>-268.2</ele>
        <time>2022-06-04T09:54:04Z</time>
      </trkpt>
      <trkpt lat="48.3023810" lon="7.6367580">
        <ele>-267.6</ele>
        <time>2022-06-04T09:54:08Z</time>
      </trkpt>
      <trkpt lat="48.3025680" lon="7.6368760">
        <ele>-267.4</ele>
        <time>2022-06-04T09:54:12Z</time>
      </trkpt>
      <trkpt lat="48.3027610" lon="7.6369980">
        <ele>-268.0</ele>
        <time>2022-06-04T09:54:16Z</time>
      </trkpt>
      <trkpt lat="48.3029610" lon="7.6371410">
        <ele>-267.8</ele>
        <time>2022-06-04T09:54:20Z</time>
      </trkpt>
      <trkpt lat="48.3031380" lon="7.6372960">
        <ele>-268.0</ele>
        <time>2022-06-04T09:54:24Z</time>
      </trkpt>
      <trkpt lat="48.3033210" lon="7.6374610">
        <ele>-268.2</ele>
        <time>2022-06-04T09:54:28Z</time>
      </trkpt>
      <trkpt lat="48.3035060" lon="7.6376250">
        <ele>-268.0</ele>
        <time>2022-06-04T09:54:32Z</time>
      </trkpt>
      <trkpt lat="48.3036900" lon="7.6377730">
        <ele>-267.6</ele>
        <time>2022-06-04T09:54:36Z</time>
      </trkpt>
      <trkpt lat="48.3038760" lon="7.6379100">
        <ele>-267.8</ele>
        <time>2022-06-04T09:54:40Z</time>
      </trkpt>
      <trkpt lat="48.3040550" lon="7.6380500">
        <ele>-267.4</ele>
        <time>2022-06-04T09:54:44Z</time>
      </trkpt>
      <trkpt lat="48.3042380" lon="7.6381930">
        <ele>-268.0</ele>
        <time>2022-06-04T09:54:48Z</time>
      </trkpt>
      <trkpt lat="48.3044130" lon="7.6383430">
        <ele>-268.0</ele>
        <time>2022-06-04T09:54:52Z</time>
      </trkpt>
      <trkpt lat="48.3045950" lon="7.6384780">
        <ele>-267.8</ele>
        <time>2022-06-04T09:54:56Z</time>
      </trkpt>
      <trkpt lat="48.3047550" lon="7.6386150">
        <ele>-267.6</ele>
        <time>2022-06-04T09:55:00Z</time>
      </trkpt>
      <trkpt lat="48.3049160" lon="7.6387550">
        <ele>-267.6</ele>
        <time>2022-06-04T09:55:04Z</time>
      </trkpt>
      <trkpt lat="48.3050850" lon="7.6388880">
        <ele>-268.0</ele>
        <time>2022-06-04T09:55:08Z</time>
      </trkpt>
      <trkpt lat="48.3052410" lon="7.6390580">
        <ele>-267.4</ele>
        <time>2022-06-04T09:55:12Z</time>
      </trkpt>
      <trkpt lat="48.3054130" lon="7.6392060">
        <ele>-268.8</ele>
        <time>2022-06-04T09:55:16Z</time>
      </trkpt>
      <trkpt lat="48.3056150" lon="7.6393480">
        <ele>-268.8</ele>
        <time>2022-06-04T09:55:20Z</time>
      </trkpt>
      <trkpt lat="48.3058280" lon="7.6394600">
        <ele>-269.4</ele>
        <time>2022-06-04T09:55:24Z</time>
      </trkpt>
      <trkpt lat="48.3060380" lon="7.6396050">
        <ele>-269.8</ele>
        <time>2022-06-04T09:55:28Z</time>
      </trkpt>
      <trkpt lat="48.3062500" lon="7.6397600">
        <ele>-270.0</ele>
        <time>2022-06-04T09:55:32Z</time>
      </trkpt>
      <trkpt lat="48.3064480" lon="7.6399130">
        <ele>-270.0</ele>
        <time>2022-06-04T09:55:36Z</time>
      </trkpt>
      <trkpt lat="48.3066510" lon="7.6400760">
        <ele>-269.8</ele>
        <time>2022-06-04T09:55:40Z</time>
      </trkpt>
      <trkpt lat="48.3068460" lon="7.6402330">
        <ele>-269.4</ele>
        <time>2022-06-04T09:55:44Z</time>
      </trkpt>
      <trkpt lat="48.3070450" lon="7.6403760">
        <ele>-269.8</ele>
        <time>2022-06-04T09:55:48Z</time>
      </trkpt>
      <trkpt lat="48.3072430" lon="7.6405310">
        <ele>-269.4</ele>
        <time>2022-06-04T09:55:52Z</time>
      </trkpt>
      <trkpt lat="48.3074410" lon="7.6406930">
        <ele>-270.0</ele>
        <time>2022-06-04T09:55:56Z</time>
      </trkpt>
      <trkpt lat="48.3076180" lon="7.6408410">
        <ele>-270.0</ele>
        <time>2022-06-04T09:56:00Z</time>
      </trkpt>
      <trkpt lat="48.3077860" lon="7.6409810">
        <ele>-270.4</ele>
        <time>2022-06-04T09:56:04Z</time>
      </trkpt>
      <trkpt lat="48.3079510" lon="7.6411210">
        <ele>-270.0</ele>
        <time>2022-06-04T09:56:08Z</time>
      </trkpt>
      <trkpt lat="48.3081310" lon="7.6412730">
        <ele>-269.8</ele>
        <time>2022-06-04T09:56:12Z</time>
      </trkpt>
      <trkpt lat="48.3083260" lon="7.6414360">
        <ele>-269.8</ele>
        <time>2022-06-04T09:56:16Z</time>
      </trkpt>
      <trkpt lat="48.3085180" lon="7.6415860">
        <ele>-269.2</ele>
        <time>2022-06-04T09:56:20Z</time>
      </trkpt>
      <trkpt lat="48.3087160" lon="7.6417250">
        <ele>-269.0</ele>
        <time>2022-06-04T09:56:24Z</time>
      </trkpt>
      <trkpt lat="48.3089050" lon="7.6418800">
        <ele>-269.0</ele>
        <time>2022-06-04T09:56:28Z</time>
      </trkpt>
      <trkpt lat="48.3091000" lon="7.6420280">
        <ele>-269.6</ele>
        <time>2022-06-04T09:56:32Z</time>
      </trkpt>
      <trkpt lat="48.3092900" lon="7.6421730">
        <ele>-269.4</ele>
        <time>2022-06-04T09:56:36Z</time>
      </trkpt>
      <trkpt lat="48.3094900" lon="7.6423180">
        <ele>-270.0</ele>
        <time>2022-06-04T09:56:40Z</time>
      </trkpt>
      <trkpt lat="48.3096760" lon="7.6424560">
        <ele>-269.4</ele>
        <time>2022-06-04T09:56:44Z</time>
      </trkpt>
      <trkpt lat="48.3098500" lon="7.6426010">
        <ele>-269.8</ele>
        <time>2022-06-04T09:56:48Z</time>
      </trkpt>
      <trkpt lat="48.3100400" lon="7.6427480">
        <ele>-270.4</ele>
        <time>2022-06-04T09:56:52Z</time>
      </trkpt>
      <trkpt lat="48.3102210" lon="7.6428830">
        <ele>-270.2</ele>
        <time>2022-06-04T09:56:56Z</time>
      </trkpt>
      <trkpt lat="48.3104080" lon="7.6430200">
        <ele>-270.6</ele>
        <time>2022-06-04T09:57:00Z</time>
      </trkpt>
      <trkpt lat="48.3105980" lon="7.6431610">
        <ele>-270.4</ele>
        <time>2022-06-04T09:57:04Z</time>
      </trkpt>
      <trkpt lat="48.3108030" lon="7.6433080">
        <ele>-270.6</ele>
        <time>2022-06-04T09:57:08Z</time>
      </trkpt>
      <trkpt lat="48.3109850" lon="7.6434400">
        <ele>-270.2</ele>
        <time>2022-06-04T09:57:12Z</time>
      </trkpt>
      <trkpt lat="48.3111560" lon="7.6435680">
        <ele>-270.2</ele>
        <time>2022-06-04T09:57:16Z</time>
      </trkpt>
      <trkpt lat="48.3113260" lon="7.6436950">
        <ele>-270.0</ele>
        <time>2022-06-04T09:57:20Z</time>
      </trkpt>
      <trkpt lat="48.3115010" lon="7.6438180">
        <ele>-270.0</ele>
        <time>2022-06-04T09:57:24Z</time>
      </trkpt>
      <trkpt lat="48.3116780" lon="7.6439560">
        <ele>-270.2</ele>
        <time>2022-06-04T09:57:28Z</time>
      </trkpt>
      <trkpt lat="48.3118580" lon="7.6440950">
        <ele>-270.4</ele>
        <time>2022-06-04T09:57:32Z</time>
      </trkpt>
      <trkpt lat="48.3120550" lon="7.6442510">
        <ele>-270.4</ele>
        <time>2022-06-04T09:57:36Z</time>
      </trkpt>
      <trkpt lat="48.3122460" lon="7.6444050">
        <ele>-270.6</ele>
        <time>2022-06-04T09:57:40Z</time>
      </trkpt>
      <trkpt lat="48.3124130" lon="7.6445560">
        <ele>-270.4</ele>
        <time>2022-06-04T09:57:44Z</time>
      </trkpt>
      <trkpt lat="48.3125850" lon="7.6447280">
        <ele>-270.6</ele>
        <time>2022-06-04T09:57:48Z</time>
      </trkpt>
      <trkpt lat="48.3127930" lon="7.6448780">
        <ele>-270.2</ele>
        <time>2022-06-04T09:57:52Z</time>
      </trkpt>
      <trkpt lat="48.3130000" lon="7.6450210">
        <ele>-270.4</ele>
        <time>2022-06-04T09:57:56Z</time>
      </trkpt>
      <trkpt lat="48.3131910" lon="7.6451650">
        <ele>-270.0</ele>
        <time>2022-06-04T09:58:00Z</time>
      </trkpt>
      <trkpt lat="48.3133800" lon="7.6453050">
        <ele>-270.4</ele>
        <time>2022-06-04T09:58:04Z</time>
      </trkpt>
      <trkpt lat="48.3135680" lon="7.6454510">
        <ele>-270.4</ele>
        <time>2022-06-04T09:58:08Z</time>
      </trkpt>
      <trkpt lat="48.3137550" lon="7.6456000">
        <ele>-270.2</ele>
        <time>2022-06-04T09:58:12Z</time>
      </trkpt>
      <trkpt lat="48.3139560" lon="7.6457500">
        <ele>-270.2</ele>
        <time>2022-06-04T09:58:16Z</time>
      </trkpt>
      <trkpt lat="48.3141500" lon="7.6459050">
        <ele>-270.0</ele>
        <time>2022-06-04T09:58:20Z</time>
      </trkpt>
      <trkpt lat="48.3143430" lon="7.6460500">
        <ele>-270.2</ele>
        <time>2022-06-04T09:58:24Z</time>
      </trkpt>
      <trkpt lat="48.3145280" lon="7.6461810">
        <ele>-270.2</ele>
        <time>2022-06-04T09:58:28Z</time>
      </trkpt>
      <trkpt lat="48.3147180" lon="7.6463260">
        <ele>-270.4</ele>
        <time>2022-06-04T09:58:32Z</time>
      </trkpt>
      <trkpt lat="48.3149050" lon="7.6464650">
        <ele>-269.8</ele>
        <time>2022-06-04T09:58:36Z</time>
      </trkpt>
      <trkpt lat="48.3150880" lon="7.6466060">
        <ele>-270.4</ele>
        <time>2022-06-04T09:58:40Z</time>
      </trkpt>
      <trkpt lat="48.3152830" lon="7.6467530">
        <ele>-270.2</ele>
        <time>2022-06-04T09:58:44Z</time>
      </trkpt>
      <trkpt lat="48.3154850" lon="7.6469030">
        <ele>-270.2</ele>
        <time>2022-06-04T09:58:48Z</time>
      </trkpt>
      <trkpt lat="48.3156830" lon="7.6470500">
        <ele>-270.2</ele>
        <time>2022-06-04T09:58:52Z</time>
      </trkpt>
      <trkpt lat="48.3158810" lon="7.6471980">
        <ele>-270.4</ele>
        <time>2022-06-04T09:58:56Z</time>
      </trkpt>
      <trkpt lat="48.3160850" lon="7.6473410">
        <ele>-270.2</ele>
        <time>2022-06-04T09:59:00Z</time>
      </trkpt>
      <trkpt lat="48.3162750" lon="7.6474880">
        <ele>-270.0</ele>
        <time>2022-06-04T09:59:04Z</time>
      </trkpt>
      <trkpt lat="48.3164580" lon="7.6476200">
        <ele>-270.4</ele>
        <time>2022-06-04T09:59:08Z</time>
      </trkpt>
      <trkpt lat="48.3166500" lon="7.6477580">
        <ele>-270.2</ele>
        <time>2022-06-04T09:59:12Z</time>
      </trkpt>
      <trkpt lat="48.3168430" lon="7.6479000">
        <ele>-270.2</ele>
        <time>2022-06-04T09:59:16Z</time>
      </trkpt>
      <trkpt lat="48.3170210" lon="7.6480480">
        <ele>-270.4</ele>
        <time>2022-06-04T09:59:20Z</time>
      </trkpt>
      <trkpt lat="48.3171980" lon="7.6481700">
        <ele>-270.4</ele>
        <time>2022-06-04T09:59:24Z</time>
      </trkpt>
      <trkpt lat="48.3173710" lon="7.6483000">
        <ele>-270.6</ele>
        <time>2022-06-04T09:59:28Z</time>
      </trkpt>
      <trkpt lat="48.3175360" lon="7.6484330">
        <ele>-271.2</ele>
        <time>2022-06-04T09:59:32Z</time>
      </trkpt>
      <trkpt lat="48.3177200" lon="7.6485610">
        <ele>-270.2</ele>
        <time>2022-06-04T09:59:36Z</time>
      </trkpt>
      <trkpt lat="48.3178930" lon="7.6486750">
        <ele>-270.2</ele>
        <time>2022-06-04T09:59:40Z</time>
      </trkpt>
      <trkpt lat="48.3180610" lon="7.6487900">
        <ele>-270.4</ele>
        <time>2022-06-04T09:59:44Z</time>
      </trkpt>
      <trkpt lat="48.3182130" lon="7.6489150">
        <ele>-270.4</ele>
        <time>2022-06-04T09:59:48Z</time>
      </trkpt>
      <trkpt lat="48.3183610" lon="7.6490250">
        <ele>-270.4</ele>
        <time>2022-06-04T09:59:52Z</time>
      </trkpt>
      <trkpt lat="48.3185310" lon="7.6491550">
        <ele>-270.4</ele>
        <time>2022-06-04T09:59:56Z</time>
      </trkpt>
      <trkpt lat="48.3187000" lon="7.6493030">
        <ele>-270.8</ele>
        <time>2022-06-04T10:00:00Z</time>
      </trkpt>
      <trkpt lat="48.3188750" lon="7.6494700">
        <ele>-270.8</ele>
        <time>2022-06-04T10:00:04Z</time>
      </trkpt>
      <trkpt lat="48.3190100" lon="7.6496650">
        <ele>-270.4</ele>
        <time>2022-06-04T10:00:08Z</time>
      </trkpt>
      <trkpt lat="48.3191030" lon="7.6497560">
        <ele>-270.6</ele>
        <time>2022-06-04T10:00:12Z</time>
      </trkpt>
      <trkpt lat="48.3191210" lon="7.6497660">
        <ele>-270.4</ele>
        <time>2022-06-04T10:00:16Z</time>
      </trkpt>
      <trkpt lat="48.3191280" lon="7.6497450">
        <ele>-270.6</ele>
        <time>2022-06-04T10:00:20Z</time>
      </trkpt>
      <trkpt lat="48.3190830" lon="7.6497280">
        <ele>-270.0</ele>
        <time>2022-06-04T10:00:24Z</time>
      </trkpt>
      <trkpt lat="48.3191050" lon="7.6496860">
        <ele>-270.4</ele>
        <time>2022-06-04T10:00:28Z</time>
      </trkpt>
      <trkpt lat="48.3192130" lon="7.6497500">
        <ele>-270.0</ele>
        <time>2022-06-04T10:00:32Z</time>
      </trkpt>
      <trkpt lat="48.3193200" lon="7.6498000">
        <ele>-268.8</ele>
        <time>2022-06-04T10:00:36Z</time>
      </trkpt>
      <trkpt lat="48.3194010" lon="7.6498260">
        <ele>-268.2</ele>
        <time>2022-06-04T10:00:40Z</time>
      </trkpt>
      <trkpt lat="48.3194300" lon="7.6499110">
        <ele>-267.6</ele>
        <time>2022-06-04T10:00:44Z</time>
      </trkpt>
      <trkpt lat="48.3194080" lon="7.6500250">
        <ele>-267.8</ele>
        <time>2022-06-04T10:00:48Z</time>
      </trkpt>
      <trkpt lat="48.3193850" lon="7.6501210">
        <ele>-267.8</ele>
        <time>2022-06-04T10:00:52Z</time>
      </trkpt>
      <trkpt lat="48.3193530" lon="7.6502210">
        <ele>-268.2</ele>
        <time>2022-06-04T10:00:56Z</time>
      </trkpt>
      <trkpt lat="48.3193860" lon="7.6502830">
        <ele>-268.4</ele>
        <time>2022-06-04T10:01:00Z</time>
      </trkpt>
      <trkpt lat="48.3195280" lon="7.6503360">
        <ele>-270.6</ele>
        <time>2022-06-04T10:01:04Z</time>
      </trkpt>
      <trkpt lat="48.3197500" lon="7.6504810">
        <ele>-272.2</ele>
        <time>2022-06-04T10:01:08Z</time>
      </trkpt>
      <trkpt lat="48.3199680" lon="7.6506530">
        <ele>-272.6</ele>
        <time>2022-06-04T10:01:12Z</time>
      </trkpt>
      <trkpt lat="48.3201630" lon="7.6508160">
        <ele>-272.4</ele>
        <time>2022-06-04T10:01:16Z</time>
      </trkpt>
      <trkpt lat="48.3203600" lon="7.6509680">
        <ele>-272.8</ele>
        <time>2022-06-04T10:01:20Z</time>
      </trkpt>
      <trkpt lat="48.3205460" lon="7.6511110">
        <ele>-272.8</ele>
        <time>2022-06-04T10:01:24Z</time>
      </trkpt>
      <trkpt lat="48.3207350" lon="7.6512560">
        <ele>-272.8</ele>
        <time>2022-06-04T10:01:28Z</time>
      </trkpt>
      <trkpt lat="48.3209160" lon="7.6514050">
        <ele>-272.2</ele>
        <time>2022-06-04T10:01:32Z</time>
      </trkpt>
      <trkpt lat="48.3210930" lon="7.6515400">
        <ele>-272.2</ele>
        <time>2022-06-04T10:01:36Z</time>
      </trkpt>
      <trkpt lat="48.3212750" lon="7.6516730">
        <ele>-272.2</ele>
        <time>2022-06-04T10:01:40Z</time>
      </trkpt>
      <trkpt lat="48.3214550" lon="7.6518050">
        <ele>-272.2</ele>
        <time>2022-06-04T10:01:44Z</time>
      </trkpt>
      <trkpt lat="48.3216310" lon="7.6519410">
        <ele>-272.0</ele>
        <time>2022-06-04T10:01:48Z</time>
      </trkpt>
      <trkpt lat="48.3218110" lon="7.6520700">
        <ele>-272.2</ele>
        <time>2022-06-04T10:01:52Z</time>
      </trkpt>
      <trkpt lat="48.3219630" lon="7.6521810">
        <ele>-272.0</ele>
        <time>2022-06-04T10:01:56Z</time>
      </trkpt>
      <trkpt lat="48.3221180" lon="7.6522810">
        <ele>-272.2</ele>
        <time>2022-06-04T10:02:00Z</time>
      </trkpt>
      <trkpt lat="48.3222830" lon="7.6524130">
        <ele>-272.0</ele>
        <time>2022-06-04T10:02:04Z</time>
      </trkpt>
      <trkpt lat="48.3224300" lon="7.6525350">
        <ele>-271.2</ele>
        <time>2022-06-04T10:02:08Z</time>
      </trkpt>
      <trkpt lat="48.3225950" lon="7.6526700">
        <ele>-272.0</ele>
        <time>2022-06-04T10:02:12Z</time>
      </trkpt>
      <trkpt lat="48.3227480" lon="7.6527880">
        <ele>-272.2</ele>
        <time>2022-06-04T10:02:16Z</time>
      </trkpt>
      <trkpt lat="48.3229080" lon="7.6529150">
        <ele>-271.6</ele>
        <time>2022-06-04T10:02:20Z</time>
      </trkpt>
      <trkpt lat="48.3230680" lon="7.6530430">
        <ele>-271.6</ele>
        <time>2022-06-04T10:02:24Z</time>
      </trkpt>
      <trkpt lat="48.3232150" lon="7.6531810">
        <ele>-272.4</ele>
        <time>2022-06-04T10:02:28Z</time>
      </trkpt>
      <trkpt lat="48.3233660" lon="7.6533310">
        <ele>-272.2</ele>
        <time>2022-06-04T10:02:32Z</time>
      </trkpt>
      <trkpt lat="48.3235400" lon="7.6534650">
        <ele>-271.2</ele>
        <time>2022-06-04T10:02:36Z</time>
      </trkpt>
      <trkpt lat="48.3237160" lon="7.6536100">
        <ele>-271.6</ele>
        <time>2022-06-04T10:02:40Z</time>
      </trkpt>
      <trkpt lat="48.3239160" lon="7.6537480">
        <ele>-271.8</ele>
        <time>2022-06-04T10:02:44Z</time>
      </trkpt>
      <trkpt lat="48.3240980" lon="7.6538830">
        <ele>-272.2</ele>
        <time>2022-06-04T10:02:48Z</time>
      </trkpt>
      <trkpt lat="48.3242710" lon="7.6540150">
        <ele>-271.8</ele>
        <time>2022-06-04T10:02:52Z</time>
      </trkpt>
      <trkpt lat="48.3244760" lon="7.6541450">
        <ele>-271.8</ele>
        <time>2022-06-04T10:02:56Z</time>
      </trkpt>
      <trkpt lat="48.3246860" lon="7.6543050">
        <ele>-271.8</ele>
        <time>2022-06-04T10:03:00Z</time>
      </trkpt>
      <trkpt lat="48.3248710" lon="7.6544360">
        <ele>-272.0</ele>
        <time>2022-06-04T10:03:04Z</time>
      </trkpt>
      <trkpt lat="48.3250900" lon="7.6546230">
        <ele>-272.0</ele>
        <time>2022-06-04T10:03:08Z</time>
      </trkpt>
      <trkpt lat="48.3252480" lon="7.6547550">
        <ele>-271.6</ele>
        <time>2022-06-04T10:03:12Z</time>
      </trkpt>
      <trkpt lat="48.3254350" lon="7.6548900">
        <ele>-271.4</ele>
        <time>2022-06-04T10:03:16Z</time>
      </trkpt>
      <trkpt lat="48.3256000" lon="7.6550110">
        <ele>-271.6</ele>
        <time>2022-06-04T10:03:20Z</time>
      </trkpt>
      <trkpt lat="48.3257760" lon="7.6551400">
        <ele>-271.4</ele>
        <time>2022-06-04T10:03:24Z</time>
      </trkpt>
      <trkpt lat="48.3259530" lon="7.6552660">
        <ele>-271.6</ele>
        <time>2022-06-04T10:03:28Z</time>
      </trkpt>
      <trkpt lat="48.3261360" lon="7.6554050">
        <ele>-271.2</ele>
        <time>2022-06-04T10:03:32Z</time>
      </trkpt>
      <trkpt lat="48.3263250" lon="7.6555480">
        <ele>-271.6</ele>
        <time>2022-06-04T10:03:36Z</time>
      </trkpt>
      <trkpt lat="48.3265100" lon="7.6557000">
        <ele>-271.8</ele>
        <time>2022-06-04T10:03:40Z</time>
      </trkpt>
      <trkpt lat="48.3267060" lon="7.6558500">
        <ele>-271.8</ele>
        <time>2022-06-04T10:03:44Z</time>
      </trkpt>
      <trkpt lat="48.3268830" lon="7.6559880">
        <ele>-271.2</ele>
        <time>2022-06-04T10:03:48Z</time>
      </trkpt>
      <trkpt lat="48.3270660" lon="7.6561280">
        <ele>-271.4</ele>
        <time>2022-06-04T10:03:52Z</time>
      </trkpt>
      <trkpt lat="48.3272110" lon="7.6562260">
        <ele>-271.4</ele>
        <time>2022-06-04T10:03:56Z</time>
      </trkpt>
      <trkpt lat="48.3273660" lon="7.6563530">
        <ele>-271.4</ele>
        <time>2022-06-04T10:04:00Z</time>
      </trkpt>
      <trkpt lat="48.3275400" lon="7.6564660">
        <ele>-271.2</ele>
        <time>2022-06-04T10:04:04Z</time>
      </trkpt>
      <trkpt lat="48.3277180" lon="7.6565980">
        <ele>-271.4</ele>
        <time>2022-06-04T10:04:08Z</time>
      </trkpt>
      <trkpt lat="48.3278900" lon="7.6567350">
        <ele>-271.2</ele>
        <time>2022-06-04T10:04:12Z</time>
      </trkpt>
      <trkpt lat="48.3280700" lon="7.6568730">
        <ele>-271.0</ele>
        <time>2022-06-04T10:04:16Z</time>
      </trkpt>
      <trkpt lat="48.3282700" lon="7.6570250">
        <ele>-271.6</ele>
        <time>2022-06-04T10:04:20Z</time>
      </trkpt>
      <trkpt lat="48.3284650" lon="7.6571550">
        <ele>-271.4</ele>
        <time>2022-06-04T10:04:24Z</time>
      </trkpt>
      <trkpt lat="48.3286380" lon="7.6572710">
        <ele>-271.2</ele>
        <time>2022-06-04T10:04:28Z</time>
      </trkpt>
      <trkpt lat="48.3288130" lon="7.6574260">
        <ele>-271.2</ele>
        <time>2022-06-04T10:04:32Z</time>
      </trkpt>
      <trkpt lat="48.3289930" lon="7.6575810">
        <ele>-271.0</ele>
        <time>2022-06-04T10:04:36Z</time>
      </trkpt>
      <trkpt lat="48.3291560" lon="7.6577210">
        <ele>-271.4</ele>
        <time>2022-06-04T10:04:40Z</time>
      </trkpt>
      <trkpt lat="48.3293510" lon="7.6578610">
        <ele>-271.6</ele>
        <time>2022-06-04T10:04:44Z</time>
      </trkpt>
      <trkpt lat="48.3295160" lon="7.6579900">
        <ele>-271.0</ele>
        <time>2022-06-04T10:04:48Z</time>
      </trkpt>
      <trkpt lat="48.3296910" lon="7.6581210">
        <ele>-271.2</ele>
        <time>2022-06-04T10:04:52Z</time>
      </trkpt>
      <trkpt lat="48.3298610" lon="7.6582630">
        <ele>-271.4</ele>
        <time>2022-06-04T10:04:56Z</time>
      </trkpt>
      <trkpt lat="48.3300510" lon="7.6584080">
        <ele>-271.4</ele>
        <time>2022-06-04T10:05:00Z</time>
      </trkpt>
      <trkpt lat="48.3302160" lon="7.6585460">
        <ele>-271.2</ele>
        <time>2022-06-04T10:05:04Z</time>
      </trkpt>
      <trkpt lat="48.3303680" lon="7.6586630">
        <ele>-271.0</ele>
        <time>2022-06-04T10:05:08Z</time>
      </trkpt>
      <trkpt lat="48.3305250" lon="7.6587950">
        <ele>-271.0</ele>
        <time>2022-06-04T10:05:12Z</time>
      </trkpt>
      <trkpt lat="48.3306610" lon="7.6589180">
        <ele>-271.0</ele>
        <time>2022-06-04T10:05:16Z</time>
      </trkpt>
      <trkpt lat="48.3308030" lon="7.6590110">
        <ele>-271.2</ele>
        <time>2022-06-04T10:05:20Z</time>
      </trkpt>
      <trkpt lat="48.3309550" lon="7.6591250">
        <ele>-270.8</ele>
        <time>2022-06-04T10:05:24Z</time>
      </trkpt>
      <trkpt lat="48.3311350" lon="7.6592680">
        <ele>-272.0</ele>
        <time>2022-06-04T10:05:28Z</time>
      </trkpt>
      <trkpt lat="48.3313000" lon="7.6594060">
        <ele>-271.6</ele>
        <time>2022-06-04T10:05:32Z</time>
      </trkpt>
      <trkpt lat="48.3314750" lon="7.6595480">
        <ele>-271.6</ele>
        <time>2022-06-04T10:05:36Z</time>
      </trkpt>
      <trkpt lat="48.3316500" lon="7.6596850">
        <ele>-271.2</ele>
        <time>2022-06-04T10:05:40Z</time>
      </trkpt>
      <trkpt lat="48.3318200" lon="7.6598100">
        <ele>-271.6</ele>
        <time>2022-06-04T10:05:44Z</time>
      </trkpt>
      <trkpt lat="48.3319930" lon="7.6599380">
        <ele>-272.0</ele>
        <time>2022-06-04T10:05:48Z</time>
      </trkpt>
      <trkpt lat="48.3321660" lon="7.6600800">
        <ele>-271.6</ele>
        <time>2022-06-04T10:05:52Z</time>
      </trkpt>
      <trkpt lat="48.3323460" lon="7.6602130">
        <ele>-271.2</ele>
        <time>2022-06-04T10:05:56Z</time>
      </trkpt>
      <trkpt lat="48.3325230" lon="7.6603300">
        <ele>-271.2</ele>
        <time>2022-06-04T10:06:00Z</time>
      </trkpt>
      <trkpt lat="48.3327000" lon="7.6604510">
        <ele>-271.4</ele>
        <time>2022-06-04T10:06:04Z</time>
      </trkpt>
      <trkpt lat="48.3328680" lon="7.6605710">
        <ele>-271.6</ele>
        <time>2022-06-04T10:06:08Z</time>
      </trkpt>
      <trkpt lat="48.3330410" lon="7.6606930">
        <ele>-272.0</ele>
        <time>2022-06-04T10:06:12Z</time>
      </trkpt>
      <trkpt lat="48.3332210" lon="7.6608410">
        <ele>-272.2</ele>
        <time>2022-06-04T10:06:16Z</time>
      </trkpt>
      <trkpt lat="48.3333750" lon="7.6609650">
        <ele>-271.6</ele>
        <time>2022-06-04T10:06:20Z</time>
      </trkpt>
      <trkpt lat="48.3335510" lon="7.6611010">
        <ele>-271.0</ele>
        <time>2022-06-04T10:06:24Z</time>
      </trkpt>
      <trkpt lat="48.3337300" lon="7.6612380">
        <ele>-271.0</ele>
        <time>2022-06-04T10:06:28Z</time>
      </trkpt>
      <trkpt lat="48.3338930" lon="7.6613250">
        <ele>-271.4</ele>
        <time>2022-06-04T10:06:32Z</time>
      </trkpt>
      <trkpt lat="48.3340610" lon="7.6614600">
        <ele>-271.4</ele>
        <time>2022-06-04T10:06:36Z</time>
      </trkpt>
      <trkpt lat="48.3342310" lon="7.6615930">
        <ele>-271.2</ele>
        <time>2022-06-04T10:06:40Z</time>
      </trkpt>
      <trkpt lat="48.3344230" lon="7.6617710">
        <ele>-271.4</ele>
        <time>2022-06-04T10:06:44Z</time>
      </trkpt>
      <trkpt lat="48.3346000" lon="7.6619250">
        <ele>-271.6</ele>
        <time>2022-06-04T10:06:48Z</time>
      </trkpt>
      <trkpt lat="48.3347800" lon="7.6620660">
        <ele>-271.8</ele>
        <time>2022-06-04T10:06:52Z</time>
      </trkpt>
      <trkpt lat="48.3349600" lon="7.6622180">
        <ele>-272.2</ele>
        <time>2022-06-04T10:06:56Z</time>
      </trkpt>
      <trkpt lat="48.3351330" lon="7.6623460">
        <ele>-271.6</ele>
        <time>2022-06-04T10:07:00Z</time>
      </trkpt>
      <trkpt lat="48.3352980" lon="7.6624800">
        <ele>-271.8</ele>
        <time>2022-06-04T10:07:04Z</time>
      </trkpt>
      <trkpt lat="48.3354700" lon="7.6626200">
        <ele>-271.0</ele>
        <time>2022-06-04T10:07:08Z</time>
      </trkpt>
      <trkpt lat="48.3356310" lon="7.6627350">
        <ele>-272.0</ele>
        <time>2022-06-04T10:07:12Z</time>
      </trkpt>
      <trkpt lat="48.3357980" lon="7.6628650">
        <ele>-271.2</ele>
        <time>2022-06-04T10:07:16Z</time>
      </trkpt>
      <trkpt lat="48.3359730" lon="7.6629930">
        <ele>-271.6</ele>
        <time>2022-06-04T10:07:20Z</time>
      </trkpt>
      <trkpt lat="48.3361380" lon="7.6631110">
        <ele>-271.6</ele>
        <time>2022-06-04T10:07:24Z</time>
      </trkpt>
      <trkpt lat="48.3362980" lon="7.6632410">
        <ele>-271.0</ele>
        <time>2022-06-04T10:07:28Z</time>
      </trkpt>
      <trkpt lat="48.3364760" lon="7.6633850">
        <ele>-271.0</ele>
        <time>2022-06-04T10:07:32Z</time>
      </trkpt>
      <trkpt lat="48.3366550" lon="7.6635280">
        <ele>-271.2</ele>
        <time>2022-06-04T10:07:36Z</time>
      </trkpt>
      <trkpt lat="48.3368200" lon="7.6636450">
        <ele>-271.0</ele>
        <time>2022-06-04T10:07:40Z</time>
      </trkpt>
      <trkpt lat="48.3369930" lon="7.6637430">
        <ele>-270.8</ele>
        <time>2022-06-04T10:07:44Z</time>
      </trkpt>
      <trkpt lat="48.3371230" lon="7.6638830">
        <ele>-270.4</ele>
        <time>2022-06-04T10:07:48Z</time>
      </trkpt>
      <trkpt lat="48.3371950" lon="7.6640080">
        <ele>-269.6</ele>
        <time>2022-06-04T10:07:52Z</time>
      </trkpt>
      <trkpt lat="48.3372260" lon="7.6640380">
        <ele>-269.4</ele>
        <time>2022-06-04T10:07:56Z</time>
      </trkpt>
      <trkpt lat="48.3372850" lon="7.6640610">
        <ele>-269.4</ele>
        <time>2022-06-04T10:08:00Z</time>
      </trkpt>
      <trkpt lat="48.3373260" lon="7.6639530">
        <ele>-269.4</ele>
        <time>2022-06-04T10:08:04Z</time>
      </trkpt>
      <trkpt lat="48.3373910" lon="7.6637960">
        <ele>-269.4</ele>
        <time>2022-06-04T10:08:08Z</time>
      </trkpt>
      <trkpt lat="48.3374830" lon="7.6636330">
        <ele>-270.0</ele>
        <time>2022-06-04T10:08:12Z</time>
      </trkpt>
      <trkpt lat="48.3376310" lon="7.6638250">
        <ele>-272.2</ele>
        <time>2022-06-04T10:08:16Z</time>
      </trkpt>
      <trkpt lat="48.3378330" lon="7.6640830">
        <ele>-272.4</ele>
        <time>2022-06-04T10:08:20Z</time>
      </trkpt>
      <trkpt lat="48.3380600" lon="7.6642460">
        <ele>-272.4</ele>
        <time>2022-06-04T10:08:24Z</time>
      </trkpt>
      <trkpt lat="48.3382610" lon="7.6644030">
        <ele>-272.8</ele>
        <time>2022-06-04T10:08:28Z</time>
      </trkpt>
      <trkpt lat="48.3384380" lon="7.6645430">
        <ele>-272.2</ele>
        <time>2022-06-04T10:08:32Z</time>
      </trkpt>
      <trkpt lat="48.3385980" lon="7.6646710">
        <ele>-272.8</ele>
        <time>2022-06-04T10:08:36Z</time>
      </trkpt>
      <trkpt lat="48.3387610" lon="7.6647910">
        <ele>-273.2</ele>
        <time>2022-06-04T10:08:40Z</time>
      </trkpt>
      <trkpt lat="48.3389280" lon="7.6649130">
        <ele>-272.8</ele>
        <time>2022-06-04T10:08:44Z</time>
      </trkpt>
      <trkpt lat="48.3391030" lon="7.6650300">
        <ele>-273.0</ele>
        <time>2022-06-04T10:08:48Z</time>
      </trkpt>
      <trkpt lat="48.3392730" lon="7.6651710">
        <ele>-272.8</ele>
        <time>2022-06-04T10:08:52Z</time>
      </trkpt>
      <trkpt lat="48.3394500" lon="7.6653180">
        <ele>-272.8</ele>
        <time>2022-06-04T10:08:56Z</time>
      </trkpt>
      <trkpt lat="48.3396310" lon="7.6654560">
        <ele>-272.8</ele>
        <time>2022-06-04T10:09:00Z</time>
      </trkpt>
      <trkpt lat="48.3398160" lon="7.6655850">
        <ele>-273.0</ele>
        <time>2022-06-04T10:09:04Z</time>
      </trkpt>
      <trkpt lat="48.3400010" lon="7.6657210">
        <ele>-272.8</ele>
        <time>2022-06-04T10:09:08Z</time>
      </trkpt>
      <trkpt lat="48.3401880" lon="7.6658550">
        <ele>-272.2</ele>
        <time>2022-06-04T10:09:12Z</time>
      </trkpt>
      <trkpt lat="48.3403830" lon="7.6659780">
        <ele>-273.0</ele>
        <time>2022-06-04T10:09:16Z</time>
      </trkpt>
      <trkpt lat="48.3405800" lon="7.6661000">
        <ele>-272.6</ele>
        <time>2022-06-04T10:09:20Z</time>
      </trkpt>
      <trkpt lat="48.3407800" lon="7.6661980">
        <ele>-273.8</ele>
        <time>2022-06-04T10:09:24Z</time>
      </trkpt>
      <trkpt lat="48.3409780" lon="7.6662900">
        <ele>-273.8</ele>
        <time>2022-06-04T10:09:28Z</time>
      </trkpt>
      <trkpt lat="48.3411800" lon="7.6663800">
        <ele>-273.0</ele>
        <time>2022-06-04T10:09:32Z</time>
      </trkpt>
      <trkpt lat="48.3413830" lon="7.6664630">
        <ele>-273.0</ele>
        <time>2022-06-04T10:09:36Z</time>
      </trkpt>
      <trkpt lat="48.3415950" lon="7.6665410">
        <ele>-272.8</ele>
        <time>2022-06-04T10:09:40Z</time>
      </trkpt>
      <trkpt lat="48.3418030" lon="7.6666260">
        <ele>-272.6</ele>
        <time>2022-06-04T10:09:44Z</time>
      </trkpt>
      <trkpt lat="48.3420280" lon="7.6667210">
        <ele>-273.8</ele>
        <time>2022-06-04T10:09:48Z</time>
      </trkpt>
      <trkpt lat="48.3422500" lon="7.6668110">
        <ele>-273.4</ele>
        <time>2022-06-04T10:09:52Z</time>
      </trkpt>
      <trkpt lat="48.3424680" lon="7.6668880">
        <ele>-274.2</ele>
        <time>2022-06-04T10:09:56Z</time>
      </trkpt>
      <trkpt lat="48.3426830" lon="7.6669730">
        <ele>-273.4</ele>
        <time>2022-06-04T10:10:00Z</time>
      </trkpt>
      <trkpt lat="48.3428800" lon="7.6670530">
        <ele>-272.8</ele>
        <time>2022-06-04T10:10:04Z</time>
      </trkpt>
      <trkpt lat="48.3430760" lon="7.6671280">
        <ele>-273.4</ele>
        <time>2022-06-04T10:10:08Z</time>
      </trkpt>
      <trkpt lat="48.3432710" lon="7.6672030">
        <ele>-273.6</ele>
        <time>2022-06-04T10:10:12Z</time>
      </trkpt>
      <trkpt lat="48.3434580" lon="7.6672750">
        <ele>-272.8</ele>
        <time>2022-06-04T10:10:16Z</time>
      </trkpt>
      <trkpt lat="48.3436580" lon="7.6673510">
        <ele>-273.0</ele>
        <time>2022-06-04T10:10:20Z</time>
      </trkpt>
      <trkpt lat="48.3438560" lon="7.6674350">
        <ele>-273.2</ele>
        <time>2022-06-04T10:10:24Z</time>
      </trkpt>
      <trkpt lat="48.3440630" lon="7.6675210">
        <ele>-272.6</ele>
        <time>2022-06-04T10:10:28Z</time>
      </trkpt>
      <trkpt lat="48.3442730" lon="7.6676030">
        <ele>-273.8</ele>
        <time>2022-06-04T10:10:32Z</time>
      </trkpt>
      <trkpt lat="48.3444730" lon="7.6676930">
        <ele>-272.8</ele>
        <time>2022-06-04T10:10:36Z</time>
      </trkpt>
      <trkpt lat="48.3446780" lon="7.6677700">
        <ele>-273.8</ele>
        <time>2022-06-04T10:10:40Z</time>
      </trkpt>
      <trkpt lat="48.3448850" lon="7.6678560">
        <ele>-273.6</ele>
        <time>2022-06-04T10:10:44Z</time>
      </trkpt>
      <trkpt lat="48.3450930" lon="7.6679330">
        <ele>-273.0</ele>
        <time>2022-06-04T10:10:48Z</time>
      </trkpt>
      <trkpt lat="48.3453060" lon="7.6680110">
        <ele>-274.2</ele>
        <time>2022-06-04T10:10:52Z</time>
      </trkpt>
      <trkpt lat="48.3455180" lon="7.6680850">
        <ele>-274.0</ele>
        <time>2022-06-04T10:10:56Z</time>
      </trkpt>
      <trkpt lat="48.3457230" lon="7.6681650">
        <ele>-273.6</ele>
        <time>2022-06-04T10:11:00Z</time>
      </trkpt>
      <trkpt lat="48.3459230" lon="7.6682480">
        <ele>-273.6</ele>
        <time>2022-06-04T10:11:04Z</time>
      </trkpt>
      <trkpt lat="48.3461280" lon="7.6683310">
        <ele>-273.2</ele>
        <time>2022-06-04T10:11:08Z</time>
      </trkpt>
      <trkpt lat="48.3463280" lon="7.6684080">
        <ele>-273.6</ele>
        <time>2022-06-04T10:11:12Z</time>
      </trkpt>
      <trkpt lat="48.3465310" lon="7.6684910">
        <ele>-273.6</ele>
        <time>2022-06-04T10:11:16Z</time>
      </trkpt>
      <trkpt lat="48.3467250" lon="7.6685680">
        <ele>-273.8</ele>
        <time>2022-06-04T10:11:20Z</time>
      </trkpt>
      <trkpt lat="48.3469160" lon="7.6686450">
        <ele>-273.8</ele>
        <time>2022-06-04T10:11:24Z</time>
      </trkpt>
      <trkpt lat="48.3471160" lon="7.6687210">
        <ele>-274.0</ele>
        <time>2022-06-04T10:11:28Z</time>
      </trkpt>
      <trkpt lat="48.3473250" lon="7.6688080">
        <ele>-273.6</ele>
        <time>2022-06-04T10:11:32Z</time>
      </trkpt>
      <trkpt lat="48.3475210" lon="7.6688760">
        <ele>-273.6</ele>
        <time>2022-06-04T10:11:36Z</time>
      </trkpt>
      <trkpt lat="48.3477150" lon="7.6689580">
        <ele>-273.8</ele>
        <time>2022-06-04T10:11:40Z</time>
      </trkpt>
      <trkpt lat="48.3479030" lon="7.6690310">
        <ele>-273.2</ele>
        <time>2022-06-04T10:11:44Z</time>
      </trkpt>
      <trkpt lat="48.3481080" lon="7.6691200">
        <ele>-274.0</ele>
        <time>2022-06-04T10:11:48Z</time>
      </trkpt>
      <trkpt lat="48.3483160" lon="7.6691930">
        <ele>-273.8</ele>
        <time>2022-06-04T10:11:52Z</time>
      </trkpt>
      <trkpt lat="48.3485210" lon="7.6692710">
        <ele>-274.6</ele>
        <time>2022-06-04T10:11:56Z</time>
      </trkpt>
      <trkpt lat="48.3487280" lon="7.6693510">
        <ele>-273.4</ele>
        <time>2022-06-04T10:12:00Z</time>
      </trkpt>
      <trkpt lat="48.3489360" lon="7.6694310">
        <ele>-273.4</ele>
        <time>2022-06-04T10:12:04Z</time>
      </trkpt>
      <trkpt lat="48.3491530" lon="7.6695080">
        <ele>-273.4</ele>
        <time>2022-06-04T10:12:08Z</time>
      </trkpt>
      <trkpt lat="48.3493730" lon="7.6695930">
        <ele>-274.0</ele>
        <time>2022-06-04T10:12:12Z</time>
      </trkpt>
      <trkpt lat="48.3495810" lon="7.6696730">
        <ele>-274.2</ele>
        <time>2022-06-04T10:12:16Z</time>
      </trkpt>
      <trkpt lat="48.3497900" lon="7.6697510">
        <ele>-274.2</ele>
        <time>2022-06-04T10:12:20Z</time>
      </trkpt>
      <trkpt lat="48.3499930" lon="7.6698280">
        <ele>-273.8</ele>
        <time>2022-06-04T10:12:24Z</time>
      </trkpt>
      <trkpt lat="48.3501960" lon="7.6699080">
        <ele>-273.6</ele>
        <time>2022-06-04T10:12:28Z</time>
      </trkpt>
      <trkpt lat="48.3504000" lon="7.6699930">
        <ele>-274.6</ele>
        <time>2022-06-04T10:12:32Z</time>
      </trkpt>
      <trkpt lat="48.3505930" lon="7.6700560">
        <ele>-273.8</ele>
        <time>2022-06-04T10:12:36Z</time>
      </trkpt>
      <trkpt lat="48.3507960" lon="7.6701330">
        <ele>-273.8</ele>
        <time>2022-06-04T10:12:40Z</time>
      </trkpt>
      <trkpt lat="48.3510010" lon="7.6702060">
        <ele>-273.8</ele>
        <time>2022-06-04T10:12:44Z</time>
      </trkpt>
      <trkpt lat="48.3512000" lon="7.6702780">
        <ele>-274.0</ele>
        <time>2022-06-04T10:12:48Z</time>
      </trkpt>
      <trkpt lat="48.3513900" lon="7.6703510">
        <ele>-274.4</ele>
        <time>2022-06-04T10:12:52Z</time>
      </trkpt>
      <trkpt lat="48.3515860" lon="7.6704310">
        <ele>-273.6</ele>
        <time>2022-06-04T10:12:56Z</time>
      </trkpt>
      <trkpt lat="48.3517930" lon="7.6705030">
        <ele>-273.8</ele>
        <time>2022-06-04T10:13:00Z</time>
      </trkpt>
      <trkpt lat="48.3520000" lon="7.6705760">
        <ele>-274.0</ele>
        <time>2022-06-04T10:13:04Z</time>
      </trkpt>
      <trkpt lat="48.3522030" lon="7.6706560">
        <ele>-274.4</ele>
        <time>2022-06-04T10:13:08Z</time>
      </trkpt>
      <trkpt lat="48.3524060" lon="7.6707400">
        <ele>-274.2</ele>
        <time>2022-06-04T10:13:12Z</time>
      </trkpt>
      <trkpt lat="48.3526150" lon="7.6708260">
        <ele>-274.0</ele>
        <time>2022-06-04T10:13:16Z</time>
      </trkpt>
      <trkpt lat="48.3528300" lon="7.6709150">
        <ele>-274.2</ele>
        <time>2022-06-04T10:13:20Z</time>
      </trkpt>
      <trkpt lat="48.3530460" lon="7.6710030">
        <ele>-273.8</ele>
        <time>2022-06-04T10:13:24Z</time>
      </trkpt>
      <trkpt lat="48.3532580" lon="7.6710810">
        <ele>-274.2</ele>
        <time>2022-06-04T10:13:28Z</time>
      </trkpt>
      <trkpt lat="48.3534680" lon="7.6711530">
        <ele>-275.0</ele>
        <time>2022-06-04T10:13:32Z</time>
      </trkpt>
      <trkpt lat="48.3536830" lon="7.6712400">
        <ele>-274.2</ele>
        <time>2022-06-04T10:13:36Z</time>
      </trkpt>
      <trkpt lat="48.3539010" lon="7.6713200">
        <ele>-274.6</ele>
        <time>2022-06-04T10:13:40Z</time>
      </trkpt>
      <trkpt lat="48.3541210" lon="7.6714060">
        <ele>-274.0</ele>
        <time>2022-06-04T10:13:44Z</time>
      </trkpt>
      <trkpt lat="48.3543380" lon="7.6714900">
        <ele>-274.4</ele>
        <time>2022-06-04T10:13:48Z</time>
      </trkpt>
      <trkpt lat="48.3545550" lon="7.6715750">
        <ele>-274.4</ele>
        <time>2022-06-04T10:13:52Z</time>
      </trkpt>
      <trkpt lat="48.3547650" lon="7.6716580">
        <ele>-274.2</ele>
        <time>2022-06-04T10:13:56Z</time>
      </trkpt>
      <trkpt lat="48.3549730" lon="7.6717260">
        <ele>-274.0</ele>
        <time>2022-06-04T10:14:00Z</time>
      </trkpt>
      <trkpt lat="48.3551900" lon="7.6718080">
        <ele>-274.4</ele>
        <time>2022-06-04T10:14:04Z</time>
      </trkpt>
      <trkpt lat="48.3554000" lon="7.6718900">
        <ele>-274.8</ele>
        <time>2022-06-04T10:14:08Z</time>
      </trkpt>
      <trkpt lat="48.3556050" lon="7.6719710">
        <ele>-274.4</ele>
        <time>2022-06-04T10:14:12Z</time>
      </trkpt>
      <trkpt lat="48.3558000" lon="7.6720600">
        <ele>-274.4</ele>
        <time>2022-06-04T10:14:16Z</time>
      </trkpt>
      <trkpt lat="48.3560130" lon="7.6721410">
        <ele>-274.4</ele>
        <time>2022-06-04T10:14:20Z</time>
      </trkpt>
      <trkpt lat="48.3562250" lon="7.6722210">
        <ele>-274.8</ele>
        <time>2022-06-04T10:14:24Z</time>
      </trkpt>
      <trkpt lat="48.3564400" lon="7.6722950">
        <ele>-275.2</ele>
        <time>2022-06-04T10:14:28Z</time>
      </trkpt>
      <trkpt lat="48.3566500" lon="7.6723830">
        <ele>-274.6</ele>
        <time>2022-06-04T10:14:32Z</time>
      </trkpt>
      <trkpt lat="48.3568580" lon="7.6724680">
        <ele>-275.0</ele>
        <time>2022-06-04T10:14:36Z</time>
      </trkpt>
      <trkpt lat="48.3570600" lon="7.6725430">
        <ele>-274.2</ele>
        <time>2022-06-04T10:14:40Z</time>
      </trkpt>
      <trkpt lat="48.3572710" lon="7.6726210">
        <ele>-274.4</ele>
        <time>2022-06-04T10:14:44Z</time>
      </trkpt>
      <trkpt lat="48.3574850" lon="7.6727010">
        <ele>-274.4</ele>
        <time>2022-06-04T10:14:48Z</time>
      </trkpt>
      <trkpt lat="48.3576930" lon="7.6727860">
        <ele>-274.2</ele>
        <time>2022-06-04T10:14:52Z</time>
      </trkpt>
      <trkpt lat="48.3578910" lon="7.6728580">
        <ele>-274.4</ele>
        <time>2022-06-04T10:14:56Z</time>
      </trkpt>
      <trkpt lat="48.3580880" lon="7.6729410">
        <ele>-275.0</ele>
        <time>2022-06-04T10:15:00Z</time>
      </trkpt>
      <trkpt lat="48.3582810" lon="7.6730110">
        <ele>-274.4</ele>
        <time>2022-06-04T10:15:04Z</time>
      </trkpt>
      <trkpt lat="48.3584560" lon="7.6730800">
        <ele>-274.6</ele>
        <time>2022-06-04T10:15:08Z</time>
      </trkpt>
      <trkpt lat="48.3586250" lon="7.6731480">
        <ele>-275.4</ele>
        <time>2022-06-04T10:15:12Z</time>
      </trkpt>
      <trkpt lat="48.3587980" lon="7.6732080">
        <ele>-275.0</ele>
        <time>2022-06-04T10:15:16Z</time>
      </trkpt>
      <trkpt lat="48.3589810" lon="7.6732780">
        <ele>-274.2</ele>
        <time>2022-06-04T10:15:20Z</time>
      </trkpt>
      <trkpt lat="48.3591650" lon="7.6733530">
        <ele>-274.6</ele>
        <time>2022-06-04T10:15:24Z</time>
      </trkpt>
      <trkpt lat="48.3593460" lon="7.6734180">
        <ele>-274.4</ele>
        <time>2022-06-04T10:15:28Z</time>
      </trkpt>
      <trkpt lat="48.3595200" lon="7.6735000">
        <ele>-274.4</ele>
        <time>2022-06-04T10:15:32Z</time>
      </trkpt>
      <trkpt lat="48.3597050" lon="7.6735510">
        <ele>-274.0</ele>
        <time>2022-06-04T10:15:36Z</time>
      </trkpt>
      <trkpt lat="48.3598950" lon="7.6736200">
        <ele>-274.4</ele>
        <time>2022-06-04T10:15:40Z</time>
      </trkpt>
      <trkpt lat="48.3600910" lon="7.6736900">
        <ele>-274.8</ele>
        <time>2022-06-04T10:15:44Z</time>
      </trkpt>
      <trkpt lat="48.3602880" lon="7.6737700">
        <ele>-275.0</ele>
        <time>2022-06-04T10:15:48Z</time>
      </trkpt>
      <trkpt lat="48.3604880" lon="7.6738510">
        <ele>-275.2</ele>
        <time>2022-06-04T10:15:52Z</time>
      </trkpt>
      <trkpt lat="48.3606830" lon="7.6739250">
        <ele>-275.0</ele>
        <time>2022-06-04T10:15:56Z</time>
      </trkpt>
      <trkpt lat="48.3608860" lon="7.6740060">
        <ele>-275.0</ele>
        <time>2022-06-04T10:16:00Z</time>
      </trkpt>
      <trkpt lat="48.3610900" lon="7.6740810">
        <ele>-275.2</ele>
        <time>2022-06-04T10:16:04Z</time>
      </trkpt>
      <trkpt lat="48.3612950" lon="7.6741610">
        <ele>-275.0</ele>
        <time>2022-06-04T10:16:08Z</time>
      </trkpt>
      <trkpt lat="48.3614960" lon="7.6742360">
        <ele>-275.0</ele>
        <time>2022-06-04T10:16:12Z</time>
      </trkpt>
      <trkpt lat="48.3616960" lon="7.6743060">
        <ele>-275.0</ele>
        <time>2022-06-04T10:16:16Z</time>
      </trkpt>
      <trkpt lat="48.3618910" lon="7.6743810">
        <ele>-274.8</ele>
        <time>2022-06-04T10:16:20Z</time>
      </trkpt>
      <trkpt lat="48.3620680" lon="7.6744500">
        <ele>-275.0</ele>
        <time>2022-06-04T10:16:24Z</time>
      </trkpt>
      <trkpt lat="48.3622260" lon="7.6745080">
        <ele>-274.8</ele>
        <time>2022-06-04T10:16:28Z</time>
      </trkpt>
      <trkpt lat="48.3623680" lon="7.6745610">
        <ele>-275.0</ele>
        <time>2022-06-04T10:16:32Z</time>
      </trkpt>
      <trkpt lat="48.3624900" lon="7.6746100">
        <ele>-275.2</ele>
        <time>2022-06-04T10:16:36Z</time>
      </trkpt>
      <trkpt lat="48.3626130" lon="7.6746660">
        <ele>-275.0</ele>
        <time>2022-06-04T10:16:40Z</time>
      </trkpt>
      <trkpt lat="48.3627300" lon="7.6747110">
        <ele>-275.4</ele>
        <time>2022-06-04T10:16:44Z</time>
      </trkpt>
      <trkpt lat="48.3628560" lon="7.6747600">
        <ele>-275.0</ele>
        <time>2022-06-04T10:16:48Z</time>
      </trkpt>
      <trkpt lat="48.3629810" lon="7.6747960">
        <ele>-275.4</ele>
        <time>2022-06-04T10:16:52Z</time>
      </trkpt>
      <trkpt lat="48.3631130" lon="7.6748450">
        <ele>-275.2</ele>
        <time>2022-06-04T10:16:56Z</time>
      </trkpt>
      <trkpt lat="48.3632610" lon="7.6748950">
        <ele>-275.2</ele>
        <time>2022-06-04T10:17:00Z</time>
      </trkpt>
      <trkpt lat="48.3633950" lon="7.6749500">
        <ele>-275.0</ele>
        <time>2022-06-04T10:17:04Z</time>
      </trkpt>
      <trkpt lat="48.3635280" lon="7.6750010">
        <ele>-274.8</ele>
        <time>2022-06-04T10:17:08Z</time>
      </trkpt>
      <trkpt lat="48.3636550" lon="7.6750450">
        <ele>-275.4</ele>
        <time>2022-06-04T10:17:12Z</time>
      </trkpt>
      <trkpt lat="48.3637750" lon="7.6750900">
        <ele>-275.4</ele>
        <time>2022-06-04T10:17:16Z</time>
      </trkpt>
      <trkpt lat="48.3638910" lon="7.6751380">
        <ele>-275.4</ele>
        <time>2022-06-04T10:17:20Z</time>
      </trkpt>
      <trkpt lat="48.3639910" lon="7.6751810">
        <ele>-275.2</ele>
        <time>2022-06-04T10:17:24Z</time>
      </trkpt>
      <trkpt lat="48.3641180" lon="7.6752130">
        <ele>-274.8</ele>
        <time>2022-06-04T10:17:28Z</time>
      </trkpt>
      <trkpt lat="48.3642710" lon="7.6752730">
        <ele>-275.0</ele>
        <time>2022-06-04T10:17:32Z</time>
      </trkpt>
      <trkpt lat="48.3644410" lon="7.6753430">
        <ele>-274.6</ele>
        <time>2022-06-04T10:17:36Z</time>
      </trkpt>
      <trkpt lat="48.3646150" lon="7.6754200">
        <ele>-275.4</ele>
        <time>2022-06-04T10:17:40Z</time>
      </trkpt>
      <trkpt lat="48.3647830" lon="7.6754900">
        <ele>-274.6</ele>
        <time>2022-06-04T10:17:44Z</time>
      </trkpt>
      <trkpt lat="48.3649550" lon="7.6755600">
        <ele>-275.0</ele>
        <time>2022-06-04T10:17:48Z</time>
      </trkpt>
      <trkpt lat="48.3651360" lon="7.6756400">
        <ele>-274.8</ele>
        <time>2022-06-04T10:17:52Z</time>
      </trkpt>
      <trkpt lat="48.3653200" lon="7.6757110">
        <ele>-275.0</ele>
        <time>2022-06-04T10:17:56Z</time>
      </trkpt>
      <trkpt lat="48.3655060" lon="7.6757810">
        <ele>-275.2</ele>
        <time>2022-06-04T10:18:00Z</time>
      </trkpt>
      <trkpt lat="48.3656850" lon="7.6758550">
        <ele>-275.2</ele>
        <time>2022-06-04T10:18:04Z</time>
      </trkpt>
      <trkpt lat="48.3658700" lon="7.6759530">
        <ele>-275.0</ele>
        <time>2022-06-04T10:18:08Z</time>
      </trkpt>
      <trkpt lat="48.3660560" lon="7.6760230">
        <ele>-274.6</ele>
        <time>2022-06-04T10:18:12Z</time>
      </trkpt>
      <trkpt lat="48.3662350" lon="7.6760650">
        <ele>-275.2</ele>
        <time>2022-06-04T10:18:16Z</time>
      </trkpt>
      <trkpt lat="48.3664280" lon="7.6761360">
        <ele>-275.4</ele>
        <time>2022-06-04T10:18:20Z</time>
      </trkpt>
      <trkpt lat="48.3666380" lon="7.6762100">
        <ele>-276.2</ele>
        <time>2022-06-04T10:18:24Z</time>
      </trkpt>
      <trkpt lat="48.3668480" lon="7.6762880">
        <ele>-276.8</ele>
        <time>2022-06-04T10:18:28Z</time>
      </trkpt>
      <trkpt lat="48.3670560" lon="7.6763600">
        <ele>-276.6</ele>
        <time>2022-06-04T10:18:32Z</time>
      </trkpt>
      <trkpt lat="48.3672610" lon="7.6764210">
        <ele>-277.0</ele>
        <time>2022-06-04T10:18:36Z</time>
      </trkpt>
      <trkpt lat="48.3674630" lon="7.6765000">
        <ele>-276.6</ele>
        <time>2022-06-04T10:18:40Z</time>
      </trkpt>
      <trkpt lat="48.3676600" lon="7.6765760">
        <ele>-276.6</ele>
        <time>2022-06-04T10:18:44Z</time>
      </trkpt>
      <trkpt lat="48.3678600" lon="7.6766550">
        <ele>-277.2</ele>
        <time>2022-06-04T10:18:48Z</time>
      </trkpt>
      <trkpt lat="48.3680560" lon="7.6767330">
        <ele>-276.6</ele>
        <time>2022-06-04T10:18:52Z</time>
      </trkpt>
      <trkpt lat="48.3682560" lon="7.6768110">
        <ele>-277.2</ele>
        <time>2022-06-04T10:18:56Z</time>
      </trkpt>
      <trkpt lat="48.3684530" lon="7.6768900">
        <ele>-276.6</ele>
        <time>2022-06-04T10:19:00Z</time>
      </trkpt>
      <trkpt lat="48.3686450" lon="7.6769660">
        <ele>-277.2</ele>
        <time>2022-06-04T10:19:04Z</time>
      </trkpt>
      <trkpt lat="48.3688410" lon="7.6770360">
        <ele>-276.6</ele>
        <time>2022-06-04T10:19:08Z</time>
      </trkpt>
      <trkpt lat="48.3690310" lon="7.6771100">
        <ele>-277.2</ele>
        <time>2022-06-04T10:19:12Z</time>
      </trkpt>
      <trkpt lat="48.3692230" lon="7.6771710">
        <ele>-277.4</ele>
        <time>2022-06-04T10:19:16Z</time>
      </trkpt>
      <trkpt lat="48.3694130" lon="7.6772360">
        <ele>-277.2</ele>
        <time>2022-06-04T10:19:20Z</time>
      </trkpt>
      <trkpt lat="48.3696150" lon="7.6773080">
        <ele>-277.2</ele>
        <time>2022-06-04T10:19:24Z</time>
      </trkpt>
      <trkpt lat="48.3698160" lon="7.6773830">
        <ele>-276.6</ele>
        <time>2022-06-04T10:19:28Z</time>
      </trkpt>
      <trkpt lat="48.3700080" lon="7.6774700">
        <ele>-276.8</ele>
        <time>2022-06-04T10:19:32Z</time>
      </trkpt>
      <trkpt lat="48.3702050" lon="7.6775680">
        <ele>-277.2</ele>
        <time>2022-06-04T10:19:36Z</time>
      </trkpt>
      <trkpt lat="48.3704160" lon="7.6776410">
        <ele>-276.8</ele>
        <time>2022-06-04T10:19:40Z</time>
      </trkpt>
      <trkpt lat="48.3706200" lon="7.6777180">
        <ele>-277.2</ele>
        <time>2022-06-04T10:19:44Z</time>
      </trkpt>
      <trkpt lat="48.3708160" lon="7.6777960">
        <ele>-277.2</ele>
        <time>2022-06-04T10:19:48Z</time>
      </trkpt>
      <trkpt lat="48.3710180" lon="7.6778850">
        <ele>-277.4</ele>
        <time>2022-06-04T10:19:52Z</time>
      </trkpt>
      <trkpt lat="48.3712180" lon="7.6779600">
        <ele>-277.2</ele>
        <time>2022-06-04T10:19:56Z</time>
      </trkpt>
      <trkpt lat="48.3714060" lon="7.6780260">
        <ele>-277.2</ele>
        <time>2022-06-04T10:20:00Z</time>
      </trkpt>
      <trkpt lat="48.3715930" lon="7.6781030">
        <ele>-277.6</ele>
        <time>2022-06-04T10:20:04Z</time>
      </trkpt>
      <trkpt lat="48.3717800" lon="7.6781680">
        <ele>-277.2</ele>
        <time>2022-06-04T10:20:08Z</time>
      </trkpt>
      <trkpt lat="48.3719610" lon="7.6782330">
        <ele>-277.6</ele>
        <time>2022-06-04T10:20:12Z</time>
      </trkpt>
      <trkpt lat="48.3721450" lon="7.6783050">
        <ele>-277.8</ele>
        <time>2022-06-04T10:20:16Z</time>
      </trkpt>
      <trkpt lat="48.3723360" lon="7.6783800">
        <ele>-277.2</ele>
        <time>2022-06-04T10:20:20Z</time>
      </trkpt>
      <trkpt lat="48.3725210" lon="7.6784550">
        <ele>-277.4</ele>
        <time>2022-06-04T10:20:24Z</time>
      </trkpt>
      <trkpt lat="48.3727110" lon="7.6785250">
        <ele>-277.2</ele>
        <time>2022-06-04T10:20:28Z</time>
      </trkpt>
      <trkpt lat="48.3729060" lon="7.6785980">
        <ele>-277.2</ele>
        <time>2022-06-04T10:20:32Z</time>
      </trkpt>
      <trkpt lat="48.3730980" lon="7.6786760">
        <ele>-277.4</ele>
        <time>2022-06-04T10:20:36Z</time>
      </trkpt>
      <trkpt lat="48.3732910" lon="7.6787510">
        <ele>-277.4</ele>
        <time>2022-06-04T10:20:40Z</time>
      </trkpt>
      <trkpt lat="48.3734830" lon="7.6788300">
        <ele>-276.8</ele>
        <time>2022-06-04T10:20:44Z</time>
      </trkpt>
      <trkpt lat="48.3736780" lon="7.6789080">
        <ele>-277.0</ele>
        <time>2022-06-04T10:20:48Z</time>
      </trkpt>
      <trkpt lat="48.3738680" lon="7.6789830">
        <ele>-277.0</ele>
        <time>2022-06-04T10:20:52Z</time>
      </trkpt>
      <trkpt lat="48.3740610" lon="7.6790450">
        <ele>-277.2</ele>
        <time>2022-06-04T10:20:56Z</time>
      </trkpt>
      <trkpt lat="48.3742530" lon="7.6791210">
        <ele>-277.2</ele>
        <time>2022-06-04T10:21:00Z</time>
      </trkpt>
      <trkpt lat="48.3744410" lon="7.6792100">
        <ele>-277.4</ele>
        <time>2022-06-04T10:21:04Z</time>
      </trkpt>
      <trkpt lat="48.3746280" lon="7.6792850">
        <ele>-278.0</ele>
        <time>2022-06-04T10:21:08Z</time>
      </trkpt>
      <trkpt lat="48.3748130" lon="7.6793500">
        <ele>-278.0</ele>
        <time>2022-06-04T10:21:12Z</time>
      </trkpt>
      <trkpt lat="48.3749950" lon="7.6794280">
        <ele>-277.0</ele>
        <time>2022-06-04T10:21:16Z</time>
      </trkpt>
      <trkpt lat="48.3751900" lon="7.6794950">
        <ele>-277.2</ele>
        <time>2022-06-04T10:21:20Z</time>
      </trkpt>
      <trkpt lat="48.3753830" lon="7.6795760">
        <ele>-277.4</ele>
        <time>2022-06-04T10:21:24Z</time>
      </trkpt>
      <trkpt lat="48.3755780" lon="7.6796550">
        <ele>-277.6</ele>
        <time>2022-06-04T10:21:28Z</time>
      </trkpt>
      <trkpt lat="48.3757780" lon="7.6797230">
        <ele>-277.2</ele>
        <time>2022-06-04T10:21:32Z</time>
      </trkpt>
      <trkpt lat="48.3759810" lon="7.6798030">
        <ele>-277.0</ele>
        <time>2022-06-04T10:21:36Z</time>
      </trkpt>
      <trkpt lat="48.3761750" lon="7.6798700">
        <ele>-277.8</ele>
        <time>2022-06-04T10:21:40Z</time>
      </trkpt>
      <trkpt lat="48.3763630" lon="7.6799550">
        <ele>-277.6</ele>
        <time>2022-06-04T10:21:44Z</time>
      </trkpt>
      <trkpt lat="48.3765400" lon="7.6800530">
        <ele>-277.2</ele>
        <time>2022-06-04T10:21:48Z</time>
      </trkpt>
      <trkpt lat="48.3767300" lon="7.6800730">
        <ele>-278.0</ele>
        <time>2022-06-04T10:21:52Z</time>
      </trkpt>
      <trkpt lat="48.3769210" lon="7.6801400">
        <ele>-277.4</ele>
        <time>2022-06-04T10:21:56Z</time>
      </trkpt>
      <trkpt lat="48.3771080" lon="7.6802150">
        <ele>-277.4</ele>
        <time>2022-06-04T10:22:00Z</time>
      </trkpt>
      <trkpt lat="48.3773000" lon="7.6802860">
        <ele>-278.2</ele>
        <time>2022-06-04T10:22:04Z</time>
      </trkpt>
      <trkpt lat="48.3774880" lon="7.6803600">
        <ele>-277.4</ele>
        <time>2022-06-04T10:22:08Z</time>
      </trkpt>
      <trkpt lat="48.3776880" lon="7.6804330">
        <ele>-277.6</ele>
        <time>2022-06-04T10:22:12Z</time>
      </trkpt>
      <trkpt lat="48.3778680" lon="7.6805130">
        <ele>-278.2</ele>
        <time>2022-06-04T10:22:16Z</time>
      </trkpt>
      <trkpt lat="48.3780500" lon="7.6806010">
        <ele>-277.8</ele>
        <time>2022-06-04T10:22:20Z</time>
      </trkpt>
      <trkpt lat="48.3782260" lon="7.6806630">
        <ele>-277.8</ele>
        <time>2022-06-04T10:22:24Z</time>
      </trkpt>
      <trkpt lat="48.3783960" lon="7.6807380">
        <ele>-278.2</ele>
        <time>2022-06-04T10:22:28Z</time>
      </trkpt>
      <trkpt lat="48.3785710" lon="7.6808050">
        <ele>-278.0</ele>
        <time>2022-06-04T10:22:32Z</time>
      </trkpt>
      <trkpt lat="48.3787600" lon="7.6808650">
        <ele>-278.0</ele>
        <time>2022-06-04T10:22:36Z</time>
      </trkpt>
      <trkpt lat="48.3789450" lon="7.6809400">
        <ele>-277.8</ele>
        <time>2022-06-04T10:22:40Z</time>
      </trkpt>
      <trkpt lat="48.3791250" lon="7.6810060">
        <ele>-277.8</ele>
        <time>2022-06-04T10:22:44Z</time>
      </trkpt>
      <trkpt lat="48.3793160" lon="7.6810730">
        <ele>-278.2</ele>
        <time>2022-06-04T10:22:48Z</time>
      </trkpt>
      <trkpt lat="48.3794980" lon="7.6811280">
        <ele>-278.0</ele>
        <time>2022-06-04T10:22:52Z</time>
      </trkpt>
      <trkpt lat="48.3796760" lon="7.6812050">
        <ele>-278.0</ele>
        <time>2022-06-04T10:22:56Z</time>
      </trkpt>
      <trkpt lat="48.3798500" lon="7.6812710">
        <ele>-277.6</ele>
        <time>2022-06-04T10:23:00Z</time>
      </trkpt>
      <trkpt lat="48.3800050" lon="7.6813380">
        <ele>-277.8</ele>
        <time>2022-06-04T10:23:04Z</time>
      </trkpt>
      <trkpt lat="48.3801580" lon="7.6814000">
        <ele>-277.6</ele>
        <time>2022-06-04T10:23:08Z</time>
      </trkpt>
      <trkpt lat="48.3803250" lon="7.6814610">
        <ele>-278.0</ele>
        <time>2022-06-04T10:23:12Z</time>
      </trkpt>
      <trkpt lat="48.3805030" lon="7.6815210">
        <ele>-278.0</ele>
        <time>2022-06-04T10:23:16Z</time>
      </trkpt>
      <trkpt lat="48.3806760" lon="7.6816030">
        <ele>-278.2</ele>
        <time>2022-06-04T10:23:20Z</time>
      </trkpt>
      <trkpt lat="48.3808610" lon="7.6816800">
        <ele>-277.8</ele>
        <time>2022-06-04T10:23:24Z</time>
      </trkpt>
      <trkpt lat="48.3810350" lon="7.6817460">
        <ele>-277.6</ele>
        <time>2022-06-04T10:23:28Z</time>
      </trkpt>
      <trkpt lat="48.3812150" lon="7.6818230">
        <ele>-278.0</ele>
        <time>2022-06-04T10:23:32Z</time>
      </trkpt>
      <trkpt lat="48.3814150" lon="7.6819060">
        <ele>-278.2</ele>
        <time>2022-06-04T10:23:36Z</time>
      </trkpt>
      <trkpt lat="48.3816050" lon="7.6819780">
        <ele>-277.6</ele>
        <time>2022-06-04T10:23:40Z</time>
      </trkpt>
      <trkpt lat="48.3817830" lon="7.6820410">
        <ele>-277.6</ele>
        <time>2022-06-04T10:23:44Z</time>
      </trkpt>
      <trkpt lat="48.3819410" lon="7.6821460">
        <ele>-278.4</ele>
        <time>2022-06-04T10:23:48Z</time>
      </trkpt>
      <trkpt lat="48.3821100" lon="7.6822130">
        <ele>-277.8</ele>
        <time>2022-06-04T10:23:52Z</time>
      </trkpt>
      <trkpt lat="48.3823000" lon="7.6822900">
        <ele>-277.8</ele>
        <time>2022-06-04T10:23:56Z</time>
      </trkpt>
      <trkpt lat="48.3824850" lon="7.6823800">
        <ele>-277.6</ele>
        <time>2022-06-04T10:24:00Z</time>
      </trkpt>
      <trkpt lat="48.3826950" lon="7.6824580">
        <ele>-278.2</ele>
        <time>2022-06-04T10:24:04Z</time>
      </trkpt>
      <trkpt lat="48.3829330" lon="7.6825130">
        <ele>-278.2</ele>
        <time>2022-06-04T10:24:08Z</time>
      </trkpt>
      <trkpt lat="48.3831400" lon="7.6825730">
        <ele>-277.6</ele>
        <time>2022-06-04T10:24:12Z</time>
      </trkpt>
      <trkpt lat="48.3833280" lon="7.6826530">
        <ele>-278.6</ele>
        <time>2022-06-04T10:24:16Z</time>
      </trkpt>
      <trkpt lat="48.3834960" lon="7.6827200">
        <ele>-278.0</ele>
        <time>2022-06-04T10:24:20Z</time>
      </trkpt>
      <trkpt lat="48.3836900" lon="7.6827810">
        <ele>-277.4</ele>
        <time>2022-06-04T10:24:24Z</time>
      </trkpt>
      <trkpt lat="48.3838800" lon="7.6828530">
        <ele>-278.4</ele>
        <time>2022-06-04T10:24:28Z</time>
      </trkpt>
      <trkpt lat="48.3840630" lon="7.6829210">
        <ele>-277.8</ele>
        <time>2022-06-04T10:24:32Z</time>
      </trkpt>
      <trkpt lat="48.3842550" lon="7.6829900">
        <ele>-277.8</ele>
        <time>2022-06-04T10:24:36Z</time>
      </trkpt>
      <trkpt lat="48.3844500" lon="7.6830680">
        <ele>-277.4</ele>
        <time>2022-06-04T10:24:40Z</time>
      </trkpt>
      <trkpt lat="48.3846360" lon="7.6831360">
        <ele>-277.6</ele>
        <time>2022-06-04T10:24:44Z</time>
      </trkpt>
      <trkpt lat="48.3848260" lon="7.6832030">
        <ele>-278.0</ele>
        <time>2022-06-04T10:24:48Z</time>
      </trkpt>
      <trkpt lat="48.3850210" lon="7.6832780">
        <ele>-278.2</ele>
        <time>2022-06-04T10:24:52Z</time>
      </trkpt>
      <trkpt lat="48.3852280" lon="7.6833630">
        <ele>-278.6</ele>
        <time>2022-06-04T10:24:56Z</time>
      </trkpt>
      <trkpt lat="48.3854210" lon="7.6834430">
        <ele>-278.0</ele>
        <time>2022-06-04T10:25:00Z</time>
      </trkpt>
      <trkpt lat="48.3856030" lon="7.6835160">
        <ele>-278.4</ele>
        <time>2022-06-04T10:25:04Z</time>
      </trkpt>
      <trkpt lat="48.3857810" lon="7.6835910">
        <ele>-278.4</ele>
        <time>2022-06-04T10:25:08Z</time>
      </trkpt>
      <trkpt lat="48.3859680" lon="7.6836560">
        <ele>-277.8</ele>
        <time>2022-06-04T10:25:12Z</time>
      </trkpt>
      <trkpt lat="48.3861610" lon="7.6837410">
        <ele>-277.6</ele>
        <time>2022-06-04T10:25:16Z</time>
      </trkpt>
      <trkpt lat="48.3863510" lon="7.6838300">
        <ele>-278.6</ele>
        <time>2022-06-04T10:25:20Z</time>
      </trkpt>
      <trkpt lat="48.3865200" lon="7.6839360">
        <ele>-278.8</ele>
        <time>2022-06-04T10:25:24Z</time>
      </trkpt>
      <trkpt lat="48.3867080" lon="7.6839530">
        <ele>-278.4</ele>
        <time>2022-06-04T10:25:28Z</time>
      </trkpt>
      <trkpt lat="48.3869030" lon="7.6840110">
        <ele>-278.2</ele>
        <time>2022-06-04T10:25:32Z</time>
      </trkpt>
      <trkpt lat="48.3870960" lon="7.6840910">
        <ele>-278.2</ele>
        <time>2022-06-04T10:25:36Z</time>
      </trkpt>
      <trkpt lat="48.3872900" lon="7.6841730">
        <ele>-278.4</ele>
        <time>2022-06-04T10:25:40Z</time>
      </trkpt>
      <trkpt lat="48.3874900" lon="7.6842430">
        <ele>-278.0</ele>
        <time>2022-06-04T10:25:44Z</time>
      </trkpt>
      <trkpt lat="48.3876850" lon="7.6843110">
        <ele>-277.8</ele>
        <time>2022-06-04T10:25:48Z</time>
      </trkpt>
      <trkpt lat="48.3878850" lon="7.6843980">
        <ele>-277.8</ele>
        <time>2022-06-04T10:25:52Z</time>
      </trkpt>
      <trkpt lat="48.3880860" lon="7.6844700">
        <ele>-278.2</ele>
        <time>2022-06-04T10:25:56Z</time>
      </trkpt>
      <trkpt lat="48.3882830" lon="7.6845460">
        <ele>-278.8</ele>
        <time>2022-06-04T10:26:00Z</time>
      </trkpt>
      <trkpt lat="48.3884750" lon="7.6846210">
        <ele>-279.0</ele>
        <time>2022-06-04T10:26:04Z</time>
      </trkpt>
      <trkpt lat="48.3886630" lon="7.6846950">
        <ele>-279.0</ele>
        <time>2022-06-04T10:26:08Z</time>
      </trkpt>
      <trkpt lat="48.3888510" lon="7.6847750">
        <ele>-278.2</ele>
        <time>2022-06-04T10:26:12Z</time>
      </trkpt>
      <trkpt lat="48.3890350" lon="7.6848430">
        <ele>-278.0</ele>
        <time>2022-06-04T10:26:16Z</time>
      </trkpt>
      <trkpt lat="48.3892200" lon="7.6849210">
        <ele>-279.2</ele>
        <time>2022-06-04T10:26:20Z</time>
      </trkpt>
      <trkpt lat="48.3894060" lon="7.6849850">
        <ele>-278.6</ele>
        <time>2022-06-04T10:26:24Z</time>
      </trkpt>
      <trkpt lat="48.3895930" lon="7.6850710">
        <ele>-278.8</ele>
        <time>2022-06-04T10:26:28Z</time>
      </trkpt>
      <trkpt lat="48.3897800" lon="7.6851480">
        <ele>-278.6</ele>
        <time>2022-06-04T10:26:32Z</time>
      </trkpt>
      <trkpt lat="48.3899630" lon="7.6852460">
        <ele>-278.6</ele>
        <time>2022-06-04T10:26:36Z</time>
      </trkpt>
      <trkpt lat="48.3901450" lon="7.6853250">
        <ele>-278.4</ele>
        <time>2022-06-04T10:26:40Z</time>
      </trkpt>
      <trkpt lat="48.3903030" lon="7.6853780">
        <ele>-277.2</ele>
        <time>2022-06-04T10:26:44Z</time>
      </trkpt>
      <trkpt lat="48.3904380" lon="7.6854150">
        <ele>-276.4</ele>
        <time>2022-06-04T10:26:48Z</time>
      </trkpt>
      <trkpt lat="48.3906210" lon="7.6854560">
        <ele>-277.8</ele>
        <time>2022-06-04T10:26:52Z</time>
      </trkpt>
      <trkpt lat="48.3908480" lon="7.6855450">
        <ele>-280.0</ele>
        <time>2022-06-04T10:26:56Z</time>
      </trkpt>
      <trkpt lat="48.3911010" lon="7.6856500">
        <ele>-280.8</ele>
        <time>2022-06-04T10:27:00Z</time>
      </trkpt>
      <trkpt lat="48.3913380" lon="7.6857410">
        <ele>-279.8</ele>
        <time>2022-06-04T10:27:04Z</time>
      </trkpt>
      <trkpt lat="48.3915660" lon="7.6858310">
        <ele>-280.4</ele>
        <time>2022-06-04T10:27:08Z</time>
      </trkpt>
      <trkpt lat="48.3917880" lon="7.6859160">
        <ele>-280.0</ele>
        <time>2022-06-04T10:27:12Z</time>
      </trkpt>
      <trkpt lat="48.3920060" lon="7.6860010">
        <ele>-280.6</ele>
        <time>2022-06-04T10:27:16Z</time>
      </trkpt>
      <trkpt lat="48.3922180" lon="7.6860800">
        <ele>-280.4</ele>
        <time>2022-06-04T10:27:20Z</time>
      </trkpt>
      <trkpt lat="48.3924300" lon="7.6861580">
        <ele>-280.0</ele>
        <time>2022-06-04T10:27:24Z</time>
      </trkpt>
      <trkpt lat="48.3926350" lon="7.6862380">
        <ele>-280.2</ele>
        <time>2022-06-04T10:27:28Z</time>
      </trkpt>
      <trkpt lat="48.3928360" lon="7.6863100">
        <ele>-280.8</ele>
        <time>2022-06-04T10:27:32Z</time>
      </trkpt>
      <trkpt lat="48.3930330" lon="7.6863880">
        <ele>-280.4</ele>
        <time>2022-06-04T10:27:36Z</time>
      </trkpt>
      <trkpt lat="48.3932300" lon="7.6864610">
        <ele>-280.0</ele>
        <time>2022-06-04T10:27:40Z</time>
      </trkpt>
      <trkpt lat="48.3934260" lon="7.6865330">
        <ele>-279.8</ele>
        <time>2022-06-04T10:27:44Z</time>
      </trkpt>
      <trkpt lat="48.3936260" lon="7.6866110">
        <ele>-280.4</ele>
        <time>2022-06-04T10:27:48Z</time>
      </trkpt>
      <trkpt lat="48.3938260" lon="7.6866900">
        <ele>-280.6</ele>
        <time>2022-06-04T10:27:52Z</time>
      </trkpt>
      <trkpt lat="48.3940200" lon="7.6867630">
        <ele>-281.0</ele>
        <time>2022-06-04T10:27:56Z</time>
      </trkpt>
      <trkpt lat="48.3942130" lon="7.6868450">
        <ele>-280.6</ele>
        <time>2022-06-04T10:28:00Z</time>
      </trkpt>
      <trkpt lat="48.3944000" lon="7.6869210">
        <ele>-280.6</ele>
        <time>2022-06-04T10:28:04Z</time>
      </trkpt>
      <trkpt lat="48.3945880" lon="7.6869950">
        <ele>-281.0</ele>
        <time>2022-06-04T10:28:08Z</time>
      </trkpt>
      <trkpt lat="48.3947800" lon="7.6870760">
        <ele>-281.6</ele>
        <time>2022-06-04T10:28:12Z</time>
      </trkpt>
      <trkpt lat="48.3949830" lon="7.6871530">
        <ele>-281.6</ele>
        <time>2022-06-04T10:28:16Z</time>
      </trkpt>
      <trkpt lat="48.3951860" lon="7.6872280">
        <ele>-281.4</ele>
        <time>2022-06-04T10:28:20Z</time>
      </trkpt>
      <trkpt lat="48.3953900" lon="7.6873000">
        <ele>-281.4</ele>
        <time>2022-06-04T10:28:24Z</time>
      </trkpt>
      <trkpt lat="48.3955930" lon="7.6873780">
        <ele>-281.8</ele>
        <time>2022-06-04T10:28:28Z</time>
      </trkpt>
      <trkpt lat="48.3957900" lon="7.6874530">
        <ele>-280.8</ele>
        <time>2022-06-04T10:28:32Z</time>
      </trkpt>
      <trkpt lat="48.3959780" lon="7.6875210">
        <ele>-280.4</ele>
        <time>2022-06-04T10:28:36Z</time>
      </trkpt>
      <trkpt lat="48.3961650" lon="7.6875880">
        <ele>-281.0</ele>
        <time>2022-06-04T10:28:40Z</time>
      </trkpt>
      <trkpt lat="48.3963510" lon="7.6876600">
        <ele>-281.0</ele>
        <time>2022-06-04T10:28:44Z</time>
      </trkpt>
      <trkpt lat="48.3965380" lon="7.6877350">
        <ele>-281.4</ele>
        <time>2022-06-04T10:28:48Z</time>
      </trkpt>
      <trkpt lat="48.3967230" lon="7.6878080">
        <ele>-281.8</ele>
        <time>2022-06-04T10:28:52Z</time>
      </trkpt>
      <trkpt lat="48.3969080" lon="7.6878810">
        <ele>-281.0</ele>
        <time>2022-06-04T10:28:56Z</time>
      </trkpt>
      <trkpt lat="48.3970980" lon="7.6879480">
        <ele>-281.4</ele>
        <time>2022-06-04T10:29:00Z</time>
      </trkpt>
      <trkpt lat="48.3972900" lon="7.6880260">
        <ele>-281.0</ele>
        <time>2022-06-04T10:29:04Z</time>
      </trkpt>
      <trkpt lat="48.3974810" lon="7.6881110">
        <ele>-281.2</ele>
        <time>2022-06-04T10:29:08Z</time>
      </trkpt>
      <trkpt lat="48.3976700" lon="7.6881800">
        <ele>-281.2</ele>
        <time>2022-06-04T10:29:12Z</time>
      </trkpt>
      <trkpt lat="48.3978510" lon="7.6882330">
        <ele>-280.4</ele>
        <time>2022-06-04T10:29:16Z</time>
      </trkpt>
      <trkpt lat="48.3980400" lon="7.6883010">
        <ele>-280.8</ele>
        <time>2022-06-04T10:29:20Z</time>
      </trkpt>
      <trkpt lat="48.3982310" lon="7.6883780">
        <ele>-280.8</ele>
        <time>2022-06-04T10:29:24Z</time>
      </trkpt>
      <trkpt lat="48.3984250" lon="7.6884400">
        <ele>-280.4</ele>
        <time>2022-06-04T10:29:28Z</time>
      </trkpt>
      <trkpt lat="48.3986150" lon="7.6885250">
        <ele>-280.8</ele>
        <time>2022-06-04T10:29:32Z</time>
      </trkpt>
      <trkpt lat="48.3988030" lon="7.6885950">
        <ele>-280.6</ele>
        <time>2022-06-04T10:29:36Z</time>
      </trkpt>
      <trkpt lat="48.3989910" lon="7.6886700">
        <ele>-280.8</ele>
        <time>2022-06-04T10:29:40Z</time>
      </trkpt>
      <trkpt lat="48.3991880" lon="7.6887480">
        <ele>-281.0</ele>
        <time>2022-06-04T10:29:44Z</time>
      </trkpt>
      <trkpt lat="48.3993880" lon="7.6888280">
        <ele>-281.0</ele>
        <time>2022-06-04T10:29:48Z</time>
      </trkpt>
      <trkpt lat="48.3995830" lon="7.6889050">
        <ele>-280.6</ele>
        <time>2022-06-04T10:29:52Z</time>
      </trkpt>
      <trkpt lat="48.3997760" lon="7.6889800">
        <ele>-280.6</ele>
        <time>2022-06-04T10:29:56Z</time>
      </trkpt>
      <trkpt lat="48.3999880" lon="7.6890730">
        <ele>-281.0</ele>
        <time>2022-06-04T10:30:00Z</time>
      </trkpt>
      <trkpt lat="48.4002110" lon="7.6891610">
        <ele>-281.2</ele>
        <time>2022-06-04T10:30:04Z</time>
      </trkpt>
      <trkpt lat="48.4004360" lon="7.6892450">
        <ele>-281.0</ele>
        <time>2022-06-04T10:30:08Z</time>
      </trkpt>
      <trkpt lat="48.4006650" lon="7.6893160">
        <ele>-281.4</ele>
        <time>2022-06-04T10:30:12Z</time>
      </trkpt>
      <trkpt lat="48.4008680" lon="7.6893930">
        <ele>-281.0</ele>
        <time>2022-06-04T10:30:16Z</time>
      </trkpt>
      <trkpt lat="48.4010530" lon="7.6894630">
        <ele>-281.2</ele>
        <time>2022-06-04T10:30:20Z</time>
      </trkpt>
      <trkpt lat="48.4012260" lon="7.6895410">
        <ele>-281.0</ele>
        <time>2022-06-04T10:30:24Z</time>
      </trkpt>
      <trkpt lat="48.4014080" lon="7.6896180">
        <ele>-280.8</ele>
        <time>2022-06-04T10:30:28Z</time>
      </trkpt>
      <trkpt lat="48.4016000" lon="7.6896910">
        <ele>-281.0</ele>
        <time>2022-06-04T10:30:32Z</time>
      </trkpt>
      <trkpt lat="48.4017900" lon="7.6897610">
        <ele>-281.2</ele>
        <time>2022-06-04T10:30:36Z</time>
      </trkpt>
      <trkpt lat="48.4019800" lon="7.6898280">
        <ele>-281.6</ele>
        <time>2022-06-04T10:30:40Z</time>
      </trkpt>
      <trkpt lat="48.4021550" lon="7.6898930">
        <ele>-281.0</ele>
        <time>2022-06-04T10:30:44Z</time>
      </trkpt>
      <trkpt lat="48.4023230" lon="7.6899580">
        <ele>-281.4</ele>
        <time>2022-06-04T10:30:48Z</time>
      </trkpt>
      <trkpt lat="48.4024860" lon="7.6900250">
        <ele>-281.6</ele>
        <time>2022-06-04T10:30:52Z</time>
      </trkpt>
      <trkpt lat="48.4026710" lon="7.6901050">
        <ele>-281.2</ele>
        <time>2022-06-04T10:30:56Z</time>
      </trkpt>
      <trkpt lat="48.4028530" lon="7.6901710">
        <ele>-281.8</ele>
        <time>2022-06-04T10:31:00Z</time>
      </trkpt>
      <trkpt lat="48.4030310" lon="7.6902300">
        <ele>-280.8</ele>
        <time>2022-06-04T10:31:04Z</time>
      </trkpt>
      <trkpt lat="48.4032160" lon="7.6903010">
        <ele>-280.8</ele>
        <time>2022-06-04T10:31:08Z</time>
      </trkpt>
      <trkpt lat="48.4033960" lon="7.6903730">
        <ele>-281.0</ele>
        <time>2022-06-04T10:31:12Z</time>
      </trkpt>
      <trkpt lat="48.4035730" lon="7.6904410">
        <ele>-281.0</ele>
        <time>2022-06-04T10:31:16Z</time>
      </trkpt>
      <trkpt lat="48.4037450" lon="7.6905060">
        <ele>-281.6</ele>
        <time>2022-06-04T10:31:20Z</time>
      </trkpt>
      <trkpt lat="48.4039030" lon="7.6905830">
        <ele>-280.6</ele>
        <time>2022-06-04T10:31:24Z</time>
      </trkpt>
      <trkpt lat="48.4040730" lon="7.6906560">
        <ele>-280.6</ele>
        <time>2022-06-04T10:31:28Z</time>
      </trkpt>
      <trkpt lat="48.4042410" lon="7.6907330">
        <ele>-281.0</ele>
        <time>2022-06-04T10:31:32Z</time>
      </trkpt>
      <trkpt lat="48.4044080" lon="7.6908060">
        <ele>-281.0</ele>
        <time>2022-06-04T10:31:36Z</time>
      </trkpt>
      <trkpt lat="48.4045900" lon="7.6908650">
        <ele>-281.0</ele>
        <time>2022-06-04T10:31:40Z</time>
      </trkpt>
      <trkpt lat="48.4047700" lon="7.6909360">
        <ele>-281.2</ele>
        <time>2022-06-04T10:31:44Z</time>
      </trkpt>
      <trkpt lat="48.4049710" lon="7.6910110">
        <ele>-281.4</ele>
        <time>2022-06-04T10:31:48Z</time>
      </trkpt>
      <trkpt lat="48.4051560" lon="7.6910810">
        <ele>-281.2</ele>
        <time>2022-06-04T10:31:52Z</time>
      </trkpt>
      <trkpt lat="48.4053360" lon="7.6911430">
        <ele>-281.2</ele>
        <time>2022-06-04T10:31:56Z</time>
      </trkpt>
      <trkpt lat="48.4055110" lon="7.6912150">
        <ele>-280.8</ele>
        <time>2022-06-04T10:32:00Z</time>
      </trkpt>
      <trkpt lat="48.4056980" lon="7.6912800">
        <ele>-281.2</ele>
        <time>2022-06-04T10:32:04Z</time>
      </trkpt>
      <trkpt lat="48.4058810" lon="7.6913460">
        <ele>-281.0</ele>
        <time>2022-06-04T10:32:08Z</time>
      </trkpt>
      <trkpt lat="48.4060560" lon="7.6914180">
        <ele>-281.6</ele>
        <time>2022-06-04T10:32:12Z</time>
      </trkpt>
      <trkpt lat="48.4062310" lon="7.6914860">
        <ele>-280.6</ele>
        <time>2022-06-04T10:32:16Z</time>
      </trkpt>
      <trkpt lat="48.4064080" lon="7.6915510">
        <ele>-281.2</ele>
        <time>2022-06-04T10:32:20Z</time>
      </trkpt>
      <trkpt lat="48.4065850" lon="7.6916180">
        <ele>-280.4</ele>
        <time>2022-06-04T10:32:24Z</time>
      </trkpt>
      <trkpt lat="48.4067600" lon="7.6916900">
        <ele>-280.4</ele>
        <time>2022-06-04T10:32:28Z</time>
      </trkpt>
      <trkpt lat="48.4069360" lon="7.6917600">
        <ele>-280.2</ele>
        <time>2022-06-04T10:32:32Z</time>
      </trkpt>
      <trkpt lat="48.4071160" lon="7.6918310">
        <ele>-280.8</ele>
        <time>2022-06-04T10:32:36Z</time>
      </trkpt>
      <trkpt lat="48.4072930" lon="7.6918950">
        <ele>-280.6</ele>
        <time>2022-06-04T10:32:40Z</time>
      </trkpt>
      <trkpt lat="48.4074680" lon="7.6919660">
        <ele>-281.0</ele>
        <time>2022-06-04T10:32:44Z</time>
      </trkpt>
      <trkpt lat="48.4076430" lon="7.6920400">
        <ele>-280.8</ele>
        <time>2022-06-04T10:32:48Z</time>
      </trkpt>
      <trkpt lat="48.4078150" lon="7.6920910">
        <ele>-280.4</ele>
        <time>2022-06-04T10:32:52Z</time>
      </trkpt>
      <trkpt lat="48.4080010" lon="7.6921150">
        <ele>-280.4</ele>
        <time>2022-06-04T10:32:56Z</time>
      </trkpt>
      <trkpt lat="48.4081680" lon="7.6921380">
        <ele>-280.4</ele>
        <time>2022-06-04T10:33:00Z</time>
      </trkpt>
      <trkpt lat="48.4083330" lon="7.6921880">
        <ele>-281.0</ele>
        <time>2022-06-04T10:33:04Z</time>
      </trkpt>
      <trkpt lat="48.4085130" lon="7.6922610">
        <ele>-281.4</ele>
        <time>2022-06-04T10:33:08Z</time>
      </trkpt>
      <trkpt lat="48.4086850" lon="7.6923400">
        <ele>-280.8</ele>
        <time>2022-06-04T10:33:12Z</time>
      </trkpt>
      <trkpt lat="48.4088610" lon="7.6924050">
        <ele>-281.4</ele>
        <time>2022-06-04T10:33:16Z</time>
      </trkpt>
      <trkpt lat="48.4090280" lon="7.6924830">
        <ele>-281.2</ele>
        <time>2022-06-04T10:33:20Z</time>
      </trkpt>
      <trkpt lat="48.4092100" lon="7.6925550">
        <ele>-281.4</ele>
        <time>2022-06-04T10:33:24Z</time>
      </trkpt>
      <trkpt lat="48.4093800" lon="7.6925960">
        <ele>-280.8</ele>
        <time>2022-06-04T10:33:28Z</time>
      </trkpt>
      <trkpt lat="48.4095600" lon="7.6926660">
        <ele>-280.6</ele>
        <time>2022-06-04T10:33:32Z</time>
      </trkpt>
      <trkpt lat="48.4097430" lon="7.6927410">
        <ele>-281.2</ele>
        <time>2022-06-04T10:33:36Z</time>
      </trkpt>
      <trkpt lat="48.4099210" lon="7.6928130">
        <ele>-281.0</ele>
        <time>2022-06-04T10:33:40Z</time>
      </trkpt>
      <trkpt lat="48.4101010" lon="7.6928830">
        <ele>-280.6</ele>
        <time>2022-06-04T10:33:44Z</time>
      </trkpt>
      <trkpt lat="48.4102830" lon="7.6929560">
        <ele>-280.8</ele>
        <time>2022-06-04T10:33:48Z</time>
      </trkpt>
      <trkpt lat="48.4104680" lon="7.6930260">
        <ele>-280.6</ele>
        <time>2022-06-04T10:33:52Z</time>
      </trkpt>
      <trkpt lat="48.4106510" lon="7.6930950">
        <ele>-281.2</ele>
        <time>2022-06-04T10:33:56Z</time>
      </trkpt>
      <trkpt lat="48.4108350" lon="7.6931680">
        <ele>-280.6</ele>
        <time>2022-06-04T10:34:00Z</time>
      </trkpt>
      <trkpt lat="48.4110060" lon="7.6932580">
        <ele>-281.6</ele>
        <time>2022-06-04T10:34:04Z</time>
      </trkpt>
      <trkpt lat="48.4111750" lon="7.6933960">
        <ele>-281.2</ele>
        <time>2022-06-04T10:34:08Z</time>
      </trkpt>
      <trkpt lat="48.4113530" lon="7.6934750">
        <ele>-281.0</ele>
        <time>2022-06-04T10:34:12Z</time>
      </trkpt>
      <trkpt lat="48.4115330" lon="7.6935430">
        <ele>-281.0</ele>
        <time>2022-06-04T10:34:16Z</time>
      </trkpt>
      <trkpt lat="48.4117150" lon="7.6936180">
        <ele>-281.0</ele>
        <time>2022-06-04T10:34:20Z</time>
      </trkpt>
      <trkpt lat="48.4119010" lon="7.6936860">
        <ele>-280.8</ele>
        <time>2022-06-04T10:34:24Z</time>
      </trkpt>
      <trkpt lat="48.4120860" lon="7.6937600">
        <ele>-281.2</ele>
        <time>2022-06-04T10:34:28Z</time>
      </trkpt>
      <trkpt lat="48.4122800" lon="7.6938310">
        <ele>-280.6</ele>
        <time>2022-06-04T10:34:32Z</time>
      </trkpt>
      <trkpt lat="48.4124710" lon="7.6938910">
        <ele>-280.8</ele>
        <time>2022-06-04T10:34:36Z</time>
      </trkpt>
      <trkpt lat="48.4126650" lon="7.6939160">
        <ele>-280.4</ele>
        <time>2022-06-04T10:34:40Z</time>
      </trkpt>
      <trkpt lat="48.4128500" lon="7.6939750">
        <ele>-280.8</ele>
        <time>2022-06-04T10:34:44Z</time>
      </trkpt>
      <trkpt lat="48.4130330" lon="7.6940530">
        <ele>-281.0</ele>
        <time>2022-06-04T10:34:48Z</time>
      </trkpt>
      <trkpt lat="48.4132210" lon="7.6941300">
        <ele>-281.0</ele>
        <time>2022-06-04T10:34:52Z</time>
      </trkpt>
      <trkpt lat="48.4134130" lon="7.6941960">
        <ele>-281.0</ele>
        <time>2022-06-04T10:34:56Z</time>
      </trkpt>
      <trkpt lat="48.4136050" lon="7.6942550">
        <ele>-281.2</ele>
        <time>2022-06-04T10:35:00Z</time>
      </trkpt>
      <trkpt lat="48.4137900" lon="7.6943260">
        <ele>-280.8</ele>
        <time>2022-06-04T10:35:04Z</time>
      </trkpt>
      <trkpt lat="48.4139730" lon="7.6943930">
        <ele>-281.0</ele>
        <time>2022-06-04T10:35:08Z</time>
      </trkpt>
      <trkpt lat="48.4141460" lon="7.6944610">
        <ele>-281.0</ele>
        <time>2022-06-04T10:35:12Z</time>
      </trkpt>
      <trkpt lat="48.4143130" lon="7.6945330">
        <ele>-281.0</ele>
        <time>2022-06-04T10:35:16Z</time>
      </trkpt>
      <trkpt lat="48.4145000" lon="7.6945980">
        <ele>-281.4</ele>
        <time>2022-06-04T10:35:20Z</time>
      </trkpt>
      <trkpt lat="48.4146930" lon="7.6946710">
        <ele>-280.8</ele>
        <time>2022-06-04T10:35:24Z</time>
      </trkpt>
      <trkpt lat="48.4148760" lon="7.6947400">
        <ele>-281.0</ele>
        <time>2022-06-04T10:35:28Z</time>
      </trkpt>
      <trkpt lat="48.4150610" lon="7.6948080">
        <ele>-281.0</ele>
        <time>2022-06-04T10:35:32Z</time>
      </trkpt>
      <trkpt lat="48.4152460" lon="7.6948850">
        <ele>-281.2</ele>
        <time>2022-06-04T10:35:36Z</time>
      </trkpt>
      <trkpt lat="48.4154360" lon="7.6949560">
        <ele>-281.2</ele>
        <time>2022-06-04T10:35:40Z</time>
      </trkpt>
      <trkpt lat="48.4156080" lon="7.6950280">
        <ele>-281.0</ele>
        <time>2022-06-04T10:35:44Z</time>
      </trkpt>
      <trkpt lat="48.4157780" lon="7.6951180">
        <ele>-281.4</ele>
        <time>2022-06-04T10:35:48Z</time>
      </trkpt>
      <trkpt lat="48.4159460" lon="7.6952080">
        <ele>-281.0</ele>
        <time>2022-06-04T10:35:52Z</time>
      </trkpt>
      <trkpt lat="48.4161150" lon="7.6952930">
        <ele>-281.0</ele>
        <time>2022-06-04T10:35:56Z</time>
      </trkpt>
      <trkpt lat="48.4162860" lon="7.6953700">
        <ele>-281.4</ele>
        <time>2022-06-04T10:36:00Z</time>
      </trkpt>
      <trkpt lat="48.4164580" lon="7.6954460">
        <ele>-281.8</ele>
        <time>2022-06-04T10:36:04Z</time>
      </trkpt>
      <trkpt lat="48.4166260" lon="7.6955260">
        <ele>-281.6</ele>
        <time>2022-06-04T10:36:08Z</time>
      </trkpt>
      <trkpt lat="48.4167910" lon="7.6956060">
        <ele>-281.4</ele>
        <time>2022-06-04T10:36:12Z</time>
      </trkpt>
      <trkpt lat="48.4169760" lon="7.6957200">
        <ele>-282.6</ele>
        <time>2022-06-04T10:36:16Z</time>
      </trkpt>
      <trkpt lat="48.4171810" lon="7.6957450">
        <ele>-282.8</ele>
        <time>2022-06-04T10:36:20Z</time>
      </trkpt>
      <trkpt lat="48.4173510" lon="7.6957900">
        <ele>-282.0</ele>
        <time>2022-06-04T10:36:24Z</time>
      </trkpt>
      <trkpt lat="48.4175100" lon="7.6958450">
        <ele>-282.0</ele>
        <time>2022-06-04T10:36:28Z</time>
      </trkpt>
      <trkpt lat="48.4176910" lon="7.6959110">
        <ele>-282.0</ele>
        <time>2022-06-04T10:36:32Z</time>
      </trkpt>
      <trkpt lat="48.4178830" lon="7.6959760">
        <ele>-281.6</ele>
        <time>2022-06-04T10:36:36Z</time>
      </trkpt>
      <trkpt lat="48.4180710" lon="7.6960430">
        <ele>-282.0</ele>
        <time>2022-06-04T10:36:40Z</time>
      </trkpt>
      <trkpt lat="48.4182610" lon="7.6961110">
        <ele>-282.0</ele>
        <time>2022-06-04T10:36:44Z</time>
      </trkpt>
      <trkpt lat="48.4184510" lon="7.6961880">
        <ele>-281.6</ele>
        <time>2022-06-04T10:36:48Z</time>
      </trkpt>
      <trkpt lat="48.4186410" lon="7.6962700">
        <ele>-282.4</ele>
        <time>2022-06-04T10:36:52Z</time>
      </trkpt>
      <trkpt lat="48.4188360" lon="7.6963430">
        <ele>-282.0</ele>
        <time>2022-06-04T10:36:56Z</time>
      </trkpt>
      <trkpt lat="48.4190250" lon="7.6964180">
        <ele>-282.0</ele>
        <time>2022-06-04T10:37:00Z</time>
      </trkpt>
      <trkpt lat="48.4192080" lon="7.6964860">
        <ele>-281.6</ele>
        <time>2022-06-04T10:37:04Z</time>
      </trkpt>
      <trkpt lat="48.4193880" lon="7.6965560">
        <ele>-281.8</ele>
        <time>2022-06-04T10:37:08Z</time>
      </trkpt>
      <trkpt lat="48.4195650" lon="7.6966200">
        <ele>-281.8</ele>
        <time>2022-06-04T10:37:12Z</time>
      </trkpt>
      <trkpt lat="48.4197410" lon="7.6966950">
        <ele>-282.6</ele>
        <time>2022-06-04T10:37:16Z</time>
      </trkpt>
      <trkpt lat="48.4199110" lon="7.6967650">
        <ele>-282.6</ele>
        <time>2022-06-04T10:37:20Z</time>
      </trkpt>
      <trkpt lat="48.4200880" lon="7.6968380">
        <ele>-282.2</ele>
        <time>2022-06-04T10:37:24Z</time>
      </trkpt>
      <trkpt lat="48.4202480" lon="7.6968960">
        <ele>-282.0</ele>
        <time>2022-06-04T10:37:28Z</time>
      </trkpt>
      <trkpt lat="48.4204230" lon="7.6969680">
        <ele>-282.4</ele>
        <time>2022-06-04T10:37:32Z</time>
      </trkpt>
      <trkpt lat="48.4206050" lon="7.6970350">
        <ele>-282.4</ele>
        <time>2022-06-04T10:37:36Z</time>
      </trkpt>
      <trkpt lat="48.4207930" lon="7.6971060">
        <ele>-281.8</ele>
        <time>2022-06-04T10:37:40Z</time>
      </trkpt>
      <trkpt lat="48.4209680" lon="7.6971080">
        <ele>-280.4</ele>
        <time>2022-06-04T10:37:44Z</time>
      </trkpt>
      <trkpt lat="48.4211350" lon="7.6971230">
        <ele>-280.2</ele>
        <time>2022-06-04T10:37:48Z</time>
      </trkpt>
      <trkpt lat="48.4213060" lon="7.6971380">
        <ele>-279.8</ele>
        <time>2022-06-04T10:37:52Z</time>
      </trkpt>
      <trkpt lat="48.4214660" lon="7.6971550">
        <ele>-279.4</ele>
        <time>2022-06-04T10:37:56Z</time>
      </trkpt>
      <trkpt lat="48.4216460" lon="7.6971800">
        <ele>-279.2</ele>
        <time>2022-06-04T10:38:00Z</time>
      </trkpt>
      <trkpt lat="48.4218380" lon="7.6972850">
        <ele>-280.2</ele>
        <time>2022-06-04T10:38:04Z</time>
      </trkpt>
      <trkpt lat="48.4220250" lon="7.6974860">
        <ele>-281.0</ele>
        <time>2022-06-04T10:38:08Z</time>
      </trkpt>
      <trkpt lat="48.4222400" lon="7.6976550">
        <ele>-281.2</ele>
        <time>2022-06-04T10:38:12Z</time>
      </trkpt>
      <trkpt lat="48.4224730" lon="7.6977530">
        <ele>-281.6</ele>
        <time>2022-06-04T10:38:16Z</time>
      </trkpt>
      <trkpt lat="48.4227060" lon="7.6978330">
        <ele>-282.2</ele>
        <time>2022-06-04T10:38:20Z</time>
      </trkpt>
      <trkpt lat="48.4229400" lon="7.6979030">
        <ele>-282.6</ele>
        <time>2022-06-04T10:38:24Z</time>
      </trkpt>
      <trkpt lat="48.4231480" lon="7.6979850">
        <ele>-281.8</ele>
        <time>2022-06-04T10:38:28Z</time>
      </trkpt>
      <trkpt lat="48.4233330" lon="7.6980600">
        <ele>-282.8</ele>
        <time>2022-06-04T10:38:32Z</time>
      </trkpt>
      <trkpt lat="48.4235330" lon="7.6981360">
        <ele>-281.6</ele>
        <time>2022-06-04T10:38:36Z</time>
      </trkpt>
      <trkpt lat="48.4237380" lon="7.6982200">
        <ele>-281.8</ele>
        <time>2022-06-04T10:38:40Z</time>
      </trkpt>
      <trkpt lat="48.4239430" lon="7.6983000">
        <ele>-282.0</ele>
        <time>2022-06-04T10:38:44Z</time>
      </trkpt>
      <trkpt lat="48.4241460" lon="7.6983760">
        <ele>-281.8</ele>
        <time>2022-06-04T10:38:48Z</time>
      </trkpt>
      <trkpt lat="48.4243500" lon="7.6984660">
        <ele>-282.2</ele>
        <time>2022-06-04T10:38:52Z</time>
      </trkpt>
      <trkpt lat="48.4245630" lon="7.6985530">
        <ele>-282.2</ele>
        <time>2022-06-04T10:38:56Z</time>
      </trkpt>
      <trkpt lat="48.4247780" lon="7.6986280">
        <ele>-281.6</ele>
        <time>2022-06-04T10:39:00Z</time>
      </trkpt>
      <trkpt lat="48.4249810" lon="7.6987150">
        <ele>-282.0</ele>
        <time>2022-06-04T10:39:04Z</time>
      </trkpt>
      <trkpt lat="48.4251700" lon="7.6988080">
        <ele>-283.2</ele>
        <time>2022-06-04T10:39:08Z</time>
      </trkpt>
      <trkpt lat="48.4253760" lon="7.6989080">
        <ele>-282.8</ele>
        <time>2022-06-04T10:39:12Z</time>
      </trkpt>
      <trkpt lat="48.4255930" lon="7.6989430">
        <ele>-282.6</ele>
        <time>2022-06-04T10:39:16Z</time>
      </trkpt>
      <trkpt lat="48.4258000" lon="7.6990150">
        <ele>-283.0</ele>
        <time>2022-06-04T10:39:20Z</time>
      </trkpt>
      <trkpt lat="48.4260050" lon="7.6990980">
        <ele>-282.8</ele>
        <time>2022-06-04T10:39:24Z</time>
      </trkpt>
      <trkpt lat="48.4262030" lon="7.6991850">
        <ele>-283.0</ele>
        <time>2022-06-04T10:39:28Z</time>
      </trkpt>
      <trkpt lat="48.4264050" lon="7.6992730">
        <ele>-283.8</ele>
        <time>2022-06-04T10:39:32Z</time>
      </trkpt>
      <trkpt lat="48.4266160" lon="7.6993460">
        <ele>-283.2</ele>
        <time>2022-06-04T10:39:36Z</time>
      </trkpt>
      <trkpt lat="48.4268310" lon="7.6994350">
        <ele>-283.2</ele>
        <time>2022-06-04T10:39:40Z</time>
      </trkpt>
      <trkpt lat="48.4270510" lon="7.6995210">
        <ele>-283.2</ele>
        <time>2022-06-04T10:39:44Z</time>
      </trkpt>
      <trkpt lat="48.4272650" lon="7.6996000">
        <ele>-282.2</ele>
        <time>2022-06-04T10:39:48Z</time>
      </trkpt>
      <trkpt lat="48.4274950" lon="7.6996910">
        <ele>-282.2</ele>
        <time>2022-06-04T10:39:52Z</time>
      </trkpt>
      <trkpt lat="48.4277230" lon="7.6997950">
        <ele>-282.2</ele>
        <time>2022-06-04T10:39:56Z</time>
      </trkpt>
      <trkpt lat="48.4279610" lon="7.6998880">
        <ele>-282.6</ele>
        <time>2022-06-04T10:40:00Z</time>
      </trkpt>
      <trkpt lat="48.4282080" lon="7.6999680">
        <ele>-282.2</ele>
        <time>2022-06-04T10:40:04Z</time>
      </trkpt>
      <trkpt lat="48.4284450" lon="7.7000730">
        <ele>-282.0</ele>
        <time>2022-06-04T10:40:08Z</time>
      </trkpt>
      <trkpt lat="48.4286780" lon="7.7001680">
        <ele>-282.4</ele>
        <time>2022-06-04T10:40:12Z</time>
      </trkpt>
      <trkpt lat="48.4289080" lon="7.7002630">
        <ele>-282.2</ele>
        <time>2022-06-04T10:40:16Z</time>
      </trkpt>
      <trkpt lat="48.4291400" lon="7.7003610">
        <ele>-283.2</ele>
        <time>2022-06-04T10:40:20Z</time>
      </trkpt>
      <trkpt lat="48.4293680" lon="7.7004480">
        <ele>-282.4</ele>
        <time>2022-06-04T10:40:24Z</time>
      </trkpt>
      <trkpt lat="48.4295980" lon="7.7005380">
        <ele>-282.4</ele>
        <time>2022-06-04T10:40:28Z</time>
      </trkpt>
      <trkpt lat="48.4298210" lon="7.7006180">
        <ele>-282.0</ele>
        <time>2022-06-04T10:40:32Z</time>
      </trkpt>
      <trkpt lat="48.4300450" lon="7.7006980">
        <ele>-283.2</ele>
        <time>2022-06-04T10:40:36Z</time>
      </trkpt>
      <trkpt lat="48.4302610" lon="7.7007830">
        <ele>-283.2</ele>
        <time>2022-06-04T10:40:40Z</time>
      </trkpt>
      <trkpt lat="48.4304780" lon="7.7008660">
        <ele>-283.2</ele>
        <time>2022-06-04T10:40:44Z</time>
      </trkpt>
      <trkpt lat="48.4306950" lon="7.7009530">
        <ele>-283.6</ele>
        <time>2022-06-04T10:40:48Z</time>
      </trkpt>
      <trkpt lat="48.4309130" lon="7.7010380">
        <ele>-282.4</ele>
        <time>2022-06-04T10:40:52Z</time>
      </trkpt>
      <trkpt lat="48.4311360" lon="7.7011060">
        <ele>-282.8</ele>
        <time>2022-06-04T10:40:56Z</time>
      </trkpt>
      <trkpt lat="48.4313530" lon="7.7011910">
        <ele>-282.6</ele>
        <time>2022-06-04T10:41:00Z</time>
      </trkpt>
      <trkpt lat="48.4315750" lon="7.7012760">
        <ele>-282.6</ele>
        <time>2022-06-04T10:41:04Z</time>
      </trkpt>
      <trkpt lat="48.4317950" lon="7.7013350">
        <ele>-283.2</ele>
        <time>2022-06-04T10:41:08Z</time>
      </trkpt>
      <trkpt lat="48.4320360" lon="7.7014380">
        <ele>-282.4</ele>
        <time>2022-06-04T10:41:12Z</time>
      </trkpt>
      <trkpt lat="48.4322680" lon="7.7015380">
        <ele>-282.6</ele>
        <time>2022-06-04T10:41:16Z</time>
      </trkpt>
      <trkpt lat="48.4324860" lon="7.7016300">
        <ele>-284.2</ele>
        <time>2022-06-04T10:41:20Z</time>
      </trkpt>
      <trkpt lat="48.4326930" lon="7.7017150">
        <ele>-283.0</ele>
        <time>2022-06-04T10:41:24Z</time>
      </trkpt>
      <trkpt lat="48.4329080" lon="7.7018010">
        <ele>-283.2</ele>
        <time>2022-06-04T10:41:28Z</time>
      </trkpt>
      <trkpt lat="48.4331250" lon="7.7018760">
        <ele>-282.4</ele>
        <time>2022-06-04T10:41:32Z</time>
      </trkpt>
      <trkpt lat="48.4333360" lon="7.7019630">
        <ele>-282.4</ele>
        <time>2022-06-04T10:41:36Z</time>
      </trkpt>
      <trkpt lat="48.4335480" lon="7.7020410">
        <ele>-282.6</ele>
        <time>2022-06-04T10:41:40Z</time>
      </trkpt>
      <trkpt lat="48.4337580" lon="7.7021250">
        <ele>-282.6</ele>
        <time>2022-06-04T10:41:44Z</time>
      </trkpt>
      <trkpt lat="48.4339760" lon="7.7021910">
        <ele>-283.6</ele>
        <time>2022-06-04T10:41:48Z</time>
      </trkpt>
      <trkpt lat="48.4341960" lon="7.7022760">
        <ele>-283.2</ele>
        <time>2022-06-04T10:41:52Z</time>
      </trkpt>
      <trkpt lat="48.4344160" lon="7.7023680">
        <ele>-282.8</ele>
        <time>2022-06-04T10:41:56Z</time>
      </trkpt>
      <trkpt lat="48.4346310" lon="7.7024650">
        <ele>-282.8</ele>
        <time>2022-06-04T10:42:00Z</time>
      </trkpt>
      <trkpt lat="48.4348450" lon="7.7025480">
        <ele>-283.2</ele>
        <time>2022-06-04T10:42:04Z</time>
      </trkpt>
      <trkpt lat="48.4350610" lon="7.7026350">
        <ele>-283.0</ele>
        <time>2022-06-04T10:42:08Z</time>
      </trkpt>
      <trkpt lat="48.4352850" lon="7.7027000">
        <ele>-282.4</ele>
        <time>2022-06-04T10:42:12Z</time>
      </trkpt>
      <trkpt lat="48.4354880" lon="7.7027100">
        <ele>-283.8</ele>
        <time>2022-06-04T10:42:16Z</time>
      </trkpt>
      <trkpt lat="48.4356680" lon="7.7027680">
        <ele>-283.2</ele>
        <time>2022-06-04T10:42:20Z</time>
      </trkpt>
      <trkpt lat="48.4358760" lon="7.7028500">
        <ele>-283.8</ele>
        <time>2022-06-04T10:42:24Z</time>
      </trkpt>
      <trkpt lat="48.4360930" lon="7.7029360">
        <ele>-282.8</ele>
        <time>2022-06-04T10:42:28Z</time>
      </trkpt>
      <trkpt lat="48.4362860" lon="7.7030110">
        <ele>-282.6</ele>
        <time>2022-06-04T10:42:32Z</time>
      </trkpt>
      <trkpt lat="48.4365000" lon="7.7031010">
        <ele>-282.6</ele>
        <time>2022-06-04T10:42:36Z</time>
      </trkpt>
      <trkpt lat="48.4367300" lon="7.7031910">
        <ele>-282.8</ele>
        <time>2022-06-04T10:42:40Z</time>
      </trkpt>
      <trkpt lat="48.4369510" lon="7.7032800">
        <ele>-283.0</ele>
        <time>2022-06-04T10:42:44Z</time>
      </trkpt>
      <trkpt lat="48.4371930" lon="7.7033900">
        <ele>-283.0</ele>
        <time>2022-06-04T10:42:48Z</time>
      </trkpt>
      <trkpt lat="48.4374510" lon="7.7034910">
        <ele>-282.8</ele>
        <time>2022-06-04T10:42:52Z</time>
      </trkpt>
      <trkpt lat="48.4377050" lon="7.7035980">
        <ele>-282.6</ele>
        <time>2022-06-04T10:42:56Z</time>
      </trkpt>
      <trkpt lat="48.4379960" lon="7.7037110">
        <ele>-283.6</ele>
        <time>2022-06-04T10:43:00Z</time>
      </trkpt>
      <trkpt lat="48.4382610" lon="7.7038260">
        <ele>-282.8</ele>
        <time>2022-06-04T10:43:04Z</time>
      </trkpt>
      <trkpt lat="48.4385110" lon="7.7039130">
        <ele>-282.8</ele>
        <time>2022-06-04T10:43:08Z</time>
      </trkpt>
      <trkpt lat="48.4387530" lon="7.7039710">
        <ele>-283.4</ele>
        <time>2022-06-04T10:43:12Z</time>
      </trkpt>
      <trkpt lat="48.4389950" lon="7.7040580">
        <ele>-282.6</ele>
        <time>2022-06-04T10:43:16Z</time>
      </trkpt>
      <trkpt lat="48.4392510" lon="7.7041750">
        <ele>-282.6</ele>
        <time>2022-06-04T10:43:20Z</time>
      </trkpt>
      <trkpt lat="48.4394880" lon="7.7043180">
        <ele>-283.0</ele>
        <time>2022-06-04T10:43:24Z</time>
      </trkpt>
      <trkpt lat="48.4397100" lon="7.7044350">
        <ele>-282.4</ele>
        <time>2022-06-04T10:43:28Z</time>
      </trkpt>
      <trkpt lat="48.4399310" lon="7.7045250">
        <ele>-283.8</ele>
        <time>2022-06-04T10:43:32Z</time>
      </trkpt>
      <trkpt lat="48.4401660" lon="7.7046210">
        <ele>-283.4</ele>
        <time>2022-06-04T10:43:36Z</time>
      </trkpt>
      <trkpt lat="48.4404000" lon="7.7047180">
        <ele>-283.0</ele>
        <time>2022-06-04T10:43:40Z</time>
      </trkpt>
      <trkpt lat="48.4406300" lon="7.7048110">
        <ele>-282.8</ele>
        <time>2022-06-04T10:43:44Z</time>
      </trkpt>
      <trkpt lat="48.4408550" lon="7.7048950">
        <ele>-282.0</ele>
        <time>2022-06-04T10:43:48Z</time>
      </trkpt>
      <trkpt lat="48.4410780" lon="7.7049850">
        <ele>-281.8</ele>
        <time>2022-06-04T10:43:52Z</time>
      </trkpt>
      <trkpt lat="48.4413010" lon="7.7050780">
        <ele>-282.2</ele>
        <time>2022-06-04T10:43:56Z</time>
      </trkpt>
      <trkpt lat="48.4415310" lon="7.7052110">
        <ele>-282.8</ele>
        <time>2022-06-04T10:44:00Z</time>
      </trkpt>
      <trkpt lat="48.4417810" lon="7.7052830">
        <ele>-282.4</ele>
        <time>2022-06-04T10:44:04Z</time>
      </trkpt>
      <trkpt lat="48.4420260" lon="7.7053400">
        <ele>-282.0</ele>
        <time>2022-06-04T10:44:08Z</time>
      </trkpt>
      <trkpt lat="48.4422450" lon="7.7054100">
        <ele>-282.0</ele>
        <time>2022-06-04T10:44:12Z</time>
      </trkpt>
      <trkpt lat="48.4424500" lon="7.7054530">
        <ele>-282.2</ele>
        <time>2022-06-04T10:44:16Z</time>
      </trkpt>
      <trkpt lat="48.4426400" lon="7.7055400">
        <ele>-283.6</ele>
        <time>2022-06-04T10:44:20Z</time>
      </trkpt>
      <trkpt lat="48.4428080" lon="7.7056110">
        <ele>-283.2</ele>
        <time>2022-06-04T10:44:24Z</time>
      </trkpt>
      <trkpt lat="48.4429550" lon="7.7056610">
        <ele>-283.2</ele>
        <time>2022-06-04T10:44:28Z</time>
      </trkpt>
      <trkpt lat="48.4431050" lon="7.7057180">
        <ele>-283.2</ele>
        <time>2022-06-04T10:44:32Z</time>
      </trkpt>
      <trkpt lat="48.4432250" lon="7.7057310">
        <ele>-283.2</ele>
        <time>2022-06-04T10:44:36Z</time>
      </trkpt>
      <trkpt lat="48.4433710" lon="7.7057660">
        <ele>-284.0</ele>
        <time>2022-06-04T10:44:40Z</time>
      </trkpt>
      <trkpt lat="48.4435400" lon="7.7058400">
        <ele>-283.8</ele>
        <time>2022-06-04T10:44:44Z</time>
      </trkpt>
      <trkpt lat="48.4437330" lon="7.7059080">
        <ele>-283.8</ele>
        <time>2022-06-04T10:44:48Z</time>
      </trkpt>
      <trkpt lat="48.4439300" lon="7.7059680">
        <ele>-283.8</ele>
        <time>2022-06-04T10:44:52Z</time>
      </trkpt>
      <trkpt lat="48.4441260" lon="7.7060480">
        <ele>-284.0</ele>
        <time>2022-06-04T10:44:56Z</time>
      </trkpt>
      <trkpt lat="48.4443560" lon="7.7061250">
        <ele>-283.2</ele>
        <time>2022-06-04T10:45:00Z</time>
      </trkpt>
      <trkpt lat="48.4445580" lon="7.7062100">
        <ele>-283.2</ele>
        <time>2022-06-04T10:45:04Z</time>
      </trkpt>
      <trkpt lat="48.4447400" lon="7.7062680">
        <ele>-283.2</ele>
        <time>2022-06-04T10:45:08Z</time>
      </trkpt>
      <trkpt lat="48.4449530" lon="7.7063310">
        <ele>-283.2</ele>
        <time>2022-06-04T10:45:12Z</time>
      </trkpt>
      <trkpt lat="48.4451410" lon="7.7063960">
        <ele>-283.4</ele>
        <time>2022-06-04T10:45:16Z</time>
      </trkpt>
      <trkpt lat="48.4453210" lon="7.7064650">
        <ele>-283.8</ele>
        <time>2022-06-04T10:45:20Z</time>
      </trkpt>
      <trkpt lat="48.4455100" lon="7.7065430">
        <ele>-283.8</ele>
        <time>2022-06-04T10:45:24Z</time>
      </trkpt>
      <trkpt lat="48.4457230" lon="7.7066730">
        <ele>-283.6</ele>
        <time>2022-06-04T10:45:28Z</time>
      </trkpt>
      <trkpt lat="48.4459160" lon="7.7067500">
        <ele>-283.6</ele>
        <time>2022-06-04T10:45:32Z</time>
      </trkpt>
      <trkpt lat="48.4461300" lon="7.7068180">
        <ele>-283.8</ele>
        <time>2022-06-04T10:45:36Z</time>
      </trkpt>
      <trkpt lat="48.4463110" lon="7.7068880">
        <ele>-283.6</ele>
        <time>2022-06-04T10:45:40Z</time>
      </trkpt>
      <trkpt lat="48.4464780" lon="7.7069450">
        <ele>-283.6</ele>
        <time>2022-06-04T10:45:44Z</time>
      </trkpt>
      <trkpt lat="48.4466100" lon="7.7070150">
        <ele>-283.8</ele>
        <time>2022-06-04T10:45:48Z</time>
      </trkpt>
      <trkpt lat="48.4467200" lon="7.7070460">
        <ele>-284.6</ele>
        <time>2022-06-04T10:45:52Z</time>
      </trkpt>
      <trkpt lat="48.4467200" lon="7.7070460">
        <ele>-284.4</ele>
        <time>2022-06-04T10:45:56Z</time>
      </trkpt>
      <trkpt lat="48.4467200" lon="7.7070460">
        <ele>-284.0</ele>
        <time>2022-06-04T10:46:00Z</time>
      </trkpt>
      <trkpt lat="48.4467200" lon="7.7070460">
        <ele>-283.8</ele>
        <time>2022-06-04T10:46:04Z</time>
      </trkpt>
      <trkpt lat="48.4467200" lon="7.7070460">
        <ele>-283.8</ele>
        <time>2022-06-04T10:46:08Z</time>
      </trkpt>
      <trkpt lat="48.4467200" lon="7.7070460">
        <ele>-284.4</ele>
        <time>2022-06-04T10:46:12Z</time>
      </trkpt>
      <trkpt lat="48.4467200" lon="7.7070460">
        <ele>-284.2</ele>
        <time>2022-06-04T10:46:16Z</time>
      </trkpt>
      <trkpt lat="48.4467200" lon="7.7070460">
        <ele>-284.2</ele>
        <time>2022-06-04T10:46:20Z</time>
      </trkpt>
      <trkpt lat="48.4467200" lon="7.7070460">
        <ele>-284.2</ele>
        <time>2022-06-04T10:46:24Z</time>
      </trkpt>
      <trkpt lat="48.4467200" lon="7.7070460">
        <ele>-284.2</ele>
        <time>2022-06-04T10:46:28Z</time>
      </trkpt>
      <trkpt lat="48.4467200" lon="7.7070460">
        <ele>-284.0</ele>
        <time>2022-06-04T10:46:32Z</time>
      </trkpt>
      <trkpt lat="48.4469760" lon="7.7071500">
        <ele>-283.4</ele>
        <time>2022-06-04T10:46:36Z</time>
      </trkpt>
      <trkpt lat="48.4469760" lon="7.7071500">
        <ele>-284.0</ele>
        <time>2022-06-04T10:46:40Z</time>
      </trkpt>
      <trkpt lat="48.4469760" lon="7.7071500">
        <ele>-283.4</ele>
        <time>2022-06-04T10:46:44Z</time>
      </trkpt>
      <trkpt lat="48.4470180" lon="7.7071800">
        <ele>-283.8</ele>
        <time>2022-06-04T10:46:48Z</time>
      </trkpt>
      <trkpt lat="48.4470580" lon="7.7072000">
        <ele>-283.6</ele>
        <time>2022-06-04T10:46:52Z</time>
      </trkpt>
      <trkpt lat="48.4471210" lon="7.7072360">
        <ele>-283.8</ele>
        <time>2022-06-04T10:46:56Z</time>
      </trkpt>
      <trkpt lat="48.4472150" lon="7.7072930">
        <ele>-283.8</ele>
        <time>2022-06-04T10:47:00Z</time>
      </trkpt>
      <trkpt lat="48.4473060" lon="7.7073450">
        <ele>-283.8</ele>
        <time>2022-06-04T10:47:04Z</time>
      </trkpt>
      <trkpt lat="48.4474200" lon="7.7074080">
        <ele>-284.0</ele>
        <time>2022-06-04T10:47:08Z</time>
      </trkpt>
      <trkpt lat="48.4475560" lon="7.7074550">
        <ele>-283.8</ele>
        <time>2022-06-04T10:47:12Z</time>
      </trkpt>
      <trkpt lat="48.4477510" lon="7.7075080">
        <ele>-284.4</ele>
        <time>2022-06-04T10:47:16Z</time>
      </trkpt>
      <trkpt lat="48.4479230" lon="7.7075730">
        <ele>-283.6</ele>
        <time>2022-06-04T10:47:20Z</time>
      </trkpt>
      <trkpt lat="48.4481150" lon="7.7076360">
        <ele>-283.8</ele>
        <time>2022-06-04T10:47:24Z</time>
      </trkpt>
      <trkpt lat="48.4482850" lon="7.7076960">
        <ele>-283.8</ele>
        <time>2022-06-04T10:47:28Z</time>
      </trkpt>
      <trkpt lat="48.4484830" lon="7.7077760">
        <ele>-284.0</ele>
        <time>2022-06-04T10:47:32Z</time>
      </trkpt>
      <trkpt lat="48.4486710" lon="7.7078410">
        <ele>-284.6</ele>
        <time>2022-06-04T10:47:36Z</time>
      </trkpt>
      <trkpt lat="48.4488610" lon="7.7079150">
        <ele>-283.6</ele>
        <time>2022-06-04T10:47:40Z</time>
      </trkpt>
      <trkpt lat="48.4490450" lon="7.7079860">
        <ele>-283.2</ele>
        <time>2022-06-04T10:47:44Z</time>
      </trkpt>
      <trkpt lat="48.4492260" lon="7.7080650">
        <ele>-283.8</ele>
        <time>2022-06-04T10:47:48Z</time>
      </trkpt>
      <trkpt lat="48.4494560" lon="7.7081500">
        <ele>-282.6</ele>
        <time>2022-06-04T10:47:52Z</time>
      </trkpt>
      <trkpt lat="48.4496850" lon="7.7082380">
        <ele>-283.0</ele>
        <time>2022-06-04T10:47:56Z</time>
      </trkpt>
      <trkpt lat="48.4498860" lon="7.7082930">
        <ele>-283.0</ele>
        <time>2022-06-04T10:48:00Z</time>
      </trkpt>
      <trkpt lat="48.4500610" lon="7.7083680">
        <ele>-283.2</ele>
        <time>2022-06-04T10:48:04Z</time>
      </trkpt>
      <trkpt lat="48.4502400" lon="7.7084430">
        <ele>-283.0</ele>
        <time>2022-06-04T10:48:08Z</time>
      </trkpt>
      <trkpt lat="48.4504130" lon="7.7085300">
        <ele>-282.8</ele>
        <time>2022-06-04T10:48:12Z</time>
      </trkpt>
      <trkpt lat="48.4505710" lon="7.7086960">
        <ele>-283.4</ele>
        <time>2022-06-04T10:48:16Z</time>
      </trkpt>
      <trkpt lat="48.4507460" lon="7.7087950">
        <ele>-282.6</ele>
        <time>2022-06-04T10:48:20Z</time>
      </trkpt>
      <trkpt lat="48.4509180" lon="7.7088050">
        <ele>-283.0</ele>
        <time>2022-06-04T10:48:24Z</time>
      </trkpt>
      <trkpt lat="48.4510810" lon="7.7088380">
        <ele>-283.0</ele>
        <time>2022-06-04T10:48:28Z</time>
      </trkpt>
      <trkpt lat="48.4512500" lon="7.7089110">
        <ele>-282.8</ele>
        <time>2022-06-04T10:48:32Z</time>
      </trkpt>
      <trkpt lat="48.4514210" lon="7.7089780">
        <ele>-282.8</ele>
        <time>2022-06-04T10:48:36Z</time>
      </trkpt>
      <trkpt lat="48.4515830" lon="7.7090450">
        <ele>-283.0</ele>
        <time>2022-06-04T10:48:40Z</time>
      </trkpt>
      <trkpt lat="48.4517550" lon="7.7091630">
        <ele>-283.6</ele>
        <time>2022-06-04T10:48:44Z</time>
      </trkpt>
      <trkpt lat="48.4519480" lon="7.7092480">
        <ele>-283.8</ele>
        <time>2022-06-04T10:48:48Z</time>
      </trkpt>
      <trkpt lat="48.4521710" lon="7.7093610">
        <ele>-286.0</ele>
        <time>2022-06-04T10:48:52Z</time>
      </trkpt>
      <trkpt lat="48.4524080" lon="7.7094160">
        <ele>-284.4</ele>
        <time>2022-06-04T10:48:56Z</time>
      </trkpt>
      <trkpt lat="48.4526160" lon="7.7094650">
        <ele>-283.8</ele>
        <time>2022-06-04T10:49:00Z</time>
      </trkpt>
      <trkpt lat="48.4528130" lon="7.7095260">
        <ele>-284.4</ele>
        <time>2022-06-04T10:49:04Z</time>
      </trkpt>
      <trkpt lat="48.4530050" lon="7.7096010">
        <ele>-284.4</ele>
        <time>2022-06-04T10:49:08Z</time>
      </trkpt>
      <trkpt lat="48.4531960" lon="7.7096710">
        <ele>-285.2</ele>
        <time>2022-06-04T10:49:12Z</time>
      </trkpt>
      <trkpt lat="48.4533910" lon="7.7097430">
        <ele>-285.0</ele>
        <time>2022-06-04T10:49:16Z</time>
      </trkpt>
      <trkpt lat="48.4535810" lon="7.7098130">
        <ele>-285.4</ele>
        <time>2022-06-04T10:49:20Z</time>
      </trkpt>
      <trkpt lat="48.4537680" lon="7.7098880">
        <ele>-284.6</ele>
        <time>2022-06-04T10:49:24Z</time>
      </trkpt>
      <trkpt lat="48.4539580" lon="7.7099650">
        <ele>-284.4</ele>
        <time>2022-06-04T10:49:28Z</time>
      </trkpt>
      <trkpt lat="48.4541510" lon="7.7100400">
        <ele>-284.8</ele>
        <time>2022-06-04T10:49:32Z</time>
      </trkpt>
      <trkpt lat="48.4543460" lon="7.7101150">
        <ele>-285.0</ele>
        <time>2022-06-04T10:49:36Z</time>
      </trkpt>
      <trkpt lat="48.4545400" lon="7.7101850">
        <ele>-284.2</ele>
        <time>2022-06-04T10:49:40Z</time>
      </trkpt>
      <trkpt lat="48.4547360" lon="7.7102600">
        <ele>-284.2</ele>
        <time>2022-06-04T10:49:44Z</time>
      </trkpt>
      <trkpt lat="48.4549280" lon="7.7103300">
        <ele>-284.4</ele>
        <time>2022-06-04T10:49:48Z</time>
      </trkpt>
      <trkpt lat="48.4551280" lon="7.7104180">
        <ele>-284.2</ele>
        <time>2022-06-04T10:49:52Z</time>
      </trkpt>
      <trkpt lat="48.4553210" lon="7.7104900">
        <ele>-285.2</ele>
        <time>2022-06-04T10:49:56Z</time>
      </trkpt>
      <trkpt lat="48.4555000" lon="7.7105430">
        <ele>-284.2</ele>
        <time>2022-06-04T10:50:00Z</time>
      </trkpt>
      <trkpt lat="48.4556880" lon="7.7106130">
        <ele>-284.4</ele>
        <time>2022-06-04T10:50:04Z</time>
      </trkpt>
      <trkpt lat="48.4558660" lon="7.7106950">
        <ele>-284.4</ele>
        <time>2022-06-04T10:50:08Z</time>
      </trkpt>
      <trkpt lat="48.4560500" lon="7.7107680">
        <ele>-284.4</ele>
        <time>2022-06-04T10:50:12Z</time>
      </trkpt>
      <trkpt lat="48.4562360" lon="7.7108400">
        <ele>-284.8</ele>
        <time>2022-06-04T10:50:16Z</time>
      </trkpt>
      <trkpt lat="48.4564150" lon="7.7109180">
        <ele>-284.2</ele>
        <time>2022-06-04T10:50:20Z</time>
      </trkpt>
      <trkpt lat="48.4565900" lon="7.7109810">
        <ele>-285.0</ele>
        <time>2022-06-04T10:50:24Z</time>
      </trkpt>
      <trkpt lat="48.4567750" lon="7.7110500">
        <ele>-284.4</ele>
        <time>2022-06-04T10:50:28Z</time>
      </trkpt>
      <trkpt lat="48.4569460" lon="7.7111210">
        <ele>-284.0</ele>
        <time>2022-06-04T10:50:32Z</time>
      </trkpt>
      <trkpt lat="48.4571280" lon="7.7111930">
        <ele>-284.4</ele>
        <time>2022-06-04T10:50:36Z</time>
      </trkpt>
      <trkpt lat="48.4573100" lon="7.7112630">
        <ele>-284.4</ele>
        <time>2022-06-04T10:50:40Z</time>
      </trkpt>
      <trkpt lat="48.4575000" lon="7.7113250">
        <ele>-285.0</ele>
        <time>2022-06-04T10:50:44Z</time>
      </trkpt>
      <trkpt lat="48.4576900" lon="7.7114060">
        <ele>-284.4</ele>
        <time>2022-06-04T10:50:48Z</time>
      </trkpt>
      <trkpt lat="48.4578730" lon="7.7114830">
        <ele>-284.8</ele>
        <time>2022-06-04T10:50:52Z</time>
      </trkpt>
      <trkpt lat="48.4580610" lon="7.7115460">
        <ele>-283.8</ele>
        <time>2022-06-04T10:50:56Z</time>
      </trkpt>
      <trkpt lat="48.4582410" lon="7.7116230">
        <ele>-284.4</ele>
        <time>2022-06-04T10:51:00Z</time>
      </trkpt>
      <trkpt lat="48.4584180" lon="7.7117050">
        <ele>-284.0</ele>
        <time>2022-06-04T10:51:04Z</time>
      </trkpt>
      <trkpt lat="48.4585900" lon="7.7117560">
        <ele>-285.0</ele>
        <time>2022-06-04T10:51:08Z</time>
      </trkpt>
      <trkpt lat="48.4587650" lon="7.7118260">
        <ele>-285.0</ele>
        <time>2022-06-04T10:51:12Z</time>
      </trkpt>
      <trkpt lat="48.4589550" lon="7.7119110">
        <ele>-284.8</ele>
        <time>2022-06-04T10:51:16Z</time>
      </trkpt>
      <trkpt lat="48.4591530" lon="7.7119950">
        <ele>-284.4</ele>
        <time>2022-06-04T10:51:20Z</time>
      </trkpt>
      <trkpt lat="48.4593480" lon="7.7120730">
        <ele>-284.4</ele>
        <time>2022-06-04T10:51:24Z</time>
      </trkpt>
      <trkpt lat="48.4595460" lon="7.7121350">
        <ele>-284.4</ele>
        <time>2022-06-04T10:51:28Z</time>
      </trkpt>
      <trkpt lat="48.4597400" lon="7.7122010">
        <ele>-284.4</ele>
        <time>2022-06-04T10:51:32Z</time>
      </trkpt>
      <trkpt lat="48.4599350" lon="7.7122910">
        <ele>-284.4</ele>
        <time>2022-06-04T10:51:36Z</time>
      </trkpt>
      <trkpt lat="48.4601230" lon="7.7123660">
        <ele>-284.8</ele>
        <time>2022-06-04T10:51:40Z</time>
      </trkpt>
      <trkpt lat="48.4603250" lon="7.7124480">
        <ele>-284.8</ele>
        <time>2022-06-04T10:51:44Z</time>
      </trkpt>
      <trkpt lat="48.4605260" lon="7.7125260">
        <ele>-285.0</ele>
        <time>2022-06-04T10:51:48Z</time>
      </trkpt>
      <trkpt lat="48.4607230" lon="7.7126080">
        <ele>-284.2</ele>
        <time>2022-06-04T10:51:52Z</time>
      </trkpt>
      <trkpt lat="48.4609130" lon="7.7126760">
        <ele>-283.8</ele>
        <time>2022-06-04T10:51:56Z</time>
      </trkpt>
      <trkpt lat="48.4611000" lon="7.7127530">
        <ele>-284.2</ele>
        <time>2022-06-04T10:52:00Z</time>
      </trkpt>
      <trkpt lat="48.4612880" lon="7.7128250">
        <ele>-284.0</ele>
        <time>2022-06-04T10:52:04Z</time>
      </trkpt>
      <trkpt lat="48.4614730" lon="7.7128950">
        <ele>-284.0</ele>
        <time>2022-06-04T10:52:08Z</time>
      </trkpt>
      <trkpt lat="48.4616560" lon="7.7129650">
        <ele>-284.4</ele>
        <time>2022-06-04T10:52:12Z</time>
      </trkpt>
      <trkpt lat="48.4618380" lon="7.7130360">
        <ele>-284.8</ele>
        <time>2022-06-04T10:52:16Z</time>
      </trkpt>
      <trkpt lat="48.4620250" lon="7.7131050">
        <ele>-284.0</ele>
        <time>2022-06-04T10:52:20Z</time>
      </trkpt>
      <trkpt lat="48.4622130" lon="7.7131800">
        <ele>-284.2</ele>
        <time>2022-06-04T10:52:24Z</time>
      </trkpt>
      <trkpt lat="48.4624080" lon="7.7132580">
        <ele>-284.8</ele>
        <time>2022-06-04T10:52:28Z</time>
      </trkpt>
      <trkpt lat="48.4625980" lon="7.7133350">
        <ele>-284.2</ele>
        <time>2022-06-04T10:52:32Z</time>
      </trkpt>
      <trkpt lat="48.4627880" lon="7.7134030">
        <ele>-284.6</ele>
        <time>2022-06-04T10:52:36Z</time>
      </trkpt>
      <trkpt lat="48.4629730" lon="7.7134710">
        <ele>-284.6</ele>
        <time>2022-06-04T10:52:40Z</time>
      </trkpt>
      <trkpt lat="48.4631600" lon="7.7135460">
        <ele>-284.4</ele>
        <time>2022-06-04T10:52:44Z</time>
      </trkpt>
      <trkpt lat="48.4633460" lon="7.7136250">
        <ele>-284.6</ele>
        <time>2022-06-04T10:52:48Z</time>
      </trkpt>
      <trkpt lat="48.4635260" lon="7.7136910">
        <ele>-284.4</ele>
        <time>2022-06-04T10:52:52Z</time>
      </trkpt>
      <trkpt lat="48.4636960" lon="7.7137550">
        <ele>-285.0</ele>
        <time>2022-06-04T10:52:56Z</time>
      </trkpt>
      <trkpt lat="48.4638810" lon="7.7138230">
        <ele>-284.8</ele>
        <time>2022-06-04T10:53:00Z</time>
      </trkpt>
      <trkpt lat="48.4640610" lon="7.7138860">
        <ele>-284.8</ele>
        <time>2022-06-04T10:53:04Z</time>
      </trkpt>
      <trkpt lat="48.4642430" lon="7.7139510">
        <ele>-284.2</ele>
        <time>2022-06-04T10:53:08Z</time>
      </trkpt>
      <trkpt lat="48.4644250" lon="7.7140250">
        <ele>-284.6</ele>
        <time>2022-06-04T10:53:12Z</time>
      </trkpt>
      <trkpt lat="48.4646150" lon="7.7140980">
        <ele>-284.6</ele>
        <time>2022-06-04T10:53:16Z</time>
      </trkpt>
      <trkpt lat="48.4647980" lon="7.7141680">
        <ele>-285.2</ele>
        <time>2022-06-04T10:53:20Z</time>
      </trkpt>
      <trkpt lat="48.4649780" lon="7.7142400">
        <ele>-285.0</ele>
        <time>2022-06-04T10:53:24Z</time>
      </trkpt>
      <trkpt lat="48.4651530" lon="7.7143130">
        <ele>-284.8</ele>
        <time>2022-06-04T10:53:28Z</time>
      </trkpt>
      <trkpt lat="48.4653350" lon="7.7143850">
        <ele>-284.8</ele>
        <time>2022-06-04T10:53:32Z</time>
      </trkpt>
      <trkpt lat="48.4655210" lon="7.7144600">
        <ele>-284.8</ele>
        <time>2022-06-04T10:53:36Z</time>
      </trkpt>
      <trkpt lat="48.4656930" lon="7.7145330">
        <ele>-285.0</ele>
        <time>2022-06-04T10:53:40Z</time>
      </trkpt>
      <trkpt lat="48.4658550" lon="7.7145950">
        <ele>-284.6</ele>
        <time>2022-06-04T10:53:44Z</time>
      </trkpt>
      <trkpt lat="48.4660160" lon="7.7146610">
        <ele>-284.6</ele>
        <time>2022-06-04T10:53:48Z</time>
      </trkpt>
      <trkpt lat="48.4661880" lon="7.7147300">
        <ele>-284.6</ele>
        <time>2022-06-04T10:53:52Z</time>
      </trkpt>
      <trkpt lat="48.4663650" lon="7.7147950">
        <ele>-285.0</ele>
        <time>2022-06-04T10:53:56Z</time>
      </trkpt>
      <trkpt lat="48.4665400" lon="7.7148660">
        <ele>-284.6</ele>
        <time>2022-06-04T10:54:00Z</time>
      </trkpt>
      <trkpt lat="48.4667160" lon="7.7149280">
        <ele>-285.2</ele>
        <time>2022-06-04T10:54:04Z</time>
      </trkpt>
      <trkpt lat="48.4668930" lon="7.7149950">
        <ele>-284.8</ele>
        <time>2022-06-04T10:54:08Z</time>
      </trkpt>
      <trkpt lat="48.4670760" lon="7.7150800">
        <ele>-284.8</ele>
        <time>2022-06-04T10:54:12Z</time>
      </trkpt>
      <trkpt lat="48.4672830" lon="7.7151650">
        <ele>-285.2</ele>
        <time>2022-06-04T10:54:16Z</time>
      </trkpt>
      <trkpt lat="48.4674880" lon="7.7152410">
        <ele>-285.4</ele>
        <time>2022-06-04T10:54:20Z</time>
      </trkpt>
      <trkpt lat="48.4676950" lon="7.7153260">
        <ele>-285.0</ele>
        <time>2022-06-04T10:54:24Z</time>
      </trkpt>
      <trkpt lat="48.4678950" lon="7.7154050">
        <ele>-284.8</ele>
        <time>2022-06-04T10:54:28Z</time>
      </trkpt>
      <trkpt lat="48.4680900" lon="7.7154950">
        <ele>-284.4</ele>
        <time>2022-06-04T10:54:32Z</time>
      </trkpt>
      <trkpt lat="48.4682880" lon="7.7155660">
        <ele>-284.6</ele>
        <time>2022-06-04T10:54:36Z</time>
      </trkpt>
      <trkpt lat="48.4684830" lon="7.7156410">
        <ele>-285.4</ele>
        <time>2022-06-04T10:54:40Z</time>
      </trkpt>
      <trkpt lat="48.4686730" lon="7.7157100">
        <ele>-285.2</ele>
        <time>2022-06-04T10:54:44Z</time>
      </trkpt>
      <trkpt lat="48.4688610" lon="7.7157810">
        <ele>-285.0</ele>
        <time>2022-06-04T10:54:48Z</time>
      </trkpt>
      <trkpt lat="48.4690510" lon="7.7158550">
        <ele>-285.4</ele>
        <time>2022-06-04T10:54:52Z</time>
      </trkpt>
      <trkpt lat="48.4692360" lon="7.7159160">
        <ele>-284.4</ele>
        <time>2022-06-04T10:54:56Z</time>
      </trkpt>
      <trkpt lat="48.4694150" lon="7.7159880">
        <ele>-284.2</ele>
        <time>2022-06-04T10:55:00Z</time>
      </trkpt>
      <trkpt lat="48.4695910" lon="7.7160500">
        <ele>-284.4</ele>
        <time>2022-06-04T10:55:04Z</time>
      </trkpt>
      <trkpt lat="48.4697650" lon="7.7161200">
        <ele>-283.8</ele>
        <time>2022-06-04T10:55:08Z</time>
      </trkpt>
      <trkpt lat="48.4699310" lon="7.7161880">
        <ele>-284.0</ele>
        <time>2022-06-04T10:55:12Z</time>
      </trkpt>
      <trkpt lat="48.4700860" lon="7.7162550">
        <ele>-284.4</ele>
        <time>2022-06-04T10:55:16Z</time>
      </trkpt>
      <trkpt lat="48.4702480" lon="7.7162830">
        <ele>-284.2</ele>
        <time>2022-06-04T10:55:20Z</time>
      </trkpt>
      <trkpt lat="48.4703950" lon="7.7163330">
        <ele>-284.2</ele>
        <time>2022-06-04T10:55:24Z</time>
      </trkpt>
      <trkpt lat="48.4705310" lon="7.7163860">
        <ele>-282.8</ele>
        <time>2022-06-04T10:55:28Z</time>
      </trkpt>
      <trkpt lat="48.4706600" lon="7.7164230">
        <ele>-282.2</ele>
        <time>2022-06-04T10:55:32Z</time>
      </trkpt>
      <trkpt lat="48.4707850" lon="7.7164100">
        <ele>-281.6</ele>
        <time>2022-06-04T10:55:36Z</time>
      </trkpt>
      <trkpt lat="48.4708580" lon="7.7164330">
        <ele>-281.4</ele>
        <time>2022-06-04T10:55:40Z</time>
      </trkpt>
      <trkpt lat="48.4708980" lon="7.7165330">
        <ele>-281.2</ele>
        <time>2022-06-04T10:55:44Z</time>
      </trkpt>
      <trkpt lat="48.4708660" lon="7.7167310">
        <ele>-281.2</ele>
        <time>2022-06-04T10:55:48Z</time>
      </trkpt>
      <trkpt lat="48.4708360" lon="7.7169600">
        <ele>-281.2</ele>
        <time>2022-06-04T10:55:52Z</time>
      </trkpt>
      <trkpt lat="48.4707960" lon="7.7171930">
        <ele>-282.4</ele>
        <time>2022-06-04T10:55:56Z</time>
      </trkpt>
      <trkpt lat="48.4707700" lon="7.7174810">
        <ele>-283.2</ele>
        <time>2022-06-04T10:56:00Z</time>
      </trkpt>
      <trkpt lat="48.4707750" lon="7.7178350">
        <ele>-284.6</ele>
        <time>2022-06-04T10:56:04Z</time>
      </trkpt>
      <trkpt lat="48.4707950" lon="7.7182360">
        <ele>-286.8</ele>
        <time>2022-06-04T10:56:08Z</time>
      </trkpt>
      <trkpt lat="48.4708210" lon="7.7186400">
        <ele>-287.0</ele>
        <time>2022-06-04T10:56:12Z</time>
      </trkpt>
      <trkpt lat="48.4708410" lon="7.7190160">
        <ele>-286.4</ele>
        <time>2022-06-04T10:56:16Z</time>
      </trkpt>
      <trkpt lat="48.4708660" lon="7.7193700">
        <ele>-286.4</ele>
        <time>2022-06-04T10:56:20Z</time>
      </trkpt>
      <trkpt lat="48.4708900" lon="7.7197050">
        <ele>-286.0</ele>
        <time>2022-06-04T10:56:24Z</time>
      </trkpt>
      <trkpt lat="48.4709000" lon="7.7200380">
        <ele>-286.2</ele>
        <time>2022-06-04T10:56:28Z</time>
      </trkpt>
      <trkpt lat="48.4708730" lon="7.7203680">
        <ele>-285.6</ele>
        <time>2022-06-04T10:56:32Z</time>
      </trkpt>
      <trkpt lat="48.4708260" lon="7.7206880">
        <ele>-286.0</ele>
        <time>2022-06-04T10:56:36Z</time>
      </trkpt>
      <trkpt lat="48.4707680" lon="7.7210050">
        <ele>-286.0</ele>
        <time>2022-06-04T10:56:40Z</time>
      </trkpt>
      <trkpt lat="48.4707250" lon="7.7213280">
        <ele>-286.4</ele>
        <time>2022-06-04T10:56:44Z</time>
      </trkpt>
      <trkpt lat="48.4706750" lon="7.7216400">
        <ele>-286.0</ele>
        <time>2022-06-04T10:56:48Z</time>
      </trkpt>
      <trkpt lat="48.4706010" lon="7.7219360">
        <ele>-286.4</ele>
        <time>2022-06-04T10:56:52Z</time>
      </trkpt>
      <trkpt lat="48.4705280" lon="7.7222200">
        <ele>-286.4</ele>
        <time>2022-06-04T10:56:56Z</time>
      </trkpt>
      <trkpt lat="48.4704500" lon="7.7224900">
        <ele>-286.4</ele>
        <time>2022-06-04T10:57:00Z</time>
      </trkpt>
      <trkpt lat="48.4703800" lon="7.7227260">
        <ele>-285.8</ele>
        <time>2022-06-04T10:57:04Z</time>
      </trkpt>
      <trkpt lat="48.4703200" lon="7.7229660">
        <ele>-286.0</ele>
        <time>2022-06-04T10:57:08Z</time>
      </trkpt>
      <trkpt lat="48.4702550" lon="7.7231880">
        <ele>-285.2</ele>
        <time>2022-06-04T10:57:12Z</time>
      </trkpt>
      <trkpt lat="48.4702130" lon="7.7233660">
        <ele>-286.0</ele>
        <time>2022-06-04T10:57:16Z</time>
      </trkpt>
      <trkpt lat="48.4701610" lon="7.7235530">
        <ele>-286.0</ele>
        <time>2022-06-04T10:57:20Z</time>
      </trkpt>
      <trkpt lat="48.4700930" lon="7.7237430">
        <ele>-285.8</ele>
        <time>2022-06-04T10:57:24Z</time>
      </trkpt>
      <trkpt lat="48.4700980" lon="7.7239280">
        <ele>-285.8</ele>
        <time>2022-06-04T10:57:28Z</time>
      </trkpt>
      <trkpt lat="48.4702110" lon="7.7240860">
        <ele>-286.4</ele>
        <time>2022-06-04T10:57:32Z</time>
      </trkpt>
      <trkpt lat="48.4703250" lon="7.7242530">
        <ele>-286.2</ele>
        <time>2022-06-04T10:57:36Z</time>
      </trkpt>
      <trkpt lat="48.4704560" lon="7.7244410">
        <ele>-286.2</ele>
        <time>2022-06-04T10:57:40Z</time>
      </trkpt>
      <trkpt lat="48.4705850" lon="7.7246330">
        <ele>-285.8</ele>
        <time>2022-06-04T10:57:44Z</time>
      </trkpt>
      <trkpt lat="48.4707160" lon="7.7248430">
        <ele>-285.4</ele>
        <time>2022-06-04T10:57:48Z</time>
      </trkpt>
      <trkpt lat="48.4707810" lon="7.7251030">
        <ele>-285.4</ele>
        <time>2022-06-04T10:57:52Z</time>
      </trkpt>
      <trkpt lat="48.4708760" lon="7.7253410">
        <ele>-285.0</ele>
        <time>2022-06-04T10:57:56Z</time>
      </trkpt>
      <trkpt lat="48.4710010" lon="7.7255360">
        <ele>-285.4</ele>
        <time>2022-06-04T10:58:00Z</time>
      </trkpt>
      <trkpt lat="48.4711300" lon="7.7257380">
        <ele>-284.4</ele>
        <time>2022-06-04T10:58:04Z</time>
      </trkpt>
      <trkpt lat="48.4712630" lon="7.7259180">
        <ele>-284.6</ele>
        <time>2022-06-04T10:58:08Z</time>
      </trkpt>
      <trkpt lat="48.4713800" lon="7.7260710">
        <ele>-285.0</ele>
        <time>2022-06-04T10:58:12Z</time>
      </trkpt>
      <trkpt lat="48.4714900" lon="7.7262810">
        <ele>-284.8</ele>
        <time>2022-06-04T10:58:16Z</time>
      </trkpt>
      <trkpt lat="48.4715680" lon="7.7265280">
        <ele>-285.0</ele>
        <time>2022-06-04T10:58:20Z</time>
      </trkpt>
      <trkpt lat="48.4716180" lon="7.7267930">
        <ele>-284.8</ele>
        <time>2022-06-04T10:58:24Z</time>
      </trkpt>
      <trkpt lat="48.4716750" lon="7.7270630">
        <ele>-284.4</ele>
        <time>2022-06-04T10:58:28Z</time>
      </trkpt>
      <trkpt lat="48.4717280" lon="7.7273410">
        <ele>-284.6</ele>
        <time>2022-06-04T10:58:32Z</time>
      </trkpt>
      <trkpt lat="48.4717710" lon="7.7276180">
        <ele>-284.8</ele>
        <time>2022-06-04T10:58:36Z</time>
      </trkpt>
      <trkpt lat="48.4718080" lon="7.7279010">
        <ele>-284.6</ele>
        <time>2022-06-04T10:58:40Z</time>
      </trkpt>
      <trkpt lat="48.4718600" lon="7.7281930">
        <ele>-285.2</ele>
        <time>2022-06-04T10:58:44Z</time>
      </trkpt>
      <trkpt lat="48.4719380" lon="7.7284780">
        <ele>-285.4</ele>
        <time>2022-06-04T10:58:48Z</time>
      </trkpt>
      <trkpt lat="48.4720080" lon="7.7287630">
        <ele>-285.4</ele>
        <time>2022-06-04T10:58:52Z</time>
      </trkpt>
      <trkpt lat="48.4720860" lon="7.7290350">
        <ele>-285.0</ele>
        <time>2022-06-04T10:58:56Z</time>
      </trkpt>
      <trkpt lat="48.4721780" lon="7.7293050">
        <ele>-284.4</ele>
        <time>2022-06-04T10:59:00Z</time>
      </trkpt>
      <trkpt lat="48.4722680" lon="7.7295780">
        <ele>-284.2</ele>
        <time>2022-06-04T10:59:04Z</time>
      </trkpt>
      <trkpt lat="48.4723980" lon="7.7298260">
        <ele>-284.8</ele>
        <time>2022-06-04T10:59:08Z</time>
      </trkpt>
      <trkpt lat="48.4725450" lon="7.7300330">
        <ele>-284.4</ele>
        <time>2022-06-04T10:59:12Z</time>
      </trkpt>
      <trkpt lat="48.4727010" lon="7.7301960">
        <ele>-285.0</ele>
        <time>2022-06-04T10:59:16Z</time>
      </trkpt>
      <trkpt lat="48.4728800" lon="7.7303210">
        <ele>-285.0</ele>
        <time>2022-06-04T10:59:20Z</time>
      </trkpt>
      <trkpt lat="48.4730660" lon="7.7304080">
        <ele>-285.0</ele>
        <time>2022-06-04T10:59:24Z</time>
      </trkpt>
      <trkpt lat="48.4732610" lon="7.7304460">
        <ele>-285.0</ele>
        <time>2022-06-04T10:59:28Z</time>
      </trkpt>
      <trkpt lat="48.4734600" lon="7.7304350">
        <ele>-284.8</ele>
        <time>2022-06-04T10:59:32Z</time>
      </trkpt>
      <trkpt lat="48.4736580" lon="7.7303910">
        <ele>-285.2</ele>
        <time>2022-06-04T10:59:36Z</time>
      </trkpt>
      <trkpt lat="48.4738510" lon="7.7303480">
        <ele>-285.2</ele>
        <time>2022-06-04T10:59:40Z</time>
      </trkpt>
      <trkpt lat="48.4740450" lon="7.7303030">
        <ele>-285.2</ele>
        <time>2022-06-04T10:59:44Z</time>
      </trkpt>
      <trkpt lat="48.4742400" lon="7.7302610">
        <ele>-285.2</ele>
        <time>2022-06-04T10:59:48Z</time>
      </trkpt>
      <trkpt lat="48.4744410" lon="7.7302630">
        <ele>-285.2</ele>
        <time>2022-06-04T10:59:52Z</time>
      </trkpt>
      <trkpt lat="48.4746330" lon="7.7302050">
        <ele>-285.2</ele>
        <time>2022-06-04T10:59:56Z</time>
      </trkpt>
      <trkpt lat="48.4748200" lon="7.7301080">
        <ele>-284.8</ele>
        <time>2022-06-04T11:00:00Z</time>
      </trkpt>
      <trkpt lat="48.4750100" lon="7.7300530">
        <ele>-285.4</ele>
        <time>2022-06-04T11:00:04Z</time>
      </trkpt>
      <trkpt lat="48.4752010" lon="7.7300130">
        <ele>-285.2</ele>
        <time>2022-06-04T11:00:08Z</time>
      </trkpt>
      <trkpt lat="48.4754000" lon="7.7299710">
        <ele>-285.2</ele>
        <time>2022-06-04T11:00:12Z</time>
      </trkpt>
      <trkpt lat="48.4756050" lon="7.7299350">
        <ele>-284.6</ele>
        <time>2022-06-04T11:00:16Z</time>
      </trkpt>
      <trkpt lat="48.4758110" lon="7.7299010">
        <ele>-285.4</ele>
        <time>2022-06-04T11:00:20Z</time>
      </trkpt>
      <trkpt lat="48.4760150" lon="7.7298580">
        <ele>-285.4</ele>
        <time>2022-06-04T11:00:24Z</time>
      </trkpt>
      <trkpt lat="48.4762250" lon="7.7298110">
        <ele>-285.4</ele>
        <time>2022-06-04T11:00:28Z</time>
      </trkpt>
      <trkpt lat="48.4764400" lon="7.7297410">
        <ele>-285.4</ele>
        <time>2022-06-04T11:00:32Z</time>
      </trkpt>
      <trkpt lat="48.4766510" lon="7.7297110">
        <ele>-285.8</ele>
        <time>2022-06-04T11:00:36Z</time>
      </trkpt>
      <trkpt lat="48.4768650" lon="7.7296880">
        <ele>-285.4</ele>
        <time>2022-06-04T11:00:40Z</time>
      </trkpt>
      <trkpt lat="48.4770730" lon="7.7296750">
        <ele>-285.4</ele>
        <time>2022-06-04T11:00:44Z</time>
      </trkpt>
      <trkpt lat="48.4772460" lon="7.7296500">
        <ele>-285.4</ele>
        <time>2022-06-04T11:00:48Z</time>
      </trkpt>
      <trkpt lat="48.4773710" lon="7.7295260">
        <ele>-286.4</ele>
        <time>2022-06-04T11:00:52Z</time>
      </trkpt>
      <trkpt lat="48.4775430" lon="7.7294650">
        <ele>-286.2</ele>
        <time>2022-06-04T11:00:56Z</time>
      </trkpt>
      <trkpt lat="48.4777400" lon="7.7294580">
        <ele>-286.6</ele>
        <time>2022-06-04T11:01:00Z</time>
      </trkpt>
      <trkpt lat="48.4779360" lon="7.7294430">
        <ele>-287.0</ele>
        <time>2022-06-04T11:01:04Z</time>
      </trkpt>
      <trkpt lat="48.4781250" lon="7.7294300">
        <ele>-287.0</ele>
        <time>2022-06-04T11:01:08Z</time>
      </trkpt>
      <trkpt lat="48.4782930" lon="7.7294110">
        <ele>-287.0</ele>
        <time>2022-06-04T11:01:12Z</time>
      </trkpt>
      <trkpt lat="48.4784680" lon="7.7293950">
        <ele>-287.4</ele>
        <time>2022-06-04T11:01:16Z</time>
      </trkpt>
      <trkpt lat="48.4786510" lon="7.7293700">
        <ele>-286.8</ele>
        <time>2022-06-04T11:01:20Z</time>
      </trkpt>
      <trkpt lat="48.4788450" lon="7.7293600">
        <ele>-287.0</ele>
        <time>2022-06-04T11:01:24Z</time>
      </trkpt>
      <trkpt lat="48.4790410" lon="7.7293450">
        <ele>-287.0</ele>
        <time>2022-06-04T11:01:28Z</time>
      </trkpt>
      <trkpt lat="48.4792410" lon="7.7293280">
        <ele>-287.0</ele>
        <time>2022-06-04T11:01:32Z</time>
      </trkpt>
      <trkpt lat="48.4794430" lon="7.7293110">
        <ele>-286.8</ele>
        <time>2022-06-04T11:01:36Z</time>
      </trkpt>
      <trkpt lat="48.4796450" lon="7.7292880">
        <ele>-287.2</ele>
        <time>2022-06-04T11:01:40Z</time>
      </trkpt>
      <trkpt lat="48.4798510" lon="7.7292700">
        <ele>-287.4</ele>
        <time>2022-06-04T11:01:44Z</time>
      </trkpt>
      <trkpt lat="48.4800630" lon="7.7292450">
        <ele>-287.0</ele>
        <time>2022-06-04T11:01:48Z</time>
      </trkpt>
      <trkpt lat="48.4802650" lon="7.7292130">
        <ele>-287.6</ele>
        <time>2022-06-04T11:01:52Z</time>
      </trkpt>
      <trkpt lat="48.4804450" lon="7.7290650">
        <ele>-287.0</ele>
        <time>2022-06-04T11:01:56Z</time>
      </trkpt>
      <trkpt lat="48.4805950" lon="7.7288780">
        <ele>-286.8</ele>
        <time>2022-06-04T11:02:00Z</time>
      </trkpt>
      <trkpt lat="48.4806760" lon="7.7287130">
        <ele>-286.2</ele>
        <time>2022-06-04T11:02:04Z</time>
      </trkpt>
      <trkpt lat="48.4807610" lon="7.7285750">
        <ele>-286.0</ele>
        <time>2022-06-04T11:02:08Z</time>
      </trkpt>
      <trkpt lat="48.4808580" lon="7.7284360">
        <ele>-286.0</ele>
        <time>2022-06-04T11:02:12Z</time>
      </trkpt>
      <trkpt lat="48.4809130" lon="7.7282410">
        <ele>-286.2</ele>
        <time>2022-06-04T11:02:16Z</time>
      </trkpt>
      <trkpt lat="48.4809630" lon="7.7279880">
        <ele>-286.0</ele>
        <time>2022-06-04T11:02:20Z</time>
      </trkpt>
      <trkpt lat="48.4810200" lon="7.7277560">
        <ele>-286.2</ele>
        <time>2022-06-04T11:02:24Z</time>
      </trkpt>
      <trkpt lat="48.4810750" lon="7.7274830">
        <ele>-285.4</ele>
        <time>2022-06-04T11:02:28Z</time>
      </trkpt>
      <trkpt lat="48.4811310" lon="7.7272150">
        <ele>-285.4</ele>
        <time>2022-06-04T11:02:32Z</time>
      </trkpt>
      <trkpt lat="48.4811930" lon="7.7269510">
        <ele>-285.6</ele>
        <time>2022-06-04T11:02:36Z</time>
      </trkpt>
      <trkpt lat="48.4812550" lon="7.7266780">
        <ele>-285.4</ele>
        <time>2022-06-04T11:02:40Z</time>
      </trkpt>
      <trkpt lat="48.4813160" lon="7.7264000">
        <ele>-286.0</ele>
        <time>2022-06-04T11:02:44Z</time>
      </trkpt>
      <trkpt lat="48.4813800" lon="7.7261110">
        <ele>-286.0</ele>
        <time>2022-06-04T11:02:48Z</time>
      </trkpt>
      <trkpt lat="48.4814330" lon="7.7258310">
        <ele>-285.6</ele>
        <time>2022-06-04T11:02:52Z</time>
      </trkpt>
      <trkpt lat="48.4814860" lon="7.7255580">
        <ele>-285.4</ele>
        <time>2022-06-04T11:02:56Z</time>
      </trkpt>
      <trkpt lat="48.4815400" lon="7.7252830">
        <ele>-285.8</ele>
        <time>2022-06-04T11:03:00Z</time>
      </trkpt>
      <trkpt lat="48.4815930" lon="7.7250400">
        <ele>-285.8</ele>
        <time>2022-06-04T11:03:04Z</time>
      </trkpt>
      <trkpt lat="48.4816310" lon="7.7248310">
        <ele>-285.4</ele>
        <time>2022-06-04T11:03:08Z</time>
      </trkpt>
      <trkpt lat="48.4816810" lon="7.7246680">
        <ele>-285.4</ele>
        <time>2022-06-04T11:03:12Z</time>
      </trkpt>
      <trkpt lat="48.4816800" lon="7.7245330">
        <ele>-285.4</ele>
        <time>2022-06-04T11:03:16Z</time>
      </trkpt>
      <trkpt lat="48.4815960" lon="7.7243780">
        <ele>-285.4</ele>
        <time>2022-06-04T11:03:20Z</time>
      </trkpt>
      <trkpt lat="48.4815980" lon="7.7241650">
        <ele>-286.4</ele>
        <time>2022-06-04T11:03:24Z</time>
      </trkpt>
      <trkpt lat="48.4816430" lon="7.7239210">
        <ele>-287.0</ele>
        <time>2022-06-04T11:03:28Z</time>
      </trkpt>
      <trkpt lat="48.4816900" lon="7.7236730">
        <ele>-286.4</ele>
        <time>2022-06-04T11:03:32Z</time>
      </trkpt>
      <trkpt lat="48.4817360" lon="7.7234300">
        <ele>-287.0</ele>
        <time>2022-06-04T11:03:36Z</time>
      </trkpt>
      <trkpt lat="48.4817850" lon="7.7231810">
        <ele>-287.6</ele>
        <time>2022-06-04T11:03:40Z</time>
      </trkpt>
      <trkpt lat="48.4818400" lon="7.7229280">
        <ele>-287.6</ele>
        <time>2022-06-04T11:03:44Z</time>
      </trkpt>
      <trkpt lat="48.4818930" lon="7.7226700">
        <ele>-286.6</ele>
        <time>2022-06-04T11:03:48Z</time>
      </trkpt>
      <trkpt lat="48.4819550" lon="7.7224230">
        <ele>-287.4</ele>
        <time>2022-06-04T11:03:52Z</time>
      </trkpt>
      <trkpt lat="48.4820210" lon="7.7222060">
        <ele>-286.8</ele>
        <time>2022-06-04T11:03:56Z</time>
      </trkpt>
      <trkpt lat="48.4820410" lon="7.7220160">
        <ele>-287.2</ele>
        <time>2022-06-04T11:04:00Z</time>
      </trkpt>
      <trkpt lat="48.4819850" lon="7.7218730">
        <ele>-286.8</ele>
        <time>2022-06-04T11:04:04Z</time>
      </trkpt>
      <trkpt lat="48.4819280" lon="7.7217330">
        <ele>-286.4</ele>
        <time>2022-06-04T11:04:08Z</time>
      </trkpt>
      <trkpt lat="48.4818760" lon="7.7215730">
        <ele>-286.4</ele>
        <time>2022-06-04T11:04:12Z</time>
      </trkpt>
      <trkpt lat="48.4818360" lon="7.7214010">
        <ele>-286.0</ele>
        <time>2022-06-04T11:04:16Z</time>
      </trkpt>
      <trkpt lat="48.4818160" lon="7.7212350">
        <ele>-285.4</ele>
        <time>2022-06-04T11:04:20Z</time>
      </trkpt>
      <trkpt lat="48.4818160" lon="7.7212350">
        <ele>-284.2</ele>
        <time>2022-06-04T11:04:24Z</time>
      </trkpt>
      <trkpt lat="48.4818160" lon="7.7212350">
        <ele>-284.2</ele>
        <time>2022-06-04T11:04:28Z</time>
      </trkpt>
      <trkpt lat="48.4818160" lon="7.7212350">
        <ele>-284.4</ele>
        <time>2022-06-04T11:04:32Z</time>
      </trkpt>
      <trkpt lat="48.4818160" lon="7.7212350">
        <ele>-284.0</ele>
        <time>2022-06-04T11:04:36Z</time>
      </trkpt>
      <trkpt lat="48.4818160" lon="7.7212350">
        <ele>-284.4</ele>
        <time>2022-06-04T11:04:40Z</time>
      </trkpt>
      <trkpt lat="48.4818160" lon="7.7212350">
        <ele>-284.4</ele>
        <time>2022-06-04T11:04:44Z</time>
      </trkpt>
      <trkpt lat="48.4818160" lon="7.7212350">
        <ele>-284.4</ele>
        <time>2022-06-04T11:04:48Z</time>
      </trkpt>
      <trkpt lat="48.4818160" lon="7.7212350">
        <ele>-284.2</ele>
        <time>2022-06-04T11:04:52Z</time>
      </trkpt>
      <trkpt lat="48.4818160" lon="7.7212350">
        <ele>-284.4</ele>
        <time>2022-06-04T11:04:56Z</time>
      </trkpt>
      <trkpt lat="48.4818160" lon="7.7212350">
        <ele>-284.4</ele>
        <time>2022-06-04T11:05:00Z</time>
      </trkpt>
      <trkpt lat="48.4818130" lon="7.7211600">
        <ele>-284.4</ele>
        <time>2022-06-04T11:05:04Z</time>
      </trkpt>
      <trkpt lat="48.4818560" lon="7.7214080">
        <ele>-286.0</ele>
        <time>2022-06-04T11:05:08Z</time>
      </trkpt>
      <trkpt lat="48.4819130" lon="7.7216230">
        <ele>-286.2</ele>
        <time>2022-06-04T11:05:12Z</time>
      </trkpt>
      <trkpt lat="48.4819810" lon="7.7218110">
        <ele>-286.0</ele>
        <time>2022-06-04T11:05:16Z</time>
      </trkpt>
      <trkpt lat="48.4820530" lon="7.7219910">
        <ele>-286.6</ele>
        <time>2022-06-04T11:05:20Z</time>
      </trkpt>
      <trkpt lat="48.4820510" lon="7.7221450">
        <ele>-286.0</ele>
        <time>2022-06-04T11:05:24Z</time>
      </trkpt>
      <trkpt lat="48.4819880" lon="7.7223330">
        <ele>-286.2</ele>
        <time>2022-06-04T11:05:28Z</time>
      </trkpt>
      <trkpt lat="48.4819250" lon="7.7225660">
        <ele>-286.6</ele>
        <time>2022-06-04T11:05:32Z</time>
      </trkpt>
      <trkpt lat="48.4818730" lon="7.7228010">
        <ele>-286.4</ele>
        <time>2022-06-04T11:05:36Z</time>
      </trkpt>
      <trkpt lat="48.4818280" lon="7.7230410">
        <ele>-286.4</ele>
        <time>2022-06-04T11:05:40Z</time>
      </trkpt>
      <trkpt lat="48.4817800" lon="7.7232780">
        <ele>-287.0</ele>
        <time>2022-06-04T11:05:44Z</time>
      </trkpt>
      <trkpt lat="48.4817360" lon="7.7235010">
        <ele>-286.4</ele>
        <time>2022-06-04T11:05:48Z</time>
      </trkpt>
      <trkpt lat="48.4816930" lon="7.7237260">
        <ele>-286.2</ele>
        <time>2022-06-04T11:05:52Z</time>
      </trkpt>
      <trkpt lat="48.4816530" lon="7.7239510">
        <ele>-286.8</ele>
        <time>2022-06-04T11:05:56Z</time>
      </trkpt>
      <trkpt lat="48.4816110" lon="7.7241800">
        <ele>-286.0</ele>
        <time>2022-06-04T11:06:00Z</time>
      </trkpt>
      <trkpt lat="48.4815980" lon="7.7243560">
        <ele>-284.8</ele>
        <time>2022-06-04T11:06:04Z</time>
      </trkpt>
      <trkpt lat="48.4816630" lon="7.7244550">
        <ele>-285.0</ele>
        <time>2022-06-04T11:06:08Z</time>
      </trkpt>
      <trkpt lat="48.4817700" lon="7.7245360">
        <ele>-285.2</ele>
        <time>2022-06-04T11:06:12Z</time>
      </trkpt>
      <trkpt lat="48.4818910" lon="7.7246230">
        <ele>-285.4</ele>
        <time>2022-06-04T11:06:16Z</time>
      </trkpt>
      <trkpt lat="48.4820460" lon="7.7247380">
        <ele>-285.8</ele>
        <time>2022-06-04T11:06:20Z</time>
      </trkpt>
      <trkpt lat="48.4822350" lon="7.7248330">
        <ele>-286.6</ele>
        <time>2022-06-04T11:06:24Z</time>
      </trkpt>
      <trkpt lat="48.4824130" lon="7.7249060">
        <ele>-285.6</ele>
        <time>2022-06-04T11:06:28Z</time>
      </trkpt>
      <trkpt lat="48.4825850" lon="7.7249700">
        <ele>-285.8</ele>
        <time>2022-06-04T11:06:32Z</time>
      </trkpt>
      <trkpt lat="48.4827660" lon="7.7249900">
        <ele>-285.8</ele>
        <time>2022-06-04T11:06:36Z</time>
      </trkpt>
      <trkpt lat="48.4829460" lon="7.7249680">
        <ele>-285.8</ele>
        <time>2022-06-04T11:06:40Z</time>
      </trkpt>
      <trkpt lat="48.4831250" lon="7.7249210">
        <ele>-286.0</ele>
        <time>2022-06-04T11:06:44Z</time>
      </trkpt>
      <trkpt lat="48.4833060" lon="7.7248810">
        <ele>-285.8</ele>
        <time>2022-06-04T11:06:48Z</time>
      </trkpt>
      <trkpt lat="48.4834880" lon="7.7248260">
        <ele>-286.0</ele>
        <time>2022-06-04T11:06:52Z</time>
      </trkpt>
      <trkpt lat="48.4836660" lon="7.7247580">
        <ele>-286.2</ele>
        <time>2022-06-04T11:06:56Z</time>
      </trkpt>
      <trkpt lat="48.4838460" lon="7.7246950">
        <ele>-286.0</ele>
        <time>2022-06-04T11:07:00Z</time>
      </trkpt>
      <trkpt lat="48.4840260" lon="7.7246410">
        <ele>-285.4</ele>
        <time>2022-06-04T11:07:04Z</time>
      </trkpt>
      <trkpt lat="48.4842050" lon="7.7245810">
        <ele>-285.6</ele>
        <time>2022-06-04T11:07:08Z</time>
      </trkpt>
      <trkpt lat="48.4843730" lon="7.7245330">
        <ele>-286.0</ele>
        <time>2022-06-04T11:07:12Z</time>
      </trkpt>
      <trkpt lat="48.4845230" lon="7.7244830">
        <ele>-285.4</ele>
        <time>2022-06-04T11:07:16Z</time>
      </trkpt>
      <trkpt lat="48.4846860" lon="7.7244330">
        <ele>-285.8</ele>
        <time>2022-06-04T11:07:20Z</time>
      </trkpt>
      <trkpt lat="48.4848230" lon="7.7243780">
        <ele>-286.0</ele>
        <time>2022-06-04T11:07:24Z</time>
      </trkpt>
      <trkpt lat="48.4848660" lon="7.7243180">
        <ele>-285.6</ele>
        <time>2022-06-04T11:07:28Z</time>
      </trkpt>
      <trkpt lat="48.4849480" lon="7.7242800">
        <ele>-285.4</ele>
        <time>2022-06-04T11:07:32Z</time>
      </trkpt>
      <trkpt lat="48.4850280" lon="7.7242000">
        <ele>-285.6</ele>
        <time>2022-06-04T11:07:36Z</time>
      </trkpt>
      <trkpt lat="48.4850360" lon="7.7240030">
        <ele>-286.0</ele>
        <time>2022-06-04T11:07:40Z</time>
      </trkpt>
      <trkpt lat="48.4850600" lon="7.7238200">
        <ele>-286.4</ele>
        <time>2022-06-04T11:07:44Z</time>
      </trkpt>
      <trkpt lat="48.4851360" lon="7.7236650">
        <ele>-286.0</ele>
        <time>2022-06-04T11:07:48Z</time>
      </trkpt>
      <trkpt lat="48.4851080" lon="7.7235650">
        <ele>-285.4</ele>
        <time>2022-06-04T11:07:52Z</time>
      </trkpt>
      <trkpt lat="48.4849860" lon="7.7234830">
        <ele>-285.4</ele>
        <time>2022-06-04T11:07:56Z</time>
      </trkpt>
      <trkpt lat="48.4848610" lon="7.7233650">
        <ele>-284.6</ele>
        <time>2022-06-04T11:08:00Z</time>
      </trkpt>
      <trkpt lat="48.4847450" lon="7.7232110">
        <ele>-284.4</ele>
        <time>2022-06-04T11:08:04Z</time>
      </trkpt>
      <trkpt lat="48.4846560" lon="7.7230230">
        <ele>-283.2</ele>
        <time>2022-06-04T11:08:08Z</time>
      </trkpt>
      <trkpt lat="48.4845780" lon="7.7228400">
        <ele>-282.6</ele>
        <time>2022-06-04T11:08:12Z</time>
      </trkpt>
      <trkpt lat="48.4845860" lon="7.7226410">
        <ele>-282.6</ele>
        <time>2022-06-04T11:08:16Z</time>
      </trkpt>
      <trkpt lat="48.4846150" lon="7.7224550">
        <ele>-281.8</ele>
        <time>2022-06-04T11:08:20Z</time>
      </trkpt>
      <trkpt lat="48.4846530" lon="7.7222780">
        <ele>-281.0</ele>
        <time>2022-06-04T11:08:24Z</time>
      </trkpt>
      <trkpt lat="48.4846810" lon="7.7221100">
        <ele>-281.0</ele>
        <time>2022-06-04T11:08:28Z</time>
      </trkpt>
      <trkpt lat="48.4847030" lon="7.7219410">
        <ele>-280.6</ele>
        <time>2022-06-04T11:08:32Z</time>
      </trkpt>
      <trkpt lat="48.4847360" lon="7.7217760">
        <ele>-281.6</ele>
        <time>2022-06-04T11:08:36Z</time>
      </trkpt>
      <trkpt lat="48.4847750" lon="7.7215880">
        <ele>-281.8</ele>
        <time>2022-06-04T11:08:40Z</time>
      </trkpt>
      <trkpt lat="48.4848110" lon="7.7213480">
        <ele>-281.8</ele>
        <time>2022-06-04T11:08:44Z</time>
      </trkpt>
      <trkpt lat="48.4848830" lon="7.7211030">
        <ele>-283.4</ele>
        <time>2022-06-04T11:08:48Z</time>
      </trkpt>
      <trkpt lat="48.4850730" lon="7.7211450">
        <ele>-283.8</ele>
        <time>2022-06-04T11:08:52Z</time>
      </trkpt>
      <trkpt lat="48.4852880" lon="7.7212180">
        <ele>-285.8</ele>
        <time>2022-06-04T11:08:56Z</time>
      </trkpt>
      <trkpt lat="48.4854600" lon="7.7213080">
        <ele>-285.4</ele>
        <time>2022-06-04T11:09:00Z</time>
      </trkpt>
      <trkpt lat="48.4853460" lon="7.7213680">
        <ele>-286.0</ele>
        <time>2022-06-04T11:09:04Z</time>
      </trkpt>
      <trkpt lat="48.4852730" lon="7.7215950">
        <ele>-286.6</ele>
        <time>2022-06-04T11:09:08Z</time>
      </trkpt>
      <trkpt lat="48.4852110" lon="7.7218530">
        <ele>-286.2</ele>
        <time>2022-06-04T11:09:12Z</time>
      </trkpt>
      <trkpt lat="48.4852160" lon="7.7220360">
        <ele>-286.0</ele>
        <time>2022-06-04T11:09:16Z</time>
      </trkpt>
      <trkpt lat="48.4853280" lon="7.7220630">
        <ele>-286.4</ele>
        <time>2022-06-04T11:09:20Z</time>
      </trkpt>
      <trkpt lat="48.4854610" lon="7.7221180">
        <ele>-286.6</ele>
        <time>2022-06-04T11:09:24Z</time>
      </trkpt>
      <trkpt lat="48.4856130" lon="7.7221530">
        <ele>-286.2</ele>
        <time>2022-06-04T11:09:28Z</time>
      </trkpt>
      <trkpt lat="48.4857730" lon="7.7222250">
        <ele>-286.2</ele>
        <time>2022-06-04T11:09:32Z</time>
      </trkpt>
      <trkpt lat="48.4859100" lon="7.7222680">
        <ele>-286.0</ele>
        <time>2022-06-04T11:09:36Z</time>
      </trkpt>
      <trkpt lat="48.4860710" lon="7.7223310">
        <ele>-286.4</ele>
        <time>2022-06-04T11:09:40Z</time>
      </trkpt>
      <trkpt lat="48.4862460" lon="7.7223780">
        <ele>-286.8</ele>
        <time>2022-06-04T11:09:44Z</time>
      </trkpt>
      <trkpt lat="48.4864200" lon="7.7224180">
        <ele>-287.0</ele>
        <time>2022-06-04T11:09:48Z</time>
      </trkpt>
      <trkpt lat="48.4865580" lon="7.7224910">
        <ele>-286.4</ele>
        <time>2022-06-04T11:09:52Z</time>
      </trkpt>
      <trkpt lat="48.4867560" lon="7.7227330">
        <ele>-286.2</ele>
        <time>2022-06-04T11:09:56Z</time>
      </trkpt>
      <trkpt lat="48.4869180" lon="7.7228300">
        <ele>-285.4</ele>
        <time>2022-06-04T11:10:00Z</time>
      </trkpt>
      <trkpt lat="48.4871360" lon="7.7228980">
        <ele>-285.0</ele>
        <time>2022-06-04T11:10:04Z</time>
      </trkpt>
      <trkpt lat="48.4873230" lon="7.7229710">
        <ele>-285.8</ele>
        <time>2022-06-04T11:10:08Z</time>
      </trkpt>
      <trkpt lat="48.4874850" lon="7.7230530">
        <ele>-286.0</ele>
        <time>2022-06-04T11:10:12Z</time>
      </trkpt>
      <trkpt lat="48.4876380" lon="7.7231260">
        <ele>-286.0</ele>
        <time>2022-06-04T11:10:16Z</time>
      </trkpt>
      <trkpt lat="48.4877830" lon="7.7231980">
        <ele>-285.0</ele>
        <time>2022-06-04T11:10:20Z</time>
      </trkpt>
      <trkpt lat="48.4879700" lon="7.7232460">
        <ele>-284.8</ele>
        <time>2022-06-04T11:10:24Z</time>
      </trkpt>
      <trkpt lat="48.4881310" lon="7.7233000">
        <ele>-285.8</ele>
        <time>2022-06-04T11:10:28Z</time>
      </trkpt>
      <trkpt lat="48.4882830" lon="7.7233610">
        <ele>-285.4</ele>
        <time>2022-06-04T11:10:32Z</time>
      </trkpt>
      <trkpt lat="48.4884460" lon="7.7234010">
        <ele>-285.6</ele>
        <time>2022-06-04T11:10:36Z</time>
      </trkpt>
      <trkpt lat="48.4886610" lon="7.7234060">
        <ele>-286.0</ele>
        <time>2022-06-04T11:10:40Z</time>
      </trkpt>
      <trkpt lat="48.4888760" lon="7.7234460">
        <ele>-285.8</ele>
        <time>2022-06-04T11:10:44Z</time>
      </trkpt>
      <trkpt lat="48.4890930" lon="7.7235360">
        <ele>-286.8</ele>
        <time>2022-06-04T11:10:48Z</time>
      </trkpt>
      <trkpt lat="48.4892710" lon="7.7236110">
        <ele>-286.8</ele>
        <time>2022-06-04T11:10:52Z</time>
      </trkpt>
      <trkpt lat="48.4894480" lon="7.7236780">
        <ele>-286.0</ele>
        <time>2022-06-04T11:10:56Z</time>
      </trkpt>
      <trkpt lat="48.4896050" lon="7.7237430">
        <ele>-286.0</ele>
        <time>2022-06-04T11:11:00Z</time>
      </trkpt>
      <trkpt lat="48.4897730" lon="7.7237900">
        <ele>-286.6</ele>
        <time>2022-06-04T11:11:04Z</time>
      </trkpt>
      <trkpt lat="48.4899260" lon="7.7238680">
        <ele>-286.2</ele>
        <time>2022-06-04T11:11:08Z</time>
      </trkpt>
      <trkpt lat="48.4901030" lon="7.7239460">
        <ele>-286.8</ele>
        <time>2022-06-04T11:11:12Z</time>
      </trkpt>
      <trkpt lat="48.4902660" lon="7.7240180">
        <ele>-286.0</ele>
        <time>2022-06-04T11:11:16Z</time>
      </trkpt>
      <trkpt lat="48.4904180" lon="7.7240600">
        <ele>-286.0</ele>
        <time>2022-06-04T11:11:20Z</time>
      </trkpt>
      <trkpt lat="48.4905760" lon="7.7241330">
        <ele>-286.8</ele>
        <time>2022-06-04T11:11:24Z</time>
      </trkpt>
      <trkpt lat="48.4907510" lon="7.7242080">
        <ele>-286.4</ele>
        <time>2022-06-04T11:11:28Z</time>
      </trkpt>
      <trkpt lat="48.4909380" lon="7.7242850">
        <ele>-286.4</ele>
        <time>2022-06-04T11:11:32Z</time>
      </trkpt>
      <trkpt lat="48.4911380" lon="7.7243450">
        <ele>-286.0</ele>
        <time>2022-06-04T11:11:36Z</time>
      </trkpt>
      <trkpt lat="48.4913380" lon="7.7243780">
        <ele>-285.6</ele>
        <time>2022-06-04T11:11:40Z</time>
      </trkpt>
      <trkpt lat="48.4915380" lon="7.7244610">
        <ele>-286.4</ele>
        <time>2022-06-04T11:11:44Z</time>
      </trkpt>
      <trkpt lat="48.4917210" lon="7.7245300">
        <ele>-286.4</ele>
        <time>2022-06-04T11:11:48Z</time>
      </trkpt>
      <trkpt lat="48.4918750" lon="7.7245700">
        <ele>-286.2</ele>
        <time>2022-06-04T11:11:52Z</time>
      </trkpt>
      <trkpt lat="48.4920810" lon="7.7246530">
        <ele>-286.0</ele>
        <time>2022-06-04T11:11:56Z</time>
      </trkpt>
      <trkpt lat="48.4922830" lon="7.7247100">
        <ele>-286.2</ele>
        <time>2022-06-04T11:12:00Z</time>
      </trkpt>
      <trkpt lat="48.4925060" lon="7.7247780">
        <ele>-286.8</ele>
        <time>2022-06-04T11:12:04Z</time>
      </trkpt>
      <trkpt lat="48.4927160" lon="7.7247950">
        <ele>-287.0</ele>
        <time>2022-06-04T11:12:08Z</time>
      </trkpt>
      <trkpt lat="48.4929010" lon="7.7248130">
        <ele>-287.0</ele>
        <time>2022-06-04T11:12:12Z</time>
      </trkpt>
      <trkpt lat="48.4930950" lon="7.7248450">
        <ele>-286.6</ele>
        <time>2022-06-04T11:12:16Z</time>
      </trkpt>
      <trkpt lat="48.4932550" lon="7.7248650">
        <ele>-286.4</ele>
        <time>2022-06-04T11:12:20Z</time>
      </trkpt>
      <trkpt lat="48.4934610" lon="7.7248910">
        <ele>-286.8</ele>
        <time>2022-06-04T11:12:24Z</time>
      </trkpt>
      <trkpt lat="48.4936610" lon="7.7249210">
        <ele>-286.2</ele>
        <time>2022-06-04T11:12:28Z</time>
      </trkpt>
      <trkpt lat="48.4938950" lon="7.7249680">
        <ele>-286.4</ele>
        <time>2022-06-04T11:12:32Z</time>
      </trkpt>
      <trkpt lat="48.4941100" lon="7.7249960">
        <ele>-287.0</ele>
        <time>2022-06-04T11:12:36Z</time>
      </trkpt>
      <trkpt lat="48.4942830" lon="7.7250100">
        <ele>-286.4</ele>
        <time>2022-06-04T11:12:40Z</time>
      </trkpt>
      <trkpt lat="48.4944680" lon="7.7250350">
        <ele>-286.8</ele>
        <time>2022-06-04T11:12:44Z</time>
      </trkpt>
      <trkpt lat="48.4946480" lon="7.7250510">
        <ele>-286.6</ele>
        <time>2022-06-04T11:12:48Z</time>
      </trkpt>
      <trkpt lat="48.4948510" lon="7.7250730">
        <ele>-286.0</ele>
        <time>2022-06-04T11:12:52Z</time>
      </trkpt>
      <trkpt lat="48.4950480" lon="7.7251100">
        <ele>-286.4</ele>
        <time>2022-06-04T11:12:56Z</time>
      </trkpt>
      <trkpt lat="48.4952410" lon="7.7251410">
        <ele>-286.6</ele>
        <time>2022-06-04T11:13:00Z</time>
      </trkpt>
      <trkpt lat="48.4954230" lon="7.7251710">
        <ele>-286.6</ele>
        <time>2022-06-04T11:13:04Z</time>
      </trkpt>
      <trkpt lat="48.4956100" lon="7.7251760">
        <ele>-285.8</ele>
        <time>2022-06-04T11:13:08Z</time>
      </trkpt>
      <trkpt lat="48.4958260" lon="7.7252130">
        <ele>-286.4</ele>
        <time>2022-06-04T11:13:12Z</time>
      </trkpt>
      <trkpt lat="48.4960230" lon="7.7252430">
        <ele>-286.0</ele>
        <time>2022-06-04T11:13:16Z</time>
      </trkpt>
      <trkpt lat="48.4962260" lon="7.7252700">
        <ele>-286.2</ele>
        <time>2022-06-04T11:13:20Z</time>
      </trkpt>
      <trkpt lat="48.4964110" lon="7.7252880">
        <ele>-286.2</ele>
        <time>2022-06-04T11:13:24Z</time>
      </trkpt>
      <trkpt lat="48.4966110" lon="7.7253230">
        <ele>-287.0</ele>
        <time>2022-06-04T11:13:28Z</time>
      </trkpt>
      <trkpt lat="48.4968030" lon="7.7253510">
        <ele>-286.4</ele>
        <time>2022-06-04T11:13:32Z</time>
      </trkpt>
      <trkpt lat="48.4969830" lon="7.7253660">
        <ele>-286.0</ele>
        <time>2022-06-04T11:13:36Z</time>
      </trkpt>
      <trkpt lat="48.4971760" lon="7.7253850">
        <ele>-286.4</ele>
        <time>2022-06-04T11:13:40Z</time>
      </trkpt>
      <trkpt lat="48.4973900" lon="7.7254300">
        <ele>-286.4</ele>
        <time>2022-06-04T11:13:44Z</time>
      </trkpt>
      <trkpt lat="48.4975780" lon="7.7254610">
        <ele>-286.4</ele>
        <time>2022-06-04T11:13:48Z</time>
      </trkpt>
      <trkpt lat="48.4977780" lon="7.7254860">
        <ele>-286.8</ele>
        <time>2022-06-04T11:13:52Z</time>
      </trkpt>
      <trkpt lat="48.4979660" lon="7.7255160">
        <ele>-286.4</ele>
        <time>2022-06-04T11:13:56Z</time>
      </trkpt>
      <trkpt lat="48.4981450" lon="7.7255510">
        <ele>-287.0</ele>
        <time>2022-06-04T11:14:00Z</time>
      </trkpt>
      <trkpt lat="48.4983250" lon="7.7255910">
        <ele>-286.8</ele>
        <time>2022-06-04T11:14:04Z</time>
      </trkpt>
      <trkpt lat="48.4984700" lon="7.7256000">
        <ele>-286.8</ele>
        <time>2022-06-04T11:14:08Z</time>
      </trkpt>
      <trkpt lat="48.4986410" lon="7.7255900">
        <ele>-287.6</ele>
        <time>2022-06-04T11:14:12Z</time>
      </trkpt>
      <trkpt lat="48.4988150" lon="7.7256050">
        <ele>-286.6</ele>
        <time>2022-06-04T11:14:16Z</time>
      </trkpt>
      <trkpt lat="48.4989910" lon="7.7256280">
        <ele>-287.0</ele>
        <time>2022-06-04T11:14:20Z</time>
      </trkpt>
      <trkpt lat="48.4991650" lon="7.7256760">
        <ele>-286.6</ele>
        <time>2022-06-04T11:14:24Z</time>
      </trkpt>
      <trkpt lat="48.4993730" lon="7.7257130">
        <ele>-287.2</ele>
        <time>2022-06-04T11:14:28Z</time>
      </trkpt>
      <trkpt lat="48.4995780" lon="7.7257560">
        <ele>-287.2</ele>
        <time>2022-06-04T11:14:32Z</time>
      </trkpt>
      <trkpt lat="48.4997580" lon="7.7257660">
        <ele>-287.2</ele>
        <time>2022-06-04T11:14:36Z</time>
      </trkpt>
      <trkpt lat="48.4999110" lon="7.7257900">
        <ele>-286.8</ele>
        <time>2022-06-04T11:14:40Z</time>
      </trkpt>
      <trkpt lat="48.5000930" lon="7.7258150">
        <ele>-286.8</ele>
        <time>2022-06-04T11:14:44Z</time>
      </trkpt>
      <trkpt lat="48.5002400" lon="7.7258430">
        <ele>-287.4</ele>
        <time>2022-06-04T11:14:48Z</time>
      </trkpt>
      <trkpt lat="48.5004050" lon="7.7258650">
        <ele>-287.2</ele>
        <time>2022-06-04T11:14:52Z</time>
      </trkpt>
      <trkpt lat="48.5006230" lon="7.7259000">
        <ele>-286.6</ele>
        <time>2022-06-04T11:14:56Z</time>
      </trkpt>
      <trkpt lat="48.5008580" lon="7.7259310">
        <ele>-287.0</ele>
        <time>2022-06-04T11:15:00Z</time>
      </trkpt>
      <trkpt lat="48.5011450" lon="7.7259430">
        <ele>-287.0</ele>
        <time>2022-06-04T11:15:04Z</time>
      </trkpt>
      <trkpt lat="48.5013800" lon="7.7260230">
        <ele>-286.4</ele>
        <time>2022-06-04T11:15:08Z</time>
      </trkpt>
      <trkpt lat="48.5015530" lon="7.7260510">
        <ele>-286.4</ele>
        <time>2022-06-04T11:15:12Z</time>
      </trkpt>
      <trkpt lat="48.5017350" lon="7.7260200">
        <ele>-286.8</ele>
        <time>2022-06-04T11:15:16Z</time>
      </trkpt>
      <trkpt lat="48.5019460" lon="7.7260730">
        <ele>-286.2</ele>
        <time>2022-06-04T11:15:20Z</time>
      </trkpt>
      <trkpt lat="48.5021660" lon="7.7261280">
        <ele>-286.2</ele>
        <time>2022-06-04T11:15:24Z</time>
      </trkpt>
      <trkpt lat="48.5023800" lon="7.7261160">
        <ele>-286.4</ele>
        <time>2022-06-04T11:15:28Z</time>
      </trkpt>
      <trkpt lat="48.5025780" lon="7.7261230">
        <ele>-286.0</ele>
        <time>2022-06-04T11:15:32Z</time>
      </trkpt>
      <trkpt lat="48.5027860" lon="7.7261630">
        <ele>-286.2</ele>
        <time>2022-06-04T11:15:36Z</time>
      </trkpt>
      <trkpt lat="48.5029710" lon="7.7261860">
        <ele>-285.8</ele>
        <time>2022-06-04T11:15:40Z</time>
      </trkpt>
      <trkpt lat="48.5031510" lon="7.7261960">
        <ele>-286.0</ele>
        <time>2022-06-04T11:15:44Z</time>
      </trkpt>
      <trkpt lat="48.5033510" lon="7.7262360">
        <ele>-286.4</ele>
        <time>2022-06-04T11:15:48Z</time>
      </trkpt>
      <trkpt lat="48.5035410" lon="7.7262460">
        <ele>-286.2</ele>
        <time>2022-06-04T11:15:52Z</time>
      </trkpt>
      <trkpt lat="48.5037800" lon="7.7262930">
        <ele>-286.0</ele>
        <time>2022-06-04T11:15:56Z</time>
      </trkpt>
      <trkpt lat="48.5039660" lon="7.7262950">
        <ele>-286.0</ele>
        <time>2022-06-04T11:16:00Z</time>
      </trkpt>
      <trkpt lat="48.5041760" lon="7.7263000">
        <ele>-287.0</ele>
        <time>2022-06-04T11:16:04Z</time>
      </trkpt>
      <trkpt lat="48.5043530" lon="7.7262510">
        <ele>-286.2</ele>
        <time>2022-06-04T11:16:08Z</time>
      </trkpt>
      <trkpt lat="48.5045860" lon="7.7262410">
        <ele>-287.6</ele>
        <time>2022-06-04T11:16:12Z</time>
      </trkpt>
      <trkpt lat="48.5048230" lon="7.7262560">
        <ele>-286.8</ele>
        <time>2022-06-04T11:16:16Z</time>
      </trkpt>
      <trkpt lat="48.5050950" lon="7.7263100">
        <ele>-287.0</ele>
        <time>2022-06-04T11:16:20Z</time>
      </trkpt>
      <trkpt lat="48.5053710" lon="7.7263700">
        <ele>-287.0</ele>
        <time>2022-06-04T11:16:24Z</time>
      </trkpt>
      <trkpt lat="48.5056030" lon="7.7264100">
        <ele>-287.2</ele>
        <time>2022-06-04T11:16:28Z</time>
      </trkpt>
      <trkpt lat="48.5058160" lon="7.7264400">
        <ele>-286.8</ele>
        <time>2022-06-04T11:16:32Z</time>
      </trkpt>
      <trkpt lat="48.5060550" lon="7.7264950">
        <ele>-287.4</ele>
        <time>2022-06-04T11:16:36Z</time>
      </trkpt>
      <trkpt lat="48.5062360" lon="7.7265430">
        <ele>-286.8</ele>
        <time>2022-06-04T11:16:40Z</time>
      </trkpt>
      <trkpt lat="48.5064300" lon="7.7265830">
        <ele>-287.6</ele>
        <time>2022-06-04T11:16:44Z</time>
      </trkpt>
      <trkpt lat="48.5066030" lon="7.7265910">
        <ele>-287.2</ele>
        <time>2022-06-04T11:16:48Z</time>
      </trkpt>
      <trkpt lat="48.5068000" lon="7.7266300">
        <ele>-287.2</ele>
        <time>2022-06-04T11:16:52Z</time>
      </trkpt>
      <trkpt lat="48.5069930" lon="7.7266630">
        <ele>-287.0</ele>
        <time>2022-06-04T11:16:56Z</time>
      </trkpt>
      <trkpt lat="48.5071950" lon="7.7266860">
        <ele>-287.0</ele>
        <time>2022-06-04T11:17:00Z</time>
      </trkpt>
      <trkpt lat="48.5073860" lon="7.7267180">
        <ele>-287.0</ele>
        <time>2022-06-04T11:17:04Z</time>
      </trkpt>
      <trkpt lat="48.5076000" lon="7.7267760">
        <ele>-287.2</ele>
        <time>2022-06-04T11:17:08Z</time>
      </trkpt>
      <trkpt lat="48.5078330" lon="7.7267960">
        <ele>-288.0</ele>
        <time>2022-06-04T11:17:12Z</time>
      </trkpt>
      <trkpt lat="48.5080650" lon="7.7268280">
        <ele>-287.6</ele>
        <time>2022-06-04T11:17:16Z</time>
      </trkpt>
      <trkpt lat="48.5082910" lon="7.7268680">
        <ele>-287.6</ele>
        <time>2022-06-04T11:17:20Z</time>
      </trkpt>
      <trkpt lat="48.5085180" lon="7.7268860">
        <ele>-287.4</ele>
        <time>2022-06-04T11:17:24Z</time>
      </trkpt>
      <trkpt lat="48.5087650" lon="7.7269480">
        <ele>-286.6</ele>
        <time>2022-06-04T11:17:28Z</time>
      </trkpt>
      <trkpt lat="48.5089960" lon="7.7270180">
        <ele>-286.4</ele>
        <time>2022-06-04T11:17:32Z</time>
      </trkpt>
      <trkpt lat="48.5092010" lon="7.7270230">
        <ele>-286.0</ele>
        <time>2022-06-04T11:17:36Z</time>
      </trkpt>
      <trkpt lat="48.5094280" lon="7.7270550">
        <ele>-286.8</ele>
        <time>2022-06-04T11:17:40Z</time>
      </trkpt>
      <trkpt lat="48.5096500" lon="7.7270850">
        <ele>-286.6</ele>
        <time>2022-06-04T11:17:44Z</time>
      </trkpt>
      <trkpt lat="48.5098660" lon="7.7271210">
        <ele>-286.2</ele>
        <time>2022-06-04T11:17:48Z</time>
      </trkpt>
      <trkpt lat="48.5100800" lon="7.7271450">
        <ele>-286.4</ele>
        <time>2022-06-04T11:17:52Z</time>
      </trkpt>
      <trkpt lat="48.5102900" lon="7.7271880">
        <ele>-286.4</ele>
        <time>2022-06-04T11:17:56Z</time>
      </trkpt>
      <trkpt lat="48.5105080" lon="7.7272500">
        <ele>-287.2</ele>
        <time>2022-06-04T11:18:00Z</time>
      </trkpt>
      <trkpt lat="48.5107550" lon="7.7273180">
        <ele>-287.8</ele>
        <time>2022-06-04T11:18:04Z</time>
      </trkpt>
      <trkpt lat="48.5109510" lon="7.7272610">
        <ele>-288.6</ele>
        <time>2022-06-04T11:18:08Z</time>
      </trkpt>
      <trkpt lat="48.5111780" lon="7.7272200">
        <ele>-288.6</ele>
        <time>2022-06-04T11:18:12Z</time>
      </trkpt>
      <trkpt lat="48.5113960" lon="7.7272500">
        <ele>-287.6</ele>
        <time>2022-06-04T11:18:16Z</time>
      </trkpt>
      <trkpt lat="48.5115910" lon="7.7272750">
        <ele>-288.0</ele>
        <time>2022-06-04T11:18:20Z</time>
      </trkpt>
      <trkpt lat="48.5117700" lon="7.7272700">
        <ele>-287.8</ele>
        <time>2022-06-04T11:18:24Z</time>
      </trkpt>
      <trkpt lat="48.5119600" lon="7.7272780">
        <ele>-287.6</ele>
        <time>2022-06-04T11:18:28Z</time>
      </trkpt>
      <trkpt lat="48.5121300" lon="7.7272880">
        <ele>-288.0</ele>
        <time>2022-06-04T11:18:32Z</time>
      </trkpt>
      <trkpt lat="48.5123260" lon="7.7273030">
        <ele>-287.8</ele>
        <time>2022-06-04T11:18:36Z</time>
      </trkpt>
      <trkpt lat="48.5125350" lon="7.7273230">
        <ele>-288.0</ele>
        <time>2022-06-04T11:18:40Z</time>
      </trkpt>
      <trkpt lat="48.5127230" lon="7.7273280">
        <ele>-287.6</ele>
        <time>2022-06-04T11:18:44Z</time>
      </trkpt>
      <trkpt lat="48.5129010" lon="7.7273480">
        <ele>-288.2</ele>
        <time>2022-06-04T11:18:48Z</time>
      </trkpt>
      <trkpt lat="48.5130900" lon="7.7273750">
        <ele>-288.2</ele>
        <time>2022-06-04T11:18:52Z</time>
      </trkpt>
      <trkpt lat="48.5132900" lon="7.7274050">
        <ele>-288.2</ele>
        <time>2022-06-04T11:18:56Z</time>
      </trkpt>
      <trkpt lat="48.5134850" lon="7.7274530">
        <ele>-287.6</ele>
        <time>2022-06-04T11:19:00Z</time>
      </trkpt>
      <trkpt lat="48.5137050" lon="7.7274930">
        <ele>-287.6</ele>
        <time>2022-06-04T11:19:04Z</time>
      </trkpt>
      <trkpt lat="48.5138860" lon="7.7274930">
        <ele>-288.2</ele>
        <time>2022-06-04T11:19:08Z</time>
      </trkpt>
      <trkpt lat="48.5141080" lon="7.7275400">
        <ele>-288.6</ele>
        <time>2022-06-04T11:19:12Z</time>
      </trkpt>
      <trkpt lat="48.5142950" lon="7.7275710">
        <ele>-288.4</ele>
        <time>2022-06-04T11:19:16Z</time>
      </trkpt>
      <trkpt lat="48.5144860" lon="7.7275810">
        <ele>-288.0</ele>
        <time>2022-06-04T11:19:20Z</time>
      </trkpt>
      <trkpt lat="48.5146950" lon="7.7276060">
        <ele>-288.2</ele>
        <time>2022-06-04T11:19:24Z</time>
      </trkpt>
      <trkpt lat="48.5149180" lon="7.7276480">
        <ele>-288.2</ele>
        <time>2022-06-04T11:19:28Z</time>
      </trkpt>
      <trkpt lat="48.5151610" lon="7.7277050">
        <ele>-288.2</ele>
        <time>2022-06-04T11:19:32Z</time>
      </trkpt>
      <trkpt lat="48.5153750" lon="7.7277250">
        <ele>-288.2</ele>
        <time>2022-06-04T11:19:36Z</time>
      </trkpt>
      <trkpt lat="48.5155630" lon="7.7277380">
        <ele>-288.6</ele>
        <time>2022-06-04T11:19:40Z</time>
      </trkpt>
      <trkpt lat="48.5157780" lon="7.7277660">
        <ele>-288.2</ele>
        <time>2022-06-04T11:19:44Z</time>
      </trkpt>
      <trkpt lat="48.5160000" lon="7.7277960">
        <ele>-288.0</ele>
        <time>2022-06-04T11:19:48Z</time>
      </trkpt>
      <trkpt lat="48.5162010" lon="7.7278180">
        <ele>-288.2</ele>
        <time>2022-06-04T11:19:52Z</time>
      </trkpt>
      <trkpt lat="48.5164160" lon="7.7278510">
        <ele>-288.2</ele>
        <time>2022-06-04T11:19:56Z</time>
      </trkpt>
      <trkpt lat="48.5166310" lon="7.7278880">
        <ele>-288.2</ele>
        <time>2022-06-04T11:20:00Z</time>
      </trkpt>
      <trkpt lat="48.5168110" lon="7.7278960">
        <ele>-288.0</ele>
        <time>2022-06-04T11:20:04Z</time>
      </trkpt>
      <trkpt lat="48.5170260" lon="7.7279250">
        <ele>-288.0</ele>
        <time>2022-06-04T11:20:08Z</time>
      </trkpt>
      <trkpt lat="48.5172260" lon="7.7279380">
        <ele>-288.2</ele>
        <time>2022-06-04T11:20:12Z</time>
      </trkpt>
      <trkpt lat="48.5174260" lon="7.7279660">
        <ele>-288.2</ele>
        <time>2022-06-04T11:20:16Z</time>
      </trkpt>
      <trkpt lat="48.5176160" lon="7.7279860">
        <ele>-288.6</ele>
        <time>2022-06-04T11:20:20Z</time>
      </trkpt>
      <trkpt lat="48.5178360" lon="7.7280350">
        <ele>-288.4</ele>
        <time>2022-06-04T11:20:24Z</time>
      </trkpt>
      <trkpt lat="48.5180530" lon="7.7280600">
        <ele>-288.2</ele>
        <time>2022-06-04T11:20:28Z</time>
      </trkpt>
      <trkpt lat="48.5182250" lon="7.7280980">
        <ele>-288.2</ele>
        <time>2022-06-04T11:20:32Z</time>
      </trkpt>
      <trkpt lat="48.5184050" lon="7.7281060">
        <ele>-288.6</ele>
        <time>2022-06-04T11:20:36Z</time>
      </trkpt>
      <trkpt lat="48.5186100" lon="7.7281180">
        <ele>-288.6</ele>
        <time>2022-06-04T11:20:40Z</time>
      </trkpt>
      <trkpt lat="48.5188000" lon="7.7281430">
        <ele>-288.2</ele>
        <time>2022-06-04T11:20:44Z</time>
      </trkpt>
      <trkpt lat="48.5190450" lon="7.7281930">
        <ele>-288.4</ele>
        <time>2022-06-04T11:20:48Z</time>
      </trkpt>
      <trkpt lat="48.5192460" lon="7.7282130">
        <ele>-287.6</ele>
        <time>2022-06-04T11:20:52Z</time>
      </trkpt>
      <trkpt lat="48.5194430" lon="7.7282380">
        <ele>-287.6</ele>
        <time>2022-06-04T11:20:56Z</time>
      </trkpt>
      <trkpt lat="48.5196350" lon="7.7282600">
        <ele>-288.4</ele>
        <time>2022-06-04T11:21:00Z</time>
      </trkpt>
      <trkpt lat="48.5198260" lon="7.7282950">
        <ele>-288.6</ele>
        <time>2022-06-04T11:21:04Z</time>
      </trkpt>
      <trkpt lat="48.5200260" lon="7.7283680">
        <ele>-288.2</ele>
        <time>2022-06-04T11:21:08Z</time>
      </trkpt>
      <trkpt lat="48.5202250" lon="7.7284280">
        <ele>-288.8</ele>
        <time>2022-06-04T11:21:12Z</time>
      </trkpt>
      <trkpt lat="48.5203750" lon="7.7285080">
        <ele>-288.8</ele>
        <time>2022-06-04T11:21:16Z</time>
      </trkpt>
      <trkpt lat="48.5205130" lon="7.7285080">
        <ele>-288.6</ele>
        <time>2022-06-04T11:21:20Z</time>
      </trkpt>
      <trkpt lat="48.5207050" lon="7.7284950">
        <ele>-289.0</ele>
        <time>2022-06-04T11:21:24Z</time>
      </trkpt>
      <trkpt lat="48.5208960" lon="7.7284500">
        <ele>-288.6</ele>
        <time>2022-06-04T11:21:28Z</time>
      </trkpt>
      <trkpt lat="48.5211000" lon="7.7284350">
        <ele>-288.4</ele>
        <time>2022-06-04T11:21:32Z</time>
      </trkpt>
      <trkpt lat="48.5213080" lon="7.7284660">
        <ele>-288.6</ele>
        <time>2022-06-04T11:21:36Z</time>
      </trkpt>
      <trkpt lat="48.5214910" lon="7.7284910">
        <ele>-288.8</ele>
        <time>2022-06-04T11:21:40Z</time>
      </trkpt>
      <trkpt lat="48.5216630" lon="7.7285110">
        <ele>-288.6</ele>
        <time>2022-06-04T11:21:44Z</time>
      </trkpt>
      <trkpt lat="48.5218630" lon="7.7285500">
        <ele>-288.6</ele>
        <time>2022-06-04T11:21:48Z</time>
      </trkpt>
      <trkpt lat="48.5220600" lon="7.7285710">
        <ele>-288.8</ele>
        <time>2022-06-04T11:21:52Z</time>
      </trkpt>
      <trkpt lat="48.5222660" lon="7.7286010">
        <ele>-288.8</ele>
        <time>2022-06-04T11:21:56Z</time>
      </trkpt>
      <trkpt lat="48.5224610" lon="7.7286260">
        <ele>-288.4</ele>
        <time>2022-06-04T11:22:00Z</time>
      </trkpt>
      <trkpt lat="48.5226550" lon="7.7286400">
        <ele>-288.8</ele>
        <time>2022-06-04T11:22:04Z</time>
      </trkpt>
      <trkpt lat="48.5228660" lon="7.7286950">
        <ele>-288.8</ele>
        <time>2022-06-04T11:22:08Z</time>
      </trkpt>
      <trkpt lat="48.5230760" lon="7.7287160">
        <ele>-289.4</ele>
        <time>2022-06-04T11:22:12Z</time>
      </trkpt>
      <trkpt lat="48.5233080" lon="7.7287500">
        <ele>-288.6</ele>
        <time>2022-06-04T11:22:16Z</time>
      </trkpt>
      <trkpt lat="48.5235310" lon="7.7287700">
        <ele>-288.8</ele>
        <time>2022-06-04T11:22:20Z</time>
      </trkpt>
      <trkpt lat="48.5237550" lon="7.7287980">
        <ele>-289.0</ele>
        <time>2022-06-04T11:22:24Z</time>
      </trkpt>
      <trkpt lat="48.5239660" lon="7.7288200">
        <ele>-289.0</ele>
        <time>2022-06-04T11:22:28Z</time>
      </trkpt>
      <trkpt lat="48.5242050" lon="7.7288550">
        <ele>-288.8</ele>
        <time>2022-06-04T11:22:32Z</time>
      </trkpt>
      <trkpt lat="48.5244130" lon="7.7288700">
        <ele>-288.8</ele>
        <time>2022-06-04T11:22:36Z</time>
      </trkpt>
      <trkpt lat="48.5246230" lon="7.7288910">
        <ele>-288.6</ele>
        <time>2022-06-04T11:22:40Z</time>
      </trkpt>
      <trkpt lat="48.5248150" lon="7.7289130">
        <ele>-288.6</ele>
        <time>2022-06-04T11:22:44Z</time>
      </trkpt>
      <trkpt lat="48.5250380" lon="7.7289560">
        <ele>-288.8</ele>
        <time>2022-06-04T11:22:48Z</time>
      </trkpt>
      <trkpt lat="48.5252210" lon="7.7289910">
        <ele>-288.8</ele>
        <time>2022-06-04T11:22:52Z</time>
      </trkpt>
      <trkpt lat="48.5253960" lon="7.7290050">
        <ele>-288.8</ele>
        <time>2022-06-04T11:22:56Z</time>
      </trkpt>
      <trkpt lat="48.5256060" lon="7.7290400">
        <ele>-288.6</ele>
        <time>2022-06-04T11:23:00Z</time>
      </trkpt>
      <trkpt lat="48.5257860" lon="7.7290450">
        <ele>-288.2</ele>
        <time>2022-06-04T11:23:04Z</time>
      </trkpt>
      <trkpt lat="48.5259700" lon="7.7290760">
        <ele>-288.6</ele>
        <time>2022-06-04T11:23:08Z</time>
      </trkpt>
      <trkpt lat="48.5261710" lon="7.7291010">
        <ele>-288.6</ele>
        <time>2022-06-04T11:23:12Z</time>
      </trkpt>
      <trkpt lat="48.5263610" lon="7.7291230">
        <ele>-288.6</ele>
        <time>2022-06-04T11:23:16Z</time>
      </trkpt>
      <trkpt lat="48.5265580" lon="7.7291510">
        <ele>-288.4</ele>
        <time>2022-06-04T11:23:20Z</time>
      </trkpt>
      <trkpt lat="48.5267460" lon="7.7291700">
        <ele>-288.8</ele>
        <time>2022-06-04T11:23:24Z</time>
      </trkpt>
      <trkpt lat="48.5269530" lon="7.7291880">
        <ele>-288.6</ele>
        <time>2022-06-04T11:23:28Z</time>
      </trkpt>
      <trkpt lat="48.5271580" lon="7.7292200">
        <ele>-289.0</ele>
        <time>2022-06-04T11:23:32Z</time>
      </trkpt>
      <trkpt lat="48.5273700" lon="7.7292530">
        <ele>-288.2</ele>
        <time>2022-06-04T11:23:36Z</time>
      </trkpt>
      <trkpt lat="48.5275510" lon="7.7292660">
        <ele>-288.0</ele>
        <time>2022-06-04T11:23:40Z</time>
      </trkpt>
      <trkpt lat="48.5277510" lon="7.7292880">
        <ele>-288.6</ele>
        <time>2022-06-04T11:23:44Z</time>
      </trkpt>
      <trkpt lat="48.5279550" lon="7.7293100">
        <ele>-288.8</ele>
        <time>2022-06-04T11:23:48Z</time>
      </trkpt>
      <trkpt lat="48.5282010" lon="7.7293710">
        <ele>-288.8</ele>
        <time>2022-06-04T11:23:52Z</time>
      </trkpt>
      <trkpt lat="48.5284310" lon="7.7294030">
        <ele>-289.0</ele>
        <time>2022-06-04T11:23:56Z</time>
      </trkpt>
      <trkpt lat="48.5286380" lon="7.7294460">
        <ele>-289.0</ele>
        <time>2022-06-04T11:24:00Z</time>
      </trkpt>
      <trkpt lat="48.5288200" lon="7.7295710">
        <ele>-289.0</ele>
        <time>2022-06-04T11:24:04Z</time>
      </trkpt>
      <trkpt lat="48.5289680" lon="7.7295800">
        <ele>-288.4</ele>
        <time>2022-06-04T11:24:08Z</time>
      </trkpt>
      <trkpt lat="48.5291230" lon="7.7295510">
        <ele>-288.6</ele>
        <time>2022-06-04T11:24:12Z</time>
      </trkpt>
      <trkpt lat="48.5292730" lon="7.7295250">
        <ele>-289.0</ele>
        <time>2022-06-04T11:24:16Z</time>
      </trkpt>
      <trkpt lat="48.5294510" lon="7.7295230">
        <ele>-288.8</ele>
        <time>2022-06-04T11:24:20Z</time>
      </trkpt>
      <trkpt lat="48.5295980" lon="7.7295510">
        <ele>-288.8</ele>
        <time>2022-06-04T11:24:24Z</time>
      </trkpt>
      <trkpt lat="48.5297880" lon="7.7295910">
        <ele>-289.2</ele>
        <time>2022-06-04T11:24:28Z</time>
      </trkpt>
      <trkpt lat="48.5299830" lon="7.7296160">
        <ele>-289.2</ele>
        <time>2022-06-04T11:24:32Z</time>
      </trkpt>
      <trkpt lat="48.5301910" lon="7.7296410">
        <ele>-288.6</ele>
        <time>2022-06-04T11:24:36Z</time>
      </trkpt>
      <trkpt lat="48.5303830" lon="7.7296680">
        <ele>-288.8</ele>
        <time>2022-06-04T11:24:40Z</time>
      </trkpt>
      <trkpt lat="48.5305760" lon="7.7296850">
        <ele>-288.6</ele>
        <time>2022-06-04T11:24:44Z</time>
      </trkpt>
      <trkpt lat="48.5307600" lon="7.7296980">
        <ele>-288.4</ele>
        <time>2022-06-04T11:24:48Z</time>
      </trkpt>
      <trkpt lat="48.5309660" lon="7.7297150">
        <ele>-288.2</ele>
        <time>2022-06-04T11:24:52Z</time>
      </trkpt>
      <trkpt lat="48.5311650" lon="7.7297360">
        <ele>-288.2</ele>
        <time>2022-06-04T11:24:56Z</time>
      </trkpt>
      <trkpt lat="48.5313900" lon="7.7297760">
        <ele>-288.8</ele>
        <time>2022-06-04T11:25:00Z</time>
      </trkpt>
      <trkpt lat="48.5315830" lon="7.7297850">
        <ele>-288.8</ele>
        <time>2022-06-04T11:25:04Z</time>
      </trkpt>
      <trkpt lat="48.5317760" lon="7.7298010">
        <ele>-288.4</ele>
        <time>2022-06-04T11:25:08Z</time>
      </trkpt>
      <trkpt lat="48.5319900" lon="7.7298250">
        <ele>-288.6</ele>
        <time>2022-06-04T11:25:12Z</time>
      </trkpt>
      <trkpt lat="48.5321980" lon="7.7298730">
        <ele>-288.6</ele>
        <time>2022-06-04T11:25:16Z</time>
      </trkpt>
      <trkpt lat="48.5324100" lon="7.7299110">
        <ele>-288.6</ele>
        <time>2022-06-04T11:25:20Z</time>
      </trkpt>
      <trkpt lat="48.5325960" lon="7.7299430">
        <ele>-288.6</ele>
        <time>2022-06-04T11:25:24Z</time>
      </trkpt>
      <trkpt lat="48.5327910" lon="7.7299730">
        <ele>-288.6</ele>
        <time>2022-06-04T11:25:28Z</time>
      </trkpt>
      <trkpt lat="48.5330110" lon="7.7300150">
        <ele>-289.4</ele>
        <time>2022-06-04T11:25:32Z</time>
      </trkpt>
      <trkpt lat="48.5332260" lon="7.7300400">
        <ele>-288.4</ele>
        <time>2022-06-04T11:25:36Z</time>
      </trkpt>
      <trkpt lat="48.5334360" lon="7.7300480">
        <ele>-288.6</ele>
        <time>2022-06-04T11:25:40Z</time>
      </trkpt>
      <trkpt lat="48.5336410" lon="7.7300760">
        <ele>-288.2</ele>
        <time>2022-06-04T11:25:44Z</time>
      </trkpt>
      <trkpt lat="48.5338430" lon="7.7301010">
        <ele>-288.2</ele>
        <time>2022-06-04T11:25:48Z</time>
      </trkpt>
      <trkpt lat="48.5340510" lon="7.7301350">
        <ele>-288.2</ele>
        <time>2022-06-04T11:25:52Z</time>
      </trkpt>
      <trkpt lat="48.5342560" lon="7.7301710">
        <ele>-288.8</ele>
        <time>2022-06-04T11:25:56Z</time>
      </trkpt>
      <trkpt lat="48.5344710" lon="7.7302060">
        <ele>-288.6</ele>
        <time>2022-06-04T11:26:00Z</time>
      </trkpt>
      <trkpt lat="48.5347000" lon="7.7302350">
        <ele>-289.4</ele>
        <time>2022-06-04T11:26:04Z</time>
      </trkpt>
      <trkpt lat="48.5349050" lon="7.7302500">
        <ele>-288.6</ele>
        <time>2022-06-04T11:26:08Z</time>
      </trkpt>
      <trkpt lat="48.5351160" lon="7.7302730">
        <ele>-288.4</ele>
        <time>2022-06-04T11:26:12Z</time>
      </trkpt>
      <trkpt lat="48.5353330" lon="7.7303100">
        <ele>-288.0</ele>
        <time>2022-06-04T11:26:16Z</time>
      </trkpt>
      <trkpt lat="48.5355530" lon="7.7303430">
        <ele>-288.8</ele>
        <time>2022-06-04T11:26:20Z</time>
      </trkpt>
      <trkpt lat="48.5357510" lon="7.7303660">
        <ele>-288.0</ele>
        <time>2022-06-04T11:26:24Z</time>
      </trkpt>
      <trkpt lat="48.5359450" lon="7.7303830">
        <ele>-289.0</ele>
        <time>2022-06-04T11:26:28Z</time>
      </trkpt>
      <trkpt lat="48.5361580" lon="7.7304150">
        <ele>-288.6</ele>
        <time>2022-06-04T11:26:32Z</time>
      </trkpt>
      <trkpt lat="48.5363700" lon="7.7304310">
        <ele>-288.6</ele>
        <time>2022-06-04T11:26:36Z</time>
      </trkpt>
      <trkpt lat="48.5365980" lon="7.7304750">
        <ele>-289.4</ele>
        <time>2022-06-04T11:26:40Z</time>
      </trkpt>
      <trkpt lat="48.5368160" lon="7.7304980">
        <ele>-288.6</ele>
        <time>2022-06-04T11:26:44Z</time>
      </trkpt>
      <trkpt lat="48.5370200" lon="7.7305300">
        <ele>-288.4</ele>
        <time>2022-06-04T11:26:48Z</time>
      </trkpt>
      <trkpt lat="48.5372100" lon="7.7305510">
        <ele>-288.4</ele>
        <time>2022-06-04T11:26:52Z</time>
      </trkpt>
      <trkpt lat="48.5373750" lon="7.7306330">
        <ele>-287.8</ele>
        <time>2022-06-04T11:26:56Z</time>
      </trkpt>
      <trkpt lat="48.5375150" lon="7.7306680">
        <ele>-288.2</ele>
        <time>2022-06-04T11:27:00Z</time>
      </trkpt>
      <trkpt lat="48.5376380" lon="7.7307230">
        <ele>-288.4</ele>
        <time>2022-06-04T11:27:04Z</time>
      </trkpt>
      <trkpt lat="48.5377360" lon="7.7307780">
        <ele>-289.0</ele>
        <time>2022-06-04T11:27:08Z</time>
      </trkpt>
      <trkpt lat="48.5377650" lon="7.7307710">
        <ele>-288.6</ele>
        <time>2022-06-04T11:27:12Z</time>
      </trkpt>
      <trkpt lat="48.5377180" lon="7.7307660">
        <ele>-288.2</ele>
        <time>2022-06-04T11:27:16Z</time>
      </trkpt>
      <trkpt lat="48.5376580" lon="7.7307430">
        <ele>-288.4</ele>
        <time>2022-06-04T11:27:20Z</time>
      </trkpt>
      <trkpt lat="48.5375800" lon="7.7307250">
        <ele>-288.6</ele>
        <time>2022-06-04T11:27:24Z</time>
      </trkpt>
      <trkpt lat="48.5374930" lon="7.7307060">
        <ele>-288.6</ele>
        <time>2022-06-04T11:27:28Z</time>
      </trkpt>
      <trkpt lat="48.5374450" lon="7.7306610">
        <ele>-288.6</ele>
        <time>2022-06-04T11:27:32Z</time>
      </trkpt>
      <trkpt lat="48.5375060" lon="7.7306500">
        <ele>-288.2</ele>
        <time>2022-06-04T11:27:36Z</time>
      </trkpt>
      <trkpt lat="48.5375480" lon="7.7306360">
        <ele>-287.6</ele>
        <time>2022-06-04T11:27:40Z</time>
      </trkpt>
      <trkpt lat="48.5376060" lon="7.7306150">
        <ele>-287.2</ele>
        <time>2022-06-04T11:27:44Z</time>
      </trkpt>
      <trkpt lat="48.5376680" lon="7.7306150">
        <ele>-285.8</ele>
        <time>2022-06-04T11:27:48Z</time>
      </trkpt>
      <trkpt lat="48.5377500" lon="7.7306010">
        <ele>-284.8</ele>
        <time>2022-06-04T11:27:52Z</time>
      </trkpt>
      <trkpt lat="48.5378110" lon="7.7305950">
        <ele>-283.8</ele>
        <time>2022-06-04T11:27:56Z</time>
      </trkpt>
      <trkpt lat="48.5378700" lon="7.7306080">
        <ele>-283.8</ele>
        <time>2022-06-04T11:28:00Z</time>
      </trkpt>
      <trkpt lat="48.5378700" lon="7.7306080">
        <ele>-284.0</ele>
        <time>2022-06-04T11:28:04Z</time>
      </trkpt>
      <trkpt lat="48.5378700" lon="7.7306080">
        <ele>-284.2</ele>
        <time>2022-06-04T11:28:08Z</time>
      </trkpt>
      <trkpt lat="48.5378700" lon="7.7306080">
        <ele>-283.6</ele>
        <time>2022-06-04T11:28:12Z</time>
      </trkpt>
      <trkpt lat="48.5378700" lon="7.7306080">
        <ele>-283.8</ele>
        <time>2022-06-04T11:28:16Z</time>
      </trkpt>
      <trkpt lat="48.5378700" lon="7.7306080">
        <ele>-283.8</ele>
        <time>2022-06-04T11:28:20Z</time>
      </trkpt>
      <trkpt lat="48.5378700" lon="7.7306080">
        <ele>-284.0</ele>
        <time>2022-06-04T11:28:24Z</time>
      </trkpt>
      <trkpt lat="48.5378700" lon="7.7306080">
        <ele>-283.8</ele>
        <time>2022-06-04T11:28:28Z</time>
      </trkpt>
      <trkpt lat="48.5378700" lon="7.7306080">
        <ele>-283.8</ele>
        <time>2022-06-04T11:28:32Z</time>
      </trkpt>
      <trkpt lat="48.5379380" lon="7.7306200">
        <ele>-283.8</ele>
        <time>2022-06-04T11:28:36Z</time>
      </trkpt>
      <trkpt lat="48.5380000" lon="7.7306480">
        <ele>-283.8</ele>
        <time>2022-06-04T11:28:40Z</time>
      </trkpt>
      <trkpt lat="48.5380550" lon="7.7306610">
        <ele>-284.0</ele>
        <time>2022-06-04T11:28:44Z</time>
      </trkpt>
      <trkpt lat="48.5381950" lon="7.7306780">
        <ele>-286.6</ele>
        <time>2022-06-04T11:28:48Z</time>
      </trkpt>
      <trkpt lat="48.5383580" lon="7.7307150">
        <ele>-288.6</ele>
        <time>2022-06-04T11:28:52Z</time>
      </trkpt>
      <trkpt lat="48.5384360" lon="7.7306860">
        <ele>-289.4</ele>
        <time>2022-06-04T11:28:56Z</time>
      </trkpt>
      <trkpt lat="48.5384400" lon="7.7305780">
        <ele>-290.0</ele>
        <time>2022-06-04T11:29:00Z</time>
      </trkpt>
      <trkpt lat="48.5385960" lon="7.7306600">
        <ele>-290.2</ele>
        <time>2022-06-04T11:29:04Z</time>
      </trkpt>
      <trkpt lat="48.5387630" lon="7.7306760">
        <ele>-290.4</ele>
        <time>2022-06-04T11:29:08Z</time>
      </trkpt>
      <trkpt lat="48.5389080" lon="7.7306830">
        <ele>-290.2</ele>
        <time>2022-06-04T11:29:12Z</time>
      </trkpt>
      <trkpt lat="48.5390650" lon="7.7307080">
        <ele>-290.0</ele>
        <time>2022-06-04T11:29:16Z</time>
      </trkpt>
      <trkpt lat="48.5392460" lon="7.7307430">
        <ele>-289.6</ele>
        <time>2022-06-04T11:29:20Z</time>
      </trkpt>
      <trkpt lat="48.5394300" lon="7.7307680">
        <ele>-289.8</ele>
        <time>2022-06-04T11:29:24Z</time>
      </trkpt>
      <trkpt lat="48.5395950" lon="7.7307830">
        <ele>-289.2</ele>
        <time>2022-06-04T11:29:28Z</time>
      </trkpt>
      <trkpt lat="48.5397600" lon="7.7308060">
        <ele>-289.2</ele>
        <time>2022-06-04T11:29:32Z</time>
      </trkpt>
      <trkpt lat="48.5399330" lon="7.7308400">
        <ele>-289.6</ele>
        <time>2022-06-04T11:29:36Z</time>
      </trkpt>
      <trkpt lat="48.5401230" lon="7.7308700">
        <ele>-290.0</ele>
        <time>2022-06-04T11:29:40Z</time>
      </trkpt>
      <trkpt lat="48.5403330" lon="7.7309080">
        <ele>-289.8</ele>
        <time>2022-06-04T11:29:44Z</time>
      </trkpt>
      <trkpt lat="48.5405100" lon="7.7309310">
        <ele>-290.2</ele>
        <time>2022-06-04T11:29:48Z</time>
      </trkpt>
      <trkpt lat="48.5406950" lon="7.7309650">
        <ele>-290.2</ele>
        <time>2022-06-04T11:29:52Z</time>
      </trkpt>
      <trkpt lat="48.5408680" lon="7.7309830">
        <ele>-290.0</ele>
        <time>2022-06-04T11:29:56Z</time>
      </trkpt>
      <trkpt lat="48.5410100" lon="7.7310010">
        <ele>-290.0</ele>
        <time>2022-06-04T11:30:00Z</time>
      </trkpt>
      <trkpt lat="48.5411260" lon="7.7310250">
        <ele>-289.8</ele>
        <time>2022-06-04T11:30:04Z</time>
      </trkpt>
      <trkpt lat="48.5412000" lon="7.7310150">
        <ele>-289.8</ele>
        <time>2022-06-04T11:30:08Z</time>
      </trkpt>
      <trkpt lat="48.5412960" lon="7.7310080">
        <ele>-289.8</ele>
        <time>2022-06-04T11:30:12Z</time>
      </trkpt>
      <trkpt lat="48.5414610" lon="7.7310380">
        <ele>-289.8</ele>
        <time>2022-06-04T11:30:16Z</time>
      </trkpt>
      <trkpt lat="48.5416310" lon="7.7310780">
        <ele>-289.4</ele>
        <time>2022-06-04T11:30:20Z</time>
      </trkpt>
      <trkpt lat="48.5417880" lon="7.7311000">
        <ele>-289.8</ele>
        <time>2022-06-04T11:30:24Z</time>
      </trkpt>
      <trkpt lat="48.5419560" lon="7.7311110">
        <ele>-290.0</ele>
        <time>2022-06-04T11:30:28Z</time>
      </trkpt>
      <trkpt lat="48.5421460" lon="7.7311400">
        <ele>-289.8</ele>
        <time>2022-06-04T11:30:32Z</time>
      </trkpt>
      <trkpt lat="48.5422950" lon="7.7311300">
        <ele>-289.6</ele>
        <time>2022-06-04T11:30:36Z</time>
      </trkpt>
      <trkpt lat="48.5424500" lon="7.7311400">
        <ele>-290.2</ele>
        <time>2022-06-04T11:30:40Z</time>
      </trkpt>
      <trkpt lat="48.5426380" lon="7.7311560">
        <ele>-289.4</ele>
        <time>2022-06-04T11:30:44Z</time>
      </trkpt>
      <trkpt lat="48.5428350" lon="7.7311860">
        <ele>-289.8</ele>
        <time>2022-06-04T11:30:48Z</time>
      </trkpt>
      <trkpt lat="48.5430180" lon="7.7312160">
        <ele>-290.0</ele>
        <time>2022-06-04T11:30:52Z</time>
      </trkpt>
      <trkpt lat="48.5431710" lon="7.7312060">
        <ele>-289.8</ele>
        <time>2022-06-04T11:30:56Z</time>
      </trkpt>
      <trkpt lat="48.5433450" lon="7.7312060">
        <ele>-289.2</ele>
        <time>2022-06-04T11:31:00Z</time>
      </trkpt>
      <trkpt lat="48.5435300" lon="7.7312410">
        <ele>-289.8</ele>
        <time>2022-06-04T11:31:04Z</time>
      </trkpt>
      <trkpt lat="48.5437000" lon="7.7312680">
        <ele>-289.4</ele>
        <time>2022-06-04T11:31:08Z</time>
      </trkpt>
      <trkpt lat="48.5438650" lon="7.7312900">
        <ele>-289.6</ele>
        <time>2022-06-04T11:31:12Z</time>
      </trkpt>
      <trkpt lat="48.5440050" lon="7.7313000">
        <ele>-290.0</ele>
        <time>2022-06-04T11:31:16Z</time>
      </trkpt>
      <trkpt lat="48.5441450" lon="7.7314110">
        <ele>-289.2</ele>
        <time>2022-06-04T11:31:20Z</time>
      </trkpt>
      <trkpt lat="48.5442610" lon="7.7314150">
        <ele>-289.6</ele>
        <time>2022-06-04T11:31:24Z</time>
      </trkpt>
      <trkpt lat="48.5443860" lon="7.7313880">
        <ele>-290.4</ele>
        <time>2022-06-04T11:31:28Z</time>
      </trkpt>
      <trkpt lat="48.5445060" lon="7.7311880">
        <ele>-289.8</ele>
        <time>2022-06-04T11:31:32Z</time>
      </trkpt>
      <trkpt lat="48.5445960" lon="7.7309630">
        <ele>-289.8</ele>
        <time>2022-06-04T11:31:36Z</time>
      </trkpt>
      <trkpt lat="48.5446780" lon="7.7307400">
        <ele>-289.2</ele>
        <time>2022-06-04T11:31:40Z</time>
      </trkpt>
      <trkpt lat="48.5447600" lon="7.7305350">
        <ele>-289.4</ele>
        <time>2022-06-04T11:31:44Z</time>
      </trkpt>
      <trkpt lat="48.5448160" lon="7.7303550">
        <ele>-289.4</ele>
        <time>2022-06-04T11:31:48Z</time>
      </trkpt>
      <trkpt lat="48.5448900" lon="7.7302480">
        <ele>-289.8</ele>
        <time>2022-06-04T11:31:52Z</time>
      </trkpt>
      <trkpt lat="48.5450100" lon="7.7302860">
        <ele>-288.8</ele>
        <time>2022-06-04T11:31:56Z</time>
      </trkpt>
      <trkpt lat="48.5450780" lon="7.7303880">
        <ele>-289.2</ele>
        <time>2022-06-04T11:32:00Z</time>
      </trkpt>
      <trkpt lat="48.5452400" lon="7.7304400">
        <ele>-288.8</ele>
        <time>2022-06-04T11:32:04Z</time>
      </trkpt>
      <trkpt lat="48.5454230" lon="7.7305160">
        <ele>-289.2</ele>
        <time>2022-06-04T11:32:08Z</time>
      </trkpt>
      <trkpt lat="48.5456000" lon="7.7305800">
        <ele>-288.6</ele>
        <time>2022-06-04T11:32:12Z</time>
      </trkpt>
      <trkpt lat="48.5457780" lon="7.7306850">
        <ele>-288.0</ele>
        <time>2022-06-04T11:32:16Z</time>
      </trkpt>
      <trkpt lat="48.5459210" lon="7.7308430">
        <ele>-287.6</ele>
        <time>2022-06-04T11:32:20Z</time>
      </trkpt>
      <trkpt lat="48.5460280" lon="7.7310250">
        <ele>-286.6</ele>
        <time>2022-06-04T11:32:24Z</time>
      </trkpt>
      <trkpt lat="48.5461100" lon="7.7312330">
        <ele>-286.8</ele>
        <time>2022-06-04T11:32:28Z</time>
      </trkpt>
      <trkpt lat="48.5461550" lon="7.7314500">
        <ele>-285.4</ele>
        <time>2022-06-04T11:32:32Z</time>
      </trkpt>
      <trkpt lat="48.5461630" lon="7.7316810">
        <ele>-286.2</ele>
        <time>2022-06-04T11:32:36Z</time>
      </trkpt>
      <trkpt lat="48.5461500" lon="7.7319200">
        <ele>-285.4</ele>
        <time>2022-06-04T11:32:40Z</time>
      </trkpt>
      <trkpt lat="48.5461400" lon="7.7321610">
        <ele>-286.0</ele>
        <time>2022-06-04T11:32:44Z</time>
      </trkpt>
      <trkpt lat="48.5461260" lon="7.7324100">
        <ele>-287.0</ele>
        <time>2022-06-04T11:32:48Z</time>
      </trkpt>
      <trkpt lat="48.5461180" lon="7.7326160">
        <ele>-287.2</ele>
        <time>2022-06-04T11:32:52Z</time>
      </trkpt>
      <trkpt lat="48.5460950" lon="7.7326530">
        <ele>-287.0</ele>
        <time>2022-06-04T11:32:56Z</time>
      </trkpt>
      <trkpt lat="48.5461000" lon="7.7325800">
        <ele>-287.2</ele>
        <time>2022-06-04T11:33:00Z</time>
      </trkpt>
      <trkpt lat="48.5461030" lon="7.7324500">
        <ele>-285.8</ele>
        <time>2022-06-04T11:33:04Z</time>
      </trkpt>
      <trkpt lat="48.5461150" lon="7.7323010">
        <ele>-286.0</ele>
        <time>2022-06-04T11:33:08Z</time>
      </trkpt>
      <trkpt lat="48.5460900" lon="7.7321530">
        <ele>-285.4</ele>
        <time>2022-06-04T11:33:12Z</time>
      </trkpt>
      <trkpt lat="48.5459600" lon="7.7321280">
        <ele>-286.0</ele>
        <time>2022-06-04T11:33:16Z</time>
      </trkpt>
      <trkpt lat="48.5458050" lon="7.7321080">
        <ele>-287.0</ele>
        <time>2022-06-04T11:33:20Z</time>
      </trkpt>
      <trkpt lat="48.5456310" lon="7.7320830">
        <ele>-288.2</ele>
        <time>2022-06-04T11:33:24Z</time>
      </trkpt>
      <trkpt lat="48.5454410" lon="7.7320550">
        <ele>-288.0</ele>
        <time>2022-06-04T11:33:28Z</time>
      </trkpt>
      <trkpt lat="48.5454010" lon="7.7321450">
        <ele>-287.8</ele>
        <time>2022-06-04T11:33:32Z</time>
      </trkpt>
      <trkpt lat="48.5455550" lon="7.7321560">
        <ele>-288.4</ele>
        <time>2022-06-04T11:33:36Z</time>
      </trkpt>
      <trkpt lat="48.5457280" lon="7.7321810">
        <ele>-288.6</ele>
        <time>2022-06-04T11:33:40Z</time>
      </trkpt>
      <trkpt lat="48.5459280" lon="7.7322100">
        <ele>-288.8</ele>
        <time>2022-06-04T11:33:44Z</time>
      </trkpt>
      <trkpt lat="48.5461210" lon="7.7322360">
        <ele>-289.4</ele>
        <time>2022-06-04T11:33:48Z</time>
      </trkpt>
      <trkpt lat="48.5463450" lon="7.7322860">
        <ele>-289.6</ele>
        <time>2022-06-04T11:33:52Z</time>
      </trkpt>
      <trkpt lat="48.5465650" lon="7.7323130">
        <ele>-289.2</ele>
        <time>2022-06-04T11:33:56Z</time>
      </trkpt>
      <trkpt lat="48.5467860" lon="7.7323310">
        <ele>-289.2</ele>
        <time>2022-06-04T11:34:00Z</time>
      </trkpt>
      <trkpt lat="48.5469980" lon="7.7323430">
        <ele>-289.6</ele>
        <time>2022-06-04T11:34:04Z</time>
      </trkpt>
      <trkpt lat="48.5471830" lon="7.7323360">
        <ele>-289.8</ele>
        <time>2022-06-04T11:34:08Z</time>
      </trkpt>
      <trkpt lat="48.5473960" lon="7.7323650">
        <ele>-289.8</ele>
        <time>2022-06-04T11:34:12Z</time>
      </trkpt>
      <trkpt lat="48.5476060" lon="7.7324060">
        <ele>-289.8</ele>
        <time>2022-06-04T11:34:16Z</time>
      </trkpt>
      <trkpt lat="48.5478060" lon="7.7324350">
        <ele>-290.4</ele>
        <time>2022-06-04T11:34:20Z</time>
      </trkpt>
      <trkpt lat="48.5480050" lon="7.7324630">
        <ele>-289.6</ele>
        <time>2022-06-04T11:34:24Z</time>
      </trkpt>
      <trkpt lat="48.5482110" lon="7.7325010">
        <ele>-289.8</ele>
        <time>2022-06-04T11:34:28Z</time>
      </trkpt>
      <trkpt lat="48.5484100" lon="7.7325260">
        <ele>-289.8</ele>
        <time>2022-06-04T11:34:32Z</time>
      </trkpt>
      <trkpt lat="48.5486080" lon="7.7325460">
        <ele>-290.0</ele>
        <time>2022-06-04T11:34:36Z</time>
      </trkpt>
      <trkpt lat="48.5488080" lon="7.7325710">
        <ele>-289.8</ele>
        <time>2022-06-04T11:34:40Z</time>
      </trkpt>
      <trkpt lat="48.5490060" lon="7.7325980">
        <ele>-289.6</ele>
        <time>2022-06-04T11:34:44Z</time>
      </trkpt>
      <trkpt lat="48.5491930" lon="7.7326260">
        <ele>-289.2</ele>
        <time>2022-06-04T11:34:48Z</time>
      </trkpt>
      <trkpt lat="48.5493760" lon="7.7326480">
        <ele>-290.0</ele>
        <time>2022-06-04T11:34:52Z</time>
      </trkpt>
      <trkpt lat="48.5495280" lon="7.7326510">
        <ele>-290.2</ele>
        <time>2022-06-04T11:34:56Z</time>
      </trkpt>
      <trkpt lat="48.5496910" lon="7.7326750">
        <ele>-290.0</ele>
        <time>2022-06-04T11:35:00Z</time>
      </trkpt>
      <trkpt lat="48.5498460" lon="7.7327100">
        <ele>-289.0</ele>
        <time>2022-06-04T11:35:04Z</time>
      </trkpt>
      <trkpt lat="48.5500160" lon="7.7327110">
        <ele>-289.4</ele>
        <time>2022-06-04T11:35:08Z</time>
      </trkpt>
      <trkpt lat="48.5502160" lon="7.7327300">
        <ele>-289.8</ele>
        <time>2022-06-04T11:35:12Z</time>
      </trkpt>
      <trkpt lat="48.5504280" lon="7.7327580">
        <ele>-289.2</ele>
        <time>2022-06-04T11:35:16Z</time>
      </trkpt>
      <trkpt lat="48.5506210" lon="7.7327880">
        <ele>-289.4</ele>
        <time>2022-06-04T11:35:20Z</time>
      </trkpt>
      <trkpt lat="48.5508080" lon="7.7328110">
        <ele>-289.0</ele>
        <time>2022-06-04T11:35:24Z</time>
      </trkpt>
      <trkpt lat="48.5509950" lon="7.7328380">
        <ele>-289.4</ele>
        <time>2022-06-04T11:35:28Z</time>
      </trkpt>
      <trkpt lat="48.5511760" lon="7.7328660">
        <ele>-289.2</ele>
        <time>2022-06-04T11:35:32Z</time>
      </trkpt>
      <trkpt lat="48.5513580" lon="7.7328910">
        <ele>-289.8</ele>
        <time>2022-06-04T11:35:36Z</time>
      </trkpt>
      <trkpt lat="48.5515380" lon="7.7329060">
        <ele>-290.0</ele>
        <time>2022-06-04T11:35:40Z</time>
      </trkpt>
      <trkpt lat="48.5517250" lon="7.7329260">
        <ele>-290.0</ele>
        <time>2022-06-04T11:35:44Z</time>
      </trkpt>
      <trkpt lat="48.5519250" lon="7.7329630">
        <ele>-289.6</ele>
        <time>2022-06-04T11:35:48Z</time>
      </trkpt>
      <trkpt lat="48.5521200" lon="7.7329810">
        <ele>-290.0</ele>
        <time>2022-06-04T11:35:52Z</time>
      </trkpt>
      <trkpt lat="48.5523100" lon="7.7330110">
        <ele>-290.2</ele>
        <time>2022-06-04T11:35:56Z</time>
      </trkpt>
      <trkpt lat="48.5525000" lon="7.7330330">
        <ele>-289.8</ele>
        <time>2022-06-04T11:36:00Z</time>
      </trkpt>
      <trkpt lat="48.5526900" lon="7.7330550">
        <ele>-289.8</ele>
        <time>2022-06-04T11:36:04Z</time>
      </trkpt>
      <trkpt lat="48.5528750" lon="7.7330780">
        <ele>-290.2</ele>
        <time>2022-06-04T11:36:08Z</time>
      </trkpt>
      <trkpt lat="48.5530580" lon="7.7331030">
        <ele>-289.8</ele>
        <time>2022-06-04T11:36:12Z</time>
      </trkpt>
      <trkpt lat="48.5532350" lon="7.7331250">
        <ele>-289.2</ele>
        <time>2022-06-04T11:36:16Z</time>
      </trkpt>
      <trkpt lat="48.5534210" lon="7.7331480">
        <ele>-289.6</ele>
        <time>2022-06-04T11:36:20Z</time>
      </trkpt>
      <trkpt lat="48.5536100" lon="7.7331780">
        <ele>-289.2</ele>
        <time>2022-06-04T11:36:24Z</time>
      </trkpt>
      <trkpt lat="48.5538010" lon="7.7332000">
        <ele>-289.4</ele>
        <time>2022-06-04T11:36:28Z</time>
      </trkpt>
      <trkpt lat="48.5539900" lon="7.7332260">
        <ele>-289.8</ele>
        <time>2022-06-04T11:36:32Z</time>
      </trkpt>
      <trkpt lat="48.5541850" lon="7.7332500">
        <ele>-289.8</ele>
        <time>2022-06-04T11:36:36Z</time>
      </trkpt>
      <trkpt lat="48.5543760" lon="7.7332750">
        <ele>-289.4</ele>
        <time>2022-06-04T11:36:40Z</time>
      </trkpt>
      <trkpt lat="48.5545730" lon="7.7333050">
        <ele>-289.6</ele>
        <time>2022-06-04T11:36:44Z</time>
      </trkpt>
      <trkpt lat="48.5547650" lon="7.7333330">
        <ele>-289.2</ele>
        <time>2022-06-04T11:36:48Z</time>
      </trkpt>
      <trkpt lat="48.5549500" lon="7.7333550">
        <ele>-289.6</ele>
        <time>2022-06-04T11:36:52Z</time>
      </trkpt>
      <trkpt lat="48.5551500" lon="7.7333860">
        <ele>-289.8</ele>
        <time>2022-06-04T11:36:56Z</time>
      </trkpt>
      <trkpt lat="48.5553500" lon="7.7334200">
        <ele>-290.0</ele>
        <time>2022-06-04T11:37:00Z</time>
      </trkpt>
      <trkpt lat="48.5555380" lon="7.7334380">
        <ele>-289.8</ele>
        <time>2022-06-04T11:37:04Z</time>
      </trkpt>
      <trkpt lat="48.5557360" lon="7.7334650">
        <ele>-290.0</ele>
        <time>2022-06-04T11:37:08Z</time>
      </trkpt>
      <trkpt lat="48.5559310" lon="7.7334800">
        <ele>-289.6</ele>
        <time>2022-06-04T11:37:12Z</time>
      </trkpt>
      <trkpt lat="48.5561200" lon="7.7335100">
        <ele>-289.8</ele>
        <time>2022-06-04T11:37:16Z</time>
      </trkpt>
      <trkpt lat="48.5563000" lon="7.7335260">
        <ele>-289.0</ele>
        <time>2022-06-04T11:37:20Z</time>
      </trkpt>
      <trkpt lat="48.5564760" lon="7.7335610">
        <ele>-288.8</ele>
        <time>2022-06-04T11:37:24Z</time>
      </trkpt>
      <trkpt lat="48.5566500" lon="7.7335750">
        <ele>-289.8</ele>
        <time>2022-06-04T11:37:28Z</time>
      </trkpt>
      <trkpt lat="48.5568210" lon="7.7335960">
        <ele>-290.2</ele>
        <time>2022-06-04T11:37:32Z</time>
      </trkpt>
      <trkpt lat="48.5569880" lon="7.7336110">
        <ele>-289.2</ele>
        <time>2022-06-04T11:37:36Z</time>
      </trkpt>
      <trkpt lat="48.5571660" lon="7.7336300">
        <ele>-289.8</ele>
        <time>2022-06-04T11:37:40Z</time>
      </trkpt>
      <trkpt lat="48.5573550" lon="7.7336610">
        <ele>-289.8</ele>
        <time>2022-06-04T11:37:44Z</time>
      </trkpt>
      <trkpt lat="48.5575380" lon="7.7336850">
        <ele>-290.0</ele>
        <time>2022-06-04T11:37:48Z</time>
      </trkpt>
      <trkpt lat="48.5577210" lon="7.7337080">
        <ele>-289.2</ele>
        <time>2022-06-04T11:37:52Z</time>
      </trkpt>
      <trkpt lat="48.5579050" lon="7.7337260">
        <ele>-290.0</ele>
        <time>2022-06-04T11:37:56Z</time>
      </trkpt>
      <trkpt lat="48.5580850" lon="7.7337450">
        <ele>-289.2</ele>
        <time>2022-06-04T11:38:00Z</time>
      </trkpt>
      <trkpt lat="48.5582680" lon="7.7337700">
        <ele>-289.4</ele>
        <time>2022-06-04T11:38:04Z</time>
      </trkpt>
      <trkpt lat="48.5584600" lon="7.7337930">
        <ele>-289.6</ele>
        <time>2022-06-04T11:38:08Z</time>
      </trkpt>
      <trkpt lat="48.5586510" lon="7.7338210">
        <ele>-288.8</ele>
        <time>2022-06-04T11:38:12Z</time>
      </trkpt>
      <trkpt lat="48.5588430" lon="7.7338530">
        <ele>-289.6</ele>
        <time>2022-06-04T11:38:16Z</time>
      </trkpt>
      <trkpt lat="48.5590360" lon="7.7338810">
        <ele>-289.0</ele>
        <time>2022-06-04T11:38:20Z</time>
      </trkpt>
      <trkpt lat="48.5592260" lon="7.7339030">
        <ele>-289.8</ele>
        <time>2022-06-04T11:38:24Z</time>
      </trkpt>
      <trkpt lat="48.5594130" lon="7.7339360">
        <ele>-289.2</ele>
        <time>2022-06-04T11:38:28Z</time>
      </trkpt>
      <trkpt lat="48.5596010" lon="7.7339580">
        <ele>-289.2</ele>
        <time>2022-06-04T11:38:32Z</time>
      </trkpt>
      <trkpt lat="48.5597910" lon="7.7339810">
        <ele>-289.2</ele>
        <time>2022-06-04T11:38:36Z</time>
      </trkpt>
      <trkpt lat="48.5599760" lon="7.7339980">
        <ele>-289.2</ele>
        <time>2022-06-04T11:38:40Z</time>
      </trkpt>
      <trkpt lat="48.5601530" lon="7.7340110">
        <ele>-289.0</ele>
        <time>2022-06-04T11:38:44Z</time>
      </trkpt>
      <trkpt lat="48.5603360" lon="7.7340400">
        <ele>-289.6</ele>
        <time>2022-06-04T11:38:48Z</time>
      </trkpt>
      <trkpt lat="48.5605160" lon="7.7340730">
        <ele>-289.2</ele>
        <time>2022-06-04T11:38:52Z</time>
      </trkpt>
      <trkpt lat="48.5606830" lon="7.7340950">
        <ele>-289.0</ele>
        <time>2022-06-04T11:38:56Z</time>
      </trkpt>
      <trkpt lat="48.5608660" lon="7.7341130">
        <ele>-288.8</ele>
        <time>2022-06-04T11:39:00Z</time>
      </trkpt>
      <trkpt lat="48.5610510" lon="7.7341460">
        <ele>-289.2</ele>
        <time>2022-06-04T11:39:04Z</time>
      </trkpt>
      <trkpt lat="48.5612430" lon="7.7341710">
        <ele>-289.4</ele>
        <time>2022-06-04T11:39:08Z</time>
      </trkpt>
      <trkpt lat="48.5614280" lon="7.7341900">
        <ele>-289.0</ele>
        <time>2022-06-04T11:39:12Z</time>
      </trkpt>
      <trkpt lat="48.5616110" lon="7.7342010">
        <ele>-289.2</ele>
        <time>2022-06-04T11:39:16Z</time>
      </trkpt>
      <trkpt lat="48.5618100" lon="7.7342330">
        <ele>-289.4</ele>
        <time>2022-06-04T11:39:20Z</time>
      </trkpt>
      <trkpt lat="48.5620000" lon="7.7342760">
        <ele>-288.8</ele>
        <time>2022-06-04T11:39:24Z</time>
      </trkpt>
      <trkpt lat="48.5621780" lon="7.7343280">
        <ele>-289.0</ele>
        <time>2022-06-04T11:39:28Z</time>
      </trkpt>
      <trkpt lat="48.5623680" lon="7.7343600">
        <ele>-289.0</ele>
        <time>2022-06-04T11:39:32Z</time>
      </trkpt>
      <trkpt lat="48.5625600" lon="7.7343980">
        <ele>-289.2</ele>
        <time>2022-06-04T11:39:36Z</time>
      </trkpt>
      <trkpt lat="48.5627500" lon="7.7344260">
        <ele>-289.0</ele>
        <time>2022-06-04T11:39:40Z</time>
      </trkpt>
      <trkpt lat="48.5629360" lon="7.7344450">
        <ele>-289.6</ele>
        <time>2022-06-04T11:39:44Z</time>
      </trkpt>
      <trkpt lat="48.5631210" lon="7.7344750">
        <ele>-290.2</ele>
        <time>2022-06-04T11:39:48Z</time>
      </trkpt>
      <trkpt lat="48.5633180" lon="7.7344980">
        <ele>-289.2</ele>
        <time>2022-06-04T11:39:52Z</time>
      </trkpt>
      <trkpt lat="48.5635110" lon="7.7345280">
        <ele>-288.8</ele>
        <time>2022-06-04T11:39:56Z</time>
      </trkpt>
      <trkpt lat="48.5637100" lon="7.7345510">
        <ele>-289.0</ele>
        <time>2022-06-04T11:40:00Z</time>
      </trkpt>
      <trkpt lat="48.5639130" lon="7.7345760">
        <ele>-288.6</ele>
        <time>2022-06-04T11:40:04Z</time>
      </trkpt>
      <trkpt lat="48.5641210" lon="7.7345880">
        <ele>-289.4</ele>
        <time>2022-06-04T11:40:08Z</time>
      </trkpt>
      <trkpt lat="48.5643230" lon="7.7345760">
        <ele>-289.2</ele>
        <time>2022-06-04T11:40:12Z</time>
      </trkpt>
      <trkpt lat="48.5645180" lon="7.7345910">
        <ele>-289.6</ele>
        <time>2022-06-04T11:40:16Z</time>
      </trkpt>
      <trkpt lat="48.5647150" lon="7.7346100">
        <ele>-289.2</ele>
        <time>2022-06-04T11:40:20Z</time>
      </trkpt>
      <trkpt lat="48.5649160" lon="7.7346260">
        <ele>-289.2</ele>
        <time>2022-06-04T11:40:24Z</time>
      </trkpt>
      <trkpt lat="48.5651180" lon="7.7346400">
        <ele>-289.6</ele>
        <time>2022-06-04T11:40:28Z</time>
      </trkpt>
      <trkpt lat="48.5653280" lon="7.7346680">
        <ele>-289.0</ele>
        <time>2022-06-04T11:40:32Z</time>
      </trkpt>
      <trkpt lat="48.5655160" lon="7.7346960">
        <ele>-289.4</ele>
        <time>2022-06-04T11:40:36Z</time>
      </trkpt>
      <trkpt lat="48.5657010" lon="7.7347310">
        <ele>-289.8</ele>
        <time>2022-06-04T11:40:40Z</time>
      </trkpt>
      <trkpt lat="48.5658900" lon="7.7347550">
        <ele>-289.4</ele>
        <time>2022-06-04T11:40:44Z</time>
      </trkpt>
      <trkpt lat="48.5660780" lon="7.7347600">
        <ele>-289.4</ele>
        <time>2022-06-04T11:40:48Z</time>
      </trkpt>
      <trkpt lat="48.5662750" lon="7.7347610">
        <ele>-289.4</ele>
        <time>2022-06-04T11:40:52Z</time>
      </trkpt>
      <trkpt lat="48.5664700" lon="7.7347850">
        <ele>-289.2</ele>
        <time>2022-06-04T11:40:56Z</time>
      </trkpt>
      <trkpt lat="48.5666610" lon="7.7348060">
        <ele>-289.4</ele>
        <time>2022-06-04T11:41:00Z</time>
      </trkpt>
      <trkpt lat="48.5668510" lon="7.7348350">
        <ele>-289.2</ele>
        <time>2022-06-04T11:41:04Z</time>
      </trkpt>
      <trkpt lat="48.5670400" lon="7.7348560">
        <ele>-289.2</ele>
        <time>2022-06-04T11:41:08Z</time>
      </trkpt>
      <trkpt lat="48.5672280" lon="7.7348860">
        <ele>-290.0</ele>
        <time>2022-06-04T11:41:12Z</time>
      </trkpt>
      <trkpt lat="48.5674150" lon="7.7349130">
        <ele>-289.8</ele>
        <time>2022-06-04T11:41:16Z</time>
      </trkpt>
      <trkpt lat="48.5675980" lon="7.7349280">
        <ele>-289.2</ele>
        <time>2022-06-04T11:41:20Z</time>
      </trkpt>
      <trkpt lat="48.5677780" lon="7.7349550">
        <ele>-289.4</ele>
        <time>2022-06-04T11:41:24Z</time>
      </trkpt>
      <trkpt lat="48.5679510" lon="7.7349750">
        <ele>-289.6</ele>
        <time>2022-06-04T11:41:28Z</time>
      </trkpt>
      <trkpt lat="48.5681130" lon="7.7350060">
        <ele>-289.8</ele>
        <time>2022-06-04T11:41:32Z</time>
      </trkpt>
      <trkpt lat="48.5682730" lon="7.7350430">
        <ele>-290.2</ele>
        <time>2022-06-04T11:41:36Z</time>
      </trkpt>
      <trkpt lat="48.5684510" lon="7.7350980">
        <ele>-290.8</ele>
        <time>2022-06-04T11:41:40Z</time>
      </trkpt>
      <trkpt lat="48.5686400" lon="7.7351650">
        <ele>-291.4</ele>
        <time>2022-06-04T11:41:44Z</time>
      </trkpt>
      <trkpt lat="48.5688360" lon="7.7352130">
        <ele>-291.6</ele>
        <time>2022-06-04T11:41:48Z</time>
      </trkpt>
      <trkpt lat="48.5690350" lon="7.7352380">
        <ele>-290.8</ele>
        <time>2022-06-04T11:41:52Z</time>
      </trkpt>
      <trkpt lat="48.5692130" lon="7.7352560">
        <ele>-290.6</ele>
        <time>2022-06-04T11:41:56Z</time>
      </trkpt>
      <trkpt lat="48.5693880" lon="7.7352200">
        <ele>-291.4</ele>
        <time>2022-06-04T11:42:00Z</time>
      </trkpt>
      <trkpt lat="48.5695910" lon="7.7352350">
        <ele>-291.6</ele>
        <time>2022-06-04T11:42:04Z</time>
      </trkpt>
      <trkpt lat="48.5697880" lon="7.7352550">
        <ele>-292.0</ele>
        <time>2022-06-04T11:42:08Z</time>
      </trkpt>
      <trkpt lat="48.5699800" lon="7.7352830">
        <ele>-291.8</ele>
        <time>2022-06-04T11:42:12Z</time>
      </trkpt>
      <trkpt lat="48.5701900" lon="7.7353130">
        <ele>-292.0</ele>
        <time>2022-06-04T11:42:16Z</time>
      </trkpt>
      <trkpt lat="48.5703810" lon="7.7353630">
        <ele>-292.0</ele>
        <time>2022-06-04T11:42:20Z</time>
      </trkpt>
      <trkpt lat="48.5705660" lon="7.7353830">
        <ele>-292.2</ele>
        <time>2022-06-04T11:42:24Z</time>
      </trkpt>
      <trkpt lat="48.5707160" lon="7.7353760">
        <ele>-292.0</ele>
        <time>2022-06-04T11:42:28Z</time>
      </trkpt>
      <trkpt lat="48.5708310" lon="7.7353600">
        <ele>-292.2</ele>
        <time>2022-06-04T11:42:32Z</time>
      </trkpt>
      <trkpt lat="48.5709730" lon="7.7353560">
        <ele>-291.8</ele>
        <time>2022-06-04T11:42:36Z</time>
      </trkpt>
      <trkpt lat="48.5711610" lon="7.7354010">
        <ele>-291.8</ele>
        <time>2022-06-04T11:42:40Z</time>
      </trkpt>
      <trkpt lat="48.5713500" lon="7.7354300">
        <ele>-291.4</ele>
        <time>2022-06-04T11:42:44Z</time>
      </trkpt>
      <trkpt lat="48.5714980" lon="7.7353730">
        <ele>-290.6</ele>
        <time>2022-06-04T11:42:48Z</time>
      </trkpt>
      <trkpt lat="48.5716460" lon="7.7353830">
        <ele>-290.2</ele>
        <time>2022-06-04T11:42:52Z</time>
      </trkpt>
      <trkpt lat="48.5718180" lon="7.7354330">
        <ele>-291.4</ele>
        <time>2022-06-04T11:42:56Z</time>
      </trkpt>
      <trkpt lat="48.5720150" lon="7.7355630">
        <ele>-291.6</ele>
        <time>2022-06-04T11:43:00Z</time>
      </trkpt>
      <trkpt lat="48.5722410" lon="7.7357110">
        <ele>-292.0</ele>
        <time>2022-06-04T11:43:04Z</time>
      </trkpt>
      <trkpt lat="48.5724430" lon="7.7358080">
        <ele>-291.4</ele>
        <time>2022-06-04T11:43:08Z</time>
      </trkpt>
      <trkpt lat="48.5726400" lon="7.7358080">
        <ele>-291.6</ele>
        <time>2022-06-04T11:43:12Z</time>
      </trkpt>
      <trkpt lat="48.5728060" lon="7.7358700">
        <ele>-292.0</ele>
        <time>2022-06-04T11:43:16Z</time>
      </trkpt>
      <trkpt lat="48.5729230" lon="7.7359710">
        <ele>-292.4</ele>
        <time>2022-06-04T11:43:20Z</time>
      </trkpt>
      <trkpt lat="48.5730950" lon="7.7361500">
        <ele>-290.8</ele>
        <time>2022-06-04T11:43:24Z</time>
      </trkpt>
      <trkpt lat="48.5732630" lon="7.7362700">
        <ele>-290.4</ele>
        <time>2022-06-04T11:43:28Z</time>
      </trkpt>
      <trkpt lat="48.5734010" lon="7.7363850">
        <ele>-290.8</ele>
        <time>2022-06-04T11:43:32Z</time>
      </trkpt>
      <trkpt lat="48.5735350" lon="7.7365460">
        <ele>-290.4</ele>
        <time>2022-06-04T11:43:36Z</time>
      </trkpt>
      <trkpt lat="48.5736610" lon="7.7367210">
        <ele>-290.2</ele>
        <time>2022-06-04T11:43:40Z</time>
      </trkpt>
      <trkpt lat="48.5737700" lon="7.7369260">
        <ele>-290.4</ele>
        <time>2022-06-04T11:43:44Z</time>
      </trkpt>
      <trkpt lat="48.5738630" lon="7.7371280">
        <ele>-290.4</ele>
        <time>2022-06-04T11:43:48Z</time>
      </trkpt>
      <trkpt lat="48.5739410" lon="7.7373380">
        <ele>-289.8</ele>
        <time>2022-06-04T11:43:52Z</time>
      </trkpt>
      <trkpt lat="48.5739650" lon="7.7375210">
        <ele>-288.8</ele>
        <time>2022-06-04T11:43:56Z</time>
      </trkpt>
      <trkpt lat="48.5739560" lon="7.7376680">
        <ele>-288.0</ele>
        <time>2022-06-04T11:44:00Z</time>
      </trkpt>
      <trkpt lat="48.5739780" lon="7.7377700">
        <ele>-287.4</ele>
        <time>2022-06-04T11:44:04Z</time>
      </trkpt>
      <trkpt lat="48.5740650" lon="7.7377960">
        <ele>-287.0</ele>
        <time>2022-06-04T11:44:08Z</time>
      </trkpt>
      <trkpt lat="48.5741630" lon="7.7378200">
        <ele>-287.2</ele>
        <time>2022-06-04T11:44:12Z</time>
      </trkpt>
      <trkpt lat="48.5742600" lon="7.7378250">
        <ele>-287.6</ele>
        <time>2022-06-04T11:44:16Z</time>
      </trkpt>
      <trkpt lat="48.5743410" lon="7.7377680">
        <ele>-288.0</ele>
        <time>2022-06-04T11:44:20Z</time>
      </trkpt>
      <trkpt lat="48.5743510" lon="7.7375660">
        <ele>-289.6</ele>
        <time>2022-06-04T11:44:24Z</time>
      </trkpt>
      <trkpt lat="48.5743710" lon="7.7372750">
        <ele>-290.8</ele>
        <time>2022-06-04T11:44:28Z</time>
      </trkpt>
      <trkpt lat="48.5744280" lon="7.7370530">
        <ele>-291.4</ele>
        <time>2022-06-04T11:44:32Z</time>
      </trkpt>
      <trkpt lat="48.5745450" lon="7.7369280">
        <ele>-291.6</ele>
        <time>2022-06-04T11:44:36Z</time>
      </trkpt>
      <trkpt lat="48.5746930" lon="7.7369300">
        <ele>-292.2</ele>
        <time>2022-06-04T11:44:40Z</time>
      </trkpt>
      <trkpt lat="48.5748430" lon="7.7369730">
        <ele>-291.6</ele>
        <time>2022-06-04T11:44:44Z</time>
      </trkpt>
      <trkpt lat="48.5750010" lon="7.7370630">
        <ele>-291.8</ele>
        <time>2022-06-04T11:44:48Z</time>
      </trkpt>
      <trkpt lat="48.5751580" lon="7.7371250">
        <ele>-291.8</ele>
        <time>2022-06-04T11:44:52Z</time>
      </trkpt>
      <trkpt lat="48.5752900" lon="7.7371550">
        <ele>-292.0</ele>
        <time>2022-06-04T11:44:56Z</time>
      </trkpt>
      <trkpt lat="48.5754210" lon="7.7371880">
        <ele>-292.0</ele>
        <time>2022-06-04T11:45:00Z</time>
      </trkpt>
      <trkpt lat="48.5755410" lon="7.7372210">
        <ele>-292.2</ele>
        <time>2022-06-04T11:45:04Z</time>
      </trkpt>
      <trkpt lat="48.5756560" lon="7.7373100">
        <ele>-292.4</ele>
        <time>2022-06-04T11:45:08Z</time>
      </trkpt>
      <trkpt lat="48.5757560" lon="7.7373110">
        <ele>-292.0</ele>
        <time>2022-06-04T11:45:12Z</time>
      </trkpt>
      <trkpt lat="48.5759350" lon="7.7372780">
        <ele>-292.0</ele>
        <time>2022-06-04T11:45:16Z</time>
      </trkpt>
      <trkpt lat="48.5760750" lon="7.7372500">
        <ele>-292.2</ele>
        <time>2022-06-04T11:45:20Z</time>
      </trkpt>
      <trkpt lat="48.5762360" lon="7.7372110">
        <ele>-292.0</ele>
        <time>2022-06-04T11:45:24Z</time>
      </trkpt>
      <trkpt lat="48.5764000" lon="7.7372010">
        <ele>-292.0</ele>
        <time>2022-06-04T11:45:28Z</time>
      </trkpt>
      <trkpt lat="48.5765480" lon="7.7371360">
        <ele>-292.0</ele>
        <time>2022-06-04T11:45:32Z</time>
      </trkpt>
      <trkpt lat="48.5766900" lon="7.7370830">
        <ele>-291.8</ele>
        <time>2022-06-04T11:45:36Z</time>
      </trkpt>
      <trkpt lat="48.5768350" lon="7.7370400">
        <ele>-291.4</ele>
        <time>2022-06-04T11:45:40Z</time>
      </trkpt>
      <trkpt lat="48.5770280" lon="7.7369760">
        <ele>-291.8</ele>
        <time>2022-06-04T11:45:44Z</time>
      </trkpt>
      <trkpt lat="48.5771930" lon="7.7369110">
        <ele>-292.0</ele>
        <time>2022-06-04T11:45:48Z</time>
      </trkpt>
      <trkpt lat="48.5774400" lon="7.7368600">
        <ele>-291.4</ele>
        <time>2022-06-04T11:45:52Z</time>
      </trkpt>
      <trkpt lat="48.5776450" lon="7.7368210">
        <ele>-292.2</ele>
        <time>2022-06-04T11:45:56Z</time>
      </trkpt>
      <trkpt lat="48.5778650" lon="7.7368650">
        <ele>-292.2</ele>
        <time>2022-06-04T11:46:00Z</time>
      </trkpt>
      <trkpt lat="48.5780630" lon="7.7368930">
        <ele>-291.8</ele>
        <time>2022-06-04T11:46:04Z</time>
      </trkpt>
      <trkpt lat="48.5782360" lon="7.7369580">
        <ele>-292.4</ele>
        <time>2022-06-04T11:46:08Z</time>
      </trkpt>
      <trkpt lat="48.5783730" lon="7.7370410">
        <ele>-292.0</ele>
        <time>2022-06-04T11:46:12Z</time>
      </trkpt>
      <trkpt lat="48.5784610" lon="7.7371430">
        <ele>-292.4</ele>
        <time>2022-06-04T11:46:16Z</time>
      </trkpt>
      <trkpt lat="48.5785460" lon="7.7371830">
        <ele>-292.4</ele>
        <time>2022-06-04T11:46:20Z</time>
      </trkpt>
      <trkpt lat="48.5786360" lon="7.7372930">
        <ele>-292.2</ele>
        <time>2022-06-04T11:46:24Z</time>
      </trkpt>
      <trkpt lat="48.5787360" lon="7.7373710">
        <ele>-292.0</ele>
        <time>2022-06-04T11:46:28Z</time>
      </trkpt>
      <trkpt lat="48.5788230" lon="7.7374150">
        <ele>-291.8</ele>
        <time>2022-06-04T11:46:32Z</time>
      </trkpt>
      <trkpt lat="48.5789180" lon="7.7374930">
        <ele>-292.4</ele>
        <time>2022-06-04T11:46:36Z</time>
      </trkpt>
      <trkpt lat="48.5789960" lon="7.7375760">
        <ele>-292.0</ele>
        <time>2022-06-04T11:46:40Z</time>
      </trkpt>
      <trkpt lat="48.5790550" lon="7.7376200">
        <ele>-292.0</ele>
        <time>2022-06-04T11:46:44Z</time>
      </trkpt>
      <trkpt lat="48.5790550" lon="7.7376200">
        <ele>-292.0</ele>
        <time>2022-06-04T11:46:48Z</time>
      </trkpt>
      <trkpt lat="48.5790550" lon="7.7376200">
        <ele>-292.0</ele>
        <time>2022-06-04T11:46:52Z</time>
      </trkpt>
      <trkpt lat="48.5790550" lon="7.7376200">
        <ele>-291.8</ele>
        <time>2022-06-04T11:46:56Z</time>
      </trkpt>
      <trkpt lat="48.5790550" lon="7.7376200">
        <ele>-291.8</ele>
        <time>2022-06-04T11:47:00Z</time>
      </trkpt>
      <trkpt lat="48.5790660" lon="7.7376710">
        <ele>-292.0</ele>
        <time>2022-06-04T11:47:04Z</time>
      </trkpt>
      <trkpt lat="48.5790430" lon="7.7377310">
        <ele>-291.4</ele>
        <time>2022-06-04T11:47:08Z</time>
      </trkpt>
      <trkpt lat="48.5790080" lon="7.7378460">
        <ele>-291.6</ele>
        <time>2022-06-04T11:47:12Z</time>
      </trkpt>
      <trkpt lat="48.5790250" lon="7.7379710">
        <ele>-291.8</ele>
        <time>2022-06-04T11:47:16Z</time>
      </trkpt>
      <trkpt lat="48.5790700" lon="7.7381060">
        <ele>-291.2</ele>
        <time>2022-06-04T11:47:20Z</time>
      </trkpt>
      <trkpt lat="48.5791210" lon="7.7382380">
        <ele>-290.6</ele>
        <time>2022-06-04T11:47:24Z</time>
      </trkpt>
      <trkpt lat="48.5791680" lon="7.7383760">
        <ele>-290.0</ele>
        <time>2022-06-04T11:47:28Z</time>
      </trkpt>
      <trkpt lat="48.5791900" lon="7.7384700">
        <ele>-290.0</ele>
        <time>2022-06-04T11:47:32Z</time>
      </trkpt>
      <trkpt lat="48.5791730" lon="7.7385850">
        <ele>-290.4</ele>
        <time>2022-06-04T11:47:36Z</time>
      </trkpt>
      <trkpt lat="48.5791730" lon="7.7385850">
        <ele>-290.4</ele>
        <time>2022-06-04T11:47:40Z</time>
      </trkpt>
      <trkpt lat="48.5791730" lon="7.7385850">
        <ele>-290.0</ele>
        <time>2022-06-04T11:47:44Z</time>
      </trkpt>
      <trkpt lat="48.5791730" lon="7.7385850">
        <ele>-289.8</ele>
        <time>2022-06-04T11:47:48Z</time>
      </trkpt>
      <trkpt lat="48.5791710" lon="7.7386900">
        <ele>-290.0</ele>
        <time>2022-06-04T11:47:52Z</time>
      </trkpt>
      <trkpt lat="48.5791750" lon="7.7387480">
        <ele>-290.2</ele>
        <time>2022-06-04T11:47:56Z</time>
      </trkpt>
      <trkpt lat="48.5792030" lon="7.7388800">
        <ele>-290.6</ele>
        <time>2022-06-04T11:48:00Z</time>
      </trkpt>
      <trkpt lat="48.5792480" lon="7.7390310">
        <ele>-290.4</ele>
        <time>2022-06-04T11:48:04Z</time>
      </trkpt>
      <trkpt lat="48.5793110" lon="7.7391780">
        <ele>-290.2</ele>
        <time>2022-06-04T11:48:08Z</time>
      </trkpt>
      <trkpt lat="48.5793860" lon="7.7393230">
        <ele>-290.2</ele>
        <time>2022-06-04T11:48:12Z</time>
      </trkpt>
      <trkpt lat="48.5794480" lon="7.7394750">
        <ele>-290.4</ele>
        <time>2022-06-04T11:48:16Z</time>
      </trkpt>
      <trkpt lat="48.5795130" lon="7.7396150">
        <ele>-289.6</ele>
        <time>2022-06-04T11:48:20Z</time>
      </trkpt>
      <trkpt lat="48.5795130" lon="7.7396150">
        <ele>-289.8</ele>
        <time>2022-06-04T11:48:24Z</time>
      </trkpt>
      <trkpt lat="48.5795580" lon="7.7396800">
        <ele>-289.6</ele>
        <time>2022-06-04T11:48:28Z</time>
      </trkpt>
      <trkpt lat="48.5795900" lon="7.7397000">
        <ele>-288.8</ele>
        <time>2022-06-04T11:48:32Z</time>
      </trkpt>
      <trkpt lat="48.5796400" lon="7.7396630">
        <ele>-289.0</ele>
        <time>2022-06-04T11:48:36Z</time>
      </trkpt>
      <trkpt lat="48.5797100" lon="7.7396150">
        <ele>-289.0</ele>
        <time>2022-06-04T11:48:40Z</time>
      </trkpt>
      <trkpt lat="48.5797760" lon="7.7395810">
        <ele>-289.2</ele>
        <time>2022-06-04T11:48:44Z</time>
      </trkpt>
      <trkpt lat="48.5798600" lon="7.7395050">
        <ele>-289.2</ele>
        <time>2022-06-04T11:48:48Z</time>
      </trkpt>
      <trkpt lat="48.5799030" lon="7.7395410">
        <ele>-288.6</ele>
        <time>2022-06-04T11:48:52Z</time>
      </trkpt>
      <trkpt lat="48.5798980" lon="7.7396950">
        <ele>-289.2</ele>
        <time>2022-06-04T11:48:56Z</time>
      </trkpt>
      <trkpt lat="48.5798980" lon="7.7396950">
        <ele>-289.8</ele>
        <time>2022-06-04T11:49:00Z</time>
      </trkpt>
      <trkpt lat="48.5799080" lon="7.7397480">
        <ele>-289.4</ele>
        <time>2022-06-04T11:49:04Z</time>
      </trkpt>
      <trkpt lat="48.5799380" lon="7.7398730">
        <ele>-289.6</ele>
        <time>2022-06-04T11:49:08Z</time>
      </trkpt>
      <trkpt lat="48.5799880" lon="7.7400210">
        <ele>-290.2</ele>
        <time>2022-06-04T11:49:12Z</time>
      </trkpt>
      <trkpt lat="48.5800110" lon="7.7400550">
        <ele>-290.6</ele>
        <time>2022-06-04T11:49:16Z</time>
      </trkpt>
      <trkpt lat="48.5800110" lon="7.7400550">
        <ele>-290.6</ele>
        <time>2022-06-04T11:49:20Z</time>
      </trkpt>
      <trkpt lat="48.5800110" lon="7.7400550">
        <ele>-290.4</ele>
        <time>2022-06-04T11:49:24Z</time>
      </trkpt>
      <trkpt lat="48.5800110" lon="7.7400550">
        <ele>-290.4</ele>
        <time>2022-06-04T11:49:28Z</time>
      </trkpt>
      <trkpt lat="48.5800110" lon="7.7400550">
        <ele>-290.4</ele>
        <time>2022-06-04T11:49:32Z</time>
      </trkpt>
      <trkpt lat="48.5800110" lon="7.7400550">
        <ele>-290.2</ele>
        <time>2022-06-04T11:49:36Z</time>
      </trkpt>
      <trkpt lat="48.5800110" lon="7.7400550">
        <ele>-290.6</ele>
        <time>2022-06-04T11:49:40Z</time>
      </trkpt>
      <trkpt lat="48.5800110" lon="7.7400550">
        <ele>-290.4</ele>
        <time>2022-06-04T11:49:44Z</time>
      </trkpt>
      <trkpt lat="48.5800110" lon="7.7400550">
        <ele>-290.6</ele>
        <time>2022-06-04T11:49:48Z</time>
      </trkpt>
      <trkpt lat="48.5800110" lon="7.7400550">
        <ele>-290.2</ele>
        <time>2022-06-04T11:49:52Z</time>
      </trkpt>
      <trkpt lat="48.5800110" lon="7.7400550">
        <ele>-290.4</ele>
        <time>2022-06-04T11:49:56Z</time>
      </trkpt>
      <trkpt lat="48.5800110" lon="7.7400550">
        <ele>-290.6</ele>
        <time>2022-06-04T11:50:00Z</time>
      </trkpt>
      <trkpt lat="48.5800110" lon="7.7400550">
        <ele>-290.6</ele>
        <time>2022-06-04T11:50:04Z</time>
      </trkpt>
      <trkpt lat="48.5800110" lon="7.7400550">
        <ele>-290.6</ele>
        <time>2022-06-04T11:50:08Z</time>
      </trkpt>
      <trkpt lat="48.5800110" lon="7.7400550">
        <ele>-290.4</ele>
        <time>2022-06-04T11:50:12Z</time>
      </trkpt>
      <trkpt lat="48.5800110" lon="7.7400550">
        <ele>-290.4</ele>
        <time>2022-06-04T11:50:16Z</time>
      </trkpt>
      <trkpt lat="48.5800110" lon="7.7400550">
        <ele>-290.2</ele>
        <time>2022-06-04T11:50:20Z</time>
      </trkpt>
      <trkpt lat="48.5800110" lon="7.7400550">
        <ele>-290.6</ele>
        <time>2022-06-04T11:50:24Z</time>
      </trkpt>
      <trkpt lat="48.5800110" lon="7.7400550">
        <ele>-290.6</ele>
        <time>2022-06-04T11:50:28Z</time>
      </trkpt>
      <trkpt lat="48.5800110" lon="7.7400550">
        <ele>-290.8</ele>
        <time>2022-06-04T11:50:32Z</time>
      </trkpt>
      <trkpt lat="48.5800110" lon="7.7400550">
        <ele>-290.6</ele>
        <time>2022-06-04T11:50:36Z</time>
      </trkpt>
      <trkpt lat="48.5800110" lon="7.7400550">
        <ele>-290.6</ele>
        <time>2022-06-04T11:50:40Z</time>
      </trkpt>
      <trkpt lat="48.5800110" lon="7.7400550">
        <ele>-290.6</ele>
        <time>2022-06-04T11:50:44Z</time>
      </trkpt>
      <trkpt lat="48.5800110" lon="7.7400550">
        <ele>-290.2</ele>
        <time>2022-06-04T11:50:48Z</time>
      </trkpt>
      <trkpt lat="48.5800110" lon="7.7400550">
        <ele>-290.4</ele>
        <time>2022-06-04T11:50:52Z</time>
      </trkpt>
      <trkpt lat="48.5800110" lon="7.7400550">
        <ele>-290.2</ele>
        <time>2022-06-04T11:50:56Z</time>
      </trkpt>
      <trkpt lat="48.5800110" lon="7.7400550">
        <ele>-290.0</ele>
        <time>2022-06-04T11:51:00Z</time>
      </trkpt>
      <trkpt lat="48.5800280" lon="7.7401050">
        <ele>-290.8</ele>
        <time>2022-06-04T11:51:04Z</time>
      </trkpt>
      <trkpt lat="48.5800650" lon="7.7401860">
        <ele>-290.0</ele>
        <time>2022-06-04T11:51:08Z</time>
      </trkpt>
      <trkpt lat="48.5801060" lon="7.7403450">
        <ele>-290.2</ele>
        <time>2022-06-04T11:51:12Z</time>
      </trkpt>
      <trkpt lat="48.5801580" lon="7.7405260">
        <ele>-290.2</ele>
        <time>2022-06-04T11:51:16Z</time>
      </trkpt>
      <trkpt lat="48.5802180" lon="7.7406950">
        <ele>-289.6</ele>
        <time>2022-06-04T11:51:20Z</time>
      </trkpt>
      <trkpt lat="48.5802700" lon="7.7408760">
        <ele>-290.0</ele>
        <time>2022-06-04T11:51:24Z</time>
      </trkpt>
      <trkpt lat="48.5803180" lon="7.7410610">
        <ele>-290.0</ele>
        <time>2022-06-04T11:51:28Z</time>
      </trkpt>
      <trkpt lat="48.5803600" lon="7.7412310">
        <ele>-290.2</ele>
        <time>2022-06-04T11:51:32Z</time>
      </trkpt>
      <trkpt lat="48.5803850" lon="7.7414000">
        <ele>-290.6</ele>
        <time>2022-06-04T11:51:36Z</time>
      </trkpt>
      <trkpt lat="48.5804280" lon="7.7415030">
        <ele>-289.6</ele>
        <time>2022-06-04T11:51:40Z</time>
      </trkpt>
      <trkpt lat="48.5804680" lon="7.7416110">
        <ele>-290.0</ele>
        <time>2022-06-04T11:51:44Z</time>
      </trkpt>
      <trkpt lat="48.5805060" lon="7.7417850">
        <ele>-290.0</ele>
        <time>2022-06-04T11:51:48Z</time>
      </trkpt>
      <trkpt lat="48.5804850" lon="7.7419080">
        <ele>-290.6</ele>
        <time>2022-06-04T11:51:52Z</time>
      </trkpt>
      <trkpt lat="48.5803860" lon="7.7420030">
        <ele>-289.6</ele>
        <time>2022-06-04T11:51:56Z</time>
      </trkpt>
      <trkpt lat="48.5803010" lon="7.7421030">
        <ele>-290.2</ele>
        <time>2022-06-04T11:52:00Z</time>
      </trkpt>
      <trkpt lat="48.5802530" lon="7.7421580">
        <ele>-290.0</ele>
        <time>2022-06-04T11:52:04Z</time>
      </trkpt>
      <trkpt lat="48.5802060" lon="7.7422700">
        <ele>-289.6</ele>
        <time>2022-06-04T11:52:08Z</time>
      </trkpt>
      <trkpt lat="48.5801400" lon="7.7423960">
        <ele>-289.4</ele>
        <time>2022-06-04T11:52:12Z</time>
      </trkpt>
      <trkpt lat="48.5801110" lon="7.7425260">
        <ele>-289.8</ele>
        <time>2022-06-04T11:52:16Z</time>
      </trkpt>
      <trkpt lat="48.5801000" lon="7.7426010">
        <ele>-289.4</ele>
        <time>2022-06-04T11:52:20Z</time>
      </trkpt>
      <trkpt lat="48.5800860" lon="7.7426450">
        <ele>-289.0</ele>
        <time>2022-06-04T11:52:24Z</time>
      </trkpt>
      <trkpt lat="48.5800660" lon="7.7426960">
        <ele>-289.2</ele>
        <time>2022-06-04T11:52:28Z</time>
      </trkpt>
      <trkpt lat="48.5800000" lon="7.7427950">
        <ele>-289.0</ele>
        <time>2022-06-04T11:52:32Z</time>
      </trkpt>
      <trkpt lat="48.5799830" lon="7.7429060">
        <ele>-288.4</ele>
        <time>2022-06-04T11:52:36Z</time>
      </trkpt>
      <trkpt lat="48.5800350" lon="7.7430060">
        <ele>-288.2</ele>
        <time>2022-06-04T11:52:40Z</time>
      </trkpt>
      <trkpt lat="48.5800680" lon="7.7431100">
        <ele>-288.2</ele>
        <time>2022-06-04T11:52:44Z</time>
      </trkpt>
      <trkpt lat="48.5801030" lon="7.7431580">
        <ele>-288.0</ele>
        <time>2022-06-04T11:52:48Z</time>
      </trkpt>
      <trkpt lat="48.5801030" lon="7.7431580">
        <ele>-287.6</ele>
        <time>2022-06-04T11:52:52Z</time>
      </trkpt>
      <trkpt lat="48.5801030" lon="7.7431580">
        <ele>-287.4</ele>
        <time>2022-06-04T11:52:56Z</time>
      </trkpt>
      <trkpt lat="48.5801030" lon="7.7431580">
        <ele>-288.2</ele>
        <time>2022-06-04T11:53:00Z</time>
      </trkpt>
      <trkpt lat="48.5801030" lon="7.7431580">
        <ele>-288.2</ele>
        <time>2022-06-04T11:53:04Z</time>
      </trkpt>
      <trkpt lat="48.5801030" lon="7.7431580">
        <ele>-288.0</ele>
        <time>2022-06-04T11:53:08Z</time>
      </trkpt>
      <trkpt lat="48.5801030" lon="7.7431580">
        <ele>-288.2</ele>
        <time>2022-06-04T11:53:12Z</time>
      </trkpt>
      <trkpt lat="48.5801030" lon="7.7431580">
        <ele>-288.2</ele>
        <time>2022-06-04T11:53:16Z</time>
      </trkpt>
      <trkpt lat="48.5801030" lon="7.7431580">
        <ele>-288.0</ele>
        <time>2022-06-04T11:53:20Z</time>
      </trkpt>
      <trkpt lat="48.5801030" lon="7.7431580">
        <ele>-288.2</ele>
        <time>2022-06-04T11:53:24Z</time>
      </trkpt>
      <trkpt lat="48.5801030" lon="7.7431580">
        <ele>-288.4</ele>
        <time>2022-06-04T11:53:28Z</time>
      </trkpt>
      <trkpt lat="48.5801030" lon="7.7431580">
        <ele>-288.6</ele>
        <time>2022-06-04T11:53:32Z</time>
      </trkpt>
      <trkpt lat="48.5801030" lon="7.7431580">
        <ele>-288.6</ele>
        <time>2022-06-04T11:53:36Z</time>
      </trkpt>
      <trkpt lat="48.5801030" lon="7.7431580">
        <ele>-288.4</ele>
        <time>2022-06-04T11:53:40Z</time>
      </trkpt>
      <trkpt lat="48.5801030" lon="7.7431580">
        <ele>-288.4</ele>
        <time>2022-06-04T11:53:44Z</time>
      </trkpt>
      <trkpt lat="48.5801030" lon="7.7431580">
        <ele>-288.2</ele>
        <time>2022-06-04T11:53:48Z</time>
      </trkpt>
      <trkpt lat="48.5801030" lon="7.7431580">
        <ele>-288.2</ele>
        <time>2022-06-04T11:53:52Z</time>
      </trkpt>
      <trkpt lat="48.5801030" lon="7.7431580">
        <ele>-288.0</ele>
        <time>2022-06-04T11:53:56Z</time>
      </trkpt>
      <trkpt lat="48.5801030" lon="7.7431580">
        <ele>-287.8</ele>
        <time>2022-06-04T11:54:00Z</time>
      </trkpt>
      <trkpt lat="48.5801030" lon="7.7431580">
        <ele>-288.2</ele>
        <time>2022-06-04T11:54:04Z</time>
      </trkpt>
      <trkpt lat="48.5801000" lon="7.7432080">
        <ele>-288.2</ele>
        <time>2022-06-04T11:54:08Z</time>
      </trkpt>
      <trkpt lat="48.5801150" lon="7.7432900">
        <ele>-288.0</ele>
        <time>2022-06-04T11:54:12Z</time>
      </trkpt>
      <trkpt lat="48.5801610" lon="7.7434200">
        <ele>-289.0</ele>
        <time>2022-06-04T11:54:16Z</time>
      </trkpt>
      <trkpt lat="48.5802310" lon="7.7435510">
        <ele>-289.4</ele>
        <time>2022-06-04T11:54:20Z</time>
      </trkpt>
      <trkpt lat="48.5803110" lon="7.7436600">
        <ele>-289.8</ele>
        <time>2022-06-04T11:54:24Z</time>
      </trkpt>
      <trkpt lat="48.5803460" lon="7.7437030">
        <ele>-290.0</ele>
        <time>2022-06-04T11:54:28Z</time>
      </trkpt>
      <trkpt lat="48.5803460" lon="7.7437030">
        <ele>-289.6</ele>
        <time>2022-06-04T11:54:32Z</time>
      </trkpt>
      <trkpt lat="48.5803460" lon="7.7437030">
        <ele>-290.0</ele>
        <time>2022-06-04T11:54:36Z</time>
      </trkpt>
      <trkpt lat="48.5803460" lon="7.7437030">
        <ele>-289.8</ele>
        <time>2022-06-04T11:54:40Z</time>
      </trkpt>
      <trkpt lat="48.5803460" lon="7.7437030">
        <ele>-289.6</ele>
        <time>2022-06-04T11:54:44Z</time>
      </trkpt>
      <trkpt lat="48.5803460" lon="7.7437030">
        <ele>-289.6</ele>
        <time>2022-06-04T11:54:48Z</time>
      </trkpt>
      <trkpt lat="48.5803460" lon="7.7437030">
        <ele>-289.6</ele>
        <time>2022-06-04T11:54:52Z</time>
      </trkpt>
      <trkpt lat="48.5803460" lon="7.7437030">
        <ele>-289.8</ele>
        <time>2022-06-04T11:54:56Z</time>
      </trkpt>
      <trkpt lat="48.5803460" lon="7.7437030">
        <ele>-289.4</ele>
        <time>2022-06-04T11:55:00Z</time>
      </trkpt>
      <trkpt lat="48.5803460" lon="7.7437030">
        <ele>-289.6</ele>
        <time>2022-06-04T11:55:04Z</time>
      </trkpt>
      <trkpt lat="48.5803460" lon="7.7437030">
        <ele>-289.4</ele>
        <time>2022-06-04T11:55:08Z</time>
      </trkpt>
      <trkpt lat="48.5803460" lon="7.7437030">
        <ele>-289.6</ele>
        <time>2022-06-04T11:55:12Z</time>
      </trkpt>
      <trkpt lat="48.5803460" lon="7.7437030">
        <ele>-289.2</ele>
        <time>2022-06-04T11:55:16Z</time>
      </trkpt>
      <trkpt lat="48.5803460" lon="7.7437030">
        <ele>-289.0</ele>
        <time>2022-06-04T11:55:20Z</time>
      </trkpt>
      <trkpt lat="48.5803460" lon="7.7437030">
        <ele>-289.4</ele>
        <time>2022-06-04T11:55:24Z</time>
      </trkpt>
      <trkpt lat="48.5803460" lon="7.7437030">
        <ele>-289.2</ele>
        <time>2022-06-04T11:55:28Z</time>
      </trkpt>
      <trkpt lat="48.5803460" lon="7.7437030">
        <ele>-289.0</ele>
        <time>2022-06-04T11:55:32Z</time>
      </trkpt>
      <trkpt lat="48.5803460" lon="7.7437030">
        <ele>-289.2</ele>
        <time>2022-06-04T11:55:36Z</time>
      </trkpt>
      <trkpt lat="48.5803460" lon="7.7437030">
        <ele>-289.2</ele>
        <time>2022-06-04T11:55:40Z</time>
      </trkpt>
      <trkpt lat="48.5803460" lon="7.7437030">
        <ele>-289.2</ele>
        <time>2022-06-04T11:55:44Z</time>
      </trkpt>
      <trkpt lat="48.5803460" lon="7.7437030">
        <ele>-289.2</ele>
        <time>2022-06-04T11:55:48Z</time>
      </trkpt>
      <trkpt lat="48.5803460" lon="7.7437030">
        <ele>-289.4</ele>
        <time>2022-06-04T11:55:52Z</time>
      </trkpt>
      <trkpt lat="48.5803460" lon="7.7437030">
        <ele>-289.2</ele>
        <time>2022-06-04T11:55:56Z</time>
      </trkpt>
      <trkpt lat="48.5803460" lon="7.7437030">
        <ele>-289.2</ele>
        <time>2022-06-04T11:56:00Z</time>
      </trkpt>
      <trkpt lat="48.5803460" lon="7.7437030">
        <ele>-289.2</ele>
        <time>2022-06-04T11:56:04Z</time>
      </trkpt>
      <trkpt lat="48.5803460" lon="7.7437030">
        <ele>-289.4</ele>
        <time>2022-06-04T11:56:08Z</time>
      </trkpt>
      <trkpt lat="48.5803460" lon="7.7437030">
        <ele>-289.2</ele>
        <time>2022-06-04T11:56:12Z</time>
      </trkpt>
      <trkpt lat="48.5803460" lon="7.7437030">
        <ele>-289.8</ele>
        <time>2022-06-04T11:56:16Z</time>
      </trkpt>
      <trkpt lat="48.5803460" lon="7.7437030">
        <ele>-289.2</ele>
        <time>2022-06-04T11:56:20Z</time>
      </trkpt>
      <trkpt lat="48.5803930" lon="7.7438510">
        <ele>-289.2</ele>
        <time>2022-06-04T11:56:24Z</time>
      </trkpt>
      <trkpt lat="48.5804280" lon="7.7438780">
        <ele>-289.0</ele>
        <time>2022-06-04T11:56:28Z</time>
      </trkpt>
      <trkpt lat="48.5805050" lon="7.7438480">
        <ele>-288.8</ele>
        <time>2022-06-04T11:56:32Z</time>
      </trkpt>
      <trkpt lat="48.5805850" lon="7.7438950">
        <ele>-289.0</ele>
        <time>2022-06-04T11:56:36Z</time>
      </trkpt>
      <trkpt lat="48.5806660" lon="7.7439250">
        <ele>-288.6</ele>
        <time>2022-06-04T11:56:40Z</time>
      </trkpt>
      <trkpt lat="48.5807330" lon="7.7439680">
        <ele>-288.2</ele>
        <time>2022-06-04T11:56:44Z</time>
      </trkpt>
      <trkpt lat="48.5808180" lon="7.7439980">
        <ele>-288.2</ele>
        <time>2022-06-04T11:56:48Z</time>
      </trkpt>
      <trkpt lat="48.5808910" lon="7.7440330">
        <ele>-287.8</ele>
        <time>2022-06-04T11:56:52Z</time>
      </trkpt>
      <trkpt lat="48.5809660" lon="7.7440680">
        <ele>-287.4</ele>
        <time>2022-06-04T11:56:56Z</time>
      </trkpt>
      <trkpt lat="48.5810530" lon="7.7441180">
        <ele>-287.0</ele>
        <time>2022-06-04T11:57:00Z</time>
      </trkpt>
      <trkpt lat="48.5811500" lon="7.7441580">
        <ele>-287.0</ele>
        <time>2022-06-04T11:57:04Z</time>
      </trkpt>
      <trkpt lat="48.5812380" lon="7.7442310">
        <ele>-286.4</ele>
        <time>2022-06-04T11:57:08Z</time>
      </trkpt>
      <trkpt lat="48.5812780" lon="7.7443380">
        <ele>-286.0</ele>
        <time>2022-06-04T11:57:12Z</time>
      </trkpt>
      <trkpt lat="48.5813130" lon="7.7444430">
        <ele>-286.0</ele>
        <time>2022-06-04T11:57:16Z</time>
      </trkpt>
      <trkpt lat="48.5813380" lon="7.7445400">
        <ele>-286.4</ele>
        <time>2022-06-04T11:57:20Z</time>
      </trkpt>
      <trkpt lat="48.5813380" lon="7.7445400">
        <ele>-286.4</ele>
        <time>2022-06-04T11:57:24Z</time>
      </trkpt>
      <trkpt lat="48.5813380" lon="7.7445400">
        <ele>-286.0</ele>
        <time>2022-06-04T11:57:28Z</time>
      </trkpt>
      <trkpt lat="48.5813380" lon="7.7445400">
        <ele>-286.0</ele>
        <time>2022-06-04T11:57:32Z</time>
      </trkpt>
      <trkpt lat="48.5813380" lon="7.7445400">
        <ele>-286.4</ele>
        <time>2022-06-04T11:57:36Z</time>
      </trkpt>
      <trkpt lat="48.5813380" lon="7.7445400">
        <ele>-286.0</ele>
        <time>2022-06-04T11:57:40Z</time>
      </trkpt>
      <trkpt lat="48.5813380" lon="7.7445400">
        <ele>-286.0</ele>
        <time>2022-06-04T11:57:44Z</time>
      </trkpt>
      <trkpt lat="48.5813380" lon="7.7445400">
        <ele>-286.0</ele>
        <time>2022-06-04T11:57:48Z</time>
      </trkpt>
      <trkpt lat="48.5813380" lon="7.7445400">
        <ele>-286.2</ele>
        <time>2022-06-04T11:57:52Z</time>
      </trkpt>
      <trkpt lat="48.5813380" lon="7.7445400">
        <ele>-286.0</ele>
        <time>2022-06-04T11:57:56Z</time>
      </trkpt>
      <trkpt lat="48.5813380" lon="7.7445400">
        <ele>-286.4</ele>
        <time>2022-06-04T11:58:00Z</time>
      </trkpt>
      <trkpt lat="48.5814060" lon="7.7446410">
        <ele>-286.4</ele>
        <time>2022-06-04T11:58:04Z</time>
      </trkpt>
      <trkpt lat="48.5814100" lon="7.7446960">
        <ele>-286.4</ele>
        <time>2022-06-04T11:58:08Z</time>
      </trkpt>
      <trkpt lat="48.5814000" lon="7.7448130">
        <ele>-286.0</ele>
        <time>2022-06-04T11:58:12Z</time>
      </trkpt>
      <trkpt lat="48.5813880" lon="7.7449500">
        <ele>-285.8</ele>
        <time>2022-06-04T11:58:16Z</time>
      </trkpt>
      <trkpt lat="48.5813750" lon="7.7450950">
        <ele>-286.0</ele>
        <time>2022-06-04T11:58:20Z</time>
      </trkpt>
      <trkpt lat="48.5813700" lon="7.7452050">
        <ele>-286.0</ele>
        <time>2022-06-04T11:58:24Z</time>
      </trkpt>
      <trkpt lat="48.5813260" lon="7.7452660">
        <ele>-285.4</ele>
        <time>2022-06-04T11:58:28Z</time>
      </trkpt>
      <trkpt lat="48.5813210" lon="7.7453950">
        <ele>-285.8</ele>
        <time>2022-06-04T11:58:32Z</time>
      </trkpt>
      <trkpt lat="48.5812880" lon="7.7455550">
        <ele>-286.0</ele>
        <time>2022-06-04T11:58:36Z</time>
      </trkpt>
      <trkpt lat="48.5812630" lon="7.7456600">
        <ele>-285.2</ele>
        <time>2022-06-04T11:58:40Z</time>
      </trkpt>
      <trkpt lat="48.5812650" lon="7.7457560">
        <ele>-285.6</ele>
        <time>2022-06-04T11:58:44Z</time>
      </trkpt>
      <trkpt lat="48.5812710" lon="7.7458860">
        <ele>-285.4</ele>
        <time>2022-06-04T11:58:48Z</time>
      </trkpt>
      <trkpt lat="48.5812810" lon="7.7460350">
        <ele>-285.4</ele>
        <time>2022-06-04T11:58:52Z</time>
      </trkpt>
      <trkpt lat="48.5811600" lon="7.7461500">
        <ele>-285.4</ele>
        <time>2022-06-04T11:58:56Z</time>
      </trkpt>
      <trkpt lat="48.5810760" lon="7.7461780">
        <ele>-285.4</ele>
        <time>2022-06-04T11:59:00Z</time>
      </trkpt>
      <trkpt lat="48.5810460" lon="7.7462580">
        <ele>-285.4</ele>
        <time>2022-06-04T11:59:04Z</time>
      </trkpt>
      <trkpt lat="48.5809260" lon="7.7463800">
        <ele>-285.6</ele>
        <time>2022-06-04T11:59:08Z</time>
      </trkpt>
      <trkpt lat="48.5808000" lon="7.7464730">
        <ele>-285.6</ele>
        <time>2022-06-04T11:59:12Z</time>
      </trkpt>
      <trkpt lat="48.5806900" lon="7.7466110">
        <ele>-285.8</ele>
        <time>2022-06-04T11:59:16Z</time>
      </trkpt>
      <trkpt lat="48.5805900" lon="7.7467380">
        <ele>-286.6</ele>
        <time>2022-06-04T11:59:20Z</time>
      </trkpt>
      <trkpt lat="48.5805050" lon="7.7467780">
        <ele>-286.0</ele>
        <time>2022-06-04T11:59:24Z</time>
      </trkpt>
      <trkpt lat="48.5804650" lon="7.7467280">
        <ele>-287.0</ele>
        <time>2022-06-04T11:59:28Z</time>
      </trkpt>
      <trkpt lat="48.5804250" lon="7.7467100">
        <ele>-287.4</ele>
        <time>2022-06-04T11:59:32Z</time>
      </trkpt>
      <trkpt lat="48.5803960" lon="7.7466800">
        <ele>-287.6</ele>
        <time>2022-06-04T11:59:36Z</time>
      </trkpt>
      <trkpt lat="48.5803580" lon="7.7466130">
        <ele>-287.4</ele>
        <time>2022-06-04T11:59:40Z</time>
      </trkpt>
      <trkpt lat="48.5803580" lon="7.7466130">
        <ele>-287.0</ele>
        <time>2022-06-04T11:59:44Z</time>
      </trkpt>
      <trkpt lat="48.5803580" lon="7.7466130">
        <ele>-287.6</ele>
        <time>2022-06-04T11:59:48Z</time>
      </trkpt>
      <trkpt lat="48.5803250" lon="7.7466180">
        <ele>-287.4</ele>
        <time>2022-06-04T11:59:52Z</time>
      </trkpt>
      <trkpt lat="48.5803250" lon="7.7466180">
        <ele>-287.6</ele>
        <time>2022-06-04T11:59:56Z</time>
      </trkpt>
      <trkpt lat="48.5802960" lon="7.7466130">
        <ele>-287.8</ele>
        <time>2022-06-04T12:00:00Z</time>
      </trkpt>
      <trkpt lat="48.5802630" lon="7.7465450">
        <ele>-287.8</ele>
        <time>2022-06-04T12:00:04Z</time>
      </trkpt>
      <trkpt lat="48.5802230" lon="7.7464680">
        <ele>-288.0</ele>
        <time>2022-06-04T12:00:08Z</time>
      </trkpt>
      <trkpt lat="48.5802200" lon="7.7465180">
        <ele>-287.6</ele>
        <time>2022-06-04T12:00:12Z</time>
      </trkpt>
      <trkpt lat="48.5802400" lon="7.7465810">
        <ele>-287.2</ele>
        <time>2022-06-04T12:00:16Z</time>
      </trkpt>
      <trkpt lat="48.5802650" lon="7.7466380">
        <ele>-287.6</ele>
        <time>2022-06-04T12:00:20Z</time>
      </trkpt>
      <trkpt lat="48.5802850" lon="7.7466950">
        <ele>-287.2</ele>
        <time>2022-06-04T12:00:24Z</time>
      </trkpt>
      <trkpt lat="48.5802950" lon="7.7467330">
        <ele>-287.6</ele>
        <time>2022-06-04T12:00:28Z</time>
      </trkpt>
      <trkpt lat="48.5803030" lon="7.7467730">
        <ele>-287.6</ele>
        <time>2022-06-04T12:00:32Z</time>
      </trkpt>
      <trkpt lat="48.5802810" lon="7.7468450">
        <ele>-287.6</ele>
        <time>2022-06-04T12:00:36Z</time>
      </trkpt>
      <trkpt lat="48.5801960" lon="7.7468860">
        <ele>-287.8</ele>
        <time>2022-06-04T12:00:40Z</time>
      </trkpt>
      <trkpt lat="48.5801180" lon="7.7469110">
        <ele>-288.0</ele>
        <time>2022-06-04T12:00:44Z</time>
      </trkpt>
      <trkpt lat="48.5800480" lon="7.7469450">
        <ele>-288.0</ele>
        <time>2022-06-04T12:00:48Z</time>
      </trkpt>
      <trkpt lat="48.5799350" lon="7.7469400">
        <ele>-288.4</ele>
        <time>2022-06-04T12:00:52Z</time>
      </trkpt>
      <trkpt lat="48.5798160" lon="7.7469380">
        <ele>-288.6</ele>
        <time>2022-06-04T12:00:56Z</time>
      </trkpt>
      <trkpt lat="48.5797200" lon="7.7469030">
        <ele>-288.6</ele>
        <time>2022-06-04T12:01:00Z</time>
      </trkpt>
      <trkpt lat="48.5797200" lon="7.7469030">
        <ele>-288.6</ele>
        <time>2022-06-04T12:01:04Z</time>
      </trkpt>
      <trkpt lat="48.5797200" lon="7.7469030">
        <ele>-288.6</ele>
        <time>2022-06-04T12:01:08Z</time>
      </trkpt>
      <trkpt lat="48.5797200" lon="7.7469030">
        <ele>-288.6</ele>
        <time>2022-06-04T12:01:12Z</time>
      </trkpt>
      <trkpt lat="48.5797200" lon="7.7469030">
        <ele>-288.6</ele>
        <time>2022-06-04T12:01:16Z</time>
      </trkpt>
      <trkpt lat="48.5797200" lon="7.7469030">
        <ele>-288.4</ele>
        <time>2022-06-04T12:01:20Z</time>
      </trkpt>
      <trkpt lat="48.5797200" lon="7.7469030">
        <ele>-288.2</ele>
        <time>2022-06-04T12:01:24Z</time>
      </trkpt>
      <trkpt lat="48.5797200" lon="7.7469030">
        <ele>-288.4</ele>
        <time>2022-06-04T12:01:28Z</time>
      </trkpt>
      <trkpt lat="48.5797200" lon="7.7469030">
        <ele>-288.6</ele>
        <time>2022-06-04T12:01:32Z</time>
      </trkpt>
      <trkpt lat="48.5797200" lon="7.7469030">
        <ele>-288.8</ele>
        <time>2022-06-04T12:01:36Z</time>
      </trkpt>
      <trkpt lat="48.5797200" lon="7.7469030">
        <ele>-288.2</ele>
        <time>2022-06-04T12:01:40Z</time>
      </trkpt>
      <trkpt lat="48.5797200" lon="7.7469030">
        <ele>-288.4</ele>
        <time>2022-06-04T12:01:44Z</time>
      </trkpt>
      <trkpt lat="48.5797200" lon="7.7469030">
        <ele>-288.8</ele>
        <time>2022-06-04T12:01:48Z</time>
      </trkpt>
      <trkpt lat="48.5797200" lon="7.7469030">
        <ele>-288.6</ele>
        <time>2022-06-04T12:01:52Z</time>
      </trkpt>
      <trkpt lat="48.5797200" lon="7.7469030">
        <ele>-288.6</ele>
        <time>2022-06-04T12:01:56Z</time>
      </trkpt>
      <trkpt lat="48.5797200" lon="7.7469030">
        <ele>-288.2</ele>
        <time>2022-06-04T12:02:00Z</time>
      </trkpt>
      <trkpt lat="48.5797200" lon="7.7469030">
        <ele>-288.4</ele>
        <time>2022-06-04T12:02:04Z</time>
      </trkpt>
      <trkpt lat="48.5797200" lon="7.7469030">
        <ele>-288.6</ele>
        <time>2022-06-04T12:02:08Z</time>
      </trkpt>
      <trkpt lat="48.5797200" lon="7.7469030">
        <ele>-289.0</ele>
        <time>2022-06-04T12:02:12Z</time>
      </trkpt>
      <trkpt lat="48.5797200" lon="7.7469030">
        <ele>-288.2</ele>
        <time>2022-06-04T12:02:16Z</time>
      </trkpt>
      <trkpt lat="48.5795560" lon="7.7470460">
        <ele>-288.2</ele>
        <time>2022-06-04T12:02:20Z</time>
      </trkpt>
      <trkpt lat="48.5795730" lon="7.7470180">
        <ele>-288.6</ele>
        <time>2022-06-04T12:02:24Z</time>
      </trkpt>
      <trkpt lat="48.5795950" lon="7.7469960">
        <ele>-288.6</ele>
        <time>2022-06-04T12:02:28Z</time>
      </trkpt>
      <trkpt lat="48.5796060" lon="7.7469610">
        <ele>-288.6</ele>
        <time>2022-06-04T12:02:32Z</time>
      </trkpt>
      <trkpt lat="48.5796060" lon="7.7469610">
        <ele>-288.8</ele>
        <time>2022-06-04T12:02:36Z</time>
      </trkpt>
      <trkpt lat="48.5796060" lon="7.7469610">
        <ele>-288.6</ele>
        <time>2022-06-04T12:02:40Z</time>
      </trkpt>
      <trkpt lat="48.5796060" lon="7.7469610">
        <ele>-288.4</ele>
        <time>2022-06-04T12:02:44Z</time>
      </trkpt>
      <trkpt lat="48.5796060" lon="7.7469610">
        <ele>-288.2</ele>
        <time>2022-06-04T12:02:48Z</time>
      </trkpt>
      <trkpt lat="48.5796060" lon="7.7469610">
        <ele>-288.6</ele>
        <time>2022-06-04T12:02:52Z</time>
      </trkpt>
      <trkpt lat="48.5796060" lon="7.7469610">
        <ele>-287.8</ele>
        <time>2022-06-04T12:02:56Z</time>
      </trkpt>
      <trkpt lat="48.5796060" lon="7.7469610">
        <ele>-288.2</ele>
        <time>2022-06-04T12:03:00Z</time>
      </trkpt>
      <trkpt lat="48.5795880" lon="7.7469980">
        <ele>-288.2</ele>
        <time>2022-06-04T12:03:04Z</time>
      </trkpt>
      <trkpt lat="48.5795880" lon="7.7469980">
        <ele>-288.6</ele>
        <time>2022-06-04T12:03:08Z</time>
      </trkpt>
      <trkpt lat="48.5796050" lon="7.7469900">
        <ele>-288.2</ele>
        <time>2022-06-04T12:03:12Z</time>
      </trkpt>
      <trkpt lat="48.5796050" lon="7.7469900">
        <ele>-287.8</ele>
        <time>2022-06-04T12:03:16Z</time>
      </trkpt>
      <trkpt lat="48.5796580" lon="7.7470000">
        <ele>-288.2</ele>
        <time>2022-06-04T12:03:20Z</time>
      </trkpt>
      <trkpt lat="48.5797260" lon="7.7469700">
        <ele>-288.4</ele>
        <time>2022-06-04T12:03:24Z</time>
      </trkpt>
      <trkpt lat="48.5797950" lon="7.7469350">
        <ele>-288.0</ele>
        <time>2022-06-04T12:03:28Z</time>
      </trkpt>
      <trkpt lat="48.5798530" lon="7.7469100">
        <ele>-287.8</ele>
        <time>2022-06-04T12:03:32Z</time>
      </trkpt>
      <trkpt lat="48.5798680" lon="7.7468960">
        <ele>-287.4</ele>
        <time>2022-06-04T12:03:36Z</time>
      </trkpt>
      <trkpt lat="48.5799630" lon="7.7469660">
        <ele>-287.8</ele>
        <time>2022-06-04T12:03:40Z</time>
      </trkpt>
      <trkpt lat="48.5799260" lon="7.7468800">
        <ele>-287.0</ele>
        <time>2022-06-04T12:03:44Z</time>
      </trkpt>
      <trkpt lat="48.5799130" lon="7.7468700">
        <ele>-287.8</ele>
        <time>2022-06-04T12:03:48Z</time>
      </trkpt>
      <trkpt lat="48.5798600" lon="7.7467310">
        <ele>-287.4</ele>
        <time>2022-06-04T12:03:52Z</time>
      </trkpt>
      <trkpt lat="48.5798680" lon="7.7467380">
        <ele>-287.8</ele>
        <time>2022-06-04T12:03:56Z</time>
      </trkpt>
      <trkpt lat="48.5798730" lon="7.7467780">
        <ele>-287.6</ele>
        <time>2022-06-04T12:04:00Z</time>
      </trkpt>
      <trkpt lat="48.5798910" lon="7.7467560">
        <ele>-287.2</ele>
        <time>2022-06-04T12:04:04Z</time>
      </trkpt>
      <trkpt lat="48.5797330" lon="7.7470400">
        <ele>-287.0</ele>
        <time>2022-06-04T12:04:08Z</time>
      </trkpt>
      <trkpt lat="48.5797030" lon="7.7470600">
        <ele>-287.8</ele>
        <time>2022-06-04T12:04:12Z</time>
      </trkpt>
      <trkpt lat="48.5793550" lon="7.7476430">
        <ele>-287.4</ele>
        <time>2022-06-04T12:04:16Z</time>
      </trkpt>
      <trkpt lat="48.5792600" lon="7.7477860">
        <ele>-287.4</ele>
        <time>2022-06-04T12:04:20Z</time>
      </trkpt>
      <trkpt lat="48.5792830" lon="7.7478200">
        <ele>-287.2</ele>
        <time>2022-06-04T12:04:24Z</time>
      </trkpt>
      <trkpt lat="48.5797300" lon="7.7471080">
        <ele>-268.2</ele>
        <time>2022-06-05T05:11:06Z</time>
      </trkpt>
      <trkpt lat="48.5797300" lon="7.7471080">
        <ele>-268.2</ele>
        <time>2022-06-05T05:11:10Z</time>
      </trkpt>
      <trkpt lat="48.5797300" lon="7.7471080">
        <ele>-268.2</ele>
        <time>2022-06-05T05:11:14Z</time>
      </trkpt>
      <trkpt lat="48.5797300" lon="7.7471080">
        <ele>-268.2</ele>
        <time>2022-06-05T05:11:18Z</time>
      </trkpt>
      <trkpt lat="48.5797300" lon="7.7471080">
        <ele>-268.2</ele>
        <time>2022-06-05T05:11:22Z</time>
      </trkpt>
      <trkpt lat="48.5797450" lon="7.7471300">
        <ele>-268.8</ele>
        <time>2022-06-05T05:11:26Z</time>
      </trkpt>
      <trkpt lat="48.5797450" lon="7.7470880">
        <ele>-268.4</ele>
        <time>2022-06-05T05:11:30Z</time>
      </trkpt>
      <trkpt lat="48.5797450" lon="7.7470880">
        <ele>-268.0</ele>
        <time>2022-06-05T05:11:34Z</time>
      </trkpt>
      <trkpt lat="48.5797450" lon="7.7470880">
        <ele>-268.4</ele>
        <time>2022-06-05T05:11:38Z</time>
      </trkpt>
      <trkpt lat="48.5797450" lon="7.7470880">
        <ele>-268.2</ele>
        <time>2022-06-05T05:11:42Z</time>
      </trkpt>
      <trkpt lat="48.5797450" lon="7.7470880">
        <ele>-268.8</ele>
        <time>2022-06-05T05:11:46Z</time>
      </trkpt>
      <trkpt lat="48.5797450" lon="7.7470880">
        <ele>-268.2</ele>
        <time>2022-06-05T05:11:50Z</time>
      </trkpt>
      <trkpt lat="48.5796800" lon="7.7469510">
        <ele>-268.6</ele>
        <time>2022-06-05T05:11:54Z</time>
      </trkpt>
      <trkpt lat="48.5796800" lon="7.7469510">
        <ele>-268.2</ele>
        <time>2022-06-05T05:11:58Z</time>
      </trkpt>
      <trkpt lat="48.5797050" lon="7.7470050">
        <ele>-268.2</ele>
        <time>2022-06-05T05:12:02Z</time>
      </trkpt>
      <trkpt lat="48.5796530" lon="7.7469210">
        <ele>-268.2</ele>
        <time>2022-06-05T05:12:06Z</time>
      </trkpt>
      <trkpt lat="48.5796980" lon="7.7469400">
        <ele>-268.2</ele>
        <time>2022-06-05T05:12:10Z</time>
      </trkpt>
      <trkpt lat="48.5796980" lon="7.7469400">
        <ele>-267.8</ele>
        <time>2022-06-05T05:12:14Z</time>
      </trkpt>
      <trkpt lat="48.5796980" lon="7.7469400">
        <ele>-267.8</ele>
        <time>2022-06-05T05:12:18Z</time>
      </trkpt>
      <trkpt lat="48.5796980" lon="7.7469400">
        <ele>-267.8</ele>
        <time>2022-06-05T05:12:22Z</time>
      </trkpt>
      <trkpt lat="48.5796980" lon="7.7469400">
        <ele>-267.8</ele>
        <time>2022-06-05T05:12:26Z</time>
      </trkpt>
      <trkpt lat="48.5796980" lon="7.7469400">
        <ele>-267.8</ele>
        <time>2022-06-05T05:12:30Z</time>
      </trkpt>
      <trkpt lat="48.5796980" lon="7.7469400">
        <ele>-267.8</ele>
        <time>2022-06-05T05:12:34Z</time>
      </trkpt>
      <trkpt lat="48.5796980" lon="7.7469400">
        <ele>-267.6</ele>
        <time>2022-06-05T05:12:38Z</time>
      </trkpt>
      <trkpt lat="48.5796980" lon="7.7469400">
        <ele>-267.8</ele>
        <time>2022-06-05T05:12:42Z</time>
      </trkpt>
      <trkpt lat="48.5796980" lon="7.7469400">
        <ele>-267.8</ele>
        <time>2022-06-05T05:12:46Z</time>
      </trkpt>
      <trkpt lat="48.5796980" lon="7.7469400">
        <ele>-267.6</ele>
        <time>2022-06-05T05:12:50Z</time>
      </trkpt>
      <trkpt lat="48.5796980" lon="7.7469400">
        <ele>-267.8</ele>
        <time>2022-06-05T05:12:54Z</time>
      </trkpt>
      <trkpt lat="48.5796980" lon="7.7469400">
        <ele>-267.8</ele>
        <time>2022-06-05T05:12:58Z</time>
      </trkpt>
      <trkpt lat="48.5796980" lon="7.7469400">
        <ele>-267.6</ele>
        <time>2022-06-05T05:13:02Z</time>
      </trkpt>
      <trkpt lat="48.5796980" lon="7.7469400">
        <ele>-267.8</ele>
        <time>2022-06-05T05:13:06Z</time>
      </trkpt>
      <trkpt lat="48.5796980" lon="7.7469400">
        <ele>-267.4</ele>
        <time>2022-06-05T05:13:10Z</time>
      </trkpt>
      <trkpt lat="48.5796930" lon="7.7468310">
        <ele>-267.4</ele>
        <time>2022-06-05T05:13:14Z</time>
      </trkpt>
      <trkpt lat="48.5797400" lon="7.7467700">
        <ele>-267.2</ele>
        <time>2022-06-05T05:13:18Z</time>
      </trkpt>
      <trkpt lat="48.5798660" lon="7.7466810">
        <ele>-267.2</ele>
        <time>2022-06-05T05:13:22Z</time>
      </trkpt>
      <trkpt lat="48.5799410" lon="7.7466360">
        <ele>-266.4</ele>
        <time>2022-06-05T05:13:26Z</time>
      </trkpt>
      <trkpt lat="48.5800100" lon="7.7466100">
        <ele>-266.4</ele>
        <time>2022-06-05T05:13:30Z</time>
      </trkpt>
      <trkpt lat="48.5801050" lon="7.7465710">
        <ele>-266.8</ele>
        <time>2022-06-05T05:13:34Z</time>
      </trkpt>
      <trkpt lat="48.5802830" lon="7.7467330">
        <ele>-266.2</ele>
        <time>2022-06-05T05:13:38Z</time>
      </trkpt>
      <trkpt lat="48.5803900" lon="7.7468430">
        <ele>-266.0</ele>
        <time>2022-06-05T05:13:42Z</time>
      </trkpt>
      <trkpt lat="48.5804530" lon="7.7468960">
        <ele>-266.0</ele>
        <time>2022-06-05T05:13:46Z</time>
      </trkpt>
      <trkpt lat="48.5804450" lon="7.7469610">
        <ele>-266.0</ele>
        <time>2022-06-05T05:13:50Z</time>
      </trkpt>
      <trkpt lat="48.5803600" lon="7.7470110">
        <ele>-266.0</ele>
        <time>2022-06-05T05:13:54Z</time>
      </trkpt>
      <trkpt lat="48.5802300" lon="7.7470460">
        <ele>-266.6</ele>
        <time>2022-06-05T05:13:58Z</time>
      </trkpt>
      <trkpt lat="48.5800960" lon="7.7471180">
        <ele>-266.6</ele>
        <time>2022-06-05T05:14:02Z</time>
      </trkpt>
      <trkpt lat="48.5800100" lon="7.7472830">
        <ele>-267.0</ele>
        <time>2022-06-05T05:14:06Z</time>
      </trkpt>
      <trkpt lat="48.5798750" lon="7.7473730">
        <ele>-267.2</ele>
        <time>2022-06-05T05:14:10Z</time>
      </trkpt>
      <trkpt lat="48.5797130" lon="7.7474660">
        <ele>-267.4</ele>
        <time>2022-06-05T05:14:14Z</time>
      </trkpt>
      <trkpt lat="48.5796060" lon="7.7476600">
        <ele>-267.4</ele>
        <time>2022-06-05T05:14:18Z</time>
      </trkpt>
      <trkpt lat="48.5794550" lon="7.7477580">
        <ele>-267.8</ele>
        <time>2022-06-05T05:14:22Z</time>
      </trkpt>
      <trkpt lat="48.5793100" lon="7.7478910">
        <ele>-268.4</ele>
        <time>2022-06-05T05:14:26Z</time>
      </trkpt>
      <trkpt lat="48.5791600" lon="7.7480230">
        <ele>-268.0</ele>
        <time>2022-06-05T05:14:30Z</time>
      </trkpt>
      <trkpt lat="48.5790280" lon="7.7481450">
        <ele>-268.0</ele>
        <time>2022-06-05T05:14:34Z</time>
      </trkpt>
      <trkpt lat="48.5789130" lon="7.7483030">
        <ele>-267.8</ele>
        <time>2022-06-05T05:14:38Z</time>
      </trkpt>
      <trkpt lat="48.5787930" lon="7.7484210">
        <ele>-267.0</ele>
        <time>2022-06-05T05:14:42Z</time>
      </trkpt>
      <trkpt lat="48.5786760" lon="7.7485180">
        <ele>-267.2</ele>
        <time>2022-06-05T05:14:46Z</time>
      </trkpt>
      <trkpt lat="48.5785700" lon="7.7486400">
        <ele>-267.6</ele>
        <time>2022-06-05T05:14:50Z</time>
      </trkpt>
      <trkpt lat="48.5784510" lon="7.7487500">
        <ele>-267.2</ele>
        <time>2022-06-05T05:14:54Z</time>
      </trkpt>
      <trkpt lat="48.5783350" lon="7.7488480">
        <ele>-267.8</ele>
        <time>2022-06-05T05:14:58Z</time>
      </trkpt>
      <trkpt lat="48.5782850" lon="7.7489850">
        <ele>-268.0</ele>
        <time>2022-06-05T05:15:02Z</time>
      </trkpt>
      <trkpt lat="48.5782610" lon="7.7491230">
        <ele>-267.6</ele>
        <time>2022-06-05T05:15:06Z</time>
      </trkpt>
      <trkpt lat="48.5782530" lon="7.7492830">
        <ele>-267.8</ele>
        <time>2022-06-05T05:15:10Z</time>
      </trkpt>
      <trkpt lat="48.5781850" lon="7.7493710">
        <ele>-268.0</ele>
        <time>2022-06-05T05:15:14Z</time>
      </trkpt>
      <trkpt lat="48.5780450" lon="7.7493850">
        <ele>-267.4</ele>
        <time>2022-06-05T05:15:18Z</time>
      </trkpt>
      <trkpt lat="48.5779100" lon="7.7493950">
        <ele>-267.4</ele>
        <time>2022-06-05T05:15:22Z</time>
      </trkpt>
      <trkpt lat="48.5777880" lon="7.7494100">
        <ele>-267.2</ele>
        <time>2022-06-05T05:15:26Z</time>
      </trkpt>
      <trkpt lat="48.5776700" lon="7.7493880">
        <ele>-267.0</ele>
        <time>2022-06-05T05:15:30Z</time>
      </trkpt>
      <trkpt lat="48.5775480" lon="7.7493650">
        <ele>-267.0</ele>
        <time>2022-06-05T05:15:34Z</time>
      </trkpt>
      <trkpt lat="48.5774210" lon="7.7493730">
        <ele>-266.8</ele>
        <time>2022-06-05T05:15:38Z</time>
      </trkpt>
      <trkpt lat="48.5773030" lon="7.7494310">
        <ele>-266.6</ele>
        <time>2022-06-05T05:15:42Z</time>
      </trkpt>
      <trkpt lat="48.5772660" lon="7.7495380">
        <ele>-266.4</ele>
        <time>2022-06-05T05:15:46Z</time>
      </trkpt>
      <trkpt lat="48.5773150" lon="7.7496510">
        <ele>-266.0</ele>
        <time>2022-06-05T05:15:50Z</time>
      </trkpt>
      <trkpt lat="48.5774110" lon="7.7498110">
        <ele>-266.2</ele>
        <time>2022-06-05T05:15:54Z</time>
      </trkpt>
      <trkpt lat="48.5774860" lon="7.7500200">
        <ele>-266.4</ele>
        <time>2022-06-05T05:15:58Z</time>
      </trkpt>
      <trkpt lat="48.5775680" lon="7.7502130">
        <ele>-266.2</ele>
        <time>2022-06-05T05:16:02Z</time>
      </trkpt>
      <trkpt lat="48.5776930" lon="7.7503360">
        <ele>-266.2</ele>
        <time>2022-06-05T05:16:06Z</time>
      </trkpt>
      <trkpt lat="48.5777860" lon="7.7503950">
        <ele>-266.6</ele>
        <time>2022-06-05T05:16:10Z</time>
      </trkpt>
      <trkpt lat="48.5778260" lon="7.7505010">
        <ele>-266.4</ele>
        <time>2022-06-05T05:16:14Z</time>
      </trkpt>
      <trkpt lat="48.5778280" lon="7.7505330">
        <ele>-266.2</ele>
        <time>2022-06-05T05:16:18Z</time>
      </trkpt>
      <trkpt lat="48.5778510" lon="7.7505800">
        <ele>-266.0</ele>
        <time>2022-06-05T05:16:22Z</time>
      </trkpt>
      <trkpt lat="48.5779180" lon="7.7507110">
        <ele>-265.6</ele>
        <time>2022-06-05T05:16:26Z</time>
      </trkpt>
      <trkpt lat="48.5780200" lon="7.7507500">
        <ele>-265.4</ele>
        <time>2022-06-05T05:16:30Z</time>
      </trkpt>
      <trkpt lat="48.5780660" lon="7.7508650">
        <ele>-266.2</ele>
        <time>2022-06-05T05:16:34Z</time>
      </trkpt>
      <trkpt lat="48.5781230" lon="7.7509250">
        <ele>-266.0</ele>
        <time>2022-06-05T05:16:38Z</time>
      </trkpt>
      <trkpt lat="48.5782050" lon="7.7509550">
        <ele>-266.6</ele>
        <time>2022-06-05T05:16:42Z</time>
      </trkpt>
      <trkpt lat="48.5783530" lon="7.7509810">
        <ele>-266.6</ele>
        <time>2022-06-05T05:16:46Z</time>
      </trkpt>
      <trkpt lat="48.5784850" lon="7.7510460">
        <ele>-266.2</ele>
        <time>2022-06-05T05:16:50Z</time>
      </trkpt>
      <trkpt lat="48.5785960" lon="7.7511650">
        <ele>-266.0</ele>
        <time>2022-06-05T05:16:54Z</time>
      </trkpt>
      <trkpt lat="48.5786900" lon="7.7512130">
        <ele>-265.6</ele>
        <time>2022-06-05T05:16:58Z</time>
      </trkpt>
      <trkpt lat="48.5788610" lon="7.7512330">
        <ele>-265.8</ele>
        <time>2022-06-05T05:17:02Z</time>
      </trkpt>
      <trkpt lat="48.5789700" lon="7.7512530">
        <ele>-265.6</ele>
        <time>2022-06-05T05:17:06Z</time>
      </trkpt>
      <trkpt lat="48.5790750" lon="7.7512030">
        <ele>-265.0</ele>
        <time>2022-06-05T05:17:10Z</time>
      </trkpt>
      <trkpt lat="48.5791450" lon="7.7511380">
        <ele>-265.0</ele>
        <time>2022-06-05T05:17:14Z</time>
      </trkpt>
      <trkpt lat="48.5793360" lon="7.7512110">
        <ele>-265.2</ele>
        <time>2022-06-05T05:17:18Z</time>
      </trkpt>
      <trkpt lat="48.5794730" lon="7.7513600">
        <ele>-265.4</ele>
        <time>2022-06-05T05:17:22Z</time>
      </trkpt>
      <trkpt lat="48.5796310" lon="7.7515260">
        <ele>-265.4</ele>
        <time>2022-06-05T05:17:26Z</time>
      </trkpt>
      <trkpt lat="48.5797730" lon="7.7517100">
        <ele>-265.2</ele>
        <time>2022-06-05T05:17:30Z</time>
      </trkpt>
      <trkpt lat="48.5798910" lon="7.7518900">
        <ele>-265.4</ele>
        <time>2022-06-05T05:17:34Z</time>
      </trkpt>
      <trkpt lat="48.5800060" lon="7.7520800">
        <ele>-265.0</ele>
        <time>2022-06-05T05:17:38Z</time>
      </trkpt>
      <trkpt lat="48.5801230" lon="7.7522680">
        <ele>-265.8</ele>
        <time>2022-06-05T05:17:42Z</time>
      </trkpt>
      <trkpt lat="48.5802580" lon="7.7524560">
        <ele>-265.8</ele>
        <time>2022-06-05T05:17:46Z</time>
      </trkpt>
      <trkpt lat="48.5803980" lon="7.7526330">
        <ele>-265.2</ele>
        <time>2022-06-05T05:17:50Z</time>
      </trkpt>
      <trkpt lat="48.5805460" lon="7.7527930">
        <ele>-265.2</ele>
        <time>2022-06-05T05:17:54Z</time>
      </trkpt>
      <trkpt lat="48.5806100" lon="7.7529780">
        <ele>-265.0</ele>
        <time>2022-06-05T05:17:58Z</time>
      </trkpt>
      <trkpt lat="48.5806800" lon="7.7531580">
        <ele>-264.4</ele>
        <time>2022-06-05T05:18:02Z</time>
      </trkpt>
      <trkpt lat="48.5807360" lon="7.7533580">
        <ele>-264.8</ele>
        <time>2022-06-05T05:18:06Z</time>
      </trkpt>
      <trkpt lat="48.5808330" lon="7.7535260">
        <ele>-265.0</ele>
        <time>2022-06-05T05:18:10Z</time>
      </trkpt>
      <trkpt lat="48.5809760" lon="7.7537330">
        <ele>-265.0</ele>
        <time>2022-06-05T05:18:14Z</time>
      </trkpt>
      <trkpt lat="48.5811060" lon="7.7539400">
        <ele>-265.0</ele>
        <time>2022-06-05T05:18:18Z</time>
      </trkpt>
      <trkpt lat="48.5812200" lon="7.7541430">
        <ele>-264.4</ele>
        <time>2022-06-05T05:18:22Z</time>
      </trkpt>
      <trkpt lat="48.5813200" lon="7.7543510">
        <ele>-265.0</ele>
        <time>2022-06-05T05:18:26Z</time>
      </trkpt>
      <trkpt lat="48.5814130" lon="7.7545400">
        <ele>-264.8</ele>
        <time>2022-06-05T05:18:30Z</time>
      </trkpt>
      <trkpt lat="48.5815430" lon="7.7547380">
        <ele>-264.6</ele>
        <time>2022-06-05T05:18:34Z</time>
      </trkpt>
      <trkpt lat="48.5817180" lon="7.7549500">
        <ele>-264.0</ele>
        <time>2022-06-05T05:18:38Z</time>
      </trkpt>
      <trkpt lat="48.5818710" lon="7.7551460">
        <ele>-264.2</ele>
        <time>2022-06-05T05:18:42Z</time>
      </trkpt>
      <trkpt lat="48.5820000" lon="7.7553510">
        <ele>-264.0</ele>
        <time>2022-06-05T05:18:46Z</time>
      </trkpt>
      <trkpt lat="48.5821260" lon="7.7555600">
        <ele>-263.4</ele>
        <time>2022-06-05T05:18:50Z</time>
      </trkpt>
      <trkpt lat="48.5822360" lon="7.7557530">
        <ele>-263.2</ele>
        <time>2022-06-05T05:18:54Z</time>
      </trkpt>
      <trkpt lat="48.5822760" lon="7.7559210">
        <ele>-262.6</ele>
        <time>2022-06-05T05:18:58Z</time>
      </trkpt>
      <trkpt lat="48.5822880" lon="7.7560980">
        <ele>-263.0</ele>
        <time>2022-06-05T05:19:02Z</time>
      </trkpt>
      <trkpt lat="48.5823880" lon="7.7562600">
        <ele>-262.6</ele>
        <time>2022-06-05T05:19:06Z</time>
      </trkpt>
      <trkpt lat="48.5825180" lon="7.7564230">
        <ele>-262.0</ele>
        <time>2022-06-05T05:19:10Z</time>
      </trkpt>
      <trkpt lat="48.5826400" lon="7.7566030">
        <ele>-262.0</ele>
        <time>2022-06-05T05:19:14Z</time>
      </trkpt>
      <trkpt lat="48.5826710" lon="7.7568380">
        <ele>-262.6</ele>
        <time>2022-06-05T05:19:18Z</time>
      </trkpt>
      <trkpt lat="48.5826900" lon="7.7570660">
        <ele>-263.0</ele>
        <time>2022-06-05T05:19:22Z</time>
      </trkpt>
      <trkpt lat="48.5827810" lon="7.7572510">
        <ele>-263.2</ele>
        <time>2022-06-05T05:19:26Z</time>
      </trkpt>
      <trkpt lat="48.5829100" lon="7.7574010">
        <ele>-263.8</ele>
        <time>2022-06-05T05:19:30Z</time>
      </trkpt>
      <trkpt lat="48.5830580" lon="7.7575380">
        <ele>-262.8</ele>
        <time>2022-06-05T05:19:34Z</time>
      </trkpt>
      <trkpt lat="48.5832060" lon="7.7576730">
        <ele>-262.8</ele>
        <time>2022-06-05T05:19:38Z</time>
      </trkpt>
      <trkpt lat="48.5833300" lon="7.7578210">
        <ele>-262.8</ele>
        <time>2022-06-05T05:19:42Z</time>
      </trkpt>
      <trkpt lat="48.5834660" lon="7.7579700">
        <ele>-263.2</ele>
        <time>2022-06-05T05:19:46Z</time>
      </trkpt>
      <trkpt lat="48.5836000" lon="7.7581100">
        <ele>-262.2</ele>
        <time>2022-06-05T05:19:50Z</time>
      </trkpt>
      <trkpt lat="48.5837300" lon="7.7582360">
        <ele>-263.0</ele>
        <time>2022-06-05T05:19:54Z</time>
      </trkpt>
      <trkpt lat="48.5838560" lon="7.7583700">
        <ele>-262.2</ele>
        <time>2022-06-05T05:19:58Z</time>
      </trkpt>
      <trkpt lat="48.5839830" lon="7.7584780">
        <ele>-261.6</ele>
        <time>2022-06-05T05:20:02Z</time>
      </trkpt>
      <trkpt lat="48.5840830" lon="7.7585980">
        <ele>-261.4</ele>
        <time>2022-06-05T05:20:06Z</time>
      </trkpt>
      <trkpt lat="48.5841910" lon="7.7587110">
        <ele>-260.6</ele>
        <time>2022-06-05T05:20:10Z</time>
      </trkpt>
      <trkpt lat="48.5841810" lon="7.7588810">
        <ele>-260.8</ele>
        <time>2022-06-05T05:20:14Z</time>
      </trkpt>
      <trkpt lat="48.5841330" lon="7.7590130">
        <ele>-260.6</ele>
        <time>2022-06-05T05:20:18Z</time>
      </trkpt>
      <trkpt lat="48.5841780" lon="7.7590380">
        <ele>-260.0</ele>
        <time>2022-06-05T05:20:22Z</time>
      </trkpt>
      <trkpt lat="48.5842200" lon="7.7590130">
        <ele>-259.8</ele>
        <time>2022-06-05T05:20:26Z</time>
      </trkpt>
      <trkpt lat="48.5842950" lon="7.7589950">
        <ele>-259.4</ele>
        <time>2022-06-05T05:20:30Z</time>
      </trkpt>
      <trkpt lat="48.5843560" lon="7.7589730">
        <ele>-259.2</ele>
        <time>2022-06-05T05:20:34Z</time>
      </trkpt>
      <trkpt lat="48.5843580" lon="7.7588610">
        <ele>-259.2</ele>
        <time>2022-06-05T05:20:38Z</time>
      </trkpt>
      <trkpt lat="48.5844060" lon="7.7588630">
        <ele>-258.6</ele>
        <time>2022-06-05T05:20:42Z</time>
      </trkpt>
      <trkpt lat="48.5844680" lon="7.7589210">
        <ele>-258.4</ele>
        <time>2022-06-05T05:20:46Z</time>
      </trkpt>
      <trkpt lat="48.5845400" lon="7.7590160">
        <ele>-258.2</ele>
        <time>2022-06-05T05:20:50Z</time>
      </trkpt>
      <trkpt lat="48.5846360" lon="7.7590950">
        <ele>-258.2</ele>
        <time>2022-06-05T05:20:54Z</time>
      </trkpt>
      <trkpt lat="48.5847280" lon="7.7592080">
        <ele>-258.4</ele>
        <time>2022-06-05T05:20:58Z</time>
      </trkpt>
      <trkpt lat="48.5848280" lon="7.7592900">
        <ele>-257.4</ele>
        <time>2022-06-05T05:21:02Z</time>
      </trkpt>
      <trkpt lat="48.5849160" lon="7.7593760">
        <ele>-257.6</ele>
        <time>2022-06-05T05:21:06Z</time>
      </trkpt>
      <trkpt lat="48.5850200" lon="7.7594780">
        <ele>-257.4</ele>
        <time>2022-06-05T05:21:10Z</time>
      </trkpt>
      <trkpt lat="48.5851300" lon="7.7595980">
        <ele>-257.2</ele>
        <time>2022-06-05T05:21:14Z</time>
      </trkpt>
      <trkpt lat="48.5852180" lon="7.7597280">
        <ele>-257.2</ele>
        <time>2022-06-05T05:21:18Z</time>
      </trkpt>
      <trkpt lat="48.5853130" lon="7.7598480">
        <ele>-256.8</ele>
        <time>2022-06-05T05:21:22Z</time>
      </trkpt>
      <trkpt lat="48.5854060" lon="7.7598700">
        <ele>-256.6</ele>
        <time>2022-06-05T05:21:26Z</time>
      </trkpt>
      <trkpt lat="48.5854700" lon="7.7597910">
        <ele>-256.4</ele>
        <time>2022-06-05T05:21:30Z</time>
      </trkpt>
      <trkpt lat="48.5855260" lon="7.7596930">
        <ele>-256.0</ele>
        <time>2022-06-05T05:21:34Z</time>
      </trkpt>
      <trkpt lat="48.5855680" lon="7.7596300">
        <ele>-256.0</ele>
        <time>2022-06-05T05:21:38Z</time>
      </trkpt>
      <trkpt lat="48.5855860" lon="7.7595760">
        <ele>-255.4</ele>
        <time>2022-06-05T05:21:42Z</time>
      </trkpt>
      <trkpt lat="48.5855860" lon="7.7595760">
        <ele>-255.0</ele>
        <time>2022-06-05T05:21:46Z</time>
      </trkpt>
      <trkpt lat="48.5855860" lon="7.7595760">
        <ele>-254.8</ele>
        <time>2022-06-05T05:21:50Z</time>
      </trkpt>
      <trkpt lat="48.5855480" lon="7.7595850">
        <ele>-254.8</ele>
        <time>2022-06-05T05:21:54Z</time>
      </trkpt>
      <trkpt lat="48.5855480" lon="7.7595850">
        <ele>-254.8</ele>
        <time>2022-06-05T05:21:58Z</time>
      </trkpt>
      <trkpt lat="48.5855380" lon="7.7595710">
        <ele>-254.8</ele>
        <time>2022-06-05T05:22:02Z</time>
      </trkpt>
      <trkpt lat="48.5855380" lon="7.7595710">
        <ele>-255.0</ele>
        <time>2022-06-05T05:22:06Z</time>
      </trkpt>
      <trkpt lat="48.5855380" lon="7.7595710">
        <ele>-255.0</ele>
        <time>2022-06-05T05:22:10Z</time>
      </trkpt>
      <trkpt lat="48.5855380" lon="7.7595710">
        <ele>-254.8</ele>
        <time>2022-06-05T05:22:14Z</time>
      </trkpt>
      <trkpt lat="48.5855380" lon="7.7595710">
        <ele>-254.8</ele>
        <time>2022-06-05T05:22:18Z</time>
      </trkpt>
      <trkpt lat="48.5855380" lon="7.7595710">
        <ele>-254.6</ele>
        <time>2022-06-05T05:22:22Z</time>
      </trkpt>
      <trkpt lat="48.5855380" lon="7.7595710">
        <ele>-254.2</ele>
        <time>2022-06-05T05:22:26Z</time>
      </trkpt>
      <trkpt lat="48.5855300" lon="7.7595680">
        <ele>-254.2</ele>
        <time>2022-06-05T05:22:30Z</time>
      </trkpt>
      <trkpt lat="48.5855180" lon="7.7596110">
        <ele>-254.2</ele>
        <time>2022-06-05T05:22:34Z</time>
      </trkpt>
      <trkpt lat="48.5854880" lon="7.7597160">
        <ele>-254.6</ele>
        <time>2022-06-05T05:22:38Z</time>
      </trkpt>
      <trkpt lat="48.5854430" lon="7.7598700">
        <ele>-254.8</ele>
        <time>2022-06-05T05:22:42Z</time>
      </trkpt>
      <trkpt lat="48.5853350" lon="7.7598880">
        <ele>-254.8</ele>
        <time>2022-06-05T05:22:46Z</time>
      </trkpt>
      <trkpt lat="48.5852360" lon="7.7598100">
        <ele>-254.8</ele>
        <time>2022-06-05T05:22:50Z</time>
      </trkpt>
      <trkpt lat="48.5851430" lon="7.7597050">
        <ele>-254.8</ele>
        <time>2022-06-05T05:22:54Z</time>
      </trkpt>
      <trkpt lat="48.5850360" lon="7.7595760">
        <ele>-254.8</ele>
        <time>2022-06-05T05:22:58Z</time>
      </trkpt>
      <trkpt lat="48.5849500" lon="7.7594860">
        <ele>-255.0</ele>
        <time>2022-06-05T05:23:02Z</time>
      </trkpt>
      <trkpt lat="48.5848810" lon="7.7594110">
        <ele>-255.4</ele>
        <time>2022-06-05T05:23:06Z</time>
      </trkpt>
      <trkpt lat="48.5847960" lon="7.7593480">
        <ele>-255.2</ele>
        <time>2022-06-05T05:23:10Z</time>
      </trkpt>
      <trkpt lat="48.5847050" lon="7.7592760">
        <ele>-255.0</ele>
        <time>2022-06-05T05:23:14Z</time>
      </trkpt>
      <trkpt lat="48.5846150" lon="7.7592300">
        <ele>-255.0</ele>
        <time>2022-06-05T05:23:18Z</time>
      </trkpt>
      <trkpt lat="48.5845430" lon="7.7592650">
        <ele>-255.4</ele>
        <time>2022-06-05T05:23:22Z</time>
      </trkpt>
      <trkpt lat="48.5844630" lon="7.7593100">
        <ele>-255.4</ele>
        <time>2022-06-05T05:23:26Z</time>
      </trkpt>
      <trkpt lat="48.5844410" lon="7.7592880">
        <ele>-255.4</ele>
        <time>2022-06-05T05:23:30Z</time>
      </trkpt>
      <trkpt lat="48.5844410" lon="7.7592880">
        <ele>-255.4</ele>
        <time>2022-06-05T05:23:34Z</time>
      </trkpt>
      <trkpt lat="48.5844410" lon="7.7592880">
        <ele>-255.4</ele>
        <time>2022-06-05T05:23:38Z</time>
      </trkpt>
      <trkpt lat="48.5844410" lon="7.7592880">
        <ele>-255.8</ele>
        <time>2022-06-05T05:23:42Z</time>
      </trkpt>
      <trkpt lat="48.5844410" lon="7.7592880">
        <ele>-255.4</ele>
        <time>2022-06-05T05:23:46Z</time>
      </trkpt>
      <trkpt lat="48.5844410" lon="7.7592880">
        <ele>-255.8</ele>
        <time>2022-06-05T05:23:50Z</time>
      </trkpt>
      <trkpt lat="48.5844410" lon="7.7592880">
        <ele>-256.0</ele>
        <time>2022-06-05T05:23:54Z</time>
      </trkpt>
      <trkpt lat="48.5844410" lon="7.7592880">
        <ele>-256.0</ele>
        <time>2022-06-05T05:23:58Z</time>
      </trkpt>
      <trkpt lat="48.5846180" lon="7.7589130">
        <ele>-256.2</ele>
        <time>2022-06-05T05:24:02Z</time>
      </trkpt>
      <trkpt lat="48.5846860" lon="7.7588130">
        <ele>-256.4</ele>
        <time>2022-06-05T05:24:06Z</time>
      </trkpt>
      <trkpt lat="48.5847680" lon="7.7588150">
        <ele>-256.4</ele>
        <time>2022-06-05T05:24:10Z</time>
      </trkpt>
      <trkpt lat="48.5848030" lon="7.7588580">
        <ele>-256.4</ele>
        <time>2022-06-05T05:24:14Z</time>
      </trkpt>
      <trkpt lat="48.5848280" lon="7.7588600">
        <ele>-256.2</ele>
        <time>2022-06-05T05:24:18Z</time>
      </trkpt>
      <trkpt lat="48.5848880" lon="7.7588760">
        <ele>-256.6</ele>
        <time>2022-06-05T05:24:22Z</time>
      </trkpt>
      <trkpt lat="48.5849480" lon="7.7588660">
        <ele>-256.6</ele>
        <time>2022-06-05T05:24:26Z</time>
      </trkpt>
      <trkpt lat="48.5850000" lon="7.7588460">
        <ele>-256.8</ele>
        <time>2022-06-05T05:24:30Z</time>
      </trkpt>
      <trkpt lat="48.5849180" lon="7.7587950">
        <ele>-256.8</ele>
        <time>2022-06-05T05:24:34Z</time>
      </trkpt>
      <trkpt lat="48.5849180" lon="7.7587950">
        <ele>-256.6</ele>
        <time>2022-06-05T05:24:38Z</time>
      </trkpt>
      <trkpt lat="48.5849180" lon="7.7587950">
        <ele>-256.8</ele>
        <time>2022-06-05T05:24:42Z</time>
      </trkpt>
      <trkpt lat="48.5849180" lon="7.7587950">
        <ele>-257.0</ele>
        <time>2022-06-05T05:24:46Z</time>
      </trkpt>
      <trkpt lat="48.5849180" lon="7.7587950">
        <ele>-257.0</ele>
        <time>2022-06-05T05:24:50Z</time>
      </trkpt>
      <trkpt lat="48.5849180" lon="7.7587950">
        <ele>-257.0</ele>
        <time>2022-06-05T05:24:54Z</time>
      </trkpt>
      <trkpt lat="48.5849180" lon="7.7587950">
        <ele>-257.2</ele>
        <time>2022-06-05T05:24:58Z</time>
      </trkpt>
      <trkpt lat="48.5849180" lon="7.7587950">
        <ele>-257.0</ele>
        <time>2022-06-05T05:25:02Z</time>
      </trkpt>
      <trkpt lat="48.5849180" lon="7.7587950">
        <ele>-257.6</ele>
        <time>2022-06-05T05:25:06Z</time>
      </trkpt>
      <trkpt lat="48.5849180" lon="7.7587950">
        <ele>-257.6</ele>
        <time>2022-06-05T05:25:10Z</time>
      </trkpt>
      <trkpt lat="48.5849180" lon="7.7587950">
        <ele>-257.8</ele>
        <time>2022-06-05T05:25:14Z</time>
      </trkpt>
      <trkpt lat="48.5849180" lon="7.7587950">
        <ele>-258.0</ele>
        <time>2022-06-05T05:25:18Z</time>
      </trkpt>
      <trkpt lat="48.5849180" lon="7.7587950">
        <ele>-257.8</ele>
        <time>2022-06-05T05:25:22Z</time>
      </trkpt>
      <trkpt lat="48.5849180" lon="7.7587950">
        <ele>-258.0</ele>
        <time>2022-06-05T05:25:26Z</time>
      </trkpt>
      <trkpt lat="48.5849180" lon="7.7587950">
        <ele>-258.0</ele>
        <time>2022-06-05T05:25:30Z</time>
      </trkpt>
      <trkpt lat="48.5849180" lon="7.7587950">
        <ele>-258.2</ele>
        <time>2022-06-05T05:25:34Z</time>
      </trkpt>
      <trkpt lat="48.5849180" lon="7.7587950">
        <ele>-258.4</ele>
        <time>2022-06-05T05:25:38Z</time>
      </trkpt>
      <trkpt lat="48.5849180" lon="7.7587950">
        <ele>-258.4</ele>
        <time>2022-06-05T05:25:42Z</time>
      </trkpt>
      <trkpt lat="48.5849180" lon="7.7587950">
        <ele>-258.4</ele>
        <time>2022-06-05T05:25:46Z</time>
      </trkpt>
      <trkpt lat="48.5849180" lon="7.7587950">
        <ele>-258.4</ele>
        <time>2022-06-05T05:25:50Z</time>
      </trkpt>
      <trkpt lat="48.5849180" lon="7.7587950">
        <ele>-258.4</ele>
        <time>2022-06-05T05:25:54Z</time>
      </trkpt>
      <trkpt lat="48.5849180" lon="7.7587950">
        <ele>-259.4</ele>
        <time>2022-06-05T05:25:58Z</time>
      </trkpt>
      <trkpt lat="48.5849180" lon="7.7587950">
        <ele>-259.4</ele>
        <time>2022-06-05T05:26:02Z</time>
      </trkpt>
      <trkpt lat="48.5849180" lon="7.7587950">
        <ele>-259.4</ele>
        <time>2022-06-05T05:26:06Z</time>
      </trkpt>
      <trkpt lat="48.5849180" lon="7.7587950">
        <ele>-259.4</ele>
        <time>2022-06-05T05:26:10Z</time>
      </trkpt>
      <trkpt lat="48.5849180" lon="7.7587950">
        <ele>-259.4</ele>
        <time>2022-06-05T05:26:14Z</time>
      </trkpt>
      <trkpt lat="48.5849180" lon="7.7587950">
        <ele>-259.8</ele>
        <time>2022-06-05T05:26:18Z</time>
      </trkpt>
      <trkpt lat="48.5849180" lon="7.7587950">
        <ele>-259.6</ele>
        <time>2022-06-05T05:26:22Z</time>
      </trkpt>
      <trkpt lat="48.5849180" lon="7.7587950">
        <ele>-260.0</ele>
        <time>2022-06-05T05:26:26Z</time>
      </trkpt>
      <trkpt lat="48.5849180" lon="7.7587950">
        <ele>-260.0</ele>
        <time>2022-06-05T05:26:30Z</time>
      </trkpt>
      <trkpt lat="48.5849180" lon="7.7587950">
        <ele>-260.0</ele>
        <time>2022-06-05T05:26:34Z</time>
      </trkpt>
      <trkpt lat="48.5849180" lon="7.7587950">
        <ele>-260.0</ele>
        <time>2022-06-05T05:26:38Z</time>
      </trkpt>
      <trkpt lat="48.5849180" lon="7.7587950">
        <ele>-260.0</ele>
        <time>2022-06-05T05:26:42Z</time>
      </trkpt>
      <trkpt lat="48.5849180" lon="7.7587950">
        <ele>-260.4</ele>
        <time>2022-06-05T05:26:46Z</time>
      </trkpt>
      <trkpt lat="48.5849180" lon="7.7587950">
        <ele>-260.4</ele>
        <time>2022-06-05T05:26:50Z</time>
      </trkpt>
      <trkpt lat="48.5849180" lon="7.7587950">
        <ele>-260.4</ele>
        <time>2022-06-05T05:26:54Z</time>
      </trkpt>
      <trkpt lat="48.5849180" lon="7.7587950">
        <ele>-260.6</ele>
        <time>2022-06-05T05:26:58Z</time>
      </trkpt>
      <trkpt lat="48.5849180" lon="7.7587950">
        <ele>-260.6</ele>
        <time>2022-06-05T05:27:02Z</time>
      </trkpt>
      <trkpt lat="48.5849180" lon="7.7587950">
        <ele>-260.8</ele>
        <time>2022-06-05T05:27:06Z</time>
      </trkpt>
      <trkpt lat="48.5849180" lon="7.7587950">
        <ele>-260.6</ele>
        <time>2022-06-05T05:27:10Z</time>
      </trkpt>
      <trkpt lat="48.5849180" lon="7.7587950">
        <ele>-261.2</ele>
        <time>2022-06-05T05:27:14Z</time>
      </trkpt>
      <trkpt lat="48.5849180" lon="7.7587950">
        <ele>-261.0</ele>
        <time>2022-06-05T05:27:18Z</time>
      </trkpt>
      <trkpt lat="48.5849180" lon="7.7587950">
        <ele>-261.0</ele>
        <time>2022-06-05T05:27:22Z</time>
      </trkpt>
      <trkpt lat="48.5849180" lon="7.7587950">
        <ele>-261.0</ele>
        <time>2022-06-05T05:27:26Z</time>
      </trkpt>
      <trkpt lat="48.5849180" lon="7.7587950">
        <ele>-261.0</ele>
        <time>2022-06-05T05:27:30Z</time>
      </trkpt>
      <trkpt lat="48.5849180" lon="7.7587950">
        <ele>-261.0</ele>
        <time>2022-06-05T05:27:34Z</time>
      </trkpt>
      <trkpt lat="48.5850550" lon="7.7586560">
        <ele>-261.2</ele>
        <time>2022-06-05T05:27:38Z</time>
      </trkpt>
      <trkpt lat="48.5849810" lon="7.7586260">
        <ele>-261.4</ele>
        <time>2022-06-05T05:27:42Z</time>
      </trkpt>
      <trkpt lat="48.5848780" lon="7.7585310">
        <ele>-261.6</ele>
        <time>2022-06-05T05:27:46Z</time>
      </trkpt>
      <trkpt lat="48.5845080" lon="7.7588760">
        <ele>-261.8</ele>
        <time>2022-06-05T05:27:50Z</time>
      </trkpt>
      <trkpt lat="48.5842960" lon="7.7590210">
        <ele>-262.2</ele>
        <time>2022-06-05T05:27:54Z</time>
      </trkpt>
      <trkpt lat="48.5841800" lon="7.7590500">
        <ele>-262.6</ele>
        <time>2022-06-05T05:27:58Z</time>
      </trkpt>
      <trkpt lat="48.5840950" lon="7.7592050">
        <ele>-262.4</ele>
        <time>2022-06-05T05:28:02Z</time>
      </trkpt>
      <trkpt lat="48.5840380" lon="7.7593930">
        <ele>-262.4</ele>
        <time>2022-06-05T05:28:06Z</time>
      </trkpt>
      <trkpt lat="48.5839830" lon="7.7595960">
        <ele>-262.8</ele>
        <time>2022-06-05T05:28:10Z</time>
      </trkpt>
      <trkpt lat="48.5839180" lon="7.7597950">
        <ele>-262.8</ele>
        <time>2022-06-05T05:28:14Z</time>
      </trkpt>
      <trkpt lat="48.5838610" lon="7.7599980">
        <ele>-262.8</ele>
        <time>2022-06-05T05:28:18Z</time>
      </trkpt>
      <trkpt lat="48.5838130" lon="7.7602080">
        <ele>-262.8</ele>
        <time>2022-06-05T05:28:22Z</time>
      </trkpt>
      <trkpt lat="48.5837810" lon="7.7604260">
        <ele>-263.2</ele>
        <time>2022-06-05T05:28:26Z</time>
      </trkpt>
      <trkpt lat="48.5837180" lon="7.7606210">
        <ele>-263.2</ele>
        <time>2022-06-05T05:28:30Z</time>
      </trkpt>
      <trkpt lat="48.5836510" lon="7.7608110">
        <ele>-262.8</ele>
        <time>2022-06-05T05:28:34Z</time>
      </trkpt>
      <trkpt lat="48.5835830" lon="7.7609880">
        <ele>-262.2</ele>
        <time>2022-06-05T05:28:38Z</time>
      </trkpt>
      <trkpt lat="48.5835210" lon="7.7611880">
        <ele>-262.6</ele>
        <time>2022-06-05T05:28:42Z</time>
      </trkpt>
      <trkpt lat="48.5834560" lon="7.7614000">
        <ele>-262.6</ele>
        <time>2022-06-05T05:28:46Z</time>
      </trkpt>
      <trkpt lat="48.5833950" lon="7.7616230">
        <ele>-262.8</ele>
        <time>2022-06-05T05:28:50Z</time>
      </trkpt>
      <trkpt lat="48.5833350" lon="7.7618580">
        <ele>-263.2</ele>
        <time>2022-06-05T05:28:54Z</time>
      </trkpt>
      <trkpt lat="48.5832730" lon="7.7620960">
        <ele>-263.0</ele>
        <time>2022-06-05T05:28:58Z</time>
      </trkpt>
      <trkpt lat="48.5832050" lon="7.7623350">
        <ele>-262.8</ele>
        <time>2022-06-05T05:29:02Z</time>
      </trkpt>
      <trkpt lat="48.5831350" lon="7.7625680">
        <ele>-263.2</ele>
        <time>2022-06-05T05:29:06Z</time>
      </trkpt>
      <trkpt lat="48.5830710" lon="7.7628050">
        <ele>-263.2</ele>
        <time>2022-06-05T05:29:10Z</time>
      </trkpt>
      <trkpt lat="48.5830080" lon="7.7630450">
        <ele>-263.2</ele>
        <time>2022-06-05T05:29:14Z</time>
      </trkpt>
      <trkpt lat="48.5829410" lon="7.7632800">
        <ele>-263.0</ele>
        <time>2022-06-05T05:29:18Z</time>
      </trkpt>
      <trkpt lat="48.5828610" lon="7.7635110">
        <ele>-263.0</ele>
        <time>2022-06-05T05:29:22Z</time>
      </trkpt>
      <trkpt lat="48.5827900" lon="7.7637600">
        <ele>-263.2</ele>
        <time>2022-06-05T05:29:26Z</time>
      </trkpt>
      <trkpt lat="48.5827110" lon="7.7640010">
        <ele>-263.2</ele>
        <time>2022-06-05T05:29:30Z</time>
      </trkpt>
      <trkpt lat="48.5826330" lon="7.7642460">
        <ele>-263.6</ele>
        <time>2022-06-05T05:29:34Z</time>
      </trkpt>
      <trkpt lat="48.5825600" lon="7.7644980">
        <ele>-263.6</ele>
        <time>2022-06-05T05:29:38Z</time>
      </trkpt>
      <trkpt lat="48.5824900" lon="7.7647530">
        <ele>-263.6</ele>
        <time>2022-06-05T05:29:42Z</time>
      </trkpt>
      <trkpt lat="48.5824150" lon="7.7649960">
        <ele>-263.8</ele>
        <time>2022-06-05T05:29:46Z</time>
      </trkpt>
      <trkpt lat="48.5823380" lon="7.7652380">
        <ele>-263.4</ele>
        <time>2022-06-05T05:29:50Z</time>
      </trkpt>
      <trkpt lat="48.5822730" lon="7.7654950">
        <ele>-263.4</ele>
        <time>2022-06-05T05:29:54Z</time>
      </trkpt>
      <trkpt lat="48.5822080" lon="7.7657400">
        <ele>-263.6</ele>
        <time>2022-06-05T05:29:58Z</time>
      </trkpt>
      <trkpt lat="48.5821380" lon="7.7659800">
        <ele>-263.6</ele>
        <time>2022-06-05T05:30:02Z</time>
      </trkpt>
      <trkpt lat="48.5820750" lon="7.7662200">
        <ele>-263.4</ele>
        <time>2022-06-05T05:30:06Z</time>
      </trkpt>
      <trkpt lat="48.5820150" lon="7.7664530">
        <ele>-263.6</ele>
        <time>2022-06-05T05:30:10Z</time>
      </trkpt>
      <trkpt lat="48.5819400" lon="7.7666880">
        <ele>-263.2</ele>
        <time>2022-06-05T05:30:14Z</time>
      </trkpt>
      <trkpt lat="48.5818610" lon="7.7669230">
        <ele>-263.2</ele>
        <time>2022-06-05T05:30:18Z</time>
      </trkpt>
      <trkpt lat="48.5817660" lon="7.7671480">
        <ele>-263.2</ele>
        <time>2022-06-05T05:30:22Z</time>
      </trkpt>
      <trkpt lat="48.5816860" lon="7.7673830">
        <ele>-263.0</ele>
        <time>2022-06-05T05:30:26Z</time>
      </trkpt>
      <trkpt lat="48.5816250" lon="7.7676310">
        <ele>-263.2</ele>
        <time>2022-06-05T05:30:30Z</time>
      </trkpt>
      <trkpt lat="48.5815580" lon="7.7678830">
        <ele>-263.8</ele>
        <time>2022-06-05T05:30:34Z</time>
      </trkpt>
      <trkpt lat="48.5814960" lon="7.7681400">
        <ele>-263.2</ele>
        <time>2022-06-05T05:30:38Z</time>
      </trkpt>
      <trkpt lat="48.5814400" lon="7.7684030">
        <ele>-263.4</ele>
        <time>2022-06-05T05:30:42Z</time>
      </trkpt>
      <trkpt lat="48.5813750" lon="7.7686560">
        <ele>-263.6</ele>
        <time>2022-06-05T05:30:46Z</time>
      </trkpt>
      <trkpt lat="48.5813050" lon="7.7689000">
        <ele>-263.4</ele>
        <time>2022-06-05T05:30:50Z</time>
      </trkpt>
      <trkpt lat="48.5812360" lon="7.7691300">
        <ele>-263.4</ele>
        <time>2022-06-05T05:30:54Z</time>
      </trkpt>
      <trkpt lat="48.5811780" lon="7.7693260">
        <ele>-262.8</ele>
        <time>2022-06-05T05:30:58Z</time>
      </trkpt>
      <trkpt lat="48.5811210" lon="7.7694830">
        <ele>-263.4</ele>
        <time>2022-06-05T05:31:02Z</time>
      </trkpt>
      <trkpt lat="48.5810830" lon="7.7695730">
        <ele>-263.2</ele>
        <time>2022-06-05T05:31:06Z</time>
      </trkpt>
      <trkpt lat="48.5810130" lon="7.7696710">
        <ele>-263.0</ele>
        <time>2022-06-05T05:31:10Z</time>
      </trkpt>
      <trkpt lat="48.5809660" lon="7.7697800">
        <ele>-263.2</ele>
        <time>2022-06-05T05:31:14Z</time>
      </trkpt>
      <trkpt lat="48.5809660" lon="7.7698860">
        <ele>-262.8</ele>
        <time>2022-06-05T05:31:18Z</time>
      </trkpt>
      <trkpt lat="48.5809680" lon="7.7699800">
        <ele>-263.0</ele>
        <time>2022-06-05T05:31:22Z</time>
      </trkpt>
      <trkpt lat="48.5809550" lon="7.7701010">
        <ele>-262.8</ele>
        <time>2022-06-05T05:31:26Z</time>
      </trkpt>
      <trkpt lat="48.5809350" lon="7.7702880">
        <ele>-263.4</ele>
        <time>2022-06-05T05:31:30Z</time>
      </trkpt>
      <trkpt lat="48.5809110" lon="7.7705150">
        <ele>-263.4</ele>
        <time>2022-06-05T05:31:34Z</time>
      </trkpt>
      <trkpt lat="48.5808830" lon="7.7707600">
        <ele>-263.2</ele>
        <time>2022-06-05T05:31:38Z</time>
      </trkpt>
      <trkpt lat="48.5808550" lon="7.7710150">
        <ele>-263.4</ele>
        <time>2022-06-05T05:31:42Z</time>
      </trkpt>
      <trkpt lat="48.5808230" lon="7.7712700">
        <ele>-263.6</ele>
        <time>2022-06-05T05:31:46Z</time>
      </trkpt>
      <trkpt lat="48.5807900" lon="7.7715200">
        <ele>-262.8</ele>
        <time>2022-06-05T05:31:50Z</time>
      </trkpt>
      <trkpt lat="48.5807710" lon="7.7717810">
        <ele>-263.2</ele>
        <time>2022-06-05T05:31:54Z</time>
      </trkpt>
      <trkpt lat="48.5807350" lon="7.7720380">
        <ele>-263.6</ele>
        <time>2022-06-05T05:31:58Z</time>
      </trkpt>
      <trkpt lat="48.5806980" lon="7.7722930">
        <ele>-263.6</ele>
        <time>2022-06-05T05:32:02Z</time>
      </trkpt>
      <trkpt lat="48.5806730" lon="7.7725560">
        <ele>-263.8</ele>
        <time>2022-06-05T05:32:06Z</time>
      </trkpt>
      <trkpt lat="48.5806210" lon="7.7728000">
        <ele>-263.8</ele>
        <time>2022-06-05T05:32:10Z</time>
      </trkpt>
      <trkpt lat="48.5806130" lon="7.7730660">
        <ele>-264.0</ele>
        <time>2022-06-05T05:32:14Z</time>
      </trkpt>
      <trkpt lat="48.5805830" lon="7.7733450">
        <ele>-263.8</ele>
        <time>2022-06-05T05:32:18Z</time>
      </trkpt>
      <trkpt lat="48.5805600" lon="7.7736160">
        <ele>-263.4</ele>
        <time>2022-06-05T05:32:22Z</time>
      </trkpt>
      <trkpt lat="48.5805260" lon="7.7739050">
        <ele>-263.6</ele>
        <time>2022-06-05T05:32:26Z</time>
      </trkpt>
      <trkpt lat="48.5804860" lon="7.7741810">
        <ele>-264.4</ele>
        <time>2022-06-05T05:32:30Z</time>
      </trkpt>
      <trkpt lat="48.5804480" lon="7.7744610">
        <ele>-264.4</ele>
        <time>2022-06-05T05:32:34Z</time>
      </trkpt>
      <trkpt lat="48.5804150" lon="7.7747430">
        <ele>-263.8</ele>
        <time>2022-06-05T05:32:38Z</time>
      </trkpt>
      <trkpt lat="48.5803950" lon="7.7750250">
        <ele>-263.8</ele>
        <time>2022-06-05T05:32:42Z</time>
      </trkpt>
      <trkpt lat="48.5803730" lon="7.7752980">
        <ele>-264.0</ele>
        <time>2022-06-05T05:32:46Z</time>
      </trkpt>
      <trkpt lat="48.5803460" lon="7.7755850">
        <ele>-264.4</ele>
        <time>2022-06-05T05:32:50Z</time>
      </trkpt>
      <trkpt lat="48.5803210" lon="7.7758510">
        <ele>-264.2</ele>
        <time>2022-06-05T05:32:54Z</time>
      </trkpt>
      <trkpt lat="48.5803050" lon="7.7761180">
        <ele>-264.6</ele>
        <time>2022-06-05T05:32:58Z</time>
      </trkpt>
      <trkpt lat="48.5802780" lon="7.7763910">
        <ele>-264.0</ele>
        <time>2022-06-05T05:33:02Z</time>
      </trkpt>
      <trkpt lat="48.5802360" lon="7.7766600">
        <ele>-263.8</ele>
        <time>2022-06-05T05:33:06Z</time>
      </trkpt>
      <trkpt lat="48.5802050" lon="7.7769260">
        <ele>-264.2</ele>
        <time>2022-06-05T05:33:10Z</time>
      </trkpt>
      <trkpt lat="48.5801780" lon="7.7771950">
        <ele>-264.4</ele>
        <time>2022-06-05T05:33:14Z</time>
      </trkpt>
      <trkpt lat="48.5801550" lon="7.7774500">
        <ele>-264.2</ele>
        <time>2022-06-05T05:33:18Z</time>
      </trkpt>
      <trkpt lat="48.5801730" lon="7.7776950">
        <ele>-264.0</ele>
        <time>2022-06-05T05:33:22Z</time>
      </trkpt>
      <trkpt lat="48.5802400" lon="7.7779050">
        <ele>-263.8</ele>
        <time>2022-06-05T05:33:26Z</time>
      </trkpt>
      <trkpt lat="48.5803030" lon="7.7781130">
        <ele>-264.0</ele>
        <time>2022-06-05T05:33:30Z</time>
      </trkpt>
      <trkpt lat="48.5803580" lon="7.7783260">
        <ele>-263.8</ele>
        <time>2022-06-05T05:33:34Z</time>
      </trkpt>
      <trkpt lat="48.5803730" lon="7.7785810">
        <ele>-263.0</ele>
        <time>2022-06-05T05:33:38Z</time>
      </trkpt>
      <trkpt lat="48.5803880" lon="7.7788180">
        <ele>-262.6</ele>
        <time>2022-06-05T05:33:42Z</time>
      </trkpt>
      <trkpt lat="48.5804000" lon="7.7790710">
        <ele>-262.8</ele>
        <time>2022-06-05T05:33:46Z</time>
      </trkpt>
      <trkpt lat="48.5803660" lon="7.7793130">
        <ele>-261.8</ele>
        <time>2022-06-05T05:33:50Z</time>
      </trkpt>
      <trkpt lat="48.5802900" lon="7.7795310">
        <ele>-261.4</ele>
        <time>2022-06-05T05:33:54Z</time>
      </trkpt>
      <trkpt lat="48.5801930" lon="7.7797230">
        <ele>-261.0</ele>
        <time>2022-06-05T05:33:58Z</time>
      </trkpt>
      <trkpt lat="48.5801150" lon="7.7798750">
        <ele>-260.4</ele>
        <time>2022-06-05T05:34:02Z</time>
      </trkpt>
      <trkpt lat="48.5800230" lon="7.7800160">
        <ele>-260.6</ele>
        <time>2022-06-05T05:34:06Z</time>
      </trkpt>
      <trkpt lat="48.5799400" lon="7.7802000">
        <ele>-260.2</ele>
        <time>2022-06-05T05:34:10Z</time>
      </trkpt>
      <trkpt lat="48.5798380" lon="7.7803760">
        <ele>-258.6</ele>
        <time>2022-06-05T05:34:14Z</time>
      </trkpt>
      <trkpt lat="48.5797410" lon="7.7805160">
        <ele>-259.0</ele>
        <time>2022-06-05T05:34:18Z</time>
      </trkpt>
      <trkpt lat="48.5796550" lon="7.7806760">
        <ele>-258.4</ele>
        <time>2022-06-05T05:34:22Z</time>
      </trkpt>
      <trkpt lat="48.5795630" lon="7.7808360">
        <ele>-257.8</ele>
        <time>2022-06-05T05:34:26Z</time>
      </trkpt>
      <trkpt lat="48.5794860" lon="7.7809800">
        <ele>-257.2</ele>
        <time>2022-06-05T05:34:30Z</time>
      </trkpt>
      <trkpt lat="48.5794250" lon="7.7810700">
        <ele>-257.0</ele>
        <time>2022-06-05T05:34:34Z</time>
      </trkpt>
      <trkpt lat="48.5793600" lon="7.7811680">
        <ele>-257.2</ele>
        <time>2022-06-05T05:34:38Z</time>
      </trkpt>
      <trkpt lat="48.5792930" lon="7.7812910">
        <ele>-256.8</ele>
        <time>2022-06-05T05:34:42Z</time>
      </trkpt>
      <trkpt lat="48.5792130" lon="7.7814150">
        <ele>-256.2</ele>
        <time>2022-06-05T05:34:46Z</time>
      </trkpt>
      <trkpt lat="48.5791300" lon="7.7815610">
        <ele>-255.8</ele>
        <time>2022-06-05T05:34:50Z</time>
      </trkpt>
      <trkpt lat="48.5790450" lon="7.7817100">
        <ele>-255.6</ele>
        <time>2022-06-05T05:34:54Z</time>
      </trkpt>
      <trkpt lat="48.5789610" lon="7.7818460">
        <ele>-255.2</ele>
        <time>2022-06-05T05:34:58Z</time>
      </trkpt>
      <trkpt lat="48.5788810" lon="7.7819930">
        <ele>-255.4</ele>
        <time>2022-06-05T05:35:02Z</time>
      </trkpt>
      <trkpt lat="48.5788100" lon="7.7821430">
        <ele>-255.6</ele>
        <time>2022-06-05T05:35:06Z</time>
      </trkpt>
      <trkpt lat="48.5787630" lon="7.7822030">
        <ele>-255.6</ele>
        <time>2022-06-05T05:35:10Z</time>
      </trkpt>
      <trkpt lat="48.5787450" lon="7.7822600">
        <ele>-255.6</ele>
        <time>2022-06-05T05:35:14Z</time>
      </trkpt>
      <trkpt lat="48.5787450" lon="7.7822600">
        <ele>-255.6</ele>
        <time>2022-06-05T05:35:18Z</time>
      </trkpt>
      <trkpt lat="48.5787450" lon="7.7822600">
        <ele>-255.4</ele>
        <time>2022-06-05T05:35:22Z</time>
      </trkpt>
      <trkpt lat="48.5787450" lon="7.7822600">
        <ele>-256.0</ele>
        <time>2022-06-05T05:35:26Z</time>
      </trkpt>
      <trkpt lat="48.5787450" lon="7.7822600">
        <ele>-255.6</ele>
        <time>2022-06-05T05:35:30Z</time>
      </trkpt>
      <trkpt lat="48.5787450" lon="7.7822600">
        <ele>-255.6</ele>
        <time>2022-06-05T05:35:34Z</time>
      </trkpt>
      <trkpt lat="48.5787450" lon="7.7822600">
        <ele>-255.6</ele>
        <time>2022-06-05T05:35:38Z</time>
      </trkpt>
      <trkpt lat="48.5787330" lon="7.7822730">
        <ele>-255.6</ele>
        <time>2022-06-05T05:35:42Z</time>
      </trkpt>
      <trkpt lat="48.5786760" lon="7.7823730">
        <ele>-256.0</ele>
        <time>2022-06-05T05:35:46Z</time>
      </trkpt>
      <trkpt lat="48.5785780" lon="7.7825380">
        <ele>-256.6</ele>
        <time>2022-06-05T05:35:50Z</time>
      </trkpt>
      <trkpt lat="48.5784610" lon="7.7827450">
        <ele>-257.2</ele>
        <time>2022-06-05T05:35:54Z</time>
      </trkpt>
      <trkpt lat="48.5783280" lon="7.7829760">
        <ele>-258.0</ele>
        <time>2022-06-05T05:35:58Z</time>
      </trkpt>
      <trkpt lat="48.5781610" lon="7.7831760">
        <ele>-258.8</ele>
        <time>2022-06-05T05:36:02Z</time>
      </trkpt>
      <trkpt lat="48.5779810" lon="7.7833450">
        <ele>-260.0</ele>
        <time>2022-06-05T05:36:06Z</time>
      </trkpt>
      <trkpt lat="48.5777810" lon="7.7834660">
        <ele>-260.4</ele>
        <time>2022-06-05T05:36:10Z</time>
      </trkpt>
      <trkpt lat="48.5775780" lon="7.7835900">
        <ele>-261.0</ele>
        <time>2022-06-05T05:36:14Z</time>
      </trkpt>
      <trkpt lat="48.5773460" lon="7.7836600">
        <ele>-261.2</ele>
        <time>2022-06-05T05:36:18Z</time>
      </trkpt>
      <trkpt lat="48.5771010" lon="7.7837380">
        <ele>-262.8</ele>
        <time>2022-06-05T05:36:22Z</time>
      </trkpt>
      <trkpt lat="48.5768500" lon="7.7838150">
        <ele>-263.0</ele>
        <time>2022-06-05T05:36:26Z</time>
      </trkpt>
      <trkpt lat="48.5766080" lon="7.7838910">
        <ele>-263.2</ele>
        <time>2022-06-05T05:36:30Z</time>
      </trkpt>
      <trkpt lat="48.5763730" lon="7.7839580">
        <ele>-263.6</ele>
        <time>2022-06-05T05:36:34Z</time>
      </trkpt>
      <trkpt lat="48.5761500" lon="7.7840210">
        <ele>-263.8</ele>
        <time>2022-06-05T05:36:38Z</time>
      </trkpt>
      <trkpt lat="48.5759360" lon="7.7840930">
        <ele>-263.4</ele>
        <time>2022-06-05T05:36:42Z</time>
      </trkpt>
      <trkpt lat="48.5757280" lon="7.7841560">
        <ele>-263.8</ele>
        <time>2022-06-05T05:36:46Z</time>
      </trkpt>
      <trkpt lat="48.5755230" lon="7.7842180">
        <ele>-263.6</ele>
        <time>2022-06-05T05:36:50Z</time>
      </trkpt>
      <trkpt lat="48.5753250" lon="7.7842810">
        <ele>-262.8</ele>
        <time>2022-06-05T05:36:54Z</time>
      </trkpt>
      <trkpt lat="48.5751260" lon="7.7843380">
        <ele>-263.2</ele>
        <time>2022-06-05T05:36:58Z</time>
      </trkpt>
      <trkpt lat="48.5749300" lon="7.7843880">
        <ele>-263.4</ele>
        <time>2022-06-05T05:37:02Z</time>
      </trkpt>
      <trkpt lat="48.5747360" lon="7.7844550">
        <ele>-263.8</ele>
        <time>2022-06-05T05:37:06Z</time>
      </trkpt>
      <trkpt lat="48.5745480" lon="7.7845060">
        <ele>-263.2</ele>
        <time>2022-06-05T05:37:10Z</time>
      </trkpt>
      <trkpt lat="48.5743700" lon="7.7845610">
        <ele>-262.8</ele>
        <time>2022-06-05T05:37:14Z</time>
      </trkpt>
      <trkpt lat="48.5742010" lon="7.7846180">
        <ele>-262.2</ele>
        <time>2022-06-05T05:37:18Z</time>
      </trkpt>
      <trkpt lat="48.5740510" lon="7.7846780">
        <ele>-262.4</ele>
        <time>2022-06-05T05:37:22Z</time>
      </trkpt>
      <trkpt lat="48.5738930" lon="7.7846960">
        <ele>-262.0</ele>
        <time>2022-06-05T05:37:26Z</time>
      </trkpt>
      <trkpt lat="48.5737230" lon="7.7847300">
        <ele>-261.2</ele>
        <time>2022-06-05T05:37:30Z</time>
      </trkpt>
      <trkpt lat="48.5735600" lon="7.7847700">
        <ele>-261.2</ele>
        <time>2022-06-05T05:37:34Z</time>
      </trkpt>
      <trkpt lat="48.5733980" lon="7.7848050">
        <ele>-261.2</ele>
        <time>2022-06-05T05:37:38Z</time>
      </trkpt>
      <trkpt lat="48.5732380" lon="7.7848200">
        <ele>-261.4</ele>
        <time>2022-06-05T05:37:42Z</time>
      </trkpt>
      <trkpt lat="48.5730810" lon="7.7848480">
        <ele>-261.4</ele>
        <time>2022-06-05T05:37:46Z</time>
      </trkpt>
      <trkpt lat="48.5729250" lon="7.7848900">
        <ele>-260.8</ele>
        <time>2022-06-05T05:37:50Z</time>
      </trkpt>
      <trkpt lat="48.5727700" lon="7.7849450">
        <ele>-260.2</ele>
        <time>2022-06-05T05:37:54Z</time>
      </trkpt>
      <trkpt lat="48.5726260" lon="7.7850230">
        <ele>-259.4</ele>
        <time>2022-06-05T05:37:58Z</time>
      </trkpt>
      <trkpt lat="48.5724960" lon="7.7851250">
        <ele>-259.2</ele>
        <time>2022-06-05T05:38:02Z</time>
      </trkpt>
      <trkpt lat="48.5723610" lon="7.7852110">
        <ele>-258.6</ele>
        <time>2022-06-05T05:38:06Z</time>
      </trkpt>
      <trkpt lat="48.5722430" lon="7.7853100">
        <ele>-258.2</ele>
        <time>2022-06-05T05:38:10Z</time>
      </trkpt>
      <trkpt lat="48.5721110" lon="7.7853680">
        <ele>-258.2</ele>
        <time>2022-06-05T05:38:14Z</time>
      </trkpt>
      <trkpt lat="48.5719730" lon="7.7854030">
        <ele>-258.0</ele>
        <time>2022-06-05T05:38:18Z</time>
      </trkpt>
      <trkpt lat="48.5719050" lon="7.7855630">
        <ele>-257.4</ele>
        <time>2022-06-05T05:38:22Z</time>
      </trkpt>
      <trkpt lat="48.5718130" lon="7.7856200">
        <ele>-257.4</ele>
        <time>2022-06-05T05:38:26Z</time>
      </trkpt>
      <trkpt lat="48.5717210" lon="7.7854980">
        <ele>-257.2</ele>
        <time>2022-06-05T05:38:30Z</time>
      </trkpt>
      <trkpt lat="48.5715910" lon="7.7854350">
        <ele>-256.6</ele>
        <time>2022-06-05T05:38:34Z</time>
      </trkpt>
      <trkpt lat="48.5714480" lon="7.7854100">
        <ele>-256.0</ele>
        <time>2022-06-05T05:38:38Z</time>
      </trkpt>
      <trkpt lat="48.5713500" lon="7.7854810">
        <ele>-255.6</ele>
        <time>2022-06-05T05:38:42Z</time>
      </trkpt>
      <trkpt lat="48.5712930" lon="7.7855310">
        <ele>-256.2</ele>
        <time>2022-06-05T05:38:46Z</time>
      </trkpt>
      <trkpt lat="48.5712400" lon="7.7855480">
        <ele>-256.6</ele>
        <time>2022-06-05T05:38:50Z</time>
      </trkpt>
      <trkpt lat="48.5712610" lon="7.7854650">
        <ele>-256.4</ele>
        <time>2022-06-05T05:38:54Z</time>
      </trkpt>
      <trkpt lat="48.5711730" lon="7.7854300">
        <ele>-256.4</ele>
        <time>2022-06-05T05:38:58Z</time>
      </trkpt>
      <trkpt lat="48.5710260" lon="7.7855310">
        <ele>-257.6</ele>
        <time>2022-06-05T05:39:02Z</time>
      </trkpt>
      <trkpt lat="48.5708460" lon="7.7857230">
        <ele>-259.0</ele>
        <time>2022-06-05T05:39:06Z</time>
      </trkpt>
      <trkpt lat="48.5706450" lon="7.7859930">
        <ele>-260.4</ele>
        <time>2022-06-05T05:39:10Z</time>
      </trkpt>
      <trkpt lat="48.5705360" lon="7.7863980">
        <ele>-261.4</ele>
        <time>2022-06-05T05:39:14Z</time>
      </trkpt>
      <trkpt lat="48.5702710" lon="7.7867200">
        <ele>-263.4</ele>
        <time>2022-06-05T05:39:18Z</time>
      </trkpt>
      <trkpt lat="48.5700480" lon="7.7870160">
        <ele>-262.8</ele>
        <time>2022-06-05T05:39:22Z</time>
      </trkpt>
      <trkpt lat="48.5698510" lon="7.7872980">
        <ele>-262.6</ele>
        <time>2022-06-05T05:39:26Z</time>
      </trkpt>
      <trkpt lat="48.5697030" lon="7.7875660">
        <ele>-262.4</ele>
        <time>2022-06-05T05:39:30Z</time>
      </trkpt>
      <trkpt lat="48.5695880" lon="7.7877950">
        <ele>-262.0</ele>
        <time>2022-06-05T05:39:34Z</time>
      </trkpt>
      <trkpt lat="48.5695100" lon="7.7879310">
        <ele>-261.6</ele>
        <time>2022-06-05T05:39:38Z</time>
      </trkpt>
      <trkpt lat="48.5694510" lon="7.7879660">
        <ele>-262.2</ele>
        <time>2022-06-05T05:39:42Z</time>
      </trkpt>
      <trkpt lat="48.5693750" lon="7.7880530">
        <ele>-261.8</ele>
        <time>2022-06-05T05:39:46Z</time>
      </trkpt>
      <trkpt lat="48.5692830" lon="7.7882130">
        <ele>-261.6</ele>
        <time>2022-06-05T05:39:50Z</time>
      </trkpt>
      <trkpt lat="48.5691730" lon="7.7884000">
        <ele>-261.6</ele>
        <time>2022-06-05T05:39:54Z</time>
      </trkpt>
      <trkpt lat="48.5690580" lon="7.7885880">
        <ele>-261.2</ele>
        <time>2022-06-05T05:39:58Z</time>
      </trkpt>
      <trkpt lat="48.5689310" lon="7.7887780">
        <ele>-262.2</ele>
        <time>2022-06-05T05:40:02Z</time>
      </trkpt>
      <trkpt lat="48.5687680" lon="7.7889730">
        <ele>-262.0</ele>
        <time>2022-06-05T05:40:06Z</time>
      </trkpt>
      <trkpt lat="48.5686030" lon="7.7891950">
        <ele>-262.8</ele>
        <time>2022-06-05T05:40:10Z</time>
      </trkpt>
      <trkpt lat="48.5684260" lon="7.7894050">
        <ele>-263.6</ele>
        <time>2022-06-05T05:40:14Z</time>
      </trkpt>
      <trkpt lat="48.5682830" lon="7.7896460">
        <ele>-263.4</ele>
        <time>2022-06-05T05:40:18Z</time>
      </trkpt>
      <trkpt lat="48.5682310" lon="7.7899480">
        <ele>-263.4</ele>
        <time>2022-06-05T05:40:22Z</time>
      </trkpt>
      <trkpt lat="48.5682850" lon="7.7902330">
        <ele>-262.8</ele>
        <time>2022-06-05T05:40:26Z</time>
      </trkpt>
      <trkpt lat="48.5683830" lon="7.7904710">
        <ele>-262.2</ele>
        <time>2022-06-05T05:40:30Z</time>
      </trkpt>
      <trkpt lat="48.5684900" lon="7.7906880">
        <ele>-262.0</ele>
        <time>2022-06-05T05:40:34Z</time>
      </trkpt>
      <trkpt lat="48.5685360" lon="7.7909310">
        <ele>-262.0</ele>
        <time>2022-06-05T05:40:38Z</time>
      </trkpt>
      <trkpt lat="48.5685660" lon="7.7911880">
        <ele>-261.6</ele>
        <time>2022-06-05T05:40:42Z</time>
      </trkpt>
      <trkpt lat="48.5686860" lon="7.7913810">
        <ele>-261.0</ele>
        <time>2022-06-05T05:40:46Z</time>
      </trkpt>
      <trkpt lat="48.5688550" lon="7.7914710">
        <ele>-260.6</ele>
        <time>2022-06-05T05:40:50Z</time>
      </trkpt>
      <trkpt lat="48.5689080" lon="7.7916660">
        <ele>-260.8</ele>
        <time>2022-06-05T05:40:54Z</time>
      </trkpt>
      <trkpt lat="48.5690160" lon="7.7918730">
        <ele>-260.6</ele>
        <time>2022-06-05T05:40:58Z</time>
      </trkpt>
      <trkpt lat="48.5691280" lon="7.7921010">
        <ele>-261.0</ele>
        <time>2022-06-05T05:41:02Z</time>
      </trkpt>
      <trkpt lat="48.5692400" lon="7.7923300">
        <ele>-260.6</ele>
        <time>2022-06-05T05:41:06Z</time>
      </trkpt>
      <trkpt lat="48.5693550" lon="7.7925660">
        <ele>-261.0</ele>
        <time>2022-06-05T05:41:10Z</time>
      </trkpt>
      <trkpt lat="48.5694780" lon="7.7927980">
        <ele>-261.0</ele>
        <time>2022-06-05T05:41:14Z</time>
      </trkpt>
      <trkpt lat="48.5695900" lon="7.7930260">
        <ele>-261.6</ele>
        <time>2022-06-05T05:41:18Z</time>
      </trkpt>
      <trkpt lat="48.5697010" lon="7.7932360">
        <ele>-261.6</ele>
        <time>2022-06-05T05:41:22Z</time>
      </trkpt>
      <trkpt lat="48.5697960" lon="7.7934560">
        <ele>-261.2</ele>
        <time>2022-06-05T05:41:26Z</time>
      </trkpt>
      <trkpt lat="48.5699150" lon="7.7936750">
        <ele>-260.8</ele>
        <time>2022-06-05T05:41:30Z</time>
      </trkpt>
      <trkpt lat="48.5700200" lon="7.7939210">
        <ele>-261.6</ele>
        <time>2022-06-05T05:41:34Z</time>
      </trkpt>
      <trkpt lat="48.5701680" lon="7.7941400">
        <ele>-262.0</ele>
        <time>2022-06-05T05:41:38Z</time>
      </trkpt>
      <trkpt lat="48.5702650" lon="7.7943730">
        <ele>-261.6</ele>
        <time>2022-06-05T05:41:42Z</time>
      </trkpt>
      <trkpt lat="48.5704230" lon="7.7945900">
        <ele>-261.6</ele>
        <time>2022-06-05T05:41:46Z</time>
      </trkpt>
      <trkpt lat="48.5705650" lon="7.7948080">
        <ele>-261.6</ele>
        <time>2022-06-05T05:41:50Z</time>
      </trkpt>
      <trkpt lat="48.5707280" lon="7.7950150">
        <ele>-261.8</ele>
        <time>2022-06-05T05:41:54Z</time>
      </trkpt>
      <trkpt lat="48.5708710" lon="7.7952160">
        <ele>-261.0</ele>
        <time>2022-06-05T05:41:58Z</time>
      </trkpt>
      <trkpt lat="48.5709960" lon="7.7954000">
        <ele>-260.6</ele>
        <time>2022-06-05T05:42:02Z</time>
      </trkpt>
      <trkpt lat="48.5710910" lon="7.7955750">
        <ele>-260.8</ele>
        <time>2022-06-05T05:42:06Z</time>
      </trkpt>
      <trkpt lat="48.5711510" lon="7.7957630">
        <ele>-260.8</ele>
        <time>2022-06-05T05:42:10Z</time>
      </trkpt>
      <trkpt lat="48.5712450" lon="7.7959550">
        <ele>-260.6</ele>
        <time>2022-06-05T05:42:14Z</time>
      </trkpt>
      <trkpt lat="48.5713250" lon="7.7961810">
        <ele>-260.4</ele>
        <time>2022-06-05T05:42:18Z</time>
      </trkpt>
      <trkpt lat="48.5714210" lon="7.7964030">
        <ele>-260.4</ele>
        <time>2022-06-05T05:42:22Z</time>
      </trkpt>
      <trkpt lat="48.5714930" lon="7.7966360">
        <ele>-260.4</ele>
        <time>2022-06-05T05:42:26Z</time>
      </trkpt>
      <trkpt lat="48.5715880" lon="7.7968630">
        <ele>-260.0</ele>
        <time>2022-06-05T05:42:30Z</time>
      </trkpt>
      <trkpt lat="48.5716830" lon="7.7970930">
        <ele>-260.0</ele>
        <time>2022-06-05T05:42:34Z</time>
      </trkpt>
      <trkpt lat="48.5717800" lon="7.7973200">
        <ele>-260.0</ele>
        <time>2022-06-05T05:42:38Z</time>
      </trkpt>
      <trkpt lat="48.5718830" lon="7.7975260">
        <ele>-259.4</ele>
        <time>2022-06-05T05:42:42Z</time>
      </trkpt>
      <trkpt lat="48.5719910" lon="7.7977080">
        <ele>-258.6</ele>
        <time>2022-06-05T05:42:46Z</time>
      </trkpt>
      <trkpt lat="48.5720710" lon="7.7979000">
        <ele>-257.8</ele>
        <time>2022-06-05T05:42:50Z</time>
      </trkpt>
      <trkpt lat="48.5721460" lon="7.7980780">
        <ele>-257.6</ele>
        <time>2022-06-05T05:42:54Z</time>
      </trkpt>
      <trkpt lat="48.5722230" lon="7.7982480">
        <ele>-256.6</ele>
        <time>2022-06-05T05:42:58Z</time>
      </trkpt>
      <trkpt lat="48.5722960" lon="7.7984250">
        <ele>-256.4</ele>
        <time>2022-06-05T05:43:02Z</time>
      </trkpt>
      <trkpt lat="48.5723750" lon="7.7986000">
        <ele>-255.8</ele>
        <time>2022-06-05T05:43:06Z</time>
      </trkpt>
      <trkpt lat="48.5724650" lon="7.7987860">
        <ele>-255.6</ele>
        <time>2022-06-05T05:43:10Z</time>
      </trkpt>
      <trkpt lat="48.5725600" lon="7.7989680">
        <ele>-255.4</ele>
        <time>2022-06-05T05:43:14Z</time>
      </trkpt>
      <trkpt lat="48.5726500" lon="7.7991580">
        <ele>-255.2</ele>
        <time>2022-06-05T05:43:18Z</time>
      </trkpt>
      <trkpt lat="48.5727430" lon="7.7993500">
        <ele>-255.2</ele>
        <time>2022-06-05T05:43:22Z</time>
      </trkpt>
      <trkpt lat="48.5728400" lon="7.7995350">
        <ele>-255.0</ele>
        <time>2022-06-05T05:43:26Z</time>
      </trkpt>
      <trkpt lat="48.5729430" lon="7.7997150">
        <ele>-254.8</ele>
        <time>2022-06-05T05:43:30Z</time>
      </trkpt>
      <trkpt lat="48.5730480" lon="7.7998900">
        <ele>-254.6</ele>
        <time>2022-06-05T05:43:34Z</time>
      </trkpt>
      <trkpt lat="48.5731510" lon="7.8000660">
        <ele>-254.4</ele>
        <time>2022-06-05T05:43:38Z</time>
      </trkpt>
      <trkpt lat="48.5732210" lon="7.8002680">
        <ele>-253.8</ele>
        <time>2022-06-05T05:43:42Z</time>
      </trkpt>
      <trkpt lat="48.5732780" lon="7.8004710">
        <ele>-253.6</ele>
        <time>2022-06-05T05:43:46Z</time>
      </trkpt>
      <trkpt lat="48.5733330" lon="7.8006760">
        <ele>-253.2</ele>
        <time>2022-06-05T05:43:50Z</time>
      </trkpt>
      <trkpt lat="48.5733800" lon="7.8008830">
        <ele>-252.4</ele>
        <time>2022-06-05T05:43:54Z</time>
      </trkpt>
      <trkpt lat="48.5734310" lon="7.8010860">
        <ele>-252.4</ele>
        <time>2022-06-05T05:43:58Z</time>
      </trkpt>
      <trkpt lat="48.5734850" lon="7.8012930">
        <ele>-252.4</ele>
        <time>2022-06-05T05:44:02Z</time>
      </trkpt>
      <trkpt lat="48.5735410" lon="7.8014980">
        <ele>-251.8</ele>
        <time>2022-06-05T05:44:06Z</time>
      </trkpt>
      <trkpt lat="48.5735950" lon="7.8017000">
        <ele>-252.0</ele>
        <time>2022-06-05T05:44:10Z</time>
      </trkpt>
      <trkpt lat="48.5736510" lon="7.8019060">
        <ele>-252.0</ele>
        <time>2022-06-05T05:44:14Z</time>
      </trkpt>
      <trkpt lat="48.5737050" lon="7.8021060">
        <ele>-252.0</ele>
        <time>2022-06-05T05:44:18Z</time>
      </trkpt>
      <trkpt lat="48.5737610" lon="7.8023230">
        <ele>-252.4</ele>
        <time>2022-06-05T05:44:22Z</time>
      </trkpt>
      <trkpt lat="48.5738160" lon="7.8025310">
        <ele>-252.4</ele>
        <time>2022-06-05T05:44:26Z</time>
      </trkpt>
      <trkpt lat="48.5738750" lon="7.8027460">
        <ele>-252.2</ele>
        <time>2022-06-05T05:44:30Z</time>
      </trkpt>
      <trkpt lat="48.5739300" lon="7.8029660">
        <ele>-252.6</ele>
        <time>2022-06-05T05:44:34Z</time>
      </trkpt>
      <trkpt lat="48.5739880" lon="7.8031860">
        <ele>-252.8</ele>
        <time>2022-06-05T05:44:38Z</time>
      </trkpt>
      <trkpt lat="48.5740430" lon="7.8034110">
        <ele>-253.0</ele>
        <time>2022-06-05T05:44:42Z</time>
      </trkpt>
      <trkpt lat="48.5741080" lon="7.8036400">
        <ele>-253.6</ele>
        <time>2022-06-05T05:44:46Z</time>
      </trkpt>
      <trkpt lat="48.5741730" lon="7.8038810">
        <ele>-253.6</ele>
        <time>2022-06-05T05:44:50Z</time>
      </trkpt>
      <trkpt lat="48.5742710" lon="7.8041260">
        <ele>-254.2</ele>
        <time>2022-06-05T05:44:54Z</time>
      </trkpt>
      <trkpt lat="48.5744010" lon="7.8043660">
        <ele>-255.2</ele>
        <time>2022-06-05T05:44:58Z</time>
      </trkpt>
      <trkpt lat="48.5745500" lon="7.8046250">
        <ele>-256.0</ele>
        <time>2022-06-05T05:45:02Z</time>
      </trkpt>
      <trkpt lat="48.5746610" lon="7.8048200">
        <ele>-256.0</ele>
        <time>2022-06-05T05:45:06Z</time>
      </trkpt>
      <trkpt lat="48.5747680" lon="7.8049880">
        <ele>-257.2</ele>
        <time>2022-06-05T05:45:10Z</time>
      </trkpt>
      <trkpt lat="48.5748860" lon="7.8051380">
        <ele>-257.4</ele>
        <time>2022-06-05T05:45:14Z</time>
      </trkpt>
      <trkpt lat="48.5750130" lon="7.8053300">
        <ele>-257.8</ele>
        <time>2022-06-05T05:45:18Z</time>
      </trkpt>
      <trkpt lat="48.5751480" lon="7.8055580">
        <ele>-258.2</ele>
        <time>2022-06-05T05:45:22Z</time>
      </trkpt>
      <trkpt lat="48.5752810" lon="7.8058160">
        <ele>-259.2</ele>
        <time>2022-06-05T05:45:26Z</time>
      </trkpt>
      <trkpt lat="48.5753910" lon="7.8060780">
        <ele>-259.0</ele>
        <time>2022-06-05T05:45:30Z</time>
      </trkpt>
      <trkpt lat="48.5754580" lon="7.8062630">
        <ele>-259.0</ele>
        <time>2022-06-05T05:45:34Z</time>
      </trkpt>
      <trkpt lat="48.5754800" lon="7.8063850">
        <ele>-260.0</ele>
        <time>2022-06-05T05:45:38Z</time>
      </trkpt>
      <trkpt lat="48.5754960" lon="7.8065560">
        <ele>-260.0</ele>
        <time>2022-06-05T05:45:42Z</time>
      </trkpt>
      <trkpt lat="48.5755600" lon="7.8067880">
        <ele>-260.4</ele>
        <time>2022-06-05T05:45:46Z</time>
      </trkpt>
      <trkpt lat="48.5756400" lon="7.8070180">
        <ele>-261.0</ele>
        <time>2022-06-05T05:45:50Z</time>
      </trkpt>
      <trkpt lat="48.5757310" lon="7.8072450">
        <ele>-261.0</ele>
        <time>2022-06-05T05:45:54Z</time>
      </trkpt>
      <trkpt lat="48.5758160" lon="7.8074900">
        <ele>-260.8</ele>
        <time>2022-06-05T05:45:58Z</time>
      </trkpt>
      <trkpt lat="48.5758960" lon="7.8077300">
        <ele>-261.2</ele>
        <time>2022-06-05T05:46:02Z</time>
      </trkpt>
      <trkpt lat="48.5759700" lon="7.8079650">
        <ele>-261.2</ele>
        <time>2022-06-05T05:46:06Z</time>
      </trkpt>
      <trkpt lat="48.5760460" lon="7.8082080">
        <ele>-261.4</ele>
        <time>2022-06-05T05:46:10Z</time>
      </trkpt>
      <trkpt lat="48.5761330" lon="7.8084600">
        <ele>-261.0</ele>
        <time>2022-06-05T05:46:14Z</time>
      </trkpt>
      <trkpt lat="48.5762150" lon="7.8087050">
        <ele>-261.2</ele>
        <time>2022-06-05T05:46:18Z</time>
      </trkpt>
      <trkpt lat="48.5762830" lon="7.8089600">
        <ele>-261.8</ele>
        <time>2022-06-05T05:46:22Z</time>
      </trkpt>
      <trkpt lat="48.5763410" lon="7.8092300">
        <ele>-262.0</ele>
        <time>2022-06-05T05:46:26Z</time>
      </trkpt>
      <trkpt lat="48.5763950" lon="7.8095100">
        <ele>-262.2</ele>
        <time>2022-06-05T05:46:30Z</time>
      </trkpt>
      <trkpt lat="48.5764450" lon="7.8098030">
        <ele>-262.0</ele>
        <time>2022-06-05T05:46:34Z</time>
      </trkpt>
      <trkpt lat="48.5764810" lon="7.8100960">
        <ele>-262.2</ele>
        <time>2022-06-05T05:46:38Z</time>
      </trkpt>
      <trkpt lat="48.5765060" lon="7.8103830">
        <ele>-262.6</ele>
        <time>2022-06-05T05:46:42Z</time>
      </trkpt>
      <trkpt lat="48.5765230" lon="7.8106610">
        <ele>-262.4</ele>
        <time>2022-06-05T05:46:46Z</time>
      </trkpt>
      <trkpt lat="48.5765330" lon="7.8109310">
        <ele>-262.6</ele>
        <time>2022-06-05T05:46:50Z</time>
      </trkpt>
      <trkpt lat="48.5765330" lon="7.8112080">
        <ele>-262.4</ele>
        <time>2022-06-05T05:46:54Z</time>
      </trkpt>
      <trkpt lat="48.5765280" lon="7.8114880">
        <ele>-262.2</ele>
        <time>2022-06-05T05:46:58Z</time>
      </trkpt>
      <trkpt lat="48.5765200" lon="7.8117700">
        <ele>-262.2</ele>
        <time>2022-06-05T05:47:02Z</time>
      </trkpt>
      <trkpt lat="48.5765150" lon="7.8120610">
        <ele>-262.8</ele>
        <time>2022-06-05T05:47:06Z</time>
      </trkpt>
      <trkpt lat="48.5764930" lon="7.8123510">
        <ele>-263.4</ele>
        <time>2022-06-05T05:47:10Z</time>
      </trkpt>
      <trkpt lat="48.5764700" lon="7.8126400">
        <ele>-263.0</ele>
        <time>2022-06-05T05:47:14Z</time>
      </trkpt>
      <trkpt lat="48.5764400" lon="7.8129250">
        <ele>-262.4</ele>
        <time>2022-06-05T05:47:18Z</time>
      </trkpt>
      <trkpt lat="48.5764030" lon="7.8132080">
        <ele>-263.8</ele>
        <time>2022-06-05T05:47:22Z</time>
      </trkpt>
      <trkpt lat="48.5763450" lon="7.8134880">
        <ele>-263.6</ele>
        <time>2022-06-05T05:47:26Z</time>
      </trkpt>
      <trkpt lat="48.5762800" lon="7.8137630">
        <ele>-263.2</ele>
        <time>2022-06-05T05:47:30Z</time>
      </trkpt>
      <trkpt lat="48.5762160" lon="7.8140380">
        <ele>-263.2</ele>
        <time>2022-06-05T05:47:34Z</time>
      </trkpt>
      <trkpt lat="48.5761650" lon="7.8143150">
        <ele>-262.8</ele>
        <time>2022-06-05T05:47:38Z</time>
      </trkpt>
      <trkpt lat="48.5761200" lon="7.8145930">
        <ele>-263.0</ele>
        <time>2022-06-05T05:47:42Z</time>
      </trkpt>
      <trkpt lat="48.5760800" lon="7.8148860">
        <ele>-263.0</ele>
        <time>2022-06-05T05:47:46Z</time>
      </trkpt>
      <trkpt lat="48.5760380" lon="7.8151900">
        <ele>-262.8</ele>
        <time>2022-06-05T05:47:50Z</time>
      </trkpt>
      <trkpt lat="48.5759950" lon="7.8154850">
        <ele>-263.2</ele>
        <time>2022-06-05T05:47:54Z</time>
      </trkpt>
      <trkpt lat="48.5759530" lon="7.8158430">
        <ele>-263.0</ele>
        <time>2022-06-05T05:47:58Z</time>
      </trkpt>
      <trkpt lat="48.5759300" lon="7.8161230">
        <ele>-262.8</ele>
        <time>2022-06-05T05:48:02Z</time>
      </trkpt>
      <trkpt lat="48.5759210" lon="7.8164060">
        <ele>-262.2</ele>
        <time>2022-06-05T05:48:06Z</time>
      </trkpt>
      <trkpt lat="48.5758980" lon="7.8166910">
        <ele>-262.2</ele>
        <time>2022-06-05T05:48:10Z</time>
      </trkpt>
      <trkpt lat="48.5758730" lon="7.8169730">
        <ele>-262.6</ele>
        <time>2022-06-05T05:48:14Z</time>
      </trkpt>
      <trkpt lat="48.5758460" lon="7.8172510">
        <ele>-262.4</ele>
        <time>2022-06-05T05:48:18Z</time>
      </trkpt>
      <trkpt lat="48.5758110" lon="7.8175310">
        <ele>-262.2</ele>
        <time>2022-06-05T05:48:22Z</time>
      </trkpt>
      <trkpt lat="48.5757880" lon="7.8178130">
        <ele>-262.6</ele>
        <time>2022-06-05T05:48:26Z</time>
      </trkpt>
      <trkpt lat="48.5757660" lon="7.8180900">
        <ele>-262.0</ele>
        <time>2022-06-05T05:48:30Z</time>
      </trkpt>
      <trkpt lat="48.5757430" lon="7.8183680">
        <ele>-262.8</ele>
        <time>2022-06-05T05:48:34Z</time>
      </trkpt>
      <trkpt lat="48.5757210" lon="7.8186480">
        <ele>-262.0</ele>
        <time>2022-06-05T05:48:38Z</time>
      </trkpt>
      <trkpt lat="48.5756950" lon="7.8189180">
        <ele>-262.2</ele>
        <time>2022-06-05T05:48:42Z</time>
      </trkpt>
      <trkpt lat="48.5756710" lon="7.8191850">
        <ele>-261.4</ele>
        <time>2022-06-05T05:48:46Z</time>
      </trkpt>
      <trkpt lat="48.5756680" lon="7.8194510">
        <ele>-261.4</ele>
        <time>2022-06-05T05:48:50Z</time>
      </trkpt>
      <trkpt lat="48.5756610" lon="7.8197100">
        <ele>-261.0</ele>
        <time>2022-06-05T05:48:54Z</time>
      </trkpt>
      <trkpt lat="48.5756460" lon="7.8199600">
        <ele>-261.2</ele>
        <time>2022-06-05T05:48:58Z</time>
      </trkpt>
      <trkpt lat="48.5756330" lon="7.8202150">
        <ele>-261.0</ele>
        <time>2022-06-05T05:49:02Z</time>
      </trkpt>
      <trkpt lat="48.5755910" lon="7.8204680">
        <ele>-260.8</ele>
        <time>2022-06-05T05:49:06Z</time>
      </trkpt>
      <trkpt lat="48.5755700" lon="7.8207210">
        <ele>-256.8</ele>
        <time>2022-06-05T05:49:10Z</time>
      </trkpt>
      <trkpt lat="48.5755500" lon="7.8209750">
        <ele>-260.0</ele>
        <time>2022-06-05T05:49:14Z</time>
      </trkpt>
      <trkpt lat="48.5755210" lon="7.8212250">
        <ele>-260.0</ele>
        <time>2022-06-05T05:49:18Z</time>
      </trkpt>
      <trkpt lat="48.5755110" lon="7.8214850">
        <ele>-259.2</ele>
        <time>2022-06-05T05:49:22Z</time>
      </trkpt>
      <trkpt lat="48.5754980" lon="7.8217380">
        <ele>-258.8</ele>
        <time>2022-06-05T05:49:26Z</time>
      </trkpt>
      <trkpt lat="48.5754830" lon="7.8219900">
        <ele>-258.4</ele>
        <time>2022-06-05T05:49:30Z</time>
      </trkpt>
      <trkpt lat="48.5754830" lon="7.8222410">
        <ele>-258.2</ele>
        <time>2022-06-05T05:49:34Z</time>
      </trkpt>
      <trkpt lat="48.5754960" lon="7.8224860">
        <ele>-258.2</ele>
        <time>2022-06-05T05:49:38Z</time>
      </trkpt>
      <trkpt lat="48.5755250" lon="7.8227280">
        <ele>-257.8</ele>
        <time>2022-06-05T05:49:42Z</time>
      </trkpt>
      <trkpt lat="48.5755500" lon="7.8229500">
        <ele>-257.4</ele>
        <time>2022-06-05T05:49:46Z</time>
      </trkpt>
      <trkpt lat="48.5755430" lon="7.8231200">
        <ele>-257.2</ele>
        <time>2022-06-05T05:49:50Z</time>
      </trkpt>
      <trkpt lat="48.5754060" lon="7.8232550">
        <ele>-258.6</ele>
        <time>2022-06-05T05:49:54Z</time>
      </trkpt>
      <trkpt lat="48.5752210" lon="7.8233750">
        <ele>-259.2</ele>
        <time>2022-06-05T05:49:58Z</time>
      </trkpt>
      <trkpt lat="48.5750350" lon="7.8235200">
        <ele>-259.4</ele>
        <time>2022-06-05T05:50:02Z</time>
      </trkpt>
      <trkpt lat="48.5748600" lon="7.8236380">
        <ele>-259.4</ele>
        <time>2022-06-05T05:50:06Z</time>
      </trkpt>
      <trkpt lat="48.5747000" lon="7.8237650">
        <ele>-259.8</ele>
        <time>2022-06-05T05:50:10Z</time>
      </trkpt>
      <trkpt lat="48.5745410" lon="7.8238730">
        <ele>-259.4</ele>
        <time>2022-06-05T05:50:14Z</time>
      </trkpt>
      <trkpt lat="48.5743950" lon="7.8240050">
        <ele>-259.8</ele>
        <time>2022-06-05T05:50:18Z</time>
      </trkpt>
      <trkpt lat="48.5742380" lon="7.8241350">
        <ele>-259.0</ele>
        <time>2022-06-05T05:50:22Z</time>
      </trkpt>
      <trkpt lat="48.5740800" lon="7.8242610">
        <ele>-259.8</ele>
        <time>2022-06-05T05:50:26Z</time>
      </trkpt>
      <trkpt lat="48.5739300" lon="7.8244150">
        <ele>-259.0</ele>
        <time>2022-06-05T05:50:30Z</time>
      </trkpt>
      <trkpt lat="48.5737800" lon="7.8245560">
        <ele>-259.2</ele>
        <time>2022-06-05T05:50:34Z</time>
      </trkpt>
      <trkpt lat="48.5736350" lon="7.8247060">
        <ele>-258.6</ele>
        <time>2022-06-05T05:50:38Z</time>
      </trkpt>
      <trkpt lat="48.5734860" lon="7.8248550">
        <ele>-259.4</ele>
        <time>2022-06-05T05:50:42Z</time>
      </trkpt>
      <trkpt lat="48.5733410" lon="7.8250010">
        <ele>-259.0</ele>
        <time>2022-06-05T05:50:46Z</time>
      </trkpt>
      <trkpt lat="48.5732000" lon="7.8251610">
        <ele>-259.4</ele>
        <time>2022-06-05T05:50:50Z</time>
      </trkpt>
      <trkpt lat="48.5730630" lon="7.8253230">
        <ele>-260.0</ele>
        <time>2022-06-05T05:50:54Z</time>
      </trkpt>
      <trkpt lat="48.5729260" lon="7.8254880">
        <ele>-260.0</ele>
        <time>2022-06-05T05:50:58Z</time>
      </trkpt>
      <trkpt lat="48.5727910" lon="7.8256580">
        <ele>-259.4</ele>
        <time>2022-06-05T05:51:02Z</time>
      </trkpt>
      <trkpt lat="48.5726580" lon="7.8258400">
        <ele>-260.0</ele>
        <time>2022-06-05T05:51:06Z</time>
      </trkpt>
      <trkpt lat="48.5725360" lon="7.8260210">
        <ele>-260.0</ele>
        <time>2022-06-05T05:51:10Z</time>
      </trkpt>
      <trkpt lat="48.5724150" lon="7.8262060">
        <ele>-260.2</ele>
        <time>2022-06-05T05:51:14Z</time>
      </trkpt>
      <trkpt lat="48.5722930" lon="7.8263930">
        <ele>-260.0</ele>
        <time>2022-06-05T05:51:18Z</time>
      </trkpt>
      <trkpt lat="48.5721700" lon="7.8265730">
        <ele>-260.4</ele>
        <time>2022-06-05T05:51:22Z</time>
      </trkpt>
      <trkpt lat="48.5720460" lon="7.8267630">
        <ele>-260.4</ele>
        <time>2022-06-05T05:51:26Z</time>
      </trkpt>
      <trkpt lat="48.5719310" lon="7.8269730">
        <ele>-260.0</ele>
        <time>2022-06-05T05:51:30Z</time>
      </trkpt>
      <trkpt lat="48.5718200" lon="7.8271750">
        <ele>-259.4</ele>
        <time>2022-06-05T05:51:34Z</time>
      </trkpt>
      <trkpt lat="48.5717130" lon="7.8273660">
        <ele>-259.8</ele>
        <time>2022-06-05T05:51:38Z</time>
      </trkpt>
      <trkpt lat="48.5716000" lon="7.8275610">
        <ele>-260.0</ele>
        <time>2022-06-05T05:51:42Z</time>
      </trkpt>
      <trkpt lat="48.5714980" lon="7.8277610">
        <ele>-259.4</ele>
        <time>2022-06-05T05:51:46Z</time>
      </trkpt>
      <trkpt lat="48.5714030" lon="7.8279660">
        <ele>-260.0</ele>
        <time>2022-06-05T05:51:50Z</time>
      </trkpt>
      <trkpt lat="48.5713100" lon="7.8281760">
        <ele>-260.0</ele>
        <time>2022-06-05T05:51:54Z</time>
      </trkpt>
      <trkpt lat="48.5712160" lon="7.8283860">
        <ele>-260.0</ele>
        <time>2022-06-05T05:51:58Z</time>
      </trkpt>
      <trkpt lat="48.5711350" lon="7.8285980">
        <ele>-259.8</ele>
        <time>2022-06-05T05:52:02Z</time>
      </trkpt>
      <trkpt lat="48.5710510" lon="7.8288030">
        <ele>-260.2</ele>
        <time>2022-06-05T05:52:06Z</time>
      </trkpt>
      <trkpt lat="48.5709710" lon="7.8290110">
        <ele>-259.8</ele>
        <time>2022-06-05T05:52:10Z</time>
      </trkpt>
      <trkpt lat="48.5708860" lon="7.8292280">
        <ele>-259.8</ele>
        <time>2022-06-05T05:52:14Z</time>
      </trkpt>
      <trkpt lat="48.5708010" lon="7.8294500">
        <ele>-260.0</ele>
        <time>2022-06-05T05:52:18Z</time>
      </trkpt>
      <trkpt lat="48.5707230" lon="7.8296750">
        <ele>-260.0</ele>
        <time>2022-06-05T05:52:22Z</time>
      </trkpt>
      <trkpt lat="48.5706480" lon="7.8299030">
        <ele>-260.0</ele>
        <time>2022-06-05T05:52:26Z</time>
      </trkpt>
      <trkpt lat="48.5705800" lon="7.8301310">
        <ele>-259.6</ele>
        <time>2022-06-05T05:52:30Z</time>
      </trkpt>
      <trkpt lat="48.5705150" lon="7.8303710">
        <ele>-259.4</ele>
        <time>2022-06-05T05:52:34Z</time>
      </trkpt>
      <trkpt lat="48.5704500" lon="7.8306080">
        <ele>-259.6</ele>
        <time>2022-06-05T05:52:38Z</time>
      </trkpt>
      <trkpt lat="48.5703860" lon="7.8308460">
        <ele>-259.2</ele>
        <time>2022-06-05T05:52:42Z</time>
      </trkpt>
      <trkpt lat="48.5703160" lon="7.8310900">
        <ele>-259.8</ele>
        <time>2022-06-05T05:52:46Z</time>
      </trkpt>
      <trkpt lat="48.5702530" lon="7.8313230">
        <ele>-259.4</ele>
        <time>2022-06-05T05:52:50Z</time>
      </trkpt>
      <trkpt lat="48.5701910" lon="7.8315600">
        <ele>-259.4</ele>
        <time>2022-06-05T05:52:54Z</time>
      </trkpt>
      <trkpt lat="48.5701330" lon="7.8318010">
        <ele>-260.0</ele>
        <time>2022-06-05T05:52:58Z</time>
      </trkpt>
      <trkpt lat="48.5700630" lon="7.8320410">
        <ele>-260.0</ele>
        <time>2022-06-05T05:53:02Z</time>
      </trkpt>
      <trkpt lat="48.5700000" lon="7.8322850">
        <ele>-260.0</ele>
        <time>2022-06-05T05:53:06Z</time>
      </trkpt>
      <trkpt lat="48.5699350" lon="7.8325260">
        <ele>-259.4</ele>
        <time>2022-06-05T05:53:10Z</time>
      </trkpt>
      <trkpt lat="48.5698710" lon="7.8327530">
        <ele>-260.0</ele>
        <time>2022-06-05T05:53:14Z</time>
      </trkpt>
      <trkpt lat="48.5698110" lon="7.8329800">
        <ele>-259.8</ele>
        <time>2022-06-05T05:53:18Z</time>
      </trkpt>
      <trkpt lat="48.5697530" lon="7.8332030">
        <ele>-260.4</ele>
        <time>2022-06-05T05:53:22Z</time>
      </trkpt>
      <trkpt lat="48.5696950" lon="7.8334380">
        <ele>-260.0</ele>
        <time>2022-06-05T05:53:26Z</time>
      </trkpt>
      <trkpt lat="48.5696330" lon="7.8336610">
        <ele>-258.6</ele>
        <time>2022-06-05T05:53:30Z</time>
      </trkpt>
      <trkpt lat="48.5695700" lon="7.8338900">
        <ele>-259.8</ele>
        <time>2022-06-05T05:53:34Z</time>
      </trkpt>
      <trkpt lat="48.5695100" lon="7.8341210">
        <ele>-259.0</ele>
        <time>2022-06-05T05:53:38Z</time>
      </trkpt>
      <trkpt lat="48.5694410" lon="7.8343450">
        <ele>-259.8</ele>
        <time>2022-06-05T05:53:42Z</time>
      </trkpt>
      <trkpt lat="48.5693780" lon="7.8345710">
        <ele>-258.8</ele>
        <time>2022-06-05T05:53:46Z</time>
      </trkpt>
      <trkpt lat="48.5693130" lon="7.8348030">
        <ele>-259.4</ele>
        <time>2022-06-05T05:53:50Z</time>
      </trkpt>
      <trkpt lat="48.5692500" lon="7.8350360">
        <ele>-258.8</ele>
        <time>2022-06-05T05:53:54Z</time>
      </trkpt>
      <trkpt lat="48.5691880" lon="7.8352660">
        <ele>-258.6</ele>
        <time>2022-06-05T05:53:58Z</time>
      </trkpt>
      <trkpt lat="48.5691280" lon="7.8354960">
        <ele>-258.6</ele>
        <time>2022-06-05T05:54:02Z</time>
      </trkpt>
      <trkpt lat="48.5690650" lon="7.8357260">
        <ele>-258.6</ele>
        <time>2022-06-05T05:54:06Z</time>
      </trkpt>
      <trkpt lat="48.5689980" lon="7.8359630">
        <ele>-258.8</ele>
        <time>2022-06-05T05:54:10Z</time>
      </trkpt>
      <trkpt lat="48.5689350" lon="7.8362030">
        <ele>-258.6</ele>
        <time>2022-06-05T05:54:14Z</time>
      </trkpt>
      <trkpt lat="48.5688700" lon="7.8364410">
        <ele>-258.4</ele>
        <time>2022-06-05T05:54:18Z</time>
      </trkpt>
      <trkpt lat="48.5688030" lon="7.8366800">
        <ele>-259.2</ele>
        <time>2022-06-05T05:54:22Z</time>
      </trkpt>
      <trkpt lat="48.5687430" lon="7.8369160">
        <ele>-258.8</ele>
        <time>2022-06-05T05:54:26Z</time>
      </trkpt>
      <trkpt lat="48.5686760" lon="7.8371530">
        <ele>-258.8</ele>
        <time>2022-06-05T05:54:30Z</time>
      </trkpt>
      <trkpt lat="48.5686080" lon="7.8373910">
        <ele>-259.8</ele>
        <time>2022-06-05T05:54:34Z</time>
      </trkpt>
      <trkpt lat="48.5685430" lon="7.8376310">
        <ele>-258.4</ele>
        <time>2022-06-05T05:54:38Z</time>
      </trkpt>
      <trkpt lat="48.5684800" lon="7.8378730">
        <ele>-258.8</ele>
        <time>2022-06-05T05:54:42Z</time>
      </trkpt>
      <trkpt lat="48.5684160" lon="7.8381130">
        <ele>-259.4</ele>
        <time>2022-06-05T05:54:46Z</time>
      </trkpt>
      <trkpt lat="48.5683550" lon="7.8383480">
        <ele>-259.2</ele>
        <time>2022-06-05T05:54:50Z</time>
      </trkpt>
      <trkpt lat="48.5682880" lon="7.8385810">
        <ele>-258.8</ele>
        <time>2022-06-05T05:54:54Z</time>
      </trkpt>
      <trkpt lat="48.5682210" lon="7.8388060">
        <ele>-258.4</ele>
        <time>2022-06-05T05:54:58Z</time>
      </trkpt>
      <trkpt lat="48.5681600" lon="7.8390360">
        <ele>-258.2</ele>
        <time>2022-06-05T05:55:02Z</time>
      </trkpt>
      <trkpt lat="48.5681000" lon="7.8392560">
        <ele>-259.0</ele>
        <time>2022-06-05T05:55:06Z</time>
      </trkpt>
      <trkpt lat="48.5680400" lon="7.8394750">
        <ele>-259.4</ele>
        <time>2022-06-05T05:55:10Z</time>
      </trkpt>
      <trkpt lat="48.5679750" lon="7.8397030">
        <ele>-258.4</ele>
        <time>2022-06-05T05:55:14Z</time>
      </trkpt>
      <trkpt lat="48.5678830" lon="7.8399010">
        <ele>-259.0</ele>
        <time>2022-06-05T05:55:18Z</time>
      </trkpt>
      <trkpt lat="48.5677700" lon="7.8400700">
        <ele>-259.6</ele>
        <time>2022-06-05T05:55:22Z</time>
      </trkpt>
      <trkpt lat="48.5676650" lon="7.8402430">
        <ele>-259.8</ele>
        <time>2022-06-05T05:55:26Z</time>
      </trkpt>
      <trkpt lat="48.5675560" lon="7.8404080">
        <ele>-258.2</ele>
        <time>2022-06-05T05:55:30Z</time>
      </trkpt>
      <trkpt lat="48.5674530" lon="7.8405810">
        <ele>-259.0</ele>
        <time>2022-06-05T05:55:34Z</time>
      </trkpt>
      <trkpt lat="48.5673550" lon="7.8407560">
        <ele>-259.0</ele>
        <time>2022-06-05T05:55:38Z</time>
      </trkpt>
      <trkpt lat="48.5672630" lon="7.8409360">
        <ele>-259.0</ele>
        <time>2022-06-05T05:55:42Z</time>
      </trkpt>
      <trkpt lat="48.5671710" lon="7.8411260">
        <ele>-258.4</ele>
        <time>2022-06-05T05:55:46Z</time>
      </trkpt>
      <trkpt lat="48.5670810" lon="7.8413160">
        <ele>-258.2</ele>
        <time>2022-06-05T05:55:50Z</time>
      </trkpt>
      <trkpt lat="48.5670010" lon="7.8415000">
        <ele>-258.0</ele>
        <time>2022-06-05T05:55:54Z</time>
      </trkpt>
      <trkpt lat="48.5669210" lon="7.8416880">
        <ele>-258.2</ele>
        <time>2022-06-05T05:55:58Z</time>
      </trkpt>
      <trkpt lat="48.5668350" lon="7.8418860">
        <ele>-258.6</ele>
        <time>2022-06-05T05:56:02Z</time>
      </trkpt>
      <trkpt lat="48.5667350" lon="7.8420760">
        <ele>-259.2</ele>
        <time>2022-06-05T05:56:06Z</time>
      </trkpt>
      <trkpt lat="48.5666180" lon="7.8422480">
        <ele>-258.4</ele>
        <time>2022-06-05T05:56:10Z</time>
      </trkpt>
      <trkpt lat="48.5664830" lon="7.8423850">
        <ele>-259.0</ele>
        <time>2022-06-05T05:56:14Z</time>
      </trkpt>
      <trkpt lat="48.5663460" lon="7.8425080">
        <ele>-258.8</ele>
        <time>2022-06-05T05:56:18Z</time>
      </trkpt>
      <trkpt lat="48.5662100" lon="7.8426380">
        <ele>-259.2</ele>
        <time>2022-06-05T05:56:22Z</time>
      </trkpt>
      <trkpt lat="48.5660750" lon="7.8427830">
        <ele>-258.6</ele>
        <time>2022-06-05T05:56:26Z</time>
      </trkpt>
      <trkpt lat="48.5659360" lon="7.8429180">
        <ele>-258.8</ele>
        <time>2022-06-05T05:56:30Z</time>
      </trkpt>
      <trkpt lat="48.5657860" lon="7.8430300">
        <ele>-259.2</ele>
        <time>2022-06-05T05:56:34Z</time>
      </trkpt>
      <trkpt lat="48.5656260" lon="7.8431250">
        <ele>-259.2</ele>
        <time>2022-06-05T05:56:38Z</time>
      </trkpt>
      <trkpt lat="48.5654800" lon="7.8432550">
        <ele>-259.4</ele>
        <time>2022-06-05T05:56:42Z</time>
      </trkpt>
      <trkpt lat="48.5653650" lon="7.8434360">
        <ele>-258.8</ele>
        <time>2022-06-05T05:56:46Z</time>
      </trkpt>
      <trkpt lat="48.5652700" lon="7.8436410">
        <ele>-258.4</ele>
        <time>2022-06-05T05:56:50Z</time>
      </trkpt>
      <trkpt lat="48.5651860" lon="7.8438460">
        <ele>-259.0</ele>
        <time>2022-06-05T05:56:54Z</time>
      </trkpt>
      <trkpt lat="48.5651480" lon="7.8440650">
        <ele>-258.8</ele>
        <time>2022-06-05T05:56:58Z</time>
      </trkpt>
      <trkpt lat="48.5651850" lon="7.8443330">
        <ele>-259.6</ele>
        <time>2022-06-05T05:57:02Z</time>
      </trkpt>
      <trkpt lat="48.5652160" lon="7.8446800">
        <ele>-262.0</ele>
        <time>2022-06-05T05:57:06Z</time>
      </trkpt>
      <trkpt lat="48.5652200" lon="7.8450230">
        <ele>-260.4</ele>
        <time>2022-06-05T05:57:10Z</time>
      </trkpt>
      <trkpt lat="48.5652400" lon="7.8453430">
        <ele>-261.8</ele>
        <time>2022-06-05T05:57:14Z</time>
      </trkpt>
      <trkpt lat="48.5652830" lon="7.8456400">
        <ele>-261.6</ele>
        <time>2022-06-05T05:57:18Z</time>
      </trkpt>
      <trkpt lat="48.5653160" lon="7.8459300">
        <ele>-261.8</ele>
        <time>2022-06-05T05:57:22Z</time>
      </trkpt>
      <trkpt lat="48.5653600" lon="7.8462110">
        <ele>-262.0</ele>
        <time>2022-06-05T05:57:26Z</time>
      </trkpt>
      <trkpt lat="48.5653950" lon="7.8464850">
        <ele>-261.0</ele>
        <time>2022-06-05T05:57:30Z</time>
      </trkpt>
      <trkpt lat="48.5654130" lon="7.8467500">
        <ele>-261.2</ele>
        <time>2022-06-05T05:57:34Z</time>
      </trkpt>
      <trkpt lat="48.5654210" lon="7.8469980">
        <ele>-261.0</ele>
        <time>2022-06-05T05:57:38Z</time>
      </trkpt>
      <trkpt lat="48.5653900" lon="7.8472430">
        <ele>-260.0</ele>
        <time>2022-06-05T05:57:42Z</time>
      </trkpt>
      <trkpt lat="48.5653130" lon="7.8474060">
        <ele>-259.6</ele>
        <time>2022-06-05T05:57:46Z</time>
      </trkpt>
      <trkpt lat="48.5651850" lon="7.8474350">
        <ele>-259.4</ele>
        <time>2022-06-05T05:57:50Z</time>
      </trkpt>
      <trkpt lat="48.5651000" lon="7.8473180">
        <ele>-259.2</ele>
        <time>2022-06-05T05:57:54Z</time>
      </trkpt>
      <trkpt lat="48.5650430" lon="7.8471150">
        <ele>-258.8</ele>
        <time>2022-06-05T05:57:58Z</time>
      </trkpt>
      <trkpt lat="48.5649260" lon="7.8469610">
        <ele>-258.2</ele>
        <time>2022-06-05T05:58:02Z</time>
      </trkpt>
      <trkpt lat="48.5647760" lon="7.8469650">
        <ele>-257.8</ele>
        <time>2022-06-05T05:58:06Z</time>
      </trkpt>
      <trkpt lat="48.5646230" lon="7.8469810">
        <ele>-257.6</ele>
        <time>2022-06-05T05:58:10Z</time>
      </trkpt>
      <trkpt lat="48.5644780" lon="7.8469850">
        <ele>-258.0</ele>
        <time>2022-06-05T05:58:14Z</time>
      </trkpt>
      <trkpt lat="48.5643360" lon="7.8470030">
        <ele>-258.0</ele>
        <time>2022-06-05T05:58:18Z</time>
      </trkpt>
      <trkpt lat="48.5641980" lon="7.8470050">
        <ele>-257.8</ele>
        <time>2022-06-05T05:58:22Z</time>
      </trkpt>
      <trkpt lat="48.5640560" lon="7.8469960">
        <ele>-257.4</ele>
        <time>2022-06-05T05:58:26Z</time>
      </trkpt>
      <trkpt lat="48.5639030" lon="7.8469830">
        <ele>-257.8</ele>
        <time>2022-06-05T05:58:30Z</time>
      </trkpt>
      <trkpt lat="48.5637480" lon="7.8469700">
        <ele>-257.6</ele>
        <time>2022-06-05T05:58:34Z</time>
      </trkpt>
      <trkpt lat="48.5635910" lon="7.8469380">
        <ele>-257.6</ele>
        <time>2022-06-05T05:58:38Z</time>
      </trkpt>
      <trkpt lat="48.5634300" lon="7.8469250">
        <ele>-257.8</ele>
        <time>2022-06-05T05:58:42Z</time>
      </trkpt>
      <trkpt lat="48.5632650" lon="7.8468930">
        <ele>-257.6</ele>
        <time>2022-06-05T05:58:46Z</time>
      </trkpt>
      <trkpt lat="48.5631030" lon="7.8468710">
        <ele>-257.2</ele>
        <time>2022-06-05T05:58:50Z</time>
      </trkpt>
      <trkpt lat="48.5629410" lon="7.8468450">
        <ele>-257.4</ele>
        <time>2022-06-05T05:58:54Z</time>
      </trkpt>
      <trkpt lat="48.5627780" lon="7.8468010">
        <ele>-257.2</ele>
        <time>2022-06-05T05:58:58Z</time>
      </trkpt>
      <trkpt lat="48.5626100" lon="7.8467760">
        <ele>-257.2</ele>
        <time>2022-06-05T05:59:02Z</time>
      </trkpt>
      <trkpt lat="48.5624430" lon="7.8467350">
        <ele>-256.8</ele>
        <time>2022-06-05T05:59:06Z</time>
      </trkpt>
      <trkpt lat="48.5622760" lon="7.8467100">
        <ele>-256.8</ele>
        <time>2022-06-05T05:59:10Z</time>
      </trkpt>
      <trkpt lat="48.5621100" lon="7.8466700">
        <ele>-256.4</ele>
        <time>2022-06-05T05:59:14Z</time>
      </trkpt>
      <trkpt lat="48.5619400" lon="7.8466250">
        <ele>-256.4</ele>
        <time>2022-06-05T05:59:18Z</time>
      </trkpt>
      <trkpt lat="48.5617700" lon="7.8465800">
        <ele>-256.4</ele>
        <time>2022-06-05T05:59:22Z</time>
      </trkpt>
      <trkpt lat="48.5616000" lon="7.8465430">
        <ele>-256.4</ele>
        <time>2022-06-05T05:59:26Z</time>
      </trkpt>
      <trkpt lat="48.5614300" lon="7.8464980">
        <ele>-256.2</ele>
        <time>2022-06-05T05:59:30Z</time>
      </trkpt>
      <trkpt lat="48.5612560" lon="7.8464750">
        <ele>-256.0</ele>
        <time>2022-06-05T05:59:34Z</time>
      </trkpt>
      <trkpt lat="48.5610800" lon="7.8464530">
        <ele>-256.4</ele>
        <time>2022-06-05T05:59:38Z</time>
      </trkpt>
      <trkpt lat="48.5609010" lon="7.8464410">
        <ele>-255.8</ele>
        <time>2022-06-05T05:59:42Z</time>
      </trkpt>
      <trkpt lat="48.5607230" lon="7.8464380">
        <ele>-256.2</ele>
        <time>2022-06-05T05:59:46Z</time>
      </trkpt>
      <trkpt lat="48.5605510" lon="7.8464310">
        <ele>-256.2</ele>
        <time>2022-06-05T05:59:50Z</time>
      </trkpt>
      <trkpt lat="48.5603830" lon="7.8464310">
        <ele>-255.4</ele>
        <time>2022-06-05T05:59:54Z</time>
      </trkpt>
      <trkpt lat="48.5602130" lon="7.8464260">
        <ele>-256.0</ele>
        <time>2022-06-05T05:59:58Z</time>
      </trkpt>
      <trkpt lat="48.5600410" lon="7.8464480">
        <ele>-255.6</ele>
        <time>2022-06-05T06:00:02Z</time>
      </trkpt>
      <trkpt lat="48.5598700" lon="7.8464500">
        <ele>-256.2</ele>
        <time>2022-06-05T06:00:06Z</time>
      </trkpt>
      <trkpt lat="48.5597000" lon="7.8464560">
        <ele>-255.6</ele>
        <time>2022-06-05T06:00:10Z</time>
      </trkpt>
      <trkpt lat="48.5595380" lon="7.8464600">
        <ele>-255.8</ele>
        <time>2022-06-05T06:00:14Z</time>
      </trkpt>
      <trkpt lat="48.5593680" lon="7.8464580">
        <ele>-255.2</ele>
        <time>2022-06-05T06:00:18Z</time>
      </trkpt>
      <trkpt lat="48.5591980" lon="7.8464560">
        <ele>-255.0</ele>
        <time>2022-06-05T06:00:22Z</time>
      </trkpt>
      <trkpt lat="48.5590260" lon="7.8464530">
        <ele>-254.8</ele>
        <time>2022-06-05T06:00:26Z</time>
      </trkpt>
      <trkpt lat="48.5588560" lon="7.8464460">
        <ele>-255.2</ele>
        <time>2022-06-05T06:00:30Z</time>
      </trkpt>
      <trkpt lat="48.5586930" lon="7.8464360">
        <ele>-254.4</ele>
        <time>2022-06-05T06:00:34Z</time>
      </trkpt>
      <trkpt lat="48.5585310" lon="7.8464380">
        <ele>-254.6</ele>
        <time>2022-06-05T06:00:38Z</time>
      </trkpt>
      <trkpt lat="48.5583650" lon="7.8464400">
        <ele>-254.6</ele>
        <time>2022-06-05T06:00:42Z</time>
      </trkpt>
      <trkpt lat="48.5582030" lon="7.8464360">
        <ele>-254.6</ele>
        <time>2022-06-05T06:00:46Z</time>
      </trkpt>
      <trkpt lat="48.5580450" lon="7.8464430">
        <ele>-254.4</ele>
        <time>2022-06-05T06:00:50Z</time>
      </trkpt>
      <trkpt lat="48.5579450" lon="7.8465380">
        <ele>-255.2</ele>
        <time>2022-06-05T06:00:54Z</time>
      </trkpt>
      <trkpt lat="48.5578330" lon="7.8466010">
        <ele>-255.4</ele>
        <time>2022-06-05T06:00:58Z</time>
      </trkpt>
      <trkpt lat="48.5576750" lon="7.8466000">
        <ele>-255.2</ele>
        <time>2022-06-05T06:01:02Z</time>
      </trkpt>
      <trkpt lat="48.5575110" lon="7.8466300">
        <ele>-254.8</ele>
        <time>2022-06-05T06:01:06Z</time>
      </trkpt>
      <trkpt lat="48.5573500" lon="7.8466580">
        <ele>-254.6</ele>
        <time>2022-06-05T06:01:10Z</time>
      </trkpt>
      <trkpt lat="48.5571880" lon="7.8466930">
        <ele>-255.2</ele>
        <time>2022-06-05T06:01:14Z</time>
      </trkpt>
      <trkpt lat="48.5570030" lon="7.8467580">
        <ele>-256.2</ele>
        <time>2022-06-05T06:01:18Z</time>
      </trkpt>
      <trkpt lat="48.5567950" lon="7.8468560">
        <ele>-257.0</ele>
        <time>2022-06-05T06:01:22Z</time>
      </trkpt>
      <trkpt lat="48.5566300" lon="7.8470430">
        <ele>-256.6</ele>
        <time>2022-06-05T06:01:26Z</time>
      </trkpt>
      <trkpt lat="48.5565110" lon="7.8472760">
        <ele>-256.6</ele>
        <time>2022-06-05T06:01:30Z</time>
      </trkpt>
      <trkpt lat="48.5564160" lon="7.8475100">
        <ele>-256.2</ele>
        <time>2022-06-05T06:01:34Z</time>
      </trkpt>
      <trkpt lat="48.5563030" lon="7.8477130">
        <ele>-256.0</ele>
        <time>2022-06-05T06:01:38Z</time>
      </trkpt>
      <trkpt lat="48.5561900" lon="7.8479150">
        <ele>-256.2</ele>
        <time>2022-06-05T06:01:42Z</time>
      </trkpt>
      <trkpt lat="48.5560730" lon="7.8480880">
        <ele>-256.4</ele>
        <time>2022-06-05T06:01:46Z</time>
      </trkpt>
      <trkpt lat="48.5559180" lon="7.8481850">
        <ele>-256.0</ele>
        <time>2022-06-05T06:01:50Z</time>
      </trkpt>
      <trkpt lat="48.5557900" lon="7.8482350">
        <ele>-254.4</ele>
        <time>2022-06-05T06:01:54Z</time>
      </trkpt>
      <trkpt lat="48.5556910" lon="7.8482960">
        <ele>-254.0</ele>
        <time>2022-06-05T06:01:58Z</time>
      </trkpt>
      <trkpt lat="48.5555950" lon="7.8484360">
        <ele>-254.4</ele>
        <time>2022-06-05T06:02:02Z</time>
      </trkpt>
      <trkpt lat="48.5556460" lon="7.8486380">
        <ele>-253.8</ele>
        <time>2022-06-05T06:02:06Z</time>
      </trkpt>
      <trkpt lat="48.5557550" lon="7.8488010">
        <ele>-253.8</ele>
        <time>2022-06-05T06:02:10Z</time>
      </trkpt>
      <trkpt lat="48.5558760" lon="7.8489610">
        <ele>-253.4</ele>
        <time>2022-06-05T06:02:14Z</time>
      </trkpt>
      <trkpt lat="48.5559930" lon="7.8491400">
        <ele>-253.4</ele>
        <time>2022-06-05T06:02:18Z</time>
      </trkpt>
      <trkpt lat="48.5561150" lon="7.8493110">
        <ele>-253.2</ele>
        <time>2022-06-05T06:02:22Z</time>
      </trkpt>
      <trkpt lat="48.5562330" lon="7.8494850">
        <ele>-253.4</ele>
        <time>2022-06-05T06:02:26Z</time>
      </trkpt>
      <trkpt lat="48.5563410" lon="7.8496600">
        <ele>-253.6</ele>
        <time>2022-06-05T06:02:30Z</time>
      </trkpt>
      <trkpt lat="48.5564430" lon="7.8498400">
        <ele>-254.0</ele>
        <time>2022-06-05T06:02:34Z</time>
      </trkpt>
      <trkpt lat="48.5565600" lon="7.8500250">
        <ele>-254.0</ele>
        <time>2022-06-05T06:02:38Z</time>
      </trkpt>
      <trkpt lat="48.5566760" lon="7.8502150">
        <ele>-254.0</ele>
        <time>2022-06-05T06:02:42Z</time>
      </trkpt>
      <trkpt lat="48.5567980" lon="7.8504050">
        <ele>-254.0</ele>
        <time>2022-06-05T06:02:46Z</time>
      </trkpt>
      <trkpt lat="48.5569160" lon="7.8505950">
        <ele>-254.0</ele>
        <time>2022-06-05T06:02:50Z</time>
      </trkpt>
      <trkpt lat="48.5570350" lon="7.8507830">
        <ele>-254.0</ele>
        <time>2022-06-05T06:02:54Z</time>
      </trkpt>
      <trkpt lat="48.5571510" lon="7.8509900">
        <ele>-254.2</ele>
        <time>2022-06-05T06:02:58Z</time>
      </trkpt>
      <trkpt lat="48.5572650" lon="7.8511930">
        <ele>-254.2</ele>
        <time>2022-06-05T06:03:02Z</time>
      </trkpt>
      <trkpt lat="48.5573810" lon="7.8513910">
        <ele>-254.2</ele>
        <time>2022-06-05T06:03:06Z</time>
      </trkpt>
      <trkpt lat="48.5574780" lon="7.8515660">
        <ele>-254.8</ele>
        <time>2022-06-05T06:03:10Z</time>
      </trkpt>
      <trkpt lat="48.5574650" lon="7.8515900">
        <ele>-254.8</ele>
        <time>2022-06-05T06:03:14Z</time>
      </trkpt>
      <trkpt lat="48.5574400" lon="7.8515180">
        <ele>-254.4</ele>
        <time>2022-06-05T06:03:18Z</time>
      </trkpt>
      <trkpt lat="48.5574030" lon="7.8514450">
        <ele>-254.4</ele>
        <time>2022-06-05T06:03:22Z</time>
      </trkpt>
      <trkpt lat="48.5573710" lon="7.8513830">
        <ele>-254.4</ele>
        <time>2022-06-05T06:03:26Z</time>
      </trkpt>
      <trkpt lat="48.5573260" lon="7.8513400">
        <ele>-254.2</ele>
        <time>2022-06-05T06:03:30Z</time>
      </trkpt>
      <trkpt lat="48.5572900" lon="7.8512530">
        <ele>-254.2</ele>
        <time>2022-06-05T06:03:34Z</time>
      </trkpt>
      <trkpt lat="48.5572550" lon="7.8512180">
        <ele>-254.0</ele>
        <time>2022-06-05T06:03:38Z</time>
      </trkpt>
      <trkpt lat="48.5572550" lon="7.8512180">
        <ele>-254.4</ele>
        <time>2022-06-05T06:03:42Z</time>
      </trkpt>
      <trkpt lat="48.5572280" lon="7.8512680">
        <ele>-254.8</ele>
        <time>2022-06-05T06:03:46Z</time>
      </trkpt>
      <trkpt lat="48.5571910" lon="7.8512980">
        <ele>-255.6</ele>
        <time>2022-06-05T06:03:50Z</time>
      </trkpt>
      <trkpt lat="48.5571650" lon="7.8513380">
        <ele>-255.8</ele>
        <time>2022-06-05T06:03:54Z</time>
      </trkpt>
      <trkpt lat="48.5571300" lon="7.8513880">
        <ele>-255.8</ele>
        <time>2022-06-05T06:03:58Z</time>
      </trkpt>
      <trkpt lat="48.5570960" lon="7.8514680">
        <ele>-256.0</ele>
        <time>2022-06-05T06:04:02Z</time>
      </trkpt>
      <trkpt lat="48.5571410" lon="7.8515960">
        <ele>-255.8</ele>
        <time>2022-06-05T06:04:06Z</time>
      </trkpt>
      <trkpt lat="48.5571930" lon="7.8516960">
        <ele>-256.2</ele>
        <time>2022-06-05T06:04:10Z</time>
      </trkpt>
      <trkpt lat="48.5572500" lon="7.8517500">
        <ele>-255.8</ele>
        <time>2022-06-05T06:04:14Z</time>
      </trkpt>
      <trkpt lat="48.5573010" lon="7.8518450">
        <ele>-256.4</ele>
        <time>2022-06-05T06:04:18Z</time>
      </trkpt>
      <trkpt lat="48.5573700" lon="7.8519550">
        <ele>-255.8</ele>
        <time>2022-06-05T06:04:22Z</time>
      </trkpt>
      <trkpt lat="48.5574430" lon="7.8520950">
        <ele>-256.0</ele>
        <time>2022-06-05T06:04:26Z</time>
      </trkpt>
      <trkpt lat="48.5575280" lon="7.8522410">
        <ele>-255.6</ele>
        <time>2022-06-05T06:04:30Z</time>
      </trkpt>
      <trkpt lat="48.5576150" lon="7.8524050">
        <ele>-255.6</ele>
        <time>2022-06-05T06:04:34Z</time>
      </trkpt>
      <trkpt lat="48.5576980" lon="7.8525730">
        <ele>-255.4</ele>
        <time>2022-06-05T06:04:38Z</time>
      </trkpt>
      <trkpt lat="48.5577750" lon="7.8527510">
        <ele>-255.2</ele>
        <time>2022-06-05T06:04:42Z</time>
      </trkpt>
      <trkpt lat="48.5578010" lon="7.8529130">
        <ele>-255.4</ele>
        <time>2022-06-05T06:04:46Z</time>
      </trkpt>
      <trkpt lat="48.5577010" lon="7.8530330">
        <ele>-256.0</ele>
        <time>2022-06-05T06:04:50Z</time>
      </trkpt>
      <trkpt lat="48.5575800" lon="7.8531580">
        <ele>-255.8</ele>
        <time>2022-06-05T06:04:54Z</time>
      </trkpt>
      <trkpt lat="48.5574630" lon="7.8533230">
        <ele>-255.2</ele>
        <time>2022-06-05T06:04:58Z</time>
      </trkpt>
      <trkpt lat="48.5573660" lon="7.8535180">
        <ele>-255.8</ele>
        <time>2022-06-05T06:05:02Z</time>
      </trkpt>
      <trkpt lat="48.5572580" lon="7.8537100">
        <ele>-255.8</ele>
        <time>2022-06-05T06:05:06Z</time>
      </trkpt>
      <trkpt lat="48.5571360" lon="7.8538810">
        <ele>-255.8</ele>
        <time>2022-06-05T06:05:10Z</time>
      </trkpt>
      <trkpt lat="48.5569980" lon="7.8540230">
        <ele>-256.0</ele>
        <time>2022-06-05T06:05:14Z</time>
      </trkpt>
      <trkpt lat="48.5568510" lon="7.8541580">
        <ele>-255.8</ele>
        <time>2022-06-05T06:05:18Z</time>
      </trkpt>
      <trkpt lat="48.5567030" lon="7.8542910">
        <ele>-256.0</ele>
        <time>2022-06-05T06:05:22Z</time>
      </trkpt>
      <trkpt lat="48.5565560" lon="7.8544300">
        <ele>-256.2</ele>
        <time>2022-06-05T06:05:26Z</time>
      </trkpt>
      <trkpt lat="48.5564130" lon="7.8545850">
        <ele>-255.8</ele>
        <time>2022-06-05T06:05:30Z</time>
      </trkpt>
      <trkpt lat="48.5562830" lon="7.8547650">
        <ele>-256.2</ele>
        <time>2022-06-05T06:05:34Z</time>
      </trkpt>
      <trkpt lat="48.5561710" lon="7.8549660">
        <ele>-256.6</ele>
        <time>2022-06-05T06:05:38Z</time>
      </trkpt>
      <trkpt lat="48.5560700" lon="7.8551760">
        <ele>-256.6</ele>
        <time>2022-06-05T06:05:42Z</time>
      </trkpt>
      <trkpt lat="48.5559680" lon="7.8553850">
        <ele>-256.4</ele>
        <time>2022-06-05T06:05:46Z</time>
      </trkpt>
      <trkpt lat="48.5558580" lon="7.8555880">
        <ele>-255.8</ele>
        <time>2022-06-05T06:05:50Z</time>
      </trkpt>
      <trkpt lat="48.5557300" lon="7.8557600">
        <ele>-256.6</ele>
        <time>2022-06-05T06:05:54Z</time>
      </trkpt>
      <trkpt lat="48.5555800" lon="7.8558880">
        <ele>-255.8</ele>
        <time>2022-06-05T06:05:58Z</time>
      </trkpt>
      <trkpt lat="48.5554010" lon="7.8559500">
        <ele>-256.0</ele>
        <time>2022-06-05T06:06:02Z</time>
      </trkpt>
      <trkpt lat="48.5552130" lon="7.8559500">
        <ele>-256.8</ele>
        <time>2022-06-05T06:06:06Z</time>
      </trkpt>
      <trkpt lat="48.5550300" lon="7.8559330">
        <ele>-256.4</ele>
        <time>2022-06-05T06:06:10Z</time>
      </trkpt>
      <trkpt lat="48.5548430" lon="7.8559110">
        <ele>-256.4</ele>
        <time>2022-06-05T06:06:14Z</time>
      </trkpt>
      <trkpt lat="48.5546610" lon="7.8559110">
        <ele>-256.8</ele>
        <time>2022-06-05T06:06:18Z</time>
      </trkpt>
      <trkpt lat="48.5544810" lon="7.8559530">
        <ele>-257.0</ele>
        <time>2022-06-05T06:06:22Z</time>
      </trkpt>
      <trkpt lat="48.5543160" lon="7.8560600">
        <ele>-256.8</ele>
        <time>2022-06-05T06:06:26Z</time>
      </trkpt>
      <trkpt lat="48.5541780" lon="7.8562260">
        <ele>-256.4</ele>
        <time>2022-06-05T06:06:30Z</time>
      </trkpt>
      <trkpt lat="48.5540600" lon="7.8564250">
        <ele>-256.6</ele>
        <time>2022-06-05T06:06:34Z</time>
      </trkpt>
      <trkpt lat="48.5539580" lon="7.8566410">
        <ele>-256.6</ele>
        <time>2022-06-05T06:06:38Z</time>
      </trkpt>
      <trkpt lat="48.5538560" lon="7.8568610">
        <ele>-256.6</ele>
        <time>2022-06-05T06:06:42Z</time>
      </trkpt>
      <trkpt lat="48.5537600" lon="7.8570900">
        <ele>-256.6</ele>
        <time>2022-06-05T06:06:46Z</time>
      </trkpt>
      <trkpt lat="48.5536550" lon="7.8573180">
        <ele>-256.6</ele>
        <time>2022-06-05T06:06:50Z</time>
      </trkpt>
      <trkpt lat="48.5535400" lon="7.8575180">
        <ele>-256.6</ele>
        <time>2022-06-05T06:06:54Z</time>
      </trkpt>
      <trkpt lat="48.5534100" lon="7.8576930">
        <ele>-256.2</ele>
        <time>2022-06-05T06:06:58Z</time>
      </trkpt>
      <trkpt lat="48.5532780" lon="7.8578660">
        <ele>-256.2</ele>
        <time>2022-06-05T06:07:02Z</time>
      </trkpt>
      <trkpt lat="48.5531400" lon="7.8580200">
        <ele>-256.2</ele>
        <time>2022-06-05T06:07:06Z</time>
      </trkpt>
      <trkpt lat="48.5530000" lon="7.8581700">
        <ele>-256.2</ele>
        <time>2022-06-05T06:07:10Z</time>
      </trkpt>
      <trkpt lat="48.5528530" lon="7.8583080">
        <ele>-256.0</ele>
        <time>2022-06-05T06:07:14Z</time>
      </trkpt>
      <trkpt lat="48.5527100" lon="7.8584430">
        <ele>-256.0</ele>
        <time>2022-06-05T06:07:18Z</time>
      </trkpt>
      <trkpt lat="48.5525700" lon="7.8585700">
        <ele>-256.4</ele>
        <time>2022-06-05T06:07:22Z</time>
      </trkpt>
      <trkpt lat="48.5524260" lon="7.8587000">
        <ele>-256.4</ele>
        <time>2022-06-05T06:07:26Z</time>
      </trkpt>
      <trkpt lat="48.5522800" lon="7.8588300">
        <ele>-256.2</ele>
        <time>2022-06-05T06:07:30Z</time>
      </trkpt>
      <trkpt lat="48.5521310" lon="7.8589510">
        <ele>-256.4</ele>
        <time>2022-06-05T06:07:34Z</time>
      </trkpt>
      <trkpt lat="48.5519700" lon="7.8590560">
        <ele>-256.2</ele>
        <time>2022-06-05T06:07:38Z</time>
      </trkpt>
      <trkpt lat="48.5518050" lon="7.8591300">
        <ele>-256.0</ele>
        <time>2022-06-05T06:07:42Z</time>
      </trkpt>
      <trkpt lat="48.5516360" lon="7.8591860">
        <ele>-256.6</ele>
        <time>2022-06-05T06:07:46Z</time>
      </trkpt>
      <trkpt lat="48.5514650" lon="7.8592430">
        <ele>-256.2</ele>
        <time>2022-06-05T06:07:50Z</time>
      </trkpt>
      <trkpt lat="48.5512910" lon="7.8592930">
        <ele>-256.0</ele>
        <time>2022-06-05T06:07:54Z</time>
      </trkpt>
      <trkpt lat="48.5511200" lon="7.8593710">
        <ele>-256.6</ele>
        <time>2022-06-05T06:07:58Z</time>
      </trkpt>
      <trkpt lat="48.5509560" lon="7.8594730">
        <ele>-256.4</ele>
        <time>2022-06-05T06:08:02Z</time>
      </trkpt>
      <trkpt lat="48.5507880" lon="7.8595530">
        <ele>-256.6</ele>
        <time>2022-06-05T06:08:06Z</time>
      </trkpt>
      <trkpt lat="48.5506230" lon="7.8596460">
        <ele>-256.4</ele>
        <time>2022-06-05T06:08:10Z</time>
      </trkpt>
      <trkpt lat="48.5504550" lon="7.8597360">
        <ele>-256.0</ele>
        <time>2022-06-05T06:08:14Z</time>
      </trkpt>
      <trkpt lat="48.5502900" lon="7.8598160">
        <ele>-255.6</ele>
        <time>2022-06-05T06:08:18Z</time>
      </trkpt>
      <trkpt lat="48.5501230" lon="7.8598880">
        <ele>-255.8</ele>
        <time>2022-06-05T06:08:22Z</time>
      </trkpt>
      <trkpt lat="48.5499580" lon="7.8599580">
        <ele>-255.4</ele>
        <time>2022-06-05T06:08:26Z</time>
      </trkpt>
      <trkpt lat="48.5497910" lon="7.8600200">
        <ele>-255.8</ele>
        <time>2022-06-05T06:08:30Z</time>
      </trkpt>
      <trkpt lat="48.5496230" lon="7.8600800">
        <ele>-255.8</ele>
        <time>2022-06-05T06:08:34Z</time>
      </trkpt>
      <trkpt lat="48.5494530" lon="7.8601430">
        <ele>-256.2</ele>
        <time>2022-06-05T06:08:38Z</time>
      </trkpt>
      <trkpt lat="48.5492810" lon="7.8602150">
        <ele>-255.8</ele>
        <time>2022-06-05T06:08:42Z</time>
      </trkpt>
      <trkpt lat="48.5491110" lon="7.8602810">
        <ele>-256.0</ele>
        <time>2022-06-05T06:08:46Z</time>
      </trkpt>
      <trkpt lat="48.5489400" lon="7.8603460">
        <ele>-256.4</ele>
        <time>2022-06-05T06:08:50Z</time>
      </trkpt>
      <trkpt lat="48.5487700" lon="7.8604060">
        <ele>-255.2</ele>
        <time>2022-06-05T06:08:54Z</time>
      </trkpt>
      <trkpt lat="48.5486000" lon="7.8604600">
        <ele>-255.4</ele>
        <time>2022-06-05T06:08:58Z</time>
      </trkpt>
      <trkpt lat="48.5484300" lon="7.8605130">
        <ele>-255.4</ele>
        <time>2022-06-05T06:09:02Z</time>
      </trkpt>
      <trkpt lat="48.5482560" lon="7.8605560">
        <ele>-255.0</ele>
        <time>2022-06-05T06:09:06Z</time>
      </trkpt>
      <trkpt lat="48.5480850" lon="7.8606410">
        <ele>-255.2</ele>
        <time>2022-06-05T06:09:10Z</time>
      </trkpt>
      <trkpt lat="48.5479380" lon="7.8608080">
        <ele>-255.6</ele>
        <time>2022-06-05T06:09:14Z</time>
      </trkpt>
      <trkpt lat="48.5477680" lon="7.8609030">
        <ele>-255.2</ele>
        <time>2022-06-05T06:09:18Z</time>
      </trkpt>
      <trkpt lat="48.5475780" lon="7.8608980">
        <ele>-255.2</ele>
        <time>2022-06-05T06:09:22Z</time>
      </trkpt>
      <trkpt lat="48.5473900" lon="7.8608630">
        <ele>-255.4</ele>
        <time>2022-06-05T06:09:26Z</time>
      </trkpt>
      <trkpt lat="48.5472060" lon="7.8608200">
        <ele>-255.0</ele>
        <time>2022-06-05T06:09:30Z</time>
      </trkpt>
      <trkpt lat="48.5470180" lon="7.8608110">
        <ele>-255.6</ele>
        <time>2022-06-05T06:09:34Z</time>
      </trkpt>
      <trkpt lat="48.5468360" lon="7.8608460">
        <ele>-255.6</ele>
        <time>2022-06-05T06:09:38Z</time>
      </trkpt>
      <trkpt lat="48.5466660" lon="7.8609430">
        <ele>-255.4</ele>
        <time>2022-06-05T06:09:42Z</time>
      </trkpt>
      <trkpt lat="48.5465050" lon="7.8610830">
        <ele>-255.2</ele>
        <time>2022-06-05T06:09:46Z</time>
      </trkpt>
      <trkpt lat="48.5463530" lon="7.8612310">
        <ele>-255.4</ele>
        <time>2022-06-05T06:09:50Z</time>
      </trkpt>
      <trkpt lat="48.5461880" lon="7.8613530">
        <ele>-255.6</ele>
        <time>2022-06-05T06:09:54Z</time>
      </trkpt>
      <trkpt lat="48.5460010" lon="7.8614550">
        <ele>-255.4</ele>
        <time>2022-06-05T06:09:58Z</time>
      </trkpt>
      <trkpt lat="48.5458210" lon="7.8615310">
        <ele>-255.2</ele>
        <time>2022-06-05T06:10:02Z</time>
      </trkpt>
      <trkpt lat="48.5456460" lon="7.8616180">
        <ele>-255.4</ele>
        <time>2022-06-05T06:10:06Z</time>
      </trkpt>
      <trkpt lat="48.5454730" lon="7.8617010">
        <ele>-255.4</ele>
        <time>2022-06-05T06:10:10Z</time>
      </trkpt>
      <trkpt lat="48.5453000" lon="7.8617800">
        <ele>-254.6</ele>
        <time>2022-06-05T06:10:14Z</time>
      </trkpt>
      <trkpt lat="48.5451260" lon="7.8618710">
        <ele>-254.8</ele>
        <time>2022-06-05T06:10:18Z</time>
      </trkpt>
      <trkpt lat="48.5449600" lon="7.8619830">
        <ele>-255.4</ele>
        <time>2022-06-05T06:10:22Z</time>
      </trkpt>
      <trkpt lat="48.5448130" lon="7.8621330">
        <ele>-255.2</ele>
        <time>2022-06-05T06:10:26Z</time>
      </trkpt>
      <trkpt lat="48.5446650" lon="7.8622730">
        <ele>-255.0</ele>
        <time>2022-06-05T06:10:30Z</time>
      </trkpt>
      <trkpt lat="48.5445080" lon="7.8624010">
        <ele>-254.4</ele>
        <time>2022-06-05T06:10:34Z</time>
      </trkpt>
      <trkpt lat="48.5443430" lon="7.8625030">
        <ele>-254.4</ele>
        <time>2022-06-05T06:10:38Z</time>
      </trkpt>
      <trkpt lat="48.5441680" lon="7.8625660">
        <ele>-254.4</ele>
        <time>2022-06-05T06:10:42Z</time>
      </trkpt>
      <trkpt lat="48.5440000" lon="7.8626510">
        <ele>-255.0</ele>
        <time>2022-06-05T06:10:46Z</time>
      </trkpt>
      <trkpt lat="48.5438430" lon="7.8627710">
        <ele>-255.0</ele>
        <time>2022-06-05T06:10:50Z</time>
      </trkpt>
      <trkpt lat="48.5436950" lon="7.8629050">
        <ele>-255.4</ele>
        <time>2022-06-05T06:10:54Z</time>
      </trkpt>
      <trkpt lat="48.5435630" lon="7.8630660">
        <ele>-255.2</ele>
        <time>2022-06-05T06:10:58Z</time>
      </trkpt>
      <trkpt lat="48.5434300" lon="7.8632300">
        <ele>-255.2</ele>
        <time>2022-06-05T06:11:02Z</time>
      </trkpt>
      <trkpt lat="48.5432880" lon="7.8633800">
        <ele>-254.2</ele>
        <time>2022-06-05T06:11:06Z</time>
      </trkpt>
      <trkpt lat="48.5431360" lon="7.8635080">
        <ele>-254.4</ele>
        <time>2022-06-05T06:11:10Z</time>
      </trkpt>
      <trkpt lat="48.5429730" lon="7.8636130">
        <ele>-254.8</ele>
        <time>2022-06-05T06:11:14Z</time>
      </trkpt>
      <trkpt lat="48.5428030" lon="7.8637130">
        <ele>-255.4</ele>
        <time>2022-06-05T06:11:18Z</time>
      </trkpt>
      <trkpt lat="48.5426410" lon="7.8638550">
        <ele>-255.4</ele>
        <time>2022-06-05T06:11:22Z</time>
      </trkpt>
      <trkpt lat="48.5425030" lon="7.8640230">
        <ele>-255.4</ele>
        <time>2022-06-05T06:11:26Z</time>
      </trkpt>
      <trkpt lat="48.5423960" lon="7.8642330">
        <ele>-255.0</ele>
        <time>2022-06-05T06:11:30Z</time>
      </trkpt>
      <trkpt lat="48.5423310" lon="7.8644710">
        <ele>-254.8</ele>
        <time>2022-06-05T06:11:34Z</time>
      </trkpt>
      <trkpt lat="48.5422850" lon="7.8647010">
        <ele>-254.8</ele>
        <time>2022-06-05T06:11:38Z</time>
      </trkpt>
      <trkpt lat="48.5422310" lon="7.8649460">
        <ele>-255.0</ele>
        <time>2022-06-05T06:11:42Z</time>
      </trkpt>
      <trkpt lat="48.5421680" lon="7.8652050">
        <ele>-254.8</ele>
        <time>2022-06-05T06:11:46Z</time>
      </trkpt>
      <trkpt lat="48.5421050" lon="7.8654450">
        <ele>-254.2</ele>
        <time>2022-06-05T06:11:50Z</time>
      </trkpt>
      <trkpt lat="48.5420310" lon="7.8656660">
        <ele>-254.2</ele>
        <time>2022-06-05T06:11:54Z</time>
      </trkpt>
      <trkpt lat="48.5419530" lon="7.8658900">
        <ele>-254.6</ele>
        <time>2022-06-05T06:11:58Z</time>
      </trkpt>
      <trkpt lat="48.5418650" lon="7.8661010">
        <ele>-254.6</ele>
        <time>2022-06-05T06:12:02Z</time>
      </trkpt>
      <trkpt lat="48.5417760" lon="7.8663200">
        <ele>-254.8</ele>
        <time>2022-06-05T06:12:06Z</time>
      </trkpt>
      <trkpt lat="48.5416850" lon="7.8665300">
        <ele>-255.0</ele>
        <time>2022-06-05T06:12:10Z</time>
      </trkpt>
      <trkpt lat="48.5415910" lon="7.8667360">
        <ele>-254.8</ele>
        <time>2022-06-05T06:12:14Z</time>
      </trkpt>
      <trkpt lat="48.5414930" lon="7.8669360">
        <ele>-254.2</ele>
        <time>2022-06-05T06:12:18Z</time>
      </trkpt>
      <trkpt lat="48.5413930" lon="7.8671430">
        <ele>-255.4</ele>
        <time>2022-06-05T06:12:22Z</time>
      </trkpt>
      <trkpt lat="48.5412910" lon="7.8673460">
        <ele>-254.8</ele>
        <time>2022-06-05T06:12:26Z</time>
      </trkpt>
      <trkpt lat="48.5411880" lon="7.8675410">
        <ele>-254.2</ele>
        <time>2022-06-05T06:12:30Z</time>
      </trkpt>
      <trkpt lat="48.5410760" lon="7.8677310">
        <ele>-255.2</ele>
        <time>2022-06-05T06:12:34Z</time>
      </trkpt>
      <trkpt lat="48.5409580" lon="7.8679080">
        <ele>-255.4</ele>
        <time>2022-06-05T06:12:38Z</time>
      </trkpt>
      <trkpt lat="48.5408510" lon="7.8681060">
        <ele>-254.2</ele>
        <time>2022-06-05T06:12:42Z</time>
      </trkpt>
      <trkpt lat="48.5407430" lon="7.8683000">
        <ele>-254.6</ele>
        <time>2022-06-05T06:12:46Z</time>
      </trkpt>
      <trkpt lat="48.5406500" lon="7.8685010">
        <ele>-254.2</ele>
        <time>2022-06-05T06:12:50Z</time>
      </trkpt>
      <trkpt lat="48.5405660" lon="7.8687130">
        <ele>-254.0</ele>
        <time>2022-06-05T06:12:54Z</time>
      </trkpt>
      <trkpt lat="48.5404910" lon="7.8689400">
        <ele>-254.2</ele>
        <time>2022-06-05T06:12:58Z</time>
      </trkpt>
      <trkpt lat="48.5404180" lon="7.8691650">
        <ele>-254.6</ele>
        <time>2022-06-05T06:13:02Z</time>
      </trkpt>
      <trkpt lat="48.5403330" lon="7.8693830">
        <ele>-254.2</ele>
        <time>2022-06-05T06:13:06Z</time>
      </trkpt>
      <trkpt lat="48.5402330" lon="7.8695830">
        <ele>-254.2</ele>
        <time>2022-06-05T06:13:10Z</time>
      </trkpt>
      <trkpt lat="48.5401180" lon="7.8697610">
        <ele>-254.4</ele>
        <time>2022-06-05T06:13:14Z</time>
      </trkpt>
      <trkpt lat="48.5399910" lon="7.8699060">
        <ele>-254.8</ele>
        <time>2022-06-05T06:13:18Z</time>
      </trkpt>
      <trkpt lat="48.5398560" lon="7.8700260">
        <ele>-255.0</ele>
        <time>2022-06-05T06:13:22Z</time>
      </trkpt>
      <trkpt lat="48.5397200" lon="7.8701500">
        <ele>-255.0</ele>
        <time>2022-06-05T06:13:26Z</time>
      </trkpt>
      <trkpt lat="48.5395830" lon="7.8702800">
        <ele>-254.8</ele>
        <time>2022-06-05T06:13:30Z</time>
      </trkpt>
      <trkpt lat="48.5394480" lon="7.8704230">
        <ele>-254.6</ele>
        <time>2022-06-05T06:13:34Z</time>
      </trkpt>
      <trkpt lat="48.5393110" lon="7.8705660">
        <ele>-254.8</ele>
        <time>2022-06-05T06:13:38Z</time>
      </trkpt>
      <trkpt lat="48.5391700" lon="7.8707000">
        <ele>-254.4</ele>
        <time>2022-06-05T06:13:42Z</time>
      </trkpt>
      <trkpt lat="48.5390180" lon="7.8708280">
        <ele>-254.4</ele>
        <time>2022-06-05T06:13:46Z</time>
      </trkpt>
      <trkpt lat="48.5388700" lon="7.8709480">
        <ele>-254.4</ele>
        <time>2022-06-05T06:13:50Z</time>
      </trkpt>
      <trkpt lat="48.5387160" lon="7.8710830">
        <ele>-255.6</ele>
        <time>2022-06-05T06:13:54Z</time>
      </trkpt>
      <trkpt lat="48.5385800" lon="7.8712680">
        <ele>-254.8</ele>
        <time>2022-06-05T06:13:58Z</time>
      </trkpt>
      <trkpt lat="48.5384830" lon="7.8714780">
        <ele>-255.2</ele>
        <time>2022-06-05T06:14:02Z</time>
      </trkpt>
      <trkpt lat="48.5384150" lon="7.8717100">
        <ele>-255.2</ele>
        <time>2022-06-05T06:14:06Z</time>
      </trkpt>
      <trkpt lat="48.5383810" lon="7.8719560">
        <ele>-254.6</ele>
        <time>2022-06-05T06:14:10Z</time>
      </trkpt>
      <trkpt lat="48.5384060" lon="7.8722150">
        <ele>-254.8</ele>
        <time>2022-06-05T06:14:14Z</time>
      </trkpt>
      <trkpt lat="48.5384310" lon="7.8724960">
        <ele>-254.4</ele>
        <time>2022-06-05T06:14:18Z</time>
      </trkpt>
      <trkpt lat="48.5384400" lon="7.8727730">
        <ele>-254.6</ele>
        <time>2022-06-05T06:14:22Z</time>
      </trkpt>
      <trkpt lat="48.5384330" lon="7.8730450">
        <ele>-254.6</ele>
        <time>2022-06-05T06:14:26Z</time>
      </trkpt>
      <trkpt lat="48.5384130" lon="7.8733260">
        <ele>-254.4</ele>
        <time>2022-06-05T06:14:30Z</time>
      </trkpt>
      <trkpt lat="48.5383810" lon="7.8736080">
        <ele>-254.4</ele>
        <time>2022-06-05T06:14:34Z</time>
      </trkpt>
      <trkpt lat="48.5383500" lon="7.8738830">
        <ele>-254.4</ele>
        <time>2022-06-05T06:14:38Z</time>
      </trkpt>
      <trkpt lat="48.5383250" lon="7.8741530">
        <ele>-254.8</ele>
        <time>2022-06-05T06:14:42Z</time>
      </trkpt>
      <trkpt lat="48.5383000" lon="7.8744210">
        <ele>-254.4</ele>
        <time>2022-06-05T06:14:46Z</time>
      </trkpt>
      <trkpt lat="48.5382660" lon="7.8746900">
        <ele>-254.6</ele>
        <time>2022-06-05T06:14:50Z</time>
      </trkpt>
      <trkpt lat="48.5382260" lon="7.8749530">
        <ele>-254.4</ele>
        <time>2022-06-05T06:14:54Z</time>
      </trkpt>
      <trkpt lat="48.5381730" lon="7.8752110">
        <ele>-254.4</ele>
        <time>2022-06-05T06:14:58Z</time>
      </trkpt>
      <trkpt lat="48.5381180" lon="7.8754680">
        <ele>-254.6</ele>
        <time>2022-06-05T06:15:02Z</time>
      </trkpt>
      <trkpt lat="48.5380600" lon="7.8757200">
        <ele>-254.8</ele>
        <time>2022-06-05T06:15:06Z</time>
      </trkpt>
      <trkpt lat="48.5379910" lon="7.8759660">
        <ele>-254.6</ele>
        <time>2022-06-05T06:15:10Z</time>
      </trkpt>
      <trkpt lat="48.5379300" lon="7.8762250">
        <ele>-254.6</ele>
        <time>2022-06-05T06:15:14Z</time>
      </trkpt>
      <trkpt lat="48.5378710" lon="7.8764830">
        <ele>-254.8</ele>
        <time>2022-06-05T06:15:18Z</time>
      </trkpt>
      <trkpt lat="48.5378250" lon="7.8767310">
        <ele>-255.0</ele>
        <time>2022-06-05T06:15:22Z</time>
      </trkpt>
      <trkpt lat="48.5377710" lon="7.8769930">
        <ele>-254.8</ele>
        <time>2022-06-05T06:15:26Z</time>
      </trkpt>
      <trkpt lat="48.5377200" lon="7.8772530">
        <ele>-254.8</ele>
        <time>2022-06-05T06:15:30Z</time>
      </trkpt>
      <trkpt lat="48.5376700" lon="7.8774910">
        <ele>-254.6</ele>
        <time>2022-06-05T06:15:34Z</time>
      </trkpt>
      <trkpt lat="48.5376200" lon="7.8777380">
        <ele>-254.4</ele>
        <time>2022-06-05T06:15:38Z</time>
      </trkpt>
      <trkpt lat="48.5375510" lon="7.8779810">
        <ele>-254.6</ele>
        <time>2022-06-05T06:15:42Z</time>
      </trkpt>
      <trkpt lat="48.5374860" lon="7.8782250">
        <ele>-254.0</ele>
        <time>2022-06-05T06:15:46Z</time>
      </trkpt>
      <trkpt lat="48.5374060" lon="7.8784510">
        <ele>-254.2</ele>
        <time>2022-06-05T06:15:50Z</time>
      </trkpt>
      <trkpt lat="48.5373160" lon="7.8786760">
        <ele>-254.2</ele>
        <time>2022-06-05T06:15:54Z</time>
      </trkpt>
      <trkpt lat="48.5372080" lon="7.8788760">
        <ele>-254.8</ele>
        <time>2022-06-05T06:15:58Z</time>
      </trkpt>
      <trkpt lat="48.5370910" lon="7.8790760">
        <ele>-254.2</ele>
        <time>2022-06-05T06:16:02Z</time>
      </trkpt>
      <trkpt lat="48.5369880" lon="7.8793010">
        <ele>-254.6</ele>
        <time>2022-06-05T06:16:06Z</time>
      </trkpt>
      <trkpt lat="48.5369000" lon="7.8795300">
        <ele>-254.4</ele>
        <time>2022-06-05T06:16:10Z</time>
      </trkpt>
      <trkpt lat="48.5368100" lon="7.8797660">
        <ele>-254.6</ele>
        <time>2022-06-05T06:16:14Z</time>
      </trkpt>
      <trkpt lat="48.5367250" lon="7.8800050">
        <ele>-254.6</ele>
        <time>2022-06-05T06:16:18Z</time>
      </trkpt>
      <trkpt lat="48.5366450" lon="7.8802600">
        <ele>-255.2</ele>
        <time>2022-06-05T06:16:22Z</time>
      </trkpt>
      <trkpt lat="48.5365560" lon="7.8804910">
        <ele>-254.2</ele>
        <time>2022-06-05T06:16:26Z</time>
      </trkpt>
      <trkpt lat="48.5364510" lon="7.8807110">
        <ele>-254.8</ele>
        <time>2022-06-05T06:16:30Z</time>
      </trkpt>
      <trkpt lat="48.5363310" lon="7.8809060">
        <ele>-253.8</ele>
        <time>2022-06-05T06:16:34Z</time>
      </trkpt>
      <trkpt lat="48.5361950" lon="7.8810680">
        <ele>-254.8</ele>
        <time>2022-06-05T06:16:38Z</time>
      </trkpt>
      <trkpt lat="48.5360400" lon="7.8812000">
        <ele>-254.8</ele>
        <time>2022-06-05T06:16:42Z</time>
      </trkpt>
      <trkpt lat="48.5358730" lon="7.8813110">
        <ele>-254.2</ele>
        <time>2022-06-05T06:16:46Z</time>
      </trkpt>
      <trkpt lat="48.5357000" lon="7.8813860">
        <ele>-254.4</ele>
        <time>2022-06-05T06:16:50Z</time>
      </trkpt>
      <trkpt lat="48.5355200" lon="7.8814500">
        <ele>-254.6</ele>
        <time>2022-06-05T06:16:54Z</time>
      </trkpt>
      <trkpt lat="48.5353430" lon="7.8815200">
        <ele>-254.8</ele>
        <time>2022-06-05T06:16:58Z</time>
      </trkpt>
      <trkpt lat="48.5351850" lon="7.8816460">
        <ele>-255.2</ele>
        <time>2022-06-05T06:17:02Z</time>
      </trkpt>
      <trkpt lat="48.5350560" lon="7.8818110">
        <ele>-255.0</ele>
        <time>2022-06-05T06:17:06Z</time>
      </trkpt>
      <trkpt lat="48.5349360" lon="7.8820160">
        <ele>-254.4</ele>
        <time>2022-06-05T06:17:10Z</time>
      </trkpt>
      <trkpt lat="48.5348280" lon="7.8822280">
        <ele>-254.4</ele>
        <time>2022-06-05T06:17:14Z</time>
      </trkpt>
      <trkpt lat="48.5347180" lon="7.8824430">
        <ele>-255.0</ele>
        <time>2022-06-05T06:17:18Z</time>
      </trkpt>
      <trkpt lat="48.5346160" lon="7.8826600">
        <ele>-254.4</ele>
        <time>2022-06-05T06:17:22Z</time>
      </trkpt>
      <trkpt lat="48.5345150" lon="7.8828810">
        <ele>-254.8</ele>
        <time>2022-06-05T06:17:26Z</time>
      </trkpt>
      <trkpt lat="48.5344330" lon="7.8831180">
        <ele>-254.4</ele>
        <time>2022-06-05T06:17:30Z</time>
      </trkpt>
      <trkpt lat="48.5343710" lon="7.8833680">
        <ele>-254.2</ele>
        <time>2022-06-05T06:17:34Z</time>
      </trkpt>
      <trkpt lat="48.5343280" lon="7.8835830">
        <ele>-254.0</ele>
        <time>2022-06-05T06:17:38Z</time>
      </trkpt>
      <trkpt lat="48.5343500" lon="7.8838010">
        <ele>-254.6</ele>
        <time>2022-06-05T06:17:42Z</time>
      </trkpt>
      <trkpt lat="48.5344760" lon="7.8840010">
        <ele>-255.2</ele>
        <time>2022-06-05T06:17:46Z</time>
      </trkpt>
      <trkpt lat="48.5346280" lon="7.8841650">
        <ele>-254.8</ele>
        <time>2022-06-05T06:17:50Z</time>
      </trkpt>
      <trkpt lat="48.5347650" lon="7.8843360">
        <ele>-254.6</ele>
        <time>2022-06-05T06:17:54Z</time>
      </trkpt>
      <trkpt lat="48.5349100" lon="7.8844910">
        <ele>-254.6</ele>
        <time>2022-06-05T06:17:58Z</time>
      </trkpt>
      <trkpt lat="48.5350380" lon="7.8846730">
        <ele>-254.8</ele>
        <time>2022-06-05T06:18:02Z</time>
      </trkpt>
      <trkpt lat="48.5351700" lon="7.8848430">
        <ele>-254.4</ele>
        <time>2022-06-05T06:18:06Z</time>
      </trkpt>
      <trkpt lat="48.5352910" lon="7.8850030">
        <ele>-254.0</ele>
        <time>2022-06-05T06:18:10Z</time>
      </trkpt>
      <trkpt lat="48.5354100" lon="7.8851280">
        <ele>-254.0</ele>
        <time>2022-06-05T06:18:14Z</time>
      </trkpt>
      <trkpt lat="48.5355530" lon="7.8852300">
        <ele>-254.2</ele>
        <time>2022-06-05T06:18:18Z</time>
      </trkpt>
      <trkpt lat="48.5356830" lon="7.8853080">
        <ele>-253.0</ele>
        <time>2022-06-05T06:18:22Z</time>
      </trkpt>
      <trkpt lat="48.5356710" lon="7.8854560">
        <ele>-252.6</ele>
        <time>2022-06-05T06:18:26Z</time>
      </trkpt>
      <trkpt lat="48.5356280" lon="7.8855310">
        <ele>-252.8</ele>
        <time>2022-06-05T06:18:30Z</time>
      </trkpt>
      <trkpt lat="48.5355310" lon="7.8854860">
        <ele>-253.0</ele>
        <time>2022-06-05T06:18:34Z</time>
      </trkpt>
      <trkpt lat="48.5354130" lon="7.8853830">
        <ele>-252.8</ele>
        <time>2022-06-05T06:18:38Z</time>
      </trkpt>
      <trkpt lat="48.5352710" lon="7.8853360">
        <ele>-253.2</ele>
        <time>2022-06-05T06:18:42Z</time>
      </trkpt>
      <trkpt lat="48.5351460" lon="7.8854730">
        <ele>-253.8</ele>
        <time>2022-06-05T06:18:46Z</time>
      </trkpt>
      <trkpt lat="48.5350900" lon="7.8857550">
        <ele>-254.0</ele>
        <time>2022-06-05T06:18:50Z</time>
      </trkpt>
      <trkpt lat="48.5350780" lon="7.8860630">
        <ele>-254.4</ele>
        <time>2022-06-05T06:18:54Z</time>
      </trkpt>
      <trkpt lat="48.5350360" lon="7.8863360">
        <ele>-254.6</ele>
        <time>2022-06-05T06:18:58Z</time>
      </trkpt>
      <trkpt lat="48.5349510" lon="7.8865800">
        <ele>-254.8</ele>
        <time>2022-06-05T06:19:02Z</time>
      </trkpt>
      <trkpt lat="48.5348810" lon="7.8868300">
        <ele>-254.4</ele>
        <time>2022-06-05T06:19:06Z</time>
      </trkpt>
      <trkpt lat="48.5348460" lon="7.8870910">
        <ele>-254.2</ele>
        <time>2022-06-05T06:19:10Z</time>
      </trkpt>
      <trkpt lat="48.5347930" lon="7.8873560">
        <ele>-254.4</ele>
        <time>2022-06-05T06:19:14Z</time>
      </trkpt>
      <trkpt lat="48.5347350" lon="7.8876260">
        <ele>-254.2</ele>
        <time>2022-06-05T06:19:18Z</time>
      </trkpt>
      <trkpt lat="48.5346850" lon="7.8878930">
        <ele>-254.4</ele>
        <time>2022-06-05T06:19:22Z</time>
      </trkpt>
      <trkpt lat="48.5346380" lon="7.8881730">
        <ele>-254.4</ele>
        <time>2022-06-05T06:19:26Z</time>
      </trkpt>
      <trkpt lat="48.5346030" lon="7.8884560">
        <ele>-254.4</ele>
        <time>2022-06-05T06:19:30Z</time>
      </trkpt>
      <trkpt lat="48.5345810" lon="7.8887430">
        <ele>-254.2</ele>
        <time>2022-06-05T06:19:34Z</time>
      </trkpt>
      <trkpt lat="48.5345630" lon="7.8890260">
        <ele>-254.0</ele>
        <time>2022-06-05T06:19:38Z</time>
      </trkpt>
      <trkpt lat="48.5345650" lon="7.8893180">
        <ele>-254.2</ele>
        <time>2022-06-05T06:19:42Z</time>
      </trkpt>
      <trkpt lat="48.5345650" lon="7.8896000">
        <ele>-254.0</ele>
        <time>2022-06-05T06:19:46Z</time>
      </trkpt>
      <trkpt lat="48.5345660" lon="7.8898780">
        <ele>-253.8</ele>
        <time>2022-06-05T06:19:50Z</time>
      </trkpt>
      <trkpt lat="48.5345850" lon="7.8901550">
        <ele>-254.4</ele>
        <time>2022-06-05T06:19:54Z</time>
      </trkpt>
      <trkpt lat="48.5346030" lon="7.8904210">
        <ele>-254.8</ele>
        <time>2022-06-05T06:19:58Z</time>
      </trkpt>
      <trkpt lat="48.5346280" lon="7.8906860">
        <ele>-254.6</ele>
        <time>2022-06-05T06:20:02Z</time>
      </trkpt>
      <trkpt lat="48.5346600" lon="7.8909550">
        <ele>-254.4</ele>
        <time>2022-06-05T06:20:06Z</time>
      </trkpt>
      <trkpt lat="48.5346900" lon="7.8912310">
        <ele>-253.8</ele>
        <time>2022-06-05T06:20:10Z</time>
      </trkpt>
      <trkpt lat="48.5347360" lon="7.8914950">
        <ele>-254.0</ele>
        <time>2022-06-05T06:20:14Z</time>
      </trkpt>
      <trkpt lat="48.5347850" lon="7.8917550">
        <ele>-254.0</ele>
        <time>2022-06-05T06:20:18Z</time>
      </trkpt>
      <trkpt lat="48.5348350" lon="7.8920160">
        <ele>-254.2</ele>
        <time>2022-06-05T06:20:22Z</time>
      </trkpt>
      <trkpt lat="48.5348950" lon="7.8922760">
        <ele>-254.2</ele>
        <time>2022-06-05T06:20:26Z</time>
      </trkpt>
      <trkpt lat="48.5349660" lon="7.8925360">
        <ele>-254.0</ele>
        <time>2022-06-05T06:20:30Z</time>
      </trkpt>
      <trkpt lat="48.5350410" lon="7.8927930">
        <ele>-253.8</ele>
        <time>2022-06-05T06:20:34Z</time>
      </trkpt>
      <trkpt lat="48.5351260" lon="7.8930360">
        <ele>-253.8</ele>
        <time>2022-06-05T06:20:38Z</time>
      </trkpt>
      <trkpt lat="48.5352110" lon="7.8932830">
        <ele>-253.8</ele>
        <time>2022-06-05T06:20:42Z</time>
      </trkpt>
      <trkpt lat="48.5353050" lon="7.8935300">
        <ele>-254.0</ele>
        <time>2022-06-05T06:20:46Z</time>
      </trkpt>
      <trkpt lat="48.5354000" lon="7.8937760">
        <ele>-253.6</ele>
        <time>2022-06-05T06:20:50Z</time>
      </trkpt>
      <trkpt lat="48.5355050" lon="7.8940160">
        <ele>-254.0</ele>
        <time>2022-06-05T06:20:54Z</time>
      </trkpt>
      <trkpt lat="48.5355960" lon="7.8942510">
        <ele>-253.8</ele>
        <time>2022-06-05T06:20:58Z</time>
      </trkpt>
      <trkpt lat="48.5356850" lon="7.8944900">
        <ele>-253.8</ele>
        <time>2022-06-05T06:21:02Z</time>
      </trkpt>
      <trkpt lat="48.5357630" lon="7.8947180">
        <ele>-253.6</ele>
        <time>2022-06-05T06:21:06Z</time>
      </trkpt>
      <trkpt lat="48.5358000" lon="7.8949760">
        <ele>-253.6</ele>
        <time>2022-06-05T06:21:10Z</time>
      </trkpt>
      <trkpt lat="48.5358810" lon="7.8951630">
        <ele>-251.6</ele>
        <time>2022-06-05T06:21:14Z</time>
      </trkpt>
      <trkpt lat="48.5359850" lon="7.8951660">
        <ele>-250.6</ele>
        <time>2022-06-05T06:21:18Z</time>
      </trkpt>
      <trkpt lat="48.5360510" lon="7.8951380">
        <ele>-250.2</ele>
        <time>2022-06-05T06:21:22Z</time>
      </trkpt>
      <trkpt lat="48.5361460" lon="7.8950880">
        <ele>-250.2</ele>
        <time>2022-06-05T06:21:26Z</time>
      </trkpt>
      <trkpt lat="48.5362760" lon="7.8950180">
        <ele>-250.2</ele>
        <time>2022-06-05T06:21:30Z</time>
      </trkpt>
      <trkpt lat="48.5364030" lon="7.8949550">
        <ele>-250.4</ele>
        <time>2022-06-05T06:21:34Z</time>
      </trkpt>
      <trkpt lat="48.5365160" lon="7.8948650">
        <ele>-249.8</ele>
        <time>2022-06-05T06:21:38Z</time>
      </trkpt>
      <trkpt lat="48.5366410" lon="7.8947900">
        <ele>-250.0</ele>
        <time>2022-06-05T06:21:42Z</time>
      </trkpt>
      <trkpt lat="48.5367760" lon="7.8947310">
        <ele>-250.4</ele>
        <time>2022-06-05T06:21:46Z</time>
      </trkpt>
      <trkpt lat="48.5368750" lon="7.8948410">
        <ele>-251.0</ele>
        <time>2022-06-05T06:21:50Z</time>
      </trkpt>
      <trkpt lat="48.5369060" lon="7.8950680">
        <ele>-250.6</ele>
        <time>2022-06-05T06:21:54Z</time>
      </trkpt>
      <trkpt lat="48.5369560" lon="7.8953100">
        <ele>-250.6</ele>
        <time>2022-06-05T06:21:58Z</time>
      </trkpt>
      <trkpt lat="48.5370010" lon="7.8955560">
        <ele>-250.8</ele>
        <time>2022-06-05T06:22:02Z</time>
      </trkpt>
      <trkpt lat="48.5370350" lon="7.8958230">
        <ele>-250.8</ele>
        <time>2022-06-05T06:22:06Z</time>
      </trkpt>
      <trkpt lat="48.5370660" lon="7.8960860">
        <ele>-251.0</ele>
        <time>2022-06-05T06:22:10Z</time>
      </trkpt>
      <trkpt lat="48.5370900" lon="7.8963550">
        <ele>-250.6</ele>
        <time>2022-06-05T06:22:14Z</time>
      </trkpt>
      <trkpt lat="48.5371030" lon="7.8966260">
        <ele>-250.2</ele>
        <time>2022-06-05T06:22:18Z</time>
      </trkpt>
      <trkpt lat="48.5371160" lon="7.8968800">
        <ele>-250.6</ele>
        <time>2022-06-05T06:22:22Z</time>
      </trkpt>
      <trkpt lat="48.5371210" lon="7.8971300">
        <ele>-251.0</ele>
        <time>2022-06-05T06:22:26Z</time>
      </trkpt>
      <trkpt lat="48.5371230" lon="7.8973650">
        <ele>-250.6</ele>
        <time>2022-06-05T06:22:30Z</time>
      </trkpt>
      <trkpt lat="48.5371000" lon="7.8976330">
        <ele>-251.4</ele>
        <time>2022-06-05T06:22:34Z</time>
      </trkpt>
      <trkpt lat="48.5370910" lon="7.8979210">
        <ele>-250.6</ele>
        <time>2022-06-05T06:22:38Z</time>
      </trkpt>
      <trkpt lat="48.5370680" lon="7.8982030">
        <ele>-250.8</ele>
        <time>2022-06-05T06:22:42Z</time>
      </trkpt>
      <trkpt lat="48.5370330" lon="7.8984700">
        <ele>-250.4</ele>
        <time>2022-06-05T06:22:46Z</time>
      </trkpt>
      <trkpt lat="48.5369950" lon="7.8987300">
        <ele>-250.0</ele>
        <time>2022-06-05T06:22:50Z</time>
      </trkpt>
      <trkpt lat="48.5369460" lon="7.8989860">
        <ele>-250.4</ele>
        <time>2022-06-05T06:22:54Z</time>
      </trkpt>
      <trkpt lat="48.5368960" lon="7.8992410">
        <ele>-250.2</ele>
        <time>2022-06-05T06:22:58Z</time>
      </trkpt>
      <trkpt lat="48.5368380" lon="7.8994880">
        <ele>-250.2</ele>
        <time>2022-06-05T06:23:02Z</time>
      </trkpt>
      <trkpt lat="48.5367730" lon="7.8997360">
        <ele>-249.8</ele>
        <time>2022-06-05T06:23:06Z</time>
      </trkpt>
      <trkpt lat="48.5367030" lon="7.8999650">
        <ele>-250.0</ele>
        <time>2022-06-05T06:23:10Z</time>
      </trkpt>
      <trkpt lat="48.5366260" lon="7.9001910">
        <ele>-250.4</ele>
        <time>2022-06-05T06:23:14Z</time>
      </trkpt>
      <trkpt lat="48.5365510" lon="7.9004230">
        <ele>-250.0</ele>
        <time>2022-06-05T06:23:18Z</time>
      </trkpt>
      <trkpt lat="48.5364710" lon="7.9006400">
        <ele>-250.6</ele>
        <time>2022-06-05T06:23:22Z</time>
      </trkpt>
      <trkpt lat="48.5363850" lon="7.9008550">
        <ele>-250.2</ele>
        <time>2022-06-05T06:23:26Z</time>
      </trkpt>
      <trkpt lat="48.5362860" lon="7.9010600">
        <ele>-249.8</ele>
        <time>2022-06-05T06:23:30Z</time>
      </trkpt>
      <trkpt lat="48.5361910" lon="7.9012680">
        <ele>-249.8</ele>
        <time>2022-06-05T06:23:34Z</time>
      </trkpt>
      <trkpt lat="48.5360850" lon="7.9014580">
        <ele>-249.6</ele>
        <time>2022-06-05T06:23:38Z</time>
      </trkpt>
      <trkpt lat="48.5359760" lon="7.9016430">
        <ele>-249.8</ele>
        <time>2022-06-05T06:23:42Z</time>
      </trkpt>
      <trkpt lat="48.5358610" lon="7.9018230">
        <ele>-249.6</ele>
        <time>2022-06-05T06:23:46Z</time>
      </trkpt>
      <trkpt lat="48.5357450" lon="7.9019950">
        <ele>-249.8</ele>
        <time>2022-06-05T06:23:50Z</time>
      </trkpt>
      <trkpt lat="48.5356230" lon="7.9021650">
        <ele>-249.4</ele>
        <time>2022-06-05T06:23:54Z</time>
      </trkpt>
      <trkpt lat="48.5354950" lon="7.9023250">
        <ele>-250.0</ele>
        <time>2022-06-05T06:23:58Z</time>
      </trkpt>
      <trkpt lat="48.5353650" lon="7.9024800">
        <ele>-250.0</ele>
        <time>2022-06-05T06:24:02Z</time>
      </trkpt>
      <trkpt lat="48.5352300" lon="7.9026260">
        <ele>-249.4</ele>
        <time>2022-06-05T06:24:06Z</time>
      </trkpt>
      <trkpt lat="48.5350930" lon="7.9027650">
        <ele>-250.0</ele>
        <time>2022-06-05T06:24:10Z</time>
      </trkpt>
      <trkpt lat="48.5349580" lon="7.9029110">
        <ele>-249.6</ele>
        <time>2022-06-05T06:24:14Z</time>
      </trkpt>
      <trkpt lat="48.5348200" lon="7.9030630">
        <ele>-250.0</ele>
        <time>2022-06-05T06:24:18Z</time>
      </trkpt>
      <trkpt lat="48.5346800" lon="7.9032080">
        <ele>-249.8</ele>
        <time>2022-06-05T06:24:22Z</time>
      </trkpt>
      <trkpt lat="48.5345430" lon="7.9033550">
        <ele>-249.4</ele>
        <time>2022-06-05T06:24:26Z</time>
      </trkpt>
      <trkpt lat="48.5343980" lon="7.9034880">
        <ele>-249.4</ele>
        <time>2022-06-05T06:24:30Z</time>
      </trkpt>
      <trkpt lat="48.5342550" lon="7.9036400">
        <ele>-249.8</ele>
        <time>2022-06-05T06:24:34Z</time>
      </trkpt>
      <trkpt lat="48.5341080" lon="7.9037980">
        <ele>-249.4</ele>
        <time>2022-06-05T06:24:38Z</time>
      </trkpt>
      <trkpt lat="48.5339550" lon="7.9039650">
        <ele>-249.4</ele>
        <time>2022-06-05T06:24:42Z</time>
      </trkpt>
      <trkpt lat="48.5338080" lon="7.9041180">
        <ele>-249.6</ele>
        <time>2022-06-05T06:24:46Z</time>
      </trkpt>
      <trkpt lat="48.5336580" lon="7.9042710">
        <ele>-250.0</ele>
        <time>2022-06-05T06:24:50Z</time>
      </trkpt>
      <trkpt lat="48.5335060" lon="7.9044350">
        <ele>-250.4</ele>
        <time>2022-06-05T06:24:54Z</time>
      </trkpt>
      <trkpt lat="48.5333560" lon="7.9045930">
        <ele>-249.8</ele>
        <time>2022-06-05T06:24:58Z</time>
      </trkpt>
      <trkpt lat="48.5332050" lon="7.9047500">
        <ele>-249.2</ele>
        <time>2022-06-05T06:25:02Z</time>
      </trkpt>
      <trkpt lat="48.5330530" lon="7.9049100">
        <ele>-248.6</ele>
        <time>2022-06-05T06:25:06Z</time>
      </trkpt>
      <trkpt lat="48.5329060" lon="7.9050600">
        <ele>-249.0</ele>
        <time>2022-06-05T06:25:10Z</time>
      </trkpt>
      <trkpt lat="48.5327660" lon="7.9052200">
        <ele>-249.8</ele>
        <time>2022-06-05T06:25:14Z</time>
      </trkpt>
      <trkpt lat="48.5326260" lon="7.9053700">
        <ele>-249.2</ele>
        <time>2022-06-05T06:25:18Z</time>
      </trkpt>
      <trkpt lat="48.5324900" lon="7.9055180">
        <ele>-249.8</ele>
        <time>2022-06-05T06:25:22Z</time>
      </trkpt>
      <trkpt lat="48.5323550" lon="7.9056610">
        <ele>-249.6</ele>
        <time>2022-06-05T06:25:26Z</time>
      </trkpt>
      <trkpt lat="48.5322160" lon="7.9058100">
        <ele>-249.6</ele>
        <time>2022-06-05T06:25:30Z</time>
      </trkpt>
      <trkpt lat="48.5320780" lon="7.9059550">
        <ele>-249.4</ele>
        <time>2022-06-05T06:25:34Z</time>
      </trkpt>
      <trkpt lat="48.5319410" lon="7.9061010">
        <ele>-249.2</ele>
        <time>2022-06-05T06:25:38Z</time>
      </trkpt>
      <trkpt lat="48.5318030" lon="7.9062480">
        <ele>-249.2</ele>
        <time>2022-06-05T06:25:42Z</time>
      </trkpt>
      <trkpt lat="48.5316610" lon="7.9063960">
        <ele>-249.0</ele>
        <time>2022-06-05T06:25:46Z</time>
      </trkpt>
      <trkpt lat="48.5315160" lon="7.9065330">
        <ele>-249.0</ele>
        <time>2022-06-05T06:25:50Z</time>
      </trkpt>
      <trkpt lat="48.5313650" lon="7.9066580">
        <ele>-249.2</ele>
        <time>2022-06-05T06:25:54Z</time>
      </trkpt>
      <trkpt lat="48.5312100" lon="7.9067760">
        <ele>-248.8</ele>
        <time>2022-06-05T06:25:58Z</time>
      </trkpt>
      <trkpt lat="48.5310510" lon="7.9068880">
        <ele>-249.0</ele>
        <time>2022-06-05T06:26:02Z</time>
      </trkpt>
      <trkpt lat="48.5308880" lon="7.9069900">
        <ele>-249.2</ele>
        <time>2022-06-05T06:26:06Z</time>
      </trkpt>
      <trkpt lat="48.5307350" lon="7.9070930">
        <ele>-249.2</ele>
        <time>2022-06-05T06:26:10Z</time>
      </trkpt>
      <trkpt lat="48.5305810" lon="7.9071860">
        <ele>-249.0</ele>
        <time>2022-06-05T06:26:14Z</time>
      </trkpt>
      <trkpt lat="48.5304250" lon="7.9072760">
        <ele>-249.2</ele>
        <time>2022-06-05T06:26:18Z</time>
      </trkpt>
      <trkpt lat="48.5302630" lon="7.9073600">
        <ele>-248.6</ele>
        <time>2022-06-05T06:26:22Z</time>
      </trkpt>
      <trkpt lat="48.5301060" lon="7.9074430">
        <ele>-248.4</ele>
        <time>2022-06-05T06:26:26Z</time>
      </trkpt>
      <trkpt lat="48.5299500" lon="7.9075260">
        <ele>-248.8</ele>
        <time>2022-06-05T06:26:30Z</time>
      </trkpt>
      <trkpt lat="48.5297910" lon="7.9076060">
        <ele>-248.4</ele>
        <time>2022-06-05T06:26:34Z</time>
      </trkpt>
      <trkpt lat="48.5296330" lon="7.9076830">
        <ele>-248.4</ele>
        <time>2022-06-05T06:26:38Z</time>
      </trkpt>
      <trkpt lat="48.5294710" lon="7.9077580">
        <ele>-248.6</ele>
        <time>2022-06-05T06:26:42Z</time>
      </trkpt>
      <trkpt lat="48.5293130" lon="7.9078350">
        <ele>-248.6</ele>
        <time>2022-06-05T06:26:46Z</time>
      </trkpt>
      <trkpt lat="48.5291510" lon="7.9079080">
        <ele>-248.4</ele>
        <time>2022-06-05T06:26:50Z</time>
      </trkpt>
      <trkpt lat="48.5289880" lon="7.9079800">
        <ele>-249.2</ele>
        <time>2022-06-05T06:26:54Z</time>
      </trkpt>
      <trkpt lat="48.5288180" lon="7.9080460">
        <ele>-248.2</ele>
        <time>2022-06-05T06:26:58Z</time>
      </trkpt>
      <trkpt lat="48.5286580" lon="7.9081100">
        <ele>-248.4</ele>
        <time>2022-06-05T06:27:02Z</time>
      </trkpt>
      <trkpt lat="48.5285000" lon="7.9081780">
        <ele>-248.6</ele>
        <time>2022-06-05T06:27:06Z</time>
      </trkpt>
      <trkpt lat="48.5283460" lon="7.9082400">
        <ele>-248.2</ele>
        <time>2022-06-05T06:27:10Z</time>
      </trkpt>
      <trkpt lat="48.5282050" lon="7.9083030">
        <ele>-248.4</ele>
        <time>2022-06-05T06:27:14Z</time>
      </trkpt>
      <trkpt lat="48.5280480" lon="7.9083630">
        <ele>-249.0</ele>
        <time>2022-06-05T06:27:18Z</time>
      </trkpt>
      <trkpt lat="48.5279050" lon="7.9084130">
        <ele>-248.8</ele>
        <time>2022-06-05T06:27:22Z</time>
      </trkpt>
      <trkpt lat="48.5277630" lon="7.9084630">
        <ele>-248.4</ele>
        <time>2022-06-05T06:27:26Z</time>
      </trkpt>
      <trkpt lat="48.5275910" lon="7.9085130">
        <ele>-248.6</ele>
        <time>2022-06-05T06:27:30Z</time>
      </trkpt>
      <trkpt lat="48.5274180" lon="7.9085660">
        <ele>-248.0</ele>
        <time>2022-06-05T06:27:34Z</time>
      </trkpt>
      <trkpt lat="48.5272500" lon="7.9086160">
        <ele>-248.2</ele>
        <time>2022-06-05T06:27:38Z</time>
      </trkpt>
      <trkpt lat="48.5270880" lon="7.9086850">
        <ele>-248.4</ele>
        <time>2022-06-05T06:27:42Z</time>
      </trkpt>
      <trkpt lat="48.5269360" lon="7.9087960">
        <ele>-247.6</ele>
        <time>2022-06-05T06:27:46Z</time>
      </trkpt>
      <trkpt lat="48.5268200" lon="7.9089850">
        <ele>-248.4</ele>
        <time>2022-06-05T06:27:50Z</time>
      </trkpt>
      <trkpt lat="48.5267250" lon="7.9091910">
        <ele>-248.6</ele>
        <time>2022-06-05T06:27:54Z</time>
      </trkpt>
      <trkpt lat="48.5266130" lon="7.9093780">
        <ele>-248.2</ele>
        <time>2022-06-05T06:27:58Z</time>
      </trkpt>
      <trkpt lat="48.5264560" lon="7.9095100">
        <ele>-249.6</ele>
        <time>2022-06-05T06:28:02Z</time>
      </trkpt>
      <trkpt lat="48.5262930" lon="7.9095900">
        <ele>-248.6</ele>
        <time>2022-06-05T06:28:06Z</time>
      </trkpt>
      <trkpt lat="48.5261410" lon="7.9097030">
        <ele>-248.8</ele>
        <time>2022-06-05T06:28:10Z</time>
      </trkpt>
      <trkpt lat="48.5259680" lon="7.9097410">
        <ele>-248.8</ele>
        <time>2022-06-05T06:28:14Z</time>
      </trkpt>
      <trkpt lat="48.5257910" lon="7.9097360">
        <ele>-248.4</ele>
        <time>2022-06-05T06:28:18Z</time>
      </trkpt>
      <trkpt lat="48.5256180" lon="7.9097560">
        <ele>-248.8</ele>
        <time>2022-06-05T06:28:22Z</time>
      </trkpt>
      <trkpt lat="48.5254460" lon="7.9097900">
        <ele>-248.8</ele>
        <time>2022-06-05T06:28:26Z</time>
      </trkpt>
      <trkpt lat="48.5252700" lon="7.9098250">
        <ele>-249.4</ele>
        <time>2022-06-05T06:28:30Z</time>
      </trkpt>
      <trkpt lat="48.5250960" lon="7.9098560">
        <ele>-249.0</ele>
        <time>2022-06-05T06:28:34Z</time>
      </trkpt>
      <trkpt lat="48.5249260" lon="7.9098880">
        <ele>-248.8</ele>
        <time>2022-06-05T06:28:38Z</time>
      </trkpt>
      <trkpt lat="48.5247560" lon="7.9099250">
        <ele>-249.4</ele>
        <time>2022-06-05T06:28:42Z</time>
      </trkpt>
      <trkpt lat="48.5245860" lon="7.9099630">
        <ele>-248.8</ele>
        <time>2022-06-05T06:28:46Z</time>
      </trkpt>
      <trkpt lat="48.5244150" lon="7.9099910">
        <ele>-249.6</ele>
        <time>2022-06-05T06:28:50Z</time>
      </trkpt>
      <trkpt lat="48.5242430" lon="7.9100260">
        <ele>-249.2</ele>
        <time>2022-06-05T06:28:54Z</time>
      </trkpt>
      <trkpt lat="48.5240750" lon="7.9100630">
        <ele>-248.2</ele>
        <time>2022-06-05T06:28:58Z</time>
      </trkpt>
      <trkpt lat="48.5239050" lon="7.9100980">
        <ele>-248.8</ele>
        <time>2022-06-05T06:29:02Z</time>
      </trkpt>
      <trkpt lat="48.5237350" lon="7.9101330">
        <ele>-248.4</ele>
        <time>2022-06-05T06:29:06Z</time>
      </trkpt>
      <trkpt lat="48.5235630" lon="7.9101660">
        <ele>-248.4</ele>
        <time>2022-06-05T06:29:10Z</time>
      </trkpt>
      <trkpt lat="48.5233900" lon="7.9102010">
        <ele>-249.8</ele>
        <time>2022-06-05T06:29:14Z</time>
      </trkpt>
      <trkpt lat="48.5232210" lon="7.9102380">
        <ele>-248.4</ele>
        <time>2022-06-05T06:29:18Z</time>
      </trkpt>
      <trkpt lat="48.5230550" lon="7.9102700">
        <ele>-248.6</ele>
        <time>2022-06-05T06:29:22Z</time>
      </trkpt>
      <trkpt lat="48.5228900" lon="7.9103080">
        <ele>-248.4</ele>
        <time>2022-06-05T06:29:26Z</time>
      </trkpt>
      <trkpt lat="48.5227230" lon="7.9103460">
        <ele>-248.2</ele>
        <time>2022-06-05T06:29:30Z</time>
      </trkpt>
      <trkpt lat="48.5225560" lon="7.9103860">
        <ele>-248.6</ele>
        <time>2022-06-05T06:29:34Z</time>
      </trkpt>
      <trkpt lat="48.5223900" lon="7.9104210">
        <ele>-248.8</ele>
        <time>2022-06-05T06:29:38Z</time>
      </trkpt>
      <trkpt lat="48.5222260" lon="7.9104800">
        <ele>-248.4</ele>
        <time>2022-06-05T06:29:42Z</time>
      </trkpt>
      <trkpt lat="48.5220760" lon="7.9105250">
        <ele>-249.2</ele>
        <time>2022-06-05T06:29:46Z</time>
      </trkpt>
      <trkpt lat="48.5219200" lon="7.9105750">
        <ele>-248.8</ele>
        <time>2022-06-05T06:29:50Z</time>
      </trkpt>
      <trkpt lat="48.5217650" lon="7.9106260">
        <ele>-248.8</ele>
        <time>2022-06-05T06:29:54Z</time>
      </trkpt>
      <trkpt lat="48.5216010" lon="7.9106880">
        <ele>-248.4</ele>
        <time>2022-06-05T06:29:58Z</time>
      </trkpt>
      <trkpt lat="48.5214400" lon="7.9107460">
        <ele>-248.4</ele>
        <time>2022-06-05T06:30:02Z</time>
      </trkpt>
      <trkpt lat="48.5212800" lon="7.9108150">
        <ele>-248.2</ele>
        <time>2022-06-05T06:30:06Z</time>
      </trkpt>
      <trkpt lat="48.5211250" lon="7.9108810">
        <ele>-248.2</ele>
        <time>2022-06-05T06:30:10Z</time>
      </trkpt>
      <trkpt lat="48.5209710" lon="7.9109630">
        <ele>-248.2</ele>
        <time>2022-06-05T06:30:14Z</time>
      </trkpt>
      <trkpt lat="48.5208200" lon="7.9110400">
        <ele>-248.4</ele>
        <time>2022-06-05T06:30:18Z</time>
      </trkpt>
      <trkpt lat="48.5206630" lon="7.9111200">
        <ele>-248.2</ele>
        <time>2022-06-05T06:30:22Z</time>
      </trkpt>
      <trkpt lat="48.5205100" lon="7.9112080">
        <ele>-248.2</ele>
        <time>2022-06-05T06:30:26Z</time>
      </trkpt>
      <trkpt lat="48.5203560" lon="7.9112960">
        <ele>-248.2</ele>
        <time>2022-06-05T06:30:30Z</time>
      </trkpt>
      <trkpt lat="48.5202000" lon="7.9113850">
        <ele>-248.2</ele>
        <time>2022-06-05T06:30:34Z</time>
      </trkpt>
      <trkpt lat="48.5200410" lon="7.9114830">
        <ele>-248.2</ele>
        <time>2022-06-05T06:30:38Z</time>
      </trkpt>
      <trkpt lat="48.5198830" lon="7.9115780">
        <ele>-248.2</ele>
        <time>2022-06-05T06:30:42Z</time>
      </trkpt>
      <trkpt lat="48.5197330" lon="7.9116760">
        <ele>-247.8</ele>
        <time>2022-06-05T06:30:46Z</time>
      </trkpt>
      <trkpt lat="48.5195830" lon="7.9117810">
        <ele>-248.0</ele>
        <time>2022-06-05T06:30:50Z</time>
      </trkpt>
      <trkpt lat="48.5194350" lon="7.9118930">
        <ele>-247.8</ele>
        <time>2022-06-05T06:30:54Z</time>
      </trkpt>
      <trkpt lat="48.5192850" lon="7.9120050">
        <ele>-247.8</ele>
        <time>2022-06-05T06:30:58Z</time>
      </trkpt>
      <trkpt lat="48.5191400" lon="7.9121150">
        <ele>-248.0</ele>
        <time>2022-06-05T06:31:02Z</time>
      </trkpt>
      <trkpt lat="48.5189950" lon="7.9122260">
        <ele>-247.8</ele>
        <time>2022-06-05T06:31:06Z</time>
      </trkpt>
      <trkpt lat="48.5188500" lon="7.9123380">
        <ele>-248.2</ele>
        <time>2022-06-05T06:31:10Z</time>
      </trkpt>
      <trkpt lat="48.5187000" lon="7.9124480">
        <ele>-248.0</ele>
        <time>2022-06-05T06:31:14Z</time>
      </trkpt>
      <trkpt lat="48.5185550" lon="7.9125530">
        <ele>-247.8</ele>
        <time>2022-06-05T06:31:18Z</time>
      </trkpt>
      <trkpt lat="48.5184060" lon="7.9126750">
        <ele>-248.2</ele>
        <time>2022-06-05T06:31:22Z</time>
      </trkpt>
      <trkpt lat="48.5182610" lon="7.9128180">
        <ele>-248.2</ele>
        <time>2022-06-05T06:31:26Z</time>
      </trkpt>
      <trkpt lat="48.5181100" lon="7.9129400">
        <ele>-248.4</ele>
        <time>2022-06-05T06:31:30Z</time>
      </trkpt>
      <trkpt lat="48.5179550" lon="7.9130600">
        <ele>-247.2</ele>
        <time>2022-06-05T06:31:34Z</time>
      </trkpt>
      <trkpt lat="48.5178030" lon="7.9131930">
        <ele>-247.2</ele>
        <time>2022-06-05T06:31:38Z</time>
      </trkpt>
      <trkpt lat="48.5176510" lon="7.9133160">
        <ele>-247.6</ele>
        <time>2022-06-05T06:31:42Z</time>
      </trkpt>
      <trkpt lat="48.5174980" lon="7.9134480">
        <ele>-247.8</ele>
        <time>2022-06-05T06:31:46Z</time>
      </trkpt>
      <trkpt lat="48.5173610" lon="7.9135930">
        <ele>-247.0</ele>
        <time>2022-06-05T06:31:50Z</time>
      </trkpt>
      <trkpt lat="48.5172280" lon="7.9137250">
        <ele>-247.0</ele>
        <time>2022-06-05T06:31:54Z</time>
      </trkpt>
      <trkpt lat="48.5170860" lon="7.9138130">
        <ele>-247.0</ele>
        <time>2022-06-05T06:31:58Z</time>
      </trkpt>
      <trkpt lat="48.5169300" lon="7.9139280">
        <ele>-246.6</ele>
        <time>2022-06-05T06:32:02Z</time>
      </trkpt>
      <trkpt lat="48.5167700" lon="7.9140480">
        <ele>-247.6</ele>
        <time>2022-06-05T06:32:06Z</time>
      </trkpt>
      <trkpt lat="48.5166030" lon="7.9141500">
        <ele>-247.4</ele>
        <time>2022-06-05T06:32:10Z</time>
      </trkpt>
      <trkpt lat="48.5164460" lon="7.9142580">
        <ele>-247.6</ele>
        <time>2022-06-05T06:32:14Z</time>
      </trkpt>
      <trkpt lat="48.5162680" lon="7.9144050">
        <ele>-249.2</ele>
        <time>2022-06-05T06:32:18Z</time>
      </trkpt>
      <trkpt lat="48.5160660" lon="7.9145430">
        <ele>-249.8</ele>
        <time>2022-06-05T06:32:22Z</time>
      </trkpt>
      <trkpt lat="48.5158980" lon="7.9146480">
        <ele>-249.4</ele>
        <time>2022-06-05T06:32:26Z</time>
      </trkpt>
      <trkpt lat="48.5157150" lon="7.9148830">
        <ele>-249.4</ele>
        <time>2022-06-05T06:32:30Z</time>
      </trkpt>
      <trkpt lat="48.5155460" lon="7.9150150">
        <ele>-248.2</ele>
        <time>2022-06-05T06:32:34Z</time>
      </trkpt>
      <trkpt lat="48.5154000" lon="7.9151330">
        <ele>-247.6</ele>
        <time>2022-06-05T06:32:38Z</time>
      </trkpt>
      <trkpt lat="48.5152480" lon="7.9152600">
        <ele>-247.6</ele>
        <time>2022-06-05T06:32:42Z</time>
      </trkpt>
      <trkpt lat="48.5151050" lon="7.9153900">
        <ele>-246.6</ele>
        <time>2022-06-05T06:32:46Z</time>
      </trkpt>
      <trkpt lat="48.5149510" lon="7.9155160">
        <ele>-246.2</ele>
        <time>2022-06-05T06:32:50Z</time>
      </trkpt>
      <trkpt lat="48.5148000" lon="7.9156400">
        <ele>-246.0</ele>
        <time>2022-06-05T06:32:54Z</time>
      </trkpt>
      <trkpt lat="48.5146450" lon="7.9157650">
        <ele>-245.8</ele>
        <time>2022-06-05T06:32:58Z</time>
      </trkpt>
      <trkpt lat="48.5144910" lon="7.9158850">
        <ele>-246.6</ele>
        <time>2022-06-05T06:33:02Z</time>
      </trkpt>
      <trkpt lat="48.5143430" lon="7.9160110">
        <ele>-246.0</ele>
        <time>2022-06-05T06:33:06Z</time>
      </trkpt>
      <trkpt lat="48.5141830" lon="7.9161230">
        <ele>-246.0</ele>
        <time>2022-06-05T06:33:10Z</time>
      </trkpt>
      <trkpt lat="48.5140310" lon="7.9162560">
        <ele>-246.0</ele>
        <time>2022-06-05T06:33:14Z</time>
      </trkpt>
      <trkpt lat="48.5138710" lon="7.9163900">
        <ele>-245.8</ele>
        <time>2022-06-05T06:33:18Z</time>
      </trkpt>
      <trkpt lat="48.5137100" lon="7.9165150">
        <ele>-246.0</ele>
        <time>2022-06-05T06:33:22Z</time>
      </trkpt>
      <trkpt lat="48.5135500" lon="7.9166430">
        <ele>-245.8</ele>
        <time>2022-06-05T06:33:26Z</time>
      </trkpt>
      <trkpt lat="48.5133860" lon="7.9167800">
        <ele>-245.4</ele>
        <time>2022-06-05T06:33:30Z</time>
      </trkpt>
      <trkpt lat="48.5132180" lon="7.9169150">
        <ele>-245.6</ele>
        <time>2022-06-05T06:33:34Z</time>
      </trkpt>
      <trkpt lat="48.5130560" lon="7.9170450">
        <ele>-245.6</ele>
        <time>2022-06-05T06:33:38Z</time>
      </trkpt>
      <trkpt lat="48.5128950" lon="7.9171780">
        <ele>-245.6</ele>
        <time>2022-06-05T06:33:42Z</time>
      </trkpt>
      <trkpt lat="48.5127360" lon="7.9173110">
        <ele>-245.4</ele>
        <time>2022-06-05T06:33:46Z</time>
      </trkpt>
      <trkpt lat="48.5125800" lon="7.9174430">
        <ele>-245.2</ele>
        <time>2022-06-05T06:33:50Z</time>
      </trkpt>
      <trkpt lat="48.5124380" lon="7.9175650">
        <ele>-245.4</ele>
        <time>2022-06-05T06:33:54Z</time>
      </trkpt>
      <trkpt lat="48.5123280" lon="7.9176580">
        <ele>-244.4</ele>
        <time>2022-06-05T06:33:58Z</time>
      </trkpt>
      <trkpt lat="48.5121880" lon="7.9177600">
        <ele>-244.8</ele>
        <time>2022-06-05T06:34:02Z</time>
      </trkpt>
      <trkpt lat="48.5120100" lon="7.9178930">
        <ele>-245.6</ele>
        <time>2022-06-05T06:34:06Z</time>
      </trkpt>
      <trkpt lat="48.5118250" lon="7.9180450">
        <ele>-245.6</ele>
        <time>2022-06-05T06:34:10Z</time>
      </trkpt>
      <trkpt lat="48.5116450" lon="7.9182010">
        <ele>-245.8</ele>
        <time>2022-06-05T06:34:14Z</time>
      </trkpt>
      <trkpt lat="48.5114730" lon="7.9183430">
        <ele>-245.2</ele>
        <time>2022-06-05T06:34:18Z</time>
      </trkpt>
      <trkpt lat="48.5113010" lon="7.9184830">
        <ele>-245.4</ele>
        <time>2022-06-05T06:34:22Z</time>
      </trkpt>
      <trkpt lat="48.5111300" lon="7.9186210">
        <ele>-246.0</ele>
        <time>2022-06-05T06:34:26Z</time>
      </trkpt>
      <trkpt lat="48.5109560" lon="7.9187650">
        <ele>-245.8</ele>
        <time>2022-06-05T06:34:30Z</time>
      </trkpt>
      <trkpt lat="48.5107810" lon="7.9189000">
        <ele>-245.8</ele>
        <time>2022-06-05T06:34:34Z</time>
      </trkpt>
      <trkpt lat="48.5106080" lon="7.9190360">
        <ele>-246.2</ele>
        <time>2022-06-05T06:34:38Z</time>
      </trkpt>
      <trkpt lat="48.5104350" lon="7.9191710">
        <ele>-245.8</ele>
        <time>2022-06-05T06:34:42Z</time>
      </trkpt>
      <trkpt lat="48.5102600" lon="7.9193080">
        <ele>-245.4</ele>
        <time>2022-06-05T06:34:46Z</time>
      </trkpt>
      <trkpt lat="48.5100830" lon="7.9194450">
        <ele>-245.8</ele>
        <time>2022-06-05T06:34:50Z</time>
      </trkpt>
      <trkpt lat="48.5099160" lon="7.9195880">
        <ele>-245.4</ele>
        <time>2022-06-05T06:34:54Z</time>
      </trkpt>
      <trkpt lat="48.5097510" lon="7.9197150">
        <ele>-246.0</ele>
        <time>2022-06-05T06:34:58Z</time>
      </trkpt>
      <trkpt lat="48.5095850" lon="7.9198560">
        <ele>-245.4</ele>
        <time>2022-06-05T06:35:02Z</time>
      </trkpt>
      <trkpt lat="48.5094250" lon="7.9199930">
        <ele>-245.4</ele>
        <time>2022-06-05T06:35:06Z</time>
      </trkpt>
      <trkpt lat="48.5092580" lon="7.9201200">
        <ele>-245.4</ele>
        <time>2022-06-05T06:35:10Z</time>
      </trkpt>
      <trkpt lat="48.5090880" lon="7.9202530">
        <ele>-245.4</ele>
        <time>2022-06-05T06:35:14Z</time>
      </trkpt>
      <trkpt lat="48.5089280" lon="7.9203950">
        <ele>-245.8</ele>
        <time>2022-06-05T06:35:18Z</time>
      </trkpt>
      <trkpt lat="48.5087650" lon="7.9205180">
        <ele>-246.0</ele>
        <time>2022-06-05T06:35:22Z</time>
      </trkpt>
      <trkpt lat="48.5085980" lon="7.9206460">
        <ele>-246.0</ele>
        <time>2022-06-05T06:35:26Z</time>
      </trkpt>
      <trkpt lat="48.5084260" lon="7.9207860">
        <ele>-246.0</ele>
        <time>2022-06-05T06:35:30Z</time>
      </trkpt>
      <trkpt lat="48.5082550" lon="7.9209180">
        <ele>-246.4</ele>
        <time>2022-06-05T06:35:34Z</time>
      </trkpt>
      <trkpt lat="48.5080760" lon="7.9210500">
        <ele>-245.6</ele>
        <time>2022-06-05T06:35:38Z</time>
      </trkpt>
      <trkpt lat="48.5079060" lon="7.9211910">
        <ele>-245.8</ele>
        <time>2022-06-05T06:35:42Z</time>
      </trkpt>
      <trkpt lat="48.5077410" lon="7.9213280">
        <ele>-245.8</ele>
        <time>2022-06-05T06:35:46Z</time>
      </trkpt>
      <trkpt lat="48.5075800" lon="7.9214630">
        <ele>-245.4</ele>
        <time>2022-06-05T06:35:50Z</time>
      </trkpt>
      <trkpt lat="48.5074150" lon="7.9216000">
        <ele>-246.0</ele>
        <time>2022-06-05T06:35:54Z</time>
      </trkpt>
      <trkpt lat="48.5072510" lon="7.9217380">
        <ele>-246.0</ele>
        <time>2022-06-05T06:35:58Z</time>
      </trkpt>
      <trkpt lat="48.5070860" lon="7.9218730">
        <ele>-245.4</ele>
        <time>2022-06-05T06:36:02Z</time>
      </trkpt>
      <trkpt lat="48.5069260" lon="7.9220100">
        <ele>-245.4</ele>
        <time>2022-06-05T06:36:06Z</time>
      </trkpt>
      <trkpt lat="48.5067630" lon="7.9221430">
        <ele>-245.8</ele>
        <time>2022-06-05T06:36:10Z</time>
      </trkpt>
      <trkpt lat="48.5066010" lon="7.9222680">
        <ele>-245.6</ele>
        <time>2022-06-05T06:36:14Z</time>
      </trkpt>
      <trkpt lat="48.5064430" lon="7.9223950">
        <ele>-245.0</ele>
        <time>2022-06-05T06:36:18Z</time>
      </trkpt>
      <trkpt lat="48.5062800" lon="7.9225210">
        <ele>-246.0</ele>
        <time>2022-06-05T06:36:22Z</time>
      </trkpt>
      <trkpt lat="48.5061250" lon="7.9226530">
        <ele>-245.6</ele>
        <time>2022-06-05T06:36:26Z</time>
      </trkpt>
      <trkpt lat="48.5059700" lon="7.9227830">
        <ele>-245.6</ele>
        <time>2022-06-05T06:36:30Z</time>
      </trkpt>
      <trkpt lat="48.5058080" lon="7.9229050">
        <ele>-245.6</ele>
        <time>2022-06-05T06:36:34Z</time>
      </trkpt>
      <trkpt lat="48.5056480" lon="7.9230380">
        <ele>-245.4</ele>
        <time>2022-06-05T06:36:38Z</time>
      </trkpt>
      <trkpt lat="48.5054900" lon="7.9231650">
        <ele>-245.6</ele>
        <time>2022-06-05T06:36:42Z</time>
      </trkpt>
      <trkpt lat="48.5053330" lon="7.9232980">
        <ele>-245.4</ele>
        <time>2022-06-05T06:36:46Z</time>
      </trkpt>
      <trkpt lat="48.5051710" lon="7.9234280">
        <ele>-245.6</ele>
        <time>2022-06-05T06:36:50Z</time>
      </trkpt>
      <trkpt lat="48.5050060" lon="7.9235650">
        <ele>-246.2</ele>
        <time>2022-06-05T06:36:54Z</time>
      </trkpt>
      <trkpt lat="48.5048380" lon="7.9237000">
        <ele>-246.2</ele>
        <time>2022-06-05T06:36:58Z</time>
      </trkpt>
      <trkpt lat="48.5046660" lon="7.9238400">
        <ele>-246.6</ele>
        <time>2022-06-05T06:37:02Z</time>
      </trkpt>
      <trkpt lat="48.5044900" lon="7.9239760">
        <ele>-246.4</ele>
        <time>2022-06-05T06:37:06Z</time>
      </trkpt>
      <trkpt lat="48.5043150" lon="7.9241160">
        <ele>-246.8</ele>
        <time>2022-06-05T06:37:10Z</time>
      </trkpt>
      <trkpt lat="48.5041460" lon="7.9242580">
        <ele>-247.2</ele>
        <time>2022-06-05T06:37:14Z</time>
      </trkpt>
      <trkpt lat="48.5039780" lon="7.9243910">
        <ele>-246.6</ele>
        <time>2022-06-05T06:37:18Z</time>
      </trkpt>
      <trkpt lat="48.5038130" lon="7.9245210">
        <ele>-246.0</ele>
        <time>2022-06-05T06:37:22Z</time>
      </trkpt>
      <trkpt lat="48.5036530" lon="7.9246460">
        <ele>-246.2</ele>
        <time>2022-06-05T06:37:26Z</time>
      </trkpt>
      <trkpt lat="48.5034930" lon="7.9247810">
        <ele>-246.4</ele>
        <time>2022-06-05T06:37:30Z</time>
      </trkpt>
      <trkpt lat="48.5033310" lon="7.9249160">
        <ele>-246.2</ele>
        <time>2022-06-05T06:37:34Z</time>
      </trkpt>
      <trkpt lat="48.5031680" lon="7.9250450">
        <ele>-246.0</ele>
        <time>2022-06-05T06:37:38Z</time>
      </trkpt>
      <trkpt lat="48.5030100" lon="7.9251810">
        <ele>-245.6</ele>
        <time>2022-06-05T06:37:42Z</time>
      </trkpt>
      <trkpt lat="48.5028550" lon="7.9253100">
        <ele>-245.6</ele>
        <time>2022-06-05T06:37:46Z</time>
      </trkpt>
      <trkpt lat="48.5026930" lon="7.9254400">
        <ele>-246.2</ele>
        <time>2022-06-05T06:37:50Z</time>
      </trkpt>
      <trkpt lat="48.5025300" lon="7.9255710">
        <ele>-246.4</ele>
        <time>2022-06-05T06:37:54Z</time>
      </trkpt>
      <trkpt lat="48.5023600" lon="7.9256930">
        <ele>-246.0</ele>
        <time>2022-06-05T06:37:58Z</time>
      </trkpt>
      <trkpt lat="48.5021830" lon="7.9258000">
        <ele>-246.4</ele>
        <time>2022-06-05T06:38:02Z</time>
      </trkpt>
      <trkpt lat="48.5020050" lon="7.9258900">
        <ele>-246.4</ele>
        <time>2022-06-05T06:38:06Z</time>
      </trkpt>
      <trkpt lat="48.5018180" lon="7.9259750">
        <ele>-246.6</ele>
        <time>2022-06-05T06:38:10Z</time>
      </trkpt>
      <trkpt lat="48.5016310" lon="7.9260500">
        <ele>-246.8</ele>
        <time>2022-06-05T06:38:14Z</time>
      </trkpt>
      <trkpt lat="48.5014500" lon="7.9261210">
        <ele>-247.6</ele>
        <time>2022-06-05T06:38:18Z</time>
      </trkpt>
      <trkpt lat="48.5012660" lon="7.9261910">
        <ele>-246.4</ele>
        <time>2022-06-05T06:38:22Z</time>
      </trkpt>
      <trkpt lat="48.5010850" lon="7.9262460">
        <ele>-246.4</ele>
        <time>2022-06-05T06:38:26Z</time>
      </trkpt>
      <trkpt lat="48.5008960" lon="7.9262960">
        <ele>-246.4</ele>
        <time>2022-06-05T06:38:30Z</time>
      </trkpt>
      <trkpt lat="48.5007160" lon="7.9263350">
        <ele>-245.8</ele>
        <time>2022-06-05T06:38:34Z</time>
      </trkpt>
      <trkpt lat="48.5005350" lon="7.9263610">
        <ele>-246.0</ele>
        <time>2022-06-05T06:38:38Z</time>
      </trkpt>
      <trkpt lat="48.5003410" lon="7.9263780">
        <ele>-246.4</ele>
        <time>2022-06-05T06:38:42Z</time>
      </trkpt>
      <trkpt lat="48.5001550" lon="7.9264060">
        <ele>-245.4</ele>
        <time>2022-06-05T06:38:46Z</time>
      </trkpt>
      <trkpt lat="48.4999630" lon="7.9264360">
        <ele>-246.0</ele>
        <time>2022-06-05T06:38:50Z</time>
      </trkpt>
      <trkpt lat="48.4997710" lon="7.9264760">
        <ele>-245.8</ele>
        <time>2022-06-05T06:38:54Z</time>
      </trkpt>
      <trkpt lat="48.4995810" lon="7.9264960">
        <ele>-246.0</ele>
        <time>2022-06-05T06:38:58Z</time>
      </trkpt>
      <trkpt lat="48.4993950" lon="7.9265050">
        <ele>-245.6</ele>
        <time>2022-06-05T06:39:02Z</time>
      </trkpt>
      <trkpt lat="48.4992210" lon="7.9265280">
        <ele>-245.8</ele>
        <time>2022-06-05T06:39:06Z</time>
      </trkpt>
      <trkpt lat="48.4990400" lon="7.9265530">
        <ele>-245.8</ele>
        <time>2022-06-05T06:39:10Z</time>
      </trkpt>
      <trkpt lat="48.4988510" lon="7.9265860">
        <ele>-245.4</ele>
        <time>2022-06-05T06:39:14Z</time>
      </trkpt>
      <trkpt lat="48.4986630" lon="7.9266310">
        <ele>-245.8</ele>
        <time>2022-06-05T06:39:18Z</time>
      </trkpt>
      <trkpt lat="48.4984960" lon="7.9267600">
        <ele>-246.4</ele>
        <time>2022-06-05T06:39:22Z</time>
      </trkpt>
      <trkpt lat="48.4983380" lon="7.9269130">
        <ele>-246.0</ele>
        <time>2022-06-05T06:39:26Z</time>
      </trkpt>
      <trkpt lat="48.4981780" lon="7.9270630">
        <ele>-246.2</ele>
        <time>2022-06-05T06:39:30Z</time>
      </trkpt>
      <trkpt lat="48.4980230" lon="7.9272000">
        <ele>-245.4</ele>
        <time>2022-06-05T06:39:34Z</time>
      </trkpt>
      <trkpt lat="48.4978610" lon="7.9273230">
        <ele>-246.6</ele>
        <time>2022-06-05T06:39:38Z</time>
      </trkpt>
      <trkpt lat="48.4976950" lon="7.9274230">
        <ele>-246.0</ele>
        <time>2022-06-05T06:39:42Z</time>
      </trkpt>
      <trkpt lat="48.4975150" lon="7.9274660">
        <ele>-246.2</ele>
        <time>2022-06-05T06:39:46Z</time>
      </trkpt>
      <trkpt lat="48.4973350" lon="7.9274600">
        <ele>-246.0</ele>
        <time>2022-06-05T06:39:50Z</time>
      </trkpt>
      <trkpt lat="48.4971600" lon="7.9274380">
        <ele>-246.2</ele>
        <time>2022-06-05T06:39:54Z</time>
      </trkpt>
      <trkpt lat="48.4969800" lon="7.9274130">
        <ele>-247.0</ele>
        <time>2022-06-05T06:39:58Z</time>
      </trkpt>
      <trkpt lat="48.4967960" lon="7.9273800">
        <ele>-246.8</ele>
        <time>2022-06-05T06:40:02Z</time>
      </trkpt>
      <trkpt lat="48.4966100" lon="7.9273560">
        <ele>-246.4</ele>
        <time>2022-06-05T06:40:06Z</time>
      </trkpt>
      <trkpt lat="48.4964410" lon="7.9273580">
        <ele>-245.8</ele>
        <time>2022-06-05T06:40:10Z</time>
      </trkpt>
      <trkpt lat="48.4963080" lon="7.9273450">
        <ele>-244.8</ele>
        <time>2022-06-05T06:40:14Z</time>
      </trkpt>
      <trkpt lat="48.4961910" lon="7.9273480">
        <ele>-244.2</ele>
        <time>2022-06-05T06:40:18Z</time>
      </trkpt>
      <trkpt lat="48.4960680" lon="7.9273280">
        <ele>-244.0</ele>
        <time>2022-06-05T06:40:22Z</time>
      </trkpt>
      <trkpt lat="48.4959060" lon="7.9273180">
        <ele>-244.8</ele>
        <time>2022-06-05T06:40:26Z</time>
      </trkpt>
      <trkpt lat="48.4956930" lon="7.9272530">
        <ele>-245.8</ele>
        <time>2022-06-05T06:40:30Z</time>
      </trkpt>
      <trkpt lat="48.4954460" lon="7.9271080">
        <ele>-247.0</ele>
        <time>2022-06-05T06:40:34Z</time>
      </trkpt>
      <trkpt lat="48.4952300" lon="7.9269530">
        <ele>-247.0</ele>
        <time>2022-06-05T06:40:38Z</time>
      </trkpt>
      <trkpt lat="48.4950110" lon="7.9269330">
        <ele>-247.2</ele>
        <time>2022-06-05T06:40:42Z</time>
      </trkpt>
      <trkpt lat="48.4948000" lon="7.9269550">
        <ele>-247.6</ele>
        <time>2022-06-05T06:40:46Z</time>
      </trkpt>
      <trkpt lat="48.4945950" lon="7.9269760">
        <ele>-246.8</ele>
        <time>2022-06-05T06:40:50Z</time>
      </trkpt>
      <trkpt lat="48.4943950" lon="7.9269900">
        <ele>-246.8</ele>
        <time>2022-06-05T06:40:54Z</time>
      </trkpt>
      <trkpt lat="48.4942010" lon="7.9270000">
        <ele>-247.4</ele>
        <time>2022-06-05T06:40:58Z</time>
      </trkpt>
      <trkpt lat="48.4940080" lon="7.9270050">
        <ele>-247.6</ele>
        <time>2022-06-05T06:41:02Z</time>
      </trkpt>
      <trkpt lat="48.4938100" lon="7.9270250">
        <ele>-247.6</ele>
        <time>2022-06-05T06:41:06Z</time>
      </trkpt>
      <trkpt lat="48.4936130" lon="7.9270360">
        <ele>-247.6</ele>
        <time>2022-06-05T06:41:10Z</time>
      </trkpt>
      <trkpt lat="48.4934180" lon="7.9270480">
        <ele>-247.6</ele>
        <time>2022-06-05T06:41:14Z</time>
      </trkpt>
      <trkpt lat="48.4932150" lon="7.9270730">
        <ele>-247.6</ele>
        <time>2022-06-05T06:41:18Z</time>
      </trkpt>
      <trkpt lat="48.4930200" lon="7.9271030">
        <ele>-247.6</ele>
        <time>2022-06-05T06:41:22Z</time>
      </trkpt>
      <trkpt lat="48.4928330" lon="7.9271430">
        <ele>-247.0</ele>
        <time>2022-06-05T06:41:26Z</time>
      </trkpt>
      <trkpt lat="48.4926460" lon="7.9271650">
        <ele>-247.6</ele>
        <time>2022-06-05T06:41:30Z</time>
      </trkpt>
      <trkpt lat="48.4924510" lon="7.9271900">
        <ele>-247.6</ele>
        <time>2022-06-05T06:41:34Z</time>
      </trkpt>
      <trkpt lat="48.4922560" lon="7.9272250">
        <ele>-247.6</ele>
        <time>2022-06-05T06:41:38Z</time>
      </trkpt>
      <trkpt lat="48.4920630" lon="7.9272600">
        <ele>-247.0</ele>
        <time>2022-06-05T06:41:42Z</time>
      </trkpt>
      <trkpt lat="48.4918710" lon="7.9273010">
        <ele>-247.6</ele>
        <time>2022-06-05T06:41:46Z</time>
      </trkpt>
      <trkpt lat="48.4916830" lon="7.9273430">
        <ele>-247.4</ele>
        <time>2022-06-05T06:41:50Z</time>
      </trkpt>
      <trkpt lat="48.4915060" lon="7.9273930">
        <ele>-246.4</ele>
        <time>2022-06-05T06:41:54Z</time>
      </trkpt>
      <trkpt lat="48.4913210" lon="7.9274350">
        <ele>-246.4</ele>
        <time>2022-06-05T06:41:58Z</time>
      </trkpt>
      <trkpt lat="48.4911410" lon="7.9274860">
        <ele>-246.6</ele>
        <time>2022-06-05T06:42:02Z</time>
      </trkpt>
      <trkpt lat="48.4909580" lon="7.9275430">
        <ele>-246.8</ele>
        <time>2022-06-05T06:42:06Z</time>
      </trkpt>
      <trkpt lat="48.4907750" lon="7.9276010">
        <ele>-246.6</ele>
        <time>2022-06-05T06:42:10Z</time>
      </trkpt>
      <trkpt lat="48.4905930" lon="7.9276600">
        <ele>-246.8</ele>
        <time>2022-06-05T06:42:14Z</time>
      </trkpt>
      <trkpt lat="48.4904110" lon="7.9277130">
        <ele>-247.2</ele>
        <time>2022-06-05T06:42:18Z</time>
      </trkpt>
      <trkpt lat="48.4902280" lon="7.9277730">
        <ele>-247.0</ele>
        <time>2022-06-05T06:42:22Z</time>
      </trkpt>
      <trkpt lat="48.4900480" lon="7.9278300">
        <ele>-246.8</ele>
        <time>2022-06-05T06:42:26Z</time>
      </trkpt>
      <trkpt lat="48.4898750" lon="7.9278880">
        <ele>-247.8</ele>
        <time>2022-06-05T06:42:30Z</time>
      </trkpt>
      <trkpt lat="48.4896930" lon="7.9279430">
        <ele>-247.6</ele>
        <time>2022-06-05T06:42:34Z</time>
      </trkpt>
      <trkpt lat="48.4895130" lon="7.9280000">
        <ele>-247.2</ele>
        <time>2022-06-05T06:42:38Z</time>
      </trkpt>
      <trkpt lat="48.4893350" lon="7.9280560">
        <ele>-247.4</ele>
        <time>2022-06-05T06:42:42Z</time>
      </trkpt>
      <trkpt lat="48.4891610" lon="7.9281110">
        <ele>-247.0</ele>
        <time>2022-06-05T06:42:46Z</time>
      </trkpt>
      <trkpt lat="48.4889800" lon="7.9281650">
        <ele>-246.6</ele>
        <time>2022-06-05T06:42:50Z</time>
      </trkpt>
      <trkpt lat="48.4888010" lon="7.9282230">
        <ele>-246.6</ele>
        <time>2022-06-05T06:42:54Z</time>
      </trkpt>
      <trkpt lat="48.4886280" lon="7.9282760">
        <ele>-246.8</ele>
        <time>2022-06-05T06:42:58Z</time>
      </trkpt>
      <trkpt lat="48.4884530" lon="7.9283380">
        <ele>-246.6</ele>
        <time>2022-06-05T06:43:02Z</time>
      </trkpt>
      <trkpt lat="48.4882760" lon="7.9283900">
        <ele>-246.4</ele>
        <time>2022-06-05T06:43:06Z</time>
      </trkpt>
      <trkpt lat="48.4881000" lon="7.9284450">
        <ele>-247.0</ele>
        <time>2022-06-05T06:43:10Z</time>
      </trkpt>
      <trkpt lat="48.4879250" lon="7.9284930">
        <ele>-247.0</ele>
        <time>2022-06-05T06:43:14Z</time>
      </trkpt>
      <trkpt lat="48.4877500" lon="7.9285500">
        <ele>-246.4</ele>
        <time>2022-06-05T06:43:18Z</time>
      </trkpt>
      <trkpt lat="48.4875680" lon="7.9286000">
        <ele>-246.4</ele>
        <time>2022-06-05T06:43:22Z</time>
      </trkpt>
      <trkpt lat="48.4873810" lon="7.9286580">
        <ele>-247.6</ele>
        <time>2022-06-05T06:43:26Z</time>
      </trkpt>
      <trkpt lat="48.4872010" lon="7.9287110">
        <ele>-246.6</ele>
        <time>2022-06-05T06:43:30Z</time>
      </trkpt>
      <trkpt lat="48.4870180" lon="7.9287650">
        <ele>-246.6</ele>
        <time>2022-06-05T06:43:34Z</time>
      </trkpt>
      <trkpt lat="48.4868330" lon="7.9288200">
        <ele>-247.0</ele>
        <time>2022-06-05T06:43:38Z</time>
      </trkpt>
      <trkpt lat="48.4866580" lon="7.9288810">
        <ele>-247.0</ele>
        <time>2022-06-05T06:43:42Z</time>
      </trkpt>
      <trkpt lat="48.4864800" lon="7.9289600">
        <ele>-246.6</ele>
        <time>2022-06-05T06:43:46Z</time>
      </trkpt>
      <trkpt lat="48.4863150" lon="7.9290650">
        <ele>-247.2</ele>
        <time>2022-06-05T06:43:50Z</time>
      </trkpt>
      <trkpt lat="48.4861680" lon="7.9292200">
        <ele>-247.0</ele>
        <time>2022-06-05T06:43:54Z</time>
      </trkpt>
      <trkpt lat="48.4860410" lon="7.9294130">
        <ele>-246.8</ele>
        <time>2022-06-05T06:43:58Z</time>
      </trkpt>
      <trkpt lat="48.4858930" lon="7.9295710">
        <ele>-247.0</ele>
        <time>2022-06-05T06:44:02Z</time>
      </trkpt>
      <trkpt lat="48.4857400" lon="7.9297150">
        <ele>-246.8</ele>
        <time>2022-06-05T06:44:06Z</time>
      </trkpt>
      <trkpt lat="48.4855780" lon="7.9298560">
        <ele>-247.2</ele>
        <time>2022-06-05T06:44:10Z</time>
      </trkpt>
      <trkpt lat="48.4854210" lon="7.9299960">
        <ele>-247.4</ele>
        <time>2022-06-05T06:44:14Z</time>
      </trkpt>
      <trkpt lat="48.4852660" lon="7.9301210">
        <ele>-247.0</ele>
        <time>2022-06-05T06:44:18Z</time>
      </trkpt>
      <trkpt lat="48.4851100" lon="7.9302600">
        <ele>-247.0</ele>
        <time>2022-06-05T06:44:22Z</time>
      </trkpt>
      <trkpt lat="48.4849530" lon="7.9303880">
        <ele>-247.6</ele>
        <time>2022-06-05T06:44:26Z</time>
      </trkpt>
      <trkpt lat="48.4848060" lon="7.9305080">
        <ele>-247.0</ele>
        <time>2022-06-05T06:44:30Z</time>
      </trkpt>
      <trkpt lat="48.4846510" lon="7.9306000">
        <ele>-247.2</ele>
        <time>2022-06-05T06:44:34Z</time>
      </trkpt>
      <trkpt lat="48.4844930" lon="7.9306900">
        <ele>-247.6</ele>
        <time>2022-06-05T06:44:38Z</time>
      </trkpt>
      <trkpt lat="48.4843330" lon="7.9307730">
        <ele>-247.2</ele>
        <time>2022-06-05T06:44:42Z</time>
      </trkpt>
      <trkpt lat="48.4841710" lon="7.9308610">
        <ele>-247.2</ele>
        <time>2022-06-05T06:44:46Z</time>
      </trkpt>
      <trkpt lat="48.4840080" lon="7.9309460">
        <ele>-247.8</ele>
        <time>2022-06-05T06:44:50Z</time>
      </trkpt>
      <trkpt lat="48.4838430" lon="7.9310360">
        <ele>-246.8</ele>
        <time>2022-06-05T06:44:54Z</time>
      </trkpt>
      <trkpt lat="48.4836780" lon="7.9311310">
        <ele>-247.2</ele>
        <time>2022-06-05T06:44:58Z</time>
      </trkpt>
      <trkpt lat="48.4835180" lon="7.9312210">
        <ele>-246.6</ele>
        <time>2022-06-05T06:45:02Z</time>
      </trkpt>
      <trkpt lat="48.4833580" lon="7.9313100">
        <ele>-246.8</ele>
        <time>2022-06-05T06:45:06Z</time>
      </trkpt>
      <trkpt lat="48.4831950" lon="7.9314000">
        <ele>-247.0</ele>
        <time>2022-06-05T06:45:10Z</time>
      </trkpt>
      <trkpt lat="48.4830310" lon="7.9314910">
        <ele>-247.0</ele>
        <time>2022-06-05T06:45:14Z</time>
      </trkpt>
      <trkpt lat="48.4828680" lon="7.9315830">
        <ele>-247.0</ele>
        <time>2022-06-05T06:45:18Z</time>
      </trkpt>
      <trkpt lat="48.4827060" lon="7.9316780">
        <ele>-247.4</ele>
        <time>2022-06-05T06:45:22Z</time>
      </trkpt>
      <trkpt lat="48.4825500" lon="7.9317850">
        <ele>-247.0</ele>
        <time>2022-06-05T06:45:26Z</time>
      </trkpt>
      <trkpt lat="48.4824010" lon="7.9319010">
        <ele>-247.0</ele>
        <time>2022-06-05T06:45:30Z</time>
      </trkpt>
      <trkpt lat="48.4822810" lon="7.9319860">
        <ele>-246.6</ele>
        <time>2022-06-05T06:45:34Z</time>
      </trkpt>
      <trkpt lat="48.4821730" lon="7.9320210">
        <ele>-246.4</ele>
        <time>2022-06-05T06:45:38Z</time>
      </trkpt>
      <trkpt lat="48.4820410" lon="7.9320350">
        <ele>-246.0</ele>
        <time>2022-06-05T06:45:42Z</time>
      </trkpt>
      <trkpt lat="48.4818650" lon="7.9320460">
        <ele>-246.6</ele>
        <time>2022-06-05T06:45:46Z</time>
      </trkpt>
      <trkpt lat="48.4817010" lon="7.9321780">
        <ele>-247.0</ele>
        <time>2022-06-05T06:45:50Z</time>
      </trkpt>
      <trkpt lat="48.4815600" lon="7.9323100">
        <ele>-246.8</ele>
        <time>2022-06-05T06:45:54Z</time>
      </trkpt>
      <trkpt lat="48.4814160" lon="7.9325060">
        <ele>-247.2</ele>
        <time>2022-06-05T06:45:58Z</time>
      </trkpt>
      <trkpt lat="48.4812810" lon="7.9326460">
        <ele>-247.2</ele>
        <time>2022-06-05T06:46:02Z</time>
      </trkpt>
      <trkpt lat="48.4811560" lon="7.9328680">
        <ele>-246.6</ele>
        <time>2022-06-05T06:46:06Z</time>
      </trkpt>
      <trkpt lat="48.4810360" lon="7.9330780">
        <ele>-246.8</ele>
        <time>2022-06-05T06:46:10Z</time>
      </trkpt>
      <trkpt lat="48.4809160" lon="7.9332760">
        <ele>-247.0</ele>
        <time>2022-06-05T06:46:14Z</time>
      </trkpt>
      <trkpt lat="48.4808050" lon="7.9334730">
        <ele>-246.4</ele>
        <time>2022-06-05T06:46:18Z</time>
      </trkpt>
      <trkpt lat="48.4807080" lon="7.9336410">
        <ele>-246.2</ele>
        <time>2022-06-05T06:46:22Z</time>
      </trkpt>
      <trkpt lat="48.4805880" lon="7.9338230">
        <ele>-246.4</ele>
        <time>2022-06-05T06:46:26Z</time>
      </trkpt>
      <trkpt lat="48.4804410" lon="7.9340180">
        <ele>-247.4</ele>
        <time>2022-06-05T06:46:30Z</time>
      </trkpt>
      <trkpt lat="48.4802630" lon="7.9342530">
        <ele>-249.2</ele>
        <time>2022-06-05T06:46:34Z</time>
      </trkpt>
      <trkpt lat="48.4800810" lon="7.9344700">
        <ele>-248.2</ele>
        <time>2022-06-05T06:46:38Z</time>
      </trkpt>
      <trkpt lat="48.4799200" lon="7.9346330">
        <ele>-247.0</ele>
        <time>2022-06-05T06:46:42Z</time>
      </trkpt>
      <trkpt lat="48.4797880" lon="7.9347600">
        <ele>-246.2</ele>
        <time>2022-06-05T06:46:46Z</time>
      </trkpt>
      <trkpt lat="48.4796230" lon="7.9348900">
        <ele>-246.8</ele>
        <time>2022-06-05T06:46:50Z</time>
      </trkpt>
      <trkpt lat="48.4794680" lon="7.9350200">
        <ele>-246.8</ele>
        <time>2022-06-05T06:46:54Z</time>
      </trkpt>
      <trkpt lat="48.4793130" lon="7.9351760">
        <ele>-247.2</ele>
        <time>2022-06-05T06:46:58Z</time>
      </trkpt>
      <trkpt lat="48.4791510" lon="7.9353100">
        <ele>-246.2</ele>
        <time>2022-06-05T06:47:02Z</time>
      </trkpt>
      <trkpt lat="48.4789900" lon="7.9354560">
        <ele>-246.6</ele>
        <time>2022-06-05T06:47:06Z</time>
      </trkpt>
      <trkpt lat="48.4788300" lon="7.9355960">
        <ele>-246.8</ele>
        <time>2022-06-05T06:47:10Z</time>
      </trkpt>
      <trkpt lat="48.4786850" lon="7.9357350">
        <ele>-246.6</ele>
        <time>2022-06-05T06:47:14Z</time>
      </trkpt>
      <trkpt lat="48.4785300" lon="7.9358660">
        <ele>-246.6</ele>
        <time>2022-06-05T06:47:18Z</time>
      </trkpt>
      <trkpt lat="48.4783830" lon="7.9360100">
        <ele>-246.6</ele>
        <time>2022-06-05T06:47:22Z</time>
      </trkpt>
      <trkpt lat="48.4782310" lon="7.9361280">
        <ele>-247.2</ele>
        <time>2022-06-05T06:47:26Z</time>
      </trkpt>
      <trkpt lat="48.4780530" lon="7.9362650">
        <ele>-247.0</ele>
        <time>2022-06-05T06:47:30Z</time>
      </trkpt>
      <trkpt lat="48.4778880" lon="7.9364100">
        <ele>-246.8</ele>
        <time>2022-06-05T06:47:34Z</time>
      </trkpt>
      <trkpt lat="48.4777350" lon="7.9365580">
        <ele>-246.4</ele>
        <time>2022-06-05T06:47:38Z</time>
      </trkpt>
      <trkpt lat="48.4775850" lon="7.9367200">
        <ele>-246.8</ele>
        <time>2022-06-05T06:47:42Z</time>
      </trkpt>
      <trkpt lat="48.4774480" lon="7.9368830">
        <ele>-246.4</ele>
        <time>2022-06-05T06:47:46Z</time>
      </trkpt>
      <trkpt lat="48.4773200" lon="7.9370260">
        <ele>-246.8</ele>
        <time>2022-06-05T06:47:50Z</time>
      </trkpt>
      <trkpt lat="48.4772150" lon="7.9371450">
        <ele>-246.4</ele>
        <time>2022-06-05T06:47:54Z</time>
      </trkpt>
      <trkpt lat="48.4771180" lon="7.9371200">
        <ele>-247.0</ele>
        <time>2022-06-05T06:47:58Z</time>
      </trkpt>
      <trkpt lat="48.4769860" lon="7.9370180">
        <ele>-246.4</ele>
        <time>2022-06-05T06:48:02Z</time>
      </trkpt>
      <trkpt lat="48.4768300" lon="7.9371430">
        <ele>-247.0</ele>
        <time>2022-06-05T06:48:06Z</time>
      </trkpt>
      <trkpt lat="48.4766800" lon="7.9372910">
        <ele>-246.6</ele>
        <time>2022-06-05T06:48:10Z</time>
      </trkpt>
      <trkpt lat="48.4765260" lon="7.9374100">
        <ele>-247.4</ele>
        <time>2022-06-05T06:48:14Z</time>
      </trkpt>
      <trkpt lat="48.4763610" lon="7.9375060">
        <ele>-246.4</ele>
        <time>2022-06-05T06:48:18Z</time>
      </trkpt>
      <trkpt lat="48.4761930" lon="7.9375760">
        <ele>-247.2</ele>
        <time>2022-06-05T06:48:22Z</time>
      </trkpt>
      <trkpt lat="48.4760230" lon="7.9376450">
        <ele>-247.0</ele>
        <time>2022-06-05T06:48:26Z</time>
      </trkpt>
      <trkpt lat="48.4758480" lon="7.9377000">
        <ele>-246.4</ele>
        <time>2022-06-05T06:48:30Z</time>
      </trkpt>
      <trkpt lat="48.4756800" lon="7.9377600">
        <ele>-247.0</ele>
        <time>2022-06-05T06:48:34Z</time>
      </trkpt>
      <trkpt lat="48.4755130" lon="7.9378180">
        <ele>-246.4</ele>
        <time>2022-06-05T06:48:38Z</time>
      </trkpt>
      <trkpt lat="48.4753560" lon="7.9378630">
        <ele>-246.6</ele>
        <time>2022-06-05T06:48:42Z</time>
      </trkpt>
      <trkpt lat="48.4752280" lon="7.9379160">
        <ele>-246.4</ele>
        <time>2022-06-05T06:48:46Z</time>
      </trkpt>
      <trkpt lat="48.4751210" lon="7.9379610">
        <ele>-246.6</ele>
        <time>2022-06-05T06:48:50Z</time>
      </trkpt>
      <trkpt lat="48.4750150" lon="7.9380060">
        <ele>-246.6</ele>
        <time>2022-06-05T06:48:54Z</time>
      </trkpt>
      <trkpt lat="48.4749160" lon="7.9380330">
        <ele>-246.4</ele>
        <time>2022-06-05T06:48:58Z</time>
      </trkpt>
      <trkpt lat="48.4748360" lon="7.9380680">
        <ele>-247.4</ele>
        <time>2022-06-05T06:49:02Z</time>
      </trkpt>
      <trkpt lat="48.4747650" lon="7.9380830">
        <ele>-247.0</ele>
        <time>2022-06-05T06:49:06Z</time>
      </trkpt>
      <trkpt lat="48.4746980" lon="7.9380680">
        <ele>-246.6</ele>
        <time>2022-06-05T06:49:10Z</time>
      </trkpt>
      <trkpt lat="48.4746330" lon="7.9381010">
        <ele>-246.4</ele>
        <time>2022-06-05T06:49:14Z</time>
      </trkpt>
      <trkpt lat="48.4745260" lon="7.9381260">
        <ele>-247.0</ele>
        <time>2022-06-05T06:49:18Z</time>
      </trkpt>
      <trkpt lat="48.4743800" lon="7.9381680">
        <ele>-247.0</ele>
        <time>2022-06-05T06:49:22Z</time>
      </trkpt>
      <trkpt lat="48.4742250" lon="7.9382160">
        <ele>-246.4</ele>
        <time>2022-06-05T06:49:26Z</time>
      </trkpt>
      <trkpt lat="48.4740600" lon="7.9382780">
        <ele>-245.8</ele>
        <time>2022-06-05T06:49:30Z</time>
      </trkpt>
      <trkpt lat="48.4738960" lon="7.9383480">
        <ele>-246.4</ele>
        <time>2022-06-05T06:49:34Z</time>
      </trkpt>
      <trkpt lat="48.4737300" lon="7.9384060">
        <ele>-246.4</ele>
        <time>2022-06-05T06:49:38Z</time>
      </trkpt>
      <trkpt lat="48.4735660" lon="7.9384650">
        <ele>-246.2</ele>
        <time>2022-06-05T06:49:42Z</time>
      </trkpt>
      <trkpt lat="48.4734130" lon="7.9385330">
        <ele>-245.4</ele>
        <time>2022-06-05T06:49:46Z</time>
      </trkpt>
      <trkpt lat="48.4732550" lon="7.9386010">
        <ele>-246.4</ele>
        <time>2022-06-05T06:49:50Z</time>
      </trkpt>
      <trkpt lat="48.4731000" lon="7.9386550">
        <ele>-246.2</ele>
        <time>2022-06-05T06:49:54Z</time>
      </trkpt>
      <trkpt lat="48.4729400" lon="7.9386830">
        <ele>-246.6</ele>
        <time>2022-06-05T06:49:58Z</time>
      </trkpt>
      <trkpt lat="48.4727800" lon="7.9387230">
        <ele>-246.0</ele>
        <time>2022-06-05T06:50:02Z</time>
      </trkpt>
      <trkpt lat="48.4726300" lon="7.9387660">
        <ele>-245.4</ele>
        <time>2022-06-05T06:50:06Z</time>
      </trkpt>
      <trkpt lat="48.4724680" lon="7.9388250">
        <ele>-246.0</ele>
        <time>2022-06-05T06:50:10Z</time>
      </trkpt>
      <trkpt lat="48.4723230" lon="7.9388960">
        <ele>-245.4</ele>
        <time>2022-06-05T06:50:14Z</time>
      </trkpt>
      <trkpt lat="48.4721800" lon="7.9389560">
        <ele>-245.2</ele>
        <time>2022-06-05T06:50:18Z</time>
      </trkpt>
      <trkpt lat="48.4720410" lon="7.9390030">
        <ele>-244.8</ele>
        <time>2022-06-05T06:50:22Z</time>
      </trkpt>
      <trkpt lat="48.4719510" lon="7.9390900">
        <ele>-244.8</ele>
        <time>2022-06-05T06:50:26Z</time>
      </trkpt>
      <trkpt lat="48.4719300" lon="7.9392460">
        <ele>-244.4</ele>
        <time>2022-06-05T06:50:30Z</time>
      </trkpt>
      <trkpt lat="48.4719530" lon="7.9394360">
        <ele>-244.4</ele>
        <time>2022-06-05T06:50:34Z</time>
      </trkpt>
      <trkpt lat="48.4719230" lon="7.9396280">
        <ele>-243.6</ele>
        <time>2022-06-05T06:50:38Z</time>
      </trkpt>
      <trkpt lat="48.4718930" lon="7.9397910">
        <ele>-243.8</ele>
        <time>2022-06-05T06:50:42Z</time>
      </trkpt>
      <trkpt lat="48.4718580" lon="7.9399710">
        <ele>-242.8</ele>
        <time>2022-06-05T06:50:46Z</time>
      </trkpt>
      <trkpt lat="48.4718910" lon="7.9401330">
        <ele>-242.6</ele>
        <time>2022-06-05T06:50:50Z</time>
      </trkpt>
      <trkpt lat="48.4719030" lon="7.9402880">
        <ele>-242.0</ele>
        <time>2022-06-05T06:50:54Z</time>
      </trkpt>
      <trkpt lat="48.4719160" lon="7.9404160">
        <ele>-241.4</ele>
        <time>2022-06-05T06:50:58Z</time>
      </trkpt>
      <trkpt lat="48.4718760" lon="7.9405330">
        <ele>-241.6</ele>
        <time>2022-06-05T06:51:02Z</time>
      </trkpt>
      <trkpt lat="48.4718730" lon="7.9406630">
        <ele>-241.6</ele>
        <time>2022-06-05T06:51:06Z</time>
      </trkpt>
      <trkpt lat="48.4719200" lon="7.9407700">
        <ele>-241.0</ele>
        <time>2022-06-05T06:51:10Z</time>
      </trkpt>
      <trkpt lat="48.4719850" lon="7.9408450">
        <ele>-240.4</ele>
        <time>2022-06-05T06:51:14Z</time>
      </trkpt>
      <trkpt lat="48.4720260" lon="7.9409310">
        <ele>-240.2</ele>
        <time>2022-06-05T06:51:18Z</time>
      </trkpt>
      <trkpt lat="48.4720280" lon="7.9410530">
        <ele>-239.4</ele>
        <time>2022-06-05T06:51:22Z</time>
      </trkpt>
      <trkpt lat="48.4720080" lon="7.9411950">
        <ele>-238.8</ele>
        <time>2022-06-05T06:51:26Z</time>
      </trkpt>
      <trkpt lat="48.4720060" lon="7.9413250">
        <ele>-238.8</ele>
        <time>2022-06-05T06:51:30Z</time>
      </trkpt>
      <trkpt lat="48.4720280" lon="7.9414510">
        <ele>-238.0</ele>
        <time>2022-06-05T06:51:34Z</time>
      </trkpt>
      <trkpt lat="48.4720100" lon="7.9416130">
        <ele>-238.0</ele>
        <time>2022-06-05T06:51:38Z</time>
      </trkpt>
      <trkpt lat="48.4719800" lon="7.9417680">
        <ele>-238.0</ele>
        <time>2022-06-05T06:51:42Z</time>
      </trkpt>
      <trkpt lat="48.4719300" lon="7.9419230">
        <ele>-237.8</ele>
        <time>2022-06-05T06:51:46Z</time>
      </trkpt>
      <trkpt lat="48.4718950" lon="7.9419780">
        <ele>-237.6</ele>
        <time>2022-06-05T06:51:50Z</time>
      </trkpt>
      <trkpt lat="48.4718260" lon="7.9421080">
        <ele>-237.4</ele>
        <time>2022-06-05T06:51:54Z</time>
      </trkpt>
      <trkpt lat="48.4718310" lon="7.9422130">
        <ele>-237.6</ele>
        <time>2022-06-05T06:51:58Z</time>
      </trkpt>
      <trkpt lat="48.4718310" lon="7.9423180">
        <ele>-237.4</ele>
        <time>2022-06-05T06:52:02Z</time>
      </trkpt>
      <trkpt lat="48.4718230" lon="7.9424060">
        <ele>-237.2</ele>
        <time>2022-06-05T06:52:06Z</time>
      </trkpt>
      <trkpt lat="48.4718100" lon="7.9425050">
        <ele>-236.8</ele>
        <time>2022-06-05T06:52:10Z</time>
      </trkpt>
      <trkpt lat="48.4718010" lon="7.9426180">
        <ele>-236.8</ele>
        <time>2022-06-05T06:52:14Z</time>
      </trkpt>
      <trkpt lat="48.4717630" lon="7.9429160">
        <ele>-236.6</ele>
        <time>2022-06-05T06:52:18Z</time>
      </trkpt>
      <trkpt lat="48.4717050" lon="7.9429500">
        <ele>-236.6</ele>
        <time>2022-06-05T06:52:22Z</time>
      </trkpt>
      <trkpt lat="48.4717050" lon="7.9429500">
        <ele>-236.6</ele>
        <time>2022-06-05T06:52:26Z</time>
      </trkpt>
      <trkpt lat="48.4717050" lon="7.9429500">
        <ele>-236.4</ele>
        <time>2022-06-05T06:52:30Z</time>
      </trkpt>
      <trkpt lat="48.4717050" lon="7.9429500">
        <ele>-236.4</ele>
        <time>2022-06-05T06:52:34Z</time>
      </trkpt>
      <trkpt lat="48.4716600" lon="7.9429910">
        <ele>-236.0</ele>
        <time>2022-06-05T06:52:38Z</time>
      </trkpt>
      <trkpt lat="48.4716780" lon="7.9430030">
        <ele>-236.0</ele>
        <time>2022-06-05T06:52:42Z</time>
      </trkpt>
      <trkpt lat="48.4717630" lon="7.9430680">
        <ele>-236.2</ele>
        <time>2022-06-05T06:52:46Z</time>
      </trkpt>
      <trkpt lat="48.4718680" lon="7.9431080">
        <ele>-236.0</ele>
        <time>2022-06-05T06:52:50Z</time>
      </trkpt>
      <trkpt lat="48.4719530" lon="7.9431500">
        <ele>-236.0</ele>
        <time>2022-06-05T06:52:54Z</time>
      </trkpt>
      <trkpt lat="48.4720130" lon="7.9431860">
        <ele>-235.8</ele>
        <time>2022-06-05T06:52:58Z</time>
      </trkpt>
      <trkpt lat="48.4720800" lon="7.9432500">
        <ele>-236.0</ele>
        <time>2022-06-05T06:53:02Z</time>
      </trkpt>
      <trkpt lat="48.4721360" lon="7.9433910">
        <ele>-235.8</ele>
        <time>2022-06-05T06:53:06Z</time>
      </trkpt>
      <trkpt lat="48.4722000" lon="7.9434080">
        <ele>-236.0</ele>
        <time>2022-06-05T06:53:10Z</time>
      </trkpt>
      <trkpt lat="48.4722000" lon="7.9434080">
        <ele>-236.0</ele>
        <time>2022-06-05T06:53:14Z</time>
      </trkpt>
      <trkpt lat="48.4722000" lon="7.9434080">
        <ele>-236.0</ele>
        <time>2022-06-05T06:53:18Z</time>
      </trkpt>
      <trkpt lat="48.4722000" lon="7.9434080">
        <ele>-235.8</ele>
        <time>2022-06-05T06:53:22Z</time>
      </trkpt>
      <trkpt lat="48.4722000" lon="7.9434080">
        <ele>-235.4</ele>
        <time>2022-06-05T06:53:26Z</time>
      </trkpt>
      <trkpt lat="48.4722000" lon="7.9434080">
        <ele>-235.4</ele>
        <time>2022-06-05T06:53:30Z</time>
      </trkpt>
      <trkpt lat="48.4722000" lon="7.9434080">
        <ele>-235.2</ele>
        <time>2022-06-05T06:53:34Z</time>
      </trkpt>
      <trkpt lat="48.4722000" lon="7.9434080">
        <ele>-235.4</ele>
        <time>2022-06-05T06:53:38Z</time>
      </trkpt>
      <trkpt lat="48.4722000" lon="7.9434080">
        <ele>-235.4</ele>
        <time>2022-06-05T06:53:42Z</time>
      </trkpt>
      <trkpt lat="48.4722000" lon="7.9434080">
        <ele>-235.4</ele>
        <time>2022-06-05T06:53:46Z</time>
      </trkpt>
      <trkpt lat="48.4722000" lon="7.9434080">
        <ele>-235.4</ele>
        <time>2022-06-05T06:53:50Z</time>
      </trkpt>
      <trkpt lat="48.4722000" lon="7.9434080">
        <ele>-235.2</ele>
        <time>2022-06-05T06:53:54Z</time>
      </trkpt>
      <trkpt lat="48.4722000" lon="7.9434080">
        <ele>-234.8</ele>
        <time>2022-06-05T06:53:58Z</time>
      </trkpt>
      <trkpt lat="48.4722000" lon="7.9434080">
        <ele>-235.0</ele>
        <time>2022-06-05T06:54:02Z</time>
      </trkpt>
      <trkpt lat="48.4722000" lon="7.9434080">
        <ele>-234.8</ele>
        <time>2022-06-05T06:54:06Z</time>
      </trkpt>
      <trkpt lat="48.4722930" lon="7.9432280">
        <ele>-235.4</ele>
        <time>2022-06-05T06:54:10Z</time>
      </trkpt>
      <trkpt lat="48.4723430" lon="7.9432310">
        <ele>-235.4</ele>
        <time>2022-06-05T06:54:14Z</time>
      </trkpt>
      <trkpt lat="48.4723430" lon="7.9432310">
        <ele>-235.2</ele>
        <time>2022-06-05T06:54:18Z</time>
      </trkpt>
      <trkpt lat="48.4723430" lon="7.9432310">
        <ele>-235.0</ele>
        <time>2022-06-05T06:54:22Z</time>
      </trkpt>
      <trkpt lat="48.4723430" lon="7.9432310">
        <ele>-234.8</ele>
        <time>2022-06-05T06:54:26Z</time>
      </trkpt>
      <trkpt lat="48.4723430" lon="7.9432310">
        <ele>-235.0</ele>
        <time>2022-06-05T06:54:30Z</time>
      </trkpt>
      <trkpt lat="48.4723430" lon="7.9432310">
        <ele>-235.0</ele>
        <time>2022-06-05T06:54:34Z</time>
      </trkpt>
      <trkpt lat="48.4723430" lon="7.9432310">
        <ele>-234.6</ele>
        <time>2022-06-05T06:54:38Z</time>
      </trkpt>
      <trkpt lat="48.4723430" lon="7.9432310">
        <ele>-235.2</ele>
        <time>2022-06-05T06:54:42Z</time>
      </trkpt>
      <trkpt lat="48.4723430" lon="7.9432310">
        <ele>-234.6</ele>
        <time>2022-06-05T06:54:46Z</time>
      </trkpt>
      <trkpt lat="48.4723430" lon="7.9432310">
        <ele>-234.6</ele>
        <time>2022-06-05T06:54:50Z</time>
      </trkpt>
      <trkpt lat="48.4723430" lon="7.9432310">
        <ele>-234.4</ele>
        <time>2022-06-05T06:54:54Z</time>
      </trkpt>
      <trkpt lat="48.4723430" lon="7.9432310">
        <ele>-234.4</ele>
        <time>2022-06-05T06:54:58Z</time>
      </trkpt>
      <trkpt lat="48.4723430" lon="7.9432310">
        <ele>-234.4</ele>
        <time>2022-06-05T06:55:02Z</time>
      </trkpt>
      <trkpt lat="48.4723430" lon="7.9432310">
        <ele>-234.4</ele>
        <time>2022-06-05T06:55:06Z</time>
      </trkpt>
      <trkpt lat="48.4723430" lon="7.9432310">
        <ele>-234.8</ele>
        <time>2022-06-05T06:55:10Z</time>
      </trkpt>
      <trkpt lat="48.4723430" lon="7.9432310">
        <ele>-234.4</ele>
        <time>2022-06-05T06:55:14Z</time>
      </trkpt>
      <trkpt lat="48.4723430" lon="7.9432310">
        <ele>-234.2</ele>
        <time>2022-06-05T06:55:18Z</time>
      </trkpt>
      <trkpt lat="48.4723430" lon="7.9432310">
        <ele>-234.4</ele>
        <time>2022-06-05T06:55:22Z</time>
      </trkpt>
      <trkpt lat="48.4723430" lon="7.9432310">
        <ele>-233.8</ele>
        <time>2022-06-05T06:55:26Z</time>
      </trkpt>
      <trkpt lat="48.4723430" lon="7.9432310">
        <ele>-233.8</ele>
        <time>2022-06-05T06:55:30Z</time>
      </trkpt>
      <trkpt lat="48.4723430" lon="7.9432310">
        <ele>-233.6</ele>
        <time>2022-06-05T06:55:34Z</time>
      </trkpt>
      <trkpt lat="48.4723430" lon="7.9432310">
        <ele>-233.8</ele>
        <time>2022-06-05T06:55:38Z</time>
      </trkpt>
      <trkpt lat="48.4723430" lon="7.9432310">
        <ele>-233.8</ele>
        <time>2022-06-05T06:55:42Z</time>
      </trkpt>
      <trkpt lat="48.4723430" lon="7.9432310">
        <ele>-233.6</ele>
        <time>2022-06-05T06:55:46Z</time>
      </trkpt>
      <trkpt lat="48.4723430" lon="7.9432310">
        <ele>-233.6</ele>
        <time>2022-06-05T06:55:50Z</time>
      </trkpt>
      <trkpt lat="48.4723430" lon="7.9432310">
        <ele>-233.6</ele>
        <time>2022-06-05T06:55:54Z</time>
      </trkpt>
      <trkpt lat="48.4723430" lon="7.9432310">
        <ele>-233.6</ele>
        <time>2022-06-05T06:55:58Z</time>
      </trkpt>
      <trkpt lat="48.4723430" lon="7.9432310">
        <ele>-233.4</ele>
        <time>2022-06-05T06:56:02Z</time>
      </trkpt>
      <trkpt lat="48.4723430" lon="7.9432310">
        <ele>-233.6</ele>
        <time>2022-06-05T06:56:06Z</time>
      </trkpt>
      <trkpt lat="48.4723430" lon="7.9432310">
        <ele>-233.4</ele>
        <time>2022-06-05T06:56:10Z</time>
      </trkpt>
      <trkpt lat="48.4723430" lon="7.9432310">
        <ele>-233.6</ele>
        <time>2022-06-05T06:56:14Z</time>
      </trkpt>
      <trkpt lat="48.4723430" lon="7.9432310">
        <ele>-233.4</ele>
        <time>2022-06-05T06:56:18Z</time>
      </trkpt>
      <trkpt lat="48.4723430" lon="7.9432310">
        <ele>-233.4</ele>
        <time>2022-06-05T06:56:22Z</time>
      </trkpt>
      <trkpt lat="48.4723430" lon="7.9432310">
        <ele>-233.4</ele>
        <time>2022-06-05T06:56:26Z</time>
      </trkpt>
      <trkpt lat="48.4723430" lon="7.9432310">
        <ele>-233.4</ele>
        <time>2022-06-05T06:56:30Z</time>
      </trkpt>
      <trkpt lat="48.4723430" lon="7.9432310">
        <ele>-233.4</ele>
        <time>2022-06-05T06:56:34Z</time>
      </trkpt>
      <trkpt lat="48.4723430" lon="7.9432310">
        <ele>-233.2</ele>
        <time>2022-06-05T06:56:38Z</time>
      </trkpt>
      <trkpt lat="48.4723430" lon="7.9432310">
        <ele>-233.2</ele>
        <time>2022-06-05T06:56:42Z</time>
      </trkpt>
      <trkpt lat="48.4723430" lon="7.9432310">
        <ele>-233.4</ele>
        <time>2022-06-05T06:56:46Z</time>
      </trkpt>
      <trkpt lat="48.4723430" lon="7.9432310">
        <ele>-233.0</ele>
        <time>2022-06-05T06:56:50Z</time>
      </trkpt>
      <trkpt lat="48.4723430" lon="7.9432310">
        <ele>-233.2</ele>
        <time>2022-06-05T06:56:54Z</time>
      </trkpt>
      <trkpt lat="48.4723430" lon="7.9432310">
        <ele>-233.0</ele>
        <time>2022-06-05T06:56:58Z</time>
      </trkpt>
      <trkpt lat="48.4723430" lon="7.9432310">
        <ele>-233.6</ele>
        <time>2022-06-05T06:57:02Z</time>
      </trkpt>
      <trkpt lat="48.4723430" lon="7.9432310">
        <ele>-232.6</ele>
        <time>2022-06-05T06:57:06Z</time>
      </trkpt>
      <trkpt lat="48.4723430" lon="7.9432310">
        <ele>-233.4</ele>
        <time>2022-06-05T06:57:10Z</time>
      </trkpt>
      <trkpt lat="48.4723430" lon="7.9432310">
        <ele>-233.4</ele>
        <time>2022-06-05T06:57:14Z</time>
      </trkpt>
      <trkpt lat="48.4723430" lon="7.9432310">
        <ele>-233.2</ele>
        <time>2022-06-05T06:57:18Z</time>
      </trkpt>
      <trkpt lat="48.4723430" lon="7.9432310">
        <ele>-233.0</ele>
        <time>2022-06-05T06:57:22Z</time>
      </trkpt>
      <trkpt lat="48.4723430" lon="7.9432310">
        <ele>-233.2</ele>
        <time>2022-06-05T06:57:26Z</time>
      </trkpt>
      <trkpt lat="48.4723430" lon="7.9432310">
        <ele>-233.0</ele>
        <time>2022-06-05T06:57:30Z</time>
      </trkpt>
      <trkpt lat="48.4723430" lon="7.9432310">
        <ele>-233.2</ele>
        <time>2022-06-05T06:57:34Z</time>
      </trkpt>
      <trkpt lat="48.4723430" lon="7.9432310">
        <ele>-233.0</ele>
        <time>2022-06-05T06:57:38Z</time>
      </trkpt>
      <trkpt lat="48.4723430" lon="7.9432310">
        <ele>-233.0</ele>
        <time>2022-06-05T06:57:42Z</time>
      </trkpt>
      <trkpt lat="48.4723430" lon="7.9432310">
        <ele>-233.2</ele>
        <time>2022-06-05T06:57:46Z</time>
      </trkpt>
      <trkpt lat="48.4723430" lon="7.9432310">
        <ele>-233.2</ele>
        <time>2022-06-05T06:57:50Z</time>
      </trkpt>
      <trkpt lat="48.4723430" lon="7.9432310">
        <ele>-233.4</ele>
        <time>2022-06-05T06:57:54Z</time>
      </trkpt>
      <trkpt lat="48.4723430" lon="7.9432310">
        <ele>-233.2</ele>
        <time>2022-06-05T06:57:58Z</time>
      </trkpt>
      <trkpt lat="48.4723430" lon="7.9432310">
        <ele>-233.4</ele>
        <time>2022-06-05T06:58:02Z</time>
      </trkpt>
      <trkpt lat="48.4723430" lon="7.9432310">
        <ele>-233.6</ele>
        <time>2022-06-05T06:58:06Z</time>
      </trkpt>
      <trkpt lat="48.4723430" lon="7.9432310">
        <ele>-233.0</ele>
        <time>2022-06-05T06:58:10Z</time>
      </trkpt>
      <trkpt lat="48.4723430" lon="7.9432310">
        <ele>-233.4</ele>
        <time>2022-06-05T06:58:14Z</time>
      </trkpt>
      <trkpt lat="48.4723430" lon="7.9432310">
        <ele>-233.4</ele>
        <time>2022-06-05T06:58:18Z</time>
      </trkpt>
      <trkpt lat="48.4723430" lon="7.9432310">
        <ele>-233.4</ele>
        <time>2022-06-05T06:58:22Z</time>
      </trkpt>
      <trkpt lat="48.4723430" lon="7.9432310">
        <ele>-233.6</ele>
        <time>2022-06-05T06:58:26Z</time>
      </trkpt>
      <trkpt lat="48.4723430" lon="7.9432310">
        <ele>-233.4</ele>
        <time>2022-06-05T06:58:30Z</time>
      </trkpt>
      <trkpt lat="48.4723430" lon="7.9432310">
        <ele>-233.4</ele>
        <time>2022-06-05T06:58:34Z</time>
      </trkpt>
      <trkpt lat="48.4723430" lon="7.9432310">
        <ele>-233.4</ele>
        <time>2022-06-05T06:58:38Z</time>
      </trkpt>
      <trkpt lat="48.4723430" lon="7.9432310">
        <ele>-233.2</ele>
        <time>2022-06-05T06:58:42Z</time>
      </trkpt>
      <trkpt lat="48.4723430" lon="7.9432310">
        <ele>-233.4</ele>
        <time>2022-06-05T06:58:46Z</time>
      </trkpt>
      <trkpt lat="48.4723430" lon="7.9432310">
        <ele>-233.4</ele>
        <time>2022-06-05T06:58:50Z</time>
      </trkpt>
      <trkpt lat="48.4723430" lon="7.9432310">
        <ele>-233.4</ele>
        <time>2022-06-05T06:58:54Z</time>
      </trkpt>
      <trkpt lat="48.4723430" lon="7.9432310">
        <ele>-233.6</ele>
        <time>2022-06-05T06:58:58Z</time>
      </trkpt>
      <trkpt lat="48.4723430" lon="7.9432310">
        <ele>-233.6</ele>
        <time>2022-06-05T06:59:02Z</time>
      </trkpt>
      <trkpt lat="48.4723430" lon="7.9432310">
        <ele>-233.4</ele>
        <time>2022-06-05T06:59:06Z</time>
      </trkpt>
      <trkpt lat="48.4723430" lon="7.9432310">
        <ele>-233.4</ele>
        <time>2022-06-05T06:59:10Z</time>
      </trkpt>
      <trkpt lat="48.4723430" lon="7.9432310">
        <ele>-233.4</ele>
        <time>2022-06-05T06:59:14Z</time>
      </trkpt>
      <trkpt lat="48.4723430" lon="7.9432310">
        <ele>-233.6</ele>
        <time>2022-06-05T06:59:18Z</time>
      </trkpt>
      <trkpt lat="48.4723430" lon="7.9432310">
        <ele>-233.4</ele>
        <time>2022-06-05T06:59:22Z</time>
      </trkpt>
      <trkpt lat="48.4723430" lon="7.9432310">
        <ele>-233.2</ele>
        <time>2022-06-05T06:59:26Z</time>
      </trkpt>
      <trkpt lat="48.4723430" lon="7.9432310">
        <ele>-233.6</ele>
        <time>2022-06-05T06:59:30Z</time>
      </trkpt>
      <trkpt lat="48.4723430" lon="7.9432310">
        <ele>-233.6</ele>
        <time>2022-06-05T06:59:34Z</time>
      </trkpt>
      <trkpt lat="48.4723430" lon="7.9432310">
        <ele>-233.4</ele>
        <time>2022-06-05T06:59:38Z</time>
      </trkpt>
      <trkpt lat="48.4723430" lon="7.9432310">
        <ele>-233.8</ele>
        <time>2022-06-05T06:59:42Z</time>
      </trkpt>
      <trkpt lat="48.4723430" lon="7.9432310">
        <ele>-233.2</ele>
        <time>2022-06-05T06:59:46Z</time>
      </trkpt>
      <trkpt lat="48.4723430" lon="7.9432310">
        <ele>-233.2</ele>
        <time>2022-06-05T06:59:50Z</time>
      </trkpt>
      <trkpt lat="48.4723430" lon="7.9432310">
        <ele>-233.4</ele>
        <time>2022-06-05T06:59:54Z</time>
      </trkpt>
      <trkpt lat="48.4723430" lon="7.9432310">
        <ele>-233.2</ele>
        <time>2022-06-05T06:59:58Z</time>
      </trkpt>
      <trkpt lat="48.4723430" lon="7.9432310">
        <ele>-233.4</ele>
        <time>2022-06-05T07:00:02Z</time>
      </trkpt>
      <trkpt lat="48.4723430" lon="7.9432310">
        <ele>-233.4</ele>
        <time>2022-06-05T07:00:06Z</time>
      </trkpt>
      <trkpt lat="48.4723430" lon="7.9432310">
        <ele>-233.6</ele>
        <time>2022-06-05T07:00:10Z</time>
      </trkpt>
      <trkpt lat="48.4723430" lon="7.9432310">
        <ele>-233.4</ele>
        <time>2022-06-05T07:00:14Z</time>
      </trkpt>
      <trkpt lat="48.4723430" lon="7.9432310">
        <ele>-233.4</ele>
        <time>2022-06-05T07:00:18Z</time>
      </trkpt>
      <trkpt lat="48.4723430" lon="7.9432310">
        <ele>-233.4</ele>
        <time>2022-06-05T07:00:22Z</time>
      </trkpt>
      <trkpt lat="48.4723430" lon="7.9432310">
        <ele>-233.6</ele>
        <time>2022-06-05T07:00:26Z</time>
      </trkpt>
      <trkpt lat="48.4723430" lon="7.9432310">
        <ele>-233.6</ele>
        <time>2022-06-05T07:00:30Z</time>
      </trkpt>
      <trkpt lat="48.4723430" lon="7.9432310">
        <ele>-233.4</ele>
        <time>2022-06-05T07:00:34Z</time>
      </trkpt>
      <trkpt lat="48.4723430" lon="7.9432310">
        <ele>-234.0</ele>
        <time>2022-06-05T07:00:38Z</time>
      </trkpt>
      <trkpt lat="48.4723430" lon="7.9432310">
        <ele>-233.6</ele>
        <time>2022-06-05T07:00:42Z</time>
      </trkpt>
      <trkpt lat="48.4723430" lon="7.9432310">
        <ele>-234.0</ele>
        <time>2022-06-05T07:00:46Z</time>
      </trkpt>
      <trkpt lat="48.4723430" lon="7.9432310">
        <ele>-233.4</ele>
        <time>2022-06-05T07:00:50Z</time>
      </trkpt>
      <trkpt lat="48.4723430" lon="7.9432310">
        <ele>-233.8</ele>
        <time>2022-06-05T07:00:54Z</time>
      </trkpt>
      <trkpt lat="48.4723430" lon="7.9432310">
        <ele>-233.6</ele>
        <time>2022-06-05T07:00:58Z</time>
      </trkpt>
      <trkpt lat="48.4723430" lon="7.9432310">
        <ele>-233.4</ele>
        <time>2022-06-05T07:01:02Z</time>
      </trkpt>
      <trkpt lat="48.4723430" lon="7.9432310">
        <ele>-233.4</ele>
        <time>2022-06-05T07:01:06Z</time>
      </trkpt>
      <trkpt lat="48.4723430" lon="7.9432310">
        <ele>-233.4</ele>
        <time>2022-06-05T07:01:10Z</time>
      </trkpt>
      <trkpt lat="48.4723430" lon="7.9432310">
        <ele>-233.6</ele>
        <time>2022-06-05T07:01:14Z</time>
      </trkpt>
      <trkpt lat="48.4723430" lon="7.9432310">
        <ele>-234.0</ele>
        <time>2022-06-05T07:01:18Z</time>
      </trkpt>
      <trkpt lat="48.4723430" lon="7.9432310">
        <ele>-234.0</ele>
        <time>2022-06-05T07:01:22Z</time>
      </trkpt>
      <trkpt lat="48.4723430" lon="7.9432310">
        <ele>-234.0</ele>
        <time>2022-06-05T07:01:26Z</time>
      </trkpt>
      <trkpt lat="48.4723430" lon="7.9432310">
        <ele>-234.0</ele>
        <time>2022-06-05T07:01:30Z</time>
      </trkpt>
      <trkpt lat="48.4723430" lon="7.9432310">
        <ele>-233.8</ele>
        <time>2022-06-05T07:01:34Z</time>
      </trkpt>
      <trkpt lat="48.4723430" lon="7.9432310">
        <ele>-234.0</ele>
        <time>2022-06-05T07:01:38Z</time>
      </trkpt>
      <trkpt lat="48.4723430" lon="7.9432310">
        <ele>-233.8</ele>
        <time>2022-06-05T07:01:42Z</time>
      </trkpt>
      <trkpt lat="48.4723430" lon="7.9432310">
        <ele>-233.8</ele>
        <time>2022-06-05T07:01:46Z</time>
      </trkpt>
      <trkpt lat="48.4723430" lon="7.9432310">
        <ele>-233.8</ele>
        <time>2022-06-05T07:01:50Z</time>
      </trkpt>
      <trkpt lat="48.4723430" lon="7.9432310">
        <ele>-233.8</ele>
        <time>2022-06-05T07:01:54Z</time>
      </trkpt>
      <trkpt lat="48.4723430" lon="7.9432310">
        <ele>-234.0</ele>
        <time>2022-06-05T07:01:58Z</time>
      </trkpt>
      <trkpt lat="48.4723430" lon="7.9432310">
        <ele>-233.8</ele>
        <time>2022-06-05T07:02:02Z</time>
      </trkpt>
      <trkpt lat="48.4723430" lon="7.9432310">
        <ele>-233.6</ele>
        <time>2022-06-05T07:02:06Z</time>
      </trkpt>
      <trkpt lat="48.4723430" lon="7.9432310">
        <ele>-234.0</ele>
        <time>2022-06-05T07:02:10Z</time>
      </trkpt>
      <trkpt lat="48.4723430" lon="7.9432310">
        <ele>-233.6</ele>
        <time>2022-06-05T07:02:14Z</time>
      </trkpt>
      <trkpt lat="48.4723430" lon="7.9432310">
        <ele>-233.8</ele>
        <time>2022-06-05T07:02:18Z</time>
      </trkpt>
      <trkpt lat="48.4723430" lon="7.9432310">
        <ele>-233.8</ele>
        <time>2022-06-05T07:02:22Z</time>
      </trkpt>
      <trkpt lat="48.4723430" lon="7.9432310">
        <ele>-234.0</ele>
        <time>2022-06-05T07:02:26Z</time>
      </trkpt>
      <trkpt lat="48.4723430" lon="7.9432310">
        <ele>-233.6</ele>
        <time>2022-06-05T07:02:30Z</time>
      </trkpt>
      <trkpt lat="48.4723430" lon="7.9432310">
        <ele>-233.4</ele>
        <time>2022-06-05T07:02:34Z</time>
      </trkpt>
      <trkpt lat="48.4723430" lon="7.9432310">
        <ele>-233.6</ele>
        <time>2022-06-05T07:02:38Z</time>
      </trkpt>
      <trkpt lat="48.4723430" lon="7.9432310">
        <ele>-234.0</ele>
        <time>2022-06-05T07:02:42Z</time>
      </trkpt>
      <trkpt lat="48.4723430" lon="7.9432310">
        <ele>-234.0</ele>
        <time>2022-06-05T07:02:46Z</time>
      </trkpt>
      <trkpt lat="48.4723430" lon="7.9432310">
        <ele>-233.8</ele>
        <time>2022-06-05T07:02:50Z</time>
      </trkpt>
      <trkpt lat="48.4723430" lon="7.9432310">
        <ele>-234.0</ele>
        <time>2022-06-05T07:02:54Z</time>
      </trkpt>
      <trkpt lat="48.4723430" lon="7.9432310">
        <ele>-234.0</ele>
        <time>2022-06-05T07:02:58Z</time>
      </trkpt>
      <trkpt lat="48.4723430" lon="7.9432310">
        <ele>-233.8</ele>
        <time>2022-06-05T07:03:02Z</time>
      </trkpt>
      <trkpt lat="48.4723430" lon="7.9432310">
        <ele>-234.2</ele>
        <time>2022-06-05T07:03:06Z</time>
      </trkpt>
      <trkpt lat="48.4723430" lon="7.9432310">
        <ele>-233.8</ele>
        <time>2022-06-05T07:03:10Z</time>
      </trkpt>
      <trkpt lat="48.4723430" lon="7.9432310">
        <ele>-234.0</ele>
        <time>2022-06-05T07:03:14Z</time>
      </trkpt>
      <trkpt lat="48.4723430" lon="7.9432310">
        <ele>-234.0</ele>
        <time>2022-06-05T07:03:18Z</time>
      </trkpt>
      <trkpt lat="48.4723430" lon="7.9432310">
        <ele>-234.0</ele>
        <time>2022-06-05T07:03:22Z</time>
      </trkpt>
      <trkpt lat="48.4723430" lon="7.9432310">
        <ele>-234.0</ele>
        <time>2022-06-05T07:03:26Z</time>
      </trkpt>
      <trkpt lat="48.4723430" lon="7.9432310">
        <ele>-234.0</ele>
        <time>2022-06-05T07:03:30Z</time>
      </trkpt>
      <trkpt lat="48.4723430" lon="7.9432310">
        <ele>-234.2</ele>
        <time>2022-06-05T07:03:34Z</time>
      </trkpt>
      <trkpt lat="48.4723430" lon="7.9432310">
        <ele>-234.2</ele>
        <time>2022-06-05T07:03:38Z</time>
      </trkpt>
      <trkpt lat="48.4723430" lon="7.9432310">
        <ele>-234.0</ele>
        <time>2022-06-05T07:03:42Z</time>
      </trkpt>
      <trkpt lat="48.4723430" lon="7.9432310">
        <ele>-234.2</ele>
        <time>2022-06-05T07:03:46Z</time>
      </trkpt>
      <trkpt lat="48.4723430" lon="7.9432310">
        <ele>-234.0</ele>
        <time>2022-06-05T07:03:50Z</time>
      </trkpt>
      <trkpt lat="48.4723430" lon="7.9432310">
        <ele>-234.2</ele>
        <time>2022-06-05T07:03:54Z</time>
      </trkpt>
      <trkpt lat="48.4723430" lon="7.9432310">
        <ele>-234.0</ele>
        <time>2022-06-05T07:03:58Z</time>
      </trkpt>
      <trkpt lat="48.4723430" lon="7.9432310">
        <ele>-234.0</ele>
        <time>2022-06-05T07:04:02Z</time>
      </trkpt>
      <trkpt lat="48.4723430" lon="7.9432310">
        <ele>-234.6</ele>
        <time>2022-06-05T07:04:06Z</time>
      </trkpt>
      <trkpt lat="48.4723430" lon="7.9432310">
        <ele>-234.6</ele>
        <time>2022-06-05T07:04:10Z</time>
      </trkpt>
      <trkpt lat="48.4723430" lon="7.9432310">
        <ele>-234.6</ele>
        <time>2022-06-05T07:04:14Z</time>
      </trkpt>
      <trkpt lat="48.4723430" lon="7.9432310">
        <ele>-234.6</ele>
        <time>2022-06-05T07:04:18Z</time>
      </trkpt>
      <trkpt lat="48.4723430" lon="7.9432310">
        <ele>-234.6</ele>
        <time>2022-06-05T07:04:22Z</time>
      </trkpt>
      <trkpt lat="48.4723430" lon="7.9432310">
        <ele>-234.6</ele>
        <time>2022-06-05T07:04:26Z</time>
      </trkpt>
      <trkpt lat="48.4723430" lon="7.9432310">
        <ele>-234.4</ele>
        <time>2022-06-05T07:04:30Z</time>
      </trkpt>
      <trkpt lat="48.4723430" lon="7.9432310">
        <ele>-234.6</ele>
        <time>2022-06-05T07:04:34Z</time>
      </trkpt>
      <trkpt lat="48.4723430" lon="7.9432310">
        <ele>-234.4</ele>
        <time>2022-06-05T07:04:38Z</time>
      </trkpt>
      <trkpt lat="48.4723430" lon="7.9432310">
        <ele>-234.6</ele>
        <time>2022-06-05T07:04:42Z</time>
      </trkpt>
      <trkpt lat="48.4723430" lon="7.9432310">
        <ele>-234.6</ele>
        <time>2022-06-05T07:04:46Z</time>
      </trkpt>
      <trkpt lat="48.4723430" lon="7.9432310">
        <ele>-234.6</ele>
        <time>2022-06-05T07:04:50Z</time>
      </trkpt>
      <trkpt lat="48.4723430" lon="7.9432310">
        <ele>-234.6</ele>
        <time>2022-06-05T07:04:54Z</time>
      </trkpt>
      <trkpt lat="48.4723430" lon="7.9432310">
        <ele>-234.6</ele>
        <time>2022-06-05T07:04:58Z</time>
      </trkpt>
      <trkpt lat="48.4723430" lon="7.9432310">
        <ele>-234.4</ele>
        <time>2022-06-05T07:05:02Z</time>
      </trkpt>
      <trkpt lat="48.4723430" lon="7.9432310">
        <ele>-234.6</ele>
        <time>2022-06-05T07:05:06Z</time>
      </trkpt>
      <trkpt lat="48.4723430" lon="7.9432310">
        <ele>-234.4</ele>
        <time>2022-06-05T07:05:10Z</time>
      </trkpt>
      <trkpt lat="48.4723430" lon="7.9432310">
        <ele>-234.6</ele>
        <time>2022-06-05T07:05:14Z</time>
      </trkpt>
      <trkpt lat="48.4723430" lon="7.9432310">
        <ele>-234.4</ele>
        <time>2022-06-05T07:05:18Z</time>
      </trkpt>
      <trkpt lat="48.4723430" lon="7.9432310">
        <ele>-234.6</ele>
        <time>2022-06-05T07:05:22Z</time>
      </trkpt>
      <trkpt lat="48.4723430" lon="7.9432310">
        <ele>-234.6</ele>
        <time>2022-06-05T07:05:26Z</time>
      </trkpt>
      <trkpt lat="48.4723430" lon="7.9432310">
        <ele>-235.0</ele>
        <time>2022-06-05T07:05:30Z</time>
      </trkpt>
      <trkpt lat="48.4723430" lon="7.9432310">
        <ele>-234.8</ele>
        <time>2022-06-05T07:05:34Z</time>
      </trkpt>
      <trkpt lat="48.4723430" lon="7.9432310">
        <ele>-234.6</ele>
        <time>2022-06-05T07:05:38Z</time>
      </trkpt>
      <trkpt lat="48.4723430" lon="7.9432310">
        <ele>-234.6</ele>
        <time>2022-06-05T07:05:42Z</time>
      </trkpt>
      <trkpt lat="48.4723430" lon="7.9432310">
        <ele>-234.6</ele>
        <time>2022-06-05T07:05:46Z</time>
      </trkpt>
      <trkpt lat="48.4723430" lon="7.9432310">
        <ele>-234.8</ele>
        <time>2022-06-05T07:05:50Z</time>
      </trkpt>
      <trkpt lat="48.4723430" lon="7.9432310">
        <ele>-234.8</ele>
        <time>2022-06-05T07:05:54Z</time>
      </trkpt>
      <trkpt lat="48.4723430" lon="7.9432310">
        <ele>-234.6</ele>
        <time>2022-06-05T07:05:58Z</time>
      </trkpt>
      <trkpt lat="48.4723430" lon="7.9432310">
        <ele>-234.6</ele>
        <time>2022-06-05T07:06:02Z</time>
      </trkpt>
      <trkpt lat="48.4723430" lon="7.9432310">
        <ele>-234.6</ele>
        <time>2022-06-05T07:06:06Z</time>
      </trkpt>
      <trkpt lat="48.4723430" lon="7.9432310">
        <ele>-234.4</ele>
        <time>2022-06-05T07:06:10Z</time>
      </trkpt>
      <trkpt lat="48.4723430" lon="7.9432310">
        <ele>-234.4</ele>
        <time>2022-06-05T07:06:14Z</time>
      </trkpt>
      <trkpt lat="48.4723430" lon="7.9432310">
        <ele>-234.6</ele>
        <time>2022-06-05T07:06:18Z</time>
      </trkpt>
      <trkpt lat="48.4723430" lon="7.9432310">
        <ele>-234.4</ele>
        <time>2022-06-05T07:06:22Z</time>
      </trkpt>
      <trkpt lat="48.4723430" lon="7.9432310">
        <ele>-234.2</ele>
        <time>2022-06-05T07:06:26Z</time>
      </trkpt>
      <trkpt lat="48.4723430" lon="7.9432310">
        <ele>-234.0</ele>
        <time>2022-06-05T07:06:30Z</time>
      </trkpt>
      <trkpt lat="48.4723430" lon="7.9432310">
        <ele>-234.2</ele>
        <time>2022-06-05T07:06:34Z</time>
      </trkpt>
      <trkpt lat="48.4723430" lon="7.9432310">
        <ele>-233.8</ele>
        <time>2022-06-05T07:06:38Z</time>
      </trkpt>
      <trkpt lat="48.4723430" lon="7.9432310">
        <ele>-234.0</ele>
        <time>2022-06-05T07:06:42Z</time>
      </trkpt>
      <trkpt lat="48.4723430" lon="7.9432310">
        <ele>-234.0</ele>
        <time>2022-06-05T07:06:46Z</time>
      </trkpt>
      <trkpt lat="48.4723430" lon="7.9432310">
        <ele>-234.6</ele>
        <time>2022-06-05T07:06:50Z</time>
      </trkpt>
      <trkpt lat="48.4723430" lon="7.9432310">
        <ele>-234.0</ele>
        <time>2022-06-05T07:06:54Z</time>
      </trkpt>
      <trkpt lat="48.4723430" lon="7.9432310">
        <ele>-234.0</ele>
        <time>2022-06-05T07:06:58Z</time>
      </trkpt>
      <trkpt lat="48.4723430" lon="7.9432310">
        <ele>-234.0</ele>
        <time>2022-06-05T07:07:02Z</time>
      </trkpt>
      <trkpt lat="48.4723430" lon="7.9432310">
        <ele>-233.8</ele>
        <time>2022-06-05T07:07:06Z</time>
      </trkpt>
      <trkpt lat="48.4723430" lon="7.9432310">
        <ele>-234.2</ele>
        <time>2022-06-05T07:07:10Z</time>
      </trkpt>
      <trkpt lat="48.4723430" lon="7.9432310">
        <ele>-234.2</ele>
        <time>2022-06-05T07:07:14Z</time>
      </trkpt>
      <trkpt lat="48.4723430" lon="7.9432310">
        <ele>-234.0</ele>
        <time>2022-06-05T07:07:18Z</time>
      </trkpt>
      <trkpt lat="48.4723430" lon="7.9432310">
        <ele>-233.8</ele>
        <time>2022-06-05T07:07:22Z</time>
      </trkpt>
      <trkpt lat="48.4723430" lon="7.9432310">
        <ele>-234.2</ele>
        <time>2022-06-05T07:07:26Z</time>
      </trkpt>
      <trkpt lat="48.4723430" lon="7.9432310">
        <ele>-233.8</ele>
        <time>2022-06-05T07:07:30Z</time>
      </trkpt>
      <trkpt lat="48.4723430" lon="7.9432310">
        <ele>-234.2</ele>
        <time>2022-06-05T07:07:34Z</time>
      </trkpt>
      <trkpt lat="48.4723430" lon="7.9432310">
        <ele>-234.0</ele>
        <time>2022-06-05T07:07:38Z</time>
      </trkpt>
      <trkpt lat="48.4723430" lon="7.9432310">
        <ele>-233.8</ele>
        <time>2022-06-05T07:07:42Z</time>
      </trkpt>
      <trkpt lat="48.4723430" lon="7.9432310">
        <ele>-234.0</ele>
        <time>2022-06-05T07:07:46Z</time>
      </trkpt>
      <trkpt lat="48.4723430" lon="7.9432310">
        <ele>-233.8</ele>
        <time>2022-06-05T07:07:50Z</time>
      </trkpt>
      <trkpt lat="48.4723430" lon="7.9432310">
        <ele>-233.8</ele>
        <time>2022-06-05T07:07:54Z</time>
      </trkpt>
      <trkpt lat="48.4723430" lon="7.9432310">
        <ele>-233.6</ele>
        <time>2022-06-05T07:07:58Z</time>
      </trkpt>
      <trkpt lat="48.4723430" lon="7.9432310">
        <ele>-233.4</ele>
        <time>2022-06-05T07:08:02Z</time>
      </trkpt>
      <trkpt lat="48.4723430" lon="7.9432310">
        <ele>-233.6</ele>
        <time>2022-06-05T07:08:06Z</time>
      </trkpt>
      <trkpt lat="48.4723430" lon="7.9432310">
        <ele>-233.4</ele>
        <time>2022-06-05T07:08:10Z</time>
      </trkpt>
      <trkpt lat="48.4723430" lon="7.9432310">
        <ele>-233.8</ele>
        <time>2022-06-05T07:08:14Z</time>
      </trkpt>
      <trkpt lat="48.4723430" lon="7.9432310">
        <ele>-233.6</ele>
        <time>2022-06-05T07:08:18Z</time>
      </trkpt>
      <trkpt lat="48.4723430" lon="7.9432310">
        <ele>-233.8</ele>
        <time>2022-06-05T07:08:22Z</time>
      </trkpt>
      <trkpt lat="48.4723430" lon="7.9432310">
        <ele>-233.4</ele>
        <time>2022-06-05T07:08:26Z</time>
      </trkpt>
      <trkpt lat="48.4723430" lon="7.9432310">
        <ele>-233.2</ele>
        <time>2022-06-05T07:08:30Z</time>
      </trkpt>
      <trkpt lat="48.4723430" lon="7.9432310">
        <ele>-233.2</ele>
        <time>2022-06-05T07:08:34Z</time>
      </trkpt>
      <trkpt lat="48.4723430" lon="7.9432310">
        <ele>-233.0</ele>
        <time>2022-06-05T07:08:38Z</time>
      </trkpt>
      <trkpt lat="48.4723430" lon="7.9432310">
        <ele>-233.4</ele>
        <time>2022-06-05T07:08:42Z</time>
      </trkpt>
      <trkpt lat="48.4723430" lon="7.9432310">
        <ele>-233.6</ele>
        <time>2022-06-05T07:08:46Z</time>
      </trkpt>
      <trkpt lat="48.4723430" lon="7.9432310">
        <ele>-233.8</ele>
        <time>2022-06-05T07:08:50Z</time>
      </trkpt>
      <trkpt lat="48.4723430" lon="7.9432310">
        <ele>-233.6</ele>
        <time>2022-06-05T07:08:54Z</time>
      </trkpt>
      <trkpt lat="48.4723430" lon="7.9432310">
        <ele>-233.4</ele>
        <time>2022-06-05T07:08:58Z</time>
      </trkpt>
      <trkpt lat="48.4723430" lon="7.9432310">
        <ele>-233.4</ele>
        <time>2022-06-05T07:09:02Z</time>
      </trkpt>
      <trkpt lat="48.4723430" lon="7.9432310">
        <ele>-233.6</ele>
        <time>2022-06-05T07:09:06Z</time>
      </trkpt>
      <trkpt lat="48.4723430" lon="7.9432310">
        <ele>-233.4</ele>
        <time>2022-06-05T07:09:10Z</time>
      </trkpt>
      <trkpt lat="48.4723430" lon="7.9432310">
        <ele>-233.2</ele>
        <time>2022-06-05T07:09:14Z</time>
      </trkpt>
      <trkpt lat="48.4723430" lon="7.9432310">
        <ele>-233.4</ele>
        <time>2022-06-05T07:09:18Z</time>
      </trkpt>
      <trkpt lat="48.4723430" lon="7.9432310">
        <ele>-233.6</ele>
        <time>2022-06-05T07:09:22Z</time>
      </trkpt>
      <trkpt lat="48.4723430" lon="7.9432310">
        <ele>-233.4</ele>
        <time>2022-06-05T07:09:26Z</time>
      </trkpt>
      <trkpt lat="48.4723430" lon="7.9432310">
        <ele>-233.2</ele>
        <time>2022-06-05T07:09:30Z</time>
      </trkpt>
      <trkpt lat="48.4723430" lon="7.9432310">
        <ele>-233.2</ele>
        <time>2022-06-05T07:09:34Z</time>
      </trkpt>
      <trkpt lat="48.4723430" lon="7.9432310">
        <ele>-233.4</ele>
        <time>2022-06-05T07:09:38Z</time>
      </trkpt>
      <trkpt lat="48.4723430" lon="7.9432310">
        <ele>-233.2</ele>
        <time>2022-06-05T07:09:42Z</time>
      </trkpt>
      <trkpt lat="48.4723430" lon="7.9432310">
        <ele>-233.0</ele>
        <time>2022-06-05T07:09:46Z</time>
      </trkpt>
      <trkpt lat="48.4723430" lon="7.9432310">
        <ele>-232.8</ele>
        <time>2022-06-05T07:09:50Z</time>
      </trkpt>
      <trkpt lat="48.4723430" lon="7.9432310">
        <ele>-233.2</ele>
        <time>2022-06-05T07:09:54Z</time>
      </trkpt>
      <trkpt lat="48.4723430" lon="7.9432310">
        <ele>-233.0</ele>
        <time>2022-06-05T07:09:58Z</time>
      </trkpt>
      <trkpt lat="48.4723430" lon="7.9432310">
        <ele>-232.6</ele>
        <time>2022-06-05T07:10:02Z</time>
      </trkpt>
      <trkpt lat="48.4723430" lon="7.9432310">
        <ele>-232.6</ele>
        <time>2022-06-05T07:10:06Z</time>
      </trkpt>
      <trkpt lat="48.4723430" lon="7.9432310">
        <ele>-232.8</ele>
        <time>2022-06-05T07:10:10Z</time>
      </trkpt>
      <trkpt lat="48.4723430" lon="7.9432310">
        <ele>-232.6</ele>
        <time>2022-06-05T07:10:14Z</time>
      </trkpt>
      <trkpt lat="48.4723430" lon="7.9432310">
        <ele>-232.6</ele>
        <time>2022-06-05T07:10:18Z</time>
      </trkpt>
      <trkpt lat="48.4723430" lon="7.9432310">
        <ele>-232.4</ele>
        <time>2022-06-05T07:10:22Z</time>
      </trkpt>
      <trkpt lat="48.4723430" lon="7.9432310">
        <ele>-232.6</ele>
        <time>2022-06-05T07:10:26Z</time>
      </trkpt>
      <trkpt lat="48.4723430" lon="7.9432310">
        <ele>-232.4</ele>
        <time>2022-06-05T07:10:30Z</time>
      </trkpt>
      <trkpt lat="48.4723430" lon="7.9432310">
        <ele>-232.4</ele>
        <time>2022-06-05T07:10:34Z</time>
      </trkpt>
      <trkpt lat="48.4723430" lon="7.9432310">
        <ele>-232.2</ele>
        <time>2022-06-05T07:10:38Z</time>
      </trkpt>
      <trkpt lat="48.4723430" lon="7.9432310">
        <ele>-232.4</ele>
        <time>2022-06-05T07:10:42Z</time>
      </trkpt>
      <trkpt lat="48.4723430" lon="7.9432310">
        <ele>-232.2</ele>
        <time>2022-06-05T07:10:46Z</time>
      </trkpt>
      <trkpt lat="48.4723430" lon="7.9432310">
        <ele>-232.4</ele>
        <time>2022-06-05T07:10:50Z</time>
      </trkpt>
      <trkpt lat="48.4723430" lon="7.9432310">
        <ele>-232.4</ele>
        <time>2022-06-05T07:10:54Z</time>
      </trkpt>
      <trkpt lat="48.4723430" lon="7.9432310">
        <ele>-232.2</ele>
        <time>2022-06-05T07:10:58Z</time>
      </trkpt>
      <trkpt lat="48.4723430" lon="7.9432310">
        <ele>-232.2</ele>
        <time>2022-06-05T07:11:02Z</time>
      </trkpt>
      <trkpt lat="48.4723430" lon="7.9432310">
        <ele>-231.8</ele>
        <time>2022-06-05T07:11:06Z</time>
      </trkpt>
      <trkpt lat="48.4723430" lon="7.9432310">
        <ele>-231.8</ele>
        <time>2022-06-05T07:11:10Z</time>
      </trkpt>
      <trkpt lat="48.4723430" lon="7.9432310">
        <ele>-231.8</ele>
        <time>2022-06-05T07:11:14Z</time>
      </trkpt>
      <trkpt lat="48.4723430" lon="7.9432310">
        <ele>-231.8</ele>
        <time>2022-06-05T07:11:18Z</time>
      </trkpt>
      <trkpt lat="48.4723430" lon="7.9432310">
        <ele>-231.6</ele>
        <time>2022-06-05T07:11:22Z</time>
      </trkpt>
      <trkpt lat="48.4723430" lon="7.9432310">
        <ele>-231.6</ele>
        <time>2022-06-05T07:11:26Z</time>
      </trkpt>
      <trkpt lat="48.4723430" lon="7.9432310">
        <ele>-231.4</ele>
        <time>2022-06-05T07:11:30Z</time>
      </trkpt>
      <trkpt lat="48.4723430" lon="7.9432310">
        <ele>-231.8</ele>
        <time>2022-06-05T07:11:34Z</time>
      </trkpt>
      <trkpt lat="48.4723430" lon="7.9432310">
        <ele>-231.8</ele>
        <time>2022-06-05T07:11:38Z</time>
      </trkpt>
      <trkpt lat="48.4723430" lon="7.9432310">
        <ele>-231.6</ele>
        <time>2022-06-05T07:11:42Z</time>
      </trkpt>
      <trkpt lat="48.4723430" lon="7.9432310">
        <ele>-231.6</ele>
        <time>2022-06-05T07:11:46Z</time>
      </trkpt>
      <trkpt lat="48.4723430" lon="7.9432310">
        <ele>-232.0</ele>
        <time>2022-06-05T07:11:50Z</time>
      </trkpt>
      <trkpt lat="48.4723430" lon="7.9432310">
        <ele>-231.4</ele>
        <time>2022-06-05T07:11:54Z</time>
      </trkpt>
      <trkpt lat="48.4723430" lon="7.9432310">
        <ele>-231.2</ele>
        <time>2022-06-05T07:11:58Z</time>
      </trkpt>
      <trkpt lat="48.4723430" lon="7.9432310">
        <ele>-231.2</ele>
        <time>2022-06-05T07:12:02Z</time>
      </trkpt>
      <trkpt lat="48.4723430" lon="7.9432310">
        <ele>-231.4</ele>
        <time>2022-06-05T07:12:06Z</time>
      </trkpt>
      <trkpt lat="48.4723430" lon="7.9432310">
        <ele>-231.0</ele>
        <time>2022-06-05T07:12:10Z</time>
      </trkpt>
      <trkpt lat="48.4723430" lon="7.9432310">
        <ele>-231.0</ele>
        <time>2022-06-05T07:12:14Z</time>
      </trkpt>
      <trkpt lat="48.4723430" lon="7.9432310">
        <ele>-231.2</ele>
        <time>2022-06-05T07:12:18Z</time>
      </trkpt>
      <trkpt lat="48.4723430" lon="7.9432310">
        <ele>-231.2</ele>
        <time>2022-06-05T07:12:22Z</time>
      </trkpt>
      <trkpt lat="48.4723430" lon="7.9432310">
        <ele>-231.0</ele>
        <time>2022-06-05T07:12:26Z</time>
      </trkpt>
      <trkpt lat="48.4723430" lon="7.9432310">
        <ele>-231.0</ele>
        <time>2022-06-05T07:12:30Z</time>
      </trkpt>
      <trkpt lat="48.4723430" lon="7.9432310">
        <ele>-231.2</ele>
        <time>2022-06-05T07:12:34Z</time>
      </trkpt>
      <trkpt lat="48.4723430" lon="7.9432310">
        <ele>-230.8</ele>
        <time>2022-06-05T07:12:38Z</time>
      </trkpt>
      <trkpt lat="48.4723430" lon="7.9432310">
        <ele>-230.8</ele>
        <time>2022-06-05T07:12:42Z</time>
      </trkpt>
      <trkpt lat="48.4723430" lon="7.9432310">
        <ele>-231.2</ele>
        <time>2022-06-05T07:12:46Z</time>
      </trkpt>
      <trkpt lat="48.4723430" lon="7.9432310">
        <ele>-230.6</ele>
        <time>2022-06-05T07:12:50Z</time>
      </trkpt>
      <trkpt lat="48.4723430" lon="7.9432310">
        <ele>-230.8</ele>
        <time>2022-06-05T07:12:54Z</time>
      </trkpt>
      <trkpt lat="48.4723430" lon="7.9432310">
        <ele>-230.6</ele>
        <time>2022-06-05T07:12:58Z</time>
      </trkpt>
      <trkpt lat="48.4723430" lon="7.9432310">
        <ele>-230.8</ele>
        <time>2022-06-05T07:13:02Z</time>
      </trkpt>
      <trkpt lat="48.4723430" lon="7.9432310">
        <ele>-230.8</ele>
        <time>2022-06-05T07:13:06Z</time>
      </trkpt>
      <trkpt lat="48.4723430" lon="7.9432310">
        <ele>-230.6</ele>
        <time>2022-06-05T07:13:10Z</time>
      </trkpt>
      <trkpt lat="48.4723430" lon="7.9432310">
        <ele>-230.6</ele>
        <time>2022-06-05T07:13:14Z</time>
      </trkpt>
      <trkpt lat="48.4723430" lon="7.9432310">
        <ele>-230.6</ele>
        <time>2022-06-05T07:13:18Z</time>
      </trkpt>
      <trkpt lat="48.4723430" lon="7.9432310">
        <ele>-230.6</ele>
        <time>2022-06-05T07:13:22Z</time>
      </trkpt>
      <trkpt lat="48.4723430" lon="7.9432310">
        <ele>-230.8</ele>
        <time>2022-06-05T07:13:26Z</time>
      </trkpt>
      <trkpt lat="48.4723430" lon="7.9432310">
        <ele>-230.2</ele>
        <time>2022-06-05T07:13:30Z</time>
      </trkpt>
      <trkpt lat="48.4723430" lon="7.9432310">
        <ele>-230.4</ele>
        <time>2022-06-05T07:13:34Z</time>
      </trkpt>
      <trkpt lat="48.4723430" lon="7.9432310">
        <ele>-230.0</ele>
        <time>2022-06-05T07:13:38Z</time>
      </trkpt>
      <trkpt lat="48.4723430" lon="7.9432310">
        <ele>-230.4</ele>
        <time>2022-06-05T07:13:42Z</time>
      </trkpt>
      <trkpt lat="48.4723430" lon="7.9432310">
        <ele>-230.0</ele>
        <time>2022-06-05T07:13:46Z</time>
      </trkpt>
      <trkpt lat="48.4723430" lon="7.9432310">
        <ele>-230.4</ele>
        <time>2022-06-05T07:13:50Z</time>
      </trkpt>
      <trkpt lat="48.4723430" lon="7.9432310">
        <ele>-230.2</ele>
        <time>2022-06-05T07:13:54Z</time>
      </trkpt>
      <trkpt lat="48.4723430" lon="7.9432310">
        <ele>-230.0</ele>
        <time>2022-06-05T07:13:58Z</time>
      </trkpt>
      <trkpt lat="48.4723430" lon="7.9432310">
        <ele>-229.8</ele>
        <time>2022-06-05T07:14:02Z</time>
      </trkpt>
      <trkpt lat="48.4723430" lon="7.9432310">
        <ele>-230.0</ele>
        <time>2022-06-05T07:14:06Z</time>
      </trkpt>
      <trkpt lat="48.4723430" lon="7.9432310">
        <ele>-230.0</ele>
        <time>2022-06-05T07:14:10Z</time>
      </trkpt>
      <trkpt lat="48.4723430" lon="7.9432310">
        <ele>-229.8</ele>
        <time>2022-06-05T07:14:14Z</time>
      </trkpt>
      <trkpt lat="48.4723430" lon="7.9432310">
        <ele>-229.8</ele>
        <time>2022-06-05T07:14:18Z</time>
      </trkpt>
      <trkpt lat="48.4723430" lon="7.9432310">
        <ele>-229.6</ele>
        <time>2022-06-05T07:14:22Z</time>
      </trkpt>
      <trkpt lat="48.4723430" lon="7.9432310">
        <ele>-230.0</ele>
        <time>2022-06-05T07:14:26Z</time>
      </trkpt>
      <trkpt lat="48.4723430" lon="7.9432310">
        <ele>-229.6</ele>
        <time>2022-06-05T07:14:30Z</time>
      </trkpt>
      <trkpt lat="48.4723430" lon="7.9432310">
        <ele>-229.6</ele>
        <time>2022-06-05T07:14:34Z</time>
      </trkpt>
      <trkpt lat="48.4723430" lon="7.9432310">
        <ele>-229.6</ele>
        <time>2022-06-05T07:14:38Z</time>
      </trkpt>
      <trkpt lat="48.4723430" lon="7.9432310">
        <ele>-229.8</ele>
        <time>2022-06-05T07:14:42Z</time>
      </trkpt>
      <trkpt lat="48.4723430" lon="7.9432310">
        <ele>-229.8</ele>
        <time>2022-06-05T07:14:46Z</time>
      </trkpt>
      <trkpt lat="48.4723430" lon="7.9432310">
        <ele>-229.8</ele>
        <time>2022-06-05T07:14:50Z</time>
      </trkpt>
      <trkpt lat="48.4723430" lon="7.9432310">
        <ele>-229.6</ele>
        <time>2022-06-05T07:14:54Z</time>
      </trkpt>
      <trkpt lat="48.4723430" lon="7.9432310">
        <ele>-229.4</ele>
        <time>2022-06-05T07:14:58Z</time>
      </trkpt>
      <trkpt lat="48.4723430" lon="7.9432310">
        <ele>-229.6</ele>
        <time>2022-06-05T07:15:02Z</time>
      </trkpt>
      <trkpt lat="48.4723430" lon="7.9432310">
        <ele>-229.6</ele>
        <time>2022-06-05T07:15:06Z</time>
      </trkpt>
      <trkpt lat="48.4723430" lon="7.9432310">
        <ele>-229.6</ele>
        <time>2022-06-05T07:15:10Z</time>
      </trkpt>
      <trkpt lat="48.4723430" lon="7.9432310">
        <ele>-229.8</ele>
        <time>2022-06-05T07:15:14Z</time>
      </trkpt>
      <trkpt lat="48.4723430" lon="7.9432310">
        <ele>-229.6</ele>
        <time>2022-06-05T07:15:18Z</time>
      </trkpt>
      <trkpt lat="48.4723430" lon="7.9432310">
        <ele>-229.4</ele>
        <time>2022-06-05T07:15:22Z</time>
      </trkpt>
      <trkpt lat="48.4723430" lon="7.9432310">
        <ele>-229.6</ele>
        <time>2022-06-05T07:15:26Z</time>
      </trkpt>
      <trkpt lat="48.4723430" lon="7.9432310">
        <ele>-229.6</ele>
        <time>2022-06-05T07:15:30Z</time>
      </trkpt>
      <trkpt lat="48.4723430" lon="7.9432310">
        <ele>-229.2</ele>
        <time>2022-06-05T07:15:34Z</time>
      </trkpt>
      <trkpt lat="48.4723430" lon="7.9432310">
        <ele>-229.0</ele>
        <time>2022-06-05T07:15:38Z</time>
      </trkpt>
      <trkpt lat="48.4723430" lon="7.9432310">
        <ele>-229.0</ele>
        <time>2022-06-05T07:15:42Z</time>
      </trkpt>
      <trkpt lat="48.4723430" lon="7.9432310">
        <ele>-228.8</ele>
        <time>2022-06-05T07:15:46Z</time>
      </trkpt>
      <trkpt lat="48.4723430" lon="7.9432310">
        <ele>-229.0</ele>
        <time>2022-06-05T07:15:50Z</time>
      </trkpt>
      <trkpt lat="48.4723430" lon="7.9432310">
        <ele>-228.8</ele>
        <time>2022-06-05T07:15:54Z</time>
      </trkpt>
      <trkpt lat="48.4723430" lon="7.9432310">
        <ele>-228.8</ele>
        <time>2022-06-05T07:15:58Z</time>
      </trkpt>
      <trkpt lat="48.4723430" lon="7.9432310">
        <ele>-229.2</ele>
        <time>2022-06-05T07:16:02Z</time>
      </trkpt>
      <trkpt lat="48.4723430" lon="7.9432310">
        <ele>-229.0</ele>
        <time>2022-06-05T07:16:06Z</time>
      </trkpt>
      <trkpt lat="48.4723430" lon="7.9432310">
        <ele>-228.8</ele>
        <time>2022-06-05T07:16:10Z</time>
      </trkpt>
      <trkpt lat="48.4723430" lon="7.9432310">
        <ele>-228.6</ele>
        <time>2022-06-05T07:16:14Z</time>
      </trkpt>
      <trkpt lat="48.4723430" lon="7.9432310">
        <ele>-229.0</ele>
        <time>2022-06-05T07:16:18Z</time>
      </trkpt>
      <trkpt lat="48.4723430" lon="7.9432310">
        <ele>-228.6</ele>
        <time>2022-06-05T07:16:22Z</time>
      </trkpt>
      <trkpt lat="48.4723430" lon="7.9432310">
        <ele>-229.0</ele>
        <time>2022-06-05T07:16:26Z</time>
      </trkpt>
      <trkpt lat="48.4723430" lon="7.9432310">
        <ele>-228.6</ele>
        <time>2022-06-05T07:16:30Z</time>
      </trkpt>
      <trkpt lat="48.4723430" lon="7.9432310">
        <ele>-228.4</ele>
        <time>2022-06-05T07:16:34Z</time>
      </trkpt>
      <trkpt lat="48.4723430" lon="7.9432310">
        <ele>-228.4</ele>
        <time>2022-06-05T07:16:38Z</time>
      </trkpt>
      <trkpt lat="48.4723430" lon="7.9432310">
        <ele>-228.6</ele>
        <time>2022-06-05T07:16:42Z</time>
      </trkpt>
      <trkpt lat="48.4723430" lon="7.9432310">
        <ele>-228.4</ele>
        <time>2022-06-05T07:16:46Z</time>
      </trkpt>
      <trkpt lat="48.4723430" lon="7.9432310">
        <ele>-228.4</ele>
        <time>2022-06-05T07:16:50Z</time>
      </trkpt>
      <trkpt lat="48.4723430" lon="7.9432310">
        <ele>-228.4</ele>
        <time>2022-06-05T07:16:54Z</time>
      </trkpt>
      <trkpt lat="48.4723430" lon="7.9432310">
        <ele>-228.8</ele>
        <time>2022-06-05T07:16:58Z</time>
      </trkpt>
      <trkpt lat="48.4723430" lon="7.9432310">
        <ele>-228.4</ele>
        <time>2022-06-05T07:17:02Z</time>
      </trkpt>
      <trkpt lat="48.4723430" lon="7.9432310">
        <ele>-228.2</ele>
        <time>2022-06-05T07:17:06Z</time>
      </trkpt>
      <trkpt lat="48.4723430" lon="7.9432310">
        <ele>-228.8</ele>
        <time>2022-06-05T07:17:10Z</time>
      </trkpt>
      <trkpt lat="48.4723430" lon="7.9432310">
        <ele>-228.2</ele>
        <time>2022-06-05T07:17:14Z</time>
      </trkpt>
      <trkpt lat="48.4723430" lon="7.9432310">
        <ele>-228.6</ele>
        <time>2022-06-05T07:17:18Z</time>
      </trkpt>
      <trkpt lat="48.4723430" lon="7.9432310">
        <ele>-228.6</ele>
        <time>2022-06-05T07:17:22Z</time>
      </trkpt>
      <trkpt lat="48.4723430" lon="7.9432310">
        <ele>-228.4</ele>
        <time>2022-06-05T07:17:26Z</time>
      </trkpt>
      <trkpt lat="48.4723430" lon="7.9432310">
        <ele>-228.8</ele>
        <time>2022-06-05T07:17:30Z</time>
      </trkpt>
      <trkpt lat="48.4723430" lon="7.9432310">
        <ele>-228.4</ele>
        <time>2022-06-05T07:17:34Z</time>
      </trkpt>
      <trkpt lat="48.4723430" lon="7.9432310">
        <ele>-228.2</ele>
        <time>2022-06-05T07:17:38Z</time>
      </trkpt>
      <trkpt lat="48.4723430" lon="7.9432310">
        <ele>-228.4</ele>
        <time>2022-06-05T07:17:42Z</time>
      </trkpt>
      <trkpt lat="48.4723430" lon="7.9432310">
        <ele>-228.6</ele>
        <time>2022-06-05T07:17:46Z</time>
      </trkpt>
      <trkpt lat="48.4723430" lon="7.9432310">
        <ele>-229.0</ele>
        <time>2022-06-05T07:17:50Z</time>
      </trkpt>
      <trkpt lat="48.4723430" lon="7.9432310">
        <ele>-229.0</ele>
        <time>2022-06-05T07:17:54Z</time>
      </trkpt>
      <trkpt lat="48.4723430" lon="7.9432310">
        <ele>-228.2</ele>
        <time>2022-06-05T07:17:58Z</time>
      </trkpt>
      <trkpt lat="48.4723430" lon="7.9432310">
        <ele>-228.4</ele>
        <time>2022-06-05T07:18:02Z</time>
      </trkpt>
      <trkpt lat="48.4723430" lon="7.9432310">
        <ele>-228.6</ele>
        <time>2022-06-05T07:18:06Z</time>
      </trkpt>
      <trkpt lat="48.4723430" lon="7.9432310">
        <ele>-228.6</ele>
        <time>2022-06-05T07:18:10Z</time>
      </trkpt>
      <trkpt lat="48.4723430" lon="7.9432310">
        <ele>-229.0</ele>
        <time>2022-06-05T07:18:14Z</time>
      </trkpt>
      <trkpt lat="48.4723430" lon="7.9432310">
        <ele>-228.8</ele>
        <time>2022-06-05T07:18:18Z</time>
      </trkpt>
      <trkpt lat="48.4723430" lon="7.9432310">
        <ele>-228.4</ele>
        <time>2022-06-05T07:18:22Z</time>
      </trkpt>
      <trkpt lat="48.4723430" lon="7.9432310">
        <ele>-228.4</ele>
        <time>2022-06-05T07:18:26Z</time>
      </trkpt>
      <trkpt lat="48.4723430" lon="7.9432310">
        <ele>-228.4</ele>
        <time>2022-06-05T07:18:30Z</time>
      </trkpt>
      <trkpt lat="48.4723430" lon="7.9432310">
        <ele>-228.6</ele>
        <time>2022-06-05T07:18:34Z</time>
      </trkpt>
      <trkpt lat="48.4723430" lon="7.9432310">
        <ele>-228.4</ele>
        <time>2022-06-05T07:18:38Z</time>
      </trkpt>
      <trkpt lat="48.4723430" lon="7.9432310">
        <ele>-228.4</ele>
        <time>2022-06-05T07:18:42Z</time>
      </trkpt>
      <trkpt lat="48.4723430" lon="7.9432310">
        <ele>-228.6</ele>
        <time>2022-06-05T07:18:46Z</time>
      </trkpt>
      <trkpt lat="48.4723430" lon="7.9432310">
        <ele>-228.6</ele>
        <time>2022-06-05T07:18:50Z</time>
      </trkpt>
      <trkpt lat="48.4723430" lon="7.9432310">
        <ele>-228.8</ele>
        <time>2022-06-05T07:18:54Z</time>
      </trkpt>
      <trkpt lat="48.4723430" lon="7.9432310">
        <ele>-228.2</ele>
        <time>2022-06-05T07:18:58Z</time>
      </trkpt>
      <trkpt lat="48.4723430" lon="7.9432310">
        <ele>-228.4</ele>
        <time>2022-06-05T07:19:02Z</time>
      </trkpt>
      <trkpt lat="48.4723430" lon="7.9432310">
        <ele>-228.4</ele>
        <time>2022-06-05T07:19:06Z</time>
      </trkpt>
      <trkpt lat="48.4723430" lon="7.9432310">
        <ele>-228.0</ele>
        <time>2022-06-05T07:19:10Z</time>
      </trkpt>
      <trkpt lat="48.4723430" lon="7.9432310">
        <ele>-228.0</ele>
        <time>2022-06-05T07:19:14Z</time>
      </trkpt>
      <trkpt lat="48.4723430" lon="7.9432310">
        <ele>-228.0</ele>
        <time>2022-06-05T07:19:18Z</time>
      </trkpt>
      <trkpt lat="48.4723430" lon="7.9432310">
        <ele>-227.8</ele>
        <time>2022-06-05T07:19:22Z</time>
      </trkpt>
      <trkpt lat="48.4723430" lon="7.9432310">
        <ele>-228.2</ele>
        <time>2022-06-05T07:19:26Z</time>
      </trkpt>
      <trkpt lat="48.4723430" lon="7.9432310">
        <ele>-228.4</ele>
        <time>2022-06-05T07:19:30Z</time>
      </trkpt>
      <trkpt lat="48.4723430" lon="7.9432310">
        <ele>-228.4</ele>
        <time>2022-06-05T07:19:34Z</time>
      </trkpt>
      <trkpt lat="48.4723430" lon="7.9432310">
        <ele>-228.8</ele>
        <time>2022-06-05T07:19:38Z</time>
      </trkpt>
      <trkpt lat="48.4723430" lon="7.9432310">
        <ele>-228.6</ele>
        <time>2022-06-05T07:19:42Z</time>
      </trkpt>
      <trkpt lat="48.4723430" lon="7.9432310">
        <ele>-228.6</ele>
        <time>2022-06-05T07:19:46Z</time>
      </trkpt>
      <trkpt lat="48.4723430" lon="7.9432310">
        <ele>-228.6</ele>
        <time>2022-06-05T07:19:50Z</time>
      </trkpt>
      <trkpt lat="48.4723430" lon="7.9432310">
        <ele>-228.4</ele>
        <time>2022-06-05T07:19:54Z</time>
      </trkpt>
      <trkpt lat="48.4723430" lon="7.9432310">
        <ele>-228.4</ele>
        <time>2022-06-05T07:19:58Z</time>
      </trkpt>
      <trkpt lat="48.4723430" lon="7.9432310">
        <ele>-228.8</ele>
        <time>2022-06-05T07:20:02Z</time>
      </trkpt>
      <trkpt lat="48.4723430" lon="7.9432310">
        <ele>-228.6</ele>
        <time>2022-06-05T07:20:06Z</time>
      </trkpt>
      <trkpt lat="48.4723430" lon="7.9432310">
        <ele>-228.4</ele>
        <time>2022-06-05T07:20:10Z</time>
      </trkpt>
      <trkpt lat="48.4723430" lon="7.9432310">
        <ele>-228.6</ele>
        <time>2022-06-05T07:20:14Z</time>
      </trkpt>
      <trkpt lat="48.4723430" lon="7.9432310">
        <ele>-228.8</ele>
        <time>2022-06-05T07:20:18Z</time>
      </trkpt>
      <trkpt lat="48.4723430" lon="7.9432310">
        <ele>-228.8</ele>
        <time>2022-06-05T07:20:22Z</time>
      </trkpt>
      <trkpt lat="48.4723430" lon="7.9432310">
        <ele>-228.8</ele>
        <time>2022-06-05T07:20:26Z</time>
      </trkpt>
      <trkpt lat="48.4723430" lon="7.9432310">
        <ele>-229.0</ele>
        <time>2022-06-05T07:20:30Z</time>
      </trkpt>
      <trkpt lat="48.4723430" lon="7.9432310">
        <ele>-228.8</ele>
        <time>2022-06-05T07:20:34Z</time>
      </trkpt>
      <trkpt lat="48.4723430" lon="7.9432310">
        <ele>-228.8</ele>
        <time>2022-06-05T07:20:38Z</time>
      </trkpt>
      <trkpt lat="48.4723430" lon="7.9432310">
        <ele>-229.0</ele>
        <time>2022-06-05T07:20:42Z</time>
      </trkpt>
      <trkpt lat="48.4723430" lon="7.9432310">
        <ele>-229.0</ele>
        <time>2022-06-05T07:20:46Z</time>
      </trkpt>
      <trkpt lat="48.4723430" lon="7.9432310">
        <ele>-229.0</ele>
        <time>2022-06-05T07:20:50Z</time>
      </trkpt>
      <trkpt lat="48.4723430" lon="7.9432310">
        <ele>-228.6</ele>
        <time>2022-06-05T07:20:54Z</time>
      </trkpt>
      <trkpt lat="48.4723430" lon="7.9432310">
        <ele>-228.8</ele>
        <time>2022-06-05T07:20:58Z</time>
      </trkpt>
      <trkpt lat="48.4723430" lon="7.9432310">
        <ele>-229.0</ele>
        <time>2022-06-05T07:21:02Z</time>
      </trkpt>
      <trkpt lat="48.4723430" lon="7.9432310">
        <ele>-228.8</ele>
        <time>2022-06-05T07:21:06Z</time>
      </trkpt>
      <trkpt lat="48.4723430" lon="7.9432310">
        <ele>-229.0</ele>
        <time>2022-06-05T07:21:10Z</time>
      </trkpt>
      <trkpt lat="48.4723430" lon="7.9432310">
        <ele>-229.0</ele>
        <time>2022-06-05T07:21:14Z</time>
      </trkpt>
      <trkpt lat="48.4723430" lon="7.9432310">
        <ele>-229.2</ele>
        <time>2022-06-05T07:21:18Z</time>
      </trkpt>
      <trkpt lat="48.4723430" lon="7.9432310">
        <ele>-229.2</ele>
        <time>2022-06-05T07:21:22Z</time>
      </trkpt>
      <trkpt lat="48.4723430" lon="7.9432310">
        <ele>-229.4</ele>
        <time>2022-06-05T07:21:26Z</time>
      </trkpt>
      <trkpt lat="48.4723430" lon="7.9432310">
        <ele>-229.2</ele>
        <time>2022-06-05T07:21:30Z</time>
      </trkpt>
      <trkpt lat="48.4723430" lon="7.9432310">
        <ele>-228.8</ele>
        <time>2022-06-05T07:21:34Z</time>
      </trkpt>
      <trkpt lat="48.4723430" lon="7.9432310">
        <ele>-229.4</ele>
        <time>2022-06-05T07:21:38Z</time>
      </trkpt>
      <trkpt lat="48.4723430" lon="7.9432310">
        <ele>-229.0</ele>
        <time>2022-06-05T07:21:42Z</time>
      </trkpt>
      <trkpt lat="48.4723430" lon="7.9432310">
        <ele>-229.0</ele>
        <time>2022-06-05T07:21:46Z</time>
      </trkpt>
      <trkpt lat="48.4723430" lon="7.9432310">
        <ele>-229.4</ele>
        <time>2022-06-05T07:21:50Z</time>
      </trkpt>
      <trkpt lat="48.4723430" lon="7.9432310">
        <ele>-229.6</ele>
        <time>2022-06-05T07:21:54Z</time>
      </trkpt>
      <trkpt lat="48.4723430" lon="7.9432310">
        <ele>-229.6</ele>
        <time>2022-06-05T07:21:58Z</time>
      </trkpt>
      <trkpt lat="48.4723430" lon="7.9432310">
        <ele>-229.4</ele>
        <time>2022-06-05T07:22:02Z</time>
      </trkpt>
      <trkpt lat="48.4723430" lon="7.9432310">
        <ele>-229.0</ele>
        <time>2022-06-05T07:22:06Z</time>
      </trkpt>
      <trkpt lat="48.4723430" lon="7.9432310">
        <ele>-228.8</ele>
        <time>2022-06-05T07:22:10Z</time>
      </trkpt>
      <trkpt lat="48.4723430" lon="7.9432310">
        <ele>-229.2</ele>
        <time>2022-06-05T07:22:14Z</time>
      </trkpt>
      <trkpt lat="48.4723430" lon="7.9432310">
        <ele>-229.0</ele>
        <time>2022-06-05T07:22:18Z</time>
      </trkpt>
      <trkpt lat="48.4723430" lon="7.9432310">
        <ele>-229.2</ele>
        <time>2022-06-05T07:22:22Z</time>
      </trkpt>
      <trkpt lat="48.4723430" lon="7.9432310">
        <ele>-229.2</ele>
        <time>2022-06-05T07:22:26Z</time>
      </trkpt>
      <trkpt lat="48.4723430" lon="7.9432310">
        <ele>-229.4</ele>
        <time>2022-06-05T07:22:30Z</time>
      </trkpt>
      <trkpt lat="48.4723430" lon="7.9432310">
        <ele>-229.4</ele>
        <time>2022-06-05T07:22:34Z</time>
      </trkpt>
      <trkpt lat="48.4723430" lon="7.9432310">
        <ele>-229.6</ele>
        <time>2022-06-05T07:22:38Z</time>
      </trkpt>
      <trkpt lat="48.4723430" lon="7.9432310">
        <ele>-229.4</ele>
        <time>2022-06-05T07:22:42Z</time>
      </trkpt>
      <trkpt lat="48.4723430" lon="7.9432310">
        <ele>-229.8</ele>
        <time>2022-06-05T07:22:46Z</time>
      </trkpt>
      <trkpt lat="48.4723430" lon="7.9432310">
        <ele>-229.8</ele>
        <time>2022-06-05T07:22:50Z</time>
      </trkpt>
      <trkpt lat="48.4723430" lon="7.9432310">
        <ele>-229.8</ele>
        <time>2022-06-05T07:22:54Z</time>
      </trkpt>
      <trkpt lat="48.4723430" lon="7.9432310">
        <ele>-229.4</ele>
        <time>2022-06-05T07:22:58Z</time>
      </trkpt>
      <trkpt lat="48.4723430" lon="7.9432310">
        <ele>-229.0</ele>
        <time>2022-06-05T07:23:02Z</time>
      </trkpt>
      <trkpt lat="48.4723430" lon="7.9432310">
        <ele>-230.0</ele>
        <time>2022-06-05T07:23:06Z</time>
      </trkpt>
      <trkpt lat="48.4723430" lon="7.9432310">
        <ele>-229.6</ele>
        <time>2022-06-05T07:23:10Z</time>
      </trkpt>
      <trkpt lat="48.4723430" lon="7.9432310">
        <ele>-230.0</ele>
        <time>2022-06-05T07:23:14Z</time>
      </trkpt>
      <trkpt lat="48.4723430" lon="7.9432310">
        <ele>-230.0</ele>
        <time>2022-06-05T07:23:18Z</time>
      </trkpt>
      <trkpt lat="48.4723430" lon="7.9432310">
        <ele>-229.8</ele>
        <time>2022-06-05T07:23:22Z</time>
      </trkpt>
      <trkpt lat="48.4723430" lon="7.9432310">
        <ele>-229.6</ele>
        <time>2022-06-05T07:23:26Z</time>
      </trkpt>
      <trkpt lat="48.4723430" lon="7.9432310">
        <ele>-229.6</ele>
        <time>2022-06-05T07:23:30Z</time>
      </trkpt>
      <trkpt lat="48.4723430" lon="7.9432310">
        <ele>-229.6</ele>
        <time>2022-06-05T07:23:34Z</time>
      </trkpt>
      <trkpt lat="48.4723430" lon="7.9432310">
        <ele>-229.6</ele>
        <time>2022-06-05T07:23:38Z</time>
      </trkpt>
      <trkpt lat="48.4723430" lon="7.9432310">
        <ele>-229.6</ele>
        <time>2022-06-05T07:23:42Z</time>
      </trkpt>
      <trkpt lat="48.4723430" lon="7.9432310">
        <ele>-230.2</ele>
        <time>2022-06-05T07:23:46Z</time>
      </trkpt>
      <trkpt lat="48.4723430" lon="7.9432310">
        <ele>-230.0</ele>
        <time>2022-06-05T07:23:50Z</time>
      </trkpt>
      <trkpt lat="48.4723430" lon="7.9432310">
        <ele>-229.8</ele>
        <time>2022-06-05T07:23:54Z</time>
      </trkpt>
      <trkpt lat="48.4723430" lon="7.9432310">
        <ele>-230.2</ele>
        <time>2022-06-05T07:23:58Z</time>
      </trkpt>
      <trkpt lat="48.4723430" lon="7.9432310">
        <ele>-229.8</ele>
        <time>2022-06-05T07:24:02Z</time>
      </trkpt>
      <trkpt lat="48.4723430" lon="7.9432310">
        <ele>-229.6</ele>
        <time>2022-06-05T07:24:06Z</time>
      </trkpt>
      <trkpt lat="48.4723430" lon="7.9432310">
        <ele>-229.6</ele>
        <time>2022-06-05T07:24:10Z</time>
      </trkpt>
      <trkpt lat="48.4723430" lon="7.9432310">
        <ele>-229.6</ele>
        <time>2022-06-05T07:24:14Z</time>
      </trkpt>
      <trkpt lat="48.4723430" lon="7.9432310">
        <ele>-229.8</ele>
        <time>2022-06-05T07:24:18Z</time>
      </trkpt>
      <trkpt lat="48.4723430" lon="7.9432310">
        <ele>-229.6</ele>
        <time>2022-06-05T07:24:22Z</time>
      </trkpt>
      <trkpt lat="48.4723430" lon="7.9432310">
        <ele>-229.6</ele>
        <time>2022-06-05T07:24:26Z</time>
      </trkpt>
      <trkpt lat="48.4723430" lon="7.9432310">
        <ele>-229.4</ele>
        <time>2022-06-05T07:24:30Z</time>
      </trkpt>
      <trkpt lat="48.4723430" lon="7.9432310">
        <ele>-230.0</ele>
        <time>2022-06-05T07:24:34Z</time>
      </trkpt>
      <trkpt lat="48.4723430" lon="7.9432310">
        <ele>-230.0</ele>
        <time>2022-06-05T07:24:38Z</time>
      </trkpt>
      <trkpt lat="48.4723430" lon="7.9432310">
        <ele>-229.6</ele>
        <time>2022-06-05T07:24:42Z</time>
      </trkpt>
      <trkpt lat="48.4723430" lon="7.9432310">
        <ele>-229.6</ele>
        <time>2022-06-05T07:24:46Z</time>
      </trkpt>
      <trkpt lat="48.4723430" lon="7.9432310">
        <ele>-230.0</ele>
        <time>2022-06-05T07:24:50Z</time>
      </trkpt>
      <trkpt lat="48.4723430" lon="7.9432310">
        <ele>-230.0</ele>
        <time>2022-06-05T07:24:54Z</time>
      </trkpt>
      <trkpt lat="48.4723430" lon="7.9432310">
        <ele>-229.8</ele>
        <time>2022-06-05T07:24:58Z</time>
      </trkpt>
      <trkpt lat="48.4723430" lon="7.9432310">
        <ele>-229.8</ele>
        <time>2022-06-05T07:25:02Z</time>
      </trkpt>
      <trkpt lat="48.4723430" lon="7.9432310">
        <ele>-229.8</ele>
        <time>2022-06-05T07:25:06Z</time>
      </trkpt>
      <trkpt lat="48.4723430" lon="7.9432310">
        <ele>-230.0</ele>
        <time>2022-06-05T07:25:10Z</time>
      </trkpt>
      <trkpt lat="48.4723430" lon="7.9432310">
        <ele>-229.8</ele>
        <time>2022-06-05T07:25:14Z</time>
      </trkpt>
      <trkpt lat="48.4723430" lon="7.9432310">
        <ele>-229.6</ele>
        <time>2022-06-05T07:25:18Z</time>
      </trkpt>
      <trkpt lat="48.4723430" lon="7.9432310">
        <ele>-229.6</ele>
        <time>2022-06-05T07:25:22Z</time>
      </trkpt>
      <trkpt lat="48.4723430" lon="7.9432310">
        <ele>-229.6</ele>
        <time>2022-06-05T07:25:26Z</time>
      </trkpt>
      <trkpt lat="48.4723430" lon="7.9432310">
        <ele>-229.4</ele>
        <time>2022-06-05T07:25:30Z</time>
      </trkpt>
      <trkpt lat="48.4723430" lon="7.9432310">
        <ele>-229.6</ele>
        <time>2022-06-05T07:25:34Z</time>
      </trkpt>
      <trkpt lat="48.4723430" lon="7.9432310">
        <ele>-230.0</ele>
        <time>2022-06-05T07:25:38Z</time>
      </trkpt>
      <trkpt lat="48.4723430" lon="7.9432310">
        <ele>-229.4</ele>
        <time>2022-06-05T07:25:42Z</time>
      </trkpt>
      <trkpt lat="48.4723430" lon="7.9432310">
        <ele>-229.6</ele>
        <time>2022-06-05T07:25:46Z</time>
      </trkpt>
      <trkpt lat="48.4723430" lon="7.9432310">
        <ele>-229.6</ele>
        <time>2022-06-05T07:25:50Z</time>
      </trkpt>
      <trkpt lat="48.4723430" lon="7.9432310">
        <ele>-229.6</ele>
        <time>2022-06-05T07:25:54Z</time>
      </trkpt>
      <trkpt lat="48.4723430" lon="7.9432310">
        <ele>-229.8</ele>
        <time>2022-06-05T07:25:58Z</time>
      </trkpt>
      <trkpt lat="48.4723430" lon="7.9432310">
        <ele>-230.0</ele>
        <time>2022-06-05T07:26:02Z</time>
      </trkpt>
      <trkpt lat="48.4723430" lon="7.9432310">
        <ele>-229.6</ele>
        <time>2022-06-05T07:26:06Z</time>
      </trkpt>
      <trkpt lat="48.4723430" lon="7.9432310">
        <ele>-230.0</ele>
        <time>2022-06-05T07:26:10Z</time>
      </trkpt>
      <trkpt lat="48.4723430" lon="7.9432310">
        <ele>-229.8</ele>
        <time>2022-06-05T07:26:14Z</time>
      </trkpt>
      <trkpt lat="48.4723430" lon="7.9432310">
        <ele>-229.6</ele>
        <time>2022-06-05T07:26:18Z</time>
      </trkpt>
      <trkpt lat="48.4723430" lon="7.9432310">
        <ele>-229.8</ele>
        <time>2022-06-05T07:26:22Z</time>
      </trkpt>
      <trkpt lat="48.4723430" lon="7.9432310">
        <ele>-229.4</ele>
        <time>2022-06-05T07:26:26Z</time>
      </trkpt>
      <trkpt lat="48.4723430" lon="7.9432310">
        <ele>-229.6</ele>
        <time>2022-06-05T07:26:30Z</time>
      </trkpt>
      <trkpt lat="48.4723430" lon="7.9432310">
        <ele>-229.8</ele>
        <time>2022-06-05T07:26:34Z</time>
      </trkpt>
      <trkpt lat="48.4723430" lon="7.9432310">
        <ele>-229.6</ele>
        <time>2022-06-05T07:26:38Z</time>
      </trkpt>
      <trkpt lat="48.4723430" lon="7.9432310">
        <ele>-229.6</ele>
        <time>2022-06-05T07:26:42Z</time>
      </trkpt>
      <trkpt lat="48.4723430" lon="7.9432310">
        <ele>-229.8</ele>
        <time>2022-06-05T07:26:46Z</time>
      </trkpt>
      <trkpt lat="48.4723430" lon="7.9432310">
        <ele>-229.6</ele>
        <time>2022-06-05T07:26:50Z</time>
      </trkpt>
      <trkpt lat="48.4723430" lon="7.9432310">
        <ele>-229.2</ele>
        <time>2022-06-05T07:26:54Z</time>
      </trkpt>
      <trkpt lat="48.4723430" lon="7.9432310">
        <ele>-229.8</ele>
        <time>2022-06-05T07:26:58Z</time>
      </trkpt>
      <trkpt lat="48.4723430" lon="7.9432310">
        <ele>-229.6</ele>
        <time>2022-06-05T07:27:02Z</time>
      </trkpt>
      <trkpt lat="48.4723430" lon="7.9432310">
        <ele>-229.4</ele>
        <time>2022-06-05T07:27:06Z</time>
      </trkpt>
      <trkpt lat="48.4723430" lon="7.9432310">
        <ele>-229.4</ele>
        <time>2022-06-05T07:27:10Z</time>
      </trkpt>
      <trkpt lat="48.4723430" lon="7.9432310">
        <ele>-229.8</ele>
        <time>2022-06-05T07:27:14Z</time>
      </trkpt>
      <trkpt lat="48.4723430" lon="7.9432310">
        <ele>-229.6</ele>
        <time>2022-06-05T07:27:18Z</time>
      </trkpt>
      <trkpt lat="48.4723430" lon="7.9432310">
        <ele>-229.4</ele>
        <time>2022-06-05T07:27:22Z</time>
      </trkpt>
      <trkpt lat="48.4723430" lon="7.9432310">
        <ele>-229.8</ele>
        <time>2022-06-05T07:27:26Z</time>
      </trkpt>
      <trkpt lat="48.4723430" lon="7.9432310">
        <ele>-229.6</ele>
        <time>2022-06-05T07:27:30Z</time>
      </trkpt>
      <trkpt lat="48.4723430" lon="7.9432310">
        <ele>-229.4</ele>
        <time>2022-06-05T07:27:34Z</time>
      </trkpt>
      <trkpt lat="48.4723430" lon="7.9432310">
        <ele>-229.2</ele>
        <time>2022-06-05T07:27:38Z</time>
      </trkpt>
      <trkpt lat="48.4723430" lon="7.9432310">
        <ele>-229.4</ele>
        <time>2022-06-05T07:27:42Z</time>
      </trkpt>
      <trkpt lat="48.4723430" lon="7.9432310">
        <ele>-229.8</ele>
        <time>2022-06-05T07:27:46Z</time>
      </trkpt>
      <trkpt lat="48.4723430" lon="7.9432310">
        <ele>-229.6</ele>
        <time>2022-06-05T07:27:50Z</time>
      </trkpt>
      <trkpt lat="48.4723430" lon="7.9432310">
        <ele>-229.6</ele>
        <time>2022-06-05T07:27:54Z</time>
      </trkpt>
      <trkpt lat="48.4723430" lon="7.9432310">
        <ele>-229.6</ele>
        <time>2022-06-05T07:27:58Z</time>
      </trkpt>
      <trkpt lat="48.4723430" lon="7.9432310">
        <ele>-229.4</ele>
        <time>2022-06-05T07:28:02Z</time>
      </trkpt>
      <trkpt lat="48.4723430" lon="7.9432310">
        <ele>-229.2</ele>
        <time>2022-06-05T07:28:06Z</time>
      </trkpt>
      <trkpt lat="48.4723430" lon="7.9432310">
        <ele>-229.0</ele>
        <time>2022-06-05T07:28:10Z</time>
      </trkpt>
      <trkpt lat="48.4723430" lon="7.9432310">
        <ele>-229.4</ele>
        <time>2022-06-05T07:28:14Z</time>
      </trkpt>
      <trkpt lat="48.4723430" lon="7.9432310">
        <ele>-229.6</ele>
        <time>2022-06-05T07:28:18Z</time>
      </trkpt>
      <trkpt lat="48.4723430" lon="7.9432310">
        <ele>-229.4</ele>
        <time>2022-06-05T07:28:22Z</time>
      </trkpt>
      <trkpt lat="48.4723430" lon="7.9432310">
        <ele>-229.2</ele>
        <time>2022-06-05T07:28:26Z</time>
      </trkpt>
      <trkpt lat="48.4723430" lon="7.9432310">
        <ele>-229.0</ele>
        <time>2022-06-05T07:28:30Z</time>
      </trkpt>
      <trkpt lat="48.4723430" lon="7.9432310">
        <ele>-229.0</ele>
        <time>2022-06-05T07:28:34Z</time>
      </trkpt>
      <trkpt lat="48.4723430" lon="7.9432310">
        <ele>-229.2</ele>
        <time>2022-06-05T07:28:38Z</time>
      </trkpt>
      <trkpt lat="48.4723430" lon="7.9432310">
        <ele>-229.4</ele>
        <time>2022-06-05T07:28:42Z</time>
      </trkpt>
      <trkpt lat="48.4723430" lon="7.9432310">
        <ele>-229.2</ele>
        <time>2022-06-05T07:28:46Z</time>
      </trkpt>
      <trkpt lat="48.4723430" lon="7.9432310">
        <ele>-229.4</ele>
        <time>2022-06-05T07:28:50Z</time>
      </trkpt>
      <trkpt lat="48.4723430" lon="7.9432310">
        <ele>-229.6</ele>
        <time>2022-06-05T07:28:54Z</time>
      </trkpt>
      <trkpt lat="48.4723430" lon="7.9432310">
        <ele>-229.4</ele>
        <time>2022-06-05T07:28:58Z</time>
      </trkpt>
      <trkpt lat="48.4723430" lon="7.9432310">
        <ele>-229.2</ele>
        <time>2022-06-05T07:29:02Z</time>
      </trkpt>
      <trkpt lat="48.4723430" lon="7.9432310">
        <ele>-229.0</ele>
        <time>2022-06-05T07:29:06Z</time>
      </trkpt>
      <trkpt lat="48.4723430" lon="7.9432310">
        <ele>-229.2</ele>
        <time>2022-06-05T07:29:10Z</time>
      </trkpt>
      <trkpt lat="48.4723430" lon="7.9432310">
        <ele>-229.4</ele>
        <time>2022-06-05T07:29:14Z</time>
      </trkpt>
      <trkpt lat="48.4723430" lon="7.9432310">
        <ele>-229.2</ele>
        <time>2022-06-05T07:29:18Z</time>
      </trkpt>
      <trkpt lat="48.4723430" lon="7.9432310">
        <ele>-229.0</ele>
        <time>2022-06-05T07:29:22Z</time>
      </trkpt>
      <trkpt lat="48.4723430" lon="7.9432310">
        <ele>-229.2</ele>
        <time>2022-06-05T07:29:26Z</time>
      </trkpt>
      <trkpt lat="48.4723430" lon="7.9432310">
        <ele>-229.0</ele>
        <time>2022-06-05T07:29:30Z</time>
      </trkpt>
      <trkpt lat="48.4723430" lon="7.9432310">
        <ele>-229.0</ele>
        <time>2022-06-05T07:29:34Z</time>
      </trkpt>
      <trkpt lat="48.4723430" lon="7.9432310">
        <ele>-229.2</ele>
        <time>2022-06-05T07:29:38Z</time>
      </trkpt>
      <trkpt lat="48.4723430" lon="7.9432310">
        <ele>-229.2</ele>
        <time>2022-06-05T07:29:42Z</time>
      </trkpt>
      <trkpt lat="48.4723430" lon="7.9432310">
        <ele>-228.6</ele>
        <time>2022-06-05T07:29:46Z</time>
      </trkpt>
      <trkpt lat="48.4723430" lon="7.9432310">
        <ele>-228.6</ele>
        <time>2022-06-05T07:29:50Z</time>
      </trkpt>
      <trkpt lat="48.4723430" lon="7.9432310">
        <ele>-228.6</ele>
        <time>2022-06-05T07:29:54Z</time>
      </trkpt>
      <trkpt lat="48.4723430" lon="7.9432310">
        <ele>-228.6</ele>
        <time>2022-06-05T07:29:58Z</time>
      </trkpt>
      <trkpt lat="48.4723430" lon="7.9432310">
        <ele>-228.8</ele>
        <time>2022-06-05T07:30:02Z</time>
      </trkpt>
      <trkpt lat="48.4723430" lon="7.9432310">
        <ele>-228.6</ele>
        <time>2022-06-05T07:30:06Z</time>
      </trkpt>
      <trkpt lat="48.4723430" lon="7.9432310">
        <ele>-228.4</ele>
        <time>2022-06-05T07:30:10Z</time>
      </trkpt>
      <trkpt lat="48.4723430" lon="7.9432310">
        <ele>-228.6</ele>
        <time>2022-06-05T07:30:14Z</time>
      </trkpt>
      <trkpt lat="48.4723430" lon="7.9432310">
        <ele>-228.4</ele>
        <time>2022-06-05T07:30:18Z</time>
      </trkpt>
      <trkpt lat="48.4723430" lon="7.9432310">
        <ele>-228.8</ele>
        <time>2022-06-05T07:30:22Z</time>
      </trkpt>
      <trkpt lat="48.4723430" lon="7.9432310">
        <ele>-228.8</ele>
        <time>2022-06-05T07:30:26Z</time>
      </trkpt>
      <trkpt lat="48.4723430" lon="7.9432310">
        <ele>-228.4</ele>
        <time>2022-06-05T07:30:30Z</time>
      </trkpt>
      <trkpt lat="48.4723430" lon="7.9432310">
        <ele>-228.4</ele>
        <time>2022-06-05T07:30:34Z</time>
      </trkpt>
      <trkpt lat="48.4723430" lon="7.9432310">
        <ele>-228.4</ele>
        <time>2022-06-05T07:30:38Z</time>
      </trkpt>
      <trkpt lat="48.4722200" lon="7.9430550">
        <ele>-228.6</ele>
        <time>2022-06-05T07:30:42Z</time>
      </trkpt>
      <trkpt lat="48.4722200" lon="7.9430550">
        <ele>-228.4</ele>
        <time>2022-06-05T07:30:46Z</time>
      </trkpt>
      <trkpt lat="48.4722200" lon="7.9430550">
        <ele>-228.4</ele>
        <time>2022-06-05T07:30:50Z</time>
      </trkpt>
      <trkpt lat="48.4722200" lon="7.9430550">
        <ele>-228.4</ele>
        <time>2022-06-05T07:30:54Z</time>
      </trkpt>
      <trkpt lat="48.4722200" lon="7.9430550">
        <ele>-228.2</ele>
        <time>2022-06-05T07:30:58Z</time>
      </trkpt>
      <trkpt lat="48.4722200" lon="7.9430550">
        <ele>-228.0</ele>
        <time>2022-06-05T07:31:02Z</time>
      </trkpt>
      <trkpt lat="48.4722200" lon="7.9430550">
        <ele>-228.4</ele>
        <time>2022-06-05T07:31:06Z</time>
      </trkpt>
      <trkpt lat="48.4722200" lon="7.9430550">
        <ele>-228.4</ele>
        <time>2022-06-05T07:31:10Z</time>
      </trkpt>
      <trkpt lat="48.4722200" lon="7.9430550">
        <ele>-228.2</ele>
        <time>2022-06-05T07:31:14Z</time>
      </trkpt>
      <trkpt lat="48.4722200" lon="7.9430550">
        <ele>-228.4</ele>
        <time>2022-06-05T07:31:18Z</time>
      </trkpt>
      <trkpt lat="48.4722200" lon="7.9430550">
        <ele>-228.6</ele>
        <time>2022-06-05T07:31:22Z</time>
      </trkpt>
      <trkpt lat="48.4722200" lon="7.9430550">
        <ele>-228.0</ele>
        <time>2022-06-05T07:31:26Z</time>
      </trkpt>
      <trkpt lat="48.4722200" lon="7.9430550">
        <ele>-228.4</ele>
        <time>2022-06-05T07:31:30Z</time>
      </trkpt>
      <trkpt lat="48.4722200" lon="7.9430550">
        <ele>-228.2</ele>
        <time>2022-06-05T07:31:34Z</time>
      </trkpt>
      <trkpt lat="48.4722200" lon="7.9430550">
        <ele>-228.2</ele>
        <time>2022-06-05T07:31:38Z</time>
      </trkpt>
      <trkpt lat="48.4722200" lon="7.9430550">
        <ele>-227.8</ele>
        <time>2022-06-05T07:31:42Z</time>
      </trkpt>
      <trkpt lat="48.4722200" lon="7.9430550">
        <ele>-227.8</ele>
        <time>2022-06-05T07:31:46Z</time>
      </trkpt>
      <trkpt lat="48.4722200" lon="7.9430550">
        <ele>-227.6</ele>
        <time>2022-06-05T07:31:50Z</time>
      </trkpt>
      <trkpt lat="48.4722200" lon="7.9430550">
        <ele>-227.8</ele>
        <time>2022-06-05T07:31:54Z</time>
      </trkpt>
      <trkpt lat="48.4722200" lon="7.9430550">
        <ele>-227.6</ele>
        <time>2022-06-05T07:31:58Z</time>
      </trkpt>
      <trkpt lat="48.4722200" lon="7.9430550">
        <ele>-228.2</ele>
        <time>2022-06-05T07:32:02Z</time>
      </trkpt>
      <trkpt lat="48.4722200" lon="7.9430550">
        <ele>-227.8</ele>
        <time>2022-06-05T07:32:06Z</time>
      </trkpt>
      <trkpt lat="48.4722200" lon="7.9430550">
        <ele>-227.8</ele>
        <time>2022-06-05T07:32:10Z</time>
      </trkpt>
      <trkpt lat="48.4722200" lon="7.9430550">
        <ele>-228.2</ele>
        <time>2022-06-05T07:32:14Z</time>
      </trkpt>
      <trkpt lat="48.4722200" lon="7.9430550">
        <ele>-228.0</ele>
        <time>2022-06-05T07:32:18Z</time>
      </trkpt>
      <trkpt lat="48.4722200" lon="7.9430550">
        <ele>-227.6</ele>
        <time>2022-06-05T07:32:22Z</time>
      </trkpt>
      <trkpt lat="48.4722200" lon="7.9430550">
        <ele>-227.8</ele>
        <time>2022-06-05T07:32:26Z</time>
      </trkpt>
      <trkpt lat="48.4722200" lon="7.9430550">
        <ele>-227.6</ele>
        <time>2022-06-05T07:32:30Z</time>
      </trkpt>
      <trkpt lat="48.4722200" lon="7.9430550">
        <ele>-227.8</ele>
        <time>2022-06-05T07:32:34Z</time>
      </trkpt>
      <trkpt lat="48.4722200" lon="7.9430550">
        <ele>-227.8</ele>
        <time>2022-06-05T07:32:38Z</time>
      </trkpt>
      <trkpt lat="48.4722530" lon="7.9432130">
        <ele>-227.8</ele>
        <time>2022-06-05T07:32:42Z</time>
      </trkpt>
      <trkpt lat="48.4722150" lon="7.9432010">
        <ele>-228.4</ele>
        <time>2022-06-05T07:32:46Z</time>
      </trkpt>
      <trkpt lat="48.4721900" lon="7.9432650">
        <ele>-228.2</ele>
        <time>2022-06-05T07:32:50Z</time>
      </trkpt>
      <trkpt lat="48.4721200" lon="7.9432260">
        <ele>-228.2</ele>
        <time>2022-06-05T07:32:54Z</time>
      </trkpt>
      <trkpt lat="48.4720300" lon="7.9431910">
        <ele>-227.8</ele>
        <time>2022-06-05T07:32:58Z</time>
      </trkpt>
      <trkpt lat="48.4719610" lon="7.9431550">
        <ele>-228.2</ele>
        <time>2022-06-05T07:33:02Z</time>
      </trkpt>
      <trkpt lat="48.4718610" lon="7.9431100">
        <ele>-228.4</ele>
        <time>2022-06-05T07:33:06Z</time>
      </trkpt>
      <trkpt lat="48.4717660" lon="7.9430680">
        <ele>-228.6</ele>
        <time>2022-06-05T07:33:10Z</time>
      </trkpt>
      <trkpt lat="48.4716660" lon="7.9430530">
        <ele>-228.2</ele>
        <time>2022-06-05T07:33:14Z</time>
      </trkpt>
      <trkpt lat="48.4716680" lon="7.9430780">
        <ele>-228.2</ele>
        <time>2022-06-05T07:33:18Z</time>
      </trkpt>
      <trkpt lat="48.4717310" lon="7.9430900">
        <ele>-228.4</ele>
        <time>2022-06-05T07:33:22Z</time>
      </trkpt>
      <trkpt lat="48.4718150" lon="7.9430650">
        <ele>-228.0</ele>
        <time>2022-06-05T07:33:26Z</time>
      </trkpt>
      <trkpt lat="48.4717860" lon="7.9430250">
        <ele>-228.4</ele>
        <time>2022-06-05T07:33:30Z</time>
      </trkpt>
      <trkpt lat="48.4716930" lon="7.9430060">
        <ele>-228.2</ele>
        <time>2022-06-05T07:33:34Z</time>
      </trkpt>
      <trkpt lat="48.4715810" lon="7.9429800">
        <ele>-228.2</ele>
        <time>2022-06-05T07:33:38Z</time>
      </trkpt>
      <trkpt lat="48.4714660" lon="7.9429760">
        <ele>-227.8</ele>
        <time>2022-06-05T07:33:42Z</time>
      </trkpt>
      <trkpt lat="48.4713030" lon="7.9429660">
        <ele>-228.0</ele>
        <time>2022-06-05T07:33:46Z</time>
      </trkpt>
      <trkpt lat="48.4711860" lon="7.9429230">
        <ele>-228.0</ele>
        <time>2022-06-05T07:33:50Z</time>
      </trkpt>
      <trkpt lat="48.4710480" lon="7.9429250">
        <ele>-227.0</ele>
        <time>2022-06-05T07:33:54Z</time>
      </trkpt>
      <trkpt lat="48.4709430" lon="7.9429130">
        <ele>-227.4</ele>
        <time>2022-06-05T07:33:58Z</time>
      </trkpt>
      <trkpt lat="48.4708310" lon="7.9429050">
        <ele>-228.0</ele>
        <time>2022-06-05T07:34:02Z</time>
      </trkpt>
      <trkpt lat="48.4707130" lon="7.9429000">
        <ele>-227.4</ele>
        <time>2022-06-05T07:34:06Z</time>
      </trkpt>
      <trkpt lat="48.4705680" lon="7.9429260">
        <ele>-227.4</ele>
        <time>2022-06-05T07:34:10Z</time>
      </trkpt>
      <trkpt lat="48.4704510" lon="7.9429150">
        <ele>-226.6</ele>
        <time>2022-06-05T07:34:14Z</time>
      </trkpt>
      <trkpt lat="48.4703430" lon="7.9429160">
        <ele>-226.6</ele>
        <time>2022-06-05T07:34:18Z</time>
      </trkpt>
      <trkpt lat="48.4702510" lon="7.9428860">
        <ele>-226.8</ele>
        <time>2022-06-05T07:34:22Z</time>
      </trkpt>
      <trkpt lat="48.4701480" lon="7.9429010">
        <ele>-226.8</ele>
        <time>2022-06-05T07:34:26Z</time>
      </trkpt>
      <trkpt lat="48.4700010" lon="7.9429180">
        <ele>-226.2</ele>
        <time>2022-06-05T07:34:30Z</time>
      </trkpt>
      <trkpt lat="48.4698980" lon="7.9429180">
        <ele>-226.4</ele>
        <time>2022-06-05T07:34:34Z</time>
      </trkpt>
      <trkpt lat="48.4697910" lon="7.9429230">
        <ele>-226.2</ele>
        <time>2022-06-05T07:34:38Z</time>
      </trkpt>
      <trkpt lat="48.4696960" lon="7.9429250">
        <ele>-226.6</ele>
        <time>2022-06-05T07:34:42Z</time>
      </trkpt>
      <trkpt lat="48.4695960" lon="7.9429280">
        <ele>-226.0</ele>
        <time>2022-06-05T07:34:46Z</time>
      </trkpt>
      <trkpt lat="48.4694960" lon="7.9429550">
        <ele>-226.0</ele>
        <time>2022-06-05T07:34:50Z</time>
      </trkpt>
      <trkpt lat="48.4693810" lon="7.9429650">
        <ele>-226.2</ele>
        <time>2022-06-05T07:34:54Z</time>
      </trkpt>
      <trkpt lat="48.4692510" lon="7.9429350">
        <ele>-226.2</ele>
        <time>2022-06-05T07:34:58Z</time>
      </trkpt>
      <trkpt lat="48.4691110" lon="7.9429160">
        <ele>-226.6</ele>
        <time>2022-06-05T07:35:02Z</time>
      </trkpt>
      <trkpt lat="48.4689860" lon="7.9428860">
        <ele>-226.6</ele>
        <time>2022-06-05T07:35:06Z</time>
      </trkpt>
      <trkpt lat="48.4688730" lon="7.9428710">
        <ele>-226.8</ele>
        <time>2022-06-05T07:35:10Z</time>
      </trkpt>
      <trkpt lat="48.4687560" lon="7.9428310">
        <ele>-227.2</ele>
        <time>2022-06-05T07:35:14Z</time>
      </trkpt>
      <trkpt lat="48.4686280" lon="7.9428010">
        <ele>-228.4</ele>
        <time>2022-06-05T07:35:18Z</time>
      </trkpt>
      <trkpt lat="48.4684710" lon="7.9427860">
        <ele>-229.6</ele>
        <time>2022-06-05T07:35:22Z</time>
      </trkpt>
      <trkpt lat="48.4682980" lon="7.9427680">
        <ele>-230.2</ele>
        <time>2022-06-05T07:35:26Z</time>
      </trkpt>
      <trkpt lat="48.4681260" lon="7.9427060">
        <ele>-231.0</ele>
        <time>2022-06-05T07:35:30Z</time>
      </trkpt>
      <trkpt lat="48.4679980" lon="7.9425360">
        <ele>-231.8</ele>
        <time>2022-06-05T07:35:34Z</time>
      </trkpt>
      <trkpt lat="48.4679150" lon="7.9422830">
        <ele>-232.4</ele>
        <time>2022-06-05T07:35:38Z</time>
      </trkpt>
      <trkpt lat="48.4678180" lon="7.9420180">
        <ele>-233.0</ele>
        <time>2022-06-05T07:35:42Z</time>
      </trkpt>
      <trkpt lat="48.4677150" lon="7.9417480">
        <ele>-233.6</ele>
        <time>2022-06-05T07:35:46Z</time>
      </trkpt>
      <trkpt lat="48.4675900" lon="7.9414630">
        <ele>-234.4</ele>
        <time>2022-06-05T07:35:50Z</time>
      </trkpt>
      <trkpt lat="48.4674780" lon="7.9411910">
        <ele>-234.6</ele>
        <time>2022-06-05T07:35:54Z</time>
      </trkpt>
      <trkpt lat="48.4672630" lon="7.9411850">
        <ele>-235.0</ele>
        <time>2022-06-05T07:35:58Z</time>
      </trkpt>
      <trkpt lat="48.4670600" lon="7.9412450">
        <ele>-235.8</ele>
        <time>2022-06-05T07:36:02Z</time>
      </trkpt>
      <trkpt lat="48.4668660" lon="7.9413160">
        <ele>-235.8</ele>
        <time>2022-06-05T07:36:06Z</time>
      </trkpt>
      <trkpt lat="48.4666800" lon="7.9413350">
        <ele>-236.2</ele>
        <time>2022-06-05T07:36:10Z</time>
      </trkpt>
      <trkpt lat="48.4664960" lon="7.9413430">
        <ele>-235.2</ele>
        <time>2022-06-05T07:36:14Z</time>
      </trkpt>
      <trkpt lat="48.4663350" lon="7.9413610">
        <ele>-236.6</ele>
        <time>2022-06-05T07:36:18Z</time>
      </trkpt>
      <trkpt lat="48.4661960" lon="7.9413300">
        <ele>-236.4</ele>
        <time>2022-06-05T07:36:22Z</time>
      </trkpt>
      <trkpt lat="48.4660510" lon="7.9413710">
        <ele>-236.2</ele>
        <time>2022-06-05T07:36:26Z</time>
      </trkpt>
      <trkpt lat="48.4659000" lon="7.9413850">
        <ele>-236.0</ele>
        <time>2022-06-05T07:36:30Z</time>
      </trkpt>
      <trkpt lat="48.4657400" lon="7.9413910">
        <ele>-236.4</ele>
        <time>2022-06-05T07:36:34Z</time>
      </trkpt>
      <trkpt lat="48.4655750" lon="7.9414050">
        <ele>-236.4</ele>
        <time>2022-06-05T07:36:38Z</time>
      </trkpt>
      <trkpt lat="48.4654300" lon="7.9414230">
        <ele>-236.2</ele>
        <time>2022-06-05T07:36:42Z</time>
      </trkpt>
      <trkpt lat="48.4652910" lon="7.9414150">
        <ele>-237.2</ele>
        <time>2022-06-05T07:36:46Z</time>
      </trkpt>
      <trkpt lat="48.4651580" lon="7.9414180">
        <ele>-236.2</ele>
        <time>2022-06-05T07:36:50Z</time>
      </trkpt>
      <trkpt lat="48.4650260" lon="7.9414260">
        <ele>-236.4</ele>
        <time>2022-06-05T07:36:54Z</time>
      </trkpt>
      <trkpt lat="48.4649050" lon="7.9414260">
        <ele>-236.0</ele>
        <time>2022-06-05T07:36:58Z</time>
      </trkpt>
      <trkpt lat="48.4647710" lon="7.9414280">
        <ele>-236.0</ele>
        <time>2022-06-05T07:37:02Z</time>
      </trkpt>
      <trkpt lat="48.4646300" lon="7.9414410">
        <ele>-235.8</ele>
        <time>2022-06-05T07:37:06Z</time>
      </trkpt>
      <trkpt lat="48.4644630" lon="7.9414210">
        <ele>-236.0</ele>
        <time>2022-06-05T07:37:10Z</time>
      </trkpt>
      <trkpt lat="48.4643000" lon="7.9414110">
        <ele>-236.6</ele>
        <time>2022-06-05T07:37:14Z</time>
      </trkpt>
      <trkpt lat="48.4641710" lon="7.9414030">
        <ele>-236.0</ele>
        <time>2022-06-05T07:37:18Z</time>
      </trkpt>
      <trkpt lat="48.4640250" lon="7.9413960">
        <ele>-236.2</ele>
        <time>2022-06-05T07:37:22Z</time>
      </trkpt>
      <trkpt lat="48.4638680" lon="7.9413830">
        <ele>-236.0</ele>
        <time>2022-06-05T07:37:26Z</time>
      </trkpt>
      <trkpt lat="48.4637210" lon="7.9413530">
        <ele>-236.4</ele>
        <time>2022-06-05T07:37:30Z</time>
      </trkpt>
      <trkpt lat="48.4635650" lon="7.9413180">
        <ele>-236.2</ele>
        <time>2022-06-05T07:37:34Z</time>
      </trkpt>
      <trkpt lat="48.4633980" lon="7.9412800">
        <ele>-236.0</ele>
        <time>2022-06-05T07:37:38Z</time>
      </trkpt>
      <trkpt lat="48.4632710" lon="7.9412610">
        <ele>-236.8</ele>
        <time>2022-06-05T07:37:42Z</time>
      </trkpt>
      <trkpt lat="48.4631480" lon="7.9412950">
        <ele>-236.8</ele>
        <time>2022-06-05T07:37:46Z</time>
      </trkpt>
      <trkpt lat="48.4629760" lon="7.9413750">
        <ele>-236.0</ele>
        <time>2022-06-05T07:37:50Z</time>
      </trkpt>
      <trkpt lat="48.4628180" lon="7.9414210">
        <ele>-236.4</ele>
        <time>2022-06-05T07:37:54Z</time>
      </trkpt>
      <trkpt lat="48.4626660" lon="7.9414360">
        <ele>-236.0</ele>
        <time>2022-06-05T07:37:58Z</time>
      </trkpt>
      <trkpt lat="48.4625130" lon="7.9414460">
        <ele>-236.0</ele>
        <time>2022-06-05T07:38:02Z</time>
      </trkpt>
      <trkpt lat="48.4623550" lon="7.9414730">
        <ele>-236.4</ele>
        <time>2022-06-05T07:38:06Z</time>
      </trkpt>
      <trkpt lat="48.4621930" lon="7.9415210">
        <ele>-236.2</ele>
        <time>2022-06-05T07:38:10Z</time>
      </trkpt>
      <trkpt lat="48.4620380" lon="7.9415650">
        <ele>-236.0</ele>
        <time>2022-06-05T07:38:14Z</time>
      </trkpt>
      <trkpt lat="48.4618900" lon="7.9416150">
        <ele>-236.0</ele>
        <time>2022-06-05T07:38:18Z</time>
      </trkpt>
      <trkpt lat="48.4617360" lon="7.9416650">
        <ele>-236.4</ele>
        <time>2022-06-05T07:38:22Z</time>
      </trkpt>
      <trkpt lat="48.4615860" lon="7.9417160">
        <ele>-236.2</ele>
        <time>2022-06-05T07:38:26Z</time>
      </trkpt>
      <trkpt lat="48.4614350" lon="7.9417730">
        <ele>-236.6</ele>
        <time>2022-06-05T07:38:30Z</time>
      </trkpt>
      <trkpt lat="48.4612880" lon="7.9418350">
        <ele>-236.0</ele>
        <time>2022-06-05T07:38:34Z</time>
      </trkpt>
      <trkpt lat="48.4611380" lon="7.9418850">
        <ele>-235.8</ele>
        <time>2022-06-05T07:38:38Z</time>
      </trkpt>
      <trkpt lat="48.4609930" lon="7.9419280">
        <ele>-236.0</ele>
        <time>2022-06-05T07:38:42Z</time>
      </trkpt>
      <trkpt lat="48.4608350" lon="7.9419730">
        <ele>-235.8</ele>
        <time>2022-06-05T07:38:46Z</time>
      </trkpt>
      <trkpt lat="48.4606800" lon="7.9420230">
        <ele>-235.6</ele>
        <time>2022-06-05T07:38:50Z</time>
      </trkpt>
      <trkpt lat="48.4605380" lon="7.9421080">
        <ele>-235.6</ele>
        <time>2022-06-05T07:38:54Z</time>
      </trkpt>
      <trkpt lat="48.4603880" lon="7.9422100">
        <ele>-235.6</ele>
        <time>2022-06-05T07:38:58Z</time>
      </trkpt>
      <trkpt lat="48.4602500" lon="7.9422900">
        <ele>-235.2</ele>
        <time>2022-06-05T07:39:02Z</time>
      </trkpt>
      <trkpt lat="48.4601060" lon="7.9423830">
        <ele>-235.2</ele>
        <time>2022-06-05T07:39:06Z</time>
      </trkpt>
      <trkpt lat="48.4599650" lon="7.9424760">
        <ele>-234.8</ele>
        <time>2022-06-05T07:39:10Z</time>
      </trkpt>
      <trkpt lat="48.4598350" lon="7.9425600">
        <ele>-235.2</ele>
        <time>2022-06-05T07:39:14Z</time>
      </trkpt>
      <trkpt lat="48.4597360" lon="7.9426850">
        <ele>-235.0</ele>
        <time>2022-06-05T07:39:18Z</time>
      </trkpt>
      <trkpt lat="48.4596250" lon="7.9427460">
        <ele>-234.8</ele>
        <time>2022-06-05T07:39:22Z</time>
      </trkpt>
      <trkpt lat="48.4595010" lon="7.9427750">
        <ele>-234.2</ele>
        <time>2022-06-05T07:39:26Z</time>
      </trkpt>
      <trkpt lat="48.4593960" lon="7.9428760">
        <ele>-234.0</ele>
        <time>2022-06-05T07:39:30Z</time>
      </trkpt>
      <trkpt lat="48.4593060" lon="7.9430200">
        <ele>-234.6</ele>
        <time>2022-06-05T07:39:34Z</time>
      </trkpt>
      <trkpt lat="48.4593050" lon="7.9431710">
        <ele>-234.8</ele>
        <time>2022-06-05T07:39:38Z</time>
      </trkpt>
      <trkpt lat="48.4592900" lon="7.9432710">
        <ele>-234.8</ele>
        <time>2022-06-05T07:39:42Z</time>
      </trkpt>
      <trkpt lat="48.4592300" lon="7.9433050">
        <ele>-234.8</ele>
        <time>2022-06-05T07:39:46Z</time>
      </trkpt>
      <trkpt lat="48.4591960" lon="7.9433550">
        <ele>-234.8</ele>
        <time>2022-06-05T07:39:50Z</time>
      </trkpt>
      <trkpt lat="48.4591960" lon="7.9433550">
        <ele>-235.0</ele>
        <time>2022-06-05T07:39:54Z</time>
      </trkpt>
      <trkpt lat="48.4591950" lon="7.9434010">
        <ele>-235.0</ele>
        <time>2022-06-05T07:39:58Z</time>
      </trkpt>
      <trkpt lat="48.4591950" lon="7.9434010">
        <ele>-235.0</ele>
        <time>2022-06-05T07:40:02Z</time>
      </trkpt>
      <trkpt lat="48.4591950" lon="7.9434010">
        <ele>-234.6</ele>
        <time>2022-06-05T07:40:06Z</time>
      </trkpt>
      <trkpt lat="48.4591950" lon="7.9434010">
        <ele>-234.6</ele>
        <time>2022-06-05T07:40:10Z</time>
      </trkpt>
      <trkpt lat="48.4591950" lon="7.9434010">
        <ele>-235.2</ele>
        <time>2022-06-05T07:40:14Z</time>
      </trkpt>
      <trkpt lat="48.4591950" lon="7.9434010">
        <ele>-235.0</ele>
        <time>2022-06-05T07:40:18Z</time>
      </trkpt>
      <trkpt lat="48.4591950" lon="7.9434010">
        <ele>-235.4</ele>
        <time>2022-06-05T07:40:22Z</time>
      </trkpt>
      <trkpt lat="48.4591950" lon="7.9434010">
        <ele>-235.2</ele>
        <time>2022-06-05T07:40:26Z</time>
      </trkpt>
      <trkpt lat="48.4591530" lon="7.9433150">
        <ele>-235.2</ele>
        <time>2022-06-05T07:40:30Z</time>
      </trkpt>
      <trkpt lat="48.4591530" lon="7.9433150">
        <ele>-234.8</ele>
        <time>2022-06-05T07:40:34Z</time>
      </trkpt>
      <trkpt lat="48.4591460" lon="7.9432850">
        <ele>-234.6</ele>
        <time>2022-06-05T07:40:38Z</time>
      </trkpt>
      <trkpt lat="48.4591460" lon="7.9432850">
        <ele>-234.6</ele>
        <time>2022-06-05T07:40:42Z</time>
      </trkpt>
      <trkpt lat="48.4591460" lon="7.9432850">
        <ele>-234.4</ele>
        <time>2022-06-05T07:40:46Z</time>
      </trkpt>
      <trkpt lat="48.4591460" lon="7.9432850">
        <ele>-234.6</ele>
        <time>2022-06-05T07:40:50Z</time>
      </trkpt>
      <trkpt lat="48.4591460" lon="7.9432850">
        <ele>-235.2</ele>
        <time>2022-06-05T07:40:54Z</time>
      </trkpt>
      <trkpt lat="48.4591460" lon="7.9432850">
        <ele>-234.6</ele>
        <time>2022-06-05T07:40:58Z</time>
      </trkpt>
      <trkpt lat="48.4591460" lon="7.9432850">
        <ele>-235.0</ele>
        <time>2022-06-05T07:41:02Z</time>
      </trkpt>
      <trkpt lat="48.4591460" lon="7.9432850">
        <ele>-234.8</ele>
        <time>2022-06-05T07:41:06Z</time>
      </trkpt>
      <trkpt lat="48.4591460" lon="7.9432850">
        <ele>-234.6</ele>
        <time>2022-06-05T07:41:10Z</time>
      </trkpt>
      <trkpt lat="48.4591460" lon="7.9432850">
        <ele>-234.4</ele>
        <time>2022-06-05T07:41:14Z</time>
      </trkpt>
      <trkpt lat="48.4591460" lon="7.9432850">
        <ele>-234.2</ele>
        <time>2022-06-05T07:41:18Z</time>
      </trkpt>
      <trkpt lat="48.4591460" lon="7.9432850">
        <ele>-234.6</ele>
        <time>2022-06-05T07:41:22Z</time>
      </trkpt>
      <trkpt lat="48.4591210" lon="7.9431900">
        <ele>-234.8</ele>
        <time>2022-06-05T07:41:26Z</time>
      </trkpt>
      <trkpt lat="48.4591300" lon="7.9431600">
        <ele>-234.8</ele>
        <time>2022-06-05T07:41:30Z</time>
      </trkpt>
      <trkpt lat="48.4591560" lon="7.9431560">
        <ele>-234.6</ele>
        <time>2022-06-05T07:41:34Z</time>
      </trkpt>
      <trkpt lat="48.4591930" lon="7.9431700">
        <ele>-235.2</ele>
        <time>2022-06-05T07:41:38Z</time>
      </trkpt>
      <trkpt lat="48.4592280" lon="7.9431260">
        <ele>-234.6</ele>
        <time>2022-06-05T07:41:42Z</time>
      </trkpt>
      <trkpt lat="48.4592360" lon="7.9430400">
        <ele>-234.6</ele>
        <time>2022-06-05T07:41:46Z</time>
      </trkpt>
      <trkpt lat="48.4592210" lon="7.9429600">
        <ele>-234.8</ele>
        <time>2022-06-05T07:41:50Z</time>
      </trkpt>
      <trkpt lat="48.4592210" lon="7.9428350">
        <ele>-235.2</ele>
        <time>2022-06-05T07:41:54Z</time>
      </trkpt>
      <trkpt lat="48.4592450" lon="7.9426960">
        <ele>-235.2</ele>
        <time>2022-06-05T07:41:58Z</time>
      </trkpt>
      <trkpt lat="48.4592050" lon="7.9425380">
        <ele>-235.8</ele>
        <time>2022-06-05T07:42:02Z</time>
      </trkpt>
      <trkpt lat="48.4591460" lon="7.9423680">
        <ele>-235.6</ele>
        <time>2022-06-05T07:42:06Z</time>
      </trkpt>
      <trkpt lat="48.4591130" lon="7.9421660">
        <ele>-235.4</ele>
        <time>2022-06-05T07:42:10Z</time>
      </trkpt>
      <trkpt lat="48.4590750" lon="7.9419730">
        <ele>-236.2</ele>
        <time>2022-06-05T07:42:14Z</time>
      </trkpt>
      <trkpt lat="48.4590560" lon="7.9417810">
        <ele>-235.2</ele>
        <time>2022-06-05T07:42:18Z</time>
      </trkpt>
      <trkpt lat="48.4590360" lon="7.9416030">
        <ele>-234.6</ele>
        <time>2022-06-05T07:42:22Z</time>
      </trkpt>
      <trkpt lat="48.4590300" lon="7.9414530">
        <ele>-233.6</ele>
        <time>2022-06-05T07:42:26Z</time>
      </trkpt>
      <trkpt lat="48.4590200" lon="7.9413000">
        <ele>-233.2</ele>
        <time>2022-06-05T07:42:30Z</time>
      </trkpt>
      <trkpt lat="48.4590030" lon="7.9411230">
        <ele>-232.4</ele>
        <time>2022-06-05T07:42:34Z</time>
      </trkpt>
      <trkpt lat="48.4589880" lon="7.9409300">
        <ele>-232.4</ele>
        <time>2022-06-05T07:42:38Z</time>
      </trkpt>
      <trkpt lat="48.4589580" lon="7.9407510">
        <ele>-232.0</ele>
        <time>2022-06-05T07:42:42Z</time>
      </trkpt>
      <trkpt lat="48.4589330" lon="7.9405700">
        <ele>-232.2</ele>
        <time>2022-06-05T07:42:46Z</time>
      </trkpt>
      <trkpt lat="48.4589030" lon="7.9403760">
        <ele>-231.4</ele>
        <time>2022-06-05T07:42:50Z</time>
      </trkpt>
      <trkpt lat="48.4588660" lon="7.9401900">
        <ele>-231.2</ele>
        <time>2022-06-05T07:42:54Z</time>
      </trkpt>
      <trkpt lat="48.4588280" lon="7.9400000">
        <ele>-231.0</ele>
        <time>2022-06-05T07:42:58Z</time>
      </trkpt>
      <trkpt lat="48.4588050" lon="7.9398150">
        <ele>-231.0</ele>
        <time>2022-06-05T07:43:02Z</time>
      </trkpt>
      <trkpt lat="48.4587800" lon="7.9396250">
        <ele>-231.2</ele>
        <time>2022-06-05T07:43:06Z</time>
      </trkpt>
      <trkpt lat="48.4587510" lon="7.9394230">
        <ele>-230.4</ele>
        <time>2022-06-05T07:43:10Z</time>
      </trkpt>
      <trkpt lat="48.4587280" lon="7.9392130">
        <ele>-231.0</ele>
        <time>2022-06-05T07:43:14Z</time>
      </trkpt>
      <trkpt lat="48.4587030" lon="7.9389930">
        <ele>-231.2</ele>
        <time>2022-06-05T07:43:18Z</time>
      </trkpt>
      <trkpt lat="48.4586830" lon="7.9387960">
        <ele>-230.8</ele>
        <time>2022-06-05T07:43:22Z</time>
      </trkpt>
      <trkpt lat="48.4586130" lon="7.9387880">
        <ele>-231.2</ele>
        <time>2022-06-05T07:43:26Z</time>
      </trkpt>
      <trkpt lat="48.4584630" lon="7.9388810">
        <ele>-232.0</ele>
        <time>2022-06-05T07:43:30Z</time>
      </trkpt>
      <trkpt lat="48.4582830" lon="7.9389800">
        <ele>-232.8</ele>
        <time>2022-06-05T07:43:34Z</time>
      </trkpt>
      <trkpt lat="48.4581200" lon="7.9390610">
        <ele>-232.0</ele>
        <time>2022-06-05T07:43:38Z</time>
      </trkpt>
      <trkpt lat="48.4579680" lon="7.9391300">
        <ele>-232.4</ele>
        <time>2022-06-05T07:43:42Z</time>
      </trkpt>
      <trkpt lat="48.4578130" lon="7.9391960">
        <ele>-232.0</ele>
        <time>2022-06-05T07:43:46Z</time>
      </trkpt>
      <trkpt lat="48.4576680" lon="7.9392580">
        <ele>-232.0</ele>
        <time>2022-06-05T07:43:50Z</time>
      </trkpt>
      <trkpt lat="48.4575460" lon="7.9393200">
        <ele>-232.4</ele>
        <time>2022-06-05T07:43:54Z</time>
      </trkpt>
      <trkpt lat="48.4574500" lon="7.9393660">
        <ele>-232.4</ele>
        <time>2022-06-05T07:43:58Z</time>
      </trkpt>
      <trkpt lat="48.4574500" lon="7.9393660">
        <ele>-232.2</ele>
        <time>2022-06-05T07:44:02Z</time>
      </trkpt>
      <trkpt lat="48.4574500" lon="7.9393660">
        <ele>-232.2</ele>
        <time>2022-06-05T07:44:06Z</time>
      </trkpt>
      <trkpt lat="48.4574500" lon="7.9393660">
        <ele>-232.8</ele>
        <time>2022-06-05T07:44:10Z</time>
      </trkpt>
      <trkpt lat="48.4574500" lon="7.9393660">
        <ele>-232.4</ele>
        <time>2022-06-05T07:44:14Z</time>
      </trkpt>
      <trkpt lat="48.4574500" lon="7.9393660">
        <ele>-232.4</ele>
        <time>2022-06-05T07:44:18Z</time>
      </trkpt>
      <trkpt lat="48.4574500" lon="7.9393660">
        <ele>-232.6</ele>
        <time>2022-06-05T07:44:22Z</time>
      </trkpt>
      <trkpt lat="48.4574500" lon="7.9393660">
        <ele>-232.8</ele>
        <time>2022-06-05T07:44:26Z</time>
      </trkpt>
      <trkpt lat="48.4574500" lon="7.9393660">
        <ele>-232.8</ele>
        <time>2022-06-05T07:44:30Z</time>
      </trkpt>
      <trkpt lat="48.4574500" lon="7.9393660">
        <ele>-232.6</ele>
        <time>2022-06-05T07:44:34Z</time>
      </trkpt>
      <trkpt lat="48.4574500" lon="7.9393660">
        <ele>-232.6</ele>
        <time>2022-06-05T07:44:38Z</time>
      </trkpt>
      <trkpt lat="48.4574500" lon="7.9393660">
        <ele>-232.6</ele>
        <time>2022-06-05T07:44:42Z</time>
      </trkpt>
      <trkpt lat="48.4574500" lon="7.9393660">
        <ele>-232.8</ele>
        <time>2022-06-05T07:44:46Z</time>
      </trkpt>
      <trkpt lat="48.4574500" lon="7.9393660">
        <ele>-232.8</ele>
        <time>2022-06-05T07:44:50Z</time>
      </trkpt>
      <trkpt lat="48.4574500" lon="7.9393660">
        <ele>-232.4</ele>
        <time>2022-06-05T07:44:54Z</time>
      </trkpt>
      <trkpt lat="48.4574500" lon="7.9393660">
        <ele>-233.2</ele>
        <time>2022-06-05T07:44:58Z</time>
      </trkpt>
      <trkpt lat="48.4574500" lon="7.9393660">
        <ele>-232.6</ele>
        <time>2022-06-05T07:45:02Z</time>
      </trkpt>
      <trkpt lat="48.4574500" lon="7.9393660">
        <ele>-233.0</ele>
        <time>2022-06-05T07:45:06Z</time>
      </trkpt>
      <trkpt lat="48.4574500" lon="7.9393660">
        <ele>-233.0</ele>
        <time>2022-06-05T07:45:10Z</time>
      </trkpt>
      <trkpt lat="48.4574500" lon="7.9393660">
        <ele>-233.0</ele>
        <time>2022-06-05T07:45:14Z</time>
      </trkpt>
      <trkpt lat="48.4574500" lon="7.9393660">
        <ele>-232.6</ele>
        <time>2022-06-05T07:45:18Z</time>
      </trkpt>
      <trkpt lat="48.4574500" lon="7.9393660">
        <ele>-233.2</ele>
        <time>2022-06-05T07:45:22Z</time>
      </trkpt>
      <trkpt lat="48.4574500" lon="7.9393660">
        <ele>-233.0</ele>
        <time>2022-06-05T07:45:26Z</time>
      </trkpt>
      <trkpt lat="48.4574500" lon="7.9393660">
        <ele>-233.0</ele>
        <time>2022-06-05T07:45:30Z</time>
      </trkpt>
      <trkpt lat="48.4574500" lon="7.9393660">
        <ele>-233.0</ele>
        <time>2022-06-05T07:45:34Z</time>
      </trkpt>
      <trkpt lat="48.4574500" lon="7.9393660">
        <ele>-233.0</ele>
        <time>2022-06-05T07:45:38Z</time>
      </trkpt>
      <trkpt lat="48.4574500" lon="7.9393660">
        <ele>-233.2</ele>
        <time>2022-06-05T07:45:42Z</time>
      </trkpt>
      <trkpt lat="48.4574500" lon="7.9393660">
        <ele>-233.4</ele>
        <time>2022-06-05T07:45:46Z</time>
      </trkpt>
      <trkpt lat="48.4574500" lon="7.9393660">
        <ele>-233.2</ele>
        <time>2022-06-05T07:45:50Z</time>
      </trkpt>
      <trkpt lat="48.4574500" lon="7.9393660">
        <ele>-233.2</ele>
        <time>2022-06-05T07:45:54Z</time>
      </trkpt>
      <trkpt lat="48.4574500" lon="7.9393660">
        <ele>-233.6</ele>
        <time>2022-06-05T07:45:58Z</time>
      </trkpt>
      <trkpt lat="48.4574500" lon="7.9393660">
        <ele>-233.6</ele>
        <time>2022-06-05T07:46:02Z</time>
      </trkpt>
      <trkpt lat="48.4574280" lon="7.9393810">
        <ele>-233.6</ele>
        <time>2022-06-05T07:46:06Z</time>
      </trkpt>
      <trkpt lat="48.4574280" lon="7.9393810">
        <ele>-233.4</ele>
        <time>2022-06-05T07:46:10Z</time>
      </trkpt>
      <trkpt lat="48.4574080" lon="7.9394050">
        <ele>-233.4</ele>
        <time>2022-06-05T07:46:14Z</time>
      </trkpt>
      <trkpt lat="48.4573430" lon="7.9394380">
        <ele>-233.4</ele>
        <time>2022-06-05T07:46:18Z</time>
      </trkpt>
      <trkpt lat="48.4572310" lon="7.9394810">
        <ele>-233.8</ele>
        <time>2022-06-05T07:46:22Z</time>
      </trkpt>
      <trkpt lat="48.4570930" lon="7.9395430">
        <ele>-233.4</ele>
        <time>2022-06-05T07:46:26Z</time>
      </trkpt>
      <trkpt lat="48.4569450" lon="7.9396110">
        <ele>-233.8</ele>
        <time>2022-06-05T07:46:30Z</time>
      </trkpt>
      <trkpt lat="48.4567950" lon="7.9396780">
        <ele>-233.4</ele>
        <time>2022-06-05T07:46:34Z</time>
      </trkpt>
      <trkpt lat="48.4566410" lon="7.9397500">
        <ele>-233.4</ele>
        <time>2022-06-05T07:46:38Z</time>
      </trkpt>
      <trkpt lat="48.4564880" lon="7.9398200">
        <ele>-233.0</ele>
        <time>2022-06-05T07:46:42Z</time>
      </trkpt>
      <trkpt lat="48.4563330" lon="7.9399000">
        <ele>-233.4</ele>
        <time>2022-06-05T07:46:46Z</time>
      </trkpt>
      <trkpt lat="48.4561680" lon="7.9399810">
        <ele>-233.4</ele>
        <time>2022-06-05T07:46:50Z</time>
      </trkpt>
      <trkpt lat="48.4559950" lon="7.9400560">
        <ele>-233.8</ele>
        <time>2022-06-05T07:46:54Z</time>
      </trkpt>
      <trkpt lat="48.4558160" lon="7.9401450">
        <ele>-233.6</ele>
        <time>2022-06-05T07:46:58Z</time>
      </trkpt>
      <trkpt lat="48.4556330" lon="7.9402350">
        <ele>-233.4</ele>
        <time>2022-06-05T07:47:02Z</time>
      </trkpt>
      <trkpt lat="48.4554510" lon="7.9403250">
        <ele>-233.0</ele>
        <time>2022-06-05T07:47:06Z</time>
      </trkpt>
      <trkpt lat="48.4552680" lon="7.9404150">
        <ele>-233.4</ele>
        <time>2022-06-05T07:47:10Z</time>
      </trkpt>
      <trkpt lat="48.4550900" lon="7.9405110">
        <ele>-233.2</ele>
        <time>2022-06-05T07:47:14Z</time>
      </trkpt>
      <trkpt lat="48.4549110" lon="7.9405980">
        <ele>-233.2</ele>
        <time>2022-06-05T07:47:18Z</time>
      </trkpt>
      <trkpt lat="48.4547280" lon="7.9406860">
        <ele>-233.4</ele>
        <time>2022-06-05T07:47:22Z</time>
      </trkpt>
      <trkpt lat="48.4545460" lon="7.9407730">
        <ele>-233.4</ele>
        <time>2022-06-05T07:47:26Z</time>
      </trkpt>
      <trkpt lat="48.4543700" lon="7.9408660">
        <ele>-233.4</ele>
        <time>2022-06-05T07:47:30Z</time>
      </trkpt>
      <trkpt lat="48.4541860" lon="7.9409480">
        <ele>-233.4</ele>
        <time>2022-06-05T07:47:34Z</time>
      </trkpt>
      <trkpt lat="48.4540030" lon="7.9410400">
        <ele>-233.2</ele>
        <time>2022-06-05T07:47:38Z</time>
      </trkpt>
      <trkpt lat="48.4538180" lon="7.9411280">
        <ele>-233.6</ele>
        <time>2022-06-05T07:47:42Z</time>
      </trkpt>
      <trkpt lat="48.4536330" lon="7.9412160">
        <ele>-234.2</ele>
        <time>2022-06-05T07:47:46Z</time>
      </trkpt>
      <trkpt lat="48.4534460" lon="7.9413010">
        <ele>-233.8</ele>
        <time>2022-06-05T07:47:50Z</time>
      </trkpt>
      <trkpt lat="48.4532600" lon="7.9413910">
        <ele>-234.0</ele>
        <time>2022-06-05T07:47:54Z</time>
      </trkpt>
      <trkpt lat="48.4530750" lon="7.9414830">
        <ele>-233.6</ele>
        <time>2022-06-05T07:47:58Z</time>
      </trkpt>
      <trkpt lat="48.4528900" lon="7.9415660">
        <ele>-233.4</ele>
        <time>2022-06-05T07:48:02Z</time>
      </trkpt>
      <trkpt lat="48.4527230" lon="7.9416530">
        <ele>-233.6</ele>
        <time>2022-06-05T07:48:06Z</time>
      </trkpt>
      <trkpt lat="48.4525530" lon="7.9417300">
        <ele>-233.6</ele>
        <time>2022-06-05T07:48:10Z</time>
      </trkpt>
      <trkpt lat="48.4523710" lon="7.9418180">
        <ele>-233.6</ele>
        <time>2022-06-05T07:48:14Z</time>
      </trkpt>
      <trkpt lat="48.4521860" lon="7.9419060">
        <ele>-233.4</ele>
        <time>2022-06-05T07:48:18Z</time>
      </trkpt>
      <trkpt lat="48.4519960" lon="7.9420000">
        <ele>-233.8</ele>
        <time>2022-06-05T07:48:22Z</time>
      </trkpt>
      <trkpt lat="48.4518010" lon="7.9421030">
        <ele>-233.6</ele>
        <time>2022-06-05T07:48:26Z</time>
      </trkpt>
      <trkpt lat="48.4516110" lon="7.9421930">
        <ele>-233.4</ele>
        <time>2022-06-05T07:48:30Z</time>
      </trkpt>
      <trkpt lat="48.4514160" lon="7.9422810">
        <ele>-233.4</ele>
        <time>2022-06-05T07:48:34Z</time>
      </trkpt>
      <trkpt lat="48.4512250" lon="7.9423800">
        <ele>-234.0</ele>
        <time>2022-06-05T07:48:38Z</time>
      </trkpt>
      <trkpt lat="48.4510350" lon="7.9424800">
        <ele>-234.0</ele>
        <time>2022-06-05T07:48:42Z</time>
      </trkpt>
      <trkpt lat="48.4508500" lon="7.9425780">
        <ele>-233.6</ele>
        <time>2022-06-05T07:48:46Z</time>
      </trkpt>
      <trkpt lat="48.4506630" lon="7.9426860">
        <ele>-233.2</ele>
        <time>2022-06-05T07:48:50Z</time>
      </trkpt>
      <trkpt lat="48.4504780" lon="7.9428110">
        <ele>-233.6</ele>
        <time>2022-06-05T07:48:54Z</time>
      </trkpt>
      <trkpt lat="48.4503060" lon="7.9429500">
        <ele>-233.6</ele>
        <time>2022-06-05T07:48:58Z</time>
      </trkpt>
      <trkpt lat="48.4501410" lon="7.9430880">
        <ele>-233.6</ele>
        <time>2022-06-05T07:49:02Z</time>
      </trkpt>
      <trkpt lat="48.4499810" lon="7.9432400">
        <ele>-233.6</ele>
        <time>2022-06-05T07:49:06Z</time>
      </trkpt>
      <trkpt lat="48.4498280" lon="7.9434050">
        <ele>-234.2</ele>
        <time>2022-06-05T07:49:10Z</time>
      </trkpt>
      <trkpt lat="48.4496850" lon="7.9435700">
        <ele>-233.8</ele>
        <time>2022-06-05T07:49:14Z</time>
      </trkpt>
      <trkpt lat="48.4495380" lon="7.9437430">
        <ele>-233.8</ele>
        <time>2022-06-05T07:49:18Z</time>
      </trkpt>
      <trkpt lat="48.4494010" lon="7.9439350">
        <ele>-234.0</ele>
        <time>2022-06-05T07:49:22Z</time>
      </trkpt>
      <trkpt lat="48.4492750" lon="7.9441210">
        <ele>-234.2</ele>
        <time>2022-06-05T07:49:26Z</time>
      </trkpt>
      <trkpt lat="48.4491530" lon="7.9443230">
        <ele>-234.0</ele>
        <time>2022-06-05T07:49:30Z</time>
      </trkpt>
      <trkpt lat="48.4490400" lon="7.9445280">
        <ele>-233.8</ele>
        <time>2022-06-05T07:49:34Z</time>
      </trkpt>
      <trkpt lat="48.4489230" lon="7.9447380">
        <ele>-234.0</ele>
        <time>2022-06-05T07:49:38Z</time>
      </trkpt>
      <trkpt lat="48.4488060" lon="7.9449630">
        <ele>-233.6</ele>
        <time>2022-06-05T07:49:42Z</time>
      </trkpt>
      <trkpt lat="48.4487000" lon="7.9452060">
        <ele>-233.8</ele>
        <time>2022-06-05T07:49:46Z</time>
      </trkpt>
      <trkpt lat="48.4485980" lon="7.9454510">
        <ele>-233.8</ele>
        <time>2022-06-05T07:49:50Z</time>
      </trkpt>
      <trkpt lat="48.4485100" lon="7.9457010">
        <ele>-233.4</ele>
        <time>2022-06-05T07:49:54Z</time>
      </trkpt>
      <trkpt lat="48.4484260" lon="7.9459610">
        <ele>-234.0</ele>
        <time>2022-06-05T07:49:58Z</time>
      </trkpt>
      <trkpt lat="48.4483500" lon="7.9462260">
        <ele>-233.4</ele>
        <time>2022-06-05T07:50:02Z</time>
      </trkpt>
      <trkpt lat="48.4482860" lon="7.9464960">
        <ele>-233.8</ele>
        <time>2022-06-05T07:50:06Z</time>
      </trkpt>
      <trkpt lat="48.4482130" lon="7.9467780">
        <ele>-234.0</ele>
        <time>2022-06-05T07:50:10Z</time>
      </trkpt>
      <trkpt lat="48.4481360" lon="7.9470500">
        <ele>-233.6</ele>
        <time>2022-06-05T07:50:14Z</time>
      </trkpt>
      <trkpt lat="48.4481630" lon="7.9472450">
        <ele>-232.4</ele>
        <time>2022-06-05T07:50:18Z</time>
      </trkpt>
      <trkpt lat="48.4482960" lon="7.9473210">
        <ele>-232.2</ele>
        <time>2022-06-05T07:50:22Z</time>
      </trkpt>
      <trkpt lat="48.4484360" lon="7.9474100">
        <ele>-231.8</ele>
        <time>2022-06-05T07:50:26Z</time>
      </trkpt>
      <trkpt lat="48.4485830" lon="7.9475030">
        <ele>-232.4</ele>
        <time>2022-06-05T07:50:30Z</time>
      </trkpt>
      <trkpt lat="48.4487350" lon="7.9476000">
        <ele>-231.8</ele>
        <time>2022-06-05T07:50:34Z</time>
      </trkpt>
      <trkpt lat="48.4488880" lon="7.9477150">
        <ele>-233.4</ele>
        <time>2022-06-05T07:50:38Z</time>
      </trkpt>
      <trkpt lat="48.4488560" lon="7.9479880">
        <ele>-234.0</ele>
        <time>2022-06-05T07:50:42Z</time>
      </trkpt>
      <trkpt lat="48.4488180" lon="7.9482630">
        <ele>-234.0</ele>
        <time>2022-06-05T07:50:46Z</time>
      </trkpt>
      <trkpt lat="48.4487880" lon="7.9485310">
        <ele>-233.6</ele>
        <time>2022-06-05T07:50:50Z</time>
      </trkpt>
      <trkpt lat="48.4487700" lon="7.9487760">
        <ele>-233.6</ele>
        <time>2022-06-05T07:50:54Z</time>
      </trkpt>
      <trkpt lat="48.4487550" lon="7.9490180">
        <ele>-234.0</ele>
        <time>2022-06-05T07:50:58Z</time>
      </trkpt>
      <trkpt lat="48.4487660" lon="7.9492660">
        <ele>-234.0</ele>
        <time>2022-06-05T07:51:02Z</time>
      </trkpt>
      <trkpt lat="48.4488050" lon="7.9495100">
        <ele>-234.0</ele>
        <time>2022-06-05T07:51:06Z</time>
      </trkpt>
      <trkpt lat="48.4488630" lon="7.9497350">
        <ele>-233.8</ele>
        <time>2022-06-05T07:51:10Z</time>
      </trkpt>
      <trkpt lat="48.4489260" lon="7.9499630">
        <ele>-233.8</ele>
        <time>2022-06-05T07:51:14Z</time>
      </trkpt>
      <trkpt lat="48.4490060" lon="7.9501700">
        <ele>-234.0</ele>
        <time>2022-06-05T07:51:18Z</time>
      </trkpt>
      <trkpt lat="48.4490480" lon="7.9503960">
        <ele>-233.8</ele>
        <time>2022-06-05T07:51:22Z</time>
      </trkpt>
      <trkpt lat="48.4490560" lon="7.9506480">
        <ele>-233.8</ele>
        <time>2022-06-05T07:51:26Z</time>
      </trkpt>
      <trkpt lat="48.4490880" lon="7.9508600">
        <ele>-233.8</ele>
        <time>2022-06-05T07:51:30Z</time>
      </trkpt>
      <trkpt lat="48.4491380" lon="7.9510450">
        <ele>-234.4</ele>
        <time>2022-06-05T07:51:34Z</time>
      </trkpt>
      <trkpt lat="48.4492060" lon="7.9512780">
        <ele>-234.4</ele>
        <time>2022-06-05T07:51:38Z</time>
      </trkpt>
      <trkpt lat="48.4493050" lon="7.9514930">
        <ele>-234.0</ele>
        <time>2022-06-05T07:51:42Z</time>
      </trkpt>
      <trkpt lat="48.4493760" lon="7.9516850">
        <ele>-233.8</ele>
        <time>2022-06-05T07:51:46Z</time>
      </trkpt>
      <trkpt lat="48.4494160" lon="7.9517110">
        <ele>-234.0</ele>
        <time>2022-06-05T07:51:50Z</time>
      </trkpt>
      <trkpt lat="48.4494160" lon="7.9517110">
        <ele>-234.4</ele>
        <time>2022-06-05T07:51:54Z</time>
      </trkpt>
      <trkpt lat="48.4493950" lon="7.9517310">
        <ele>-234.4</ele>
        <time>2022-06-05T07:51:58Z</time>
      </trkpt>
      <trkpt lat="48.4493730" lon="7.9516530">
        <ele>-234.8</ele>
        <time>2022-06-05T07:52:02Z</time>
      </trkpt>
      <trkpt lat="48.4493160" lon="7.9515210">
        <ele>-233.6</ele>
        <time>2022-06-05T07:52:06Z</time>
      </trkpt>
      <trkpt lat="48.4492480" lon="7.9513980">
        <ele>-233.6</ele>
        <time>2022-06-05T07:52:10Z</time>
      </trkpt>
      <trkpt lat="48.4491630" lon="7.9513400">
        <ele>-234.6</ele>
        <time>2022-06-05T07:52:14Z</time>
      </trkpt>
      <trkpt lat="48.4491300" lon="7.9515900">
        <ele>-236.6</ele>
        <time>2022-06-05T07:52:18Z</time>
      </trkpt>
      <trkpt lat="48.4491380" lon="7.9519160">
        <ele>-237.2</ele>
        <time>2022-06-05T07:52:22Z</time>
      </trkpt>
      <trkpt lat="48.4491480" lon="7.9522330">
        <ele>-236.0</ele>
        <time>2022-06-05T07:52:26Z</time>
      </trkpt>
      <trkpt lat="48.4491500" lon="7.9525410">
        <ele>-237.2</ele>
        <time>2022-06-05T07:52:30Z</time>
      </trkpt>
      <trkpt lat="48.4491400" lon="7.9528360">
        <ele>-236.6</ele>
        <time>2022-06-05T07:52:34Z</time>
      </trkpt>
      <trkpt lat="48.4491200" lon="7.9531230">
        <ele>-236.6</ele>
        <time>2022-06-05T07:52:38Z</time>
      </trkpt>
      <trkpt lat="48.4490900" lon="7.9534050">
        <ele>-236.4</ele>
        <time>2022-06-05T07:52:42Z</time>
      </trkpt>
      <trkpt lat="48.4490430" lon="7.9536730">
        <ele>-236.4</ele>
        <time>2022-06-05T07:52:46Z</time>
      </trkpt>
      <trkpt lat="48.4490080" lon="7.9539360">
        <ele>-236.4</ele>
        <time>2022-06-05T07:52:50Z</time>
      </trkpt>
      <trkpt lat="48.4489800" lon="7.9542000">
        <ele>-236.0</ele>
        <time>2022-06-05T07:52:54Z</time>
      </trkpt>
      <trkpt lat="48.4489700" lon="7.9544680">
        <ele>-236.0</ele>
        <time>2022-06-05T07:52:58Z</time>
      </trkpt>
      <trkpt lat="48.4489650" lon="7.9547280">
        <ele>-236.6</ele>
        <time>2022-06-05T07:53:02Z</time>
      </trkpt>
      <trkpt lat="48.4489650" lon="7.9549860">
        <ele>-236.8</ele>
        <time>2022-06-05T07:53:06Z</time>
      </trkpt>
      <trkpt lat="48.4490010" lon="7.9552350">
        <ele>-236.8</ele>
        <time>2022-06-05T07:53:10Z</time>
      </trkpt>
      <trkpt lat="48.4490330" lon="7.9554760">
        <ele>-235.8</ele>
        <time>2022-06-05T07:53:14Z</time>
      </trkpt>
      <trkpt lat="48.4489960" lon="7.9557380">
        <ele>-235.6</ele>
        <time>2022-06-05T07:53:18Z</time>
      </trkpt>
      <trkpt lat="48.4489510" lon="7.9560010">
        <ele>-236.0</ele>
        <time>2022-06-05T07:53:22Z</time>
      </trkpt>
      <trkpt lat="48.4489100" lon="7.9562600">
        <ele>-235.8</ele>
        <time>2022-06-05T07:53:26Z</time>
      </trkpt>
      <trkpt lat="48.4488760" lon="7.9565130">
        <ele>-235.6</ele>
        <time>2022-06-05T07:53:30Z</time>
      </trkpt>
      <trkpt lat="48.4488450" lon="7.9567100">
        <ele>-236.0</ele>
        <time>2022-06-05T07:53:34Z</time>
      </trkpt>
      <trkpt lat="48.4487660" lon="7.9568380">
        <ele>-236.4</ele>
        <time>2022-06-05T07:53:38Z</time>
      </trkpt>
      <trkpt lat="48.4487130" lon="7.9569410">
        <ele>-236.4</ele>
        <time>2022-06-05T07:53:42Z</time>
      </trkpt>
      <trkpt lat="48.4486950" lon="7.9570750">
        <ele>-235.8</ele>
        <time>2022-06-05T07:53:46Z</time>
      </trkpt>
      <trkpt lat="48.4486710" lon="7.9572250">
        <ele>-235.2</ele>
        <time>2022-06-05T07:53:50Z</time>
      </trkpt>
      <trkpt lat="48.4486480" lon="7.9573130">
        <ele>-234.6</ele>
        <time>2022-06-05T07:53:54Z</time>
      </trkpt>
      <trkpt lat="48.4486480" lon="7.9573130">
        <ele>-234.8</ele>
        <time>2022-06-05T07:53:58Z</time>
      </trkpt>
      <trkpt lat="48.4486480" lon="7.9573130">
        <ele>-234.6</ele>
        <time>2022-06-05T07:54:02Z</time>
      </trkpt>
      <trkpt lat="48.4486480" lon="7.9573130">
        <ele>-234.6</ele>
        <time>2022-06-05T07:54:06Z</time>
      </trkpt>
      <trkpt lat="48.4486450" lon="7.9573430">
        <ele>-234.4</ele>
        <time>2022-06-05T07:54:10Z</time>
      </trkpt>
      <trkpt lat="48.4486260" lon="7.9573950">
        <ele>-234.2</ele>
        <time>2022-06-05T07:54:14Z</time>
      </trkpt>
      <trkpt lat="48.4486210" lon="7.9574150">
        <ele>-234.0</ele>
        <time>2022-06-05T07:54:18Z</time>
      </trkpt>
      <trkpt lat="48.4485950" lon="7.9575260">
        <ele>-233.8</ele>
        <time>2022-06-05T07:54:22Z</time>
      </trkpt>
      <trkpt lat="48.4485500" lon="7.9577100">
        <ele>-234.0</ele>
        <time>2022-06-05T07:54:26Z</time>
      </trkpt>
      <trkpt lat="48.4484950" lon="7.9578850">
        <ele>-233.8</ele>
        <time>2022-06-05T07:54:30Z</time>
      </trkpt>
      <trkpt lat="48.4484950" lon="7.9578850">
        <ele>-233.6</ele>
        <time>2022-06-05T07:54:34Z</time>
      </trkpt>
      <trkpt lat="48.4484950" lon="7.9578850">
        <ele>-234.0</ele>
        <time>2022-06-05T07:54:38Z</time>
      </trkpt>
      <trkpt lat="48.4484950" lon="7.9578850">
        <ele>-234.0</ele>
        <time>2022-06-05T07:54:42Z</time>
      </trkpt>
      <trkpt lat="48.4484950" lon="7.9578850">
        <ele>-234.0</ele>
        <time>2022-06-05T07:54:46Z</time>
      </trkpt>
      <trkpt lat="48.4484950" lon="7.9578850">
        <ele>-234.0</ele>
        <time>2022-06-05T07:54:50Z</time>
      </trkpt>
      <trkpt lat="48.4484950" lon="7.9578850">
        <ele>-234.0</ele>
        <time>2022-06-05T07:54:54Z</time>
      </trkpt>
      <trkpt lat="48.4484750" lon="7.9579450">
        <ele>-234.0</ele>
        <time>2022-06-05T07:54:58Z</time>
      </trkpt>
      <trkpt lat="48.4484410" lon="7.9580730">
        <ele>-234.0</ele>
        <time>2022-06-05T07:55:02Z</time>
      </trkpt>
      <trkpt lat="48.4484010" lon="7.9582200">
        <ele>-234.0</ele>
        <time>2022-06-05T07:55:06Z</time>
      </trkpt>
      <trkpt lat="48.4483600" lon="7.9583380">
        <ele>-234.0</ele>
        <time>2022-06-05T07:55:10Z</time>
      </trkpt>
      <trkpt lat="48.4483000" lon="7.9584880">
        <ele>-233.8</ele>
        <time>2022-06-05T07:55:14Z</time>
      </trkpt>
      <trkpt lat="48.4482260" lon="7.9586860">
        <ele>-233.8</ele>
        <time>2022-06-05T07:55:18Z</time>
      </trkpt>
      <trkpt lat="48.4481450" lon="7.9588860">
        <ele>-233.8</ele>
        <time>2022-06-05T07:55:22Z</time>
      </trkpt>
      <trkpt lat="48.4480530" lon="7.9590930">
        <ele>-233.6</ele>
        <time>2022-06-05T07:55:26Z</time>
      </trkpt>
      <trkpt lat="48.4479530" lon="7.9592930">
        <ele>-233.8</ele>
        <time>2022-06-05T07:55:30Z</time>
      </trkpt>
      <trkpt lat="48.4478480" lon="7.9594750">
        <ele>-233.4</ele>
        <time>2022-06-05T07:55:34Z</time>
      </trkpt>
      <trkpt lat="48.4477380" lon="7.9596400">
        <ele>-233.0</ele>
        <time>2022-06-05T07:55:38Z</time>
      </trkpt>
      <trkpt lat="48.4476210" lon="7.9598050">
        <ele>-233.0</ele>
        <time>2022-06-05T07:55:42Z</time>
      </trkpt>
      <trkpt lat="48.4474960" lon="7.9599650">
        <ele>-233.0</ele>
        <time>2022-06-05T07:55:46Z</time>
      </trkpt>
      <trkpt lat="48.4473580" lon="7.9601210">
        <ele>-233.0</ele>
        <time>2022-06-05T07:55:50Z</time>
      </trkpt>
      <trkpt lat="48.4472230" lon="7.9602660">
        <ele>-233.2</ele>
        <time>2022-06-05T07:55:54Z</time>
      </trkpt>
      <trkpt lat="48.4470860" lon="7.9604110">
        <ele>-232.6</ele>
        <time>2022-06-05T07:55:58Z</time>
      </trkpt>
      <trkpt lat="48.4469430" lon="7.9605510">
        <ele>-232.8</ele>
        <time>2022-06-05T07:56:02Z</time>
      </trkpt>
      <trkpt lat="48.4467960" lon="7.9606860">
        <ele>-233.0</ele>
        <time>2022-06-05T07:56:06Z</time>
      </trkpt>
      <trkpt lat="48.4466480" lon="7.9608110">
        <ele>-232.8</ele>
        <time>2022-06-05T07:56:10Z</time>
      </trkpt>
      <trkpt lat="48.4464960" lon="7.9609310">
        <ele>-232.8</ele>
        <time>2022-06-05T07:56:14Z</time>
      </trkpt>
      <trkpt lat="48.4463430" lon="7.9610430">
        <ele>-232.6</ele>
        <time>2022-06-05T07:56:18Z</time>
      </trkpt>
      <trkpt lat="48.4461910" lon="7.9611550">
        <ele>-232.4</ele>
        <time>2022-06-05T07:56:22Z</time>
      </trkpt>
      <trkpt lat="48.4460450" lon="7.9612650">
        <ele>-232.4</ele>
        <time>2022-06-05T07:56:26Z</time>
      </trkpt>
      <trkpt lat="48.4458950" lon="7.9613730">
        <ele>-232.8</ele>
        <time>2022-06-05T07:56:30Z</time>
      </trkpt>
      <trkpt lat="48.4457360" lon="7.9614900">
        <ele>-232.8</ele>
        <time>2022-06-05T07:56:34Z</time>
      </trkpt>
      <trkpt lat="48.4455810" lon="7.9616050">
        <ele>-233.0</ele>
        <time>2022-06-05T07:56:38Z</time>
      </trkpt>
      <trkpt lat="48.4454480" lon="7.9617110">
        <ele>-233.0</ele>
        <time>2022-06-05T07:56:42Z</time>
      </trkpt>
      <trkpt lat="48.4453300" lon="7.9618080">
        <ele>-232.6</ele>
        <time>2022-06-05T07:56:46Z</time>
      </trkpt>
      <trkpt lat="48.4452500" lon="7.9619050">
        <ele>-230.6</ele>
        <time>2022-06-05T07:56:50Z</time>
      </trkpt>
      <trkpt lat="48.4452250" lon="7.9619880">
        <ele>-230.0</ele>
        <time>2022-06-05T07:56:54Z</time>
      </trkpt>
      <trkpt lat="48.4451710" lon="7.9620910">
        <ele>-230.0</ele>
        <time>2022-06-05T07:56:58Z</time>
      </trkpt>
      <trkpt lat="48.4451930" lon="7.9622830">
        <ele>-230.2</ele>
        <time>2022-06-05T07:57:02Z</time>
      </trkpt>
      <trkpt lat="48.4452580" lon="7.9624710">
        <ele>-229.8</ele>
        <time>2022-06-05T07:57:06Z</time>
      </trkpt>
      <trkpt lat="48.4453180" lon="7.9626580">
        <ele>-229.6</ele>
        <time>2022-06-05T07:57:10Z</time>
      </trkpt>
      <trkpt lat="48.4453810" lon="7.9628430">
        <ele>-229.4</ele>
        <time>2022-06-05T07:57:14Z</time>
      </trkpt>
      <trkpt lat="48.4454350" lon="7.9630350">
        <ele>-229.4</ele>
        <time>2022-06-05T07:57:18Z</time>
      </trkpt>
      <trkpt lat="48.4454950" lon="7.9632210">
        <ele>-229.0</ele>
        <time>2022-06-05T07:57:22Z</time>
      </trkpt>
      <trkpt lat="48.4455550" lon="7.9634100">
        <ele>-229.0</ele>
        <time>2022-06-05T07:57:26Z</time>
      </trkpt>
      <trkpt lat="48.4456050" lon="7.9635780">
        <ele>-229.0</ele>
        <time>2022-06-05T07:57:30Z</time>
      </trkpt>
      <trkpt lat="48.4456480" lon="7.9637150">
        <ele>-228.8</ele>
        <time>2022-06-05T07:57:34Z</time>
      </trkpt>
      <trkpt lat="48.4456880" lon="7.9638630">
        <ele>-228.6</ele>
        <time>2022-06-05T07:57:38Z</time>
      </trkpt>
      <trkpt lat="48.4457200" lon="7.9639930">
        <ele>-228.4</ele>
        <time>2022-06-05T07:57:42Z</time>
      </trkpt>
      <trkpt lat="48.4457260" lon="7.9641400">
        <ele>-228.4</ele>
        <time>2022-06-05T07:57:46Z</time>
      </trkpt>
      <trkpt lat="48.4457180" lon="7.9643300">
        <ele>-229.0</ele>
        <time>2022-06-05T07:57:50Z</time>
      </trkpt>
      <trkpt lat="48.4457960" lon="7.9644610">
        <ele>-228.6</ele>
        <time>2022-06-05T07:57:54Z</time>
      </trkpt>
      <trkpt lat="48.4459030" lon="7.9646150">
        <ele>-228.8</ele>
        <time>2022-06-05T07:57:58Z</time>
      </trkpt>
      <trkpt lat="48.4460010" lon="7.9647930">
        <ele>-228.6</ele>
        <time>2022-06-05T07:58:02Z</time>
      </trkpt>
      <trkpt lat="48.4460900" lon="7.9649850">
        <ele>-228.4</ele>
        <time>2022-06-05T07:58:06Z</time>
      </trkpt>
      <trkpt lat="48.4461860" lon="7.9651830">
        <ele>-228.0</ele>
        <time>2022-06-05T07:58:10Z</time>
      </trkpt>
      <trkpt lat="48.4462880" lon="7.9653710">
        <ele>-228.0</ele>
        <time>2022-06-05T07:58:14Z</time>
      </trkpt>
      <trkpt lat="48.4463860" lon="7.9655530">
        <ele>-228.0</ele>
        <time>2022-06-05T07:58:18Z</time>
      </trkpt>
      <trkpt lat="48.4464880" lon="7.9657400">
        <ele>-227.6</ele>
        <time>2022-06-05T07:58:22Z</time>
      </trkpt>
      <trkpt lat="48.4465810" lon="7.9659300">
        <ele>-228.6</ele>
        <time>2022-06-05T07:58:26Z</time>
      </trkpt>
      <trkpt lat="48.4466200" lon="7.9661560">
        <ele>-229.4</ele>
        <time>2022-06-05T07:58:30Z</time>
      </trkpt>
      <trkpt lat="48.4465410" lon="7.9664210">
        <ele>-230.0</ele>
        <time>2022-06-05T07:58:34Z</time>
      </trkpt>
      <trkpt lat="48.4465460" lon="7.9667680">
        <ele>-231.2</ele>
        <time>2022-06-05T07:58:38Z</time>
      </trkpt>
      <trkpt lat="48.4466160" lon="7.9671300">
        <ele>-233.0</ele>
        <time>2022-06-05T07:58:42Z</time>
      </trkpt>
      <trkpt lat="48.4466910" lon="7.9675060">
        <ele>-234.0</ele>
        <time>2022-06-05T07:58:46Z</time>
      </trkpt>
      <trkpt lat="48.4467680" lon="7.9678210">
        <ele>-235.2</ele>
        <time>2022-06-05T07:58:50Z</time>
      </trkpt>
      <trkpt lat="48.4468150" lon="7.9680610">
        <ele>-235.2</ele>
        <time>2022-06-05T07:58:54Z</time>
      </trkpt>
      <trkpt lat="48.4468030" lon="7.9682080">
        <ele>-235.8</ele>
        <time>2022-06-05T07:58:58Z</time>
      </trkpt>
      <trkpt lat="48.4468730" lon="7.9682800">
        <ele>-236.0</ele>
        <time>2022-06-05T07:59:02Z</time>
      </trkpt>
      <trkpt lat="48.4468810" lon="7.9683310">
        <ele>-235.2</ele>
        <time>2022-06-05T07:59:06Z</time>
      </trkpt>
      <trkpt lat="48.4468930" lon="7.9683660">
        <ele>-234.6</ele>
        <time>2022-06-05T07:59:10Z</time>
      </trkpt>
      <trkpt lat="48.4469110" lon="7.9684350">
        <ele>-234.6</ele>
        <time>2022-06-05T07:59:14Z</time>
      </trkpt>
      <trkpt lat="48.4469430" lon="7.9685480">
        <ele>-234.6</ele>
        <time>2022-06-05T07:59:18Z</time>
      </trkpt>
      <trkpt lat="48.4469830" lon="7.9687250">
        <ele>-234.6</ele>
        <time>2022-06-05T07:59:22Z</time>
      </trkpt>
      <trkpt lat="48.4470230" lon="7.9689330">
        <ele>-235.0</ele>
        <time>2022-06-05T07:59:26Z</time>
      </trkpt>
      <trkpt lat="48.4470630" lon="7.9691810">
        <ele>-235.0</ele>
        <time>2022-06-05T07:59:30Z</time>
      </trkpt>
      <trkpt lat="48.4470810" lon="7.9694700">
        <ele>-236.0</ele>
        <time>2022-06-05T07:59:34Z</time>
      </trkpt>
      <trkpt lat="48.4471180" lon="7.9697380">
        <ele>-235.8</ele>
        <time>2022-06-05T07:59:38Z</time>
      </trkpt>
      <trkpt lat="48.4471510" lon="7.9699910">
        <ele>-235.2</ele>
        <time>2022-06-05T07:59:42Z</time>
      </trkpt>
      <trkpt lat="48.4472050" lon="7.9702210">
        <ele>-235.4</ele>
        <time>2022-06-05T07:59:46Z</time>
      </trkpt>
      <trkpt lat="48.4472310" lon="7.9704500">
        <ele>-235.2</ele>
        <time>2022-06-05T07:59:50Z</time>
      </trkpt>
      <trkpt lat="48.4472360" lon="7.9706200">
        <ele>-235.2</ele>
        <time>2022-06-05T07:59:54Z</time>
      </trkpt>
      <trkpt lat="48.4472460" lon="7.9707910">
        <ele>-234.4</ele>
        <time>2022-06-05T07:59:58Z</time>
      </trkpt>
      <trkpt lat="48.4472460" lon="7.9709800">
        <ele>-233.4</ele>
        <time>2022-06-05T08:00:02Z</time>
      </trkpt>
      <trkpt lat="48.4472860" lon="7.9711160">
        <ele>-233.4</ele>
        <time>2022-06-05T08:00:06Z</time>
      </trkpt>
      <trkpt lat="48.4472110" lon="7.9712700">
        <ele>-233.4</ele>
        <time>2022-06-05T08:00:10Z</time>
      </trkpt>
      <trkpt lat="48.4470610" lon="7.9713050">
        <ele>-233.6</ele>
        <time>2022-06-05T08:00:14Z</time>
      </trkpt>
      <trkpt lat="48.4469100" lon="7.9713030">
        <ele>-234.0</ele>
        <time>2022-06-05T08:00:18Z</time>
      </trkpt>
      <trkpt lat="48.4467650" lon="7.9712680">
        <ele>-233.6</ele>
        <time>2022-06-05T08:00:22Z</time>
      </trkpt>
      <trkpt lat="48.4466050" lon="7.9712410">
        <ele>-234.0</ele>
        <time>2022-06-05T08:00:26Z</time>
      </trkpt>
      <trkpt lat="48.4464510" lon="7.9712260">
        <ele>-233.0</ele>
        <time>2022-06-05T08:00:30Z</time>
      </trkpt>
      <trkpt lat="48.4463230" lon="7.9713360">
        <ele>-233.4</ele>
        <time>2022-06-05T08:00:34Z</time>
      </trkpt>
      <trkpt lat="48.4461910" lon="7.9714800">
        <ele>-234.0</ele>
        <time>2022-06-05T08:00:38Z</time>
      </trkpt>
      <trkpt lat="48.4460910" lon="7.9716500">
        <ele>-234.8</ele>
        <time>2022-06-05T08:00:42Z</time>
      </trkpt>
      <trkpt lat="48.4459460" lon="7.9718200">
        <ele>-234.6</ele>
        <time>2022-06-05T08:00:46Z</time>
      </trkpt>
      <trkpt lat="48.4457960" lon="7.9719980">
        <ele>-233.4</ele>
        <time>2022-06-05T08:00:50Z</time>
      </trkpt>
      <trkpt lat="48.4456430" lon="7.9721430">
        <ele>-233.4</ele>
        <time>2022-06-05T08:00:54Z</time>
      </trkpt>
      <trkpt lat="48.4454930" lon="7.9722210">
        <ele>-233.0</ele>
        <time>2022-06-05T08:00:58Z</time>
      </trkpt>
      <trkpt lat="48.4453460" lon="7.9722710">
        <ele>-233.0</ele>
        <time>2022-06-05T08:01:02Z</time>
      </trkpt>
      <trkpt lat="48.4452230" lon="7.9723000">
        <ele>-232.4</ele>
        <time>2022-06-05T08:01:06Z</time>
      </trkpt>
      <trkpt lat="48.4451160" lon="7.9722080">
        <ele>-232.6</ele>
        <time>2022-06-05T08:01:10Z</time>
      </trkpt>
      <trkpt lat="48.4449980" lon="7.9720410">
        <ele>-233.0</ele>
        <time>2022-06-05T08:01:14Z</time>
      </trkpt>
      <trkpt lat="48.4448660" lon="7.9718530">
        <ele>-233.6</ele>
        <time>2022-06-05T08:01:18Z</time>
      </trkpt>
      <trkpt lat="48.4447260" lon="7.9716350">
        <ele>-234.8</ele>
        <time>2022-06-05T08:01:22Z</time>
      </trkpt>
      <trkpt lat="48.4445830" lon="7.9714010">
        <ele>-235.2</ele>
        <time>2022-06-05T08:01:26Z</time>
      </trkpt>
      <trkpt lat="48.4444510" lon="7.9711800">
        <ele>-235.0</ele>
        <time>2022-06-05T08:01:30Z</time>
      </trkpt>
      <trkpt lat="48.4442460" lon="7.9710950">
        <ele>-235.8</ele>
        <time>2022-06-05T08:01:34Z</time>
      </trkpt>
      <trkpt lat="48.4440360" lon="7.9711360">
        <ele>-234.6</ele>
        <time>2022-06-05T08:01:38Z</time>
      </trkpt>
      <trkpt lat="48.4438400" lon="7.9711960">
        <ele>-234.6</ele>
        <time>2022-06-05T08:01:42Z</time>
      </trkpt>
      <trkpt lat="48.4436610" lon="7.9712950">
        <ele>-234.2</ele>
        <time>2022-06-05T08:01:46Z</time>
      </trkpt>
      <trkpt lat="48.4434910" lon="7.9713930">
        <ele>-234.4</ele>
        <time>2022-06-05T08:01:50Z</time>
      </trkpt>
      <trkpt lat="48.4433600" lon="7.9712800">
        <ele>-235.2</ele>
        <time>2022-06-05T08:01:54Z</time>
      </trkpt>
      <trkpt lat="48.4433430" lon="7.9709960">
        <ele>-234.8</ele>
        <time>2022-06-05T08:01:58Z</time>
      </trkpt>
      <trkpt lat="48.4433200" lon="7.9706910">
        <ele>-235.2</ele>
        <time>2022-06-05T08:02:02Z</time>
      </trkpt>
      <trkpt lat="48.4432600" lon="7.9704060">
        <ele>-235.4</ele>
        <time>2022-06-05T08:02:06Z</time>
      </trkpt>
      <trkpt lat="48.4431800" lon="7.9701450">
        <ele>-235.6</ele>
        <time>2022-06-05T08:02:10Z</time>
      </trkpt>
      <trkpt lat="48.4431050" lon="7.9699180">
        <ele>-235.2</ele>
        <time>2022-06-05T08:02:14Z</time>
      </trkpt>
      <trkpt lat="48.4430550" lon="7.9696850">
        <ele>-235.4</ele>
        <time>2022-06-05T08:02:18Z</time>
      </trkpt>
      <trkpt lat="48.4429430" lon="7.9695580">
        <ele>-235.0</ele>
        <time>2022-06-05T08:02:22Z</time>
      </trkpt>
      <trkpt lat="48.4427980" lon="7.9696010">
        <ele>-235.4</ele>
        <time>2022-06-05T08:02:26Z</time>
      </trkpt>
      <trkpt lat="48.4426550" lon="7.9697210">
        <ele>-235.2</ele>
        <time>2022-06-05T08:02:30Z</time>
      </trkpt>
      <trkpt lat="48.4424910" lon="7.9698380">
        <ele>-235.2</ele>
        <time>2022-06-05T08:02:34Z</time>
      </trkpt>
      <trkpt lat="48.4423160" lon="7.9699430">
        <ele>-235.2</ele>
        <time>2022-06-05T08:02:38Z</time>
      </trkpt>
      <trkpt lat="48.4421480" lon="7.9700480">
        <ele>-234.8</ele>
        <time>2022-06-05T08:02:42Z</time>
      </trkpt>
      <trkpt lat="48.4419730" lon="7.9701460">
        <ele>-234.4</ele>
        <time>2022-06-05T08:02:46Z</time>
      </trkpt>
      <trkpt lat="48.4417980" lon="7.9702350">
        <ele>-234.6</ele>
        <time>2022-06-05T08:02:50Z</time>
      </trkpt>
      <trkpt lat="48.4416180" lon="7.9703230">
        <ele>-233.8</ele>
        <time>2022-06-05T08:02:54Z</time>
      </trkpt>
      <trkpt lat="48.4414330" lon="7.9704110">
        <ele>-234.4</ele>
        <time>2022-06-05T08:02:58Z</time>
      </trkpt>
      <trkpt lat="48.4412450" lon="7.9705080">
        <ele>-234.0</ele>
        <time>2022-06-05T08:03:02Z</time>
      </trkpt>
      <trkpt lat="48.4410500" lon="7.9706000">
        <ele>-234.0</ele>
        <time>2022-06-05T08:03:06Z</time>
      </trkpt>
      <trkpt lat="48.4408510" lon="7.9706950">
        <ele>-234.2</ele>
        <time>2022-06-05T08:03:10Z</time>
      </trkpt>
      <trkpt lat="48.4406480" lon="7.9707710">
        <ele>-234.0</ele>
        <time>2022-06-05T08:03:14Z</time>
      </trkpt>
      <trkpt lat="48.4404480" lon="7.9708480">
        <ele>-234.6</ele>
        <time>2022-06-05T08:03:18Z</time>
      </trkpt>
      <trkpt lat="48.4402530" lon="7.9709180">
        <ele>-233.8</ele>
        <time>2022-06-05T08:03:22Z</time>
      </trkpt>
      <trkpt lat="48.4400650" lon="7.9710260">
        <ele>-233.8</ele>
        <time>2022-06-05T08:03:26Z</time>
      </trkpt>
      <trkpt lat="48.4398860" lon="7.9711660">
        <ele>-233.4</ele>
        <time>2022-06-05T08:03:30Z</time>
      </trkpt>
      <trkpt lat="48.4397060" lon="7.9713050">
        <ele>-233.8</ele>
        <time>2022-06-05T08:03:34Z</time>
      </trkpt>
      <trkpt lat="48.4395280" lon="7.9714480">
        <ele>-233.6</ele>
        <time>2022-06-05T08:03:38Z</time>
      </trkpt>
      <trkpt lat="48.4393460" lon="7.9715950">
        <ele>-232.8</ele>
        <time>2022-06-05T08:03:42Z</time>
      </trkpt>
      <trkpt lat="48.4391610" lon="7.9717380">
        <ele>-233.4</ele>
        <time>2022-06-05T08:03:46Z</time>
      </trkpt>
      <trkpt lat="48.4389800" lon="7.9718830">
        <ele>-233.0</ele>
        <time>2022-06-05T08:03:50Z</time>
      </trkpt>
      <trkpt lat="48.4388030" lon="7.9720280">
        <ele>-233.0</ele>
        <time>2022-06-05T08:03:54Z</time>
      </trkpt>
      <trkpt lat="48.4386280" lon="7.9721800">
        <ele>-233.0</ele>
        <time>2022-06-05T08:03:58Z</time>
      </trkpt>
      <trkpt lat="48.4384530" lon="7.9723430">
        <ele>-233.4</ele>
        <time>2022-06-05T08:04:02Z</time>
      </trkpt>
      <trkpt lat="48.4382850" lon="7.9725110">
        <ele>-233.0</ele>
        <time>2022-06-05T08:04:06Z</time>
      </trkpt>
      <trkpt lat="48.4381180" lon="7.9726810">
        <ele>-232.8</ele>
        <time>2022-06-05T08:04:10Z</time>
      </trkpt>
      <trkpt lat="48.4379500" lon="7.9728410">
        <ele>-233.0</ele>
        <time>2022-06-05T08:04:14Z</time>
      </trkpt>
      <trkpt lat="48.4377750" lon="7.9729980">
        <ele>-233.0</ele>
        <time>2022-06-05T08:04:18Z</time>
      </trkpt>
      <trkpt lat="48.4376080" lon="7.9731760">
        <ele>-232.6</ele>
        <time>2022-06-05T08:04:22Z</time>
      </trkpt>
      <trkpt lat="48.4374360" lon="7.9733430">
        <ele>-233.2</ele>
        <time>2022-06-05T08:04:26Z</time>
      </trkpt>
      <trkpt lat="48.4372680" lon="7.9735160">
        <ele>-232.8</ele>
        <time>2022-06-05T08:04:30Z</time>
      </trkpt>
      <trkpt lat="48.4370980" lon="7.9736860">
        <ele>-232.4</ele>
        <time>2022-06-05T08:04:34Z</time>
      </trkpt>
      <trkpt lat="48.4369280" lon="7.9738580">
        <ele>-232.4</ele>
        <time>2022-06-05T08:04:38Z</time>
      </trkpt>
      <trkpt lat="48.4367560" lon="7.9740300">
        <ele>-232.4</ele>
        <time>2022-06-05T08:04:42Z</time>
      </trkpt>
      <trkpt lat="48.4365830" lon="7.9741980">
        <ele>-232.2</ele>
        <time>2022-06-05T08:04:46Z</time>
      </trkpt>
      <trkpt lat="48.4364030" lon="7.9743580">
        <ele>-232.2</ele>
        <time>2022-06-05T08:04:50Z</time>
      </trkpt>
      <trkpt lat="48.4362250" lon="7.9745230">
        <ele>-232.4</ele>
        <time>2022-06-05T08:04:54Z</time>
      </trkpt>
      <trkpt lat="48.4360430" lon="7.9746830">
        <ele>-232.2</ele>
        <time>2022-06-05T08:04:58Z</time>
      </trkpt>
      <trkpt lat="48.4358610" lon="7.9748400">
        <ele>-232.2</ele>
        <time>2022-06-05T08:05:02Z</time>
      </trkpt>
      <trkpt lat="48.4356850" lon="7.9750010">
        <ele>-231.8</ele>
        <time>2022-06-05T08:05:06Z</time>
      </trkpt>
      <trkpt lat="48.4355130" lon="7.9751880">
        <ele>-232.0</ele>
        <time>2022-06-05T08:05:10Z</time>
      </trkpt>
      <trkpt lat="48.4353560" lon="7.9754030">
        <ele>-231.2</ele>
        <time>2022-06-05T08:05:14Z</time>
      </trkpt>
      <trkpt lat="48.4352460" lon="7.9756300">
        <ele>-231.0</ele>
        <time>2022-06-05T08:05:18Z</time>
      </trkpt>
      <trkpt lat="48.4350750" lon="7.9757710">
        <ele>-231.6</ele>
        <time>2022-06-05T08:05:22Z</time>
      </trkpt>
      <trkpt lat="48.4348680" lon="7.9759060">
        <ele>-232.2</ele>
        <time>2022-06-05T08:05:26Z</time>
      </trkpt>
      <trkpt lat="48.4346700" lon="7.9760700">
        <ele>-232.4</ele>
        <time>2022-06-05T08:05:30Z</time>
      </trkpt>
      <trkpt lat="48.4344750" lon="7.9762430">
        <ele>-231.6</ele>
        <time>2022-06-05T08:05:34Z</time>
      </trkpt>
      <trkpt lat="48.4342850" lon="7.9764230">
        <ele>-231.8</ele>
        <time>2022-06-05T08:05:38Z</time>
      </trkpt>
      <trkpt lat="48.4340930" lon="7.9765850">
        <ele>-232.8</ele>
        <time>2022-06-05T08:05:42Z</time>
      </trkpt>
      <trkpt lat="48.4338900" lon="7.9766980">
        <ele>-232.6</ele>
        <time>2022-06-05T08:05:46Z</time>
      </trkpt>
      <trkpt lat="48.4336810" lon="7.9768110">
        <ele>-232.4</ele>
        <time>2022-06-05T08:05:50Z</time>
      </trkpt>
      <trkpt lat="48.4334650" lon="7.9769400">
        <ele>-232.8</ele>
        <time>2022-06-05T08:05:54Z</time>
      </trkpt>
      <trkpt lat="48.4332500" lon="7.9770610">
        <ele>-232.4</ele>
        <time>2022-06-05T08:05:58Z</time>
      </trkpt>
      <trkpt lat="48.4330480" lon="7.9771830">
        <ele>-231.6</ele>
        <time>2022-06-05T08:06:02Z</time>
      </trkpt>
      <trkpt lat="48.4328530" lon="7.9773080">
        <ele>-232.0</ele>
        <time>2022-06-05T08:06:06Z</time>
      </trkpt>
      <trkpt lat="48.4326550" lon="7.9774530">
        <ele>-231.2</ele>
        <time>2022-06-05T08:06:10Z</time>
      </trkpt>
      <trkpt lat="48.4324580" lon="7.9775960">
        <ele>-231.8</ele>
        <time>2022-06-05T08:06:14Z</time>
      </trkpt>
      <trkpt lat="48.4322560" lon="7.9777250">
        <ele>-231.2</ele>
        <time>2022-06-05T08:06:18Z</time>
      </trkpt>
      <trkpt lat="48.4320600" lon="7.9778550">
        <ele>-231.4</ele>
        <time>2022-06-05T08:06:22Z</time>
      </trkpt>
      <trkpt lat="48.4318650" lon="7.9779910">
        <ele>-231.6</ele>
        <time>2022-06-05T08:06:26Z</time>
      </trkpt>
      <trkpt lat="48.4316700" lon="7.9781280">
        <ele>-231.4</ele>
        <time>2022-06-05T08:06:30Z</time>
      </trkpt>
      <trkpt lat="48.4314900" lon="7.9782600">
        <ele>-231.0</ele>
        <time>2022-06-05T08:06:34Z</time>
      </trkpt>
      <trkpt lat="48.4313180" lon="7.9784050">
        <ele>-231.2</ele>
        <time>2022-06-05T08:06:38Z</time>
      </trkpt>
      <trkpt lat="48.4311400" lon="7.9785600">
        <ele>-230.8</ele>
        <time>2022-06-05T08:06:42Z</time>
      </trkpt>
      <trkpt lat="48.4309660" lon="7.9787160">
        <ele>-230.6</ele>
        <time>2022-06-05T08:06:46Z</time>
      </trkpt>
      <trkpt lat="48.4308280" lon="7.9789160">
        <ele>-231.0</ele>
        <time>2022-06-05T08:06:50Z</time>
      </trkpt>
      <trkpt lat="48.4307130" lon="7.9791010">
        <ele>-230.4</ele>
        <time>2022-06-05T08:06:54Z</time>
      </trkpt>
      <trkpt lat="48.4305900" lon="7.9791200">
        <ele>-230.0</ele>
        <time>2022-06-05T08:06:58Z</time>
      </trkpt>
      <trkpt lat="48.4305130" lon="7.9789380">
        <ele>-229.8</ele>
        <time>2022-06-05T08:07:02Z</time>
      </trkpt>
      <trkpt lat="48.4304150" lon="7.9787610">
        <ele>-229.8</ele>
        <time>2022-06-05T08:07:06Z</time>
      </trkpt>
      <trkpt lat="48.4302830" lon="7.9785080">
        <ele>-231.2</ele>
        <time>2022-06-05T08:07:10Z</time>
      </trkpt>
      <trkpt lat="48.4301330" lon="7.9782550">
        <ele>-231.2</ele>
        <time>2022-06-05T08:07:14Z</time>
      </trkpt>
      <trkpt lat="48.4299900" lon="7.9780280">
        <ele>-231.6</ele>
        <time>2022-06-05T08:07:18Z</time>
      </trkpt>
      <trkpt lat="48.4298680" lon="7.9778110">
        <ele>-231.2</ele>
        <time>2022-06-05T08:07:22Z</time>
      </trkpt>
      <trkpt lat="48.4297500" lon="7.9775880">
        <ele>-231.0</ele>
        <time>2022-06-05T08:07:26Z</time>
      </trkpt>
      <trkpt lat="48.4296060" lon="7.9774180">
        <ele>-231.2</ele>
        <time>2022-06-05T08:07:30Z</time>
      </trkpt>
      <trkpt lat="48.4294330" lon="7.9775300">
        <ele>-231.4</ele>
        <time>2022-06-05T08:07:34Z</time>
      </trkpt>
      <trkpt lat="48.4292780" lon="7.9777210">
        <ele>-231.0</ele>
        <time>2022-06-05T08:07:38Z</time>
      </trkpt>
      <trkpt lat="48.4291100" lon="7.9779280">
        <ele>-231.2</ele>
        <time>2022-06-05T08:07:42Z</time>
      </trkpt>
      <trkpt lat="48.4289410" lon="7.9781400">
        <ele>-231.8</ele>
        <time>2022-06-05T08:07:46Z</time>
      </trkpt>
      <trkpt lat="48.4287630" lon="7.9783180">
        <ele>-231.6</ele>
        <time>2022-06-05T08:07:50Z</time>
      </trkpt>
      <trkpt lat="48.4285560" lon="7.9783980">
        <ele>-231.2</ele>
        <time>2022-06-05T08:07:54Z</time>
      </trkpt>
      <trkpt lat="48.4283550" lon="7.9784580">
        <ele>-231.0</ele>
        <time>2022-06-05T08:07:58Z</time>
      </trkpt>
      <trkpt lat="48.4281560" lon="7.9785180">
        <ele>-230.8</ele>
        <time>2022-06-05T08:08:02Z</time>
      </trkpt>
      <trkpt lat="48.4279580" lon="7.9785830">
        <ele>-231.0</ele>
        <time>2022-06-05T08:08:06Z</time>
      </trkpt>
      <trkpt lat="48.4277560" lon="7.9786360">
        <ele>-231.0</ele>
        <time>2022-06-05T08:08:10Z</time>
      </trkpt>
      <trkpt lat="48.4275600" lon="7.9787000">
        <ele>-230.6</ele>
        <time>2022-06-05T08:08:14Z</time>
      </trkpt>
      <trkpt lat="48.4273780" lon="7.9788060">
        <ele>-230.4</ele>
        <time>2022-06-05T08:08:18Z</time>
      </trkpt>
      <trkpt lat="48.4272100" lon="7.9789700">
        <ele>-230.8</ele>
        <time>2022-06-05T08:08:22Z</time>
      </trkpt>
      <trkpt lat="48.4270480" lon="7.9791560">
        <ele>-230.4</ele>
        <time>2022-06-05T08:08:26Z</time>
      </trkpt>
      <trkpt lat="48.4268930" lon="7.9793580">
        <ele>-230.8</ele>
        <time>2022-06-05T08:08:30Z</time>
      </trkpt>
      <trkpt lat="48.4267480" lon="7.9795560">
        <ele>-231.2</ele>
        <time>2022-06-05T08:08:34Z</time>
      </trkpt>
      <trkpt lat="48.4266050" lon="7.9797310">
        <ele>-230.6</ele>
        <time>2022-06-05T08:08:38Z</time>
      </trkpt>
      <trkpt lat="48.4264710" lon="7.9798880">
        <ele>-230.6</ele>
        <time>2022-06-05T08:08:42Z</time>
      </trkpt>
      <trkpt lat="48.4263380" lon="7.9800560">
        <ele>-230.6</ele>
        <time>2022-06-05T08:08:46Z</time>
      </trkpt>
      <trkpt lat="48.4261960" lon="7.9802200">
        <ele>-230.2</ele>
        <time>2022-06-05T08:08:50Z</time>
      </trkpt>
      <trkpt lat="48.4260560" lon="7.9804000">
        <ele>-229.8</ele>
        <time>2022-06-05T08:08:54Z</time>
      </trkpt>
      <trkpt lat="48.4259200" lon="7.9805950">
        <ele>-230.0</ele>
        <time>2022-06-05T08:08:58Z</time>
      </trkpt>
      <trkpt lat="48.4258250" lon="7.9808430">
        <ele>-230.6</ele>
        <time>2022-06-05T08:09:02Z</time>
      </trkpt>
      <trkpt lat="48.4257280" lon="7.9811030">
        <ele>-230.4</ele>
        <time>2022-06-05T08:09:06Z</time>
      </trkpt>
      <trkpt lat="48.4256180" lon="7.9813380">
        <ele>-230.0</ele>
        <time>2022-06-05T08:09:10Z</time>
      </trkpt>
      <trkpt lat="48.4254880" lon="7.9815360">
        <ele>-230.6</ele>
        <time>2022-06-05T08:09:14Z</time>
      </trkpt>
      <trkpt lat="48.4253380" lon="7.9817180">
        <ele>-230.2</ele>
        <time>2022-06-05T08:09:18Z</time>
      </trkpt>
      <trkpt lat="48.4251850" lon="7.9818830">
        <ele>-230.6</ele>
        <time>2022-06-05T08:09:22Z</time>
      </trkpt>
      <trkpt lat="48.4250260" lon="7.9820380">
        <ele>-230.0</ele>
        <time>2022-06-05T08:09:26Z</time>
      </trkpt>
      <trkpt lat="48.4248650" lon="7.9821850">
        <ele>-229.8</ele>
        <time>2022-06-05T08:09:30Z</time>
      </trkpt>
      <trkpt lat="48.4247060" lon="7.9823360">
        <ele>-229.8</ele>
        <time>2022-06-05T08:09:34Z</time>
      </trkpt>
      <trkpt lat="48.4245450" lon="7.9824860">
        <ele>-229.8</ele>
        <time>2022-06-05T08:09:38Z</time>
      </trkpt>
      <trkpt lat="48.4243780" lon="7.9826400">
        <ele>-229.8</ele>
        <time>2022-06-05T08:09:42Z</time>
      </trkpt>
      <trkpt lat="48.4242160" lon="7.9827830">
        <ele>-229.6</ele>
        <time>2022-06-05T08:09:46Z</time>
      </trkpt>
      <trkpt lat="48.4240580" lon="7.9829330">
        <ele>-230.0</ele>
        <time>2022-06-05T08:09:50Z</time>
      </trkpt>
      <trkpt lat="48.4238880" lon="7.9830700">
        <ele>-229.6</ele>
        <time>2022-06-05T08:09:54Z</time>
      </trkpt>
      <trkpt lat="48.4237030" lon="7.9831250">
        <ele>-230.0</ele>
        <time>2022-06-05T08:09:58Z</time>
      </trkpt>
      <trkpt lat="48.4235210" lon="7.9830800">
        <ele>-229.8</ele>
        <time>2022-06-05T08:10:02Z</time>
      </trkpt>
      <trkpt lat="48.4233360" lon="7.9830460">
        <ele>-230.2</ele>
        <time>2022-06-05T08:10:06Z</time>
      </trkpt>
      <trkpt lat="48.4231510" lon="7.9830080">
        <ele>-230.8</ele>
        <time>2022-06-05T08:10:10Z</time>
      </trkpt>
      <trkpt lat="48.4229610" lon="7.9829300">
        <ele>-230.4</ele>
        <time>2022-06-05T08:10:14Z</time>
      </trkpt>
      <trkpt lat="48.4227650" lon="7.9828550">
        <ele>-230.6</ele>
        <time>2022-06-05T08:10:18Z</time>
      </trkpt>
      <trkpt lat="48.4225910" lon="7.9830100">
        <ele>-229.8</ele>
        <time>2022-06-05T08:10:22Z</time>
      </trkpt>
      <trkpt lat="48.4224450" lon="7.9832060">
        <ele>-230.2</ele>
        <time>2022-06-05T08:10:26Z</time>
      </trkpt>
      <trkpt lat="48.4222950" lon="7.9833950">
        <ele>-230.0</ele>
        <time>2022-06-05T08:10:30Z</time>
      </trkpt>
      <trkpt lat="48.4221530" lon="7.9836010">
        <ele>-229.8</ele>
        <time>2022-06-05T08:10:34Z</time>
      </trkpt>
      <trkpt lat="48.4220500" lon="7.9838550">
        <ele>-230.4</ele>
        <time>2022-06-05T08:10:38Z</time>
      </trkpt>
      <trkpt lat="48.4219560" lon="7.9840900">
        <ele>-230.4</ele>
        <time>2022-06-05T08:10:42Z</time>
      </trkpt>
      <trkpt lat="48.4218710" lon="7.9843280">
        <ele>-230.2</ele>
        <time>2022-06-05T08:10:46Z</time>
      </trkpt>
      <trkpt lat="48.4217860" lon="7.9845660">
        <ele>-230.4</ele>
        <time>2022-06-05T08:10:50Z</time>
      </trkpt>
      <trkpt lat="48.4217000" lon="7.9848060">
        <ele>-229.6</ele>
        <time>2022-06-05T08:10:54Z</time>
      </trkpt>
      <trkpt lat="48.4216210" lon="7.9850560">
        <ele>-230.0</ele>
        <time>2022-06-05T08:10:58Z</time>
      </trkpt>
      <trkpt lat="48.4215360" lon="7.9853060">
        <ele>-230.2</ele>
        <time>2022-06-05T08:11:02Z</time>
      </trkpt>
      <trkpt lat="48.4214450" lon="7.9855560">
        <ele>-229.8</ele>
        <time>2022-06-05T08:11:06Z</time>
      </trkpt>
      <trkpt lat="48.4213600" lon="7.9858010">
        <ele>-230.0</ele>
        <time>2022-06-05T08:11:10Z</time>
      </trkpt>
      <trkpt lat="48.4212760" lon="7.9860550">
        <ele>-229.4</ele>
        <time>2022-06-05T08:11:14Z</time>
      </trkpt>
      <trkpt lat="48.4211980" lon="7.9863130">
        <ele>-229.6</ele>
        <time>2022-06-05T08:11:18Z</time>
      </trkpt>
      <trkpt lat="48.4211250" lon="7.9865730">
        <ele>-230.0</ele>
        <time>2022-06-05T08:11:22Z</time>
      </trkpt>
      <trkpt lat="48.4210660" lon="7.9868430">
        <ele>-230.0</ele>
        <time>2022-06-05T08:11:26Z</time>
      </trkpt>
      <trkpt lat="48.4210110" lon="7.9871210">
        <ele>-230.6</ele>
        <time>2022-06-05T08:11:30Z</time>
      </trkpt>
      <trkpt lat="48.4209580" lon="7.9874010">
        <ele>-230.0</ele>
        <time>2022-06-05T08:11:34Z</time>
      </trkpt>
      <trkpt lat="48.4209030" lon="7.9876800">
        <ele>-230.0</ele>
        <time>2022-06-05T08:11:38Z</time>
      </trkpt>
      <trkpt lat="48.4208560" lon="7.9879630">
        <ele>-230.2</ele>
        <time>2022-06-05T08:11:42Z</time>
      </trkpt>
      <trkpt lat="48.4208180" lon="7.9882460">
        <ele>-230.4</ele>
        <time>2022-06-05T08:11:46Z</time>
      </trkpt>
      <trkpt lat="48.4207730" lon="7.9885330">
        <ele>-230.0</ele>
        <time>2022-06-05T08:11:50Z</time>
      </trkpt>
      <trkpt lat="48.4207300" lon="7.9888200">
        <ele>-230.2</ele>
        <time>2022-06-05T08:11:54Z</time>
      </trkpt>
      <trkpt lat="48.4206710" lon="7.9891010">
        <ele>-230.2</ele>
        <time>2022-06-05T08:11:58Z</time>
      </trkpt>
      <trkpt lat="48.4206010" lon="7.9893600">
        <ele>-230.0</ele>
        <time>2022-06-05T08:12:02Z</time>
      </trkpt>
      <trkpt lat="48.4205160" lon="7.9896060">
        <ele>-229.4</ele>
        <time>2022-06-05T08:12:06Z</time>
      </trkpt>
      <trkpt lat="48.4204110" lon="7.9898360">
        <ele>-229.2</ele>
        <time>2022-06-05T08:12:10Z</time>
      </trkpt>
      <trkpt lat="48.4202760" lon="7.9900350">
        <ele>-229.8</ele>
        <time>2022-06-05T08:12:14Z</time>
      </trkpt>
      <trkpt lat="48.4201280" lon="7.9901960">
        <ele>-229.2</ele>
        <time>2022-06-05T08:12:18Z</time>
      </trkpt>
      <trkpt lat="48.4199760" lon="7.9903450">
        <ele>-229.2</ele>
        <time>2022-06-05T08:12:22Z</time>
      </trkpt>
      <trkpt lat="48.4198330" lon="7.9904930">
        <ele>-228.2</ele>
        <time>2022-06-05T08:12:26Z</time>
      </trkpt>
      <trkpt lat="48.4196960" lon="7.9906300">
        <ele>-228.4</ele>
        <time>2022-06-05T08:12:30Z</time>
      </trkpt>
      <trkpt lat="48.4195560" lon="7.9907710">
        <ele>-228.0</ele>
        <time>2022-06-05T08:12:34Z</time>
      </trkpt>
      <trkpt lat="48.4194050" lon="7.9909130">
        <ele>-227.4</ele>
        <time>2022-06-05T08:12:38Z</time>
      </trkpt>
      <trkpt lat="48.4192560" lon="7.9910550">
        <ele>-228.0</ele>
        <time>2022-06-05T08:12:42Z</time>
      </trkpt>
      <trkpt lat="48.4191100" lon="7.9911880">
        <ele>-227.8</ele>
        <time>2022-06-05T08:12:46Z</time>
      </trkpt>
      <trkpt lat="48.4189660" lon="7.9913250">
        <ele>-228.0</ele>
        <time>2022-06-05T08:12:50Z</time>
      </trkpt>
      <trkpt lat="48.4188280" lon="7.9914680">
        <ele>-227.6</ele>
        <time>2022-06-05T08:12:54Z</time>
      </trkpt>
      <trkpt lat="48.4186930" lon="7.9916060">
        <ele>-227.0</ele>
        <time>2022-06-05T08:12:58Z</time>
      </trkpt>
      <trkpt lat="48.4185500" lon="7.9917430">
        <ele>-226.6</ele>
        <time>2022-06-05T08:13:02Z</time>
      </trkpt>
      <trkpt lat="48.4184210" lon="7.9919180">
        <ele>-227.4</ele>
        <time>2022-06-05T08:13:06Z</time>
      </trkpt>
      <trkpt lat="48.4183200" lon="7.9921560">
        <ele>-226.6</ele>
        <time>2022-06-05T08:13:10Z</time>
      </trkpt>
      <trkpt lat="48.4182450" lon="7.9924000">
        <ele>-226.4</ele>
        <time>2022-06-05T08:13:14Z</time>
      </trkpt>
      <trkpt lat="48.4181760" lon="7.9926360">
        <ele>-226.4</ele>
        <time>2022-06-05T08:13:18Z</time>
      </trkpt>
      <trkpt lat="48.4181000" lon="7.9928630">
        <ele>-226.4</ele>
        <time>2022-06-05T08:13:22Z</time>
      </trkpt>
      <trkpt lat="48.4180210" lon="7.9930880">
        <ele>-226.2</ele>
        <time>2022-06-05T08:13:26Z</time>
      </trkpt>
      <trkpt lat="48.4179400" lon="7.9933050">
        <ele>-225.2</ele>
        <time>2022-06-05T08:13:30Z</time>
      </trkpt>
      <trkpt lat="48.4178700" lon="7.9935250">
        <ele>-225.6</ele>
        <time>2022-06-05T08:13:34Z</time>
      </trkpt>
      <trkpt lat="48.4178130" lon="7.9937260">
        <ele>-226.2</ele>
        <time>2022-06-05T08:13:38Z</time>
      </trkpt>
      <trkpt lat="48.4177500" lon="7.9939710">
        <ele>-225.6</ele>
        <time>2022-06-05T08:13:42Z</time>
      </trkpt>
      <trkpt lat="48.4176550" lon="7.9941750">
        <ele>-225.0</ele>
        <time>2022-06-05T08:13:46Z</time>
      </trkpt>
      <trkpt lat="48.4175350" lon="7.9943160">
        <ele>-225.4</ele>
        <time>2022-06-05T08:13:50Z</time>
      </trkpt>
      <trkpt lat="48.4174010" lon="7.9944680">
        <ele>-225.6</ele>
        <time>2022-06-05T08:13:54Z</time>
      </trkpt>
      <trkpt lat="48.4172430" lon="7.9946260">
        <ele>-225.2</ele>
        <time>2022-06-05T08:13:58Z</time>
      </trkpt>
      <trkpt lat="48.4170580" lon="7.9946310">
        <ele>-226.6</ele>
        <time>2022-06-05T08:14:02Z</time>
      </trkpt>
      <trkpt lat="48.4168860" lon="7.9944700">
        <ele>-227.2</ele>
        <time>2022-06-05T08:14:06Z</time>
      </trkpt>
      <trkpt lat="48.4167180" lon="7.9942980">
        <ele>-227.4</ele>
        <time>2022-06-05T08:14:10Z</time>
      </trkpt>
      <trkpt lat="48.4165600" lon="7.9941010">
        <ele>-227.2</ele>
        <time>2022-06-05T08:14:14Z</time>
      </trkpt>
      <trkpt lat="48.4164160" lon="7.9939100">
        <ele>-226.2</ele>
        <time>2022-06-05T08:14:18Z</time>
      </trkpt>
      <trkpt lat="48.4162660" lon="7.9939180">
        <ele>-226.4</ele>
        <time>2022-06-05T08:14:22Z</time>
      </trkpt>
      <trkpt lat="48.4161410" lon="7.9940760">
        <ele>-227.0</ele>
        <time>2022-06-05T08:14:26Z</time>
      </trkpt>
      <trkpt lat="48.4159380" lon="7.9941750">
        <ele>-228.6</ele>
        <time>2022-06-05T08:14:30Z</time>
      </trkpt>
      <trkpt lat="48.4157200" lon="7.9942600">
        <ele>-228.4</ele>
        <time>2022-06-05T08:14:34Z</time>
      </trkpt>
      <trkpt lat="48.4155750" lon="7.9943030">
        <ele>-227.2</ele>
        <time>2022-06-05T08:14:38Z</time>
      </trkpt>
      <trkpt lat="48.4154880" lon="7.9943450">
        <ele>-227.0</ele>
        <time>2022-06-05T08:14:42Z</time>
      </trkpt>
      <trkpt lat="48.4153910" lon="7.9944280">
        <ele>-226.8</ele>
        <time>2022-06-05T08:14:46Z</time>
      </trkpt>
      <trkpt lat="48.4154050" lon="7.9945660">
        <ele>-227.2</ele>
        <time>2022-06-05T08:14:50Z</time>
      </trkpt>
      <trkpt lat="48.4154760" lon="7.9948010">
        <ele>-228.0</ele>
        <time>2022-06-05T08:14:54Z</time>
      </trkpt>
      <trkpt lat="48.4155500" lon="7.9950750">
        <ele>-228.4</ele>
        <time>2022-06-05T08:14:58Z</time>
      </trkpt>
      <trkpt lat="48.4156300" lon="7.9953400">
        <ele>-228.8</ele>
        <time>2022-06-05T08:15:02Z</time>
      </trkpt>
      <trkpt lat="48.4157200" lon="7.9956110">
        <ele>-229.0</ele>
        <time>2022-06-05T08:15:06Z</time>
      </trkpt>
      <trkpt lat="48.4157880" lon="7.9958600">
        <ele>-229.8</ele>
        <time>2022-06-05T08:15:10Z</time>
      </trkpt>
      <trkpt lat="48.4158610" lon="7.9961210">
        <ele>-230.0</ele>
        <time>2022-06-05T08:15:14Z</time>
      </trkpt>
      <trkpt lat="48.4159350" lon="7.9964260">
        <ele>-230.6</ele>
        <time>2022-06-05T08:15:18Z</time>
      </trkpt>
      <trkpt lat="48.4160050" lon="7.9967250">
        <ele>-230.4</ele>
        <time>2022-06-05T08:15:22Z</time>
      </trkpt>
      <trkpt lat="48.4160480" lon="7.9970180">
        <ele>-229.8</ele>
        <time>2022-06-05T08:15:26Z</time>
      </trkpt>
      <trkpt lat="48.4160930" lon="7.9973010">
        <ele>-229.8</ele>
        <time>2022-06-05T08:15:30Z</time>
      </trkpt>
      <trkpt lat="48.4161230" lon="7.9975960">
        <ele>-229.4</ele>
        <time>2022-06-05T08:15:34Z</time>
      </trkpt>
      <trkpt lat="48.4161330" lon="7.9979010">
        <ele>-228.6</ele>
        <time>2022-06-05T08:15:38Z</time>
      </trkpt>
      <trkpt lat="48.4161430" lon="7.9982180">
        <ele>-228.2</ele>
        <time>2022-06-05T08:15:42Z</time>
      </trkpt>
      <trkpt lat="48.4161530" lon="7.9985330">
        <ele>-228.0</ele>
        <time>2022-06-05T08:15:46Z</time>
      </trkpt>
      <trkpt lat="48.4161780" lon="7.9988250">
        <ele>-227.4</ele>
        <time>2022-06-05T08:15:50Z</time>
      </trkpt>
      <trkpt lat="48.4162210" lon="7.9990830">
        <ele>-227.4</ele>
        <time>2022-06-05T08:15:54Z</time>
      </trkpt>
      <trkpt lat="48.4162680" lon="7.9993360">
        <ele>-227.4</ele>
        <time>2022-06-05T08:15:58Z</time>
      </trkpt>
      <trkpt lat="48.4163110" lon="7.9995980">
        <ele>-227.6</ele>
        <time>2022-06-05T08:16:02Z</time>
      </trkpt>
      <trkpt lat="48.4163230" lon="7.9998650">
        <ele>-226.8</ele>
        <time>2022-06-05T08:16:06Z</time>
      </trkpt>
      <trkpt lat="48.4162510" lon="8.0001280">
        <ele>-226.8</ele>
        <time>2022-06-05T08:16:10Z</time>
      </trkpt>
      <trkpt lat="48.4161250" lon="8.0003750">
        <ele>-227.8</ele>
        <time>2022-06-05T08:16:14Z</time>
      </trkpt>
      <trkpt lat="48.4159650" lon="8.0005880">
        <ele>-227.8</ele>
        <time>2022-06-05T08:16:18Z</time>
      </trkpt>
      <trkpt lat="48.4157930" lon="8.0007280">
        <ele>-227.6</ele>
        <time>2022-06-05T08:16:22Z</time>
      </trkpt>
      <trkpt lat="48.4156380" lon="8.0008450">
        <ele>-227.8</ele>
        <time>2022-06-05T08:16:26Z</time>
      </trkpt>
      <trkpt lat="48.4155110" lon="8.0009380">
        <ele>-227.2</ele>
        <time>2022-06-05T08:16:30Z</time>
      </trkpt>
      <trkpt lat="48.4154010" lon="8.0009210">
        <ele>-228.0</ele>
        <time>2022-06-05T08:16:34Z</time>
      </trkpt>
      <trkpt lat="48.4153510" lon="8.0010160">
        <ele>-228.0</ele>
        <time>2022-06-05T08:16:38Z</time>
      </trkpt>
      <trkpt lat="48.4152930" lon="8.0011850">
        <ele>-227.8</ele>
        <time>2022-06-05T08:16:42Z</time>
      </trkpt>
      <trkpt lat="48.4151600" lon="8.0013150">
        <ele>-228.2</ele>
        <time>2022-06-05T08:16:46Z</time>
      </trkpt>
      <trkpt lat="48.4150260" lon="8.0014880">
        <ele>-228.0</ele>
        <time>2022-06-05T08:16:50Z</time>
      </trkpt>
      <trkpt lat="48.4149100" lon="8.0017030">
        <ele>-227.8</ele>
        <time>2022-06-05T08:16:54Z</time>
      </trkpt>
      <trkpt lat="48.4147950" lon="8.0019230">
        <ele>-228.0</ele>
        <time>2022-06-05T08:16:58Z</time>
      </trkpt>
      <trkpt lat="48.4146730" lon="8.0021260">
        <ele>-228.0</ele>
        <time>2022-06-05T08:17:02Z</time>
      </trkpt>
      <trkpt lat="48.4145560" lon="8.0023360">
        <ele>-228.2</ele>
        <time>2022-06-05T08:17:06Z</time>
      </trkpt>
      <trkpt lat="48.4144360" lon="8.0025430">
        <ele>-228.2</ele>
        <time>2022-06-05T08:17:10Z</time>
      </trkpt>
      <trkpt lat="48.4143180" lon="8.0027450">
        <ele>-228.0</ele>
        <time>2022-06-05T08:17:14Z</time>
      </trkpt>
      <trkpt lat="48.4142050" lon="8.0029460">
        <ele>-227.2</ele>
        <time>2022-06-05T08:17:18Z</time>
      </trkpt>
      <trkpt lat="48.4140910" lon="8.0031430">
        <ele>-227.2</ele>
        <time>2022-06-05T08:17:22Z</time>
      </trkpt>
      <trkpt lat="48.4139730" lon="8.0033480">
        <ele>-227.4</ele>
        <time>2022-06-05T08:17:26Z</time>
      </trkpt>
      <trkpt lat="48.4138530" lon="8.0035600">
        <ele>-227.2</ele>
        <time>2022-06-05T08:17:30Z</time>
      </trkpt>
      <trkpt lat="48.4137330" lon="8.0037700">
        <ele>-227.6</ele>
        <time>2022-06-05T08:17:34Z</time>
      </trkpt>
      <trkpt lat="48.4136180" lon="8.0039800">
        <ele>-227.4</ele>
        <time>2022-06-05T08:17:38Z</time>
      </trkpt>
      <trkpt lat="48.4135050" lon="8.0041860">
        <ele>-227.2</ele>
        <time>2022-06-05T08:17:42Z</time>
      </trkpt>
      <trkpt lat="48.4133860" lon="8.0043930">
        <ele>-226.8</ele>
        <time>2022-06-05T08:17:46Z</time>
      </trkpt>
      <trkpt lat="48.4132650" lon="8.0046110">
        <ele>-227.2</ele>
        <time>2022-06-05T08:17:50Z</time>
      </trkpt>
      <trkpt lat="48.4131460" lon="8.0048130">
        <ele>-227.0</ele>
        <time>2022-06-05T08:17:54Z</time>
      </trkpt>
      <trkpt lat="48.4130280" lon="8.0050260">
        <ele>-226.6</ele>
        <time>2022-06-05T08:17:58Z</time>
      </trkpt>
      <trkpt lat="48.4129010" lon="8.0052450">
        <ele>-227.2</ele>
        <time>2022-06-05T08:18:02Z</time>
      </trkpt>
      <trkpt lat="48.4127810" lon="8.0054380">
        <ele>-227.6</ele>
        <time>2022-06-05T08:18:06Z</time>
      </trkpt>
      <trkpt lat="48.4126680" lon="8.0056300">
        <ele>-227.2</ele>
        <time>2022-06-05T08:18:10Z</time>
      </trkpt>
      <trkpt lat="48.4125510" lon="8.0058300">
        <ele>-227.8</ele>
        <time>2022-06-05T08:18:14Z</time>
      </trkpt>
      <trkpt lat="48.4124300" lon="8.0060450">
        <ele>-227.4</ele>
        <time>2022-06-05T08:18:18Z</time>
      </trkpt>
      <trkpt lat="48.4123060" lon="8.0062700">
        <ele>-227.0</ele>
        <time>2022-06-05T08:18:22Z</time>
      </trkpt>
      <trkpt lat="48.4121760" lon="8.0064860">
        <ele>-227.2</ele>
        <time>2022-06-05T08:18:26Z</time>
      </trkpt>
      <trkpt lat="48.4120380" lon="8.0066980">
        <ele>-227.2</ele>
        <time>2022-06-05T08:18:30Z</time>
      </trkpt>
      <trkpt lat="48.4118810" lon="8.0068880">
        <ele>-226.8</ele>
        <time>2022-06-05T08:18:34Z</time>
      </trkpt>
      <trkpt lat="48.4117250" lon="8.0070550">
        <ele>-226.6</ele>
        <time>2022-06-05T08:18:38Z</time>
      </trkpt>
      <trkpt lat="48.4115650" lon="8.0071800">
        <ele>-226.4</ele>
        <time>2022-06-05T08:18:42Z</time>
      </trkpt>
      <trkpt lat="48.4114100" lon="8.0072880">
        <ele>-226.6</ele>
        <time>2022-06-05T08:18:46Z</time>
      </trkpt>
      <trkpt lat="48.4112600" lon="8.0073630">
        <ele>-226.6</ele>
        <time>2022-06-05T08:18:50Z</time>
      </trkpt>
      <trkpt lat="48.4111110" lon="8.0074500">
        <ele>-226.6</ele>
        <time>2022-06-05T08:18:54Z</time>
      </trkpt>
      <trkpt lat="48.4109480" lon="8.0075300">
        <ele>-226.6</ele>
        <time>2022-06-05T08:18:58Z</time>
      </trkpt>
      <trkpt lat="48.4107580" lon="8.0075810">
        <ele>-226.4</ele>
        <time>2022-06-05T08:19:02Z</time>
      </trkpt>
      <trkpt lat="48.4105700" lon="8.0076380">
        <ele>-226.4</ele>
        <time>2022-06-05T08:19:06Z</time>
      </trkpt>
      <trkpt lat="48.4103830" lon="8.0076630">
        <ele>-226.2</ele>
        <time>2022-06-05T08:19:10Z</time>
      </trkpt>
      <trkpt lat="48.4101950" lon="8.0077060">
        <ele>-226.6</ele>
        <time>2022-06-05T08:19:14Z</time>
      </trkpt>
      <trkpt lat="48.4100130" lon="8.0077750">
        <ele>-226.8</ele>
        <time>2022-06-05T08:19:18Z</time>
      </trkpt>
      <trkpt lat="48.4098380" lon="8.0078260">
        <ele>-226.6</ele>
        <time>2022-06-05T08:19:22Z</time>
      </trkpt>
      <trkpt lat="48.4096560" lon="8.0078680">
        <ele>-227.2</ele>
        <time>2022-06-05T08:19:26Z</time>
      </trkpt>
      <trkpt lat="48.4094730" lon="8.0079160">
        <ele>-227.0</ele>
        <time>2022-06-05T08:19:30Z</time>
      </trkpt>
      <trkpt lat="48.4092980" lon="8.0079730">
        <ele>-227.2</ele>
        <time>2022-06-05T08:19:34Z</time>
      </trkpt>
      <trkpt lat="48.4091400" lon="8.0080510">
        <ele>-227.0</ele>
        <time>2022-06-05T08:19:38Z</time>
      </trkpt>
      <trkpt lat="48.4089960" lon="8.0081610">
        <ele>-227.6</ele>
        <time>2022-06-05T08:19:42Z</time>
      </trkpt>
      <trkpt lat="48.4088350" lon="8.0083110">
        <ele>-227.2</ele>
        <time>2022-06-05T08:19:46Z</time>
      </trkpt>
      <trkpt lat="48.4086950" lon="8.0084880">
        <ele>-227.6</ele>
        <time>2022-06-05T08:19:50Z</time>
      </trkpt>
      <trkpt lat="48.4085530" lon="8.0086800">
        <ele>-227.4</ele>
        <time>2022-06-05T08:19:54Z</time>
      </trkpt>
      <trkpt lat="48.4084300" lon="8.0088650">
        <ele>-226.6</ele>
        <time>2022-06-05T08:19:58Z</time>
      </trkpt>
      <trkpt lat="48.4083300" lon="8.0090630">
        <ele>-227.4</ele>
        <time>2022-06-05T08:20:02Z</time>
      </trkpt>
      <trkpt lat="48.4082080" lon="8.0092750">
        <ele>-227.2</ele>
        <time>2022-06-05T08:20:06Z</time>
      </trkpt>
      <trkpt lat="48.4080660" lon="8.0094760">
        <ele>-227.6</ele>
        <time>2022-06-05T08:20:10Z</time>
      </trkpt>
      <trkpt lat="48.4079250" lon="8.0096800">
        <ele>-227.4</ele>
        <time>2022-06-05T08:20:14Z</time>
      </trkpt>
      <trkpt lat="48.4077810" lon="8.0098730">
        <ele>-227.4</ele>
        <time>2022-06-05T08:20:18Z</time>
      </trkpt>
      <trkpt lat="48.4076430" lon="8.0100680">
        <ele>-227.4</ele>
        <time>2022-06-05T08:20:22Z</time>
      </trkpt>
      <trkpt lat="48.4074960" lon="8.0102460">
        <ele>-227.2</ele>
        <time>2022-06-05T08:20:26Z</time>
      </trkpt>
      <trkpt lat="48.4073550" lon="8.0104200">
        <ele>-227.0</ele>
        <time>2022-06-05T08:20:30Z</time>
      </trkpt>
      <trkpt lat="48.4072110" lon="8.0105900">
        <ele>-227.2</ele>
        <time>2022-06-05T08:20:34Z</time>
      </trkpt>
      <trkpt lat="48.4070680" lon="8.0107560">
        <ele>-227.0</ele>
        <time>2022-06-05T08:20:38Z</time>
      </trkpt>
      <trkpt lat="48.4069200" lon="8.0109010">
        <ele>-226.8</ele>
        <time>2022-06-05T08:20:42Z</time>
      </trkpt>
      <trkpt lat="48.4067610" lon="8.0110200">
        <ele>-226.8</ele>
        <time>2022-06-05T08:20:46Z</time>
      </trkpt>
      <trkpt lat="48.4066030" lon="8.0111300">
        <ele>-227.2</ele>
        <time>2022-06-05T08:20:50Z</time>
      </trkpt>
      <trkpt lat="48.4064360" lon="8.0112260">
        <ele>-226.4</ele>
        <time>2022-06-05T08:20:54Z</time>
      </trkpt>
      <trkpt lat="48.4062750" lon="8.0113230">
        <ele>-226.8</ele>
        <time>2022-06-05T08:20:58Z</time>
      </trkpt>
      <trkpt lat="48.4061080" lon="8.0114080">
        <ele>-226.8</ele>
        <time>2022-06-05T08:21:02Z</time>
      </trkpt>
      <trkpt lat="48.4059450" lon="8.0114950">
        <ele>-227.0</ele>
        <time>2022-06-05T08:21:06Z</time>
      </trkpt>
      <trkpt lat="48.4057850" lon="8.0115750">
        <ele>-226.6</ele>
        <time>2022-06-05T08:21:10Z</time>
      </trkpt>
      <trkpt lat="48.4056260" lon="8.0116560">
        <ele>-227.0</ele>
        <time>2022-06-05T08:21:14Z</time>
      </trkpt>
      <trkpt lat="48.4054730" lon="8.0117380">
        <ele>-227.2</ele>
        <time>2022-06-05T08:21:18Z</time>
      </trkpt>
      <trkpt lat="48.4053050" lon="8.0118260">
        <ele>-227.2</ele>
        <time>2022-06-05T08:21:22Z</time>
      </trkpt>
      <trkpt lat="48.4051310" lon="8.0119280">
        <ele>-226.8</ele>
        <time>2022-06-05T08:21:26Z</time>
      </trkpt>
      <trkpt lat="48.4049510" lon="8.0120280">
        <ele>-227.2</ele>
        <time>2022-06-05T08:21:30Z</time>
      </trkpt>
      <trkpt lat="48.4047810" lon="8.0121010">
        <ele>-226.6</ele>
        <time>2022-06-05T08:21:34Z</time>
      </trkpt>
      <trkpt lat="48.4046100" lon="8.0121430">
        <ele>-227.0</ele>
        <time>2022-06-05T08:21:38Z</time>
      </trkpt>
      <trkpt lat="48.4044350" lon="8.0122110">
        <ele>-226.8</ele>
        <time>2022-06-05T08:21:42Z</time>
      </trkpt>
      <trkpt lat="48.4042730" lon="8.0123400">
        <ele>-227.4</ele>
        <time>2022-06-05T08:21:46Z</time>
      </trkpt>
      <trkpt lat="48.4041260" lon="8.0125210">
        <ele>-226.8</ele>
        <time>2022-06-05T08:21:50Z</time>
      </trkpt>
      <trkpt lat="48.4040150" lon="8.0127200">
        <ele>-226.6</ele>
        <time>2022-06-05T08:21:54Z</time>
      </trkpt>
      <trkpt lat="48.4039260" lon="8.0129210">
        <ele>-226.2</ele>
        <time>2022-06-05T08:21:58Z</time>
      </trkpt>
      <trkpt lat="48.4038680" lon="8.0131380">
        <ele>-226.2</ele>
        <time>2022-06-05T08:22:02Z</time>
      </trkpt>
      <trkpt lat="48.4038330" lon="8.0133700">
        <ele>-226.2</ele>
        <time>2022-06-05T08:22:06Z</time>
      </trkpt>
      <trkpt lat="48.4038150" lon="8.0136010">
        <ele>-226.2</ele>
        <time>2022-06-05T08:22:10Z</time>
      </trkpt>
      <trkpt lat="48.4038110" lon="8.0138350">
        <ele>-226.4</ele>
        <time>2022-06-05T08:22:14Z</time>
      </trkpt>
      <trkpt lat="48.4038050" lon="8.0140460">
        <ele>-226.6</ele>
        <time>2022-06-05T08:22:18Z</time>
      </trkpt>
      <trkpt lat="48.4038250" lon="8.0142750">
        <ele>-225.8</ele>
        <time>2022-06-05T08:22:22Z</time>
      </trkpt>
      <trkpt lat="48.4038350" lon="8.0145150">
        <ele>-225.8</ele>
        <time>2022-06-05T08:22:26Z</time>
      </trkpt>
      <trkpt lat="48.4038550" lon="8.0147080">
        <ele>-225.6</ele>
        <time>2022-06-05T08:22:30Z</time>
      </trkpt>
      <trkpt lat="48.4039400" lon="8.0149700">
        <ele>-225.6</ele>
        <time>2022-06-05T08:22:34Z</time>
      </trkpt>
      <trkpt lat="48.4039500" lon="8.0151780">
        <ele>-225.2</ele>
        <time>2022-06-05T08:22:38Z</time>
      </trkpt>
      <trkpt lat="48.4039410" lon="8.0153430">
        <ele>-225.2</ele>
        <time>2022-06-05T08:22:42Z</time>
      </trkpt>
      <trkpt lat="48.4039660" lon="8.0154450">
        <ele>-224.4</ele>
        <time>2022-06-05T08:22:46Z</time>
      </trkpt>
      <trkpt lat="48.4040260" lon="8.0154650">
        <ele>-225.0</ele>
        <time>2022-06-05T08:22:50Z</time>
      </trkpt>
      <trkpt lat="48.4040910" lon="8.0154400">
        <ele>-224.8</ele>
        <time>2022-06-05T08:22:54Z</time>
      </trkpt>
      <trkpt lat="48.4041430" lon="8.0154130">
        <ele>-225.4</ele>
        <time>2022-06-05T08:22:58Z</time>
      </trkpt>
      <trkpt lat="48.4042150" lon="8.0153660">
        <ele>-224.8</ele>
        <time>2022-06-05T08:23:02Z</time>
      </trkpt>
      <trkpt lat="48.4042880" lon="8.0153660">
        <ele>-224.6</ele>
        <time>2022-06-05T08:23:06Z</time>
      </trkpt>
      <trkpt lat="48.4043650" lon="8.0153830">
        <ele>-224.6</ele>
        <time>2022-06-05T08:23:10Z</time>
      </trkpt>
      <trkpt lat="48.4044410" lon="8.0154250">
        <ele>-224.8</ele>
        <time>2022-06-05T08:23:14Z</time>
      </trkpt>
      <trkpt lat="48.4045030" lon="8.0154680">
        <ele>-224.6</ele>
        <time>2022-06-05T08:23:18Z</time>
      </trkpt>
      <trkpt lat="48.4045030" lon="8.0154680">
        <ele>-224.4</ele>
        <time>2022-06-05T08:23:22Z</time>
      </trkpt>
      <trkpt lat="48.4045030" lon="8.0154680">
        <ele>-224.4</ele>
        <time>2022-06-05T08:23:26Z</time>
      </trkpt>
      <trkpt lat="48.4045030" lon="8.0154680">
        <ele>-224.6</ele>
        <time>2022-06-05T08:23:30Z</time>
      </trkpt>
      <trkpt lat="48.4045030" lon="8.0154680">
        <ele>-224.6</ele>
        <time>2022-06-05T08:23:34Z</time>
      </trkpt>
      <trkpt lat="48.4045030" lon="8.0154680">
        <ele>-224.4</ele>
        <time>2022-06-05T08:23:38Z</time>
      </trkpt>
      <trkpt lat="48.4045030" lon="8.0154680">
        <ele>-224.4</ele>
        <time>2022-06-05T08:23:42Z</time>
      </trkpt>
      <trkpt lat="48.4045030" lon="8.0154680">
        <ele>-224.4</ele>
        <time>2022-06-05T08:23:46Z</time>
      </trkpt>
      <trkpt lat="48.4045030" lon="8.0154680">
        <ele>-224.4</ele>
        <time>2022-06-05T08:23:50Z</time>
      </trkpt>
      <trkpt lat="48.4045030" lon="8.0154680">
        <ele>-224.4</ele>
        <time>2022-06-05T08:23:54Z</time>
      </trkpt>
      <trkpt lat="48.4045030" lon="8.0154680">
        <ele>-224.4</ele>
        <time>2022-06-05T08:23:58Z</time>
      </trkpt>
      <trkpt lat="48.4045030" lon="8.0154680">
        <ele>-224.2</ele>
        <time>2022-06-05T08:24:02Z</time>
      </trkpt>
      <trkpt lat="48.4045030" lon="8.0154680">
        <ele>-224.8</ele>
        <time>2022-06-05T08:24:06Z</time>
      </trkpt>
      <trkpt lat="48.4045030" lon="8.0154680">
        <ele>-224.4</ele>
        <time>2022-06-05T08:24:10Z</time>
      </trkpt>
      <trkpt lat="48.4045030" lon="8.0154680">
        <ele>-224.2</ele>
        <time>2022-06-05T08:24:14Z</time>
      </trkpt>
      <trkpt lat="48.4045030" lon="8.0154680">
        <ele>-224.4</ele>
        <time>2022-06-05T08:24:18Z</time>
      </trkpt>
      <trkpt lat="48.4045030" lon="8.0154680">
        <ele>-224.2</ele>
        <time>2022-06-05T08:24:22Z</time>
      </trkpt>
      <trkpt lat="48.4045030" lon="8.0154680">
        <ele>-224.4</ele>
        <time>2022-06-05T08:24:26Z</time>
      </trkpt>
      <trkpt lat="48.4045030" lon="8.0154680">
        <ele>-224.4</ele>
        <time>2022-06-05T08:24:30Z</time>
      </trkpt>
      <trkpt lat="48.4045030" lon="8.0154680">
        <ele>-224.2</ele>
        <time>2022-06-05T08:24:34Z</time>
      </trkpt>
      <trkpt lat="48.4045030" lon="8.0154680">
        <ele>-224.6</ele>
        <time>2022-06-05T08:24:38Z</time>
      </trkpt>
      <trkpt lat="48.4045030" lon="8.0154680">
        <ele>-224.4</ele>
        <time>2022-06-05T08:24:42Z</time>
      </trkpt>
      <trkpt lat="48.4045030" lon="8.0154680">
        <ele>-224.4</ele>
        <time>2022-06-05T08:24:46Z</time>
      </trkpt>
      <trkpt lat="48.4045030" lon="8.0154680">
        <ele>-224.6</ele>
        <time>2022-06-05T08:24:50Z</time>
      </trkpt>
      <trkpt lat="48.4045030" lon="8.0154680">
        <ele>-224.2</ele>
        <time>2022-06-05T08:24:54Z</time>
      </trkpt>
      <trkpt lat="48.4045810" lon="8.0155510">
        <ele>-224.6</ele>
        <time>2022-06-05T08:24:58Z</time>
      </trkpt>
      <trkpt lat="48.4045810" lon="8.0155510">
        <ele>-224.2</ele>
        <time>2022-06-05T08:25:02Z</time>
      </trkpt>
      <trkpt lat="48.4045810" lon="8.0155510">
        <ele>-224.6</ele>
        <time>2022-06-05T08:25:06Z</time>
      </trkpt>
      <trkpt lat="48.4045810" lon="8.0155510">
        <ele>-224.4</ele>
        <time>2022-06-05T08:25:10Z</time>
      </trkpt>
      <trkpt lat="48.4045810" lon="8.0155510">
        <ele>-224.2</ele>
        <time>2022-06-05T08:25:14Z</time>
      </trkpt>
      <trkpt lat="48.4045810" lon="8.0155510">
        <ele>-224.2</ele>
        <time>2022-06-05T08:25:18Z</time>
      </trkpt>
      <trkpt lat="48.4045810" lon="8.0155510">
        <ele>-223.8</ele>
        <time>2022-06-05T08:25:22Z</time>
      </trkpt>
      <trkpt lat="48.4045810" lon="8.0155510">
        <ele>-224.4</ele>
        <time>2022-06-05T08:25:26Z</time>
      </trkpt>
      <trkpt lat="48.4045810" lon="8.0155510">
        <ele>-223.6</ele>
        <time>2022-06-05T08:25:30Z</time>
      </trkpt>
      <trkpt lat="48.4045810" lon="8.0155510">
        <ele>-224.2</ele>
        <time>2022-06-05T08:25:34Z</time>
      </trkpt>
      <trkpt lat="48.4045810" lon="8.0155510">
        <ele>-224.2</ele>
        <time>2022-06-05T08:25:38Z</time>
      </trkpt>
      <trkpt lat="48.4045810" lon="8.0155510">
        <ele>-223.6</ele>
        <time>2022-06-05T08:25:42Z</time>
      </trkpt>
      <trkpt lat="48.4045810" lon="8.0155510">
        <ele>-224.2</ele>
        <time>2022-06-05T08:25:46Z</time>
      </trkpt>
      <trkpt lat="48.4045810" lon="8.0155510">
        <ele>-223.8</ele>
        <time>2022-06-05T08:25:50Z</time>
      </trkpt>
      <trkpt lat="48.4045810" lon="8.0155510">
        <ele>-224.4</ele>
        <time>2022-06-05T08:25:54Z</time>
      </trkpt>
      <trkpt lat="48.4045810" lon="8.0155510">
        <ele>-224.2</ele>
        <time>2022-06-05T08:25:58Z</time>
      </trkpt>
      <trkpt lat="48.4045810" lon="8.0155510">
        <ele>-224.2</ele>
        <time>2022-06-05T08:26:02Z</time>
      </trkpt>
      <trkpt lat="48.4045810" lon="8.0155510">
        <ele>-223.8</ele>
        <time>2022-06-05T08:26:06Z</time>
      </trkpt>
      <trkpt lat="48.4045810" lon="8.0155510">
        <ele>-223.8</ele>
        <time>2022-06-05T08:26:10Z</time>
      </trkpt>
      <trkpt lat="48.4045810" lon="8.0155510">
        <ele>-223.6</ele>
        <time>2022-06-05T08:26:14Z</time>
      </trkpt>
      <trkpt lat="48.4045810" lon="8.0155510">
        <ele>-223.2</ele>
        <time>2022-06-05T08:26:18Z</time>
      </trkpt>
      <trkpt lat="48.4045810" lon="8.0155510">
        <ele>-223.8</ele>
        <time>2022-06-05T08:26:22Z</time>
      </trkpt>
      <trkpt lat="48.4045810" lon="8.0155510">
        <ele>-223.8</ele>
        <time>2022-06-05T08:26:26Z</time>
      </trkpt>
      <trkpt lat="48.4046230" lon="8.0156210">
        <ele>-223.8</ele>
        <time>2022-06-05T08:26:30Z</time>
      </trkpt>
      <trkpt lat="48.4045660" lon="8.0156130">
        <ele>-224.0</ele>
        <time>2022-06-05T08:26:34Z</time>
      </trkpt>
      <trkpt lat="48.4044760" lon="8.0155600">
        <ele>-224.2</ele>
        <time>2022-06-05T08:26:38Z</time>
      </trkpt>
      <trkpt lat="48.4043780" lon="8.0154760">
        <ele>-224.2</ele>
        <time>2022-06-05T08:26:42Z</time>
      </trkpt>
      <trkpt lat="48.4043780" lon="8.0154760">
        <ele>-224.0</ele>
        <time>2022-06-05T08:26:46Z</time>
      </trkpt>
      <trkpt lat="48.4043780" lon="8.0154760">
        <ele>-223.8</ele>
        <time>2022-06-05T08:26:50Z</time>
      </trkpt>
      <trkpt lat="48.4043780" lon="8.0154760">
        <ele>-224.0</ele>
        <time>2022-06-05T08:26:54Z</time>
      </trkpt>
      <trkpt lat="48.4043780" lon="8.0154760">
        <ele>-224.2</ele>
        <time>2022-06-05T08:26:58Z</time>
      </trkpt>
      <trkpt lat="48.4043780" lon="8.0154760">
        <ele>-224.2</ele>
        <time>2022-06-05T08:27:02Z</time>
      </trkpt>
      <trkpt lat="48.4042950" lon="8.0153960">
        <ele>-224.2</ele>
        <time>2022-06-05T08:27:06Z</time>
      </trkpt>
      <trkpt lat="48.4042410" lon="8.0154150">
        <ele>-223.8</ele>
        <time>2022-06-05T08:27:10Z</time>
      </trkpt>
      <trkpt lat="48.4041710" lon="8.0154380">
        <ele>-224.4</ele>
        <time>2022-06-05T08:27:14Z</time>
      </trkpt>
      <trkpt lat="48.4040850" lon="8.0154650">
        <ele>-224.4</ele>
        <time>2022-06-05T08:27:18Z</time>
      </trkpt>
      <trkpt lat="48.4039660" lon="8.0155010">
        <ele>-224.2</ele>
        <time>2022-06-05T08:27:22Z</time>
      </trkpt>
      <trkpt lat="48.4038530" lon="8.0155850">
        <ele>-224.4</ele>
        <time>2022-06-05T08:27:26Z</time>
      </trkpt>
      <trkpt lat="48.4037450" lon="8.0156630">
        <ele>-224.4</ele>
        <time>2022-06-05T08:27:30Z</time>
      </trkpt>
      <trkpt lat="48.4036330" lon="8.0157100">
        <ele>-224.4</ele>
        <time>2022-06-05T08:27:34Z</time>
      </trkpt>
      <trkpt lat="48.4035150" lon="8.0157610">
        <ele>-225.0</ele>
        <time>2022-06-05T08:27:38Z</time>
      </trkpt>
      <trkpt lat="48.4034000" lon="8.0158110">
        <ele>-224.4</ele>
        <time>2022-06-05T08:27:42Z</time>
      </trkpt>
      <trkpt lat="48.4033150" lon="8.0158480">
        <ele>-225.0</ele>
        <time>2022-06-05T08:27:46Z</time>
      </trkpt>
      <trkpt lat="48.4032410" lon="8.0158830">
        <ele>-224.6</ele>
        <time>2022-06-05T08:27:50Z</time>
      </trkpt>
      <trkpt lat="48.4031830" lon="8.0158930">
        <ele>-224.6</ele>
        <time>2022-06-05T08:27:54Z</time>
      </trkpt>
      <trkpt lat="48.4031830" lon="8.0158930">
        <ele>-225.0</ele>
        <time>2022-06-05T08:27:58Z</time>
      </trkpt>
      <trkpt lat="48.4031830" lon="8.0158930">
        <ele>-224.6</ele>
        <time>2022-06-05T08:28:02Z</time>
      </trkpt>
      <trkpt lat="48.4031630" lon="8.0158800">
        <ele>-224.8</ele>
        <time>2022-06-05T08:28:06Z</time>
      </trkpt>
      <trkpt lat="48.4031300" lon="8.0159030">
        <ele>-224.6</ele>
        <time>2022-06-05T08:28:10Z</time>
      </trkpt>
      <trkpt lat="48.4031300" lon="8.0159030">
        <ele>-224.8</ele>
        <time>2022-06-05T08:28:14Z</time>
      </trkpt>
      <trkpt lat="48.4031300" lon="8.0159030">
        <ele>-224.6</ele>
        <time>2022-06-05T08:28:18Z</time>
      </trkpt>
      <trkpt lat="48.4031300" lon="8.0159030">
        <ele>-225.0</ele>
        <time>2022-06-05T08:28:22Z</time>
      </trkpt>
      <trkpt lat="48.4031300" lon="8.0159030">
        <ele>-225.0</ele>
        <time>2022-06-05T08:28:26Z</time>
      </trkpt>
      <trkpt lat="48.4031300" lon="8.0159030">
        <ele>-225.0</ele>
        <time>2022-06-05T08:28:30Z</time>
      </trkpt>
      <trkpt lat="48.4031300" lon="8.0159030">
        <ele>-224.6</ele>
        <time>2022-06-05T08:28:34Z</time>
      </trkpt>
      <trkpt lat="48.4031300" lon="8.0159030">
        <ele>-224.6</ele>
        <time>2022-06-05T08:28:38Z</time>
      </trkpt>
      <trkpt lat="48.4031300" lon="8.0159030">
        <ele>-224.4</ele>
        <time>2022-06-05T08:28:42Z</time>
      </trkpt>
      <trkpt lat="48.4031300" lon="8.0159030">
        <ele>-223.8</ele>
        <time>2022-06-05T08:28:46Z</time>
      </trkpt>
      <trkpt lat="48.4031300" lon="8.0159030">
        <ele>-224.2</ele>
        <time>2022-06-05T08:28:50Z</time>
      </trkpt>
      <trkpt lat="48.4031300" lon="8.0159030">
        <ele>-224.2</ele>
        <time>2022-06-05T08:28:54Z</time>
      </trkpt>
      <trkpt lat="48.4031300" lon="8.0159030">
        <ele>-224.2</ele>
        <time>2022-06-05T08:28:58Z</time>
      </trkpt>
      <trkpt lat="48.4031300" lon="8.0159030">
        <ele>-224.0</ele>
        <time>2022-06-05T08:29:02Z</time>
      </trkpt>
      <trkpt lat="48.4031100" lon="8.0159210">
        <ele>-224.4</ele>
        <time>2022-06-05T08:29:06Z</time>
      </trkpt>
      <trkpt lat="48.4030580" lon="8.0159300">
        <ele>-224.6</ele>
        <time>2022-06-05T08:29:10Z</time>
      </trkpt>
      <trkpt lat="48.4030130" lon="8.0159350">
        <ele>-224.2</ele>
        <time>2022-06-05T08:29:14Z</time>
      </trkpt>
      <trkpt lat="48.4030330" lon="8.0159160">
        <ele>-224.4</ele>
        <time>2022-06-05T08:29:18Z</time>
      </trkpt>
      <trkpt lat="48.4030550" lon="8.0158980">
        <ele>-224.2</ele>
        <time>2022-06-05T08:29:22Z</time>
      </trkpt>
      <trkpt lat="48.4030300" lon="8.0159200">
        <ele>-224.4</ele>
        <time>2022-06-05T08:29:26Z</time>
      </trkpt>
      <trkpt lat="48.4029050" lon="8.0159750">
        <ele>-224.8</ele>
        <time>2022-06-05T08:29:30Z</time>
      </trkpt>
      <trkpt lat="48.4028060" lon="8.0160130">
        <ele>-224.6</ele>
        <time>2022-06-05T08:29:34Z</time>
      </trkpt>
      <trkpt lat="48.4027700" lon="8.0160360">
        <ele>-224.6</ele>
        <time>2022-06-05T08:29:38Z</time>
      </trkpt>
      <trkpt lat="48.4027700" lon="8.0160360">
        <ele>-224.4</ele>
        <time>2022-06-05T08:29:42Z</time>
      </trkpt>
      <trkpt lat="48.4027700" lon="8.0160360">
        <ele>-224.6</ele>
        <time>2022-06-05T08:29:46Z</time>
      </trkpt>
      <trkpt lat="48.4027700" lon="8.0160360">
        <ele>-224.6</ele>
        <time>2022-06-05T08:29:50Z</time>
      </trkpt>
      <trkpt lat="48.4027700" lon="8.0160360">
        <ele>-224.8</ele>
        <time>2022-06-05T08:29:54Z</time>
      </trkpt>
      <trkpt lat="48.4027700" lon="8.0160360">
        <ele>-224.6</ele>
        <time>2022-06-05T08:29:58Z</time>
      </trkpt>
      <trkpt lat="48.4027700" lon="8.0160360">
        <ele>-224.4</ele>
        <time>2022-06-05T08:30:02Z</time>
      </trkpt>
      <trkpt lat="48.4027700" lon="8.0160360">
        <ele>-224.8</ele>
        <time>2022-06-05T08:30:06Z</time>
      </trkpt>
      <trkpt lat="48.4027700" lon="8.0160360">
        <ele>-225.0</ele>
        <time>2022-06-05T08:30:10Z</time>
      </trkpt>
      <trkpt lat="48.4027700" lon="8.0160360">
        <ele>-224.6</ele>
        <time>2022-06-05T08:30:14Z</time>
      </trkpt>
      <trkpt lat="48.4027660" lon="8.0160530">
        <ele>-224.6</ele>
        <time>2022-06-05T08:30:18Z</time>
      </trkpt>
      <trkpt lat="48.4027730" lon="8.0160800">
        <ele>-224.2</ele>
        <time>2022-06-05T08:30:22Z</time>
      </trkpt>
      <trkpt lat="48.4027950" lon="8.0161550">
        <ele>-224.4</ele>
        <time>2022-06-05T08:30:26Z</time>
      </trkpt>
      <trkpt lat="48.4028330" lon="8.0162980">
        <ele>-224.4</ele>
        <time>2022-06-05T08:30:30Z</time>
      </trkpt>
      <trkpt lat="48.4028400" lon="8.0164810">
        <ele>-224.0</ele>
        <time>2022-06-05T08:30:34Z</time>
      </trkpt>
      <trkpt lat="48.4028630" lon="8.0166960">
        <ele>-224.0</ele>
        <time>2022-06-05T08:30:38Z</time>
      </trkpt>
      <trkpt lat="48.4028860" lon="8.0169330">
        <ele>-224.2</ele>
        <time>2022-06-05T08:30:42Z</time>
      </trkpt>
      <trkpt lat="48.4028880" lon="8.0171910">
        <ele>-224.6</ele>
        <time>2022-06-05T08:30:46Z</time>
      </trkpt>
      <trkpt lat="48.4028860" lon="8.0174760">
        <ele>-223.4</ele>
        <time>2022-06-05T08:30:50Z</time>
      </trkpt>
      <trkpt lat="48.4029080" lon="8.0177600">
        <ele>-224.2</ele>
        <time>2022-06-05T08:30:54Z</time>
      </trkpt>
      <trkpt lat="48.4029260" lon="8.0180180">
        <ele>-223.2</ele>
        <time>2022-06-05T08:30:58Z</time>
      </trkpt>
      <trkpt lat="48.4029330" lon="8.0182680">
        <ele>-223.4</ele>
        <time>2022-06-05T08:31:02Z</time>
      </trkpt>
      <trkpt lat="48.4029380" lon="8.0185260">
        <ele>-223.8</ele>
        <time>2022-06-05T08:31:06Z</time>
      </trkpt>
      <trkpt lat="48.4029400" lon="8.0187830">
        <ele>-224.0</ele>
        <time>2022-06-05T08:31:10Z</time>
      </trkpt>
      <trkpt lat="48.4029230" lon="8.0190300">
        <ele>-223.8</ele>
        <time>2022-06-05T08:31:14Z</time>
      </trkpt>
      <trkpt lat="48.4029080" lon="8.0192830">
        <ele>-223.8</ele>
        <time>2022-06-05T08:31:18Z</time>
      </trkpt>
      <trkpt lat="48.4028810" lon="8.0195500">
        <ele>-223.8</ele>
        <time>2022-06-05T08:31:22Z</time>
      </trkpt>
      <trkpt lat="48.4028530" lon="8.0198180">
        <ele>-224.4</ele>
        <time>2022-06-05T08:31:26Z</time>
      </trkpt>
      <trkpt lat="48.4028130" lon="8.0200910">
        <ele>-224.6</ele>
        <time>2022-06-05T08:31:30Z</time>
      </trkpt>
      <trkpt lat="48.4027760" lon="8.0203700">
        <ele>-224.2</ele>
        <time>2022-06-05T08:31:34Z</time>
      </trkpt>
      <trkpt lat="48.4027200" lon="8.0206610">
        <ele>-224.6</ele>
        <time>2022-06-05T08:31:38Z</time>
      </trkpt>
      <trkpt lat="48.4026660" lon="8.0209530">
        <ele>-224.8</ele>
        <time>2022-06-05T08:31:42Z</time>
      </trkpt>
      <trkpt lat="48.4025980" lon="8.0212330">
        <ele>-224.6</ele>
        <time>2022-06-05T08:31:46Z</time>
      </trkpt>
      <trkpt lat="48.4025250" lon="8.0215130">
        <ele>-224.6</ele>
        <time>2022-06-05T08:31:50Z</time>
      </trkpt>
      <trkpt lat="48.4024400" lon="8.0217860">
        <ele>-225.0</ele>
        <time>2022-06-05T08:31:54Z</time>
      </trkpt>
      <trkpt lat="48.4023560" lon="8.0220580">
        <ele>-224.8</ele>
        <time>2022-06-05T08:31:58Z</time>
      </trkpt>
      <trkpt lat="48.4022680" lon="8.0223250">
        <ele>-225.0</ele>
        <time>2022-06-05T08:32:02Z</time>
      </trkpt>
      <trkpt lat="48.4021750" lon="8.0225830">
        <ele>-225.2</ele>
        <time>2022-06-05T08:32:06Z</time>
      </trkpt>
      <trkpt lat="48.4020750" lon="8.0228380">
        <ele>-224.6</ele>
        <time>2022-06-05T08:32:10Z</time>
      </trkpt>
      <trkpt lat="48.4019660" lon="8.0230750">
        <ele>-225.0</ele>
        <time>2022-06-05T08:32:14Z</time>
      </trkpt>
      <trkpt lat="48.4018500" lon="8.0233100">
        <ele>-224.8</ele>
        <time>2022-06-05T08:32:18Z</time>
      </trkpt>
      <trkpt lat="48.4017250" lon="8.0235480">
        <ele>-224.6</ele>
        <time>2022-06-05T08:32:22Z</time>
      </trkpt>
      <trkpt lat="48.4016060" lon="8.0237800">
        <ele>-225.0</ele>
        <time>2022-06-05T08:32:26Z</time>
      </trkpt>
      <trkpt lat="48.4014800" lon="8.0240050">
        <ele>-224.2</ele>
        <time>2022-06-05T08:32:30Z</time>
      </trkpt>
      <trkpt lat="48.4013430" lon="8.0242180">
        <ele>-225.0</ele>
        <time>2022-06-05T08:32:34Z</time>
      </trkpt>
      <trkpt lat="48.4012060" lon="8.0244200">
        <ele>-224.2</ele>
        <time>2022-06-05T08:32:38Z</time>
      </trkpt>
      <trkpt lat="48.4010630" lon="8.0246200">
        <ele>-224.2</ele>
        <time>2022-06-05T08:32:42Z</time>
      </trkpt>
      <trkpt lat="48.4009100" lon="8.0248050">
        <ele>-224.2</ele>
        <time>2022-06-05T08:32:46Z</time>
      </trkpt>
      <trkpt lat="48.4007530" lon="8.0249930">
        <ele>-223.8</ele>
        <time>2022-06-05T08:32:50Z</time>
      </trkpt>
      <trkpt lat="48.4005980" lon="8.0251750">
        <ele>-223.8</ele>
        <time>2022-06-05T08:32:54Z</time>
      </trkpt>
      <trkpt lat="48.4004410" lon="8.0253460">
        <ele>-223.6</ele>
        <time>2022-06-05T08:32:58Z</time>
      </trkpt>
      <trkpt lat="48.4002800" lon="8.0255130">
        <ele>-224.4</ele>
        <time>2022-06-05T08:33:02Z</time>
      </trkpt>
      <trkpt lat="48.4001150" lon="8.0256780">
        <ele>-223.4</ele>
        <time>2022-06-05T08:33:06Z</time>
      </trkpt>
      <trkpt lat="48.3999480" lon="8.0258330">
        <ele>-223.4</ele>
        <time>2022-06-05T08:33:10Z</time>
      </trkpt>
      <trkpt lat="48.3997900" lon="8.0259930">
        <ele>-223.0</ele>
        <time>2022-06-05T08:33:14Z</time>
      </trkpt>
      <trkpt lat="48.3996280" lon="8.0261300">
        <ele>-223.2</ele>
        <time>2022-06-05T08:33:18Z</time>
      </trkpt>
      <trkpt lat="48.3994650" lon="8.0262760">
        <ele>-223.2</ele>
        <time>2022-06-05T08:33:22Z</time>
      </trkpt>
      <trkpt lat="48.3992980" lon="8.0264180">
        <ele>-223.4</ele>
        <time>2022-06-05T08:33:26Z</time>
      </trkpt>
      <trkpt lat="48.3991250" lon="8.0265750">
        <ele>-223.6</ele>
        <time>2022-06-05T08:33:30Z</time>
      </trkpt>
      <trkpt lat="48.3989510" lon="8.0267280">
        <ele>-223.4</ele>
        <time>2022-06-05T08:33:34Z</time>
      </trkpt>
      <trkpt lat="48.3987760" lon="8.0268850">
        <ele>-224.2</ele>
        <time>2022-06-05T08:33:38Z</time>
      </trkpt>
      <trkpt lat="48.3986010" lon="8.0270410">
        <ele>-224.6</ele>
        <time>2022-06-05T08:33:42Z</time>
      </trkpt>
      <trkpt lat="48.3984230" lon="8.0272000">
        <ele>-224.4</ele>
        <time>2022-06-05T08:33:46Z</time>
      </trkpt>
      <trkpt lat="48.3982480" lon="8.0273600">
        <ele>-224.8</ele>
        <time>2022-06-05T08:33:50Z</time>
      </trkpt>
      <trkpt lat="48.3980780" lon="8.0275180">
        <ele>-226.0</ele>
        <time>2022-06-05T08:33:54Z</time>
      </trkpt>
      <trkpt lat="48.3979050" lon="8.0276630">
        <ele>-225.2</ele>
        <time>2022-06-05T08:33:58Z</time>
      </trkpt>
      <trkpt lat="48.3977280" lon="8.0278210">
        <ele>-224.6</ele>
        <time>2022-06-05T08:34:02Z</time>
      </trkpt>
      <trkpt lat="48.3975510" lon="8.0279730">
        <ele>-224.6</ele>
        <time>2022-06-05T08:34:06Z</time>
      </trkpt>
      <trkpt lat="48.3973710" lon="8.0281280">
        <ele>-224.6</ele>
        <time>2022-06-05T08:34:10Z</time>
      </trkpt>
      <trkpt lat="48.3971960" lon="8.0282830">
        <ele>-225.6</ele>
        <time>2022-06-05T08:34:14Z</time>
      </trkpt>
      <trkpt lat="48.3970280" lon="8.0284330">
        <ele>-225.2</ele>
        <time>2022-06-05T08:34:18Z</time>
      </trkpt>
      <trkpt lat="48.3968980" lon="8.0285710">
        <ele>-225.0</ele>
        <time>2022-06-05T08:34:22Z</time>
      </trkpt>
      <trkpt lat="48.3967680" lon="8.0286780">
        <ele>-225.2</ele>
        <time>2022-06-05T08:34:26Z</time>
      </trkpt>
      <trkpt lat="48.3966760" lon="8.0287810">
        <ele>-225.0</ele>
        <time>2022-06-05T08:34:30Z</time>
      </trkpt>
      <trkpt lat="48.3967100" lon="8.0287850">
        <ele>-225.2</ele>
        <time>2022-06-05T08:34:34Z</time>
      </trkpt>
      <trkpt lat="48.3967480" lon="8.0287780">
        <ele>-225.2</ele>
        <time>2022-06-05T08:34:38Z</time>
      </trkpt>
      <trkpt lat="48.3967480" lon="8.0287780">
        <ele>-225.0</ele>
        <time>2022-06-05T08:34:42Z</time>
      </trkpt>
      <trkpt lat="48.3967480" lon="8.0287780">
        <ele>-225.0</ele>
        <time>2022-06-05T08:34:46Z</time>
      </trkpt>
      <trkpt lat="48.3967480" lon="8.0287780">
        <ele>-225.0</ele>
        <time>2022-06-05T08:34:50Z</time>
      </trkpt>
      <trkpt lat="48.3967480" lon="8.0287780">
        <ele>-224.6</ele>
        <time>2022-06-05T08:34:54Z</time>
      </trkpt>
      <trkpt lat="48.3967480" lon="8.0287780">
        <ele>-224.8</ele>
        <time>2022-06-05T08:34:58Z</time>
      </trkpt>
      <trkpt lat="48.3967480" lon="8.0287780">
        <ele>-225.2</ele>
        <time>2022-06-05T08:35:02Z</time>
      </trkpt>
      <trkpt lat="48.3967480" lon="8.0287780">
        <ele>-225.0</ele>
        <time>2022-06-05T08:35:06Z</time>
      </trkpt>
      <trkpt lat="48.3967480" lon="8.0287780">
        <ele>-225.2</ele>
        <time>2022-06-05T08:35:10Z</time>
      </trkpt>
      <trkpt lat="48.3967480" lon="8.0287780">
        <ele>-225.0</ele>
        <time>2022-06-05T08:35:14Z</time>
      </trkpt>
      <trkpt lat="48.3967480" lon="8.0287780">
        <ele>-225.2</ele>
        <time>2022-06-05T08:35:18Z</time>
      </trkpt>
      <trkpt lat="48.3967480" lon="8.0287780">
        <ele>-225.2</ele>
        <time>2022-06-05T08:35:22Z</time>
      </trkpt>
      <trkpt lat="48.3967480" lon="8.0287780">
        <ele>-225.0</ele>
        <time>2022-06-05T08:35:26Z</time>
      </trkpt>
      <trkpt lat="48.3967480" lon="8.0287780">
        <ele>-225.0</ele>
        <time>2022-06-05T08:35:30Z</time>
      </trkpt>
      <trkpt lat="48.3967480" lon="8.0287780">
        <ele>-225.4</ele>
        <time>2022-06-05T08:35:34Z</time>
      </trkpt>
      <trkpt lat="48.3967550" lon="8.0287700">
        <ele>-225.2</ele>
        <time>2022-06-05T08:35:38Z</time>
      </trkpt>
      <trkpt lat="48.3967550" lon="8.0287700">
        <ele>-225.0</ele>
        <time>2022-06-05T08:35:42Z</time>
      </trkpt>
      <trkpt lat="48.3967550" lon="8.0287700">
        <ele>-225.2</ele>
        <time>2022-06-05T08:35:46Z</time>
      </trkpt>
      <trkpt lat="48.3967550" lon="8.0287700">
        <ele>-225.2</ele>
        <time>2022-06-05T08:35:50Z</time>
      </trkpt>
      <trkpt lat="48.3967550" lon="8.0287700">
        <ele>-225.2</ele>
        <time>2022-06-05T08:35:54Z</time>
      </trkpt>
      <trkpt lat="48.3967550" lon="8.0287700">
        <ele>-225.2</ele>
        <time>2022-06-05T08:35:58Z</time>
      </trkpt>
      <trkpt lat="48.3967550" lon="8.0287700">
        <ele>-225.4</ele>
        <time>2022-06-05T08:36:02Z</time>
      </trkpt>
      <trkpt lat="48.3967550" lon="8.0287700">
        <ele>-225.4</ele>
        <time>2022-06-05T08:36:06Z</time>
      </trkpt>
      <trkpt lat="48.3967550" lon="8.0287700">
        <ele>-225.4</ele>
        <time>2022-06-05T08:36:10Z</time>
      </trkpt>
      <trkpt lat="48.3967550" lon="8.0287700">
        <ele>-225.6</ele>
        <time>2022-06-05T08:36:14Z</time>
      </trkpt>
      <trkpt lat="48.3967550" lon="8.0287700">
        <ele>-225.6</ele>
        <time>2022-06-05T08:36:18Z</time>
      </trkpt>
      <trkpt lat="48.3967550" lon="8.0287700">
        <ele>-225.8</ele>
        <time>2022-06-05T08:36:22Z</time>
      </trkpt>
      <trkpt lat="48.3967550" lon="8.0287700">
        <ele>-226.0</ele>
        <time>2022-06-05T08:36:26Z</time>
      </trkpt>
      <trkpt lat="48.3967550" lon="8.0287700">
        <ele>-226.2</ele>
        <time>2022-06-05T08:36:30Z</time>
      </trkpt>
      <trkpt lat="48.3967550" lon="8.0287700">
        <ele>-225.6</ele>
        <time>2022-06-05T08:36:34Z</time>
      </trkpt>
      <trkpt lat="48.3967550" lon="8.0287700">
        <ele>-226.0</ele>
        <time>2022-06-05T08:36:38Z</time>
      </trkpt>
      <trkpt lat="48.3967550" lon="8.0287700">
        <ele>-225.8</ele>
        <time>2022-06-05T08:36:42Z</time>
      </trkpt>
      <trkpt lat="48.3967550" lon="8.0287700">
        <ele>-226.2</ele>
        <time>2022-06-05T08:36:46Z</time>
      </trkpt>
      <trkpt lat="48.3967550" lon="8.0287700">
        <ele>-225.6</ele>
        <time>2022-06-05T08:36:50Z</time>
      </trkpt>
      <trkpt lat="48.3967550" lon="8.0287700">
        <ele>-225.8</ele>
        <time>2022-06-05T08:36:54Z</time>
      </trkpt>
      <trkpt lat="48.3967550" lon="8.0287700">
        <ele>-226.0</ele>
        <time>2022-06-05T08:36:58Z</time>
      </trkpt>
      <trkpt lat="48.3967550" lon="8.0287700">
        <ele>-226.2</ele>
        <time>2022-06-05T08:37:02Z</time>
      </trkpt>
      <trkpt lat="48.3967550" lon="8.0287700">
        <ele>-225.6</ele>
        <time>2022-06-05T08:37:06Z</time>
      </trkpt>
      <trkpt lat="48.3967550" lon="8.0287700">
        <ele>-226.0</ele>
        <time>2022-06-05T08:37:10Z</time>
      </trkpt>
      <trkpt lat="48.3967550" lon="8.0287700">
        <ele>-226.0</ele>
        <time>2022-06-05T08:37:14Z</time>
      </trkpt>
      <trkpt lat="48.3967210" lon="8.0287530">
        <ele>-226.0</ele>
        <time>2022-06-05T08:37:18Z</time>
      </trkpt>
      <trkpt lat="48.3966830" lon="8.0288210">
        <ele>-225.8</ele>
        <time>2022-06-05T08:37:22Z</time>
      </trkpt>
      <trkpt lat="48.3965930" lon="8.0288930">
        <ele>-225.8</ele>
        <time>2022-06-05T08:37:26Z</time>
      </trkpt>
      <trkpt lat="48.3964810" lon="8.0289930">
        <ele>-226.2</ele>
        <time>2022-06-05T08:37:30Z</time>
      </trkpt>
      <trkpt lat="48.3963660" lon="8.0291050">
        <ele>-226.2</ele>
        <time>2022-06-05T08:37:34Z</time>
      </trkpt>
      <trkpt lat="48.3962350" lon="8.0292310">
        <ele>-225.8</ele>
        <time>2022-06-05T08:37:38Z</time>
      </trkpt>
      <trkpt lat="48.3961000" lon="8.0293710">
        <ele>-226.0</ele>
        <time>2022-06-05T08:37:42Z</time>
      </trkpt>
      <trkpt lat="48.3959530" lon="8.0295200">
        <ele>-226.0</ele>
        <time>2022-06-05T08:37:46Z</time>
      </trkpt>
      <trkpt lat="48.3957850" lon="8.0296650">
        <ele>-225.6</ele>
        <time>2022-06-05T08:37:50Z</time>
      </trkpt>
      <trkpt lat="48.3956150" lon="8.0298330">
        <ele>-226.2</ele>
        <time>2022-06-05T08:37:54Z</time>
      </trkpt>
      <trkpt lat="48.3954360" lon="8.0299980">
        <ele>-226.0</ele>
        <time>2022-06-05T08:37:58Z</time>
      </trkpt>
      <trkpt lat="48.3952630" lon="8.0301610">
        <ele>-225.6</ele>
        <time>2022-06-05T08:38:02Z</time>
      </trkpt>
      <trkpt lat="48.3950830" lon="8.0303210">
        <ele>-225.8</ele>
        <time>2022-06-05T08:38:06Z</time>
      </trkpt>
      <trkpt lat="48.3949030" lon="8.0304860">
        <ele>-226.2</ele>
        <time>2022-06-05T08:38:10Z</time>
      </trkpt>
      <trkpt lat="48.3947230" lon="8.0306580">
        <ele>-226.6</ele>
        <time>2022-06-05T08:38:14Z</time>
      </trkpt>
      <trkpt lat="48.3945430" lon="8.0308280">
        <ele>-226.6</ele>
        <time>2022-06-05T08:38:18Z</time>
      </trkpt>
      <trkpt lat="48.3943680" lon="8.0309950">
        <ele>-227.2</ele>
        <time>2022-06-05T08:38:22Z</time>
      </trkpt>
      <trkpt lat="48.3941930" lon="8.0311500">
        <ele>-226.2</ele>
        <time>2022-06-05T08:38:26Z</time>
      </trkpt>
      <trkpt lat="48.3940200" lon="8.0313060">
        <ele>-226.2</ele>
        <time>2022-06-05T08:38:30Z</time>
      </trkpt>
      <trkpt lat="48.3938510" lon="8.0314600">
        <ele>-226.2</ele>
        <time>2022-06-05T08:38:34Z</time>
      </trkpt>
      <trkpt lat="48.3936830" lon="8.0316080">
        <ele>-226.0</ele>
        <time>2022-06-05T08:38:38Z</time>
      </trkpt>
      <trkpt lat="48.3935130" lon="8.0317600">
        <ele>-226.2</ele>
        <time>2022-06-05T08:38:42Z</time>
      </trkpt>
      <trkpt lat="48.3933300" lon="8.0319010">
        <ele>-226.2</ele>
        <time>2022-06-05T08:38:46Z</time>
      </trkpt>
      <trkpt lat="48.3931560" lon="8.0320600">
        <ele>-225.4</ele>
        <time>2022-06-05T08:38:50Z</time>
      </trkpt>
      <trkpt lat="48.3929730" lon="8.0322150">
        <ele>-224.4</ele>
        <time>2022-06-05T08:38:54Z</time>
      </trkpt>
      <trkpt lat="48.3928050" lon="8.0323710">
        <ele>-224.8</ele>
        <time>2022-06-05T08:38:58Z</time>
      </trkpt>
      <trkpt lat="48.3926350" lon="8.0325250">
        <ele>-224.6</ele>
        <time>2022-06-05T08:39:02Z</time>
      </trkpt>
      <trkpt lat="48.3924610" lon="8.0326710">
        <ele>-224.0</ele>
        <time>2022-06-05T08:39:06Z</time>
      </trkpt>
      <trkpt lat="48.3923010" lon="8.0328080">
        <ele>-224.6</ele>
        <time>2022-06-05T08:39:10Z</time>
      </trkpt>
      <trkpt lat="48.3921580" lon="8.0329400">
        <ele>-224.2</ele>
        <time>2022-06-05T08:39:14Z</time>
      </trkpt>
      <trkpt lat="48.3920160" lon="8.0330460">
        <ele>-224.2</ele>
        <time>2022-06-05T08:39:18Z</time>
      </trkpt>
      <trkpt lat="48.3918700" lon="8.0331600">
        <ele>-224.2</ele>
        <time>2022-06-05T08:39:22Z</time>
      </trkpt>
      <trkpt lat="48.3917160" lon="8.0333110">
        <ele>-223.8</ele>
        <time>2022-06-05T08:39:26Z</time>
      </trkpt>
      <trkpt lat="48.3915380" lon="8.0334350">
        <ele>-223.8</ele>
        <time>2022-06-05T08:39:30Z</time>
      </trkpt>
      <trkpt lat="48.3913530" lon="8.0335500">
        <ele>-223.6</ele>
        <time>2022-06-05T08:39:34Z</time>
      </trkpt>
      <trkpt lat="48.3911800" lon="8.0336780">
        <ele>-222.8</ele>
        <time>2022-06-05T08:39:38Z</time>
      </trkpt>
      <trkpt lat="48.3910130" lon="8.0338130">
        <ele>-223.4</ele>
        <time>2022-06-05T08:39:42Z</time>
      </trkpt>
      <trkpt lat="48.3908410" lon="8.0339280">
        <ele>-222.8</ele>
        <time>2022-06-05T08:39:46Z</time>
      </trkpt>
      <trkpt lat="48.3906780" lon="8.0340330">
        <ele>-222.6</ele>
        <time>2022-06-05T08:39:50Z</time>
      </trkpt>
      <trkpt lat="48.3905260" lon="8.0341280">
        <ele>-223.0</ele>
        <time>2022-06-05T08:39:54Z</time>
      </trkpt>
      <trkpt lat="48.3904010" lon="8.0342080">
        <ele>-222.2</ele>
        <time>2022-06-05T08:39:58Z</time>
      </trkpt>
      <trkpt lat="48.3903030" lon="8.0342560">
        <ele>-222.8</ele>
        <time>2022-06-05T08:40:02Z</time>
      </trkpt>
      <trkpt lat="48.3902350" lon="8.0343010">
        <ele>-222.8</ele>
        <time>2022-06-05T08:40:06Z</time>
      </trkpt>
      <trkpt lat="48.3901660" lon="8.0343000">
        <ele>-223.0</ele>
        <time>2022-06-05T08:40:10Z</time>
      </trkpt>
      <trkpt lat="48.3901250" lon="8.0342510">
        <ele>-223.0</ele>
        <time>2022-06-05T08:40:14Z</time>
      </trkpt>
      <trkpt lat="48.3900400" lon="8.0342600">
        <ele>-223.2</ele>
        <time>2022-06-05T08:40:18Z</time>
      </trkpt>
      <trkpt lat="48.3898910" lon="8.0343050">
        <ele>-223.2</ele>
        <time>2022-06-05T08:40:22Z</time>
      </trkpt>
      <trkpt lat="48.3897210" lon="8.0344010">
        <ele>-223.4</ele>
        <time>2022-06-05T08:40:26Z</time>
      </trkpt>
      <trkpt lat="48.3895500" lon="8.0345130">
        <ele>-223.2</ele>
        <time>2022-06-05T08:40:30Z</time>
      </trkpt>
      <trkpt lat="48.3893600" lon="8.0345510">
        <ele>-224.2</ele>
        <time>2022-06-05T08:40:34Z</time>
      </trkpt>
      <trkpt lat="48.3891580" lon="8.0346030">
        <ele>-223.0</ele>
        <time>2022-06-05T08:40:38Z</time>
      </trkpt>
      <trkpt lat="48.3889580" lon="8.0346510">
        <ele>-223.8</ele>
        <time>2022-06-05T08:40:42Z</time>
      </trkpt>
      <trkpt lat="48.3887530" lon="8.0346900">
        <ele>-223.6</ele>
        <time>2022-06-05T08:40:46Z</time>
      </trkpt>
      <trkpt lat="48.3885630" lon="8.0347400">
        <ele>-223.2</ele>
        <time>2022-06-05T08:40:50Z</time>
      </trkpt>
      <trkpt lat="48.3883760" lon="8.0347760">
        <ele>-223.0</ele>
        <time>2022-06-05T08:40:54Z</time>
      </trkpt>
      <trkpt lat="48.3881980" lon="8.0348150">
        <ele>-222.8</ele>
        <time>2022-06-05T08:40:58Z</time>
      </trkpt>
      <trkpt lat="48.3880130" lon="8.0348410">
        <ele>-223.2</ele>
        <time>2022-06-05T08:41:02Z</time>
      </trkpt>
      <trkpt lat="48.3878250" lon="8.0348650">
        <ele>-223.8</ele>
        <time>2022-06-05T08:41:06Z</time>
      </trkpt>
      <trkpt lat="48.3876260" lon="8.0348880">
        <ele>-223.8</ele>
        <time>2022-06-05T08:41:10Z</time>
      </trkpt>
      <trkpt lat="48.3874310" lon="8.0349100">
        <ele>-223.4</ele>
        <time>2022-06-05T08:41:14Z</time>
      </trkpt>
      <trkpt lat="48.3872360" lon="8.0349010">
        <ele>-223.4</ele>
        <time>2022-06-05T08:41:18Z</time>
      </trkpt>
      <trkpt lat="48.3870330" lon="8.0348610">
        <ele>-223.8</ele>
        <time>2022-06-05T08:41:22Z</time>
      </trkpt>
      <trkpt lat="48.3868250" lon="8.0348600">
        <ele>-223.8</ele>
        <time>2022-06-05T08:41:26Z</time>
      </trkpt>
      <trkpt lat="48.3866230" lon="8.0348630">
        <ele>-223.6</ele>
        <time>2022-06-05T08:41:30Z</time>
      </trkpt>
      <trkpt lat="48.3864300" lon="8.0348400">
        <ele>-223.4</ele>
        <time>2022-06-05T08:41:34Z</time>
      </trkpt>
      <trkpt lat="48.3862360" lon="8.0348260">
        <ele>-223.2</ele>
        <time>2022-06-05T08:41:38Z</time>
      </trkpt>
      <trkpt lat="48.3860380" lon="8.0348110">
        <ele>-222.8</ele>
        <time>2022-06-05T08:41:42Z</time>
      </trkpt>
      <trkpt lat="48.3858430" lon="8.0347910">
        <ele>-222.4</ele>
        <time>2022-06-05T08:41:46Z</time>
      </trkpt>
      <trkpt lat="48.3856460" lon="8.0347580">
        <ele>-222.0</ele>
        <time>2022-06-05T08:41:50Z</time>
      </trkpt>
      <trkpt lat="48.3854500" lon="8.0347310">
        <ele>-222.4</ele>
        <time>2022-06-05T08:41:54Z</time>
      </trkpt>
      <trkpt lat="48.3852500" lon="8.0346960">
        <ele>-222.6</ele>
        <time>2022-06-05T08:41:58Z</time>
      </trkpt>
      <trkpt lat="48.3850500" lon="8.0346680">
        <ele>-222.4</ele>
        <time>2022-06-05T08:42:02Z</time>
      </trkpt>
      <trkpt lat="48.3848500" lon="8.0346300">
        <ele>-222.6</ele>
        <time>2022-06-05T08:42:06Z</time>
      </trkpt>
      <trkpt lat="48.3846510" lon="8.0346150">
        <ele>-222.6</ele>
        <time>2022-06-05T08:42:10Z</time>
      </trkpt>
      <trkpt lat="48.3844430" lon="8.0346050">
        <ele>-223.0</ele>
        <time>2022-06-05T08:42:14Z</time>
      </trkpt>
      <trkpt lat="48.3842430" lon="8.0345460">
        <ele>-221.2</ele>
        <time>2022-06-05T08:42:18Z</time>
      </trkpt>
      <trkpt lat="48.3840410" lon="8.0344830">
        <ele>-222.4</ele>
        <time>2022-06-05T08:42:22Z</time>
      </trkpt>
      <trkpt lat="48.3838310" lon="8.0344410">
        <ele>-222.0</ele>
        <time>2022-06-05T08:42:26Z</time>
      </trkpt>
      <trkpt lat="48.3836260" lon="8.0343750">
        <ele>-222.8</ele>
        <time>2022-06-05T08:42:30Z</time>
      </trkpt>
      <trkpt lat="48.3834200" lon="8.0343230">
        <ele>-223.6</ele>
        <time>2022-06-05T08:42:34Z</time>
      </trkpt>
      <trkpt lat="48.3832110" lon="8.0342580">
        <ele>-222.0</ele>
        <time>2022-06-05T08:42:38Z</time>
      </trkpt>
      <trkpt lat="48.3830050" lon="8.0342060">
        <ele>-222.0</ele>
        <time>2022-06-05T08:42:42Z</time>
      </trkpt>
      <trkpt lat="48.3827980" lon="8.0341430">
        <ele>-222.0</ele>
        <time>2022-06-05T08:42:46Z</time>
      </trkpt>
      <trkpt lat="48.3826100" lon="8.0340910">
        <ele>-221.8</ele>
        <time>2022-06-05T08:42:50Z</time>
      </trkpt>
      <trkpt lat="48.3824660" lon="8.0341300">
        <ele>-223.2</ele>
        <time>2022-06-05T08:42:54Z</time>
      </trkpt>
      <trkpt lat="48.3823010" lon="8.0341110">
        <ele>-222.4</ele>
        <time>2022-06-05T08:42:58Z</time>
      </trkpt>
      <trkpt lat="48.3821300" lon="8.0339860">
        <ele>-223.0</ele>
        <time>2022-06-05T08:43:02Z</time>
      </trkpt>
      <trkpt lat="48.3819330" lon="8.0339310">
        <ele>-222.2</ele>
        <time>2022-06-05T08:43:06Z</time>
      </trkpt>
      <trkpt lat="48.3817360" lon="8.0338760">
        <ele>-222.8</ele>
        <time>2022-06-05T08:43:10Z</time>
      </trkpt>
      <trkpt lat="48.3815430" lon="8.0338250">
        <ele>-222.6</ele>
        <time>2022-06-05T08:43:14Z</time>
      </trkpt>
      <trkpt lat="48.3813550" lon="8.0337700">
        <ele>-222.8</ele>
        <time>2022-06-05T08:43:18Z</time>
      </trkpt>
      <trkpt lat="48.3811630" lon="8.0337150">
        <ele>-222.6</ele>
        <time>2022-06-05T08:43:22Z</time>
      </trkpt>
      <trkpt lat="48.3809680" lon="8.0336650">
        <ele>-222.2</ele>
        <time>2022-06-05T08:43:26Z</time>
      </trkpt>
      <trkpt lat="48.3807750" lon="8.0336060">
        <ele>-222.8</ele>
        <time>2022-06-05T08:43:30Z</time>
      </trkpt>
      <trkpt lat="48.3805910" lon="8.0336730">
        <ele>-222.4</ele>
        <time>2022-06-05T08:43:34Z</time>
      </trkpt>
      <trkpt lat="48.3805130" lon="8.0339610">
        <ele>-222.2</ele>
        <time>2022-06-05T08:43:38Z</time>
      </trkpt>
      <trkpt lat="48.3804410" lon="8.0342580">
        <ele>-222.6</ele>
        <time>2022-06-05T08:43:42Z</time>
      </trkpt>
      <trkpt lat="48.3803480" lon="8.0344910">
        <ele>-223.2</ele>
        <time>2022-06-05T08:43:46Z</time>
      </trkpt>
      <trkpt lat="48.3801350" lon="8.0344550">
        <ele>-223.4</ele>
        <time>2022-06-05T08:43:50Z</time>
      </trkpt>
      <trkpt lat="48.3799100" lon="8.0344980">
        <ele>-223.8</ele>
        <time>2022-06-05T08:43:54Z</time>
      </trkpt>
      <trkpt lat="48.3796980" lon="8.0346000">
        <ele>-224.2</ele>
        <time>2022-06-05T08:43:58Z</time>
      </trkpt>
      <trkpt lat="48.3795000" lon="8.0347060">
        <ele>-224.4</ele>
        <time>2022-06-05T08:44:02Z</time>
      </trkpt>
      <trkpt lat="48.3793030" lon="8.0348100">
        <ele>-224.2</ele>
        <time>2022-06-05T08:44:06Z</time>
      </trkpt>
      <trkpt lat="48.3791060" lon="8.0349180">
        <ele>-223.2</ele>
        <time>2022-06-05T08:44:10Z</time>
      </trkpt>
      <trkpt lat="48.3789200" lon="8.0350400">
        <ele>-223.4</ele>
        <time>2022-06-05T08:44:14Z</time>
      </trkpt>
      <trkpt lat="48.3787280" lon="8.0351610">
        <ele>-224.2</ele>
        <time>2022-06-05T08:44:18Z</time>
      </trkpt>
      <trkpt lat="48.3785230" lon="8.0352080">
        <ele>-223.8</ele>
        <time>2022-06-05T08:44:22Z</time>
      </trkpt>
      <trkpt lat="48.3783200" lon="8.0351630">
        <ele>-223.8</ele>
        <time>2022-06-05T08:44:26Z</time>
      </trkpt>
      <trkpt lat="48.3781250" lon="8.0350760">
        <ele>-223.6</ele>
        <time>2022-06-05T08:44:30Z</time>
      </trkpt>
      <trkpt lat="48.3779310" lon="8.0349810">
        <ele>-223.6</ele>
        <time>2022-06-05T08:44:34Z</time>
      </trkpt>
      <trkpt lat="48.3777400" lon="8.0348810">
        <ele>-223.2</ele>
        <time>2022-06-05T08:44:38Z</time>
      </trkpt>
      <trkpt lat="48.3775460" lon="8.0347700">
        <ele>-223.2</ele>
        <time>2022-06-05T08:44:42Z</time>
      </trkpt>
      <trkpt lat="48.3773750" lon="8.0346230">
        <ele>-223.4</ele>
        <time>2022-06-05T08:44:46Z</time>
      </trkpt>
      <trkpt lat="48.3772430" lon="8.0344200">
        <ele>-223.2</ele>
        <time>2022-06-05T08:44:50Z</time>
      </trkpt>
      <trkpt lat="48.3771110" lon="8.0342050">
        <ele>-223.2</ele>
        <time>2022-06-05T08:44:54Z</time>
      </trkpt>
      <trkpt lat="48.3769450" lon="8.0340210">
        <ele>-223.0</ele>
        <time>2022-06-05T08:44:58Z</time>
      </trkpt>
      <trkpt lat="48.3767710" lon="8.0338630">
        <ele>-222.6</ele>
        <time>2022-06-05T08:45:02Z</time>
      </trkpt>
      <trkpt lat="48.3766050" lon="8.0337080">
        <ele>-222.6</ele>
        <time>2022-06-05T08:45:06Z</time>
      </trkpt>
      <trkpt lat="48.3764350" lon="8.0335500">
        <ele>-222.6</ele>
        <time>2022-06-05T08:45:10Z</time>
      </trkpt>
      <trkpt lat="48.3762650" lon="8.0333960">
        <ele>-222.6</ele>
        <time>2022-06-05T08:45:14Z</time>
      </trkpt>
      <trkpt lat="48.3761010" lon="8.0332360">
        <ele>-221.6</ele>
        <time>2022-06-05T08:45:18Z</time>
      </trkpt>
      <trkpt lat="48.3759380" lon="8.0330780">
        <ele>-222.2</ele>
        <time>2022-06-05T08:45:22Z</time>
      </trkpt>
      <trkpt lat="48.3757780" lon="8.0329110">
        <ele>-222.4</ele>
        <time>2022-06-05T08:45:26Z</time>
      </trkpt>
      <trkpt lat="48.3756130" lon="8.0327430">
        <ele>-222.0</ele>
        <time>2022-06-05T08:45:30Z</time>
      </trkpt>
      <trkpt lat="48.3754500" lon="8.0325750">
        <ele>-222.2</ele>
        <time>2022-06-05T08:45:34Z</time>
      </trkpt>
      <trkpt lat="48.3753930" lon="8.0323400">
        <ele>-221.2</ele>
        <time>2022-06-05T08:45:38Z</time>
      </trkpt>
      <trkpt lat="48.3753680" lon="8.0320950">
        <ele>-222.0</ele>
        <time>2022-06-05T08:45:42Z</time>
      </trkpt>
      <trkpt lat="48.3751880" lon="8.0320430">
        <ele>-221.0</ele>
        <time>2022-06-05T08:45:46Z</time>
      </trkpt>
      <trkpt lat="48.3749960" lon="8.0320030">
        <ele>-221.6</ele>
        <time>2022-06-05T08:45:50Z</time>
      </trkpt>
      <trkpt lat="48.3748050" lon="8.0319480">
        <ele>-221.0</ele>
        <time>2022-06-05T08:45:54Z</time>
      </trkpt>
      <trkpt lat="48.3746100" lon="8.0318950">
        <ele>-221.2</ele>
        <time>2022-06-05T08:45:58Z</time>
      </trkpt>
      <trkpt lat="48.3744130" lon="8.0318360">
        <ele>-222.4</ele>
        <time>2022-06-05T08:46:02Z</time>
      </trkpt>
      <trkpt lat="48.3742250" lon="8.0317810">
        <ele>-221.4</ele>
        <time>2022-06-05T08:46:06Z</time>
      </trkpt>
      <trkpt lat="48.3740380" lon="8.0317300">
        <ele>-221.2</ele>
        <time>2022-06-05T08:46:10Z</time>
      </trkpt>
      <trkpt lat="48.3738510" lon="8.0316810">
        <ele>-221.0</ele>
        <time>2022-06-05T08:46:14Z</time>
      </trkpt>
      <trkpt lat="48.3736710" lon="8.0316350">
        <ele>-221.4</ele>
        <time>2022-06-05T08:46:18Z</time>
      </trkpt>
      <trkpt lat="48.3734900" lon="8.0315910">
        <ele>-221.6</ele>
        <time>2022-06-05T08:46:22Z</time>
      </trkpt>
      <trkpt lat="48.3733100" lon="8.0315510">
        <ele>-221.8</ele>
        <time>2022-06-05T08:46:26Z</time>
      </trkpt>
      <trkpt lat="48.3731210" lon="8.0315150">
        <ele>-221.6</ele>
        <time>2022-06-05T08:46:30Z</time>
      </trkpt>
      <trkpt lat="48.3729430" lon="8.0314710">
        <ele>-220.4</ele>
        <time>2022-06-05T08:46:34Z</time>
      </trkpt>
      <trkpt lat="48.3727750" lon="8.0314350">
        <ele>-220.6</ele>
        <time>2022-06-05T08:46:38Z</time>
      </trkpt>
      <trkpt lat="48.3726180" lon="8.0313880">
        <ele>-219.0</ele>
        <time>2022-06-05T08:46:42Z</time>
      </trkpt>
      <trkpt lat="48.3724750" lon="8.0313300">
        <ele>-220.2</ele>
        <time>2022-06-05T08:46:46Z</time>
      </trkpt>
      <trkpt lat="48.3723200" lon="8.0313050">
        <ele>-220.4</ele>
        <time>2022-06-05T08:46:50Z</time>
      </trkpt>
      <trkpt lat="48.3721410" lon="8.0312980">
        <ele>-220.0</ele>
        <time>2022-06-05T08:46:54Z</time>
      </trkpt>
      <trkpt lat="48.3719730" lon="8.0313300">
        <ele>-220.0</ele>
        <time>2022-06-05T08:46:58Z</time>
      </trkpt>
      <trkpt lat="48.3718130" lon="8.0314030">
        <ele>-219.2</ele>
        <time>2022-06-05T08:47:02Z</time>
      </trkpt>
      <trkpt lat="48.3716550" lon="8.0314900">
        <ele>-218.8</ele>
        <time>2022-06-05T08:47:06Z</time>
      </trkpt>
      <trkpt lat="48.3715000" lon="8.0315810">
        <ele>-219.2</ele>
        <time>2022-06-05T08:47:10Z</time>
      </trkpt>
      <trkpt lat="48.3713760" lon="8.0317680">
        <ele>-218.4</ele>
        <time>2022-06-05T08:47:14Z</time>
      </trkpt>
      <trkpt lat="48.3712730" lon="8.0319310">
        <ele>-217.6</ele>
        <time>2022-06-05T08:47:18Z</time>
      </trkpt>
      <trkpt lat="48.3711880" lon="8.0321260">
        <ele>-218.2</ele>
        <time>2022-06-05T08:47:22Z</time>
      </trkpt>
      <trkpt lat="48.3711130" lon="8.0323360">
        <ele>-217.6</ele>
        <time>2022-06-05T08:47:26Z</time>
      </trkpt>
      <trkpt lat="48.3710300" lon="8.0325460">
        <ele>-217.6</ele>
        <time>2022-06-05T08:47:30Z</time>
      </trkpt>
      <trkpt lat="48.3709310" lon="8.0327510">
        <ele>-217.6</ele>
        <time>2022-06-05T08:47:34Z</time>
      </trkpt>
      <trkpt lat="48.3708030" lon="8.0329360">
        <ele>-217.6</ele>
        <time>2022-06-05T08:47:38Z</time>
      </trkpt>
      <trkpt lat="48.3706480" lon="8.0330880">
        <ele>-217.6</ele>
        <time>2022-06-05T08:47:42Z</time>
      </trkpt>
      <trkpt lat="48.3704880" lon="8.0332160">
        <ele>-217.2</ele>
        <time>2022-06-05T08:47:46Z</time>
      </trkpt>
      <trkpt lat="48.3703310" lon="8.0333360">
        <ele>-217.0</ele>
        <time>2022-06-05T08:47:50Z</time>
      </trkpt>
      <trkpt lat="48.3701880" lon="8.0334430">
        <ele>-216.4</ele>
        <time>2022-06-05T08:47:54Z</time>
      </trkpt>
      <trkpt lat="48.3700150" lon="8.0335300">
        <ele>-216.8</ele>
        <time>2022-06-05T08:47:58Z</time>
      </trkpt>
      <trkpt lat="48.3697980" lon="8.0335760">
        <ele>-215.8</ele>
        <time>2022-06-05T08:48:02Z</time>
      </trkpt>
      <trkpt lat="48.3695800" lon="8.0335860">
        <ele>-216.0</ele>
        <time>2022-06-05T08:48:06Z</time>
      </trkpt>
      <trkpt lat="48.3693550" lon="8.0335630">
        <ele>-215.8</ele>
        <time>2022-06-05T08:48:10Z</time>
      </trkpt>
      <trkpt lat="48.3691400" lon="8.0335000">
        <ele>-217.4</ele>
        <time>2022-06-05T08:48:14Z</time>
      </trkpt>
      <trkpt lat="48.3689410" lon="8.0334060">
        <ele>-216.2</ele>
        <time>2022-06-05T08:48:18Z</time>
      </trkpt>
      <trkpt lat="48.3687510" lon="8.0332830">
        <ele>-216.0</ele>
        <time>2022-06-05T08:48:22Z</time>
      </trkpt>
      <trkpt lat="48.3685610" lon="8.0331510">
        <ele>-216.0</ele>
        <time>2022-06-05T08:48:26Z</time>
      </trkpt>
      <trkpt lat="48.3683630" lon="8.0330130">
        <ele>-216.2</ele>
        <time>2022-06-05T08:48:30Z</time>
      </trkpt>
      <trkpt lat="48.3681680" lon="8.0328900">
        <ele>-215.6</ele>
        <time>2022-06-05T08:48:34Z</time>
      </trkpt>
      <trkpt lat="48.3679580" lon="8.0328180">
        <ele>-214.2</ele>
        <time>2022-06-05T08:48:38Z</time>
      </trkpt>
      <trkpt lat="48.3677480" lon="8.0327710">
        <ele>-215.8</ele>
        <time>2022-06-05T08:48:42Z</time>
      </trkpt>
      <trkpt lat="48.3675330" lon="8.0327550">
        <ele>-215.8</ele>
        <time>2022-06-05T08:48:46Z</time>
      </trkpt>
      <trkpt lat="48.3673260" lon="8.0327950">
        <ele>-215.0</ele>
        <time>2022-06-05T08:48:50Z</time>
      </trkpt>
      <trkpt lat="48.3671200" lon="8.0328560">
        <ele>-215.0</ele>
        <time>2022-06-05T08:48:54Z</time>
      </trkpt>
      <trkpt lat="48.3669210" lon="8.0329450">
        <ele>-215.2</ele>
        <time>2022-06-05T08:48:58Z</time>
      </trkpt>
      <trkpt lat="48.3667280" lon="8.0330630">
        <ele>-214.2</ele>
        <time>2022-06-05T08:49:02Z</time>
      </trkpt>
      <trkpt lat="48.3665300" lon="8.0331810">
        <ele>-214.0</ele>
        <time>2022-06-05T08:49:06Z</time>
      </trkpt>
      <trkpt lat="48.3663160" lon="8.0332460">
        <ele>-213.8</ele>
        <time>2022-06-05T08:49:10Z</time>
      </trkpt>
      <trkpt lat="48.3661000" lon="8.0332450">
        <ele>-214.0</ele>
        <time>2022-06-05T08:49:14Z</time>
      </trkpt>
      <trkpt lat="48.3659250" lon="8.0332150">
        <ele>-213.6</ele>
        <time>2022-06-05T08:49:18Z</time>
      </trkpt>
      <trkpt lat="48.3657630" lon="8.0332050">
        <ele>-213.0</ele>
        <time>2022-06-05T08:49:22Z</time>
      </trkpt>
      <trkpt lat="48.3655950" lon="8.0332130">
        <ele>-212.0</ele>
        <time>2022-06-05T08:49:26Z</time>
      </trkpt>
      <trkpt lat="48.3654230" lon="8.0332210">
        <ele>-211.8</ele>
        <time>2022-06-05T08:49:30Z</time>
      </trkpt>
      <trkpt lat="48.3652480" lon="8.0332310">
        <ele>-211.2</ele>
        <time>2022-06-05T08:49:34Z</time>
      </trkpt>
      <trkpt lat="48.3650980" lon="8.0332360">
        <ele>-210.6</ele>
        <time>2022-06-05T08:49:38Z</time>
      </trkpt>
      <trkpt lat="48.3649530" lon="8.0332380">
        <ele>-210.4</ele>
        <time>2022-06-05T08:49:42Z</time>
      </trkpt>
      <trkpt lat="48.3647910" lon="8.0332400">
        <ele>-210.8</ele>
        <time>2022-06-05T08:49:46Z</time>
      </trkpt>
      <trkpt lat="48.3646460" lon="8.0331330">
        <ele>-211.6</ele>
        <time>2022-06-05T08:49:50Z</time>
      </trkpt>
      <trkpt lat="48.3646200" lon="8.0328180">
        <ele>-212.0</ele>
        <time>2022-06-05T08:49:54Z</time>
      </trkpt>
      <trkpt lat="48.3645860" lon="8.0324680">
        <ele>-214.0</ele>
        <time>2022-06-05T08:49:58Z</time>
      </trkpt>
      <trkpt lat="48.3644650" lon="8.0321500">
        <ele>-214.0</ele>
        <time>2022-06-05T08:50:02Z</time>
      </trkpt>
      <trkpt lat="48.3642980" lon="8.0318600">
        <ele>-215.6</ele>
        <time>2022-06-05T08:50:06Z</time>
      </trkpt>
      <trkpt lat="48.3641630" lon="8.0315310">
        <ele>-216.0</ele>
        <time>2022-06-05T08:50:10Z</time>
      </trkpt>
      <trkpt lat="48.3640030" lon="8.0312230">
        <ele>-218.4</ele>
        <time>2022-06-05T08:50:14Z</time>
      </trkpt>
      <trkpt lat="48.3638410" lon="8.0311650">
        <ele>-217.0</ele>
        <time>2022-06-05T08:50:18Z</time>
      </trkpt>
      <trkpt lat="48.3636900" lon="8.0311260">
        <ele>-217.4</ele>
        <time>2022-06-05T08:50:22Z</time>
      </trkpt>
      <trkpt lat="48.3634960" lon="8.0311530">
        <ele>-217.0</ele>
        <time>2022-06-05T08:50:26Z</time>
      </trkpt>
      <trkpt lat="48.3633410" lon="8.0313760">
        <ele>-217.2</ele>
        <time>2022-06-05T08:50:30Z</time>
      </trkpt>
      <trkpt lat="48.3632410" lon="8.0316630">
        <ele>-217.0</ele>
        <time>2022-06-05T08:50:34Z</time>
      </trkpt>
      <trkpt lat="48.3632060" lon="8.0319660">
        <ele>-217.0</ele>
        <time>2022-06-05T08:50:38Z</time>
      </trkpt>
      <trkpt lat="48.3631050" lon="8.0322550">
        <ele>-217.0</ele>
        <time>2022-06-05T08:50:42Z</time>
      </trkpt>
      <trkpt lat="48.3629610" lon="8.0325260">
        <ele>-217.4</ele>
        <time>2022-06-05T08:50:46Z</time>
      </trkpt>
      <trkpt lat="48.3627910" lon="8.0327600">
        <ele>-217.6</ele>
        <time>2022-06-05T08:50:50Z</time>
      </trkpt>
      <trkpt lat="48.3625980" lon="8.0329700">
        <ele>-217.6</ele>
        <time>2022-06-05T08:50:54Z</time>
      </trkpt>
      <trkpt lat="48.3623880" lon="8.0331580">
        <ele>-217.4</ele>
        <time>2022-06-05T08:50:58Z</time>
      </trkpt>
      <trkpt lat="48.3621810" lon="8.0333050">
        <ele>-218.2</ele>
        <time>2022-06-05T08:51:02Z</time>
      </trkpt>
      <trkpt lat="48.3619880" lon="8.0333910">
        <ele>-218.2</ele>
        <time>2022-06-05T08:51:06Z</time>
      </trkpt>
      <trkpt lat="48.3618010" lon="8.0333510">
        <ele>-217.8</ele>
        <time>2022-06-05T08:51:10Z</time>
      </trkpt>
      <trkpt lat="48.3616480" lon="8.0332230">
        <ele>-218.2</ele>
        <time>2022-06-05T08:51:14Z</time>
      </trkpt>
      <trkpt lat="48.3614960" lon="8.0330580">
        <ele>-217.8</ele>
        <time>2022-06-05T08:51:18Z</time>
      </trkpt>
      <trkpt lat="48.3613460" lon="8.0328980">
        <ele>-218.6</ele>
        <time>2022-06-05T08:51:22Z</time>
      </trkpt>
      <trkpt lat="48.3611880" lon="8.0327580">
        <ele>-217.6</ele>
        <time>2022-06-05T08:51:26Z</time>
      </trkpt>
      <trkpt lat="48.3610200" lon="8.0326680">
        <ele>-217.8</ele>
        <time>2022-06-05T08:51:30Z</time>
      </trkpt>
      <trkpt lat="48.3608350" lon="8.0326060">
        <ele>-218.0</ele>
        <time>2022-06-05T08:51:34Z</time>
      </trkpt>
      <trkpt lat="48.3606530" lon="8.0325750">
        <ele>-217.6</ele>
        <time>2022-06-05T08:51:38Z</time>
      </trkpt>
      <trkpt lat="48.3604810" lon="8.0325450">
        <ele>-217.0</ele>
        <time>2022-06-05T08:51:42Z</time>
      </trkpt>
      <trkpt lat="48.3603110" lon="8.0325200">
        <ele>-217.2</ele>
        <time>2022-06-05T08:51:46Z</time>
      </trkpt>
      <trkpt lat="48.3601360" lon="8.0324910">
        <ele>-216.4</ele>
        <time>2022-06-05T08:51:50Z</time>
      </trkpt>
      <trkpt lat="48.3599610" lon="8.0324500">
        <ele>-217.0</ele>
        <time>2022-06-05T08:51:54Z</time>
      </trkpt>
      <trkpt lat="48.3597830" lon="8.0324110">
        <ele>-216.4</ele>
        <time>2022-06-05T08:51:58Z</time>
      </trkpt>
      <trkpt lat="48.3596010" lon="8.0323810">
        <ele>-216.0</ele>
        <time>2022-06-05T08:52:02Z</time>
      </trkpt>
      <trkpt lat="48.3594100" lon="8.0323610">
        <ele>-215.8</ele>
        <time>2022-06-05T08:52:06Z</time>
      </trkpt>
      <trkpt lat="48.3592280" lon="8.0323130">
        <ele>-216.8</ele>
        <time>2022-06-05T08:52:10Z</time>
      </trkpt>
      <trkpt lat="48.3590600" lon="8.0322330">
        <ele>-216.8</ele>
        <time>2022-06-05T08:52:14Z</time>
      </trkpt>
      <trkpt lat="48.3588930" lon="8.0321350">
        <ele>-215.4</ele>
        <time>2022-06-05T08:52:18Z</time>
      </trkpt>
      <trkpt lat="48.3587310" lon="8.0320050">
        <ele>-215.2</ele>
        <time>2022-06-05T08:52:22Z</time>
      </trkpt>
      <trkpt lat="48.3585850" lon="8.0318500">
        <ele>-216.2</ele>
        <time>2022-06-05T08:52:26Z</time>
      </trkpt>
      <trkpt lat="48.3584480" lon="8.0316760">
        <ele>-216.2</ele>
        <time>2022-06-05T08:52:30Z</time>
      </trkpt>
      <trkpt lat="48.3583200" lon="8.0314960">
        <ele>-215.4</ele>
        <time>2022-06-05T08:52:34Z</time>
      </trkpt>
      <trkpt lat="48.3581880" lon="8.0313080">
        <ele>-216.0</ele>
        <time>2022-06-05T08:52:38Z</time>
      </trkpt>
      <trkpt lat="48.3580480" lon="8.0311210">
        <ele>-215.4</ele>
        <time>2022-06-05T08:52:42Z</time>
      </trkpt>
      <trkpt lat="48.3578950" lon="8.0309350">
        <ele>-215.8</ele>
        <time>2022-06-05T08:52:46Z</time>
      </trkpt>
      <trkpt lat="48.3577210" lon="8.0308180">
        <ele>-216.0</ele>
        <time>2022-06-05T08:52:50Z</time>
      </trkpt>
      <trkpt lat="48.3575310" lon="8.0307950">
        <ele>-215.2</ele>
        <time>2022-06-05T08:52:54Z</time>
      </trkpt>
      <trkpt lat="48.3573410" lon="8.0307800">
        <ele>-215.6</ele>
        <time>2022-06-05T08:52:58Z</time>
      </trkpt>
      <trkpt lat="48.3571610" lon="8.0307700">
        <ele>-215.0</ele>
        <time>2022-06-05T08:53:02Z</time>
      </trkpt>
      <trkpt lat="48.3569830" lon="8.0307600">
        <ele>-215.4</ele>
        <time>2022-06-05T08:53:06Z</time>
      </trkpt>
      <trkpt lat="48.3567960" lon="8.0307600">
        <ele>-215.4</ele>
        <time>2022-06-05T08:53:10Z</time>
      </trkpt>
      <trkpt lat="48.3566210" lon="8.0307880">
        <ele>-215.4</ele>
        <time>2022-06-05T08:53:14Z</time>
      </trkpt>
      <trkpt lat="48.3564980" lon="8.0309480">
        <ele>-215.8</ele>
        <time>2022-06-05T08:53:18Z</time>
      </trkpt>
      <trkpt lat="48.3563850" lon="8.0312000">
        <ele>-216.0</ele>
        <time>2022-06-05T08:53:22Z</time>
      </trkpt>
      <trkpt lat="48.3562560" lon="8.0314210">
        <ele>-215.6</ele>
        <time>2022-06-05T08:53:26Z</time>
      </trkpt>
      <trkpt lat="48.3561110" lon="8.0315760">
        <ele>-215.8</ele>
        <time>2022-06-05T08:53:30Z</time>
      </trkpt>
      <trkpt lat="48.3559510" lon="8.0316900">
        <ele>-215.4</ele>
        <time>2022-06-05T08:53:34Z</time>
      </trkpt>
      <trkpt lat="48.3557860" lon="8.0318050">
        <ele>-215.0</ele>
        <time>2022-06-05T08:53:38Z</time>
      </trkpt>
      <trkpt lat="48.3556380" lon="8.0319410">
        <ele>-215.0</ele>
        <time>2022-06-05T08:53:42Z</time>
      </trkpt>
      <trkpt lat="48.3555280" lon="8.0321530">
        <ele>-215.4</ele>
        <time>2022-06-05T08:53:46Z</time>
      </trkpt>
      <trkpt lat="48.3554850" lon="8.0324100">
        <ele>-215.6</ele>
        <time>2022-06-05T08:53:50Z</time>
      </trkpt>
      <trkpt lat="48.3553650" lon="8.0326010">
        <ele>-215.0</ele>
        <time>2022-06-05T08:53:54Z</time>
      </trkpt>
      <trkpt lat="48.3551880" lon="8.0326130">
        <ele>-216.0</ele>
        <time>2022-06-05T08:53:58Z</time>
      </trkpt>
      <trkpt lat="48.3550180" lon="8.0325780">
        <ele>-215.6</ele>
        <time>2022-06-05T08:54:02Z</time>
      </trkpt>
      <trkpt lat="48.3548480" lon="8.0325430">
        <ele>-215.2</ele>
        <time>2022-06-05T08:54:06Z</time>
      </trkpt>
      <trkpt lat="48.3546800" lon="8.0324830">
        <ele>-215.0</ele>
        <time>2022-06-05T08:54:10Z</time>
      </trkpt>
      <trkpt lat="48.3545010" lon="8.0324410">
        <ele>-215.6</ele>
        <time>2022-06-05T08:54:14Z</time>
      </trkpt>
      <trkpt lat="48.3543100" lon="8.0323860">
        <ele>-216.0</ele>
        <time>2022-06-05T08:54:18Z</time>
      </trkpt>
      <trkpt lat="48.3541160" lon="8.0323630">
        <ele>-215.6</ele>
        <time>2022-06-05T08:54:22Z</time>
      </trkpt>
      <trkpt lat="48.3539310" lon="8.0323730">
        <ele>-214.6</ele>
        <time>2022-06-05T08:54:26Z</time>
      </trkpt>
      <trkpt lat="48.3537410" lon="8.0323900">
        <ele>-214.2</ele>
        <time>2022-06-05T08:54:30Z</time>
      </trkpt>
      <trkpt lat="48.3535460" lon="8.0323730">
        <ele>-215.2</ele>
        <time>2022-06-05T08:54:34Z</time>
      </trkpt>
      <trkpt lat="48.3533560" lon="8.0323060">
        <ele>-215.8</ele>
        <time>2022-06-05T08:54:38Z</time>
      </trkpt>
      <trkpt lat="48.3531680" lon="8.0322280">
        <ele>-215.0</ele>
        <time>2022-06-05T08:54:42Z</time>
      </trkpt>
      <trkpt lat="48.3529780" lon="8.0321760">
        <ele>-215.6</ele>
        <time>2022-06-05T08:54:46Z</time>
      </trkpt>
      <trkpt lat="48.3527860" lon="8.0321750">
        <ele>-214.4</ele>
        <time>2022-06-05T08:54:50Z</time>
      </trkpt>
      <trkpt lat="48.3525930" lon="8.0321710">
        <ele>-214.4</ele>
        <time>2022-06-05T08:54:54Z</time>
      </trkpt>
      <trkpt lat="48.3524010" lon="8.0321160">
        <ele>-214.8</ele>
        <time>2022-06-05T08:54:58Z</time>
      </trkpt>
      <trkpt lat="48.3522110" lon="8.0320930">
        <ele>-214.6</ele>
        <time>2022-06-05T08:55:02Z</time>
      </trkpt>
      <trkpt lat="48.3520180" lon="8.0321380">
        <ele>-214.4</ele>
        <time>2022-06-05T08:55:06Z</time>
      </trkpt>
      <trkpt lat="48.3518280" lon="8.0322100">
        <ele>-214.2</ele>
        <time>2022-06-05T08:55:10Z</time>
      </trkpt>
      <trkpt lat="48.3516310" lon="8.0322800">
        <ele>-214.2</ele>
        <time>2022-06-05T08:55:14Z</time>
      </trkpt>
      <trkpt lat="48.3514300" lon="8.0323060">
        <ele>-214.2</ele>
        <time>2022-06-05T08:55:18Z</time>
      </trkpt>
      <trkpt lat="48.3512310" lon="8.0323380">
        <ele>-215.0</ele>
        <time>2022-06-05T08:55:22Z</time>
      </trkpt>
      <trkpt lat="48.3510410" lon="8.0324500">
        <ele>-214.0</ele>
        <time>2022-06-05T08:55:26Z</time>
      </trkpt>
      <trkpt lat="48.3508460" lon="8.0325510">
        <ele>-214.0</ele>
        <time>2022-06-05T08:55:30Z</time>
      </trkpt>
      <trkpt lat="48.3506500" lon="8.0325660">
        <ele>-214.0</ele>
        <time>2022-06-05T08:55:34Z</time>
      </trkpt>
      <trkpt lat="48.3504530" lon="8.0325850">
        <ele>-214.2</ele>
        <time>2022-06-05T08:55:38Z</time>
      </trkpt>
      <trkpt lat="48.3502700" lon="8.0326760">
        <ele>-214.6</ele>
        <time>2022-06-05T08:55:42Z</time>
      </trkpt>
      <trkpt lat="48.3501030" lon="8.0327930">
        <ele>-213.8</ele>
        <time>2022-06-05T08:55:46Z</time>
      </trkpt>
      <trkpt lat="48.3499260" lon="8.0328630">
        <ele>-213.6</ele>
        <time>2022-06-05T08:55:50Z</time>
      </trkpt>
      <trkpt lat="48.3497550" lon="8.0329200">
        <ele>-213.8</ele>
        <time>2022-06-05T08:55:54Z</time>
      </trkpt>
      <trkpt lat="48.3495760" lon="8.0329800">
        <ele>-213.8</ele>
        <time>2022-06-05T08:55:58Z</time>
      </trkpt>
      <trkpt lat="48.3493850" lon="8.0330030">
        <ele>-213.2</ele>
        <time>2022-06-05T08:56:02Z</time>
      </trkpt>
      <trkpt lat="48.3491980" lon="8.0330800">
        <ele>-213.0</ele>
        <time>2022-06-05T08:56:06Z</time>
      </trkpt>
      <trkpt lat="48.3490130" lon="8.0331650">
        <ele>-213.4</ele>
        <time>2022-06-05T08:56:10Z</time>
      </trkpt>
      <trkpt lat="48.3488330" lon="8.0332510">
        <ele>-212.8</ele>
        <time>2022-06-05T08:56:14Z</time>
      </trkpt>
      <trkpt lat="48.3486560" lon="8.0333450">
        <ele>-213.2</ele>
        <time>2022-06-05T08:56:18Z</time>
      </trkpt>
      <trkpt lat="48.3484850" lon="8.0334250">
        <ele>-213.0</ele>
        <time>2022-06-05T08:56:22Z</time>
      </trkpt>
      <trkpt lat="48.3483130" lon="8.0335030">
        <ele>-213.2</ele>
        <time>2022-06-05T08:56:26Z</time>
      </trkpt>
      <trkpt lat="48.3481350" lon="8.0335900">
        <ele>-213.2</ele>
        <time>2022-06-05T08:56:30Z</time>
      </trkpt>
      <trkpt lat="48.3479530" lon="8.0336750">
        <ele>-212.6</ele>
        <time>2022-06-05T08:56:34Z</time>
      </trkpt>
      <trkpt lat="48.3477760" lon="8.0337680">
        <ele>-212.8</ele>
        <time>2022-06-05T08:56:38Z</time>
      </trkpt>
      <trkpt lat="48.3475950" lon="8.0338450">
        <ele>-211.8</ele>
        <time>2022-06-05T08:56:42Z</time>
      </trkpt>
      <trkpt lat="48.3474200" lon="8.0339380">
        <ele>-212.0</ele>
        <time>2022-06-05T08:56:46Z</time>
      </trkpt>
      <trkpt lat="48.3472350" lon="8.0340300">
        <ele>-212.6</ele>
        <time>2022-06-05T08:56:50Z</time>
      </trkpt>
      <trkpt lat="48.3470710" lon="8.0341210">
        <ele>-211.8</ele>
        <time>2022-06-05T08:56:54Z</time>
      </trkpt>
      <trkpt lat="48.3469010" lon="8.0342310">
        <ele>-211.2</ele>
        <time>2022-06-05T08:56:58Z</time>
      </trkpt>
      <trkpt lat="48.3467300" lon="8.0343160">
        <ele>-211.2</ele>
        <time>2022-06-05T08:57:02Z</time>
      </trkpt>
      <trkpt lat="48.3465600" lon="8.0344030">
        <ele>-211.2</ele>
        <time>2022-06-05T08:57:06Z</time>
      </trkpt>
      <trkpt lat="48.3463950" lon="8.0344910">
        <ele>-211.6</ele>
        <time>2022-06-05T08:57:10Z</time>
      </trkpt>
      <trkpt lat="48.3462350" lon="8.0345800">
        <ele>-211.2</ele>
        <time>2022-06-05T08:57:14Z</time>
      </trkpt>
      <trkpt lat="48.3460710" lon="8.0346630">
        <ele>-210.8</ele>
        <time>2022-06-05T08:57:18Z</time>
      </trkpt>
      <trkpt lat="48.3459000" lon="8.0347230">
        <ele>-210.4</ele>
        <time>2022-06-05T08:57:22Z</time>
      </trkpt>
      <trkpt lat="48.3457200" lon="8.0347750">
        <ele>-210.8</ele>
        <time>2022-06-05T08:57:26Z</time>
      </trkpt>
      <trkpt lat="48.3455360" lon="8.0347980">
        <ele>-211.0</ele>
        <time>2022-06-05T08:57:30Z</time>
      </trkpt>
      <trkpt lat="48.3454250" lon="8.0346030">
        <ele>-211.0</ele>
        <time>2022-06-05T08:57:34Z</time>
      </trkpt>
      <trkpt lat="48.3453760" lon="8.0343050">
        <ele>-211.6</ele>
        <time>2022-06-05T08:57:38Z</time>
      </trkpt>
      <trkpt lat="48.3453260" lon="8.0340000">
        <ele>-210.6</ele>
        <time>2022-06-05T08:57:42Z</time>
      </trkpt>
      <trkpt lat="48.3452750" lon="8.0336950">
        <ele>-211.4</ele>
        <time>2022-06-05T08:57:46Z</time>
      </trkpt>
      <trkpt lat="48.3452230" lon="8.0333860">
        <ele>-212.2</ele>
        <time>2022-06-05T08:57:50Z</time>
      </trkpt>
      <trkpt lat="48.3451730" lon="8.0330850">
        <ele>-212.0</ele>
        <time>2022-06-05T08:57:54Z</time>
      </trkpt>
      <trkpt lat="48.3451260" lon="8.0327950">
        <ele>-211.8</ele>
        <time>2022-06-05T08:57:58Z</time>
      </trkpt>
      <trkpt lat="48.3450730" lon="8.0325010">
        <ele>-211.2</ele>
        <time>2022-06-05T08:58:02Z</time>
      </trkpt>
      <trkpt lat="48.3450180" lon="8.0322180">
        <ele>-211.8</ele>
        <time>2022-06-05T08:58:06Z</time>
      </trkpt>
      <trkpt lat="48.3449600" lon="8.0319400">
        <ele>-211.8</ele>
        <time>2022-06-05T08:58:10Z</time>
      </trkpt>
      <trkpt lat="48.3448980" lon="8.0316660">
        <ele>-211.0</ele>
        <time>2022-06-05T08:58:14Z</time>
      </trkpt>
      <trkpt lat="48.3448310" lon="8.0313910">
        <ele>-210.8</ele>
        <time>2022-06-05T08:58:18Z</time>
      </trkpt>
      <trkpt lat="48.3447580" lon="8.0311180">
        <ele>-212.0</ele>
        <time>2022-06-05T08:58:22Z</time>
      </trkpt>
      <trkpt lat="48.3446630" lon="8.0308500">
        <ele>-213.0</ele>
        <time>2022-06-05T08:58:26Z</time>
      </trkpt>
      <trkpt lat="48.3445030" lon="8.0307350">
        <ele>-212.0</ele>
        <time>2022-06-05T08:58:30Z</time>
      </trkpt>
      <trkpt lat="48.3443110" lon="8.0307750">
        <ele>-211.8</ele>
        <time>2022-06-05T08:58:34Z</time>
      </trkpt>
      <trkpt lat="48.3441250" lon="8.0308230">
        <ele>-211.4</ele>
        <time>2022-06-05T08:58:38Z</time>
      </trkpt>
      <trkpt lat="48.3439430" lon="8.0308580">
        <ele>-211.6</ele>
        <time>2022-06-05T08:58:42Z</time>
      </trkpt>
      <trkpt lat="48.3437680" lon="8.0309000">
        <ele>-211.4</ele>
        <time>2022-06-05T08:58:46Z</time>
      </trkpt>
      <trkpt lat="48.3435900" lon="8.0309430">
        <ele>-211.4</ele>
        <time>2022-06-05T08:58:50Z</time>
      </trkpt>
      <trkpt lat="48.3434060" lon="8.0309980">
        <ele>-210.6</ele>
        <time>2022-06-05T08:58:54Z</time>
      </trkpt>
      <trkpt lat="48.3432210" lon="8.0310430">
        <ele>-211.2</ele>
        <time>2022-06-05T08:58:58Z</time>
      </trkpt>
      <trkpt lat="48.3430330" lon="8.0310900">
        <ele>-211.2</ele>
        <time>2022-06-05T08:59:02Z</time>
      </trkpt>
      <trkpt lat="48.3428450" lon="8.0311600">
        <ele>-211.4</ele>
        <time>2022-06-05T08:59:06Z</time>
      </trkpt>
      <trkpt lat="48.3426660" lon="8.0312360">
        <ele>-211.6</ele>
        <time>2022-06-05T08:59:10Z</time>
      </trkpt>
      <trkpt lat="48.3424850" lon="8.0312810">
        <ele>-211.2</ele>
        <time>2022-06-05T08:59:14Z</time>
      </trkpt>
      <trkpt lat="48.3423010" lon="8.0313550">
        <ele>-210.8</ele>
        <time>2022-06-05T08:59:18Z</time>
      </trkpt>
      <trkpt lat="48.3421180" lon="8.0314180">
        <ele>-211.8</ele>
        <time>2022-06-05T08:59:22Z</time>
      </trkpt>
      <trkpt lat="48.3419380" lon="8.0314800">
        <ele>-210.8</ele>
        <time>2022-06-05T08:59:26Z</time>
      </trkpt>
      <trkpt lat="48.3417610" lon="8.0315460">
        <ele>-210.6</ele>
        <time>2022-06-05T08:59:30Z</time>
      </trkpt>
      <trkpt lat="48.3415860" lon="8.0316230">
        <ele>-212.6</ele>
        <time>2022-06-05T08:59:34Z</time>
      </trkpt>
      <trkpt lat="48.3414030" lon="8.0316960">
        <ele>-212.2</ele>
        <time>2022-06-05T08:59:38Z</time>
      </trkpt>
      <trkpt lat="48.3412080" lon="8.0317760">
        <ele>-210.2</ele>
        <time>2022-06-05T08:59:42Z</time>
      </trkpt>
      <trkpt lat="48.3410230" lon="8.0318560">
        <ele>-210.4</ele>
        <time>2022-06-05T08:59:46Z</time>
      </trkpt>
      <trkpt lat="48.3408400" lon="8.0319450">
        <ele>-211.2</ele>
        <time>2022-06-05T08:59:50Z</time>
      </trkpt>
      <trkpt lat="48.3406610" lon="8.0320110">
        <ele>-210.6</ele>
        <time>2022-06-05T08:59:54Z</time>
      </trkpt>
      <trkpt lat="48.3404850" lon="8.0320830">
        <ele>-210.6</ele>
        <time>2022-06-05T08:59:58Z</time>
      </trkpt>
      <trkpt lat="48.3403150" lon="8.0321350">
        <ele>-210.8</ele>
        <time>2022-06-05T09:00:02Z</time>
      </trkpt>
      <trkpt lat="48.3401550" lon="8.0321910">
        <ele>-211.2</ele>
        <time>2022-06-05T09:00:06Z</time>
      </trkpt>
      <trkpt lat="48.3400450" lon="8.0321180">
        <ele>-211.2</ele>
        <time>2022-06-05T09:00:10Z</time>
      </trkpt>
      <trkpt lat="48.3399760" lon="8.0318600">
        <ele>-212.2</ele>
        <time>2022-06-05T09:00:14Z</time>
      </trkpt>
      <trkpt lat="48.3398800" lon="8.0315710">
        <ele>-212.0</ele>
        <time>2022-06-05T09:00:18Z</time>
      </trkpt>
      <trkpt lat="48.3397900" lon="8.0313060">
        <ele>-211.6</ele>
        <time>2022-06-05T09:00:22Z</time>
      </trkpt>
      <trkpt lat="48.3396900" lon="8.0310650">
        <ele>-211.0</ele>
        <time>2022-06-05T09:00:26Z</time>
      </trkpt>
      <trkpt lat="48.3395580" lon="8.0309160">
        <ele>-210.6</ele>
        <time>2022-06-05T09:00:30Z</time>
      </trkpt>
      <trkpt lat="48.3393860" lon="8.0308210">
        <ele>-211.2</ele>
        <time>2022-06-05T09:00:34Z</time>
      </trkpt>
      <trkpt lat="48.3392080" lon="8.0308200">
        <ele>-210.0</ele>
        <time>2022-06-05T09:00:38Z</time>
      </trkpt>
      <trkpt lat="48.3390430" lon="8.0307930">
        <ele>-209.2</ele>
        <time>2022-06-05T09:00:42Z</time>
      </trkpt>
      <trkpt lat="48.3389080" lon="8.0306710">
        <ele>-209.8</ele>
        <time>2022-06-05T09:00:46Z</time>
      </trkpt>
      <trkpt lat="48.3388180" lon="8.0304810">
        <ele>-209.4</ele>
        <time>2022-06-05T09:00:50Z</time>
      </trkpt>
      <trkpt lat="48.3387960" lon="8.0302180">
        <ele>-209.0</ele>
        <time>2022-06-05T09:00:54Z</time>
      </trkpt>
      <trkpt lat="48.3388050" lon="8.0299350">
        <ele>-209.4</ele>
        <time>2022-06-05T09:00:58Z</time>
      </trkpt>
      <trkpt lat="48.3388250" lon="8.0296650">
        <ele>-209.6</ele>
        <time>2022-06-05T09:01:02Z</time>
      </trkpt>
      <trkpt lat="48.3388280" lon="8.0294050">
        <ele>-210.2</ele>
        <time>2022-06-05T09:01:06Z</time>
      </trkpt>
      <trkpt lat="48.3388180" lon="8.0291380">
        <ele>-210.4</ele>
        <time>2022-06-05T09:01:10Z</time>
      </trkpt>
      <trkpt lat="48.3388080" lon="8.0288730">
        <ele>-210.0</ele>
        <time>2022-06-05T09:01:14Z</time>
      </trkpt>
      <trkpt lat="48.3387860" lon="8.0285810">
        <ele>-210.6</ele>
        <time>2022-06-05T09:01:18Z</time>
      </trkpt>
      <trkpt lat="48.3387550" lon="8.0282950">
        <ele>-210.6</ele>
        <time>2022-06-05T09:01:22Z</time>
      </trkpt>
      <trkpt lat="48.3387450" lon="8.0280680">
        <ele>-211.0</ele>
        <time>2022-06-05T09:01:26Z</time>
      </trkpt>
      <trkpt lat="48.3386560" lon="8.0279660">
        <ele>-211.0</ele>
        <time>2022-06-05T09:01:30Z</time>
      </trkpt>
      <trkpt lat="48.3384800" lon="8.0280150">
        <ele>-211.8</ele>
        <time>2022-06-05T09:01:34Z</time>
      </trkpt>
      <trkpt lat="48.3383130" lon="8.0280850">
        <ele>-210.8</ele>
        <time>2022-06-05T09:01:38Z</time>
      </trkpt>
      <trkpt lat="48.3381580" lon="8.0281710">
        <ele>-210.6</ele>
        <time>2022-06-05T09:01:42Z</time>
      </trkpt>
      <trkpt lat="48.3380010" lon="8.0282350">
        <ele>-210.2</ele>
        <time>2022-06-05T09:01:46Z</time>
      </trkpt>
      <trkpt lat="48.3378430" lon="8.0282830">
        <ele>-210.2</ele>
        <time>2022-06-05T09:01:50Z</time>
      </trkpt>
      <trkpt lat="48.3377100" lon="8.0282300">
        <ele>-210.8</ele>
        <time>2022-06-05T09:01:54Z</time>
      </trkpt>
      <trkpt lat="48.3375760" lon="8.0281110">
        <ele>-210.6</ele>
        <time>2022-06-05T09:01:58Z</time>
      </trkpt>
      <trkpt lat="48.3374110" lon="8.0280160">
        <ele>-210.8</ele>
        <time>2022-06-05T09:02:02Z</time>
      </trkpt>
      <trkpt lat="48.3372560" lon="8.0279000">
        <ele>-210.6</ele>
        <time>2022-06-05T09:02:06Z</time>
      </trkpt>
      <trkpt lat="48.3371450" lon="8.0277110">
        <ele>-210.4</ele>
        <time>2022-06-05T09:02:10Z</time>
      </trkpt>
      <trkpt lat="48.3370960" lon="8.0274860">
        <ele>-210.4</ele>
        <time>2022-06-05T09:02:14Z</time>
      </trkpt>
      <trkpt lat="48.3370680" lon="8.0272500">
        <ele>-210.4</ele>
        <time>2022-06-05T09:02:18Z</time>
      </trkpt>
      <trkpt lat="48.3369830" lon="8.0270400">
        <ele>-209.8</ele>
        <time>2022-06-05T09:02:22Z</time>
      </trkpt>
      <trkpt lat="48.3369000" lon="8.0268200">
        <ele>-210.2</ele>
        <time>2022-06-05T09:02:26Z</time>
      </trkpt>
      <trkpt lat="48.3368160" lon="8.0266080">
        <ele>-209.4</ele>
        <time>2022-06-05T09:02:30Z</time>
      </trkpt>
      <trkpt lat="48.3367400" lon="8.0264260">
        <ele>-209.0</ele>
        <time>2022-06-05T09:02:34Z</time>
      </trkpt>
      <trkpt lat="48.3366880" lon="8.0263250">
        <ele>-207.8</ele>
        <time>2022-06-05T09:02:38Z</time>
      </trkpt>
      <trkpt lat="48.3366400" lon="8.0262260">
        <ele>-207.8</ele>
        <time>2022-06-05T09:02:42Z</time>
      </trkpt>
      <trkpt lat="48.3365630" lon="8.0260660">
        <ele>-207.8</ele>
        <time>2022-06-05T09:02:46Z</time>
      </trkpt>
      <trkpt lat="48.3364830" lon="8.0259100">
        <ele>-207.0</ele>
        <time>2022-06-05T09:02:50Z</time>
      </trkpt>
      <trkpt lat="48.3364010" lon="8.0257400">
        <ele>-207.6</ele>
        <time>2022-06-05T09:02:54Z</time>
      </trkpt>
      <trkpt lat="48.3363200" lon="8.0255610">
        <ele>-207.2</ele>
        <time>2022-06-05T09:02:58Z</time>
      </trkpt>
      <trkpt lat="48.3362160" lon="8.0255030">
        <ele>-207.4</ele>
        <time>2022-06-05T09:03:02Z</time>
      </trkpt>
      <trkpt lat="48.3360810" lon="8.0256680">
        <ele>-206.6</ele>
        <time>2022-06-05T09:03:06Z</time>
      </trkpt>
      <trkpt lat="48.3359380" lon="8.0258210">
        <ele>-207.2</ele>
        <time>2022-06-05T09:03:10Z</time>
      </trkpt>
      <trkpt lat="48.3358080" lon="8.0259650">
        <ele>-207.0</ele>
        <time>2022-06-05T09:03:14Z</time>
      </trkpt>
      <trkpt lat="48.3356750" lon="8.0260550">
        <ele>-206.8</ele>
        <time>2022-06-05T09:03:18Z</time>
      </trkpt>
      <trkpt lat="48.3355150" lon="8.0258950">
        <ele>-208.2</ele>
        <time>2022-06-05T09:03:22Z</time>
      </trkpt>
      <trkpt lat="48.3353350" lon="8.0256910">
        <ele>-208.8</ele>
        <time>2022-06-05T09:03:26Z</time>
      </trkpt>
      <trkpt lat="48.3351550" lon="8.0254860">
        <ele>-209.0</ele>
        <time>2022-06-05T09:03:30Z</time>
      </trkpt>
      <trkpt lat="48.3349800" lon="8.0253200">
        <ele>-209.4</ele>
        <time>2022-06-05T09:03:34Z</time>
      </trkpt>
      <trkpt lat="48.3348400" lon="8.0252100">
        <ele>-209.0</ele>
        <time>2022-06-05T09:03:38Z</time>
      </trkpt>
      <trkpt lat="48.3347730" lon="8.0250580">
        <ele>-209.0</ele>
        <time>2022-06-05T09:03:42Z</time>
      </trkpt>
      <trkpt lat="48.3347960" lon="8.0249880">
        <ele>-209.4</ele>
        <time>2022-06-05T09:03:46Z</time>
      </trkpt>
      <trkpt lat="48.3347650" lon="8.0250180">
        <ele>-210.0</ele>
        <time>2022-06-05T09:03:50Z</time>
      </trkpt>
      <trkpt lat="48.3348010" lon="8.0248760">
        <ele>-209.6</ele>
        <time>2022-06-05T09:03:54Z</time>
      </trkpt>
      <trkpt lat="48.3348710" lon="8.0246510">
        <ele>-209.0</ele>
        <time>2022-06-05T09:03:58Z</time>
      </trkpt>
      <trkpt lat="48.3349250" lon="8.0244350">
        <ele>-209.4</ele>
        <time>2022-06-05T09:04:02Z</time>
      </trkpt>
      <trkpt lat="48.3348750" lon="8.0242600">
        <ele>-209.6</ele>
        <time>2022-06-05T09:04:06Z</time>
      </trkpt>
      <trkpt lat="48.3348750" lon="8.0242600">
        <ele>-209.6</ele>
        <time>2022-06-05T09:04:10Z</time>
      </trkpt>
      <trkpt lat="48.3348750" lon="8.0242600">
        <ele>-209.2</ele>
        <time>2022-06-05T09:04:14Z</time>
      </trkpt>
      <trkpt lat="48.3348380" lon="8.0242010">
        <ele>-209.8</ele>
        <time>2022-06-05T09:04:18Z</time>
      </trkpt>
      <trkpt lat="48.3347880" lon="8.0241630">
        <ele>-209.0</ele>
        <time>2022-06-05T09:04:22Z</time>
      </trkpt>
      <trkpt lat="48.3347230" lon="8.0241230">
        <ele>-208.8</ele>
        <time>2022-06-05T09:04:26Z</time>
      </trkpt>
      <trkpt lat="48.3346360" lon="8.0240660">
        <ele>-208.0</ele>
        <time>2022-06-05T09:04:30Z</time>
      </trkpt>
      <trkpt lat="48.3345450" lon="8.0240130">
        <ele>-207.2</ele>
        <time>2022-06-05T09:04:34Z</time>
      </trkpt>
      <trkpt lat="48.3344650" lon="8.0239510">
        <ele>-206.4</ele>
        <time>2022-06-05T09:04:38Z</time>
      </trkpt>
      <trkpt lat="48.3343830" lon="8.0239130">
        <ele>-205.4</ele>
        <time>2022-06-05T09:04:42Z</time>
      </trkpt>
      <trkpt lat="48.3342860" lon="8.0238960">
        <ele>-205.0</ele>
        <time>2022-06-05T09:04:46Z</time>
      </trkpt>
      <trkpt lat="48.3341750" lon="8.0239080">
        <ele>-204.0</ele>
        <time>2022-06-05T09:04:50Z</time>
      </trkpt>
      <trkpt lat="48.3340600" lon="8.0238950">
        <ele>-203.8</ele>
        <time>2022-06-05T09:04:54Z</time>
      </trkpt>
      <trkpt lat="48.3339650" lon="8.0238360">
        <ele>-202.6</ele>
        <time>2022-06-05T09:04:58Z</time>
      </trkpt>
      <trkpt lat="48.3338810" lon="8.0237380">
        <ele>-202.4</ele>
        <time>2022-06-05T09:05:02Z</time>
      </trkpt>
      <trkpt lat="48.3338130" lon="8.0236210">
        <ele>-202.0</ele>
        <time>2022-06-05T09:05:06Z</time>
      </trkpt>
      <trkpt lat="48.3337360" lon="8.0235160">
        <ele>-202.6</ele>
        <time>2022-06-05T09:05:10Z</time>
      </trkpt>
      <trkpt lat="48.3336550" lon="8.0234060">
        <ele>-202.2</ele>
        <time>2022-06-05T09:05:14Z</time>
      </trkpt>
      <trkpt lat="48.3335560" lon="8.0233880">
        <ele>-204.2</ele>
        <time>2022-06-05T09:05:18Z</time>
      </trkpt>
      <trkpt lat="48.3334130" lon="8.0235630">
        <ele>-205.2</ele>
        <time>2022-06-05T09:05:22Z</time>
      </trkpt>
      <trkpt lat="48.3332400" lon="8.0238200">
        <ele>-205.6</ele>
        <time>2022-06-05T09:05:26Z</time>
      </trkpt>
      <trkpt lat="48.3330180" lon="8.0240860">
        <ele>-206.8</ele>
        <time>2022-06-05T09:05:30Z</time>
      </trkpt>
      <trkpt lat="48.3327650" lon="8.0243010">
        <ele>-207.8</ele>
        <time>2022-06-05T09:05:34Z</time>
      </trkpt>
      <trkpt lat="48.3325080" lon="8.0244260">
        <ele>-207.4</ele>
        <time>2022-06-05T09:05:38Z</time>
      </trkpt>
      <trkpt lat="48.3322710" lon="8.0244850">
        <ele>-208.8</ele>
        <time>2022-06-05T09:05:42Z</time>
      </trkpt>
      <trkpt lat="48.3320410" lon="8.0244700">
        <ele>-208.6</ele>
        <time>2022-06-05T09:05:46Z</time>
      </trkpt>
      <trkpt lat="48.3318250" lon="8.0244130">
        <ele>-209.0</ele>
        <time>2022-06-05T09:05:50Z</time>
      </trkpt>
      <trkpt lat="48.3316160" lon="8.0243400">
        <ele>-208.0</ele>
        <time>2022-06-05T09:05:54Z</time>
      </trkpt>
      <trkpt lat="48.3314250" lon="8.0242580">
        <ele>-207.8</ele>
        <time>2022-06-05T09:05:58Z</time>
      </trkpt>
      <trkpt lat="48.3312350" lon="8.0242160">
        <ele>-207.4</ele>
        <time>2022-06-05T09:06:02Z</time>
      </trkpt>
      <trkpt lat="48.3310380" lon="8.0243210">
        <ele>-207.8</ele>
        <time>2022-06-05T09:06:06Z</time>
      </trkpt>
      <trkpt lat="48.3308200" lon="8.0244350">
        <ele>-207.6</ele>
        <time>2022-06-05T09:06:10Z</time>
      </trkpt>
      <trkpt lat="48.3306080" lon="8.0245750">
        <ele>-208.4</ele>
        <time>2022-06-05T09:06:14Z</time>
      </trkpt>
      <trkpt lat="48.3304210" lon="8.0247310">
        <ele>-208.6</ele>
        <time>2022-06-05T09:06:18Z</time>
      </trkpt>
      <trkpt lat="48.3302480" lon="8.0249260">
        <ele>-208.4</ele>
        <time>2022-06-05T09:06:22Z</time>
      </trkpt>
      <trkpt lat="48.3300750" lon="8.0251300">
        <ele>-208.4</ele>
        <time>2022-06-05T09:06:26Z</time>
      </trkpt>
      <trkpt lat="48.3299000" lon="8.0253260">
        <ele>-209.2</ele>
        <time>2022-06-05T09:06:30Z</time>
      </trkpt>
      <trkpt lat="48.3297330" lon="8.0255260">
        <ele>-208.4</ele>
        <time>2022-06-05T09:06:34Z</time>
      </trkpt>
      <trkpt lat="48.3295730" lon="8.0257400">
        <ele>-208.4</ele>
        <time>2022-06-05T09:06:38Z</time>
      </trkpt>
      <trkpt lat="48.3294180" lon="8.0259650">
        <ele>-208.0</ele>
        <time>2022-06-05T09:06:42Z</time>
      </trkpt>
      <trkpt lat="48.3292610" lon="8.0261950">
        <ele>-209.2</ele>
        <time>2022-06-05T09:06:46Z</time>
      </trkpt>
      <trkpt lat="48.3291160" lon="8.0264380">
        <ele>-208.4</ele>
        <time>2022-06-05T09:06:50Z</time>
      </trkpt>
      <trkpt lat="48.3290010" lon="8.0267130">
        <ele>-208.4</ele>
        <time>2022-06-05T09:06:54Z</time>
      </trkpt>
      <trkpt lat="48.3288880" lon="8.0269810">
        <ele>-208.2</ele>
        <time>2022-06-05T09:06:58Z</time>
      </trkpt>
      <trkpt lat="48.3287660" lon="8.0272260">
        <ele>-208.4</ele>
        <time>2022-06-05T09:07:02Z</time>
      </trkpt>
      <trkpt lat="48.3286350" lon="8.0274580">
        <ele>-208.2</ele>
        <time>2022-06-05T09:07:06Z</time>
      </trkpt>
      <trkpt lat="48.3285000" lon="8.0277010">
        <ele>-208.0</ele>
        <time>2022-06-05T09:07:10Z</time>
      </trkpt>
      <trkpt lat="48.3283660" lon="8.0279330">
        <ele>-207.4</ele>
        <time>2022-06-05T09:07:14Z</time>
      </trkpt>
      <trkpt lat="48.3282300" lon="8.0280560">
        <ele>-206.2</ele>
        <time>2022-06-05T09:07:18Z</time>
      </trkpt>
      <trkpt lat="48.3280750" lon="8.0281600">
        <ele>-206.4</ele>
        <time>2022-06-05T09:07:22Z</time>
      </trkpt>
      <trkpt lat="48.3279210" lon="8.0283550">
        <ele>-206.6</ele>
        <time>2022-06-05T09:07:26Z</time>
      </trkpt>
      <trkpt lat="48.3277810" lon="8.0285830">
        <ele>-206.2</ele>
        <time>2022-06-05T09:07:30Z</time>
      </trkpt>
      <trkpt lat="48.3276400" lon="8.0288160">
        <ele>-206.4</ele>
        <time>2022-06-05T09:07:34Z</time>
      </trkpt>
      <trkpt lat="48.3274900" lon="8.0290500">
        <ele>-206.6</ele>
        <time>2022-06-05T09:07:38Z</time>
      </trkpt>
      <trkpt lat="48.3273230" lon="8.0292560">
        <ele>-206.8</ele>
        <time>2022-06-05T09:07:42Z</time>
      </trkpt>
      <trkpt lat="48.3271530" lon="8.0294530">
        <ele>-206.8</ele>
        <time>2022-06-05T09:07:46Z</time>
      </trkpt>
      <trkpt lat="48.3269850" lon="8.0296180">
        <ele>-206.8</ele>
        <time>2022-06-05T09:07:50Z</time>
      </trkpt>
      <trkpt lat="48.3268150" lon="8.0298180">
        <ele>-206.8</ele>
        <time>2022-06-05T09:07:54Z</time>
      </trkpt>
      <trkpt lat="48.3266360" lon="8.0299930">
        <ele>-206.0</ele>
        <time>2022-06-05T09:07:58Z</time>
      </trkpt>
      <trkpt lat="48.3264660" lon="8.0301630">
        <ele>-206.0</ele>
        <time>2022-06-05T09:08:02Z</time>
      </trkpt>
      <trkpt lat="48.3263100" lon="8.0303200">
        <ele>-205.6</ele>
        <time>2022-06-05T09:08:06Z</time>
      </trkpt>
      <trkpt lat="48.3261630" lon="8.0304180">
        <ele>-204.8</ele>
        <time>2022-06-05T09:08:10Z</time>
      </trkpt>
      <trkpt lat="48.3260280" lon="8.0305230">
        <ele>-203.0</ele>
        <time>2022-06-05T09:08:14Z</time>
      </trkpt>
      <trkpt lat="48.3258730" lon="8.0306150">
        <ele>-203.0</ele>
        <time>2022-06-05T09:08:18Z</time>
      </trkpt>
      <trkpt lat="48.3256950" lon="8.0307180">
        <ele>-202.6</ele>
        <time>2022-06-05T09:08:22Z</time>
      </trkpt>
      <trkpt lat="48.3255210" lon="8.0308550">
        <ele>-202.4</ele>
        <time>2022-06-05T09:08:26Z</time>
      </trkpt>
      <trkpt lat="48.3253430" lon="8.0309760">
        <ele>-202.0</ele>
        <time>2022-06-05T09:08:30Z</time>
      </trkpt>
      <trkpt lat="48.3251610" lon="8.0310880">
        <ele>-202.4</ele>
        <time>2022-06-05T09:08:34Z</time>
      </trkpt>
      <trkpt lat="48.3249960" lon="8.0312380">
        <ele>-202.6</ele>
        <time>2022-06-05T09:08:38Z</time>
      </trkpt>
      <trkpt lat="48.3248380" lon="8.0314210">
        <ele>-202.6</ele>
        <time>2022-06-05T09:08:42Z</time>
      </trkpt>
      <trkpt lat="48.3246800" lon="8.0316110">
        <ele>-202.0</ele>
        <time>2022-06-05T09:08:46Z</time>
      </trkpt>
      <trkpt lat="48.3245150" lon="8.0318000">
        <ele>-202.0</ele>
        <time>2022-06-05T09:08:50Z</time>
      </trkpt>
      <trkpt lat="48.3243360" lon="8.0319560">
        <ele>-201.4</ele>
        <time>2022-06-05T09:08:54Z</time>
      </trkpt>
      <trkpt lat="48.3241800" lon="8.0321410">
        <ele>-200.8</ele>
        <time>2022-06-05T09:08:58Z</time>
      </trkpt>
      <trkpt lat="48.3240250" lon="8.0323250">
        <ele>-200.8</ele>
        <time>2022-06-05T09:09:02Z</time>
      </trkpt>
      <trkpt lat="48.3238450" lon="8.0324800">
        <ele>-202.0</ele>
        <time>2022-06-05T09:09:06Z</time>
      </trkpt>
      <trkpt lat="48.3236310" lon="8.0325610">
        <ele>-202.6</ele>
        <time>2022-06-05T09:09:10Z</time>
      </trkpt>
      <trkpt lat="48.3233980" lon="8.0326080">
        <ele>-203.2</ele>
        <time>2022-06-05T09:09:14Z</time>
      </trkpt>
      <trkpt lat="48.3231380" lon="8.0326580">
        <ele>-203.8</ele>
        <time>2022-06-05T09:09:18Z</time>
      </trkpt>
      <trkpt lat="48.3228880" lon="8.0326880">
        <ele>-203.8</ele>
        <time>2022-06-05T09:09:22Z</time>
      </trkpt>
      <trkpt lat="48.3226550" lon="8.0326960">
        <ele>-204.0</ele>
        <time>2022-06-05T09:09:26Z</time>
      </trkpt>
      <trkpt lat="48.3224300" lon="8.0326850">
        <ele>-204.0</ele>
        <time>2022-06-05T09:09:30Z</time>
      </trkpt>
      <trkpt lat="48.3222030" lon="8.0326750">
        <ele>-203.2</ele>
        <time>2022-06-05T09:09:34Z</time>
      </trkpt>
      <trkpt lat="48.3219860" lon="8.0326730">
        <ele>-203.4</ele>
        <time>2022-06-05T09:09:38Z</time>
      </trkpt>
      <trkpt lat="48.3217810" lon="8.0326180">
        <ele>-203.4</ele>
        <time>2022-06-05T09:09:42Z</time>
      </trkpt>
      <trkpt lat="48.3215730" lon="8.0326000">
        <ele>-203.8</ele>
        <time>2022-06-05T09:09:46Z</time>
      </trkpt>
      <trkpt lat="48.3213600" lon="8.0325580">
        <ele>-203.0</ele>
        <time>2022-06-05T09:09:50Z</time>
      </trkpt>
      <trkpt lat="48.3211550" lon="8.0324930">
        <ele>-203.2</ele>
        <time>2022-06-05T09:09:54Z</time>
      </trkpt>
      <trkpt lat="48.3209680" lon="8.0324050">
        <ele>-204.8</ele>
        <time>2022-06-05T09:09:58Z</time>
      </trkpt>
      <trkpt lat="48.3207850" lon="8.0322760">
        <ele>-204.8</ele>
        <time>2022-06-05T09:10:02Z</time>
      </trkpt>
      <trkpt lat="48.3205780" lon="8.0322250">
        <ele>-204.6</ele>
        <time>2022-06-05T09:10:06Z</time>
      </trkpt>
      <trkpt lat="48.3203650" lon="8.0322760">
        <ele>-205.0</ele>
        <time>2022-06-05T09:10:10Z</time>
      </trkpt>
      <trkpt lat="48.3201360" lon="8.0324350">
        <ele>-206.6</ele>
        <time>2022-06-05T09:10:14Z</time>
      </trkpt>
      <trkpt lat="48.3199060" lon="8.0326060">
        <ele>-205.6</ele>
        <time>2022-06-05T09:10:18Z</time>
      </trkpt>
      <trkpt lat="48.3196980" lon="8.0327950">
        <ele>-205.2</ele>
        <time>2022-06-05T09:10:22Z</time>
      </trkpt>
      <trkpt lat="48.3195210" lon="8.0330010">
        <ele>-204.8</ele>
        <time>2022-06-05T09:10:26Z</time>
      </trkpt>
      <trkpt lat="48.3193560" lon="8.0332180">
        <ele>-205.2</ele>
        <time>2022-06-05T09:10:30Z</time>
      </trkpt>
      <trkpt lat="48.3191980" lon="8.0334200">
        <ele>-205.4</ele>
        <time>2022-06-05T09:10:34Z</time>
      </trkpt>
      <trkpt lat="48.3190510" lon="8.0336060">
        <ele>-204.6</ele>
        <time>2022-06-05T09:10:38Z</time>
      </trkpt>
      <trkpt lat="48.3189030" lon="8.0337830">
        <ele>-204.8</ele>
        <time>2022-06-05T09:10:42Z</time>
      </trkpt>
      <trkpt lat="48.3187530" lon="8.0339450">
        <ele>-205.6</ele>
        <time>2022-06-05T09:10:46Z</time>
      </trkpt>
      <trkpt lat="48.3186000" lon="8.0341080">
        <ele>-205.2</ele>
        <time>2022-06-05T09:10:50Z</time>
      </trkpt>
      <trkpt lat="48.3184430" lon="8.0342660">
        <ele>-204.6</ele>
        <time>2022-06-05T09:10:54Z</time>
      </trkpt>
      <trkpt lat="48.3183010" lon="8.0344400">
        <ele>-204.8</ele>
        <time>2022-06-05T09:10:58Z</time>
      </trkpt>
      <trkpt lat="48.3181950" lon="8.0346660">
        <ele>-205.2</ele>
        <time>2022-06-05T09:11:02Z</time>
      </trkpt>
      <trkpt lat="48.3181210" lon="8.0349200">
        <ele>-205.8</ele>
        <time>2022-06-05T09:11:06Z</time>
      </trkpt>
      <trkpt lat="48.3180610" lon="8.0351960">
        <ele>-205.0</ele>
        <time>2022-06-05T09:11:10Z</time>
      </trkpt>
      <trkpt lat="48.3180000" lon="8.0354930">
        <ele>-204.8</ele>
        <time>2022-06-05T09:11:14Z</time>
      </trkpt>
      <trkpt lat="48.3179410" lon="8.0357600">
        <ele>-204.6</ele>
        <time>2022-06-05T09:11:18Z</time>
      </trkpt>
      <trkpt lat="48.3178760" lon="8.0360180">
        <ele>-204.2</ele>
        <time>2022-06-05T09:11:22Z</time>
      </trkpt>
      <trkpt lat="48.3178150" lon="8.0362860">
        <ele>-204.6</ele>
        <time>2022-06-05T09:11:26Z</time>
      </trkpt>
      <trkpt lat="48.3177400" lon="8.0365600">
        <ele>-204.6</ele>
        <time>2022-06-05T09:11:30Z</time>
      </trkpt>
      <trkpt lat="48.3176580" lon="8.0368300">
        <ele>-203.8</ele>
        <time>2022-06-05T09:11:34Z</time>
      </trkpt>
      <trkpt lat="48.3175760" lon="8.0371080">
        <ele>-204.0</ele>
        <time>2022-06-05T09:11:38Z</time>
      </trkpt>
      <trkpt lat="48.3174850" lon="8.0373900">
        <ele>-203.2</ele>
        <time>2022-06-05T09:11:42Z</time>
      </trkpt>
      <trkpt lat="48.3173950" lon="8.0376680">
        <ele>-204.0</ele>
        <time>2022-06-05T09:11:46Z</time>
      </trkpt>
      <trkpt lat="48.3172900" lon="8.0379410">
        <ele>-204.0</ele>
        <time>2022-06-05T09:11:50Z</time>
      </trkpt>
      <trkpt lat="48.3171730" lon="8.0382100">
        <ele>-203.8</ele>
        <time>2022-06-05T09:11:54Z</time>
      </trkpt>
      <trkpt lat="48.3170530" lon="8.0384750">
        <ele>-204.2</ele>
        <time>2022-06-05T09:11:58Z</time>
      </trkpt>
      <trkpt lat="48.3169330" lon="8.0387260">
        <ele>-204.2</ele>
        <time>2022-06-05T09:12:02Z</time>
      </trkpt>
      <trkpt lat="48.3168110" lon="8.0389730">
        <ele>-204.0</ele>
        <time>2022-06-05T09:12:06Z</time>
      </trkpt>
      <trkpt lat="48.3166910" lon="8.0392150">
        <ele>-203.6</ele>
        <time>2022-06-05T09:12:10Z</time>
      </trkpt>
      <trkpt lat="48.3165730" lon="8.0394480">
        <ele>-203.8</ele>
        <time>2022-06-05T09:12:14Z</time>
      </trkpt>
      <trkpt lat="48.3164510" lon="8.0396730">
        <ele>-203.8</ele>
        <time>2022-06-05T09:12:18Z</time>
      </trkpt>
      <trkpt lat="48.3163330" lon="8.0398860">
        <ele>-203.8</ele>
        <time>2022-06-05T09:12:22Z</time>
      </trkpt>
      <trkpt lat="48.3162180" lon="8.0400810">
        <ele>-203.8</ele>
        <time>2022-06-05T09:12:26Z</time>
      </trkpt>
      <trkpt lat="48.3161050" lon="8.0402660">
        <ele>-203.8</ele>
        <time>2022-06-05T09:12:30Z</time>
      </trkpt>
      <trkpt lat="48.3159950" lon="8.0404380">
        <ele>-204.2</ele>
        <time>2022-06-05T09:12:34Z</time>
      </trkpt>
      <trkpt lat="48.3158830" lon="8.0406050">
        <ele>-203.2</ele>
        <time>2022-06-05T09:12:38Z</time>
      </trkpt>
      <trkpt lat="48.3157630" lon="8.0407750">
        <ele>-203.4</ele>
        <time>2022-06-05T09:12:42Z</time>
      </trkpt>
      <trkpt lat="48.3156280" lon="8.0409210">
        <ele>-203.2</ele>
        <time>2022-06-05T09:12:46Z</time>
      </trkpt>
      <trkpt lat="48.3154700" lon="8.0410330">
        <ele>-203.4</ele>
        <time>2022-06-05T09:12:50Z</time>
      </trkpt>
      <trkpt lat="48.3153050" lon="8.0411300">
        <ele>-202.4</ele>
        <time>2022-06-05T09:12:54Z</time>
      </trkpt>
      <trkpt lat="48.3151480" lon="8.0412110">
        <ele>-203.4</ele>
        <time>2022-06-05T09:12:58Z</time>
      </trkpt>
      <trkpt lat="48.3149900" lon="8.0413010">
        <ele>-203.4</ele>
        <time>2022-06-05T09:13:02Z</time>
      </trkpt>
      <trkpt lat="48.3148360" lon="8.0414000">
        <ele>-202.4</ele>
        <time>2022-06-05T09:13:06Z</time>
      </trkpt>
      <trkpt lat="48.3146830" lon="8.0415110">
        <ele>-203.0</ele>
        <time>2022-06-05T09:13:10Z</time>
      </trkpt>
      <trkpt lat="48.3145400" lon="8.0416450">
        <ele>-202.8</ele>
        <time>2022-06-05T09:13:14Z</time>
      </trkpt>
      <trkpt lat="48.3144080" lon="8.0417960">
        <ele>-202.2</ele>
        <time>2022-06-05T09:13:18Z</time>
      </trkpt>
      <trkpt lat="48.3142800" lon="8.0419610">
        <ele>-202.0</ele>
        <time>2022-06-05T09:13:22Z</time>
      </trkpt>
      <trkpt lat="48.3141380" lon="8.0421110">
        <ele>-202.8</ele>
        <time>2022-06-05T09:13:26Z</time>
      </trkpt>
      <trkpt lat="48.3139850" lon="8.0422330">
        <ele>-201.2</ele>
        <time>2022-06-05T09:13:30Z</time>
      </trkpt>
      <trkpt lat="48.3138210" lon="8.0423060">
        <ele>-202.4</ele>
        <time>2022-06-05T09:13:34Z</time>
      </trkpt>
      <trkpt lat="48.3136550" lon="8.0423600">
        <ele>-201.2</ele>
        <time>2022-06-05T09:13:38Z</time>
      </trkpt>
      <trkpt lat="48.3134930" lon="8.0424510">
        <ele>-202.6</ele>
        <time>2022-06-05T09:13:42Z</time>
      </trkpt>
      <trkpt lat="48.3133380" lon="8.0425810">
        <ele>-202.4</ele>
        <time>2022-06-05T09:13:46Z</time>
      </trkpt>
      <trkpt lat="48.3132160" lon="8.0427860">
        <ele>-201.6</ele>
        <time>2022-06-05T09:13:50Z</time>
      </trkpt>
      <trkpt lat="48.3131160" lon="8.0430210">
        <ele>-201.8</ele>
        <time>2022-06-05T09:13:54Z</time>
      </trkpt>
      <trkpt lat="48.3130100" lon="8.0432330">
        <ele>-201.4</ele>
        <time>2022-06-05T09:13:58Z</time>
      </trkpt>
      <trkpt lat="48.3128910" lon="8.0434300">
        <ele>-201.2</ele>
        <time>2022-06-05T09:14:02Z</time>
      </trkpt>
      <trkpt lat="48.3127800" lon="8.0436310">
        <ele>-201.0</ele>
        <time>2022-06-05T09:14:06Z</time>
      </trkpt>
      <trkpt lat="48.3126880" lon="8.0438630">
        <ele>-202.0</ele>
        <time>2022-06-05T09:14:10Z</time>
      </trkpt>
      <trkpt lat="48.3126000" lon="8.0441010">
        <ele>-201.8</ele>
        <time>2022-06-05T09:14:14Z</time>
      </trkpt>
      <trkpt lat="48.3125100" lon="8.0443460">
        <ele>-202.0</ele>
        <time>2022-06-05T09:14:18Z</time>
      </trkpt>
      <trkpt lat="48.3124210" lon="8.0445880">
        <ele>-202.8</ele>
        <time>2022-06-05T09:14:22Z</time>
      </trkpt>
      <trkpt lat="48.3123410" lon="8.0448280">
        <ele>-202.2</ele>
        <time>2022-06-05T09:14:26Z</time>
      </trkpt>
      <trkpt lat="48.3122610" lon="8.0450700">
        <ele>-202.6</ele>
        <time>2022-06-05T09:14:30Z</time>
      </trkpt>
      <trkpt lat="48.3121530" lon="8.0452850">
        <ele>-202.6</ele>
        <time>2022-06-05T09:14:34Z</time>
      </trkpt>
      <trkpt lat="48.3120310" lon="8.0454600">
        <ele>-202.8</ele>
        <time>2022-06-05T09:14:38Z</time>
      </trkpt>
      <trkpt lat="48.3118950" lon="8.0456160">
        <ele>-202.6</ele>
        <time>2022-06-05T09:14:42Z</time>
      </trkpt>
      <trkpt lat="48.3117480" lon="8.0457580">
        <ele>-201.4</ele>
        <time>2022-06-05T09:14:46Z</time>
      </trkpt>
      <trkpt lat="48.3115980" lon="8.0459250">
        <ele>-201.4</ele>
        <time>2022-06-05T09:14:50Z</time>
      </trkpt>
      <trkpt lat="48.3114430" lon="8.0461000">
        <ele>-201.8</ele>
        <time>2022-06-05T09:14:54Z</time>
      </trkpt>
      <trkpt lat="48.3112930" lon="8.0462830">
        <ele>-202.0</ele>
        <time>2022-06-05T09:14:58Z</time>
      </trkpt>
      <trkpt lat="48.3111450" lon="8.0464710">
        <ele>-201.4</ele>
        <time>2022-06-05T09:15:02Z</time>
      </trkpt>
      <trkpt lat="48.3110000" lon="8.0466650">
        <ele>-201.8</ele>
        <time>2022-06-05T09:15:06Z</time>
      </trkpt>
      <trkpt lat="48.3108580" lon="8.0468660">
        <ele>-200.8</ele>
        <time>2022-06-05T09:15:10Z</time>
      </trkpt>
      <trkpt lat="48.3107200" lon="8.0470750">
        <ele>-201.4</ele>
        <time>2022-06-05T09:15:14Z</time>
      </trkpt>
      <trkpt lat="48.3105910" lon="8.0472850">
        <ele>-200.8</ele>
        <time>2022-06-05T09:15:18Z</time>
      </trkpt>
      <trkpt lat="48.3104680" lon="8.0474900">
        <ele>-200.6</ele>
        <time>2022-06-05T09:15:22Z</time>
      </trkpt>
      <trkpt lat="48.3103550" lon="8.0477110">
        <ele>-201.4</ele>
        <time>2022-06-05T09:15:26Z</time>
      </trkpt>
      <trkpt lat="48.3102360" lon="8.0479350">
        <ele>-201.0</ele>
        <time>2022-06-05T09:15:30Z</time>
      </trkpt>
      <trkpt lat="48.3100960" lon="8.0481080">
        <ele>-200.2</ele>
        <time>2022-06-05T09:15:34Z</time>
      </trkpt>
      <trkpt lat="48.3100010" lon="8.0483280">
        <ele>-200.2</ele>
        <time>2022-06-05T09:15:38Z</time>
      </trkpt>
      <trkpt lat="48.3099280" lon="8.0486100">
        <ele>-200.6</ele>
        <time>2022-06-05T09:15:42Z</time>
      </trkpt>
      <trkpt lat="48.3098400" lon="8.0489130">
        <ele>-201.8</ele>
        <time>2022-06-05T09:15:46Z</time>
      </trkpt>
      <trkpt lat="48.3097350" lon="8.0492510">
        <ele>-202.4</ele>
        <time>2022-06-05T09:15:50Z</time>
      </trkpt>
      <trkpt lat="48.3096210" lon="8.0496110">
        <ele>-203.2</ele>
        <time>2022-06-05T09:15:54Z</time>
      </trkpt>
      <trkpt lat="48.3095330" lon="8.0499830">
        <ele>-201.8</ele>
        <time>2022-06-05T09:15:58Z</time>
      </trkpt>
      <trkpt lat="48.3094300" lon="8.0503080">
        <ele>-201.6</ele>
        <time>2022-06-05T09:16:02Z</time>
      </trkpt>
      <trkpt lat="48.3093080" lon="8.0505310">
        <ele>-201.0</ele>
        <time>2022-06-05T09:16:06Z</time>
      </trkpt>
      <trkpt lat="48.3091760" lon="8.0506810">
        <ele>-200.4</ele>
        <time>2022-06-05T09:16:10Z</time>
      </trkpt>
      <trkpt lat="48.3090830" lon="8.0508710">
        <ele>-200.2</ele>
        <time>2022-06-05T09:16:14Z</time>
      </trkpt>
      <trkpt lat="48.3090250" lon="8.0511160">
        <ele>-200.2</ele>
        <time>2022-06-05T09:16:18Z</time>
      </trkpt>
      <trkpt lat="48.3088850" lon="8.0512910">
        <ele>-200.2</ele>
        <time>2022-06-05T09:16:22Z</time>
      </trkpt>
      <trkpt lat="48.3087410" lon="8.0514560">
        <ele>-199.6</ele>
        <time>2022-06-05T09:16:26Z</time>
      </trkpt>
      <trkpt lat="48.3086130" lon="8.0516680">
        <ele>-199.6</ele>
        <time>2022-06-05T09:16:30Z</time>
      </trkpt>
      <trkpt lat="48.3084730" lon="8.0518760">
        <ele>-199.6</ele>
        <time>2022-06-05T09:16:34Z</time>
      </trkpt>
      <trkpt lat="48.3083180" lon="8.0520600">
        <ele>-200.4</ele>
        <time>2022-06-05T09:16:38Z</time>
      </trkpt>
      <trkpt lat="48.3081610" lon="8.0522230">
        <ele>-199.4</ele>
        <time>2022-06-05T09:16:42Z</time>
      </trkpt>
      <trkpt lat="48.3079980" lon="8.0523830">
        <ele>-198.4</ele>
        <time>2022-06-05T09:16:46Z</time>
      </trkpt>
      <trkpt lat="48.3078280" lon="8.0525460">
        <ele>-198.4</ele>
        <time>2022-06-05T09:16:50Z</time>
      </trkpt>
      <trkpt lat="48.3076630" lon="8.0527280">
        <ele>-199.0</ele>
        <time>2022-06-05T09:16:54Z</time>
      </trkpt>
      <trkpt lat="48.3074950" lon="8.0529000">
        <ele>-198.6</ele>
        <time>2022-06-05T09:16:58Z</time>
      </trkpt>
      <trkpt lat="48.3073310" lon="8.0530580">
        <ele>-198.4</ele>
        <time>2022-06-05T09:17:02Z</time>
      </trkpt>
      <trkpt lat="48.3071530" lon="8.0532280">
        <ele>-199.0</ele>
        <time>2022-06-05T09:17:06Z</time>
      </trkpt>
      <trkpt lat="48.3069780" lon="8.0534180">
        <ele>-199.0</ele>
        <time>2022-06-05T09:17:10Z</time>
      </trkpt>
      <trkpt lat="48.3068110" lon="8.0536030">
        <ele>-199.0</ele>
        <time>2022-06-05T09:17:14Z</time>
      </trkpt>
      <trkpt lat="48.3066450" lon="8.0537830">
        <ele>-197.8</ele>
        <time>2022-06-05T09:17:18Z</time>
      </trkpt>
      <trkpt lat="48.3065330" lon="8.0540150">
        <ele>-198.4</ele>
        <time>2022-06-05T09:17:22Z</time>
      </trkpt>
      <trkpt lat="48.3064130" lon="8.0542350">
        <ele>-197.6</ele>
        <time>2022-06-05T09:17:26Z</time>
      </trkpt>
      <trkpt lat="48.3062080" lon="8.0542250">
        <ele>-198.0</ele>
        <time>2022-06-05T09:17:30Z</time>
      </trkpt>
      <trkpt lat="48.3060110" lon="8.0542360">
        <ele>-197.6</ele>
        <time>2022-06-05T09:17:34Z</time>
      </trkpt>
      <trkpt lat="48.3058150" lon="8.0542980">
        <ele>-198.0</ele>
        <time>2022-06-05T09:17:38Z</time>
      </trkpt>
      <trkpt lat="48.3056230" lon="8.0543850">
        <ele>-197.8</ele>
        <time>2022-06-05T09:17:42Z</time>
      </trkpt>
      <trkpt lat="48.3054330" lon="8.0544630">
        <ele>-197.6</ele>
        <time>2022-06-05T09:17:46Z</time>
      </trkpt>
      <trkpt lat="48.3052460" lon="8.0545260">
        <ele>-196.8</ele>
        <time>2022-06-05T09:17:50Z</time>
      </trkpt>
      <trkpt lat="48.3050630" lon="8.0545710">
        <ele>-196.8</ele>
        <time>2022-06-05T09:17:54Z</time>
      </trkpt>
      <trkpt lat="48.3048810" lon="8.0546150">
        <ele>-196.8</ele>
        <time>2022-06-05T09:17:58Z</time>
      </trkpt>
      <trkpt lat="48.3047000" lon="8.0546730">
        <ele>-198.0</ele>
        <time>2022-06-05T09:18:02Z</time>
      </trkpt>
      <trkpt lat="48.3045410" lon="8.0547950">
        <ele>-198.2</ele>
        <time>2022-06-05T09:18:06Z</time>
      </trkpt>
      <trkpt lat="48.3044080" lon="8.0549830">
        <ele>-197.6</ele>
        <time>2022-06-05T09:18:10Z</time>
      </trkpt>
      <trkpt lat="48.3042600" lon="8.0551700">
        <ele>-197.2</ele>
        <time>2022-06-05T09:18:14Z</time>
      </trkpt>
      <trkpt lat="48.3041080" lon="8.0553710">
        <ele>-196.8</ele>
        <time>2022-06-05T09:18:18Z</time>
      </trkpt>
      <trkpt lat="48.3039560" lon="8.0555710">
        <ele>-197.4</ele>
        <time>2022-06-05T09:18:22Z</time>
      </trkpt>
      <trkpt lat="48.3038050" lon="8.0557610">
        <ele>-197.4</ele>
        <time>2022-06-05T09:18:26Z</time>
      </trkpt>
      <trkpt lat="48.3036560" lon="8.0559280">
        <ele>-197.4</ele>
        <time>2022-06-05T09:18:30Z</time>
      </trkpt>
      <trkpt lat="48.3035150" lon="8.0560930">
        <ele>-196.8</ele>
        <time>2022-06-05T09:18:34Z</time>
      </trkpt>
      <trkpt lat="48.3033800" lon="8.0562360">
        <ele>-197.4</ele>
        <time>2022-06-05T09:18:38Z</time>
      </trkpt>
      <trkpt lat="48.3032230" lon="8.0564050">
        <ele>-198.0</ele>
        <time>2022-06-05T09:18:42Z</time>
      </trkpt>
      <trkpt lat="48.3030700" lon="8.0565750">
        <ele>-197.2</ele>
        <time>2022-06-05T09:18:46Z</time>
      </trkpt>
      <trkpt lat="48.3029150" lon="8.0567350">
        <ele>-198.4</ele>
        <time>2022-06-05T09:18:50Z</time>
      </trkpt>
      <trkpt lat="48.3027230" lon="8.0568330">
        <ele>-197.8</ele>
        <time>2022-06-05T09:18:54Z</time>
      </trkpt>
      <trkpt lat="48.3025100" lon="8.0568800">
        <ele>-197.4</ele>
        <time>2022-06-05T09:18:58Z</time>
      </trkpt>
      <trkpt lat="48.3022950" lon="8.0569300">
        <ele>-197.2</ele>
        <time>2022-06-05T09:19:02Z</time>
      </trkpt>
      <trkpt lat="48.3020930" lon="8.0569710">
        <ele>-197.4</ele>
        <time>2022-06-05T09:19:06Z</time>
      </trkpt>
      <trkpt lat="48.3018930" lon="8.0569810">
        <ele>-197.2</ele>
        <time>2022-06-05T09:19:10Z</time>
      </trkpt>
      <trkpt lat="48.3016830" lon="8.0569750">
        <ele>-197.4</ele>
        <time>2022-06-05T09:19:14Z</time>
      </trkpt>
      <trkpt lat="48.3014710" lon="8.0569530">
        <ele>-196.0</ele>
        <time>2022-06-05T09:19:18Z</time>
      </trkpt>
      <trkpt lat="48.3012680" lon="8.0568910">
        <ele>-196.4</ele>
        <time>2022-06-05T09:19:22Z</time>
      </trkpt>
      <trkpt lat="48.3010680" lon="8.0568250">
        <ele>-195.6</ele>
        <time>2022-06-05T09:19:26Z</time>
      </trkpt>
      <trkpt lat="48.3008660" lon="8.0567480">
        <ele>-195.8</ele>
        <time>2022-06-05T09:19:30Z</time>
      </trkpt>
      <trkpt lat="48.3006660" lon="8.0566730">
        <ele>-195.6</ele>
        <time>2022-06-05T09:19:34Z</time>
      </trkpt>
      <trkpt lat="48.3004630" lon="8.0566080">
        <ele>-195.6</ele>
        <time>2022-06-05T09:19:38Z</time>
      </trkpt>
      <trkpt lat="48.3002650" lon="8.0565430">
        <ele>-195.6</ele>
        <time>2022-06-05T09:19:42Z</time>
      </trkpt>
      <trkpt lat="48.3000660" lon="8.0565210">
        <ele>-194.6</ele>
        <time>2022-06-05T09:19:46Z</time>
      </trkpt>
      <trkpt lat="48.2998610" lon="8.0565480">
        <ele>-194.8</ele>
        <time>2022-06-05T09:19:50Z</time>
      </trkpt>
      <trkpt lat="48.2996580" lon="8.0566510">
        <ele>-195.0</ele>
        <time>2022-06-05T09:19:54Z</time>
      </trkpt>
      <trkpt lat="48.2994610" lon="8.0567800">
        <ele>-196.2</ele>
        <time>2022-06-05T09:19:58Z</time>
      </trkpt>
      <trkpt lat="48.2992650" lon="8.0569060">
        <ele>-195.2</ele>
        <time>2022-06-05T09:20:02Z</time>
      </trkpt>
      <trkpt lat="48.2990750" lon="8.0570460">
        <ele>-194.8</ele>
        <time>2022-06-05T09:20:06Z</time>
      </trkpt>
      <trkpt lat="48.2988830" lon="8.0571680">
        <ele>-195.2</ele>
        <time>2022-06-05T09:20:10Z</time>
      </trkpt>
      <trkpt lat="48.2986850" lon="8.0572600">
        <ele>-195.8</ele>
        <time>2022-06-05T09:20:14Z</time>
      </trkpt>
      <trkpt lat="48.2984730" lon="8.0573150">
        <ele>-195.6</ele>
        <time>2022-06-05T09:20:18Z</time>
      </trkpt>
      <trkpt lat="48.2982610" lon="8.0573660">
        <ele>-194.8</ele>
        <time>2022-06-05T09:20:22Z</time>
      </trkpt>
      <trkpt lat="48.2980550" lon="8.0574510">
        <ele>-195.4</ele>
        <time>2022-06-05T09:20:26Z</time>
      </trkpt>
      <trkpt lat="48.2978580" lon="8.0575800">
        <ele>-195.6</ele>
        <time>2022-06-05T09:20:30Z</time>
      </trkpt>
      <trkpt lat="48.2976730" lon="8.0577310">
        <ele>-195.6</ele>
        <time>2022-06-05T09:20:34Z</time>
      </trkpt>
      <trkpt lat="48.2974950" lon="8.0579100">
        <ele>-196.0</ele>
        <time>2022-06-05T09:20:38Z</time>
      </trkpt>
      <trkpt lat="48.2973200" lon="8.0581050">
        <ele>-195.6</ele>
        <time>2022-06-05T09:20:42Z</time>
      </trkpt>
      <trkpt lat="48.2971610" lon="8.0582860">
        <ele>-195.8</ele>
        <time>2022-06-05T09:20:46Z</time>
      </trkpt>
      <trkpt lat="48.2970310" lon="8.0584660">
        <ele>-195.4</ele>
        <time>2022-06-05T09:20:50Z</time>
      </trkpt>
      <trkpt lat="48.2969210" lon="8.0586980">
        <ele>-195.6</ele>
        <time>2022-06-05T09:20:54Z</time>
      </trkpt>
      <trkpt lat="48.2967810" lon="8.0589080">
        <ele>-195.6</ele>
        <time>2022-06-05T09:20:58Z</time>
      </trkpt>
      <trkpt lat="48.2966460" lon="8.0591160">
        <ele>-195.0</ele>
        <time>2022-06-05T09:21:02Z</time>
      </trkpt>
      <trkpt lat="48.2965060" lon="8.0593260">
        <ele>-194.2</ele>
        <time>2022-06-05T09:21:06Z</time>
      </trkpt>
      <trkpt lat="48.2963550" lon="8.0595330">
        <ele>-194.0</ele>
        <time>2022-06-05T09:21:10Z</time>
      </trkpt>
      <trkpt lat="48.2962060" lon="8.0597400">
        <ele>-193.4</ele>
        <time>2022-06-05T09:21:14Z</time>
      </trkpt>
      <trkpt lat="48.2960680" lon="8.0599300">
        <ele>-193.4</ele>
        <time>2022-06-05T09:21:18Z</time>
      </trkpt>
      <trkpt lat="48.2959380" lon="8.0601280">
        <ele>-193.4</ele>
        <time>2022-06-05T09:21:22Z</time>
      </trkpt>
      <trkpt lat="48.2957960" lon="8.0603030">
        <ele>-192.6</ele>
        <time>2022-06-05T09:21:26Z</time>
      </trkpt>
      <trkpt lat="48.2956530" lon="8.0604860">
        <ele>-192.2</ele>
        <time>2022-06-05T09:21:30Z</time>
      </trkpt>
      <trkpt lat="48.2955030" lon="8.0606660">
        <ele>-191.6</ele>
        <time>2022-06-05T09:21:34Z</time>
      </trkpt>
      <trkpt lat="48.2953500" lon="8.0608380">
        <ele>-191.8</ele>
        <time>2022-06-05T09:21:38Z</time>
      </trkpt>
      <trkpt lat="48.2951960" lon="8.0610000">
        <ele>-191.6</ele>
        <time>2022-06-05T09:21:42Z</time>
      </trkpt>
      <trkpt lat="48.2950450" lon="8.0611550">
        <ele>-191.4</ele>
        <time>2022-06-05T09:21:46Z</time>
      </trkpt>
      <trkpt lat="48.2948930" lon="8.0613000">
        <ele>-192.2</ele>
        <time>2022-06-05T09:21:50Z</time>
      </trkpt>
      <trkpt lat="48.2947350" lon="8.0614510">
        <ele>-193.2</ele>
        <time>2022-06-05T09:21:54Z</time>
      </trkpt>
      <trkpt lat="48.2945680" lon="8.0615950">
        <ele>-192.4</ele>
        <time>2022-06-05T09:21:58Z</time>
      </trkpt>
      <trkpt lat="48.2943980" lon="8.0617330">
        <ele>-192.4</ele>
        <time>2022-06-05T09:22:02Z</time>
      </trkpt>
      <trkpt lat="48.2942410" lon="8.0618850">
        <ele>-192.2</ele>
        <time>2022-06-05T09:22:06Z</time>
      </trkpt>
      <trkpt lat="48.2940700" lon="8.0620200">
        <ele>-191.0</ele>
        <time>2022-06-05T09:22:10Z</time>
      </trkpt>
      <trkpt lat="48.2938950" lon="8.0621610">
        <ele>-190.2</ele>
        <time>2022-06-05T09:22:14Z</time>
      </trkpt>
      <trkpt lat="48.2937210" lon="8.0623100">
        <ele>-191.2</ele>
        <time>2022-06-05T09:22:18Z</time>
      </trkpt>
      <trkpt lat="48.2935530" lon="8.0624500">
        <ele>-191.8</ele>
        <time>2022-06-05T09:22:22Z</time>
      </trkpt>
      <trkpt lat="48.2933850" lon="8.0625800">
        <ele>-190.0</ele>
        <time>2022-06-05T09:22:26Z</time>
      </trkpt>
      <trkpt lat="48.2932150" lon="8.0627080">
        <ele>-191.6</ele>
        <time>2022-06-05T09:22:30Z</time>
      </trkpt>
      <trkpt lat="48.2930450" lon="8.0628380">
        <ele>-191.0</ele>
        <time>2022-06-05T09:22:34Z</time>
      </trkpt>
      <trkpt lat="48.2928760" lon="8.0629580">
        <ele>-191.6</ele>
        <time>2022-06-05T09:22:38Z</time>
      </trkpt>
      <trkpt lat="48.2927050" lon="8.0630760">
        <ele>-191.4</ele>
        <time>2022-06-05T09:22:42Z</time>
      </trkpt>
      <trkpt lat="48.2925260" lon="8.0631950">
        <ele>-190.6</ele>
        <time>2022-06-05T09:22:46Z</time>
      </trkpt>
      <trkpt lat="48.2923430" lon="8.0633150">
        <ele>-190.2</ele>
        <time>2022-06-05T09:22:50Z</time>
      </trkpt>
      <trkpt lat="48.2921580" lon="8.0634360">
        <ele>-189.2</ele>
        <time>2022-06-05T09:22:54Z</time>
      </trkpt>
      <trkpt lat="48.2919730" lon="8.0635550">
        <ele>-191.0</ele>
        <time>2022-06-05T09:22:58Z</time>
      </trkpt>
      <trkpt lat="48.2917960" lon="8.0636680">
        <ele>-190.6</ele>
        <time>2022-06-05T09:23:02Z</time>
      </trkpt>
      <trkpt lat="48.2916230" lon="8.0637760">
        <ele>-189.4</ele>
        <time>2022-06-05T09:23:06Z</time>
      </trkpt>
      <trkpt lat="48.2914500" lon="8.0638830">
        <ele>-189.8</ele>
        <time>2022-06-05T09:23:10Z</time>
      </trkpt>
      <trkpt lat="48.2912710" lon="8.0639900">
        <ele>-189.8</ele>
        <time>2022-06-05T09:23:14Z</time>
      </trkpt>
      <trkpt lat="48.2910930" lon="8.0640960">
        <ele>-190.0</ele>
        <time>2022-06-05T09:23:18Z</time>
      </trkpt>
      <trkpt lat="48.2909110" lon="8.0642030">
        <ele>-190.8</ele>
        <time>2022-06-05T09:23:22Z</time>
      </trkpt>
      <trkpt lat="48.2907350" lon="8.0643100">
        <ele>-191.2</ele>
        <time>2022-06-05T09:23:26Z</time>
      </trkpt>
      <trkpt lat="48.2905630" lon="8.0644160">
        <ele>-190.4</ele>
        <time>2022-06-05T09:23:30Z</time>
      </trkpt>
      <trkpt lat="48.2903880" lon="8.0645260">
        <ele>-191.4</ele>
        <time>2022-06-05T09:23:34Z</time>
      </trkpt>
      <trkpt lat="48.2902150" lon="8.0646380">
        <ele>-191.0</ele>
        <time>2022-06-05T09:23:38Z</time>
      </trkpt>
      <trkpt lat="48.2900410" lon="8.0647600">
        <ele>-191.6</ele>
        <time>2022-06-05T09:23:42Z</time>
      </trkpt>
      <trkpt lat="48.2898750" lon="8.0648780">
        <ele>-192.0</ele>
        <time>2022-06-05T09:23:46Z</time>
      </trkpt>
      <trkpt lat="48.2897080" lon="8.0650110">
        <ele>-191.2</ele>
        <time>2022-06-05T09:23:50Z</time>
      </trkpt>
      <trkpt lat="48.2895430" lon="8.0651400">
        <ele>-191.6</ele>
        <time>2022-06-05T09:23:54Z</time>
      </trkpt>
      <trkpt lat="48.2893800" lon="8.0652780">
        <ele>-191.4</ele>
        <time>2022-06-05T09:23:58Z</time>
      </trkpt>
      <trkpt lat="48.2892160" lon="8.0654200">
        <ele>-191.8</ele>
        <time>2022-06-05T09:24:02Z</time>
      </trkpt>
      <trkpt lat="48.2890430" lon="8.0655580">
        <ele>-191.6</ele>
        <time>2022-06-05T09:24:06Z</time>
      </trkpt>
      <trkpt lat="48.2888880" lon="8.0656980">
        <ele>-190.8</ele>
        <time>2022-06-05T09:24:10Z</time>
      </trkpt>
      <trkpt lat="48.2887350" lon="8.0658450">
        <ele>-191.0</ele>
        <time>2022-06-05T09:24:14Z</time>
      </trkpt>
      <trkpt lat="48.2885800" lon="8.0660210">
        <ele>-191.2</ele>
        <time>2022-06-05T09:24:18Z</time>
      </trkpt>
      <trkpt lat="48.2884250" lon="8.0661850">
        <ele>-191.0</ele>
        <time>2022-06-05T09:24:22Z</time>
      </trkpt>
      <trkpt lat="48.2882750" lon="8.0663400">
        <ele>-190.4</ele>
        <time>2022-06-05T09:24:26Z</time>
      </trkpt>
      <trkpt lat="48.2881280" lon="8.0665080">
        <ele>-190.8</ele>
        <time>2022-06-05T09:24:30Z</time>
      </trkpt>
      <trkpt lat="48.2879780" lon="8.0666780">
        <ele>-191.0</ele>
        <time>2022-06-05T09:24:34Z</time>
      </trkpt>
      <trkpt lat="48.2878310" lon="8.0668610">
        <ele>-190.4</ele>
        <time>2022-06-05T09:24:38Z</time>
      </trkpt>
      <trkpt lat="48.2876900" lon="8.0670400">
        <ele>-190.2</ele>
        <time>2022-06-05T09:24:42Z</time>
      </trkpt>
      <trkpt lat="48.2875500" lon="8.0672200">
        <ele>-189.8</ele>
        <time>2022-06-05T09:24:46Z</time>
      </trkpt>
      <trkpt lat="48.2874160" lon="8.0673980">
        <ele>-189.4</ele>
        <time>2022-06-05T09:24:50Z</time>
      </trkpt>
      <trkpt lat="48.2872930" lon="8.0675610">
        <ele>-190.6</ele>
        <time>2022-06-05T09:24:54Z</time>
      </trkpt>
      <trkpt lat="48.2871810" lon="8.0677130">
        <ele>-189.6</ele>
        <time>2022-06-05T09:24:58Z</time>
      </trkpt>
      <trkpt lat="48.2870880" lon="8.0678630">
        <ele>-189.8</ele>
        <time>2022-06-05T09:25:02Z</time>
      </trkpt>
      <trkpt lat="48.2869910" lon="8.0680300">
        <ele>-190.6</ele>
        <time>2022-06-05T09:25:06Z</time>
      </trkpt>
      <trkpt lat="48.2868930" lon="8.0681960">
        <ele>-190.0</ele>
        <time>2022-06-05T09:25:10Z</time>
      </trkpt>
      <trkpt lat="48.2867830" lon="8.0683610">
        <ele>-190.2</ele>
        <time>2022-06-05T09:25:14Z</time>
      </trkpt>
      <trkpt lat="48.2866680" lon="8.0685310">
        <ele>-190.0</ele>
        <time>2022-06-05T09:25:18Z</time>
      </trkpt>
      <trkpt lat="48.2865560" lon="8.0687260">
        <ele>-190.0</ele>
        <time>2022-06-05T09:25:22Z</time>
      </trkpt>
      <trkpt lat="48.2864460" lon="8.0689150">
        <ele>-190.0</ele>
        <time>2022-06-05T09:25:26Z</time>
      </trkpt>
      <trkpt lat="48.2863430" lon="8.0691060">
        <ele>-190.4</ele>
        <time>2022-06-05T09:25:30Z</time>
      </trkpt>
      <trkpt lat="48.2862400" lon="8.0693050">
        <ele>-189.4</ele>
        <time>2022-06-05T09:25:34Z</time>
      </trkpt>
      <trkpt lat="48.2861300" lon="8.0695050">
        <ele>-189.6</ele>
        <time>2022-06-05T09:25:38Z</time>
      </trkpt>
      <trkpt lat="48.2860250" lon="8.0697080">
        <ele>-190.8</ele>
        <time>2022-06-05T09:25:42Z</time>
      </trkpt>
      <trkpt lat="48.2859300" lon="8.0699110">
        <ele>-190.4</ele>
        <time>2022-06-05T09:25:46Z</time>
      </trkpt>
      <trkpt lat="48.2858210" lon="8.0701260">
        <ele>-191.0</ele>
        <time>2022-06-05T09:25:50Z</time>
      </trkpt>
      <trkpt lat="48.2857180" lon="8.0703550">
        <ele>-189.6</ele>
        <time>2022-06-05T09:25:54Z</time>
      </trkpt>
      <trkpt lat="48.2856130" lon="8.0705850">
        <ele>-189.8</ele>
        <time>2022-06-05T09:25:58Z</time>
      </trkpt>
      <trkpt lat="48.2855100" lon="8.0708160">
        <ele>-188.6</ele>
        <time>2022-06-05T09:26:02Z</time>
      </trkpt>
      <trkpt lat="48.2854100" lon="8.0710330">
        <ele>-188.6</ele>
        <time>2022-06-05T09:26:06Z</time>
      </trkpt>
      <trkpt lat="48.2853200" lon="8.0712530">
        <ele>-189.2</ele>
        <time>2022-06-05T09:26:10Z</time>
      </trkpt>
      <trkpt lat="48.2852280" lon="8.0714730">
        <ele>-188.0</ele>
        <time>2022-06-05T09:26:14Z</time>
      </trkpt>
      <trkpt lat="48.2851330" lon="8.0716910">
        <ele>-188.6</ele>
        <time>2022-06-05T09:26:18Z</time>
      </trkpt>
      <trkpt lat="48.2850350" lon="8.0719060">
        <ele>-188.0</ele>
        <time>2022-06-05T09:26:22Z</time>
      </trkpt>
      <trkpt lat="48.2849410" lon="8.0721060">
        <ele>-189.6</ele>
        <time>2022-06-05T09:26:26Z</time>
      </trkpt>
      <trkpt lat="48.2848460" lon="8.0723100">
        <ele>-189.8</ele>
        <time>2022-06-05T09:26:30Z</time>
      </trkpt>
      <trkpt lat="48.2847410" lon="8.0725110">
        <ele>-188.8</ele>
        <time>2022-06-05T09:26:34Z</time>
      </trkpt>
      <trkpt lat="48.2846360" lon="8.0727050">
        <ele>-188.6</ele>
        <time>2022-06-05T09:26:38Z</time>
      </trkpt>
      <trkpt lat="48.2845350" lon="8.0728860">
        <ele>-188.8</ele>
        <time>2022-06-05T09:26:42Z</time>
      </trkpt>
      <trkpt lat="48.2844430" lon="8.0730480">
        <ele>-187.6</ele>
        <time>2022-06-05T09:26:46Z</time>
      </trkpt>
      <trkpt lat="48.2844130" lon="8.0732160">
        <ele>-188.6</ele>
        <time>2022-06-05T09:26:50Z</time>
      </trkpt>
      <trkpt lat="48.2845330" lon="8.0733780">
        <ele>-188.6</ele>
        <time>2022-06-05T09:26:54Z</time>
      </trkpt>
      <trkpt lat="48.2846050" lon="8.0735700">
        <ele>-187.8</ele>
        <time>2022-06-05T09:26:58Z</time>
      </trkpt>
      <trkpt lat="48.2846160" lon="8.0737510">
        <ele>-187.8</ele>
        <time>2022-06-05T09:27:02Z</time>
      </trkpt>
      <trkpt lat="48.2845400" lon="8.0739710">
        <ele>-189.8</ele>
        <time>2022-06-05T09:27:06Z</time>
      </trkpt>
      <trkpt lat="48.2844300" lon="8.0741880">
        <ele>-191.0</ele>
        <time>2022-06-05T09:27:10Z</time>
      </trkpt>
      <trkpt lat="48.2843100" lon="8.0743310">
        <ele>-188.6</ele>
        <time>2022-06-05T09:27:14Z</time>
      </trkpt>
      <trkpt lat="48.2842380" lon="8.0743500">
        <ele>-187.2</ele>
        <time>2022-06-05T09:27:18Z</time>
      </trkpt>
      <trkpt lat="48.2841800" lon="8.0743700">
        <ele>-186.0</ele>
        <time>2022-06-05T09:27:22Z</time>
      </trkpt>
      <trkpt lat="48.2841030" lon="8.0744860">
        <ele>-187.4</ele>
        <time>2022-06-05T09:27:26Z</time>
      </trkpt>
      <trkpt lat="48.2839960" lon="8.0746900">
        <ele>-187.8</ele>
        <time>2022-06-05T09:27:30Z</time>
      </trkpt>
      <trkpt lat="48.2838860" lon="8.0748880">
        <ele>-186.6</ele>
        <time>2022-06-05T09:27:34Z</time>
      </trkpt>
      <trkpt lat="48.2837730" lon="8.0750910">
        <ele>-187.0</ele>
        <time>2022-06-05T09:27:38Z</time>
      </trkpt>
      <trkpt lat="48.2836680" lon="8.0752950">
        <ele>-187.0</ele>
        <time>2022-06-05T09:27:42Z</time>
      </trkpt>
      <trkpt lat="48.2835730" lon="8.0754850">
        <ele>-188.0</ele>
        <time>2022-06-05T09:27:46Z</time>
      </trkpt>
      <trkpt lat="48.2834810" lon="8.0756900">
        <ele>-186.6</ele>
        <time>2022-06-05T09:27:50Z</time>
      </trkpt>
      <trkpt lat="48.2833810" lon="8.0758930">
        <ele>-187.4</ele>
        <time>2022-06-05T09:27:54Z</time>
      </trkpt>
      <trkpt lat="48.2832900" lon="8.0761010">
        <ele>-186.6</ele>
        <time>2022-06-05T09:27:58Z</time>
      </trkpt>
      <trkpt lat="48.2832000" lon="8.0763080">
        <ele>-186.8</ele>
        <time>2022-06-05T09:28:02Z</time>
      </trkpt>
      <trkpt lat="48.2831160" lon="8.0765110">
        <ele>-186.8</ele>
        <time>2022-06-05T09:28:06Z</time>
      </trkpt>
      <trkpt lat="48.2830350" lon="8.0767230">
        <ele>-187.0</ele>
        <time>2022-06-05T09:28:10Z</time>
      </trkpt>
      <trkpt lat="48.2829580" lon="8.0769360">
        <ele>-185.8</ele>
        <time>2022-06-05T09:28:14Z</time>
      </trkpt>
      <trkpt lat="48.2828810" lon="8.0771480">
        <ele>-187.0</ele>
        <time>2022-06-05T09:28:18Z</time>
      </trkpt>
      <trkpt lat="48.2828080" lon="8.0773680">
        <ele>-187.0</ele>
        <time>2022-06-05T09:28:22Z</time>
      </trkpt>
      <trkpt lat="48.2827350" lon="8.0775880">
        <ele>-186.0</ele>
        <time>2022-06-05T09:28:26Z</time>
      </trkpt>
      <trkpt lat="48.2826610" lon="8.0778150">
        <ele>-186.6</ele>
        <time>2022-06-05T09:28:30Z</time>
      </trkpt>
      <trkpt lat="48.2825910" lon="8.0780380">
        <ele>-185.4</ele>
        <time>2022-06-05T09:28:34Z</time>
      </trkpt>
      <trkpt lat="48.2825300" lon="8.0782700">
        <ele>-185.8</ele>
        <time>2022-06-05T09:28:38Z</time>
      </trkpt>
      <trkpt lat="48.2824660" lon="8.0784980">
        <ele>-186.0</ele>
        <time>2022-06-05T09:28:42Z</time>
      </trkpt>
      <trkpt lat="48.2824080" lon="8.0787360">
        <ele>-186.0</ele>
        <time>2022-06-05T09:28:46Z</time>
      </trkpt>
      <trkpt lat="48.2823530" lon="8.0789760">
        <ele>-185.4</ele>
        <time>2022-06-05T09:28:50Z</time>
      </trkpt>
      <trkpt lat="48.2822960" lon="8.0792110">
        <ele>-185.4</ele>
        <time>2022-06-05T09:28:54Z</time>
      </trkpt>
      <trkpt lat="48.2822430" lon="8.0794330">
        <ele>-186.2</ele>
        <time>2022-06-05T09:28:58Z</time>
      </trkpt>
      <trkpt lat="48.2821230" lon="8.0794880">
        <ele>-187.0</ele>
        <time>2022-06-05T09:29:02Z</time>
      </trkpt>
      <trkpt lat="48.2820150" lon="8.0796560">
        <ele>-186.8</ele>
        <time>2022-06-05T09:29:06Z</time>
      </trkpt>
      <trkpt lat="48.2819110" lon="8.0798430">
        <ele>-187.0</ele>
        <time>2022-06-05T09:29:10Z</time>
      </trkpt>
      <trkpt lat="48.2817980" lon="8.0800050">
        <ele>-188.0</ele>
        <time>2022-06-05T09:29:14Z</time>
      </trkpt>
      <trkpt lat="48.2816780" lon="8.0801360">
        <ele>-187.4</ele>
        <time>2022-06-05T09:29:18Z</time>
      </trkpt>
      <trkpt lat="48.2816030" lon="8.0802710">
        <ele>-187.8</ele>
        <time>2022-06-05T09:29:22Z</time>
      </trkpt>
      <trkpt lat="48.2816000" lon="8.0804430">
        <ele>-187.2</ele>
        <time>2022-06-05T09:29:26Z</time>
      </trkpt>
      <trkpt lat="48.2815860" lon="8.0806250">
        <ele>-186.6</ele>
        <time>2022-06-05T09:29:30Z</time>
      </trkpt>
      <trkpt lat="48.2815680" lon="8.0807550">
        <ele>-186.4</ele>
        <time>2022-06-05T09:29:34Z</time>
      </trkpt>
      <trkpt lat="48.2815530" lon="8.0808480">
        <ele>-186.6</ele>
        <time>2022-06-05T09:29:38Z</time>
      </trkpt>
      <trkpt lat="48.2814910" lon="8.0808350">
        <ele>-186.6</ele>
        <time>2022-06-05T09:29:42Z</time>
      </trkpt>
      <trkpt lat="48.2814780" lon="8.0807100">
        <ele>-186.6</ele>
        <time>2022-06-05T09:29:46Z</time>
      </trkpt>
      <trkpt lat="48.2814760" lon="8.0805230">
        <ele>-187.2</ele>
        <time>2022-06-05T09:29:50Z</time>
      </trkpt>
      <trkpt lat="48.2814150" lon="8.0803410">
        <ele>-188.0</ele>
        <time>2022-06-05T09:29:54Z</time>
      </trkpt>
      <trkpt lat="48.2812600" lon="8.0803580">
        <ele>-188.0</ele>
        <time>2022-06-05T09:29:58Z</time>
      </trkpt>
      <trkpt lat="48.2810860" lon="8.0804110">
        <ele>-188.6</ele>
        <time>2022-06-05T09:30:02Z</time>
      </trkpt>
      <trkpt lat="48.2809060" lon="8.0804910">
        <ele>-188.6</ele>
        <time>2022-06-05T09:30:06Z</time>
      </trkpt>
      <trkpt lat="48.2807510" lon="8.0806110">
        <ele>-188.4</ele>
        <time>2022-06-05T09:30:10Z</time>
      </trkpt>
      <trkpt lat="48.2806230" lon="8.0807460">
        <ele>-187.8</ele>
        <time>2022-06-05T09:30:14Z</time>
      </trkpt>
      <trkpt lat="48.2805300" lon="8.0808800">
        <ele>-187.0</ele>
        <time>2022-06-05T09:30:18Z</time>
      </trkpt>
      <trkpt lat="48.2804560" lon="8.0810100">
        <ele>-186.6</ele>
        <time>2022-06-05T09:30:22Z</time>
      </trkpt>
      <trkpt lat="48.2803710" lon="8.0811680">
        <ele>-186.2</ele>
        <time>2022-06-05T09:30:26Z</time>
      </trkpt>
      <trkpt lat="48.2803110" lon="8.0813430">
        <ele>-185.2</ele>
        <time>2022-06-05T09:30:30Z</time>
      </trkpt>
      <trkpt lat="48.2802630" lon="8.0815460">
        <ele>-184.4</ele>
        <time>2022-06-05T09:30:34Z</time>
      </trkpt>
      <trkpt lat="48.2802280" lon="8.0817600">
        <ele>-184.6</ele>
        <time>2022-06-05T09:30:38Z</time>
      </trkpt>
      <trkpt lat="48.2802010" lon="8.0819680">
        <ele>-184.0</ele>
        <time>2022-06-05T09:30:42Z</time>
      </trkpt>
      <trkpt lat="48.2801830" lon="8.0821780">
        <ele>-183.4</ele>
        <time>2022-06-05T09:30:46Z</time>
      </trkpt>
      <trkpt lat="48.2801750" lon="8.0823810">
        <ele>-183.2</ele>
        <time>2022-06-05T09:30:50Z</time>
      </trkpt>
      <trkpt lat="48.2801630" lon="8.0825560">
        <ele>-182.8</ele>
        <time>2022-06-05T09:30:54Z</time>
      </trkpt>
      <trkpt lat="48.2801630" lon="8.0825560">
        <ele>-182.8</ele>
        <time>2022-06-05T09:30:58Z</time>
      </trkpt>
      <trkpt lat="48.2801630" lon="8.0825560">
        <ele>-182.8</ele>
        <time>2022-06-05T09:31:02Z</time>
      </trkpt>
      <trkpt lat="48.2801630" lon="8.0825560">
        <ele>-182.8</ele>
        <time>2022-06-05T09:31:06Z</time>
      </trkpt>
      <trkpt lat="48.2801630" lon="8.0826600">
        <ele>-182.8</ele>
        <time>2022-06-05T09:31:10Z</time>
      </trkpt>
      <trkpt lat="48.2801600" lon="8.0827550">
        <ele>-182.8</ele>
        <time>2022-06-05T09:31:14Z</time>
      </trkpt>
      <trkpt lat="48.2801800" lon="8.0829300">
        <ele>-182.6</ele>
        <time>2022-06-05T09:31:18Z</time>
      </trkpt>
      <trkpt lat="48.2801800" lon="8.0829300">
        <ele>-183.4</ele>
        <time>2022-06-05T09:31:22Z</time>
      </trkpt>
      <trkpt lat="48.2801800" lon="8.0829300">
        <ele>-182.8</ele>
        <time>2022-06-05T09:31:26Z</time>
      </trkpt>
      <trkpt lat="48.2801800" lon="8.0829300">
        <ele>-182.6</ele>
        <time>2022-06-05T09:31:30Z</time>
      </trkpt>
      <trkpt lat="48.2801800" lon="8.0829300">
        <ele>-182.8</ele>
        <time>2022-06-05T09:31:34Z</time>
      </trkpt>
      <trkpt lat="48.2801800" lon="8.0829300">
        <ele>-182.0</ele>
        <time>2022-06-05T09:31:38Z</time>
      </trkpt>
      <trkpt lat="48.2801800" lon="8.0829300">
        <ele>-182.8</ele>
        <time>2022-06-05T09:31:42Z</time>
      </trkpt>
      <trkpt lat="48.2801800" lon="8.0829300">
        <ele>-182.4</ele>
        <time>2022-06-05T09:31:46Z</time>
      </trkpt>
      <trkpt lat="48.2801800" lon="8.0829300">
        <ele>-182.6</ele>
        <time>2022-06-05T09:31:50Z</time>
      </trkpt>
      <trkpt lat="48.2801800" lon="8.0829300">
        <ele>-182.4</ele>
        <time>2022-06-05T09:31:54Z</time>
      </trkpt>
      <trkpt lat="48.2801800" lon="8.0829300">
        <ele>-182.4</ele>
        <time>2022-06-05T09:31:58Z</time>
      </trkpt>
      <trkpt lat="48.2801800" lon="8.0829300">
        <ele>-182.4</ele>
        <time>2022-06-05T09:32:02Z</time>
      </trkpt>
      <trkpt lat="48.2801800" lon="8.0829300">
        <ele>-182.2</ele>
        <time>2022-06-05T09:32:06Z</time>
      </trkpt>
      <trkpt lat="48.2801800" lon="8.0829300">
        <ele>-182.4</ele>
        <time>2022-06-05T09:32:10Z</time>
      </trkpt>
      <trkpt lat="48.2801800" lon="8.0829300">
        <ele>-182.8</ele>
        <time>2022-06-05T09:32:14Z</time>
      </trkpt>
      <trkpt lat="48.2801850" lon="8.0830110">
        <ele>-182.8</ele>
        <time>2022-06-05T09:32:18Z</time>
      </trkpt>
      <trkpt lat="48.2801180" lon="8.0829810">
        <ele>-183.0</ele>
        <time>2022-06-05T09:32:22Z</time>
      </trkpt>
      <trkpt lat="48.2799760" lon="8.0829650">
        <ele>-182.8</ele>
        <time>2022-06-05T09:32:26Z</time>
      </trkpt>
      <trkpt lat="48.2798160" lon="8.0830260">
        <ele>-183.0</ele>
        <time>2022-06-05T09:32:30Z</time>
      </trkpt>
      <trkpt lat="48.2796650" lon="8.0831550">
        <ele>-183.0</ele>
        <time>2022-06-05T09:32:34Z</time>
      </trkpt>
      <trkpt lat="48.2795000" lon="8.0832900">
        <ele>-183.6</ele>
        <time>2022-06-05T09:32:38Z</time>
      </trkpt>
      <trkpt lat="48.2793230" lon="8.0834280">
        <ele>-181.6</ele>
        <time>2022-06-05T09:32:42Z</time>
      </trkpt>
      <trkpt lat="48.2791510" lon="8.0835600">
        <ele>-182.2</ele>
        <time>2022-06-05T09:32:46Z</time>
      </trkpt>
      <trkpt lat="48.2789780" lon="8.0836980">
        <ele>-181.6</ele>
        <time>2022-06-05T09:32:50Z</time>
      </trkpt>
      <trkpt lat="48.2788110" lon="8.0838230">
        <ele>-181.4</ele>
        <time>2022-06-05T09:32:54Z</time>
      </trkpt>
      <trkpt lat="48.2786350" lon="8.0839560">
        <ele>-182.2</ele>
        <time>2022-06-05T09:32:58Z</time>
      </trkpt>
      <trkpt lat="48.2784660" lon="8.0840960">
        <ele>-182.2</ele>
        <time>2022-06-05T09:33:02Z</time>
      </trkpt>
      <trkpt lat="48.2783010" lon="8.0842300">
        <ele>-182.4</ele>
        <time>2022-06-05T09:33:06Z</time>
      </trkpt>
      <trkpt lat="48.2781160" lon="8.0843530">
        <ele>-181.4</ele>
        <time>2022-06-05T09:33:10Z</time>
      </trkpt>
      <trkpt lat="48.2779330" lon="8.0844930">
        <ele>-181.4</ele>
        <time>2022-06-05T09:33:14Z</time>
      </trkpt>
      <trkpt lat="48.2777580" lon="8.0846400">
        <ele>-180.2</ele>
        <time>2022-06-05T09:33:18Z</time>
      </trkpt>
      <trkpt lat="48.2775910" lon="8.0848050">
        <ele>-180.4</ele>
        <time>2022-06-05T09:33:22Z</time>
      </trkpt>
      <trkpt lat="48.2774510" lon="8.0850000">
        <ele>-179.2</ele>
        <time>2022-06-05T09:33:26Z</time>
      </trkpt>
      <trkpt lat="48.2773310" lon="8.0852200">
        <ele>-179.8</ele>
        <time>2022-06-05T09:33:30Z</time>
      </trkpt>
      <trkpt lat="48.2771780" lon="8.0854080">
        <ele>-180.0</ele>
        <time>2022-06-05T09:33:34Z</time>
      </trkpt>
      <trkpt lat="48.2770150" lon="8.0855710">
        <ele>-179.6</ele>
        <time>2022-06-05T09:33:38Z</time>
      </trkpt>
      <trkpt lat="48.2768730" lon="8.0856960">
        <ele>-179.8</ele>
        <time>2022-06-05T09:33:42Z</time>
      </trkpt>
      <trkpt lat="48.2768850" lon="8.0858650">
        <ele>-179.6</ele>
        <time>2022-06-05T09:33:46Z</time>
      </trkpt>
      <trkpt lat="48.2768680" lon="8.0860310">
        <ele>-179.4</ele>
        <time>2022-06-05T09:33:50Z</time>
      </trkpt>
      <trkpt lat="48.2768650" lon="8.0861430">
        <ele>-179.4</ele>
        <time>2022-06-05T09:33:54Z</time>
      </trkpt>
      <trkpt lat="48.2768430" lon="8.0863430">
        <ele>-179.8</ele>
        <time>2022-06-05T09:33:58Z</time>
      </trkpt>
      <trkpt lat="48.2767860" lon="8.0865660">
        <ele>-179.8</ele>
        <time>2022-06-05T09:34:02Z</time>
      </trkpt>
      <trkpt lat="48.2767160" lon="8.0867910">
        <ele>-180.0</ele>
        <time>2022-06-05T09:34:06Z</time>
      </trkpt>
      <trkpt lat="48.2766460" lon="8.0870000">
        <ele>-179.6</ele>
        <time>2022-06-05T09:34:10Z</time>
      </trkpt>
      <trkpt lat="48.2765910" lon="8.0872180">
        <ele>-179.6</ele>
        <time>2022-06-05T09:34:14Z</time>
      </trkpt>
      <trkpt lat="48.2765330" lon="8.0873930">
        <ele>-179.6</ele>
        <time>2022-06-05T09:34:18Z</time>
      </trkpt>
      <trkpt lat="48.2764560" lon="8.0874860">
        <ele>-179.8</ele>
        <time>2022-06-05T09:34:22Z</time>
      </trkpt>
      <trkpt lat="48.2764100" lon="8.0876710">
        <ele>-179.6</ele>
        <time>2022-06-05T09:34:26Z</time>
      </trkpt>
      <trkpt lat="48.2763710" lon="8.0878700">
        <ele>-179.4</ele>
        <time>2022-06-05T09:34:30Z</time>
      </trkpt>
      <trkpt lat="48.2763480" lon="8.0879930">
        <ele>-179.0</ele>
        <time>2022-06-05T09:34:34Z</time>
      </trkpt>
      <trkpt lat="48.2763480" lon="8.0879930">
        <ele>-179.0</ele>
        <time>2022-06-05T09:34:38Z</time>
      </trkpt>
      <trkpt lat="48.2763610" lon="8.0880430">
        <ele>-179.2</ele>
        <time>2022-06-05T09:34:42Z</time>
      </trkpt>
      <trkpt lat="48.2763280" lon="8.0881150">
        <ele>-179.2</ele>
        <time>2022-06-05T09:34:46Z</time>
      </trkpt>
      <trkpt lat="48.2762480" lon="8.0881250">
        <ele>-178.6</ele>
        <time>2022-06-05T09:34:50Z</time>
      </trkpt>
      <trkpt lat="48.2761450" lon="8.0881680">
        <ele>-178.4</ele>
        <time>2022-06-05T09:34:54Z</time>
      </trkpt>
      <trkpt lat="48.2760060" lon="8.0881400">
        <ele>-178.0</ele>
        <time>2022-06-05T09:34:58Z</time>
      </trkpt>
      <trkpt lat="48.2758800" lon="8.0881410">
        <ele>-178.0</ele>
        <time>2022-06-05T09:35:02Z</time>
      </trkpt>
      <trkpt lat="48.2757800" lon="8.0881710">
        <ele>-177.8</ele>
        <time>2022-06-05T09:35:06Z</time>
      </trkpt>
      <trkpt lat="48.2756850" lon="8.0882230">
        <ele>-178.0</ele>
        <time>2022-06-05T09:35:10Z</time>
      </trkpt>
      <trkpt lat="48.2755900" lon="8.0882510">
        <ele>-177.6</ele>
        <time>2022-06-05T09:35:14Z</time>
      </trkpt>
      <trkpt lat="48.2754880" lon="8.0882100">
        <ele>-178.4</ele>
        <time>2022-06-05T09:35:18Z</time>
      </trkpt>
      <trkpt lat="48.2754060" lon="8.0881530">
        <ele>-178.0</ele>
        <time>2022-06-05T09:35:22Z</time>
      </trkpt>
      <trkpt lat="48.2753460" lon="8.0880850">
        <ele>-177.6</ele>
        <time>2022-06-05T09:35:26Z</time>
      </trkpt>
      <trkpt lat="48.2753430" lon="8.0880250">
        <ele>-177.8</ele>
        <time>2022-06-05T09:35:30Z</time>
      </trkpt>
      <trkpt lat="48.2753430" lon="8.0880250">
        <ele>-177.4</ele>
        <time>2022-06-05T09:35:34Z</time>
      </trkpt>
      <trkpt lat="48.2753430" lon="8.0880250">
        <ele>-177.4</ele>
        <time>2022-06-05T09:35:38Z</time>
      </trkpt>
      <trkpt lat="48.2753430" lon="8.0880250">
        <ele>-177.6</ele>
        <time>2022-06-05T09:35:42Z</time>
      </trkpt>
      <trkpt lat="48.2753430" lon="8.0880250">
        <ele>-177.2</ele>
        <time>2022-06-05T09:35:46Z</time>
      </trkpt>
      <trkpt lat="48.2753430" lon="8.0880250">
        <ele>-177.8</ele>
        <time>2022-06-05T09:35:50Z</time>
      </trkpt>
      <trkpt lat="48.2753430" lon="8.0880250">
        <ele>-177.4</ele>
        <time>2022-06-05T09:35:54Z</time>
      </trkpt>
      <trkpt lat="48.2753430" lon="8.0880250">
        <ele>-177.2</ele>
        <time>2022-06-05T09:35:58Z</time>
      </trkpt>
      <trkpt lat="48.2753430" lon="8.0880250">
        <ele>-177.4</ele>
        <time>2022-06-05T09:36:02Z</time>
      </trkpt>
      <trkpt lat="48.2753430" lon="8.0880250">
        <ele>-177.4</ele>
        <time>2022-06-05T09:36:06Z</time>
      </trkpt>
      <trkpt lat="48.2753430" lon="8.0880250">
        <ele>-177.8</ele>
        <time>2022-06-05T09:36:10Z</time>
      </trkpt>
      <trkpt lat="48.2753430" lon="8.0880250">
        <ele>-177.4</ele>
        <time>2022-06-05T09:36:14Z</time>
      </trkpt>
      <trkpt lat="48.2753430" lon="8.0880250">
        <ele>-177.6</ele>
        <time>2022-06-05T09:36:18Z</time>
      </trkpt>
      <trkpt lat="48.2753430" lon="8.0880250">
        <ele>-177.4</ele>
        <time>2022-06-05T09:36:22Z</time>
      </trkpt>
      <trkpt lat="48.2753430" lon="8.0880250">
        <ele>-177.4</ele>
        <time>2022-06-05T09:36:26Z</time>
      </trkpt>
      <trkpt lat="48.2753430" lon="8.0880250">
        <ele>-177.2</ele>
        <time>2022-06-05T09:36:30Z</time>
      </trkpt>
      <trkpt lat="48.2753430" lon="8.0880250">
        <ele>-177.4</ele>
        <time>2022-06-05T09:36:34Z</time>
      </trkpt>
      <trkpt lat="48.2753430" lon="8.0880250">
        <ele>-177.2</ele>
        <time>2022-06-05T09:36:38Z</time>
      </trkpt>
      <trkpt lat="48.2753430" lon="8.0880250">
        <ele>-177.6</ele>
        <time>2022-06-05T09:36:42Z</time>
      </trkpt>
      <trkpt lat="48.2753430" lon="8.0880250">
        <ele>-177.4</ele>
        <time>2022-06-05T09:36:46Z</time>
      </trkpt>
      <trkpt lat="48.2753430" lon="8.0880250">
        <ele>-177.4</ele>
        <time>2022-06-05T09:36:50Z</time>
      </trkpt>
      <trkpt lat="48.2753430" lon="8.0880250">
        <ele>-177.4</ele>
        <time>2022-06-05T09:36:54Z</time>
      </trkpt>
      <trkpt lat="48.2753430" lon="8.0880250">
        <ele>-177.4</ele>
        <time>2022-06-05T09:36:58Z</time>
      </trkpt>
      <trkpt lat="48.2753430" lon="8.0880250">
        <ele>-177.2</ele>
        <time>2022-06-05T09:37:02Z</time>
      </trkpt>
      <trkpt lat="48.2753430" lon="8.0880250">
        <ele>-176.8</ele>
        <time>2022-06-05T09:37:06Z</time>
      </trkpt>
      <trkpt lat="48.2753430" lon="8.0880250">
        <ele>-176.8</ele>
        <time>2022-06-05T09:37:10Z</time>
      </trkpt>
      <trkpt lat="48.2753430" lon="8.0880250">
        <ele>-177.0</ele>
        <time>2022-06-05T09:37:14Z</time>
      </trkpt>
      <trkpt lat="48.2753430" lon="8.0880250">
        <ele>-176.8</ele>
        <time>2022-06-05T09:37:18Z</time>
      </trkpt>
      <trkpt lat="48.2753430" lon="8.0880250">
        <ele>-177.2</ele>
        <time>2022-06-05T09:37:22Z</time>
      </trkpt>
      <trkpt lat="48.2753430" lon="8.0880250">
        <ele>-177.4</ele>
        <time>2022-06-05T09:37:26Z</time>
      </trkpt>
      <trkpt lat="48.2753430" lon="8.0880250">
        <ele>-177.0</ele>
        <time>2022-06-05T09:37:30Z</time>
      </trkpt>
      <trkpt lat="48.2753430" lon="8.0880250">
        <ele>-177.0</ele>
        <time>2022-06-05T09:37:34Z</time>
      </trkpt>
      <trkpt lat="48.2753430" lon="8.0880250">
        <ele>-176.8</ele>
        <time>2022-06-05T09:37:38Z</time>
      </trkpt>
      <trkpt lat="48.2753430" lon="8.0880250">
        <ele>-176.6</ele>
        <time>2022-06-05T09:37:42Z</time>
      </trkpt>
      <trkpt lat="48.2753430" lon="8.0880250">
        <ele>-176.8</ele>
        <time>2022-06-05T09:37:46Z</time>
      </trkpt>
      <trkpt lat="48.2753430" lon="8.0880250">
        <ele>-176.6</ele>
        <time>2022-06-05T09:37:50Z</time>
      </trkpt>
      <trkpt lat="48.2753430" lon="8.0880250">
        <ele>-177.0</ele>
        <time>2022-06-05T09:37:54Z</time>
      </trkpt>
      <trkpt lat="48.2753430" lon="8.0880250">
        <ele>-177.0</ele>
        <time>2022-06-05T09:37:58Z</time>
      </trkpt>
      <trkpt lat="48.2753430" lon="8.0880250">
        <ele>-176.6</ele>
        <time>2022-06-05T09:38:02Z</time>
      </trkpt>
      <trkpt lat="48.2753430" lon="8.0880250">
        <ele>-176.8</ele>
        <time>2022-06-05T09:38:06Z</time>
      </trkpt>
      <trkpt lat="48.2753430" lon="8.0880250">
        <ele>-177.4</ele>
        <time>2022-06-05T09:38:10Z</time>
      </trkpt>
      <trkpt lat="48.2753430" lon="8.0880250">
        <ele>-176.8</ele>
        <time>2022-06-05T09:38:14Z</time>
      </trkpt>
      <trkpt lat="48.2753430" lon="8.0880250">
        <ele>-176.2</ele>
        <time>2022-06-05T09:38:18Z</time>
      </trkpt>
      <trkpt lat="48.2753430" lon="8.0880250">
        <ele>-176.4</ele>
        <time>2022-06-05T09:38:22Z</time>
      </trkpt>
      <trkpt lat="48.2753430" lon="8.0880250">
        <ele>-176.4</ele>
        <time>2022-06-05T09:38:26Z</time>
      </trkpt>
      <trkpt lat="48.2753430" lon="8.0880250">
        <ele>-176.8</ele>
        <time>2022-06-05T09:38:30Z</time>
      </trkpt>
      <trkpt lat="48.2753430" lon="8.0880250">
        <ele>-176.8</ele>
        <time>2022-06-05T09:38:34Z</time>
      </trkpt>
      <trkpt lat="48.2753430" lon="8.0880250">
        <ele>-176.6</ele>
        <time>2022-06-05T09:38:38Z</time>
      </trkpt>
      <trkpt lat="48.2753430" lon="8.0880250">
        <ele>-176.8</ele>
        <time>2022-06-05T09:38:42Z</time>
      </trkpt>
      <trkpt lat="48.2753430" lon="8.0880250">
        <ele>-176.6</ele>
        <time>2022-06-05T09:38:46Z</time>
      </trkpt>
      <trkpt lat="48.2753430" lon="8.0880250">
        <ele>-176.4</ele>
        <time>2022-06-05T09:38:50Z</time>
      </trkpt>
      <trkpt lat="48.2753430" lon="8.0880250">
        <ele>-176.8</ele>
        <time>2022-06-05T09:38:54Z</time>
      </trkpt>
      <trkpt lat="48.2753430" lon="8.0880250">
        <ele>-176.4</ele>
        <time>2022-06-05T09:38:58Z</time>
      </trkpt>
      <trkpt lat="48.2753430" lon="8.0880250">
        <ele>-176.4</ele>
        <time>2022-06-05T09:39:02Z</time>
      </trkpt>
      <trkpt lat="48.2753430" lon="8.0880250">
        <ele>-176.6</ele>
        <time>2022-06-05T09:39:06Z</time>
      </trkpt>
      <trkpt lat="48.2753430" lon="8.0880250">
        <ele>-176.2</ele>
        <time>2022-06-05T09:39:10Z</time>
      </trkpt>
      <trkpt lat="48.2753430" lon="8.0880250">
        <ele>-176.6</ele>
        <time>2022-06-05T09:39:14Z</time>
      </trkpt>
      <trkpt lat="48.2753430" lon="8.0880250">
        <ele>-176.2</ele>
        <time>2022-06-05T09:39:18Z</time>
      </trkpt>
      <trkpt lat="48.2753430" lon="8.0880250">
        <ele>-176.6</ele>
        <time>2022-06-05T09:39:22Z</time>
      </trkpt>
      <trkpt lat="48.2753430" lon="8.0880250">
        <ele>-175.8</ele>
        <time>2022-06-05T09:39:26Z</time>
      </trkpt>
      <trkpt lat="48.2753430" lon="8.0880250">
        <ele>-176.0</ele>
        <time>2022-06-05T09:39:30Z</time>
      </trkpt>
      <trkpt lat="48.2753430" lon="8.0880250">
        <ele>-176.4</ele>
        <time>2022-06-05T09:39:34Z</time>
      </trkpt>
      <trkpt lat="48.2753430" lon="8.0880250">
        <ele>-176.2</ele>
        <time>2022-06-05T09:39:38Z</time>
      </trkpt>
      <trkpt lat="48.2753430" lon="8.0880250">
        <ele>-176.2</ele>
        <time>2022-06-05T09:39:42Z</time>
      </trkpt>
      <trkpt lat="48.2753430" lon="8.0880250">
        <ele>-176.2</ele>
        <time>2022-06-05T09:39:46Z</time>
      </trkpt>
      <trkpt lat="48.2753430" lon="8.0880250">
        <ele>-176.2</ele>
        <time>2022-06-05T09:39:50Z</time>
      </trkpt>
      <trkpt lat="48.2753430" lon="8.0880250">
        <ele>-176.4</ele>
        <time>2022-06-05T09:39:54Z</time>
      </trkpt>
      <trkpt lat="48.2753430" lon="8.0880250">
        <ele>-176.2</ele>
        <time>2022-06-05T09:39:58Z</time>
      </trkpt>
      <trkpt lat="48.2753430" lon="8.0880250">
        <ele>-176.2</ele>
        <time>2022-06-05T09:40:02Z</time>
      </trkpt>
      <trkpt lat="48.2753430" lon="8.0880250">
        <ele>-176.2</ele>
        <time>2022-06-05T09:40:06Z</time>
      </trkpt>
      <trkpt lat="48.2753430" lon="8.0880250">
        <ele>-176.2</ele>
        <time>2022-06-05T09:40:10Z</time>
      </trkpt>
      <trkpt lat="48.2753430" lon="8.0880250">
        <ele>-176.2</ele>
        <time>2022-06-05T09:40:14Z</time>
      </trkpt>
      <trkpt lat="48.2753430" lon="8.0880250">
        <ele>-176.0</ele>
        <time>2022-06-05T09:40:18Z</time>
      </trkpt>
      <trkpt lat="48.2753430" lon="8.0880250">
        <ele>-176.4</ele>
        <time>2022-06-05T09:40:22Z</time>
      </trkpt>
      <trkpt lat="48.2753430" lon="8.0880250">
        <ele>-176.4</ele>
        <time>2022-06-05T09:40:26Z</time>
      </trkpt>
      <trkpt lat="48.2753430" lon="8.0880250">
        <ele>-176.0</ele>
        <time>2022-06-05T09:40:30Z</time>
      </trkpt>
      <trkpt lat="48.2753430" lon="8.0880250">
        <ele>-176.0</ele>
        <time>2022-06-05T09:40:34Z</time>
      </trkpt>
      <trkpt lat="48.2753430" lon="8.0880250">
        <ele>-176.4</ele>
        <time>2022-06-05T09:40:38Z</time>
      </trkpt>
      <trkpt lat="48.2753430" lon="8.0880250">
        <ele>-176.2</ele>
        <time>2022-06-05T09:40:42Z</time>
      </trkpt>
      <trkpt lat="48.2753430" lon="8.0880250">
        <ele>-176.4</ele>
        <time>2022-06-05T09:40:46Z</time>
      </trkpt>
      <trkpt lat="48.2753430" lon="8.0880250">
        <ele>-176.2</ele>
        <time>2022-06-05T09:40:50Z</time>
      </trkpt>
      <trkpt lat="48.2753430" lon="8.0880250">
        <ele>-176.2</ele>
        <time>2022-06-05T09:40:54Z</time>
      </trkpt>
      <trkpt lat="48.2753430" lon="8.0880250">
        <ele>-176.0</ele>
        <time>2022-06-05T09:40:58Z</time>
      </trkpt>
      <trkpt lat="48.2753430" lon="8.0880250">
        <ele>-176.4</ele>
        <time>2022-06-05T09:41:02Z</time>
      </trkpt>
      <trkpt lat="48.2753430" lon="8.0880250">
        <ele>-176.4</ele>
        <time>2022-06-05T09:41:06Z</time>
      </trkpt>
      <trkpt lat="48.2753430" lon="8.0880250">
        <ele>-176.6</ele>
        <time>2022-06-05T09:41:10Z</time>
      </trkpt>
      <trkpt lat="48.2753430" lon="8.0880250">
        <ele>-177.0</ele>
        <time>2022-06-05T09:41:14Z</time>
      </trkpt>
      <trkpt lat="48.2753430" lon="8.0880250">
        <ele>-176.4</ele>
        <time>2022-06-05T09:41:18Z</time>
      </trkpt>
      <trkpt lat="48.2753430" lon="8.0880250">
        <ele>-176.4</ele>
        <time>2022-06-05T09:41:22Z</time>
      </trkpt>
      <trkpt lat="48.2753430" lon="8.0880250">
        <ele>-176.8</ele>
        <time>2022-06-05T09:41:26Z</time>
      </trkpt>
      <trkpt lat="48.2753430" lon="8.0880250">
        <ele>-176.6</ele>
        <time>2022-06-05T09:41:30Z</time>
      </trkpt>
      <trkpt lat="48.2753430" lon="8.0880250">
        <ele>-176.8</ele>
        <time>2022-06-05T09:41:34Z</time>
      </trkpt>
      <trkpt lat="48.2753430" lon="8.0880250">
        <ele>-177.2</ele>
        <time>2022-06-05T09:41:38Z</time>
      </trkpt>
      <trkpt lat="48.2753430" lon="8.0880250">
        <ele>-177.0</ele>
        <time>2022-06-05T09:41:42Z</time>
      </trkpt>
      <trkpt lat="48.2753430" lon="8.0880250">
        <ele>-176.6</ele>
        <time>2022-06-05T09:41:46Z</time>
      </trkpt>
      <trkpt lat="48.2753430" lon="8.0880250">
        <ele>-176.8</ele>
        <time>2022-06-05T09:41:50Z</time>
      </trkpt>
      <trkpt lat="48.2753430" lon="8.0880250">
        <ele>-176.8</ele>
        <time>2022-06-05T09:41:54Z</time>
      </trkpt>
      <trkpt lat="48.2753430" lon="8.0880250">
        <ele>-176.8</ele>
        <time>2022-06-05T09:41:58Z</time>
      </trkpt>
      <trkpt lat="48.2753430" lon="8.0880250">
        <ele>-176.8</ele>
        <time>2022-06-05T09:42:02Z</time>
      </trkpt>
      <trkpt lat="48.2753430" lon="8.0880250">
        <ele>-176.6</ele>
        <time>2022-06-05T09:42:06Z</time>
      </trkpt>
      <trkpt lat="48.2753430" lon="8.0880250">
        <ele>-177.0</ele>
        <time>2022-06-05T09:42:10Z</time>
      </trkpt>
      <trkpt lat="48.2753430" lon="8.0880250">
        <ele>-176.8</ele>
        <time>2022-06-05T09:42:14Z</time>
      </trkpt>
      <trkpt lat="48.2753430" lon="8.0880250">
        <ele>-176.8</ele>
        <time>2022-06-05T09:42:18Z</time>
      </trkpt>
      <trkpt lat="48.2753430" lon="8.0880250">
        <ele>-176.8</ele>
        <time>2022-06-05T09:42:22Z</time>
      </trkpt>
      <trkpt lat="48.2753430" lon="8.0880250">
        <ele>-177.0</ele>
        <time>2022-06-05T09:42:26Z</time>
      </trkpt>
      <trkpt lat="48.2753430" lon="8.0880250">
        <ele>-176.8</ele>
        <time>2022-06-05T09:42:30Z</time>
      </trkpt>
      <trkpt lat="48.2753430" lon="8.0880250">
        <ele>-176.2</ele>
        <time>2022-06-05T09:42:34Z</time>
      </trkpt>
      <trkpt lat="48.2753430" lon="8.0880250">
        <ele>-177.0</ele>
        <time>2022-06-05T09:42:38Z</time>
      </trkpt>
      <trkpt lat="48.2753430" lon="8.0880250">
        <ele>-176.8</ele>
        <time>2022-06-05T09:42:42Z</time>
      </trkpt>
      <trkpt lat="48.2753430" lon="8.0880250">
        <ele>-176.8</ele>
        <time>2022-06-05T09:42:46Z</time>
      </trkpt>
      <trkpt lat="48.2753430" lon="8.0880250">
        <ele>-176.8</ele>
        <time>2022-06-05T09:42:50Z</time>
      </trkpt>
      <trkpt lat="48.2753430" lon="8.0880250">
        <ele>-177.0</ele>
        <time>2022-06-05T09:42:54Z</time>
      </trkpt>
      <trkpt lat="48.2753430" lon="8.0880250">
        <ele>-176.8</ele>
        <time>2022-06-05T09:42:58Z</time>
      </trkpt>
      <trkpt lat="48.2753430" lon="8.0880250">
        <ele>-177.0</ele>
        <time>2022-06-05T09:43:02Z</time>
      </trkpt>
      <trkpt lat="48.2753430" lon="8.0880250">
        <ele>-177.0</ele>
        <time>2022-06-05T09:43:06Z</time>
      </trkpt>
      <trkpt lat="48.2753430" lon="8.0880250">
        <ele>-176.8</ele>
        <time>2022-06-05T09:43:10Z</time>
      </trkpt>
      <trkpt lat="48.2753430" lon="8.0880250">
        <ele>-176.8</ele>
        <time>2022-06-05T09:43:14Z</time>
      </trkpt>
      <trkpt lat="48.2753430" lon="8.0880250">
        <ele>-177.2</ele>
        <time>2022-06-05T09:43:18Z</time>
      </trkpt>
      <trkpt lat="48.2753430" lon="8.0880250">
        <ele>-176.6</ele>
        <time>2022-06-05T09:43:22Z</time>
      </trkpt>
      <trkpt lat="48.2753430" lon="8.0880250">
        <ele>-176.8</ele>
        <time>2022-06-05T09:43:26Z</time>
      </trkpt>
      <trkpt lat="48.2753430" lon="8.0880250">
        <ele>-177.0</ele>
        <time>2022-06-05T09:43:30Z</time>
      </trkpt>
      <trkpt lat="48.2753430" lon="8.0880250">
        <ele>-177.0</ele>
        <time>2022-06-05T09:43:34Z</time>
      </trkpt>
      <trkpt lat="48.2753430" lon="8.0880250">
        <ele>-177.4</ele>
        <time>2022-06-05T09:43:38Z</time>
      </trkpt>
      <trkpt lat="48.2753430" lon="8.0880250">
        <ele>-177.4</ele>
        <time>2022-06-05T09:43:42Z</time>
      </trkpt>
      <trkpt lat="48.2753430" lon="8.0880250">
        <ele>-177.4</ele>
        <time>2022-06-05T09:43:46Z</time>
      </trkpt>
      <trkpt lat="48.2753430" lon="8.0880250">
        <ele>-177.0</ele>
        <time>2022-06-05T09:43:50Z</time>
      </trkpt>
      <trkpt lat="48.2753430" lon="8.0880250">
        <ele>-176.8</ele>
        <time>2022-06-05T09:43:54Z</time>
      </trkpt>
      <trkpt lat="48.2753430" lon="8.0880250">
        <ele>-176.8</ele>
        <time>2022-06-05T09:43:58Z</time>
      </trkpt>
      <trkpt lat="48.2753430" lon="8.0880250">
        <ele>-177.4</ele>
        <time>2022-06-05T09:44:02Z</time>
      </trkpt>
      <trkpt lat="48.2753430" lon="8.0880250">
        <ele>-177.4</ele>
        <time>2022-06-05T09:44:06Z</time>
      </trkpt>
      <trkpt lat="48.2753430" lon="8.0880250">
        <ele>-177.6</ele>
        <time>2022-06-05T09:44:10Z</time>
      </trkpt>
      <trkpt lat="48.2753430" lon="8.0880250">
        <ele>-177.6</ele>
        <time>2022-06-05T09:44:14Z</time>
      </trkpt>
      <trkpt lat="48.2753430" lon="8.0880250">
        <ele>-178.0</ele>
        <time>2022-06-05T09:44:18Z</time>
      </trkpt>
      <trkpt lat="48.2753430" lon="8.0880250">
        <ele>-177.6</ele>
        <time>2022-06-05T09:44:22Z</time>
      </trkpt>
      <trkpt lat="48.2753430" lon="8.0880250">
        <ele>-178.0</ele>
        <time>2022-06-05T09:44:26Z</time>
      </trkpt>
      <trkpt lat="48.2753430" lon="8.0880250">
        <ele>-177.6</ele>
        <time>2022-06-05T09:44:30Z</time>
      </trkpt>
      <trkpt lat="48.2753430" lon="8.0880250">
        <ele>-178.0</ele>
        <time>2022-06-05T09:44:34Z</time>
      </trkpt>
      <trkpt lat="48.2753430" lon="8.0880250">
        <ele>-177.6</ele>
        <time>2022-06-05T09:44:38Z</time>
      </trkpt>
      <trkpt lat="48.2753430" lon="8.0880250">
        <ele>-177.8</ele>
        <time>2022-06-05T09:44:42Z</time>
      </trkpt>
      <trkpt lat="48.2753430" lon="8.0880250">
        <ele>-177.8</ele>
        <time>2022-06-05T09:44:46Z</time>
      </trkpt>
      <trkpt lat="48.2753430" lon="8.0880250">
        <ele>-177.8</ele>
        <time>2022-06-05T09:44:50Z</time>
      </trkpt>
      <trkpt lat="48.2753430" lon="8.0880250">
        <ele>-177.8</ele>
        <time>2022-06-05T09:44:54Z</time>
      </trkpt>
      <trkpt lat="48.2753430" lon="8.0880250">
        <ele>-178.0</ele>
        <time>2022-06-05T09:44:58Z</time>
      </trkpt>
      <trkpt lat="48.2753430" lon="8.0880250">
        <ele>-177.8</ele>
        <time>2022-06-05T09:45:02Z</time>
      </trkpt>
      <trkpt lat="48.2753430" lon="8.0880250">
        <ele>-178.0</ele>
        <time>2022-06-05T09:45:06Z</time>
      </trkpt>
      <trkpt lat="48.2753430" lon="8.0880250">
        <ele>-178.0</ele>
        <time>2022-06-05T09:45:10Z</time>
      </trkpt>
      <trkpt lat="48.2753430" lon="8.0880250">
        <ele>-178.4</ele>
        <time>2022-06-05T09:45:14Z</time>
      </trkpt>
      <trkpt lat="48.2753430" lon="8.0880250">
        <ele>-178.4</ele>
        <time>2022-06-05T09:45:18Z</time>
      </trkpt>
      <trkpt lat="48.2753430" lon="8.0880250">
        <ele>-178.0</ele>
        <time>2022-06-05T09:45:22Z</time>
      </trkpt>
      <trkpt lat="48.2753430" lon="8.0880250">
        <ele>-178.0</ele>
        <time>2022-06-05T09:45:26Z</time>
      </trkpt>
      <trkpt lat="48.2753430" lon="8.0880250">
        <ele>-178.0</ele>
        <time>2022-06-05T09:45:30Z</time>
      </trkpt>
      <trkpt lat="48.2753430" lon="8.0880250">
        <ele>-178.2</ele>
        <time>2022-06-05T09:45:34Z</time>
      </trkpt>
      <trkpt lat="48.2753430" lon="8.0880250">
        <ele>-178.2</ele>
        <time>2022-06-05T09:45:38Z</time>
      </trkpt>
      <trkpt lat="48.2753430" lon="8.0880250">
        <ele>-178.0</ele>
        <time>2022-06-05T09:45:42Z</time>
      </trkpt>
      <trkpt lat="48.2753430" lon="8.0880250">
        <ele>-178.0</ele>
        <time>2022-06-05T09:45:46Z</time>
      </trkpt>
      <trkpt lat="48.2753430" lon="8.0880250">
        <ele>-178.4</ele>
        <time>2022-06-05T09:45:50Z</time>
      </trkpt>
      <trkpt lat="48.2753430" lon="8.0880250">
        <ele>-178.2</ele>
        <time>2022-06-05T09:45:54Z</time>
      </trkpt>
      <trkpt lat="48.2753430" lon="8.0880250">
        <ele>-178.4</ele>
        <time>2022-06-05T09:45:58Z</time>
      </trkpt>
      <trkpt lat="48.2753430" lon="8.0880250">
        <ele>-178.4</ele>
        <time>2022-06-05T09:46:02Z</time>
      </trkpt>
      <trkpt lat="48.2753430" lon="8.0880250">
        <ele>-178.4</ele>
        <time>2022-06-05T09:46:06Z</time>
      </trkpt>
      <trkpt lat="48.2753430" lon="8.0880250">
        <ele>-178.4</ele>
        <time>2022-06-05T09:46:10Z</time>
      </trkpt>
      <trkpt lat="48.2753430" lon="8.0880250">
        <ele>-178.4</ele>
        <time>2022-06-05T09:46:14Z</time>
      </trkpt>
      <trkpt lat="48.2753430" lon="8.0880250">
        <ele>-178.2</ele>
        <time>2022-06-05T09:46:18Z</time>
      </trkpt>
      <trkpt lat="48.2753430" lon="8.0880250">
        <ele>-178.4</ele>
        <time>2022-06-05T09:46:22Z</time>
      </trkpt>
      <trkpt lat="48.2753430" lon="8.0880250">
        <ele>-178.2</ele>
        <time>2022-06-05T09:46:26Z</time>
      </trkpt>
      <trkpt lat="48.2753430" lon="8.0880250">
        <ele>-178.4</ele>
        <time>2022-06-05T09:46:30Z</time>
      </trkpt>
      <trkpt lat="48.2753430" lon="8.0880250">
        <ele>-178.4</ele>
        <time>2022-06-05T09:46:34Z</time>
      </trkpt>
      <trkpt lat="48.2753430" lon="8.0880250">
        <ele>-178.4</ele>
        <time>2022-06-05T09:46:38Z</time>
      </trkpt>
      <trkpt lat="48.2753430" lon="8.0880250">
        <ele>-178.6</ele>
        <time>2022-06-05T09:46:42Z</time>
      </trkpt>
      <trkpt lat="48.2753430" lon="8.0880250">
        <ele>-178.2</ele>
        <time>2022-06-05T09:46:46Z</time>
      </trkpt>
      <trkpt lat="48.2753430" lon="8.0880250">
        <ele>-177.8</ele>
        <time>2022-06-05T09:46:50Z</time>
      </trkpt>
      <trkpt lat="48.2753430" lon="8.0880250">
        <ele>-178.0</ele>
        <time>2022-06-05T09:46:54Z</time>
      </trkpt>
      <trkpt lat="48.2753430" lon="8.0880250">
        <ele>-178.0</ele>
        <time>2022-06-05T09:46:58Z</time>
      </trkpt>
      <trkpt lat="48.2753430" lon="8.0880250">
        <ele>-178.0</ele>
        <time>2022-06-05T09:47:02Z</time>
      </trkpt>
      <trkpt lat="48.2753430" lon="8.0880250">
        <ele>-177.8</ele>
        <time>2022-06-05T09:47:06Z</time>
      </trkpt>
      <trkpt lat="48.2753430" lon="8.0880250">
        <ele>-178.0</ele>
        <time>2022-06-05T09:47:10Z</time>
      </trkpt>
      <trkpt lat="48.2753430" lon="8.0880250">
        <ele>-178.0</ele>
        <time>2022-06-05T09:47:14Z</time>
      </trkpt>
      <trkpt lat="48.2753430" lon="8.0880250">
        <ele>-177.8</ele>
        <time>2022-06-05T09:47:18Z</time>
      </trkpt>
      <trkpt lat="48.2753430" lon="8.0880250">
        <ele>-178.0</ele>
        <time>2022-06-05T09:47:22Z</time>
      </trkpt>
      <trkpt lat="48.2753430" lon="8.0880250">
        <ele>-178.0</ele>
        <time>2022-06-05T09:47:26Z</time>
      </trkpt>
      <trkpt lat="48.2753430" lon="8.0880250">
        <ele>-178.4</ele>
        <time>2022-06-05T09:47:30Z</time>
      </trkpt>
      <trkpt lat="48.2753430" lon="8.0880250">
        <ele>-178.0</ele>
        <time>2022-06-05T09:47:34Z</time>
      </trkpt>
      <trkpt lat="48.2753430" lon="8.0880250">
        <ele>-178.0</ele>
        <time>2022-06-05T09:47:38Z</time>
      </trkpt>
      <trkpt lat="48.2753430" lon="8.0880250">
        <ele>-178.2</ele>
        <time>2022-06-05T09:47:42Z</time>
      </trkpt>
      <trkpt lat="48.2753430" lon="8.0880250">
        <ele>-178.2</ele>
        <time>2022-06-05T09:47:46Z</time>
      </trkpt>
      <trkpt lat="48.2753430" lon="8.0880250">
        <ele>-178.2</ele>
        <time>2022-06-05T09:47:50Z</time>
      </trkpt>
      <trkpt lat="48.2753430" lon="8.0880250">
        <ele>-178.4</ele>
        <time>2022-06-05T09:47:54Z</time>
      </trkpt>
      <trkpt lat="48.2753430" lon="8.0880250">
        <ele>-178.0</ele>
        <time>2022-06-05T09:47:58Z</time>
      </trkpt>
      <trkpt lat="48.2753430" lon="8.0880250">
        <ele>-178.0</ele>
        <time>2022-06-05T09:48:02Z</time>
      </trkpt>
      <trkpt lat="48.2753430" lon="8.0880250">
        <ele>-178.2</ele>
        <time>2022-06-05T09:48:06Z</time>
      </trkpt>
      <trkpt lat="48.2753430" lon="8.0880250">
        <ele>-178.0</ele>
        <time>2022-06-05T09:48:10Z</time>
      </trkpt>
      <trkpt lat="48.2753430" lon="8.0880250">
        <ele>-178.0</ele>
        <time>2022-06-05T09:48:14Z</time>
      </trkpt>
      <trkpt lat="48.2753430" lon="8.0880250">
        <ele>-178.2</ele>
        <time>2022-06-05T09:48:18Z</time>
      </trkpt>
      <trkpt lat="48.2753430" lon="8.0880250">
        <ele>-178.6</ele>
        <time>2022-06-05T09:48:22Z</time>
      </trkpt>
      <trkpt lat="48.2753430" lon="8.0880250">
        <ele>-178.0</ele>
        <time>2022-06-05T09:48:26Z</time>
      </trkpt>
      <trkpt lat="48.2753430" lon="8.0880250">
        <ele>-178.4</ele>
        <time>2022-06-05T09:48:30Z</time>
      </trkpt>
      <trkpt lat="48.2753430" lon="8.0880250">
        <ele>-178.6</ele>
        <time>2022-06-05T09:48:34Z</time>
      </trkpt>
      <trkpt lat="48.2753430" lon="8.0880250">
        <ele>-178.2</ele>
        <time>2022-06-05T09:48:38Z</time>
      </trkpt>
      <trkpt lat="48.2753430" lon="8.0880250">
        <ele>-178.2</ele>
        <time>2022-06-05T09:48:42Z</time>
      </trkpt>
      <trkpt lat="48.2753430" lon="8.0880250">
        <ele>-178.4</ele>
        <time>2022-06-05T09:48:46Z</time>
      </trkpt>
      <trkpt lat="48.2753430" lon="8.0880250">
        <ele>-178.2</ele>
        <time>2022-06-05T09:48:50Z</time>
      </trkpt>
      <trkpt lat="48.2753430" lon="8.0880250">
        <ele>-178.4</ele>
        <time>2022-06-05T09:48:54Z</time>
      </trkpt>
      <trkpt lat="48.2753430" lon="8.0880250">
        <ele>-178.2</ele>
        <time>2022-06-05T09:48:58Z</time>
      </trkpt>
      <trkpt lat="48.2753430" lon="8.0880250">
        <ele>-178.6</ele>
        <time>2022-06-05T09:49:02Z</time>
      </trkpt>
      <trkpt lat="48.2753430" lon="8.0880250">
        <ele>-178.2</ele>
        <time>2022-06-05T09:49:06Z</time>
      </trkpt>
      <trkpt lat="48.2753430" lon="8.0880250">
        <ele>-178.4</ele>
        <time>2022-06-05T09:49:10Z</time>
      </trkpt>
      <trkpt lat="48.2753430" lon="8.0880250">
        <ele>-178.0</ele>
        <time>2022-06-05T09:49:14Z</time>
      </trkpt>
      <trkpt lat="48.2753430" lon="8.0880250">
        <ele>-178.0</ele>
        <time>2022-06-05T09:49:18Z</time>
      </trkpt>
      <trkpt lat="48.2753430" lon="8.0880250">
        <ele>-178.4</ele>
        <time>2022-06-05T09:49:22Z</time>
      </trkpt>
      <trkpt lat="48.2753430" lon="8.0880250">
        <ele>-178.0</ele>
        <time>2022-06-05T09:49:26Z</time>
      </trkpt>
      <trkpt lat="48.2753430" lon="8.0880250">
        <ele>-178.2</ele>
        <time>2022-06-05T09:49:30Z</time>
      </trkpt>
      <trkpt lat="48.2753430" lon="8.0880250">
        <ele>-178.2</ele>
        <time>2022-06-05T09:49:34Z</time>
      </trkpt>
      <trkpt lat="48.2753430" lon="8.0880250">
        <ele>-178.0</ele>
        <time>2022-06-05T09:49:38Z</time>
      </trkpt>
      <trkpt lat="48.2753430" lon="8.0880250">
        <ele>-178.2</ele>
        <time>2022-06-05T09:49:42Z</time>
      </trkpt>
      <trkpt lat="48.2753430" lon="8.0880250">
        <ele>-178.4</ele>
        <time>2022-06-05T09:49:46Z</time>
      </trkpt>
      <trkpt lat="48.2753430" lon="8.0880250">
        <ele>-178.0</ele>
        <time>2022-06-05T09:49:50Z</time>
      </trkpt>
      <trkpt lat="48.2753430" lon="8.0880250">
        <ele>-178.0</ele>
        <time>2022-06-05T09:49:54Z</time>
      </trkpt>
      <trkpt lat="48.2753430" lon="8.0880250">
        <ele>-178.0</ele>
        <time>2022-06-05T09:49:58Z</time>
      </trkpt>
      <trkpt lat="48.2753430" lon="8.0880250">
        <ele>-178.0</ele>
        <time>2022-06-05T09:50:02Z</time>
      </trkpt>
      <trkpt lat="48.2753430" lon="8.0880250">
        <ele>-178.2</ele>
        <time>2022-06-05T09:50:06Z</time>
      </trkpt>
      <trkpt lat="48.2753430" lon="8.0880250">
        <ele>-178.2</ele>
        <time>2022-06-05T09:50:10Z</time>
      </trkpt>
      <trkpt lat="48.2753430" lon="8.0880250">
        <ele>-178.2</ele>
        <time>2022-06-05T09:50:14Z</time>
      </trkpt>
      <trkpt lat="48.2753430" lon="8.0880250">
        <ele>-177.8</ele>
        <time>2022-06-05T09:50:18Z</time>
      </trkpt>
      <trkpt lat="48.2753430" lon="8.0880250">
        <ele>-178.2</ele>
        <time>2022-06-05T09:50:22Z</time>
      </trkpt>
      <trkpt lat="48.2753430" lon="8.0880250">
        <ele>-178.2</ele>
        <time>2022-06-05T09:50:26Z</time>
      </trkpt>
      <trkpt lat="48.2753430" lon="8.0880250">
        <ele>-178.8</ele>
        <time>2022-06-05T09:50:30Z</time>
      </trkpt>
      <trkpt lat="48.2753430" lon="8.0880250">
        <ele>-178.6</ele>
        <time>2022-06-05T09:50:34Z</time>
      </trkpt>
      <trkpt lat="48.2753430" lon="8.0880250">
        <ele>-178.6</ele>
        <time>2022-06-05T09:50:38Z</time>
      </trkpt>
      <trkpt lat="48.2753430" lon="8.0880250">
        <ele>-178.2</ele>
        <time>2022-06-05T09:50:42Z</time>
      </trkpt>
      <trkpt lat="48.2753430" lon="8.0880250">
        <ele>-178.6</ele>
        <time>2022-06-05T09:50:46Z</time>
      </trkpt>
      <trkpt lat="48.2753430" lon="8.0880250">
        <ele>-178.4</ele>
        <time>2022-06-05T09:50:50Z</time>
      </trkpt>
      <trkpt lat="48.2753430" lon="8.0880250">
        <ele>-178.4</ele>
        <time>2022-06-05T09:50:54Z</time>
      </trkpt>
      <trkpt lat="48.2753430" lon="8.0880250">
        <ele>-178.2</ele>
        <time>2022-06-05T09:50:58Z</time>
      </trkpt>
      <trkpt lat="48.2753430" lon="8.0880250">
        <ele>-178.2</ele>
        <time>2022-06-05T09:51:02Z</time>
      </trkpt>
      <trkpt lat="48.2753430" lon="8.0880250">
        <ele>-178.2</ele>
        <time>2022-06-05T09:51:06Z</time>
      </trkpt>
      <trkpt lat="48.2753430" lon="8.0880250">
        <ele>-178.0</ele>
        <time>2022-06-05T09:51:10Z</time>
      </trkpt>
      <trkpt lat="48.2753430" lon="8.0880250">
        <ele>-178.2</ele>
        <time>2022-06-05T09:51:14Z</time>
      </trkpt>
      <trkpt lat="48.2753430" lon="8.0880250">
        <ele>-178.4</ele>
        <time>2022-06-05T09:51:18Z</time>
      </trkpt>
      <trkpt lat="48.2753430" lon="8.0880250">
        <ele>-178.0</ele>
        <time>2022-06-05T09:51:22Z</time>
      </trkpt>
      <trkpt lat="48.2753430" lon="8.0880250">
        <ele>-178.2</ele>
        <time>2022-06-05T09:51:26Z</time>
      </trkpt>
      <trkpt lat="48.2753430" lon="8.0880250">
        <ele>-178.2</ele>
        <time>2022-06-05T09:51:30Z</time>
      </trkpt>
      <trkpt lat="48.2753430" lon="8.0880250">
        <ele>-178.0</ele>
        <time>2022-06-05T09:51:34Z</time>
      </trkpt>
      <trkpt lat="48.2753430" lon="8.0880250">
        <ele>-178.2</ele>
        <time>2022-06-05T09:51:38Z</time>
      </trkpt>
      <trkpt lat="48.2753430" lon="8.0880250">
        <ele>-178.2</ele>
        <time>2022-06-05T09:51:42Z</time>
      </trkpt>
      <trkpt lat="48.2753430" lon="8.0880250">
        <ele>-178.0</ele>
        <time>2022-06-05T09:51:46Z</time>
      </trkpt>
      <trkpt lat="48.2753430" lon="8.0880250">
        <ele>-178.4</ele>
        <time>2022-06-05T09:51:50Z</time>
      </trkpt>
      <trkpt lat="48.2753430" lon="8.0880250">
        <ele>-178.0</ele>
        <time>2022-06-05T09:51:54Z</time>
      </trkpt>
      <trkpt lat="48.2753430" lon="8.0880250">
        <ele>-178.4</ele>
        <time>2022-06-05T09:51:58Z</time>
      </trkpt>
      <trkpt lat="48.2753430" lon="8.0880250">
        <ele>-178.0</ele>
        <time>2022-06-05T09:52:02Z</time>
      </trkpt>
      <trkpt lat="48.2753430" lon="8.0880250">
        <ele>-178.4</ele>
        <time>2022-06-05T09:52:06Z</time>
      </trkpt>
      <trkpt lat="48.2753430" lon="8.0880250">
        <ele>-178.2</ele>
        <time>2022-06-05T09:52:10Z</time>
      </trkpt>
      <trkpt lat="48.2753430" lon="8.0880250">
        <ele>-178.2</ele>
        <time>2022-06-05T09:52:14Z</time>
      </trkpt>
      <trkpt lat="48.2753430" lon="8.0880250">
        <ele>-178.2</ele>
        <time>2022-06-05T09:52:18Z</time>
      </trkpt>
      <trkpt lat="48.2753430" lon="8.0880250">
        <ele>-178.2</ele>
        <time>2022-06-05T09:52:22Z</time>
      </trkpt>
      <trkpt lat="48.2753430" lon="8.0880250">
        <ele>-178.0</ele>
        <time>2022-06-05T09:52:26Z</time>
      </trkpt>
      <trkpt lat="48.2753430" lon="8.0880250">
        <ele>-177.8</ele>
        <time>2022-06-05T09:52:30Z</time>
      </trkpt>
      <trkpt lat="48.2753430" lon="8.0880250">
        <ele>-178.2</ele>
        <time>2022-06-05T09:52:34Z</time>
      </trkpt>
      <trkpt lat="48.2753430" lon="8.0880250">
        <ele>-178.0</ele>
        <time>2022-06-05T09:52:38Z</time>
      </trkpt>
      <trkpt lat="48.2753430" lon="8.0880250">
        <ele>-178.0</ele>
        <time>2022-06-05T09:52:42Z</time>
      </trkpt>
      <trkpt lat="48.2753430" lon="8.0880250">
        <ele>-178.0</ele>
        <time>2022-06-05T09:52:46Z</time>
      </trkpt>
      <trkpt lat="48.2753430" lon="8.0880250">
        <ele>-178.0</ele>
        <time>2022-06-05T09:52:50Z</time>
      </trkpt>
      <trkpt lat="48.2753430" lon="8.0880250">
        <ele>-178.2</ele>
        <time>2022-06-05T09:52:54Z</time>
      </trkpt>
      <trkpt lat="48.2753430" lon="8.0880250">
        <ele>-178.4</ele>
        <time>2022-06-05T09:52:58Z</time>
      </trkpt>
      <trkpt lat="48.2753430" lon="8.0880250">
        <ele>-178.4</ele>
        <time>2022-06-05T09:53:02Z</time>
      </trkpt>
      <trkpt lat="48.2753430" lon="8.0880250">
        <ele>-178.6</ele>
        <time>2022-06-05T09:53:06Z</time>
      </trkpt>
      <trkpt lat="48.2753430" lon="8.0880250">
        <ele>-178.0</ele>
        <time>2022-06-05T09:53:10Z</time>
      </trkpt>
      <trkpt lat="48.2753430" lon="8.0880250">
        <ele>-178.0</ele>
        <time>2022-06-05T09:53:14Z</time>
      </trkpt>
      <trkpt lat="48.2753430" lon="8.0880250">
        <ele>-178.2</ele>
        <time>2022-06-05T09:53:18Z</time>
      </trkpt>
      <trkpt lat="48.2753430" lon="8.0880250">
        <ele>-178.2</ele>
        <time>2022-06-05T09:53:22Z</time>
      </trkpt>
      <trkpt lat="48.2753430" lon="8.0880250">
        <ele>-179.0</ele>
        <time>2022-06-05T09:53:26Z</time>
      </trkpt>
      <trkpt lat="48.2753430" lon="8.0880250">
        <ele>-179.0</ele>
        <time>2022-06-05T09:53:30Z</time>
      </trkpt>
      <trkpt lat="48.2753430" lon="8.0880250">
        <ele>-178.8</ele>
        <time>2022-06-05T09:53:34Z</time>
      </trkpt>
      <trkpt lat="48.2753430" lon="8.0880250">
        <ele>-178.6</ele>
        <time>2022-06-05T09:53:38Z</time>
      </trkpt>
      <trkpt lat="48.2753430" lon="8.0880250">
        <ele>-178.6</ele>
        <time>2022-06-05T09:53:42Z</time>
      </trkpt>
      <trkpt lat="48.2753430" lon="8.0880250">
        <ele>-178.6</ele>
        <time>2022-06-05T09:53:46Z</time>
      </trkpt>
      <trkpt lat="48.2753430" lon="8.0880250">
        <ele>-178.4</ele>
        <time>2022-06-05T09:53:50Z</time>
      </trkpt>
      <trkpt lat="48.2753430" lon="8.0880250">
        <ele>-178.2</ele>
        <time>2022-06-05T09:53:54Z</time>
      </trkpt>
      <trkpt lat="48.2753430" lon="8.0880250">
        <ele>-178.2</ele>
        <time>2022-06-05T09:53:58Z</time>
      </trkpt>
      <trkpt lat="48.2753430" lon="8.0880250">
        <ele>-178.6</ele>
        <time>2022-06-05T09:54:02Z</time>
      </trkpt>
      <trkpt lat="48.2753430" lon="8.0880250">
        <ele>-178.8</ele>
        <time>2022-06-05T09:54:06Z</time>
      </trkpt>
      <trkpt lat="48.2753430" lon="8.0880250">
        <ele>-178.6</ele>
        <time>2022-06-05T09:54:10Z</time>
      </trkpt>
      <trkpt lat="48.2753430" lon="8.0880250">
        <ele>-178.8</ele>
        <time>2022-06-05T09:54:14Z</time>
      </trkpt>
      <trkpt lat="48.2753430" lon="8.0880250">
        <ele>-178.2</ele>
        <time>2022-06-05T09:54:18Z</time>
      </trkpt>
      <trkpt lat="48.2753430" lon="8.0880250">
        <ele>-178.0</ele>
        <time>2022-06-05T09:54:22Z</time>
      </trkpt>
      <trkpt lat="48.2753430" lon="8.0880250">
        <ele>-178.2</ele>
        <time>2022-06-05T09:54:26Z</time>
      </trkpt>
      <trkpt lat="48.2753430" lon="8.0880250">
        <ele>-178.2</ele>
        <time>2022-06-05T09:54:30Z</time>
      </trkpt>
      <trkpt lat="48.2753430" lon="8.0880250">
        <ele>-178.2</ele>
        <time>2022-06-05T09:54:34Z</time>
      </trkpt>
      <trkpt lat="48.2753430" lon="8.0880250">
        <ele>-178.6</ele>
        <time>2022-06-05T09:54:38Z</time>
      </trkpt>
      <trkpt lat="48.2753430" lon="8.0880250">
        <ele>-178.2</ele>
        <time>2022-06-05T09:54:42Z</time>
      </trkpt>
      <trkpt lat="48.2753430" lon="8.0880250">
        <ele>-178.4</ele>
        <time>2022-06-05T09:54:46Z</time>
      </trkpt>
      <trkpt lat="48.2753430" lon="8.0880250">
        <ele>-178.4</ele>
        <time>2022-06-05T09:54:50Z</time>
      </trkpt>
      <trkpt lat="48.2753430" lon="8.0880250">
        <ele>-178.4</ele>
        <time>2022-06-05T09:54:54Z</time>
      </trkpt>
      <trkpt lat="48.2753430" lon="8.0880250">
        <ele>-178.4</ele>
        <time>2022-06-05T09:54:58Z</time>
      </trkpt>
      <trkpt lat="48.2753430" lon="8.0880250">
        <ele>-178.6</ele>
        <time>2022-06-05T09:55:02Z</time>
      </trkpt>
      <trkpt lat="48.2753430" lon="8.0880250">
        <ele>-178.4</ele>
        <time>2022-06-05T09:55:06Z</time>
      </trkpt>
      <trkpt lat="48.2753430" lon="8.0880250">
        <ele>-178.6</ele>
        <time>2022-06-05T09:55:10Z</time>
      </trkpt>
      <trkpt lat="48.2753430" lon="8.0880250">
        <ele>-178.4</ele>
        <time>2022-06-05T09:55:14Z</time>
      </trkpt>
      <trkpt lat="48.2753430" lon="8.0880250">
        <ele>-178.2</ele>
        <time>2022-06-05T09:55:18Z</time>
      </trkpt>
      <trkpt lat="48.2753430" lon="8.0880250">
        <ele>-178.2</ele>
        <time>2022-06-05T09:55:22Z</time>
      </trkpt>
      <trkpt lat="48.2753430" lon="8.0880250">
        <ele>-178.2</ele>
        <time>2022-06-05T09:55:26Z</time>
      </trkpt>
      <trkpt lat="48.2753430" lon="8.0880250">
        <ele>-178.4</ele>
        <time>2022-06-05T09:55:30Z</time>
      </trkpt>
      <trkpt lat="48.2753430" lon="8.0880250">
        <ele>-178.4</ele>
        <time>2022-06-05T09:55:34Z</time>
      </trkpt>
      <trkpt lat="48.2753430" lon="8.0880250">
        <ele>-178.4</ele>
        <time>2022-06-05T09:55:38Z</time>
      </trkpt>
      <trkpt lat="48.2753430" lon="8.0880250">
        <ele>-178.6</ele>
        <time>2022-06-05T09:55:42Z</time>
      </trkpt>
      <trkpt lat="48.2753430" lon="8.0880250">
        <ele>-178.2</ele>
        <time>2022-06-05T09:55:46Z</time>
      </trkpt>
      <trkpt lat="48.2753430" lon="8.0880250">
        <ele>-178.4</ele>
        <time>2022-06-05T09:55:50Z</time>
      </trkpt>
      <trkpt lat="48.2753430" lon="8.0880250">
        <ele>-178.2</ele>
        <time>2022-06-05T09:55:54Z</time>
      </trkpt>
      <trkpt lat="48.2753430" lon="8.0880250">
        <ele>-178.6</ele>
        <time>2022-06-05T09:55:58Z</time>
      </trkpt>
      <trkpt lat="48.2753430" lon="8.0880250">
        <ele>-178.2</ele>
        <time>2022-06-05T09:56:02Z</time>
      </trkpt>
      <trkpt lat="48.2753430" lon="8.0880250">
        <ele>-178.4</ele>
        <time>2022-06-05T09:56:06Z</time>
      </trkpt>
      <trkpt lat="48.2753430" lon="8.0880250">
        <ele>-178.0</ele>
        <time>2022-06-05T09:56:10Z</time>
      </trkpt>
      <trkpt lat="48.2753430" lon="8.0880250">
        <ele>-178.2</ele>
        <time>2022-06-05T09:56:14Z</time>
      </trkpt>
      <trkpt lat="48.2753430" lon="8.0880250">
        <ele>-178.4</ele>
        <time>2022-06-05T09:56:18Z</time>
      </trkpt>
      <trkpt lat="48.2753430" lon="8.0880250">
        <ele>-178.2</ele>
        <time>2022-06-05T09:56:22Z</time>
      </trkpt>
      <trkpt lat="48.2753430" lon="8.0880250">
        <ele>-178.6</ele>
        <time>2022-06-05T09:56:26Z</time>
      </trkpt>
      <trkpt lat="48.2753430" lon="8.0880250">
        <ele>-178.2</ele>
        <time>2022-06-05T09:56:30Z</time>
      </trkpt>
      <trkpt lat="48.2753430" lon="8.0880250">
        <ele>-178.2</ele>
        <time>2022-06-05T09:56:34Z</time>
      </trkpt>
      <trkpt lat="48.2753430" lon="8.0880250">
        <ele>-178.0</ele>
        <time>2022-06-05T09:56:38Z</time>
      </trkpt>
      <trkpt lat="48.2753430" lon="8.0880250">
        <ele>-177.6</ele>
        <time>2022-06-05T09:56:42Z</time>
      </trkpt>
      <trkpt lat="48.2753430" lon="8.0880250">
        <ele>-177.6</ele>
        <time>2022-06-05T09:56:46Z</time>
      </trkpt>
      <trkpt lat="48.2753430" lon="8.0880250">
        <ele>-177.4</ele>
        <time>2022-06-05T09:56:50Z</time>
      </trkpt>
      <trkpt lat="48.2753430" lon="8.0880250">
        <ele>-177.8</ele>
        <time>2022-06-05T09:56:54Z</time>
      </trkpt>
      <trkpt lat="48.2753430" lon="8.0880250">
        <ele>-178.0</ele>
        <time>2022-06-05T09:56:58Z</time>
      </trkpt>
      <trkpt lat="48.2753430" lon="8.0880250">
        <ele>-177.8</ele>
        <time>2022-06-05T09:57:02Z</time>
      </trkpt>
      <trkpt lat="48.2753430" lon="8.0880250">
        <ele>-177.6</ele>
        <time>2022-06-05T09:57:06Z</time>
      </trkpt>
      <trkpt lat="48.2753430" lon="8.0880250">
        <ele>-177.2</ele>
        <time>2022-06-05T09:57:10Z</time>
      </trkpt>
      <trkpt lat="48.2754430" lon="8.0879630">
        <ele>-177.4</ele>
        <time>2022-06-05T09:57:14Z</time>
      </trkpt>
      <trkpt lat="48.2754950" lon="8.0880510">
        <ele>-177.4</ele>
        <time>2022-06-05T09:57:18Z</time>
      </trkpt>
      <trkpt lat="48.2755630" lon="8.0882110">
        <ele>-178.2</ele>
        <time>2022-06-05T09:57:22Z</time>
      </trkpt>
      <trkpt lat="48.2756910" lon="8.0882010">
        <ele>-177.6</ele>
        <time>2022-06-05T09:57:26Z</time>
      </trkpt>
      <trkpt lat="48.2758180" lon="8.0881550">
        <ele>-177.4</ele>
        <time>2022-06-05T09:57:30Z</time>
      </trkpt>
      <trkpt lat="48.2759450" lon="8.0881410">
        <ele>-177.6</ele>
        <time>2022-06-05T09:57:34Z</time>
      </trkpt>
      <trkpt lat="48.2760660" lon="8.0881450">
        <ele>-178.0</ele>
        <time>2022-06-05T09:57:38Z</time>
      </trkpt>
      <trkpt lat="48.2761680" lon="8.0881280">
        <ele>-178.0</ele>
        <time>2022-06-05T09:57:42Z</time>
      </trkpt>
      <trkpt lat="48.2762410" lon="8.0880310">
        <ele>-178.4</ele>
        <time>2022-06-05T09:57:46Z</time>
      </trkpt>
      <trkpt lat="48.2762860" lon="8.0879960">
        <ele>-178.0</ele>
        <time>2022-06-05T09:57:50Z</time>
      </trkpt>
      <trkpt lat="48.2762860" lon="8.0879960">
        <ele>-178.6</ele>
        <time>2022-06-05T09:57:54Z</time>
      </trkpt>
      <trkpt lat="48.2762860" lon="8.0879960">
        <ele>-178.6</ele>
        <time>2022-06-05T09:57:58Z</time>
      </trkpt>
      <trkpt lat="48.2762860" lon="8.0879960">
        <ele>-178.2</ele>
        <time>2022-06-05T09:58:02Z</time>
      </trkpt>
      <trkpt lat="48.2762860" lon="8.0879960">
        <ele>-178.2</ele>
        <time>2022-06-05T09:58:06Z</time>
      </trkpt>
      <trkpt lat="48.2762860" lon="8.0879960">
        <ele>-178.6</ele>
        <time>2022-06-05T09:58:10Z</time>
      </trkpt>
      <trkpt lat="48.2762860" lon="8.0879960">
        <ele>-178.2</ele>
        <time>2022-06-05T09:58:14Z</time>
      </trkpt>
      <trkpt lat="48.2762860" lon="8.0879960">
        <ele>-178.4</ele>
        <time>2022-06-05T09:58:18Z</time>
      </trkpt>
      <trkpt lat="48.2762860" lon="8.0879960">
        <ele>-178.6</ele>
        <time>2022-06-05T09:58:22Z</time>
      </trkpt>
      <trkpt lat="48.2762860" lon="8.0879960">
        <ele>-178.4</ele>
        <time>2022-06-05T09:58:26Z</time>
      </trkpt>
      <trkpt lat="48.2762860" lon="8.0879960">
        <ele>-178.2</ele>
        <time>2022-06-05T09:58:30Z</time>
      </trkpt>
      <trkpt lat="48.2762860" lon="8.0879960">
        <ele>-178.0</ele>
        <time>2022-06-05T09:58:34Z</time>
      </trkpt>
      <trkpt lat="48.2762860" lon="8.0879960">
        <ele>-178.6</ele>
        <time>2022-06-05T09:58:38Z</time>
      </trkpt>
      <trkpt lat="48.2762860" lon="8.0879960">
        <ele>-178.0</ele>
        <time>2022-06-05T09:58:42Z</time>
      </trkpt>
      <trkpt lat="48.2762860" lon="8.0879960">
        <ele>-178.0</ele>
        <time>2022-06-05T09:58:46Z</time>
      </trkpt>
      <trkpt lat="48.2762860" lon="8.0879960">
        <ele>-178.4</ele>
        <time>2022-06-05T09:58:50Z</time>
      </trkpt>
      <trkpt lat="48.2762860" lon="8.0879960">
        <ele>-178.4</ele>
        <time>2022-06-05T09:58:54Z</time>
      </trkpt>
      <trkpt lat="48.2762860" lon="8.0879960">
        <ele>-177.8</ele>
        <time>2022-06-05T09:58:58Z</time>
      </trkpt>
      <trkpt lat="48.2762860" lon="8.0879960">
        <ele>-178.4</ele>
        <time>2022-06-05T09:59:02Z</time>
      </trkpt>
      <trkpt lat="48.2762860" lon="8.0879960">
        <ele>-178.2</ele>
        <time>2022-06-05T09:59:06Z</time>
      </trkpt>
      <trkpt lat="48.2762860" lon="8.0879960">
        <ele>-178.2</ele>
        <time>2022-06-05T09:59:10Z</time>
      </trkpt>
      <trkpt lat="48.2762860" lon="8.0879960">
        <ele>-177.6</ele>
        <time>2022-06-05T09:59:14Z</time>
      </trkpt>
      <trkpt lat="48.2762860" lon="8.0879960">
        <ele>-177.8</ele>
        <time>2022-06-05T09:59:18Z</time>
      </trkpt>
      <trkpt lat="48.2762860" lon="8.0879960">
        <ele>-177.6</ele>
        <time>2022-06-05T09:59:22Z</time>
      </trkpt>
      <trkpt lat="48.2762860" lon="8.0879960">
        <ele>-178.0</ele>
        <time>2022-06-05T09:59:26Z</time>
      </trkpt>
      <trkpt lat="48.2763800" lon="8.0880360">
        <ele>-178.4</ele>
        <time>2022-06-05T09:59:30Z</time>
      </trkpt>
      <trkpt lat="48.2763800" lon="8.0880100">
        <ele>-177.6</ele>
        <time>2022-06-05T09:59:34Z</time>
      </trkpt>
      <trkpt lat="48.2763310" lon="8.0880850">
        <ele>-178.2</ele>
        <time>2022-06-05T09:59:38Z</time>
      </trkpt>
      <trkpt lat="48.2762100" lon="8.0881280">
        <ele>-178.0</ele>
        <time>2022-06-05T09:59:42Z</time>
      </trkpt>
      <trkpt lat="48.2760360" lon="8.0881230">
        <ele>-177.6</ele>
        <time>2022-06-05T09:59:46Z</time>
      </trkpt>
      <trkpt lat="48.2758830" lon="8.0881610">
        <ele>-177.4</ele>
        <time>2022-06-05T09:59:50Z</time>
      </trkpt>
      <trkpt lat="48.2757630" lon="8.0882030">
        <ele>-177.8</ele>
        <time>2022-06-05T09:59:54Z</time>
      </trkpt>
      <trkpt lat="48.2756460" lon="8.0882460">
        <ele>-177.4</ele>
        <time>2022-06-05T09:59:58Z</time>
      </trkpt>
      <trkpt lat="48.2755080" lon="8.0882610">
        <ele>-177.2</ele>
        <time>2022-06-05T10:00:02Z</time>
      </trkpt>
      <trkpt lat="48.2753630" lon="8.0882780">
        <ele>-177.0</ele>
        <time>2022-06-05T10:00:06Z</time>
      </trkpt>
      <trkpt lat="48.2752310" lon="8.0883530">
        <ele>-177.4</ele>
        <time>2022-06-05T10:00:10Z</time>
      </trkpt>
      <trkpt lat="48.2751400" lon="8.0884930">
        <ele>-176.8</ele>
        <time>2022-06-05T10:00:14Z</time>
      </trkpt>
      <trkpt lat="48.2750830" lon="8.0886760">
        <ele>-176.8</ele>
        <time>2022-06-05T10:00:18Z</time>
      </trkpt>
      <trkpt lat="48.2750360" lon="8.0888700">
        <ele>-176.8</ele>
        <time>2022-06-05T10:00:22Z</time>
      </trkpt>
      <trkpt lat="48.2749700" lon="8.0890780">
        <ele>-176.4</ele>
        <time>2022-06-05T10:00:26Z</time>
      </trkpt>
      <trkpt lat="48.2749160" lon="8.0892880">
        <ele>-176.0</ele>
        <time>2022-06-05T10:00:30Z</time>
      </trkpt>
      <trkpt lat="48.2748510" lon="8.0894900">
        <ele>-175.4</ele>
        <time>2022-06-05T10:00:34Z</time>
      </trkpt>
      <trkpt lat="48.2748200" lon="8.0896830">
        <ele>-175.8</ele>
        <time>2022-06-05T10:00:38Z</time>
      </trkpt>
      <trkpt lat="48.2747700" lon="8.0898710">
        <ele>-175.8</ele>
        <time>2022-06-05T10:00:42Z</time>
      </trkpt>
      <trkpt lat="48.2747330" lon="8.0900560">
        <ele>-176.0</ele>
        <time>2022-06-05T10:00:46Z</time>
      </trkpt>
      <trkpt lat="48.2746850" lon="8.0902050">
        <ele>-175.8</ele>
        <time>2022-06-05T10:00:50Z</time>
      </trkpt>
      <trkpt lat="48.2745480" lon="8.0902960">
        <ele>-175.6</ele>
        <time>2022-06-05T10:00:54Z</time>
      </trkpt>
      <trkpt lat="48.2743800" lon="8.0903400">
        <ele>-175.0</ele>
        <time>2022-06-05T10:00:58Z</time>
      </trkpt>
      <trkpt lat="48.2742110" lon="8.0903630">
        <ele>-175.2</ele>
        <time>2022-06-05T10:01:02Z</time>
      </trkpt>
      <trkpt lat="48.2740460" lon="8.0903680">
        <ele>-174.4</ele>
        <time>2022-06-05T10:01:06Z</time>
      </trkpt>
      <trkpt lat="48.2738830" lon="8.0903930">
        <ele>-174.0</ele>
        <time>2022-06-05T10:01:10Z</time>
      </trkpt>
      <trkpt lat="48.2737250" lon="8.0904250">
        <ele>-173.8</ele>
        <time>2022-06-05T10:01:14Z</time>
      </trkpt>
      <trkpt lat="48.2735600" lon="8.0904910">
        <ele>-173.6</ele>
        <time>2022-06-05T10:01:18Z</time>
      </trkpt>
      <trkpt lat="48.2734030" lon="8.0905750">
        <ele>-173.6</ele>
        <time>2022-06-05T10:01:22Z</time>
      </trkpt>
      <trkpt lat="48.2732500" lon="8.0906650">
        <ele>-173.2</ele>
        <time>2022-06-05T10:01:26Z</time>
      </trkpt>
      <trkpt lat="48.2730930" lon="8.0907410">
        <ele>-173.0</ele>
        <time>2022-06-05T10:01:30Z</time>
      </trkpt>
      <trkpt lat="48.2729460" lon="8.0908050">
        <ele>-173.4</ele>
        <time>2022-06-05T10:01:34Z</time>
      </trkpt>
      <trkpt lat="48.2728030" lon="8.0908860">
        <ele>-173.4</ele>
        <time>2022-06-05T10:01:38Z</time>
      </trkpt>
      <trkpt lat="48.2726730" lon="8.0909610">
        <ele>-173.0</ele>
        <time>2022-06-05T10:01:42Z</time>
      </trkpt>
      <trkpt lat="48.2725230" lon="8.0910480">
        <ele>-172.6</ele>
        <time>2022-06-05T10:01:46Z</time>
      </trkpt>
      <trkpt lat="48.2723800" lon="8.0911510">
        <ele>-172.6</ele>
        <time>2022-06-05T10:01:50Z</time>
      </trkpt>
      <trkpt lat="48.2722260" lon="8.0912580">
        <ele>-172.2</ele>
        <time>2022-06-05T10:01:54Z</time>
      </trkpt>
      <trkpt lat="48.2720750" lon="8.0913610">
        <ele>-172.6</ele>
        <time>2022-06-05T10:01:58Z</time>
      </trkpt>
      <trkpt lat="48.2719380" lon="8.0914810">
        <ele>-172.2</ele>
        <time>2022-06-05T10:02:02Z</time>
      </trkpt>
      <trkpt lat="48.2718010" lon="8.0915960">
        <ele>-172.4</ele>
        <time>2022-06-05T10:02:06Z</time>
      </trkpt>
      <trkpt lat="48.2716730" lon="8.0917010">
        <ele>-171.8</ele>
        <time>2022-06-05T10:02:10Z</time>
      </trkpt>
      <trkpt lat="48.2715410" lon="8.0918260">
        <ele>-171.8</ele>
        <time>2022-06-05T10:02:14Z</time>
      </trkpt>
      <trkpt lat="48.2714060" lon="8.0919510">
        <ele>-171.6</ele>
        <time>2022-06-05T10:02:18Z</time>
      </trkpt>
      <trkpt lat="48.2712800" lon="8.0920910">
        <ele>-171.8</ele>
        <time>2022-06-05T10:02:22Z</time>
      </trkpt>
      <trkpt lat="48.2711480" lon="8.0922350">
        <ele>-171.8</ele>
        <time>2022-06-05T10:02:26Z</time>
      </trkpt>
      <trkpt lat="48.2710160" lon="8.0923900">
        <ele>-171.4</ele>
        <time>2022-06-05T10:02:30Z</time>
      </trkpt>
      <trkpt lat="48.2708780" lon="8.0925460">
        <ele>-171.0</ele>
        <time>2022-06-05T10:02:34Z</time>
      </trkpt>
      <trkpt lat="48.2707410" lon="8.0927060">
        <ele>-170.6</ele>
        <time>2022-06-05T10:02:38Z</time>
      </trkpt>
      <trkpt lat="48.2706010" lon="8.0928560">
        <ele>-170.4</ele>
        <time>2022-06-05T10:02:42Z</time>
      </trkpt>
      <trkpt lat="48.2704560" lon="8.0930030">
        <ele>-170.2</ele>
        <time>2022-06-05T10:02:46Z</time>
      </trkpt>
      <trkpt lat="48.2703010" lon="8.0931560">
        <ele>-170.2</ele>
        <time>2022-06-05T10:02:50Z</time>
      </trkpt>
      <trkpt lat="48.2701500" lon="8.0933110">
        <ele>-169.8</ele>
        <time>2022-06-05T10:02:54Z</time>
      </trkpt>
      <trkpt lat="48.2700000" lon="8.0934680">
        <ele>-170.2</ele>
        <time>2022-06-05T10:02:58Z</time>
      </trkpt>
      <trkpt lat="48.2698550" lon="8.0936180">
        <ele>-169.8</ele>
        <time>2022-06-05T10:03:02Z</time>
      </trkpt>
      <trkpt lat="48.2697180" lon="8.0937660">
        <ele>-169.6</ele>
        <time>2022-06-05T10:03:06Z</time>
      </trkpt>
      <trkpt lat="48.2695860" lon="8.0939050">
        <ele>-168.8</ele>
        <time>2022-06-05T10:03:10Z</time>
      </trkpt>
      <trkpt lat="48.2694650" lon="8.0940530">
        <ele>-169.2</ele>
        <time>2022-06-05T10:03:14Z</time>
      </trkpt>
      <trkpt lat="48.2693510" lon="8.0942250">
        <ele>-168.4</ele>
        <time>2022-06-05T10:03:18Z</time>
      </trkpt>
      <trkpt lat="48.2692250" lon="8.0943860">
        <ele>-167.0</ele>
        <time>2022-06-05T10:03:22Z</time>
      </trkpt>
      <trkpt lat="48.2690950" lon="8.0945510">
        <ele>-167.0</ele>
        <time>2022-06-05T10:03:26Z</time>
      </trkpt>
      <trkpt lat="48.2689750" lon="8.0947080">
        <ele>-166.6</ele>
        <time>2022-06-05T10:03:30Z</time>
      </trkpt>
      <trkpt lat="48.2688600" lon="8.0948600">
        <ele>-166.8</ele>
        <time>2022-06-05T10:03:34Z</time>
      </trkpt>
      <trkpt lat="48.2687500" lon="8.0950150">
        <ele>-166.4</ele>
        <time>2022-06-05T10:03:38Z</time>
      </trkpt>
      <trkpt lat="48.2686380" lon="8.0951580">
        <ele>-166.0</ele>
        <time>2022-06-05T10:03:42Z</time>
      </trkpt>
      <trkpt lat="48.2685250" lon="8.0953000">
        <ele>-166.0</ele>
        <time>2022-06-05T10:03:46Z</time>
      </trkpt>
      <trkpt lat="48.2684060" lon="8.0954450">
        <ele>-165.6</ele>
        <time>2022-06-05T10:03:50Z</time>
      </trkpt>
      <trkpt lat="48.2682910" lon="8.0955930">
        <ele>-164.4</ele>
        <time>2022-06-05T10:03:54Z</time>
      </trkpt>
      <trkpt lat="48.2681800" lon="8.0957500">
        <ele>-165.4</ele>
        <time>2022-06-05T10:03:58Z</time>
      </trkpt>
      <trkpt lat="48.2680710" lon="8.0959200">
        <ele>-164.8</ele>
        <time>2022-06-05T10:04:02Z</time>
      </trkpt>
      <trkpt lat="48.2679630" lon="8.0960810">
        <ele>-164.6</ele>
        <time>2022-06-05T10:04:06Z</time>
      </trkpt>
      <trkpt lat="48.2678530" lon="8.0962330">
        <ele>-164.2</ele>
        <time>2022-06-05T10:04:10Z</time>
      </trkpt>
      <trkpt lat="48.2677480" lon="8.0963880">
        <ele>-164.0</ele>
        <time>2022-06-05T10:04:14Z</time>
      </trkpt>
      <trkpt lat="48.2676510" lon="8.0965350">
        <ele>-162.6</ele>
        <time>2022-06-05T10:04:18Z</time>
      </trkpt>
      <trkpt lat="48.2675510" lon="8.0966660">
        <ele>-162.0</ele>
        <time>2022-06-05T10:04:22Z</time>
      </trkpt>
      <trkpt lat="48.2674660" lon="8.0967600">
        <ele>-162.2</ele>
        <time>2022-06-05T10:04:26Z</time>
      </trkpt>
      <trkpt lat="48.2673550" lon="8.0968950">
        <ele>-162.4</ele>
        <time>2022-06-05T10:04:30Z</time>
      </trkpt>
      <trkpt lat="48.2672300" lon="8.0970260">
        <ele>-161.8</ele>
        <time>2022-06-05T10:04:34Z</time>
      </trkpt>
      <trkpt lat="48.2671200" lon="8.0971530">
        <ele>-161.2</ele>
        <time>2022-06-05T10:04:38Z</time>
      </trkpt>
      <trkpt lat="48.2670100" lon="8.0972650">
        <ele>-161.2</ele>
        <time>2022-06-05T10:04:42Z</time>
      </trkpt>
      <trkpt lat="48.2669010" lon="8.0973910">
        <ele>-159.8</ele>
        <time>2022-06-05T10:04:46Z</time>
      </trkpt>
      <trkpt lat="48.2667880" lon="8.0975030">
        <ele>-159.4</ele>
        <time>2022-06-05T10:04:50Z</time>
      </trkpt>
      <trkpt lat="48.2666800" lon="8.0976060">
        <ele>-159.6</ele>
        <time>2022-06-05T10:04:54Z</time>
      </trkpt>
      <trkpt lat="48.2665600" lon="8.0977110">
        <ele>-159.6</ele>
        <time>2022-06-05T10:04:58Z</time>
      </trkpt>
      <trkpt lat="48.2664230" lon="8.0978080">
        <ele>-159.6</ele>
        <time>2022-06-05T10:05:02Z</time>
      </trkpt>
      <trkpt lat="48.2662910" lon="8.0979130">
        <ele>-159.8</ele>
        <time>2022-06-05T10:05:06Z</time>
      </trkpt>
      <trkpt lat="48.2661610" lon="8.0980180">
        <ele>-159.0</ele>
        <time>2022-06-05T10:05:10Z</time>
      </trkpt>
      <trkpt lat="48.2660210" lon="8.0981280">
        <ele>-159.2</ele>
        <time>2022-06-05T10:05:14Z</time>
      </trkpt>
      <trkpt lat="48.2658730" lon="8.0982480">
        <ele>-159.4</ele>
        <time>2022-06-05T10:05:18Z</time>
      </trkpt>
      <trkpt lat="48.2657380" lon="8.0983850">
        <ele>-159.2</ele>
        <time>2022-06-05T10:05:22Z</time>
      </trkpt>
      <trkpt lat="48.2656200" lon="8.0985380">
        <ele>-158.4</ele>
        <time>2022-06-05T10:05:26Z</time>
      </trkpt>
      <trkpt lat="48.2654910" lon="8.0986780">
        <ele>-158.4</ele>
        <time>2022-06-05T10:05:30Z</time>
      </trkpt>
      <trkpt lat="48.2653550" lon="8.0988250">
        <ele>-159.0</ele>
        <time>2022-06-05T10:05:34Z</time>
      </trkpt>
      <trkpt lat="48.2652310" lon="8.0989950">
        <ele>-158.6</ele>
        <time>2022-06-05T10:05:38Z</time>
      </trkpt>
      <trkpt lat="48.2651160" lon="8.0991530">
        <ele>-157.6</ele>
        <time>2022-06-05T10:05:42Z</time>
      </trkpt>
      <trkpt lat="48.2650110" lon="8.0993000">
        <ele>-156.8</ele>
        <time>2022-06-05T10:05:46Z</time>
      </trkpt>
      <trkpt lat="48.2649100" lon="8.0994160">
        <ele>-155.4</ele>
        <time>2022-06-05T10:05:50Z</time>
      </trkpt>
      <trkpt lat="48.2648180" lon="8.0995360">
        <ele>-155.4</ele>
        <time>2022-06-05T10:05:54Z</time>
      </trkpt>
      <trkpt lat="48.2647200" lon="8.0996560">
        <ele>-153.8</ele>
        <time>2022-06-05T10:05:58Z</time>
      </trkpt>
      <trkpt lat="48.2646280" lon="8.0997830">
        <ele>-153.2</ele>
        <time>2022-06-05T10:06:02Z</time>
      </trkpt>
      <trkpt lat="48.2645410" lon="8.0999110">
        <ele>-152.2</ele>
        <time>2022-06-05T10:06:06Z</time>
      </trkpt>
      <trkpt lat="48.2644560" lon="8.1000450">
        <ele>-152.8</ele>
        <time>2022-06-05T10:06:10Z</time>
      </trkpt>
      <trkpt lat="48.2643730" lon="8.1001760">
        <ele>-152.0</ele>
        <time>2022-06-05T10:06:14Z</time>
      </trkpt>
      <trkpt lat="48.2642850" lon="8.1003050">
        <ele>-151.4</ele>
        <time>2022-06-05T10:06:18Z</time>
      </trkpt>
      <trkpt lat="48.2641850" lon="8.1004300">
        <ele>-151.4</ele>
        <time>2022-06-05T10:06:22Z</time>
      </trkpt>
      <trkpt lat="48.2640750" lon="8.1005630">
        <ele>-151.0</ele>
        <time>2022-06-05T10:06:26Z</time>
      </trkpt>
      <trkpt lat="48.2639630" lon="8.1007000">
        <ele>-151.0</ele>
        <time>2022-06-05T10:06:30Z</time>
      </trkpt>
      <trkpt lat="48.2638600" lon="8.1008280">
        <ele>-150.4</ele>
        <time>2022-06-05T10:06:34Z</time>
      </trkpt>
      <trkpt lat="48.2637500" lon="8.1009510">
        <ele>-150.2</ele>
        <time>2022-06-05T10:06:38Z</time>
      </trkpt>
      <trkpt lat="48.2636430" lon="8.1010750">
        <ele>-149.6</ele>
        <time>2022-06-05T10:06:42Z</time>
      </trkpt>
      <trkpt lat="48.2635350" lon="8.1011860">
        <ele>-149.2</ele>
        <time>2022-06-05T10:06:46Z</time>
      </trkpt>
      <trkpt lat="48.2634200" lon="8.1012960">
        <ele>-149.0</ele>
        <time>2022-06-05T10:06:50Z</time>
      </trkpt>
      <trkpt lat="48.2632950" lon="8.1014060">
        <ele>-148.2</ele>
        <time>2022-06-05T10:06:54Z</time>
      </trkpt>
      <trkpt lat="48.2631880" lon="8.1014960">
        <ele>-147.8</ele>
        <time>2022-06-05T10:06:58Z</time>
      </trkpt>
      <trkpt lat="48.2630700" lon="8.1015980">
        <ele>-147.2</ele>
        <time>2022-06-05T10:07:02Z</time>
      </trkpt>
      <trkpt lat="48.2629500" lon="8.1016980">
        <ele>-146.4</ele>
        <time>2022-06-05T10:07:06Z</time>
      </trkpt>
      <trkpt lat="48.2628330" lon="8.1017900">
        <ele>-146.0</ele>
        <time>2022-06-05T10:07:10Z</time>
      </trkpt>
      <trkpt lat="48.2627160" lon="8.1018630">
        <ele>-145.8</ele>
        <time>2022-06-05T10:07:14Z</time>
      </trkpt>
      <trkpt lat="48.2625960" lon="8.1019510">
        <ele>-145.4</ele>
        <time>2022-06-05T10:07:18Z</time>
      </trkpt>
      <trkpt lat="48.2624630" lon="8.1020330">
        <ele>-144.8</ele>
        <time>2022-06-05T10:07:22Z</time>
      </trkpt>
      <trkpt lat="48.2623310" lon="8.1021180">
        <ele>-144.0</ele>
        <time>2022-06-05T10:07:26Z</time>
      </trkpt>
      <trkpt lat="48.2622160" lon="8.1021950">
        <ele>-143.8</ele>
        <time>2022-06-05T10:07:30Z</time>
      </trkpt>
      <trkpt lat="48.2620950" lon="8.1022410">
        <ele>-143.0</ele>
        <time>2022-06-05T10:07:34Z</time>
      </trkpt>
      <trkpt lat="48.2619680" lon="8.1022630">
        <ele>-143.2</ele>
        <time>2022-06-05T10:07:38Z</time>
      </trkpt>
      <trkpt lat="48.2618310" lon="8.1022480">
        <ele>-144.2</ele>
        <time>2022-06-05T10:07:42Z</time>
      </trkpt>
      <trkpt lat="48.2616450" lon="8.1022060">
        <ele>-145.4</ele>
        <time>2022-06-05T10:07:46Z</time>
      </trkpt>
      <trkpt lat="48.2614050" lon="8.1021710">
        <ele>-146.6</ele>
        <time>2022-06-05T10:07:50Z</time>
      </trkpt>
      <trkpt lat="48.2611760" lon="8.1023580">
        <ele>-147.2</ele>
        <time>2022-06-05T10:07:54Z</time>
      </trkpt>
      <trkpt lat="48.2610080" lon="8.1027500">
        <ele>-149.8</ele>
        <time>2022-06-05T10:07:58Z</time>
      </trkpt>
      <trkpt lat="48.2608250" lon="8.1031360">
        <ele>-149.8</ele>
        <time>2022-06-05T10:08:02Z</time>
      </trkpt>
      <trkpt lat="48.2605910" lon="8.1034110">
        <ele>-149.4</ele>
        <time>2022-06-05T10:08:06Z</time>
      </trkpt>
      <trkpt lat="48.2603350" lon="8.1035710">
        <ele>-149.8</ele>
        <time>2022-06-05T10:08:10Z</time>
      </trkpt>
      <trkpt lat="48.2601080" lon="8.1037050">
        <ele>-150.0</ele>
        <time>2022-06-05T10:08:14Z</time>
      </trkpt>
      <trkpt lat="48.2598930" lon="8.1038310">
        <ele>-149.0</ele>
        <time>2022-06-05T10:08:18Z</time>
      </trkpt>
      <trkpt lat="48.2597180" lon="8.1039930">
        <ele>-148.6</ele>
        <time>2022-06-05T10:08:22Z</time>
      </trkpt>
      <trkpt lat="48.2595880" lon="8.1041850">
        <ele>-149.0</ele>
        <time>2022-06-05T10:08:26Z</time>
      </trkpt>
      <trkpt lat="48.2594780" lon="8.1044060">
        <ele>-147.4</ele>
        <time>2022-06-05T10:08:30Z</time>
      </trkpt>
      <trkpt lat="48.2593750" lon="8.1046130">
        <ele>-146.6</ele>
        <time>2022-06-05T10:08:34Z</time>
      </trkpt>
      <trkpt lat="48.2592700" lon="8.1048000">
        <ele>-146.0</ele>
        <time>2022-06-05T10:08:38Z</time>
      </trkpt>
      <trkpt lat="48.2591600" lon="8.1049800">
        <ele>-146.0</ele>
        <time>2022-06-05T10:08:42Z</time>
      </trkpt>
      <trkpt lat="48.2590500" lon="8.1051850">
        <ele>-146.4</ele>
        <time>2022-06-05T10:08:46Z</time>
      </trkpt>
      <trkpt lat="48.2589010" lon="8.1053900">
        <ele>-147.2</ele>
        <time>2022-06-05T10:08:50Z</time>
      </trkpt>
      <trkpt lat="48.2587510" lon="8.1056160">
        <ele>-146.2</ele>
        <time>2022-06-05T10:08:54Z</time>
      </trkpt>
      <trkpt lat="48.2586000" lon="8.1058280">
        <ele>-146.4</ele>
        <time>2022-06-05T10:08:58Z</time>
      </trkpt>
      <trkpt lat="48.2584330" lon="8.1060210">
        <ele>-146.0</ele>
        <time>2022-06-05T10:09:02Z</time>
      </trkpt>
      <trkpt lat="48.2582660" lon="8.1061900">
        <ele>-145.8</ele>
        <time>2022-06-05T10:09:06Z</time>
      </trkpt>
      <trkpt lat="48.2581030" lon="8.1063460">
        <ele>-145.4</ele>
        <time>2022-06-05T10:09:10Z</time>
      </trkpt>
      <trkpt lat="48.2579330" lon="8.1064800">
        <ele>-145.4</ele>
        <time>2022-06-05T10:09:14Z</time>
      </trkpt>
      <trkpt lat="48.2577600" lon="8.1066000">
        <ele>-145.8</ele>
        <time>2022-06-05T10:09:18Z</time>
      </trkpt>
      <trkpt lat="48.2575850" lon="8.1067150">
        <ele>-145.0</ele>
        <time>2022-06-05T10:09:22Z</time>
      </trkpt>
      <trkpt lat="48.2574030" lon="8.1068110">
        <ele>-145.4</ele>
        <time>2022-06-05T10:09:26Z</time>
      </trkpt>
      <trkpt lat="48.2572260" lon="8.1068650">
        <ele>-144.8</ele>
        <time>2022-06-05T10:09:30Z</time>
      </trkpt>
      <trkpt lat="48.2571060" lon="8.1069660">
        <ele>-144.8</ele>
        <time>2022-06-05T10:09:34Z</time>
      </trkpt>
      <trkpt lat="48.2570780" lon="8.1071430">
        <ele>-144.4</ele>
        <time>2022-06-05T10:09:38Z</time>
      </trkpt>
      <trkpt lat="48.2569630" lon="8.1072460">
        <ele>-144.0</ele>
        <time>2022-06-05T10:09:42Z</time>
      </trkpt>
      <trkpt lat="48.2568110" lon="8.1073480">
        <ele>-144.2</ele>
        <time>2022-06-05T10:09:46Z</time>
      </trkpt>
      <trkpt lat="48.2566630" lon="8.1074830">
        <ele>-144.2</ele>
        <time>2022-06-05T10:09:50Z</time>
      </trkpt>
      <trkpt lat="48.2565130" lon="8.1076360">
        <ele>-143.6</ele>
        <time>2022-06-05T10:09:54Z</time>
      </trkpt>
      <trkpt lat="48.2563610" lon="8.1078010">
        <ele>-143.8</ele>
        <time>2022-06-05T10:09:58Z</time>
      </trkpt>
      <trkpt lat="48.2562250" lon="8.1079810">
        <ele>-143.6</ele>
        <time>2022-06-05T10:10:02Z</time>
      </trkpt>
      <trkpt lat="48.2560910" lon="8.1081730">
        <ele>-143.6</ele>
        <time>2022-06-05T10:10:06Z</time>
      </trkpt>
      <trkpt lat="48.2559710" lon="8.1083630">
        <ele>-143.4</ele>
        <time>2022-06-05T10:10:10Z</time>
      </trkpt>
      <trkpt lat="48.2558500" lon="8.1085600">
        <ele>-142.6</ele>
        <time>2022-06-05T10:10:14Z</time>
      </trkpt>
      <trkpt lat="48.2557280" lon="8.1087550">
        <ele>-142.4</ele>
        <time>2022-06-05T10:10:18Z</time>
      </trkpt>
      <trkpt lat="48.2555980" lon="8.1089450">
        <ele>-141.8</ele>
        <time>2022-06-05T10:10:22Z</time>
      </trkpt>
      <trkpt lat="48.2554460" lon="8.1091110">
        <ele>-141.6</ele>
        <time>2022-06-05T10:10:26Z</time>
      </trkpt>
      <trkpt lat="48.2552760" lon="8.1092180">
        <ele>-141.2</ele>
        <time>2022-06-05T10:10:30Z</time>
      </trkpt>
      <trkpt lat="48.2550900" lon="8.1092900">
        <ele>-141.0</ele>
        <time>2022-06-05T10:10:34Z</time>
      </trkpt>
      <trkpt lat="48.2549060" lon="8.1093710">
        <ele>-140.6</ele>
        <time>2022-06-05T10:10:38Z</time>
      </trkpt>
      <trkpt lat="48.2547310" lon="8.1094900">
        <ele>-140.6</ele>
        <time>2022-06-05T10:10:42Z</time>
      </trkpt>
      <trkpt lat="48.2545760" lon="8.1096630">
        <ele>-140.6</ele>
        <time>2022-06-05T10:10:46Z</time>
      </trkpt>
      <trkpt lat="48.2544400" lon="8.1098650">
        <ele>-140.2</ele>
        <time>2022-06-05T10:10:50Z</time>
      </trkpt>
      <trkpt lat="48.2543180" lon="8.1100800">
        <ele>-140.0</ele>
        <time>2022-06-05T10:10:54Z</time>
      </trkpt>
      <trkpt lat="48.2541900" lon="8.1102630">
        <ele>-139.2</ele>
        <time>2022-06-05T10:10:58Z</time>
      </trkpt>
      <trkpt lat="48.2540750" lon="8.1104030">
        <ele>-139.0</ele>
        <time>2022-06-05T10:11:02Z</time>
      </trkpt>
      <trkpt lat="48.2539610" lon="8.1104880">
        <ele>-138.8</ele>
        <time>2022-06-05T10:11:06Z</time>
      </trkpt>
      <trkpt lat="48.2538310" lon="8.1105700">
        <ele>-139.0</ele>
        <time>2022-06-05T10:11:10Z</time>
      </trkpt>
      <trkpt lat="48.2536780" lon="8.1106280">
        <ele>-138.0</ele>
        <time>2022-06-05T10:11:14Z</time>
      </trkpt>
      <trkpt lat="48.2535250" lon="8.1106660">
        <ele>-138.0</ele>
        <time>2022-06-05T10:11:18Z</time>
      </trkpt>
      <trkpt lat="48.2533710" lon="8.1107110">
        <ele>-138.0</ele>
        <time>2022-06-05T10:11:22Z</time>
      </trkpt>
      <trkpt lat="48.2532230" lon="8.1107110">
        <ele>-137.6</ele>
        <time>2022-06-05T10:11:26Z</time>
      </trkpt>
      <trkpt lat="48.2530830" lon="8.1107730">
        <ele>-137.0</ele>
        <time>2022-06-05T10:11:30Z</time>
      </trkpt>
      <trkpt lat="48.2529900" lon="8.1109010">
        <ele>-136.6</ele>
        <time>2022-06-05T10:11:34Z</time>
      </trkpt>
      <trkpt lat="48.2529630" lon="8.1110710">
        <ele>-136.4</ele>
        <time>2022-06-05T10:11:38Z</time>
      </trkpt>
      <trkpt lat="48.2529560" lon="8.1112030">
        <ele>-136.2</ele>
        <time>2022-06-05T10:11:42Z</time>
      </trkpt>
      <trkpt lat="48.2529380" lon="8.1113000">
        <ele>-136.2</ele>
        <time>2022-06-05T10:11:46Z</time>
      </trkpt>
      <trkpt lat="48.2529480" lon="8.1113980">
        <ele>-136.0</ele>
        <time>2022-06-05T10:11:50Z</time>
      </trkpt>
      <trkpt lat="48.2529400" lon="8.1115710">
        <ele>-135.4</ele>
        <time>2022-06-05T10:11:54Z</time>
      </trkpt>
      <trkpt lat="48.2529380" lon="8.1117660">
        <ele>-135.6</ele>
        <time>2022-06-05T10:11:58Z</time>
      </trkpt>
      <trkpt lat="48.2529230" lon="8.1119780">
        <ele>-135.8</ele>
        <time>2022-06-05T10:12:02Z</time>
      </trkpt>
      <trkpt lat="48.2529300" lon="8.1121830">
        <ele>-135.2</ele>
        <time>2022-06-05T10:12:06Z</time>
      </trkpt>
      <trkpt lat="48.2529360" lon="8.1123800">
        <ele>-134.8</ele>
        <time>2022-06-05T10:12:10Z</time>
      </trkpt>
      <trkpt lat="48.2529480" lon="8.1125610">
        <ele>-134.0</ele>
        <time>2022-06-05T10:12:14Z</time>
      </trkpt>
      <trkpt lat="48.2529750" lon="8.1127180">
        <ele>-133.0</ele>
        <time>2022-06-05T10:12:18Z</time>
      </trkpt>
      <trkpt lat="48.2530450" lon="8.1128310">
        <ele>-132.4</ele>
        <time>2022-06-05T10:12:22Z</time>
      </trkpt>
      <trkpt lat="48.2531300" lon="8.1129250">
        <ele>-131.6</ele>
        <time>2022-06-05T10:12:26Z</time>
      </trkpt>
      <trkpt lat="48.2532080" lon="8.1130110">
        <ele>-131.0</ele>
        <time>2022-06-05T10:12:30Z</time>
      </trkpt>
      <trkpt lat="48.2532510" lon="8.1131360">
        <ele>-130.4</ele>
        <time>2022-06-05T10:12:34Z</time>
      </trkpt>
      <trkpt lat="48.2532630" lon="8.1132860">
        <ele>-129.4</ele>
        <time>2022-06-05T10:12:38Z</time>
      </trkpt>
      <trkpt lat="48.2532710" lon="8.1134500">
        <ele>-128.8</ele>
        <time>2022-06-05T10:12:42Z</time>
      </trkpt>
      <trkpt lat="48.2532660" lon="8.1136210">
        <ele>-128.2</ele>
        <time>2022-06-05T10:12:46Z</time>
      </trkpt>
      <trkpt lat="48.2532500" lon="8.1137860">
        <ele>-127.8</ele>
        <time>2022-06-05T10:12:50Z</time>
      </trkpt>
      <trkpt lat="48.2532300" lon="8.1139610">
        <ele>-127.8</ele>
        <time>2022-06-05T10:12:54Z</time>
      </trkpt>
      <trkpt lat="48.2531960" lon="8.1141330">
        <ele>-126.8</ele>
        <time>2022-06-05T10:12:58Z</time>
      </trkpt>
      <trkpt lat="48.2531550" lon="8.1142950">
        <ele>-126.2</ele>
        <time>2022-06-05T10:13:02Z</time>
      </trkpt>
      <trkpt lat="48.2530980" lon="8.1144560">
        <ele>-125.8</ele>
        <time>2022-06-05T10:13:06Z</time>
      </trkpt>
      <trkpt lat="48.2530500" lon="8.1146160">
        <ele>-125.4</ele>
        <time>2022-06-05T10:13:10Z</time>
      </trkpt>
      <trkpt lat="48.2530030" lon="8.1147780">
        <ele>-125.0</ele>
        <time>2022-06-05T10:13:14Z</time>
      </trkpt>
      <trkpt lat="48.2529580" lon="8.1149430">
        <ele>-124.6</ele>
        <time>2022-06-05T10:13:18Z</time>
      </trkpt>
      <trkpt lat="48.2529350" lon="8.1151210">
        <ele>-124.6</ele>
        <time>2022-06-05T10:13:22Z</time>
      </trkpt>
      <trkpt lat="48.2529200" lon="8.1153060">
        <ele>-124.2</ele>
        <time>2022-06-05T10:13:26Z</time>
      </trkpt>
      <trkpt lat="48.2529100" lon="8.1155030">
        <ele>-124.0</ele>
        <time>2022-06-05T10:13:30Z</time>
      </trkpt>
      <trkpt lat="48.2529000" lon="8.1157050">
        <ele>-123.4</ele>
        <time>2022-06-05T10:13:34Z</time>
      </trkpt>
      <trkpt lat="48.2528830" lon="8.1159100">
        <ele>-123.2</ele>
        <time>2022-06-05T10:13:38Z</time>
      </trkpt>
      <trkpt lat="48.2528750" lon="8.1161110">
        <ele>-123.0</ele>
        <time>2022-06-05T10:13:42Z</time>
      </trkpt>
      <trkpt lat="48.2528560" lon="8.1163080">
        <ele>-122.8</ele>
        <time>2022-06-05T10:13:46Z</time>
      </trkpt>
      <trkpt lat="48.2528280" lon="8.1165010">
        <ele>-122.4</ele>
        <time>2022-06-05T10:13:50Z</time>
      </trkpt>
      <trkpt lat="48.2527980" lon="8.1167030">
        <ele>-122.2</ele>
        <time>2022-06-05T10:13:54Z</time>
      </trkpt>
      <trkpt lat="48.2527600" lon="8.1168950">
        <ele>-121.8</ele>
        <time>2022-06-05T10:13:58Z</time>
      </trkpt>
      <trkpt lat="48.2527330" lon="8.1170860">
        <ele>-121.4</ele>
        <time>2022-06-05T10:14:02Z</time>
      </trkpt>
      <trkpt lat="48.2527060" lon="8.1172930">
        <ele>-121.2</ele>
        <time>2022-06-05T10:14:06Z</time>
      </trkpt>
      <trkpt lat="48.2526610" lon="8.1174760">
        <ele>-120.8</ele>
        <time>2022-06-05T10:14:10Z</time>
      </trkpt>
      <trkpt lat="48.2526080" lon="8.1176430">
        <ele>-120.8</ele>
        <time>2022-06-05T10:14:14Z</time>
      </trkpt>
      <trkpt lat="48.2525480" lon="8.1178030">
        <ele>-120.2</ele>
        <time>2022-06-05T10:14:18Z</time>
      </trkpt>
      <trkpt lat="48.2524900" lon="8.1179660">
        <ele>-119.8</ele>
        <time>2022-06-05T10:14:22Z</time>
      </trkpt>
      <trkpt lat="48.2524250" lon="8.1181300">
        <ele>-119.6</ele>
        <time>2022-06-05T10:14:26Z</time>
      </trkpt>
      <trkpt lat="48.2523650" lon="8.1182880">
        <ele>-119.4</ele>
        <time>2022-06-05T10:14:30Z</time>
      </trkpt>
      <trkpt lat="48.2522930" lon="8.1184460">
        <ele>-118.6</ele>
        <time>2022-06-05T10:14:34Z</time>
      </trkpt>
      <trkpt lat="48.2522130" lon="8.1186010">
        <ele>-118.0</ele>
        <time>2022-06-05T10:14:38Z</time>
      </trkpt>
      <trkpt lat="48.2521330" lon="8.1187410">
        <ele>-117.6</ele>
        <time>2022-06-05T10:14:42Z</time>
      </trkpt>
      <trkpt lat="48.2520510" lon="8.1188930">
        <ele>-117.4</ele>
        <time>2022-06-05T10:14:46Z</time>
      </trkpt>
      <trkpt lat="48.2519730" lon="8.1190510">
        <ele>-116.4</ele>
        <time>2022-06-05T10:14:50Z</time>
      </trkpt>
      <trkpt lat="48.2519010" lon="8.1191910">
        <ele>-116.0</ele>
        <time>2022-06-05T10:14:54Z</time>
      </trkpt>
      <trkpt lat="48.2518400" lon="8.1193550">
        <ele>-115.4</ele>
        <time>2022-06-05T10:14:58Z</time>
      </trkpt>
      <trkpt lat="48.2517830" lon="8.1195310">
        <ele>-115.2</ele>
        <time>2022-06-05T10:15:02Z</time>
      </trkpt>
      <trkpt lat="48.2517180" lon="8.1196880">
        <ele>-115.2</ele>
        <time>2022-06-05T10:15:06Z</time>
      </trkpt>
      <trkpt lat="48.2516210" lon="8.1198350">
        <ele>-115.0</ele>
        <time>2022-06-05T10:15:10Z</time>
      </trkpt>
      <trkpt lat="48.2515160" lon="8.1199650">
        <ele>-114.4</ele>
        <time>2022-06-05T10:15:14Z</time>
      </trkpt>
      <trkpt lat="48.2514030" lon="8.1200910">
        <ele>-113.8</ele>
        <time>2022-06-05T10:15:18Z</time>
      </trkpt>
      <trkpt lat="48.2513230" lon="8.1202560">
        <ele>-112.8</ele>
        <time>2022-06-05T10:15:22Z</time>
      </trkpt>
      <trkpt lat="48.2512610" lon="8.1204380">
        <ele>-112.6</ele>
        <time>2022-06-05T10:15:26Z</time>
      </trkpt>
      <trkpt lat="48.2512050" lon="8.1206280">
        <ele>-112.2</ele>
        <time>2022-06-05T10:15:30Z</time>
      </trkpt>
      <trkpt lat="48.2511410" lon="8.1208010">
        <ele>-111.6</ele>
        <time>2022-06-05T10:15:34Z</time>
      </trkpt>
      <trkpt lat="48.2510850" lon="8.1209850">
        <ele>-111.2</ele>
        <time>2022-06-05T10:15:38Z</time>
      </trkpt>
      <trkpt lat="48.2510180" lon="8.1211630">
        <ele>-110.8</ele>
        <time>2022-06-05T10:15:42Z</time>
      </trkpt>
      <trkpt lat="48.2509610" lon="8.1213500">
        <ele>-109.8</ele>
        <time>2022-06-05T10:15:46Z</time>
      </trkpt>
      <trkpt lat="48.2509010" lon="8.1215260">
        <ele>-109.8</ele>
        <time>2022-06-05T10:15:50Z</time>
      </trkpt>
      <trkpt lat="48.2508350" lon="8.1216900">
        <ele>-109.4</ele>
        <time>2022-06-05T10:15:54Z</time>
      </trkpt>
      <trkpt lat="48.2507930" lon="8.1218800">
        <ele>-109.2</ele>
        <time>2022-06-05T10:15:58Z</time>
      </trkpt>
      <trkpt lat="48.2507360" lon="8.1220710">
        <ele>-108.6</ele>
        <time>2022-06-05T10:16:02Z</time>
      </trkpt>
      <trkpt lat="48.2506810" lon="8.1222560">
        <ele>-108.2</ele>
        <time>2022-06-05T10:16:06Z</time>
      </trkpt>
      <trkpt lat="48.2506260" lon="8.1224300">
        <ele>-107.8</ele>
        <time>2022-06-05T10:16:10Z</time>
      </trkpt>
      <trkpt lat="48.2505700" lon="8.1226050">
        <ele>-107.4</ele>
        <time>2022-06-05T10:16:14Z</time>
      </trkpt>
      <trkpt lat="48.2505260" lon="8.1227910">
        <ele>-107.0</ele>
        <time>2022-06-05T10:16:18Z</time>
      </trkpt>
      <trkpt lat="48.2504780" lon="8.1229680">
        <ele>-106.6</ele>
        <time>2022-06-05T10:16:22Z</time>
      </trkpt>
      <trkpt lat="48.2504280" lon="8.1231330">
        <ele>-106.2</ele>
        <time>2022-06-05T10:16:26Z</time>
      </trkpt>
      <trkpt lat="48.2503830" lon="8.1233160">
        <ele>-105.6</ele>
        <time>2022-06-05T10:16:30Z</time>
      </trkpt>
      <trkpt lat="48.2503330" lon="8.1234900">
        <ele>-105.8</ele>
        <time>2022-06-05T10:16:34Z</time>
      </trkpt>
      <trkpt lat="48.2502650" lon="8.1236830">
        <ele>-105.8</ele>
        <time>2022-06-05T10:16:38Z</time>
      </trkpt>
      <trkpt lat="48.2501710" lon="8.1238780">
        <ele>-105.8</ele>
        <time>2022-06-05T10:16:42Z</time>
      </trkpt>
      <trkpt lat="48.2500760" lon="8.1240860">
        <ele>-106.0</ele>
        <time>2022-06-05T10:16:46Z</time>
      </trkpt>
      <trkpt lat="48.2499960" lon="8.1243080">
        <ele>-106.6</ele>
        <time>2022-06-05T10:16:50Z</time>
      </trkpt>
      <trkpt lat="48.2499180" lon="8.1245530">
        <ele>-107.2</ele>
        <time>2022-06-05T10:16:54Z</time>
      </trkpt>
      <trkpt lat="48.2498480" lon="8.1248030">
        <ele>-107.2</ele>
        <time>2022-06-05T10:16:58Z</time>
      </trkpt>
      <trkpt lat="48.2497710" lon="8.1250560">
        <ele>-106.6</ele>
        <time>2022-06-05T10:17:02Z</time>
      </trkpt>
      <trkpt lat="48.2496910" lon="8.1253150">
        <ele>-107.2</ele>
        <time>2022-06-05T10:17:06Z</time>
      </trkpt>
      <trkpt lat="48.2496060" lon="8.1255550">
        <ele>-106.6</ele>
        <time>2022-06-05T10:17:10Z</time>
      </trkpt>
      <trkpt lat="48.2495210" lon="8.1257860">
        <ele>-106.8</ele>
        <time>2022-06-05T10:17:14Z</time>
      </trkpt>
      <trkpt lat="48.2494300" lon="8.1259980">
        <ele>-106.0</ele>
        <time>2022-06-05T10:17:18Z</time>
      </trkpt>
      <trkpt lat="48.2493580" lon="8.1262130">
        <ele>-105.8</ele>
        <time>2022-06-05T10:17:22Z</time>
      </trkpt>
      <trkpt lat="48.2493080" lon="8.1264230">
        <ele>-105.2</ele>
        <time>2022-06-05T10:17:26Z</time>
      </trkpt>
      <trkpt lat="48.2492680" lon="8.1266110">
        <ele>-104.2</ele>
        <time>2022-06-05T10:17:30Z</time>
      </trkpt>
      <trkpt lat="48.2492030" lon="8.1267850">
        <ele>-104.0</ele>
        <time>2022-06-05T10:17:34Z</time>
      </trkpt>
      <trkpt lat="48.2491300" lon="8.1269430">
        <ele>-103.0</ele>
        <time>2022-06-05T10:17:38Z</time>
      </trkpt>
      <trkpt lat="48.2490330" lon="8.1271060">
        <ele>-102.6</ele>
        <time>2022-06-05T10:17:42Z</time>
      </trkpt>
      <trkpt lat="48.2489330" lon="8.1272810">
        <ele>-102.4</ele>
        <time>2022-06-05T10:17:46Z</time>
      </trkpt>
      <trkpt lat="48.2488460" lon="8.1274410">
        <ele>-102.2</ele>
        <time>2022-06-05T10:17:50Z</time>
      </trkpt>
      <trkpt lat="48.2487910" lon="8.1276060">
        <ele>-101.8</ele>
        <time>2022-06-05T10:17:54Z</time>
      </trkpt>
      <trkpt lat="48.2487830" lon="8.1278110">
        <ele>-100.6</ele>
        <time>2022-06-05T10:17:58Z</time>
      </trkpt>
      <trkpt lat="48.2487630" lon="8.1279930">
        <ele>-100.6</ele>
        <time>2022-06-05T10:18:02Z</time>
      </trkpt>
      <trkpt lat="48.2487060" lon="8.1281730">
        <ele>-99.8</ele>
        <time>2022-06-05T10:18:06Z</time>
      </trkpt>
      <trkpt lat="48.2486110" lon="8.1283430">
        <ele>-99.8</ele>
        <time>2022-06-05T10:18:10Z</time>
      </trkpt>
      <trkpt lat="48.2485080" lon="8.1284860">
        <ele>-99.4</ele>
        <time>2022-06-05T10:18:14Z</time>
      </trkpt>
      <trkpt lat="48.2484210" lon="8.1286410">
        <ele>-98.8</ele>
        <time>2022-06-05T10:18:18Z</time>
      </trkpt>
      <trkpt lat="48.2483460" lon="8.1287930">
        <ele>-98.4</ele>
        <time>2022-06-05T10:18:22Z</time>
      </trkpt>
      <trkpt lat="48.2482910" lon="8.1289550">
        <ele>-97.8</ele>
        <time>2022-06-05T10:18:26Z</time>
      </trkpt>
      <trkpt lat="48.2482550" lon="8.1291230">
        <ele>-97.2</ele>
        <time>2022-06-05T10:18:30Z</time>
      </trkpt>
      <trkpt lat="48.2482330" lon="8.1292810">
        <ele>-97.4</ele>
        <time>2022-06-05T10:18:34Z</time>
      </trkpt>
      <trkpt lat="48.2481960" lon="8.1294560">
        <ele>-96.6</ele>
        <time>2022-06-05T10:18:38Z</time>
      </trkpt>
      <trkpt lat="48.2481480" lon="8.1296010">
        <ele>-95.8</ele>
        <time>2022-06-05T10:18:42Z</time>
      </trkpt>
      <trkpt lat="48.2481380" lon="8.1297750">
        <ele>-96.0</ele>
        <time>2022-06-05T10:18:46Z</time>
      </trkpt>
      <trkpt lat="48.2481310" lon="8.1299580">
        <ele>-95.4</ele>
        <time>2022-06-05T10:18:50Z</time>
      </trkpt>
      <trkpt lat="48.2481110" lon="8.1301200">
        <ele>-94.6</ele>
        <time>2022-06-05T10:18:54Z</time>
      </trkpt>
      <trkpt lat="48.2481000" lon="8.1302580">
        <ele>-93.6</ele>
        <time>2022-06-05T10:18:58Z</time>
      </trkpt>
      <trkpt lat="48.2480760" lon="8.1304410">
        <ele>-93.4</ele>
        <time>2022-06-05T10:19:02Z</time>
      </trkpt>
      <trkpt lat="48.2480000" lon="8.1305910">
        <ele>-92.2</ele>
        <time>2022-06-05T10:19:06Z</time>
      </trkpt>
      <trkpt lat="48.2479410" lon="8.1307400">
        <ele>-91.4</ele>
        <time>2022-06-05T10:19:10Z</time>
      </trkpt>
      <trkpt lat="48.2478910" lon="8.1308450">
        <ele>-90.2</ele>
        <time>2022-06-05T10:19:14Z</time>
      </trkpt>
      <trkpt lat="48.2478500" lon="8.1309810">
        <ele>-89.6</ele>
        <time>2022-06-05T10:19:18Z</time>
      </trkpt>
      <trkpt lat="48.2478230" lon="8.1311300">
        <ele>-89.0</ele>
        <time>2022-06-05T10:19:22Z</time>
      </trkpt>
      <trkpt lat="48.2477900" lon="8.1312630">
        <ele>-87.8</ele>
        <time>2022-06-05T10:19:26Z</time>
      </trkpt>
      <trkpt lat="48.2477610" lon="8.1314000">
        <ele>-87.4</ele>
        <time>2022-06-05T10:19:30Z</time>
      </trkpt>
      <trkpt lat="48.2477000" lon="8.1315430">
        <ele>-86.8</ele>
        <time>2022-06-05T10:19:34Z</time>
      </trkpt>
      <trkpt lat="48.2476380" lon="8.1316880">
        <ele>-85.6</ele>
        <time>2022-06-05T10:19:38Z</time>
      </trkpt>
      <trkpt lat="48.2475810" lon="8.1318200">
        <ele>-85.0</ele>
        <time>2022-06-05T10:19:42Z</time>
      </trkpt>
      <trkpt lat="48.2475180" lon="8.1319500">
        <ele>-84.2</ele>
        <time>2022-06-05T10:19:46Z</time>
      </trkpt>
      <trkpt lat="48.2474630" lon="8.1320880">
        <ele>-83.4</ele>
        <time>2022-06-05T10:19:50Z</time>
      </trkpt>
      <trkpt lat="48.2474100" lon="8.1322250">
        <ele>-82.6</ele>
        <time>2022-06-05T10:19:54Z</time>
      </trkpt>
      <trkpt lat="48.2474050" lon="8.1323880">
        <ele>-81.6</ele>
        <time>2022-06-05T10:19:58Z</time>
      </trkpt>
      <trkpt lat="48.2474110" lon="8.1325650">
        <ele>-81.6</ele>
        <time>2022-06-05T10:20:02Z</time>
      </trkpt>
      <trkpt lat="48.2473960" lon="8.1327450">
        <ele>-81.2</ele>
        <time>2022-06-05T10:20:06Z</time>
      </trkpt>
      <trkpt lat="48.2473680" lon="8.1329300">
        <ele>-81.8</ele>
        <time>2022-06-05T10:20:10Z</time>
      </trkpt>
      <trkpt lat="48.2473480" lon="8.1331350">
        <ele>-81.4</ele>
        <time>2022-06-05T10:20:14Z</time>
      </trkpt>
      <trkpt lat="48.2473160" lon="8.1333510">
        <ele>-81.0</ele>
        <time>2022-06-05T10:20:18Z</time>
      </trkpt>
      <trkpt lat="48.2472660" lon="8.1335830">
        <ele>-81.6</ele>
        <time>2022-06-05T10:20:22Z</time>
      </trkpt>
      <trkpt lat="48.2471960" lon="8.1338280">
        <ele>-81.0</ele>
        <time>2022-06-05T10:20:26Z</time>
      </trkpt>
      <trkpt lat="48.2471300" lon="8.1340510">
        <ele>-80.8</ele>
        <time>2022-06-05T10:20:30Z</time>
      </trkpt>
      <trkpt lat="48.2470600" lon="8.1342510">
        <ele>-80.0</ele>
        <time>2022-06-05T10:20:34Z</time>
      </trkpt>
      <trkpt lat="48.2469810" lon="8.1344210">
        <ele>-79.2</ele>
        <time>2022-06-05T10:20:38Z</time>
      </trkpt>
      <trkpt lat="48.2468910" lon="8.1345810">
        <ele>-79.6</ele>
        <time>2022-06-05T10:20:42Z</time>
      </trkpt>
      <trkpt lat="48.2467750" lon="8.1347280">
        <ele>-79.0</ele>
        <time>2022-06-05T10:20:46Z</time>
      </trkpt>
      <trkpt lat="48.2466560" lon="8.1348710">
        <ele>-78.4</ele>
        <time>2022-06-05T10:20:50Z</time>
      </trkpt>
      <trkpt lat="48.2465510" lon="8.1350300">
        <ele>-78.8</ele>
        <time>2022-06-05T10:20:54Z</time>
      </trkpt>
      <trkpt lat="48.2464530" lon="8.1351860">
        <ele>-78.2</ele>
        <time>2022-06-05T10:20:58Z</time>
      </trkpt>
      <trkpt lat="48.2463660" lon="8.1353510">
        <ele>-77.2</ele>
        <time>2022-06-05T10:21:02Z</time>
      </trkpt>
      <trkpt lat="48.2462730" lon="8.1355000">
        <ele>-77.2</ele>
        <time>2022-06-05T10:21:06Z</time>
      </trkpt>
      <trkpt lat="48.2461630" lon="8.1356450">
        <ele>-76.2</ele>
        <time>2022-06-05T10:21:10Z</time>
      </trkpt>
      <trkpt lat="48.2460550" lon="8.1357880">
        <ele>-75.4</ele>
        <time>2022-06-05T10:21:14Z</time>
      </trkpt>
      <trkpt lat="48.2459660" lon="8.1358980">
        <ele>-74.4</ele>
        <time>2022-06-05T10:21:18Z</time>
      </trkpt>
      <trkpt lat="48.2458830" lon="8.1360230">
        <ele>-74.0</ele>
        <time>2022-06-05T10:21:22Z</time>
      </trkpt>
      <trkpt lat="48.2458060" lon="8.1361380">
        <ele>-73.0</ele>
        <time>2022-06-05T10:21:26Z</time>
      </trkpt>
      <trkpt lat="48.2457260" lon="8.1362380">
        <ele>-73.0</ele>
        <time>2022-06-05T10:21:30Z</time>
      </trkpt>
      <trkpt lat="48.2456560" lon="8.1363350">
        <ele>-72.0</ele>
        <time>2022-06-05T10:21:34Z</time>
      </trkpt>
      <trkpt lat="48.2455850" lon="8.1364260">
        <ele>-71.2</ele>
        <time>2022-06-05T10:21:38Z</time>
      </trkpt>
      <trkpt lat="48.2455100" lon="8.1364960">
        <ele>-70.4</ele>
        <time>2022-06-05T10:21:42Z</time>
      </trkpt>
      <trkpt lat="48.2454480" lon="8.1365860">
        <ele>-69.2</ele>
        <time>2022-06-05T10:21:46Z</time>
      </trkpt>
      <trkpt lat="48.2454250" lon="8.1366860">
        <ele>-68.8</ele>
        <time>2022-06-05T10:21:50Z</time>
      </trkpt>
      <trkpt lat="48.2454000" lon="8.1367900">
        <ele>-68.2</ele>
        <time>2022-06-05T10:21:54Z</time>
      </trkpt>
      <trkpt lat="48.2453250" lon="8.1369100">
        <ele>-67.0</ele>
        <time>2022-06-05T10:21:58Z</time>
      </trkpt>
      <trkpt lat="48.2452480" lon="8.1370510">
        <ele>-66.4</ele>
        <time>2022-06-05T10:22:02Z</time>
      </trkpt>
      <trkpt lat="48.2451860" lon="8.1371880">
        <ele>-65.8</ele>
        <time>2022-06-05T10:22:06Z</time>
      </trkpt>
      <trkpt lat="48.2451110" lon="8.1373230">
        <ele>-65.2</ele>
        <time>2022-06-05T10:22:10Z</time>
      </trkpt>
      <trkpt lat="48.2450460" lon="8.1374600">
        <ele>-64.6</ele>
        <time>2022-06-05T10:22:14Z</time>
      </trkpt>
      <trkpt lat="48.2449930" lon="8.1375980">
        <ele>-64.2</ele>
        <time>2022-06-05T10:22:18Z</time>
      </trkpt>
      <trkpt lat="48.2449610" lon="8.1377330">
        <ele>-63.6</ele>
        <time>2022-06-05T10:22:22Z</time>
      </trkpt>
      <trkpt lat="48.2449100" lon="8.1378680">
        <ele>-62.6</ele>
        <time>2022-06-05T10:22:26Z</time>
      </trkpt>
      <trkpt lat="48.2448130" lon="8.1380160">
        <ele>-62.6</ele>
        <time>2022-06-05T10:22:30Z</time>
      </trkpt>
      <trkpt lat="48.2447260" lon="8.1381650">
        <ele>-61.4</ele>
        <time>2022-06-05T10:22:34Z</time>
      </trkpt>
      <trkpt lat="48.2446360" lon="8.1382950">
        <ele>-61.2</ele>
        <time>2022-06-05T10:22:38Z</time>
      </trkpt>
      <trkpt lat="48.2445900" lon="8.1384330">
        <ele>-60.8</ele>
        <time>2022-06-05T10:22:42Z</time>
      </trkpt>
      <trkpt lat="48.2445100" lon="8.1385760">
        <ele>-60.0</ele>
        <time>2022-06-05T10:22:46Z</time>
      </trkpt>
      <trkpt lat="48.2444760" lon="8.1387350">
        <ele>-59.4</ele>
        <time>2022-06-05T10:22:50Z</time>
      </trkpt>
      <trkpt lat="48.2444230" lon="8.1388650">
        <ele>-58.8</ele>
        <time>2022-06-05T10:22:54Z</time>
      </trkpt>
      <trkpt lat="48.2444580" lon="8.1389960">
        <ele>-58.0</ele>
        <time>2022-06-05T10:22:58Z</time>
      </trkpt>
      <trkpt lat="48.2444630" lon="8.1391200">
        <ele>-57.8</ele>
        <time>2022-06-05T10:23:02Z</time>
      </trkpt>
      <trkpt lat="48.2444100" lon="8.1392360">
        <ele>-57.2</ele>
        <time>2022-06-05T10:23:06Z</time>
      </trkpt>
      <trkpt lat="48.2443660" lon="8.1393460">
        <ele>-56.2</ele>
        <time>2022-06-05T10:23:10Z</time>
      </trkpt>
      <trkpt lat="48.2442950" lon="8.1394810">
        <ele>-55.6</ele>
        <time>2022-06-05T10:23:14Z</time>
      </trkpt>
      <trkpt lat="48.2442480" lon="8.1396130">
        <ele>-54.8</ele>
        <time>2022-06-05T10:23:18Z</time>
      </trkpt>
      <trkpt lat="48.2442880" lon="8.1397660">
        <ele>-54.6</ele>
        <time>2022-06-05T10:23:22Z</time>
      </trkpt>
      <trkpt lat="48.2443280" lon="8.1399400">
        <ele>-53.8</ele>
        <time>2022-06-05T10:23:26Z</time>
      </trkpt>
      <trkpt lat="48.2443010" lon="8.1401000">
        <ele>-54.2</ele>
        <time>2022-06-05T10:23:30Z</time>
      </trkpt>
      <trkpt lat="48.2442810" lon="8.1402430">
        <ele>-53.2</ele>
        <time>2022-06-05T10:23:34Z</time>
      </trkpt>
      <trkpt lat="48.2442500" lon="8.1403800">
        <ele>-53.0</ele>
        <time>2022-06-05T10:23:38Z</time>
      </trkpt>
      <trkpt lat="48.2442200" lon="8.1405210">
        <ele>-53.4</ele>
        <time>2022-06-05T10:23:42Z</time>
      </trkpt>
      <trkpt lat="48.2441850" lon="8.1406750">
        <ele>-53.6</ele>
        <time>2022-06-05T10:23:46Z</time>
      </trkpt>
      <trkpt lat="48.2441600" lon="8.1408560">
        <ele>-53.6</ele>
        <time>2022-06-05T10:23:50Z</time>
      </trkpt>
      <trkpt lat="48.2441900" lon="8.1410480">
        <ele>-54.2</ele>
        <time>2022-06-05T10:23:54Z</time>
      </trkpt>
      <trkpt lat="48.2442500" lon="8.1412300">
        <ele>-54.2</ele>
        <time>2022-06-05T10:23:58Z</time>
      </trkpt>
      <trkpt lat="48.2443150" lon="8.1414080">
        <ele>-54.4</ele>
        <time>2022-06-05T10:24:02Z</time>
      </trkpt>
      <trkpt lat="48.2443530" lon="8.1416050">
        <ele>-54.4</ele>
        <time>2022-06-05T10:24:06Z</time>
      </trkpt>
      <trkpt lat="48.2443610" lon="8.1418150">
        <ele>-54.4</ele>
        <time>2022-06-05T10:24:10Z</time>
      </trkpt>
      <trkpt lat="48.2443480" lon="8.1420300">
        <ele>-54.4</ele>
        <time>2022-06-05T10:24:14Z</time>
      </trkpt>
      <trkpt lat="48.2443460" lon="8.1422510">
        <ele>-54.2</ele>
        <time>2022-06-05T10:24:18Z</time>
      </trkpt>
      <trkpt lat="48.2443380" lon="8.1424730">
        <ele>-54.2</ele>
        <time>2022-06-05T10:24:22Z</time>
      </trkpt>
      <trkpt lat="48.2443280" lon="8.1426880">
        <ele>-53.6</ele>
        <time>2022-06-05T10:24:26Z</time>
      </trkpt>
      <trkpt lat="48.2443310" lon="8.1428950">
        <ele>-53.2</ele>
        <time>2022-06-05T10:24:30Z</time>
      </trkpt>
      <trkpt lat="48.2443410" lon="8.1431010">
        <ele>-53.2</ele>
        <time>2022-06-05T10:24:34Z</time>
      </trkpt>
      <trkpt lat="48.2443610" lon="8.1433030">
        <ele>-53.0</ele>
        <time>2022-06-05T10:24:38Z</time>
      </trkpt>
      <trkpt lat="48.2443780" lon="8.1435130">
        <ele>-52.4</ele>
        <time>2022-06-05T10:24:42Z</time>
      </trkpt>
      <trkpt lat="48.2443850" lon="8.1437150">
        <ele>-52.4</ele>
        <time>2022-06-05T10:24:46Z</time>
      </trkpt>
      <trkpt lat="48.2443660" lon="8.1439080">
        <ele>-51.6</ele>
        <time>2022-06-05T10:24:50Z</time>
      </trkpt>
      <trkpt lat="48.2443800" lon="8.1440960">
        <ele>-51.2</ele>
        <time>2022-06-05T10:24:54Z</time>
      </trkpt>
      <trkpt lat="48.2443800" lon="8.1442730">
        <ele>-50.6</ele>
        <time>2022-06-05T10:24:58Z</time>
      </trkpt>
      <trkpt lat="48.2443950" lon="8.1444410">
        <ele>-50.4</ele>
        <time>2022-06-05T10:25:02Z</time>
      </trkpt>
      <trkpt lat="48.2443950" lon="8.1446180">
        <ele>-49.8</ele>
        <time>2022-06-05T10:25:06Z</time>
      </trkpt>
      <trkpt lat="48.2443950" lon="8.1447930">
        <ele>-49.2</ele>
        <time>2022-06-05T10:25:10Z</time>
      </trkpt>
      <trkpt lat="48.2444100" lon="8.1449660">
        <ele>-48.4</ele>
        <time>2022-06-05T10:25:14Z</time>
      </trkpt>
      <trkpt lat="48.2444500" lon="8.1451360">
        <ele>-47.8</ele>
        <time>2022-06-05T10:25:18Z</time>
      </trkpt>
      <trkpt lat="48.2444580" lon="8.1453100">
        <ele>-47.2</ele>
        <time>2022-06-05T10:25:22Z</time>
      </trkpt>
      <trkpt lat="48.2444830" lon="8.1454660">
        <ele>-46.0</ele>
        <time>2022-06-05T10:25:26Z</time>
      </trkpt>
      <trkpt lat="48.2445060" lon="8.1456250">
        <ele>-45.2</ele>
        <time>2022-06-05T10:25:30Z</time>
      </trkpt>
      <trkpt lat="48.2445630" lon="8.1457660">
        <ele>-44.0</ele>
        <time>2022-06-05T10:25:34Z</time>
      </trkpt>
      <trkpt lat="48.2445950" lon="8.1459050">
        <ele>-42.8</ele>
        <time>2022-06-05T10:25:38Z</time>
      </trkpt>
      <trkpt lat="48.2445600" lon="8.1460530">
        <ele>-42.0</ele>
        <time>2022-06-05T10:25:42Z</time>
      </trkpt>
      <trkpt lat="48.2444360" lon="8.1462000">
        <ele>-42.0</ele>
        <time>2022-06-05T10:25:46Z</time>
      </trkpt>
      <trkpt lat="48.2443710" lon="8.1463480">
        <ele>-41.4</ele>
        <time>2022-06-05T10:25:50Z</time>
      </trkpt>
      <trkpt lat="48.2443260" lon="8.1464750">
        <ele>-41.0</ele>
        <time>2022-06-05T10:25:54Z</time>
      </trkpt>
      <trkpt lat="48.2442610" lon="8.1465860">
        <ele>-41.0</ele>
        <time>2022-06-05T10:25:58Z</time>
      </trkpt>
      <trkpt lat="48.2441750" lon="8.1467300">
        <ele>-41.8</ele>
        <time>2022-06-05T10:26:02Z</time>
      </trkpt>
      <trkpt lat="48.2441030" lon="8.1469080">
        <ele>-41.6</ele>
        <time>2022-06-05T10:26:06Z</time>
      </trkpt>
      <trkpt lat="48.2440380" lon="8.1470950">
        <ele>-42.0</ele>
        <time>2022-06-05T10:26:10Z</time>
      </trkpt>
      <trkpt lat="48.2439460" lon="8.1472850">
        <ele>-42.2</ele>
        <time>2022-06-05T10:26:14Z</time>
      </trkpt>
      <trkpt lat="48.2438630" lon="8.1475410">
        <ele>-43.0</ele>
        <time>2022-06-05T10:26:18Z</time>
      </trkpt>
      <trkpt lat="48.2437780" lon="8.1478150">
        <ele>-43.2</ele>
        <time>2022-06-05T10:26:22Z</time>
      </trkpt>
      <trkpt lat="48.2437210" lon="8.1481030">
        <ele>-43.4</ele>
        <time>2022-06-05T10:26:26Z</time>
      </trkpt>
      <trkpt lat="48.2437280" lon="8.1483900">
        <ele>-43.6</ele>
        <time>2022-06-05T10:26:30Z</time>
      </trkpt>
      <trkpt lat="48.2437760" lon="8.1486480">
        <ele>-43.6</ele>
        <time>2022-06-05T10:26:34Z</time>
      </trkpt>
      <trkpt lat="48.2438110" lon="8.1488630">
        <ele>-43.0</ele>
        <time>2022-06-05T10:26:38Z</time>
      </trkpt>
      <trkpt lat="48.2438260" lon="8.1490530">
        <ele>-42.4</ele>
        <time>2022-06-05T10:26:42Z</time>
      </trkpt>
      <trkpt lat="48.2438280" lon="8.1492300">
        <ele>-41.8</ele>
        <time>2022-06-05T10:26:46Z</time>
      </trkpt>
      <trkpt lat="48.2438460" lon="8.1493900">
        <ele>-40.8</ele>
        <time>2022-06-05T10:26:50Z</time>
      </trkpt>
      <trkpt lat="48.2438580" lon="8.1494930">
        <ele>-41.4</ele>
        <time>2022-06-05T10:26:54Z</time>
      </trkpt>
      <trkpt lat="48.2438610" lon="8.1496060">
        <ele>-40.8</ele>
        <time>2022-06-05T10:26:58Z</time>
      </trkpt>
      <trkpt lat="48.2438750" lon="8.1497410">
        <ele>-40.8</ele>
        <time>2022-06-05T10:27:02Z</time>
      </trkpt>
      <trkpt lat="48.2438960" lon="8.1498850">
        <ele>-40.2</ele>
        <time>2022-06-05T10:27:06Z</time>
      </trkpt>
      <trkpt lat="48.2439160" lon="8.1500300">
        <ele>-39.6</ele>
        <time>2022-06-05T10:27:10Z</time>
      </trkpt>
      <trkpt lat="48.2439430" lon="8.1501630">
        <ele>-39.4</ele>
        <time>2022-06-05T10:27:14Z</time>
      </trkpt>
      <trkpt lat="48.2439680" lon="8.1502900">
        <ele>-39.4</ele>
        <time>2022-06-05T10:27:18Z</time>
      </trkpt>
      <trkpt lat="48.2439910" lon="8.1504380">
        <ele>-38.4</ele>
        <time>2022-06-05T10:27:22Z</time>
      </trkpt>
      <trkpt lat="48.2440280" lon="8.1505810">
        <ele>-38.4</ele>
        <time>2022-06-05T10:27:26Z</time>
      </trkpt>
      <trkpt lat="48.2440550" lon="8.1507250">
        <ele>-37.8</ele>
        <time>2022-06-05T10:27:30Z</time>
      </trkpt>
      <trkpt lat="48.2440750" lon="8.1508750">
        <ele>-37.8</ele>
        <time>2022-06-05T10:27:34Z</time>
      </trkpt>
      <trkpt lat="48.2440860" lon="8.1510260">
        <ele>-37.0</ele>
        <time>2022-06-05T10:27:38Z</time>
      </trkpt>
      <trkpt lat="48.2440850" lon="8.1511800">
        <ele>-36.6</ele>
        <time>2022-06-05T10:27:42Z</time>
      </trkpt>
      <trkpt lat="48.2440630" lon="8.1513260">
        <ele>-36.0</ele>
        <time>2022-06-05T10:27:46Z</time>
      </trkpt>
      <trkpt lat="48.2440360" lon="8.1514730">
        <ele>-35.6</ele>
        <time>2022-06-05T10:27:50Z</time>
      </trkpt>
      <trkpt lat="48.2440330" lon="8.1516200">
        <ele>-35.4</ele>
        <time>2022-06-05T10:27:54Z</time>
      </trkpt>
      <trkpt lat="48.2440300" lon="8.1517680">
        <ele>-35.0</ele>
        <time>2022-06-05T10:27:58Z</time>
      </trkpt>
      <trkpt lat="48.2440300" lon="8.1519130">
        <ele>-34.0</ele>
        <time>2022-06-05T10:28:02Z</time>
      </trkpt>
      <trkpt lat="48.2440510" lon="8.1520480">
        <ele>-33.6</ele>
        <time>2022-06-05T10:28:06Z</time>
      </trkpt>
      <trkpt lat="48.2440680" lon="8.1521860">
        <ele>-32.8</ele>
        <time>2022-06-05T10:28:10Z</time>
      </trkpt>
      <trkpt lat="48.2441130" lon="8.1523110">
        <ele>-32.2</ele>
        <time>2022-06-05T10:28:14Z</time>
      </trkpt>
      <trkpt lat="48.2441510" lon="8.1524250">
        <ele>-31.6</ele>
        <time>2022-06-05T10:28:18Z</time>
      </trkpt>
      <trkpt lat="48.2442060" lon="8.1525400">
        <ele>-30.6</ele>
        <time>2022-06-05T10:28:22Z</time>
      </trkpt>
      <trkpt lat="48.2442610" lon="8.1526660">
        <ele>-30.4</ele>
        <time>2022-06-05T10:28:26Z</time>
      </trkpt>
      <trkpt lat="48.2442980" lon="8.1527960">
        <ele>-29.4</ele>
        <time>2022-06-05T10:28:30Z</time>
      </trkpt>
      <trkpt lat="48.2443200" lon="8.1529330">
        <ele>-29.2</ele>
        <time>2022-06-05T10:28:34Z</time>
      </trkpt>
      <trkpt lat="48.2443160" lon="8.1530750">
        <ele>-28.6</ele>
        <time>2022-06-05T10:28:38Z</time>
      </trkpt>
      <trkpt lat="48.2443230" lon="8.1532030">
        <ele>-27.8</ele>
        <time>2022-06-05T10:28:42Z</time>
      </trkpt>
      <trkpt lat="48.2443080" lon="8.1533350">
        <ele>-27.0</ele>
        <time>2022-06-05T10:28:46Z</time>
      </trkpt>
      <trkpt lat="48.2442930" lon="8.1534650">
        <ele>-25.4</ele>
        <time>2022-06-05T10:28:50Z</time>
      </trkpt>
      <trkpt lat="48.2442700" lon="8.1535900">
        <ele>-25.0</ele>
        <time>2022-06-05T10:28:54Z</time>
      </trkpt>
      <trkpt lat="48.2442600" lon="8.1537100">
        <ele>-23.8</ele>
        <time>2022-06-05T10:28:58Z</time>
      </trkpt>
      <trkpt lat="48.2442400" lon="8.1538260">
        <ele>-22.6</ele>
        <time>2022-06-05T10:29:02Z</time>
      </trkpt>
      <trkpt lat="48.2442410" lon="8.1539600">
        <ele>-21.6</ele>
        <time>2022-06-05T10:29:06Z</time>
      </trkpt>
      <trkpt lat="48.2442430" lon="8.1540850">
        <ele>-20.8</ele>
        <time>2022-06-05T10:29:10Z</time>
      </trkpt>
      <trkpt lat="48.2442430" lon="8.1541980">
        <ele>-19.6</ele>
        <time>2022-06-05T10:29:14Z</time>
      </trkpt>
      <trkpt lat="48.2442310" lon="8.1543130">
        <ele>-19.0</ele>
        <time>2022-06-05T10:29:18Z</time>
      </trkpt>
      <trkpt lat="48.2442410" lon="8.1544250">
        <ele>-18.8</ele>
        <time>2022-06-05T10:29:22Z</time>
      </trkpt>
      <trkpt lat="48.2442350" lon="8.1545430">
        <ele>-17.6</ele>
        <time>2022-06-05T10:29:26Z</time>
      </trkpt>
      <trkpt lat="48.2442250" lon="8.1546450">
        <ele>-17.0</ele>
        <time>2022-06-05T10:29:30Z</time>
      </trkpt>
      <trkpt lat="48.2441810" lon="8.1547530">
        <ele>-16.4</ele>
        <time>2022-06-05T10:29:34Z</time>
      </trkpt>
      <trkpt lat="48.2441680" lon="8.1548760">
        <ele>-15.8</ele>
        <time>2022-06-05T10:29:38Z</time>
      </trkpt>
      <trkpt lat="48.2441660" lon="8.1550080">
        <ele>-15.2</ele>
        <time>2022-06-05T10:29:42Z</time>
      </trkpt>
      <trkpt lat="48.2441600" lon="8.1551510">
        <ele>-14.2</ele>
        <time>2022-06-05T10:29:46Z</time>
      </trkpt>
      <trkpt lat="48.2441660" lon="8.1552810">
        <ele>-14.0</ele>
        <time>2022-06-05T10:29:50Z</time>
      </trkpt>
      <trkpt lat="48.2441880" lon="8.1554060">
        <ele>-13.0</ele>
        <time>2022-06-05T10:29:54Z</time>
      </trkpt>
      <trkpt lat="48.2442060" lon="8.1555330">
        <ele>-12.6</ele>
        <time>2022-06-05T10:29:58Z</time>
      </trkpt>
      <trkpt lat="48.2442060" lon="8.1556700">
        <ele>-12.0</ele>
        <time>2022-06-05T10:30:02Z</time>
      </trkpt>
      <trkpt lat="48.2442010" lon="8.1558030">
        <ele>-11.2</ele>
        <time>2022-06-05T10:30:06Z</time>
      </trkpt>
      <trkpt lat="48.2442000" lon="8.1559360">
        <ele>-11.0</ele>
        <time>2022-06-05T10:30:10Z</time>
      </trkpt>
      <trkpt lat="48.2442030" lon="8.1560600">
        <ele>-9.8</ele>
        <time>2022-06-05T10:30:14Z</time>
      </trkpt>
      <trkpt lat="48.2441880" lon="8.1561730">
        <ele>-9.4</ele>
        <time>2022-06-05T10:30:18Z</time>
      </trkpt>
      <trkpt lat="48.2441850" lon="8.1563060">
        <ele>-9.0</ele>
        <time>2022-06-05T10:30:22Z</time>
      </trkpt>
      <trkpt lat="48.2442000" lon="8.1564450">
        <ele>-8.4</ele>
        <time>2022-06-05T10:30:26Z</time>
      </trkpt>
      <trkpt lat="48.2442080" lon="8.1565610">
        <ele>-8.0</ele>
        <time>2022-06-05T10:30:30Z</time>
      </trkpt>
      <trkpt lat="48.2441950" lon="8.1566730">
        <ele>-7.2</ele>
        <time>2022-06-05T10:30:34Z</time>
      </trkpt>
      <trkpt lat="48.2441880" lon="8.1567910">
        <ele>-6.6</ele>
        <time>2022-06-05T10:30:38Z</time>
      </trkpt>
      <trkpt lat="48.2441810" lon="8.1569300">
        <ele>-6.0</ele>
        <time>2022-06-05T10:30:42Z</time>
      </trkpt>
      <trkpt lat="48.2441750" lon="8.1570600">
        <ele>-5.0</ele>
        <time>2022-06-05T10:30:46Z</time>
      </trkpt>
      <trkpt lat="48.2441710" lon="8.1571860">
        <ele>-4.4</ele>
        <time>2022-06-05T10:30:50Z</time>
      </trkpt>
      <trkpt lat="48.2441080" lon="8.1573110">
        <ele>-4.4</ele>
        <time>2022-06-05T10:30:54Z</time>
      </trkpt>
      <trkpt lat="48.2440250" lon="8.1574110">
        <ele>-4.8</ele>
        <time>2022-06-05T10:30:58Z</time>
      </trkpt>
      <trkpt lat="48.2439380" lon="8.1574800">
        <ele>-4.8</ele>
        <time>2022-06-05T10:31:02Z</time>
      </trkpt>
      <trkpt lat="48.2438450" lon="8.1575850">
        <ele>-4.6</ele>
        <time>2022-06-05T10:31:06Z</time>
      </trkpt>
      <trkpt lat="48.2437460" lon="8.1576950">
        <ele>-5.0</ele>
        <time>2022-06-05T10:31:10Z</time>
      </trkpt>
      <trkpt lat="48.2436510" lon="8.1578280">
        <ele>-5.6</ele>
        <time>2022-06-05T10:31:14Z</time>
      </trkpt>
      <trkpt lat="48.2435630" lon="8.1579860">
        <ele>-5.8</ele>
        <time>2022-06-05T10:31:18Z</time>
      </trkpt>
      <trkpt lat="48.2434810" lon="8.1581660">
        <ele>-6.2</ele>
        <time>2022-06-05T10:31:22Z</time>
      </trkpt>
      <trkpt lat="48.2434430" lon="8.1582830">
        <ele>-6.2</ele>
        <time>2022-06-05T10:31:26Z</time>
      </trkpt>
      <trkpt lat="48.2434430" lon="8.1582830">
        <ele>-5.8</ele>
        <time>2022-06-05T10:31:30Z</time>
      </trkpt>
      <trkpt lat="48.2434430" lon="8.1582830">
        <ele>-6.2</ele>
        <time>2022-06-05T10:31:34Z</time>
      </trkpt>
      <trkpt lat="48.2434430" lon="8.1582830">
        <ele>-5.8</ele>
        <time>2022-06-05T10:31:38Z</time>
      </trkpt>
      <trkpt lat="48.2434430" lon="8.1582830">
        <ele>-6.2</ele>
        <time>2022-06-05T10:31:42Z</time>
      </trkpt>
      <trkpt lat="48.2434430" lon="8.1582830">
        <ele>-6.0</ele>
        <time>2022-06-05T10:31:46Z</time>
      </trkpt>
      <trkpt lat="48.2434430" lon="8.1582830">
        <ele>-6.0</ele>
        <time>2022-06-05T10:31:50Z</time>
      </trkpt>
      <trkpt lat="48.2434430" lon="8.1582830">
        <ele>-6.2</ele>
        <time>2022-06-05T10:31:54Z</time>
      </trkpt>
      <trkpt lat="48.2434430" lon="8.1582830">
        <ele>-6.2</ele>
        <time>2022-06-05T10:31:58Z</time>
      </trkpt>
      <trkpt lat="48.2434430" lon="8.1582830">
        <ele>-6.2</ele>
        <time>2022-06-05T10:32:02Z</time>
      </trkpt>
      <trkpt lat="48.2434430" lon="8.1582830">
        <ele>-6.4</ele>
        <time>2022-06-05T10:32:06Z</time>
      </trkpt>
      <trkpt lat="48.2434430" lon="8.1582830">
        <ele>-6.4</ele>
        <time>2022-06-05T10:32:10Z</time>
      </trkpt>
      <trkpt lat="48.2434430" lon="8.1582830">
        <ele>-6.2</ele>
        <time>2022-06-05T10:32:14Z</time>
      </trkpt>
      <trkpt lat="48.2434430" lon="8.1582830">
        <ele>-6.2</ele>
        <time>2022-06-05T10:32:18Z</time>
      </trkpt>
      <trkpt lat="48.2434430" lon="8.1582830">
        <ele>-6.0</ele>
        <time>2022-06-05T10:32:22Z</time>
      </trkpt>
      <trkpt lat="48.2434100" lon="8.1583400">
        <ele>-5.8</ele>
        <time>2022-06-05T10:32:26Z</time>
      </trkpt>
      <trkpt lat="48.2434100" lon="8.1583400">
        <ele>-6.2</ele>
        <time>2022-06-05T10:32:30Z</time>
      </trkpt>
      <trkpt lat="48.2434100" lon="8.1583400">
        <ele>-6.0</ele>
        <time>2022-06-05T10:32:34Z</time>
      </trkpt>
      <trkpt lat="48.2434100" lon="8.1583400">
        <ele>-6.2</ele>
        <time>2022-06-05T10:32:38Z</time>
      </trkpt>
      <trkpt lat="48.2434100" lon="8.1583400">
        <ele>-6.4</ele>
        <time>2022-06-05T10:32:42Z</time>
      </trkpt>
      <trkpt lat="48.2434100" lon="8.1583400">
        <ele>-6.2</ele>
        <time>2022-06-05T10:32:46Z</time>
      </trkpt>
      <trkpt lat="48.2434100" lon="8.1583400">
        <ele>-6.0</ele>
        <time>2022-06-05T10:32:50Z</time>
      </trkpt>
      <trkpt lat="48.2434060" lon="8.1583650">
        <ele>-6.2</ele>
        <time>2022-06-05T10:32:54Z</time>
      </trkpt>
      <trkpt lat="48.2433960" lon="8.1584510">
        <ele>-6.0</ele>
        <time>2022-06-05T10:32:58Z</time>
      </trkpt>
      <trkpt lat="48.2433700" lon="8.1585800">
        <ele>-5.8</ele>
        <time>2022-06-05T10:33:02Z</time>
      </trkpt>
      <trkpt lat="48.2433360" lon="8.1587110">
        <ele>-4.8</ele>
        <time>2022-06-05T10:33:06Z</time>
      </trkpt>
      <trkpt lat="48.2433260" lon="8.1588430">
        <ele>-4.2</ele>
        <time>2022-06-05T10:33:10Z</time>
      </trkpt>
      <trkpt lat="48.2433230" lon="8.1589630">
        <ele>-4.0</ele>
        <time>2022-06-05T10:33:14Z</time>
      </trkpt>
      <trkpt lat="48.2433410" lon="8.1590810">
        <ele>-3.2</ele>
        <time>2022-06-05T10:33:18Z</time>
      </trkpt>
      <trkpt lat="48.2433480" lon="8.1591960">
        <ele>-2.6</ele>
        <time>2022-06-05T10:33:22Z</time>
      </trkpt>
      <trkpt lat="48.2433510" lon="8.1593110">
        <ele>-2.4</ele>
        <time>2022-06-05T10:33:26Z</time>
      </trkpt>
      <trkpt lat="48.2433530" lon="8.1594300">
        <ele>-2.0</ele>
        <time>2022-06-05T10:33:30Z</time>
      </trkpt>
      <trkpt lat="48.2433610" lon="8.1595430">
        <ele>-1.2</ele>
        <time>2022-06-05T10:33:34Z</time>
      </trkpt>
      <trkpt lat="48.2433510" lon="8.1596500">
        <ele>-0.6</ele>
        <time>2022-06-05T10:33:38Z</time>
      </trkpt>
      <trkpt lat="48.2433480" lon="8.1597610">
        <ele>-0.2</ele>
        <time>2022-06-05T10:33:42Z</time>
      </trkpt>
      <trkpt lat="48.2433410" lon="8.1598750">
        <ele>0.4</ele>
        <time>2022-06-05T10:33:46Z</time>
      </trkpt>
      <trkpt lat="48.2433300" lon="8.1599850">
        <ele>1.2</ele>
        <time>2022-06-05T10:33:50Z</time>
      </trkpt>
      <trkpt lat="48.2433460" lon="8.1600900">
        <ele>1.8</ele>
        <time>2022-06-05T10:33:54Z</time>
      </trkpt>
      <trkpt lat="48.2433460" lon="8.1602050">
        <ele>2.8</ele>
        <time>2022-06-05T10:33:58Z</time>
      </trkpt>
      <trkpt lat="48.2433060" lon="8.1603150">
        <ele>3.4</ele>
        <time>2022-06-05T10:34:02Z</time>
      </trkpt>
      <trkpt lat="48.2432850" lon="8.1604260">
        <ele>4.2</ele>
        <time>2022-06-05T10:34:06Z</time>
      </trkpt>
      <trkpt lat="48.2432900" lon="8.1605510">
        <ele>5.0</ele>
        <time>2022-06-05T10:34:10Z</time>
      </trkpt>
      <trkpt lat="48.2432800" lon="8.1606780">
        <ele>6.2</ele>
        <time>2022-06-05T10:34:14Z</time>
      </trkpt>
      <trkpt lat="48.2432360" lon="8.1607910">
        <ele>7.2</ele>
        <time>2022-06-05T10:34:18Z</time>
      </trkpt>
      <trkpt lat="48.2432110" lon="8.1609050">
        <ele>8.0</ele>
        <time>2022-06-05T10:34:22Z</time>
      </trkpt>
      <trkpt lat="48.2432050" lon="8.1610150">
        <ele>8.4</ele>
        <time>2022-06-05T10:34:26Z</time>
      </trkpt>
      <trkpt lat="48.2431910" lon="8.1611330">
        <ele>9.2</ele>
        <time>2022-06-05T10:34:30Z</time>
      </trkpt>
      <trkpt lat="48.2431700" lon="8.1612500">
        <ele>10.0</ele>
        <time>2022-06-05T10:34:34Z</time>
      </trkpt>
      <trkpt lat="48.2431380" lon="8.1613600">
        <ele>10.6</ele>
        <time>2022-06-05T10:34:38Z</time>
      </trkpt>
      <trkpt lat="48.2431330" lon="8.1614860">
        <ele>10.8</ele>
        <time>2022-06-05T10:34:42Z</time>
      </trkpt>
      <trkpt lat="48.2431280" lon="8.1616150">
        <ele>11.4</ele>
        <time>2022-06-05T10:34:46Z</time>
      </trkpt>
      <trkpt lat="48.2431410" lon="8.1617430">
        <ele>12.0</ele>
        <time>2022-06-05T10:34:50Z</time>
      </trkpt>
      <trkpt lat="48.2431480" lon="8.1618730">
        <ele>12.2</ele>
        <time>2022-06-05T10:34:54Z</time>
      </trkpt>
      <trkpt lat="48.2431510" lon="8.1619960">
        <ele>12.8</ele>
        <time>2022-06-05T10:34:58Z</time>
      </trkpt>
      <trkpt lat="48.2431430" lon="8.1621100">
        <ele>13.2</ele>
        <time>2022-06-05T10:35:02Z</time>
      </trkpt>
      <trkpt lat="48.2431200" lon="8.1622200">
        <ele>14.2</ele>
        <time>2022-06-05T10:35:06Z</time>
      </trkpt>
      <trkpt lat="48.2430760" lon="8.1623280">
        <ele>14.6</ele>
        <time>2022-06-05T10:35:10Z</time>
      </trkpt>
      <trkpt lat="48.2430260" lon="8.1624250">
        <ele>15.6</ele>
        <time>2022-06-05T10:35:14Z</time>
      </trkpt>
      <trkpt lat="48.2429750" lon="8.1624960">
        <ele>16.0</ele>
        <time>2022-06-05T10:35:18Z</time>
      </trkpt>
      <trkpt lat="48.2429150" lon="8.1625660">
        <ele>16.8</ele>
        <time>2022-06-05T10:35:22Z</time>
      </trkpt>
      <trkpt lat="48.2428810" lon="8.1626310">
        <ele>17.6</ele>
        <time>2022-06-05T10:35:26Z</time>
      </trkpt>
      <trkpt lat="48.2428660" lon="8.1626880">
        <ele>18.0</ele>
        <time>2022-06-05T10:35:30Z</time>
      </trkpt>
      <trkpt lat="48.2428280" lon="8.1627530">
        <ele>19.8</ele>
        <time>2022-06-05T10:35:34Z</time>
      </trkpt>
      <trkpt lat="48.2428260" lon="8.1627850">
        <ele>20.2</ele>
        <time>2022-06-05T10:35:38Z</time>
      </trkpt>
      <trkpt lat="48.2428110" lon="8.1628600">
        <ele>21.4</ele>
        <time>2022-06-05T10:35:42Z</time>
      </trkpt>
      <trkpt lat="48.2428180" lon="8.1629160">
        <ele>22.4</ele>
        <time>2022-06-05T10:35:46Z</time>
      </trkpt>
      <trkpt lat="48.2427980" lon="8.1629760">
        <ele>22.8</ele>
        <time>2022-06-05T10:35:50Z</time>
      </trkpt>
      <trkpt lat="48.2427780" lon="8.1630500">
        <ele>23.8</ele>
        <time>2022-06-05T10:35:54Z</time>
      </trkpt>
      <trkpt lat="48.2427150" lon="8.1631260">
        <ele>25.2</ele>
        <time>2022-06-05T10:35:58Z</time>
      </trkpt>
      <trkpt lat="48.2426660" lon="8.1631980">
        <ele>26.2</ele>
        <time>2022-06-05T10:36:02Z</time>
      </trkpt>
      <trkpt lat="48.2425880" lon="8.1632850">
        <ele>27.2</ele>
        <time>2022-06-05T10:36:06Z</time>
      </trkpt>
      <trkpt lat="48.2425360" lon="8.1633560">
        <ele>28.0</ele>
        <time>2022-06-05T10:36:10Z</time>
      </trkpt>
      <trkpt lat="48.2425000" lon="8.1634480">
        <ele>28.8</ele>
        <time>2022-06-05T10:36:14Z</time>
      </trkpt>
      <trkpt lat="48.2424900" lon="8.1635180">
        <ele>30.0</ele>
        <time>2022-06-05T10:36:18Z</time>
      </trkpt>
      <trkpt lat="48.2424510" lon="8.1636350">
        <ele>30.8</ele>
        <time>2022-06-05T10:36:22Z</time>
      </trkpt>
      <trkpt lat="48.2423810" lon="8.1637250">
        <ele>31.8</ele>
        <time>2022-06-05T10:36:26Z</time>
      </trkpt>
      <trkpt lat="48.2423360" lon="8.1637950">
        <ele>32.4</ele>
        <time>2022-06-05T10:36:30Z</time>
      </trkpt>
      <trkpt lat="48.2422930" lon="8.1638800">
        <ele>33.6</ele>
        <time>2022-06-05T10:36:34Z</time>
      </trkpt>
      <trkpt lat="48.2422560" lon="8.1639580">
        <ele>34.2</ele>
        <time>2022-06-05T10:36:38Z</time>
      </trkpt>
      <trkpt lat="48.2422330" lon="8.1640500">
        <ele>35.0</ele>
        <time>2022-06-05T10:36:42Z</time>
      </trkpt>
      <trkpt lat="48.2422030" lon="8.1641360">
        <ele>36.0</ele>
        <time>2022-06-05T10:36:46Z</time>
      </trkpt>
      <trkpt lat="48.2421910" lon="8.1642100">
        <ele>36.6</ele>
        <time>2022-06-05T10:36:50Z</time>
      </trkpt>
      <trkpt lat="48.2421630" lon="8.1643100">
        <ele>37.2</ele>
        <time>2022-06-05T10:36:54Z</time>
      </trkpt>
      <trkpt lat="48.2421250" lon="8.1644150">
        <ele>38.2</ele>
        <time>2022-06-05T10:36:58Z</time>
      </trkpt>
      <trkpt lat="48.2420860" lon="8.1645080">
        <ele>38.8</ele>
        <time>2022-06-05T10:37:02Z</time>
      </trkpt>
      <trkpt lat="48.2420500" lon="8.1645800">
        <ele>39.8</ele>
        <time>2022-06-05T10:37:06Z</time>
      </trkpt>
      <trkpt lat="48.2420380" lon="8.1646430">
        <ele>40.4</ele>
        <time>2022-06-05T10:37:10Z</time>
      </trkpt>
      <trkpt lat="48.2419850" lon="8.1646750">
        <ele>41.0</ele>
        <time>2022-06-05T10:37:14Z</time>
      </trkpt>
      <trkpt lat="48.2418850" lon="8.1647550">
        <ele>41.8</ele>
        <time>2022-06-05T10:37:18Z</time>
      </trkpt>
      <trkpt lat="48.2417630" lon="8.1648210">
        <ele>42.6</ele>
        <time>2022-06-05T10:37:22Z</time>
      </trkpt>
      <trkpt lat="48.2416930" lon="8.1649060">
        <ele>43.0</ele>
        <time>2022-06-05T10:37:26Z</time>
      </trkpt>
      <trkpt lat="48.2416110" lon="8.1650000">
        <ele>43.8</ele>
        <time>2022-06-05T10:37:30Z</time>
      </trkpt>
      <trkpt lat="48.2415780" lon="8.1650810">
        <ele>44.4</ele>
        <time>2022-06-05T10:37:34Z</time>
      </trkpt>
      <trkpt lat="48.2415450" lon="8.1651660">
        <ele>44.6</ele>
        <time>2022-06-05T10:37:38Z</time>
      </trkpt>
      <trkpt lat="48.2414910" lon="8.1652710">
        <ele>45.0</ele>
        <time>2022-06-05T10:37:42Z</time>
      </trkpt>
      <trkpt lat="48.2414460" lon="8.1653950">
        <ele>46.0</ele>
        <time>2022-06-05T10:37:46Z</time>
      </trkpt>
      <trkpt lat="48.2413780" lon="8.1655150">
        <ele>46.0</ele>
        <time>2022-06-05T10:37:50Z</time>
      </trkpt>
      <trkpt lat="48.2412960" lon="8.1656210">
        <ele>46.8</ele>
        <time>2022-06-05T10:37:54Z</time>
      </trkpt>
      <trkpt lat="48.2412250" lon="8.1656860">
        <ele>47.2</ele>
        <time>2022-06-05T10:37:58Z</time>
      </trkpt>
      <trkpt lat="48.2411330" lon="8.1657560">
        <ele>47.8</ele>
        <time>2022-06-05T10:38:02Z</time>
      </trkpt>
      <trkpt lat="48.2410330" lon="8.1658330">
        <ele>47.6</ele>
        <time>2022-06-05T10:38:06Z</time>
      </trkpt>
      <trkpt lat="48.2409550" lon="8.1658860">
        <ele>48.0</ele>
        <time>2022-06-05T10:38:10Z</time>
      </trkpt>
      <trkpt lat="48.2408710" lon="8.1659500">
        <ele>48.2</ele>
        <time>2022-06-05T10:38:14Z</time>
      </trkpt>
      <trkpt lat="48.2408000" lon="8.1660600">
        <ele>48.0</ele>
        <time>2022-06-05T10:38:18Z</time>
      </trkpt>
      <trkpt lat="48.2407180" lon="8.1661760">
        <ele>48.6</ele>
        <time>2022-06-05T10:38:22Z</time>
      </trkpt>
      <trkpt lat="48.2406450" lon="8.1662930">
        <ele>49.0</ele>
        <time>2022-06-05T10:38:26Z</time>
      </trkpt>
      <trkpt lat="48.2405660" lon="8.1664160">
        <ele>49.8</ele>
        <time>2022-06-05T10:38:30Z</time>
      </trkpt>
      <trkpt lat="48.2404880" lon="8.1665600">
        <ele>50.0</ele>
        <time>2022-06-05T10:38:34Z</time>
      </trkpt>
      <trkpt lat="48.2404080" lon="8.1666930">
        <ele>51.2</ele>
        <time>2022-06-05T10:38:38Z</time>
      </trkpt>
      <trkpt lat="48.2403560" lon="8.1667510">
        <ele>51.8</ele>
        <time>2022-06-05T10:38:42Z</time>
      </trkpt>
      <trkpt lat="48.2402930" lon="8.1668250">
        <ele>52.6</ele>
        <time>2022-06-05T10:38:46Z</time>
      </trkpt>
      <trkpt lat="48.2402350" lon="8.1669050">
        <ele>53.2</ele>
        <time>2022-06-05T10:38:50Z</time>
      </trkpt>
      <trkpt lat="48.2401810" lon="8.1669780">
        <ele>54.2</ele>
        <time>2022-06-05T10:38:54Z</time>
      </trkpt>
      <trkpt lat="48.2401200" lon="8.1670230">
        <ele>55.4</ele>
        <time>2022-06-05T10:38:58Z</time>
      </trkpt>
      <trkpt lat="48.2400630" lon="8.1670810">
        <ele>56.6</ele>
        <time>2022-06-05T10:39:02Z</time>
      </trkpt>
      <trkpt lat="48.2400110" lon="8.1671410">
        <ele>57.0</ele>
        <time>2022-06-05T10:39:06Z</time>
      </trkpt>
      <trkpt lat="48.2399600" lon="8.1671980">
        <ele>57.6</ele>
        <time>2022-06-05T10:39:10Z</time>
      </trkpt>
      <trkpt lat="48.2399130" lon="8.1672650">
        <ele>58.4</ele>
        <time>2022-06-05T10:39:14Z</time>
      </trkpt>
      <trkpt lat="48.2398660" lon="8.1673230">
        <ele>59.0</ele>
        <time>2022-06-05T10:39:18Z</time>
      </trkpt>
      <trkpt lat="48.2398180" lon="8.1673810">
        <ele>60.0</ele>
        <time>2022-06-05T10:39:22Z</time>
      </trkpt>
      <trkpt lat="48.2397650" lon="8.1674310">
        <ele>60.6</ele>
        <time>2022-06-05T10:39:26Z</time>
      </trkpt>
      <trkpt lat="48.2397200" lon="8.1674880">
        <ele>61.6</ele>
        <time>2022-06-05T10:39:30Z</time>
      </trkpt>
      <trkpt lat="48.2396660" lon="8.1675360">
        <ele>62.6</ele>
        <time>2022-06-05T10:39:34Z</time>
      </trkpt>
      <trkpt lat="48.2396110" lon="8.1675950">
        <ele>63.8</ele>
        <time>2022-06-05T10:39:38Z</time>
      </trkpt>
      <trkpt lat="48.2395600" lon="8.1676450">
        <ele>64.6</ele>
        <time>2022-06-05T10:39:42Z</time>
      </trkpt>
      <trkpt lat="48.2395100" lon="8.1676880">
        <ele>65.4</ele>
        <time>2022-06-05T10:39:46Z</time>
      </trkpt>
      <trkpt lat="48.2394630" lon="8.1677280">
        <ele>66.2</ele>
        <time>2022-06-05T10:39:50Z</time>
      </trkpt>
      <trkpt lat="48.2394080" lon="8.1677750">
        <ele>67.2</ele>
        <time>2022-06-05T10:39:54Z</time>
      </trkpt>
      <trkpt lat="48.2393610" lon="8.1678130">
        <ele>67.6</ele>
        <time>2022-06-05T10:39:58Z</time>
      </trkpt>
      <trkpt lat="48.2393210" lon="8.1678800">
        <ele>68.6</ele>
        <time>2022-06-05T10:40:02Z</time>
      </trkpt>
      <trkpt lat="48.2392660" lon="8.1679130">
        <ele>69.2</ele>
        <time>2022-06-05T10:40:06Z</time>
      </trkpt>
      <trkpt lat="48.2392280" lon="8.1679680">
        <ele>70.2</ele>
        <time>2022-06-05T10:40:10Z</time>
      </trkpt>
      <trkpt lat="48.2391850" lon="8.1680000">
        <ele>71.0</ele>
        <time>2022-06-05T10:40:14Z</time>
      </trkpt>
      <trkpt lat="48.2391360" lon="8.1680100">
        <ele>71.6</ele>
        <time>2022-06-05T10:40:18Z</time>
      </trkpt>
      <trkpt lat="48.2390660" lon="8.1680260">
        <ele>72.2</ele>
        <time>2022-06-05T10:40:22Z</time>
      </trkpt>
      <trkpt lat="48.2390050" lon="8.1680650">
        <ele>72.8</ele>
        <time>2022-06-05T10:40:26Z</time>
      </trkpt>
      <trkpt lat="48.2389510" lon="8.1680960">
        <ele>73.2</ele>
        <time>2022-06-05T10:40:30Z</time>
      </trkpt>
      <trkpt lat="48.2388900" lon="8.1681380">
        <ele>74.2</ele>
        <time>2022-06-05T10:40:34Z</time>
      </trkpt>
      <trkpt lat="48.2388380" lon="8.1681860">
        <ele>74.6</ele>
        <time>2022-06-05T10:40:38Z</time>
      </trkpt>
      <trkpt lat="48.2387860" lon="8.1682080">
        <ele>75.8</ele>
        <time>2022-06-05T10:40:42Z</time>
      </trkpt>
      <trkpt lat="48.2387400" lon="8.1682360">
        <ele>77.0</ele>
        <time>2022-06-05T10:40:46Z</time>
      </trkpt>
      <trkpt lat="48.2386860" lon="8.1682860">
        <ele>78.0</ele>
        <time>2022-06-05T10:40:50Z</time>
      </trkpt>
      <trkpt lat="48.2386360" lon="8.1683110">
        <ele>78.8</ele>
        <time>2022-06-05T10:40:54Z</time>
      </trkpt>
      <trkpt lat="48.2385910" lon="8.1683660">
        <ele>80.2</ele>
        <time>2022-06-05T10:40:58Z</time>
      </trkpt>
      <trkpt lat="48.2385430" lon="8.1684330">
        <ele>80.8</ele>
        <time>2022-06-05T10:41:02Z</time>
      </trkpt>
      <trkpt lat="48.2384950" lon="8.1684830">
        <ele>81.6</ele>
        <time>2022-06-05T10:41:06Z</time>
      </trkpt>
      <trkpt lat="48.2384560" lon="8.1685400">
        <ele>82.2</ele>
        <time>2022-06-05T10:41:10Z</time>
      </trkpt>
      <trkpt lat="48.2384110" lon="8.1685900">
        <ele>83.2</ele>
        <time>2022-06-05T10:41:14Z</time>
      </trkpt>
      <trkpt lat="48.2383750" lon="8.1686430">
        <ele>84.0</ele>
        <time>2022-06-05T10:41:18Z</time>
      </trkpt>
      <trkpt lat="48.2383450" lon="8.1687000">
        <ele>84.4</ele>
        <time>2022-06-05T10:41:22Z</time>
      </trkpt>
      <trkpt lat="48.2383280" lon="8.1687680">
        <ele>85.4</ele>
        <time>2022-06-05T10:41:26Z</time>
      </trkpt>
      <trkpt lat="48.2382930" lon="8.1688160">
        <ele>86.0</ele>
        <time>2022-06-05T10:41:30Z</time>
      </trkpt>
      <trkpt lat="48.2382610" lon="8.1688780">
        <ele>86.6</ele>
        <time>2022-06-05T10:41:34Z</time>
      </trkpt>
      <trkpt lat="48.2382330" lon="8.1689410">
        <ele>88.0</ele>
        <time>2022-06-05T10:41:38Z</time>
      </trkpt>
      <trkpt lat="48.2382100" lon="8.1690080">
        <ele>88.6</ele>
        <time>2022-06-05T10:41:42Z</time>
      </trkpt>
      <trkpt lat="48.2381960" lon="8.1690760">
        <ele>89.4</ele>
        <time>2022-06-05T10:41:46Z</time>
      </trkpt>
      <trkpt lat="48.2381700" lon="8.1691430">
        <ele>90.8</ele>
        <time>2022-06-05T10:41:50Z</time>
      </trkpt>
      <trkpt lat="48.2381500" lon="8.1692160">
        <ele>91.4</ele>
        <time>2022-06-05T10:41:54Z</time>
      </trkpt>
      <trkpt lat="48.2381230" lon="8.1692900">
        <ele>92.2</ele>
        <time>2022-06-05T10:41:58Z</time>
      </trkpt>
      <trkpt lat="48.2381000" lon="8.1693560">
        <ele>92.8</ele>
        <time>2022-06-05T10:42:02Z</time>
      </trkpt>
      <trkpt lat="48.2380700" lon="8.1694160">
        <ele>93.6</ele>
        <time>2022-06-05T10:42:06Z</time>
      </trkpt>
      <trkpt lat="48.2380350" lon="8.1694700">
        <ele>94.8</ele>
        <time>2022-06-05T10:42:10Z</time>
      </trkpt>
      <trkpt lat="48.2379760" lon="8.1694850">
        <ele>95.6</ele>
        <time>2022-06-05T10:42:14Z</time>
      </trkpt>
      <trkpt lat="48.2379210" lon="8.1694930">
        <ele>96.4</ele>
        <time>2022-06-05T10:42:18Z</time>
      </trkpt>
      <trkpt lat="48.2378730" lon="8.1695010">
        <ele>97.2</ele>
        <time>2022-06-05T10:42:22Z</time>
      </trkpt>
      <trkpt lat="48.2378230" lon="8.1694550">
        <ele>98.2</ele>
        <time>2022-06-05T10:42:26Z</time>
      </trkpt>
      <trkpt lat="48.2377700" lon="8.1694130">
        <ele>98.6</ele>
        <time>2022-06-05T10:42:30Z</time>
      </trkpt>
      <trkpt lat="48.2377100" lon="8.1693850">
        <ele>99.4</ele>
        <time>2022-06-05T10:42:34Z</time>
      </trkpt>
      <trkpt lat="48.2376600" lon="8.1693310">
        <ele>99.6</ele>
        <time>2022-06-05T10:42:38Z</time>
      </trkpt>
      <trkpt lat="48.2376150" lon="8.1692630">
        <ele>100.4</ele>
        <time>2022-06-05T10:42:42Z</time>
      </trkpt>
      <trkpt lat="48.2375610" lon="8.1692260">
        <ele>101.8</ele>
        <time>2022-06-05T10:42:46Z</time>
      </trkpt>
      <trkpt lat="48.2375060" lon="8.1691930">
        <ele>102.2</ele>
        <time>2022-06-05T10:42:50Z</time>
      </trkpt>
      <trkpt lat="48.2374560" lon="8.1691350">
        <ele>103.0</ele>
        <time>2022-06-05T10:42:54Z</time>
      </trkpt>
      <trkpt lat="48.2374100" lon="8.1690680">
        <ele>103.4</ele>
        <time>2022-06-05T10:42:58Z</time>
      </trkpt>
      <trkpt lat="48.2373550" lon="8.1690200">
        <ele>104.2</ele>
        <time>2022-06-05T10:43:02Z</time>
      </trkpt>
      <trkpt lat="48.2373100" lon="8.1689510">
        <ele>105.2</ele>
        <time>2022-06-05T10:43:06Z</time>
      </trkpt>
      <trkpt lat="48.2372560" lon="8.1688930">
        <ele>105.8</ele>
        <time>2022-06-05T10:43:10Z</time>
      </trkpt>
      <trkpt lat="48.2371960" lon="8.1688350">
        <ele>106.4</ele>
        <time>2022-06-05T10:43:14Z</time>
      </trkpt>
      <trkpt lat="48.2371450" lon="8.1687680">
        <ele>107.2</ele>
        <time>2022-06-05T10:43:18Z</time>
      </trkpt>
      <trkpt lat="48.2370830" lon="8.1687110">
        <ele>107.4</ele>
        <time>2022-06-05T10:43:22Z</time>
      </trkpt>
      <trkpt lat="48.2370230" lon="8.1686500">
        <ele>108.0</ele>
        <time>2022-06-05T10:43:26Z</time>
      </trkpt>
      <trkpt lat="48.2369630" lon="8.1685860">
        <ele>108.2</ele>
        <time>2022-06-05T10:43:30Z</time>
      </trkpt>
      <trkpt lat="48.2368950" lon="8.1685510">
        <ele>108.6</ele>
        <time>2022-06-05T10:43:34Z</time>
      </trkpt>
      <trkpt lat="48.2368280" lon="8.1685010">
        <ele>109.2</ele>
        <time>2022-06-05T10:43:38Z</time>
      </trkpt>
      <trkpt lat="48.2367630" lon="8.1684430">
        <ele>109.8</ele>
        <time>2022-06-05T10:43:42Z</time>
      </trkpt>
      <trkpt lat="48.2366800" lon="8.1683960">
        <ele>109.8</ele>
        <time>2022-06-05T10:43:46Z</time>
      </trkpt>
      <trkpt lat="48.2366050" lon="8.1683260">
        <ele>109.8</ele>
        <time>2022-06-05T10:43:50Z</time>
      </trkpt>
      <trkpt lat="48.2365250" lon="8.1682660">
        <ele>110.2</ele>
        <time>2022-06-05T10:43:54Z</time>
      </trkpt>
      <trkpt lat="48.2364460" lon="8.1682000">
        <ele>110.6</ele>
        <time>2022-06-05T10:43:58Z</time>
      </trkpt>
      <trkpt lat="48.2363630" lon="8.1681400">
        <ele>111.0</ele>
        <time>2022-06-05T10:44:02Z</time>
      </trkpt>
      <trkpt lat="48.2362800" lon="8.1680710">
        <ele>111.0</ele>
        <time>2022-06-05T10:44:06Z</time>
      </trkpt>
      <trkpt lat="48.2362000" lon="8.1680050">
        <ele>111.4</ele>
        <time>2022-06-05T10:44:10Z</time>
      </trkpt>
      <trkpt lat="48.2361230" lon="8.1679380">
        <ele>111.6</ele>
        <time>2022-06-05T10:44:14Z</time>
      </trkpt>
      <trkpt lat="48.2360630" lon="8.1678480">
        <ele>112.4</ele>
        <time>2022-06-05T10:44:18Z</time>
      </trkpt>
      <trkpt lat="48.2360330" lon="8.1677330">
        <ele>113.4</ele>
        <time>2022-06-05T10:44:22Z</time>
      </trkpt>
      <trkpt lat="48.2360300" lon="8.1676200">
        <ele>114.6</ele>
        <time>2022-06-05T10:44:26Z</time>
      </trkpt>
      <trkpt lat="48.2360580" lon="8.1675180">
        <ele>114.8</ele>
        <time>2022-06-05T10:44:30Z</time>
      </trkpt>
      <trkpt lat="48.2360980" lon="8.1674260">
        <ele>116.4</ele>
        <time>2022-06-05T10:44:34Z</time>
      </trkpt>
      <trkpt lat="48.2361500" lon="8.1673430">
        <ele>117.4</ele>
        <time>2022-06-05T10:44:38Z</time>
      </trkpt>
      <trkpt lat="48.2362000" lon="8.1672650">
        <ele>118.2</ele>
        <time>2022-06-05T10:44:42Z</time>
      </trkpt>
      <trkpt lat="48.2362360" lon="8.1671580">
        <ele>119.0</ele>
        <time>2022-06-05T10:44:46Z</time>
      </trkpt>
      <trkpt lat="48.2362660" lon="8.1670610">
        <ele>119.4</ele>
        <time>2022-06-05T10:44:50Z</time>
      </trkpt>
      <trkpt lat="48.2362980" lon="8.1669610">
        <ele>120.4</ele>
        <time>2022-06-05T10:44:54Z</time>
      </trkpt>
      <trkpt lat="48.2363010" lon="8.1668550">
        <ele>122.0</ele>
        <time>2022-06-05T10:44:58Z</time>
      </trkpt>
      <trkpt lat="48.2362780" lon="8.1667480">
        <ele>122.6</ele>
        <time>2022-06-05T10:45:02Z</time>
      </trkpt>
      <trkpt lat="48.2362300" lon="8.1666750">
        <ele>123.2</ele>
        <time>2022-06-05T10:45:06Z</time>
      </trkpt>
      <trkpt lat="48.2361630" lon="8.1666310">
        <ele>123.2</ele>
        <time>2022-06-05T10:45:10Z</time>
      </trkpt>
      <trkpt lat="48.2360900" lon="8.1666160">
        <ele>124.0</ele>
        <time>2022-06-05T10:45:14Z</time>
      </trkpt>
      <trkpt lat="48.2360200" lon="8.1666030">
        <ele>124.8</ele>
        <time>2022-06-05T10:45:18Z</time>
      </trkpt>
      <trkpt lat="48.2359480" lon="8.1665850">
        <ele>125.4</ele>
        <time>2022-06-05T10:45:22Z</time>
      </trkpt>
      <trkpt lat="48.2358800" lon="8.1665810">
        <ele>125.4</ele>
        <time>2022-06-05T10:45:26Z</time>
      </trkpt>
      <trkpt lat="48.2358110" lon="8.1665700">
        <ele>126.6</ele>
        <time>2022-06-05T10:45:30Z</time>
      </trkpt>
      <trkpt lat="48.2357430" lon="8.1665680">
        <ele>127.2</ele>
        <time>2022-06-05T10:45:34Z</time>
      </trkpt>
      <trkpt lat="48.2356750" lon="8.1665600">
        <ele>128.0</ele>
        <time>2022-06-05T10:45:38Z</time>
      </trkpt>
      <trkpt lat="48.2356050" lon="8.1665400">
        <ele>128.4</ele>
        <time>2022-06-05T10:45:42Z</time>
      </trkpt>
      <trkpt lat="48.2355350" lon="8.1665280">
        <ele>129.2</ele>
        <time>2022-06-05T10:45:46Z</time>
      </trkpt>
      <trkpt lat="48.2354600" lon="8.1665180">
        <ele>129.4</ele>
        <time>2022-06-05T10:45:50Z</time>
      </trkpt>
      <trkpt lat="48.2353830" lon="8.1665200">
        <ele>129.4</ele>
        <time>2022-06-05T10:45:54Z</time>
      </trkpt>
      <trkpt lat="48.2353010" lon="8.1665310">
        <ele>130.2</ele>
        <time>2022-06-05T10:45:58Z</time>
      </trkpt>
      <trkpt lat="48.2352080" lon="8.1665330">
        <ele>130.0</ele>
        <time>2022-06-05T10:46:02Z</time>
      </trkpt>
      <trkpt lat="48.2351000" lon="8.1665500">
        <ele>130.0</ele>
        <time>2022-06-05T10:46:06Z</time>
      </trkpt>
      <trkpt lat="48.2349660" lon="8.1665760">
        <ele>129.2</ele>
        <time>2022-06-05T10:46:10Z</time>
      </trkpt>
      <trkpt lat="48.2348110" lon="8.1665980">
        <ele>129.2</ele>
        <time>2022-06-05T10:46:14Z</time>
      </trkpt>
      <trkpt lat="48.2346550" lon="8.1666030">
        <ele>128.4</ele>
        <time>2022-06-05T10:46:18Z</time>
      </trkpt>
      <trkpt lat="48.2345310" lon="8.1665950">
        <ele>129.2</ele>
        <time>2022-06-05T10:46:22Z</time>
      </trkpt>
      <trkpt lat="48.2344330" lon="8.1665480">
        <ele>129.2</ele>
        <time>2022-06-05T10:46:26Z</time>
      </trkpt>
      <trkpt lat="48.2343530" lon="8.1665000">
        <ele>130.0</ele>
        <time>2022-06-05T10:46:30Z</time>
      </trkpt>
      <trkpt lat="48.2342780" lon="8.1664210">
        <ele>130.4</ele>
        <time>2022-06-05T10:46:34Z</time>
      </trkpt>
      <trkpt lat="48.2342100" lon="8.1663500">
        <ele>130.8</ele>
        <time>2022-06-05T10:46:38Z</time>
      </trkpt>
      <trkpt lat="48.2341310" lon="8.1662830">
        <ele>131.2</ele>
        <time>2022-06-05T10:46:42Z</time>
      </trkpt>
      <trkpt lat="48.2340530" lon="8.1662150">
        <ele>131.8</ele>
        <time>2022-06-05T10:46:46Z</time>
      </trkpt>
      <trkpt lat="48.2339410" lon="8.1661750">
        <ele>132.8</ele>
        <time>2022-06-05T10:46:50Z</time>
      </trkpt>
      <trkpt lat="48.2338530" lon="8.1662000">
        <ele>132.8</ele>
        <time>2022-06-05T10:46:54Z</time>
      </trkpt>
      <trkpt lat="48.2337800" lon="8.1662610">
        <ele>132.4</ele>
        <time>2022-06-05T10:46:58Z</time>
      </trkpt>
      <trkpt lat="48.2336960" lon="8.1663660">
        <ele>132.0</ele>
        <time>2022-06-05T10:47:02Z</time>
      </trkpt>
      <trkpt lat="48.2335830" lon="8.1665130">
        <ele>131.6</ele>
        <time>2022-06-05T10:47:06Z</time>
      </trkpt>
      <trkpt lat="48.2334330" lon="8.1666780">
        <ele>130.0</ele>
        <time>2022-06-05T10:47:10Z</time>
      </trkpt>
      <trkpt lat="48.2332410" lon="8.1667750">
        <ele>129.8</ele>
        <time>2022-06-05T10:47:14Z</time>
      </trkpt>
      <trkpt lat="48.2330600" lon="8.1668080">
        <ele>129.8</ele>
        <time>2022-06-05T10:47:18Z</time>
      </trkpt>
      <trkpt lat="48.2328930" lon="8.1668060">
        <ele>129.6</ele>
        <time>2022-06-05T10:47:22Z</time>
      </trkpt>
      <trkpt lat="48.2327380" lon="8.1667910">
        <ele>129.2</ele>
        <time>2022-06-05T10:47:26Z</time>
      </trkpt>
      <trkpt lat="48.2325850" lon="8.1667800">
        <ele>129.2</ele>
        <time>2022-06-05T10:47:30Z</time>
      </trkpt>
      <trkpt lat="48.2324180" lon="8.1667730">
        <ele>129.0</ele>
        <time>2022-06-05T10:47:34Z</time>
      </trkpt>
      <trkpt lat="48.2322260" lon="8.1668150">
        <ele>128.4</ele>
        <time>2022-06-05T10:47:38Z</time>
      </trkpt>
      <trkpt lat="48.2320530" lon="8.1668880">
        <ele>128.4</ele>
        <time>2022-06-05T10:47:42Z</time>
      </trkpt>
      <trkpt lat="48.2319160" lon="8.1669200">
        <ele>129.4</ele>
        <time>2022-06-05T10:47:46Z</time>
      </trkpt>
      <trkpt lat="48.2318200" lon="8.1668650">
        <ele>130.4</ele>
        <time>2022-06-05T10:47:50Z</time>
      </trkpt>
      <trkpt lat="48.2317600" lon="8.1667660">
        <ele>131.0</ele>
        <time>2022-06-05T10:47:54Z</time>
      </trkpt>
      <trkpt lat="48.2317150" lon="8.1666610">
        <ele>131.6</ele>
        <time>2022-06-05T10:47:58Z</time>
      </trkpt>
      <trkpt lat="48.2316810" lon="8.1665560">
        <ele>132.2</ele>
        <time>2022-06-05T10:48:02Z</time>
      </trkpt>
      <trkpt lat="48.2316750" lon="8.1664550">
        <ele>133.2</ele>
        <time>2022-06-05T10:48:06Z</time>
      </trkpt>
      <trkpt lat="48.2317130" lon="8.1663310">
        <ele>133.0</ele>
        <time>2022-06-05T10:48:10Z</time>
      </trkpt>
      <trkpt lat="48.2317650" lon="8.1661980">
        <ele>133.6</ele>
        <time>2022-06-05T10:48:14Z</time>
      </trkpt>
      <trkpt lat="48.2318200" lon="8.1660850">
        <ele>133.2</ele>
        <time>2022-06-05T10:48:18Z</time>
      </trkpt>
      <trkpt lat="48.2318830" lon="8.1659660">
        <ele>133.2</ele>
        <time>2022-06-05T10:48:22Z</time>
      </trkpt>
      <trkpt lat="48.2319210" lon="8.1658350">
        <ele>133.0</ele>
        <time>2022-06-05T10:48:26Z</time>
      </trkpt>
      <trkpt lat="48.2319250" lon="8.1657050">
        <ele>134.0</ele>
        <time>2022-06-05T10:48:30Z</time>
      </trkpt>
      <trkpt lat="48.2318730" lon="8.1656230">
        <ele>135.0</ele>
        <time>2022-06-05T10:48:34Z</time>
      </trkpt>
      <trkpt lat="48.2318150" lon="8.1655460">
        <ele>135.2</ele>
        <time>2022-06-05T10:48:38Z</time>
      </trkpt>
      <trkpt lat="48.2317550" lon="8.1654610">
        <ele>135.4</ele>
        <time>2022-06-05T10:48:42Z</time>
      </trkpt>
      <trkpt lat="48.2316900" lon="8.1653960">
        <ele>137.0</ele>
        <time>2022-06-05T10:48:46Z</time>
      </trkpt>
      <trkpt lat="48.2316280" lon="8.1653830">
        <ele>137.8</ele>
        <time>2022-06-05T10:48:50Z</time>
      </trkpt>
      <trkpt lat="48.2316200" lon="8.1654710">
        <ele>138.4</ele>
        <time>2022-06-05T10:48:54Z</time>
      </trkpt>
      <trkpt lat="48.2316230" lon="8.1655610">
        <ele>139.4</ele>
        <time>2022-06-05T10:48:58Z</time>
      </trkpt>
      <trkpt lat="48.2316160" lon="8.1656330">
        <ele>139.8</ele>
        <time>2022-06-05T10:49:02Z</time>
      </trkpt>
      <trkpt lat="48.2315980" lon="8.1657080">
        <ele>140.0</ele>
        <time>2022-06-05T10:49:06Z</time>
      </trkpt>
      <trkpt lat="48.2315630" lon="8.1657630">
        <ele>140.8</ele>
        <time>2022-06-05T10:49:10Z</time>
      </trkpt>
      <trkpt lat="48.2315230" lon="8.1657560">
        <ele>141.6</ele>
        <time>2022-06-05T10:49:14Z</time>
      </trkpt>
      <trkpt lat="48.2314800" lon="8.1657450">
        <ele>142.4</ele>
        <time>2022-06-05T10:49:18Z</time>
      </trkpt>
      <trkpt lat="48.2314400" lon="8.1657280">
        <ele>144.0</ele>
        <time>2022-06-05T10:49:22Z</time>
      </trkpt>
      <trkpt lat="48.2313960" lon="8.1657100">
        <ele>145.0</ele>
        <time>2022-06-05T10:49:26Z</time>
      </trkpt>
      <trkpt lat="48.2313650" lon="8.1656780">
        <ele>146.0</ele>
        <time>2022-06-05T10:49:30Z</time>
      </trkpt>
      <trkpt lat="48.2313250" lon="8.1656510">
        <ele>147.2</ele>
        <time>2022-06-05T10:49:34Z</time>
      </trkpt>
      <trkpt lat="48.2312980" lon="8.1655860">
        <ele>148.4</ele>
        <time>2022-06-05T10:49:38Z</time>
      </trkpt>
      <trkpt lat="48.2312580" lon="8.1655630">
        <ele>149.0</ele>
        <time>2022-06-05T10:49:42Z</time>
      </trkpt>
      <trkpt lat="48.2312430" lon="8.1654930">
        <ele>150.2</ele>
        <time>2022-06-05T10:49:46Z</time>
      </trkpt>
      <trkpt lat="48.2312430" lon="8.1654930">
        <ele>150.8</ele>
        <time>2022-06-05T10:49:50Z</time>
      </trkpt>
      <trkpt lat="48.2312180" lon="8.1654460">
        <ele>150.6</ele>
        <time>2022-06-05T10:49:54Z</time>
      </trkpt>
      <trkpt lat="48.2312180" lon="8.1654460">
        <ele>150.8</ele>
        <time>2022-06-05T10:49:58Z</time>
      </trkpt>
      <trkpt lat="48.2312180" lon="8.1654460">
        <ele>150.8</ele>
        <time>2022-06-05T10:50:02Z</time>
      </trkpt>
      <trkpt lat="48.2312180" lon="8.1654460">
        <ele>151.0</ele>
        <time>2022-06-05T10:50:06Z</time>
      </trkpt>
      <trkpt lat="48.2312080" lon="8.1654360">
        <ele>150.6</ele>
        <time>2022-06-05T10:50:10Z</time>
      </trkpt>
      <trkpt lat="48.2312010" lon="8.1654210">
        <ele>150.8</ele>
        <time>2022-06-05T10:50:14Z</time>
      </trkpt>
      <trkpt lat="48.2311880" lon="8.1653950">
        <ele>151.6</ele>
        <time>2022-06-05T10:50:18Z</time>
      </trkpt>
      <trkpt lat="48.2311780" lon="8.1653680">
        <ele>152.2</ele>
        <time>2022-06-05T10:50:22Z</time>
      </trkpt>
      <trkpt lat="48.2311610" lon="8.1653350">
        <ele>153.0</ele>
        <time>2022-06-05T10:50:26Z</time>
      </trkpt>
      <trkpt lat="48.2311450" lon="8.1652950">
        <ele>153.8</ele>
        <time>2022-06-05T10:50:30Z</time>
      </trkpt>
      <trkpt lat="48.2311310" lon="8.1652650">
        <ele>154.4</ele>
        <time>2022-06-05T10:50:34Z</time>
      </trkpt>
      <trkpt lat="48.2311100" lon="8.1652400">
        <ele>154.8</ele>
        <time>2022-06-05T10:50:38Z</time>
      </trkpt>
      <trkpt lat="48.2310880" lon="8.1652080">
        <ele>155.2</ele>
        <time>2022-06-05T10:50:42Z</time>
      </trkpt>
      <trkpt lat="48.2310700" lon="8.1651750">
        <ele>156.0</ele>
        <time>2022-06-05T10:50:46Z</time>
      </trkpt>
      <trkpt lat="48.2310510" lon="8.1651460">
        <ele>156.8</ele>
        <time>2022-06-05T10:50:50Z</time>
      </trkpt>
      <trkpt lat="48.2310510" lon="8.1651460">
        <ele>156.2</ele>
        <time>2022-06-05T10:50:54Z</time>
      </trkpt>
      <trkpt lat="48.2310380" lon="8.1651180">
        <ele>156.8</ele>
        <time>2022-06-05T10:50:58Z</time>
      </trkpt>
      <trkpt lat="48.2310160" lon="8.1650830">
        <ele>158.2</ele>
        <time>2022-06-05T10:51:02Z</time>
      </trkpt>
      <trkpt lat="48.2309980" lon="8.1650630">
        <ele>158.4</ele>
        <time>2022-06-05T10:51:06Z</time>
      </trkpt>
      <trkpt lat="48.2309830" lon="8.1650350">
        <ele>158.8</ele>
        <time>2022-06-05T10:51:10Z</time>
      </trkpt>
      <trkpt lat="48.2309760" lon="8.1649960">
        <ele>159.6</ele>
        <time>2022-06-05T10:51:14Z</time>
      </trkpt>
      <trkpt lat="48.2309630" lon="8.1649580">
        <ele>160.2</ele>
        <time>2022-06-05T10:51:18Z</time>
      </trkpt>
      <trkpt lat="48.2309410" lon="8.1649350">
        <ele>160.8</ele>
        <time>2022-06-05T10:51:22Z</time>
      </trkpt>
      <trkpt lat="48.2309160" lon="8.1649050">
        <ele>161.4</ele>
        <time>2022-06-05T10:51:26Z</time>
      </trkpt>
      <trkpt lat="48.2308930" lon="8.1648660">
        <ele>162.0</ele>
        <time>2022-06-05T10:51:30Z</time>
      </trkpt>
      <trkpt lat="48.2308700" lon="8.1648250">
        <ele>162.6</ele>
        <time>2022-06-05T10:51:34Z</time>
      </trkpt>
      <trkpt lat="48.2308480" lon="8.1647880">
        <ele>163.4</ele>
        <time>2022-06-05T10:51:38Z</time>
      </trkpt>
      <trkpt lat="48.2308380" lon="8.1647510">
        <ele>163.6</ele>
        <time>2022-06-05T10:51:42Z</time>
      </trkpt>
      <trkpt lat="48.2308380" lon="8.1647510">
        <ele>163.0</ele>
        <time>2022-06-05T10:51:46Z</time>
      </trkpt>
      <trkpt lat="48.2308380" lon="8.1647510">
        <ele>163.4</ele>
        <time>2022-06-05T10:51:50Z</time>
      </trkpt>
      <trkpt lat="48.2308180" lon="8.1647210">
        <ele>163.2</ele>
        <time>2022-06-05T10:51:54Z</time>
      </trkpt>
      <trkpt lat="48.2307930" lon="8.1646930">
        <ele>164.0</ele>
        <time>2022-06-05T10:51:58Z</time>
      </trkpt>
      <trkpt lat="48.2307700" lon="8.1646560">
        <ele>164.6</ele>
        <time>2022-06-05T10:52:02Z</time>
      </trkpt>
      <trkpt lat="48.2307480" lon="8.1646230">
        <ele>165.6</ele>
        <time>2022-06-05T10:52:06Z</time>
      </trkpt>
      <trkpt lat="48.2307280" lon="8.1645800">
        <ele>166.0</ele>
        <time>2022-06-05T10:52:10Z</time>
      </trkpt>
      <trkpt lat="48.2307100" lon="8.1645400">
        <ele>166.0</ele>
        <time>2022-06-05T10:52:14Z</time>
      </trkpt>
      <trkpt lat="48.2306810" lon="8.1645060">
        <ele>166.8</ele>
        <time>2022-06-05T10:52:18Z</time>
      </trkpt>
      <trkpt lat="48.2306530" lon="8.1644750">
        <ele>167.6</ele>
        <time>2022-06-05T10:52:22Z</time>
      </trkpt>
      <trkpt lat="48.2306350" lon="8.1644360">
        <ele>168.6</ele>
        <time>2022-06-05T10:52:26Z</time>
      </trkpt>
      <trkpt lat="48.2306100" lon="8.1644050">
        <ele>169.0</ele>
        <time>2022-06-05T10:52:30Z</time>
      </trkpt>
      <trkpt lat="48.2306100" lon="8.1644050">
        <ele>169.4</ele>
        <time>2022-06-05T10:52:34Z</time>
      </trkpt>
      <trkpt lat="48.2305950" lon="8.1643730">
        <ele>168.8</ele>
        <time>2022-06-05T10:52:38Z</time>
      </trkpt>
      <trkpt lat="48.2305680" lon="8.1643380">
        <ele>169.6</ele>
        <time>2022-06-05T10:52:42Z</time>
      </trkpt>
      <trkpt lat="48.2305430" lon="8.1643030">
        <ele>170.6</ele>
        <time>2022-06-05T10:52:46Z</time>
      </trkpt>
      <trkpt lat="48.2305160" lon="8.1642650">
        <ele>171.2</ele>
        <time>2022-06-05T10:52:50Z</time>
      </trkpt>
      <trkpt lat="48.2304910" lon="8.1642300">
        <ele>171.8</ele>
        <time>2022-06-05T10:52:54Z</time>
      </trkpt>
      <trkpt lat="48.2304650" lon="8.1642010">
        <ele>172.8</ele>
        <time>2022-06-05T10:52:58Z</time>
      </trkpt>
      <trkpt lat="48.2304430" lon="8.1641750">
        <ele>173.4</ele>
        <time>2022-06-05T10:53:02Z</time>
      </trkpt>
      <trkpt lat="48.2304200" lon="8.1641410">
        <ele>174.4</ele>
        <time>2022-06-05T10:53:06Z</time>
      </trkpt>
      <trkpt lat="48.2304000" lon="8.1641130">
        <ele>174.8</ele>
        <time>2022-06-05T10:53:10Z</time>
      </trkpt>
      <trkpt lat="48.2303750" lon="8.1640760">
        <ele>175.2</ele>
        <time>2022-06-05T10:53:14Z</time>
      </trkpt>
      <trkpt lat="48.2303510" lon="8.1640410">
        <ele>176.4</ele>
        <time>2022-06-05T10:53:18Z</time>
      </trkpt>
      <trkpt lat="48.2303280" lon="8.1640080">
        <ele>176.6</ele>
        <time>2022-06-05T10:53:22Z</time>
      </trkpt>
      <trkpt lat="48.2303110" lon="8.1639750">
        <ele>177.4</ele>
        <time>2022-06-05T10:53:26Z</time>
      </trkpt>
      <trkpt lat="48.2302880" lon="8.1639380">
        <ele>178.2</ele>
        <time>2022-06-05T10:53:30Z</time>
      </trkpt>
      <trkpt lat="48.2302630" lon="8.1638830">
        <ele>178.8</ele>
        <time>2022-06-05T10:53:34Z</time>
      </trkpt>
      <trkpt lat="48.2302400" lon="8.1638600">
        <ele>179.6</ele>
        <time>2022-06-05T10:53:38Z</time>
      </trkpt>
      <trkpt lat="48.2302060" lon="8.1638460">
        <ele>179.6</ele>
        <time>2022-06-05T10:53:42Z</time>
      </trkpt>
      <trkpt lat="48.2301710" lon="8.1638180">
        <ele>180.4</ele>
        <time>2022-06-05T10:53:46Z</time>
      </trkpt>
      <trkpt lat="48.2301400" lon="8.1638050">
        <ele>181.0</ele>
        <time>2022-06-05T10:53:50Z</time>
      </trkpt>
      <trkpt lat="48.2301050" lon="8.1637780">
        <ele>181.6</ele>
        <time>2022-06-05T10:53:54Z</time>
      </trkpt>
      <trkpt lat="48.2300650" lon="8.1637430">
        <ele>182.2</ele>
        <time>2022-06-05T10:53:58Z</time>
      </trkpt>
      <trkpt lat="48.2300650" lon="8.1637430">
        <ele>182.2</ele>
        <time>2022-06-05T10:54:02Z</time>
      </trkpt>
      <trkpt lat="48.2300650" lon="8.1637430">
        <ele>182.2</ele>
        <time>2022-06-05T10:54:06Z</time>
      </trkpt>
      <trkpt lat="48.2300650" lon="8.1637430">
        <ele>182.2</ele>
        <time>2022-06-05T10:54:10Z</time>
      </trkpt>
      <trkpt lat="48.2300330" lon="8.1636980">
        <ele>182.2</ele>
        <time>2022-06-05T10:54:14Z</time>
      </trkpt>
      <trkpt lat="48.2300330" lon="8.1636980">
        <ele>182.4</ele>
        <time>2022-06-05T10:54:18Z</time>
      </trkpt>
      <trkpt lat="48.2300330" lon="8.1636980">
        <ele>182.4</ele>
        <time>2022-06-05T10:54:22Z</time>
      </trkpt>
      <trkpt lat="48.2300230" lon="8.1636950">
        <ele>182.2</ele>
        <time>2022-06-05T10:54:26Z</time>
      </trkpt>
      <trkpt lat="48.2299910" lon="8.1636450">
        <ele>183.2</ele>
        <time>2022-06-05T10:54:30Z</time>
      </trkpt>
      <trkpt lat="48.2299410" lon="8.1635900">
        <ele>183.0</ele>
        <time>2022-06-05T10:54:34Z</time>
      </trkpt>
      <trkpt lat="48.2298850" lon="8.1635300">
        <ele>183.2</ele>
        <time>2022-06-05T10:54:38Z</time>
      </trkpt>
      <trkpt lat="48.2298330" lon="8.1634810">
        <ele>183.6</ele>
        <time>2022-06-05T10:54:42Z</time>
      </trkpt>
      <trkpt lat="48.2297810" lon="8.1634030">
        <ele>184.6</ele>
        <time>2022-06-05T10:54:46Z</time>
      </trkpt>
      <trkpt lat="48.2297360" lon="8.1633260">
        <ele>185.8</ele>
        <time>2022-06-05T10:54:50Z</time>
      </trkpt>
      <trkpt lat="48.2296950" lon="8.1632530">
        <ele>187.2</ele>
        <time>2022-06-05T10:54:54Z</time>
      </trkpt>
      <trkpt lat="48.2296560" lon="8.1631750">
        <ele>187.6</ele>
        <time>2022-06-05T10:54:58Z</time>
      </trkpt>
      <trkpt lat="48.2296200" lon="8.1630980">
        <ele>188.0</ele>
        <time>2022-06-05T10:55:02Z</time>
      </trkpt>
      <trkpt lat="48.2295710" lon="8.1630360">
        <ele>188.6</ele>
        <time>2022-06-05T10:55:06Z</time>
      </trkpt>
      <trkpt lat="48.2295310" lon="8.1629630">
        <ele>189.4</ele>
        <time>2022-06-05T10:55:10Z</time>
      </trkpt>
      <trkpt lat="48.2294860" lon="8.1628950">
        <ele>189.8</ele>
        <time>2022-06-05T10:55:14Z</time>
      </trkpt>
      <trkpt lat="48.2294360" lon="8.1628350">
        <ele>190.2</ele>
        <time>2022-06-05T10:55:18Z</time>
      </trkpt>
      <trkpt lat="48.2293960" lon="8.1627660">
        <ele>190.0</ele>
        <time>2022-06-05T10:55:22Z</time>
      </trkpt>
      <trkpt lat="48.2293560" lon="8.1626960">
        <ele>191.4</ele>
        <time>2022-06-05T10:55:26Z</time>
      </trkpt>
      <trkpt lat="48.2293180" lon="8.1626230">
        <ele>191.6</ele>
        <time>2022-06-05T10:55:30Z</time>
      </trkpt>
      <trkpt lat="48.2292910" lon="8.1625310">
        <ele>192.2</ele>
        <time>2022-06-05T10:55:34Z</time>
      </trkpt>
      <trkpt lat="48.2292580" lon="8.1624600">
        <ele>193.0</ele>
        <time>2022-06-05T10:55:38Z</time>
      </trkpt>
      <trkpt lat="48.2292250" lon="8.1623780">
        <ele>193.6</ele>
        <time>2022-06-05T10:55:42Z</time>
      </trkpt>
      <trkpt lat="48.2291850" lon="8.1623080">
        <ele>194.8</ele>
        <time>2022-06-05T10:55:46Z</time>
      </trkpt>
      <trkpt lat="48.2291510" lon="8.1622360">
        <ele>195.6</ele>
        <time>2022-06-05T10:55:50Z</time>
      </trkpt>
      <trkpt lat="48.2291080" lon="8.1621800">
        <ele>196.0</ele>
        <time>2022-06-05T10:55:54Z</time>
      </trkpt>
      <trkpt lat="48.2290710" lon="8.1621100">
        <ele>196.6</ele>
        <time>2022-06-05T10:55:58Z</time>
      </trkpt>
      <trkpt lat="48.2290280" lon="8.1620430">
        <ele>197.2</ele>
        <time>2022-06-05T10:56:02Z</time>
      </trkpt>
      <trkpt lat="48.2289860" lon="8.1619730">
        <ele>197.4</ele>
        <time>2022-06-05T10:56:06Z</time>
      </trkpt>
      <trkpt lat="48.2289560" lon="8.1619060">
        <ele>198.4</ele>
        <time>2022-06-05T10:56:10Z</time>
      </trkpt>
      <trkpt lat="48.2289280" lon="8.1618280">
        <ele>198.8</ele>
        <time>2022-06-05T10:56:14Z</time>
      </trkpt>
      <trkpt lat="48.2289030" lon="8.1617500">
        <ele>199.4</ele>
        <time>2022-06-05T10:56:18Z</time>
      </trkpt>
      <trkpt lat="48.2288780" lon="8.1616680">
        <ele>200.0</ele>
        <time>2022-06-05T10:56:22Z</time>
      </trkpt>
      <trkpt lat="48.2288610" lon="8.1615850">
        <ele>201.2</ele>
        <time>2022-06-05T10:56:26Z</time>
      </trkpt>
      <trkpt lat="48.2288350" lon="8.1615110">
        <ele>201.8</ele>
        <time>2022-06-05T10:56:30Z</time>
      </trkpt>
      <trkpt lat="48.2288180" lon="8.1614330">
        <ele>202.8</ele>
        <time>2022-06-05T10:56:34Z</time>
      </trkpt>
      <trkpt lat="48.2287930" lon="8.1613710">
        <ele>203.4</ele>
        <time>2022-06-05T10:56:38Z</time>
      </trkpt>
      <trkpt lat="48.2287700" lon="8.1613050">
        <ele>204.2</ele>
        <time>2022-06-05T10:56:42Z</time>
      </trkpt>
      <trkpt lat="48.2287450" lon="8.1612350">
        <ele>205.2</ele>
        <time>2022-06-05T10:56:46Z</time>
      </trkpt>
      <trkpt lat="48.2287210" lon="8.1611650">
        <ele>205.6</ele>
        <time>2022-06-05T10:56:50Z</time>
      </trkpt>
      <trkpt lat="48.2287000" lon="8.1610950">
        <ele>206.4</ele>
        <time>2022-06-05T10:56:54Z</time>
      </trkpt>
      <trkpt lat="48.2286680" lon="8.1610360">
        <ele>206.8</ele>
        <time>2022-06-05T10:56:58Z</time>
      </trkpt>
      <trkpt lat="48.2286310" lon="8.1609900">
        <ele>207.4</ele>
        <time>2022-06-05T10:57:02Z</time>
      </trkpt>
      <trkpt lat="48.2286060" lon="8.1609210">
        <ele>207.8</ele>
        <time>2022-06-05T10:57:06Z</time>
      </trkpt>
      <trkpt lat="48.2285900" lon="8.1608510">
        <ele>208.8</ele>
        <time>2022-06-05T10:57:10Z</time>
      </trkpt>
      <trkpt lat="48.2285780" lon="8.1607780">
        <ele>209.4</ele>
        <time>2022-06-05T10:57:14Z</time>
      </trkpt>
      <trkpt lat="48.2285600" lon="8.1607130">
        <ele>209.6</ele>
        <time>2022-06-05T10:57:18Z</time>
      </trkpt>
      <trkpt lat="48.2285400" lon="8.1606430">
        <ele>210.4</ele>
        <time>2022-06-05T10:57:22Z</time>
      </trkpt>
      <trkpt lat="48.2285260" lon="8.1605760">
        <ele>211.2</ele>
        <time>2022-06-05T10:57:26Z</time>
      </trkpt>
      <trkpt lat="48.2285110" lon="8.1605060">
        <ele>212.0</ele>
        <time>2022-06-05T10:57:30Z</time>
      </trkpt>
      <trkpt lat="48.2284930" lon="8.1604400">
        <ele>212.8</ele>
        <time>2022-06-05T10:57:34Z</time>
      </trkpt>
      <trkpt lat="48.2284980" lon="8.1603680">
        <ele>213.2</ele>
        <time>2022-06-05T10:57:38Z</time>
      </trkpt>
      <trkpt lat="48.2284850" lon="8.1603030">
        <ele>213.6</ele>
        <time>2022-06-05T10:57:42Z</time>
      </trkpt>
      <trkpt lat="48.2284600" lon="8.1602530">
        <ele>214.8</ele>
        <time>2022-06-05T10:57:46Z</time>
      </trkpt>
      <trkpt lat="48.2284400" lon="8.1601960">
        <ele>215.8</ele>
        <time>2022-06-05T10:57:50Z</time>
      </trkpt>
      <trkpt lat="48.2284280" lon="8.1601310">
        <ele>216.8</ele>
        <time>2022-06-05T10:57:54Z</time>
      </trkpt>
      <trkpt lat="48.2284080" lon="8.1600660">
        <ele>217.4</ele>
        <time>2022-06-05T10:57:58Z</time>
      </trkpt>
      <trkpt lat="48.2283730" lon="8.1600280">
        <ele>218.0</ele>
        <time>2022-06-05T10:58:02Z</time>
      </trkpt>
      <trkpt lat="48.2283300" lon="8.1599900">
        <ele>218.6</ele>
        <time>2022-06-05T10:58:06Z</time>
      </trkpt>
      <trkpt lat="48.2282930" lon="8.1599400">
        <ele>219.0</ele>
        <time>2022-06-05T10:58:10Z</time>
      </trkpt>
      <trkpt lat="48.2282530" lon="8.1599050">
        <ele>220.6</ele>
        <time>2022-06-05T10:58:14Z</time>
      </trkpt>
      <trkpt lat="48.2282030" lon="8.1598600">
        <ele>221.8</ele>
        <time>2022-06-05T10:58:18Z</time>
      </trkpt>
      <trkpt lat="48.2281800" lon="8.1598000">
        <ele>222.2</ele>
        <time>2022-06-05T10:58:22Z</time>
      </trkpt>
      <trkpt lat="48.2282160" lon="8.1597530">
        <ele>221.6</ele>
        <time>2022-06-05T10:58:26Z</time>
      </trkpt>
      <trkpt lat="48.2282410" lon="8.1597060">
        <ele>221.2</ele>
        <time>2022-06-05T10:58:30Z</time>
      </trkpt>
      <trkpt lat="48.2282300" lon="8.1597310">
        <ele>222.4</ele>
        <time>2022-06-05T10:58:34Z</time>
      </trkpt>
      <trkpt lat="48.2282300" lon="8.1597310">
        <ele>222.6</ele>
        <time>2022-06-05T10:58:38Z</time>
      </trkpt>
      <trkpt lat="48.2282300" lon="8.1597310">
        <ele>221.8</ele>
        <time>2022-06-05T10:58:42Z</time>
      </trkpt>
      <trkpt lat="48.2282300" lon="8.1597310">
        <ele>221.2</ele>
        <time>2022-06-05T10:58:46Z</time>
      </trkpt>
      <trkpt lat="48.2282300" lon="8.1597310">
        <ele>222.4</ele>
        <time>2022-06-05T10:58:50Z</time>
      </trkpt>
      <trkpt lat="48.2282300" lon="8.1597310">
        <ele>222.4</ele>
        <time>2022-06-05T10:58:54Z</time>
      </trkpt>
      <trkpt lat="48.2282300" lon="8.1597310">
        <ele>222.4</ele>
        <time>2022-06-05T10:58:58Z</time>
      </trkpt>
      <trkpt lat="48.2282300" lon="8.1597310">
        <ele>222.4</ele>
        <time>2022-06-05T10:59:02Z</time>
      </trkpt>
      <trkpt lat="48.2282110" lon="8.1597710">
        <ele>222.8</ele>
        <time>2022-06-05T10:59:06Z</time>
      </trkpt>
      <trkpt lat="48.2282110" lon="8.1597710">
        <ele>223.0</ele>
        <time>2022-06-05T10:59:10Z</time>
      </trkpt>
      <trkpt lat="48.2282110" lon="8.1597710">
        <ele>222.8</ele>
        <time>2022-06-05T10:59:14Z</time>
      </trkpt>
      <trkpt lat="48.2282110" lon="8.1597710">
        <ele>222.4</ele>
        <time>2022-06-05T10:59:18Z</time>
      </trkpt>
      <trkpt lat="48.2282110" lon="8.1597710">
        <ele>222.4</ele>
        <time>2022-06-05T10:59:22Z</time>
      </trkpt>
      <trkpt lat="48.2282110" lon="8.1597710">
        <ele>223.0</ele>
        <time>2022-06-05T10:59:26Z</time>
      </trkpt>
      <trkpt lat="48.2282110" lon="8.1597710">
        <ele>222.2</ele>
        <time>2022-06-05T10:59:30Z</time>
      </trkpt>
      <trkpt lat="48.2282100" lon="8.1597830">
        <ele>221.8</ele>
        <time>2022-06-05T10:59:34Z</time>
      </trkpt>
      <trkpt lat="48.2281530" lon="8.1597900">
        <ele>221.6</ele>
        <time>2022-06-05T10:59:38Z</time>
      </trkpt>
      <trkpt lat="48.2280880" lon="8.1598560">
        <ele>223.4</ele>
        <time>2022-06-05T10:59:42Z</time>
      </trkpt>
      <trkpt lat="48.2280280" lon="8.1599210">
        <ele>221.6</ele>
        <time>2022-06-05T10:59:46Z</time>
      </trkpt>
      <trkpt lat="48.2279860" lon="8.1599760">
        <ele>221.4</ele>
        <time>2022-06-05T10:59:50Z</time>
      </trkpt>
      <trkpt lat="48.2279400" lon="8.1601150">
        <ele>222.6</ele>
        <time>2022-06-05T10:59:54Z</time>
      </trkpt>
      <trkpt lat="48.2279180" lon="8.1602480">
        <ele>223.2</ele>
        <time>2022-06-05T10:59:58Z</time>
      </trkpt>
      <trkpt lat="48.2278910" lon="8.1603600">
        <ele>223.0</ele>
        <time>2022-06-05T11:00:02Z</time>
      </trkpt>
      <trkpt lat="48.2278380" lon="8.1604450">
        <ele>223.8</ele>
        <time>2022-06-05T11:00:06Z</time>
      </trkpt>
      <trkpt lat="48.2277860" lon="8.1605130">
        <ele>224.0</ele>
        <time>2022-06-05T11:00:10Z</time>
      </trkpt>
      <trkpt lat="48.2277280" lon="8.1605800">
        <ele>223.6</ele>
        <time>2022-06-05T11:00:14Z</time>
      </trkpt>
      <trkpt lat="48.2276610" lon="8.1606700">
        <ele>224.0</ele>
        <time>2022-06-05T11:00:18Z</time>
      </trkpt>
      <trkpt lat="48.2275960" lon="8.1607660">
        <ele>224.0</ele>
        <time>2022-06-05T11:00:22Z</time>
      </trkpt>
      <trkpt lat="48.2275310" lon="8.1608600">
        <ele>224.0</ele>
        <time>2022-06-05T11:00:26Z</time>
      </trkpt>
      <trkpt lat="48.2274630" lon="8.1609410">
        <ele>224.2</ele>
        <time>2022-06-05T11:00:30Z</time>
      </trkpt>
      <trkpt lat="48.2273910" lon="8.1610200">
        <ele>224.4</ele>
        <time>2022-06-05T11:00:34Z</time>
      </trkpt>
      <trkpt lat="48.2273100" lon="8.1610750">
        <ele>224.8</ele>
        <time>2022-06-05T11:00:38Z</time>
      </trkpt>
      <trkpt lat="48.2272230" lon="8.1611110">
        <ele>225.0</ele>
        <time>2022-06-05T11:00:42Z</time>
      </trkpt>
      <trkpt lat="48.2271310" lon="8.1611110">
        <ele>225.2</ele>
        <time>2022-06-05T11:00:46Z</time>
      </trkpt>
      <trkpt lat="48.2270430" lon="8.1610960">
        <ele>226.4</ele>
        <time>2022-06-05T11:00:50Z</time>
      </trkpt>
      <trkpt lat="48.2269680" lon="8.1610930">
        <ele>226.8</ele>
        <time>2022-06-05T11:00:54Z</time>
      </trkpt>
      <trkpt lat="48.2268880" lon="8.1610710">
        <ele>226.4</ele>
        <time>2022-06-05T11:00:58Z</time>
      </trkpt>
      <trkpt lat="48.2268030" lon="8.1610350">
        <ele>227.0</ele>
        <time>2022-06-05T11:01:02Z</time>
      </trkpt>
      <trkpt lat="48.2267210" lon="8.1610060">
        <ele>227.2</ele>
        <time>2022-06-05T11:01:06Z</time>
      </trkpt>
      <trkpt lat="48.2266300" lon="8.1609630">
        <ele>227.2</ele>
        <time>2022-06-05T11:01:10Z</time>
      </trkpt>
      <trkpt lat="48.2265330" lon="8.1609260">
        <ele>227.4</ele>
        <time>2022-06-05T11:01:14Z</time>
      </trkpt>
      <trkpt lat="48.2264460" lon="8.1608930">
        <ele>227.8</ele>
        <time>2022-06-05T11:01:18Z</time>
      </trkpt>
      <trkpt lat="48.2263650" lon="8.1608380">
        <ele>228.0</ele>
        <time>2022-06-05T11:01:22Z</time>
      </trkpt>
      <trkpt lat="48.2263080" lon="8.1607630">
        <ele>228.4</ele>
        <time>2022-06-05T11:01:26Z</time>
      </trkpt>
      <trkpt lat="48.2262330" lon="8.1606200">
        <ele>228.8</ele>
        <time>2022-06-05T11:01:30Z</time>
      </trkpt>
      <trkpt lat="48.2261960" lon="8.1604700">
        <ele>229.6</ele>
        <time>2022-06-05T11:01:34Z</time>
      </trkpt>
      <trkpt lat="48.2261730" lon="8.1603410">
        <ele>230.0</ele>
        <time>2022-06-05T11:01:38Z</time>
      </trkpt>
      <trkpt lat="48.2261400" lon="8.1602250">
        <ele>230.4</ele>
        <time>2022-06-05T11:01:42Z</time>
      </trkpt>
      <trkpt lat="48.2260830" lon="8.1600910">
        <ele>231.6</ele>
        <time>2022-06-05T11:01:46Z</time>
      </trkpt>
      <trkpt lat="48.2260100" lon="8.1599850">
        <ele>231.0</ele>
        <time>2022-06-05T11:01:50Z</time>
      </trkpt>
      <trkpt lat="48.2259310" lon="8.1598900">
        <ele>231.4</ele>
        <time>2022-06-05T11:01:54Z</time>
      </trkpt>
      <trkpt lat="48.2258510" lon="8.1597760">
        <ele>232.0</ele>
        <time>2022-06-05T11:01:58Z</time>
      </trkpt>
      <trkpt lat="48.2257600" lon="8.1596730">
        <ele>232.0</ele>
        <time>2022-06-05T11:02:02Z</time>
      </trkpt>
      <trkpt lat="48.2256710" lon="8.1595800">
        <ele>232.0</ele>
        <time>2022-06-05T11:02:06Z</time>
      </trkpt>
      <trkpt lat="48.2255900" lon="8.1594700">
        <ele>232.8</ele>
        <time>2022-06-05T11:02:10Z</time>
      </trkpt>
      <trkpt lat="48.2255100" lon="8.1593650">
        <ele>233.2</ele>
        <time>2022-06-05T11:02:14Z</time>
      </trkpt>
      <trkpt lat="48.2254350" lon="8.1592730">
        <ele>234.2</ele>
        <time>2022-06-05T11:02:18Z</time>
      </trkpt>
      <trkpt lat="48.2253560" lon="8.1591810">
        <ele>234.4</ele>
        <time>2022-06-05T11:02:22Z</time>
      </trkpt>
      <trkpt lat="48.2252800" lon="8.1591130">
        <ele>234.4</ele>
        <time>2022-06-05T11:02:26Z</time>
      </trkpt>
      <trkpt lat="48.2251960" lon="8.1590450">
        <ele>235.0</ele>
        <time>2022-06-05T11:02:30Z</time>
      </trkpt>
      <trkpt lat="48.2251130" lon="8.1590110">
        <ele>235.0</ele>
        <time>2022-06-05T11:02:34Z</time>
      </trkpt>
      <trkpt lat="48.2250300" lon="8.1589860">
        <ele>236.0</ele>
        <time>2022-06-05T11:02:38Z</time>
      </trkpt>
      <trkpt lat="48.2249380" lon="8.1589560">
        <ele>236.8</ele>
        <time>2022-06-05T11:02:42Z</time>
      </trkpt>
      <trkpt lat="48.2248660" lon="8.1589750">
        <ele>237.0</ele>
        <time>2022-06-05T11:02:46Z</time>
      </trkpt>
      <trkpt lat="48.2247760" lon="8.1589400">
        <ele>237.2</ele>
        <time>2022-06-05T11:02:50Z</time>
      </trkpt>
      <trkpt lat="48.2246580" lon="8.1588660">
        <ele>237.6</ele>
        <time>2022-06-05T11:02:54Z</time>
      </trkpt>
      <trkpt lat="48.2245980" lon="8.1589030">
        <ele>237.8</ele>
        <time>2022-06-05T11:02:58Z</time>
      </trkpt>
      <trkpt lat="48.2245300" lon="8.1588900">
        <ele>238.8</ele>
        <time>2022-06-05T11:03:02Z</time>
      </trkpt>
      <trkpt lat="48.2244610" lon="8.1589250">
        <ele>238.6</ele>
        <time>2022-06-05T11:03:06Z</time>
      </trkpt>
      <trkpt lat="48.2243880" lon="8.1589760">
        <ele>240.0</ele>
        <time>2022-06-05T11:03:10Z</time>
      </trkpt>
      <trkpt lat="48.2243330" lon="8.1590260">
        <ele>240.4</ele>
        <time>2022-06-05T11:03:14Z</time>
      </trkpt>
      <trkpt lat="48.2242860" lon="8.1590760">
        <ele>240.8</ele>
        <time>2022-06-05T11:03:18Z</time>
      </trkpt>
      <trkpt lat="48.2242010" lon="8.1591450">
        <ele>241.0</ele>
        <time>2022-06-05T11:03:22Z</time>
      </trkpt>
      <trkpt lat="48.2240950" lon="8.1592110">
        <ele>240.8</ele>
        <time>2022-06-05T11:03:26Z</time>
      </trkpt>
      <trkpt lat="48.2240030" lon="8.1593380">
        <ele>241.2</ele>
        <time>2022-06-05T11:03:30Z</time>
      </trkpt>
      <trkpt lat="48.2239280" lon="8.1594200">
        <ele>242.0</ele>
        <time>2022-06-05T11:03:34Z</time>
      </trkpt>
      <trkpt lat="48.2238550" lon="8.1594960">
        <ele>242.0</ele>
        <time>2022-06-05T11:03:38Z</time>
      </trkpt>
      <trkpt lat="48.2238230" lon="8.1595300">
        <ele>242.6</ele>
        <time>2022-06-05T11:03:42Z</time>
      </trkpt>
      <trkpt lat="48.2237480" lon="8.1596210">
        <ele>243.2</ele>
        <time>2022-06-05T11:03:46Z</time>
      </trkpt>
      <trkpt lat="48.2236900" lon="8.1596950">
        <ele>243.6</ele>
        <time>2022-06-05T11:03:50Z</time>
      </trkpt>
      <trkpt lat="48.2235880" lon="8.1597060">
        <ele>243.6</ele>
        <time>2022-06-05T11:03:54Z</time>
      </trkpt>
      <trkpt lat="48.2234710" lon="8.1597210">
        <ele>244.0</ele>
        <time>2022-06-05T11:03:58Z</time>
      </trkpt>
      <trkpt lat="48.2233650" lon="8.1597030">
        <ele>245.0</ele>
        <time>2022-06-05T11:04:02Z</time>
      </trkpt>
      <trkpt lat="48.2232880" lon="8.1597100">
        <ele>245.0</ele>
        <time>2022-06-05T11:04:06Z</time>
      </trkpt>
      <trkpt lat="48.2231960" lon="8.1597430">
        <ele>245.8</ele>
        <time>2022-06-05T11:04:10Z</time>
      </trkpt>
      <trkpt lat="48.2231280" lon="8.1597380">
        <ele>246.4</ele>
        <time>2022-06-05T11:04:14Z</time>
      </trkpt>
      <trkpt lat="48.2230650" lon="8.1597280">
        <ele>246.6</ele>
        <time>2022-06-05T11:04:18Z</time>
      </trkpt>
      <trkpt lat="48.2229730" lon="8.1597180">
        <ele>247.4</ele>
        <time>2022-06-05T11:04:22Z</time>
      </trkpt>
      <trkpt lat="48.2228210" lon="8.1596600">
        <ele>248.2</ele>
        <time>2022-06-05T11:04:26Z</time>
      </trkpt>
      <trkpt lat="48.2227610" lon="8.1596110">
        <ele>248.2</ele>
        <time>2022-06-05T11:04:30Z</time>
      </trkpt>
      <trkpt lat="48.2227350" lon="8.1595380">
        <ele>249.0</ele>
        <time>2022-06-05T11:04:34Z</time>
      </trkpt>
      <trkpt lat="48.2227250" lon="8.1593600">
        <ele>249.0</ele>
        <time>2022-06-05T11:04:38Z</time>
      </trkpt>
      <trkpt lat="48.2227350" lon="8.1592480">
        <ele>249.6</ele>
        <time>2022-06-05T11:04:42Z</time>
      </trkpt>
      <trkpt lat="48.2227460" lon="8.1591560">
        <ele>250.2</ele>
        <time>2022-06-05T11:04:46Z</time>
      </trkpt>
      <trkpt lat="48.2227700" lon="8.1590200">
        <ele>250.6</ele>
        <time>2022-06-05T11:04:50Z</time>
      </trkpt>
      <trkpt lat="48.2227950" lon="8.1589010">
        <ele>250.6</ele>
        <time>2022-06-05T11:04:54Z</time>
      </trkpt>
      <trkpt lat="48.2228310" lon="8.1587980">
        <ele>250.6</ele>
        <time>2022-06-05T11:04:58Z</time>
      </trkpt>
      <trkpt lat="48.2228580" lon="8.1587000">
        <ele>251.0</ele>
        <time>2022-06-05T11:05:02Z</time>
      </trkpt>
      <trkpt lat="48.2229130" lon="8.1585910">
        <ele>251.2</ele>
        <time>2022-06-05T11:05:06Z</time>
      </trkpt>
      <trkpt lat="48.2229210" lon="8.1584460">
        <ele>251.2</ele>
        <time>2022-06-05T11:05:10Z</time>
      </trkpt>
      <trkpt lat="48.2229450" lon="8.1583350">
        <ele>251.8</ele>
        <time>2022-06-05T11:05:14Z</time>
      </trkpt>
      <trkpt lat="48.2229860" lon="8.1582410">
        <ele>252.2</ele>
        <time>2022-06-05T11:05:18Z</time>
      </trkpt>
      <trkpt lat="48.2230060" lon="8.1581330">
        <ele>252.0</ele>
        <time>2022-06-05T11:05:22Z</time>
      </trkpt>
      <trkpt lat="48.2230210" lon="8.1580780">
        <ele>252.6</ele>
        <time>2022-06-05T11:05:26Z</time>
      </trkpt>
      <trkpt lat="48.2230480" lon="8.1579900">
        <ele>252.8</ele>
        <time>2022-06-05T11:05:30Z</time>
      </trkpt>
      <trkpt lat="48.2230610" lon="8.1578480">
        <ele>252.6</ele>
        <time>2022-06-05T11:05:34Z</time>
      </trkpt>
      <trkpt lat="48.2230660" lon="8.1576780">
        <ele>252.6</ele>
        <time>2022-06-05T11:05:38Z</time>
      </trkpt>
      <trkpt lat="48.2230900" lon="8.1575260">
        <ele>253.6</ele>
        <time>2022-06-05T11:05:42Z</time>
      </trkpt>
      <trkpt lat="48.2230910" lon="8.1573700">
        <ele>253.6</ele>
        <time>2022-06-05T11:05:46Z</time>
      </trkpt>
      <trkpt lat="48.2231060" lon="8.1572530">
        <ele>253.4</ele>
        <time>2022-06-05T11:05:50Z</time>
      </trkpt>
      <trkpt lat="48.2231510" lon="8.1570950">
        <ele>254.2</ele>
        <time>2022-06-05T11:05:54Z</time>
      </trkpt>
      <trkpt lat="48.2231760" lon="8.1569560">
        <ele>254.8</ele>
        <time>2022-06-05T11:05:58Z</time>
      </trkpt>
      <trkpt lat="48.2232010" lon="8.1568060">
        <ele>254.4</ele>
        <time>2022-06-05T11:06:02Z</time>
      </trkpt>
      <trkpt lat="48.2232160" lon="8.1566880">
        <ele>255.0</ele>
        <time>2022-06-05T11:06:06Z</time>
      </trkpt>
      <trkpt lat="48.2232450" lon="8.1565450">
        <ele>255.6</ele>
        <time>2022-06-05T11:06:10Z</time>
      </trkpt>
      <trkpt lat="48.2232630" lon="8.1564100">
        <ele>256.2</ele>
        <time>2022-06-05T11:06:14Z</time>
      </trkpt>
      <trkpt lat="48.2232780" lon="8.1562800">
        <ele>256.4</ele>
        <time>2022-06-05T11:06:18Z</time>
      </trkpt>
      <trkpt lat="48.2233080" lon="8.1561600">
        <ele>256.8</ele>
        <time>2022-06-05T11:06:22Z</time>
      </trkpt>
      <trkpt lat="48.2233230" lon="8.1560000">
        <ele>257.0</ele>
        <time>2022-06-05T11:06:26Z</time>
      </trkpt>
      <trkpt lat="48.2233580" lon="8.1558110">
        <ele>258.0</ele>
        <time>2022-06-05T11:06:30Z</time>
      </trkpt>
      <trkpt lat="48.2233960" lon="8.1556710">
        <ele>258.0</ele>
        <time>2022-06-05T11:06:34Z</time>
      </trkpt>
      <trkpt lat="48.2233660" lon="8.1555260">
        <ele>258.6</ele>
        <time>2022-06-05T11:06:38Z</time>
      </trkpt>
      <trkpt lat="48.2233050" lon="8.1554350">
        <ele>258.6</ele>
        <time>2022-06-05T11:06:42Z</time>
      </trkpt>
      <trkpt lat="48.2232200" lon="8.1553900">
        <ele>258.8</ele>
        <time>2022-06-05T11:06:46Z</time>
      </trkpt>
      <trkpt lat="48.2231380" lon="8.1553780">
        <ele>260.0</ele>
        <time>2022-06-05T11:06:50Z</time>
      </trkpt>
      <trkpt lat="48.2230500" lon="8.1553730">
        <ele>259.2</ele>
        <time>2022-06-05T11:06:54Z</time>
      </trkpt>
      <trkpt lat="48.2229860" lon="8.1553960">
        <ele>259.4</ele>
        <time>2022-06-05T11:06:58Z</time>
      </trkpt>
      <trkpt lat="48.2229200" lon="8.1553980">
        <ele>260.0</ele>
        <time>2022-06-05T11:07:02Z</time>
      </trkpt>
      <trkpt lat="48.2228350" lon="8.1554150">
        <ele>259.6</ele>
        <time>2022-06-05T11:07:06Z</time>
      </trkpt>
      <trkpt lat="48.2227430" lon="8.1554380">
        <ele>260.6</ele>
        <time>2022-06-05T11:07:10Z</time>
      </trkpt>
      <trkpt lat="48.2226610" lon="8.1554680">
        <ele>260.6</ele>
        <time>2022-06-05T11:07:14Z</time>
      </trkpt>
      <trkpt lat="48.2225530" lon="8.1554930">
        <ele>260.6</ele>
        <time>2022-06-05T11:07:18Z</time>
      </trkpt>
      <trkpt lat="48.2224710" lon="8.1555330">
        <ele>261.6</ele>
        <time>2022-06-05T11:07:22Z</time>
      </trkpt>
      <trkpt lat="48.2223830" lon="8.1555760">
        <ele>261.6</ele>
        <time>2022-06-05T11:07:26Z</time>
      </trkpt>
      <trkpt lat="48.2222750" lon="8.1556130">
        <ele>261.4</ele>
        <time>2022-06-05T11:07:30Z</time>
      </trkpt>
      <trkpt lat="48.2221660" lon="8.1556410">
        <ele>262.0</ele>
        <time>2022-06-05T11:07:34Z</time>
      </trkpt>
      <trkpt lat="48.2220800" lon="8.1556760">
        <ele>262.0</ele>
        <time>2022-06-05T11:07:38Z</time>
      </trkpt>
      <trkpt lat="48.2219780" lon="8.1557330">
        <ele>262.8</ele>
        <time>2022-06-05T11:07:42Z</time>
      </trkpt>
      <trkpt lat="48.2218950" lon="8.1557610">
        <ele>262.8</ele>
        <time>2022-06-05T11:07:46Z</time>
      </trkpt>
      <trkpt lat="48.2218060" lon="8.1557960">
        <ele>263.0</ele>
        <time>2022-06-05T11:07:50Z</time>
      </trkpt>
      <trkpt lat="48.2217130" lon="8.1558510">
        <ele>263.8</ele>
        <time>2022-06-05T11:07:54Z</time>
      </trkpt>
      <trkpt lat="48.2216130" lon="8.1558830">
        <ele>263.8</ele>
        <time>2022-06-05T11:07:58Z</time>
      </trkpt>
      <trkpt lat="48.2215380" lon="8.1559310">
        <ele>264.4</ele>
        <time>2022-06-05T11:08:02Z</time>
      </trkpt>
      <trkpt lat="48.2214260" lon="8.1559850">
        <ele>264.8</ele>
        <time>2022-06-05T11:08:06Z</time>
      </trkpt>
      <trkpt lat="48.2213430" lon="8.1560110">
        <ele>265.2</ele>
        <time>2022-06-05T11:08:10Z</time>
      </trkpt>
      <trkpt lat="48.2212950" lon="8.1560310">
        <ele>266.0</ele>
        <time>2022-06-05T11:08:14Z</time>
      </trkpt>
      <trkpt lat="48.2212200" lon="8.1560600">
        <ele>266.4</ele>
        <time>2022-06-05T11:08:18Z</time>
      </trkpt>
      <trkpt lat="48.2211460" lon="8.1561000">
        <ele>266.8</ele>
        <time>2022-06-05T11:08:22Z</time>
      </trkpt>
      <trkpt lat="48.2210460" lon="8.1561160">
        <ele>267.2</ele>
        <time>2022-06-05T11:08:26Z</time>
      </trkpt>
      <trkpt lat="48.2209200" lon="8.1561400">
        <ele>268.0</ele>
        <time>2022-06-05T11:08:30Z</time>
      </trkpt>
      <trkpt lat="48.2208030" lon="8.1561680">
        <ele>268.2</ele>
        <time>2022-06-05T11:08:34Z</time>
      </trkpt>
      <trkpt lat="48.2207030" lon="8.1561850">
        <ele>268.0</ele>
        <time>2022-06-05T11:08:38Z</time>
      </trkpt>
      <trkpt lat="48.2206110" lon="8.1561930">
        <ele>269.4</ele>
        <time>2022-06-05T11:08:42Z</time>
      </trkpt>
      <trkpt lat="48.2205510" lon="8.1561810">
        <ele>269.4</ele>
        <time>2022-06-05T11:08:46Z</time>
      </trkpt>
      <trkpt lat="48.2204650" lon="8.1561200">
        <ele>270.2</ele>
        <time>2022-06-05T11:08:50Z</time>
      </trkpt>
      <trkpt lat="48.2203850" lon="8.1560180">
        <ele>270.2</ele>
        <time>2022-06-05T11:08:54Z</time>
      </trkpt>
      <trkpt lat="48.2203130" lon="8.1559050">
        <ele>271.0</ele>
        <time>2022-06-05T11:08:58Z</time>
      </trkpt>
      <trkpt lat="48.2202480" lon="8.1557960">
        <ele>271.4</ele>
        <time>2022-06-05T11:09:02Z</time>
      </trkpt>
      <trkpt lat="48.2202310" lon="8.1557030">
        <ele>271.4</ele>
        <time>2022-06-05T11:09:06Z</time>
      </trkpt>
      <trkpt lat="48.2202150" lon="8.1555800">
        <ele>271.8</ele>
        <time>2022-06-05T11:09:10Z</time>
      </trkpt>
      <trkpt lat="48.2201800" lon="8.1554530">
        <ele>272.4</ele>
        <time>2022-06-05T11:09:14Z</time>
      </trkpt>
      <trkpt lat="48.2201610" lon="8.1553500">
        <ele>272.4</ele>
        <time>2022-06-05T11:09:18Z</time>
      </trkpt>
      <trkpt lat="48.2201610" lon="8.1553500">
        <ele>272.0</ele>
        <time>2022-06-05T11:09:22Z</time>
      </trkpt>
      <trkpt lat="48.2201610" lon="8.1553500">
        <ele>272.4</ele>
        <time>2022-06-05T11:09:26Z</time>
      </trkpt>
      <trkpt lat="48.2201350" lon="8.1552400">
        <ele>272.4</ele>
        <time>2022-06-05T11:09:30Z</time>
      </trkpt>
      <trkpt lat="48.2201350" lon="8.1552400">
        <ele>272.4</ele>
        <time>2022-06-05T11:09:34Z</time>
      </trkpt>
      <trkpt lat="48.2201350" lon="8.1552400">
        <ele>272.2</ele>
        <time>2022-06-05T11:09:38Z</time>
      </trkpt>
      <trkpt lat="48.2201350" lon="8.1552400">
        <ele>272.4</ele>
        <time>2022-06-05T11:09:42Z</time>
      </trkpt>
      <trkpt lat="48.2201350" lon="8.1552400">
        <ele>272.4</ele>
        <time>2022-06-05T11:09:46Z</time>
      </trkpt>
      <trkpt lat="48.2201350" lon="8.1552400">
        <ele>272.8</ele>
        <time>2022-06-05T11:09:50Z</time>
      </trkpt>
      <trkpt lat="48.2201350" lon="8.1552400">
        <ele>272.4</ele>
        <time>2022-06-05T11:09:54Z</time>
      </trkpt>
      <trkpt lat="48.2201350" lon="8.1552400">
        <ele>272.0</ele>
        <time>2022-06-05T11:09:58Z</time>
      </trkpt>
      <trkpt lat="48.2201350" lon="8.1552400">
        <ele>272.4</ele>
        <time>2022-06-05T11:10:02Z</time>
      </trkpt>
      <trkpt lat="48.2201350" lon="8.1552400">
        <ele>272.8</ele>
        <time>2022-06-05T11:10:06Z</time>
      </trkpt>
      <trkpt lat="48.2201350" lon="8.1552400">
        <ele>272.4</ele>
        <time>2022-06-05T11:10:10Z</time>
      </trkpt>
      <trkpt lat="48.2201350" lon="8.1552400">
        <ele>272.6</ele>
        <time>2022-06-05T11:10:14Z</time>
      </trkpt>
      <trkpt lat="48.2201350" lon="8.1552400">
        <ele>272.4</ele>
        <time>2022-06-05T11:10:18Z</time>
      </trkpt>
      <trkpt lat="48.2201350" lon="8.1552400">
        <ele>272.2</ele>
        <time>2022-06-05T11:10:22Z</time>
      </trkpt>
      <trkpt lat="48.2201350" lon="8.1552400">
        <ele>272.2</ele>
        <time>2022-06-05T11:10:26Z</time>
      </trkpt>
      <trkpt lat="48.2201350" lon="8.1552400">
        <ele>272.0</ele>
        <time>2022-06-05T11:10:30Z</time>
      </trkpt>
      <trkpt lat="48.2201010" lon="8.1551060">
        <ele>272.0</ele>
        <time>2022-06-05T11:10:34Z</time>
      </trkpt>
      <trkpt lat="48.2201410" lon="8.1551630">
        <ele>272.4</ele>
        <time>2022-06-05T11:10:38Z</time>
      </trkpt>
      <trkpt lat="48.2201410" lon="8.1551630">
        <ele>272.0</ele>
        <time>2022-06-05T11:10:42Z</time>
      </trkpt>
      <trkpt lat="48.2201410" lon="8.1551630">
        <ele>271.8</ele>
        <time>2022-06-05T11:10:46Z</time>
      </trkpt>
      <trkpt lat="48.2201410" lon="8.1551630">
        <ele>272.2</ele>
        <time>2022-06-05T11:10:50Z</time>
      </trkpt>
      <trkpt lat="48.2201410" lon="8.1551630">
        <ele>271.8</ele>
        <time>2022-06-05T11:10:54Z</time>
      </trkpt>
      <trkpt lat="48.2201410" lon="8.1551630">
        <ele>272.0</ele>
        <time>2022-06-05T11:10:58Z</time>
      </trkpt>
      <trkpt lat="48.2201410" lon="8.1551630">
        <ele>271.8</ele>
        <time>2022-06-05T11:11:02Z</time>
      </trkpt>
      <trkpt lat="48.2201410" lon="8.1551630">
        <ele>272.0</ele>
        <time>2022-06-05T11:11:06Z</time>
      </trkpt>
      <trkpt lat="48.2201410" lon="8.1551630">
        <ele>272.2</ele>
        <time>2022-06-05T11:11:10Z</time>
      </trkpt>
      <trkpt lat="48.2201410" lon="8.1551630">
        <ele>272.0</ele>
        <time>2022-06-05T11:11:14Z</time>
      </trkpt>
      <trkpt lat="48.2201910" lon="8.1551210">
        <ele>272.0</ele>
        <time>2022-06-05T11:11:18Z</time>
      </trkpt>
      <trkpt lat="48.2201910" lon="8.1551210">
        <ele>272.6</ele>
        <time>2022-06-05T11:11:22Z</time>
      </trkpt>
      <trkpt lat="48.2201910" lon="8.1551210">
        <ele>272.4</ele>
        <time>2022-06-05T11:11:26Z</time>
      </trkpt>
      <trkpt lat="48.2201910" lon="8.1551210">
        <ele>272.0</ele>
        <time>2022-06-05T11:11:30Z</time>
      </trkpt>
      <trkpt lat="48.2201910" lon="8.1551210">
        <ele>271.6</ele>
        <time>2022-06-05T11:11:34Z</time>
      </trkpt>
      <trkpt lat="48.2202100" lon="8.1551110">
        <ele>271.8</ele>
        <time>2022-06-05T11:11:38Z</time>
      </trkpt>
      <trkpt lat="48.2202100" lon="8.1551110">
        <ele>272.2</ele>
        <time>2022-06-05T11:11:42Z</time>
      </trkpt>
      <trkpt lat="48.2201600" lon="8.1551000">
        <ele>272.2</ele>
        <time>2022-06-05T11:11:46Z</time>
      </trkpt>
      <trkpt lat="48.2201480" lon="8.1550450">
        <ele>272.4</ele>
        <time>2022-06-05T11:11:50Z</time>
      </trkpt>
      <trkpt lat="48.2201560" lon="8.1549750">
        <ele>272.8</ele>
        <time>2022-06-05T11:11:54Z</time>
      </trkpt>
      <trkpt lat="48.2201280" lon="8.1548760">
        <ele>273.4</ele>
        <time>2022-06-05T11:11:58Z</time>
      </trkpt>
      <trkpt lat="48.2201200" lon="8.1547660">
        <ele>273.2</ele>
        <time>2022-06-05T11:12:02Z</time>
      </trkpt>
      <trkpt lat="48.2201180" lon="8.1546510">
        <ele>273.8</ele>
        <time>2022-06-05T11:12:06Z</time>
      </trkpt>
      <trkpt lat="48.2201210" lon="8.1545130">
        <ele>274.0</ele>
        <time>2022-06-05T11:12:10Z</time>
      </trkpt>
      <trkpt lat="48.2201150" lon="8.1543900">
        <ele>274.4</ele>
        <time>2022-06-05T11:12:14Z</time>
      </trkpt>
      <trkpt lat="48.2201030" lon="8.1542860">
        <ele>275.0</ele>
        <time>2022-06-05T11:12:18Z</time>
      </trkpt>
      <trkpt lat="48.2200550" lon="8.1541480">
        <ele>275.0</ele>
        <time>2022-06-05T11:12:22Z</time>
      </trkpt>
      <trkpt lat="48.2199980" lon="8.1540150">
        <ele>275.2</ele>
        <time>2022-06-05T11:12:26Z</time>
      </trkpt>
      <trkpt lat="48.2199460" lon="8.1539130">
        <ele>275.6</ele>
        <time>2022-06-05T11:12:30Z</time>
      </trkpt>
      <trkpt lat="48.2198710" lon="8.1538560">
        <ele>276.0</ele>
        <time>2022-06-05T11:12:34Z</time>
      </trkpt>
      <trkpt lat="48.2198060" lon="8.1537880">
        <ele>276.4</ele>
        <time>2022-06-05T11:12:38Z</time>
      </trkpt>
      <trkpt lat="48.2197350" lon="8.1537130">
        <ele>276.2</ele>
        <time>2022-06-05T11:12:42Z</time>
      </trkpt>
      <trkpt lat="48.2196700" lon="8.1536730">
        <ele>277.0</ele>
        <time>2022-06-05T11:12:46Z</time>
      </trkpt>
      <trkpt lat="48.2195830" lon="8.1536010">
        <ele>277.4</ele>
        <time>2022-06-05T11:12:50Z</time>
      </trkpt>
      <trkpt lat="48.2194880" lon="8.1535450">
        <ele>277.0</ele>
        <time>2022-06-05T11:12:54Z</time>
      </trkpt>
      <trkpt lat="48.2194200" lon="8.1535050">
        <ele>276.6</ele>
        <time>2022-06-05T11:12:58Z</time>
      </trkpt>
      <trkpt lat="48.2193330" lon="8.1534450">
        <ele>277.4</ele>
        <time>2022-06-05T11:13:02Z</time>
      </trkpt>
      <trkpt lat="48.2192380" lon="8.1533980">
        <ele>277.6</ele>
        <time>2022-06-05T11:13:06Z</time>
      </trkpt>
      <trkpt lat="48.2191460" lon="8.1533430">
        <ele>278.2</ele>
        <time>2022-06-05T11:13:10Z</time>
      </trkpt>
      <trkpt lat="48.2190600" lon="8.1532900">
        <ele>278.2</ele>
        <time>2022-06-05T11:13:14Z</time>
      </trkpt>
      <trkpt lat="48.2189830" lon="8.1532230">
        <ele>278.2</ele>
        <time>2022-06-05T11:13:18Z</time>
      </trkpt>
      <trkpt lat="48.2188950" lon="8.1531910">
        <ele>278.6</ele>
        <time>2022-06-05T11:13:22Z</time>
      </trkpt>
      <trkpt lat="48.2188030" lon="8.1531580">
        <ele>278.8</ele>
        <time>2022-06-05T11:13:26Z</time>
      </trkpt>
      <trkpt lat="48.2187110" lon="8.1531060">
        <ele>279.4</ele>
        <time>2022-06-05T11:13:30Z</time>
      </trkpt>
      <trkpt lat="48.2186150" lon="8.1530850">
        <ele>280.0</ele>
        <time>2022-06-05T11:13:34Z</time>
      </trkpt>
      <trkpt lat="48.2185480" lon="8.1530500">
        <ele>280.2</ele>
        <time>2022-06-05T11:13:38Z</time>
      </trkpt>
      <trkpt lat="48.2184410" lon="8.1530350">
        <ele>280.8</ele>
        <time>2022-06-05T11:13:42Z</time>
      </trkpt>
      <trkpt lat="48.2183430" lon="8.1529710">
        <ele>280.6</ele>
        <time>2022-06-05T11:13:46Z</time>
      </trkpt>
      <trkpt lat="48.2182530" lon="8.1529350">
        <ele>280.8</ele>
        <time>2022-06-05T11:13:50Z</time>
      </trkpt>
      <trkpt lat="48.2181630" lon="8.1528860">
        <ele>281.4</ele>
        <time>2022-06-05T11:13:54Z</time>
      </trkpt>
      <trkpt lat="48.2180680" lon="8.1528460">
        <ele>282.0</ele>
        <time>2022-06-05T11:13:58Z</time>
      </trkpt>
      <trkpt lat="48.2179880" lon="8.1527810">
        <ele>282.4</ele>
        <time>2022-06-05T11:14:02Z</time>
      </trkpt>
      <trkpt lat="48.2179200" lon="8.1527250">
        <ele>282.8</ele>
        <time>2022-06-05T11:14:06Z</time>
      </trkpt>
      <trkpt lat="48.2178310" lon="8.1526700">
        <ele>283.2</ele>
        <time>2022-06-05T11:14:10Z</time>
      </trkpt>
      <trkpt lat="48.2177630" lon="8.1526360">
        <ele>282.8</ele>
        <time>2022-06-05T11:14:14Z</time>
      </trkpt>
      <trkpt lat="48.2176860" lon="8.1526080">
        <ele>283.2</ele>
        <time>2022-06-05T11:14:18Z</time>
      </trkpt>
      <trkpt lat="48.2175910" lon="8.1525010">
        <ele>283.4</ele>
        <time>2022-06-05T11:14:22Z</time>
      </trkpt>
      <trkpt lat="48.2174760" lon="8.1524130">
        <ele>283.8</ele>
        <time>2022-06-05T11:14:26Z</time>
      </trkpt>
      <trkpt lat="48.2173750" lon="8.1522550">
        <ele>284.2</ele>
        <time>2022-06-05T11:14:30Z</time>
      </trkpt>
      <trkpt lat="48.2172830" lon="8.1521380">
        <ele>285.2</ele>
        <time>2022-06-05T11:14:34Z</time>
      </trkpt>
      <trkpt lat="48.2172210" lon="8.1520200">
        <ele>285.4</ele>
        <time>2022-06-05T11:14:38Z</time>
      </trkpt>
      <trkpt lat="48.2171600" lon="8.1519060">
        <ele>285.8</ele>
        <time>2022-06-05T11:14:42Z</time>
      </trkpt>
      <trkpt lat="48.2171000" lon="8.1517860">
        <ele>285.8</ele>
        <time>2022-06-05T11:14:46Z</time>
      </trkpt>
      <trkpt lat="48.2170380" lon="8.1516760">
        <ele>286.2</ele>
        <time>2022-06-05T11:14:50Z</time>
      </trkpt>
      <trkpt lat="48.2169730" lon="8.1515560">
        <ele>286.6</ele>
        <time>2022-06-05T11:14:54Z</time>
      </trkpt>
      <trkpt lat="48.2169080" lon="8.1514410">
        <ele>286.8</ele>
        <time>2022-06-05T11:14:58Z</time>
      </trkpt>
      <trkpt lat="48.2168250" lon="8.1513350">
        <ele>287.0</ele>
        <time>2022-06-05T11:15:02Z</time>
      </trkpt>
      <trkpt lat="48.2167510" lon="8.1512460">
        <ele>287.8</ele>
        <time>2022-06-05T11:15:06Z</time>
      </trkpt>
      <trkpt lat="48.2166680" lon="8.1511850">
        <ele>287.8</ele>
        <time>2022-06-05T11:15:10Z</time>
      </trkpt>
      <trkpt lat="48.2165730" lon="8.1511450">
        <ele>288.2</ele>
        <time>2022-06-05T11:15:14Z</time>
      </trkpt>
      <trkpt lat="48.2164710" lon="8.1511580">
        <ele>288.6</ele>
        <time>2022-06-05T11:15:18Z</time>
      </trkpt>
      <trkpt lat="48.2163880" lon="8.1512100">
        <ele>288.4</ele>
        <time>2022-06-05T11:15:22Z</time>
      </trkpt>
      <trkpt lat="48.2163280" lon="8.1513030">
        <ele>288.6</ele>
        <time>2022-06-05T11:15:26Z</time>
      </trkpt>
      <trkpt lat="48.2162850" lon="8.1514000">
        <ele>289.4</ele>
        <time>2022-06-05T11:15:30Z</time>
      </trkpt>
      <trkpt lat="48.2162400" lon="8.1515000">
        <ele>289.6</ele>
        <time>2022-06-05T11:15:34Z</time>
      </trkpt>
      <trkpt lat="48.2162130" lon="8.1515680">
        <ele>290.0</ele>
        <time>2022-06-05T11:15:38Z</time>
      </trkpt>
      <trkpt lat="48.2161980" lon="8.1516430">
        <ele>289.8</ele>
        <time>2022-06-05T11:15:42Z</time>
      </trkpt>
      <trkpt lat="48.2161780" lon="8.1517430">
        <ele>289.8</ele>
        <time>2022-06-05T11:15:46Z</time>
      </trkpt>
      <trkpt lat="48.2161680" lon="8.1518780">
        <ele>290.6</ele>
        <time>2022-06-05T11:15:50Z</time>
      </trkpt>
      <trkpt lat="48.2161300" lon="8.1520160">
        <ele>290.8</ele>
        <time>2022-06-05T11:15:54Z</time>
      </trkpt>
      <trkpt lat="48.2161030" lon="8.1521610">
        <ele>290.8</ele>
        <time>2022-06-05T11:15:58Z</time>
      </trkpt>
      <trkpt lat="48.2160560" lon="8.1522980">
        <ele>291.4</ele>
        <time>2022-06-05T11:16:02Z</time>
      </trkpt>
      <trkpt lat="48.2160400" lon="8.1524300">
        <ele>291.6</ele>
        <time>2022-06-05T11:16:06Z</time>
      </trkpt>
      <trkpt lat="48.2160250" lon="8.1526150">
        <ele>292.0</ele>
        <time>2022-06-05T11:16:10Z</time>
      </trkpt>
      <trkpt lat="48.2160060" lon="8.1527800">
        <ele>291.6</ele>
        <time>2022-06-05T11:16:14Z</time>
      </trkpt>
      <trkpt lat="48.2159950" lon="8.1529230">
        <ele>292.0</ele>
        <time>2022-06-05T11:16:18Z</time>
      </trkpt>
      <trkpt lat="48.2159500" lon="8.1531000">
        <ele>292.4</ele>
        <time>2022-06-05T11:16:22Z</time>
      </trkpt>
      <trkpt lat="48.2159460" lon="8.1532330">
        <ele>292.6</ele>
        <time>2022-06-05T11:16:26Z</time>
      </trkpt>
      <trkpt lat="48.2159410" lon="8.1533630">
        <ele>292.8</ele>
        <time>2022-06-05T11:16:30Z</time>
      </trkpt>
      <trkpt lat="48.2159130" lon="8.1534800">
        <ele>292.8</ele>
        <time>2022-06-05T11:16:34Z</time>
      </trkpt>
      <trkpt lat="48.2159200" lon="8.1536010">
        <ele>293.2</ele>
        <time>2022-06-05T11:16:38Z</time>
      </trkpt>
      <trkpt lat="48.2159360" lon="8.1538360">
        <ele>293.2</ele>
        <time>2022-06-05T11:16:42Z</time>
      </trkpt>
      <trkpt lat="48.2159150" lon="8.1540330">
        <ele>293.4</ele>
        <time>2022-06-05T11:16:46Z</time>
      </trkpt>
      <trkpt lat="48.2158600" lon="8.1542000">
        <ele>294.0</ele>
        <time>2022-06-05T11:16:50Z</time>
      </trkpt>
      <trkpt lat="48.2157760" lon="8.1543550">
        <ele>294.6</ele>
        <time>2022-06-05T11:16:54Z</time>
      </trkpt>
      <trkpt lat="48.2156880" lon="8.1544830">
        <ele>294.6</ele>
        <time>2022-06-05T11:16:58Z</time>
      </trkpt>
      <trkpt lat="48.2155980" lon="8.1546180">
        <ele>294.8</ele>
        <time>2022-06-05T11:17:02Z</time>
      </trkpt>
      <trkpt lat="48.2154860" lon="8.1547330">
        <ele>296.4</ele>
        <time>2022-06-05T11:17:06Z</time>
      </trkpt>
      <trkpt lat="48.2153680" lon="8.1548380">
        <ele>296.4</ele>
        <time>2022-06-05T11:17:10Z</time>
      </trkpt>
      <trkpt lat="48.2152650" lon="8.1549800">
        <ele>296.4</ele>
        <time>2022-06-05T11:17:14Z</time>
      </trkpt>
      <trkpt lat="48.2152210" lon="8.1551680">
        <ele>296.8</ele>
        <time>2022-06-05T11:17:18Z</time>
      </trkpt>
      <trkpt lat="48.2152500" lon="8.1553780">
        <ele>296.8</ele>
        <time>2022-06-05T11:17:22Z</time>
      </trkpt>
      <trkpt lat="48.2153100" lon="8.1555630">
        <ele>297.8</ele>
        <time>2022-06-05T11:17:26Z</time>
      </trkpt>
      <trkpt lat="48.2153800" lon="8.1557230">
        <ele>297.8</ele>
        <time>2022-06-05T11:17:30Z</time>
      </trkpt>
      <trkpt lat="48.2154560" lon="8.1558810">
        <ele>298.8</ele>
        <time>2022-06-05T11:17:34Z</time>
      </trkpt>
      <trkpt lat="48.2155430" lon="8.1560160">
        <ele>299.0</ele>
        <time>2022-06-05T11:17:38Z</time>
      </trkpt>
      <trkpt lat="48.2156450" lon="8.1561300">
        <ele>299.6</ele>
        <time>2022-06-05T11:17:42Z</time>
      </trkpt>
      <trkpt lat="48.2157660" lon="8.1561930">
        <ele>299.6</ele>
        <time>2022-06-05T11:17:46Z</time>
      </trkpt>
      <trkpt lat="48.2158880" lon="8.1562460">
        <ele>299.6</ele>
        <time>2022-06-05T11:17:50Z</time>
      </trkpt>
      <trkpt lat="48.2160100" lon="8.1563230">
        <ele>300.0</ele>
        <time>2022-06-05T11:17:54Z</time>
      </trkpt>
      <trkpt lat="48.2160910" lon="8.1563960">
        <ele>299.6</ele>
        <time>2022-06-05T11:17:58Z</time>
      </trkpt>
      <trkpt lat="48.2161950" lon="8.1565160">
        <ele>300.2</ele>
        <time>2022-06-05T11:18:02Z</time>
      </trkpt>
      <trkpt lat="48.2162960" lon="8.1567010">
        <ele>300.8</ele>
        <time>2022-06-05T11:18:06Z</time>
      </trkpt>
      <trkpt lat="48.2163810" lon="8.1568800">
        <ele>301.2</ele>
        <time>2022-06-05T11:18:10Z</time>
      </trkpt>
      <trkpt lat="48.2164810" lon="8.1570450">
        <ele>301.2</ele>
        <time>2022-06-05T11:18:14Z</time>
      </trkpt>
      <trkpt lat="48.2165700" lon="8.1571980">
        <ele>301.2</ele>
        <time>2022-06-05T11:18:18Z</time>
      </trkpt>
      <trkpt lat="48.2166510" lon="8.1573760">
        <ele>301.8</ele>
        <time>2022-06-05T11:18:22Z</time>
      </trkpt>
      <trkpt lat="48.2167200" lon="8.1575260">
        <ele>302.0</ele>
        <time>2022-06-05T11:18:26Z</time>
      </trkpt>
      <trkpt lat="48.2168050" lon="8.1576830">
        <ele>302.2</ele>
        <time>2022-06-05T11:18:30Z</time>
      </trkpt>
      <trkpt lat="48.2168850" lon="8.1578550">
        <ele>301.4</ele>
        <time>2022-06-05T11:18:34Z</time>
      </trkpt>
      <trkpt lat="48.2169660" lon="8.1580250">
        <ele>302.2</ele>
        <time>2022-06-05T11:18:38Z</time>
      </trkpt>
      <trkpt lat="48.2170550" lon="8.1582200">
        <ele>302.0</ele>
        <time>2022-06-05T11:18:42Z</time>
      </trkpt>
      <trkpt lat="48.2171360" lon="8.1583830">
        <ele>302.0</ele>
        <time>2022-06-05T11:18:46Z</time>
      </trkpt>
      <trkpt lat="48.2172160" lon="8.1585500">
        <ele>302.6</ele>
        <time>2022-06-05T11:18:50Z</time>
      </trkpt>
      <trkpt lat="48.2172560" lon="8.1587430">
        <ele>303.0</ele>
        <time>2022-06-05T11:18:54Z</time>
      </trkpt>
      <trkpt lat="48.2172800" lon="8.1589360">
        <ele>303.0</ele>
        <time>2022-06-05T11:18:58Z</time>
      </trkpt>
      <trkpt lat="48.2173000" lon="8.1591360">
        <ele>303.0</ele>
        <time>2022-06-05T11:19:02Z</time>
      </trkpt>
      <trkpt lat="48.2172910" lon="8.1593260">
        <ele>303.0</ele>
        <time>2022-06-05T11:19:06Z</time>
      </trkpt>
      <trkpt lat="48.2172150" lon="8.1595180">
        <ele>302.2</ele>
        <time>2022-06-05T11:19:10Z</time>
      </trkpt>
      <trkpt lat="48.2172000" lon="8.1597310">
        <ele>302.6</ele>
        <time>2022-06-05T11:19:14Z</time>
      </trkpt>
      <trkpt lat="48.2172510" lon="8.1599160">
        <ele>302.2</ele>
        <time>2022-06-05T11:19:18Z</time>
      </trkpt>
      <trkpt lat="48.2173260" lon="8.1600860">
        <ele>302.6</ele>
        <time>2022-06-05T11:19:22Z</time>
      </trkpt>
      <trkpt lat="48.2173750" lon="8.1602700">
        <ele>302.8</ele>
        <time>2022-06-05T11:19:26Z</time>
      </trkpt>
      <trkpt lat="48.2173900" lon="8.1604700">
        <ele>303.2</ele>
        <time>2022-06-05T11:19:30Z</time>
      </trkpt>
      <trkpt lat="48.2173710" lon="8.1606460">
        <ele>303.0</ele>
        <time>2022-06-05T11:19:34Z</time>
      </trkpt>
      <trkpt lat="48.2173030" lon="8.1608310">
        <ele>302.8</ele>
        <time>2022-06-05T11:19:38Z</time>
      </trkpt>
      <trkpt lat="48.2171810" lon="8.1609810">
        <ele>302.6</ele>
        <time>2022-06-05T11:19:42Z</time>
      </trkpt>
      <trkpt lat="48.2170580" lon="8.1610800">
        <ele>303.0</ele>
        <time>2022-06-05T11:19:46Z</time>
      </trkpt>
      <trkpt lat="48.2169100" lon="8.1611650">
        <ele>303.6</ele>
        <time>2022-06-05T11:19:50Z</time>
      </trkpt>
      <trkpt lat="48.2167660" lon="8.1612760">
        <ele>303.2</ele>
        <time>2022-06-05T11:19:54Z</time>
      </trkpt>
      <trkpt lat="48.2166660" lon="8.1613910">
        <ele>303.0</ele>
        <time>2022-06-05T11:19:58Z</time>
      </trkpt>
      <trkpt lat="48.2165360" lon="8.1615230">
        <ele>303.6</ele>
        <time>2022-06-05T11:20:02Z</time>
      </trkpt>
      <trkpt lat="48.2163980" lon="8.1616910">
        <ele>304.2</ele>
        <time>2022-06-05T11:20:06Z</time>
      </trkpt>
      <trkpt lat="48.2162810" lon="8.1618610">
        <ele>303.6</ele>
        <time>2022-06-05T11:20:10Z</time>
      </trkpt>
      <trkpt lat="48.2162810" lon="8.1621350">
        <ele>304.0</ele>
        <time>2022-06-05T11:20:14Z</time>
      </trkpt>
      <trkpt lat="48.2163760" lon="8.1623400">
        <ele>304.0</ele>
        <time>2022-06-05T11:20:18Z</time>
      </trkpt>
      <trkpt lat="48.2164850" lon="8.1624910">
        <ele>304.6</ele>
        <time>2022-06-05T11:20:22Z</time>
      </trkpt>
      <trkpt lat="48.2165930" lon="8.1626700">
        <ele>304.2</ele>
        <time>2022-06-05T11:20:26Z</time>
      </trkpt>
      <trkpt lat="48.2166430" lon="8.1628910">
        <ele>304.6</ele>
        <time>2022-06-05T11:20:30Z</time>
      </trkpt>
      <trkpt lat="48.2166110" lon="8.1631200">
        <ele>304.8</ele>
        <time>2022-06-05T11:20:34Z</time>
      </trkpt>
      <trkpt lat="48.2165760" lon="8.1633100">
        <ele>305.6</ele>
        <time>2022-06-05T11:20:38Z</time>
      </trkpt>
      <trkpt lat="48.2165230" lon="8.1635310">
        <ele>306.0</ele>
        <time>2022-06-05T11:20:42Z</time>
      </trkpt>
      <trkpt lat="48.2165080" lon="8.1637560">
        <ele>305.8</ele>
        <time>2022-06-05T11:20:46Z</time>
      </trkpt>
      <trkpt lat="48.2165000" lon="8.1639550">
        <ele>305.2</ele>
        <time>2022-06-05T11:20:50Z</time>
      </trkpt>
      <trkpt lat="48.2164660" lon="8.1641910">
        <ele>305.6</ele>
        <time>2022-06-05T11:20:54Z</time>
      </trkpt>
      <trkpt lat="48.2164000" lon="8.1644150">
        <ele>306.4</ele>
        <time>2022-06-05T11:20:58Z</time>
      </trkpt>
      <trkpt lat="48.2163400" lon="8.1646180">
        <ele>306.2</ele>
        <time>2022-06-05T11:21:02Z</time>
      </trkpt>
      <trkpt lat="48.2163410" lon="8.1648350">
        <ele>306.8</ele>
        <time>2022-06-05T11:21:06Z</time>
      </trkpt>
      <trkpt lat="48.2163660" lon="8.1650410">
        <ele>307.0</ele>
        <time>2022-06-05T11:21:10Z</time>
      </trkpt>
      <trkpt lat="48.2163700" lon="8.1652630">
        <ele>306.6</ele>
        <time>2022-06-05T11:21:14Z</time>
      </trkpt>
      <trkpt lat="48.2163430" lon="8.1654730">
        <ele>306.8</ele>
        <time>2022-06-05T11:21:18Z</time>
      </trkpt>
      <trkpt lat="48.2163210" lon="8.1656950">
        <ele>307.2</ele>
        <time>2022-06-05T11:21:22Z</time>
      </trkpt>
      <trkpt lat="48.2163100" lon="8.1658930">
        <ele>307.4</ele>
        <time>2022-06-05T11:21:26Z</time>
      </trkpt>
      <trkpt lat="48.2162950" lon="8.1661060">
        <ele>307.8</ele>
        <time>2022-06-05T11:21:30Z</time>
      </trkpt>
      <trkpt lat="48.2162680" lon="8.1663060">
        <ele>307.8</ele>
        <time>2022-06-05T11:21:34Z</time>
      </trkpt>
      <trkpt lat="48.2162350" lon="8.1665050">
        <ele>307.4</ele>
        <time>2022-06-05T11:21:38Z</time>
      </trkpt>
      <trkpt lat="48.2161900" lon="8.1667100">
        <ele>308.0</ele>
        <time>2022-06-05T11:21:42Z</time>
      </trkpt>
      <trkpt lat="48.2161410" lon="8.1669030">
        <ele>309.4</ele>
        <time>2022-06-05T11:21:46Z</time>
      </trkpt>
      <trkpt lat="48.2160750" lon="8.1670900">
        <ele>309.2</ele>
        <time>2022-06-05T11:21:50Z</time>
      </trkpt>
      <trkpt lat="48.2159980" lon="8.1672760">
        <ele>309.0</ele>
        <time>2022-06-05T11:21:54Z</time>
      </trkpt>
      <trkpt lat="48.2158980" lon="8.1674360">
        <ele>308.2</ele>
        <time>2022-06-05T11:21:58Z</time>
      </trkpt>
      <trkpt lat="48.2157880" lon="8.1675800">
        <ele>308.2</ele>
        <time>2022-06-05T11:22:02Z</time>
      </trkpt>
      <trkpt lat="48.2156630" lon="8.1676960">
        <ele>308.0</ele>
        <time>2022-06-05T11:22:06Z</time>
      </trkpt>
      <trkpt lat="48.2155310" lon="8.1677960">
        <ele>307.8</ele>
        <time>2022-06-05T11:22:10Z</time>
      </trkpt>
      <trkpt lat="48.2153910" lon="8.1678910">
        <ele>308.2</ele>
        <time>2022-06-05T11:22:14Z</time>
      </trkpt>
      <trkpt lat="48.2152500" lon="8.1679710">
        <ele>308.2</ele>
        <time>2022-06-05T11:22:18Z</time>
      </trkpt>
      <trkpt lat="48.2151080" lon="8.1680510">
        <ele>309.6</ele>
        <time>2022-06-05T11:22:22Z</time>
      </trkpt>
      <trkpt lat="48.2149630" lon="8.1681380">
        <ele>310.0</ele>
        <time>2022-06-05T11:22:26Z</time>
      </trkpt>
      <trkpt lat="48.2148230" lon="8.1682330">
        <ele>310.4</ele>
        <time>2022-06-05T11:22:30Z</time>
      </trkpt>
      <trkpt lat="48.2147000" lon="8.1683660">
        <ele>310.8</ele>
        <time>2022-06-05T11:22:34Z</time>
      </trkpt>
      <trkpt lat="48.2145860" lon="8.1685060">
        <ele>311.6</ele>
        <time>2022-06-05T11:22:38Z</time>
      </trkpt>
      <trkpt lat="48.2144900" lon="8.1686680">
        <ele>311.8</ele>
        <time>2022-06-05T11:22:42Z</time>
      </trkpt>
      <trkpt lat="48.2144060" lon="8.1688560">
        <ele>312.0</ele>
        <time>2022-06-05T11:22:46Z</time>
      </trkpt>
      <trkpt lat="48.2143250" lon="8.1690380">
        <ele>311.6</ele>
        <time>2022-06-05T11:22:50Z</time>
      </trkpt>
      <trkpt lat="48.2142460" lon="8.1692230">
        <ele>312.0</ele>
        <time>2022-06-05T11:22:54Z</time>
      </trkpt>
      <trkpt lat="48.2141950" lon="8.1694010">
        <ele>313.0</ele>
        <time>2022-06-05T11:22:58Z</time>
      </trkpt>
      <trkpt lat="48.2141360" lon="8.1695760">
        <ele>313.4</ele>
        <time>2022-06-05T11:23:02Z</time>
      </trkpt>
      <trkpt lat="48.2140950" lon="8.1697510">
        <ele>313.2</ele>
        <time>2022-06-05T11:23:06Z</time>
      </trkpt>
      <trkpt lat="48.2139810" lon="8.1698380">
        <ele>313.6</ele>
        <time>2022-06-05T11:23:10Z</time>
      </trkpt>
      <trkpt lat="48.2138650" lon="8.1698330">
        <ele>314.0</ele>
        <time>2022-06-05T11:23:14Z</time>
      </trkpt>
      <trkpt lat="48.2137550" lon="8.1698400">
        <ele>314.6</ele>
        <time>2022-06-05T11:23:18Z</time>
      </trkpt>
      <trkpt lat="48.2136460" lon="8.1698810">
        <ele>315.4</ele>
        <time>2022-06-05T11:23:22Z</time>
      </trkpt>
      <trkpt lat="48.2135210" lon="8.1699510">
        <ele>315.8</ele>
        <time>2022-06-05T11:23:26Z</time>
      </trkpt>
      <trkpt lat="48.2134010" lon="8.1700110">
        <ele>315.8</ele>
        <time>2022-06-05T11:23:30Z</time>
      </trkpt>
      <trkpt lat="48.2132750" lon="8.1700660">
        <ele>316.0</ele>
        <time>2022-06-05T11:23:34Z</time>
      </trkpt>
      <trkpt lat="48.2131510" lon="8.1701180">
        <ele>315.8</ele>
        <time>2022-06-05T11:23:38Z</time>
      </trkpt>
      <trkpt lat="48.2130250" lon="8.1701700">
        <ele>315.2</ele>
        <time>2022-06-05T11:23:42Z</time>
      </trkpt>
      <trkpt lat="48.2129080" lon="8.1702460">
        <ele>315.8</ele>
        <time>2022-06-05T11:23:46Z</time>
      </trkpt>
      <trkpt lat="48.2127910" lon="8.1703280">
        <ele>317.2</ele>
        <time>2022-06-05T11:23:50Z</time>
      </trkpt>
      <trkpt lat="48.2126750" lon="8.1704300">
        <ele>317.4</ele>
        <time>2022-06-05T11:23:54Z</time>
      </trkpt>
      <trkpt lat="48.2125360" lon="8.1705300">
        <ele>317.6</ele>
        <time>2022-06-05T11:23:58Z</time>
      </trkpt>
      <trkpt lat="48.2123730" lon="8.1705800">
        <ele>318.0</ele>
        <time>2022-06-05T11:24:02Z</time>
      </trkpt>
      <trkpt lat="48.2122150" lon="8.1706300">
        <ele>318.4</ele>
        <time>2022-06-05T11:24:06Z</time>
      </trkpt>
      <trkpt lat="48.2120680" lon="8.1707250">
        <ele>318.4</ele>
        <time>2022-06-05T11:24:10Z</time>
      </trkpt>
      <trkpt lat="48.2119550" lon="8.1708880">
        <ele>319.0</ele>
        <time>2022-06-05T11:24:14Z</time>
      </trkpt>
      <trkpt lat="48.2118530" lon="8.1710930">
        <ele>319.0</ele>
        <time>2022-06-05T11:24:18Z</time>
      </trkpt>
      <trkpt lat="48.2117680" lon="8.1712700">
        <ele>320.0</ele>
        <time>2022-06-05T11:24:22Z</time>
      </trkpt>
      <trkpt lat="48.2116650" lon="8.1714200">
        <ele>320.6</ele>
        <time>2022-06-05T11:24:26Z</time>
      </trkpt>
      <trkpt lat="48.2115580" lon="8.1715350">
        <ele>321.0</ele>
        <time>2022-06-05T11:24:30Z</time>
      </trkpt>
      <trkpt lat="48.2114780" lon="8.1716580">
        <ele>322.2</ele>
        <time>2022-06-05T11:24:34Z</time>
      </trkpt>
      <trkpt lat="48.2113880" lon="8.1717550">
        <ele>323.0</ele>
        <time>2022-06-05T11:24:38Z</time>
      </trkpt>
      <trkpt lat="48.2112700" lon="8.1718110">
        <ele>324.6</ele>
        <time>2022-06-05T11:24:42Z</time>
      </trkpt>
      <trkpt lat="48.2111450" lon="8.1718600">
        <ele>324.0</ele>
        <time>2022-06-05T11:24:46Z</time>
      </trkpt>
      <trkpt lat="48.2110350" lon="8.1719100">
        <ele>325.4</ele>
        <time>2022-06-05T11:24:50Z</time>
      </trkpt>
      <trkpt lat="48.2109310" lon="8.1719510">
        <ele>325.4</ele>
        <time>2022-06-05T11:24:54Z</time>
      </trkpt>
      <trkpt lat="48.2108280" lon="8.1720150">
        <ele>326.2</ele>
        <time>2022-06-05T11:24:58Z</time>
      </trkpt>
      <trkpt lat="48.2107330" lon="8.1720660">
        <ele>326.8</ele>
        <time>2022-06-05T11:25:02Z</time>
      </trkpt>
      <trkpt lat="48.2106210" lon="8.1721400">
        <ele>326.8</ele>
        <time>2022-06-05T11:25:06Z</time>
      </trkpt>
      <trkpt lat="48.2105200" lon="8.1722360">
        <ele>326.6</ele>
        <time>2022-06-05T11:25:10Z</time>
      </trkpt>
      <trkpt lat="48.2104380" lon="8.1723760">
        <ele>326.4</ele>
        <time>2022-06-05T11:25:14Z</time>
      </trkpt>
      <trkpt lat="48.2103710" lon="8.1725110">
        <ele>326.4</ele>
        <time>2022-06-05T11:25:18Z</time>
      </trkpt>
      <trkpt lat="48.2102830" lon="8.1726700">
        <ele>326.4</ele>
        <time>2022-06-05T11:25:22Z</time>
      </trkpt>
      <trkpt lat="48.2101630" lon="8.1728730">
        <ele>324.8</ele>
        <time>2022-06-05T11:25:26Z</time>
      </trkpt>
      <trkpt lat="48.2099380" lon="8.1730680">
        <ele>322.4</ele>
        <time>2022-06-05T11:25:30Z</time>
      </trkpt>
      <trkpt lat="48.2096610" lon="8.1732530">
        <ele>321.2</ele>
        <time>2022-06-05T11:25:34Z</time>
      </trkpt>
      <trkpt lat="48.2093850" lon="8.1734360">
        <ele>321.0</ele>
        <time>2022-06-05T11:25:38Z</time>
      </trkpt>
      <trkpt lat="48.2091880" lon="8.1735880">
        <ele>322.4</ele>
        <time>2022-06-05T11:25:42Z</time>
      </trkpt>
      <trkpt lat="48.2090560" lon="8.1737210">
        <ele>324.2</ele>
        <time>2022-06-05T11:25:46Z</time>
      </trkpt>
      <trkpt lat="48.2089730" lon="8.1738350">
        <ele>325.8</ele>
        <time>2022-06-05T11:25:50Z</time>
      </trkpt>
      <trkpt lat="48.2088900" lon="8.1739380">
        <ele>326.2</ele>
        <time>2022-06-05T11:25:54Z</time>
      </trkpt>
      <trkpt lat="48.2087930" lon="8.1740810">
        <ele>326.6</ele>
        <time>2022-06-05T11:25:58Z</time>
      </trkpt>
      <trkpt lat="48.2087100" lon="8.1742010">
        <ele>326.4</ele>
        <time>2022-06-05T11:26:02Z</time>
      </trkpt>
      <trkpt lat="48.2085760" lon="8.1743280">
        <ele>326.2</ele>
        <time>2022-06-05T11:26:06Z</time>
      </trkpt>
      <trkpt lat="48.2084510" lon="8.1744250">
        <ele>325.8</ele>
        <time>2022-06-05T11:26:10Z</time>
      </trkpt>
      <trkpt lat="48.2083300" lon="8.1745050">
        <ele>325.8</ele>
        <time>2022-06-05T11:26:14Z</time>
      </trkpt>
      <trkpt lat="48.2082050" lon="8.1745600">
        <ele>325.8</ele>
        <time>2022-06-05T11:26:18Z</time>
      </trkpt>
      <trkpt lat="48.2080800" lon="8.1745860">
        <ele>326.4</ele>
        <time>2022-06-05T11:26:22Z</time>
      </trkpt>
      <trkpt lat="48.2079550" lon="8.1745960">
        <ele>327.0</ele>
        <time>2022-06-05T11:26:26Z</time>
      </trkpt>
      <trkpt lat="48.2078280" lon="8.1746150">
        <ele>326.8</ele>
        <time>2022-06-05T11:26:30Z</time>
      </trkpt>
      <trkpt lat="48.2077100" lon="8.1746400">
        <ele>327.4</ele>
        <time>2022-06-05T11:26:34Z</time>
      </trkpt>
      <trkpt lat="48.2075950" lon="8.1746930">
        <ele>327.2</ele>
        <time>2022-06-05T11:26:38Z</time>
      </trkpt>
      <trkpt lat="48.2075050" lon="8.1748100">
        <ele>327.8</ele>
        <time>2022-06-05T11:26:42Z</time>
      </trkpt>
      <trkpt lat="48.2074660" lon="8.1749510">
        <ele>327.4</ele>
        <time>2022-06-05T11:26:46Z</time>
      </trkpt>
      <trkpt lat="48.2074480" lon="8.1751150">
        <ele>327.4</ele>
        <time>2022-06-05T11:26:50Z</time>
      </trkpt>
      <trkpt lat="48.2074450" lon="8.1752730">
        <ele>328.0</ele>
        <time>2022-06-05T11:26:54Z</time>
      </trkpt>
      <trkpt lat="48.2074510" lon="8.1754160">
        <ele>327.6</ele>
        <time>2022-06-05T11:26:58Z</time>
      </trkpt>
      <trkpt lat="48.2074660" lon="8.1755780">
        <ele>328.2</ele>
        <time>2022-06-05T11:27:02Z</time>
      </trkpt>
      <trkpt lat="48.2074960" lon="8.1757350">
        <ele>328.6</ele>
        <time>2022-06-05T11:27:06Z</time>
      </trkpt>
      <trkpt lat="48.2075530" lon="8.1758880">
        <ele>329.2</ele>
        <time>2022-06-05T11:27:10Z</time>
      </trkpt>
      <trkpt lat="48.2076110" lon="8.1760500">
        <ele>329.6</ele>
        <time>2022-06-05T11:27:14Z</time>
      </trkpt>
      <trkpt lat="48.2076560" lon="8.1762430">
        <ele>330.4</ele>
        <time>2022-06-05T11:27:18Z</time>
      </trkpt>
      <trkpt lat="48.2077050" lon="8.1764300">
        <ele>330.6</ele>
        <time>2022-06-05T11:27:22Z</time>
      </trkpt>
      <trkpt lat="48.2077450" lon="8.1766300">
        <ele>330.4</ele>
        <time>2022-06-05T11:27:26Z</time>
      </trkpt>
      <trkpt lat="48.2077550" lon="8.1768210">
        <ele>330.6</ele>
        <time>2022-06-05T11:27:30Z</time>
      </trkpt>
      <trkpt lat="48.2077530" lon="8.1769550">
        <ele>331.0</ele>
        <time>2022-06-05T11:27:34Z</time>
      </trkpt>
      <trkpt lat="48.2077530" lon="8.1769550">
        <ele>330.6</ele>
        <time>2022-06-05T11:27:38Z</time>
      </trkpt>
      <trkpt lat="48.2077530" lon="8.1769550">
        <ele>330.6</ele>
        <time>2022-06-05T11:27:42Z</time>
      </trkpt>
      <trkpt lat="48.2077560" lon="8.1770280">
        <ele>330.8</ele>
        <time>2022-06-05T11:27:46Z</time>
      </trkpt>
      <trkpt lat="48.2077480" lon="8.1770800">
        <ele>330.8</ele>
        <time>2022-06-05T11:27:50Z</time>
      </trkpt>
      <trkpt lat="48.2077550" lon="8.1771410">
        <ele>331.0</ele>
        <time>2022-06-05T11:27:54Z</time>
      </trkpt>
      <trkpt lat="48.2077660" lon="8.1771580">
        <ele>331.4</ele>
        <time>2022-06-05T11:27:58Z</time>
      </trkpt>
      <trkpt lat="48.2077950" lon="8.1771930">
        <ele>332.0</ele>
        <time>2022-06-05T11:28:02Z</time>
      </trkpt>
      <trkpt lat="48.2078210" lon="8.1772260">
        <ele>332.0</ele>
        <time>2022-06-05T11:28:06Z</time>
      </trkpt>
      <trkpt lat="48.2078210" lon="8.1772260">
        <ele>331.2</ele>
        <time>2022-06-05T11:28:10Z</time>
      </trkpt>
      <trkpt lat="48.2078210" lon="8.1772260">
        <ele>331.8</ele>
        <time>2022-06-05T11:28:14Z</time>
      </trkpt>
      <trkpt lat="48.2078210" lon="8.1772260">
        <ele>331.8</ele>
        <time>2022-06-05T11:28:18Z</time>
      </trkpt>
      <trkpt lat="48.2078210" lon="8.1772260">
        <ele>332.2</ele>
        <time>2022-06-05T11:28:22Z</time>
      </trkpt>
      <trkpt lat="48.2078210" lon="8.1772260">
        <ele>332.6</ele>
        <time>2022-06-05T11:28:26Z</time>
      </trkpt>
      <trkpt lat="48.2078210" lon="8.1772260">
        <ele>332.4</ele>
        <time>2022-06-05T11:28:30Z</time>
      </trkpt>
      <trkpt lat="48.2078210" lon="8.1772260">
        <ele>332.4</ele>
        <time>2022-06-05T11:28:34Z</time>
      </trkpt>
      <trkpt lat="48.2078210" lon="8.1772260">
        <ele>332.0</ele>
        <time>2022-06-05T11:28:38Z</time>
      </trkpt>
      <trkpt lat="48.2078210" lon="8.1772260">
        <ele>332.0</ele>
        <time>2022-06-05T11:28:42Z</time>
      </trkpt>
      <trkpt lat="48.2078210" lon="8.1772260">
        <ele>331.6</ele>
        <time>2022-06-05T11:28:46Z</time>
      </trkpt>
      <trkpt lat="48.2078210" lon="8.1772260">
        <ele>332.0</ele>
        <time>2022-06-05T11:28:50Z</time>
      </trkpt>
      <trkpt lat="48.2078210" lon="8.1772260">
        <ele>331.8</ele>
        <time>2022-06-05T11:28:54Z</time>
      </trkpt>
      <trkpt lat="48.2078210" lon="8.1772260">
        <ele>331.6</ele>
        <time>2022-06-05T11:28:58Z</time>
      </trkpt>
      <trkpt lat="48.2078210" lon="8.1772260">
        <ele>331.6</ele>
        <time>2022-06-05T11:29:02Z</time>
      </trkpt>
      <trkpt lat="48.2078210" lon="8.1772260">
        <ele>331.4</ele>
        <time>2022-06-05T11:29:06Z</time>
      </trkpt>
      <trkpt lat="48.2078210" lon="8.1772260">
        <ele>331.2</ele>
        <time>2022-06-05T11:29:10Z</time>
      </trkpt>
      <trkpt lat="48.2078130" lon="8.1772480">
        <ele>331.6</ele>
        <time>2022-06-05T11:29:14Z</time>
      </trkpt>
      <trkpt lat="48.2077910" lon="8.1772350">
        <ele>331.4</ele>
        <time>2022-06-05T11:29:18Z</time>
      </trkpt>
      <trkpt lat="48.2077630" lon="8.1771810">
        <ele>331.2</ele>
        <time>2022-06-05T11:29:22Z</time>
      </trkpt>
      <trkpt lat="48.2076910" lon="8.1771660">
        <ele>330.2</ele>
        <time>2022-06-05T11:29:26Z</time>
      </trkpt>
      <trkpt lat="48.2076760" lon="8.1773210">
        <ele>330.4</ele>
        <time>2022-06-05T11:29:30Z</time>
      </trkpt>
      <trkpt lat="48.2076400" lon="8.1774350">
        <ele>330.8</ele>
        <time>2022-06-05T11:29:34Z</time>
      </trkpt>
      <trkpt lat="48.2075530" lon="8.1774950">
        <ele>332.2</ele>
        <time>2022-06-05T11:29:38Z</time>
      </trkpt>
      <trkpt lat="48.2074710" lon="8.1775560">
        <ele>333.0</ele>
        <time>2022-06-05T11:29:42Z</time>
      </trkpt>
      <trkpt lat="48.2073830" lon="8.1776210">
        <ele>333.2</ele>
        <time>2022-06-05T11:29:46Z</time>
      </trkpt>
      <trkpt lat="48.2072850" lon="8.1776830">
        <ele>334.0</ele>
        <time>2022-06-05T11:29:50Z</time>
      </trkpt>
      <trkpt lat="48.2072010" lon="8.1777400">
        <ele>334.4</ele>
        <time>2022-06-05T11:29:54Z</time>
      </trkpt>
      <trkpt lat="48.2071150" lon="8.1777700">
        <ele>335.0</ele>
        <time>2022-06-05T11:29:58Z</time>
      </trkpt>
      <trkpt lat="48.2070550" lon="8.1778480">
        <ele>334.8</ele>
        <time>2022-06-05T11:30:02Z</time>
      </trkpt>
      <trkpt lat="48.2070050" lon="8.1779310">
        <ele>334.8</ele>
        <time>2022-06-05T11:30:06Z</time>
      </trkpt>
      <trkpt lat="48.2069610" lon="8.1780050">
        <ele>335.4</ele>
        <time>2022-06-05T11:30:10Z</time>
      </trkpt>
      <trkpt lat="48.2068930" lon="8.1780810">
        <ele>335.4</ele>
        <time>2022-06-05T11:30:14Z</time>
      </trkpt>
      <trkpt lat="48.2068060" lon="8.1781260">
        <ele>335.2</ele>
        <time>2022-06-05T11:30:18Z</time>
      </trkpt>
      <trkpt lat="48.2067530" lon="8.1781730">
        <ele>336.2</ele>
        <time>2022-06-05T11:30:22Z</time>
      </trkpt>
      <trkpt lat="48.2066930" lon="8.1782650">
        <ele>336.8</ele>
        <time>2022-06-05T11:30:26Z</time>
      </trkpt>
      <trkpt lat="48.2066430" lon="8.1783530">
        <ele>337.0</ele>
        <time>2022-06-05T11:30:30Z</time>
      </trkpt>
      <trkpt lat="48.2065300" lon="8.1784250">
        <ele>337.4</ele>
        <time>2022-06-05T11:30:34Z</time>
      </trkpt>
      <trkpt lat="48.2063960" lon="8.1784630">
        <ele>337.8</ele>
        <time>2022-06-05T11:30:38Z</time>
      </trkpt>
      <trkpt lat="48.2062980" lon="8.1784830">
        <ele>338.2</ele>
        <time>2022-06-05T11:30:42Z</time>
      </trkpt>
      <trkpt lat="48.2061950" lon="8.1784600">
        <ele>338.2</ele>
        <time>2022-06-05T11:30:46Z</time>
      </trkpt>
      <trkpt lat="48.2061010" lon="8.1784660">
        <ele>339.8</ele>
        <time>2022-06-05T11:30:50Z</time>
      </trkpt>
      <trkpt lat="48.2059750" lon="8.1784480">
        <ele>339.4</ele>
        <time>2022-06-05T11:30:54Z</time>
      </trkpt>
      <trkpt lat="48.2058610" lon="8.1784350">
        <ele>340.2</ele>
        <time>2022-06-05T11:30:58Z</time>
      </trkpt>
      <trkpt lat="48.2057430" lon="8.1784550">
        <ele>340.2</ele>
        <time>2022-06-05T11:31:02Z</time>
      </trkpt>
      <trkpt lat="48.2056430" lon="8.1784710">
        <ele>340.4</ele>
        <time>2022-06-05T11:31:06Z</time>
      </trkpt>
      <trkpt lat="48.2055380" lon="8.1785210">
        <ele>341.0</ele>
        <time>2022-06-05T11:31:10Z</time>
      </trkpt>
      <trkpt lat="48.2054660" lon="8.1785650">
        <ele>341.2</ele>
        <time>2022-06-05T11:31:14Z</time>
      </trkpt>
      <trkpt lat="48.2053730" lon="8.1786310">
        <ele>341.2</ele>
        <time>2022-06-05T11:31:18Z</time>
      </trkpt>
      <trkpt lat="48.2052910" lon="8.1786860">
        <ele>342.2</ele>
        <time>2022-06-05T11:31:22Z</time>
      </trkpt>
      <trkpt lat="48.2052250" lon="8.1787680">
        <ele>342.2</ele>
        <time>2022-06-05T11:31:26Z</time>
      </trkpt>
      <trkpt lat="48.2051200" lon="8.1788450">
        <ele>342.8</ele>
        <time>2022-06-05T11:31:30Z</time>
      </trkpt>
      <trkpt lat="48.2050350" lon="8.1789160">
        <ele>343.0</ele>
        <time>2022-06-05T11:31:34Z</time>
      </trkpt>
      <trkpt lat="48.2049480" lon="8.1789800">
        <ele>343.8</ele>
        <time>2022-06-05T11:31:38Z</time>
      </trkpt>
      <trkpt lat="48.2048660" lon="8.1790760">
        <ele>344.0</ele>
        <time>2022-06-05T11:31:42Z</time>
      </trkpt>
      <trkpt lat="48.2048430" lon="8.1792000">
        <ele>344.4</ele>
        <time>2022-06-05T11:31:46Z</time>
      </trkpt>
      <trkpt lat="48.2047600" lon="8.1792800">
        <ele>344.8</ele>
        <time>2022-06-05T11:31:50Z</time>
      </trkpt>
      <trkpt lat="48.2046960" lon="8.1793960">
        <ele>345.6</ele>
        <time>2022-06-05T11:31:54Z</time>
      </trkpt>
      <trkpt lat="48.2046160" lon="8.1794850">
        <ele>345.8</ele>
        <time>2022-06-05T11:31:58Z</time>
      </trkpt>
      <trkpt lat="48.2045330" lon="8.1795830">
        <ele>346.2</ele>
        <time>2022-06-05T11:32:02Z</time>
      </trkpt>
      <trkpt lat="48.2044450" lon="8.1796650">
        <ele>346.6</ele>
        <time>2022-06-05T11:32:06Z</time>
      </trkpt>
      <trkpt lat="48.2043630" lon="8.1797750">
        <ele>347.2</ele>
        <time>2022-06-05T11:32:10Z</time>
      </trkpt>
      <trkpt lat="48.2042830" lon="8.1798280">
        <ele>347.2</ele>
        <time>2022-06-05T11:32:14Z</time>
      </trkpt>
      <trkpt lat="48.2042130" lon="8.1799060">
        <ele>347.6</ele>
        <time>2022-06-05T11:32:18Z</time>
      </trkpt>
      <trkpt lat="48.2041180" lon="8.1799510">
        <ele>348.4</ele>
        <time>2022-06-05T11:32:22Z</time>
      </trkpt>
      <trkpt lat="48.2040110" lon="8.1800180">
        <ele>349.2</ele>
        <time>2022-06-05T11:32:26Z</time>
      </trkpt>
      <trkpt lat="48.2039010" lon="8.1800460">
        <ele>349.6</ele>
        <time>2022-06-05T11:32:30Z</time>
      </trkpt>
      <trkpt lat="48.2037930" lon="8.1800810">
        <ele>349.6</ele>
        <time>2022-06-05T11:32:34Z</time>
      </trkpt>
      <trkpt lat="48.2036750" lon="8.1801450">
        <ele>349.8</ele>
        <time>2022-06-05T11:32:38Z</time>
      </trkpt>
      <trkpt lat="48.2035430" lon="8.1801800">
        <ele>350.2</ele>
        <time>2022-06-05T11:32:42Z</time>
      </trkpt>
      <trkpt lat="48.2034480" lon="8.1802230">
        <ele>350.4</ele>
        <time>2022-06-05T11:32:46Z</time>
      </trkpt>
      <trkpt lat="48.2033610" lon="8.1802400">
        <ele>350.8</ele>
        <time>2022-06-05T11:32:50Z</time>
      </trkpt>
      <trkpt lat="48.2032410" lon="8.1802650">
        <ele>351.0</ele>
        <time>2022-06-05T11:32:54Z</time>
      </trkpt>
      <trkpt lat="48.2031060" lon="8.1802580">
        <ele>351.0</ele>
        <time>2022-06-05T11:32:58Z</time>
      </trkpt>
      <trkpt lat="48.2029900" lon="8.1802750">
        <ele>352.2</ele>
        <time>2022-06-05T11:33:02Z</time>
      </trkpt>
      <trkpt lat="48.2028910" lon="8.1802430">
        <ele>352.6</ele>
        <time>2022-06-05T11:33:06Z</time>
      </trkpt>
      <trkpt lat="48.2028250" lon="8.1802030">
        <ele>353.0</ele>
        <time>2022-06-05T11:33:10Z</time>
      </trkpt>
      <trkpt lat="48.2027410" lon="8.1801300">
        <ele>353.4</ele>
        <time>2022-06-05T11:33:14Z</time>
      </trkpt>
      <trkpt lat="48.2027110" lon="8.1800860">
        <ele>354.0</ele>
        <time>2022-06-05T11:33:18Z</time>
      </trkpt>
      <trkpt lat="48.2026480" lon="8.1799310">
        <ele>354.6</ele>
        <time>2022-06-05T11:33:22Z</time>
      </trkpt>
      <trkpt lat="48.2026080" lon="8.1798060">
        <ele>355.0</ele>
        <time>2022-06-05T11:33:26Z</time>
      </trkpt>
      <trkpt lat="48.2025780" lon="8.1796760">
        <ele>355.6</ele>
        <time>2022-06-05T11:33:30Z</time>
      </trkpt>
      <trkpt lat="48.2025550" lon="8.1795650">
        <ele>356.2</ele>
        <time>2022-06-05T11:33:34Z</time>
      </trkpt>
      <trkpt lat="48.2025330" lon="8.1794480">
        <ele>355.6</ele>
        <time>2022-06-05T11:33:38Z</time>
      </trkpt>
      <trkpt lat="48.2025050" lon="8.1792760">
        <ele>355.8</ele>
        <time>2022-06-05T11:33:42Z</time>
      </trkpt>
      <trkpt lat="48.2024660" lon="8.1791100">
        <ele>356.4</ele>
        <time>2022-06-05T11:33:46Z</time>
      </trkpt>
      <trkpt lat="48.2024360" lon="8.1789350">
        <ele>356.6</ele>
        <time>2022-06-05T11:33:50Z</time>
      </trkpt>
      <trkpt lat="48.2024100" lon="8.1787850">
        <ele>356.6</ele>
        <time>2022-06-05T11:33:54Z</time>
      </trkpt>
      <trkpt lat="48.2023610" lon="8.1786330">
        <ele>356.2</ele>
        <time>2022-06-05T11:33:58Z</time>
      </trkpt>
      <trkpt lat="48.2023230" lon="8.1784750">
        <ele>357.2</ele>
        <time>2022-06-05T11:34:02Z</time>
      </trkpt>
      <trkpt lat="48.2022550" lon="8.1783210">
        <ele>358.0</ele>
        <time>2022-06-05T11:34:06Z</time>
      </trkpt>
      <trkpt lat="48.2022100" lon="8.1781850">
        <ele>358.4</ele>
        <time>2022-06-05T11:34:10Z</time>
      </trkpt>
      <trkpt lat="48.2021700" lon="8.1780930">
        <ele>358.8</ele>
        <time>2022-06-05T11:34:14Z</time>
      </trkpt>
      <trkpt lat="48.2021130" lon="8.1779810">
        <ele>359.2</ele>
        <time>2022-06-05T11:34:18Z</time>
      </trkpt>
      <trkpt lat="48.2020280" lon="8.1778610">
        <ele>359.8</ele>
        <time>2022-06-05T11:34:22Z</time>
      </trkpt>
      <trkpt lat="48.2019380" lon="8.1777750">
        <ele>360.0</ele>
        <time>2022-06-05T11:34:26Z</time>
      </trkpt>
      <trkpt lat="48.2018230" lon="8.1776350">
        <ele>360.4</ele>
        <time>2022-06-05T11:34:30Z</time>
      </trkpt>
      <trkpt lat="48.2017330" lon="8.1775700">
        <ele>361.0</ele>
        <time>2022-06-05T11:34:34Z</time>
      </trkpt>
      <trkpt lat="48.2016450" lon="8.1775050">
        <ele>361.0</ele>
        <time>2022-06-05T11:34:38Z</time>
      </trkpt>
      <trkpt lat="48.2015110" lon="8.1774430">
        <ele>361.0</ele>
        <time>2022-06-05T11:34:42Z</time>
      </trkpt>
      <trkpt lat="48.2013730" lon="8.1773930">
        <ele>361.8</ele>
        <time>2022-06-05T11:34:46Z</time>
      </trkpt>
      <trkpt lat="48.2012710" lon="8.1773660">
        <ele>362.0</ele>
        <time>2022-06-05T11:34:50Z</time>
      </trkpt>
      <trkpt lat="48.2011760" lon="8.1773510">
        <ele>362.8</ele>
        <time>2022-06-05T11:34:54Z</time>
      </trkpt>
      <trkpt lat="48.2010960" lon="8.1773500">
        <ele>363.0</ele>
        <time>2022-06-05T11:34:58Z</time>
      </trkpt>
      <trkpt lat="48.2010110" lon="8.1773730">
        <ele>364.0</ele>
        <time>2022-06-05T11:35:02Z</time>
      </trkpt>
      <trkpt lat="48.2009260" lon="8.1774080">
        <ele>364.8</ele>
        <time>2022-06-05T11:35:06Z</time>
      </trkpt>
      <trkpt lat="48.2008280" lon="8.1774500">
        <ele>365.4</ele>
        <time>2022-06-05T11:35:10Z</time>
      </trkpt>
      <trkpt lat="48.2007260" lon="8.1774910">
        <ele>366.0</ele>
        <time>2022-06-05T11:35:14Z</time>
      </trkpt>
      <trkpt lat="48.2006330" lon="8.1775430">
        <ele>366.8</ele>
        <time>2022-06-05T11:35:18Z</time>
      </trkpt>
      <trkpt lat="48.2005380" lon="8.1776000">
        <ele>366.8</ele>
        <time>2022-06-05T11:35:22Z</time>
      </trkpt>
      <trkpt lat="48.2004610" lon="8.1776280">
        <ele>367.2</ele>
        <time>2022-06-05T11:35:26Z</time>
      </trkpt>
      <trkpt lat="48.2003700" lon="8.1776610">
        <ele>367.6</ele>
        <time>2022-06-05T11:35:30Z</time>
      </trkpt>
      <trkpt lat="48.2002810" lon="8.1777010">
        <ele>368.6</ele>
        <time>2022-06-05T11:35:34Z</time>
      </trkpt>
      <trkpt lat="48.2001260" lon="8.1776910">
        <ele>368.8</ele>
        <time>2022-06-05T11:35:38Z</time>
      </trkpt>
      <trkpt lat="48.1999810" lon="8.1777130">
        <ele>369.2</ele>
        <time>2022-06-05T11:35:42Z</time>
      </trkpt>
      <trkpt lat="48.1998700" lon="8.1777250">
        <ele>369.8</ele>
        <time>2022-06-05T11:35:46Z</time>
      </trkpt>
      <trkpt lat="48.1997550" lon="8.1777300">
        <ele>370.4</ele>
        <time>2022-06-05T11:35:50Z</time>
      </trkpt>
      <trkpt lat="48.1996450" lon="8.1777300">
        <ele>370.6</ele>
        <time>2022-06-05T11:35:54Z</time>
      </trkpt>
      <trkpt lat="48.1995410" lon="8.1777210">
        <ele>371.8</ele>
        <time>2022-06-05T11:35:58Z</time>
      </trkpt>
      <trkpt lat="48.1994350" lon="8.1777160">
        <ele>371.8</ele>
        <time>2022-06-05T11:36:02Z</time>
      </trkpt>
      <trkpt lat="48.1993430" lon="8.1777250">
        <ele>372.4</ele>
        <time>2022-06-05T11:36:06Z</time>
      </trkpt>
      <trkpt lat="48.1992410" lon="8.1777300">
        <ele>373.0</ele>
        <time>2022-06-05T11:36:10Z</time>
      </trkpt>
      <trkpt lat="48.1991680" lon="8.1777750">
        <ele>373.6</ele>
        <time>2022-06-05T11:36:14Z</time>
      </trkpt>
      <trkpt lat="48.1990830" lon="8.1778180">
        <ele>374.0</ele>
        <time>2022-06-05T11:36:18Z</time>
      </trkpt>
      <trkpt lat="48.1989950" lon="8.1778500">
        <ele>374.6</ele>
        <time>2022-06-05T11:36:22Z</time>
      </trkpt>
      <trkpt lat="48.1989080" lon="8.1778280">
        <ele>375.4</ele>
        <time>2022-06-05T11:36:26Z</time>
      </trkpt>
      <trkpt lat="48.1988400" lon="8.1777910">
        <ele>375.4</ele>
        <time>2022-06-05T11:36:30Z</time>
      </trkpt>
      <trkpt lat="48.1987850" lon="8.1777580">
        <ele>375.8</ele>
        <time>2022-06-05T11:36:34Z</time>
      </trkpt>
      <trkpt lat="48.1987050" lon="8.1777160">
        <ele>376.4</ele>
        <time>2022-06-05T11:36:38Z</time>
      </trkpt>
      <trkpt lat="48.1986210" lon="8.1776650">
        <ele>376.6</ele>
        <time>2022-06-05T11:36:42Z</time>
      </trkpt>
      <trkpt lat="48.1985330" lon="8.1775830">
        <ele>377.6</ele>
        <time>2022-06-05T11:36:46Z</time>
      </trkpt>
      <trkpt lat="48.1984330" lon="8.1774910">
        <ele>377.6</ele>
        <time>2022-06-05T11:36:50Z</time>
      </trkpt>
      <trkpt lat="48.1983530" lon="8.1774230">
        <ele>379.0</ele>
        <time>2022-06-05T11:36:54Z</time>
      </trkpt>
      <trkpt lat="48.1982880" lon="8.1773600">
        <ele>379.6</ele>
        <time>2022-06-05T11:36:58Z</time>
      </trkpt>
      <trkpt lat="48.1981980" lon="8.1772810">
        <ele>380.0</ele>
        <time>2022-06-05T11:37:02Z</time>
      </trkpt>
      <trkpt lat="48.1980960" lon="8.1772280">
        <ele>380.6</ele>
        <time>2022-06-05T11:37:06Z</time>
      </trkpt>
      <trkpt lat="48.1979680" lon="8.1771430">
        <ele>381.2</ele>
        <time>2022-06-05T11:37:10Z</time>
      </trkpt>
      <trkpt lat="48.1978700" lon="8.1770750">
        <ele>381.4</ele>
        <time>2022-06-05T11:37:14Z</time>
      </trkpt>
      <trkpt lat="48.1977810" lon="8.1769900">
        <ele>382.2</ele>
        <time>2022-06-05T11:37:18Z</time>
      </trkpt>
      <trkpt lat="48.1977150" lon="8.1769130">
        <ele>382.4</ele>
        <time>2022-06-05T11:37:22Z</time>
      </trkpt>
      <trkpt lat="48.1976300" lon="8.1768300">
        <ele>383.2</ele>
        <time>2022-06-05T11:37:26Z</time>
      </trkpt>
      <trkpt lat="48.1975660" lon="8.1767410">
        <ele>383.8</ele>
        <time>2022-06-05T11:37:30Z</time>
      </trkpt>
      <trkpt lat="48.1974650" lon="8.1766230">
        <ele>384.4</ele>
        <time>2022-06-05T11:37:34Z</time>
      </trkpt>
      <trkpt lat="48.1973750" lon="8.1764910">
        <ele>385.4</ele>
        <time>2022-06-05T11:37:38Z</time>
      </trkpt>
      <trkpt lat="48.1973150" lon="8.1763360">
        <ele>385.6</ele>
        <time>2022-06-05T11:37:42Z</time>
      </trkpt>
      <trkpt lat="48.1972800" lon="8.1762000">
        <ele>385.4</ele>
        <time>2022-06-05T11:37:46Z</time>
      </trkpt>
      <trkpt lat="48.1972560" lon="8.1760750">
        <ele>386.6</ele>
        <time>2022-06-05T11:37:50Z</time>
      </trkpt>
      <trkpt lat="48.1972710" lon="8.1759530">
        <ele>386.8</ele>
        <time>2022-06-05T11:37:54Z</time>
      </trkpt>
      <trkpt lat="48.1973380" lon="8.1758560">
        <ele>386.8</ele>
        <time>2022-06-05T11:37:58Z</time>
      </trkpt>
      <trkpt lat="48.1974050" lon="8.1757480">
        <ele>387.4</ele>
        <time>2022-06-05T11:38:02Z</time>
      </trkpt>
      <trkpt lat="48.1974550" lon="8.1756410">
        <ele>387.4</ele>
        <time>2022-06-05T11:38:06Z</time>
      </trkpt>
      <trkpt lat="48.1975210" lon="8.1755400">
        <ele>387.4</ele>
        <time>2022-06-05T11:38:10Z</time>
      </trkpt>
      <trkpt lat="48.1975660" lon="8.1754080">
        <ele>388.4</ele>
        <time>2022-06-05T11:38:14Z</time>
      </trkpt>
      <trkpt lat="48.1976400" lon="8.1752660">
        <ele>388.8</ele>
        <time>2022-06-05T11:38:18Z</time>
      </trkpt>
      <trkpt lat="48.1977000" lon="8.1750960">
        <ele>389.2</ele>
        <time>2022-06-05T11:38:22Z</time>
      </trkpt>
      <trkpt lat="48.1977580" lon="8.1749330">
        <ele>389.6</ele>
        <time>2022-06-05T11:38:26Z</time>
      </trkpt>
      <trkpt lat="48.1978230" lon="8.1747850">
        <ele>390.2</ele>
        <time>2022-06-05T11:38:30Z</time>
      </trkpt>
      <trkpt lat="48.1978830" lon="8.1746560">
        <ele>390.2</ele>
        <time>2022-06-05T11:38:34Z</time>
      </trkpt>
      <trkpt lat="48.1979260" lon="8.1744960">
        <ele>390.4</ele>
        <time>2022-06-05T11:38:38Z</time>
      </trkpt>
      <trkpt lat="48.1979460" lon="8.1743530">
        <ele>390.8</ele>
        <time>2022-06-05T11:38:42Z</time>
      </trkpt>
      <trkpt lat="48.1979630" lon="8.1741980">
        <ele>391.0</ele>
        <time>2022-06-05T11:38:46Z</time>
      </trkpt>
      <trkpt lat="48.1979430" lon="8.1740730">
        <ele>391.6</ele>
        <time>2022-06-05T11:38:50Z</time>
      </trkpt>
      <trkpt lat="48.1979260" lon="8.1739280">
        <ele>392.0</ele>
        <time>2022-06-05T11:38:54Z</time>
      </trkpt>
      <trkpt lat="48.1979050" lon="8.1737880">
        <ele>392.6</ele>
        <time>2022-06-05T11:38:58Z</time>
      </trkpt>
      <trkpt lat="48.1978930" lon="8.1736500">
        <ele>393.4</ele>
        <time>2022-06-05T11:39:02Z</time>
      </trkpt>
      <trkpt lat="48.1978610" lon="8.1734950">
        <ele>393.8</ele>
        <time>2022-06-05T11:39:06Z</time>
      </trkpt>
      <trkpt lat="48.1978310" lon="8.1733330">
        <ele>394.8</ele>
        <time>2022-06-05T11:39:10Z</time>
      </trkpt>
      <trkpt lat="48.1978000" lon="8.1731500">
        <ele>394.8</ele>
        <time>2022-06-05T11:39:14Z</time>
      </trkpt>
      <trkpt lat="48.1977850" lon="8.1729910">
        <ele>395.2</ele>
        <time>2022-06-05T11:39:18Z</time>
      </trkpt>
      <trkpt lat="48.1977730" lon="8.1728350">
        <ele>395.6</ele>
        <time>2022-06-05T11:39:22Z</time>
      </trkpt>
      <trkpt lat="48.1977700" lon="8.1726800">
        <ele>396.2</ele>
        <time>2022-06-05T11:39:26Z</time>
      </trkpt>
      <trkpt lat="48.1977880" lon="8.1725310">
        <ele>396.2</ele>
        <time>2022-06-05T11:39:30Z</time>
      </trkpt>
      <trkpt lat="48.1978080" lon="8.1723650">
        <ele>396.8</ele>
        <time>2022-06-05T11:39:34Z</time>
      </trkpt>
      <trkpt lat="48.1978350" lon="8.1722150">
        <ele>397.0</ele>
        <time>2022-06-05T11:39:38Z</time>
      </trkpt>
      <trkpt lat="48.1978660" lon="8.1720650">
        <ele>398.2</ele>
        <time>2022-06-05T11:39:42Z</time>
      </trkpt>
      <trkpt lat="48.1978950" lon="8.1719250">
        <ele>398.4</ele>
        <time>2022-06-05T11:39:46Z</time>
      </trkpt>
      <trkpt lat="48.1979430" lon="8.1718300">
        <ele>398.6</ele>
        <time>2022-06-05T11:39:50Z</time>
      </trkpt>
      <trkpt lat="48.1979980" lon="8.1717030">
        <ele>398.6</ele>
        <time>2022-06-05T11:39:54Z</time>
      </trkpt>
      <trkpt lat="48.1980360" lon="8.1715360">
        <ele>399.4</ele>
        <time>2022-06-05T11:39:58Z</time>
      </trkpt>
      <trkpt lat="48.1980600" lon="8.1713610">
        <ele>400.0</ele>
        <time>2022-06-05T11:40:02Z</time>
      </trkpt>
      <trkpt lat="48.1980930" lon="8.1712210">
        <ele>400.0</ele>
        <time>2022-06-05T11:40:06Z</time>
      </trkpt>
      <trkpt lat="48.1981250" lon="8.1710460">
        <ele>400.2</ele>
        <time>2022-06-05T11:40:10Z</time>
      </trkpt>
      <trkpt lat="48.1980980" lon="8.1709060">
        <ele>400.0</ele>
        <time>2022-06-05T11:40:14Z</time>
      </trkpt>
      <trkpt lat="48.1980010" lon="8.1708510">
        <ele>400.6</ele>
        <time>2022-06-05T11:40:18Z</time>
      </trkpt>
      <trkpt lat="48.1979210" lon="8.1708630">
        <ele>401.4</ele>
        <time>2022-06-05T11:40:22Z</time>
      </trkpt>
      <trkpt lat="48.1978550" lon="8.1709000">
        <ele>401.8</ele>
        <time>2022-06-05T11:40:26Z</time>
      </trkpt>
      <trkpt lat="48.1977930" lon="8.1709350">
        <ele>402.4</ele>
        <time>2022-06-05T11:40:30Z</time>
      </trkpt>
      <trkpt lat="48.1977210" lon="8.1709480">
        <ele>403.0</ele>
        <time>2022-06-05T11:40:34Z</time>
      </trkpt>
      <trkpt lat="48.1976150" lon="8.1709550">
        <ele>402.6</ele>
        <time>2022-06-05T11:40:38Z</time>
      </trkpt>
      <trkpt lat="48.1975350" lon="8.1709600">
        <ele>403.8</ele>
        <time>2022-06-05T11:40:42Z</time>
      </trkpt>
      <trkpt lat="48.1974350" lon="8.1709560">
        <ele>403.2</ele>
        <time>2022-06-05T11:40:46Z</time>
      </trkpt>
      <trkpt lat="48.1973360" lon="8.1709460">
        <ele>404.2</ele>
        <time>2022-06-05T11:40:50Z</time>
      </trkpt>
      <trkpt lat="48.1972150" lon="8.1709100">
        <ele>404.8</ele>
        <time>2022-06-05T11:40:54Z</time>
      </trkpt>
      <trkpt lat="48.1971230" lon="8.1708800">
        <ele>404.8</ele>
        <time>2022-06-05T11:40:58Z</time>
      </trkpt>
      <trkpt lat="48.1970210" lon="8.1708630">
        <ele>405.8</ele>
        <time>2022-06-05T11:41:02Z</time>
      </trkpt>
      <trkpt lat="48.1969200" lon="8.1708630">
        <ele>406.0</ele>
        <time>2022-06-05T11:41:06Z</time>
      </trkpt>
      <trkpt lat="48.1968360" lon="8.1708350">
        <ele>406.2</ele>
        <time>2022-06-05T11:41:10Z</time>
      </trkpt>
      <trkpt lat="48.1967650" lon="8.1707760">
        <ele>406.6</ele>
        <time>2022-06-05T11:41:14Z</time>
      </trkpt>
      <trkpt lat="48.1966810" lon="8.1707250">
        <ele>406.4</ele>
        <time>2022-06-05T11:41:18Z</time>
      </trkpt>
      <trkpt lat="48.1965960" lon="8.1706850">
        <ele>407.0</ele>
        <time>2022-06-05T11:41:22Z</time>
      </trkpt>
      <trkpt lat="48.1964710" lon="8.1706350">
        <ele>407.6</ele>
        <time>2022-06-05T11:41:26Z</time>
      </trkpt>
      <trkpt lat="48.1963730" lon="8.1705680">
        <ele>408.0</ele>
        <time>2022-06-05T11:41:30Z</time>
      </trkpt>
      <trkpt lat="48.1962830" lon="8.1704910">
        <ele>408.0</ele>
        <time>2022-06-05T11:41:34Z</time>
      </trkpt>
      <trkpt lat="48.1961630" lon="8.1703880">
        <ele>408.4</ele>
        <time>2022-06-05T11:41:38Z</time>
      </trkpt>
      <trkpt lat="48.1960750" lon="8.1703300">
        <ele>409.0</ele>
        <time>2022-06-05T11:41:42Z</time>
      </trkpt>
      <trkpt lat="48.1959280" lon="8.1702530">
        <ele>408.6</ele>
        <time>2022-06-05T11:41:46Z</time>
      </trkpt>
      <trkpt lat="48.1957580" lon="8.1701980">
        <ele>409.0</ele>
        <time>2022-06-05T11:41:50Z</time>
      </trkpt>
      <trkpt lat="48.1956350" lon="8.1702350">
        <ele>409.8</ele>
        <time>2022-06-05T11:41:54Z</time>
      </trkpt>
      <trkpt lat="48.1955600" lon="8.1703110">
        <ele>409.6</ele>
        <time>2022-06-05T11:41:58Z</time>
      </trkpt>
      <trkpt lat="48.1954960" lon="8.1704010">
        <ele>410.6</ele>
        <time>2022-06-05T11:42:02Z</time>
      </trkpt>
      <trkpt lat="48.1954300" lon="8.1705100">
        <ele>410.6</ele>
        <time>2022-06-05T11:42:06Z</time>
      </trkpt>
      <trkpt lat="48.1953530" lon="8.1705900">
        <ele>409.8</ele>
        <time>2022-06-05T11:42:10Z</time>
      </trkpt>
      <trkpt lat="48.1953080" lon="8.1706760">
        <ele>410.4</ele>
        <time>2022-06-05T11:42:14Z</time>
      </trkpt>
      <trkpt lat="48.1952460" lon="8.1708080">
        <ele>410.8</ele>
        <time>2022-06-05T11:42:18Z</time>
      </trkpt>
      <trkpt lat="48.1951530" lon="8.1709230">
        <ele>412.0</ele>
        <time>2022-06-05T11:42:22Z</time>
      </trkpt>
      <trkpt lat="48.1951110" lon="8.1710730">
        <ele>412.2</ele>
        <time>2022-06-05T11:42:26Z</time>
      </trkpt>
      <trkpt lat="48.1950550" lon="8.1711860">
        <ele>412.8</ele>
        <time>2022-06-05T11:42:30Z</time>
      </trkpt>
      <trkpt lat="48.1949910" lon="8.1713010">
        <ele>413.2</ele>
        <time>2022-06-05T11:42:34Z</time>
      </trkpt>
      <trkpt lat="48.1949430" lon="8.1714260">
        <ele>413.4</ele>
        <time>2022-06-05T11:42:38Z</time>
      </trkpt>
      <trkpt lat="48.1948880" lon="8.1715660">
        <ele>413.8</ele>
        <time>2022-06-05T11:42:42Z</time>
      </trkpt>
      <trkpt lat="48.1948260" lon="8.1717330">
        <ele>414.6</ele>
        <time>2022-06-05T11:42:46Z</time>
      </trkpt>
      <trkpt lat="48.1947700" lon="8.1718760">
        <ele>414.6</ele>
        <time>2022-06-05T11:42:50Z</time>
      </trkpt>
      <trkpt lat="48.1947210" lon="8.1720010">
        <ele>414.2</ele>
        <time>2022-06-05T11:42:54Z</time>
      </trkpt>
      <trkpt lat="48.1946380" lon="8.1721210">
        <ele>414.8</ele>
        <time>2022-06-05T11:42:58Z</time>
      </trkpt>
      <trkpt lat="48.1945930" lon="8.1722330">
        <ele>415.8</ele>
        <time>2022-06-05T11:43:02Z</time>
      </trkpt>
      <trkpt lat="48.1945310" lon="8.1723480">
        <ele>416.8</ele>
        <time>2022-06-05T11:43:06Z</time>
      </trkpt>
      <trkpt lat="48.1944630" lon="8.1724630">
        <ele>416.6</ele>
        <time>2022-06-05T11:43:10Z</time>
      </trkpt>
      <trkpt lat="48.1943560" lon="8.1725680">
        <ele>417.4</ele>
        <time>2022-06-05T11:43:14Z</time>
      </trkpt>
      <trkpt lat="48.1942450" lon="8.1727130">
        <ele>417.4</ele>
        <time>2022-06-05T11:43:18Z</time>
      </trkpt>
      <trkpt lat="48.1941250" lon="8.1728260">
        <ele>418.4</ele>
        <time>2022-06-05T11:43:22Z</time>
      </trkpt>
      <trkpt lat="48.1940100" lon="8.1729260">
        <ele>418.6</ele>
        <time>2022-06-05T11:43:26Z</time>
      </trkpt>
      <trkpt lat="48.1939310" lon="8.1729880">
        <ele>419.2</ele>
        <time>2022-06-05T11:43:30Z</time>
      </trkpt>
      <trkpt lat="48.1938310" lon="8.1730300">
        <ele>418.8</ele>
        <time>2022-06-05T11:43:34Z</time>
      </trkpt>
      <trkpt lat="48.1936860" lon="8.1730050">
        <ele>418.8</ele>
        <time>2022-06-05T11:43:38Z</time>
      </trkpt>
      <trkpt lat="48.1935610" lon="8.1730000">
        <ele>419.4</ele>
        <time>2022-06-05T11:43:42Z</time>
      </trkpt>
      <trkpt lat="48.1934630" lon="8.1730250">
        <ele>420.2</ele>
        <time>2022-06-05T11:43:46Z</time>
      </trkpt>
      <trkpt lat="48.1933560" lon="8.1730480">
        <ele>421.0</ele>
        <time>2022-06-05T11:43:50Z</time>
      </trkpt>
      <trkpt lat="48.1932630" lon="8.1730900">
        <ele>421.2</ele>
        <time>2022-06-05T11:43:54Z</time>
      </trkpt>
      <trkpt lat="48.1931800" lon="8.1731310">
        <ele>421.8</ele>
        <time>2022-06-05T11:43:58Z</time>
      </trkpt>
      <trkpt lat="48.1930800" lon="8.1731780">
        <ele>421.6</ele>
        <time>2022-06-05T11:44:02Z</time>
      </trkpt>
      <trkpt lat="48.1929860" lon="8.1732210">
        <ele>422.2</ele>
        <time>2022-06-05T11:44:06Z</time>
      </trkpt>
      <trkpt lat="48.1928760" lon="8.1732860">
        <ele>422.6</ele>
        <time>2022-06-05T11:44:10Z</time>
      </trkpt>
      <trkpt lat="48.1927750" lon="8.1733150">
        <ele>423.2</ele>
        <time>2022-06-05T11:44:14Z</time>
      </trkpt>
      <trkpt lat="48.1926950" lon="8.1734010">
        <ele>423.8</ele>
        <time>2022-06-05T11:44:18Z</time>
      </trkpt>
      <trkpt lat="48.1925950" lon="8.1734580">
        <ele>424.0</ele>
        <time>2022-06-05T11:44:22Z</time>
      </trkpt>
      <trkpt lat="48.1925060" lon="8.1735110">
        <ele>424.4</ele>
        <time>2022-06-05T11:44:26Z</time>
      </trkpt>
      <trkpt lat="48.1923910" lon="8.1735380">
        <ele>425.2</ele>
        <time>2022-06-05T11:44:30Z</time>
      </trkpt>
      <trkpt lat="48.1922850" lon="8.1735430">
        <ele>425.6</ele>
        <time>2022-06-05T11:44:34Z</time>
      </trkpt>
      <trkpt lat="48.1921610" lon="8.1735380">
        <ele>426.0</ele>
        <time>2022-06-05T11:44:38Z</time>
      </trkpt>
      <trkpt lat="48.1920410" lon="8.1735680">
        <ele>426.2</ele>
        <time>2022-06-05T11:44:42Z</time>
      </trkpt>
      <trkpt lat="48.1919310" lon="8.1736050">
        <ele>426.0</ele>
        <time>2022-06-05T11:44:46Z</time>
      </trkpt>
      <trkpt lat="48.1918260" lon="8.1736030">
        <ele>427.0</ele>
        <time>2022-06-05T11:44:50Z</time>
      </trkpt>
      <trkpt lat="48.1917330" lon="8.1736100">
        <ele>429.0</ele>
        <time>2022-06-05T11:44:54Z</time>
      </trkpt>
      <trkpt lat="48.1916610" lon="8.1736430">
        <ele>430.0</ele>
        <time>2022-06-05T11:44:58Z</time>
      </trkpt>
      <trkpt lat="48.1916330" lon="8.1737710">
        <ele>430.4</ele>
        <time>2022-06-05T11:45:02Z</time>
      </trkpt>
      <trkpt lat="48.1915930" lon="8.1738980">
        <ele>429.8</ele>
        <time>2022-06-05T11:45:06Z</time>
      </trkpt>
      <trkpt lat="48.1915500" lon="8.1740210">
        <ele>430.4</ele>
        <time>2022-06-05T11:45:10Z</time>
      </trkpt>
      <trkpt lat="48.1915480" lon="8.1741500">
        <ele>430.4</ele>
        <time>2022-06-05T11:45:14Z</time>
      </trkpt>
      <trkpt lat="48.1915100" lon="8.1742760">
        <ele>430.6</ele>
        <time>2022-06-05T11:45:18Z</time>
      </trkpt>
      <trkpt lat="48.1914760" lon="8.1744050">
        <ele>431.0</ele>
        <time>2022-06-05T11:45:22Z</time>
      </trkpt>
      <trkpt lat="48.1914430" lon="8.1745350">
        <ele>432.0</ele>
        <time>2022-06-05T11:45:26Z</time>
      </trkpt>
      <trkpt lat="48.1914250" lon="8.1746400">
        <ele>432.6</ele>
        <time>2022-06-05T11:45:30Z</time>
      </trkpt>
      <trkpt lat="48.1913800" lon="8.1747930">
        <ele>432.8</ele>
        <time>2022-06-05T11:45:34Z</time>
      </trkpt>
      <trkpt lat="48.1913710" lon="8.1749080">
        <ele>433.2</ele>
        <time>2022-06-05T11:45:38Z</time>
      </trkpt>
      <trkpt lat="48.1913550" lon="8.1750500">
        <ele>434.0</ele>
        <time>2022-06-05T11:45:42Z</time>
      </trkpt>
      <trkpt lat="48.1913380" lon="8.1751760">
        <ele>434.6</ele>
        <time>2022-06-05T11:45:46Z</time>
      </trkpt>
      <trkpt lat="48.1913350" lon="8.1753780">
        <ele>435.0</ele>
        <time>2022-06-05T11:45:50Z</time>
      </trkpt>
      <trkpt lat="48.1912800" lon="8.1755310">
        <ele>435.6</ele>
        <time>2022-06-05T11:45:54Z</time>
      </trkpt>
      <trkpt lat="48.1912710" lon="8.1756780">
        <ele>436.4</ele>
        <time>2022-06-05T11:45:58Z</time>
      </trkpt>
      <trkpt lat="48.1912430" lon="8.1758450">
        <ele>436.8</ele>
        <time>2022-06-05T11:46:02Z</time>
      </trkpt>
      <trkpt lat="48.1912180" lon="8.1759830">
        <ele>437.0</ele>
        <time>2022-06-05T11:46:06Z</time>
      </trkpt>
      <trkpt lat="48.1911630" lon="8.1761330">
        <ele>437.2</ele>
        <time>2022-06-05T11:46:10Z</time>
      </trkpt>
      <trkpt lat="48.1911080" lon="8.1763000">
        <ele>438.0</ele>
        <time>2022-06-05T11:46:14Z</time>
      </trkpt>
      <trkpt lat="48.1910710" lon="8.1764330">
        <ele>437.8</ele>
        <time>2022-06-05T11:46:18Z</time>
      </trkpt>
      <trkpt lat="48.1910250" lon="8.1765710">
        <ele>438.6</ele>
        <time>2022-06-05T11:46:22Z</time>
      </trkpt>
      <trkpt lat="48.1909750" lon="8.1767110">
        <ele>439.6</ele>
        <time>2022-06-05T11:46:26Z</time>
      </trkpt>
      <trkpt lat="48.1908800" lon="8.1768480">
        <ele>439.6</ele>
        <time>2022-06-05T11:46:30Z</time>
      </trkpt>
      <trkpt lat="48.1908150" lon="8.1769780">
        <ele>440.4</ele>
        <time>2022-06-05T11:46:34Z</time>
      </trkpt>
      <trkpt lat="48.1907850" lon="8.1770400">
        <ele>440.6</ele>
        <time>2022-06-05T11:46:38Z</time>
      </trkpt>
      <trkpt lat="48.1906960" lon="8.1770950">
        <ele>441.2</ele>
        <time>2022-06-05T11:46:42Z</time>
      </trkpt>
      <trkpt lat="48.1906510" lon="8.1771630">
        <ele>441.8</ele>
        <time>2022-06-05T11:46:46Z</time>
      </trkpt>
      <trkpt lat="48.1905630" lon="8.1771800">
        <ele>442.0</ele>
        <time>2022-06-05T11:46:50Z</time>
      </trkpt>
      <trkpt lat="48.1904860" lon="8.1771730">
        <ele>442.8</ele>
        <time>2022-06-05T11:46:54Z</time>
      </trkpt>
      <trkpt lat="48.1904030" lon="8.1771560">
        <ele>442.8</ele>
        <time>2022-06-05T11:46:58Z</time>
      </trkpt>
      <trkpt lat="48.1903030" lon="8.1771150">
        <ele>443.6</ele>
        <time>2022-06-05T11:47:02Z</time>
      </trkpt>
      <trkpt lat="48.1902310" lon="8.1770800">
        <ele>444.0</ele>
        <time>2022-06-05T11:47:06Z</time>
      </trkpt>
      <trkpt lat="48.1901910" lon="8.1770430">
        <ele>444.4</ele>
        <time>2022-06-05T11:47:10Z</time>
      </trkpt>
      <trkpt lat="48.1901180" lon="8.1769980">
        <ele>445.0</ele>
        <time>2022-06-05T11:47:14Z</time>
      </trkpt>
      <trkpt lat="48.1900330" lon="8.1769660">
        <ele>445.0</ele>
        <time>2022-06-05T11:47:18Z</time>
      </trkpt>
      <trkpt lat="48.1899630" lon="8.1769360">
        <ele>445.6</ele>
        <time>2022-06-05T11:47:22Z</time>
      </trkpt>
      <trkpt lat="48.1898700" lon="8.1768760">
        <ele>445.6</ele>
        <time>2022-06-05T11:47:26Z</time>
      </trkpt>
      <trkpt lat="48.1897700" lon="8.1768100">
        <ele>446.0</ele>
        <time>2022-06-05T11:47:30Z</time>
      </trkpt>
      <trkpt lat="48.1896550" lon="8.1767500">
        <ele>446.4</ele>
        <time>2022-06-05T11:47:34Z</time>
      </trkpt>
      <trkpt lat="48.1894850" lon="8.1766850">
        <ele>446.2</ele>
        <time>2022-06-05T11:47:38Z</time>
      </trkpt>
      <trkpt lat="48.1893730" lon="8.1766400">
        <ele>446.6</ele>
        <time>2022-06-05T11:47:42Z</time>
      </trkpt>
      <trkpt lat="48.1892700" lon="8.1766100">
        <ele>447.2</ele>
        <time>2022-06-05T11:47:46Z</time>
      </trkpt>
      <trkpt lat="48.1891660" lon="8.1765930">
        <ele>447.0</ele>
        <time>2022-06-05T11:47:50Z</time>
      </trkpt>
      <trkpt lat="48.1890800" lon="8.1766030">
        <ele>448.0</ele>
        <time>2022-06-05T11:47:54Z</time>
      </trkpt>
      <trkpt lat="48.1889960" lon="8.1766180">
        <ele>448.0</ele>
        <time>2022-06-05T11:47:58Z</time>
      </trkpt>
      <trkpt lat="48.1889000" lon="8.1766260">
        <ele>448.2</ele>
        <time>2022-06-05T11:48:02Z</time>
      </trkpt>
      <trkpt lat="48.1888050" lon="8.1766710">
        <ele>448.6</ele>
        <time>2022-06-05T11:48:06Z</time>
      </trkpt>
      <trkpt lat="48.1887000" lon="8.1766960">
        <ele>449.2</ele>
        <time>2022-06-05T11:48:10Z</time>
      </trkpt>
      <trkpt lat="48.1886080" lon="8.1767300">
        <ele>450.4</ele>
        <time>2022-06-05T11:48:14Z</time>
      </trkpt>
      <trkpt lat="48.1884930" lon="8.1767480">
        <ele>450.0</ele>
        <time>2022-06-05T11:48:18Z</time>
      </trkpt>
      <trkpt lat="48.1884050" lon="8.1767950">
        <ele>450.8</ele>
        <time>2022-06-05T11:48:22Z</time>
      </trkpt>
      <trkpt lat="48.1883200" lon="8.1768180">
        <ele>451.2</ele>
        <time>2022-06-05T11:48:26Z</time>
      </trkpt>
      <trkpt lat="48.1882110" lon="8.1767930">
        <ele>451.8</ele>
        <time>2022-06-05T11:48:30Z</time>
      </trkpt>
      <trkpt lat="48.1880950" lon="8.1768010">
        <ele>452.6</ele>
        <time>2022-06-05T11:48:34Z</time>
      </trkpt>
      <trkpt lat="48.1879910" lon="8.1767830">
        <ele>452.8</ele>
        <time>2022-06-05T11:48:38Z</time>
      </trkpt>
      <trkpt lat="48.1879130" lon="8.1768410">
        <ele>453.0</ele>
        <time>2022-06-05T11:48:42Z</time>
      </trkpt>
      <trkpt lat="48.1878110" lon="8.1768730">
        <ele>453.2</ele>
        <time>2022-06-05T11:48:46Z</time>
      </trkpt>
      <trkpt lat="48.1877080" lon="8.1769050">
        <ele>454.0</ele>
        <time>2022-06-05T11:48:50Z</time>
      </trkpt>
      <trkpt lat="48.1876210" lon="8.1769280">
        <ele>454.2</ele>
        <time>2022-06-05T11:48:54Z</time>
      </trkpt>
      <trkpt lat="48.1875330" lon="8.1769610">
        <ele>454.4</ele>
        <time>2022-06-05T11:48:58Z</time>
      </trkpt>
      <trkpt lat="48.1874460" lon="8.1770030">
        <ele>454.8</ele>
        <time>2022-06-05T11:49:02Z</time>
      </trkpt>
      <trkpt lat="48.1873630" lon="8.1770480">
        <ele>456.0</ele>
        <time>2022-06-05T11:49:06Z</time>
      </trkpt>
      <trkpt lat="48.1872800" lon="8.1770860">
        <ele>456.4</ele>
        <time>2022-06-05T11:49:10Z</time>
      </trkpt>
      <trkpt lat="48.1872060" lon="8.1771530">
        <ele>457.0</ele>
        <time>2022-06-05T11:49:14Z</time>
      </trkpt>
      <trkpt lat="48.1871150" lon="8.1772130">
        <ele>457.4</ele>
        <time>2022-06-05T11:49:18Z</time>
      </trkpt>
      <trkpt lat="48.1870280" lon="8.1772730">
        <ele>458.0</ele>
        <time>2022-06-05T11:49:22Z</time>
      </trkpt>
      <trkpt lat="48.1869260" lon="8.1773350">
        <ele>459.0</ele>
        <time>2022-06-05T11:49:26Z</time>
      </trkpt>
      <trkpt lat="48.1868450" lon="8.1774060">
        <ele>460.2</ele>
        <time>2022-06-05T11:49:30Z</time>
      </trkpt>
      <trkpt lat="48.1867550" lon="8.1774500">
        <ele>460.8</ele>
        <time>2022-06-05T11:49:34Z</time>
      </trkpt>
      <trkpt lat="48.1866580" lon="8.1775100">
        <ele>461.6</ele>
        <time>2022-06-05T11:49:38Z</time>
      </trkpt>
      <trkpt lat="48.1865550" lon="8.1775580">
        <ele>462.8</ele>
        <time>2022-06-05T11:49:42Z</time>
      </trkpt>
      <trkpt lat="48.1864630" lon="8.1776030">
        <ele>463.4</ele>
        <time>2022-06-05T11:49:46Z</time>
      </trkpt>
      <trkpt lat="48.1863730" lon="8.1776330">
        <ele>464.0</ele>
        <time>2022-06-05T11:49:50Z</time>
      </trkpt>
      <trkpt lat="48.1862760" lon="8.1776550">
        <ele>464.8</ele>
        <time>2022-06-05T11:49:54Z</time>
      </trkpt>
      <trkpt lat="48.1861960" lon="8.1776900">
        <ele>465.2</ele>
        <time>2022-06-05T11:49:58Z</time>
      </trkpt>
      <trkpt lat="48.1861100" lon="8.1777280">
        <ele>466.0</ele>
        <time>2022-06-05T11:50:02Z</time>
      </trkpt>
      <trkpt lat="48.1859860" lon="8.1777200">
        <ele>466.4</ele>
        <time>2022-06-05T11:50:06Z</time>
      </trkpt>
      <trkpt lat="48.1858630" lon="8.1777030">
        <ele>466.6</ele>
        <time>2022-06-05T11:50:10Z</time>
      </trkpt>
      <trkpt lat="48.1857280" lon="8.1776630">
        <ele>467.2</ele>
        <time>2022-06-05T11:50:14Z</time>
      </trkpt>
      <trkpt lat="48.1856200" lon="8.1776380">
        <ele>467.2</ele>
        <time>2022-06-05T11:50:18Z</time>
      </trkpt>
      <trkpt lat="48.1855230" lon="8.1776160">
        <ele>467.4</ele>
        <time>2022-06-05T11:50:22Z</time>
      </trkpt>
      <trkpt lat="48.1854410" lon="8.1776100">
        <ele>467.8</ele>
        <time>2022-06-05T11:50:26Z</time>
      </trkpt>
      <trkpt lat="48.1853700" lon="8.1775750">
        <ele>468.4</ele>
        <time>2022-06-05T11:50:30Z</time>
      </trkpt>
      <trkpt lat="48.1852710" lon="8.1774900">
        <ele>469.0</ele>
        <time>2022-06-05T11:50:34Z</time>
      </trkpt>
      <trkpt lat="48.1851830" lon="8.1774110">
        <ele>469.4</ele>
        <time>2022-06-05T11:50:38Z</time>
      </trkpt>
      <trkpt lat="48.1851060" lon="8.1773180">
        <ele>470.2</ele>
        <time>2022-06-05T11:50:42Z</time>
      </trkpt>
      <trkpt lat="48.1850500" lon="8.1772430">
        <ele>470.4</ele>
        <time>2022-06-05T11:50:46Z</time>
      </trkpt>
      <trkpt lat="48.1849950" lon="8.1771330">
        <ele>470.6</ele>
        <time>2022-06-05T11:50:50Z</time>
      </trkpt>
      <trkpt lat="48.1849200" lon="8.1770150">
        <ele>471.2</ele>
        <time>2022-06-05T11:50:54Z</time>
      </trkpt>
      <trkpt lat="48.1848610" lon="8.1769110">
        <ele>471.8</ele>
        <time>2022-06-05T11:50:58Z</time>
      </trkpt>
      <trkpt lat="48.1847800" lon="8.1767850">
        <ele>472.4</ele>
        <time>2022-06-05T11:51:02Z</time>
      </trkpt>
      <trkpt lat="48.1847010" lon="8.1766700">
        <ele>473.0</ele>
        <time>2022-06-05T11:51:06Z</time>
      </trkpt>
      <trkpt lat="48.1846350" lon="8.1765400">
        <ele>473.4</ele>
        <time>2022-06-05T11:51:10Z</time>
      </trkpt>
      <trkpt lat="48.1846080" lon="8.1763880">
        <ele>474.2</ele>
        <time>2022-06-05T11:51:14Z</time>
      </trkpt>
      <trkpt lat="48.1846150" lon="8.1762230">
        <ele>474.6</ele>
        <time>2022-06-05T11:51:18Z</time>
      </trkpt>
      <trkpt lat="48.1846230" lon="8.1760560">
        <ele>475.6</ele>
        <time>2022-06-05T11:51:22Z</time>
      </trkpt>
      <trkpt lat="48.1846280" lon="8.1758880">
        <ele>476.4</ele>
        <time>2022-06-05T11:51:26Z</time>
      </trkpt>
      <trkpt lat="48.1846100" lon="8.1757450">
        <ele>476.8</ele>
        <time>2022-06-05T11:51:30Z</time>
      </trkpt>
      <trkpt lat="48.1845700" lon="8.1756050">
        <ele>477.6</ele>
        <time>2022-06-05T11:51:34Z</time>
      </trkpt>
      <trkpt lat="48.1845310" lon="8.1754910">
        <ele>477.6</ele>
        <time>2022-06-05T11:51:38Z</time>
      </trkpt>
      <trkpt lat="48.1844960" lon="8.1753830">
        <ele>478.0</ele>
        <time>2022-06-05T11:51:42Z</time>
      </trkpt>
      <trkpt lat="48.1844380" lon="8.1752260">
        <ele>478.2</ele>
        <time>2022-06-05T11:51:46Z</time>
      </trkpt>
      <trkpt lat="48.1843910" lon="8.1750650">
        <ele>478.8</ele>
        <time>2022-06-05T11:51:50Z</time>
      </trkpt>
      <trkpt lat="48.1843360" lon="8.1749300">
        <ele>479.0</ele>
        <time>2022-06-05T11:51:54Z</time>
      </trkpt>
      <trkpt lat="48.1842600" lon="8.1748110">
        <ele>478.6</ele>
        <time>2022-06-05T11:51:58Z</time>
      </trkpt>
      <trkpt lat="48.1841780" lon="8.1747280">
        <ele>479.6</ele>
        <time>2022-06-05T11:52:02Z</time>
      </trkpt>
      <trkpt lat="48.1840900" lon="8.1747200">
        <ele>480.4</ele>
        <time>2022-06-05T11:52:06Z</time>
      </trkpt>
      <trkpt lat="48.1840080" lon="8.1747410">
        <ele>480.6</ele>
        <time>2022-06-05T11:52:10Z</time>
      </trkpt>
      <trkpt lat="48.1839100" lon="8.1747810">
        <ele>481.2</ele>
        <time>2022-06-05T11:52:14Z</time>
      </trkpt>
      <trkpt lat="48.1838160" lon="8.1748330">
        <ele>481.6</ele>
        <time>2022-06-05T11:52:18Z</time>
      </trkpt>
      <trkpt lat="48.1837360" lon="8.1748900">
        <ele>482.2</ele>
        <time>2022-06-05T11:52:22Z</time>
      </trkpt>
      <trkpt lat="48.1836350" lon="8.1749750">
        <ele>483.2</ele>
        <time>2022-06-05T11:52:26Z</time>
      </trkpt>
      <trkpt lat="48.1835600" lon="8.1750400">
        <ele>484.0</ele>
        <time>2022-06-05T11:52:30Z</time>
      </trkpt>
      <trkpt lat="48.1834630" lon="8.1750960">
        <ele>484.6</ele>
        <time>2022-06-05T11:52:34Z</time>
      </trkpt>
      <trkpt lat="48.1833750" lon="8.1751580">
        <ele>484.8</ele>
        <time>2022-06-05T11:52:38Z</time>
      </trkpt>
      <trkpt lat="48.1832980" lon="8.1752380">
        <ele>485.4</ele>
        <time>2022-06-05T11:52:42Z</time>
      </trkpt>
      <trkpt lat="48.1832060" lon="8.1752930">
        <ele>485.6</ele>
        <time>2022-06-05T11:52:46Z</time>
      </trkpt>
      <trkpt lat="48.1831180" lon="8.1753500">
        <ele>486.0</ele>
        <time>2022-06-05T11:52:50Z</time>
      </trkpt>
      <trkpt lat="48.1830380" lon="8.1753880">
        <ele>486.6</ele>
        <time>2022-06-05T11:52:54Z</time>
      </trkpt>
      <trkpt lat="48.1829410" lon="8.1753880">
        <ele>486.8</ele>
        <time>2022-06-05T11:52:58Z</time>
      </trkpt>
      <trkpt lat="48.1828510" lon="8.1754260">
        <ele>487.8</ele>
        <time>2022-06-05T11:53:02Z</time>
      </trkpt>
      <trkpt lat="48.1827610" lon="8.1754600">
        <ele>488.6</ele>
        <time>2022-06-05T11:53:06Z</time>
      </trkpt>
      <trkpt lat="48.1826450" lon="8.1754930">
        <ele>489.0</ele>
        <time>2022-06-05T11:53:10Z</time>
      </trkpt>
      <trkpt lat="48.1825330" lon="8.1755400">
        <ele>490.0</ele>
        <time>2022-06-05T11:53:14Z</time>
      </trkpt>
      <trkpt lat="48.1824210" lon="8.1755730">
        <ele>491.0</ele>
        <time>2022-06-05T11:53:18Z</time>
      </trkpt>
      <trkpt lat="48.1822980" lon="8.1755950">
        <ele>491.4</ele>
        <time>2022-06-05T11:53:22Z</time>
      </trkpt>
      <trkpt lat="48.1821910" lon="8.1756330">
        <ele>492.4</ele>
        <time>2022-06-05T11:53:26Z</time>
      </trkpt>
      <trkpt lat="48.1821160" lon="8.1756560">
        <ele>492.2</ele>
        <time>2022-06-05T11:53:30Z</time>
      </trkpt>
      <trkpt lat="48.1820450" lon="8.1756680">
        <ele>492.8</ele>
        <time>2022-06-05T11:53:34Z</time>
      </trkpt>
      <trkpt lat="48.1819550" lon="8.1757050">
        <ele>492.8</ele>
        <time>2022-06-05T11:53:38Z</time>
      </trkpt>
      <trkpt lat="48.1818460" lon="8.1757210">
        <ele>493.6</ele>
        <time>2022-06-05T11:53:42Z</time>
      </trkpt>
      <trkpt lat="48.1817450" lon="8.1757230">
        <ele>493.8</ele>
        <time>2022-06-05T11:53:46Z</time>
      </trkpt>
      <trkpt lat="48.1816330" lon="8.1757100">
        <ele>494.0</ele>
        <time>2022-06-05T11:53:50Z</time>
      </trkpt>
      <trkpt lat="48.1815480" lon="8.1757480">
        <ele>494.4</ele>
        <time>2022-06-05T11:53:54Z</time>
      </trkpt>
      <trkpt lat="48.1814310" lon="8.1757750">
        <ele>495.0</ele>
        <time>2022-06-05T11:53:58Z</time>
      </trkpt>
      <trkpt lat="48.1813100" lon="8.1757830">
        <ele>495.2</ele>
        <time>2022-06-05T11:54:02Z</time>
      </trkpt>
      <trkpt lat="48.1811880" lon="8.1757710">
        <ele>495.8</ele>
        <time>2022-06-05T11:54:06Z</time>
      </trkpt>
      <trkpt lat="48.1810780" lon="8.1757530">
        <ele>496.2</ele>
        <time>2022-06-05T11:54:10Z</time>
      </trkpt>
      <trkpt lat="48.1809660" lon="8.1757450">
        <ele>496.0</ele>
        <time>2022-06-05T11:54:14Z</time>
      </trkpt>
      <trkpt lat="48.1808630" lon="8.1757280">
        <ele>496.2</ele>
        <time>2022-06-05T11:54:18Z</time>
      </trkpt>
      <trkpt lat="48.1807560" lon="8.1757350">
        <ele>496.4</ele>
        <time>2022-06-05T11:54:22Z</time>
      </trkpt>
      <trkpt lat="48.1806600" lon="8.1757210">
        <ele>496.6</ele>
        <time>2022-06-05T11:54:26Z</time>
      </trkpt>
      <trkpt lat="48.1805630" lon="8.1757360">
        <ele>497.0</ele>
        <time>2022-06-05T11:54:30Z</time>
      </trkpt>
      <trkpt lat="48.1804500" lon="8.1757600">
        <ele>497.6</ele>
        <time>2022-06-05T11:54:34Z</time>
      </trkpt>
      <trkpt lat="48.1803600" lon="8.1757710">
        <ele>497.8</ele>
        <time>2022-06-05T11:54:38Z</time>
      </trkpt>
      <trkpt lat="48.1802660" lon="8.1757630">
        <ele>497.8</ele>
        <time>2022-06-05T11:54:42Z</time>
      </trkpt>
      <trkpt lat="48.1801660" lon="8.1757460">
        <ele>498.8</ele>
        <time>2022-06-05T11:54:46Z</time>
      </trkpt>
      <trkpt lat="48.1800800" lon="8.1757700">
        <ele>499.0</ele>
        <time>2022-06-05T11:54:50Z</time>
      </trkpt>
      <trkpt lat="48.1800350" lon="8.1757930">
        <ele>499.4</ele>
        <time>2022-06-05T11:54:54Z</time>
      </trkpt>
      <trkpt lat="48.1799960" lon="8.1758180">
        <ele>500.0</ele>
        <time>2022-06-05T11:54:58Z</time>
      </trkpt>
      <trkpt lat="48.1799510" lon="8.1758400">
        <ele>500.0</ele>
        <time>2022-06-05T11:55:02Z</time>
      </trkpt>
      <trkpt lat="48.1798750" lon="8.1758630">
        <ele>500.4</ele>
        <time>2022-06-05T11:55:06Z</time>
      </trkpt>
      <trkpt lat="48.1798010" lon="8.1758810">
        <ele>500.4</ele>
        <time>2022-06-05T11:55:10Z</time>
      </trkpt>
      <trkpt lat="48.1797300" lon="8.1759310">
        <ele>500.8</ele>
        <time>2022-06-05T11:55:14Z</time>
      </trkpt>
      <trkpt lat="48.1796700" lon="8.1759750">
        <ele>501.2</ele>
        <time>2022-06-05T11:55:18Z</time>
      </trkpt>
      <trkpt lat="48.1796200" lon="8.1760310">
        <ele>501.8</ele>
        <time>2022-06-05T11:55:22Z</time>
      </trkpt>
      <trkpt lat="48.1795830" lon="8.1760810">
        <ele>502.0</ele>
        <time>2022-06-05T11:55:26Z</time>
      </trkpt>
      <trkpt lat="48.1795380" lon="8.1761530">
        <ele>502.0</ele>
        <time>2022-06-05T11:55:30Z</time>
      </trkpt>
      <trkpt lat="48.1795030" lon="8.1762430">
        <ele>503.0</ele>
        <time>2022-06-05T11:55:34Z</time>
      </trkpt>
      <trkpt lat="48.1794780" lon="8.1763450">
        <ele>503.2</ele>
        <time>2022-06-05T11:55:38Z</time>
      </trkpt>
      <trkpt lat="48.1794610" lon="8.1764860">
        <ele>503.4</ele>
        <time>2022-06-05T11:55:42Z</time>
      </trkpt>
      <trkpt lat="48.1794580" lon="8.1766080">
        <ele>503.6</ele>
        <time>2022-06-05T11:55:46Z</time>
      </trkpt>
      <trkpt lat="48.1794580" lon="8.1767060">
        <ele>504.4</ele>
        <time>2022-06-05T11:55:50Z</time>
      </trkpt>
      <trkpt lat="48.1794450" lon="8.1768560">
        <ele>505.2</ele>
        <time>2022-06-05T11:55:54Z</time>
      </trkpt>
      <trkpt lat="48.1794150" lon="8.1770000">
        <ele>505.6</ele>
        <time>2022-06-05T11:55:58Z</time>
      </trkpt>
      <trkpt lat="48.1794130" lon="8.1771430">
        <ele>505.6</ele>
        <time>2022-06-05T11:56:02Z</time>
      </trkpt>
      <trkpt lat="48.1794060" lon="8.1772810">
        <ele>506.4</ele>
        <time>2022-06-05T11:56:06Z</time>
      </trkpt>
      <trkpt lat="48.1794000" lon="8.1774430">
        <ele>506.0</ele>
        <time>2022-06-05T11:56:10Z</time>
      </trkpt>
      <trkpt lat="48.1793850" lon="8.1775860">
        <ele>506.4</ele>
        <time>2022-06-05T11:56:14Z</time>
      </trkpt>
      <trkpt lat="48.1793710" lon="8.1777360">
        <ele>506.4</ele>
        <time>2022-06-05T11:56:18Z</time>
      </trkpt>
      <trkpt lat="48.1793600" lon="8.1778850">
        <ele>506.8</ele>
        <time>2022-06-05T11:56:22Z</time>
      </trkpt>
      <trkpt lat="48.1793500" lon="8.1780410">
        <ele>507.2</ele>
        <time>2022-06-05T11:56:26Z</time>
      </trkpt>
      <trkpt lat="48.1793450" lon="8.1781600">
        <ele>507.4</ele>
        <time>2022-06-05T11:56:30Z</time>
      </trkpt>
      <trkpt lat="48.1793480" lon="8.1782900">
        <ele>506.8</ele>
        <time>2022-06-05T11:56:34Z</time>
      </trkpt>
      <trkpt lat="48.1793480" lon="8.1784160">
        <ele>506.8</ele>
        <time>2022-06-05T11:56:38Z</time>
      </trkpt>
      <trkpt lat="48.1793380" lon="8.1785710">
        <ele>506.8</ele>
        <time>2022-06-05T11:56:42Z</time>
      </trkpt>
      <trkpt lat="48.1793350" lon="8.1787250">
        <ele>506.4</ele>
        <time>2022-06-05T11:56:46Z</time>
      </trkpt>
      <trkpt lat="48.1793350" lon="8.1788850">
        <ele>506.6</ele>
        <time>2022-06-05T11:56:50Z</time>
      </trkpt>
      <trkpt lat="48.1793300" lon="8.1790580">
        <ele>506.2</ele>
        <time>2022-06-05T11:56:54Z</time>
      </trkpt>
      <trkpt lat="48.1793110" lon="8.1792350">
        <ele>506.0</ele>
        <time>2022-06-05T11:56:58Z</time>
      </trkpt>
      <trkpt lat="48.1792880" lon="8.1793730">
        <ele>506.2</ele>
        <time>2022-06-05T11:57:02Z</time>
      </trkpt>
      <trkpt lat="48.1792460" lon="8.1795250">
        <ele>506.0</ele>
        <time>2022-06-05T11:57:06Z</time>
      </trkpt>
      <trkpt lat="48.1791980" lon="8.1796510">
        <ele>506.0</ele>
        <time>2022-06-05T11:57:10Z</time>
      </trkpt>
      <trkpt lat="48.1791430" lon="8.1797680">
        <ele>505.6</ele>
        <time>2022-06-05T11:57:14Z</time>
      </trkpt>
      <trkpt lat="48.1791000" lon="8.1798830">
        <ele>505.4</ele>
        <time>2022-06-05T11:57:18Z</time>
      </trkpt>
      <trkpt lat="48.1790400" lon="8.1800030">
        <ele>505.4</ele>
        <time>2022-06-05T11:57:22Z</time>
      </trkpt>
      <trkpt lat="48.1789650" lon="8.1801800">
        <ele>504.4</ele>
        <time>2022-06-05T11:57:26Z</time>
      </trkpt>
      <trkpt lat="48.1788530" lon="8.1803630">
        <ele>504.0</ele>
        <time>2022-06-05T11:57:30Z</time>
      </trkpt>
      <trkpt lat="48.1787180" lon="8.1805130">
        <ele>504.2</ele>
        <time>2022-06-05T11:57:34Z</time>
      </trkpt>
      <trkpt lat="48.1785950" lon="8.1806480">
        <ele>504.2</ele>
        <time>2022-06-05T11:57:38Z</time>
      </trkpt>
      <trkpt lat="48.1784760" lon="8.1807750">
        <ele>504.4</ele>
        <time>2022-06-05T11:57:42Z</time>
      </trkpt>
      <trkpt lat="48.1783550" lon="8.1809130">
        <ele>504.2</ele>
        <time>2022-06-05T11:57:46Z</time>
      </trkpt>
      <trkpt lat="48.1782330" lon="8.1810430">
        <ele>503.6</ele>
        <time>2022-06-05T11:57:50Z</time>
      </trkpt>
      <trkpt lat="48.1781050" lon="8.1811610">
        <ele>502.6</ele>
        <time>2022-06-05T11:57:54Z</time>
      </trkpt>
      <trkpt lat="48.1779660" lon="8.1812450">
        <ele>503.6</ele>
        <time>2022-06-05T11:57:58Z</time>
      </trkpt>
      <trkpt lat="48.1778250" lon="8.1812650">
        <ele>503.2</ele>
        <time>2022-06-05T11:58:02Z</time>
      </trkpt>
      <trkpt lat="48.1776780" lon="8.1812200">
        <ele>503.4</ele>
        <time>2022-06-05T11:58:06Z</time>
      </trkpt>
      <trkpt lat="48.1775350" lon="8.1811380">
        <ele>502.6</ele>
        <time>2022-06-05T11:58:10Z</time>
      </trkpt>
      <trkpt lat="48.1773930" lon="8.1810530">
        <ele>501.4</ele>
        <time>2022-06-05T11:58:14Z</time>
      </trkpt>
      <trkpt lat="48.1772350" lon="8.1809650">
        <ele>502.0</ele>
        <time>2022-06-05T11:58:18Z</time>
      </trkpt>
      <trkpt lat="48.1770580" lon="8.1809100">
        <ele>502.6</ele>
        <time>2022-06-05T11:58:22Z</time>
      </trkpt>
      <trkpt lat="48.1768660" lon="8.1809460">
        <ele>502.2</ele>
        <time>2022-06-05T11:58:26Z</time>
      </trkpt>
      <trkpt lat="48.1766900" lon="8.1810660">
        <ele>502.6</ele>
        <time>2022-06-05T11:58:30Z</time>
      </trkpt>
      <trkpt lat="48.1765210" lon="8.1812180">
        <ele>502.0</ele>
        <time>2022-06-05T11:58:34Z</time>
      </trkpt>
      <trkpt lat="48.1763550" lon="8.1813580">
        <ele>501.8</ele>
        <time>2022-06-05T11:58:38Z</time>
      </trkpt>
      <trkpt lat="48.1761750" lon="8.1814580">
        <ele>501.2</ele>
        <time>2022-06-05T11:58:42Z</time>
      </trkpt>
      <trkpt lat="48.1759930" lon="8.1815450">
        <ele>500.8</ele>
        <time>2022-06-05T11:58:46Z</time>
      </trkpt>
      <trkpt lat="48.1758080" lon="8.1816030">
        <ele>501.4</ele>
        <time>2022-06-05T11:58:50Z</time>
      </trkpt>
      <trkpt lat="48.1756180" lon="8.1816300">
        <ele>500.4</ele>
        <time>2022-06-05T11:58:54Z</time>
      </trkpt>
      <trkpt lat="48.1754360" lon="8.1816260">
        <ele>499.2</ele>
        <time>2022-06-05T11:58:58Z</time>
      </trkpt>
      <trkpt lat="48.1752700" lon="8.1815860">
        <ele>500.2</ele>
        <time>2022-06-05T11:59:02Z</time>
      </trkpt>
      <trkpt lat="48.1751200" lon="8.1815250">
        <ele>500.6</ele>
        <time>2022-06-05T11:59:06Z</time>
      </trkpt>
      <trkpt lat="48.1749760" lon="8.1814430">
        <ele>500.4</ele>
        <time>2022-06-05T11:59:10Z</time>
      </trkpt>
      <trkpt lat="48.1748260" lon="8.1813480">
        <ele>500.2</ele>
        <time>2022-06-05T11:59:14Z</time>
      </trkpt>
      <trkpt lat="48.1746730" lon="8.1812480">
        <ele>500.4</ele>
        <time>2022-06-05T11:59:18Z</time>
      </trkpt>
      <trkpt lat="48.1745050" lon="8.1811580">
        <ele>500.2</ele>
        <time>2022-06-05T11:59:22Z</time>
      </trkpt>
      <trkpt lat="48.1743400" lon="8.1810760">
        <ele>498.8</ele>
        <time>2022-06-05T11:59:26Z</time>
      </trkpt>
      <trkpt lat="48.1741750" lon="8.1810100">
        <ele>498.8</ele>
        <time>2022-06-05T11:59:30Z</time>
      </trkpt>
      <trkpt lat="48.1740100" lon="8.1809410">
        <ele>499.2</ele>
        <time>2022-06-05T11:59:34Z</time>
      </trkpt>
      <trkpt lat="48.1738460" lon="8.1808760">
        <ele>497.4</ele>
        <time>2022-06-05T11:59:38Z</time>
      </trkpt>
      <trkpt lat="48.1736880" lon="8.1808000">
        <ele>497.4</ele>
        <time>2022-06-05T11:59:42Z</time>
      </trkpt>
      <trkpt lat="48.1735200" lon="8.1807230">
        <ele>498.0</ele>
        <time>2022-06-05T11:59:46Z</time>
      </trkpt>
      <trkpt lat="48.1733550" lon="8.1806510">
        <ele>497.2</ele>
        <time>2022-06-05T11:59:50Z</time>
      </trkpt>
      <trkpt lat="48.1732030" lon="8.1806080">
        <ele>498.2</ele>
        <time>2022-06-05T11:59:54Z</time>
      </trkpt>
      <trkpt lat="48.1730630" lon="8.1805880">
        <ele>498.8</ele>
        <time>2022-06-05T11:59:58Z</time>
      </trkpt>
      <trkpt lat="48.1729160" lon="8.1805900">
        <ele>497.8</ele>
        <time>2022-06-05T12:00:02Z</time>
      </trkpt>
      <trkpt lat="48.1727650" lon="8.1806160">
        <ele>499.0</ele>
        <time>2022-06-05T12:00:06Z</time>
      </trkpt>
      <trkpt lat="48.1726210" lon="8.1806500">
        <ele>499.8</ele>
        <time>2022-06-05T12:00:10Z</time>
      </trkpt>
      <trkpt lat="48.1724830" lon="8.1807030">
        <ele>500.0</ele>
        <time>2022-06-05T12:00:14Z</time>
      </trkpt>
      <trkpt lat="48.1723600" lon="8.1807500">
        <ele>500.0</ele>
        <time>2022-06-05T12:00:18Z</time>
      </trkpt>
      <trkpt lat="48.1722500" lon="8.1808330">
        <ele>499.8</ele>
        <time>2022-06-05T12:00:22Z</time>
      </trkpt>
      <trkpt lat="48.1721580" lon="8.1809330">
        <ele>500.4</ele>
        <time>2022-06-05T12:00:26Z</time>
      </trkpt>
      <trkpt lat="48.1720580" lon="8.1810160">
        <ele>500.8</ele>
        <time>2022-06-05T12:00:30Z</time>
      </trkpt>
      <trkpt lat="48.1719550" lon="8.1811010">
        <ele>501.2</ele>
        <time>2022-06-05T12:00:34Z</time>
      </trkpt>
      <trkpt lat="48.1718530" lon="8.1811800">
        <ele>501.8</ele>
        <time>2022-06-05T12:00:38Z</time>
      </trkpt>
      <trkpt lat="48.1717460" lon="8.1812460">
        <ele>501.6</ele>
        <time>2022-06-05T12:00:42Z</time>
      </trkpt>
      <trkpt lat="48.1716410" lon="8.1813080">
        <ele>502.2</ele>
        <time>2022-06-05T12:00:46Z</time>
      </trkpt>
      <trkpt lat="48.1715380" lon="8.1813710">
        <ele>502.2</ele>
        <time>2022-06-05T12:00:50Z</time>
      </trkpt>
      <trkpt lat="48.1714330" lon="8.1814260">
        <ele>502.2</ele>
        <time>2022-06-05T12:00:54Z</time>
      </trkpt>
      <trkpt lat="48.1713300" lon="8.1814750">
        <ele>503.8</ele>
        <time>2022-06-05T12:00:58Z</time>
      </trkpt>
      <trkpt lat="48.1712280" lon="8.1815260">
        <ele>503.0</ele>
        <time>2022-06-05T12:01:02Z</time>
      </trkpt>
      <trkpt lat="48.1711280" lon="8.1815750">
        <ele>503.6</ele>
        <time>2022-06-05T12:01:06Z</time>
      </trkpt>
      <trkpt lat="48.1710330" lon="8.1816180">
        <ele>504.6</ele>
        <time>2022-06-05T12:01:10Z</time>
      </trkpt>
      <trkpt lat="48.1709400" lon="8.1816610">
        <ele>505.8</ele>
        <time>2022-06-05T12:01:14Z</time>
      </trkpt>
      <trkpt lat="48.1708660" lon="8.1817030">
        <ele>506.8</ele>
        <time>2022-06-05T12:01:18Z</time>
      </trkpt>
      <trkpt lat="48.1708000" lon="8.1817510">
        <ele>507.4</ele>
        <time>2022-06-05T12:01:22Z</time>
      </trkpt>
      <trkpt lat="48.1707110" lon="8.1818010">
        <ele>507.4</ele>
        <time>2022-06-05T12:01:26Z</time>
      </trkpt>
      <trkpt lat="48.1706280" lon="8.1818780">
        <ele>508.2</ele>
        <time>2022-06-05T12:01:30Z</time>
      </trkpt>
      <trkpt lat="48.1705550" lon="8.1819560">
        <ele>509.4</ele>
        <time>2022-06-05T12:01:34Z</time>
      </trkpt>
      <trkpt lat="48.1704830" lon="8.1820400">
        <ele>510.2</ele>
        <time>2022-06-05T12:01:38Z</time>
      </trkpt>
      <trkpt lat="48.1704180" lon="8.1821330">
        <ele>510.6</ele>
        <time>2022-06-05T12:01:42Z</time>
      </trkpt>
      <trkpt lat="48.1703700" lon="8.1822450">
        <ele>512.0</ele>
        <time>2022-06-05T12:01:46Z</time>
      </trkpt>
      <trkpt lat="48.1703230" lon="8.1823630">
        <ele>512.2</ele>
        <time>2022-06-05T12:01:50Z</time>
      </trkpt>
      <trkpt lat="48.1702760" lon="8.1824750">
        <ele>513.2</ele>
        <time>2022-06-05T12:01:54Z</time>
      </trkpt>
      <trkpt lat="48.1702380" lon="8.1825880">
        <ele>514.0</ele>
        <time>2022-06-05T12:01:58Z</time>
      </trkpt>
      <trkpt lat="48.1702000" lon="8.1827080">
        <ele>515.6</ele>
        <time>2022-06-05T12:02:02Z</time>
      </trkpt>
      <trkpt lat="48.1701660" lon="8.1828260">
        <ele>516.0</ele>
        <time>2022-06-05T12:02:06Z</time>
      </trkpt>
      <trkpt lat="48.1701300" lon="8.1829350">
        <ele>516.8</ele>
        <time>2022-06-05T12:02:10Z</time>
      </trkpt>
      <trkpt lat="48.1700860" lon="8.1830450">
        <ele>516.8</ele>
        <time>2022-06-05T12:02:14Z</time>
      </trkpt>
      <trkpt lat="48.1700410" lon="8.1831480">
        <ele>517.8</ele>
        <time>2022-06-05T12:02:18Z</time>
      </trkpt>
      <trkpt lat="48.1699950" lon="8.1832480">
        <ele>518.2</ele>
        <time>2022-06-05T12:02:22Z</time>
      </trkpt>
      <trkpt lat="48.1699510" lon="8.1833410">
        <ele>518.4</ele>
        <time>2022-06-05T12:02:26Z</time>
      </trkpt>
      <trkpt lat="48.1699010" lon="8.1834300">
        <ele>518.8</ele>
        <time>2022-06-05T12:02:30Z</time>
      </trkpt>
      <trkpt lat="48.1698480" lon="8.1835200">
        <ele>519.6</ele>
        <time>2022-06-05T12:02:34Z</time>
      </trkpt>
      <trkpt lat="48.1697910" lon="8.1836030">
        <ele>520.6</ele>
        <time>2022-06-05T12:02:38Z</time>
      </trkpt>
      <trkpt lat="48.1697350" lon="8.1836800">
        <ele>521.2</ele>
        <time>2022-06-05T12:02:42Z</time>
      </trkpt>
      <trkpt lat="48.1696710" lon="8.1837480">
        <ele>522.0</ele>
        <time>2022-06-05T12:02:46Z</time>
      </trkpt>
      <trkpt lat="48.1696100" lon="8.1838180">
        <ele>522.4</ele>
        <time>2022-06-05T12:02:50Z</time>
      </trkpt>
      <trkpt lat="48.1695480" lon="8.1838900">
        <ele>523.0</ele>
        <time>2022-06-05T12:02:54Z</time>
      </trkpt>
      <trkpt lat="48.1694850" lon="8.1839610">
        <ele>523.6</ele>
        <time>2022-06-05T12:02:58Z</time>
      </trkpt>
      <trkpt lat="48.1694200" lon="8.1840260">
        <ele>524.0</ele>
        <time>2022-06-05T12:03:02Z</time>
      </trkpt>
      <trkpt lat="48.1693630" lon="8.1840930">
        <ele>524.8</ele>
        <time>2022-06-05T12:03:06Z</time>
      </trkpt>
      <trkpt lat="48.1693050" lon="8.1841530">
        <ele>525.4</ele>
        <time>2022-06-05T12:03:10Z</time>
      </trkpt>
      <trkpt lat="48.1692430" lon="8.1842180">
        <ele>526.2</ele>
        <time>2022-06-05T12:03:14Z</time>
      </trkpt>
      <trkpt lat="48.1691850" lon="8.1842850">
        <ele>527.0</ele>
        <time>2022-06-05T12:03:18Z</time>
      </trkpt>
      <trkpt lat="48.1691480" lon="8.1843510">
        <ele>528.2</ele>
        <time>2022-06-05T12:03:22Z</time>
      </trkpt>
      <trkpt lat="48.1690830" lon="8.1844060">
        <ele>529.0</ele>
        <time>2022-06-05T12:03:26Z</time>
      </trkpt>
      <trkpt lat="48.1690180" lon="8.1844930">
        <ele>529.6</ele>
        <time>2022-06-05T12:03:30Z</time>
      </trkpt>
      <trkpt lat="48.1689580" lon="8.1845610">
        <ele>530.0</ele>
        <time>2022-06-05T12:03:34Z</time>
      </trkpt>
      <trkpt lat="48.1688880" lon="8.1846280">
        <ele>530.6</ele>
        <time>2022-06-05T12:03:38Z</time>
      </trkpt>
      <trkpt lat="48.1688130" lon="8.1846860">
        <ele>531.4</ele>
        <time>2022-06-05T12:03:42Z</time>
      </trkpt>
      <trkpt lat="48.1687380" lon="8.1847660">
        <ele>532.0</ele>
        <time>2022-06-05T12:03:46Z</time>
      </trkpt>
      <trkpt lat="48.1686600" lon="8.1848260">
        <ele>533.4</ele>
        <time>2022-06-05T12:03:50Z</time>
      </trkpt>
      <trkpt lat="48.1685780" lon="8.1848930">
        <ele>533.8</ele>
        <time>2022-06-05T12:03:54Z</time>
      </trkpt>
      <trkpt lat="48.1685010" lon="8.1849580">
        <ele>534.4</ele>
        <time>2022-06-05T12:03:58Z</time>
      </trkpt>
      <trkpt lat="48.1684260" lon="8.1850210">
        <ele>536.0</ele>
        <time>2022-06-05T12:04:02Z</time>
      </trkpt>
      <trkpt lat="48.1683450" lon="8.1850700">
        <ele>536.4</ele>
        <time>2022-06-05T12:04:06Z</time>
      </trkpt>
      <trkpt lat="48.1682610" lon="8.1851180">
        <ele>536.8</ele>
        <time>2022-06-05T12:04:10Z</time>
      </trkpt>
      <trkpt lat="48.1681780" lon="8.1851730">
        <ele>537.6</ele>
        <time>2022-06-05T12:04:14Z</time>
      </trkpt>
      <trkpt lat="48.1681000" lon="8.1852350">
        <ele>538.2</ele>
        <time>2022-06-05T12:04:18Z</time>
      </trkpt>
      <trkpt lat="48.1680110" lon="8.1852750">
        <ele>539.0</ele>
        <time>2022-06-05T12:04:22Z</time>
      </trkpt>
      <trkpt lat="48.1679260" lon="8.1853100">
        <ele>539.8</ele>
        <time>2022-06-05T12:04:26Z</time>
      </trkpt>
      <trkpt lat="48.1678400" lon="8.1853800">
        <ele>540.4</ele>
        <time>2022-06-05T12:04:30Z</time>
      </trkpt>
      <trkpt lat="48.1677510" lon="8.1854360">
        <ele>541.2</ele>
        <time>2022-06-05T12:04:34Z</time>
      </trkpt>
      <trkpt lat="48.1676580" lon="8.1854930">
        <ele>541.8</ele>
        <time>2022-06-05T12:04:38Z</time>
      </trkpt>
      <trkpt lat="48.1675680" lon="8.1855600">
        <ele>542.4</ele>
        <time>2022-06-05T12:04:42Z</time>
      </trkpt>
      <trkpt lat="48.1674650" lon="8.1855960">
        <ele>542.6</ele>
        <time>2022-06-05T12:04:46Z</time>
      </trkpt>
      <trkpt lat="48.1673700" lon="8.1856600">
        <ele>542.6</ele>
        <time>2022-06-05T12:04:50Z</time>
      </trkpt>
      <trkpt lat="48.1672560" lon="8.1857210">
        <ele>543.0</ele>
        <time>2022-06-05T12:04:54Z</time>
      </trkpt>
      <trkpt lat="48.1671210" lon="8.1857910">
        <ele>543.2</ele>
        <time>2022-06-05T12:04:58Z</time>
      </trkpt>
      <trkpt lat="48.1669900" lon="8.1858380">
        <ele>542.8</ele>
        <time>2022-06-05T12:05:02Z</time>
      </trkpt>
      <trkpt lat="48.1668600" lon="8.1858450">
        <ele>543.0</ele>
        <time>2022-06-05T12:05:06Z</time>
      </trkpt>
      <trkpt lat="48.1667260" lon="8.1858530">
        <ele>543.4</ele>
        <time>2022-06-05T12:05:10Z</time>
      </trkpt>
      <trkpt lat="48.1665930" lon="8.1858380">
        <ele>544.0</ele>
        <time>2022-06-05T12:05:14Z</time>
      </trkpt>
      <trkpt lat="48.1664610" lon="8.1858480">
        <ele>544.0</ele>
        <time>2022-06-05T12:05:18Z</time>
      </trkpt>
      <trkpt lat="48.1663310" lon="8.1858780">
        <ele>544.2</ele>
        <time>2022-06-05T12:05:22Z</time>
      </trkpt>
      <trkpt lat="48.1662110" lon="8.1859350">
        <ele>544.0</ele>
        <time>2022-06-05T12:05:26Z</time>
      </trkpt>
      <trkpt lat="48.1661000" lon="8.1860180">
        <ele>544.2</ele>
        <time>2022-06-05T12:05:30Z</time>
      </trkpt>
      <trkpt lat="48.1659950" lon="8.1860930">
        <ele>544.6</ele>
        <time>2022-06-05T12:05:34Z</time>
      </trkpt>
      <trkpt lat="48.1659060" lon="8.1861730">
        <ele>544.8</ele>
        <time>2022-06-05T12:05:38Z</time>
      </trkpt>
      <trkpt lat="48.1658200" lon="8.1862700">
        <ele>545.4</ele>
        <time>2022-06-05T12:05:42Z</time>
      </trkpt>
      <trkpt lat="48.1657230" lon="8.1863550">
        <ele>545.6</ele>
        <time>2022-06-05T12:05:46Z</time>
      </trkpt>
      <trkpt lat="48.1656230" lon="8.1864310">
        <ele>546.2</ele>
        <time>2022-06-05T12:05:50Z</time>
      </trkpt>
      <trkpt lat="48.1655310" lon="8.1865280">
        <ele>546.6</ele>
        <time>2022-06-05T12:05:54Z</time>
      </trkpt>
      <trkpt lat="48.1654530" lon="8.1866260">
        <ele>547.2</ele>
        <time>2022-06-05T12:05:58Z</time>
      </trkpt>
      <trkpt lat="48.1653860" lon="8.1867250">
        <ele>547.0</ele>
        <time>2022-06-05T12:06:02Z</time>
      </trkpt>
      <trkpt lat="48.1653860" lon="8.1867250">
        <ele>547.4</ele>
        <time>2022-06-05T12:06:06Z</time>
      </trkpt>
      <trkpt lat="48.1653560" lon="8.1867880">
        <ele>547.0</ele>
        <time>2022-06-05T12:06:10Z</time>
      </trkpt>
      <trkpt lat="48.1653560" lon="8.1867880">
        <ele>547.6</ele>
        <time>2022-06-05T12:06:14Z</time>
      </trkpt>
      <trkpt lat="48.1653650" lon="8.1868100">
        <ele>548.2</ele>
        <time>2022-06-05T12:06:18Z</time>
      </trkpt>
      <trkpt lat="48.1653650" lon="8.1868100">
        <ele>547.6</ele>
        <time>2022-06-05T12:06:22Z</time>
      </trkpt>
      <trkpt lat="48.1653650" lon="8.1868100">
        <ele>547.4</ele>
        <time>2022-06-05T12:06:26Z</time>
      </trkpt>
      <trkpt lat="48.1653650" lon="8.1868100">
        <ele>547.2</ele>
        <time>2022-06-05T12:06:30Z</time>
      </trkpt>
      <trkpt lat="48.1653650" lon="8.1868100">
        <ele>547.4</ele>
        <time>2022-06-05T12:06:34Z</time>
      </trkpt>
      <trkpt lat="48.1653650" lon="8.1868100">
        <ele>547.6</ele>
        <time>2022-06-05T12:06:38Z</time>
      </trkpt>
      <trkpt lat="48.1653650" lon="8.1868100">
        <ele>547.8</ele>
        <time>2022-06-05T12:06:42Z</time>
      </trkpt>
      <trkpt lat="48.1653650" lon="8.1868100">
        <ele>547.2</ele>
        <time>2022-06-05T12:06:46Z</time>
      </trkpt>
      <trkpt lat="48.1653650" lon="8.1868100">
        <ele>547.4</ele>
        <time>2022-06-05T12:06:50Z</time>
      </trkpt>
      <trkpt lat="48.1653650" lon="8.1868100">
        <ele>547.6</ele>
        <time>2022-06-05T12:06:54Z</time>
      </trkpt>
      <trkpt lat="48.1653650" lon="8.1868100">
        <ele>547.6</ele>
        <time>2022-06-05T12:06:58Z</time>
      </trkpt>
      <trkpt lat="48.1653650" lon="8.1868100">
        <ele>548.0</ele>
        <time>2022-06-05T12:07:02Z</time>
      </trkpt>
      <trkpt lat="48.1653650" lon="8.1868100">
        <ele>547.6</ele>
        <time>2022-06-05T12:07:06Z</time>
      </trkpt>
      <trkpt lat="48.1653650" lon="8.1868100">
        <ele>547.6</ele>
        <time>2022-06-05T12:07:10Z</time>
      </trkpt>
      <trkpt lat="48.1653650" lon="8.1868100">
        <ele>547.6</ele>
        <time>2022-06-05T12:07:14Z</time>
      </trkpt>
      <trkpt lat="48.1653650" lon="8.1868100">
        <ele>547.4</ele>
        <time>2022-06-05T12:07:18Z</time>
      </trkpt>
      <trkpt lat="48.1653650" lon="8.1868100">
        <ele>547.4</ele>
        <time>2022-06-05T12:07:22Z</time>
      </trkpt>
      <trkpt lat="48.1653650" lon="8.1868100">
        <ele>547.4</ele>
        <time>2022-06-05T12:07:26Z</time>
      </trkpt>
      <trkpt lat="48.1653650" lon="8.1868100">
        <ele>547.6</ele>
        <time>2022-06-05T12:07:30Z</time>
      </trkpt>
      <trkpt lat="48.1653650" lon="8.1868100">
        <ele>547.6</ele>
        <time>2022-06-05T12:07:34Z</time>
      </trkpt>
      <trkpt lat="48.1653650" lon="8.1868100">
        <ele>547.6</ele>
        <time>2022-06-05T12:07:38Z</time>
      </trkpt>
      <trkpt lat="48.1653650" lon="8.1868100">
        <ele>547.8</ele>
        <time>2022-06-05T12:07:42Z</time>
      </trkpt>
      <trkpt lat="48.1653650" lon="8.1868100">
        <ele>547.6</ele>
        <time>2022-06-05T12:07:46Z</time>
      </trkpt>
      <trkpt lat="48.1653650" lon="8.1868100">
        <ele>547.4</ele>
        <time>2022-06-05T12:07:50Z</time>
      </trkpt>
      <trkpt lat="48.1653650" lon="8.1868100">
        <ele>547.2</ele>
        <time>2022-06-05T12:07:54Z</time>
      </trkpt>
      <trkpt lat="48.1653650" lon="8.1868100">
        <ele>547.4</ele>
        <time>2022-06-05T12:07:58Z</time>
      </trkpt>
      <trkpt lat="48.1653650" lon="8.1868100">
        <ele>547.0</ele>
        <time>2022-06-05T12:08:02Z</time>
      </trkpt>
      <trkpt lat="48.1653650" lon="8.1868100">
        <ele>548.0</ele>
        <time>2022-06-05T12:08:06Z</time>
      </trkpt>
      <trkpt lat="48.1653650" lon="8.1868100">
        <ele>547.8</ele>
        <time>2022-06-05T12:08:10Z</time>
      </trkpt>
      <trkpt lat="48.1653650" lon="8.1868100">
        <ele>547.4</ele>
        <time>2022-06-05T12:08:14Z</time>
      </trkpt>
      <trkpt lat="48.1653650" lon="8.1868100">
        <ele>547.8</ele>
        <time>2022-06-05T12:08:18Z</time>
      </trkpt>
      <trkpt lat="48.1653650" lon="8.1868100">
        <ele>547.6</ele>
        <time>2022-06-05T12:08:22Z</time>
      </trkpt>
      <trkpt lat="48.1653650" lon="8.1868100">
        <ele>547.8</ele>
        <time>2022-06-05T12:08:26Z</time>
      </trkpt>
      <trkpt lat="48.1653650" lon="8.1868100">
        <ele>548.0</ele>
        <time>2022-06-05T12:08:30Z</time>
      </trkpt>
      <trkpt lat="48.1653650" lon="8.1868100">
        <ele>547.6</ele>
        <time>2022-06-05T12:08:34Z</time>
      </trkpt>
      <trkpt lat="48.1653650" lon="8.1868100">
        <ele>547.6</ele>
        <time>2022-06-05T12:08:38Z</time>
      </trkpt>
      <trkpt lat="48.1653650" lon="8.1868100">
        <ele>547.6</ele>
        <time>2022-06-05T12:08:42Z</time>
      </trkpt>
      <trkpt lat="48.1653650" lon="8.1868100">
        <ele>547.6</ele>
        <time>2022-06-05T12:08:46Z</time>
      </trkpt>
      <trkpt lat="48.1653650" lon="8.1868100">
        <ele>547.2</ele>
        <time>2022-06-05T12:08:50Z</time>
      </trkpt>
      <trkpt lat="48.1653650" lon="8.1868100">
        <ele>547.2</ele>
        <time>2022-06-05T12:08:54Z</time>
      </trkpt>
      <trkpt lat="48.1653650" lon="8.1868100">
        <ele>547.0</ele>
        <time>2022-06-05T12:08:58Z</time>
      </trkpt>
      <trkpt lat="48.1653650" lon="8.1868100">
        <ele>547.8</ele>
        <time>2022-06-05T12:09:02Z</time>
      </trkpt>
      <trkpt lat="48.1653650" lon="8.1868100">
        <ele>547.8</ele>
        <time>2022-06-05T12:09:06Z</time>
      </trkpt>
      <trkpt lat="48.1653650" lon="8.1868100">
        <ele>547.8</ele>
        <time>2022-06-05T12:09:10Z</time>
      </trkpt>
      <trkpt lat="48.1653650" lon="8.1868100">
        <ele>547.6</ele>
        <time>2022-06-05T12:09:14Z</time>
      </trkpt>
      <trkpt lat="48.1653650" lon="8.1868100">
        <ele>547.8</ele>
        <time>2022-06-05T12:09:18Z</time>
      </trkpt>
      <trkpt lat="48.1653650" lon="8.1868100">
        <ele>548.0</ele>
        <time>2022-06-05T12:09:22Z</time>
      </trkpt>
      <trkpt lat="48.1653650" lon="8.1868100">
        <ele>547.2</ele>
        <time>2022-06-05T12:09:26Z</time>
      </trkpt>
      <trkpt lat="48.1653650" lon="8.1868100">
        <ele>547.0</ele>
        <time>2022-06-05T12:09:30Z</time>
      </trkpt>
      <trkpt lat="48.1653650" lon="8.1868100">
        <ele>547.2</ele>
        <time>2022-06-05T12:09:34Z</time>
      </trkpt>
      <trkpt lat="48.1653650" lon="8.1868100">
        <ele>547.6</ele>
        <time>2022-06-05T12:09:38Z</time>
      </trkpt>
      <trkpt lat="48.1653600" lon="8.1867480">
        <ele>547.2</ele>
        <time>2022-06-05T12:09:42Z</time>
      </trkpt>
      <trkpt lat="48.1653600" lon="8.1867480">
        <ele>548.0</ele>
        <time>2022-06-05T12:09:46Z</time>
      </trkpt>
      <trkpt lat="48.1653430" lon="8.1867600">
        <ele>547.6</ele>
        <time>2022-06-05T12:09:50Z</time>
      </trkpt>
      <trkpt lat="48.1653430" lon="8.1867600">
        <ele>547.6</ele>
        <time>2022-06-05T12:09:54Z</time>
      </trkpt>
      <trkpt lat="48.1653180" lon="8.1867710">
        <ele>547.4</ele>
        <time>2022-06-05T12:09:58Z</time>
      </trkpt>
      <trkpt lat="48.1652630" lon="8.1868130">
        <ele>547.8</ele>
        <time>2022-06-05T12:10:02Z</time>
      </trkpt>
      <trkpt lat="48.1651480" lon="8.1868510">
        <ele>548.0</ele>
        <time>2022-06-05T12:10:06Z</time>
      </trkpt>
      <trkpt lat="48.1650580" lon="8.1869200">
        <ele>548.4</ele>
        <time>2022-06-05T12:10:10Z</time>
      </trkpt>
      <trkpt lat="48.1649650" lon="8.1869830">
        <ele>548.8</ele>
        <time>2022-06-05T12:10:14Z</time>
      </trkpt>
      <trkpt lat="48.1648600" lon="8.1870430">
        <ele>549.2</ele>
        <time>2022-06-05T12:10:18Z</time>
      </trkpt>
      <trkpt lat="48.1647350" lon="8.1870950">
        <ele>549.0</ele>
        <time>2022-06-05T12:10:22Z</time>
      </trkpt>
      <trkpt lat="48.1646060" lon="8.1871360">
        <ele>549.0</ele>
        <time>2022-06-05T12:10:26Z</time>
      </trkpt>
      <trkpt lat="48.1644750" lon="8.1871580">
        <ele>548.8</ele>
        <time>2022-06-05T12:10:30Z</time>
      </trkpt>
      <trkpt lat="48.1643480" lon="8.1871750">
        <ele>548.8</ele>
        <time>2022-06-05T12:10:34Z</time>
      </trkpt>
      <trkpt lat="48.1642080" lon="8.1871580">
        <ele>549.0</ele>
        <time>2022-06-05T12:10:38Z</time>
      </trkpt>
      <trkpt lat="48.1640610" lon="8.1871430">
        <ele>549.2</ele>
        <time>2022-06-05T12:10:42Z</time>
      </trkpt>
      <trkpt lat="48.1639050" lon="8.1871330">
        <ele>549.6</ele>
        <time>2022-06-05T12:10:46Z</time>
      </trkpt>
      <trkpt lat="48.1637500" lon="8.1871050">
        <ele>549.4</ele>
        <time>2022-06-05T12:10:50Z</time>
      </trkpt>
      <trkpt lat="48.1635900" lon="8.1871000">
        <ele>549.4</ele>
        <time>2022-06-05T12:10:54Z</time>
      </trkpt>
      <trkpt lat="48.1634310" lon="8.1870760">
        <ele>550.0</ele>
        <time>2022-06-05T12:10:58Z</time>
      </trkpt>
      <trkpt lat="48.1632760" lon="8.1870550">
        <ele>549.8</ele>
        <time>2022-06-05T12:11:02Z</time>
      </trkpt>
      <trkpt lat="48.1631150" lon="8.1870530">
        <ele>550.0</ele>
        <time>2022-06-05T12:11:06Z</time>
      </trkpt>
      <trkpt lat="48.1629710" lon="8.1870400">
        <ele>549.4</ele>
        <time>2022-06-05T12:11:10Z</time>
      </trkpt>
      <trkpt lat="48.1628410" lon="8.1870200">
        <ele>549.8</ele>
        <time>2022-06-05T12:11:14Z</time>
      </trkpt>
      <trkpt lat="48.1627330" lon="8.1869260">
        <ele>550.4</ele>
        <time>2022-06-05T12:11:18Z</time>
      </trkpt>
      <trkpt lat="48.1626180" lon="8.1867710">
        <ele>549.8</ele>
        <time>2022-06-05T12:11:22Z</time>
      </trkpt>
      <trkpt lat="48.1625100" lon="8.1866130">
        <ele>550.4</ele>
        <time>2022-06-05T12:11:26Z</time>
      </trkpt>
      <trkpt lat="48.1624030" lon="8.1864480">
        <ele>550.6</ele>
        <time>2022-06-05T12:11:30Z</time>
      </trkpt>
      <trkpt lat="48.1622880" lon="8.1862810">
        <ele>550.4</ele>
        <time>2022-06-05T12:11:34Z</time>
      </trkpt>
      <trkpt lat="48.1621580" lon="8.1861200">
        <ele>550.0</ele>
        <time>2022-06-05T12:11:38Z</time>
      </trkpt>
      <trkpt lat="48.1620210" lon="8.1859580">
        <ele>550.8</ele>
        <time>2022-06-05T12:11:42Z</time>
      </trkpt>
      <trkpt lat="48.1618800" lon="8.1857880">
        <ele>550.6</ele>
        <time>2022-06-05T12:11:46Z</time>
      </trkpt>
      <trkpt lat="48.1617330" lon="8.1856300">
        <ele>550.4</ele>
        <time>2022-06-05T12:11:50Z</time>
      </trkpt>
      <trkpt lat="48.1615760" lon="8.1854730">
        <ele>550.4</ele>
        <time>2022-06-05T12:11:54Z</time>
      </trkpt>
      <trkpt lat="48.1614030" lon="8.1853500">
        <ele>550.4</ele>
        <time>2022-06-05T12:11:58Z</time>
      </trkpt>
      <trkpt lat="48.1612280" lon="8.1852550">
        <ele>550.4</ele>
        <time>2022-06-05T12:12:02Z</time>
      </trkpt>
      <trkpt lat="48.1610460" lon="8.1851900">
        <ele>551.0</ele>
        <time>2022-06-05T12:12:06Z</time>
      </trkpt>
      <trkpt lat="48.1608760" lon="8.1851430">
        <ele>549.8</ele>
        <time>2022-06-05T12:12:10Z</time>
      </trkpt>
      <trkpt lat="48.1607150" lon="8.1851080">
        <ele>551.4</ele>
        <time>2022-06-05T12:12:14Z</time>
      </trkpt>
      <trkpt lat="48.1605530" lon="8.1850610">
        <ele>551.6</ele>
        <time>2022-06-05T12:12:18Z</time>
      </trkpt>
      <trkpt lat="48.1603980" lon="8.1849960">
        <ele>551.2</ele>
        <time>2022-06-05T12:12:22Z</time>
      </trkpt>
      <trkpt lat="48.1602550" lon="8.1849050">
        <ele>550.8</ele>
        <time>2022-06-05T12:12:26Z</time>
      </trkpt>
      <trkpt lat="48.1601110" lon="8.1848080">
        <ele>551.0</ele>
        <time>2022-06-05T12:12:30Z</time>
      </trkpt>
      <trkpt lat="48.1599750" lon="8.1847260">
        <ele>550.4</ele>
        <time>2022-06-05T12:12:34Z</time>
      </trkpt>
      <trkpt lat="48.1598280" lon="8.1846560">
        <ele>550.8</ele>
        <time>2022-06-05T12:12:38Z</time>
      </trkpt>
      <trkpt lat="48.1596730" lon="8.1846180">
        <ele>551.6</ele>
        <time>2022-06-05T12:12:42Z</time>
      </trkpt>
      <trkpt lat="48.1595110" lon="8.1846260">
        <ele>551.4</ele>
        <time>2022-06-05T12:12:46Z</time>
      </trkpt>
      <trkpt lat="48.1593450" lon="8.1846460">
        <ele>551.0</ele>
        <time>2022-06-05T12:12:50Z</time>
      </trkpt>
      <trkpt lat="48.1591730" lon="8.1846810">
        <ele>550.6</ele>
        <time>2022-06-05T12:12:54Z</time>
      </trkpt>
      <trkpt lat="48.1589850" lon="8.1847310">
        <ele>550.2</ele>
        <time>2022-06-05T12:12:58Z</time>
      </trkpt>
      <trkpt lat="48.1587950" lon="8.1847630">
        <ele>551.0</ele>
        <time>2022-06-05T12:13:02Z</time>
      </trkpt>
      <trkpt lat="48.1586060" lon="8.1848560">
        <ele>550.4</ele>
        <time>2022-06-05T12:13:06Z</time>
      </trkpt>
      <trkpt lat="48.1584380" lon="8.1850110">
        <ele>550.4</ele>
        <time>2022-06-05T12:13:10Z</time>
      </trkpt>
      <trkpt lat="48.1582860" lon="8.1851830">
        <ele>550.0</ele>
        <time>2022-06-05T12:13:14Z</time>
      </trkpt>
      <trkpt lat="48.1581460" lon="8.1853710">
        <ele>549.8</ele>
        <time>2022-06-05T12:13:18Z</time>
      </trkpt>
      <trkpt lat="48.1580030" lon="8.1855330">
        <ele>550.0</ele>
        <time>2022-06-05T12:13:22Z</time>
      </trkpt>
      <trkpt lat="48.1578360" lon="8.1856930">
        <ele>549.4</ele>
        <time>2022-06-05T12:13:26Z</time>
      </trkpt>
      <trkpt lat="48.1576600" lon="8.1857860">
        <ele>549.6</ele>
        <time>2022-06-05T12:13:30Z</time>
      </trkpt>
      <trkpt lat="48.1574780" lon="8.1858050">
        <ele>549.4</ele>
        <time>2022-06-05T12:13:34Z</time>
      </trkpt>
      <trkpt lat="48.1573000" lon="8.1857700">
        <ele>549.6</ele>
        <time>2022-06-05T12:13:38Z</time>
      </trkpt>
      <trkpt lat="48.1571380" lon="8.1857310">
        <ele>550.2</ele>
        <time>2022-06-05T12:13:42Z</time>
      </trkpt>
      <trkpt lat="48.1569880" lon="8.1856860">
        <ele>550.4</ele>
        <time>2022-06-05T12:13:46Z</time>
      </trkpt>
      <trkpt lat="48.1568430" lon="8.1856460">
        <ele>549.8</ele>
        <time>2022-06-05T12:13:50Z</time>
      </trkpt>
      <trkpt lat="48.1567060" lon="8.1856110">
        <ele>550.0</ele>
        <time>2022-06-05T12:13:54Z</time>
      </trkpt>
      <trkpt lat="48.1565450" lon="8.1855630">
        <ele>549.8</ele>
        <time>2022-06-05T12:13:58Z</time>
      </trkpt>
      <trkpt lat="48.1563860" lon="8.1855060">
        <ele>550.2</ele>
        <time>2022-06-05T12:14:02Z</time>
      </trkpt>
      <trkpt lat="48.1562260" lon="8.1854650">
        <ele>550.4</ele>
        <time>2022-06-05T12:14:06Z</time>
      </trkpt>
      <trkpt lat="48.1560660" lon="8.1854510">
        <ele>550.6</ele>
        <time>2022-06-05T12:14:10Z</time>
      </trkpt>
      <trkpt lat="48.1559050" lon="8.1854730">
        <ele>549.2</ele>
        <time>2022-06-05T12:14:14Z</time>
      </trkpt>
      <trkpt lat="48.1557450" lon="8.1855380">
        <ele>548.8</ele>
        <time>2022-06-05T12:14:18Z</time>
      </trkpt>
      <trkpt lat="48.1555880" lon="8.1856410">
        <ele>549.4</ele>
        <time>2022-06-05T12:14:22Z</time>
      </trkpt>
      <trkpt lat="48.1554280" lon="8.1857210">
        <ele>549.8</ele>
        <time>2022-06-05T12:14:26Z</time>
      </trkpt>
      <trkpt lat="48.1552660" lon="8.1857560">
        <ele>549.6</ele>
        <time>2022-06-05T12:14:30Z</time>
      </trkpt>
      <trkpt lat="48.1551010" lon="8.1857410">
        <ele>548.8</ele>
        <time>2022-06-05T12:14:34Z</time>
      </trkpt>
      <trkpt lat="48.1549300" lon="8.1856560">
        <ele>548.4</ele>
        <time>2022-06-05T12:14:38Z</time>
      </trkpt>
      <trkpt lat="48.1547760" lon="8.1855250">
        <ele>548.2</ele>
        <time>2022-06-05T12:14:42Z</time>
      </trkpt>
      <trkpt lat="48.1546360" lon="8.1853600">
        <ele>548.2</ele>
        <time>2022-06-05T12:14:46Z</time>
      </trkpt>
      <trkpt lat="48.1545060" lon="8.1852330">
        <ele>547.4</ele>
        <time>2022-06-05T12:14:50Z</time>
      </trkpt>
      <trkpt lat="48.1543460" lon="8.1850850">
        <ele>546.2</ele>
        <time>2022-06-05T12:14:54Z</time>
      </trkpt>
      <trkpt lat="48.1541910" lon="8.1848950">
        <ele>545.8</ele>
        <time>2022-06-05T12:14:58Z</time>
      </trkpt>
      <trkpt lat="48.1540000" lon="8.1847130">
        <ele>545.2</ele>
        <time>2022-06-05T12:15:02Z</time>
      </trkpt>
      <trkpt lat="48.1537680" lon="8.1844700">
        <ele>543.0</ele>
        <time>2022-06-05T12:15:06Z</time>
      </trkpt>
      <trkpt lat="48.1535000" lon="8.1842010">
        <ele>541.8</ele>
        <time>2022-06-05T12:15:10Z</time>
      </trkpt>
      <trkpt lat="48.1532900" lon="8.1839810">
        <ele>540.8</ele>
        <time>2022-06-05T12:15:14Z</time>
      </trkpt>
      <trkpt lat="48.1530900" lon="8.1837550">
        <ele>539.4</ele>
        <time>2022-06-05T12:15:18Z</time>
      </trkpt>
      <trkpt lat="48.1529300" lon="8.1834510">
        <ele>538.6</ele>
        <time>2022-06-05T12:15:22Z</time>
      </trkpt>
      <trkpt lat="48.1527910" lon="8.1831060">
        <ele>536.2</ele>
        <time>2022-06-05T12:15:26Z</time>
      </trkpt>
      <trkpt lat="48.1526600" lon="8.1827610">
        <ele>536.0</ele>
        <time>2022-06-05T12:15:30Z</time>
      </trkpt>
      <trkpt lat="48.1525360" lon="8.1824450">
        <ele>533.8</ele>
        <time>2022-06-05T12:15:34Z</time>
      </trkpt>
      <trkpt lat="48.1524280" lon="8.1821530">
        <ele>534.0</ele>
        <time>2022-06-05T12:15:38Z</time>
      </trkpt>
      <trkpt lat="48.1523130" lon="8.1818630">
        <ele>533.4</ele>
        <time>2022-06-05T12:15:42Z</time>
      </trkpt>
      <trkpt lat="48.1521510" lon="8.1816260">
        <ele>532.4</ele>
        <time>2022-06-05T12:15:46Z</time>
      </trkpt>
      <trkpt lat="48.1519330" lon="8.1817430">
        <ele>530.8</ele>
        <time>2022-06-05T12:15:50Z</time>
      </trkpt>
      <trkpt lat="48.1517960" lon="8.1820480">
        <ele>528.0</ele>
        <time>2022-06-05T12:15:54Z</time>
      </trkpt>
      <trkpt lat="48.1516660" lon="8.1823730">
        <ele>525.6</ele>
        <time>2022-06-05T12:15:58Z</time>
      </trkpt>
      <trkpt lat="48.1515160" lon="8.1827310">
        <ele>523.6</ele>
        <time>2022-06-05T12:16:02Z</time>
      </trkpt>
      <trkpt lat="48.1513630" lon="8.1830260">
        <ele>521.2</ele>
        <time>2022-06-05T12:16:06Z</time>
      </trkpt>
      <trkpt lat="48.1511550" lon="8.1832810">
        <ele>518.2</ele>
        <time>2022-06-05T12:16:10Z</time>
      </trkpt>
      <trkpt lat="48.1508750" lon="8.1834480">
        <ele>515.6</ele>
        <time>2022-06-05T12:16:14Z</time>
      </trkpt>
      <trkpt lat="48.1505250" lon="8.1834480">
        <ele>512.8</ele>
        <time>2022-06-05T12:16:18Z</time>
      </trkpt>
      <trkpt lat="48.1502200" lon="8.1832780">
        <ele>509.4</ele>
        <time>2022-06-05T12:16:22Z</time>
      </trkpt>
      <trkpt lat="48.1500160" lon="8.1830460">
        <ele>506.4</ele>
        <time>2022-06-05T12:16:26Z</time>
      </trkpt>
      <trkpt lat="48.1499260" lon="8.1828930">
        <ele>506.0</ele>
        <time>2022-06-05T12:16:30Z</time>
      </trkpt>
      <trkpt lat="48.1498050" lon="8.1828910">
        <ele>505.4</ele>
        <time>2022-06-05T12:16:34Z</time>
      </trkpt>
      <trkpt lat="48.1496530" lon="8.1830350">
        <ele>504.6</ele>
        <time>2022-06-05T12:16:38Z</time>
      </trkpt>
      <trkpt lat="48.1494800" lon="8.1832000">
        <ele>504.2</ele>
        <time>2022-06-05T12:16:42Z</time>
      </trkpt>
      <trkpt lat="48.1492960" lon="8.1833880">
        <ele>503.2</ele>
        <time>2022-06-05T12:16:46Z</time>
      </trkpt>
      <trkpt lat="48.1490960" lon="8.1835780">
        <ele>502.6</ele>
        <time>2022-06-05T12:16:50Z</time>
      </trkpt>
      <trkpt lat="48.1488910" lon="8.1837850">
        <ele>502.2</ele>
        <time>2022-06-05T12:16:54Z</time>
      </trkpt>
      <trkpt lat="48.1486830" lon="8.1839900">
        <ele>501.8</ele>
        <time>2022-06-05T12:16:58Z</time>
      </trkpt>
      <trkpt lat="48.1484860" lon="8.1842300">
        <ele>501.2</ele>
        <time>2022-06-05T12:17:02Z</time>
      </trkpt>
      <trkpt lat="48.1483210" lon="8.1845350">
        <ele>500.0</ele>
        <time>2022-06-05T12:17:06Z</time>
      </trkpt>
      <trkpt lat="48.1481950" lon="8.1848900">
        <ele>499.4</ele>
        <time>2022-06-05T12:17:10Z</time>
      </trkpt>
      <trkpt lat="48.1480680" lon="8.1852630">
        <ele>497.8</ele>
        <time>2022-06-05T12:17:14Z</time>
      </trkpt>
      <trkpt lat="48.1479330" lon="8.1856700">
        <ele>496.0</ele>
        <time>2022-06-05T12:17:18Z</time>
      </trkpt>
      <trkpt lat="48.1478100" lon="8.1861160">
        <ele>494.4</ele>
        <time>2022-06-05T12:17:22Z</time>
      </trkpt>
      <trkpt lat="48.1476900" lon="8.1866200">
        <ele>493.0</ele>
        <time>2022-06-05T12:17:26Z</time>
      </trkpt>
      <trkpt lat="48.1475660" lon="8.1871510">
        <ele>489.4</ele>
        <time>2022-06-05T12:17:30Z</time>
      </trkpt>
      <trkpt lat="48.1474130" lon="8.1876910">
        <ele>486.4</ele>
        <time>2022-06-05T12:17:34Z</time>
      </trkpt>
      <trkpt lat="48.1471950" lon="8.1882110">
        <ele>484.6</ele>
        <time>2022-06-05T12:17:38Z</time>
      </trkpt>
      <trkpt lat="48.1469530" lon="8.1886930">
        <ele>481.0</ele>
        <time>2022-06-05T12:17:42Z</time>
      </trkpt>
      <trkpt lat="48.1466950" lon="8.1891730">
        <ele>477.6</ele>
        <time>2022-06-05T12:17:46Z</time>
      </trkpt>
      <trkpt lat="48.1464810" lon="8.1897000">
        <ele>474.2</ele>
        <time>2022-06-05T12:17:50Z</time>
      </trkpt>
      <trkpt lat="48.1463110" lon="8.1902950">
        <ele>471.4</ele>
        <time>2022-06-05T12:17:54Z</time>
      </trkpt>
      <trkpt lat="48.1461710" lon="8.1909150">
        <ele>469.8</ele>
        <time>2022-06-05T12:17:58Z</time>
      </trkpt>
      <trkpt lat="48.1460260" lon="8.1915080">
        <ele>465.6</ele>
        <time>2022-06-05T12:18:02Z</time>
      </trkpt>
      <trkpt lat="48.1458930" lon="8.1920410">
        <ele>466.2</ele>
        <time>2022-06-05T12:18:06Z</time>
      </trkpt>
      <trkpt lat="48.1457630" lon="8.1925250">
        <ele>465.8</ele>
        <time>2022-06-05T12:18:10Z</time>
      </trkpt>
      <trkpt lat="48.1456330" lon="8.1930300">
        <ele>461.8</ele>
        <time>2022-06-05T12:18:14Z</time>
      </trkpt>
      <trkpt lat="48.1455200" lon="8.1935750">
        <ele>459.8</ele>
        <time>2022-06-05T12:18:18Z</time>
      </trkpt>
      <trkpt lat="48.1455380" lon="8.1941310">
        <ele>458.0</ele>
        <time>2022-06-05T12:18:22Z</time>
      </trkpt>
      <trkpt lat="48.1455400" lon="8.1946450">
        <ele>457.4</ele>
        <time>2022-06-05T12:18:26Z</time>
      </trkpt>
      <trkpt lat="48.1454010" lon="8.1951310">
        <ele>455.4</ele>
        <time>2022-06-05T12:18:30Z</time>
      </trkpt>
      <trkpt lat="48.1452410" lon="8.1956110">
        <ele>453.6</ele>
        <time>2022-06-05T12:18:34Z</time>
      </trkpt>
      <trkpt lat="48.1451010" lon="8.1961080">
        <ele>452.2</ele>
        <time>2022-06-05T12:18:38Z</time>
      </trkpt>
      <trkpt lat="48.1449660" lon="8.1965860">
        <ele>452.2</ele>
        <time>2022-06-05T12:18:42Z</time>
      </trkpt>
      <trkpt lat="48.1447900" lon="8.1970110">
        <ele>452.0</ele>
        <time>2022-06-05T12:18:46Z</time>
      </trkpt>
      <trkpt lat="48.1445400" lon="8.1973230">
        <ele>450.6</ele>
        <time>2022-06-05T12:18:50Z</time>
      </trkpt>
      <trkpt lat="48.1442880" lon="8.1976230">
        <ele>450.4</ele>
        <time>2022-06-05T12:18:54Z</time>
      </trkpt>
      <trkpt lat="48.1440600" lon="8.1979530">
        <ele>449.4</ele>
        <time>2022-06-05T12:18:58Z</time>
      </trkpt>
      <trkpt lat="48.1438760" lon="8.1983410">
        <ele>447.2</ele>
        <time>2022-06-05T12:19:02Z</time>
      </trkpt>
      <trkpt lat="48.1437150" lon="8.1987530">
        <ele>446.4</ele>
        <time>2022-06-05T12:19:06Z</time>
      </trkpt>
      <trkpt lat="48.1435410" lon="8.1991750">
        <ele>446.2</ele>
        <time>2022-06-05T12:19:10Z</time>
      </trkpt>
      <trkpt lat="48.1433860" lon="8.1995710">
        <ele>445.0</ele>
        <time>2022-06-05T12:19:14Z</time>
      </trkpt>
      <trkpt lat="48.1432260" lon="8.1999160">
        <ele>443.6</ele>
        <time>2022-06-05T12:19:18Z</time>
      </trkpt>
      <trkpt lat="48.1430050" lon="8.1999630">
        <ele>443.2</ele>
        <time>2022-06-05T12:19:22Z</time>
      </trkpt>
      <trkpt lat="48.1428610" lon="8.1998280">
        <ele>444.0</ele>
        <time>2022-06-05T12:19:26Z</time>
      </trkpt>
      <trkpt lat="48.1427760" lon="8.1997380">
        <ele>444.4</ele>
        <time>2022-06-05T12:19:30Z</time>
      </trkpt>
      <trkpt lat="48.1427830" lon="8.1997910">
        <ele>444.2</ele>
        <time>2022-06-05T12:19:34Z</time>
      </trkpt>
      <trkpt lat="48.1428730" lon="8.1998300">
        <ele>443.4</ele>
        <time>2022-06-05T12:19:38Z</time>
      </trkpt>
      <trkpt lat="48.1428730" lon="8.1998300">
        <ele>444.0</ele>
        <time>2022-06-05T12:19:42Z</time>
      </trkpt>
      <trkpt lat="48.1428730" lon="8.1998300">
        <ele>443.4</ele>
        <time>2022-06-05T12:19:46Z</time>
      </trkpt>
      <trkpt lat="48.1428730" lon="8.1998300">
        <ele>444.2</ele>
        <time>2022-06-05T12:19:50Z</time>
      </trkpt>
      <trkpt lat="48.1428730" lon="8.1998300">
        <ele>444.0</ele>
        <time>2022-06-05T12:19:54Z</time>
      </trkpt>
      <trkpt lat="48.1429010" lon="8.1997850">
        <ele>443.6</ele>
        <time>2022-06-05T12:19:58Z</time>
      </trkpt>
      <trkpt lat="48.1429010" lon="8.1997850">
        <ele>443.8</ele>
        <time>2022-06-05T12:20:02Z</time>
      </trkpt>
      <trkpt lat="48.1429010" lon="8.1997850">
        <ele>443.8</ele>
        <time>2022-06-05T12:20:06Z</time>
      </trkpt>
      <trkpt lat="48.1429010" lon="8.1997850">
        <ele>444.0</ele>
        <time>2022-06-05T12:20:10Z</time>
      </trkpt>
      <trkpt lat="48.1429010" lon="8.1997850">
        <ele>444.0</ele>
        <time>2022-06-05T12:20:14Z</time>
      </trkpt>
      <trkpt lat="48.1429010" lon="8.1997850">
        <ele>444.0</ele>
        <time>2022-06-05T12:20:18Z</time>
      </trkpt>
      <trkpt lat="48.1429010" lon="8.1997850">
        <ele>443.6</ele>
        <time>2022-06-05T12:20:22Z</time>
      </trkpt>
      <trkpt lat="48.1429010" lon="8.1997850">
        <ele>444.0</ele>
        <time>2022-06-05T12:20:26Z</time>
      </trkpt>
      <trkpt lat="48.1429010" lon="8.1997850">
        <ele>444.0</ele>
        <time>2022-06-05T12:20:30Z</time>
      </trkpt>
      <trkpt lat="48.1429010" lon="8.1997850">
        <ele>444.0</ele>
        <time>2022-06-05T12:20:34Z</time>
      </trkpt>
      <trkpt lat="48.1429010" lon="8.1997850">
        <ele>443.6</ele>
        <time>2022-06-05T12:20:38Z</time>
      </trkpt>
      <trkpt lat="48.1429300" lon="8.1997560">
        <ele>447.0</ele>
        <time>2022-06-05T12:20:42Z</time>
      </trkpt>
      <trkpt lat="48.1429300" lon="8.1997560">
        <ele>444.2</ele>
        <time>2022-06-05T12:20:46Z</time>
      </trkpt>
      <trkpt lat="48.1429300" lon="8.1997560">
        <ele>444.4</ele>
        <time>2022-06-05T12:20:50Z</time>
      </trkpt>
      <trkpt lat="48.1429300" lon="8.1997560">
        <ele>444.4</ele>
        <time>2022-06-05T12:20:54Z</time>
      </trkpt>
      <trkpt lat="48.1429300" lon="8.1997560">
        <ele>443.6</ele>
        <time>2022-06-05T12:20:58Z</time>
      </trkpt>
      <trkpt lat="48.1429300" lon="8.1997560">
        <ele>444.2</ele>
        <time>2022-06-05T12:21:02Z</time>
      </trkpt>
      <trkpt lat="48.1429300" lon="8.1997560">
        <ele>443.8</ele>
        <time>2022-06-05T12:21:06Z</time>
      </trkpt>
      <trkpt lat="48.1429300" lon="8.1997560">
        <ele>444.0</ele>
        <time>2022-06-05T12:21:10Z</time>
      </trkpt>
      <trkpt lat="48.1429300" lon="8.1997560">
        <ele>443.8</ele>
        <time>2022-06-05T12:21:14Z</time>
      </trkpt>
      <trkpt lat="48.1429200" lon="8.1997830">
        <ele>444.6</ele>
        <time>2022-06-05T12:21:18Z</time>
      </trkpt>
      <trkpt lat="48.1429130" lon="8.1997980">
        <ele>444.6</ele>
        <time>2022-06-05T12:21:22Z</time>
      </trkpt>
      <trkpt lat="48.1429130" lon="8.1997980">
        <ele>444.4</ele>
        <time>2022-06-05T12:21:26Z</time>
      </trkpt>
      <trkpt lat="48.1429130" lon="8.1997980">
        <ele>444.0</ele>
        <time>2022-06-05T12:21:30Z</time>
      </trkpt>
      <trkpt lat="48.1429130" lon="8.1997980">
        <ele>444.2</ele>
        <time>2022-06-05T12:21:34Z</time>
      </trkpt>
      <trkpt lat="48.1429130" lon="8.1997980">
        <ele>444.0</ele>
        <time>2022-06-05T12:21:38Z</time>
      </trkpt>
      <trkpt lat="48.1429130" lon="8.1997980">
        <ele>444.2</ele>
        <time>2022-06-05T12:21:42Z</time>
      </trkpt>
      <trkpt lat="48.1429130" lon="8.1997980">
        <ele>444.4</ele>
        <time>2022-06-05T12:21:46Z</time>
      </trkpt>
      <trkpt lat="48.1429260" lon="8.1998350">
        <ele>444.6</ele>
        <time>2022-06-05T12:21:50Z</time>
      </trkpt>
      <trkpt lat="48.1429260" lon="8.1998350">
        <ele>444.4</ele>
        <time>2022-06-05T12:21:54Z</time>
      </trkpt>
      <trkpt lat="48.1429260" lon="8.1998350">
        <ele>443.6</ele>
        <time>2022-06-05T12:21:58Z</time>
      </trkpt>
      <trkpt lat="48.1428980" lon="8.1998560">
        <ele>444.2</ele>
        <time>2022-06-05T12:22:02Z</time>
      </trkpt>
      <trkpt lat="48.1428780" lon="8.1998860">
        <ele>444.4</ele>
        <time>2022-06-05T12:22:06Z</time>
      </trkpt>
      <trkpt lat="48.1428710" lon="8.1998910">
        <ele>444.2</ele>
        <time>2022-06-05T12:22:10Z</time>
      </trkpt>
      <trkpt lat="48.1428710" lon="8.1998910">
        <ele>444.6</ele>
        <time>2022-06-05T12:22:14Z</time>
      </trkpt>
      <trkpt lat="48.1428710" lon="8.1998910">
        <ele>443.8</ele>
        <time>2022-06-05T12:22:18Z</time>
      </trkpt>
      <trkpt lat="48.1428580" lon="8.1998580">
        <ele>444.0</ele>
        <time>2022-06-05T12:22:22Z</time>
      </trkpt>
      <trkpt lat="48.1428350" lon="8.1997950">
        <ele>444.6</ele>
        <time>2022-06-05T12:22:26Z</time>
      </trkpt>
      <trkpt lat="48.1427800" lon="8.1997300">
        <ele>445.2</ele>
        <time>2022-06-05T12:22:30Z</time>
      </trkpt>
      <trkpt lat="48.1427160" lon="8.1996710">
        <ele>445.6</ele>
        <time>2022-06-05T12:22:34Z</time>
      </trkpt>
      <trkpt lat="48.1426360" lon="8.1995960">
        <ele>445.6</ele>
        <time>2022-06-05T12:22:38Z</time>
      </trkpt>
      <trkpt lat="48.1425810" lon="8.1995310">
        <ele>447.0</ele>
        <time>2022-06-05T12:22:42Z</time>
      </trkpt>
      <trkpt lat="48.1425000" lon="8.1994730">
        <ele>447.2</ele>
        <time>2022-06-05T12:22:46Z</time>
      </trkpt>
      <trkpt lat="48.1424060" lon="8.1994330">
        <ele>447.4</ele>
        <time>2022-06-05T12:22:50Z</time>
      </trkpt>
      <trkpt lat="48.1423160" lon="8.1994010">
        <ele>448.4</ele>
        <time>2022-06-05T12:22:54Z</time>
      </trkpt>
      <trkpt lat="48.1422280" lon="8.1993910">
        <ele>449.2</ele>
        <time>2022-06-05T12:22:58Z</time>
      </trkpt>
      <trkpt lat="48.1421610" lon="8.1993650">
        <ele>449.6</ele>
        <time>2022-06-05T12:23:02Z</time>
      </trkpt>
      <trkpt lat="48.1420950" lon="8.1993310">
        <ele>450.4</ele>
        <time>2022-06-05T12:23:06Z</time>
      </trkpt>
      <trkpt lat="48.1420260" lon="8.1993050">
        <ele>451.8</ele>
        <time>2022-06-05T12:23:10Z</time>
      </trkpt>
      <trkpt lat="48.1419660" lon="8.1993400">
        <ele>452.4</ele>
        <time>2022-06-05T12:23:14Z</time>
      </trkpt>
      <trkpt lat="48.1419380" lon="8.1994130">
        <ele>452.8</ele>
        <time>2022-06-05T12:23:18Z</time>
      </trkpt>
      <trkpt lat="48.1419660" lon="8.1995050">
        <ele>452.8</ele>
        <time>2022-06-05T12:23:22Z</time>
      </trkpt>
      <trkpt lat="48.1420200" lon="8.1996550">
        <ele>451.8</ele>
        <time>2022-06-05T12:23:26Z</time>
      </trkpt>
      <trkpt lat="48.1420930" lon="8.1999010">
        <ele>450.4</ele>
        <time>2022-06-05T12:23:30Z</time>
      </trkpt>
      <trkpt lat="48.1421200" lon="8.2002250">
        <ele>448.0</ele>
        <time>2022-06-05T12:23:34Z</time>
      </trkpt>
      <trkpt lat="48.1420930" lon="8.2006100">
        <ele>445.8</ele>
        <time>2022-06-05T12:23:38Z</time>
      </trkpt>
      <trkpt lat="48.1420450" lon="8.2010380">
        <ele>442.6</ele>
        <time>2022-06-05T12:23:42Z</time>
      </trkpt>
      <trkpt lat="48.1419930" lon="8.2014680">
        <ele>440.0</ele>
        <time>2022-06-05T12:23:46Z</time>
      </trkpt>
      <trkpt lat="48.1419280" lon="8.2019100">
        <ele>437.0</ele>
        <time>2022-06-05T12:23:50Z</time>
      </trkpt>
      <trkpt lat="48.1418800" lon="8.2023810">
        <ele>432.8</ele>
        <time>2022-06-05T12:23:54Z</time>
      </trkpt>
      <trkpt lat="48.1419250" lon="8.2028580">
        <ele>431.2</ele>
        <time>2022-06-05T12:23:58Z</time>
      </trkpt>
      <trkpt lat="48.1419850" lon="8.2033480">
        <ele>429.0</ele>
        <time>2022-06-05T12:24:02Z</time>
      </trkpt>
      <trkpt lat="48.1419230" lon="8.2037080">
        <ele>429.6</ele>
        <time>2022-06-05T12:24:06Z</time>
      </trkpt>
      <trkpt lat="48.1418630" lon="8.2038450">
        <ele>431.0</ele>
        <time>2022-06-05T12:24:10Z</time>
      </trkpt>
      <trkpt lat="48.1418250" lon="8.2038980">
        <ele>432.0</ele>
        <time>2022-06-05T12:24:14Z</time>
      </trkpt>
      <trkpt lat="48.1417880" lon="8.2039310">
        <ele>431.6</ele>
        <time>2022-06-05T12:24:18Z</time>
      </trkpt>
      <trkpt lat="48.1417880" lon="8.2039310">
        <ele>432.8</ele>
        <time>2022-06-05T12:24:22Z</time>
      </trkpt>
      <trkpt lat="48.1417710" lon="8.2039580">
        <ele>433.0</ele>
        <time>2022-06-05T12:24:26Z</time>
      </trkpt>
      <trkpt lat="48.1417950" lon="8.2039550">
        <ele>432.0</ele>
        <time>2022-06-05T12:24:30Z</time>
      </trkpt>
      <trkpt lat="48.1418810" lon="8.2038250">
        <ele>430.2</ele>
        <time>2022-06-05T12:24:34Z</time>
      </trkpt>
      <trkpt lat="48.1419730" lon="8.2036050">
        <ele>429.0</ele>
        <time>2022-06-05T12:24:38Z</time>
      </trkpt>
      <trkpt lat="48.1419980" lon="8.2033850">
        <ele>427.2</ele>
        <time>2022-06-05T12:24:42Z</time>
      </trkpt>
      <trkpt lat="48.1420610" lon="8.2034580">
        <ele>426.4</ele>
        <time>2022-06-05T12:24:46Z</time>
      </trkpt>
      <trkpt lat="48.1420560" lon="8.2037410">
        <ele>424.6</ele>
        <time>2022-06-05T12:24:50Z</time>
      </trkpt>
      <trkpt lat="48.1420080" lon="8.2040910">
        <ele>421.8</ele>
        <time>2022-06-05T12:24:54Z</time>
      </trkpt>
      <trkpt lat="48.1418480" lon="8.2043650">
        <ele>421.4</ele>
        <time>2022-06-05T12:24:58Z</time>
      </trkpt>
      <trkpt lat="48.1415830" lon="8.2044780">
        <ele>420.0</ele>
        <time>2022-06-05T12:25:02Z</time>
      </trkpt>
      <trkpt lat="48.1413580" lon="8.2047310">
        <ele>418.0</ele>
        <time>2022-06-05T12:25:06Z</time>
      </trkpt>
      <trkpt lat="48.1411700" lon="8.2050610">
        <ele>415.6</ele>
        <time>2022-06-05T12:25:10Z</time>
      </trkpt>
      <trkpt lat="48.1410500" lon="8.2054160">
        <ele>413.6</ele>
        <time>2022-06-05T12:25:14Z</time>
      </trkpt>
      <trkpt lat="48.1411330" lon="8.2058510">
        <ele>408.0</ele>
        <time>2022-06-05T12:25:18Z</time>
      </trkpt>
      <trkpt lat="48.1412480" lon="8.2063600">
        <ele>408.6</ele>
        <time>2022-06-05T12:25:22Z</time>
      </trkpt>
      <trkpt lat="48.1413460" lon="8.2067980">
        <ele>408.0</ele>
        <time>2022-06-05T12:25:26Z</time>
      </trkpt>
      <trkpt lat="48.1412630" lon="8.2070650">
        <ele>410.0</ele>
        <time>2022-06-05T12:25:30Z</time>
      </trkpt>
      <trkpt lat="48.1412230" lon="8.2072050">
        <ele>410.2</ele>
        <time>2022-06-05T12:25:34Z</time>
      </trkpt>
      <trkpt lat="48.1412450" lon="8.2072780">
        <ele>410.0</ele>
        <time>2022-06-05T12:25:38Z</time>
      </trkpt>
      <trkpt lat="48.1412380" lon="8.2072010">
        <ele>410.0</ele>
        <time>2022-06-05T12:25:42Z</time>
      </trkpt>
      <trkpt lat="48.1412860" lon="8.2070410">
        <ele>409.4</ele>
        <time>2022-06-05T12:25:46Z</time>
      </trkpt>
      <trkpt lat="48.1413480" lon="8.2068010">
        <ele>408.8</ele>
        <time>2022-06-05T12:25:50Z</time>
      </trkpt>
      <trkpt lat="48.1412980" lon="8.2065330">
        <ele>408.0</ele>
        <time>2022-06-05T12:25:54Z</time>
      </trkpt>
      <trkpt lat="48.1411230" lon="8.2065210">
        <ele>405.8</ele>
        <time>2022-06-05T12:25:58Z</time>
      </trkpt>
      <trkpt lat="48.1408580" lon="8.2066730">
        <ele>401.6</ele>
        <time>2022-06-05T12:26:02Z</time>
      </trkpt>
      <trkpt lat="48.1405760" lon="8.2068650">
        <ele>398.8</ele>
        <time>2022-06-05T12:26:06Z</time>
      </trkpt>
      <trkpt lat="48.1402710" lon="8.2070430">
        <ele>395.4</ele>
        <time>2022-06-05T12:26:10Z</time>
      </trkpt>
      <trkpt lat="48.1399630" lon="8.2071900">
        <ele>391.2</ele>
        <time>2022-06-05T12:26:14Z</time>
      </trkpt>
      <trkpt lat="48.1396880" lon="8.2074760">
        <ele>388.4</ele>
        <time>2022-06-05T12:26:18Z</time>
      </trkpt>
      <trkpt lat="48.1394630" lon="8.2078250">
        <ele>384.2</ele>
        <time>2022-06-05T12:26:22Z</time>
      </trkpt>
      <trkpt lat="48.1392200" lon="8.2082510">
        <ele>381.0</ele>
        <time>2022-06-05T12:26:26Z</time>
      </trkpt>
      <trkpt lat="48.1389800" lon="8.2086630">
        <ele>378.0</ele>
        <time>2022-06-05T12:26:30Z</time>
      </trkpt>
      <trkpt lat="48.1387730" lon="8.2090480">
        <ele>375.4</ele>
        <time>2022-06-05T12:26:34Z</time>
      </trkpt>
      <trkpt lat="48.1386600" lon="8.2095160">
        <ele>373.4</ele>
        <time>2022-06-05T12:26:38Z</time>
      </trkpt>
      <trkpt lat="48.1386650" lon="8.2100660">
        <ele>370.2</ele>
        <time>2022-06-05T12:26:42Z</time>
      </trkpt>
      <trkpt lat="48.1386500" lon="8.2106130">
        <ele>368.6</ele>
        <time>2022-06-05T12:26:46Z</time>
      </trkpt>
      <trkpt lat="48.1386060" lon="8.2111000">
        <ele>368.2</ele>
        <time>2022-06-05T12:26:50Z</time>
      </trkpt>
      <trkpt lat="48.1385010" lon="8.2115210">
        <ele>368.2</ele>
        <time>2022-06-05T12:26:54Z</time>
      </trkpt>
      <trkpt lat="48.1383510" lon="8.2118850">
        <ele>367.6</ele>
        <time>2022-06-05T12:26:58Z</time>
      </trkpt>
      <trkpt lat="48.1381830" lon="8.2122160">
        <ele>367.4</ele>
        <time>2022-06-05T12:27:02Z</time>
      </trkpt>
      <trkpt lat="48.1379580" lon="8.2124300">
        <ele>367.6</ele>
        <time>2022-06-05T12:27:06Z</time>
      </trkpt>
      <trkpt lat="48.1377210" lon="8.2126030">
        <ele>368.2</ele>
        <time>2022-06-05T12:27:10Z</time>
      </trkpt>
      <trkpt lat="48.1375300" lon="8.2127930">
        <ele>367.8</ele>
        <time>2022-06-05T12:27:14Z</time>
      </trkpt>
      <trkpt lat="48.1373630" lon="8.2130050">
        <ele>369.0</ele>
        <time>2022-06-05T12:27:18Z</time>
      </trkpt>
      <trkpt lat="48.1372210" lon="8.2132280">
        <ele>369.2</ele>
        <time>2022-06-05T12:27:22Z</time>
      </trkpt>
      <trkpt lat="48.1370860" lon="8.2134450">
        <ele>368.6</ele>
        <time>2022-06-05T12:27:26Z</time>
      </trkpt>
      <trkpt lat="48.1369300" lon="8.2136480">
        <ele>369.6</ele>
        <time>2022-06-05T12:27:30Z</time>
      </trkpt>
      <trkpt lat="48.1367700" lon="8.2138160">
        <ele>369.6</ele>
        <time>2022-06-05T12:27:34Z</time>
      </trkpt>
      <trkpt lat="48.1365900" lon="8.2138980">
        <ele>369.0</ele>
        <time>2022-06-05T12:27:38Z</time>
      </trkpt>
      <trkpt lat="48.1363930" lon="8.2139480">
        <ele>369.0</ele>
        <time>2022-06-05T12:27:42Z</time>
      </trkpt>
      <trkpt lat="48.1361810" lon="8.2140230">
        <ele>368.0</ele>
        <time>2022-06-05T12:27:46Z</time>
      </trkpt>
      <trkpt lat="48.1360000" lon="8.2141960">
        <ele>368.2</ele>
        <time>2022-06-05T12:27:50Z</time>
      </trkpt>
      <trkpt lat="48.1358350" lon="8.2143980">
        <ele>368.2</ele>
        <time>2022-06-05T12:27:54Z</time>
      </trkpt>
      <trkpt lat="48.1356800" lon="8.2145880">
        <ele>367.8</ele>
        <time>2022-06-05T12:27:58Z</time>
      </trkpt>
      <trkpt lat="48.1355410" lon="8.2147660">
        <ele>367.2</ele>
        <time>2022-06-05T12:28:02Z</time>
      </trkpt>
      <trkpt lat="48.1354360" lon="8.2150110">
        <ele>365.8</ele>
        <time>2022-06-05T12:28:06Z</time>
      </trkpt>
      <trkpt lat="48.1354300" lon="8.2153310">
        <ele>364.2</ele>
        <time>2022-06-05T12:28:10Z</time>
      </trkpt>
      <trkpt lat="48.1355060" lon="8.2156830">
        <ele>362.4</ele>
        <time>2022-06-05T12:28:14Z</time>
      </trkpt>
      <trkpt lat="48.1355480" lon="8.2160700">
        <ele>362.4</ele>
        <time>2022-06-05T12:28:18Z</time>
      </trkpt>
      <trkpt lat="48.1353680" lon="8.2163450">
        <ele>360.2</ele>
        <time>2022-06-05T12:28:22Z</time>
      </trkpt>
      <trkpt lat="48.1351350" lon="8.2166050">
        <ele>358.0</ele>
        <time>2022-06-05T12:28:26Z</time>
      </trkpt>
      <trkpt lat="48.1348600" lon="8.2168050">
        <ele>357.6</ele>
        <time>2022-06-05T12:28:30Z</time>
      </trkpt>
      <trkpt lat="48.1345660" lon="8.2169530">
        <ele>356.6</ele>
        <time>2022-06-05T12:28:34Z</time>
      </trkpt>
      <trkpt lat="48.1342800" lon="8.2171360">
        <ele>354.6</ele>
        <time>2022-06-05T12:28:38Z</time>
      </trkpt>
      <trkpt lat="48.1340730" lon="8.2174450">
        <ele>354.0</ele>
        <time>2022-06-05T12:28:42Z</time>
      </trkpt>
      <trkpt lat="48.1338480" lon="8.2177110">
        <ele>350.2</ele>
        <time>2022-06-05T12:28:46Z</time>
      </trkpt>
      <trkpt lat="48.1336030" lon="8.2179900">
        <ele>349.0</ele>
        <time>2022-06-05T12:28:50Z</time>
      </trkpt>
      <trkpt lat="48.1333480" lon="8.2182480">
        <ele>345.6</ele>
        <time>2022-06-05T12:28:54Z</time>
      </trkpt>
      <trkpt lat="48.1331150" lon="8.2185610">
        <ele>342.6</ele>
        <time>2022-06-05T12:28:58Z</time>
      </trkpt>
      <trkpt lat="48.1329410" lon="8.2189700">
        <ele>340.2</ele>
        <time>2022-06-05T12:29:02Z</time>
      </trkpt>
      <trkpt lat="48.1328730" lon="8.2194750">
        <ele>337.8</ele>
        <time>2022-06-05T12:29:06Z</time>
      </trkpt>
      <trkpt lat="48.1328510" lon="8.2199480">
        <ele>334.8</ele>
        <time>2022-06-05T12:29:10Z</time>
      </trkpt>
      <trkpt lat="48.1328580" lon="8.2204610">
        <ele>331.0</ele>
        <time>2022-06-05T12:29:14Z</time>
      </trkpt>
      <trkpt lat="48.1329330" lon="8.2209850">
        <ele>330.2</ele>
        <time>2022-06-05T12:29:18Z</time>
      </trkpt>
      <trkpt lat="48.1330280" lon="8.2214730">
        <ele>327.8</ele>
        <time>2022-06-05T12:29:22Z</time>
      </trkpt>
      <trkpt lat="48.1330950" lon="8.2219400">
        <ele>323.8</ele>
        <time>2022-06-05T12:29:26Z</time>
      </trkpt>
      <trkpt lat="48.1331050" lon="8.2223930">
        <ele>323.0</ele>
        <time>2022-06-05T12:29:30Z</time>
      </trkpt>
      <trkpt lat="48.1329480" lon="8.2227380">
        <ele>319.6</ele>
        <time>2022-06-05T12:29:34Z</time>
      </trkpt>
      <trkpt lat="48.1326780" lon="8.2230080">
        <ele>316.8</ele>
        <time>2022-06-05T12:29:38Z</time>
      </trkpt>
      <trkpt lat="48.1325510" lon="8.2234760">
        <ele>314.4</ele>
        <time>2022-06-05T12:29:42Z</time>
      </trkpt>
      <trkpt lat="48.1324030" lon="8.2239560">
        <ele>312.2</ele>
        <time>2022-06-05T12:29:46Z</time>
      </trkpt>
      <trkpt lat="48.1322130" lon="8.2244080">
        <ele>310.0</ele>
        <time>2022-06-05T12:29:50Z</time>
      </trkpt>
      <trkpt lat="48.1320600" lon="8.2248930">
        <ele>307.4</ele>
        <time>2022-06-05T12:29:54Z</time>
      </trkpt>
      <trkpt lat="48.1319880" lon="8.2254280">
        <ele>305.6</ele>
        <time>2022-06-05T12:29:58Z</time>
      </trkpt>
      <trkpt lat="48.1320000" lon="8.2260050">
        <ele>302.8</ele>
        <time>2022-06-05T12:30:02Z</time>
      </trkpt>
      <trkpt lat="48.1320260" lon="8.2265030">
        <ele>300.8</ele>
        <time>2022-06-05T12:30:06Z</time>
      </trkpt>
      <trkpt lat="48.1319080" lon="8.2269650">
        <ele>297.6</ele>
        <time>2022-06-05T12:30:10Z</time>
      </trkpt>
      <trkpt lat="48.1316400" lon="8.2273100">
        <ele>294.6</ele>
        <time>2022-06-05T12:30:14Z</time>
      </trkpt>
      <trkpt lat="48.1313210" lon="8.2276160">
        <ele>292.2</ele>
        <time>2022-06-05T12:30:18Z</time>
      </trkpt>
      <trkpt lat="48.1309980" lon="8.2279430">
        <ele>289.6</ele>
        <time>2022-06-05T12:30:22Z</time>
      </trkpt>
      <trkpt lat="48.1306900" lon="8.2282480">
        <ele>286.8</ele>
        <time>2022-06-05T12:30:26Z</time>
      </trkpt>
      <trkpt lat="48.1304110" lon="8.2285850">
        <ele>285.4</ele>
        <time>2022-06-05T12:30:30Z</time>
      </trkpt>
      <trkpt lat="48.1301660" lon="8.2288930">
        <ele>282.6</ele>
        <time>2022-06-05T12:30:34Z</time>
      </trkpt>
      <trkpt lat="48.1299150" lon="8.2291100">
        <ele>280.2</ele>
        <time>2022-06-05T12:30:38Z</time>
      </trkpt>
      <trkpt lat="48.1296460" lon="8.2292300">
        <ele>277.4</ele>
        <time>2022-06-05T12:30:42Z</time>
      </trkpt>
      <trkpt lat="48.1293910" lon="8.2293350">
        <ele>276.8</ele>
        <time>2022-06-05T12:30:46Z</time>
      </trkpt>
      <trkpt lat="48.1291880" lon="8.2294500">
        <ele>275.0</ele>
        <time>2022-06-05T12:30:50Z</time>
      </trkpt>
      <trkpt lat="48.1290150" lon="8.2296300">
        <ele>274.2</ele>
        <time>2022-06-05T12:30:54Z</time>
      </trkpt>
      <trkpt lat="48.1288860" lon="8.2298960">
        <ele>272.2</ele>
        <time>2022-06-05T12:30:58Z</time>
      </trkpt>
      <trkpt lat="48.1288160" lon="8.2302060">
        <ele>270.8</ele>
        <time>2022-06-05T12:31:02Z</time>
      </trkpt>
      <trkpt lat="48.1288180" lon="8.2304950">
        <ele>269.8</ele>
        <time>2022-06-05T12:31:06Z</time>
      </trkpt>
      <trkpt lat="48.1289180" lon="8.2307260">
        <ele>268.2</ele>
        <time>2022-06-05T12:31:10Z</time>
      </trkpt>
      <trkpt lat="48.1290400" lon="8.2308810">
        <ele>267.0</ele>
        <time>2022-06-05T12:31:14Z</time>
      </trkpt>
      <trkpt lat="48.1291910" lon="8.2309780">
        <ele>266.0</ele>
        <time>2022-06-05T12:31:18Z</time>
      </trkpt>
      <trkpt lat="48.1293700" lon="8.2310360">
        <ele>264.4</ele>
        <time>2022-06-05T12:31:22Z</time>
      </trkpt>
      <trkpt lat="48.1295660" lon="8.2311400">
        <ele>262.6</ele>
        <time>2022-06-05T12:31:26Z</time>
      </trkpt>
      <trkpt lat="48.1297530" lon="8.2312030">
        <ele>260.4</ele>
        <time>2022-06-05T12:31:30Z</time>
      </trkpt>
      <trkpt lat="48.1299580" lon="8.2313280">
        <ele>258.6</ele>
        <time>2022-06-05T12:31:34Z</time>
      </trkpt>
      <trkpt lat="48.1301500" lon="8.2314930">
        <ele>257.6</ele>
        <time>2022-06-05T12:31:38Z</time>
      </trkpt>
      <trkpt lat="48.1302610" lon="8.2316410">
        <ele>256.2</ele>
        <time>2022-06-05T12:31:42Z</time>
      </trkpt>
      <trkpt lat="48.1302610" lon="8.2316410">
        <ele>256.4</ele>
        <time>2022-06-05T12:31:46Z</time>
      </trkpt>
      <trkpt lat="48.1302610" lon="8.2316410">
        <ele>256.0</ele>
        <time>2022-06-05T12:31:50Z</time>
      </trkpt>
      <trkpt lat="48.1302610" lon="8.2316410">
        <ele>256.4</ele>
        <time>2022-06-05T12:31:54Z</time>
      </trkpt>
      <trkpt lat="48.1302610" lon="8.2316410">
        <ele>256.2</ele>
        <time>2022-06-05T12:31:58Z</time>
      </trkpt>
      <trkpt lat="48.1302610" lon="8.2316410">
        <ele>256.6</ele>
        <time>2022-06-05T12:32:02Z</time>
      </trkpt>
      <trkpt lat="48.1302610" lon="8.2316410">
        <ele>256.2</ele>
        <time>2022-06-05T12:32:06Z</time>
      </trkpt>
      <trkpt lat="48.1302610" lon="8.2316410">
        <ele>256.6</ele>
        <time>2022-06-05T12:32:10Z</time>
      </trkpt>
      <trkpt lat="48.1302610" lon="8.2316410">
        <ele>256.2</ele>
        <time>2022-06-05T12:32:14Z</time>
      </trkpt>
      <trkpt lat="48.1302610" lon="8.2316410">
        <ele>256.4</ele>
        <time>2022-06-05T12:32:18Z</time>
      </trkpt>
      <trkpt lat="48.1302610" lon="8.2316410">
        <ele>256.8</ele>
        <time>2022-06-05T12:32:22Z</time>
      </trkpt>
      <trkpt lat="48.1302610" lon="8.2316410">
        <ele>256.4</ele>
        <time>2022-06-05T12:32:26Z</time>
      </trkpt>
      <trkpt lat="48.1303610" lon="8.2317250">
        <ele>256.0</ele>
        <time>2022-06-05T12:32:30Z</time>
      </trkpt>
      <trkpt lat="48.1304610" lon="8.2317800">
        <ele>254.8</ele>
        <time>2022-06-05T12:32:34Z</time>
      </trkpt>
      <trkpt lat="48.1306050" lon="8.2319030">
        <ele>253.8</ele>
        <time>2022-06-05T12:32:38Z</time>
      </trkpt>
      <trkpt lat="48.1307460" lon="8.2320430">
        <ele>252.8</ele>
        <time>2022-06-05T12:32:42Z</time>
      </trkpt>
      <trkpt lat="48.1308700" lon="8.2321710">
        <ele>252.2</ele>
        <time>2022-06-05T12:32:46Z</time>
      </trkpt>
      <trkpt lat="48.1309410" lon="8.2322730">
        <ele>251.6</ele>
        <time>2022-06-05T12:32:50Z</time>
      </trkpt>
      <trkpt lat="48.1309410" lon="8.2322730">
        <ele>251.4</ele>
        <time>2022-06-05T12:32:54Z</time>
      </trkpt>
      <trkpt lat="48.1309410" lon="8.2322730">
        <ele>251.2</ele>
        <time>2022-06-05T12:32:58Z</time>
      </trkpt>
      <trkpt lat="48.1309410" lon="8.2322730">
        <ele>251.2</ele>
        <time>2022-06-05T12:33:02Z</time>
      </trkpt>
      <trkpt lat="48.1309810" lon="8.2323200">
        <ele>251.4</ele>
        <time>2022-06-05T12:33:06Z</time>
      </trkpt>
      <trkpt lat="48.1309610" lon="8.2323860">
        <ele>251.2</ele>
        <time>2022-06-05T12:33:10Z</time>
      </trkpt>
      <trkpt lat="48.1308980" lon="8.2324750">
        <ele>251.4</ele>
        <time>2022-06-05T12:33:14Z</time>
      </trkpt>
      <trkpt lat="48.1308350" lon="8.2326280">
        <ele>252.0</ele>
        <time>2022-06-05T12:33:18Z</time>
      </trkpt>
      <trkpt lat="48.1307560" lon="8.2327630">
        <ele>252.6</ele>
        <time>2022-06-05T12:33:22Z</time>
      </trkpt>
      <trkpt lat="48.1306530" lon="8.2328300">
        <ele>252.4</ele>
        <time>2022-06-05T12:33:26Z</time>
      </trkpt>
      <trkpt lat="48.1305680" lon="8.2328600">
        <ele>252.8</ele>
        <time>2022-06-05T12:33:30Z</time>
      </trkpt>
      <trkpt lat="48.1305260" lon="8.2328760">
        <ele>252.8</ele>
        <time>2022-06-05T12:33:34Z</time>
      </trkpt>
      <trkpt lat="48.1305080" lon="8.2328800">
        <ele>252.8</ele>
        <time>2022-06-05T12:33:38Z</time>
      </trkpt>
      <trkpt lat="48.1304450" lon="8.2329210">
        <ele>252.6</ele>
        <time>2022-06-05T12:33:42Z</time>
      </trkpt>
      <trkpt lat="48.1303550" lon="8.2329880">
        <ele>253.2</ele>
        <time>2022-06-05T12:33:46Z</time>
      </trkpt>
      <trkpt lat="48.1302580" lon="8.2330350">
        <ele>253.8</ele>
        <time>2022-06-05T12:33:50Z</time>
      </trkpt>
      <trkpt lat="48.1301630" lon="8.2330900">
        <ele>254.2</ele>
        <time>2022-06-05T12:33:54Z</time>
      </trkpt>
      <trkpt lat="48.1300680" lon="8.2331610">
        <ele>255.2</ele>
        <time>2022-06-05T12:33:58Z</time>
      </trkpt>
      <trkpt lat="48.1299760" lon="8.2332350">
        <ele>255.8</ele>
        <time>2022-06-05T12:34:02Z</time>
      </trkpt>
      <trkpt lat="48.1298780" lon="8.2332700">
        <ele>256.8</ele>
        <time>2022-06-05T12:34:06Z</time>
      </trkpt>
      <trkpt lat="48.1297900" lon="8.2332810">
        <ele>257.2</ele>
        <time>2022-06-05T12:34:10Z</time>
      </trkpt>
      <trkpt lat="48.1297000" lon="8.2333030">
        <ele>258.2</ele>
        <time>2022-06-05T12:34:14Z</time>
      </trkpt>
      <trkpt lat="48.1296210" lon="8.2333380">
        <ele>258.4</ele>
        <time>2022-06-05T12:34:18Z</time>
      </trkpt>
      <trkpt lat="48.1295510" lon="8.2333810">
        <ele>259.4</ele>
        <time>2022-06-05T12:34:22Z</time>
      </trkpt>
      <trkpt lat="48.1294810" lon="8.2334300">
        <ele>259.4</ele>
        <time>2022-06-05T12:34:26Z</time>
      </trkpt>
      <trkpt lat="48.1294100" lon="8.2334680">
        <ele>259.8</ele>
        <time>2022-06-05T12:34:30Z</time>
      </trkpt>
      <trkpt lat="48.1293430" lon="8.2335130">
        <ele>260.8</ele>
        <time>2022-06-05T12:34:34Z</time>
      </trkpt>
      <trkpt lat="48.1292800" lon="8.2335480">
        <ele>261.4</ele>
        <time>2022-06-05T12:34:38Z</time>
      </trkpt>
      <trkpt lat="48.1292200" lon="8.2335780">
        <ele>262.6</ele>
        <time>2022-06-05T12:34:42Z</time>
      </trkpt>
      <trkpt lat="48.1291760" lon="8.2335600">
        <ele>262.2</ele>
        <time>2022-06-05T12:34:46Z</time>
      </trkpt>
      <trkpt lat="48.1291530" lon="8.2335130">
        <ele>262.8</ele>
        <time>2022-06-05T12:34:50Z</time>
      </trkpt>
      <trkpt lat="48.1291330" lon="8.2334360">
        <ele>262.6</ele>
        <time>2022-06-05T12:34:54Z</time>
      </trkpt>
      <trkpt lat="48.1291200" lon="8.2333650">
        <ele>262.6</ele>
        <time>2022-06-05T12:34:58Z</time>
      </trkpt>
      <trkpt lat="48.1290660" lon="8.2332400">
        <ele>262.8</ele>
        <time>2022-06-05T12:35:02Z</time>
      </trkpt>
      <trkpt lat="48.1290580" lon="8.2332550">
        <ele>262.8</ele>
        <time>2022-06-05T12:35:06Z</time>
      </trkpt>
      <trkpt lat="48.1290830" lon="8.2333480">
        <ele>262.0</ele>
        <time>2022-06-05T12:35:10Z</time>
      </trkpt>
      <trkpt lat="48.1291010" lon="8.2334480">
        <ele>262.4</ele>
        <time>2022-06-05T12:35:14Z</time>
      </trkpt>
      <trkpt lat="48.1291250" lon="8.2335180">
        <ele>262.6</ele>
        <time>2022-06-05T12:35:18Z</time>
      </trkpt>
      <trkpt lat="48.1291250" lon="8.2335180">
        <ele>262.6</ele>
        <time>2022-06-05T12:35:22Z</time>
      </trkpt>
      <trkpt lat="48.1291250" lon="8.2335180">
        <ele>262.6</ele>
        <time>2022-06-05T12:35:26Z</time>
      </trkpt>
      <trkpt lat="48.1291250" lon="8.2335180">
        <ele>262.8</ele>
        <time>2022-06-05T12:35:30Z</time>
      </trkpt>
      <trkpt lat="48.1291250" lon="8.2335180">
        <ele>262.8</ele>
        <time>2022-06-05T12:35:34Z</time>
      </trkpt>
      <trkpt lat="48.1291250" lon="8.2335180">
        <ele>263.0</ele>
        <time>2022-06-05T12:35:38Z</time>
      </trkpt>
      <trkpt lat="48.1291250" lon="8.2335180">
        <ele>262.6</ele>
        <time>2022-06-05T12:35:42Z</time>
      </trkpt>
      <trkpt lat="48.1291610" lon="8.2335480">
        <ele>262.8</ele>
        <time>2022-06-05T12:35:46Z</time>
      </trkpt>
      <trkpt lat="48.1291610" lon="8.2335480">
        <ele>262.4</ele>
        <time>2022-06-05T12:35:50Z</time>
      </trkpt>
      <trkpt lat="48.1291610" lon="8.2335480">
        <ele>262.4</ele>
        <time>2022-06-05T12:35:54Z</time>
      </trkpt>
      <trkpt lat="48.1291610" lon="8.2335480">
        <ele>262.6</ele>
        <time>2022-06-05T12:35:58Z</time>
      </trkpt>
      <trkpt lat="48.1291610" lon="8.2335480">
        <ele>262.6</ele>
        <time>2022-06-05T12:36:02Z</time>
      </trkpt>
      <trkpt lat="48.1291610" lon="8.2335480">
        <ele>262.6</ele>
        <time>2022-06-05T12:36:06Z</time>
      </trkpt>
      <trkpt lat="48.1291610" lon="8.2335480">
        <ele>262.2</ele>
        <time>2022-06-05T12:36:10Z</time>
      </trkpt>
      <trkpt lat="48.1291610" lon="8.2335480">
        <ele>262.6</ele>
        <time>2022-06-05T12:36:14Z</time>
      </trkpt>
      <trkpt lat="48.1291610" lon="8.2335480">
        <ele>262.6</ele>
        <time>2022-06-05T12:36:18Z</time>
      </trkpt>
      <trkpt lat="48.1291610" lon="8.2335480">
        <ele>262.6</ele>
        <time>2022-06-05T12:36:22Z</time>
      </trkpt>
      <trkpt lat="48.1291610" lon="8.2335480">
        <ele>262.6</ele>
        <time>2022-06-05T12:36:26Z</time>
      </trkpt>
      <trkpt lat="48.1291610" lon="8.2335480">
        <ele>262.8</ele>
        <time>2022-06-05T12:36:30Z</time>
      </trkpt>
      <trkpt lat="48.1291610" lon="8.2335480">
        <ele>262.4</ele>
        <time>2022-06-05T12:36:34Z</time>
      </trkpt>
      <trkpt lat="48.1291610" lon="8.2335480">
        <ele>262.6</ele>
        <time>2022-06-05T12:36:38Z</time>
      </trkpt>
      <trkpt lat="48.1291610" lon="8.2335480">
        <ele>262.8</ele>
        <time>2022-06-05T12:36:42Z</time>
      </trkpt>
      <trkpt lat="48.1291610" lon="8.2335480">
        <ele>262.6</ele>
        <time>2022-06-05T12:36:46Z</time>
      </trkpt>
      <trkpt lat="48.1291610" lon="8.2335480">
        <ele>262.8</ele>
        <time>2022-06-05T12:36:50Z</time>
      </trkpt>
      <trkpt lat="48.1291610" lon="8.2335480">
        <ele>262.6</ele>
        <time>2022-06-05T12:36:54Z</time>
      </trkpt>
      <trkpt lat="48.1291610" lon="8.2335480">
        <ele>262.0</ele>
        <time>2022-06-05T12:36:58Z</time>
      </trkpt>
      <trkpt lat="48.1291410" lon="8.2335880">
        <ele>262.6</ele>
        <time>2022-06-05T12:37:02Z</time>
      </trkpt>
      <trkpt lat="48.1290980" lon="8.2336250">
        <ele>263.0</ele>
        <time>2022-06-05T12:37:06Z</time>
      </trkpt>
      <trkpt lat="48.1290310" lon="8.2336380">
        <ele>263.2</ele>
        <time>2022-06-05T12:37:10Z</time>
      </trkpt>
      <trkpt lat="48.1289710" lon="8.2336610">
        <ele>263.8</ele>
        <time>2022-06-05T12:37:14Z</time>
      </trkpt>
      <trkpt lat="48.1289180" lon="8.2336880">
        <ele>264.4</ele>
        <time>2022-06-05T12:37:18Z</time>
      </trkpt>
      <trkpt lat="48.1288580" lon="8.2337130">
        <ele>264.8</ele>
        <time>2022-06-05T12:37:22Z</time>
      </trkpt>
      <trkpt lat="48.1288100" lon="8.2337500">
        <ele>265.0</ele>
        <time>2022-06-05T12:37:26Z</time>
      </trkpt>
      <trkpt lat="48.1287600" lon="8.2337880">
        <ele>265.2</ele>
        <time>2022-06-05T12:37:30Z</time>
      </trkpt>
      <trkpt lat="48.1287060" lon="8.2338150">
        <ele>266.2</ele>
        <time>2022-06-05T12:37:34Z</time>
      </trkpt>
      <trkpt lat="48.1286610" lon="8.2338530">
        <ele>266.8</ele>
        <time>2022-06-05T12:37:38Z</time>
      </trkpt>
      <trkpt lat="48.1286180" lon="8.2338850">
        <ele>267.2</ele>
        <time>2022-06-05T12:37:42Z</time>
      </trkpt>
      <trkpt lat="48.1285700" lon="8.2339080">
        <ele>268.0</ele>
        <time>2022-06-05T12:37:46Z</time>
      </trkpt>
      <trkpt lat="48.1285200" lon="8.2339260">
        <ele>268.0</ele>
        <time>2022-06-05T12:37:50Z</time>
      </trkpt>
      <trkpt lat="48.1284810" lon="8.2339730">
        <ele>268.8</ele>
        <time>2022-06-05T12:37:54Z</time>
      </trkpt>
      <trkpt lat="48.1284380" lon="8.2340130">
        <ele>269.0</ele>
        <time>2022-06-05T12:37:58Z</time>
      </trkpt>
      <trkpt lat="48.1283950" lon="8.2340510">
        <ele>269.8</ele>
        <time>2022-06-05T12:38:02Z</time>
      </trkpt>
      <trkpt lat="48.1283430" lon="8.2340900">
        <ele>270.6</ele>
        <time>2022-06-05T12:38:06Z</time>
      </trkpt>
      <trkpt lat="48.1283030" lon="8.2341410">
        <ele>271.0</ele>
        <time>2022-06-05T12:38:10Z</time>
      </trkpt>
      <trkpt lat="48.1282350" lon="8.2341480">
        <ele>271.2</ele>
        <time>2022-06-05T12:38:14Z</time>
      </trkpt>
      <trkpt lat="48.1281810" lon="8.2341610">
        <ele>272.4</ele>
        <time>2022-06-05T12:38:18Z</time>
      </trkpt>
      <trkpt lat="48.1281280" lon="8.2341810">
        <ele>273.0</ele>
        <time>2022-06-05T12:38:22Z</time>
      </trkpt>
      <trkpt lat="48.1280850" lon="8.2341780">
        <ele>273.4</ele>
        <time>2022-06-05T12:38:26Z</time>
      </trkpt>
      <trkpt lat="48.1280460" lon="8.2341130">
        <ele>273.8</ele>
        <time>2022-06-05T12:38:30Z</time>
      </trkpt>
      <trkpt lat="48.1280200" lon="8.2340230">
        <ele>274.4</ele>
        <time>2022-06-05T12:38:34Z</time>
      </trkpt>
      <trkpt lat="48.1279950" lon="8.2339480">
        <ele>274.4</ele>
        <time>2022-06-05T12:38:38Z</time>
      </trkpt>
      <trkpt lat="48.1279930" lon="8.2338710">
        <ele>275.0</ele>
        <time>2022-06-05T12:38:42Z</time>
      </trkpt>
      <trkpt lat="48.1279880" lon="8.2337760">
        <ele>275.0</ele>
        <time>2022-06-05T12:38:46Z</time>
      </trkpt>
      <trkpt lat="48.1279880" lon="8.2336550">
        <ele>275.0</ele>
        <time>2022-06-05T12:38:50Z</time>
      </trkpt>
      <trkpt lat="48.1280080" lon="8.2335530">
        <ele>275.2</ele>
        <time>2022-06-05T12:38:54Z</time>
      </trkpt>
      <trkpt lat="48.1280400" lon="8.2334910">
        <ele>275.2</ele>
        <time>2022-06-05T12:38:58Z</time>
      </trkpt>
      <trkpt lat="48.1280450" lon="8.2334360">
        <ele>275.4</ele>
        <time>2022-06-05T12:39:02Z</time>
      </trkpt>
      <trkpt lat="48.1280560" lon="8.2334680">
        <ele>275.2</ele>
        <time>2022-06-05T12:39:06Z</time>
      </trkpt>
      <trkpt lat="48.1280130" lon="8.2335600">
        <ele>275.4</ele>
        <time>2022-06-05T12:39:10Z</time>
      </trkpt>
      <trkpt lat="48.1279660" lon="8.2336400">
        <ele>275.0</ele>
        <time>2022-06-05T12:39:14Z</time>
      </trkpt>
      <trkpt lat="48.1279410" lon="8.2337350">
        <ele>275.2</ele>
        <time>2022-06-05T12:39:18Z</time>
      </trkpt>
      <trkpt lat="48.1279700" lon="8.2338560">
        <ele>274.8</ele>
        <time>2022-06-05T12:39:22Z</time>
      </trkpt>
      <trkpt lat="48.1279880" lon="8.2339930">
        <ele>273.8</ele>
        <time>2022-06-05T12:39:26Z</time>
      </trkpt>
      <trkpt lat="48.1280030" lon="8.2341150">
        <ele>274.0</ele>
        <time>2022-06-05T12:39:30Z</time>
      </trkpt>
      <trkpt lat="48.1280030" lon="8.2341150">
        <ele>273.8</ele>
        <time>2022-06-05T12:39:34Z</time>
      </trkpt>
      <trkpt lat="48.1280030" lon="8.2341150">
        <ele>273.8</ele>
        <time>2022-06-05T12:39:38Z</time>
      </trkpt>
      <trkpt lat="48.1280030" lon="8.2341150">
        <ele>273.6</ele>
        <time>2022-06-05T12:39:42Z</time>
      </trkpt>
      <trkpt lat="48.1280030" lon="8.2341150">
        <ele>273.8</ele>
        <time>2022-06-05T12:39:46Z</time>
      </trkpt>
      <trkpt lat="48.1280030" lon="8.2341150">
        <ele>273.8</ele>
        <time>2022-06-05T12:39:50Z</time>
      </trkpt>
      <trkpt lat="48.1280030" lon="8.2341150">
        <ele>273.4</ele>
        <time>2022-06-05T12:39:54Z</time>
      </trkpt>
      <trkpt lat="48.1280030" lon="8.2341150">
        <ele>273.6</ele>
        <time>2022-06-05T12:39:58Z</time>
      </trkpt>
      <trkpt lat="48.1280030" lon="8.2341150">
        <ele>273.6</ele>
        <time>2022-06-05T12:40:02Z</time>
      </trkpt>
      <trkpt lat="48.1280030" lon="8.2341150">
        <ele>273.6</ele>
        <time>2022-06-05T12:40:06Z</time>
      </trkpt>
      <trkpt lat="48.1280030" lon="8.2341150">
        <ele>273.6</ele>
        <time>2022-06-05T12:40:10Z</time>
      </trkpt>
      <trkpt lat="48.1280030" lon="8.2341150">
        <ele>273.8</ele>
        <time>2022-06-05T12:40:14Z</time>
      </trkpt>
      <trkpt lat="48.1280030" lon="8.2341150">
        <ele>273.6</ele>
        <time>2022-06-05T12:40:18Z</time>
      </trkpt>
      <trkpt lat="48.1280030" lon="8.2341150">
        <ele>273.6</ele>
        <time>2022-06-05T12:40:22Z</time>
      </trkpt>
      <trkpt lat="48.1280030" lon="8.2341150">
        <ele>273.6</ele>
        <time>2022-06-05T12:40:26Z</time>
      </trkpt>
      <trkpt lat="48.1280030" lon="8.2341150">
        <ele>273.6</ele>
        <time>2022-06-05T12:40:30Z</time>
      </trkpt>
      <trkpt lat="48.1280030" lon="8.2341150">
        <ele>273.8</ele>
        <time>2022-06-05T12:40:34Z</time>
      </trkpt>
      <trkpt lat="48.1280030" lon="8.2341150">
        <ele>274.0</ele>
        <time>2022-06-05T12:40:38Z</time>
      </trkpt>
      <trkpt lat="48.1280030" lon="8.2341150">
        <ele>273.8</ele>
        <time>2022-06-05T12:40:42Z</time>
      </trkpt>
      <trkpt lat="48.1280030" lon="8.2341150">
        <ele>274.0</ele>
        <time>2022-06-05T12:40:46Z</time>
      </trkpt>
      <trkpt lat="48.1280030" lon="8.2341150">
        <ele>274.2</ele>
        <time>2022-06-05T12:40:50Z</time>
      </trkpt>
      <trkpt lat="48.1280030" lon="8.2341150">
        <ele>273.8</ele>
        <time>2022-06-05T12:40:54Z</time>
      </trkpt>
      <trkpt lat="48.1280030" lon="8.2341150">
        <ele>274.4</ele>
        <time>2022-06-05T12:40:58Z</time>
      </trkpt>
      <trkpt lat="48.1280030" lon="8.2341150">
        <ele>274.0</ele>
        <time>2022-06-05T12:41:02Z</time>
      </trkpt>
      <trkpt lat="48.1280030" lon="8.2341150">
        <ele>274.0</ele>
        <time>2022-06-05T12:41:06Z</time>
      </trkpt>
      <trkpt lat="48.1280030" lon="8.2341150">
        <ele>274.0</ele>
        <time>2022-06-05T12:41:10Z</time>
      </trkpt>
      <trkpt lat="48.1280030" lon="8.2341150">
        <ele>274.0</ele>
        <time>2022-06-05T12:41:14Z</time>
      </trkpt>
      <trkpt lat="48.1280030" lon="8.2341150">
        <ele>274.0</ele>
        <time>2022-06-05T12:41:18Z</time>
      </trkpt>
      <trkpt lat="48.1280030" lon="8.2341150">
        <ele>274.0</ele>
        <time>2022-06-05T12:41:22Z</time>
      </trkpt>
      <trkpt lat="48.1280030" lon="8.2341150">
        <ele>274.2</ele>
        <time>2022-06-05T12:41:26Z</time>
      </trkpt>
      <trkpt lat="48.1280030" lon="8.2341150">
        <ele>274.0</ele>
        <time>2022-06-05T12:41:30Z</time>
      </trkpt>
      <trkpt lat="48.1280030" lon="8.2341150">
        <ele>273.8</ele>
        <time>2022-06-05T12:41:34Z</time>
      </trkpt>
      <trkpt lat="48.1280300" lon="8.2341430">
        <ele>274.2</ele>
        <time>2022-06-05T12:41:38Z</time>
      </trkpt>
      <trkpt lat="48.1280300" lon="8.2341430">
        <ele>274.0</ele>
        <time>2022-06-05T12:41:42Z</time>
      </trkpt>
      <trkpt lat="48.1280300" lon="8.2341430">
        <ele>273.8</ele>
        <time>2022-06-05T12:41:46Z</time>
      </trkpt>
      <trkpt lat="48.1280560" lon="8.2341450">
        <ele>273.6</ele>
        <time>2022-06-05T12:41:50Z</time>
      </trkpt>
      <trkpt lat="48.1281130" lon="8.2341400">
        <ele>273.2</ele>
        <time>2022-06-05T12:41:54Z</time>
      </trkpt>
      <trkpt lat="48.1281860" lon="8.2341200">
        <ele>272.0</ele>
        <time>2022-06-05T12:41:58Z</time>
      </trkpt>
      <trkpt lat="48.1282560" lon="8.2340930">
        <ele>270.6</ele>
        <time>2022-06-05T12:42:02Z</time>
      </trkpt>
      <trkpt lat="48.1284030" lon="8.2340130">
        <ele>269.2</ele>
        <time>2022-06-05T12:42:06Z</time>
      </trkpt>
      <trkpt lat="48.1285910" lon="8.2339050">
        <ele>266.6</ele>
        <time>2022-06-05T12:42:10Z</time>
      </trkpt>
      <trkpt lat="48.1287960" lon="8.2337610">
        <ele>264.6</ele>
        <time>2022-06-05T12:42:14Z</time>
      </trkpt>
      <trkpt lat="48.1290230" lon="8.2336430">
        <ele>262.8</ele>
        <time>2022-06-05T12:42:18Z</time>
      </trkpt>
      <trkpt lat="48.1292230" lon="8.2335160">
        <ele>260.2</ele>
        <time>2022-06-05T12:42:22Z</time>
      </trkpt>
      <trkpt lat="48.1294460" lon="8.2333860">
        <ele>258.6</ele>
        <time>2022-06-05T12:42:26Z</time>
      </trkpt>
      <trkpt lat="48.1296630" lon="8.2332480">
        <ele>256.6</ele>
        <time>2022-06-05T12:42:30Z</time>
      </trkpt>
      <trkpt lat="48.1299180" lon="8.2331380">
        <ele>254.6</ele>
        <time>2022-06-05T12:42:34Z</time>
      </trkpt>
      <trkpt lat="48.1302050" lon="8.2330130">
        <ele>253.6</ele>
        <time>2022-06-05T12:42:38Z</time>
      </trkpt>
      <trkpt lat="48.1304110" lon="8.2328930">
        <ele>253.2</ele>
        <time>2022-06-05T12:42:42Z</time>
      </trkpt>
      <trkpt lat="48.1306010" lon="8.2328260">
        <ele>252.8</ele>
        <time>2022-06-05T12:42:46Z</time>
      </trkpt>
      <trkpt lat="48.1307950" lon="8.2327160">
        <ele>252.6</ele>
        <time>2022-06-05T12:42:50Z</time>
      </trkpt>
      <trkpt lat="48.1308950" lon="8.2325710">
        <ele>251.8</ele>
        <time>2022-06-05T12:42:54Z</time>
      </trkpt>
      <trkpt lat="48.1309480" lon="8.2324060">
        <ele>252.0</ele>
        <time>2022-06-05T12:42:58Z</time>
      </trkpt>
      <trkpt lat="48.1309760" lon="8.2323010">
        <ele>251.6</ele>
        <time>2022-06-05T12:43:02Z</time>
      </trkpt>
      <trkpt lat="48.1309680" lon="8.2322760">
        <ele>251.6</ele>
        <time>2022-06-05T12:43:06Z</time>
      </trkpt>
      <trkpt lat="48.1309530" lon="8.2322030">
        <ele>252.2</ele>
        <time>2022-06-05T12:43:10Z</time>
      </trkpt>
      <trkpt lat="48.1308750" lon="8.2321310">
        <ele>253.2</ele>
        <time>2022-06-05T12:43:14Z</time>
      </trkpt>
      <trkpt lat="48.1307830" lon="8.2320560">
        <ele>253.8</ele>
        <time>2022-06-05T12:43:18Z</time>
      </trkpt>
      <trkpt lat="48.1306930" lon="8.2319730">
        <ele>254.4</ele>
        <time>2022-06-05T12:43:22Z</time>
      </trkpt>
      <trkpt lat="48.1306110" lon="8.2318980">
        <ele>255.2</ele>
        <time>2022-06-05T12:43:26Z</time>
      </trkpt>
      <trkpt lat="48.1305330" lon="8.2318210">
        <ele>255.8</ele>
        <time>2022-06-05T12:43:30Z</time>
      </trkpt>
      <trkpt lat="48.1304550" lon="8.2317550">
        <ele>256.2</ele>
        <time>2022-06-05T12:43:34Z</time>
      </trkpt>
      <trkpt lat="48.1304010" lon="8.2316580">
        <ele>256.6</ele>
        <time>2022-06-05T12:43:38Z</time>
      </trkpt>
      <trkpt lat="48.1304500" lon="8.2315160">
        <ele>256.4</ele>
        <time>2022-06-05T12:43:42Z</time>
      </trkpt>
      <trkpt lat="48.1305280" lon="8.2313100">
        <ele>255.6</ele>
        <time>2022-06-05T12:43:46Z</time>
      </trkpt>
      <trkpt lat="48.1306160" lon="8.2310960">
        <ele>255.2</ele>
        <time>2022-06-05T12:43:50Z</time>
      </trkpt>
      <trkpt lat="48.1307150" lon="8.2308580">
        <ele>254.0</ele>
        <time>2022-06-05T12:43:54Z</time>
      </trkpt>
      <trkpt lat="48.1308150" lon="8.2306230">
        <ele>254.0</ele>
        <time>2022-06-05T12:43:58Z</time>
      </trkpt>
      <trkpt lat="48.1309110" lon="8.2304500">
        <ele>254.6</ele>
        <time>2022-06-05T12:44:02Z</time>
      </trkpt>
      <trkpt lat="48.1310250" lon="8.2304780">
        <ele>254.6</ele>
        <time>2022-06-05T12:44:06Z</time>
      </trkpt>
      <trkpt lat="48.1311430" lon="8.2305830">
        <ele>254.8</ele>
        <time>2022-06-05T12:44:10Z</time>
      </trkpt>
      <trkpt lat="48.1312180" lon="8.2307180">
        <ele>255.0</ele>
        <time>2022-06-05T12:44:14Z</time>
      </trkpt>
      <trkpt lat="48.1313060" lon="8.2308450">
        <ele>255.0</ele>
        <time>2022-06-05T12:44:18Z</time>
      </trkpt>
      <trkpt lat="48.1314310" lon="8.2309900">
        <ele>254.4</ele>
        <time>2022-06-05T12:44:22Z</time>
      </trkpt>
      <trkpt lat="48.1315710" lon="8.2311630">
        <ele>254.2</ele>
        <time>2022-06-05T12:44:26Z</time>
      </trkpt>
      <trkpt lat="48.1317250" lon="8.2313580">
        <ele>253.2</ele>
        <time>2022-06-05T12:44:30Z</time>
      </trkpt>
      <trkpt lat="48.1319300" lon="8.2315460">
        <ele>251.4</ele>
        <time>2022-06-05T12:44:34Z</time>
      </trkpt>
      <trkpt lat="48.1321710" lon="8.2317610">
        <ele>249.2</ele>
        <time>2022-06-05T12:44:38Z</time>
      </trkpt>
      <trkpt lat="48.1324260" lon="8.2319550">
        <ele>248.6</ele>
        <time>2022-06-05T12:44:42Z</time>
      </trkpt>
      <trkpt lat="48.1326200" lon="8.2321400">
        <ele>247.8</ele>
        <time>2022-06-05T12:44:46Z</time>
      </trkpt>
      <trkpt lat="48.1327810" lon="8.2322710">
        <ele>247.4</ele>
        <time>2022-06-05T12:44:50Z</time>
      </trkpt>
      <trkpt lat="48.1329210" lon="8.2323710">
        <ele>247.2</ele>
        <time>2022-06-05T12:44:54Z</time>
      </trkpt>
      <trkpt lat="48.1330030" lon="8.2324460">
        <ele>247.4</ele>
        <time>2022-06-05T12:44:58Z</time>
      </trkpt>
      <trkpt lat="48.1330030" lon="8.2324460">
        <ele>247.4</ele>
        <time>2022-06-05T12:45:02Z</time>
      </trkpt>
      <trkpt lat="48.1330030" lon="8.2324460">
        <ele>247.2</ele>
        <time>2022-06-05T12:45:06Z</time>
      </trkpt>
      <trkpt lat="48.1330150" lon="8.2324680">
        <ele>247.2</ele>
        <time>2022-06-05T12:45:10Z</time>
      </trkpt>
      <trkpt lat="48.1330400" lon="8.2324960">
        <ele>247.2</ele>
        <time>2022-06-05T12:45:14Z</time>
      </trkpt>
      <trkpt lat="48.1330400" lon="8.2324960">
        <ele>247.2</ele>
        <time>2022-06-05T12:45:18Z</time>
      </trkpt>
      <trkpt lat="48.1330400" lon="8.2324960">
        <ele>247.2</ele>
        <time>2022-06-05T12:45:22Z</time>
      </trkpt>
      <trkpt lat="48.1330400" lon="8.2324960">
        <ele>247.0</ele>
        <time>2022-06-05T12:45:26Z</time>
      </trkpt>
      <trkpt lat="48.1330400" lon="8.2324960">
        <ele>247.6</ele>
        <time>2022-06-05T12:45:30Z</time>
      </trkpt>
      <trkpt lat="48.1330400" lon="8.2324960">
        <ele>248.0</ele>
        <time>2022-06-05T12:45:34Z</time>
      </trkpt>
      <trkpt lat="48.1330400" lon="8.2324960">
        <ele>247.4</ele>
        <time>2022-06-05T12:45:38Z</time>
      </trkpt>
      <trkpt lat="48.1330400" lon="8.2324960">
        <ele>247.4</ele>
        <time>2022-06-05T12:45:42Z</time>
      </trkpt>
      <trkpt lat="48.1330400" lon="8.2324960">
        <ele>247.6</ele>
        <time>2022-06-05T12:45:46Z</time>
      </trkpt>
      <trkpt lat="48.1330480" lon="8.2325050">
        <ele>247.8</ele>
        <time>2022-06-05T12:45:50Z</time>
      </trkpt>
      <trkpt lat="48.1330480" lon="8.2325050">
        <ele>248.0</ele>
        <time>2022-06-05T12:45:54Z</time>
      </trkpt>
      <trkpt lat="48.1330480" lon="8.2325050">
        <ele>247.6</ele>
        <time>2022-06-05T12:45:58Z</time>
      </trkpt>
      <trkpt lat="48.1330480" lon="8.2325050">
        <ele>247.8</ele>
        <time>2022-06-05T12:46:02Z</time>
      </trkpt>
      <trkpt lat="48.1330480" lon="8.2325050">
        <ele>247.6</ele>
        <time>2022-06-05T12:46:06Z</time>
      </trkpt>
      <trkpt lat="48.1330710" lon="8.2324810">
        <ele>247.8</ele>
        <time>2022-06-05T12:46:10Z</time>
      </trkpt>
      <trkpt lat="48.1330710" lon="8.2324810">
        <ele>247.6</ele>
        <time>2022-06-05T12:46:14Z</time>
      </trkpt>
      <trkpt lat="48.1330710" lon="8.2324810">
        <ele>247.6</ele>
        <time>2022-06-05T12:46:18Z</time>
      </trkpt>
      <trkpt lat="48.1330710" lon="8.2324810">
        <ele>248.0</ele>
        <time>2022-06-05T12:46:22Z</time>
      </trkpt>
      <trkpt lat="48.1330710" lon="8.2324810">
        <ele>247.8</ele>
        <time>2022-06-05T12:46:26Z</time>
      </trkpt>
      <trkpt lat="48.1330280" lon="8.2324930">
        <ele>247.6</ele>
        <time>2022-06-05T12:46:30Z</time>
      </trkpt>
      <trkpt lat="48.1329810" lon="8.2324330">
        <ele>248.0</ele>
        <time>2022-06-05T12:46:34Z</time>
      </trkpt>
      <trkpt lat="48.1329080" lon="8.2323600">
        <ele>248.0</ele>
        <time>2022-06-05T12:46:38Z</time>
      </trkpt>
      <trkpt lat="48.1328180" lon="8.2322960">
        <ele>248.0</ele>
        <time>2022-06-05T12:46:42Z</time>
      </trkpt>
      <trkpt lat="48.1327260" lon="8.2322400">
        <ele>248.6</ele>
        <time>2022-06-05T12:46:46Z</time>
      </trkpt>
      <trkpt lat="48.1326350" lon="8.2321630">
        <ele>248.6</ele>
        <time>2022-06-05T12:46:50Z</time>
      </trkpt>
      <trkpt lat="48.1325430" lon="8.2320650">
        <ele>249.0</ele>
        <time>2022-06-05T12:46:54Z</time>
      </trkpt>
      <trkpt lat="48.1324360" lon="8.2319710">
        <ele>249.6</ele>
        <time>2022-06-05T12:46:58Z</time>
      </trkpt>
      <trkpt lat="48.1323400" lon="8.2318700">
        <ele>249.8</ele>
        <time>2022-06-05T12:47:02Z</time>
      </trkpt>
      <trkpt lat="48.1322260" lon="8.2318000">
        <ele>250.2</ele>
        <time>2022-06-05T12:47:06Z</time>
      </trkpt>
      <trkpt lat="48.1321230" lon="8.2317210">
        <ele>250.2</ele>
        <time>2022-06-05T12:47:10Z</time>
      </trkpt>
      <trkpt lat="48.1320250" lon="8.2316530">
        <ele>251.4</ele>
        <time>2022-06-05T12:47:14Z</time>
      </trkpt>
      <trkpt lat="48.1319330" lon="8.2315710">
        <ele>252.6</ele>
        <time>2022-06-05T12:47:18Z</time>
      </trkpt>
      <trkpt lat="48.1318360" lon="8.2314930">
        <ele>253.2</ele>
        <time>2022-06-05T12:47:22Z</time>
      </trkpt>
      <trkpt lat="48.1317450" lon="8.2314180">
        <ele>254.0</ele>
        <time>2022-06-05T12:47:26Z</time>
      </trkpt>
      <trkpt lat="48.1316630" lon="8.2313280">
        <ele>254.2</ele>
        <time>2022-06-05T12:47:30Z</time>
      </trkpt>
      <trkpt lat="48.1315710" lon="8.2312360">
        <ele>255.0</ele>
        <time>2022-06-05T12:47:34Z</time>
      </trkpt>
      <trkpt lat="48.1314860" lon="8.2311300">
        <ele>255.6</ele>
        <time>2022-06-05T12:47:38Z</time>
      </trkpt>
      <trkpt lat="48.1314010" lon="8.2310450">
        <ele>255.6</ele>
        <time>2022-06-05T12:47:42Z</time>
      </trkpt>
      <trkpt lat="48.1313210" lon="8.2309510">
        <ele>255.6</ele>
        <time>2022-06-05T12:47:46Z</time>
      </trkpt>
      <trkpt lat="48.1312330" lon="8.2308560">
        <ele>256.2</ele>
        <time>2022-06-05T12:47:50Z</time>
      </trkpt>
      <trkpt lat="48.1311360" lon="8.2307430">
        <ele>256.2</ele>
        <time>2022-06-05T12:47:54Z</time>
      </trkpt>
      <trkpt lat="48.1310330" lon="8.2306410">
        <ele>255.8</ele>
        <time>2022-06-05T12:47:58Z</time>
      </trkpt>
      <trkpt lat="48.1309330" lon="8.2305550">
        <ele>255.4</ele>
        <time>2022-06-05T12:48:02Z</time>
      </trkpt>
      <trkpt lat="48.1308480" lon="8.2305560">
        <ele>255.4</ele>
        <time>2022-06-05T12:48:06Z</time>
      </trkpt>
      <trkpt lat="48.1307750" lon="8.2306950">
        <ele>255.4</ele>
        <time>2022-06-05T12:48:10Z</time>
      </trkpt>
      <trkpt lat="48.1307030" lon="8.2308760">
        <ele>255.6</ele>
        <time>2022-06-05T12:48:14Z</time>
      </trkpt>
      <trkpt lat="48.1306230" lon="8.2310480">
        <ele>255.4</ele>
        <time>2022-06-05T12:48:18Z</time>
      </trkpt>
      <trkpt lat="48.1305560" lon="8.2311610">
        <ele>255.8</ele>
        <time>2022-06-05T12:48:22Z</time>
      </trkpt>
      <trkpt lat="48.1304880" lon="8.2313200">
        <ele>256.2</ele>
        <time>2022-06-05T12:48:26Z</time>
      </trkpt>
      <trkpt lat="48.1304210" lon="8.2314850">
        <ele>257.0</ele>
        <time>2022-06-05T12:48:30Z</time>
      </trkpt>
      <trkpt lat="48.1303910" lon="8.2316180">
        <ele>257.4</ele>
        <time>2022-06-05T12:48:34Z</time>
      </trkpt>
      <trkpt lat="48.1304210" lon="8.2317360">
        <ele>257.2</ele>
        <time>2022-06-05T12:48:38Z</time>
      </trkpt>
      <trkpt lat="48.1305100" lon="8.2318760">
        <ele>256.2</ele>
        <time>2022-06-05T12:48:42Z</time>
      </trkpt>
      <trkpt lat="48.1306160" lon="8.2319960">
        <ele>255.8</ele>
        <time>2022-06-05T12:48:46Z</time>
      </trkpt>
      <trkpt lat="48.1307380" lon="8.2320930">
        <ele>255.2</ele>
        <time>2022-06-05T12:48:50Z</time>
      </trkpt>
      <trkpt lat="48.1308760" lon="8.2322230">
        <ele>254.2</ele>
        <time>2022-06-05T12:48:54Z</time>
      </trkpt>
      <trkpt lat="48.1310380" lon="8.2323760">
        <ele>253.2</ele>
        <time>2022-06-05T12:48:58Z</time>
      </trkpt>
      <trkpt lat="48.1311980" lon="8.2325300">
        <ele>251.8</ele>
        <time>2022-06-05T12:49:02Z</time>
      </trkpt>
      <trkpt lat="48.1313610" lon="8.2326710">
        <ele>250.0</ele>
        <time>2022-06-05T12:49:06Z</time>
      </trkpt>
      <trkpt lat="48.1315050" lon="8.2328010">
        <ele>248.8</ele>
        <time>2022-06-05T12:49:10Z</time>
      </trkpt>
      <trkpt lat="48.1316050" lon="8.2329030">
        <ele>248.2</ele>
        <time>2022-06-05T12:49:14Z</time>
      </trkpt>
      <trkpt lat="48.1316050" lon="8.2329030">
        <ele>247.6</ele>
        <time>2022-06-05T12:49:18Z</time>
      </trkpt>
      <trkpt lat="48.1316050" lon="8.2329030">
        <ele>247.8</ele>
        <time>2022-06-05T12:49:22Z</time>
      </trkpt>
      <trkpt lat="48.1316050" lon="8.2329030">
        <ele>247.8</ele>
        <time>2022-06-05T12:49:26Z</time>
      </trkpt>
      <trkpt lat="48.1316050" lon="8.2329030">
        <ele>247.6</ele>
        <time>2022-06-05T12:49:30Z</time>
      </trkpt>
      <trkpt lat="48.1316050" lon="8.2329030">
        <ele>247.4</ele>
        <time>2022-06-05T12:49:34Z</time>
      </trkpt>
      <trkpt lat="48.1316050" lon="8.2329030">
        <ele>247.6</ele>
        <time>2022-06-05T12:49:38Z</time>
      </trkpt>
      <trkpt lat="48.1316050" lon="8.2329030">
        <ele>248.0</ele>
        <time>2022-06-05T12:49:42Z</time>
      </trkpt>
      <trkpt lat="48.1316050" lon="8.2329030">
        <ele>247.8</ele>
        <time>2022-06-05T12:49:46Z</time>
      </trkpt>
      <trkpt lat="48.1316050" lon="8.2329030">
        <ele>247.8</ele>
        <time>2022-06-05T12:49:50Z</time>
      </trkpt>
      <trkpt lat="48.1316050" lon="8.2329030">
        <ele>247.0</ele>
        <time>2022-06-05T12:49:54Z</time>
      </trkpt>
      <trkpt lat="48.1316050" lon="8.2329030">
        <ele>247.2</ele>
        <time>2022-06-05T12:49:58Z</time>
      </trkpt>
      <trkpt lat="48.1316050" lon="8.2329030">
        <ele>247.6</ele>
        <time>2022-06-05T12:50:02Z</time>
      </trkpt>
      <trkpt lat="48.1316050" lon="8.2329030">
        <ele>247.6</ele>
        <time>2022-06-05T12:50:06Z</time>
      </trkpt>
      <trkpt lat="48.1316050" lon="8.2329030">
        <ele>247.4</ele>
        <time>2022-06-05T12:50:10Z</time>
      </trkpt>
      <trkpt lat="48.1316050" lon="8.2329030">
        <ele>247.8</ele>
        <time>2022-06-05T12:50:14Z</time>
      </trkpt>
      <trkpt lat="48.1316050" lon="8.2329030">
        <ele>248.0</ele>
        <time>2022-06-05T12:50:18Z</time>
      </trkpt>
      <trkpt lat="48.1316050" lon="8.2329030">
        <ele>247.8</ele>
        <time>2022-06-05T12:50:22Z</time>
      </trkpt>
      <trkpt lat="48.1316050" lon="8.2329030">
        <ele>247.6</ele>
        <time>2022-06-05T12:50:26Z</time>
      </trkpt>
      <trkpt lat="48.1316500" lon="8.2328850">
        <ele>247.6</ele>
        <time>2022-06-05T12:50:30Z</time>
      </trkpt>
      <trkpt lat="48.1317310" lon="8.2329460">
        <ele>247.4</ele>
        <time>2022-06-05T12:50:34Z</time>
      </trkpt>
      <trkpt lat="48.1318660" lon="8.2330730">
        <ele>246.2</ele>
        <time>2022-06-05T12:50:38Z</time>
      </trkpt>
      <trkpt lat="48.1319950" lon="8.2331810">
        <ele>244.6</ele>
        <time>2022-06-05T12:50:42Z</time>
      </trkpt>
      <trkpt lat="48.1321110" lon="8.2332810">
        <ele>244.0</ele>
        <time>2022-06-05T12:50:46Z</time>
      </trkpt>
      <trkpt lat="48.1322330" lon="8.2333600">
        <ele>243.4</ele>
        <time>2022-06-05T12:50:50Z</time>
      </trkpt>
      <trkpt lat="48.1323230" lon="8.2334630">
        <ele>242.8</ele>
        <time>2022-06-05T12:50:54Z</time>
      </trkpt>
      <trkpt lat="48.1323230" lon="8.2334630">
        <ele>242.4</ele>
        <time>2022-06-05T12:50:58Z</time>
      </trkpt>
      <trkpt lat="48.1323230" lon="8.2334630">
        <ele>242.6</ele>
        <time>2022-06-05T12:51:02Z</time>
      </trkpt>
      <trkpt lat="48.1323230" lon="8.2334630">
        <ele>243.2</ele>
        <time>2022-06-05T12:51:06Z</time>
      </trkpt>
      <trkpt lat="48.1323230" lon="8.2334630">
        <ele>242.6</ele>
        <time>2022-06-05T12:51:10Z</time>
      </trkpt>
      <trkpt lat="48.1323230" lon="8.2334630">
        <ele>243.0</ele>
        <time>2022-06-05T12:51:14Z</time>
      </trkpt>
      <trkpt lat="48.1323750" lon="8.2335430">
        <ele>242.4</ele>
        <time>2022-06-05T12:51:18Z</time>
      </trkpt>
      <trkpt lat="48.1323950" lon="8.2335230">
        <ele>242.6</ele>
        <time>2022-06-05T12:51:22Z</time>
      </trkpt>
      <trkpt lat="48.1324610" lon="8.2334630">
        <ele>242.4</ele>
        <time>2022-06-05T12:51:26Z</time>
      </trkpt>
      <trkpt lat="48.1325260" lon="8.2333130">
        <ele>242.4</ele>
        <time>2022-06-05T12:51:30Z</time>
      </trkpt>
      <trkpt lat="48.1325800" lon="8.2331060">
        <ele>241.2</ele>
        <time>2022-06-05T12:51:34Z</time>
      </trkpt>
      <trkpt lat="48.1326300" lon="8.2329300">
        <ele>241.4</ele>
        <time>2022-06-05T12:51:38Z</time>
      </trkpt>
      <trkpt lat="48.1325930" lon="8.2327560">
        <ele>241.6</ele>
        <time>2022-06-05T12:51:42Z</time>
      </trkpt>
      <trkpt lat="48.1325630" lon="8.2326210">
        <ele>241.6</ele>
        <time>2022-06-05T12:51:46Z</time>
      </trkpt>
      <trkpt lat="48.1325200" lon="8.2325050">
        <ele>242.2</ele>
        <time>2022-06-05T12:51:50Z</time>
      </trkpt>
      <trkpt lat="48.1325030" lon="8.2324330">
        <ele>242.2</ele>
        <time>2022-06-05T12:51:54Z</time>
      </trkpt>
      <trkpt lat="48.1324980" lon="8.2324100">
        <ele>242.2</ele>
        <time>2022-06-05T12:51:58Z</time>
      </trkpt>
      <trkpt lat="48.1324980" lon="8.2324100">
        <ele>242.4</ele>
        <time>2022-06-05T12:52:02Z</time>
      </trkpt>
      <trkpt lat="48.1325100" lon="8.2323900">
        <ele>242.0</ele>
        <time>2022-06-05T12:52:06Z</time>
      </trkpt>
      <trkpt lat="48.1324780" lon="8.2324600">
        <ele>242.0</ele>
        <time>2022-06-05T12:52:10Z</time>
      </trkpt>
      <trkpt lat="48.1324060" lon="8.2325630">
        <ele>242.2</ele>
        <time>2022-06-05T12:52:14Z</time>
      </trkpt>
      <trkpt lat="48.1324060" lon="8.2325630">
        <ele>242.4</ele>
        <time>2022-06-05T12:52:18Z</time>
      </trkpt>
      <trkpt lat="48.1323480" lon="8.2326300">
        <ele>242.4</ele>
        <time>2022-06-05T12:52:22Z</time>
      </trkpt>
      <trkpt lat="48.1322730" lon="8.2327550">
        <ele>242.4</ele>
        <time>2022-06-05T12:52:26Z</time>
      </trkpt>
      <trkpt lat="48.1324630" lon="8.2326760">
        <ele>217.6</ele>
        <time>2022-06-06T05:18:50Z</time>
      </trkpt>
      <trkpt lat="48.1324630" lon="8.2326760">
        <ele>217.6</ele>
        <time>2022-06-06T05:18:54Z</time>
      </trkpt>
      <trkpt lat="48.1324630" lon="8.2326760">
        <ele>217.0</ele>
        <time>2022-06-06T05:18:58Z</time>
      </trkpt>
      <trkpt lat="48.1324630" lon="8.2326760">
        <ele>217.6</ele>
        <time>2022-06-06T05:19:02Z</time>
      </trkpt>
      <trkpt lat="48.1324630" lon="8.2326760">
        <ele>217.4</ele>
        <time>2022-06-06T05:19:06Z</time>
      </trkpt>
      <trkpt lat="48.1324630" lon="8.2326760">
        <ele>217.6</ele>
        <time>2022-06-06T05:19:10Z</time>
      </trkpt>
      <trkpt lat="48.1324630" lon="8.2326760">
        <ele>217.4</ele>
        <time>2022-06-06T05:19:14Z</time>
      </trkpt>
      <trkpt lat="48.1324630" lon="8.2326760">
        <ele>217.6</ele>
        <time>2022-06-06T05:19:18Z</time>
      </trkpt>
      <trkpt lat="48.1324630" lon="8.2326760">
        <ele>217.6</ele>
        <time>2022-06-06T05:19:22Z</time>
      </trkpt>
      <trkpt lat="48.1324960" lon="8.2327600">
        <ele>217.4</ele>
        <time>2022-06-06T05:19:26Z</time>
      </trkpt>
      <trkpt lat="48.1325250" lon="8.2328950">
        <ele>217.6</ele>
        <time>2022-06-06T05:19:30Z</time>
      </trkpt>
      <trkpt lat="48.1325080" lon="8.2330650">
        <ele>217.0</ele>
        <time>2022-06-06T05:19:34Z</time>
      </trkpt>
      <trkpt lat="48.1324480" lon="8.2331880">
        <ele>217.2</ele>
        <time>2022-06-06T05:19:38Z</time>
      </trkpt>
      <trkpt lat="48.1323600" lon="8.2332780">
        <ele>217.4</ele>
        <time>2022-06-06T05:19:42Z</time>
      </trkpt>
      <trkpt lat="48.1323060" lon="8.2333600">
        <ele>217.8</ele>
        <time>2022-06-06T05:19:46Z</time>
      </trkpt>
      <trkpt lat="48.1322510" lon="8.2333710">
        <ele>218.4</ele>
        <time>2022-06-06T05:19:50Z</time>
      </trkpt>
      <trkpt lat="48.1322010" lon="8.2333860">
        <ele>218.4</ele>
        <time>2022-06-06T05:19:54Z</time>
      </trkpt>
      <trkpt lat="48.1321830" lon="8.2333650">
        <ele>219.2</ele>
        <time>2022-06-06T05:19:58Z</time>
      </trkpt>
      <trkpt lat="48.1321460" lon="8.2333450">
        <ele>220.2</ele>
        <time>2022-06-06T05:20:02Z</time>
      </trkpt>
      <trkpt lat="48.1321160" lon="8.2333210">
        <ele>220.4</ele>
        <time>2022-06-06T05:20:06Z</time>
      </trkpt>
      <trkpt lat="48.1320630" lon="8.2332510">
        <ele>220.8</ele>
        <time>2022-06-06T05:20:10Z</time>
      </trkpt>
      <trkpt lat="48.1320000" lon="8.2331960">
        <ele>221.0</ele>
        <time>2022-06-06T05:20:14Z</time>
      </trkpt>
      <trkpt lat="48.1319350" lon="8.2331560">
        <ele>221.6</ele>
        <time>2022-06-06T05:20:18Z</time>
      </trkpt>
      <trkpt lat="48.1318700" lon="8.2331110">
        <ele>222.4</ele>
        <time>2022-06-06T05:20:22Z</time>
      </trkpt>
      <trkpt lat="48.1318280" lon="8.2330280">
        <ele>223.0</ele>
        <time>2022-06-06T05:20:26Z</time>
      </trkpt>
      <trkpt lat="48.1317680" lon="8.2329800">
        <ele>223.2</ele>
        <time>2022-06-06T05:20:30Z</time>
      </trkpt>
      <trkpt lat="48.1316980" lon="8.2329230">
        <ele>224.0</ele>
        <time>2022-06-06T05:20:34Z</time>
      </trkpt>
      <trkpt lat="48.1316450" lon="8.2328730">
        <ele>224.8</ele>
        <time>2022-06-06T05:20:38Z</time>
      </trkpt>
      <trkpt lat="48.1315780" lon="8.2328210">
        <ele>224.8</ele>
        <time>2022-06-06T05:20:42Z</time>
      </trkpt>
      <trkpt lat="48.1315250" lon="8.2327950">
        <ele>225.2</ele>
        <time>2022-06-06T05:20:46Z</time>
      </trkpt>
      <trkpt lat="48.1314710" lon="8.2327680">
        <ele>225.8</ele>
        <time>2022-06-06T05:20:50Z</time>
      </trkpt>
      <trkpt lat="48.1314030" lon="8.2327230">
        <ele>226.4</ele>
        <time>2022-06-06T05:20:54Z</time>
      </trkpt>
      <trkpt lat="48.1313310" lon="8.2326810">
        <ele>227.2</ele>
        <time>2022-06-06T05:20:58Z</time>
      </trkpt>
      <trkpt lat="48.1312830" lon="8.2326330">
        <ele>227.6</ele>
        <time>2022-06-06T05:21:02Z</time>
      </trkpt>
      <trkpt lat="48.1312050" lon="8.2325680">
        <ele>228.2</ele>
        <time>2022-06-06T05:21:06Z</time>
      </trkpt>
      <trkpt lat="48.1311360" lon="8.2325230">
        <ele>228.8</ele>
        <time>2022-06-06T05:21:10Z</time>
      </trkpt>
      <trkpt lat="48.1310510" lon="8.2324410">
        <ele>229.2</ele>
        <time>2022-06-06T05:21:14Z</time>
      </trkpt>
      <trkpt lat="48.1309410" lon="8.2324060">
        <ele>229.4</ele>
        <time>2022-06-06T05:21:18Z</time>
      </trkpt>
      <trkpt lat="48.1308660" lon="8.2323760">
        <ele>230.2</ele>
        <time>2022-06-06T05:21:22Z</time>
      </trkpt>
      <trkpt lat="48.1308010" lon="8.2323310">
        <ele>231.2</ele>
        <time>2022-06-06T05:21:26Z</time>
      </trkpt>
      <trkpt lat="48.1308010" lon="8.2323310">
        <ele>231.2</ele>
        <time>2022-06-06T05:21:30Z</time>
      </trkpt>
      <trkpt lat="48.1308010" lon="8.2323310">
        <ele>231.0</ele>
        <time>2022-06-06T05:21:34Z</time>
      </trkpt>
      <trkpt lat="48.1307760" lon="8.2323060">
        <ele>231.6</ele>
        <time>2022-06-06T05:21:38Z</time>
      </trkpt>
      <trkpt lat="48.1307760" lon="8.2323060">
        <ele>231.6</ele>
        <time>2022-06-06T05:21:42Z</time>
      </trkpt>
      <trkpt lat="48.1307760" lon="8.2323060">
        <ele>231.4</ele>
        <time>2022-06-06T05:21:46Z</time>
      </trkpt>
      <trkpt lat="48.1307760" lon="8.2323060">
        <ele>231.4</ele>
        <time>2022-06-06T05:21:50Z</time>
      </trkpt>
      <trkpt lat="48.1307760" lon="8.2323060">
        <ele>231.4</ele>
        <time>2022-06-06T05:21:54Z</time>
      </trkpt>
      <trkpt lat="48.1307760" lon="8.2323060">
        <ele>231.8</ele>
        <time>2022-06-06T05:21:58Z</time>
      </trkpt>
      <trkpt lat="48.1307760" lon="8.2323060">
        <ele>231.4</ele>
        <time>2022-06-06T05:22:02Z</time>
      </trkpt>
      <trkpt lat="48.1307760" lon="8.2323060">
        <ele>231.4</ele>
        <time>2022-06-06T05:22:06Z</time>
      </trkpt>
      <trkpt lat="48.1307760" lon="8.2323060">
        <ele>231.6</ele>
        <time>2022-06-06T05:22:10Z</time>
      </trkpt>
      <trkpt lat="48.1307760" lon="8.2323060">
        <ele>231.6</ele>
        <time>2022-06-06T05:22:14Z</time>
      </trkpt>
      <trkpt lat="48.1307760" lon="8.2323060">
        <ele>231.8</ele>
        <time>2022-06-06T05:22:18Z</time>
      </trkpt>
      <trkpt lat="48.1307760" lon="8.2323060">
        <ele>231.8</ele>
        <time>2022-06-06T05:22:22Z</time>
      </trkpt>
      <trkpt lat="48.1307760" lon="8.2323060">
        <ele>231.6</ele>
        <time>2022-06-06T05:22:26Z</time>
      </trkpt>
      <trkpt lat="48.1307760" lon="8.2323060">
        <ele>231.4</ele>
        <time>2022-06-06T05:22:30Z</time>
      </trkpt>
      <trkpt lat="48.1307760" lon="8.2323060">
        <ele>231.6</ele>
        <time>2022-06-06T05:22:34Z</time>
      </trkpt>
      <trkpt lat="48.1307760" lon="8.2323060">
        <ele>231.8</ele>
        <time>2022-06-06T05:22:38Z</time>
      </trkpt>
      <trkpt lat="48.1307760" lon="8.2323060">
        <ele>231.4</ele>
        <time>2022-06-06T05:22:42Z</time>
      </trkpt>
      <trkpt lat="48.1307760" lon="8.2323060">
        <ele>231.4</ele>
        <time>2022-06-06T05:22:46Z</time>
      </trkpt>
      <trkpt lat="48.1307760" lon="8.2323060">
        <ele>231.4</ele>
        <time>2022-06-06T05:22:50Z</time>
      </trkpt>
      <trkpt lat="48.1307760" lon="8.2323060">
        <ele>231.6</ele>
        <time>2022-06-06T05:22:54Z</time>
      </trkpt>
      <trkpt lat="48.1307760" lon="8.2323060">
        <ele>231.0</ele>
        <time>2022-06-06T05:22:58Z</time>
      </trkpt>
      <trkpt lat="48.1307760" lon="8.2323060">
        <ele>231.0</ele>
        <time>2022-06-06T05:23:02Z</time>
      </trkpt>
      <trkpt lat="48.1307760" lon="8.2323060">
        <ele>231.8</ele>
        <time>2022-06-06T05:23:06Z</time>
      </trkpt>
      <trkpt lat="48.1307760" lon="8.2323060">
        <ele>231.6</ele>
        <time>2022-06-06T05:23:10Z</time>
      </trkpt>
      <trkpt lat="48.1307760" lon="8.2323060">
        <ele>231.4</ele>
        <time>2022-06-06T05:23:14Z</time>
      </trkpt>
      <trkpt lat="48.1307760" lon="8.2323060">
        <ele>231.6</ele>
        <time>2022-06-06T05:23:18Z</time>
      </trkpt>
      <trkpt lat="48.1307760" lon="8.2323060">
        <ele>231.8</ele>
        <time>2022-06-06T05:23:22Z</time>
      </trkpt>
      <trkpt lat="48.1307760" lon="8.2323060">
        <ele>231.6</ele>
        <time>2022-06-06T05:23:26Z</time>
      </trkpt>
      <trkpt lat="48.1307760" lon="8.2323060">
        <ele>231.2</ele>
        <time>2022-06-06T05:23:30Z</time>
      </trkpt>
      <trkpt lat="48.1307760" lon="8.2323060">
        <ele>231.6</ele>
        <time>2022-06-06T05:23:34Z</time>
      </trkpt>
      <trkpt lat="48.1307760" lon="8.2323060">
        <ele>231.4</ele>
        <time>2022-06-06T05:23:38Z</time>
      </trkpt>
      <trkpt lat="48.1307760" lon="8.2323060">
        <ele>231.6</ele>
        <time>2022-06-06T05:23:42Z</time>
      </trkpt>
      <trkpt lat="48.1307760" lon="8.2323060">
        <ele>231.6</ele>
        <time>2022-06-06T05:23:46Z</time>
      </trkpt>
      <trkpt lat="48.1307760" lon="8.2323060">
        <ele>231.4</ele>
        <time>2022-06-06T05:23:50Z</time>
      </trkpt>
      <trkpt lat="48.1307760" lon="8.2323060">
        <ele>231.4</ele>
        <time>2022-06-06T05:23:54Z</time>
      </trkpt>
      <trkpt lat="48.1307760" lon="8.2323060">
        <ele>231.6</ele>
        <time>2022-06-06T05:23:58Z</time>
      </trkpt>
      <trkpt lat="48.1307760" lon="8.2323060">
        <ele>231.6</ele>
        <time>2022-06-06T05:24:02Z</time>
      </trkpt>
      <trkpt lat="48.1307760" lon="8.2323060">
        <ele>231.6</ele>
        <time>2022-06-06T05:24:06Z</time>
      </trkpt>
      <trkpt lat="48.1307760" lon="8.2323060">
        <ele>231.4</ele>
        <time>2022-06-06T05:24:10Z</time>
      </trkpt>
      <trkpt lat="48.1307760" lon="8.2323060">
        <ele>231.6</ele>
        <time>2022-06-06T05:24:14Z</time>
      </trkpt>
      <trkpt lat="48.1307760" lon="8.2323060">
        <ele>231.6</ele>
        <time>2022-06-06T05:24:18Z</time>
      </trkpt>
      <trkpt lat="48.1307760" lon="8.2323060">
        <ele>231.4</ele>
        <time>2022-06-06T05:24:22Z</time>
      </trkpt>
      <trkpt lat="48.1307760" lon="8.2323060">
        <ele>231.2</ele>
        <time>2022-06-06T05:24:26Z</time>
      </trkpt>
      <trkpt lat="48.1307760" lon="8.2323060">
        <ele>231.6</ele>
        <time>2022-06-06T05:24:30Z</time>
      </trkpt>
      <trkpt lat="48.1308100" lon="8.2319460">
        <ele>231.6</ele>
        <time>2022-06-06T05:24:34Z</time>
      </trkpt>
      <trkpt lat="48.1307850" lon="8.2319300">
        <ele>231.2</ele>
        <time>2022-06-06T05:24:38Z</time>
      </trkpt>
      <trkpt lat="48.1307650" lon="8.2319060">
        <ele>232.0</ele>
        <time>2022-06-06T05:24:42Z</time>
      </trkpt>
      <trkpt lat="48.1307380" lon="8.2318880">
        <ele>232.0</ele>
        <time>2022-06-06T05:24:46Z</time>
      </trkpt>
      <trkpt lat="48.1307310" lon="8.2318780">
        <ele>232.0</ele>
        <time>2022-06-06T05:24:50Z</time>
      </trkpt>
      <trkpt lat="48.1307350" lon="8.2318780">
        <ele>232.4</ele>
        <time>2022-06-06T05:24:54Z</time>
      </trkpt>
      <trkpt lat="48.1307350" lon="8.2318780">
        <ele>232.4</ele>
        <time>2022-06-06T05:24:58Z</time>
      </trkpt>
      <trkpt lat="48.1307350" lon="8.2318780">
        <ele>233.0</ele>
        <time>2022-06-06T05:25:02Z</time>
      </trkpt>
      <trkpt lat="48.1307350" lon="8.2318780">
        <ele>233.0</ele>
        <time>2022-06-06T05:25:06Z</time>
      </trkpt>
      <trkpt lat="48.1307350" lon="8.2318780">
        <ele>233.0</ele>
        <time>2022-06-06T05:25:10Z</time>
      </trkpt>
      <trkpt lat="48.1307350" lon="8.2318780">
        <ele>233.0</ele>
        <time>2022-06-06T05:25:14Z</time>
      </trkpt>
      <trkpt lat="48.1307380" lon="8.2318710">
        <ele>232.8</ele>
        <time>2022-06-06T05:25:18Z</time>
      </trkpt>
      <trkpt lat="48.1306780" lon="8.2318400">
        <ele>233.0</ele>
        <time>2022-06-06T05:25:22Z</time>
      </trkpt>
      <trkpt lat="48.1306430" lon="8.2317850">
        <ele>233.4</ele>
        <time>2022-06-06T05:25:26Z</time>
      </trkpt>
      <trkpt lat="48.1305400" lon="8.2317360">
        <ele>233.4</ele>
        <time>2022-06-06T05:25:30Z</time>
      </trkpt>
      <trkpt lat="48.1304550" lon="8.2316930">
        <ele>233.4</ele>
        <time>2022-06-06T05:25:34Z</time>
      </trkpt>
      <trkpt lat="48.1303950" lon="8.2316300">
        <ele>234.8</ele>
        <time>2022-06-06T05:25:38Z</time>
      </trkpt>
      <trkpt lat="48.1303400" lon="8.2315400">
        <ele>234.8</ele>
        <time>2022-06-06T05:25:42Z</time>
      </trkpt>
      <trkpt lat="48.1302800" lon="8.2314750">
        <ele>236.2</ele>
        <time>2022-06-06T05:25:46Z</time>
      </trkpt>
      <trkpt lat="48.1302230" lon="8.2314130">
        <ele>236.0</ele>
        <time>2022-06-06T05:25:50Z</time>
      </trkpt>
      <trkpt lat="48.1301550" lon="8.2313630">
        <ele>236.8</ele>
        <time>2022-06-06T05:25:54Z</time>
      </trkpt>
      <trkpt lat="48.1300900" lon="8.2313200">
        <ele>237.4</ele>
        <time>2022-06-06T05:25:58Z</time>
      </trkpt>
      <trkpt lat="48.1300130" lon="8.2312660">
        <ele>237.4</ele>
        <time>2022-06-06T05:26:02Z</time>
      </trkpt>
      <trkpt lat="48.1299260" lon="8.2312050">
        <ele>238.0</ele>
        <time>2022-06-06T05:26:06Z</time>
      </trkpt>
      <trkpt lat="48.1298460" lon="8.2311630">
        <ele>238.6</ele>
        <time>2022-06-06T05:26:10Z</time>
      </trkpt>
      <trkpt lat="48.1297700" lon="8.2311310">
        <ele>239.6</ele>
        <time>2022-06-06T05:26:14Z</time>
      </trkpt>
      <trkpt lat="48.1297000" lon="8.2310960">
        <ele>239.8</ele>
        <time>2022-06-06T05:26:18Z</time>
      </trkpt>
      <trkpt lat="48.1296330" lon="8.2310500">
        <ele>240.8</ele>
        <time>2022-06-06T05:26:22Z</time>
      </trkpt>
      <trkpt lat="48.1295580" lon="8.2310130">
        <ele>241.4</ele>
        <time>2022-06-06T05:26:26Z</time>
      </trkpt>
      <trkpt lat="48.1294830" lon="8.2309760">
        <ele>242.4</ele>
        <time>2022-06-06T05:26:30Z</time>
      </trkpt>
      <trkpt lat="48.1294080" lon="8.2309480">
        <ele>242.2</ele>
        <time>2022-06-06T05:26:34Z</time>
      </trkpt>
      <trkpt lat="48.1293350" lon="8.2309210">
        <ele>243.0</ele>
        <time>2022-06-06T05:26:38Z</time>
      </trkpt>
      <trkpt lat="48.1292680" lon="8.2309000">
        <ele>244.0</ele>
        <time>2022-06-06T05:26:42Z</time>
      </trkpt>
      <trkpt lat="48.1291980" lon="8.2308680">
        <ele>244.2</ele>
        <time>2022-06-06T05:26:46Z</time>
      </trkpt>
      <trkpt lat="48.1291330" lon="8.2308360">
        <ele>244.4</ele>
        <time>2022-06-06T05:26:50Z</time>
      </trkpt>
      <trkpt lat="48.1290710" lon="8.2307860">
        <ele>245.6</ele>
        <time>2022-06-06T05:26:54Z</time>
      </trkpt>
      <trkpt lat="48.1290180" lon="8.2307080">
        <ele>245.6</ele>
        <time>2022-06-06T05:26:58Z</time>
      </trkpt>
      <trkpt lat="48.1289600" lon="8.2306410">
        <ele>246.6</ele>
        <time>2022-06-06T05:27:02Z</time>
      </trkpt>
      <trkpt lat="48.1289030" lon="8.2305730">
        <ele>246.6</ele>
        <time>2022-06-06T05:27:06Z</time>
      </trkpt>
      <trkpt lat="48.1288530" lon="8.2304860">
        <ele>247.4</ele>
        <time>2022-06-06T05:27:10Z</time>
      </trkpt>
      <trkpt lat="48.1288330" lon="8.2303800">
        <ele>247.6</ele>
        <time>2022-06-06T05:27:14Z</time>
      </trkpt>
      <trkpt lat="48.1288430" lon="8.2302680">
        <ele>248.6</ele>
        <time>2022-06-06T05:27:18Z</time>
      </trkpt>
      <trkpt lat="48.1288610" lon="8.2301600">
        <ele>248.8</ele>
        <time>2022-06-06T05:27:22Z</time>
      </trkpt>
      <trkpt lat="48.1288560" lon="8.2300630">
        <ele>249.0</ele>
        <time>2022-06-06T05:27:26Z</time>
      </trkpt>
      <trkpt lat="48.1288610" lon="8.2299680">
        <ele>249.8</ele>
        <time>2022-06-06T05:27:30Z</time>
      </trkpt>
      <trkpt lat="48.1289000" lon="8.2298730">
        <ele>250.2</ele>
        <time>2022-06-06T05:27:34Z</time>
      </trkpt>
      <trkpt lat="48.1289360" lon="8.2297630">
        <ele>251.2</ele>
        <time>2022-06-06T05:27:38Z</time>
      </trkpt>
      <trkpt lat="48.1289960" lon="8.2296750">
        <ele>251.6</ele>
        <time>2022-06-06T05:27:42Z</time>
      </trkpt>
      <trkpt lat="48.1290430" lon="8.2295980">
        <ele>252.6</ele>
        <time>2022-06-06T05:27:46Z</time>
      </trkpt>
      <trkpt lat="48.1290910" lon="8.2295330">
        <ele>252.6</ele>
        <time>2022-06-06T05:27:50Z</time>
      </trkpt>
      <trkpt lat="48.1291480" lon="8.2294900">
        <ele>253.4</ele>
        <time>2022-06-06T05:27:54Z</time>
      </trkpt>
      <trkpt lat="48.1291980" lon="8.2294500">
        <ele>253.6</ele>
        <time>2022-06-06T05:27:58Z</time>
      </trkpt>
      <trkpt lat="48.1292500" lon="8.2294180">
        <ele>254.4</ele>
        <time>2022-06-06T05:28:02Z</time>
      </trkpt>
      <trkpt lat="48.1293210" lon="8.2294080">
        <ele>254.6</ele>
        <time>2022-06-06T05:28:06Z</time>
      </trkpt>
      <trkpt lat="48.1293860" lon="8.2293850">
        <ele>255.2</ele>
        <time>2022-06-06T05:28:10Z</time>
      </trkpt>
      <trkpt lat="48.1294430" lon="8.2293530">
        <ele>255.8</ele>
        <time>2022-06-06T05:28:14Z</time>
      </trkpt>
      <trkpt lat="48.1295060" lon="8.2293300">
        <ele>256.2</ele>
        <time>2022-06-06T05:28:18Z</time>
      </trkpt>
      <trkpt lat="48.1295700" lon="8.2293010">
        <ele>256.2</ele>
        <time>2022-06-06T05:28:22Z</time>
      </trkpt>
      <trkpt lat="48.1296330" lon="8.2292760">
        <ele>257.4</ele>
        <time>2022-06-06T05:28:26Z</time>
      </trkpt>
      <trkpt lat="48.1296850" lon="8.2292510">
        <ele>257.6</ele>
        <time>2022-06-06T05:28:30Z</time>
      </trkpt>
      <trkpt lat="48.1297330" lon="8.2292210">
        <ele>258.0</ele>
        <time>2022-06-06T05:28:34Z</time>
      </trkpt>
      <trkpt lat="48.1297830" lon="8.2291900">
        <ele>258.2</ele>
        <time>2022-06-06T05:28:38Z</time>
      </trkpt>
      <trkpt lat="48.1298560" lon="8.2291630">
        <ele>259.0</ele>
        <time>2022-06-06T05:28:42Z</time>
      </trkpt>
      <trkpt lat="48.1299350" lon="8.2291260">
        <ele>259.2</ele>
        <time>2022-06-06T05:28:46Z</time>
      </trkpt>
      <trkpt lat="48.1299960" lon="8.2290830">
        <ele>259.6</ele>
        <time>2022-06-06T05:28:50Z</time>
      </trkpt>
      <trkpt lat="48.1300450" lon="8.2290330">
        <ele>259.8</ele>
        <time>2022-06-06T05:28:54Z</time>
      </trkpt>
      <trkpt lat="48.1300900" lon="8.2289630">
        <ele>260.0</ele>
        <time>2022-06-06T05:28:58Z</time>
      </trkpt>
      <trkpt lat="48.1301350" lon="8.2288780">
        <ele>260.6</ele>
        <time>2022-06-06T05:29:02Z</time>
      </trkpt>
      <trkpt lat="48.1301900" lon="8.2288010">
        <ele>261.4</ele>
        <time>2022-06-06T05:29:06Z</time>
      </trkpt>
      <trkpt lat="48.1302510" lon="8.2287280">
        <ele>261.6</ele>
        <time>2022-06-06T05:29:10Z</time>
      </trkpt>
      <trkpt lat="48.1303180" lon="8.2286610">
        <ele>262.4</ele>
        <time>2022-06-06T05:29:14Z</time>
      </trkpt>
      <trkpt lat="48.1303760" lon="8.2285830">
        <ele>262.2</ele>
        <time>2022-06-06T05:29:18Z</time>
      </trkpt>
      <trkpt lat="48.1304380" lon="8.2285060">
        <ele>263.4</ele>
        <time>2022-06-06T05:29:22Z</time>
      </trkpt>
      <trkpt lat="48.1305010" lon="8.2284360">
        <ele>263.8</ele>
        <time>2022-06-06T05:29:26Z</time>
      </trkpt>
      <trkpt lat="48.1305660" lon="8.2283660">
        <ele>264.2</ele>
        <time>2022-06-06T05:29:30Z</time>
      </trkpt>
      <trkpt lat="48.1306310" lon="8.2283060">
        <ele>265.2</ele>
        <time>2022-06-06T05:29:34Z</time>
      </trkpt>
      <trkpt lat="48.1306900" lon="8.2282430">
        <ele>265.6</ele>
        <time>2022-06-06T05:29:38Z</time>
      </trkpt>
      <trkpt lat="48.1307560" lon="8.2281910">
        <ele>265.6</ele>
        <time>2022-06-06T05:29:42Z</time>
      </trkpt>
      <trkpt lat="48.1308180" lon="8.2281300">
        <ele>266.6</ele>
        <time>2022-06-06T05:29:46Z</time>
      </trkpt>
      <trkpt lat="48.1308800" lon="8.2280660">
        <ele>267.2</ele>
        <time>2022-06-06T05:29:50Z</time>
      </trkpt>
      <trkpt lat="48.1309480" lon="8.2280130">
        <ele>267.8</ele>
        <time>2022-06-06T05:29:54Z</time>
      </trkpt>
      <trkpt lat="48.1310060" lon="8.2279460">
        <ele>268.0</ele>
        <time>2022-06-06T05:29:58Z</time>
      </trkpt>
      <trkpt lat="48.1310710" lon="8.2278830">
        <ele>268.4</ele>
        <time>2022-06-06T05:30:02Z</time>
      </trkpt>
      <trkpt lat="48.1311330" lon="8.2278200">
        <ele>269.4</ele>
        <time>2022-06-06T05:30:06Z</time>
      </trkpt>
      <trkpt lat="48.1311910" lon="8.2277650">
        <ele>269.6</ele>
        <time>2022-06-06T05:30:10Z</time>
      </trkpt>
      <trkpt lat="48.1312430" lon="8.2277050">
        <ele>270.0</ele>
        <time>2022-06-06T05:30:14Z</time>
      </trkpt>
      <trkpt lat="48.1313060" lon="8.2276410">
        <ele>270.8</ele>
        <time>2022-06-06T05:30:18Z</time>
      </trkpt>
      <trkpt lat="48.1313750" lon="8.2275810">
        <ele>271.0</ele>
        <time>2022-06-06T05:30:22Z</time>
      </trkpt>
      <trkpt lat="48.1314410" lon="8.2275210">
        <ele>272.0</ele>
        <time>2022-06-06T05:30:26Z</time>
      </trkpt>
      <trkpt lat="48.1315080" lon="8.2274660">
        <ele>272.2</ele>
        <time>2022-06-06T05:30:30Z</time>
      </trkpt>
      <trkpt lat="48.1315700" lon="8.2274050">
        <ele>272.6</ele>
        <time>2022-06-06T05:30:34Z</time>
      </trkpt>
      <trkpt lat="48.1316380" lon="8.2273550">
        <ele>273.4</ele>
        <time>2022-06-06T05:30:38Z</time>
      </trkpt>
      <trkpt lat="48.1316950" lon="8.2272880">
        <ele>273.6</ele>
        <time>2022-06-06T05:30:42Z</time>
      </trkpt>
      <trkpt lat="48.1317510" lon="8.2272260">
        <ele>274.2</ele>
        <time>2022-06-06T05:30:46Z</time>
      </trkpt>
      <trkpt lat="48.1318110" lon="8.2271530">
        <ele>274.6</ele>
        <time>2022-06-06T05:30:50Z</time>
      </trkpt>
      <trkpt lat="48.1318630" lon="8.2270650">
        <ele>275.4</ele>
        <time>2022-06-06T05:30:54Z</time>
      </trkpt>
      <trkpt lat="48.1319110" lon="8.2269750">
        <ele>275.6</ele>
        <time>2022-06-06T05:30:58Z</time>
      </trkpt>
      <trkpt lat="48.1319530" lon="8.2268810">
        <ele>276.0</ele>
        <time>2022-06-06T05:31:02Z</time>
      </trkpt>
      <trkpt lat="48.1319800" lon="8.2267760">
        <ele>276.8</ele>
        <time>2022-06-06T05:31:06Z</time>
      </trkpt>
      <trkpt lat="48.1320000" lon="8.2266700">
        <ele>277.6</ele>
        <time>2022-06-06T05:31:10Z</time>
      </trkpt>
      <trkpt lat="48.1320130" lon="8.2265630">
        <ele>277.8</ele>
        <time>2022-06-06T05:31:14Z</time>
      </trkpt>
      <trkpt lat="48.1320280" lon="8.2264530">
        <ele>278.4</ele>
        <time>2022-06-06T05:31:18Z</time>
      </trkpt>
      <trkpt lat="48.1320260" lon="8.2263450">
        <ele>279.4</ele>
        <time>2022-06-06T05:31:22Z</time>
      </trkpt>
      <trkpt lat="48.1320100" lon="8.2262360">
        <ele>279.4</ele>
        <time>2022-06-06T05:31:26Z</time>
      </trkpt>
      <trkpt lat="48.1320050" lon="8.2261260">
        <ele>280.2</ele>
        <time>2022-06-06T05:31:30Z</time>
      </trkpt>
      <trkpt lat="48.1319910" lon="8.2260110">
        <ele>281.0</ele>
        <time>2022-06-06T05:31:34Z</time>
      </trkpt>
      <trkpt lat="48.1319910" lon="8.2259000">
        <ele>281.4</ele>
        <time>2022-06-06T05:31:38Z</time>
      </trkpt>
      <trkpt lat="48.1319880" lon="8.2257860">
        <ele>281.6</ele>
        <time>2022-06-06T05:31:42Z</time>
      </trkpt>
      <trkpt lat="48.1319850" lon="8.2256750">
        <ele>282.2</ele>
        <time>2022-06-06T05:31:46Z</time>
      </trkpt>
      <trkpt lat="48.1319910" lon="8.2255610">
        <ele>282.6</ele>
        <time>2022-06-06T05:31:50Z</time>
      </trkpt>
      <trkpt lat="48.1319950" lon="8.2254450">
        <ele>283.6</ele>
        <time>2022-06-06T05:31:54Z</time>
      </trkpt>
      <trkpt lat="48.1319960" lon="8.2253310">
        <ele>284.0</ele>
        <time>2022-06-06T05:31:58Z</time>
      </trkpt>
      <trkpt lat="48.1320080" lon="8.2252180">
        <ele>284.2</ele>
        <time>2022-06-06T05:32:02Z</time>
      </trkpt>
      <trkpt lat="48.1320230" lon="8.2251050">
        <ele>285.4</ele>
        <time>2022-06-06T05:32:06Z</time>
      </trkpt>
      <trkpt lat="48.1320480" lon="8.2249930">
        <ele>285.6</ele>
        <time>2022-06-06T05:32:10Z</time>
      </trkpt>
      <trkpt lat="48.1320680" lon="8.2248800">
        <ele>286.4</ele>
        <time>2022-06-06T05:32:14Z</time>
      </trkpt>
      <trkpt lat="48.1321030" lon="8.2247780">
        <ele>286.6</ele>
        <time>2022-06-06T05:32:18Z</time>
      </trkpt>
      <trkpt lat="48.1321350" lon="8.2246700">
        <ele>287.6</ele>
        <time>2022-06-06T05:32:22Z</time>
      </trkpt>
      <trkpt lat="48.1321660" lon="8.2245660">
        <ele>287.8</ele>
        <time>2022-06-06T05:32:26Z</time>
      </trkpt>
      <trkpt lat="48.1322030" lon="8.2244580">
        <ele>288.6</ele>
        <time>2022-06-06T05:32:30Z</time>
      </trkpt>
      <trkpt lat="48.1322360" lon="8.2243400">
        <ele>288.6</ele>
        <time>2022-06-06T05:32:34Z</time>
      </trkpt>
      <trkpt lat="48.1322860" lon="8.2242430">
        <ele>288.8</ele>
        <time>2022-06-06T05:32:38Z</time>
      </trkpt>
      <trkpt lat="48.1323350" lon="8.2241410">
        <ele>289.6</ele>
        <time>2022-06-06T05:32:42Z</time>
      </trkpt>
      <trkpt lat="48.1323810" lon="8.2240480">
        <ele>290.0</ele>
        <time>2022-06-06T05:32:46Z</time>
      </trkpt>
      <trkpt lat="48.1324260" lon="8.2239510">
        <ele>290.4</ele>
        <time>2022-06-06T05:32:50Z</time>
      </trkpt>
      <trkpt lat="48.1324750" lon="8.2238600">
        <ele>291.0</ele>
        <time>2022-06-06T05:32:54Z</time>
      </trkpt>
      <trkpt lat="48.1325000" lon="8.2237510">
        <ele>291.8</ele>
        <time>2022-06-06T05:32:58Z</time>
      </trkpt>
      <trkpt lat="48.1325330" lon="8.2236430">
        <ele>292.6</ele>
        <time>2022-06-06T05:33:02Z</time>
      </trkpt>
      <trkpt lat="48.1325650" lon="8.2235350">
        <ele>293.2</ele>
        <time>2022-06-06T05:33:06Z</time>
      </trkpt>
      <trkpt lat="48.1326000" lon="8.2234200">
        <ele>294.0</ele>
        <time>2022-06-06T05:33:10Z</time>
      </trkpt>
      <trkpt lat="48.1326160" lon="8.2233030">
        <ele>294.4</ele>
        <time>2022-06-06T05:33:14Z</time>
      </trkpt>
      <trkpt lat="48.1326410" lon="8.2231900">
        <ele>294.4</ele>
        <time>2022-06-06T05:33:18Z</time>
      </trkpt>
      <trkpt lat="48.1326760" lon="8.2230750">
        <ele>295.6</ele>
        <time>2022-06-06T05:33:22Z</time>
      </trkpt>
      <trkpt lat="48.1327260" lon="8.2229930">
        <ele>296.0</ele>
        <time>2022-06-06T05:33:26Z</time>
      </trkpt>
      <trkpt lat="48.1327860" lon="8.2229380">
        <ele>296.6</ele>
        <time>2022-06-06T05:33:30Z</time>
      </trkpt>
      <trkpt lat="48.1328530" lon="8.2228830">
        <ele>297.0</ele>
        <time>2022-06-06T05:33:34Z</time>
      </trkpt>
      <trkpt lat="48.1329160" lon="8.2228300">
        <ele>297.4</ele>
        <time>2022-06-06T05:33:38Z</time>
      </trkpt>
      <trkpt lat="48.1329800" lon="8.2227730">
        <ele>298.6</ele>
        <time>2022-06-06T05:33:42Z</time>
      </trkpt>
      <trkpt lat="48.1330350" lon="8.2226780">
        <ele>298.8</ele>
        <time>2022-06-06T05:33:46Z</time>
      </trkpt>
      <trkpt lat="48.1330700" lon="8.2225730">
        <ele>299.0</ele>
        <time>2022-06-06T05:33:50Z</time>
      </trkpt>
      <trkpt lat="48.1330710" lon="8.2224500">
        <ele>299.4</ele>
        <time>2022-06-06T05:33:54Z</time>
      </trkpt>
      <trkpt lat="48.1330410" lon="8.2223400">
        <ele>300.0</ele>
        <time>2022-06-06T05:33:58Z</time>
      </trkpt>
      <trkpt lat="48.1329810" lon="8.2222980">
        <ele>300.2</ele>
        <time>2022-06-06T05:34:02Z</time>
      </trkpt>
      <trkpt lat="48.1329100" lon="8.2222410">
        <ele>300.6</ele>
        <time>2022-06-06T05:34:06Z</time>
      </trkpt>
      <trkpt lat="48.1328350" lon="8.2222750">
        <ele>301.0</ele>
        <time>2022-06-06T05:34:10Z</time>
      </trkpt>
      <trkpt lat="48.1327700" lon="8.2223610">
        <ele>301.6</ele>
        <time>2022-06-06T05:34:14Z</time>
      </trkpt>
      <trkpt lat="48.1327130" lon="8.2224600">
        <ele>302.2</ele>
        <time>2022-06-06T05:34:18Z</time>
      </trkpt>
      <trkpt lat="48.1326630" lon="8.2225710">
        <ele>302.0</ele>
        <time>2022-06-06T05:34:22Z</time>
      </trkpt>
      <trkpt lat="48.1326160" lon="8.2226980">
        <ele>302.4</ele>
        <time>2022-06-06T05:34:26Z</time>
      </trkpt>
      <trkpt lat="48.1325580" lon="8.2228030">
        <ele>302.6</ele>
        <time>2022-06-06T05:34:30Z</time>
      </trkpt>
      <trkpt lat="48.1325080" lon="8.2229080">
        <ele>302.8</ele>
        <time>2022-06-06T05:34:34Z</time>
      </trkpt>
      <trkpt lat="48.1324680" lon="8.2230260">
        <ele>303.4</ele>
        <time>2022-06-06T05:34:38Z</time>
      </trkpt>
      <trkpt lat="48.1324050" lon="8.2231260">
        <ele>303.6</ele>
        <time>2022-06-06T05:34:42Z</time>
      </trkpt>
      <trkpt lat="48.1323460" lon="8.2232350">
        <ele>303.6</ele>
        <time>2022-06-06T05:34:46Z</time>
      </trkpt>
      <trkpt lat="48.1322880" lon="8.2233400">
        <ele>303.8</ele>
        <time>2022-06-06T05:34:50Z</time>
      </trkpt>
      <trkpt lat="48.1322060" lon="8.2234160">
        <ele>304.8</ele>
        <time>2022-06-06T05:34:54Z</time>
      </trkpt>
      <trkpt lat="48.1321150" lon="8.2234560">
        <ele>304.6</ele>
        <time>2022-06-06T05:34:58Z</time>
      </trkpt>
      <trkpt lat="48.1320250" lon="8.2234660">
        <ele>305.4</ele>
        <time>2022-06-06T05:35:02Z</time>
      </trkpt>
      <trkpt lat="48.1319410" lon="8.2234480">
        <ele>305.6</ele>
        <time>2022-06-06T05:35:06Z</time>
      </trkpt>
      <trkpt lat="48.1318730" lon="8.2233860">
        <ele>306.2</ele>
        <time>2022-06-06T05:35:10Z</time>
      </trkpt>
      <trkpt lat="48.1318300" lon="8.2233100">
        <ele>306.6</ele>
        <time>2022-06-06T05:35:14Z</time>
      </trkpt>
      <trkpt lat="48.1318230" lon="8.2233650">
        <ele>306.8</ele>
        <time>2022-06-06T05:35:18Z</time>
      </trkpt>
      <trkpt lat="48.1318680" lon="8.2234180">
        <ele>306.4</ele>
        <time>2022-06-06T05:35:22Z</time>
      </trkpt>
      <trkpt lat="48.1319280" lon="8.2234610">
        <ele>306.2</ele>
        <time>2022-06-06T05:35:26Z</time>
      </trkpt>
      <trkpt lat="48.1319860" lon="8.2234750">
        <ele>305.8</ele>
        <time>2022-06-06T05:35:30Z</time>
      </trkpt>
      <trkpt lat="48.1320700" lon="8.2234060">
        <ele>305.2</ele>
        <time>2022-06-06T05:35:34Z</time>
      </trkpt>
      <trkpt lat="48.1321500" lon="8.2233550">
        <ele>307.0</ele>
        <time>2022-06-06T05:35:38Z</time>
      </trkpt>
      <trkpt lat="48.1322110" lon="8.2232810">
        <ele>307.2</ele>
        <time>2022-06-06T05:35:42Z</time>
      </trkpt>
      <trkpt lat="48.1322680" lon="8.2232060">
        <ele>309.0</ele>
        <time>2022-06-06T05:35:46Z</time>
      </trkpt>
      <trkpt lat="48.1323050" lon="8.2231110">
        <ele>309.8</ele>
        <time>2022-06-06T05:35:50Z</time>
      </trkpt>
      <trkpt lat="48.1323300" lon="8.2229960">
        <ele>310.6</ele>
        <time>2022-06-06T05:35:54Z</time>
      </trkpt>
      <trkpt lat="48.1323550" lon="8.2228880">
        <ele>311.0</ele>
        <time>2022-06-06T05:35:58Z</time>
      </trkpt>
      <trkpt lat="48.1323750" lon="8.2227910">
        <ele>311.4</ele>
        <time>2022-06-06T05:36:02Z</time>
      </trkpt>
      <trkpt lat="48.1323930" lon="8.2226800">
        <ele>312.2</ele>
        <time>2022-06-06T05:36:06Z</time>
      </trkpt>
      <trkpt lat="48.1324010" lon="8.2225630">
        <ele>312.4</ele>
        <time>2022-06-06T05:36:10Z</time>
      </trkpt>
      <trkpt lat="48.1324080" lon="8.2224430">
        <ele>313.2</ele>
        <time>2022-06-06T05:36:14Z</time>
      </trkpt>
      <trkpt lat="48.1324280" lon="8.2223300">
        <ele>313.4</ele>
        <time>2022-06-06T05:36:18Z</time>
      </trkpt>
      <trkpt lat="48.1324410" lon="8.2222160">
        <ele>314.2</ele>
        <time>2022-06-06T05:36:22Z</time>
      </trkpt>
      <trkpt lat="48.1324530" lon="8.2220980">
        <ele>314.4</ele>
        <time>2022-06-06T05:36:26Z</time>
      </trkpt>
      <trkpt lat="48.1324530" lon="8.2219750">
        <ele>314.8</ele>
        <time>2022-06-06T05:36:30Z</time>
      </trkpt>
      <trkpt lat="48.1324510" lon="8.2218550">
        <ele>315.2</ele>
        <time>2022-06-06T05:36:34Z</time>
      </trkpt>
      <trkpt lat="48.1324510" lon="8.2217260">
        <ele>315.0</ele>
        <time>2022-06-06T05:36:38Z</time>
      </trkpt>
      <trkpt lat="48.1324430" lon="8.2215980">
        <ele>315.8</ele>
        <time>2022-06-06T05:36:42Z</time>
      </trkpt>
      <trkpt lat="48.1324350" lon="8.2214700">
        <ele>315.8</ele>
        <time>2022-06-06T05:36:46Z</time>
      </trkpt>
      <trkpt lat="48.1324230" lon="8.2213330">
        <ele>315.6</ele>
        <time>2022-06-06T05:36:50Z</time>
      </trkpt>
      <trkpt lat="48.1324260" lon="8.2212000">
        <ele>316.0</ele>
        <time>2022-06-06T05:36:54Z</time>
      </trkpt>
      <trkpt lat="48.1324250" lon="8.2210610">
        <ele>316.6</ele>
        <time>2022-06-06T05:36:58Z</time>
      </trkpt>
      <trkpt lat="48.1324330" lon="8.2209200">
        <ele>316.6</ele>
        <time>2022-06-06T05:37:02Z</time>
      </trkpt>
      <trkpt lat="48.1324480" lon="8.2207830">
        <ele>316.6</ele>
        <time>2022-06-06T05:37:06Z</time>
      </trkpt>
      <trkpt lat="48.1324610" lon="8.2206500">
        <ele>317.2</ele>
        <time>2022-06-06T05:37:10Z</time>
      </trkpt>
      <trkpt lat="48.1324600" lon="8.2205200">
        <ele>317.6</ele>
        <time>2022-06-06T05:37:14Z</time>
      </trkpt>
      <trkpt lat="48.1324580" lon="8.2203930">
        <ele>317.6</ele>
        <time>2022-06-06T05:37:18Z</time>
      </trkpt>
      <trkpt lat="48.1324780" lon="8.2202780">
        <ele>318.2</ele>
        <time>2022-06-06T05:37:22Z</time>
      </trkpt>
      <trkpt lat="48.1324780" lon="8.2201560">
        <ele>319.2</ele>
        <time>2022-06-06T05:37:26Z</time>
      </trkpt>
      <trkpt lat="48.1324750" lon="8.2200380">
        <ele>320.0</ele>
        <time>2022-06-06T05:37:30Z</time>
      </trkpt>
      <trkpt lat="48.1324730" lon="8.2199300">
        <ele>320.8</ele>
        <time>2022-06-06T05:37:34Z</time>
      </trkpt>
      <trkpt lat="48.1324730" lon="8.2198260">
        <ele>321.6</ele>
        <time>2022-06-06T05:37:38Z</time>
      </trkpt>
      <trkpt lat="48.1324630" lon="8.2197180">
        <ele>322.0</ele>
        <time>2022-06-06T05:37:42Z</time>
      </trkpt>
      <trkpt lat="48.1324630" lon="8.2196100">
        <ele>322.4</ele>
        <time>2022-06-06T05:37:46Z</time>
      </trkpt>
      <trkpt lat="48.1324530" lon="8.2195000">
        <ele>324.0</ele>
        <time>2022-06-06T05:37:50Z</time>
      </trkpt>
      <trkpt lat="48.1324410" lon="8.2193880">
        <ele>325.0</ele>
        <time>2022-06-06T05:37:54Z</time>
      </trkpt>
      <trkpt lat="48.1324280" lon="8.2192860">
        <ele>325.6</ele>
        <time>2022-06-06T05:37:58Z</time>
      </trkpt>
      <trkpt lat="48.1324280" lon="8.2191880">
        <ele>326.2</ele>
        <time>2022-06-06T05:38:02Z</time>
      </trkpt>
      <trkpt lat="48.1324210" lon="8.2190930">
        <ele>326.2</ele>
        <time>2022-06-06T05:38:06Z</time>
      </trkpt>
      <trkpt lat="48.1324330" lon="8.2189900">
        <ele>327.4</ele>
        <time>2022-06-06T05:38:10Z</time>
      </trkpt>
      <trkpt lat="48.1324500" lon="8.2188850">
        <ele>327.6</ele>
        <time>2022-06-06T05:38:14Z</time>
      </trkpt>
      <trkpt lat="48.1324480" lon="8.2187800">
        <ele>328.8</ele>
        <time>2022-06-06T05:38:18Z</time>
      </trkpt>
      <trkpt lat="48.1324500" lon="8.2186730">
        <ele>329.4</ele>
        <time>2022-06-06T05:38:22Z</time>
      </trkpt>
      <trkpt lat="48.1324660" lon="8.2185710">
        <ele>329.8</ele>
        <time>2022-06-06T05:38:26Z</time>
      </trkpt>
      <trkpt lat="48.1324860" lon="8.2184710">
        <ele>330.4</ele>
        <time>2022-06-06T05:38:30Z</time>
      </trkpt>
      <trkpt lat="48.1325000" lon="8.2183730">
        <ele>330.8</ele>
        <time>2022-06-06T05:38:34Z</time>
      </trkpt>
      <trkpt lat="48.1325230" lon="8.2182730">
        <ele>331.2</ele>
        <time>2022-06-06T05:38:38Z</time>
      </trkpt>
      <trkpt lat="48.1325480" lon="8.2181710">
        <ele>331.8</ele>
        <time>2022-06-06T05:38:42Z</time>
      </trkpt>
      <trkpt lat="48.1325880" lon="8.2180710">
        <ele>332.4</ele>
        <time>2022-06-06T05:38:46Z</time>
      </trkpt>
      <trkpt lat="48.1326150" lon="8.2179730">
        <ele>332.4</ele>
        <time>2022-06-06T05:38:50Z</time>
      </trkpt>
      <trkpt lat="48.1326430" lon="8.2178750">
        <ele>333.0</ele>
        <time>2022-06-06T05:38:54Z</time>
      </trkpt>
      <trkpt lat="48.1326730" lon="8.2177710">
        <ele>334.0</ele>
        <time>2022-06-06T05:38:58Z</time>
      </trkpt>
      <trkpt lat="48.1327150" lon="8.2176760">
        <ele>334.6</ele>
        <time>2022-06-06T05:39:02Z</time>
      </trkpt>
      <trkpt lat="48.1327500" lon="8.2175880">
        <ele>335.6</ele>
        <time>2022-06-06T05:39:06Z</time>
      </trkpt>
      <trkpt lat="48.1327860" lon="8.2175000">
        <ele>336.0</ele>
        <time>2022-06-06T05:39:10Z</time>
      </trkpt>
      <trkpt lat="48.1328230" lon="8.2174010">
        <ele>336.8</ele>
        <time>2022-06-06T05:39:14Z</time>
      </trkpt>
      <trkpt lat="48.1328680" lon="8.2173110">
        <ele>336.8</ele>
        <time>2022-06-06T05:39:18Z</time>
      </trkpt>
      <trkpt lat="48.1329160" lon="8.2172250">
        <ele>337.6</ele>
        <time>2022-06-06T05:39:22Z</time>
      </trkpt>
      <trkpt lat="48.1329700" lon="8.2171410">
        <ele>338.0</ele>
        <time>2022-06-06T05:39:26Z</time>
      </trkpt>
      <trkpt lat="48.1330210" lon="8.2170600">
        <ele>338.4</ele>
        <time>2022-06-06T05:39:30Z</time>
      </trkpt>
      <trkpt lat="48.1330810" lon="8.2169860">
        <ele>339.0</ele>
        <time>2022-06-06T05:39:34Z</time>
      </trkpt>
      <trkpt lat="48.1331430" lon="8.2168980">
        <ele>339.0</ele>
        <time>2022-06-06T05:39:38Z</time>
      </trkpt>
      <trkpt lat="48.1331960" lon="8.2168000">
        <ele>339.2</ele>
        <time>2022-06-06T05:39:42Z</time>
      </trkpt>
      <trkpt lat="48.1332500" lon="8.2167160">
        <ele>340.0</ele>
        <time>2022-06-06T05:39:46Z</time>
      </trkpt>
      <trkpt lat="48.1332910" lon="8.2166200">
        <ele>340.0</ele>
        <time>2022-06-06T05:39:50Z</time>
      </trkpt>
      <trkpt lat="48.1333430" lon="8.2165430">
        <ele>340.8</ele>
        <time>2022-06-06T05:39:54Z</time>
      </trkpt>
      <trkpt lat="48.1334030" lon="8.2164700">
        <ele>341.8</ele>
        <time>2022-06-06T05:39:58Z</time>
      </trkpt>
      <trkpt lat="48.1334630" lon="8.2163910">
        <ele>341.8</ele>
        <time>2022-06-06T05:40:02Z</time>
      </trkpt>
      <trkpt lat="48.1335250" lon="8.2163130">
        <ele>342.4</ele>
        <time>2022-06-06T05:40:06Z</time>
      </trkpt>
      <trkpt lat="48.1335950" lon="8.2162330">
        <ele>342.6</ele>
        <time>2022-06-06T05:40:10Z</time>
      </trkpt>
      <trkpt lat="48.1336610" lon="8.2161510">
        <ele>343.2</ele>
        <time>2022-06-06T05:40:14Z</time>
      </trkpt>
      <trkpt lat="48.1337160" lon="8.2160610">
        <ele>343.0</ele>
        <time>2022-06-06T05:40:18Z</time>
      </trkpt>
      <trkpt lat="48.1337850" lon="8.2159850">
        <ele>343.4</ele>
        <time>2022-06-06T05:40:22Z</time>
      </trkpt>
      <trkpt lat="48.1338600" lon="8.2158960">
        <ele>343.0</ele>
        <time>2022-06-06T05:40:26Z</time>
      </trkpt>
      <trkpt lat="48.1340010" lon="8.2157660">
        <ele>342.2</ele>
        <time>2022-06-06T05:40:30Z</time>
      </trkpt>
      <trkpt lat="48.1342010" lon="8.2155930">
        <ele>341.2</ele>
        <time>2022-06-06T05:40:34Z</time>
      </trkpt>
      <trkpt lat="48.1344360" lon="8.2154650">
        <ele>340.4</ele>
        <time>2022-06-06T05:40:38Z</time>
      </trkpt>
      <trkpt lat="48.1346460" lon="8.2153930">
        <ele>340.2</ele>
        <time>2022-06-06T05:40:42Z</time>
      </trkpt>
      <trkpt lat="48.1348100" lon="8.2153430">
        <ele>340.2</ele>
        <time>2022-06-06T05:40:46Z</time>
      </trkpt>
      <trkpt lat="48.1349430" lon="8.2153110">
        <ele>340.6</ele>
        <time>2022-06-06T05:40:50Z</time>
      </trkpt>
      <trkpt lat="48.1350560" lon="8.2152800">
        <ele>341.8</ele>
        <time>2022-06-06T05:40:54Z</time>
      </trkpt>
      <trkpt lat="48.1351610" lon="8.2152360">
        <ele>341.8</ele>
        <time>2022-06-06T05:40:58Z</time>
      </trkpt>
      <trkpt lat="48.1352450" lon="8.2151460">
        <ele>342.4</ele>
        <time>2022-06-06T05:41:02Z</time>
      </trkpt>
      <trkpt lat="48.1353260" lon="8.2150660">
        <ele>343.4</ele>
        <time>2022-06-06T05:41:06Z</time>
      </trkpt>
      <trkpt lat="48.1354050" lon="8.2149760">
        <ele>344.4</ele>
        <time>2022-06-06T05:41:10Z</time>
      </trkpt>
      <trkpt lat="48.1354780" lon="8.2148730">
        <ele>344.6</ele>
        <time>2022-06-06T05:41:14Z</time>
      </trkpt>
      <trkpt lat="48.1355500" lon="8.2147610">
        <ele>344.8</ele>
        <time>2022-06-06T05:41:18Z</time>
      </trkpt>
      <trkpt lat="48.1356310" lon="8.2146750">
        <ele>344.8</ele>
        <time>2022-06-06T05:41:22Z</time>
      </trkpt>
      <trkpt lat="48.1357150" lon="8.2145800">
        <ele>345.2</ele>
        <time>2022-06-06T05:41:26Z</time>
      </trkpt>
      <trkpt lat="48.1357830" lon="8.2144730">
        <ele>344.8</ele>
        <time>2022-06-06T05:41:30Z</time>
      </trkpt>
      <trkpt lat="48.1358580" lon="8.2143600">
        <ele>345.0</ele>
        <time>2022-06-06T05:41:34Z</time>
      </trkpt>
      <trkpt lat="48.1359350" lon="8.2142730">
        <ele>345.4</ele>
        <time>2022-06-06T05:41:38Z</time>
      </trkpt>
      <trkpt lat="48.1360180" lon="8.2141950">
        <ele>345.2</ele>
        <time>2022-06-06T05:41:42Z</time>
      </trkpt>
      <trkpt lat="48.1360860" lon="8.2141230">
        <ele>345.4</ele>
        <time>2022-06-06T05:41:46Z</time>
      </trkpt>
      <trkpt lat="48.1361410" lon="8.2141010">
        <ele>345.6</ele>
        <time>2022-06-06T05:41:50Z</time>
      </trkpt>
      <trkpt lat="48.1362030" lon="8.2140760">
        <ele>345.6</ele>
        <time>2022-06-06T05:41:54Z</time>
      </trkpt>
      <trkpt lat="48.1362030" lon="8.2140760">
        <ele>345.4</ele>
        <time>2022-06-06T05:41:58Z</time>
      </trkpt>
      <trkpt lat="48.1362030" lon="8.2140760">
        <ele>345.4</ele>
        <time>2022-06-06T05:42:02Z</time>
      </trkpt>
      <trkpt lat="48.1362030" lon="8.2140760">
        <ele>345.2</ele>
        <time>2022-06-06T05:42:06Z</time>
      </trkpt>
      <trkpt lat="48.1362030" lon="8.2140760">
        <ele>345.4</ele>
        <time>2022-06-06T05:42:10Z</time>
      </trkpt>
      <trkpt lat="48.1362300" lon="8.2140660">
        <ele>345.2</ele>
        <time>2022-06-06T05:42:14Z</time>
      </trkpt>
      <trkpt lat="48.1362300" lon="8.2140660">
        <ele>344.8</ele>
        <time>2022-06-06T05:42:18Z</time>
      </trkpt>
      <trkpt lat="48.1362300" lon="8.2140660">
        <ele>345.2</ele>
        <time>2022-06-06T05:42:22Z</time>
      </trkpt>
      <trkpt lat="48.1362300" lon="8.2140660">
        <ele>345.2</ele>
        <time>2022-06-06T05:42:26Z</time>
      </trkpt>
      <trkpt lat="48.1362300" lon="8.2140660">
        <ele>345.2</ele>
        <time>2022-06-06T05:42:30Z</time>
      </trkpt>
      <trkpt lat="48.1362300" lon="8.2140660">
        <ele>345.4</ele>
        <time>2022-06-06T05:42:34Z</time>
      </trkpt>
      <trkpt lat="48.1362300" lon="8.2140660">
        <ele>345.2</ele>
        <time>2022-06-06T05:42:38Z</time>
      </trkpt>
      <trkpt lat="48.1362300" lon="8.2140660">
        <ele>345.6</ele>
        <time>2022-06-06T05:42:42Z</time>
      </trkpt>
      <trkpt lat="48.1362300" lon="8.2140660">
        <ele>345.6</ele>
        <time>2022-06-06T05:42:46Z</time>
      </trkpt>
      <trkpt lat="48.1362300" lon="8.2140660">
        <ele>345.6</ele>
        <time>2022-06-06T05:42:50Z</time>
      </trkpt>
      <trkpt lat="48.1362300" lon="8.2140660">
        <ele>345.4</ele>
        <time>2022-06-06T05:42:54Z</time>
      </trkpt>
      <trkpt lat="48.1362300" lon="8.2140660">
        <ele>345.4</ele>
        <time>2022-06-06T05:42:58Z</time>
      </trkpt>
      <trkpt lat="48.1362300" lon="8.2140660">
        <ele>345.4</ele>
        <time>2022-06-06T05:43:02Z</time>
      </trkpt>
      <trkpt lat="48.1362300" lon="8.2140660">
        <ele>345.4</ele>
        <time>2022-06-06T05:43:06Z</time>
      </trkpt>
      <trkpt lat="48.1362300" lon="8.2140660">
        <ele>345.4</ele>
        <time>2022-06-06T05:43:10Z</time>
      </trkpt>
      <trkpt lat="48.1362300" lon="8.2140660">
        <ele>345.2</ele>
        <time>2022-06-06T05:43:14Z</time>
      </trkpt>
      <trkpt lat="48.1362300" lon="8.2140660">
        <ele>345.2</ele>
        <time>2022-06-06T05:43:18Z</time>
      </trkpt>
      <trkpt lat="48.1362300" lon="8.2140660">
        <ele>345.2</ele>
        <time>2022-06-06T05:43:22Z</time>
      </trkpt>
      <trkpt lat="48.1362300" lon="8.2140660">
        <ele>345.6</ele>
        <time>2022-06-06T05:43:26Z</time>
      </trkpt>
      <trkpt lat="48.1362300" lon="8.2140660">
        <ele>345.8</ele>
        <time>2022-06-06T05:43:30Z</time>
      </trkpt>
      <trkpt lat="48.1362300" lon="8.2140660">
        <ele>345.4</ele>
        <time>2022-06-06T05:43:34Z</time>
      </trkpt>
      <trkpt lat="48.1362300" lon="8.2140660">
        <ele>345.6</ele>
        <time>2022-06-06T05:43:38Z</time>
      </trkpt>
      <trkpt lat="48.1362300" lon="8.2140660">
        <ele>345.6</ele>
        <time>2022-06-06T05:43:42Z</time>
      </trkpt>
      <trkpt lat="48.1362300" lon="8.2140660">
        <ele>345.6</ele>
        <time>2022-06-06T05:43:46Z</time>
      </trkpt>
      <trkpt lat="48.1362300" lon="8.2140660">
        <ele>345.8</ele>
        <time>2022-06-06T05:43:50Z</time>
      </trkpt>
      <trkpt lat="48.1362300" lon="8.2140660">
        <ele>345.6</ele>
        <time>2022-06-06T05:43:54Z</time>
      </trkpt>
      <trkpt lat="48.1362300" lon="8.2140660">
        <ele>345.6</ele>
        <time>2022-06-06T05:43:58Z</time>
      </trkpt>
      <trkpt lat="48.1362300" lon="8.2140660">
        <ele>345.4</ele>
        <time>2022-06-06T05:44:02Z</time>
      </trkpt>
      <trkpt lat="48.1362300" lon="8.2140660">
        <ele>345.6</ele>
        <time>2022-06-06T05:44:06Z</time>
      </trkpt>
      <trkpt lat="48.1362300" lon="8.2140660">
        <ele>345.6</ele>
        <time>2022-06-06T05:44:10Z</time>
      </trkpt>
      <trkpt lat="48.1362300" lon="8.2140660">
        <ele>346.0</ele>
        <time>2022-06-06T05:44:14Z</time>
      </trkpt>
      <trkpt lat="48.1362300" lon="8.2140660">
        <ele>346.0</ele>
        <time>2022-06-06T05:44:18Z</time>
      </trkpt>
      <trkpt lat="48.1362300" lon="8.2140660">
        <ele>345.6</ele>
        <time>2022-06-06T05:44:22Z</time>
      </trkpt>
      <trkpt lat="48.1362300" lon="8.2140660">
        <ele>345.6</ele>
        <time>2022-06-06T05:44:26Z</time>
      </trkpt>
      <trkpt lat="48.1362300" lon="8.2140660">
        <ele>345.6</ele>
        <time>2022-06-06T05:44:30Z</time>
      </trkpt>
      <trkpt lat="48.1362300" lon="8.2140660">
        <ele>345.6</ele>
        <time>2022-06-06T05:44:34Z</time>
      </trkpt>
      <trkpt lat="48.1362300" lon="8.2140660">
        <ele>345.6</ele>
        <time>2022-06-06T05:44:38Z</time>
      </trkpt>
      <trkpt lat="48.1362300" lon="8.2140660">
        <ele>345.4</ele>
        <time>2022-06-06T05:44:42Z</time>
      </trkpt>
      <trkpt lat="48.1362300" lon="8.2140660">
        <ele>345.6</ele>
        <time>2022-06-06T05:44:46Z</time>
      </trkpt>
      <trkpt lat="48.1362300" lon="8.2140660">
        <ele>345.6</ele>
        <time>2022-06-06T05:44:50Z</time>
      </trkpt>
      <trkpt lat="48.1362300" lon="8.2140660">
        <ele>345.6</ele>
        <time>2022-06-06T05:44:54Z</time>
      </trkpt>
      <trkpt lat="48.1362300" lon="8.2140660">
        <ele>345.6</ele>
        <time>2022-06-06T05:44:58Z</time>
      </trkpt>
      <trkpt lat="48.1362300" lon="8.2140660">
        <ele>345.6</ele>
        <time>2022-06-06T05:45:02Z</time>
      </trkpt>
      <trkpt lat="48.1362300" lon="8.2140660">
        <ele>345.6</ele>
        <time>2022-06-06T05:45:06Z</time>
      </trkpt>
      <trkpt lat="48.1362300" lon="8.2140660">
        <ele>345.2</ele>
        <time>2022-06-06T05:45:10Z</time>
      </trkpt>
      <trkpt lat="48.1362300" lon="8.2140660">
        <ele>345.2</ele>
        <time>2022-06-06T05:45:14Z</time>
      </trkpt>
      <trkpt lat="48.1362300" lon="8.2140660">
        <ele>345.4</ele>
        <time>2022-06-06T05:45:18Z</time>
      </trkpt>
      <trkpt lat="48.1362300" lon="8.2140660">
        <ele>345.2</ele>
        <time>2022-06-06T05:45:22Z</time>
      </trkpt>
      <trkpt lat="48.1362300" lon="8.2140660">
        <ele>345.0</ele>
        <time>2022-06-06T05:45:26Z</time>
      </trkpt>
      <trkpt lat="48.1362300" lon="8.2140660">
        <ele>345.0</ele>
        <time>2022-06-06T05:45:30Z</time>
      </trkpt>
      <trkpt lat="48.1362300" lon="8.2140660">
        <ele>345.0</ele>
        <time>2022-06-06T05:45:34Z</time>
      </trkpt>
      <trkpt lat="48.1362300" lon="8.2140660">
        <ele>345.0</ele>
        <time>2022-06-06T05:45:38Z</time>
      </trkpt>
      <trkpt lat="48.1362300" lon="8.2140660">
        <ele>345.2</ele>
        <time>2022-06-06T05:45:42Z</time>
      </trkpt>
      <trkpt lat="48.1362300" lon="8.2140660">
        <ele>345.0</ele>
        <time>2022-06-06T05:45:46Z</time>
      </trkpt>
      <trkpt lat="48.1362300" lon="8.2140660">
        <ele>344.8</ele>
        <time>2022-06-06T05:45:50Z</time>
      </trkpt>
      <trkpt lat="48.1362300" lon="8.2140660">
        <ele>345.2</ele>
        <time>2022-06-06T05:45:54Z</time>
      </trkpt>
      <trkpt lat="48.1362300" lon="8.2140660">
        <ele>345.6</ele>
        <time>2022-06-06T05:45:58Z</time>
      </trkpt>
      <trkpt lat="48.1362300" lon="8.2140660">
        <ele>345.6</ele>
        <time>2022-06-06T05:46:02Z</time>
      </trkpt>
      <trkpt lat="48.1362300" lon="8.2140660">
        <ele>345.4</ele>
        <time>2022-06-06T05:46:06Z</time>
      </trkpt>
      <trkpt lat="48.1362300" lon="8.2140660">
        <ele>345.2</ele>
        <time>2022-06-06T05:46:10Z</time>
      </trkpt>
      <trkpt lat="48.1362300" lon="8.2140660">
        <ele>345.8</ele>
        <time>2022-06-06T05:46:14Z</time>
      </trkpt>
      <trkpt lat="48.1362300" lon="8.2140660">
        <ele>345.6</ele>
        <time>2022-06-06T05:46:18Z</time>
      </trkpt>
      <trkpt lat="48.1362300" lon="8.2140660">
        <ele>345.8</ele>
        <time>2022-06-06T05:46:22Z</time>
      </trkpt>
      <trkpt lat="48.1362300" lon="8.2140660">
        <ele>345.8</ele>
        <time>2022-06-06T05:46:26Z</time>
      </trkpt>
      <trkpt lat="48.1362300" lon="8.2140660">
        <ele>346.2</ele>
        <time>2022-06-06T05:46:30Z</time>
      </trkpt>
      <trkpt lat="48.1362300" lon="8.2140660">
        <ele>346.2</ele>
        <time>2022-06-06T05:46:34Z</time>
      </trkpt>
      <trkpt lat="48.1362300" lon="8.2140660">
        <ele>345.6</ele>
        <time>2022-06-06T05:46:38Z</time>
      </trkpt>
      <trkpt lat="48.1362300" lon="8.2140660">
        <ele>345.8</ele>
        <time>2022-06-06T05:46:42Z</time>
      </trkpt>
      <trkpt lat="48.1362300" lon="8.2140660">
        <ele>346.0</ele>
        <time>2022-06-06T05:46:46Z</time>
      </trkpt>
      <trkpt lat="48.1362300" lon="8.2140660">
        <ele>346.2</ele>
        <time>2022-06-06T05:46:50Z</time>
      </trkpt>
      <trkpt lat="48.1362300" lon="8.2140660">
        <ele>345.6</ele>
        <time>2022-06-06T05:46:54Z</time>
      </trkpt>
      <trkpt lat="48.1362300" lon="8.2140660">
        <ele>345.8</ele>
        <time>2022-06-06T05:46:58Z</time>
      </trkpt>
      <trkpt lat="48.1362300" lon="8.2140660">
        <ele>345.8</ele>
        <time>2022-06-06T05:47:02Z</time>
      </trkpt>
      <trkpt lat="48.1362300" lon="8.2140660">
        <ele>345.6</ele>
        <time>2022-06-06T05:47:06Z</time>
      </trkpt>
      <trkpt lat="48.1362300" lon="8.2140660">
        <ele>345.6</ele>
        <time>2022-06-06T05:47:10Z</time>
      </trkpt>
      <trkpt lat="48.1362300" lon="8.2140660">
        <ele>345.6</ele>
        <time>2022-06-06T05:47:14Z</time>
      </trkpt>
      <trkpt lat="48.1362260" lon="8.2140910">
        <ele>346.0</ele>
        <time>2022-06-06T05:47:18Z</time>
      </trkpt>
      <trkpt lat="48.1362260" lon="8.2140910">
        <ele>346.2</ele>
        <time>2022-06-06T05:47:22Z</time>
      </trkpt>
      <trkpt lat="48.1362260" lon="8.2140910">
        <ele>346.2</ele>
        <time>2022-06-06T05:47:26Z</time>
      </trkpt>
      <trkpt lat="48.1362260" lon="8.2140910">
        <ele>346.0</ele>
        <time>2022-06-06T05:47:30Z</time>
      </trkpt>
      <trkpt lat="48.1362260" lon="8.2140910">
        <ele>346.4</ele>
        <time>2022-06-06T05:47:34Z</time>
      </trkpt>
      <trkpt lat="48.1362260" lon="8.2140910">
        <ele>346.0</ele>
        <time>2022-06-06T05:47:38Z</time>
      </trkpt>
      <trkpt lat="48.1362260" lon="8.2140910">
        <ele>346.4</ele>
        <time>2022-06-06T05:47:42Z</time>
      </trkpt>
      <trkpt lat="48.1361760" lon="8.2140580">
        <ele>346.2</ele>
        <time>2022-06-06T05:47:46Z</time>
      </trkpt>
      <trkpt lat="48.1361380" lon="8.2140760">
        <ele>346.2</ele>
        <time>2022-06-06T05:47:50Z</time>
      </trkpt>
      <trkpt lat="48.1360680" lon="8.2141380">
        <ele>346.2</ele>
        <time>2022-06-06T05:47:54Z</time>
      </trkpt>
      <trkpt lat="48.1359930" lon="8.2142030">
        <ele>346.0</ele>
        <time>2022-06-06T05:47:58Z</time>
      </trkpt>
      <trkpt lat="48.1359250" lon="8.2142710">
        <ele>346.2</ele>
        <time>2022-06-06T05:48:02Z</time>
      </trkpt>
      <trkpt lat="48.1358580" lon="8.2143530">
        <ele>345.8</ele>
        <time>2022-06-06T05:48:06Z</time>
      </trkpt>
      <trkpt lat="48.1357830" lon="8.2144450">
        <ele>345.6</ele>
        <time>2022-06-06T05:48:10Z</time>
      </trkpt>
      <trkpt lat="48.1357010" lon="8.2145730">
        <ele>345.6</ele>
        <time>2022-06-06T05:48:14Z</time>
      </trkpt>
      <trkpt lat="48.1356160" lon="8.2146960">
        <ele>345.8</ele>
        <time>2022-06-06T05:48:18Z</time>
      </trkpt>
      <trkpt lat="48.1355160" lon="8.2148150">
        <ele>345.6</ele>
        <time>2022-06-06T05:48:22Z</time>
      </trkpt>
      <trkpt lat="48.1354430" lon="8.2149260">
        <ele>345.2</ele>
        <time>2022-06-06T05:48:26Z</time>
      </trkpt>
      <trkpt lat="48.1354130" lon="8.2150060">
        <ele>344.8</ele>
        <time>2022-06-06T05:48:30Z</time>
      </trkpt>
      <trkpt lat="48.1353700" lon="8.2150800">
        <ele>344.6</ele>
        <time>2022-06-06T05:48:34Z</time>
      </trkpt>
      <trkpt lat="48.1352600" lon="8.2151910">
        <ele>342.8</ele>
        <time>2022-06-06T05:48:38Z</time>
      </trkpt>
      <trkpt lat="48.1350400" lon="8.2152800">
        <ele>342.0</ele>
        <time>2022-06-06T05:48:42Z</time>
      </trkpt>
      <trkpt lat="48.1347780" lon="8.2153650">
        <ele>341.2</ele>
        <time>2022-06-06T05:48:46Z</time>
      </trkpt>
      <trkpt lat="48.1345200" lon="8.2154400">
        <ele>340.0</ele>
        <time>2022-06-06T05:48:50Z</time>
      </trkpt>
      <trkpt lat="48.1342830" lon="8.2155460">
        <ele>340.6</ele>
        <time>2022-06-06T05:48:54Z</time>
      </trkpt>
      <trkpt lat="48.1341050" lon="8.2156780">
        <ele>342.2</ele>
        <time>2022-06-06T05:48:58Z</time>
      </trkpt>
      <trkpt lat="48.1339710" lon="8.2158030">
        <ele>342.6</ele>
        <time>2022-06-06T05:49:02Z</time>
      </trkpt>
      <trkpt lat="48.1338630" lon="8.2159250">
        <ele>344.4</ele>
        <time>2022-06-06T05:49:06Z</time>
      </trkpt>
      <trkpt lat="48.1337810" lon="8.2160160">
        <ele>343.8</ele>
        <time>2022-06-06T05:49:10Z</time>
      </trkpt>
      <trkpt lat="48.1337050" lon="8.2160980">
        <ele>343.8</ele>
        <time>2022-06-06T05:49:14Z</time>
      </trkpt>
      <trkpt lat="48.1336050" lon="8.2161830">
        <ele>343.6</ele>
        <time>2022-06-06T05:49:18Z</time>
      </trkpt>
      <trkpt lat="48.1334960" lon="8.2163210">
        <ele>342.4</ele>
        <time>2022-06-06T05:49:22Z</time>
      </trkpt>
      <trkpt lat="48.1333760" lon="8.2165050">
        <ele>341.6</ele>
        <time>2022-06-06T05:49:26Z</time>
      </trkpt>
      <trkpt lat="48.1332500" lon="8.2167400">
        <ele>339.6</ele>
        <time>2022-06-06T05:49:30Z</time>
      </trkpt>
      <trkpt lat="48.1331010" lon="8.2169760">
        <ele>338.2</ele>
        <time>2022-06-06T05:49:34Z</time>
      </trkpt>
      <trkpt lat="48.1329610" lon="8.2172180">
        <ele>337.2</ele>
        <time>2022-06-06T05:49:38Z</time>
      </trkpt>
      <trkpt lat="48.1328200" lon="8.2175180">
        <ele>335.2</ele>
        <time>2022-06-06T05:49:42Z</time>
      </trkpt>
      <trkpt lat="48.1326880" lon="8.2178300">
        <ele>332.2</ele>
        <time>2022-06-06T05:49:46Z</time>
      </trkpt>
      <trkpt lat="48.1325630" lon="8.2181750">
        <ele>331.2</ele>
        <time>2022-06-06T05:49:50Z</time>
      </trkpt>
      <trkpt lat="48.1324710" lon="8.2185310">
        <ele>329.4</ele>
        <time>2022-06-06T05:49:54Z</time>
      </trkpt>
      <trkpt lat="48.1324350" lon="8.2188950">
        <ele>327.4</ele>
        <time>2022-06-06T05:49:58Z</time>
      </trkpt>
      <trkpt lat="48.1324510" lon="8.2192950">
        <ele>325.2</ele>
        <time>2022-06-06T05:50:02Z</time>
      </trkpt>
      <trkpt lat="48.1324560" lon="8.2196680">
        <ele>322.4</ele>
        <time>2022-06-06T05:50:06Z</time>
      </trkpt>
      <trkpt lat="48.1324550" lon="8.2201460">
        <ele>318.2</ele>
        <time>2022-06-06T05:50:10Z</time>
      </trkpt>
      <trkpt lat="48.1324030" lon="8.2206380">
        <ele>316.6</ele>
        <time>2022-06-06T05:50:14Z</time>
      </trkpt>
      <trkpt lat="48.1323830" lon="8.2211110">
        <ele>314.6</ele>
        <time>2022-06-06T05:50:18Z</time>
      </trkpt>
      <trkpt lat="48.1324200" lon="8.2215280">
        <ele>315.2</ele>
        <time>2022-06-06T05:50:22Z</time>
      </trkpt>
      <trkpt lat="48.1324160" lon="8.2218730">
        <ele>314.6</ele>
        <time>2022-06-06T05:50:26Z</time>
      </trkpt>
      <trkpt lat="48.1324150" lon="8.2222100">
        <ele>313.2</ele>
        <time>2022-06-06T05:50:30Z</time>
      </trkpt>
      <trkpt lat="48.1323600" lon="8.2225750">
        <ele>311.6</ele>
        <time>2022-06-06T05:50:34Z</time>
      </trkpt>
      <trkpt lat="48.1322950" lon="8.2229510">
        <ele>309.6</ele>
        <time>2022-06-06T05:50:38Z</time>
      </trkpt>
      <trkpt lat="48.1322010" lon="8.2232460">
        <ele>308.2</ele>
        <time>2022-06-06T05:50:42Z</time>
      </trkpt>
      <trkpt lat="48.1319910" lon="8.2234110">
        <ele>305.8</ele>
        <time>2022-06-06T05:50:46Z</time>
      </trkpt>
      <trkpt lat="48.1318460" lon="8.2232830">
        <ele>307.8</ele>
        <time>2022-06-06T05:50:50Z</time>
      </trkpt>
      <trkpt lat="48.1317750" lon="8.2231260">
        <ele>308.2</ele>
        <time>2022-06-06T05:50:54Z</time>
      </trkpt>
      <trkpt lat="48.1317210" lon="8.2230060">
        <ele>308.8</ele>
        <time>2022-06-06T05:50:58Z</time>
      </trkpt>
      <trkpt lat="48.1316750" lon="8.2228980">
        <ele>309.8</ele>
        <time>2022-06-06T05:51:02Z</time>
      </trkpt>
      <trkpt lat="48.1316250" lon="8.2227850">
        <ele>310.0</ele>
        <time>2022-06-06T05:51:06Z</time>
      </trkpt>
      <trkpt lat="48.1315500" lon="8.2226850">
        <ele>311.4</ele>
        <time>2022-06-06T05:51:10Z</time>
      </trkpt>
      <trkpt lat="48.1314850" lon="8.2226160">
        <ele>311.0</ele>
        <time>2022-06-06T05:51:14Z</time>
      </trkpt>
      <trkpt lat="48.1314150" lon="8.2225760">
        <ele>311.8</ele>
        <time>2022-06-06T05:51:18Z</time>
      </trkpt>
      <trkpt lat="48.1313500" lon="8.2225410">
        <ele>312.6</ele>
        <time>2022-06-06T05:51:22Z</time>
      </trkpt>
      <trkpt lat="48.1312680" lon="8.2225450">
        <ele>313.6</ele>
        <time>2022-06-06T05:51:26Z</time>
      </trkpt>
      <trkpt lat="48.1311910" lon="8.2225610">
        <ele>314.0</ele>
        <time>2022-06-06T05:51:30Z</time>
      </trkpt>
      <trkpt lat="48.1311100" lon="8.2225900">
        <ele>314.4</ele>
        <time>2022-06-06T05:51:34Z</time>
      </trkpt>
      <trkpt lat="48.1310330" lon="8.2226350">
        <ele>315.4</ele>
        <time>2022-06-06T05:51:38Z</time>
      </trkpt>
      <trkpt lat="48.1309610" lon="8.2226980">
        <ele>316.0</ele>
        <time>2022-06-06T05:51:42Z</time>
      </trkpt>
      <trkpt lat="48.1308950" lon="8.2227610">
        <ele>316.8</ele>
        <time>2022-06-06T05:51:46Z</time>
      </trkpt>
      <trkpt lat="48.1308330" lon="8.2228310">
        <ele>316.8</ele>
        <time>2022-06-06T05:51:50Z</time>
      </trkpt>
      <trkpt lat="48.1307850" lon="8.2229100">
        <ele>318.0</ele>
        <time>2022-06-06T05:51:54Z</time>
      </trkpt>
      <trkpt lat="48.1307430" lon="8.2230010">
        <ele>318.6</ele>
        <time>2022-06-06T05:51:58Z</time>
      </trkpt>
      <trkpt lat="48.1307060" lon="8.2230980">
        <ele>318.6</ele>
        <time>2022-06-06T05:52:02Z</time>
      </trkpt>
      <trkpt lat="48.1306880" lon="8.2231960">
        <ele>319.2</ele>
        <time>2022-06-06T05:52:06Z</time>
      </trkpt>
      <trkpt lat="48.1306760" lon="8.2233010">
        <ele>319.6</ele>
        <time>2022-06-06T05:52:10Z</time>
      </trkpt>
      <trkpt lat="48.1306800" lon="8.2234130">
        <ele>320.2</ele>
        <time>2022-06-06T05:52:14Z</time>
      </trkpt>
      <trkpt lat="48.1306850" lon="8.2235230">
        <ele>320.6</ele>
        <time>2022-06-06T05:52:18Z</time>
      </trkpt>
      <trkpt lat="48.1306930" lon="8.2236230">
        <ele>321.2</ele>
        <time>2022-06-06T05:52:22Z</time>
      </trkpt>
      <trkpt lat="48.1307380" lon="8.2237330">
        <ele>321.8</ele>
        <time>2022-06-06T05:52:26Z</time>
      </trkpt>
      <trkpt lat="48.1308030" lon="8.2238360">
        <ele>323.0</ele>
        <time>2022-06-06T05:52:30Z</time>
      </trkpt>
      <trkpt lat="48.1308580" lon="8.2239330">
        <ele>323.2</ele>
        <time>2022-06-06T05:52:34Z</time>
      </trkpt>
      <trkpt lat="48.1309200" lon="8.2240280">
        <ele>323.6</ele>
        <time>2022-06-06T05:52:38Z</time>
      </trkpt>
      <trkpt lat="48.1309610" lon="8.2241180">
        <ele>324.6</ele>
        <time>2022-06-06T05:52:42Z</time>
      </trkpt>
      <trkpt lat="48.1310350" lon="8.2242030">
        <ele>324.4</ele>
        <time>2022-06-06T05:52:46Z</time>
      </trkpt>
      <trkpt lat="48.1311060" lon="8.2242610">
        <ele>325.2</ele>
        <time>2022-06-06T05:52:50Z</time>
      </trkpt>
      <trkpt lat="48.1311330" lon="8.2243410">
        <ele>325.2</ele>
        <time>2022-06-06T05:52:54Z</time>
      </trkpt>
      <trkpt lat="48.1311710" lon="8.2244210">
        <ele>326.0</ele>
        <time>2022-06-06T05:52:58Z</time>
      </trkpt>
      <trkpt lat="48.1311430" lon="8.2245100">
        <ele>327.0</ele>
        <time>2022-06-06T05:53:02Z</time>
      </trkpt>
      <trkpt lat="48.1311560" lon="8.2246200">
        <ele>326.8</ele>
        <time>2022-06-06T05:53:06Z</time>
      </trkpt>
      <trkpt lat="48.1311610" lon="8.2247360">
        <ele>327.4</ele>
        <time>2022-06-06T05:53:10Z</time>
      </trkpt>
      <trkpt lat="48.1311580" lon="8.2248430">
        <ele>328.2</ele>
        <time>2022-06-06T05:53:14Z</time>
      </trkpt>
      <trkpt lat="48.1311530" lon="8.2249610">
        <ele>328.6</ele>
        <time>2022-06-06T05:53:18Z</time>
      </trkpt>
      <trkpt lat="48.1311550" lon="8.2250700">
        <ele>329.2</ele>
        <time>2022-06-06T05:53:22Z</time>
      </trkpt>
      <trkpt lat="48.1311550" lon="8.2251730">
        <ele>329.6</ele>
        <time>2022-06-06T05:53:26Z</time>
      </trkpt>
      <trkpt lat="48.1311430" lon="8.2252780">
        <ele>329.8</ele>
        <time>2022-06-06T05:53:30Z</time>
      </trkpt>
      <trkpt lat="48.1311400" lon="8.2253830">
        <ele>330.6</ele>
        <time>2022-06-06T05:53:34Z</time>
      </trkpt>
      <trkpt lat="48.1311280" lon="8.2254880">
        <ele>331.0</ele>
        <time>2022-06-06T05:53:38Z</time>
      </trkpt>
      <trkpt lat="48.1311260" lon="8.2255960">
        <ele>331.8</ele>
        <time>2022-06-06T05:53:42Z</time>
      </trkpt>
      <trkpt lat="48.1311260" lon="8.2257000">
        <ele>332.8</ele>
        <time>2022-06-06T05:53:46Z</time>
      </trkpt>
      <trkpt lat="48.1311230" lon="8.2258060">
        <ele>333.0</ele>
        <time>2022-06-06T05:53:50Z</time>
      </trkpt>
      <trkpt lat="48.1311200" lon="8.2259010">
        <ele>334.0</ele>
        <time>2022-06-06T05:53:54Z</time>
      </trkpt>
      <trkpt lat="48.1310900" lon="8.2260000">
        <ele>334.2</ele>
        <time>2022-06-06T05:53:58Z</time>
      </trkpt>
      <trkpt lat="48.1310450" lon="8.2260830">
        <ele>334.6</ele>
        <time>2022-06-06T05:54:02Z</time>
      </trkpt>
      <trkpt lat="48.1309780" lon="8.2261560">
        <ele>335.0</ele>
        <time>2022-06-06T05:54:06Z</time>
      </trkpt>
      <trkpt lat="48.1309130" lon="8.2262110">
        <ele>335.6</ele>
        <time>2022-06-06T05:54:10Z</time>
      </trkpt>
      <trkpt lat="48.1308410" lon="8.2262400">
        <ele>336.6</ele>
        <time>2022-06-06T05:54:14Z</time>
      </trkpt>
      <trkpt lat="48.1307780" lon="8.2262680">
        <ele>337.0</ele>
        <time>2022-06-06T05:54:18Z</time>
      </trkpt>
      <trkpt lat="48.1307160" lon="8.2262860">
        <ele>337.8</ele>
        <time>2022-06-06T05:54:22Z</time>
      </trkpt>
      <trkpt lat="48.1306660" lon="8.2262910">
        <ele>338.0</ele>
        <time>2022-06-06T05:54:26Z</time>
      </trkpt>
      <trkpt lat="48.1305850" lon="8.2263130">
        <ele>339.2</ele>
        <time>2022-06-06T05:54:30Z</time>
      </trkpt>
      <trkpt lat="48.1304960" lon="8.2263510">
        <ele>339.6</ele>
        <time>2022-06-06T05:54:34Z</time>
      </trkpt>
      <trkpt lat="48.1304230" lon="8.2263700">
        <ele>340.4</ele>
        <time>2022-06-06T05:54:38Z</time>
      </trkpt>
      <trkpt lat="48.1303610" lon="8.2264130">
        <ele>341.2</ele>
        <time>2022-06-06T05:54:42Z</time>
      </trkpt>
      <trkpt lat="48.1302860" lon="8.2264660">
        <ele>341.6</ele>
        <time>2022-06-06T05:54:46Z</time>
      </trkpt>
      <trkpt lat="48.1302200" lon="8.2265100">
        <ele>342.4</ele>
        <time>2022-06-06T05:54:50Z</time>
      </trkpt>
      <trkpt lat="48.1301510" lon="8.2265560">
        <ele>343.2</ele>
        <time>2022-06-06T05:54:54Z</time>
      </trkpt>
      <trkpt lat="48.1300850" lon="8.2265850">
        <ele>343.4</ele>
        <time>2022-06-06T05:54:58Z</time>
      </trkpt>
      <trkpt lat="48.1300110" lon="8.2265600">
        <ele>343.8</ele>
        <time>2022-06-06T05:55:02Z</time>
      </trkpt>
      <trkpt lat="48.1299300" lon="8.2265260">
        <ele>344.4</ele>
        <time>2022-06-06T05:55:06Z</time>
      </trkpt>
      <trkpt lat="48.1298580" lon="8.2264910">
        <ele>345.0</ele>
        <time>2022-06-06T05:55:10Z</time>
      </trkpt>
      <trkpt lat="48.1297860" lon="8.2264510">
        <ele>345.6</ele>
        <time>2022-06-06T05:55:14Z</time>
      </trkpt>
      <trkpt lat="48.1296950" lon="8.2264060">
        <ele>346.2</ele>
        <time>2022-06-06T05:55:18Z</time>
      </trkpt>
      <trkpt lat="48.1296210" lon="8.2263560">
        <ele>346.6</ele>
        <time>2022-06-06T05:55:22Z</time>
      </trkpt>
      <trkpt lat="48.1295560" lon="8.2263160">
        <ele>347.2</ele>
        <time>2022-06-06T05:55:26Z</time>
      </trkpt>
      <trkpt lat="48.1294900" lon="8.2262610">
        <ele>348.4</ele>
        <time>2022-06-06T05:55:30Z</time>
      </trkpt>
      <trkpt lat="48.1294130" lon="8.2262250">
        <ele>349.2</ele>
        <time>2022-06-06T05:55:34Z</time>
      </trkpt>
      <trkpt lat="48.1293350" lon="8.2261730">
        <ele>349.4</ele>
        <time>2022-06-06T05:55:38Z</time>
      </trkpt>
      <trkpt lat="48.1292560" lon="8.2261310">
        <ele>350.2</ele>
        <time>2022-06-06T05:55:42Z</time>
      </trkpt>
      <trkpt lat="48.1291860" lon="8.2260930">
        <ele>350.8</ele>
        <time>2022-06-06T05:55:46Z</time>
      </trkpt>
      <trkpt lat="48.1291050" lon="8.2260780">
        <ele>351.0</ele>
        <time>2022-06-06T05:55:50Z</time>
      </trkpt>
      <trkpt lat="48.1290260" lon="8.2260480">
        <ele>352.0</ele>
        <time>2022-06-06T05:55:54Z</time>
      </trkpt>
      <trkpt lat="48.1289310" lon="8.2260450">
        <ele>352.2</ele>
        <time>2022-06-06T05:55:58Z</time>
      </trkpt>
      <trkpt lat="48.1288560" lon="8.2260280">
        <ele>352.6</ele>
        <time>2022-06-06T05:56:02Z</time>
      </trkpt>
      <trkpt lat="48.1287860" lon="8.2259860">
        <ele>353.8</ele>
        <time>2022-06-06T05:56:06Z</time>
      </trkpt>
      <trkpt lat="48.1287260" lon="8.2259110">
        <ele>354.2</ele>
        <time>2022-06-06T05:56:10Z</time>
      </trkpt>
      <trkpt lat="48.1287250" lon="8.2258030">
        <ele>354.8</ele>
        <time>2022-06-06T05:56:14Z</time>
      </trkpt>
      <trkpt lat="48.1287460" lon="8.2256930">
        <ele>355.6</ele>
        <time>2022-06-06T05:56:18Z</time>
      </trkpt>
      <trkpt lat="48.1288030" lon="8.2256200">
        <ele>356.0</ele>
        <time>2022-06-06T05:56:22Z</time>
      </trkpt>
      <trkpt lat="48.1288710" lon="8.2255800">
        <ele>356.6</ele>
        <time>2022-06-06T05:56:26Z</time>
      </trkpt>
      <trkpt lat="48.1289350" lon="8.2256000">
        <ele>356.4</ele>
        <time>2022-06-06T05:56:30Z</time>
      </trkpt>
      <trkpt lat="48.1289880" lon="8.2256530">
        <ele>357.6</ele>
        <time>2022-06-06T05:56:34Z</time>
      </trkpt>
      <trkpt lat="48.1290410" lon="8.2257100">
        <ele>358.0</ele>
        <time>2022-06-06T05:56:38Z</time>
      </trkpt>
      <trkpt lat="48.1291100" lon="8.2257710">
        <ele>358.6</ele>
        <time>2022-06-06T05:56:42Z</time>
      </trkpt>
      <trkpt lat="48.1291860" lon="8.2258350">
        <ele>359.2</ele>
        <time>2022-06-06T05:56:46Z</time>
      </trkpt>
      <trkpt lat="48.1292460" lon="8.2258830">
        <ele>360.2</ele>
        <time>2022-06-06T05:56:50Z</time>
      </trkpt>
      <trkpt lat="48.1293130" lon="8.2259250">
        <ele>360.4</ele>
        <time>2022-06-06T05:56:54Z</time>
      </trkpt>
      <trkpt lat="48.1293960" lon="8.2259460">
        <ele>361.4</ele>
        <time>2022-06-06T05:56:58Z</time>
      </trkpt>
      <trkpt lat="48.1294700" lon="8.2259750">
        <ele>361.4</ele>
        <time>2022-06-06T05:57:02Z</time>
      </trkpt>
      <trkpt lat="48.1295360" lon="8.2260260">
        <ele>362.4</ele>
        <time>2022-06-06T05:57:06Z</time>
      </trkpt>
      <trkpt lat="48.1296080" lon="8.2260580">
        <ele>362.4</ele>
        <time>2022-06-06T05:57:10Z</time>
      </trkpt>
      <trkpt lat="48.1296950" lon="8.2260910">
        <ele>363.4</ele>
        <time>2022-06-06T05:57:14Z</time>
      </trkpt>
      <trkpt lat="48.1297680" lon="8.2261230">
        <ele>363.4</ele>
        <time>2022-06-06T05:57:18Z</time>
      </trkpt>
      <trkpt lat="48.1298560" lon="8.2261410">
        <ele>364.2</ele>
        <time>2022-06-06T05:57:22Z</time>
      </trkpt>
      <trkpt lat="48.1299400" lon="8.2261530">
        <ele>365.4</ele>
        <time>2022-06-06T05:57:26Z</time>
      </trkpt>
      <trkpt lat="48.1300130" lon="8.2261330">
        <ele>366.2</ele>
        <time>2022-06-06T05:57:30Z</time>
      </trkpt>
      <trkpt lat="48.1300830" lon="8.2260830">
        <ele>365.8</ele>
        <time>2022-06-06T05:57:34Z</time>
      </trkpt>
      <trkpt lat="48.1301350" lon="8.2260110">
        <ele>366.4</ele>
        <time>2022-06-06T05:57:38Z</time>
      </trkpt>
      <trkpt lat="48.1301580" lon="8.2259200">
        <ele>366.8</ele>
        <time>2022-06-06T05:57:42Z</time>
      </trkpt>
      <trkpt lat="48.1301760" lon="8.2258260">
        <ele>367.4</ele>
        <time>2022-06-06T05:57:46Z</time>
      </trkpt>
      <trkpt lat="48.1301630" lon="8.2257210">
        <ele>367.6</ele>
        <time>2022-06-06T05:57:50Z</time>
      </trkpt>
      <trkpt lat="48.1301530" lon="8.2256210">
        <ele>368.2</ele>
        <time>2022-06-06T05:57:54Z</time>
      </trkpt>
      <trkpt lat="48.1301230" lon="8.2255200">
        <ele>369.2</ele>
        <time>2022-06-06T05:57:58Z</time>
      </trkpt>
      <trkpt lat="48.1300780" lon="8.2254230">
        <ele>370.4</ele>
        <time>2022-06-06T05:58:02Z</time>
      </trkpt>
      <trkpt lat="48.1300560" lon="8.2253410">
        <ele>371.4</ele>
        <time>2022-06-06T05:58:06Z</time>
      </trkpt>
      <trkpt lat="48.1300250" lon="8.2252510">
        <ele>371.6</ele>
        <time>2022-06-06T05:58:10Z</time>
      </trkpt>
      <trkpt lat="48.1299900" lon="8.2251580">
        <ele>372.2</ele>
        <time>2022-06-06T05:58:14Z</time>
      </trkpt>
      <trkpt lat="48.1299830" lon="8.2250760">
        <ele>372.8</ele>
        <time>2022-06-06T05:58:18Z</time>
      </trkpt>
      <trkpt lat="48.1299680" lon="8.2250000">
        <ele>373.2</ele>
        <time>2022-06-06T05:58:22Z</time>
      </trkpt>
      <trkpt lat="48.1299400" lon="8.2248730">
        <ele>373.6</ele>
        <time>2022-06-06T05:58:26Z</time>
      </trkpt>
      <trkpt lat="48.1299130" lon="8.2247450">
        <ele>373.8</ele>
        <time>2022-06-06T05:58:30Z</time>
      </trkpt>
      <trkpt lat="48.1298880" lon="8.2246330">
        <ele>374.6</ele>
        <time>2022-06-06T05:58:34Z</time>
      </trkpt>
      <trkpt lat="48.1298580" lon="8.2245060">
        <ele>375.8</ele>
        <time>2022-06-06T05:58:38Z</time>
      </trkpt>
      <trkpt lat="48.1298330" lon="8.2244100">
        <ele>376.4</ele>
        <time>2022-06-06T05:58:42Z</time>
      </trkpt>
      <trkpt lat="48.1298210" lon="8.2242830">
        <ele>376.4</ele>
        <time>2022-06-06T05:58:46Z</time>
      </trkpt>
      <trkpt lat="48.1298210" lon="8.2241300">
        <ele>377.2</ele>
        <time>2022-06-06T05:58:50Z</time>
      </trkpt>
      <trkpt lat="48.1297960" lon="8.2239930">
        <ele>378.0</ele>
        <time>2022-06-06T05:58:54Z</time>
      </trkpt>
      <trkpt lat="48.1297860" lon="8.2238760">
        <ele>378.8</ele>
        <time>2022-06-06T05:58:58Z</time>
      </trkpt>
      <trkpt lat="48.1297830" lon="8.2237510">
        <ele>379.0</ele>
        <time>2022-06-06T05:59:02Z</time>
      </trkpt>
      <trkpt lat="48.1297850" lon="8.2236230">
        <ele>380.0</ele>
        <time>2022-06-06T05:59:06Z</time>
      </trkpt>
      <trkpt lat="48.1297830" lon="8.2234980">
        <ele>381.2</ele>
        <time>2022-06-06T05:59:10Z</time>
      </trkpt>
      <trkpt lat="48.1297680" lon="8.2233810">
        <ele>382.2</ele>
        <time>2022-06-06T05:59:14Z</time>
      </trkpt>
      <trkpt lat="48.1297400" lon="8.2232780">
        <ele>382.4</ele>
        <time>2022-06-06T05:59:18Z</time>
      </trkpt>
      <trkpt lat="48.1296930" lon="8.2231880">
        <ele>383.0</ele>
        <time>2022-06-06T05:59:22Z</time>
      </trkpt>
      <trkpt lat="48.1296250" lon="8.2231450">
        <ele>383.2</ele>
        <time>2022-06-06T05:59:26Z</time>
      </trkpt>
      <trkpt lat="48.1295550" lon="8.2231610">
        <ele>383.4</ele>
        <time>2022-06-06T05:59:30Z</time>
      </trkpt>
      <trkpt lat="48.1294900" lon="8.2232250">
        <ele>383.8</ele>
        <time>2022-06-06T05:59:34Z</time>
      </trkpt>
      <trkpt lat="48.1294610" lon="8.2233310">
        <ele>384.8</ele>
        <time>2022-06-06T05:59:38Z</time>
      </trkpt>
      <trkpt lat="48.1294450" lon="8.2234550">
        <ele>385.2</ele>
        <time>2022-06-06T05:59:42Z</time>
      </trkpt>
      <trkpt lat="48.1294500" lon="8.2235750">
        <ele>386.2</ele>
        <time>2022-06-06T05:59:46Z</time>
      </trkpt>
      <trkpt lat="48.1294530" lon="8.2236930">
        <ele>386.8</ele>
        <time>2022-06-06T05:59:50Z</time>
      </trkpt>
      <trkpt lat="48.1294580" lon="8.2238180">
        <ele>387.2</ele>
        <time>2022-06-06T05:59:54Z</time>
      </trkpt>
      <trkpt lat="48.1294560" lon="8.2239400">
        <ele>387.2</ele>
        <time>2022-06-06T05:59:58Z</time>
      </trkpt>
      <trkpt lat="48.1294600" lon="8.2240600">
        <ele>387.8</ele>
        <time>2022-06-06T06:00:02Z</time>
      </trkpt>
      <trkpt lat="48.1294510" lon="8.2241860">
        <ele>388.4</ele>
        <time>2022-06-06T06:00:06Z</time>
      </trkpt>
      <trkpt lat="48.1294280" lon="8.2243110">
        <ele>389.4</ele>
        <time>2022-06-06T06:00:10Z</time>
      </trkpt>
      <trkpt lat="48.1294000" lon="8.2244300">
        <ele>389.4</ele>
        <time>2022-06-06T06:00:14Z</time>
      </trkpt>
      <trkpt lat="48.1293460" lon="8.2245280">
        <ele>390.2</ele>
        <time>2022-06-06T06:00:18Z</time>
      </trkpt>
      <trkpt lat="48.1292630" lon="8.2246100">
        <ele>391.4</ele>
        <time>2022-06-06T06:00:22Z</time>
      </trkpt>
      <trkpt lat="48.1291750" lon="8.2246560">
        <ele>391.4</ele>
        <time>2022-06-06T06:00:26Z</time>
      </trkpt>
      <trkpt lat="48.1290850" lon="8.2246800">
        <ele>393.0</ele>
        <time>2022-06-06T06:00:30Z</time>
      </trkpt>
      <trkpt lat="48.1290010" lon="8.2247030">
        <ele>393.4</ele>
        <time>2022-06-06T06:00:34Z</time>
      </trkpt>
      <trkpt lat="48.1289180" lon="8.2247030">
        <ele>394.2</ele>
        <time>2022-06-06T06:00:38Z</time>
      </trkpt>
      <trkpt lat="48.1288300" lon="8.2247030">
        <ele>394.8</ele>
        <time>2022-06-06T06:00:42Z</time>
      </trkpt>
      <trkpt lat="48.1287500" lon="8.2247080">
        <ele>395.8</ele>
        <time>2022-06-06T06:00:46Z</time>
      </trkpt>
      <trkpt lat="48.1286660" lon="8.2247110">
        <ele>396.4</ele>
        <time>2022-06-06T06:00:50Z</time>
      </trkpt>
      <trkpt lat="48.1285950" lon="8.2247130">
        <ele>396.4</ele>
        <time>2022-06-06T06:00:54Z</time>
      </trkpt>
      <trkpt lat="48.1285150" lon="8.2247260">
        <ele>397.4</ele>
        <time>2022-06-06T06:00:58Z</time>
      </trkpt>
      <trkpt lat="48.1284310" lon="8.2247410">
        <ele>398.8</ele>
        <time>2022-06-06T06:01:02Z</time>
      </trkpt>
      <trkpt lat="48.1283280" lon="8.2247460">
        <ele>399.6</ele>
        <time>2022-06-06T06:01:06Z</time>
      </trkpt>
      <trkpt lat="48.1282330" lon="8.2247400">
        <ele>400.4</ele>
        <time>2022-06-06T06:01:10Z</time>
      </trkpt>
      <trkpt lat="48.1281450" lon="8.2247580">
        <ele>401.4</ele>
        <time>2022-06-06T06:01:14Z</time>
      </trkpt>
      <trkpt lat="48.1280650" lon="8.2247850">
        <ele>402.2</ele>
        <time>2022-06-06T06:01:18Z</time>
      </trkpt>
      <trkpt lat="48.1279850" lon="8.2248100">
        <ele>403.0</ele>
        <time>2022-06-06T06:01:22Z</time>
      </trkpt>
      <trkpt lat="48.1279010" lon="8.2248400">
        <ele>403.8</ele>
        <time>2022-06-06T06:01:26Z</time>
      </trkpt>
      <trkpt lat="48.1278280" lon="8.2248580">
        <ele>404.2</ele>
        <time>2022-06-06T06:01:30Z</time>
      </trkpt>
      <trkpt lat="48.1277480" lon="8.2248910">
        <ele>404.8</ele>
        <time>2022-06-06T06:01:34Z</time>
      </trkpt>
      <trkpt lat="48.1276700" lon="8.2249330">
        <ele>405.8</ele>
        <time>2022-06-06T06:01:38Z</time>
      </trkpt>
      <trkpt lat="48.1275850" lon="8.2249600">
        <ele>406.8</ele>
        <time>2022-06-06T06:01:42Z</time>
      </trkpt>
      <trkpt lat="48.1275010" lon="8.2249960">
        <ele>407.2</ele>
        <time>2022-06-06T06:01:46Z</time>
      </trkpt>
      <trkpt lat="48.1274160" lon="8.2250230">
        <ele>407.6</ele>
        <time>2022-06-06T06:01:50Z</time>
      </trkpt>
      <trkpt lat="48.1273260" lon="8.2250530">
        <ele>408.2</ele>
        <time>2022-06-06T06:01:54Z</time>
      </trkpt>
      <trkpt lat="48.1272430" lon="8.2250630">
        <ele>409.2</ele>
        <time>2022-06-06T06:01:58Z</time>
      </trkpt>
      <trkpt lat="48.1271550" lon="8.2250760">
        <ele>409.2</ele>
        <time>2022-06-06T06:02:02Z</time>
      </trkpt>
      <trkpt lat="48.1270700" lon="8.2250600">
        <ele>410.4</ele>
        <time>2022-06-06T06:02:06Z</time>
      </trkpt>
      <trkpt lat="48.1269880" lon="8.2250450">
        <ele>411.6</ele>
        <time>2022-06-06T06:02:10Z</time>
      </trkpt>
      <trkpt lat="48.1269110" lon="8.2250200">
        <ele>412.0</ele>
        <time>2022-06-06T06:02:14Z</time>
      </trkpt>
      <trkpt lat="48.1268300" lon="8.2249780">
        <ele>412.2</ele>
        <time>2022-06-06T06:02:18Z</time>
      </trkpt>
      <trkpt lat="48.1267500" lon="8.2249330">
        <ele>413.4</ele>
        <time>2022-06-06T06:02:22Z</time>
      </trkpt>
      <trkpt lat="48.1266830" lon="8.2248730">
        <ele>413.8</ele>
        <time>2022-06-06T06:02:26Z</time>
      </trkpt>
      <trkpt lat="48.1266310" lon="8.2247860">
        <ele>414.8</ele>
        <time>2022-06-06T06:02:30Z</time>
      </trkpt>
      <trkpt lat="48.1265580" lon="8.2247060">
        <ele>415.4</ele>
        <time>2022-06-06T06:02:34Z</time>
      </trkpt>
      <trkpt lat="48.1264960" lon="8.2246080">
        <ele>416.0</ele>
        <time>2022-06-06T06:02:38Z</time>
      </trkpt>
      <trkpt lat="48.1264210" lon="8.2245260">
        <ele>416.6</ele>
        <time>2022-06-06T06:02:42Z</time>
      </trkpt>
      <trkpt lat="48.1263530" lon="8.2244330">
        <ele>417.4</ele>
        <time>2022-06-06T06:02:46Z</time>
      </trkpt>
      <trkpt lat="48.1262860" lon="8.2243380">
        <ele>418.2</ele>
        <time>2022-06-06T06:02:50Z</time>
      </trkpt>
      <trkpt lat="48.1262130" lon="8.2242510">
        <ele>418.2</ele>
        <time>2022-06-06T06:02:54Z</time>
      </trkpt>
      <trkpt lat="48.1261460" lon="8.2241630">
        <ele>419.4</ele>
        <time>2022-06-06T06:02:58Z</time>
      </trkpt>
      <trkpt lat="48.1260800" lon="8.2240730">
        <ele>419.8</ele>
        <time>2022-06-06T06:03:02Z</time>
      </trkpt>
      <trkpt lat="48.1260000" lon="8.2239950">
        <ele>420.8</ele>
        <time>2022-06-06T06:03:06Z</time>
      </trkpt>
      <trkpt lat="48.1259210" lon="8.2239150">
        <ele>421.4</ele>
        <time>2022-06-06T06:03:10Z</time>
      </trkpt>
      <trkpt lat="48.1258430" lon="8.2238550">
        <ele>422.0</ele>
        <time>2022-06-06T06:03:14Z</time>
      </trkpt>
      <trkpt lat="48.1257710" lon="8.2237830">
        <ele>422.6</ele>
        <time>2022-06-06T06:03:18Z</time>
      </trkpt>
      <trkpt lat="48.1257130" lon="8.2237100">
        <ele>423.0</ele>
        <time>2022-06-06T06:03:22Z</time>
      </trkpt>
      <trkpt lat="48.1256450" lon="8.2236430">
        <ele>423.6</ele>
        <time>2022-06-06T06:03:26Z</time>
      </trkpt>
      <trkpt lat="48.1255760" lon="8.2235760">
        <ele>424.8</ele>
        <time>2022-06-06T06:03:30Z</time>
      </trkpt>
      <trkpt lat="48.1255050" lon="8.2235210">
        <ele>425.2</ele>
        <time>2022-06-06T06:03:34Z</time>
      </trkpt>
      <trkpt lat="48.1254230" lon="8.2234700">
        <ele>426.0</ele>
        <time>2022-06-06T06:03:38Z</time>
      </trkpt>
      <trkpt lat="48.1253480" lon="8.2234180">
        <ele>426.6</ele>
        <time>2022-06-06T06:03:42Z</time>
      </trkpt>
      <trkpt lat="48.1252860" lon="8.2233600">
        <ele>427.6</ele>
        <time>2022-06-06T06:03:46Z</time>
      </trkpt>
      <trkpt lat="48.1252110" lon="8.2232960">
        <ele>428.2</ele>
        <time>2022-06-06T06:03:50Z</time>
      </trkpt>
      <trkpt lat="48.1251430" lon="8.2232380">
        <ele>429.4</ele>
        <time>2022-06-06T06:03:54Z</time>
      </trkpt>
      <trkpt lat="48.1250710" lon="8.2231900">
        <ele>429.4</ele>
        <time>2022-06-06T06:03:58Z</time>
      </trkpt>
      <trkpt lat="48.1249600" lon="8.2231600">
        <ele>430.4</ele>
        <time>2022-06-06T06:04:02Z</time>
      </trkpt>
      <trkpt lat="48.1248580" lon="8.2231130">
        <ele>431.2</ele>
        <time>2022-06-06T06:04:06Z</time>
      </trkpt>
      <trkpt lat="48.1247600" lon="8.2230780">
        <ele>432.0</ele>
        <time>2022-06-06T06:04:10Z</time>
      </trkpt>
      <trkpt lat="48.1246700" lon="8.2230500">
        <ele>433.6</ele>
        <time>2022-06-06T06:04:14Z</time>
      </trkpt>
      <trkpt lat="48.1245910" lon="8.2230200">
        <ele>433.8</ele>
        <time>2022-06-06T06:04:18Z</time>
      </trkpt>
      <trkpt lat="48.1245110" lon="8.2229930">
        <ele>434.4</ele>
        <time>2022-06-06T06:04:22Z</time>
      </trkpt>
      <trkpt lat="48.1244480" lon="8.2229580">
        <ele>436.2</ele>
        <time>2022-06-06T06:04:26Z</time>
      </trkpt>
      <trkpt lat="48.1243680" lon="8.2229160">
        <ele>437.0</ele>
        <time>2022-06-06T06:04:30Z</time>
      </trkpt>
      <trkpt lat="48.1242850" lon="8.2228660">
        <ele>438.6</ele>
        <time>2022-06-06T06:04:34Z</time>
      </trkpt>
      <trkpt lat="48.1242110" lon="8.2228050">
        <ele>438.8</ele>
        <time>2022-06-06T06:04:38Z</time>
      </trkpt>
      <trkpt lat="48.1241480" lon="8.2227150">
        <ele>440.6</ele>
        <time>2022-06-06T06:04:42Z</time>
      </trkpt>
      <trkpt lat="48.1240760" lon="8.2226380">
        <ele>441.6</ele>
        <time>2022-06-06T06:04:46Z</time>
      </trkpt>
      <trkpt lat="48.1240130" lon="8.2225500">
        <ele>442.2</ele>
        <time>2022-06-06T06:04:50Z</time>
      </trkpt>
      <trkpt lat="48.1239430" lon="8.2224600">
        <ele>443.4</ele>
        <time>2022-06-06T06:04:54Z</time>
      </trkpt>
      <trkpt lat="48.1238780" lon="8.2223630">
        <ele>444.8</ele>
        <time>2022-06-06T06:04:58Z</time>
      </trkpt>
      <trkpt lat="48.1238130" lon="8.2222810">
        <ele>445.8</ele>
        <time>2022-06-06T06:05:02Z</time>
      </trkpt>
      <trkpt lat="48.1237280" lon="8.2221750">
        <ele>446.8</ele>
        <time>2022-06-06T06:05:06Z</time>
      </trkpt>
      <trkpt lat="48.1236460" lon="8.2220960">
        <ele>446.8</ele>
        <time>2022-06-06T06:05:10Z</time>
      </trkpt>
      <trkpt lat="48.1235650" lon="8.2220260">
        <ele>448.0</ele>
        <time>2022-06-06T06:05:14Z</time>
      </trkpt>
      <trkpt lat="48.1234800" lon="8.2219380">
        <ele>448.4</ele>
        <time>2022-06-06T06:05:18Z</time>
      </trkpt>
      <trkpt lat="48.1233930" lon="8.2218680">
        <ele>449.2</ele>
        <time>2022-06-06T06:05:22Z</time>
      </trkpt>
      <trkpt lat="48.1232960" lon="8.2217680">
        <ele>449.4</ele>
        <time>2022-06-06T06:05:26Z</time>
      </trkpt>
      <trkpt lat="48.1231780" lon="8.2217060">
        <ele>450.6</ele>
        <time>2022-06-06T06:05:30Z</time>
      </trkpt>
      <trkpt lat="48.1230610" lon="8.2216580">
        <ele>450.4</ele>
        <time>2022-06-06T06:05:34Z</time>
      </trkpt>
      <trkpt lat="48.1229480" lon="8.2215800">
        <ele>450.6</ele>
        <time>2022-06-06T06:05:38Z</time>
      </trkpt>
      <trkpt lat="48.1228200" lon="8.2215030">
        <ele>451.4</ele>
        <time>2022-06-06T06:05:42Z</time>
      </trkpt>
      <trkpt lat="48.1226910" lon="8.2214250">
        <ele>452.2</ele>
        <time>2022-06-06T06:05:46Z</time>
      </trkpt>
      <trkpt lat="48.1225600" lon="8.2213500">
        <ele>452.2</ele>
        <time>2022-06-06T06:05:50Z</time>
      </trkpt>
      <trkpt lat="48.1224330" lon="8.2212710">
        <ele>452.8</ele>
        <time>2022-06-06T06:05:54Z</time>
      </trkpt>
      <trkpt lat="48.1223060" lon="8.2211830">
        <ele>453.4</ele>
        <time>2022-06-06T06:05:58Z</time>
      </trkpt>
      <trkpt lat="48.1221650" lon="8.2210950">
        <ele>453.8</ele>
        <time>2022-06-06T06:06:02Z</time>
      </trkpt>
      <trkpt lat="48.1220110" lon="8.2209930">
        <ele>453.6</ele>
        <time>2022-06-06T06:06:06Z</time>
      </trkpt>
      <trkpt lat="48.1218600" lon="8.2208850">
        <ele>455.4</ele>
        <time>2022-06-06T06:06:10Z</time>
      </trkpt>
      <trkpt lat="48.1217180" lon="8.2208060">
        <ele>455.8</ele>
        <time>2022-06-06T06:06:14Z</time>
      </trkpt>
      <trkpt lat="48.1215860" lon="8.2207160">
        <ele>455.6</ele>
        <time>2022-06-06T06:06:18Z</time>
      </trkpt>
      <trkpt lat="48.1214550" lon="8.2206010">
        <ele>456.0</ele>
        <time>2022-06-06T06:06:22Z</time>
      </trkpt>
      <trkpt lat="48.1213350" lon="8.2204960">
        <ele>456.6</ele>
        <time>2022-06-06T06:06:26Z</time>
      </trkpt>
      <trkpt lat="48.1212180" lon="8.2203680">
        <ele>457.6</ele>
        <time>2022-06-06T06:06:30Z</time>
      </trkpt>
      <trkpt lat="48.1211130" lon="8.2202230">
        <ele>457.8</ele>
        <time>2022-06-06T06:06:34Z</time>
      </trkpt>
      <trkpt lat="48.1210100" lon="8.2200730">
        <ele>458.6</ele>
        <time>2022-06-06T06:06:38Z</time>
      </trkpt>
      <trkpt lat="48.1209080" lon="8.2199080">
        <ele>459.2</ele>
        <time>2022-06-06T06:06:42Z</time>
      </trkpt>
      <trkpt lat="48.1208080" lon="8.2197450">
        <ele>460.4</ele>
        <time>2022-06-06T06:06:46Z</time>
      </trkpt>
      <trkpt lat="48.1207150" lon="8.2195860">
        <ele>460.8</ele>
        <time>2022-06-06T06:06:50Z</time>
      </trkpt>
      <trkpt lat="48.1206210" lon="8.2194450">
        <ele>461.4</ele>
        <time>2022-06-06T06:06:54Z</time>
      </trkpt>
      <trkpt lat="48.1205360" lon="8.2192910">
        <ele>461.4</ele>
        <time>2022-06-06T06:06:58Z</time>
      </trkpt>
      <trkpt lat="48.1204500" lon="8.2191430">
        <ele>462.2</ele>
        <time>2022-06-06T06:07:02Z</time>
      </trkpt>
      <trkpt lat="48.1203660" lon="8.2189700">
        <ele>462.4</ele>
        <time>2022-06-06T06:07:06Z</time>
      </trkpt>
      <trkpt lat="48.1202630" lon="8.2188180">
        <ele>462.8</ele>
        <time>2022-06-06T06:07:10Z</time>
      </trkpt>
      <trkpt lat="48.1201600" lon="8.2186750">
        <ele>463.0</ele>
        <time>2022-06-06T06:07:14Z</time>
      </trkpt>
      <trkpt lat="48.1200560" lon="8.2185260">
        <ele>463.6</ele>
        <time>2022-06-06T06:07:18Z</time>
      </trkpt>
      <trkpt lat="48.1199580" lon="8.2183650">
        <ele>464.6</ele>
        <time>2022-06-06T06:07:22Z</time>
      </trkpt>
      <trkpt lat="48.1198680" lon="8.2181950">
        <ele>465.8</ele>
        <time>2022-06-06T06:07:26Z</time>
      </trkpt>
      <trkpt lat="48.1198030" lon="8.2180080">
        <ele>466.8</ele>
        <time>2022-06-06T06:07:30Z</time>
      </trkpt>
      <trkpt lat="48.1197600" lon="8.2178050">
        <ele>467.4</ele>
        <time>2022-06-06T06:07:34Z</time>
      </trkpt>
      <trkpt lat="48.1197250" lon="8.2175850">
        <ele>468.0</ele>
        <time>2022-06-06T06:07:38Z</time>
      </trkpt>
      <trkpt lat="48.1196950" lon="8.2173680">
        <ele>469.0</ele>
        <time>2022-06-06T06:07:42Z</time>
      </trkpt>
      <trkpt lat="48.1196950" lon="8.2171510">
        <ele>470.2</ele>
        <time>2022-06-06T06:07:46Z</time>
      </trkpt>
      <trkpt lat="48.1196910" lon="8.2169460">
        <ele>470.4</ele>
        <time>2022-06-06T06:07:50Z</time>
      </trkpt>
      <trkpt lat="48.1196600" lon="8.2167480">
        <ele>471.2</ele>
        <time>2022-06-06T06:07:54Z</time>
      </trkpt>
      <trkpt lat="48.1196280" lon="8.2165530">
        <ele>472.2</ele>
        <time>2022-06-06T06:07:58Z</time>
      </trkpt>
      <trkpt lat="48.1195880" lon="8.2163600">
        <ele>472.4</ele>
        <time>2022-06-06T06:08:02Z</time>
      </trkpt>
      <trkpt lat="48.1195460" lon="8.2161680">
        <ele>473.0</ele>
        <time>2022-06-06T06:08:06Z</time>
      </trkpt>
      <trkpt lat="48.1195000" lon="8.2159710">
        <ele>473.0</ele>
        <time>2022-06-06T06:08:10Z</time>
      </trkpt>
      <trkpt lat="48.1194600" lon="8.2157710">
        <ele>473.8</ele>
        <time>2022-06-06T06:08:14Z</time>
      </trkpt>
      <trkpt lat="48.1194100" lon="8.2155700">
        <ele>474.2</ele>
        <time>2022-06-06T06:08:18Z</time>
      </trkpt>
      <trkpt lat="48.1193630" lon="8.2153760">
        <ele>475.0</ele>
        <time>2022-06-06T06:08:22Z</time>
      </trkpt>
      <trkpt lat="48.1193150" lon="8.2151900">
        <ele>474.8</ele>
        <time>2022-06-06T06:08:26Z</time>
      </trkpt>
      <trkpt lat="48.1192600" lon="8.2150000">
        <ele>475.4</ele>
        <time>2022-06-06T06:08:30Z</time>
      </trkpt>
      <trkpt lat="48.1192080" lon="8.2148000">
        <ele>476.2</ele>
        <time>2022-06-06T06:08:34Z</time>
      </trkpt>
      <trkpt lat="48.1191410" lon="8.2146080">
        <ele>476.8</ele>
        <time>2022-06-06T06:08:38Z</time>
      </trkpt>
      <trkpt lat="48.1190810" lon="8.2144380">
        <ele>477.2</ele>
        <time>2022-06-06T06:08:42Z</time>
      </trkpt>
      <trkpt lat="48.1190050" lon="8.2142860">
        <ele>477.6</ele>
        <time>2022-06-06T06:08:46Z</time>
      </trkpt>
      <trkpt lat="48.1189250" lon="8.2141280">
        <ele>478.8</ele>
        <time>2022-06-06T06:08:50Z</time>
      </trkpt>
      <trkpt lat="48.1188480" lon="8.2139600">
        <ele>479.4</ele>
        <time>2022-06-06T06:08:54Z</time>
      </trkpt>
      <trkpt lat="48.1187730" lon="8.2137900">
        <ele>479.6</ele>
        <time>2022-06-06T06:08:58Z</time>
      </trkpt>
      <trkpt lat="48.1187000" lon="8.2136210">
        <ele>479.4</ele>
        <time>2022-06-06T06:09:02Z</time>
      </trkpt>
      <trkpt lat="48.1186210" lon="8.2134750">
        <ele>479.6</ele>
        <time>2022-06-06T06:09:06Z</time>
      </trkpt>
      <trkpt lat="48.1185510" lon="8.2133200">
        <ele>480.0</ele>
        <time>2022-06-06T06:09:10Z</time>
      </trkpt>
      <trkpt lat="48.1184560" lon="8.2131960">
        <ele>481.6</ele>
        <time>2022-06-06T06:09:14Z</time>
      </trkpt>
      <trkpt lat="48.1183710" lon="8.2130550">
        <ele>482.6</ele>
        <time>2022-06-06T06:09:18Z</time>
      </trkpt>
      <trkpt lat="48.1182850" lon="8.2129300">
        <ele>482.6</ele>
        <time>2022-06-06T06:09:22Z</time>
      </trkpt>
      <trkpt lat="48.1182100" lon="8.2128250">
        <ele>482.8</ele>
        <time>2022-06-06T06:09:26Z</time>
      </trkpt>
      <trkpt lat="48.1181350" lon="8.2127130">
        <ele>483.0</ele>
        <time>2022-06-06T06:09:30Z</time>
      </trkpt>
      <trkpt lat="48.1180560" lon="8.2126280">
        <ele>483.4</ele>
        <time>2022-06-06T06:09:34Z</time>
      </trkpt>
      <trkpt lat="48.1179950" lon="8.2125700">
        <ele>483.6</ele>
        <time>2022-06-06T06:09:38Z</time>
      </trkpt>
      <trkpt lat="48.1179380" lon="8.2125400">
        <ele>483.8</ele>
        <time>2022-06-06T06:09:42Z</time>
      </trkpt>
      <trkpt lat="48.1179380" lon="8.2125400">
        <ele>484.0</ele>
        <time>2022-06-06T06:09:46Z</time>
      </trkpt>
      <trkpt lat="48.1179380" lon="8.2125400">
        <ele>483.8</ele>
        <time>2022-06-06T06:09:50Z</time>
      </trkpt>
      <trkpt lat="48.1179080" lon="8.2125010">
        <ele>483.6</ele>
        <time>2022-06-06T06:09:54Z</time>
      </trkpt>
      <trkpt lat="48.1179400" lon="8.2125080">
        <ele>483.6</ele>
        <time>2022-06-06T06:09:58Z</time>
      </trkpt>
      <trkpt lat="48.1179860" lon="8.2125710">
        <ele>483.4</ele>
        <time>2022-06-06T06:10:02Z</time>
      </trkpt>
      <trkpt lat="48.1180480" lon="8.2126300">
        <ele>483.4</ele>
        <time>2022-06-06T06:10:06Z</time>
      </trkpt>
      <trkpt lat="48.1181160" lon="8.2126760">
        <ele>483.4</ele>
        <time>2022-06-06T06:10:10Z</time>
      </trkpt>
      <trkpt lat="48.1181030" lon="8.2127450">
        <ele>484.0</ele>
        <time>2022-06-06T06:10:14Z</time>
      </trkpt>
      <trkpt lat="48.1180160" lon="8.2126600">
        <ele>484.4</ele>
        <time>2022-06-06T06:10:18Z</time>
      </trkpt>
      <trkpt lat="48.1179200" lon="8.2125750">
        <ele>484.4</ele>
        <time>2022-06-06T06:10:22Z</time>
      </trkpt>
      <trkpt lat="48.1178200" lon="8.2125050">
        <ele>484.6</ele>
        <time>2022-06-06T06:10:26Z</time>
      </trkpt>
      <trkpt lat="48.1177280" lon="8.2124410">
        <ele>484.6</ele>
        <time>2022-06-06T06:10:30Z</time>
      </trkpt>
      <trkpt lat="48.1176480" lon="8.2123660">
        <ele>485.2</ele>
        <time>2022-06-06T06:10:34Z</time>
      </trkpt>
      <trkpt lat="48.1176250" lon="8.2122680">
        <ele>485.4</ele>
        <time>2022-06-06T06:10:38Z</time>
      </trkpt>
      <trkpt lat="48.1176330" lon="8.2121780">
        <ele>485.4</ele>
        <time>2022-06-06T06:10:42Z</time>
      </trkpt>
      <trkpt lat="48.1176330" lon="8.2121780">
        <ele>485.6</ele>
        <time>2022-06-06T06:10:46Z</time>
      </trkpt>
      <trkpt lat="48.1176330" lon="8.2121780">
        <ele>485.4</ele>
        <time>2022-06-06T06:10:50Z</time>
      </trkpt>
      <trkpt lat="48.1176430" lon="8.2121430">
        <ele>485.4</ele>
        <time>2022-06-06T06:10:54Z</time>
      </trkpt>
      <trkpt lat="48.1176430" lon="8.2121430">
        <ele>485.6</ele>
        <time>2022-06-06T06:10:58Z</time>
      </trkpt>
      <trkpt lat="48.1176430" lon="8.2121430">
        <ele>485.4</ele>
        <time>2022-06-06T06:11:02Z</time>
      </trkpt>
      <trkpt lat="48.1176430" lon="8.2121430">
        <ele>485.4</ele>
        <time>2022-06-06T06:11:06Z</time>
      </trkpt>
      <trkpt lat="48.1176430" lon="8.2121430">
        <ele>485.8</ele>
        <time>2022-06-06T06:11:10Z</time>
      </trkpt>
      <trkpt lat="48.1176430" lon="8.2121430">
        <ele>485.6</ele>
        <time>2022-06-06T06:11:14Z</time>
      </trkpt>
      <trkpt lat="48.1176430" lon="8.2121430">
        <ele>485.8</ele>
        <time>2022-06-06T06:11:18Z</time>
      </trkpt>
      <trkpt lat="48.1176430" lon="8.2121430">
        <ele>485.4</ele>
        <time>2022-06-06T06:11:22Z</time>
      </trkpt>
      <trkpt lat="48.1176430" lon="8.2121430">
        <ele>485.6</ele>
        <time>2022-06-06T06:11:26Z</time>
      </trkpt>
      <trkpt lat="48.1176430" lon="8.2121430">
        <ele>485.0</ele>
        <time>2022-06-06T06:11:30Z</time>
      </trkpt>
      <trkpt lat="48.1176430" lon="8.2121430">
        <ele>485.0</ele>
        <time>2022-06-06T06:11:34Z</time>
      </trkpt>
      <trkpt lat="48.1176430" lon="8.2121430">
        <ele>485.0</ele>
        <time>2022-06-06T06:11:38Z</time>
      </trkpt>
      <trkpt lat="48.1176430" lon="8.2121430">
        <ele>485.0</ele>
        <time>2022-06-06T06:11:42Z</time>
      </trkpt>
      <trkpt lat="48.1176430" lon="8.2121430">
        <ele>485.2</ele>
        <time>2022-06-06T06:11:46Z</time>
      </trkpt>
      <trkpt lat="48.1176430" lon="8.2121430">
        <ele>485.4</ele>
        <time>2022-06-06T06:11:50Z</time>
      </trkpt>
      <trkpt lat="48.1176430" lon="8.2121430">
        <ele>485.2</ele>
        <time>2022-06-06T06:11:54Z</time>
      </trkpt>
      <trkpt lat="48.1176430" lon="8.2121430">
        <ele>485.0</ele>
        <time>2022-06-06T06:11:58Z</time>
      </trkpt>
      <trkpt lat="48.1176430" lon="8.2121430">
        <ele>485.0</ele>
        <time>2022-06-06T06:12:02Z</time>
      </trkpt>
      <trkpt lat="48.1176430" lon="8.2121430">
        <ele>485.2</ele>
        <time>2022-06-06T06:12:06Z</time>
      </trkpt>
      <trkpt lat="48.1176430" lon="8.2121430">
        <ele>485.0</ele>
        <time>2022-06-06T06:12:10Z</time>
      </trkpt>
      <trkpt lat="48.1176430" lon="8.2121430">
        <ele>485.2</ele>
        <time>2022-06-06T06:12:14Z</time>
      </trkpt>
      <trkpt lat="48.1176430" lon="8.2121430">
        <ele>484.8</ele>
        <time>2022-06-06T06:12:18Z</time>
      </trkpt>
      <trkpt lat="48.1176430" lon="8.2121430">
        <ele>484.8</ele>
        <time>2022-06-06T06:12:22Z</time>
      </trkpt>
      <trkpt lat="48.1176430" lon="8.2121430">
        <ele>485.2</ele>
        <time>2022-06-06T06:12:26Z</time>
      </trkpt>
      <trkpt lat="48.1176430" lon="8.2121430">
        <ele>484.6</ele>
        <time>2022-06-06T06:12:30Z</time>
      </trkpt>
      <trkpt lat="48.1176350" lon="8.2121250">
        <ele>485.0</ele>
        <time>2022-06-06T06:12:34Z</time>
      </trkpt>
      <trkpt lat="48.1176410" lon="8.2120280">
        <ele>485.0</ele>
        <time>2022-06-06T06:12:38Z</time>
      </trkpt>
      <trkpt lat="48.1176910" lon="8.2118650">
        <ele>485.4</ele>
        <time>2022-06-06T06:12:42Z</time>
      </trkpt>
      <trkpt lat="48.1177300" lon="8.2116780">
        <ele>486.2</ele>
        <time>2022-06-06T06:12:46Z</time>
      </trkpt>
      <trkpt lat="48.1177550" lon="8.2114850">
        <ele>486.8</ele>
        <time>2022-06-06T06:12:50Z</time>
      </trkpt>
      <trkpt lat="48.1177810" lon="8.2113000">
        <ele>486.4</ele>
        <time>2022-06-06T06:12:54Z</time>
      </trkpt>
      <trkpt lat="48.1178000" lon="8.2111200">
        <ele>487.6</ele>
        <time>2022-06-06T06:12:58Z</time>
      </trkpt>
      <trkpt lat="48.1178180" lon="8.2109400">
        <ele>487.6</ele>
        <time>2022-06-06T06:13:02Z</time>
      </trkpt>
      <trkpt lat="48.1178350" lon="8.2107680">
        <ele>488.0</ele>
        <time>2022-06-06T06:13:06Z</time>
      </trkpt>
      <trkpt lat="48.1178530" lon="8.2105950">
        <ele>488.6</ele>
        <time>2022-06-06T06:13:10Z</time>
      </trkpt>
      <trkpt lat="48.1178760" lon="8.2104150">
        <ele>488.6</ele>
        <time>2022-06-06T06:13:14Z</time>
      </trkpt>
      <trkpt lat="48.1178950" lon="8.2102350">
        <ele>488.8</ele>
        <time>2022-06-06T06:13:18Z</time>
      </trkpt>
      <trkpt lat="48.1179210" lon="8.2100550">
        <ele>489.2</ele>
        <time>2022-06-06T06:13:22Z</time>
      </trkpt>
      <trkpt lat="48.1179430" lon="8.2098660">
        <ele>489.4</ele>
        <time>2022-06-06T06:13:26Z</time>
      </trkpt>
      <trkpt lat="48.1179700" lon="8.2096850">
        <ele>489.8</ele>
        <time>2022-06-06T06:13:30Z</time>
      </trkpt>
      <trkpt lat="48.1179980" lon="8.2094980">
        <ele>489.6</ele>
        <time>2022-06-06T06:13:34Z</time>
      </trkpt>
      <trkpt lat="48.1180310" lon="8.2093050">
        <ele>490.0</ele>
        <time>2022-06-06T06:13:38Z</time>
      </trkpt>
      <trkpt lat="48.1180700" lon="8.2091010">
        <ele>489.8</ele>
        <time>2022-06-06T06:13:42Z</time>
      </trkpt>
      <trkpt lat="48.1181060" lon="8.2088910">
        <ele>490.0</ele>
        <time>2022-06-06T06:13:46Z</time>
      </trkpt>
      <trkpt lat="48.1181530" lon="8.2086860">
        <ele>489.8</ele>
        <time>2022-06-06T06:13:50Z</time>
      </trkpt>
      <trkpt lat="48.1182000" lon="8.2084780">
        <ele>490.2</ele>
        <time>2022-06-06T06:13:54Z</time>
      </trkpt>
      <trkpt lat="48.1182500" lon="8.2082660">
        <ele>489.4</ele>
        <time>2022-06-06T06:13:58Z</time>
      </trkpt>
      <trkpt lat="48.1183150" lon="8.2080610">
        <ele>489.8</ele>
        <time>2022-06-06T06:14:02Z</time>
      </trkpt>
      <trkpt lat="48.1183910" lon="8.2078580">
        <ele>489.8</ele>
        <time>2022-06-06T06:14:06Z</time>
      </trkpt>
      <trkpt lat="48.1184700" lon="8.2076580">
        <ele>489.8</ele>
        <time>2022-06-06T06:14:10Z</time>
      </trkpt>
      <trkpt lat="48.1185510" lon="8.2074650">
        <ele>489.6</ele>
        <time>2022-06-06T06:14:14Z</time>
      </trkpt>
      <trkpt lat="48.1186280" lon="8.2072680">
        <ele>489.6</ele>
        <time>2022-06-06T06:14:18Z</time>
      </trkpt>
      <trkpt lat="48.1186960" lon="8.2070700">
        <ele>489.6</ele>
        <time>2022-06-06T06:14:22Z</time>
      </trkpt>
      <trkpt lat="48.1187630" lon="8.2068660">
        <ele>489.8</ele>
        <time>2022-06-06T06:14:26Z</time>
      </trkpt>
      <trkpt lat="48.1188160" lon="8.2066560">
        <ele>489.8</ele>
        <time>2022-06-06T06:14:30Z</time>
      </trkpt>
      <trkpt lat="48.1188580" lon="8.2064430">
        <ele>489.8</ele>
        <time>2022-06-06T06:14:34Z</time>
      </trkpt>
      <trkpt lat="48.1188860" lon="8.2062250">
        <ele>490.6</ele>
        <time>2022-06-06T06:14:38Z</time>
      </trkpt>
      <trkpt lat="48.1189010" lon="8.2060110">
        <ele>490.4</ele>
        <time>2022-06-06T06:14:42Z</time>
      </trkpt>
      <trkpt lat="48.1189100" lon="8.2058010">
        <ele>491.2</ele>
        <time>2022-06-06T06:14:46Z</time>
      </trkpt>
      <trkpt lat="48.1189030" lon="8.2056000">
        <ele>491.4</ele>
        <time>2022-06-06T06:14:50Z</time>
      </trkpt>
      <trkpt lat="48.1188980" lon="8.2054030">
        <ele>492.2</ele>
        <time>2022-06-06T06:14:54Z</time>
      </trkpt>
      <trkpt lat="48.1188860" lon="8.2052130">
        <ele>492.2</ele>
        <time>2022-06-06T06:14:58Z</time>
      </trkpt>
      <trkpt lat="48.1188780" lon="8.2050280">
        <ele>493.0</ele>
        <time>2022-06-06T06:15:02Z</time>
      </trkpt>
      <trkpt lat="48.1188600" lon="8.2048480">
        <ele>493.2</ele>
        <time>2022-06-06T06:15:06Z</time>
      </trkpt>
      <trkpt lat="48.1188430" lon="8.2046610">
        <ele>494.0</ele>
        <time>2022-06-06T06:15:10Z</time>
      </trkpt>
      <trkpt lat="48.1188330" lon="8.2044750">
        <ele>494.2</ele>
        <time>2022-06-06T06:15:14Z</time>
      </trkpt>
      <trkpt lat="48.1188210" lon="8.2042930">
        <ele>494.8</ele>
        <time>2022-06-06T06:15:18Z</time>
      </trkpt>
      <trkpt lat="48.1188080" lon="8.2041130">
        <ele>495.4</ele>
        <time>2022-06-06T06:15:22Z</time>
      </trkpt>
      <trkpt lat="48.1187950" lon="8.2039360">
        <ele>495.4</ele>
        <time>2022-06-06T06:15:26Z</time>
      </trkpt>
      <trkpt lat="48.1187800" lon="8.2037630">
        <ele>496.6</ele>
        <time>2022-06-06T06:15:30Z</time>
      </trkpt>
      <trkpt lat="48.1187700" lon="8.2035900">
        <ele>496.8</ele>
        <time>2022-06-06T06:15:34Z</time>
      </trkpt>
      <trkpt lat="48.1187530" lon="8.2034280">
        <ele>496.6</ele>
        <time>2022-06-06T06:15:38Z</time>
      </trkpt>
      <trkpt lat="48.1187700" lon="8.2032560">
        <ele>497.0</ele>
        <time>2022-06-06T06:15:42Z</time>
      </trkpt>
      <trkpt lat="48.1187850" lon="8.2030830">
        <ele>498.0</ele>
        <time>2022-06-06T06:15:46Z</time>
      </trkpt>
      <trkpt lat="48.1188150" lon="8.2029110">
        <ele>497.8</ele>
        <time>2022-06-06T06:15:50Z</time>
      </trkpt>
      <trkpt lat="48.1188480" lon="8.2027410">
        <ele>497.8</ele>
        <time>2022-06-06T06:15:54Z</time>
      </trkpt>
      <trkpt lat="48.1188930" lon="8.2025710">
        <ele>498.8</ele>
        <time>2022-06-06T06:15:58Z</time>
      </trkpt>
      <trkpt lat="48.1189400" lon="8.2024010">
        <ele>499.2</ele>
        <time>2022-06-06T06:16:02Z</time>
      </trkpt>
      <trkpt lat="48.1189910" lon="8.2022330">
        <ele>499.6</ele>
        <time>2022-06-06T06:16:06Z</time>
      </trkpt>
      <trkpt lat="48.1190450" lon="8.2020630">
        <ele>499.4</ele>
        <time>2022-06-06T06:16:10Z</time>
      </trkpt>
      <trkpt lat="48.1190950" lon="8.2018900">
        <ele>499.2</ele>
        <time>2022-06-06T06:16:14Z</time>
      </trkpt>
      <trkpt lat="48.1191460" lon="8.2017150">
        <ele>500.2</ele>
        <time>2022-06-06T06:16:18Z</time>
      </trkpt>
      <trkpt lat="48.1192010" lon="8.2015400">
        <ele>500.0</ele>
        <time>2022-06-06T06:16:22Z</time>
      </trkpt>
      <trkpt lat="48.1192530" lon="8.2013630">
        <ele>500.4</ele>
        <time>2022-06-06T06:16:26Z</time>
      </trkpt>
      <trkpt lat="48.1193050" lon="8.2011860">
        <ele>500.8</ele>
        <time>2022-06-06T06:16:30Z</time>
      </trkpt>
      <trkpt lat="48.1193530" lon="8.2010050">
        <ele>500.8</ele>
        <time>2022-06-06T06:16:34Z</time>
      </trkpt>
      <trkpt lat="48.1194050" lon="8.2008230">
        <ele>501.2</ele>
        <time>2022-06-06T06:16:38Z</time>
      </trkpt>
      <trkpt lat="48.1194560" lon="8.2006450">
        <ele>501.2</ele>
        <time>2022-06-06T06:16:42Z</time>
      </trkpt>
      <trkpt lat="48.1195080" lon="8.2004630">
        <ele>501.4</ele>
        <time>2022-06-06T06:16:46Z</time>
      </trkpt>
      <trkpt lat="48.1195610" lon="8.2002810">
        <ele>502.0</ele>
        <time>2022-06-06T06:16:50Z</time>
      </trkpt>
      <trkpt lat="48.1196150" lon="8.2000960">
        <ele>501.8</ele>
        <time>2022-06-06T06:16:54Z</time>
      </trkpt>
      <trkpt lat="48.1196630" lon="8.1999150">
        <ele>502.2</ele>
        <time>2022-06-06T06:16:58Z</time>
      </trkpt>
      <trkpt lat="48.1196980" lon="8.1997430">
        <ele>502.0</ele>
        <time>2022-06-06T06:17:02Z</time>
      </trkpt>
      <trkpt lat="48.1197260" lon="8.1995700">
        <ele>502.4</ele>
        <time>2022-06-06T06:17:06Z</time>
      </trkpt>
      <trkpt lat="48.1197450" lon="8.1993880">
        <ele>501.6</ele>
        <time>2022-06-06T06:17:10Z</time>
      </trkpt>
      <trkpt lat="48.1197350" lon="8.1991760">
        <ele>501.6</ele>
        <time>2022-06-06T06:17:14Z</time>
      </trkpt>
      <trkpt lat="48.1196900" lon="8.1989350">
        <ele>499.8</ele>
        <time>2022-06-06T06:17:18Z</time>
      </trkpt>
      <trkpt lat="48.1195930" lon="8.1986610">
        <ele>499.0</ele>
        <time>2022-06-06T06:17:22Z</time>
      </trkpt>
      <trkpt lat="48.1194010" lon="8.1983910">
        <ele>497.4</ele>
        <time>2022-06-06T06:17:26Z</time>
      </trkpt>
      <trkpt lat="48.1191510" lon="8.1981560">
        <ele>495.0</ele>
        <time>2022-06-06T06:17:30Z</time>
      </trkpt>
      <trkpt lat="48.1188880" lon="8.1979430">
        <ele>494.4</ele>
        <time>2022-06-06T06:17:34Z</time>
      </trkpt>
      <trkpt lat="48.1186480" lon="8.1977300">
        <ele>493.8</ele>
        <time>2022-06-06T06:17:38Z</time>
      </trkpt>
      <trkpt lat="48.1184380" lon="8.1975260">
        <ele>495.0</ele>
        <time>2022-06-06T06:17:42Z</time>
      </trkpt>
      <trkpt lat="48.1182630" lon="8.1973530">
        <ele>494.8</ele>
        <time>2022-06-06T06:17:46Z</time>
      </trkpt>
      <trkpt lat="48.1181160" lon="8.1972150">
        <ele>495.4</ele>
        <time>2022-06-06T06:17:50Z</time>
      </trkpt>
      <trkpt lat="48.1179910" lon="8.1970850">
        <ele>495.6</ele>
        <time>2022-06-06T06:17:54Z</time>
      </trkpt>
      <trkpt lat="48.1178850" lon="8.1969750">
        <ele>496.6</ele>
        <time>2022-06-06T06:17:58Z</time>
      </trkpt>
      <trkpt lat="48.1177880" lon="8.1969000">
        <ele>496.6</ele>
        <time>2022-06-06T06:18:02Z</time>
      </trkpt>
      <trkpt lat="48.1177130" lon="8.1968550">
        <ele>497.2</ele>
        <time>2022-06-06T06:18:06Z</time>
      </trkpt>
      <trkpt lat="48.1176410" lon="8.1968250">
        <ele>498.0</ele>
        <time>2022-06-06T06:18:10Z</time>
      </trkpt>
      <trkpt lat="48.1175710" lon="8.1968100">
        <ele>498.4</ele>
        <time>2022-06-06T06:18:14Z</time>
      </trkpt>
      <trkpt lat="48.1175000" lon="8.1968080">
        <ele>499.2</ele>
        <time>2022-06-06T06:18:18Z</time>
      </trkpt>
      <trkpt lat="48.1174300" lon="8.1968130">
        <ele>500.2</ele>
        <time>2022-06-06T06:18:22Z</time>
      </trkpt>
      <trkpt lat="48.1173650" lon="8.1968410">
        <ele>500.4</ele>
        <time>2022-06-06T06:18:26Z</time>
      </trkpt>
      <trkpt lat="48.1173010" lon="8.1968530">
        <ele>500.8</ele>
        <time>2022-06-06T06:18:30Z</time>
      </trkpt>
      <trkpt lat="48.1172430" lon="8.1969050">
        <ele>501.2</ele>
        <time>2022-06-06T06:18:34Z</time>
      </trkpt>
      <trkpt lat="48.1171810" lon="8.1969410">
        <ele>501.2</ele>
        <time>2022-06-06T06:18:38Z</time>
      </trkpt>
      <trkpt lat="48.1171260" lon="8.1969930">
        <ele>502.0</ele>
        <time>2022-06-06T06:18:42Z</time>
      </trkpt>
      <trkpt lat="48.1170710" lon="8.1970510">
        <ele>503.0</ele>
        <time>2022-06-06T06:18:46Z</time>
      </trkpt>
      <trkpt lat="48.1170260" lon="8.1971230">
        <ele>504.0</ele>
        <time>2022-06-06T06:18:50Z</time>
      </trkpt>
      <trkpt lat="48.1169780" lon="8.1971830">
        <ele>504.4</ele>
        <time>2022-06-06T06:18:54Z</time>
      </trkpt>
      <trkpt lat="48.1169360" lon="8.1972550">
        <ele>504.4</ele>
        <time>2022-06-06T06:18:58Z</time>
      </trkpt>
      <trkpt lat="48.1169000" lon="8.1973260">
        <ele>504.8</ele>
        <time>2022-06-06T06:19:02Z</time>
      </trkpt>
      <trkpt lat="48.1168730" lon="8.1974080">
        <ele>505.2</ele>
        <time>2022-06-06T06:19:06Z</time>
      </trkpt>
      <trkpt lat="48.1168360" lon="8.1974830">
        <ele>505.4</ele>
        <time>2022-06-06T06:19:10Z</time>
      </trkpt>
      <trkpt lat="48.1168080" lon="8.1975610">
        <ele>506.0</ele>
        <time>2022-06-06T06:19:14Z</time>
      </trkpt>
      <trkpt lat="48.1167800" lon="8.1976400">
        <ele>506.2</ele>
        <time>2022-06-06T06:19:18Z</time>
      </trkpt>
      <trkpt lat="48.1167410" lon="8.1977160">
        <ele>506.8</ele>
        <time>2022-06-06T06:19:22Z</time>
      </trkpt>
      <trkpt lat="48.1167030" lon="8.1978000">
        <ele>507.4</ele>
        <time>2022-06-06T06:19:26Z</time>
      </trkpt>
      <trkpt lat="48.1166630" lon="8.1978830">
        <ele>507.8</ele>
        <time>2022-06-06T06:19:30Z</time>
      </trkpt>
      <trkpt lat="48.1166300" lon="8.1979660">
        <ele>508.0</ele>
        <time>2022-06-06T06:19:34Z</time>
      </trkpt>
      <trkpt lat="48.1165760" lon="8.1980260">
        <ele>508.2</ele>
        <time>2022-06-06T06:19:38Z</time>
      </trkpt>
      <trkpt lat="48.1165060" lon="8.1980750">
        <ele>508.6</ele>
        <time>2022-06-06T06:19:42Z</time>
      </trkpt>
      <trkpt lat="48.1164450" lon="8.1981350">
        <ele>509.2</ele>
        <time>2022-06-06T06:19:46Z</time>
      </trkpt>
      <trkpt lat="48.1163750" lon="8.1981700">
        <ele>509.8</ele>
        <time>2022-06-06T06:19:50Z</time>
      </trkpt>
      <trkpt lat="48.1163060" lon="8.1981900">
        <ele>510.0</ele>
        <time>2022-06-06T06:19:54Z</time>
      </trkpt>
      <trkpt lat="48.1162410" lon="8.1981900">
        <ele>510.6</ele>
        <time>2022-06-06T06:19:58Z</time>
      </trkpt>
      <trkpt lat="48.1161660" lon="8.1981880">
        <ele>510.6</ele>
        <time>2022-06-06T06:20:02Z</time>
      </trkpt>
      <trkpt lat="48.1160760" lon="8.1981530">
        <ele>511.0</ele>
        <time>2022-06-06T06:20:06Z</time>
      </trkpt>
      <trkpt lat="48.1159910" lon="8.1981100">
        <ele>511.0</ele>
        <time>2022-06-06T06:20:10Z</time>
      </trkpt>
      <trkpt lat="48.1159030" lon="8.1980580">
        <ele>510.8</ele>
        <time>2022-06-06T06:20:14Z</time>
      </trkpt>
      <trkpt lat="48.1158000" lon="8.1979930">
        <ele>511.2</ele>
        <time>2022-06-06T06:20:18Z</time>
      </trkpt>
      <trkpt lat="48.1157000" lon="8.1979150">
        <ele>511.4</ele>
        <time>2022-06-06T06:20:22Z</time>
      </trkpt>
      <trkpt lat="48.1156400" lon="8.1978400">
        <ele>511.4</ele>
        <time>2022-06-06T06:20:26Z</time>
      </trkpt>
      <trkpt lat="48.1155530" lon="8.1977700">
        <ele>511.4</ele>
        <time>2022-06-06T06:20:30Z</time>
      </trkpt>
      <trkpt lat="48.1154450" lon="8.1976810">
        <ele>511.6</ele>
        <time>2022-06-06T06:20:34Z</time>
      </trkpt>
      <trkpt lat="48.1153460" lon="8.1975700">
        <ele>511.6</ele>
        <time>2022-06-06T06:20:38Z</time>
      </trkpt>
      <trkpt lat="48.1152460" lon="8.1974880">
        <ele>511.8</ele>
        <time>2022-06-06T06:20:42Z</time>
      </trkpt>
      <trkpt lat="48.1151700" lon="8.1974130">
        <ele>511.6</ele>
        <time>2022-06-06T06:20:46Z</time>
      </trkpt>
      <trkpt lat="48.1151000" lon="8.1973010">
        <ele>512.0</ele>
        <time>2022-06-06T06:20:50Z</time>
      </trkpt>
      <trkpt lat="48.1149930" lon="8.1972100">
        <ele>511.8</ele>
        <time>2022-06-06T06:20:54Z</time>
      </trkpt>
      <trkpt lat="48.1148850" lon="8.1971010">
        <ele>511.6</ele>
        <time>2022-06-06T06:20:58Z</time>
      </trkpt>
      <trkpt lat="48.1147750" lon="8.1969950">
        <ele>512.0</ele>
        <time>2022-06-06T06:21:02Z</time>
      </trkpt>
      <trkpt lat="48.1146630" lon="8.1968760">
        <ele>512.0</ele>
        <time>2022-06-06T06:21:06Z</time>
      </trkpt>
      <trkpt lat="48.1145550" lon="8.1967460">
        <ele>512.2</ele>
        <time>2022-06-06T06:21:10Z</time>
      </trkpt>
      <trkpt lat="48.1144480" lon="8.1966130">
        <ele>512.4</ele>
        <time>2022-06-06T06:21:14Z</time>
      </trkpt>
      <trkpt lat="48.1143510" lon="8.1964750">
        <ele>512.4</ele>
        <time>2022-06-06T06:21:18Z</time>
      </trkpt>
      <trkpt lat="48.1142560" lon="8.1963330">
        <ele>512.8</ele>
        <time>2022-06-06T06:21:22Z</time>
      </trkpt>
      <trkpt lat="48.1141660" lon="8.1962000">
        <ele>513.0</ele>
        <time>2022-06-06T06:21:26Z</time>
      </trkpt>
      <trkpt lat="48.1140810" lon="8.1960550">
        <ele>512.8</ele>
        <time>2022-06-06T06:21:30Z</time>
      </trkpt>
      <trkpt lat="48.1139930" lon="8.1959150">
        <ele>513.8</ele>
        <time>2022-06-06T06:21:34Z</time>
      </trkpt>
      <trkpt lat="48.1139160" lon="8.1957700">
        <ele>513.2</ele>
        <time>2022-06-06T06:21:38Z</time>
      </trkpt>
      <trkpt lat="48.1138560" lon="8.1956210">
        <ele>513.8</ele>
        <time>2022-06-06T06:21:42Z</time>
      </trkpt>
      <trkpt lat="48.1138200" lon="8.1954430">
        <ele>514.0</ele>
        <time>2022-06-06T06:21:46Z</time>
      </trkpt>
      <trkpt lat="48.1138030" lon="8.1952530">
        <ele>514.2</ele>
        <time>2022-06-06T06:21:50Z</time>
      </trkpt>
      <trkpt lat="48.1138030" lon="8.1950730">
        <ele>514.8</ele>
        <time>2022-06-06T06:21:54Z</time>
      </trkpt>
      <trkpt lat="48.1138080" lon="8.1948950">
        <ele>514.4</ele>
        <time>2022-06-06T06:21:58Z</time>
      </trkpt>
      <trkpt lat="48.1138200" lon="8.1947160">
        <ele>515.2</ele>
        <time>2022-06-06T06:22:02Z</time>
      </trkpt>
      <trkpt lat="48.1138330" lon="8.1945450">
        <ele>515.0</ele>
        <time>2022-06-06T06:22:06Z</time>
      </trkpt>
      <trkpt lat="48.1138400" lon="8.1943750">
        <ele>515.8</ele>
        <time>2022-06-06T06:22:10Z</time>
      </trkpt>
      <trkpt lat="48.1138410" lon="8.1942010">
        <ele>516.0</ele>
        <time>2022-06-06T06:22:14Z</time>
      </trkpt>
      <trkpt lat="48.1138310" lon="8.1940260">
        <ele>516.0</ele>
        <time>2022-06-06T06:22:18Z</time>
      </trkpt>
      <trkpt lat="48.1138050" lon="8.1938530">
        <ele>516.0</ele>
        <time>2022-06-06T06:22:22Z</time>
      </trkpt>
      <trkpt lat="48.1137600" lon="8.1936760">
        <ele>517.2</ele>
        <time>2022-06-06T06:22:26Z</time>
      </trkpt>
      <trkpt lat="48.1137130" lon="8.1935210">
        <ele>517.0</ele>
        <time>2022-06-06T06:22:30Z</time>
      </trkpt>
      <trkpt lat="48.1136430" lon="8.1933850">
        <ele>517.0</ele>
        <time>2022-06-06T06:22:34Z</time>
      </trkpt>
      <trkpt lat="48.1135760" lon="8.1932410">
        <ele>518.0</ele>
        <time>2022-06-06T06:22:38Z</time>
      </trkpt>
      <trkpt lat="48.1135010" lon="8.1931200">
        <ele>518.2</ele>
        <time>2022-06-06T06:22:42Z</time>
      </trkpt>
      <trkpt lat="48.1134260" lon="8.1929880">
        <ele>518.2</ele>
        <time>2022-06-06T06:22:46Z</time>
      </trkpt>
      <trkpt lat="48.1133510" lon="8.1928530">
        <ele>518.2</ele>
        <time>2022-06-06T06:22:50Z</time>
      </trkpt>
      <trkpt lat="48.1132750" lon="8.1927260">
        <ele>518.4</ele>
        <time>2022-06-06T06:22:54Z</time>
      </trkpt>
      <trkpt lat="48.1132000" lon="8.1925910">
        <ele>518.8</ele>
        <time>2022-06-06T06:22:58Z</time>
      </trkpt>
      <trkpt lat="48.1131300" lon="8.1924710">
        <ele>519.2</ele>
        <time>2022-06-06T06:23:02Z</time>
      </trkpt>
      <trkpt lat="48.1130560" lon="8.1923600">
        <ele>519.8</ele>
        <time>2022-06-06T06:23:06Z</time>
      </trkpt>
      <trkpt lat="48.1129830" lon="8.1922450">
        <ele>519.2</ele>
        <time>2022-06-06T06:23:10Z</time>
      </trkpt>
      <trkpt lat="48.1129160" lon="8.1921330">
        <ele>519.4</ele>
        <time>2022-06-06T06:23:14Z</time>
      </trkpt>
      <trkpt lat="48.1128400" lon="8.1920280">
        <ele>518.8</ele>
        <time>2022-06-06T06:23:18Z</time>
      </trkpt>
      <trkpt lat="48.1127610" lon="8.1919080">
        <ele>518.6</ele>
        <time>2022-06-06T06:23:22Z</time>
      </trkpt>
      <trkpt lat="48.1126730" lon="8.1918000">
        <ele>518.6</ele>
        <time>2022-06-06T06:23:26Z</time>
      </trkpt>
      <trkpt lat="48.1125830" lon="8.1916900">
        <ele>518.2</ele>
        <time>2022-06-06T06:23:30Z</time>
      </trkpt>
      <trkpt lat="48.1124910" lon="8.1915880">
        <ele>519.0</ele>
        <time>2022-06-06T06:23:34Z</time>
      </trkpt>
      <trkpt lat="48.1123950" lon="8.1914880">
        <ele>519.2</ele>
        <time>2022-06-06T06:23:38Z</time>
      </trkpt>
      <trkpt lat="48.1123000" lon="8.1913950">
        <ele>519.2</ele>
        <time>2022-06-06T06:23:42Z</time>
      </trkpt>
      <trkpt lat="48.1122030" lon="8.1913080">
        <ele>520.2</ele>
        <time>2022-06-06T06:23:46Z</time>
      </trkpt>
      <trkpt lat="48.1121080" lon="8.1912200">
        <ele>520.4</ele>
        <time>2022-06-06T06:23:50Z</time>
      </trkpt>
      <trkpt lat="48.1120150" lon="8.1911400">
        <ele>520.4</ele>
        <time>2022-06-06T06:23:54Z</time>
      </trkpt>
      <trkpt lat="48.1119280" lon="8.1910560">
        <ele>521.4</ele>
        <time>2022-06-06T06:23:58Z</time>
      </trkpt>
      <trkpt lat="48.1118410" lon="8.1909810">
        <ele>521.6</ele>
        <time>2022-06-06T06:24:02Z</time>
      </trkpt>
      <trkpt lat="48.1117510" lon="8.1908930">
        <ele>521.4</ele>
        <time>2022-06-06T06:24:06Z</time>
      </trkpt>
      <trkpt lat="48.1116660" lon="8.1907960">
        <ele>522.0</ele>
        <time>2022-06-06T06:24:10Z</time>
      </trkpt>
      <trkpt lat="48.1115880" lon="8.1906880">
        <ele>523.2</ele>
        <time>2022-06-06T06:24:14Z</time>
      </trkpt>
      <trkpt lat="48.1115130" lon="8.1905680">
        <ele>524.6</ele>
        <time>2022-06-06T06:24:18Z</time>
      </trkpt>
      <trkpt lat="48.1114550" lon="8.1904330">
        <ele>524.8</ele>
        <time>2022-06-06T06:24:22Z</time>
      </trkpt>
      <trkpt lat="48.1114010" lon="8.1903000">
        <ele>525.8</ele>
        <time>2022-06-06T06:24:26Z</time>
      </trkpt>
      <trkpt lat="48.1113680" lon="8.1901500">
        <ele>526.6</ele>
        <time>2022-06-06T06:24:30Z</time>
      </trkpt>
      <trkpt lat="48.1113250" lon="8.1900060">
        <ele>527.0</ele>
        <time>2022-06-06T06:24:34Z</time>
      </trkpt>
      <trkpt lat="48.1113010" lon="8.1898580">
        <ele>529.2</ele>
        <time>2022-06-06T06:24:38Z</time>
      </trkpt>
      <trkpt lat="48.1112760" lon="8.1897160">
        <ele>529.2</ele>
        <time>2022-06-06T06:24:42Z</time>
      </trkpt>
      <trkpt lat="48.1112510" lon="8.1895710">
        <ele>529.8</ele>
        <time>2022-06-06T06:24:46Z</time>
      </trkpt>
      <trkpt lat="48.1112300" lon="8.1894260">
        <ele>530.0</ele>
        <time>2022-06-06T06:24:50Z</time>
      </trkpt>
      <trkpt lat="48.1112100" lon="8.1892800">
        <ele>530.0</ele>
        <time>2022-06-06T06:24:54Z</time>
      </trkpt>
      <trkpt lat="48.1111930" lon="8.1891260">
        <ele>530.4</ele>
        <time>2022-06-06T06:24:58Z</time>
      </trkpt>
      <trkpt lat="48.1111730" lon="8.1889610">
        <ele>530.0</ele>
        <time>2022-06-06T06:25:02Z</time>
      </trkpt>
      <trkpt lat="48.1111600" lon="8.1887950">
        <ele>530.0</ele>
        <time>2022-06-06T06:25:06Z</time>
      </trkpt>
      <trkpt lat="48.1111400" lon="8.1886150">
        <ele>529.6</ele>
        <time>2022-06-06T06:25:10Z</time>
      </trkpt>
      <trkpt lat="48.1111160" lon="8.1884260">
        <ele>529.6</ele>
        <time>2022-06-06T06:25:14Z</time>
      </trkpt>
      <trkpt lat="48.1110960" lon="8.1882130">
        <ele>529.2</ele>
        <time>2022-06-06T06:25:18Z</time>
      </trkpt>
      <trkpt lat="48.1110530" lon="8.1879980">
        <ele>529.2</ele>
        <time>2022-06-06T06:25:22Z</time>
      </trkpt>
      <trkpt lat="48.1109710" lon="8.1878210">
        <ele>529.2</ele>
        <time>2022-06-06T06:25:26Z</time>
      </trkpt>
      <trkpt lat="48.1108780" lon="8.1876860">
        <ele>529.2</ele>
        <time>2022-06-06T06:25:30Z</time>
      </trkpt>
      <trkpt lat="48.1107780" lon="8.1875950">
        <ele>529.2</ele>
        <time>2022-06-06T06:25:34Z</time>
      </trkpt>
      <trkpt lat="48.1106810" lon="8.1875210">
        <ele>529.6</ele>
        <time>2022-06-06T06:25:38Z</time>
      </trkpt>
      <trkpt lat="48.1105810" lon="8.1874360">
        <ele>529.2</ele>
        <time>2022-06-06T06:25:42Z</time>
      </trkpt>
      <trkpt lat="48.1104700" lon="8.1873400">
        <ele>529.2</ele>
        <time>2022-06-06T06:25:46Z</time>
      </trkpt>
      <trkpt lat="48.1103680" lon="8.1872280">
        <ele>530.0</ele>
        <time>2022-06-06T06:25:50Z</time>
      </trkpt>
      <trkpt lat="48.1102780" lon="8.1870950">
        <ele>530.2</ele>
        <time>2022-06-06T06:25:54Z</time>
      </trkpt>
      <trkpt lat="48.1101960" lon="8.1869500">
        <ele>530.4</ele>
        <time>2022-06-06T06:25:58Z</time>
      </trkpt>
      <trkpt lat="48.1101210" lon="8.1867930">
        <ele>530.6</ele>
        <time>2022-06-06T06:26:02Z</time>
      </trkpt>
      <trkpt lat="48.1100530" lon="8.1866380">
        <ele>530.2</ele>
        <time>2022-06-06T06:26:06Z</time>
      </trkpt>
      <trkpt lat="48.1099900" lon="8.1864830">
        <ele>531.2</ele>
        <time>2022-06-06T06:26:10Z</time>
      </trkpt>
      <trkpt lat="48.1099450" lon="8.1863210">
        <ele>531.0</ele>
        <time>2022-06-06T06:26:14Z</time>
      </trkpt>
      <trkpt lat="48.1099010" lon="8.1861510">
        <ele>530.2</ele>
        <time>2022-06-06T06:26:18Z</time>
      </trkpt>
      <trkpt lat="48.1098860" lon="8.1859610">
        <ele>530.8</ele>
        <time>2022-06-06T06:26:22Z</time>
      </trkpt>
      <trkpt lat="48.1098860" lon="8.1857750">
        <ele>530.6</ele>
        <time>2022-06-06T06:26:26Z</time>
      </trkpt>
      <trkpt lat="48.1098810" lon="8.1855680">
        <ele>530.8</ele>
        <time>2022-06-06T06:26:30Z</time>
      </trkpt>
      <trkpt lat="48.1098860" lon="8.1853660">
        <ele>531.2</ele>
        <time>2022-06-06T06:26:34Z</time>
      </trkpt>
      <trkpt lat="48.1099030" lon="8.1851730">
        <ele>531.4</ele>
        <time>2022-06-06T06:26:38Z</time>
      </trkpt>
      <trkpt lat="48.1099210" lon="8.1849700">
        <ele>531.0</ele>
        <time>2022-06-06T06:26:42Z</time>
      </trkpt>
      <trkpt lat="48.1099460" lon="8.1847730">
        <ele>530.0</ele>
        <time>2022-06-06T06:26:46Z</time>
      </trkpt>
      <trkpt lat="48.1099900" lon="8.1845700">
        <ele>529.8</ele>
        <time>2022-06-06T06:26:50Z</time>
      </trkpt>
      <trkpt lat="48.1100460" lon="8.1843660">
        <ele>529.2</ele>
        <time>2022-06-06T06:26:54Z</time>
      </trkpt>
      <trkpt lat="48.1101130" lon="8.1841660">
        <ele>530.0</ele>
        <time>2022-06-06T06:26:58Z</time>
      </trkpt>
      <trkpt lat="48.1101880" lon="8.1839680">
        <ele>530.6</ele>
        <time>2022-06-06T06:27:02Z</time>
      </trkpt>
      <trkpt lat="48.1102650" lon="8.1837750">
        <ele>530.0</ele>
        <time>2022-06-06T06:27:06Z</time>
      </trkpt>
      <trkpt lat="48.1103330" lon="8.1835830">
        <ele>530.2</ele>
        <time>2022-06-06T06:27:10Z</time>
      </trkpt>
      <trkpt lat="48.1103880" lon="8.1833850">
        <ele>530.4</ele>
        <time>2022-06-06T06:27:14Z</time>
      </trkpt>
      <trkpt lat="48.1104330" lon="8.1831760">
        <ele>530.2</ele>
        <time>2022-06-06T06:27:18Z</time>
      </trkpt>
      <trkpt lat="48.1104530" lon="8.1829660">
        <ele>530.4</ele>
        <time>2022-06-06T06:27:22Z</time>
      </trkpt>
      <trkpt lat="48.1104460" lon="8.1827580">
        <ele>531.2</ele>
        <time>2022-06-06T06:27:26Z</time>
      </trkpt>
      <trkpt lat="48.1104230" lon="8.1825580">
        <ele>531.2</ele>
        <time>2022-06-06T06:27:30Z</time>
      </trkpt>
      <trkpt lat="48.1103760" lon="8.1823700">
        <ele>532.2</ele>
        <time>2022-06-06T06:27:34Z</time>
      </trkpt>
      <trkpt lat="48.1103230" lon="8.1821900">
        <ele>532.0</ele>
        <time>2022-06-06T06:27:38Z</time>
      </trkpt>
      <trkpt lat="48.1102580" lon="8.1820210">
        <ele>532.2</ele>
        <time>2022-06-06T06:27:42Z</time>
      </trkpt>
      <trkpt lat="48.1101950" lon="8.1818560">
        <ele>533.0</ele>
        <time>2022-06-06T06:27:46Z</time>
      </trkpt>
      <trkpt lat="48.1101150" lon="8.1817050">
        <ele>532.8</ele>
        <time>2022-06-06T06:27:50Z</time>
      </trkpt>
      <trkpt lat="48.1100400" lon="8.1815500">
        <ele>532.8</ele>
        <time>2022-06-06T06:27:54Z</time>
      </trkpt>
      <trkpt lat="48.1099680" lon="8.1813910">
        <ele>533.6</ele>
        <time>2022-06-06T06:27:58Z</time>
      </trkpt>
      <trkpt lat="48.1099000" lon="8.1812300">
        <ele>533.0</ele>
        <time>2022-06-06T06:28:02Z</time>
      </trkpt>
      <trkpt lat="48.1098330" lon="8.1810710">
        <ele>533.2</ele>
        <time>2022-06-06T06:28:06Z</time>
      </trkpt>
      <trkpt lat="48.1097650" lon="8.1809110">
        <ele>533.6</ele>
        <time>2022-06-06T06:28:10Z</time>
      </trkpt>
      <trkpt lat="48.1096910" lon="8.1807600">
        <ele>534.6</ele>
        <time>2022-06-06T06:28:14Z</time>
      </trkpt>
      <trkpt lat="48.1096300" lon="8.1806010">
        <ele>534.4</ele>
        <time>2022-06-06T06:28:18Z</time>
      </trkpt>
      <trkpt lat="48.1095610" lon="8.1804460">
        <ele>534.8</ele>
        <time>2022-06-06T06:28:22Z</time>
      </trkpt>
      <trkpt lat="48.1094950" lon="8.1802910">
        <ele>535.4</ele>
        <time>2022-06-06T06:28:26Z</time>
      </trkpt>
      <trkpt lat="48.1094330" lon="8.1801360">
        <ele>536.2</ele>
        <time>2022-06-06T06:28:30Z</time>
      </trkpt>
      <trkpt lat="48.1093830" lon="8.1799760">
        <ele>536.2</ele>
        <time>2022-06-06T06:28:34Z</time>
      </trkpt>
      <trkpt lat="48.1093530" lon="8.1798100">
        <ele>536.4</ele>
        <time>2022-06-06T06:28:38Z</time>
      </trkpt>
      <trkpt lat="48.1093360" lon="8.1796450">
        <ele>536.8</ele>
        <time>2022-06-06T06:28:42Z</time>
      </trkpt>
      <trkpt lat="48.1093280" lon="8.1794780">
        <ele>537.0</ele>
        <time>2022-06-06T06:28:46Z</time>
      </trkpt>
      <trkpt lat="48.1093350" lon="8.1793110">
        <ele>537.4</ele>
        <time>2022-06-06T06:28:50Z</time>
      </trkpt>
      <trkpt lat="48.1093480" lon="8.1791410">
        <ele>538.4</ele>
        <time>2022-06-06T06:28:54Z</time>
      </trkpt>
      <trkpt lat="48.1093600" lon="8.1789750">
        <ele>538.2</ele>
        <time>2022-06-06T06:28:58Z</time>
      </trkpt>
      <trkpt lat="48.1093630" lon="8.1788060">
        <ele>538.6</ele>
        <time>2022-06-06T06:29:02Z</time>
      </trkpt>
      <trkpt lat="48.1093650" lon="8.1786430">
        <ele>538.4</ele>
        <time>2022-06-06T06:29:06Z</time>
      </trkpt>
      <trkpt lat="48.1093660" lon="8.1784780">
        <ele>539.2</ele>
        <time>2022-06-06T06:29:10Z</time>
      </trkpt>
      <trkpt lat="48.1093560" lon="8.1783100">
        <ele>539.0</ele>
        <time>2022-06-06T06:29:14Z</time>
      </trkpt>
      <trkpt lat="48.1093360" lon="8.1781380">
        <ele>539.2</ele>
        <time>2022-06-06T06:29:18Z</time>
      </trkpt>
      <trkpt lat="48.1093100" lon="8.1779480">
        <ele>540.0</ele>
        <time>2022-06-06T06:29:22Z</time>
      </trkpt>
      <trkpt lat="48.1092860" lon="8.1777560">
        <ele>540.0</ele>
        <time>2022-06-06T06:29:26Z</time>
      </trkpt>
      <trkpt lat="48.1092660" lon="8.1775660">
        <ele>539.8</ele>
        <time>2022-06-06T06:29:30Z</time>
      </trkpt>
      <trkpt lat="48.1092460" lon="8.1773810">
        <ele>540.2</ele>
        <time>2022-06-06T06:29:34Z</time>
      </trkpt>
      <trkpt lat="48.1092300" lon="8.1771850">
        <ele>540.8</ele>
        <time>2022-06-06T06:29:38Z</time>
      </trkpt>
      <trkpt lat="48.1092350" lon="8.1769800">
        <ele>541.0</ele>
        <time>2022-06-06T06:29:42Z</time>
      </trkpt>
      <trkpt lat="48.1092310" lon="8.1768000">
        <ele>541.8</ele>
        <time>2022-06-06T06:29:46Z</time>
      </trkpt>
      <trkpt lat="48.1092300" lon="8.1766250">
        <ele>542.0</ele>
        <time>2022-06-06T06:29:50Z</time>
      </trkpt>
      <trkpt lat="48.1092230" lon="8.1764530">
        <ele>542.8</ele>
        <time>2022-06-06T06:29:54Z</time>
      </trkpt>
      <trkpt lat="48.1092350" lon="8.1762880">
        <ele>543.4</ele>
        <time>2022-06-06T06:29:58Z</time>
      </trkpt>
      <trkpt lat="48.1092300" lon="8.1761310">
        <ele>544.6</ele>
        <time>2022-06-06T06:30:02Z</time>
      </trkpt>
      <trkpt lat="48.1092250" lon="8.1759930">
        <ele>545.6</ele>
        <time>2022-06-06T06:30:06Z</time>
      </trkpt>
      <trkpt lat="48.1092210" lon="8.1758660">
        <ele>545.8</ele>
        <time>2022-06-06T06:30:10Z</time>
      </trkpt>
      <trkpt lat="48.1092230" lon="8.1757410">
        <ele>546.8</ele>
        <time>2022-06-06T06:30:14Z</time>
      </trkpt>
      <trkpt lat="48.1092130" lon="8.1756180">
        <ele>547.0</ele>
        <time>2022-06-06T06:30:18Z</time>
      </trkpt>
      <trkpt lat="48.1092050" lon="8.1754810">
        <ele>547.8</ele>
        <time>2022-06-06T06:30:22Z</time>
      </trkpt>
      <trkpt lat="48.1091860" lon="8.1753450">
        <ele>548.2</ele>
        <time>2022-06-06T06:30:26Z</time>
      </trkpt>
      <trkpt lat="48.1091660" lon="8.1752100">
        <ele>549.6</ele>
        <time>2022-06-06T06:30:30Z</time>
      </trkpt>
      <trkpt lat="48.1091380" lon="8.1750800">
        <ele>550.6</ele>
        <time>2022-06-06T06:30:34Z</time>
      </trkpt>
      <trkpt lat="48.1091060" lon="8.1749530">
        <ele>551.4</ele>
        <time>2022-06-06T06:30:38Z</time>
      </trkpt>
      <trkpt lat="48.1090630" lon="8.1748380">
        <ele>552.2</ele>
        <time>2022-06-06T06:30:42Z</time>
      </trkpt>
      <trkpt lat="48.1090280" lon="8.1747110">
        <ele>553.2</ele>
        <time>2022-06-06T06:30:46Z</time>
      </trkpt>
      <trkpt lat="48.1089960" lon="8.1745800">
        <ele>553.2</ele>
        <time>2022-06-06T06:30:50Z</time>
      </trkpt>
      <trkpt lat="48.1089660" lon="8.1744610">
        <ele>554.2</ele>
        <time>2022-06-06T06:30:54Z</time>
      </trkpt>
      <trkpt lat="48.1089360" lon="8.1743350">
        <ele>555.4</ele>
        <time>2022-06-06T06:30:58Z</time>
      </trkpt>
      <trkpt lat="48.1089160" lon="8.1742080">
        <ele>556.0</ele>
        <time>2022-06-06T06:31:02Z</time>
      </trkpt>
      <trkpt lat="48.1088960" lon="8.1740810">
        <ele>557.0</ele>
        <time>2022-06-06T06:31:06Z</time>
      </trkpt>
      <trkpt lat="48.1088850" lon="8.1739550">
        <ele>557.4</ele>
        <time>2022-06-06T06:31:10Z</time>
      </trkpt>
      <trkpt lat="48.1088710" lon="8.1738210">
        <ele>557.8</ele>
        <time>2022-06-06T06:31:14Z</time>
      </trkpt>
      <trkpt lat="48.1088710" lon="8.1736910">
        <ele>559.2</ele>
        <time>2022-06-06T06:31:18Z</time>
      </trkpt>
      <trkpt lat="48.1088660" lon="8.1735430">
        <ele>560.2</ele>
        <time>2022-06-06T06:31:22Z</time>
      </trkpt>
      <trkpt lat="48.1088780" lon="8.1733910">
        <ele>560.6</ele>
        <time>2022-06-06T06:31:26Z</time>
      </trkpt>
      <trkpt lat="48.1088980" lon="8.1732460">
        <ele>561.8</ele>
        <time>2022-06-06T06:31:30Z</time>
      </trkpt>
      <trkpt lat="48.1089150" lon="8.1730910">
        <ele>561.8</ele>
        <time>2022-06-06T06:31:34Z</time>
      </trkpt>
      <trkpt lat="48.1089300" lon="8.1729380">
        <ele>562.8</ele>
        <time>2022-06-06T06:31:38Z</time>
      </trkpt>
      <trkpt lat="48.1089350" lon="8.1727900">
        <ele>564.0</ele>
        <time>2022-06-06T06:31:42Z</time>
      </trkpt>
      <trkpt lat="48.1089150" lon="8.1726260">
        <ele>565.2</ele>
        <time>2022-06-06T06:31:46Z</time>
      </trkpt>
      <trkpt lat="48.1089030" lon="8.1724580">
        <ele>565.2</ele>
        <time>2022-06-06T06:31:50Z</time>
      </trkpt>
      <trkpt lat="48.1088710" lon="8.1723080">
        <ele>566.6</ele>
        <time>2022-06-06T06:31:54Z</time>
      </trkpt>
      <trkpt lat="48.1088200" lon="8.1721950">
        <ele>566.8</ele>
        <time>2022-06-06T06:31:58Z</time>
      </trkpt>
      <trkpt lat="48.1087550" lon="8.1720880">
        <ele>567.8</ele>
        <time>2022-06-06T06:32:02Z</time>
      </trkpt>
      <trkpt lat="48.1086900" lon="8.1720060">
        <ele>568.0</ele>
        <time>2022-06-06T06:32:06Z</time>
      </trkpt>
      <trkpt lat="48.1086510" lon="8.1719210">
        <ele>568.4</ele>
        <time>2022-06-06T06:32:10Z</time>
      </trkpt>
      <trkpt lat="48.1086860" lon="8.1718250">
        <ele>568.4</ele>
        <time>2022-06-06T06:32:14Z</time>
      </trkpt>
      <trkpt lat="48.1086710" lon="8.1717650">
        <ele>568.2</ele>
        <time>2022-06-06T06:32:18Z</time>
      </trkpt>
      <trkpt lat="48.1086200" lon="8.1718130">
        <ele>568.6</ele>
        <time>2022-06-06T06:32:22Z</time>
      </trkpt>
      <trkpt lat="48.1085530" lon="8.1717860">
        <ele>568.4</ele>
        <time>2022-06-06T06:32:26Z</time>
      </trkpt>
      <trkpt lat="48.1084730" lon="8.1717650">
        <ele>569.6</ele>
        <time>2022-06-06T06:32:30Z</time>
      </trkpt>
      <trkpt lat="48.1083860" lon="8.1717500">
        <ele>569.2</ele>
        <time>2022-06-06T06:32:34Z</time>
      </trkpt>
      <trkpt lat="48.1083100" lon="8.1717360">
        <ele>569.4</ele>
        <time>2022-06-06T06:32:38Z</time>
      </trkpt>
      <trkpt lat="48.1082710" lon="8.1717600">
        <ele>569.2</ele>
        <time>2022-06-06T06:32:42Z</time>
      </trkpt>
      <trkpt lat="48.1082280" lon="8.1718050">
        <ele>569.2</ele>
        <time>2022-06-06T06:32:46Z</time>
      </trkpt>
      <trkpt lat="48.1082280" lon="8.1718050">
        <ele>569.4</ele>
        <time>2022-06-06T06:32:50Z</time>
      </trkpt>
      <trkpt lat="48.1082280" lon="8.1718050">
        <ele>569.4</ele>
        <time>2022-06-06T06:32:54Z</time>
      </trkpt>
      <trkpt lat="48.1082280" lon="8.1718050">
        <ele>569.4</ele>
        <time>2022-06-06T06:32:58Z</time>
      </trkpt>
      <trkpt lat="48.1082280" lon="8.1718050">
        <ele>569.4</ele>
        <time>2022-06-06T06:33:02Z</time>
      </trkpt>
      <trkpt lat="48.1082280" lon="8.1718050">
        <ele>569.2</ele>
        <time>2022-06-06T06:33:06Z</time>
      </trkpt>
      <trkpt lat="48.1082280" lon="8.1718050">
        <ele>569.6</ele>
        <time>2022-06-06T06:33:10Z</time>
      </trkpt>
      <trkpt lat="48.1082280" lon="8.1718050">
        <ele>569.0</ele>
        <time>2022-06-06T06:33:14Z</time>
      </trkpt>
      <trkpt lat="48.1082280" lon="8.1718050">
        <ele>569.6</ele>
        <time>2022-06-06T06:33:18Z</time>
      </trkpt>
      <trkpt lat="48.1082280" lon="8.1718050">
        <ele>569.2</ele>
        <time>2022-06-06T06:33:22Z</time>
      </trkpt>
      <trkpt lat="48.1082280" lon="8.1718050">
        <ele>568.8</ele>
        <time>2022-06-06T06:33:26Z</time>
      </trkpt>
      <trkpt lat="48.1082280" lon="8.1718050">
        <ele>568.8</ele>
        <time>2022-06-06T06:33:30Z</time>
      </trkpt>
      <trkpt lat="48.1082280" lon="8.1718050">
        <ele>569.0</ele>
        <time>2022-06-06T06:33:34Z</time>
      </trkpt>
      <trkpt lat="48.1082280" lon="8.1718050">
        <ele>569.2</ele>
        <time>2022-06-06T06:33:38Z</time>
      </trkpt>
      <trkpt lat="48.1082280" lon="8.1718050">
        <ele>569.2</ele>
        <time>2022-06-06T06:33:42Z</time>
      </trkpt>
      <trkpt lat="48.1082280" lon="8.1718050">
        <ele>569.4</ele>
        <time>2022-06-06T06:33:46Z</time>
      </trkpt>
      <trkpt lat="48.1082280" lon="8.1718050">
        <ele>569.4</ele>
        <time>2022-06-06T06:33:50Z</time>
      </trkpt>
      <trkpt lat="48.1082650" lon="8.1717710">
        <ele>569.4</ele>
        <time>2022-06-06T06:33:54Z</time>
      </trkpt>
      <trkpt lat="48.1082650" lon="8.1717710">
        <ele>569.6</ele>
        <time>2022-06-06T06:33:58Z</time>
      </trkpt>
      <trkpt lat="48.1082330" lon="8.1717650">
        <ele>569.6</ele>
        <time>2022-06-06T06:34:02Z</time>
      </trkpt>
      <trkpt lat="48.1081830" lon="8.1717450">
        <ele>569.8</ele>
        <time>2022-06-06T06:34:06Z</time>
      </trkpt>
      <trkpt lat="48.1081000" lon="8.1717510">
        <ele>569.8</ele>
        <time>2022-06-06T06:34:10Z</time>
      </trkpt>
      <trkpt lat="48.1079910" lon="8.1717730">
        <ele>569.6</ele>
        <time>2022-06-06T06:34:14Z</time>
      </trkpt>
      <trkpt lat="48.1078750" lon="8.1718080">
        <ele>569.6</ele>
        <time>2022-06-06T06:34:18Z</time>
      </trkpt>
      <trkpt lat="48.1077500" lon="8.1718250">
        <ele>568.8</ele>
        <time>2022-06-06T06:34:22Z</time>
      </trkpt>
      <trkpt lat="48.1075950" lon="8.1718510">
        <ele>568.8</ele>
        <time>2022-06-06T06:34:26Z</time>
      </trkpt>
      <trkpt lat="48.1074560" lon="8.1718760">
        <ele>568.4</ele>
        <time>2022-06-06T06:34:30Z</time>
      </trkpt>
      <trkpt lat="48.1072960" lon="8.1719010">
        <ele>568.8</ele>
        <time>2022-06-06T06:34:34Z</time>
      </trkpt>
      <trkpt lat="48.1071250" lon="8.1719200">
        <ele>567.8</ele>
        <time>2022-06-06T06:34:38Z</time>
      </trkpt>
      <trkpt lat="48.1069860" lon="8.1719510">
        <ele>568.6</ele>
        <time>2022-06-06T06:34:42Z</time>
      </trkpt>
      <trkpt lat="48.1068430" lon="8.1719730">
        <ele>567.6</ele>
        <time>2022-06-06T06:34:46Z</time>
      </trkpt>
      <trkpt lat="48.1066660" lon="8.1720060">
        <ele>568.0</ele>
        <time>2022-06-06T06:34:50Z</time>
      </trkpt>
      <trkpt lat="48.1064680" lon="8.1720350">
        <ele>568.4</ele>
        <time>2022-06-06T06:34:54Z</time>
      </trkpt>
      <trkpt lat="48.1062750" lon="8.1720730">
        <ele>568.0</ele>
        <time>2022-06-06T06:34:58Z</time>
      </trkpt>
      <trkpt lat="48.1060630" lon="8.1720860">
        <ele>568.6</ele>
        <time>2022-06-06T06:35:02Z</time>
      </trkpt>
      <trkpt lat="48.1058800" lon="8.1721200">
        <ele>569.0</ele>
        <time>2022-06-06T06:35:06Z</time>
      </trkpt>
      <trkpt lat="48.1057080" lon="8.1721560">
        <ele>568.6</ele>
        <time>2022-06-06T06:35:10Z</time>
      </trkpt>
      <trkpt lat="48.1055380" lon="8.1721950">
        <ele>569.2</ele>
        <time>2022-06-06T06:35:14Z</time>
      </trkpt>
      <trkpt lat="48.1053830" lon="8.1722380">
        <ele>568.4</ele>
        <time>2022-06-06T06:35:18Z</time>
      </trkpt>
      <trkpt lat="48.1052310" lon="8.1722830">
        <ele>568.6</ele>
        <time>2022-06-06T06:35:22Z</time>
      </trkpt>
      <trkpt lat="48.1050760" lon="8.1723200">
        <ele>568.8</ele>
        <time>2022-06-06T06:35:26Z</time>
      </trkpt>
      <trkpt lat="48.1049130" lon="8.1723660">
        <ele>569.0</ele>
        <time>2022-06-06T06:35:30Z</time>
      </trkpt>
      <trkpt lat="48.1047460" lon="8.1724160">
        <ele>568.6</ele>
        <time>2022-06-06T06:35:34Z</time>
      </trkpt>
      <trkpt lat="48.1045800" lon="8.1724710">
        <ele>568.4</ele>
        <time>2022-06-06T06:35:38Z</time>
      </trkpt>
      <trkpt lat="48.1044130" lon="8.1725330">
        <ele>568.4</ele>
        <time>2022-06-06T06:35:42Z</time>
      </trkpt>
      <trkpt lat="48.1042460" lon="8.1725710">
        <ele>568.4</ele>
        <time>2022-06-06T06:35:46Z</time>
      </trkpt>
      <trkpt lat="48.1040700" lon="8.1726180">
        <ele>567.8</ele>
        <time>2022-06-06T06:35:50Z</time>
      </trkpt>
      <trkpt lat="48.1038800" lon="8.1726860">
        <ele>568.0</ele>
        <time>2022-06-06T06:35:54Z</time>
      </trkpt>
      <trkpt lat="48.1036860" lon="8.1727380">
        <ele>568.0</ele>
        <time>2022-06-06T06:35:58Z</time>
      </trkpt>
      <trkpt lat="48.1035010" lon="8.1727900">
        <ele>567.6</ele>
        <time>2022-06-06T06:36:02Z</time>
      </trkpt>
      <trkpt lat="48.1033060" lon="8.1728280">
        <ele>567.2</ele>
        <time>2022-06-06T06:36:06Z</time>
      </trkpt>
      <trkpt lat="48.1030960" lon="8.1728660">
        <ele>567.0</ele>
        <time>2022-06-06T06:36:10Z</time>
      </trkpt>
      <trkpt lat="48.1028660" lon="8.1728730">
        <ele>566.4</ele>
        <time>2022-06-06T06:36:14Z</time>
      </trkpt>
      <trkpt lat="48.1026250" lon="8.1728100">
        <ele>565.6</ele>
        <time>2022-06-06T06:36:18Z</time>
      </trkpt>
      <trkpt lat="48.1023730" lon="8.1726560">
        <ele>563.0</ele>
        <time>2022-06-06T06:36:22Z</time>
      </trkpt>
      <trkpt lat="48.1021210" lon="8.1724050">
        <ele>561.6</ele>
        <time>2022-06-06T06:36:26Z</time>
      </trkpt>
      <trkpt lat="48.1018610" lon="8.1721050">
        <ele>559.6</ele>
        <time>2022-06-06T06:36:30Z</time>
      </trkpt>
      <trkpt lat="48.1015360" lon="8.1720030">
        <ele>558.2</ele>
        <time>2022-06-06T06:36:34Z</time>
      </trkpt>
      <trkpt lat="48.1012600" lon="8.1721760">
        <ele>557.6</ele>
        <time>2022-06-06T06:36:38Z</time>
      </trkpt>
      <trkpt lat="48.1010660" lon="8.1723910">
        <ele>558.6</ele>
        <time>2022-06-06T06:36:42Z</time>
      </trkpt>
      <trkpt lat="48.1008980" lon="8.1725710">
        <ele>559.4</ele>
        <time>2022-06-06T06:36:46Z</time>
      </trkpt>
      <trkpt lat="48.1007530" lon="8.1727580">
        <ele>559.0</ele>
        <time>2022-06-06T06:36:50Z</time>
      </trkpt>
      <trkpt lat="48.1006550" lon="8.1729950">
        <ele>559.2</ele>
        <time>2022-06-06T06:36:54Z</time>
      </trkpt>
      <trkpt lat="48.1005730" lon="8.1732780">
        <ele>558.4</ele>
        <time>2022-06-06T06:36:58Z</time>
      </trkpt>
      <trkpt lat="48.1004630" lon="8.1735600">
        <ele>559.0</ele>
        <time>2022-06-06T06:37:02Z</time>
      </trkpt>
      <trkpt lat="48.1003060" lon="8.1737510">
        <ele>558.4</ele>
        <time>2022-06-06T06:37:06Z</time>
      </trkpt>
      <trkpt lat="48.1001480" lon="8.1738810">
        <ele>558.8</ele>
        <time>2022-06-06T06:37:10Z</time>
      </trkpt>
      <trkpt lat="48.0999980" lon="8.1739960">
        <ele>558.6</ele>
        <time>2022-06-06T06:37:14Z</time>
      </trkpt>
      <trkpt lat="48.0998460" lon="8.1741080">
        <ele>557.4</ele>
        <time>2022-06-06T06:37:18Z</time>
      </trkpt>
      <trkpt lat="48.0996510" lon="8.1742080">
        <ele>555.2</ele>
        <time>2022-06-06T06:37:22Z</time>
      </trkpt>
      <trkpt lat="48.0994430" lon="8.1743360">
        <ele>554.0</ele>
        <time>2022-06-06T06:37:26Z</time>
      </trkpt>
      <trkpt lat="48.0992900" lon="8.1744360">
        <ele>552.4</ele>
        <time>2022-06-06T06:37:30Z</time>
      </trkpt>
      <trkpt lat="48.0991960" lon="8.1744960">
        <ele>551.8</ele>
        <time>2022-06-06T06:37:34Z</time>
      </trkpt>
      <trkpt lat="48.0990330" lon="8.1745680">
        <ele>550.0</ele>
        <time>2022-06-06T06:37:38Z</time>
      </trkpt>
      <trkpt lat="48.0987980" lon="8.1746850">
        <ele>546.6</ele>
        <time>2022-06-06T06:37:42Z</time>
      </trkpt>
      <trkpt lat="48.0984900" lon="8.1748780">
        <ele>543.0</ele>
        <time>2022-06-06T06:37:46Z</time>
      </trkpt>
      <trkpt lat="48.0981700" lon="8.1751810">
        <ele>534.2</ele>
        <time>2022-06-06T06:37:50Z</time>
      </trkpt>
      <trkpt lat="48.0978130" lon="8.1754210">
        <ele>532.8</ele>
        <time>2022-06-06T06:37:54Z</time>
      </trkpt>
      <trkpt lat="48.0974700" lon="8.1755250">
        <ele>527.0</ele>
        <time>2022-06-06T06:37:58Z</time>
      </trkpt>
      <trkpt lat="48.0971600" lon="8.1755030">
        <ele>523.2</ele>
        <time>2022-06-06T06:38:02Z</time>
      </trkpt>
      <trkpt lat="48.0968860" lon="8.1754050">
        <ele>519.0</ele>
        <time>2022-06-06T06:38:06Z</time>
      </trkpt>
      <trkpt lat="48.0966200" lon="8.1753310">
        <ele>517.4</ele>
        <time>2022-06-06T06:38:10Z</time>
      </trkpt>
      <trkpt lat="48.0963880" lon="8.1755300">
        <ele>514.4</ele>
        <time>2022-06-06T06:38:14Z</time>
      </trkpt>
      <trkpt lat="48.0962300" lon="8.1758830">
        <ele>510.8</ele>
        <time>2022-06-06T06:38:18Z</time>
      </trkpt>
      <trkpt lat="48.0959960" lon="8.1757950">
        <ele>509.2</ele>
        <time>2022-06-06T06:38:22Z</time>
      </trkpt>
      <trkpt lat="48.0958180" lon="8.1755980">
        <ele>509.4</ele>
        <time>2022-06-06T06:38:26Z</time>
      </trkpt>
      <trkpt lat="48.0956280" lon="8.1754830">
        <ele>509.0</ele>
        <time>2022-06-06T06:38:30Z</time>
      </trkpt>
      <trkpt lat="48.0954460" lon="8.1754600">
        <ele>510.2</ele>
        <time>2022-06-06T06:38:34Z</time>
      </trkpt>
      <trkpt lat="48.0952660" lon="8.1754910">
        <ele>510.0</ele>
        <time>2022-06-06T06:38:38Z</time>
      </trkpt>
      <trkpt lat="48.0951030" lon="8.1755410">
        <ele>510.4</ele>
        <time>2022-06-06T06:38:42Z</time>
      </trkpt>
      <trkpt lat="48.0949660" lon="8.1756650">
        <ele>510.6</ele>
        <time>2022-06-06T06:38:46Z</time>
      </trkpt>
      <trkpt lat="48.0948060" lon="8.1758100">
        <ele>510.6</ele>
        <time>2022-06-06T06:38:50Z</time>
      </trkpt>
      <trkpt lat="48.0946230" lon="8.1759260">
        <ele>510.6</ele>
        <time>2022-06-06T06:38:54Z</time>
      </trkpt>
      <trkpt lat="48.0944380" lon="8.1760650">
        <ele>509.0</ele>
        <time>2022-06-06T06:38:58Z</time>
      </trkpt>
      <trkpt lat="48.0942280" lon="8.1762160">
        <ele>508.0</ele>
        <time>2022-06-06T06:39:02Z</time>
      </trkpt>
      <trkpt lat="48.0939960" lon="8.1763980">
        <ele>506.6</ele>
        <time>2022-06-06T06:39:06Z</time>
      </trkpt>
      <trkpt lat="48.0936930" lon="8.1765800">
        <ele>502.4</ele>
        <time>2022-06-06T06:39:10Z</time>
      </trkpt>
      <trkpt lat="48.0933630" lon="8.1769160">
        <ele>499.0</ele>
        <time>2022-06-06T06:39:14Z</time>
      </trkpt>
      <trkpt lat="48.0931450" lon="8.1774500">
        <ele>496.8</ele>
        <time>2022-06-06T06:39:18Z</time>
      </trkpt>
      <trkpt lat="48.0928850" lon="8.1778410">
        <ele>499.2</ele>
        <time>2022-06-06T06:39:22Z</time>
      </trkpt>
      <trkpt lat="48.0925950" lon="8.1780480">
        <ele>498.0</ele>
        <time>2022-06-06T06:39:26Z</time>
      </trkpt>
      <trkpt lat="48.0923050" lon="8.1780400">
        <ele>497.6</ele>
        <time>2022-06-06T06:39:30Z</time>
      </trkpt>
      <trkpt lat="48.0920530" lon="8.1780080">
        <ele>497.6</ele>
        <time>2022-06-06T06:39:34Z</time>
      </trkpt>
      <trkpt lat="48.0918200" lon="8.1779930">
        <ele>498.0</ele>
        <time>2022-06-06T06:39:38Z</time>
      </trkpt>
      <trkpt lat="48.0916000" lon="8.1780030">
        <ele>498.4</ele>
        <time>2022-06-06T06:39:42Z</time>
      </trkpt>
      <trkpt lat="48.0913930" lon="8.1780310">
        <ele>497.0</ele>
        <time>2022-06-06T06:39:46Z</time>
      </trkpt>
      <trkpt lat="48.0911710" lon="8.1781380">
        <ele>495.8</ele>
        <time>2022-06-06T06:39:50Z</time>
      </trkpt>
      <trkpt lat="48.0909480" lon="8.1783110">
        <ele>496.0</ele>
        <time>2022-06-06T06:39:54Z</time>
      </trkpt>
      <trkpt lat="48.0907510" lon="8.1785430">
        <ele>495.4</ele>
        <time>2022-06-06T06:39:58Z</time>
      </trkpt>
      <trkpt lat="48.0905500" lon="8.1787730">
        <ele>494.2</ele>
        <time>2022-06-06T06:40:02Z</time>
      </trkpt>
      <trkpt lat="48.0903650" lon="8.1790050">
        <ele>493.6</ele>
        <time>2022-06-06T06:40:06Z</time>
      </trkpt>
      <trkpt lat="48.0901600" lon="8.1791880">
        <ele>492.8</ele>
        <time>2022-06-06T06:40:10Z</time>
      </trkpt>
      <trkpt lat="48.0899360" lon="8.1793250">
        <ele>492.8</ele>
        <time>2022-06-06T06:40:14Z</time>
      </trkpt>
      <trkpt lat="48.0897130" lon="8.1794260">
        <ele>493.4</ele>
        <time>2022-06-06T06:40:18Z</time>
      </trkpt>
      <trkpt lat="48.0894960" lon="8.1794860">
        <ele>493.0</ele>
        <time>2022-06-06T06:40:22Z</time>
      </trkpt>
      <trkpt lat="48.0892780" lon="8.1795430">
        <ele>492.4</ele>
        <time>2022-06-06T06:40:26Z</time>
      </trkpt>
      <trkpt lat="48.0890610" lon="8.1796110">
        <ele>491.8</ele>
        <time>2022-06-06T06:40:30Z</time>
      </trkpt>
      <trkpt lat="48.0888330" lon="8.1797280">
        <ele>490.6</ele>
        <time>2022-06-06T06:40:34Z</time>
      </trkpt>
      <trkpt lat="48.0885680" lon="8.1797160">
        <ele>487.8</ele>
        <time>2022-06-06T06:40:38Z</time>
      </trkpt>
      <trkpt lat="48.0883280" lon="8.1794780">
        <ele>485.0</ele>
        <time>2022-06-06T06:40:42Z</time>
      </trkpt>
      <trkpt lat="48.0880830" lon="8.1792650">
        <ele>483.6</ele>
        <time>2022-06-06T06:40:46Z</time>
      </trkpt>
      <trkpt lat="48.0878210" lon="8.1790680">
        <ele>481.6</ele>
        <time>2022-06-06T06:40:50Z</time>
      </trkpt>
      <trkpt lat="48.0875330" lon="8.1788960">
        <ele>479.0</ele>
        <time>2022-06-06T06:40:54Z</time>
      </trkpt>
      <trkpt lat="48.0872130" lon="8.1787680">
        <ele>476.6</ele>
        <time>2022-06-06T06:40:58Z</time>
      </trkpt>
      <trkpt lat="48.0868800" lon="8.1786860">
        <ele>474.8</ele>
        <time>2022-06-06T06:41:02Z</time>
      </trkpt>
      <trkpt lat="48.0865600" lon="8.1787200">
        <ele>474.8</ele>
        <time>2022-06-06T06:41:06Z</time>
      </trkpt>
      <trkpt lat="48.0862750" lon="8.1788430">
        <ele>474.4</ele>
        <time>2022-06-06T06:41:10Z</time>
      </trkpt>
      <trkpt lat="48.0860300" lon="8.1790460">
        <ele>474.4</ele>
        <time>2022-06-06T06:41:14Z</time>
      </trkpt>
      <trkpt lat="48.0857960" lon="8.1792730">
        <ele>473.0</ele>
        <time>2022-06-06T06:41:18Z</time>
      </trkpt>
      <trkpt lat="48.0855760" lon="8.1794850">
        <ele>474.6</ele>
        <time>2022-06-06T06:41:22Z</time>
      </trkpt>
      <trkpt lat="48.0853580" lon="8.1796510">
        <ele>474.2</ele>
        <time>2022-06-06T06:41:26Z</time>
      </trkpt>
      <trkpt lat="48.0851460" lon="8.1797780">
        <ele>473.4</ele>
        <time>2022-06-06T06:41:30Z</time>
      </trkpt>
      <trkpt lat="48.0849400" lon="8.1798930">
        <ele>471.6</ele>
        <time>2022-06-06T06:41:34Z</time>
      </trkpt>
      <trkpt lat="48.0847450" lon="8.1800130">
        <ele>471.4</ele>
        <time>2022-06-06T06:41:38Z</time>
      </trkpt>
      <trkpt lat="48.0845550" lon="8.1801500">
        <ele>472.2</ele>
        <time>2022-06-06T06:41:42Z</time>
      </trkpt>
      <trkpt lat="48.0843710" lon="8.1803050">
        <ele>471.8</ele>
        <time>2022-06-06T06:41:46Z</time>
      </trkpt>
      <trkpt lat="48.0841960" lon="8.1804710">
        <ele>471.8</ele>
        <time>2022-06-06T06:41:50Z</time>
      </trkpt>
      <trkpt lat="48.0840160" lon="8.1806410">
        <ele>471.4</ele>
        <time>2022-06-06T06:41:54Z</time>
      </trkpt>
      <trkpt lat="48.0838400" lon="8.1808180">
        <ele>470.8</ele>
        <time>2022-06-06T06:41:58Z</time>
      </trkpt>
      <trkpt lat="48.0836550" lon="8.1810000">
        <ele>470.4</ele>
        <time>2022-06-06T06:42:02Z</time>
      </trkpt>
      <trkpt lat="48.0834630" lon="8.1811880">
        <ele>470.4</ele>
        <time>2022-06-06T06:42:06Z</time>
      </trkpt>
      <trkpt lat="48.0832610" lon="8.1813580">
        <ele>470.2</ele>
        <time>2022-06-06T06:42:10Z</time>
      </trkpt>
      <trkpt lat="48.0830560" lon="8.1815260">
        <ele>470.0</ele>
        <time>2022-06-06T06:42:14Z</time>
      </trkpt>
      <trkpt lat="48.0828500" lon="8.1816860">
        <ele>469.4</ele>
        <time>2022-06-06T06:42:18Z</time>
      </trkpt>
      <trkpt lat="48.0826500" lon="8.1818210">
        <ele>468.2</ele>
        <time>2022-06-06T06:42:22Z</time>
      </trkpt>
      <trkpt lat="48.0824450" lon="8.1819450">
        <ele>467.4</ele>
        <time>2022-06-06T06:42:26Z</time>
      </trkpt>
      <trkpt lat="48.0822260" lon="8.1820510">
        <ele>467.0</ele>
        <time>2022-06-06T06:42:30Z</time>
      </trkpt>
      <trkpt lat="48.0820050" lon="8.1821600">
        <ele>467.0</ele>
        <time>2022-06-06T06:42:34Z</time>
      </trkpt>
      <trkpt lat="48.0817800" lon="8.1822550">
        <ele>467.0</ele>
        <time>2022-06-06T06:42:38Z</time>
      </trkpt>
      <trkpt lat="48.0815530" lon="8.1823460">
        <ele>466.4</ele>
        <time>2022-06-06T06:42:42Z</time>
      </trkpt>
      <trkpt lat="48.0813360" lon="8.1824180">
        <ele>466.4</ele>
        <time>2022-06-06T06:42:46Z</time>
      </trkpt>
      <trkpt lat="48.0811200" lon="8.1824960">
        <ele>466.6</ele>
        <time>2022-06-06T06:42:50Z</time>
      </trkpt>
      <trkpt lat="48.0809060" lon="8.1825810">
        <ele>466.6</ele>
        <time>2022-06-06T06:42:54Z</time>
      </trkpt>
      <trkpt lat="48.0806910" lon="8.1826710">
        <ele>466.4</ele>
        <time>2022-06-06T06:42:58Z</time>
      </trkpt>
      <trkpt lat="48.0804730" lon="8.1827660">
        <ele>466.4</ele>
        <time>2022-06-06T06:43:02Z</time>
      </trkpt>
      <trkpt lat="48.0802730" lon="8.1828400">
        <ele>465.8</ele>
        <time>2022-06-06T06:43:06Z</time>
      </trkpt>
      <trkpt lat="48.0800730" lon="8.1829110">
        <ele>465.8</ele>
        <time>2022-06-06T06:43:10Z</time>
      </trkpt>
      <trkpt lat="48.0798760" lon="8.1829850">
        <ele>465.2</ele>
        <time>2022-06-06T06:43:14Z</time>
      </trkpt>
      <trkpt lat="48.0796760" lon="8.1830630">
        <ele>465.0</ele>
        <time>2022-06-06T06:43:18Z</time>
      </trkpt>
      <trkpt lat="48.0794780" lon="8.1831410">
        <ele>464.8</ele>
        <time>2022-06-06T06:43:22Z</time>
      </trkpt>
      <trkpt lat="48.0792780" lon="8.1832160">
        <ele>464.8</ele>
        <time>2022-06-06T06:43:26Z</time>
      </trkpt>
      <trkpt lat="48.0790760" lon="8.1833000">
        <ele>465.8</ele>
        <time>2022-06-06T06:43:30Z</time>
      </trkpt>
      <trkpt lat="48.0788860" lon="8.1833850">
        <ele>465.4</ele>
        <time>2022-06-06T06:43:34Z</time>
      </trkpt>
      <trkpt lat="48.0786980" lon="8.1834660">
        <ele>465.0</ele>
        <time>2022-06-06T06:43:38Z</time>
      </trkpt>
      <trkpt lat="48.0784930" lon="8.1835860">
        <ele>465.4</ele>
        <time>2022-06-06T06:43:42Z</time>
      </trkpt>
      <trkpt lat="48.0782810" lon="8.1837300">
        <ele>464.4</ele>
        <time>2022-06-06T06:43:46Z</time>
      </trkpt>
      <trkpt lat="48.0780600" lon="8.1838810">
        <ele>463.8</ele>
        <time>2022-06-06T06:43:50Z</time>
      </trkpt>
      <trkpt lat="48.0778560" lon="8.1840180">
        <ele>463.8</ele>
        <time>2022-06-06T06:43:54Z</time>
      </trkpt>
      <trkpt lat="48.0776550" lon="8.1841730">
        <ele>462.8</ele>
        <time>2022-06-06T06:43:58Z</time>
      </trkpt>
      <trkpt lat="48.0774450" lon="8.1843250">
        <ele>461.4</ele>
        <time>2022-06-06T06:44:02Z</time>
      </trkpt>
      <trkpt lat="48.0772230" lon="8.1844730">
        <ele>461.0</ele>
        <time>2022-06-06T06:44:06Z</time>
      </trkpt>
      <trkpt lat="48.0769760" lon="8.1846610">
        <ele>459.6</ele>
        <time>2022-06-06T06:44:10Z</time>
      </trkpt>
      <trkpt lat="48.0767180" lon="8.1848550">
        <ele>458.8</ele>
        <time>2022-06-06T06:44:14Z</time>
      </trkpt>
      <trkpt lat="48.0764560" lon="8.1850460">
        <ele>457.4</ele>
        <time>2022-06-06T06:44:18Z</time>
      </trkpt>
      <trkpt lat="48.0761910" lon="8.1852460">
        <ele>456.2</ele>
        <time>2022-06-06T06:44:22Z</time>
      </trkpt>
      <trkpt lat="48.0759250" lon="8.1854430">
        <ele>455.6</ele>
        <time>2022-06-06T06:44:26Z</time>
      </trkpt>
      <trkpt lat="48.0756610" lon="8.1856480">
        <ele>455.0</ele>
        <time>2022-06-06T06:44:30Z</time>
      </trkpt>
      <trkpt lat="48.0753930" lon="8.1858430">
        <ele>453.4</ele>
        <time>2022-06-06T06:44:34Z</time>
      </trkpt>
      <trkpt lat="48.0751230" lon="8.1860330">
        <ele>452.0</ele>
        <time>2022-06-06T06:44:38Z</time>
      </trkpt>
      <trkpt lat="48.0748530" lon="8.1862280">
        <ele>451.4</ele>
        <time>2022-06-06T06:44:42Z</time>
      </trkpt>
      <trkpt lat="48.0746000" lon="8.1864250">
        <ele>451.2</ele>
        <time>2022-06-06T06:44:46Z</time>
      </trkpt>
      <trkpt lat="48.0743550" lon="8.1866150">
        <ele>450.8</ele>
        <time>2022-06-06T06:44:50Z</time>
      </trkpt>
      <trkpt lat="48.0741160" lon="8.1867730">
        <ele>450.8</ele>
        <time>2022-06-06T06:44:54Z</time>
      </trkpt>
      <trkpt lat="48.0738850" lon="8.1868930">
        <ele>450.6</ele>
        <time>2022-06-06T06:44:58Z</time>
      </trkpt>
      <trkpt lat="48.0736580" lon="8.1870130">
        <ele>450.4</ele>
        <time>2022-06-06T06:45:02Z</time>
      </trkpt>
      <trkpt lat="48.0734400" lon="8.1871330">
        <ele>450.6</ele>
        <time>2022-06-06T06:45:06Z</time>
      </trkpt>
      <trkpt lat="48.0732350" lon="8.1872410">
        <ele>450.4</ele>
        <time>2022-06-06T06:45:10Z</time>
      </trkpt>
      <trkpt lat="48.0730310" lon="8.1873660">
        <ele>450.4</ele>
        <time>2022-06-06T06:45:14Z</time>
      </trkpt>
      <trkpt lat="48.0728360" lon="8.1875060">
        <ele>450.0</ele>
        <time>2022-06-06T06:45:18Z</time>
      </trkpt>
      <trkpt lat="48.0726460" lon="8.1876450">
        <ele>449.6</ele>
        <time>2022-06-06T06:45:22Z</time>
      </trkpt>
      <trkpt lat="48.0724700" lon="8.1878110">
        <ele>449.4</ele>
        <time>2022-06-06T06:45:26Z</time>
      </trkpt>
      <trkpt lat="48.0722810" lon="8.1879760">
        <ele>449.6</ele>
        <time>2022-06-06T06:45:30Z</time>
      </trkpt>
      <trkpt lat="48.0721000" lon="8.1881750">
        <ele>449.4</ele>
        <time>2022-06-06T06:45:34Z</time>
      </trkpt>
      <trkpt lat="48.0719160" lon="8.1883680">
        <ele>448.0</ele>
        <time>2022-06-06T06:45:38Z</time>
      </trkpt>
      <trkpt lat="48.0717210" lon="8.1885610">
        <ele>449.0</ele>
        <time>2022-06-06T06:45:42Z</time>
      </trkpt>
      <trkpt lat="48.0715330" lon="8.1887630">
        <ele>448.0</ele>
        <time>2022-06-06T06:45:46Z</time>
      </trkpt>
      <trkpt lat="48.0713380" lon="8.1889550">
        <ele>447.0</ele>
        <time>2022-06-06T06:45:50Z</time>
      </trkpt>
      <trkpt lat="48.0711380" lon="8.1891610">
        <ele>446.2</ele>
        <time>2022-06-06T06:45:54Z</time>
      </trkpt>
      <trkpt lat="48.0709350" lon="8.1893580">
        <ele>445.6</ele>
        <time>2022-06-06T06:45:58Z</time>
      </trkpt>
      <trkpt lat="48.0707300" lon="8.1895580">
        <ele>443.8</ele>
        <time>2022-06-06T06:46:02Z</time>
      </trkpt>
      <trkpt lat="48.0705200" lon="8.1897750">
        <ele>443.8</ele>
        <time>2022-06-06T06:46:06Z</time>
      </trkpt>
      <trkpt lat="48.0703130" lon="8.1900230">
        <ele>443.2</ele>
        <time>2022-06-06T06:46:10Z</time>
      </trkpt>
      <trkpt lat="48.0701210" lon="8.1903110">
        <ele>442.8</ele>
        <time>2022-06-06T06:46:14Z</time>
      </trkpt>
      <trkpt lat="48.0699400" lon="8.1906130">
        <ele>441.6</ele>
        <time>2022-06-06T06:46:18Z</time>
      </trkpt>
      <trkpt lat="48.0697650" lon="8.1909260">
        <ele>441.2</ele>
        <time>2022-06-06T06:46:22Z</time>
      </trkpt>
      <trkpt lat="48.0695900" lon="8.1912210">
        <ele>441.2</ele>
        <time>2022-06-06T06:46:26Z</time>
      </trkpt>
      <trkpt lat="48.0693960" lon="8.1914800">
        <ele>440.8</ele>
        <time>2022-06-06T06:46:30Z</time>
      </trkpt>
      <trkpt lat="48.0691750" lon="8.1916800">
        <ele>440.8</ele>
        <time>2022-06-06T06:46:34Z</time>
      </trkpt>
      <trkpt lat="48.0689310" lon="8.1918450">
        <ele>440.4</ele>
        <time>2022-06-06T06:46:38Z</time>
      </trkpt>
      <trkpt lat="48.0686800" lon="8.1919580">
        <ele>439.6</ele>
        <time>2022-06-06T06:46:42Z</time>
      </trkpt>
      <trkpt lat="48.0684230" lon="8.1920480">
        <ele>440.0</ele>
        <time>2022-06-06T06:46:46Z</time>
      </trkpt>
      <trkpt lat="48.0681780" lon="8.1921610">
        <ele>439.8</ele>
        <time>2022-06-06T06:46:50Z</time>
      </trkpt>
      <trkpt lat="48.0679430" lon="8.1922850">
        <ele>439.6</ele>
        <time>2022-06-06T06:46:54Z</time>
      </trkpt>
      <trkpt lat="48.0677160" lon="8.1924330">
        <ele>438.8</ele>
        <time>2022-06-06T06:46:58Z</time>
      </trkpt>
      <trkpt lat="48.0675080" lon="8.1926150">
        <ele>438.6</ele>
        <time>2022-06-06T06:47:02Z</time>
      </trkpt>
      <trkpt lat="48.0673030" lon="8.1927960">
        <ele>438.6</ele>
        <time>2022-06-06T06:47:06Z</time>
      </trkpt>
      <trkpt lat="48.0671060" lon="8.1929810">
        <ele>437.8</ele>
        <time>2022-06-06T06:47:10Z</time>
      </trkpt>
      <trkpt lat="48.0669080" lon="8.1931630">
        <ele>437.6</ele>
        <time>2022-06-06T06:47:14Z</time>
      </trkpt>
      <trkpt lat="48.0667110" lon="8.1933460">
        <ele>437.2</ele>
        <time>2022-06-06T06:47:18Z</time>
      </trkpt>
      <trkpt lat="48.0665160" lon="8.1935360">
        <ele>437.2</ele>
        <time>2022-06-06T06:47:22Z</time>
      </trkpt>
      <trkpt lat="48.0663230" lon="8.1937330">
        <ele>437.2</ele>
        <time>2022-06-06T06:47:26Z</time>
      </trkpt>
      <trkpt lat="48.0661350" lon="8.1939350">
        <ele>437.0</ele>
        <time>2022-06-06T06:47:30Z</time>
      </trkpt>
      <trkpt lat="48.0659530" lon="8.1941550">
        <ele>436.6</ele>
        <time>2022-06-06T06:47:34Z</time>
      </trkpt>
      <trkpt lat="48.0657700" lon="8.1943780">
        <ele>436.4</ele>
        <time>2022-06-06T06:47:38Z</time>
      </trkpt>
      <trkpt lat="48.0655860" lon="8.1945980">
        <ele>435.4</ele>
        <time>2022-06-06T06:47:42Z</time>
      </trkpt>
      <trkpt lat="48.0653910" lon="8.1947980">
        <ele>435.0</ele>
        <time>2022-06-06T06:47:46Z</time>
      </trkpt>
      <trkpt lat="48.0651910" lon="8.1949580">
        <ele>434.4</ele>
        <time>2022-06-06T06:47:50Z</time>
      </trkpt>
      <trkpt lat="48.0649900" lon="8.1950910">
        <ele>435.6</ele>
        <time>2022-06-06T06:47:54Z</time>
      </trkpt>
      <trkpt lat="48.0647850" lon="8.1951860">
        <ele>434.6</ele>
        <time>2022-06-06T06:47:58Z</time>
      </trkpt>
      <trkpt lat="48.0645730" lon="8.1952850">
        <ele>434.4</ele>
        <time>2022-06-06T06:48:02Z</time>
      </trkpt>
      <trkpt lat="48.0643480" lon="8.1953660">
        <ele>434.0</ele>
        <time>2022-06-06T06:48:06Z</time>
      </trkpt>
      <trkpt lat="48.0641250" lon="8.1954430">
        <ele>433.4</ele>
        <time>2022-06-06T06:48:10Z</time>
      </trkpt>
      <trkpt lat="48.0639010" lon="8.1955030">
        <ele>433.6</ele>
        <time>2022-06-06T06:48:14Z</time>
      </trkpt>
      <trkpt lat="48.0636760" lon="8.1955560">
        <ele>433.4</ele>
        <time>2022-06-06T06:48:18Z</time>
      </trkpt>
      <trkpt lat="48.0634460" lon="8.1955980">
        <ele>433.4</ele>
        <time>2022-06-06T06:48:22Z</time>
      </trkpt>
      <trkpt lat="48.0632130" lon="8.1956300">
        <ele>433.0</ele>
        <time>2022-06-06T06:48:26Z</time>
      </trkpt>
      <trkpt lat="48.0629880" lon="8.1956630">
        <ele>432.8</ele>
        <time>2022-06-06T06:48:30Z</time>
      </trkpt>
      <trkpt lat="48.0627630" lon="8.1957330">
        <ele>432.6</ele>
        <time>2022-06-06T06:48:34Z</time>
      </trkpt>
      <trkpt lat="48.0625380" lon="8.1958260">
        <ele>432.6</ele>
        <time>2022-06-06T06:48:38Z</time>
      </trkpt>
      <trkpt lat="48.0623130" lon="8.1959350">
        <ele>431.8</ele>
        <time>2022-06-06T06:48:42Z</time>
      </trkpt>
      <trkpt lat="48.0620930" lon="8.1960560">
        <ele>432.0</ele>
        <time>2022-06-06T06:48:46Z</time>
      </trkpt>
      <trkpt lat="48.0618810" lon="8.1961780">
        <ele>432.0</ele>
        <time>2022-06-06T06:48:50Z</time>
      </trkpt>
      <trkpt lat="48.0616810" lon="8.1963180">
        <ele>431.6</ele>
        <time>2022-06-06T06:48:54Z</time>
      </trkpt>
      <trkpt lat="48.0614860" lon="8.1964730">
        <ele>432.0</ele>
        <time>2022-06-06T06:48:58Z</time>
      </trkpt>
      <trkpt lat="48.0613000" lon="8.1966230">
        <ele>431.6</ele>
        <time>2022-06-06T06:49:02Z</time>
      </trkpt>
      <trkpt lat="48.0611200" lon="8.1967780">
        <ele>431.2</ele>
        <time>2022-06-06T06:49:06Z</time>
      </trkpt>
      <trkpt lat="48.0609560" lon="8.1969300">
        <ele>432.0</ele>
        <time>2022-06-06T06:49:10Z</time>
      </trkpt>
      <trkpt lat="48.0608050" lon="8.1970710">
        <ele>432.2</ele>
        <time>2022-06-06T06:49:14Z</time>
      </trkpt>
      <trkpt lat="48.0606580" lon="8.1972250">
        <ele>431.8</ele>
        <time>2022-06-06T06:49:18Z</time>
      </trkpt>
      <trkpt lat="48.0605060" lon="8.1973760">
        <ele>431.2</ele>
        <time>2022-06-06T06:49:22Z</time>
      </trkpt>
      <trkpt lat="48.0603530" lon="8.1975500">
        <ele>430.8</ele>
        <time>2022-06-06T06:49:26Z</time>
      </trkpt>
      <trkpt lat="48.0601910" lon="8.1977250">
        <ele>431.0</ele>
        <time>2022-06-06T06:49:30Z</time>
      </trkpt>
      <trkpt lat="48.0600260" lon="8.1979050">
        <ele>431.0</ele>
        <time>2022-06-06T06:49:34Z</time>
      </trkpt>
      <trkpt lat="48.0598560" lon="8.1980860">
        <ele>430.6</ele>
        <time>2022-06-06T06:49:38Z</time>
      </trkpt>
      <trkpt lat="48.0596830" lon="8.1982660">
        <ele>430.0</ele>
        <time>2022-06-06T06:49:42Z</time>
      </trkpt>
      <trkpt lat="48.0595150" lon="8.1984450">
        <ele>429.6</ele>
        <time>2022-06-06T06:49:46Z</time>
      </trkpt>
      <trkpt lat="48.0593500" lon="8.1986260">
        <ele>429.8</ele>
        <time>2022-06-06T06:49:50Z</time>
      </trkpt>
      <trkpt lat="48.0591880" lon="8.1988030">
        <ele>430.2</ele>
        <time>2022-06-06T06:49:54Z</time>
      </trkpt>
      <trkpt lat="48.0590330" lon="8.1989860">
        <ele>430.2</ele>
        <time>2022-06-06T06:49:58Z</time>
      </trkpt>
      <trkpt lat="48.0588850" lon="8.1991710">
        <ele>429.0</ele>
        <time>2022-06-06T06:50:02Z</time>
      </trkpt>
      <trkpt lat="48.0587530" lon="8.1993650">
        <ele>429.6</ele>
        <time>2022-06-06T06:50:06Z</time>
      </trkpt>
      <trkpt lat="48.0586310" lon="8.1995530">
        <ele>429.0</ele>
        <time>2022-06-06T06:50:10Z</time>
      </trkpt>
      <trkpt lat="48.0585030" lon="8.1997280">
        <ele>429.2</ele>
        <time>2022-06-06T06:50:14Z</time>
      </trkpt>
      <trkpt lat="48.0583600" lon="8.1999110">
        <ele>429.6</ele>
        <time>2022-06-06T06:50:18Z</time>
      </trkpt>
      <trkpt lat="48.0582150" lon="8.2000680">
        <ele>429.6</ele>
        <time>2022-06-06T06:50:22Z</time>
      </trkpt>
      <trkpt lat="48.0580610" lon="8.2002000">
        <ele>429.4</ele>
        <time>2022-06-06T06:50:26Z</time>
      </trkpt>
      <trkpt lat="48.0579130" lon="8.2003230">
        <ele>430.2</ele>
        <time>2022-06-06T06:50:30Z</time>
      </trkpt>
      <trkpt lat="48.0577580" lon="8.2004300">
        <ele>430.0</ele>
        <time>2022-06-06T06:50:34Z</time>
      </trkpt>
      <trkpt lat="48.0576000" lon="8.2005300">
        <ele>429.6</ele>
        <time>2022-06-06T06:50:38Z</time>
      </trkpt>
      <trkpt lat="48.0574510" lon="8.2006480">
        <ele>429.6</ele>
        <time>2022-06-06T06:50:42Z</time>
      </trkpt>
      <trkpt lat="48.0573080" lon="8.2008080">
        <ele>429.4</ele>
        <time>2022-06-06T06:50:46Z</time>
      </trkpt>
      <trkpt lat="48.0571900" lon="8.2010130">
        <ele>429.2</ele>
        <time>2022-06-06T06:50:50Z</time>
      </trkpt>
      <trkpt lat="48.0570880" lon="8.2012400">
        <ele>429.4</ele>
        <time>2022-06-06T06:50:54Z</time>
      </trkpt>
      <trkpt lat="48.0570100" lon="8.2014710">
        <ele>428.8</ele>
        <time>2022-06-06T06:50:58Z</time>
      </trkpt>
      <trkpt lat="48.0569160" lon="8.2016960">
        <ele>427.6</ele>
        <time>2022-06-06T06:51:02Z</time>
      </trkpt>
      <trkpt lat="48.0567900" lon="8.2019150">
        <ele>425.8</ele>
        <time>2022-06-06T06:51:06Z</time>
      </trkpt>
      <trkpt lat="48.0566080" lon="8.2021350">
        <ele>425.0</ele>
        <time>2022-06-06T06:51:10Z</time>
      </trkpt>
      <trkpt lat="48.0563760" lon="8.2022960">
        <ele>422.8</ele>
        <time>2022-06-06T06:51:14Z</time>
      </trkpt>
      <trkpt lat="48.0561900" lon="8.2025000">
        <ele>421.2</ele>
        <time>2022-06-06T06:51:18Z</time>
      </trkpt>
      <trkpt lat="48.0560980" lon="8.2027280">
        <ele>420.4</ele>
        <time>2022-06-06T06:51:22Z</time>
      </trkpt>
      <trkpt lat="48.0560460" lon="8.2028300">
        <ele>419.6</ele>
        <time>2022-06-06T06:51:26Z</time>
      </trkpt>
      <trkpt lat="48.0560460" lon="8.2028300">
        <ele>419.8</ele>
        <time>2022-06-06T06:51:30Z</time>
      </trkpt>
      <trkpt lat="48.0560460" lon="8.2028300">
        <ele>420.0</ele>
        <time>2022-06-06T06:51:34Z</time>
      </trkpt>
      <trkpt lat="48.0560460" lon="8.2028300">
        <ele>420.0</ele>
        <time>2022-06-06T06:51:38Z</time>
      </trkpt>
      <trkpt lat="48.0560460" lon="8.2028300">
        <ele>419.8</ele>
        <time>2022-06-06T06:51:42Z</time>
      </trkpt>
      <trkpt lat="48.0560460" lon="8.2028300">
        <ele>419.6</ele>
        <time>2022-06-06T06:51:46Z</time>
      </trkpt>
      <trkpt lat="48.0560460" lon="8.2028300">
        <ele>419.6</ele>
        <time>2022-06-06T06:51:50Z</time>
      </trkpt>
      <trkpt lat="48.0560460" lon="8.2028300">
        <ele>419.8</ele>
        <time>2022-06-06T06:51:54Z</time>
      </trkpt>
      <trkpt lat="48.0560460" lon="8.2028300">
        <ele>419.4</ele>
        <time>2022-06-06T06:51:58Z</time>
      </trkpt>
      <trkpt lat="48.0560460" lon="8.2028300">
        <ele>419.8</ele>
        <time>2022-06-06T06:52:02Z</time>
      </trkpt>
      <trkpt lat="48.0560460" lon="8.2028300">
        <ele>419.6</ele>
        <time>2022-06-06T06:52:06Z</time>
      </trkpt>
      <trkpt lat="48.0560460" lon="8.2028300">
        <ele>419.6</ele>
        <time>2022-06-06T06:52:10Z</time>
      </trkpt>
      <trkpt lat="48.0560460" lon="8.2028300">
        <ele>419.8</ele>
        <time>2022-06-06T06:52:14Z</time>
      </trkpt>
      <trkpt lat="48.0560460" lon="8.2028300">
        <ele>419.8</ele>
        <time>2022-06-06T06:52:18Z</time>
      </trkpt>
      <trkpt lat="48.0560460" lon="8.2028300">
        <ele>419.6</ele>
        <time>2022-06-06T06:52:22Z</time>
      </trkpt>
      <trkpt lat="48.0560250" lon="8.2028750">
        <ele>419.8</ele>
        <time>2022-06-06T06:52:26Z</time>
      </trkpt>
      <trkpt lat="48.0559930" lon="8.2028980">
        <ele>419.6</ele>
        <time>2022-06-06T06:52:30Z</time>
      </trkpt>
      <trkpt lat="48.0559210" lon="8.2029180">
        <ele>420.0</ele>
        <time>2022-06-06T06:52:34Z</time>
      </trkpt>
      <trkpt lat="48.0558530" lon="8.2028930">
        <ele>420.2</ele>
        <time>2022-06-06T06:52:38Z</time>
      </trkpt>
      <trkpt lat="48.0557780" lon="8.2028980">
        <ele>420.2</ele>
        <time>2022-06-06T06:52:42Z</time>
      </trkpt>
      <trkpt lat="48.0557050" lon="8.2028880">
        <ele>420.2</ele>
        <time>2022-06-06T06:52:46Z</time>
      </trkpt>
      <trkpt lat="48.0556300" lon="8.2028900">
        <ele>420.6</ele>
        <time>2022-06-06T06:52:50Z</time>
      </trkpt>
      <trkpt lat="48.0555130" lon="8.2029130">
        <ele>421.0</ele>
        <time>2022-06-06T06:52:54Z</time>
      </trkpt>
      <trkpt lat="48.0553760" lon="8.2029360">
        <ele>421.0</ele>
        <time>2022-06-06T06:52:58Z</time>
      </trkpt>
      <trkpt lat="48.0552410" lon="8.2029610">
        <ele>421.4</ele>
        <time>2022-06-06T06:53:02Z</time>
      </trkpt>
      <trkpt lat="48.0551080" lon="8.2029700">
        <ele>421.8</ele>
        <time>2022-06-06T06:53:06Z</time>
      </trkpt>
      <trkpt lat="48.0549760" lon="8.2029780">
        <ele>422.0</ele>
        <time>2022-06-06T06:53:10Z</time>
      </trkpt>
      <trkpt lat="48.0548480" lon="8.2029750">
        <ele>422.2</ele>
        <time>2022-06-06T06:53:14Z</time>
      </trkpt>
      <trkpt lat="48.0547150" lon="8.2029600">
        <ele>422.2</ele>
        <time>2022-06-06T06:53:18Z</time>
      </trkpt>
      <trkpt lat="48.0545600" lon="8.2030050">
        <ele>422.6</ele>
        <time>2022-06-06T06:53:22Z</time>
      </trkpt>
      <trkpt lat="48.0544050" lon="8.2030530">
        <ele>422.6</ele>
        <time>2022-06-06T06:53:26Z</time>
      </trkpt>
      <trkpt lat="48.0542510" lon="8.2030730">
        <ele>422.4</ele>
        <time>2022-06-06T06:53:30Z</time>
      </trkpt>
      <trkpt lat="48.0540810" lon="8.2031700">
        <ele>422.2</ele>
        <time>2022-06-06T06:53:34Z</time>
      </trkpt>
      <trkpt lat="48.0539010" lon="8.2032510">
        <ele>421.2</ele>
        <time>2022-06-06T06:53:38Z</time>
      </trkpt>
      <trkpt lat="48.0537210" lon="8.2033780">
        <ele>421.0</ele>
        <time>2022-06-06T06:53:42Z</time>
      </trkpt>
      <trkpt lat="48.0535510" lon="8.2034860">
        <ele>419.8</ele>
        <time>2022-06-06T06:53:46Z</time>
      </trkpt>
      <trkpt lat="48.0533910" lon="8.2035960">
        <ele>419.4</ele>
        <time>2022-06-06T06:53:50Z</time>
      </trkpt>
      <trkpt lat="48.0532400" lon="8.2037280">
        <ele>418.4</ele>
        <time>2022-06-06T06:53:54Z</time>
      </trkpt>
      <trkpt lat="48.0530900" lon="8.2038500">
        <ele>419.0</ele>
        <time>2022-06-06T06:53:58Z</time>
      </trkpt>
      <trkpt lat="48.0529350" lon="8.2039960">
        <ele>418.4</ele>
        <time>2022-06-06T06:54:02Z</time>
      </trkpt>
      <trkpt lat="48.0527950" lon="8.2041830">
        <ele>418.0</ele>
        <time>2022-06-06T06:54:06Z</time>
      </trkpt>
      <trkpt lat="48.0526460" lon="8.2043280">
        <ele>417.6</ele>
        <time>2022-06-06T06:54:10Z</time>
      </trkpt>
      <trkpt lat="48.0526460" lon="8.2043280">
        <ele>418.0</ele>
        <time>2022-06-06T06:54:14Z</time>
      </trkpt>
      <trkpt lat="48.0525800" lon="8.2044130">
        <ele>417.8</ele>
        <time>2022-06-06T06:54:18Z</time>
      </trkpt>
      <trkpt lat="48.0525800" lon="8.2044130">
        <ele>417.8</ele>
        <time>2022-06-06T06:54:22Z</time>
      </trkpt>
      <trkpt lat="48.0525800" lon="8.2044130">
        <ele>418.0</ele>
        <time>2022-06-06T06:54:26Z</time>
      </trkpt>
      <trkpt lat="48.0525800" lon="8.2044130">
        <ele>417.4</ele>
        <time>2022-06-06T06:54:30Z</time>
      </trkpt>
      <trkpt lat="48.0525800" lon="8.2044130">
        <ele>417.8</ele>
        <time>2022-06-06T06:54:34Z</time>
      </trkpt>
      <trkpt lat="48.0525800" lon="8.2044130">
        <ele>418.0</ele>
        <time>2022-06-06T06:54:38Z</time>
      </trkpt>
      <trkpt lat="48.0525800" lon="8.2044130">
        <ele>417.6</ele>
        <time>2022-06-06T06:54:42Z</time>
      </trkpt>
      <trkpt lat="48.0525830" lon="8.2044260">
        <ele>417.4</ele>
        <time>2022-06-06T06:54:46Z</time>
      </trkpt>
      <trkpt lat="48.0525310" lon="8.2044610">
        <ele>417.2</ele>
        <time>2022-06-06T06:54:50Z</time>
      </trkpt>
      <trkpt lat="48.0524750" lon="8.2045280">
        <ele>417.4</ele>
        <time>2022-06-06T06:54:54Z</time>
      </trkpt>
      <trkpt lat="48.0523800" lon="8.2046000">
        <ele>416.2</ele>
        <time>2022-06-06T06:54:58Z</time>
      </trkpt>
      <trkpt lat="48.0522680" lon="8.2047330">
        <ele>416.4</ele>
        <time>2022-06-06T06:55:02Z</time>
      </trkpt>
      <trkpt lat="48.0521330" lon="8.2048660">
        <ele>416.4</ele>
        <time>2022-06-06T06:55:06Z</time>
      </trkpt>
      <trkpt lat="48.0520250" lon="8.2050300">
        <ele>415.6</ele>
        <time>2022-06-06T06:55:10Z</time>
      </trkpt>
      <trkpt lat="48.0518710" lon="8.2051710">
        <ele>415.4</ele>
        <time>2022-06-06T06:55:14Z</time>
      </trkpt>
      <trkpt lat="48.0517280" lon="8.2053210">
        <ele>414.6</ele>
        <time>2022-06-06T06:55:18Z</time>
      </trkpt>
      <trkpt lat="48.0516150" lon="8.2054480">
        <ele>414.2</ele>
        <time>2022-06-06T06:55:22Z</time>
      </trkpt>
      <trkpt lat="48.0515250" lon="8.2054610">
        <ele>414.4</ele>
        <time>2022-06-06T06:55:26Z</time>
      </trkpt>
      <trkpt lat="48.0515250" lon="8.2054610">
        <ele>414.6</ele>
        <time>2022-06-06T06:55:30Z</time>
      </trkpt>
      <trkpt lat="48.0515250" lon="8.2054610">
        <ele>414.6</ele>
        <time>2022-06-06T06:55:34Z</time>
      </trkpt>
      <trkpt lat="48.0515250" lon="8.2054610">
        <ele>414.4</ele>
        <time>2022-06-06T06:55:38Z</time>
      </trkpt>
      <trkpt lat="48.0515250" lon="8.2054610">
        <ele>414.6</ele>
        <time>2022-06-06T06:55:42Z</time>
      </trkpt>
      <trkpt lat="48.0515250" lon="8.2054610">
        <ele>414.6</ele>
        <time>2022-06-06T06:55:46Z</time>
      </trkpt>
      <trkpt lat="48.0514860" lon="8.2056030">
        <ele>414.6</ele>
        <time>2022-06-06T06:55:50Z</time>
      </trkpt>
      <trkpt lat="48.0514860" lon="8.2056030">
        <ele>414.6</ele>
        <time>2022-06-06T06:55:54Z</time>
      </trkpt>
      <trkpt lat="48.0514860" lon="8.2056030">
        <ele>414.6</ele>
        <time>2022-06-06T06:55:58Z</time>
      </trkpt>
      <trkpt lat="48.0514860" lon="8.2056030">
        <ele>414.6</ele>
        <time>2022-06-06T06:56:02Z</time>
      </trkpt>
      <trkpt lat="48.0514860" lon="8.2056030">
        <ele>414.4</ele>
        <time>2022-06-06T06:56:06Z</time>
      </trkpt>
      <trkpt lat="48.0514860" lon="8.2056030">
        <ele>414.6</ele>
        <time>2022-06-06T06:56:10Z</time>
      </trkpt>
      <trkpt lat="48.0514860" lon="8.2056030">
        <ele>414.2</ele>
        <time>2022-06-06T06:56:14Z</time>
      </trkpt>
      <trkpt lat="48.0514860" lon="8.2056030">
        <ele>414.4</ele>
        <time>2022-06-06T06:56:18Z</time>
      </trkpt>
      <trkpt lat="48.0515060" lon="8.2057150">
        <ele>414.6</ele>
        <time>2022-06-06T06:56:22Z</time>
      </trkpt>
      <trkpt lat="48.0515060" lon="8.2057150">
        <ele>414.6</ele>
        <time>2022-06-06T06:56:26Z</time>
      </trkpt>
      <trkpt lat="48.0514730" lon="8.2057350">
        <ele>414.6</ele>
        <time>2022-06-06T06:56:30Z</time>
      </trkpt>
      <trkpt lat="48.0515830" lon="8.2057530">
        <ele>414.4</ele>
        <time>2022-06-06T06:56:34Z</time>
      </trkpt>
      <trkpt lat="48.0517560" lon="8.2057950">
        <ele>414.0</ele>
        <time>2022-06-06T06:56:38Z</time>
      </trkpt>
      <trkpt lat="48.0518210" lon="8.2058260">
        <ele>413.0</ele>
        <time>2022-06-06T06:56:42Z</time>
      </trkpt>
      <trkpt lat="48.0519210" lon="8.2059410">
        <ele>412.2</ele>
        <time>2022-06-06T06:56:46Z</time>
      </trkpt>
      <trkpt lat="48.0519760" lon="8.2060610">
        <ele>411.8</ele>
        <time>2022-06-06T06:56:50Z</time>
      </trkpt>
      <trkpt lat="48.0519900" lon="8.2061700">
        <ele>411.2</ele>
        <time>2022-06-06T06:56:54Z</time>
      </trkpt>
      <trkpt lat="48.0519900" lon="8.2061700">
        <ele>411.6</ele>
        <time>2022-06-06T06:56:58Z</time>
      </trkpt>
      <trkpt lat="48.0519900" lon="8.2061700">
        <ele>411.6</ele>
        <time>2022-06-06T06:57:02Z</time>
      </trkpt>
      <trkpt lat="48.0519900" lon="8.2061700">
        <ele>411.6</ele>
        <time>2022-06-06T06:57:06Z</time>
      </trkpt>
      <trkpt lat="48.0519900" lon="8.2061700">
        <ele>411.8</ele>
        <time>2022-06-06T06:57:10Z</time>
      </trkpt>
      <trkpt lat="48.0519900" lon="8.2061700">
        <ele>411.4</ele>
        <time>2022-06-06T06:57:14Z</time>
      </trkpt>
      <trkpt lat="48.0519900" lon="8.2061700">
        <ele>411.4</ele>
        <time>2022-06-06T06:57:18Z</time>
      </trkpt>
      <trkpt lat="48.0519900" lon="8.2061700">
        <ele>411.6</ele>
        <time>2022-06-06T06:57:22Z</time>
      </trkpt>
      <trkpt lat="48.0519900" lon="8.2061700">
        <ele>411.4</ele>
        <time>2022-06-06T06:57:26Z</time>
      </trkpt>
      <trkpt lat="48.0519900" lon="8.2061700">
        <ele>411.4</ele>
        <time>2022-06-06T06:57:30Z</time>
      </trkpt>
      <trkpt lat="48.0519900" lon="8.2061700">
        <ele>411.4</ele>
        <time>2022-06-06T06:57:34Z</time>
      </trkpt>
      <trkpt lat="48.0519900" lon="8.2061700">
        <ele>411.4</ele>
        <time>2022-06-06T06:57:38Z</time>
      </trkpt>
      <trkpt lat="48.0519900" lon="8.2061700">
        <ele>411.2</ele>
        <time>2022-06-06T06:57:42Z</time>
      </trkpt>
      <trkpt lat="48.0519900" lon="8.2061700">
        <ele>411.4</ele>
        <time>2022-06-06T06:57:46Z</time>
      </trkpt>
      <trkpt lat="48.0519900" lon="8.2061700">
        <ele>411.4</ele>
        <time>2022-06-06T06:57:50Z</time>
      </trkpt>
      <trkpt lat="48.0519900" lon="8.2061700">
        <ele>411.4</ele>
        <time>2022-06-06T06:57:54Z</time>
      </trkpt>
      <trkpt lat="48.0519900" lon="8.2061700">
        <ele>411.4</ele>
        <time>2022-06-06T06:57:58Z</time>
      </trkpt>
      <trkpt lat="48.0519900" lon="8.2061700">
        <ele>411.8</ele>
        <time>2022-06-06T06:58:02Z</time>
      </trkpt>
      <trkpt lat="48.0519900" lon="8.2061700">
        <ele>411.8</ele>
        <time>2022-06-06T06:58:06Z</time>
      </trkpt>
      <trkpt lat="48.0519900" lon="8.2061700">
        <ele>411.8</ele>
        <time>2022-06-06T06:58:10Z</time>
      </trkpt>
      <trkpt lat="48.0519900" lon="8.2061700">
        <ele>411.8</ele>
        <time>2022-06-06T06:58:14Z</time>
      </trkpt>
      <trkpt lat="48.0519900" lon="8.2061700">
        <ele>411.8</ele>
        <time>2022-06-06T06:58:18Z</time>
      </trkpt>
      <trkpt lat="48.0519900" lon="8.2061700">
        <ele>411.6</ele>
        <time>2022-06-06T06:58:22Z</time>
      </trkpt>
      <trkpt lat="48.0519900" lon="8.2061700">
        <ele>411.6</ele>
        <time>2022-06-06T06:58:26Z</time>
      </trkpt>
      <trkpt lat="48.0519900" lon="8.2061700">
        <ele>411.6</ele>
        <time>2022-06-06T06:58:30Z</time>
      </trkpt>
      <trkpt lat="48.0519900" lon="8.2061700">
        <ele>411.4</ele>
        <time>2022-06-06T06:58:34Z</time>
      </trkpt>
      <trkpt lat="48.0519900" lon="8.2061700">
        <ele>411.4</ele>
        <time>2022-06-06T06:58:38Z</time>
      </trkpt>
      <trkpt lat="48.0519900" lon="8.2061700">
        <ele>411.4</ele>
        <time>2022-06-06T06:58:42Z</time>
      </trkpt>
      <trkpt lat="48.0519900" lon="8.2061700">
        <ele>411.4</ele>
        <time>2022-06-06T06:58:46Z</time>
      </trkpt>
      <trkpt lat="48.0519900" lon="8.2061700">
        <ele>411.2</ele>
        <time>2022-06-06T06:58:50Z</time>
      </trkpt>
      <trkpt lat="48.0519900" lon="8.2061700">
        <ele>411.2</ele>
        <time>2022-06-06T06:58:54Z</time>
      </trkpt>
      <trkpt lat="48.0519900" lon="8.2061700">
        <ele>411.4</ele>
        <time>2022-06-06T06:58:58Z</time>
      </trkpt>
      <trkpt lat="48.0519900" lon="8.2061700">
        <ele>411.8</ele>
        <time>2022-06-06T06:59:02Z</time>
      </trkpt>
      <trkpt lat="48.0519900" lon="8.2061700">
        <ele>411.6</ele>
        <time>2022-06-06T06:59:06Z</time>
      </trkpt>
      <trkpt lat="48.0519900" lon="8.2061700">
        <ele>411.8</ele>
        <time>2022-06-06T06:59:10Z</time>
      </trkpt>
      <trkpt lat="48.0519900" lon="8.2061700">
        <ele>411.6</ele>
        <time>2022-06-06T06:59:14Z</time>
      </trkpt>
      <trkpt lat="48.0519900" lon="8.2061700">
        <ele>411.8</ele>
        <time>2022-06-06T06:59:18Z</time>
      </trkpt>
      <trkpt lat="48.0519900" lon="8.2061700">
        <ele>411.6</ele>
        <time>2022-06-06T06:59:22Z</time>
      </trkpt>
      <trkpt lat="48.0519900" lon="8.2061700">
        <ele>411.8</ele>
        <time>2022-06-06T06:59:26Z</time>
      </trkpt>
      <trkpt lat="48.0519900" lon="8.2061700">
        <ele>411.6</ele>
        <time>2022-06-06T06:59:30Z</time>
      </trkpt>
      <trkpt lat="48.0519900" lon="8.2061700">
        <ele>411.6</ele>
        <time>2022-06-06T06:59:34Z</time>
      </trkpt>
      <trkpt lat="48.0519900" lon="8.2061700">
        <ele>411.4</ele>
        <time>2022-06-06T06:59:38Z</time>
      </trkpt>
      <trkpt lat="48.0519900" lon="8.2061700">
        <ele>411.6</ele>
        <time>2022-06-06T06:59:42Z</time>
      </trkpt>
      <trkpt lat="48.0519900" lon="8.2061700">
        <ele>411.2</ele>
        <time>2022-06-06T06:59:46Z</time>
      </trkpt>
      <trkpt lat="48.0519900" lon="8.2061700">
        <ele>411.2</ele>
        <time>2022-06-06T06:59:50Z</time>
      </trkpt>
      <trkpt lat="48.0519900" lon="8.2061700">
        <ele>411.2</ele>
        <time>2022-06-06T06:59:54Z</time>
      </trkpt>
      <trkpt lat="48.0519900" lon="8.2061700">
        <ele>411.2</ele>
        <time>2022-06-06T06:59:58Z</time>
      </trkpt>
      <trkpt lat="48.0519900" lon="8.2061700">
        <ele>411.8</ele>
        <time>2022-06-06T07:00:02Z</time>
      </trkpt>
      <trkpt lat="48.0519900" lon="8.2061700">
        <ele>412.0</ele>
        <time>2022-06-06T07:00:06Z</time>
      </trkpt>
      <trkpt lat="48.0519900" lon="8.2061700">
        <ele>411.8</ele>
        <time>2022-06-06T07:00:10Z</time>
      </trkpt>
      <trkpt lat="48.0519900" lon="8.2061700">
        <ele>411.4</ele>
        <time>2022-06-06T07:00:14Z</time>
      </trkpt>
      <trkpt lat="48.0519900" lon="8.2061700">
        <ele>411.4</ele>
        <time>2022-06-06T07:00:18Z</time>
      </trkpt>
      <trkpt lat="48.0519900" lon="8.2061700">
        <ele>411.2</ele>
        <time>2022-06-06T07:00:22Z</time>
      </trkpt>
      <trkpt lat="48.0519900" lon="8.2061700">
        <ele>411.4</ele>
        <time>2022-06-06T07:00:26Z</time>
      </trkpt>
      <trkpt lat="48.0519900" lon="8.2061700">
        <ele>411.6</ele>
        <time>2022-06-06T07:00:30Z</time>
      </trkpt>
      <trkpt lat="48.0519900" lon="8.2061700">
        <ele>411.8</ele>
        <time>2022-06-06T07:00:34Z</time>
      </trkpt>
      <trkpt lat="48.0519900" lon="8.2061700">
        <ele>411.4</ele>
        <time>2022-06-06T07:00:38Z</time>
      </trkpt>
      <trkpt lat="48.0519900" lon="8.2061700">
        <ele>411.4</ele>
        <time>2022-06-06T07:00:42Z</time>
      </trkpt>
      <trkpt lat="48.0519900" lon="8.2061700">
        <ele>411.6</ele>
        <time>2022-06-06T07:00:46Z</time>
      </trkpt>
      <trkpt lat="48.0519900" lon="8.2061700">
        <ele>411.6</ele>
        <time>2022-06-06T07:00:50Z</time>
      </trkpt>
      <trkpt lat="48.0519900" lon="8.2061700">
        <ele>411.6</ele>
        <time>2022-06-06T07:00:54Z</time>
      </trkpt>
      <trkpt lat="48.0519900" lon="8.2061700">
        <ele>411.6</ele>
        <time>2022-06-06T07:00:58Z</time>
      </trkpt>
      <trkpt lat="48.0519900" lon="8.2061700">
        <ele>411.6</ele>
        <time>2022-06-06T07:01:02Z</time>
      </trkpt>
      <trkpt lat="48.0519900" lon="8.2061700">
        <ele>411.6</ele>
        <time>2022-06-06T07:01:06Z</time>
      </trkpt>
      <trkpt lat="48.0519900" lon="8.2061700">
        <ele>411.4</ele>
        <time>2022-06-06T07:01:10Z</time>
      </trkpt>
      <trkpt lat="48.0519900" lon="8.2061700">
        <ele>411.8</ele>
        <time>2022-06-06T07:01:14Z</time>
      </trkpt>
      <trkpt lat="48.0519900" lon="8.2061700">
        <ele>411.4</ele>
        <time>2022-06-06T07:01:18Z</time>
      </trkpt>
      <trkpt lat="48.0519900" lon="8.2061700">
        <ele>411.4</ele>
        <time>2022-06-06T07:01:22Z</time>
      </trkpt>
      <trkpt lat="48.0519900" lon="8.2061700">
        <ele>411.4</ele>
        <time>2022-06-06T07:01:26Z</time>
      </trkpt>
      <trkpt lat="48.0519900" lon="8.2061700">
        <ele>411.6</ele>
        <time>2022-06-06T07:01:30Z</time>
      </trkpt>
      <trkpt lat="48.0519900" lon="8.2061700">
        <ele>411.6</ele>
        <time>2022-06-06T07:01:34Z</time>
      </trkpt>
      <trkpt lat="48.0519900" lon="8.2061700">
        <ele>411.4</ele>
        <time>2022-06-06T07:01:38Z</time>
      </trkpt>
      <trkpt lat="48.0519900" lon="8.2061700">
        <ele>411.2</ele>
        <time>2022-06-06T07:01:42Z</time>
      </trkpt>
      <trkpt lat="48.0519900" lon="8.2061700">
        <ele>411.6</ele>
        <time>2022-06-06T07:01:46Z</time>
      </trkpt>
      <trkpt lat="48.0519900" lon="8.2061700">
        <ele>411.4</ele>
        <time>2022-06-06T07:01:50Z</time>
      </trkpt>
      <trkpt lat="48.0519900" lon="8.2061700">
        <ele>411.8</ele>
        <time>2022-06-06T07:01:54Z</time>
      </trkpt>
      <trkpt lat="48.0519900" lon="8.2061700">
        <ele>411.8</ele>
        <time>2022-06-06T07:01:58Z</time>
      </trkpt>
      <trkpt lat="48.0519900" lon="8.2061700">
        <ele>411.4</ele>
        <time>2022-06-06T07:02:02Z</time>
      </trkpt>
      <trkpt lat="48.0519900" lon="8.2061700">
        <ele>411.6</ele>
        <time>2022-06-06T07:02:06Z</time>
      </trkpt>
      <trkpt lat="48.0519900" lon="8.2061700">
        <ele>411.4</ele>
        <time>2022-06-06T07:02:10Z</time>
      </trkpt>
      <trkpt lat="48.0519900" lon="8.2061700">
        <ele>411.4</ele>
        <time>2022-06-06T07:02:14Z</time>
      </trkpt>
      <trkpt lat="48.0519900" lon="8.2061700">
        <ele>411.4</ele>
        <time>2022-06-06T07:02:18Z</time>
      </trkpt>
      <trkpt lat="48.0519900" lon="8.2061700">
        <ele>411.4</ele>
        <time>2022-06-06T07:02:22Z</time>
      </trkpt>
      <trkpt lat="48.0519900" lon="8.2061700">
        <ele>411.4</ele>
        <time>2022-06-06T07:02:26Z</time>
      </trkpt>
      <trkpt lat="48.0519900" lon="8.2061700">
        <ele>411.4</ele>
        <time>2022-06-06T07:02:30Z</time>
      </trkpt>
      <trkpt lat="48.0519900" lon="8.2061700">
        <ele>411.6</ele>
        <time>2022-06-06T07:02:34Z</time>
      </trkpt>
      <trkpt lat="48.0519900" lon="8.2061700">
        <ele>411.6</ele>
        <time>2022-06-06T07:02:38Z</time>
      </trkpt>
      <trkpt lat="48.0519900" lon="8.2061700">
        <ele>411.6</ele>
        <time>2022-06-06T07:02:42Z</time>
      </trkpt>
      <trkpt lat="48.0519900" lon="8.2061700">
        <ele>411.6</ele>
        <time>2022-06-06T07:02:46Z</time>
      </trkpt>
      <trkpt lat="48.0519900" lon="8.2061700">
        <ele>411.4</ele>
        <time>2022-06-06T07:02:50Z</time>
      </trkpt>
      <trkpt lat="48.0519900" lon="8.2061700">
        <ele>411.0</ele>
        <time>2022-06-06T07:02:54Z</time>
      </trkpt>
      <trkpt lat="48.0519900" lon="8.2061700">
        <ele>411.4</ele>
        <time>2022-06-06T07:02:58Z</time>
      </trkpt>
      <trkpt lat="48.0519900" lon="8.2061700">
        <ele>411.6</ele>
        <time>2022-06-06T07:03:02Z</time>
      </trkpt>
      <trkpt lat="48.0519900" lon="8.2061700">
        <ele>411.6</ele>
        <time>2022-06-06T07:03:06Z</time>
      </trkpt>
      <trkpt lat="48.0519900" lon="8.2061700">
        <ele>411.8</ele>
        <time>2022-06-06T07:03:10Z</time>
      </trkpt>
      <trkpt lat="48.0519900" lon="8.2061700">
        <ele>411.6</ele>
        <time>2022-06-06T07:03:14Z</time>
      </trkpt>
      <trkpt lat="48.0519900" lon="8.2061700">
        <ele>411.4</ele>
        <time>2022-06-06T07:03:18Z</time>
      </trkpt>
      <trkpt lat="48.0519900" lon="8.2061700">
        <ele>411.6</ele>
        <time>2022-06-06T07:03:22Z</time>
      </trkpt>
      <trkpt lat="48.0519900" lon="8.2061700">
        <ele>411.8</ele>
        <time>2022-06-06T07:03:26Z</time>
      </trkpt>
      <trkpt lat="48.0519900" lon="8.2061700">
        <ele>411.6</ele>
        <time>2022-06-06T07:03:30Z</time>
      </trkpt>
      <trkpt lat="48.0519900" lon="8.2061700">
        <ele>411.8</ele>
        <time>2022-06-06T07:03:34Z</time>
      </trkpt>
      <trkpt lat="48.0519900" lon="8.2061700">
        <ele>411.6</ele>
        <time>2022-06-06T07:03:38Z</time>
      </trkpt>
      <trkpt lat="48.0519900" lon="8.2061700">
        <ele>411.4</ele>
        <time>2022-06-06T07:03:42Z</time>
      </trkpt>
      <trkpt lat="48.0519900" lon="8.2061700">
        <ele>411.2</ele>
        <time>2022-06-06T07:03:46Z</time>
      </trkpt>
      <trkpt lat="48.0519900" lon="8.2061700">
        <ele>411.0</ele>
        <time>2022-06-06T07:03:50Z</time>
      </trkpt>
      <trkpt lat="48.0519900" lon="8.2061700">
        <ele>411.4</ele>
        <time>2022-06-06T07:03:54Z</time>
      </trkpt>
      <trkpt lat="48.0519900" lon="8.2061700">
        <ele>411.2</ele>
        <time>2022-06-06T07:03:58Z</time>
      </trkpt>
      <trkpt lat="48.0519900" lon="8.2061700">
        <ele>411.0</ele>
        <time>2022-06-06T07:04:02Z</time>
      </trkpt>
      <trkpt lat="48.0519900" lon="8.2061700">
        <ele>411.2</ele>
        <time>2022-06-06T07:04:06Z</time>
      </trkpt>
      <trkpt lat="48.0519900" lon="8.2061700">
        <ele>411.0</ele>
        <time>2022-06-06T07:04:10Z</time>
      </trkpt>
      <trkpt lat="48.0519900" lon="8.2061700">
        <ele>411.4</ele>
        <time>2022-06-06T07:04:14Z</time>
      </trkpt>
      <trkpt lat="48.0519900" lon="8.2061700">
        <ele>411.2</ele>
        <time>2022-06-06T07:04:18Z</time>
      </trkpt>
      <trkpt lat="48.0519900" lon="8.2061700">
        <ele>411.4</ele>
        <time>2022-06-06T07:04:22Z</time>
      </trkpt>
      <trkpt lat="48.0519900" lon="8.2061700">
        <ele>411.4</ele>
        <time>2022-06-06T07:04:26Z</time>
      </trkpt>
      <trkpt lat="48.0519900" lon="8.2061700">
        <ele>411.6</ele>
        <time>2022-06-06T07:04:30Z</time>
      </trkpt>
      <trkpt lat="48.0519900" lon="8.2061700">
        <ele>411.4</ele>
        <time>2022-06-06T07:04:34Z</time>
      </trkpt>
      <trkpt lat="48.0519900" lon="8.2061700">
        <ele>411.6</ele>
        <time>2022-06-06T07:04:38Z</time>
      </trkpt>
      <trkpt lat="48.0519900" lon="8.2061700">
        <ele>411.8</ele>
        <time>2022-06-06T07:04:42Z</time>
      </trkpt>
      <trkpt lat="48.0519900" lon="8.2061700">
        <ele>411.4</ele>
        <time>2022-06-06T07:04:46Z</time>
      </trkpt>
      <trkpt lat="48.0519900" lon="8.2061700">
        <ele>411.6</ele>
        <time>2022-06-06T07:04:50Z</time>
      </trkpt>
      <trkpt lat="48.0519900" lon="8.2061700">
        <ele>411.6</ele>
        <time>2022-06-06T07:04:54Z</time>
      </trkpt>
      <trkpt lat="48.0519900" lon="8.2061700">
        <ele>411.8</ele>
        <time>2022-06-06T07:04:58Z</time>
      </trkpt>
      <trkpt lat="48.0519900" lon="8.2061700">
        <ele>411.2</ele>
        <time>2022-06-06T07:05:02Z</time>
      </trkpt>
      <trkpt lat="48.0519900" lon="8.2061700">
        <ele>411.2</ele>
        <time>2022-06-06T07:05:06Z</time>
      </trkpt>
      <trkpt lat="48.0519900" lon="8.2061700">
        <ele>411.6</ele>
        <time>2022-06-06T07:05:10Z</time>
      </trkpt>
      <trkpt lat="48.0519900" lon="8.2061700">
        <ele>411.6</ele>
        <time>2022-06-06T07:05:14Z</time>
      </trkpt>
      <trkpt lat="48.0519900" lon="8.2061700">
        <ele>411.8</ele>
        <time>2022-06-06T07:05:18Z</time>
      </trkpt>
      <trkpt lat="48.0519900" lon="8.2061700">
        <ele>411.8</ele>
        <time>2022-06-06T07:05:22Z</time>
      </trkpt>
      <trkpt lat="48.0519900" lon="8.2061700">
        <ele>411.6</ele>
        <time>2022-06-06T07:05:26Z</time>
      </trkpt>
      <trkpt lat="48.0519900" lon="8.2061700">
        <ele>411.6</ele>
        <time>2022-06-06T07:05:30Z</time>
      </trkpt>
      <trkpt lat="48.0519900" lon="8.2061700">
        <ele>411.8</ele>
        <time>2022-06-06T07:05:34Z</time>
      </trkpt>
      <trkpt lat="48.0519900" lon="8.2061700">
        <ele>411.6</ele>
        <time>2022-06-06T07:05:38Z</time>
      </trkpt>
      <trkpt lat="48.0519900" lon="8.2061700">
        <ele>411.8</ele>
        <time>2022-06-06T07:05:42Z</time>
      </trkpt>
      <trkpt lat="48.0519900" lon="8.2061700">
        <ele>411.8</ele>
        <time>2022-06-06T07:05:46Z</time>
      </trkpt>
      <trkpt lat="48.0519900" lon="8.2061700">
        <ele>411.8</ele>
        <time>2022-06-06T07:05:50Z</time>
      </trkpt>
      <trkpt lat="48.0519900" lon="8.2061700">
        <ele>411.6</ele>
        <time>2022-06-06T07:05:54Z</time>
      </trkpt>
      <trkpt lat="48.0519900" lon="8.2061700">
        <ele>411.6</ele>
        <time>2022-06-06T07:05:58Z</time>
      </trkpt>
      <trkpt lat="48.0519900" lon="8.2061700">
        <ele>411.4</ele>
        <time>2022-06-06T07:06:02Z</time>
      </trkpt>
      <trkpt lat="48.0519900" lon="8.2061700">
        <ele>411.0</ele>
        <time>2022-06-06T07:06:06Z</time>
      </trkpt>
      <trkpt lat="48.0519900" lon="8.2061700">
        <ele>411.2</ele>
        <time>2022-06-06T07:06:10Z</time>
      </trkpt>
      <trkpt lat="48.0519900" lon="8.2061700">
        <ele>411.6</ele>
        <time>2022-06-06T07:06:14Z</time>
      </trkpt>
      <trkpt lat="48.0519900" lon="8.2061700">
        <ele>411.4</ele>
        <time>2022-06-06T07:06:18Z</time>
      </trkpt>
      <trkpt lat="48.0519900" lon="8.2061700">
        <ele>411.4</ele>
        <time>2022-06-06T07:06:22Z</time>
      </trkpt>
      <trkpt lat="48.0519900" lon="8.2061700">
        <ele>411.8</ele>
        <time>2022-06-06T07:06:26Z</time>
      </trkpt>
      <trkpt lat="48.0519900" lon="8.2061700">
        <ele>411.8</ele>
        <time>2022-06-06T07:06:30Z</time>
      </trkpt>
      <trkpt lat="48.0519900" lon="8.2061700">
        <ele>411.2</ele>
        <time>2022-06-06T07:06:34Z</time>
      </trkpt>
      <trkpt lat="48.0519900" lon="8.2061700">
        <ele>411.6</ele>
        <time>2022-06-06T07:06:38Z</time>
      </trkpt>
      <trkpt lat="48.0519900" lon="8.2061700">
        <ele>411.4</ele>
        <time>2022-06-06T07:06:42Z</time>
      </trkpt>
      <trkpt lat="48.0519900" lon="8.2061700">
        <ele>411.6</ele>
        <time>2022-06-06T07:06:46Z</time>
      </trkpt>
      <trkpt lat="48.0519900" lon="8.2061700">
        <ele>411.0</ele>
        <time>2022-06-06T07:06:50Z</time>
      </trkpt>
      <trkpt lat="48.0519900" lon="8.2061700">
        <ele>411.2</ele>
        <time>2022-06-06T07:06:54Z</time>
      </trkpt>
      <trkpt lat="48.0519900" lon="8.2061700">
        <ele>411.6</ele>
        <time>2022-06-06T07:06:58Z</time>
      </trkpt>
      <trkpt lat="48.0519900" lon="8.2061700">
        <ele>411.6</ele>
        <time>2022-06-06T07:07:02Z</time>
      </trkpt>
      <trkpt lat="48.0519900" lon="8.2061700">
        <ele>411.4</ele>
        <time>2022-06-06T07:07:06Z</time>
      </trkpt>
      <trkpt lat="48.0519900" lon="8.2061700">
        <ele>411.4</ele>
        <time>2022-06-06T07:07:10Z</time>
      </trkpt>
      <trkpt lat="48.0519900" lon="8.2061700">
        <ele>411.8</ele>
        <time>2022-06-06T07:07:14Z</time>
      </trkpt>
      <trkpt lat="48.0519900" lon="8.2061700">
        <ele>411.6</ele>
        <time>2022-06-06T07:07:18Z</time>
      </trkpt>
      <trkpt lat="48.0519900" lon="8.2061700">
        <ele>411.6</ele>
        <time>2022-06-06T07:07:22Z</time>
      </trkpt>
      <trkpt lat="48.0519900" lon="8.2061700">
        <ele>411.2</ele>
        <time>2022-06-06T07:07:26Z</time>
      </trkpt>
      <trkpt lat="48.0519900" lon="8.2061700">
        <ele>411.2</ele>
        <time>2022-06-06T07:07:30Z</time>
      </trkpt>
      <trkpt lat="48.0519900" lon="8.2061700">
        <ele>411.4</ele>
        <time>2022-06-06T07:07:34Z</time>
      </trkpt>
      <trkpt lat="48.0519900" lon="8.2061700">
        <ele>411.6</ele>
        <time>2022-06-06T07:07:38Z</time>
      </trkpt>
      <trkpt lat="48.0519900" lon="8.2061700">
        <ele>411.6</ele>
        <time>2022-06-06T07:07:42Z</time>
      </trkpt>
      <trkpt lat="48.0519900" lon="8.2061700">
        <ele>411.8</ele>
        <time>2022-06-06T07:07:46Z</time>
      </trkpt>
      <trkpt lat="48.0519900" lon="8.2061700">
        <ele>411.6</ele>
        <time>2022-06-06T07:07:50Z</time>
      </trkpt>
      <trkpt lat="48.0519900" lon="8.2061700">
        <ele>411.6</ele>
        <time>2022-06-06T07:07:54Z</time>
      </trkpt>
      <trkpt lat="48.0519900" lon="8.2061700">
        <ele>411.8</ele>
        <time>2022-06-06T07:07:58Z</time>
      </trkpt>
      <trkpt lat="48.0519900" lon="8.2061700">
        <ele>411.8</ele>
        <time>2022-06-06T07:08:02Z</time>
      </trkpt>
      <trkpt lat="48.0519900" lon="8.2061700">
        <ele>411.8</ele>
        <time>2022-06-06T07:08:06Z</time>
      </trkpt>
      <trkpt lat="48.0519900" lon="8.2061700">
        <ele>411.8</ele>
        <time>2022-06-06T07:08:10Z</time>
      </trkpt>
      <trkpt lat="48.0519900" lon="8.2061700">
        <ele>411.4</ele>
        <time>2022-06-06T07:08:14Z</time>
      </trkpt>
      <trkpt lat="48.0519900" lon="8.2061700">
        <ele>411.8</ele>
        <time>2022-06-06T07:08:18Z</time>
      </trkpt>
      <trkpt lat="48.0519900" lon="8.2061700">
        <ele>411.6</ele>
        <time>2022-06-06T07:08:22Z</time>
      </trkpt>
      <trkpt lat="48.0519900" lon="8.2061700">
        <ele>411.2</ele>
        <time>2022-06-06T07:08:26Z</time>
      </trkpt>
      <trkpt lat="48.0519900" lon="8.2061700">
        <ele>411.4</ele>
        <time>2022-06-06T07:08:30Z</time>
      </trkpt>
      <trkpt lat="48.0519900" lon="8.2061700">
        <ele>411.6</ele>
        <time>2022-06-06T07:08:34Z</time>
      </trkpt>
      <trkpt lat="48.0519900" lon="8.2061700">
        <ele>411.8</ele>
        <time>2022-06-06T07:08:38Z</time>
      </trkpt>
      <trkpt lat="48.0519900" lon="8.2061700">
        <ele>411.8</ele>
        <time>2022-06-06T07:08:42Z</time>
      </trkpt>
      <trkpt lat="48.0519900" lon="8.2061700">
        <ele>411.8</ele>
        <time>2022-06-06T07:08:46Z</time>
      </trkpt>
      <trkpt lat="48.0519900" lon="8.2061700">
        <ele>411.4</ele>
        <time>2022-06-06T07:08:50Z</time>
      </trkpt>
      <trkpt lat="48.0519900" lon="8.2061700">
        <ele>411.6</ele>
        <time>2022-06-06T07:08:54Z</time>
      </trkpt>
      <trkpt lat="48.0519900" lon="8.2061700">
        <ele>411.6</ele>
        <time>2022-06-06T07:08:58Z</time>
      </trkpt>
      <trkpt lat="48.0519900" lon="8.2061700">
        <ele>411.8</ele>
        <time>2022-06-06T07:09:02Z</time>
      </trkpt>
      <trkpt lat="48.0519900" lon="8.2061700">
        <ele>412.2</ele>
        <time>2022-06-06T07:09:06Z</time>
      </trkpt>
      <trkpt lat="48.0519900" lon="8.2061700">
        <ele>412.0</ele>
        <time>2022-06-06T07:09:10Z</time>
      </trkpt>
      <trkpt lat="48.0519900" lon="8.2061700">
        <ele>411.8</ele>
        <time>2022-06-06T07:09:14Z</time>
      </trkpt>
      <trkpt lat="48.0519900" lon="8.2061700">
        <ele>412.0</ele>
        <time>2022-06-06T07:09:18Z</time>
      </trkpt>
      <trkpt lat="48.0519900" lon="8.2061700">
        <ele>411.8</ele>
        <time>2022-06-06T07:09:22Z</time>
      </trkpt>
      <trkpt lat="48.0519900" lon="8.2061700">
        <ele>411.6</ele>
        <time>2022-06-06T07:09:26Z</time>
      </trkpt>
      <trkpt lat="48.0519900" lon="8.2061700">
        <ele>412.0</ele>
        <time>2022-06-06T07:09:30Z</time>
      </trkpt>
      <trkpt lat="48.0519900" lon="8.2061700">
        <ele>411.8</ele>
        <time>2022-06-06T07:09:34Z</time>
      </trkpt>
      <trkpt lat="48.0519900" lon="8.2061700">
        <ele>411.8</ele>
        <time>2022-06-06T07:09:38Z</time>
      </trkpt>
      <trkpt lat="48.0519900" lon="8.2061700">
        <ele>411.8</ele>
        <time>2022-06-06T07:09:42Z</time>
      </trkpt>
      <trkpt lat="48.0519900" lon="8.2061700">
        <ele>411.8</ele>
        <time>2022-06-06T07:09:46Z</time>
      </trkpt>
      <trkpt lat="48.0519900" lon="8.2061700">
        <ele>411.8</ele>
        <time>2022-06-06T07:09:50Z</time>
      </trkpt>
      <trkpt lat="48.0519900" lon="8.2061700">
        <ele>411.8</ele>
        <time>2022-06-06T07:09:54Z</time>
      </trkpt>
      <trkpt lat="48.0519900" lon="8.2061700">
        <ele>411.8</ele>
        <time>2022-06-06T07:09:58Z</time>
      </trkpt>
      <trkpt lat="48.0519900" lon="8.2061700">
        <ele>412.0</ele>
        <time>2022-06-06T07:10:02Z</time>
      </trkpt>
      <trkpt lat="48.0519900" lon="8.2061700">
        <ele>411.8</ele>
        <time>2022-06-06T07:10:06Z</time>
      </trkpt>
      <trkpt lat="48.0519900" lon="8.2061700">
        <ele>411.8</ele>
        <time>2022-06-06T07:10:10Z</time>
      </trkpt>
      <trkpt lat="48.0519900" lon="8.2061700">
        <ele>411.8</ele>
        <time>2022-06-06T07:10:14Z</time>
      </trkpt>
      <trkpt lat="48.0519900" lon="8.2061700">
        <ele>411.8</ele>
        <time>2022-06-06T07:10:18Z</time>
      </trkpt>
      <trkpt lat="48.0519900" lon="8.2061700">
        <ele>411.8</ele>
        <time>2022-06-06T07:10:22Z</time>
      </trkpt>
      <trkpt lat="48.0519900" lon="8.2061700">
        <ele>412.0</ele>
        <time>2022-06-06T07:10:26Z</time>
      </trkpt>
      <trkpt lat="48.0519900" lon="8.2061700">
        <ele>411.8</ele>
        <time>2022-06-06T07:10:30Z</time>
      </trkpt>
      <trkpt lat="48.0519900" lon="8.2061700">
        <ele>412.2</ele>
        <time>2022-06-06T07:10:34Z</time>
      </trkpt>
      <trkpt lat="48.0519900" lon="8.2061700">
        <ele>412.0</ele>
        <time>2022-06-06T07:10:38Z</time>
      </trkpt>
      <trkpt lat="48.0519900" lon="8.2061700">
        <ele>411.8</ele>
        <time>2022-06-06T07:10:42Z</time>
      </trkpt>
      <trkpt lat="48.0519900" lon="8.2061700">
        <ele>411.8</ele>
        <time>2022-06-06T07:10:46Z</time>
      </trkpt>
      <trkpt lat="48.0519900" lon="8.2061700">
        <ele>411.8</ele>
        <time>2022-06-06T07:10:50Z</time>
      </trkpt>
      <trkpt lat="48.0519900" lon="8.2061700">
        <ele>412.0</ele>
        <time>2022-06-06T07:10:54Z</time>
      </trkpt>
      <trkpt lat="48.0519900" lon="8.2061700">
        <ele>412.0</ele>
        <time>2022-06-06T07:10:58Z</time>
      </trkpt>
      <trkpt lat="48.0519900" lon="8.2061700">
        <ele>412.0</ele>
        <time>2022-06-06T07:11:02Z</time>
      </trkpt>
      <trkpt lat="48.0519900" lon="8.2061700">
        <ele>412.0</ele>
        <time>2022-06-06T07:11:06Z</time>
      </trkpt>
      <trkpt lat="48.0519900" lon="8.2061700">
        <ele>412.0</ele>
        <time>2022-06-06T07:11:10Z</time>
      </trkpt>
      <trkpt lat="48.0519900" lon="8.2061700">
        <ele>412.0</ele>
        <time>2022-06-06T07:11:14Z</time>
      </trkpt>
      <trkpt lat="48.0519900" lon="8.2061700">
        <ele>411.8</ele>
        <time>2022-06-06T07:11:18Z</time>
      </trkpt>
      <trkpt lat="48.0519900" lon="8.2061700">
        <ele>412.0</ele>
        <time>2022-06-06T07:11:22Z</time>
      </trkpt>
      <trkpt lat="48.0519900" lon="8.2061700">
        <ele>411.8</ele>
        <time>2022-06-06T07:11:26Z</time>
      </trkpt>
      <trkpt lat="48.0519900" lon="8.2061700">
        <ele>411.8</ele>
        <time>2022-06-06T07:11:30Z</time>
      </trkpt>
      <trkpt lat="48.0519900" lon="8.2061700">
        <ele>411.8</ele>
        <time>2022-06-06T07:11:34Z</time>
      </trkpt>
      <trkpt lat="48.0519900" lon="8.2061700">
        <ele>411.6</ele>
        <time>2022-06-06T07:11:38Z</time>
      </trkpt>
      <trkpt lat="48.0519900" lon="8.2061700">
        <ele>411.8</ele>
        <time>2022-06-06T07:11:42Z</time>
      </trkpt>
      <trkpt lat="48.0519900" lon="8.2061700">
        <ele>411.8</ele>
        <time>2022-06-06T07:11:46Z</time>
      </trkpt>
      <trkpt lat="48.0519900" lon="8.2061700">
        <ele>412.0</ele>
        <time>2022-06-06T07:11:50Z</time>
      </trkpt>
      <trkpt lat="48.0519900" lon="8.2061700">
        <ele>412.0</ele>
        <time>2022-06-06T07:11:54Z</time>
      </trkpt>
      <trkpt lat="48.0519900" lon="8.2061700">
        <ele>412.2</ele>
        <time>2022-06-06T07:11:58Z</time>
      </trkpt>
      <trkpt lat="48.0519900" lon="8.2061700">
        <ele>411.8</ele>
        <time>2022-06-06T07:12:02Z</time>
      </trkpt>
      <trkpt lat="48.0519900" lon="8.2061700">
        <ele>412.2</ele>
        <time>2022-06-06T07:12:06Z</time>
      </trkpt>
      <trkpt lat="48.0519900" lon="8.2061700">
        <ele>412.2</ele>
        <time>2022-06-06T07:12:10Z</time>
      </trkpt>
      <trkpt lat="48.0519900" lon="8.2061700">
        <ele>412.0</ele>
        <time>2022-06-06T07:12:14Z</time>
      </trkpt>
      <trkpt lat="48.0519900" lon="8.2061700">
        <ele>411.8</ele>
        <time>2022-06-06T07:12:18Z</time>
      </trkpt>
      <trkpt lat="48.0519900" lon="8.2061700">
        <ele>411.8</ele>
        <time>2022-06-06T07:12:22Z</time>
      </trkpt>
      <trkpt lat="48.0519900" lon="8.2061700">
        <ele>411.6</ele>
        <time>2022-06-06T07:12:26Z</time>
      </trkpt>
      <trkpt lat="48.0519900" lon="8.2061700">
        <ele>411.6</ele>
        <time>2022-06-06T07:12:30Z</time>
      </trkpt>
      <trkpt lat="48.0519900" lon="8.2061700">
        <ele>411.8</ele>
        <time>2022-06-06T07:12:34Z</time>
      </trkpt>
      <trkpt lat="48.0519900" lon="8.2061700">
        <ele>411.8</ele>
        <time>2022-06-06T07:12:38Z</time>
      </trkpt>
      <trkpt lat="48.0519900" lon="8.2061700">
        <ele>411.4</ele>
        <time>2022-06-06T07:12:42Z</time>
      </trkpt>
      <trkpt lat="48.0519900" lon="8.2061700">
        <ele>411.6</ele>
        <time>2022-06-06T07:12:46Z</time>
      </trkpt>
      <trkpt lat="48.0519900" lon="8.2061700">
        <ele>411.8</ele>
        <time>2022-06-06T07:12:50Z</time>
      </trkpt>
      <trkpt lat="48.0519900" lon="8.2061700">
        <ele>411.6</ele>
        <time>2022-06-06T07:12:54Z</time>
      </trkpt>
      <trkpt lat="48.0519900" lon="8.2061700">
        <ele>411.4</ele>
        <time>2022-06-06T07:12:58Z</time>
      </trkpt>
      <trkpt lat="48.0519900" lon="8.2061700">
        <ele>411.8</ele>
        <time>2022-06-06T07:13:02Z</time>
      </trkpt>
      <trkpt lat="48.0519900" lon="8.2061700">
        <ele>411.8</ele>
        <time>2022-06-06T07:13:06Z</time>
      </trkpt>
      <trkpt lat="48.0519900" lon="8.2061700">
        <ele>411.8</ele>
        <time>2022-06-06T07:13:10Z</time>
      </trkpt>
      <trkpt lat="48.0519900" lon="8.2061700">
        <ele>411.6</ele>
        <time>2022-06-06T07:13:14Z</time>
      </trkpt>
      <trkpt lat="48.0519900" lon="8.2061700">
        <ele>411.8</ele>
        <time>2022-06-06T07:13:18Z</time>
      </trkpt>
      <trkpt lat="48.0519900" lon="8.2061700">
        <ele>411.6</ele>
        <time>2022-06-06T07:13:22Z</time>
      </trkpt>
      <trkpt lat="48.0519900" lon="8.2061700">
        <ele>411.6</ele>
        <time>2022-06-06T07:13:26Z</time>
      </trkpt>
      <trkpt lat="48.0519900" lon="8.2061700">
        <ele>411.8</ele>
        <time>2022-06-06T07:13:30Z</time>
      </trkpt>
      <trkpt lat="48.0519900" lon="8.2061700">
        <ele>411.6</ele>
        <time>2022-06-06T07:13:34Z</time>
      </trkpt>
      <trkpt lat="48.0519900" lon="8.2061700">
        <ele>411.8</ele>
        <time>2022-06-06T07:13:38Z</time>
      </trkpt>
      <trkpt lat="48.0519900" lon="8.2061700">
        <ele>411.8</ele>
        <time>2022-06-06T07:13:42Z</time>
      </trkpt>
      <trkpt lat="48.0519900" lon="8.2061700">
        <ele>411.8</ele>
        <time>2022-06-06T07:13:46Z</time>
      </trkpt>
      <trkpt lat="48.0519900" lon="8.2061700">
        <ele>411.8</ele>
        <time>2022-06-06T07:13:50Z</time>
      </trkpt>
      <trkpt lat="48.0519900" lon="8.2061700">
        <ele>412.0</ele>
        <time>2022-06-06T07:13:54Z</time>
      </trkpt>
      <trkpt lat="48.0519900" lon="8.2061700">
        <ele>411.8</ele>
        <time>2022-06-06T07:13:58Z</time>
      </trkpt>
      <trkpt lat="48.0519900" lon="8.2061700">
        <ele>411.6</ele>
        <time>2022-06-06T07:14:02Z</time>
      </trkpt>
      <trkpt lat="48.0519900" lon="8.2061700">
        <ele>411.8</ele>
        <time>2022-06-06T07:14:06Z</time>
      </trkpt>
      <trkpt lat="48.0519900" lon="8.2061700">
        <ele>412.0</ele>
        <time>2022-06-06T07:14:10Z</time>
      </trkpt>
      <trkpt lat="48.0519900" lon="8.2061700">
        <ele>411.8</ele>
        <time>2022-06-06T07:14:14Z</time>
      </trkpt>
      <trkpt lat="48.0519900" lon="8.2061700">
        <ele>411.8</ele>
        <time>2022-06-06T07:14:18Z</time>
      </trkpt>
      <trkpt lat="48.0519900" lon="8.2061700">
        <ele>411.8</ele>
        <time>2022-06-06T07:14:22Z</time>
      </trkpt>
      <trkpt lat="48.0519900" lon="8.2061700">
        <ele>412.0</ele>
        <time>2022-06-06T07:14:26Z</time>
      </trkpt>
      <trkpt lat="48.0519900" lon="8.2061700">
        <ele>411.4</ele>
        <time>2022-06-06T07:14:30Z</time>
      </trkpt>
      <trkpt lat="48.0519900" lon="8.2061700">
        <ele>411.8</ele>
        <time>2022-06-06T07:14:34Z</time>
      </trkpt>
      <trkpt lat="48.0519900" lon="8.2061700">
        <ele>411.8</ele>
        <time>2022-06-06T07:14:38Z</time>
      </trkpt>
      <trkpt lat="48.0519900" lon="8.2061700">
        <ele>411.8</ele>
        <time>2022-06-06T07:14:42Z</time>
      </trkpt>
      <trkpt lat="48.0519900" lon="8.2061700">
        <ele>412.0</ele>
        <time>2022-06-06T07:14:46Z</time>
      </trkpt>
      <trkpt lat="48.0519900" lon="8.2061700">
        <ele>411.8</ele>
        <time>2022-06-06T07:14:50Z</time>
      </trkpt>
      <trkpt lat="48.0519900" lon="8.2061700">
        <ele>411.8</ele>
        <time>2022-06-06T07:14:54Z</time>
      </trkpt>
      <trkpt lat="48.0519900" lon="8.2061700">
        <ele>412.0</ele>
        <time>2022-06-06T07:14:58Z</time>
      </trkpt>
      <trkpt lat="48.0519900" lon="8.2061700">
        <ele>412.0</ele>
        <time>2022-06-06T07:15:02Z</time>
      </trkpt>
      <trkpt lat="48.0519900" lon="8.2061700">
        <ele>412.6</ele>
        <time>2022-06-06T07:15:06Z</time>
      </trkpt>
      <trkpt lat="48.0519900" lon="8.2061700">
        <ele>412.6</ele>
        <time>2022-06-06T07:15:10Z</time>
      </trkpt>
      <trkpt lat="48.0519900" lon="8.2061700">
        <ele>412.4</ele>
        <time>2022-06-06T07:15:14Z</time>
      </trkpt>
      <trkpt lat="48.0519900" lon="8.2061700">
        <ele>412.4</ele>
        <time>2022-06-06T07:15:18Z</time>
      </trkpt>
      <trkpt lat="48.0519900" lon="8.2061700">
        <ele>412.4</ele>
        <time>2022-06-06T07:15:22Z</time>
      </trkpt>
      <trkpt lat="48.0519900" lon="8.2061700">
        <ele>412.2</ele>
        <time>2022-06-06T07:15:26Z</time>
      </trkpt>
      <trkpt lat="48.0519900" lon="8.2061700">
        <ele>412.2</ele>
        <time>2022-06-06T07:15:30Z</time>
      </trkpt>
      <trkpt lat="48.0519900" lon="8.2061700">
        <ele>411.8</ele>
        <time>2022-06-06T07:15:34Z</time>
      </trkpt>
      <trkpt lat="48.0519900" lon="8.2061700">
        <ele>411.8</ele>
        <time>2022-06-06T07:15:38Z</time>
      </trkpt>
      <trkpt lat="48.0519900" lon="8.2061700">
        <ele>411.4</ele>
        <time>2022-06-06T07:15:42Z</time>
      </trkpt>
      <trkpt lat="48.0519900" lon="8.2061700">
        <ele>411.6</ele>
        <time>2022-06-06T07:15:46Z</time>
      </trkpt>
      <trkpt lat="48.0519900" lon="8.2061700">
        <ele>411.6</ele>
        <time>2022-06-06T07:15:50Z</time>
      </trkpt>
      <trkpt lat="48.0519900" lon="8.2061700">
        <ele>411.8</ele>
        <time>2022-06-06T07:15:54Z</time>
      </trkpt>
      <trkpt lat="48.0519900" lon="8.2061700">
        <ele>411.8</ele>
        <time>2022-06-06T07:15:58Z</time>
      </trkpt>
      <trkpt lat="48.0519900" lon="8.2061700">
        <ele>412.2</ele>
        <time>2022-06-06T07:16:02Z</time>
      </trkpt>
      <trkpt lat="48.0519900" lon="8.2061700">
        <ele>411.8</ele>
        <time>2022-06-06T07:16:06Z</time>
      </trkpt>
      <trkpt lat="48.0519900" lon="8.2061700">
        <ele>411.8</ele>
        <time>2022-06-06T07:16:10Z</time>
      </trkpt>
      <trkpt lat="48.0519900" lon="8.2061700">
        <ele>411.4</ele>
        <time>2022-06-06T07:16:14Z</time>
      </trkpt>
      <trkpt lat="48.0519900" lon="8.2061700">
        <ele>411.8</ele>
        <time>2022-06-06T07:16:18Z</time>
      </trkpt>
      <trkpt lat="48.0519900" lon="8.2061700">
        <ele>411.8</ele>
        <time>2022-06-06T07:16:22Z</time>
      </trkpt>
      <trkpt lat="48.0519900" lon="8.2061700">
        <ele>411.6</ele>
        <time>2022-06-06T07:16:26Z</time>
      </trkpt>
      <trkpt lat="48.0519900" lon="8.2061700">
        <ele>411.6</ele>
        <time>2022-06-06T07:16:30Z</time>
      </trkpt>
      <trkpt lat="48.0519900" lon="8.2061700">
        <ele>411.4</ele>
        <time>2022-06-06T07:16:34Z</time>
      </trkpt>
      <trkpt lat="48.0519900" lon="8.2061700">
        <ele>411.6</ele>
        <time>2022-06-06T07:16:38Z</time>
      </trkpt>
      <trkpt lat="48.0519900" lon="8.2061700">
        <ele>411.6</ele>
        <time>2022-06-06T07:16:42Z</time>
      </trkpt>
      <trkpt lat="48.0519900" lon="8.2061700">
        <ele>411.8</ele>
        <time>2022-06-06T07:16:46Z</time>
      </trkpt>
      <trkpt lat="48.0519900" lon="8.2061700">
        <ele>411.6</ele>
        <time>2022-06-06T07:16:50Z</time>
      </trkpt>
      <trkpt lat="48.0519900" lon="8.2061700">
        <ele>411.8</ele>
        <time>2022-06-06T07:16:54Z</time>
      </trkpt>
      <trkpt lat="48.0519900" lon="8.2061700">
        <ele>412.0</ele>
        <time>2022-06-06T07:16:58Z</time>
      </trkpt>
      <trkpt lat="48.0519900" lon="8.2061700">
        <ele>412.0</ele>
        <time>2022-06-06T07:17:02Z</time>
      </trkpt>
      <trkpt lat="48.0519900" lon="8.2061700">
        <ele>412.0</ele>
        <time>2022-06-06T07:17:06Z</time>
      </trkpt>
      <trkpt lat="48.0519900" lon="8.2061700">
        <ele>411.8</ele>
        <time>2022-06-06T07:17:10Z</time>
      </trkpt>
      <trkpt lat="48.0519900" lon="8.2061700">
        <ele>412.0</ele>
        <time>2022-06-06T07:17:14Z</time>
      </trkpt>
      <trkpt lat="48.0519900" lon="8.2061700">
        <ele>412.0</ele>
        <time>2022-06-06T07:17:18Z</time>
      </trkpt>
      <trkpt lat="48.0519900" lon="8.2061700">
        <ele>411.8</ele>
        <time>2022-06-06T07:17:22Z</time>
      </trkpt>
      <trkpt lat="48.0519900" lon="8.2061700">
        <ele>411.8</ele>
        <time>2022-06-06T07:17:26Z</time>
      </trkpt>
      <trkpt lat="48.0519900" lon="8.2061700">
        <ele>411.8</ele>
        <time>2022-06-06T07:17:30Z</time>
      </trkpt>
      <trkpt lat="48.0519900" lon="8.2061700">
        <ele>411.8</ele>
        <time>2022-06-06T07:17:34Z</time>
      </trkpt>
      <trkpt lat="48.0519900" lon="8.2061700">
        <ele>411.8</ele>
        <time>2022-06-06T07:17:38Z</time>
      </trkpt>
      <trkpt lat="48.0519900" lon="8.2061700">
        <ele>411.6</ele>
        <time>2022-06-06T07:17:42Z</time>
      </trkpt>
      <trkpt lat="48.0519900" lon="8.2061700">
        <ele>411.8</ele>
        <time>2022-06-06T07:17:46Z</time>
      </trkpt>
      <trkpt lat="48.0519900" lon="8.2061700">
        <ele>411.8</ele>
        <time>2022-06-06T07:17:50Z</time>
      </trkpt>
      <trkpt lat="48.0519900" lon="8.2061700">
        <ele>412.0</ele>
        <time>2022-06-06T07:17:54Z</time>
      </trkpt>
      <trkpt lat="48.0519900" lon="8.2061700">
        <ele>412.0</ele>
        <time>2022-06-06T07:17:58Z</time>
      </trkpt>
      <trkpt lat="48.0519900" lon="8.2061700">
        <ele>412.0</ele>
        <time>2022-06-06T07:18:02Z</time>
      </trkpt>
      <trkpt lat="48.0519900" lon="8.2061700">
        <ele>411.8</ele>
        <time>2022-06-06T07:18:06Z</time>
      </trkpt>
      <trkpt lat="48.0519900" lon="8.2061700">
        <ele>411.8</ele>
        <time>2022-06-06T07:18:10Z</time>
      </trkpt>
      <trkpt lat="48.0519900" lon="8.2061700">
        <ele>412.2</ele>
        <time>2022-06-06T07:18:14Z</time>
      </trkpt>
      <trkpt lat="48.0519900" lon="8.2061700">
        <ele>412.0</ele>
        <time>2022-06-06T07:18:18Z</time>
      </trkpt>
      <trkpt lat="48.0519900" lon="8.2061700">
        <ele>411.8</ele>
        <time>2022-06-06T07:18:22Z</time>
      </trkpt>
      <trkpt lat="48.0519900" lon="8.2061700">
        <ele>411.8</ele>
        <time>2022-06-06T07:18:26Z</time>
      </trkpt>
      <trkpt lat="48.0519900" lon="8.2061700">
        <ele>411.8</ele>
        <time>2022-06-06T07:18:30Z</time>
      </trkpt>
      <trkpt lat="48.0519900" lon="8.2061700">
        <ele>411.6</ele>
        <time>2022-06-06T07:18:34Z</time>
      </trkpt>
      <trkpt lat="48.0519900" lon="8.2061700">
        <ele>411.4</ele>
        <time>2022-06-06T07:18:38Z</time>
      </trkpt>
      <trkpt lat="48.0519900" lon="8.2061700">
        <ele>411.6</ele>
        <time>2022-06-06T07:18:42Z</time>
      </trkpt>
      <trkpt lat="48.0519900" lon="8.2061700">
        <ele>411.4</ele>
        <time>2022-06-06T07:18:46Z</time>
      </trkpt>
      <trkpt lat="48.0519900" lon="8.2061700">
        <ele>411.6</ele>
        <time>2022-06-06T07:18:50Z</time>
      </trkpt>
      <trkpt lat="48.0519900" lon="8.2061700">
        <ele>411.8</ele>
        <time>2022-06-06T07:18:54Z</time>
      </trkpt>
      <trkpt lat="48.0519900" lon="8.2061700">
        <ele>411.6</ele>
        <time>2022-06-06T07:18:58Z</time>
      </trkpt>
      <trkpt lat="48.0519900" lon="8.2061700">
        <ele>411.6</ele>
        <time>2022-06-06T07:19:02Z</time>
      </trkpt>
      <trkpt lat="48.0519900" lon="8.2061700">
        <ele>411.6</ele>
        <time>2022-06-06T07:19:06Z</time>
      </trkpt>
      <trkpt lat="48.0519900" lon="8.2061700">
        <ele>411.6</ele>
        <time>2022-06-06T07:19:10Z</time>
      </trkpt>
      <trkpt lat="48.0519900" lon="8.2061700">
        <ele>411.6</ele>
        <time>2022-06-06T07:19:14Z</time>
      </trkpt>
      <trkpt lat="48.0519900" lon="8.2061700">
        <ele>411.6</ele>
        <time>2022-06-06T07:19:18Z</time>
      </trkpt>
      <trkpt lat="48.0519900" lon="8.2061700">
        <ele>411.8</ele>
        <time>2022-06-06T07:19:22Z</time>
      </trkpt>
      <trkpt lat="48.0519900" lon="8.2061700">
        <ele>411.8</ele>
        <time>2022-06-06T07:19:26Z</time>
      </trkpt>
      <trkpt lat="48.0519900" lon="8.2061700">
        <ele>411.6</ele>
        <time>2022-06-06T07:19:30Z</time>
      </trkpt>
      <trkpt lat="48.0519900" lon="8.2061700">
        <ele>411.4</ele>
        <time>2022-06-06T07:19:34Z</time>
      </trkpt>
      <trkpt lat="48.0519900" lon="8.2061700">
        <ele>411.2</ele>
        <time>2022-06-06T07:19:38Z</time>
      </trkpt>
      <trkpt lat="48.0519900" lon="8.2061700">
        <ele>411.6</ele>
        <time>2022-06-06T07:19:42Z</time>
      </trkpt>
      <trkpt lat="48.0519900" lon="8.2061700">
        <ele>411.8</ele>
        <time>2022-06-06T07:19:46Z</time>
      </trkpt>
      <trkpt lat="48.0519900" lon="8.2061700">
        <ele>411.8</ele>
        <time>2022-06-06T07:19:50Z</time>
      </trkpt>
      <trkpt lat="48.0519900" lon="8.2061700">
        <ele>411.8</ele>
        <time>2022-06-06T07:19:54Z</time>
      </trkpt>
      <trkpt lat="48.0519900" lon="8.2061700">
        <ele>411.6</ele>
        <time>2022-06-06T07:19:58Z</time>
      </trkpt>
      <trkpt lat="48.0519900" lon="8.2061700">
        <ele>411.8</ele>
        <time>2022-06-06T07:20:02Z</time>
      </trkpt>
      <trkpt lat="48.0519900" lon="8.2061700">
        <ele>411.6</ele>
        <time>2022-06-06T07:20:06Z</time>
      </trkpt>
      <trkpt lat="48.0519900" lon="8.2061700">
        <ele>411.6</ele>
        <time>2022-06-06T07:20:10Z</time>
      </trkpt>
      <trkpt lat="48.0519900" lon="8.2061700">
        <ele>411.8</ele>
        <time>2022-06-06T07:20:14Z</time>
      </trkpt>
      <trkpt lat="48.0519900" lon="8.2061700">
        <ele>411.4</ele>
        <time>2022-06-06T07:20:18Z</time>
      </trkpt>
      <trkpt lat="48.0519900" lon="8.2061700">
        <ele>411.6</ele>
        <time>2022-06-06T07:20:22Z</time>
      </trkpt>
      <trkpt lat="48.0519900" lon="8.2061700">
        <ele>411.6</ele>
        <time>2022-06-06T07:20:26Z</time>
      </trkpt>
      <trkpt lat="48.0519900" lon="8.2061700">
        <ele>411.8</ele>
        <time>2022-06-06T07:20:30Z</time>
      </trkpt>
      <trkpt lat="48.0519900" lon="8.2061700">
        <ele>411.6</ele>
        <time>2022-06-06T07:20:34Z</time>
      </trkpt>
      <trkpt lat="48.0519900" lon="8.2061700">
        <ele>411.2</ele>
        <time>2022-06-06T07:20:38Z</time>
      </trkpt>
      <trkpt lat="48.0519900" lon="8.2061700">
        <ele>411.4</ele>
        <time>2022-06-06T07:20:42Z</time>
      </trkpt>
      <trkpt lat="48.0519900" lon="8.2061700">
        <ele>411.6</ele>
        <time>2022-06-06T07:20:46Z</time>
      </trkpt>
      <trkpt lat="48.0519900" lon="8.2061700">
        <ele>411.4</ele>
        <time>2022-06-06T07:20:50Z</time>
      </trkpt>
      <trkpt lat="48.0519900" lon="8.2061700">
        <ele>411.8</ele>
        <time>2022-06-06T07:20:54Z</time>
      </trkpt>
      <trkpt lat="48.0519900" lon="8.2061700">
        <ele>411.8</ele>
        <time>2022-06-06T07:20:58Z</time>
      </trkpt>
      <trkpt lat="48.0519900" lon="8.2061700">
        <ele>411.8</ele>
        <time>2022-06-06T07:21:02Z</time>
      </trkpt>
      <trkpt lat="48.0519900" lon="8.2061700">
        <ele>411.8</ele>
        <time>2022-06-06T07:21:06Z</time>
      </trkpt>
      <trkpt lat="48.0519900" lon="8.2061700">
        <ele>411.6</ele>
        <time>2022-06-06T07:21:10Z</time>
      </trkpt>
      <trkpt lat="48.0519900" lon="8.2061700">
        <ele>411.8</ele>
        <time>2022-06-06T07:21:14Z</time>
      </trkpt>
      <trkpt lat="48.0519900" lon="8.2061700">
        <ele>411.8</ele>
        <time>2022-06-06T07:21:18Z</time>
      </trkpt>
      <trkpt lat="48.0519900" lon="8.2061700">
        <ele>411.6</ele>
        <time>2022-06-06T07:21:22Z</time>
      </trkpt>
      <trkpt lat="48.0519900" lon="8.2061700">
        <ele>411.6</ele>
        <time>2022-06-06T07:21:26Z</time>
      </trkpt>
      <trkpt lat="48.0519900" lon="8.2061700">
        <ele>411.6</ele>
        <time>2022-06-06T07:21:30Z</time>
      </trkpt>
      <trkpt lat="48.0519900" lon="8.2061700">
        <ele>411.8</ele>
        <time>2022-06-06T07:21:34Z</time>
      </trkpt>
      <trkpt lat="48.0519900" lon="8.2061700">
        <ele>411.8</ele>
        <time>2022-06-06T07:21:38Z</time>
      </trkpt>
      <trkpt lat="48.0519900" lon="8.2061700">
        <ele>411.8</ele>
        <time>2022-06-06T07:21:42Z</time>
      </trkpt>
      <trkpt lat="48.0519900" lon="8.2061700">
        <ele>411.8</ele>
        <time>2022-06-06T07:21:46Z</time>
      </trkpt>
      <trkpt lat="48.0519900" lon="8.2061700">
        <ele>412.0</ele>
        <time>2022-06-06T07:21:50Z</time>
      </trkpt>
      <trkpt lat="48.0519900" lon="8.2061700">
        <ele>412.0</ele>
        <time>2022-06-06T07:21:54Z</time>
      </trkpt>
      <trkpt lat="48.0519900" lon="8.2061700">
        <ele>411.8</ele>
        <time>2022-06-06T07:21:58Z</time>
      </trkpt>
      <trkpt lat="48.0519900" lon="8.2061700">
        <ele>411.8</ele>
        <time>2022-06-06T07:22:02Z</time>
      </trkpt>
      <trkpt lat="48.0519900" lon="8.2061700">
        <ele>412.0</ele>
        <time>2022-06-06T07:22:06Z</time>
      </trkpt>
      <trkpt lat="48.0519900" lon="8.2061700">
        <ele>412.0</ele>
        <time>2022-06-06T07:22:10Z</time>
      </trkpt>
      <trkpt lat="48.0519900" lon="8.2061700">
        <ele>412.0</ele>
        <time>2022-06-06T07:22:14Z</time>
      </trkpt>
      <trkpt lat="48.0519900" lon="8.2061700">
        <ele>412.2</ele>
        <time>2022-06-06T07:22:18Z</time>
      </trkpt>
      <trkpt lat="48.0519900" lon="8.2061700">
        <ele>412.2</ele>
        <time>2022-06-06T07:22:22Z</time>
      </trkpt>
      <trkpt lat="48.0519900" lon="8.2061700">
        <ele>412.2</ele>
        <time>2022-06-06T07:22:26Z</time>
      </trkpt>
      <trkpt lat="48.0519900" lon="8.2061700">
        <ele>412.2</ele>
        <time>2022-06-06T07:22:30Z</time>
      </trkpt>
      <trkpt lat="48.0519900" lon="8.2061700">
        <ele>412.4</ele>
        <time>2022-06-06T07:22:34Z</time>
      </trkpt>
      <trkpt lat="48.0519900" lon="8.2061700">
        <ele>412.2</ele>
        <time>2022-06-06T07:22:38Z</time>
      </trkpt>
      <trkpt lat="48.0519900" lon="8.2061700">
        <ele>411.6</ele>
        <time>2022-06-06T07:22:42Z</time>
      </trkpt>
      <trkpt lat="48.0519900" lon="8.2061700">
        <ele>411.6</ele>
        <time>2022-06-06T07:22:46Z</time>
      </trkpt>
      <trkpt lat="48.0519900" lon="8.2061700">
        <ele>411.6</ele>
        <time>2022-06-06T07:22:50Z</time>
      </trkpt>
      <trkpt lat="48.0519900" lon="8.2061700">
        <ele>411.6</ele>
        <time>2022-06-06T07:22:54Z</time>
      </trkpt>
      <trkpt lat="48.0519900" lon="8.2061700">
        <ele>411.6</ele>
        <time>2022-06-06T07:22:58Z</time>
      </trkpt>
      <trkpt lat="48.0519900" lon="8.2061700">
        <ele>411.8</ele>
        <time>2022-06-06T07:23:02Z</time>
      </trkpt>
      <trkpt lat="48.0518860" lon="8.2058830">
        <ele>411.8</ele>
        <time>2022-06-06T07:23:06Z</time>
      </trkpt>
      <trkpt lat="48.0518860" lon="8.2058830">
        <ele>411.4</ele>
        <time>2022-06-06T07:23:10Z</time>
      </trkpt>
      <trkpt lat="48.0518750" lon="8.2059050">
        <ele>411.6</ele>
        <time>2022-06-06T07:23:14Z</time>
      </trkpt>
      <trkpt lat="48.0518650" lon="8.2058760">
        <ele>412.0</ele>
        <time>2022-06-06T07:23:18Z</time>
      </trkpt>
      <trkpt lat="48.0518680" lon="8.2058180">
        <ele>412.4</ele>
        <time>2022-06-06T07:23:22Z</time>
      </trkpt>
      <trkpt lat="48.0517950" lon="8.2057650">
        <ele>413.0</ele>
        <time>2022-06-06T07:23:26Z</time>
      </trkpt>
      <trkpt lat="48.0517380" lon="8.2057350">
        <ele>413.2</ele>
        <time>2022-06-06T07:23:30Z</time>
      </trkpt>
      <trkpt lat="48.0516860" lon="8.2056930">
        <ele>414.0</ele>
        <time>2022-06-06T07:23:34Z</time>
      </trkpt>
      <trkpt lat="48.0516480" lon="8.2056530">
        <ele>414.4</ele>
        <time>2022-06-06T07:23:38Z</time>
      </trkpt>
      <trkpt lat="48.0516080" lon="8.2056180">
        <ele>415.2</ele>
        <time>2022-06-06T07:23:42Z</time>
      </trkpt>
      <trkpt lat="48.0515650" lon="8.2055850">
        <ele>414.6</ele>
        <time>2022-06-06T07:23:46Z</time>
      </trkpt>
      <trkpt lat="48.0515210" lon="8.2055660">
        <ele>414.6</ele>
        <time>2022-06-06T07:23:50Z</time>
      </trkpt>
      <trkpt lat="48.0514810" lon="8.2055700">
        <ele>415.6</ele>
        <time>2022-06-06T07:23:54Z</time>
      </trkpt>
      <trkpt lat="48.0514350" lon="8.2055910">
        <ele>416.8</ele>
        <time>2022-06-06T07:23:58Z</time>
      </trkpt>
      <trkpt lat="48.0513860" lon="8.2056180">
        <ele>416.0</ele>
        <time>2022-06-06T07:24:02Z</time>
      </trkpt>
      <trkpt lat="48.0513300" lon="8.2056180">
        <ele>416.6</ele>
        <time>2022-06-06T07:24:06Z</time>
      </trkpt>
      <trkpt lat="48.0512730" lon="8.2056250">
        <ele>416.6</ele>
        <time>2022-06-06T07:24:10Z</time>
      </trkpt>
      <trkpt lat="48.0511950" lon="8.2056560">
        <ele>417.0</ele>
        <time>2022-06-06T07:24:14Z</time>
      </trkpt>
      <trkpt lat="48.0511100" lon="8.2056810">
        <ele>417.6</ele>
        <time>2022-06-06T07:24:18Z</time>
      </trkpt>
      <trkpt lat="48.0510500" lon="8.2056950">
        <ele>417.8</ele>
        <time>2022-06-06T07:24:22Z</time>
      </trkpt>
      <trkpt lat="48.0510150" lon="8.2057110">
        <ele>418.0</ele>
        <time>2022-06-06T07:24:26Z</time>
      </trkpt>
      <trkpt lat="48.0509410" lon="8.2057000">
        <ele>418.4</ele>
        <time>2022-06-06T07:24:30Z</time>
      </trkpt>
      <trkpt lat="48.0508260" lon="8.2056480">
        <ele>418.6</ele>
        <time>2022-06-06T07:24:34Z</time>
      </trkpt>
      <trkpt lat="48.0507400" lon="8.2055550">
        <ele>418.4</ele>
        <time>2022-06-06T07:24:38Z</time>
      </trkpt>
      <trkpt lat="48.0506750" lon="8.2054980">
        <ele>418.2</ele>
        <time>2022-06-06T07:24:42Z</time>
      </trkpt>
      <trkpt lat="48.0506460" lon="8.2054650">
        <ele>418.4</ele>
        <time>2022-06-06T07:24:46Z</time>
      </trkpt>
      <trkpt lat="48.0506830" lon="8.2054480">
        <ele>418.4</ele>
        <time>2022-06-06T07:24:50Z</time>
      </trkpt>
      <trkpt lat="48.0507180" lon="8.2055000">
        <ele>418.8</ele>
        <time>2022-06-06T07:24:54Z</time>
      </trkpt>
      <trkpt lat="48.0507450" lon="8.2055550">
        <ele>418.4</ele>
        <time>2022-06-06T07:24:58Z</time>
      </trkpt>
      <trkpt lat="48.0507800" lon="8.2056410">
        <ele>418.6</ele>
        <time>2022-06-06T07:25:02Z</time>
      </trkpt>
      <trkpt lat="48.0507860" lon="8.2057260">
        <ele>418.2</ele>
        <time>2022-06-06T07:25:06Z</time>
      </trkpt>
      <trkpt lat="48.0507860" lon="8.2057260">
        <ele>418.4</ele>
        <time>2022-06-06T07:25:10Z</time>
      </trkpt>
      <trkpt lat="48.0507860" lon="8.2057260">
        <ele>417.6</ele>
        <time>2022-06-06T07:25:14Z</time>
      </trkpt>
      <trkpt lat="48.0507800" lon="8.2057930">
        <ele>418.2</ele>
        <time>2022-06-06T07:25:18Z</time>
      </trkpt>
      <trkpt lat="48.0507850" lon="8.2058200">
        <ele>417.2</ele>
        <time>2022-06-06T07:25:22Z</time>
      </trkpt>
      <trkpt lat="48.0508460" lon="8.2059180">
        <ele>416.6</ele>
        <time>2022-06-06T07:25:26Z</time>
      </trkpt>
      <trkpt lat="48.0508280" lon="8.2060600">
        <ele>415.4</ele>
        <time>2022-06-06T07:25:30Z</time>
      </trkpt>
      <trkpt lat="48.0507130" lon="8.2061260">
        <ele>414.0</ele>
        <time>2022-06-06T07:25:34Z</time>
      </trkpt>
      <trkpt lat="48.0505130" lon="8.2061010">
        <ele>411.8</ele>
        <time>2022-06-06T07:25:38Z</time>
      </trkpt>
      <trkpt lat="48.0502650" lon="8.2061260">
        <ele>411.2</ele>
        <time>2022-06-06T07:25:42Z</time>
      </trkpt>
      <trkpt lat="48.0500380" lon="8.2061610">
        <ele>411.6</ele>
        <time>2022-06-06T07:25:46Z</time>
      </trkpt>
      <trkpt lat="48.0498210" lon="8.2062160">
        <ele>411.0</ele>
        <time>2022-06-06T07:25:50Z</time>
      </trkpt>
      <trkpt lat="48.0496180" lon="8.2062930">
        <ele>411.0</ele>
        <time>2022-06-06T07:25:54Z</time>
      </trkpt>
      <trkpt lat="48.0494310" lon="8.2063730">
        <ele>411.4</ele>
        <time>2022-06-06T07:25:58Z</time>
      </trkpt>
      <trkpt lat="48.0492930" lon="8.2064360">
        <ele>411.8</ele>
        <time>2022-06-06T07:26:02Z</time>
      </trkpt>
      <trkpt lat="48.0491050" lon="8.2065260">
        <ele>412.2</ele>
        <time>2022-06-06T07:26:06Z</time>
      </trkpt>
      <trkpt lat="48.0489930" lon="8.2066030">
        <ele>412.8</ele>
        <time>2022-06-06T07:26:10Z</time>
      </trkpt>
      <trkpt lat="48.0488910" lon="8.2067450">
        <ele>412.6</ele>
        <time>2022-06-06T07:26:14Z</time>
      </trkpt>
      <trkpt lat="48.0487730" lon="8.2068110">
        <ele>412.2</ele>
        <time>2022-06-06T07:26:18Z</time>
      </trkpt>
      <trkpt lat="48.0486660" lon="8.2067380">
        <ele>412.8</ele>
        <time>2022-06-06T07:26:22Z</time>
      </trkpt>
      <trkpt lat="48.0486030" lon="8.2067660">
        <ele>412.8</ele>
        <time>2022-06-06T07:26:26Z</time>
      </trkpt>
      <trkpt lat="48.0486350" lon="8.2067080">
        <ele>412.6</ele>
        <time>2022-06-06T07:26:30Z</time>
      </trkpt>
      <trkpt lat="48.0485650" lon="8.2066080">
        <ele>412.4</ele>
        <time>2022-06-06T07:26:34Z</time>
      </trkpt>
      <trkpt lat="48.0484930" lon="8.2064630">
        <ele>412.4</ele>
        <time>2022-06-06T07:26:38Z</time>
      </trkpt>
      <trkpt lat="48.0484550" lon="8.2062830">
        <ele>412.2</ele>
        <time>2022-06-06T07:26:42Z</time>
      </trkpt>
      <trkpt lat="48.0484100" lon="8.2061150">
        <ele>413.2</ele>
        <time>2022-06-06T07:26:46Z</time>
      </trkpt>
      <trkpt lat="48.0483800" lon="8.2059800">
        <ele>413.2</ele>
        <time>2022-06-06T07:26:50Z</time>
      </trkpt>
      <trkpt lat="48.0483450" lon="8.2059060">
        <ele>412.8</ele>
        <time>2022-06-06T07:26:54Z</time>
      </trkpt>
      <trkpt lat="48.0483030" lon="8.2058100">
        <ele>412.8</ele>
        <time>2022-06-06T07:26:58Z</time>
      </trkpt>
      <trkpt lat="48.0482500" lon="8.2056710">
        <ele>413.0</ele>
        <time>2022-06-06T07:27:02Z</time>
      </trkpt>
      <trkpt lat="48.0482080" lon="8.2055660">
        <ele>413.2</ele>
        <time>2022-06-06T07:27:06Z</time>
      </trkpt>
      <trkpt lat="48.0481760" lon="8.2054260">
        <ele>413.4</ele>
        <time>2022-06-06T07:27:10Z</time>
      </trkpt>
      <trkpt lat="48.0481350" lon="8.2052810">
        <ele>413.8</ele>
        <time>2022-06-06T07:27:14Z</time>
      </trkpt>
      <trkpt lat="48.0480860" lon="8.2051330">
        <ele>413.6</ele>
        <time>2022-06-06T07:27:18Z</time>
      </trkpt>
      <trkpt lat="48.0480250" lon="8.2049850">
        <ele>413.2</ele>
        <time>2022-06-06T07:27:22Z</time>
      </trkpt>
      <trkpt lat="48.0479780" lon="8.2048250">
        <ele>413.6</ele>
        <time>2022-06-06T07:27:26Z</time>
      </trkpt>
      <trkpt lat="48.0479060" lon="8.2047050">
        <ele>414.2</ele>
        <time>2022-06-06T07:27:30Z</time>
      </trkpt>
      <trkpt lat="48.0478580" lon="8.2046010">
        <ele>415.4</ele>
        <time>2022-06-06T07:27:34Z</time>
      </trkpt>
      <trkpt lat="48.0478080" lon="8.2045200">
        <ele>416.6</ele>
        <time>2022-06-06T07:27:38Z</time>
      </trkpt>
      <trkpt lat="48.0477660" lon="8.2044260">
        <ele>417.4</ele>
        <time>2022-06-06T07:27:42Z</time>
      </trkpt>
      <trkpt lat="48.0477260" lon="8.2043280">
        <ele>418.0</ele>
        <time>2022-06-06T07:27:46Z</time>
      </trkpt>
      <trkpt lat="48.0477060" lon="8.2042200">
        <ele>418.4</ele>
        <time>2022-06-06T07:27:50Z</time>
      </trkpt>
      <trkpt lat="48.0476730" lon="8.2041060">
        <ele>418.8</ele>
        <time>2022-06-06T07:27:54Z</time>
      </trkpt>
      <trkpt lat="48.0476350" lon="8.2040080">
        <ele>419.6</ele>
        <time>2022-06-06T07:27:58Z</time>
      </trkpt>
      <trkpt lat="48.0475900" lon="8.2039250">
        <ele>419.4</ele>
        <time>2022-06-06T07:28:02Z</time>
      </trkpt>
      <trkpt lat="48.0475350" lon="8.2038410">
        <ele>419.6</ele>
        <time>2022-06-06T07:28:06Z</time>
      </trkpt>
      <trkpt lat="48.0474850" lon="8.2037900">
        <ele>419.8</ele>
        <time>2022-06-06T07:28:10Z</time>
      </trkpt>
      <trkpt lat="48.0474550" lon="8.2036860">
        <ele>419.4</ele>
        <time>2022-06-06T07:28:14Z</time>
      </trkpt>
      <trkpt lat="48.0474210" lon="8.2035560">
        <ele>419.4</ele>
        <time>2022-06-06T07:28:18Z</time>
      </trkpt>
      <trkpt lat="48.0473880" lon="8.2034260">
        <ele>420.2</ele>
        <time>2022-06-06T07:28:22Z</time>
      </trkpt>
      <trkpt lat="48.0473530" lon="8.2033060">
        <ele>420.2</ele>
        <time>2022-06-06T07:28:26Z</time>
      </trkpt>
      <trkpt lat="48.0473060" lon="8.2031910">
        <ele>420.2</ele>
        <time>2022-06-06T07:28:30Z</time>
      </trkpt>
      <trkpt lat="48.0472430" lon="8.2030610">
        <ele>420.4</ele>
        <time>2022-06-06T07:28:34Z</time>
      </trkpt>
      <trkpt lat="48.0471900" lon="8.2028910">
        <ele>420.8</ele>
        <time>2022-06-06T07:28:38Z</time>
      </trkpt>
      <trkpt lat="48.0471160" lon="8.2027450">
        <ele>421.4</ele>
        <time>2022-06-06T07:28:42Z</time>
      </trkpt>
      <trkpt lat="48.0470260" lon="8.2026250">
        <ele>422.4</ele>
        <time>2022-06-06T07:28:46Z</time>
      </trkpt>
      <trkpt lat="48.0469680" lon="8.2025200">
        <ele>422.6</ele>
        <time>2022-06-06T07:28:50Z</time>
      </trkpt>
      <trkpt lat="48.0469380" lon="8.2024060">
        <ele>423.0</ele>
        <time>2022-06-06T07:28:54Z</time>
      </trkpt>
      <trkpt lat="48.0469130" lon="8.2022830">
        <ele>422.8</ele>
        <time>2022-06-06T07:28:58Z</time>
      </trkpt>
      <trkpt lat="48.0468810" lon="8.2021400">
        <ele>423.2</ele>
        <time>2022-06-06T07:29:02Z</time>
      </trkpt>
      <trkpt lat="48.0468460" lon="8.2020010">
        <ele>424.0</ele>
        <time>2022-06-06T07:29:06Z</time>
      </trkpt>
      <trkpt lat="48.0468130" lon="8.2018680">
        <ele>424.0</ele>
        <time>2022-06-06T07:29:10Z</time>
      </trkpt>
      <trkpt lat="48.0467860" lon="8.2017430">
        <ele>424.0</ele>
        <time>2022-06-06T07:29:14Z</time>
      </trkpt>
      <trkpt lat="48.0467480" lon="8.2016150">
        <ele>424.0</ele>
        <time>2022-06-06T07:29:18Z</time>
      </trkpt>
      <trkpt lat="48.0467110" lon="8.2014600">
        <ele>424.2</ele>
        <time>2022-06-06T07:29:22Z</time>
      </trkpt>
      <trkpt lat="48.0466660" lon="8.2013280">
        <ele>424.2</ele>
        <time>2022-06-06T07:29:26Z</time>
      </trkpt>
      <trkpt lat="48.0466330" lon="8.2011550">
        <ele>424.6</ele>
        <time>2022-06-06T07:29:30Z</time>
      </trkpt>
      <trkpt lat="48.0465810" lon="8.2009950">
        <ele>424.2</ele>
        <time>2022-06-06T07:29:34Z</time>
      </trkpt>
      <trkpt lat="48.0465550" lon="8.2008380">
        <ele>424.2</ele>
        <time>2022-06-06T07:29:38Z</time>
      </trkpt>
      <trkpt lat="48.0465200" lon="8.2007580">
        <ele>424.6</ele>
        <time>2022-06-06T07:29:42Z</time>
      </trkpt>
      <trkpt lat="48.0465200" lon="8.2007580">
        <ele>424.6</ele>
        <time>2022-06-06T07:29:46Z</time>
      </trkpt>
      <trkpt lat="48.0465200" lon="8.2007580">
        <ele>425.0</ele>
        <time>2022-06-06T07:29:50Z</time>
      </trkpt>
      <trkpt lat="48.0465200" lon="8.2007580">
        <ele>424.8</ele>
        <time>2022-06-06T07:29:54Z</time>
      </trkpt>
      <trkpt lat="48.0465200" lon="8.2007580">
        <ele>424.8</ele>
        <time>2022-06-06T07:29:58Z</time>
      </trkpt>
      <trkpt lat="48.0465200" lon="8.2007580">
        <ele>425.0</ele>
        <time>2022-06-06T07:30:02Z</time>
      </trkpt>
      <trkpt lat="48.0465200" lon="8.2007580">
        <ele>424.8</ele>
        <time>2022-06-06T07:30:06Z</time>
      </trkpt>
      <trkpt lat="48.0465200" lon="8.2007580">
        <ele>424.8</ele>
        <time>2022-06-06T07:30:10Z</time>
      </trkpt>
      <trkpt lat="48.0465200" lon="8.2007580">
        <ele>424.2</ele>
        <time>2022-06-06T07:30:14Z</time>
      </trkpt>
      <trkpt lat="48.0465200" lon="8.2007580">
        <ele>424.6</ele>
        <time>2022-06-06T07:30:18Z</time>
      </trkpt>
      <trkpt lat="48.0465200" lon="8.2007580">
        <ele>424.6</ele>
        <time>2022-06-06T07:30:22Z</time>
      </trkpt>
      <trkpt lat="48.0465200" lon="8.2007580">
        <ele>424.6</ele>
        <time>2022-06-06T07:30:26Z</time>
      </trkpt>
      <trkpt lat="48.0465200" lon="8.2007580">
        <ele>425.0</ele>
        <time>2022-06-06T07:30:30Z</time>
      </trkpt>
      <trkpt lat="48.0465200" lon="8.2007580">
        <ele>424.6</ele>
        <time>2022-06-06T07:30:34Z</time>
      </trkpt>
      <trkpt lat="48.0465200" lon="8.2007580">
        <ele>424.8</ele>
        <time>2022-06-06T07:30:38Z</time>
      </trkpt>
      <trkpt lat="48.0465200" lon="8.2007580">
        <ele>425.0</ele>
        <time>2022-06-06T07:30:42Z</time>
      </trkpt>
      <trkpt lat="48.0465200" lon="8.2007580">
        <ele>424.4</ele>
        <time>2022-06-06T07:30:46Z</time>
      </trkpt>
      <trkpt lat="48.0465330" lon="8.2006460">
        <ele>424.4</ele>
        <time>2022-06-06T07:30:50Z</time>
      </trkpt>
      <trkpt lat="48.0464950" lon="8.2005650">
        <ele>425.2</ele>
        <time>2022-06-06T07:30:54Z</time>
      </trkpt>
      <trkpt lat="48.0464330" lon="8.2004560">
        <ele>425.8</ele>
        <time>2022-06-06T07:30:58Z</time>
      </trkpt>
      <trkpt lat="48.0463480" lon="8.2003800">
        <ele>426.8</ele>
        <time>2022-06-06T07:31:02Z</time>
      </trkpt>
      <trkpt lat="48.0462730" lon="8.2003060">
        <ele>427.0</ele>
        <time>2022-06-06T07:31:06Z</time>
      </trkpt>
      <trkpt lat="48.0462350" lon="8.2002200">
        <ele>427.8</ele>
        <time>2022-06-06T07:31:10Z</time>
      </trkpt>
      <trkpt lat="48.0462200" lon="8.2001260">
        <ele>429.0</ele>
        <time>2022-06-06T07:31:14Z</time>
      </trkpt>
      <trkpt lat="48.0461780" lon="8.2000410">
        <ele>430.4</ele>
        <time>2022-06-06T07:31:18Z</time>
      </trkpt>
      <trkpt lat="48.0462080" lon="8.1999430">
        <ele>431.4</ele>
        <time>2022-06-06T07:31:22Z</time>
      </trkpt>
      <trkpt lat="48.0461710" lon="8.1998700">
        <ele>431.8</ele>
        <time>2022-06-06T07:31:26Z</time>
      </trkpt>
      <trkpt lat="48.0461430" lon="8.1997580">
        <ele>432.4</ele>
        <time>2022-06-06T07:31:30Z</time>
      </trkpt>
      <trkpt lat="48.0460850" lon="8.1996610">
        <ele>432.8</ele>
        <time>2022-06-06T07:31:34Z</time>
      </trkpt>
      <trkpt lat="48.0460360" lon="8.1995700">
        <ele>432.8</ele>
        <time>2022-06-06T07:31:38Z</time>
      </trkpt>
      <trkpt lat="48.0460110" lon="8.1994680">
        <ele>433.0</ele>
        <time>2022-06-06T07:31:42Z</time>
      </trkpt>
      <trkpt lat="48.0459780" lon="8.1993680">
        <ele>432.8</ele>
        <time>2022-06-06T07:31:46Z</time>
      </trkpt>
      <trkpt lat="48.0459400" lon="8.1992460">
        <ele>432.6</ele>
        <time>2022-06-06T07:31:50Z</time>
      </trkpt>
      <trkpt lat="48.0458800" lon="8.1990100">
        <ele>428.8</ele>
        <time>2022-06-06T07:31:54Z</time>
      </trkpt>
      <trkpt lat="48.0458380" lon="8.1987310">
        <ele>427.8</ele>
        <time>2022-06-06T07:31:58Z</time>
      </trkpt>
      <trkpt lat="48.0457550" lon="8.1984930">
        <ele>426.2</ele>
        <time>2022-06-06T07:32:02Z</time>
      </trkpt>
      <trkpt lat="48.0456460" lon="8.1982310">
        <ele>424.4</ele>
        <time>2022-06-06T07:32:06Z</time>
      </trkpt>
      <trkpt lat="48.0455380" lon="8.1980460">
        <ele>423.4</ele>
        <time>2022-06-06T07:32:10Z</time>
      </trkpt>
      <trkpt lat="48.0455000" lon="8.1978360">
        <ele>421.0</ele>
        <time>2022-06-06T07:32:14Z</time>
      </trkpt>
      <trkpt lat="48.0455100" lon="8.1976080">
        <ele>422.2</ele>
        <time>2022-06-06T07:32:18Z</time>
      </trkpt>
      <trkpt lat="48.0454850" lon="8.1974760">
        <ele>422.4</ele>
        <time>2022-06-06T07:32:22Z</time>
      </trkpt>
      <trkpt lat="48.0454030" lon="8.1973110">
        <ele>422.0</ele>
        <time>2022-06-06T07:32:26Z</time>
      </trkpt>
      <trkpt lat="48.0453460" lon="8.1971230">
        <ele>421.8</ele>
        <time>2022-06-06T07:32:30Z</time>
      </trkpt>
      <trkpt lat="48.0452950" lon="8.1969380">
        <ele>422.2</ele>
        <time>2022-06-06T07:32:34Z</time>
      </trkpt>
      <trkpt lat="48.0452300" lon="8.1967730">
        <ele>422.4</ele>
        <time>2022-06-06T07:32:38Z</time>
      </trkpt>
      <trkpt lat="48.0451980" lon="8.1966380">
        <ele>422.8</ele>
        <time>2022-06-06T07:32:42Z</time>
      </trkpt>
      <trkpt lat="48.0451960" lon="8.1964910">
        <ele>423.2</ele>
        <time>2022-06-06T07:32:46Z</time>
      </trkpt>
      <trkpt lat="48.0451760" lon="8.1963410">
        <ele>423.6</ele>
        <time>2022-06-06T07:32:50Z</time>
      </trkpt>
      <trkpt lat="48.0451450" lon="8.1962000">
        <ele>423.4</ele>
        <time>2022-06-06T07:32:54Z</time>
      </trkpt>
      <trkpt lat="48.0450950" lon="8.1960380">
        <ele>424.0</ele>
        <time>2022-06-06T07:32:58Z</time>
      </trkpt>
      <trkpt lat="48.0450550" lon="8.1958700">
        <ele>423.4</ele>
        <time>2022-06-06T07:33:02Z</time>
      </trkpt>
      <trkpt lat="48.0450050" lon="8.1957260">
        <ele>423.4</ele>
        <time>2022-06-06T07:33:06Z</time>
      </trkpt>
      <trkpt lat="48.0449580" lon="8.1955630">
        <ele>423.2</ele>
        <time>2022-06-06T07:33:10Z</time>
      </trkpt>
      <trkpt lat="48.0449080" lon="8.1953950">
        <ele>424.0</ele>
        <time>2022-06-06T07:33:14Z</time>
      </trkpt>
      <trkpt lat="48.0448650" lon="8.1952260">
        <ele>424.0</ele>
        <time>2022-06-06T07:33:18Z</time>
      </trkpt>
      <trkpt lat="48.0448160" lon="8.1950510">
        <ele>424.6</ele>
        <time>2022-06-06T07:33:22Z</time>
      </trkpt>
      <trkpt lat="48.0448010" lon="8.1948950">
        <ele>424.2</ele>
        <time>2022-06-06T07:33:26Z</time>
      </trkpt>
      <trkpt lat="48.0447510" lon="8.1947350">
        <ele>424.6</ele>
        <time>2022-06-06T07:33:30Z</time>
      </trkpt>
      <trkpt lat="48.0446930" lon="8.1945850">
        <ele>425.2</ele>
        <time>2022-06-06T07:33:34Z</time>
      </trkpt>
      <trkpt lat="48.0446300" lon="8.1944400">
        <ele>425.4</ele>
        <time>2022-06-06T07:33:38Z</time>
      </trkpt>
      <trkpt lat="48.0445600" lon="8.1942850">
        <ele>426.2</ele>
        <time>2022-06-06T07:33:42Z</time>
      </trkpt>
      <trkpt lat="48.0445050" lon="8.1941450">
        <ele>426.2</ele>
        <time>2022-06-06T07:33:46Z</time>
      </trkpt>
      <trkpt lat="48.0444750" lon="8.1940030">
        <ele>427.0</ele>
        <time>2022-06-06T07:33:50Z</time>
      </trkpt>
      <trkpt lat="48.0444710" lon="8.1938530">
        <ele>427.4</ele>
        <time>2022-06-06T07:33:54Z</time>
      </trkpt>
      <trkpt lat="48.0444350" lon="8.1937100">
        <ele>428.2</ele>
        <time>2022-06-06T07:33:58Z</time>
      </trkpt>
      <trkpt lat="48.0443830" lon="8.1935700">
        <ele>428.8</ele>
        <time>2022-06-06T07:34:02Z</time>
      </trkpt>
      <trkpt lat="48.0443360" lon="8.1934380">
        <ele>429.0</ele>
        <time>2022-06-06T07:34:06Z</time>
      </trkpt>
      <trkpt lat="48.0443000" lon="8.1933010">
        <ele>429.2</ele>
        <time>2022-06-06T07:34:10Z</time>
      </trkpt>
      <trkpt lat="48.0442550" lon="8.1931700">
        <ele>429.2</ele>
        <time>2022-06-06T07:34:14Z</time>
      </trkpt>
      <trkpt lat="48.0442080" lon="8.1930260">
        <ele>429.6</ele>
        <time>2022-06-06T07:34:18Z</time>
      </trkpt>
      <trkpt lat="48.0441750" lon="8.1928760">
        <ele>430.8</ele>
        <time>2022-06-06T07:34:22Z</time>
      </trkpt>
      <trkpt lat="48.0441580" lon="8.1927330">
        <ele>431.2</ele>
        <time>2022-06-06T07:34:26Z</time>
      </trkpt>
      <trkpt lat="48.0441600" lon="8.1925960">
        <ele>431.4</ele>
        <time>2022-06-06T07:34:30Z</time>
      </trkpt>
      <trkpt lat="48.0441710" lon="8.1924630">
        <ele>432.6</ele>
        <time>2022-06-06T07:34:34Z</time>
      </trkpt>
      <trkpt lat="48.0442030" lon="8.1923450">
        <ele>433.2</ele>
        <time>2022-06-06T07:34:38Z</time>
      </trkpt>
      <trkpt lat="48.0442430" lon="8.1922310">
        <ele>434.0</ele>
        <time>2022-06-06T07:34:42Z</time>
      </trkpt>
      <trkpt lat="48.0442760" lon="8.1921230">
        <ele>434.6</ele>
        <time>2022-06-06T07:34:46Z</time>
      </trkpt>
      <trkpt lat="48.0443130" lon="8.1920180">
        <ele>435.6</ele>
        <time>2022-06-06T07:34:50Z</time>
      </trkpt>
      <trkpt lat="48.0443350" lon="8.1919060">
        <ele>436.2</ele>
        <time>2022-06-06T07:34:54Z</time>
      </trkpt>
      <trkpt lat="48.0443310" lon="8.1917880">
        <ele>437.4</ele>
        <time>2022-06-06T07:34:58Z</time>
      </trkpt>
      <trkpt lat="48.0442650" lon="8.1917150">
        <ele>437.2</ele>
        <time>2022-06-06T07:35:02Z</time>
      </trkpt>
      <trkpt lat="48.0441800" lon="8.1917200">
        <ele>437.8</ele>
        <time>2022-06-06T07:35:06Z</time>
      </trkpt>
      <trkpt lat="48.0440860" lon="8.1917630">
        <ele>438.2</ele>
        <time>2022-06-06T07:35:10Z</time>
      </trkpt>
      <trkpt lat="48.0439960" lon="8.1917960">
        <ele>438.8</ele>
        <time>2022-06-06T07:35:14Z</time>
      </trkpt>
      <trkpt lat="48.0439000" lon="8.1918110">
        <ele>438.8</ele>
        <time>2022-06-06T07:35:18Z</time>
      </trkpt>
      <trkpt lat="48.0437960" lon="8.1918130">
        <ele>438.6</ele>
        <time>2022-06-06T07:35:22Z</time>
      </trkpt>
      <trkpt lat="48.0437010" lon="8.1917930">
        <ele>438.8</ele>
        <time>2022-06-06T07:35:26Z</time>
      </trkpt>
      <trkpt lat="48.0436000" lon="8.1917510">
        <ele>438.6</ele>
        <time>2022-06-06T07:35:30Z</time>
      </trkpt>
      <trkpt lat="48.0434960" lon="8.1916850">
        <ele>438.6</ele>
        <time>2022-06-06T07:35:34Z</time>
      </trkpt>
      <trkpt lat="48.0433950" lon="8.1916080">
        <ele>438.2</ele>
        <time>2022-06-06T07:35:38Z</time>
      </trkpt>
      <trkpt lat="48.0432880" lon="8.1915300">
        <ele>438.6</ele>
        <time>2022-06-06T07:35:42Z</time>
      </trkpt>
      <trkpt lat="48.0431730" lon="8.1914450">
        <ele>438.0</ele>
        <time>2022-06-06T07:35:46Z</time>
      </trkpt>
      <trkpt lat="48.0430410" lon="8.1913510">
        <ele>437.6</ele>
        <time>2022-06-06T07:35:50Z</time>
      </trkpt>
      <trkpt lat="48.0428930" lon="8.1912380">
        <ele>436.8</ele>
        <time>2022-06-06T07:35:54Z</time>
      </trkpt>
      <trkpt lat="48.0427360" lon="8.1911200">
        <ele>436.0</ele>
        <time>2022-06-06T07:35:58Z</time>
      </trkpt>
      <trkpt lat="48.0425750" lon="8.1910200">
        <ele>436.2</ele>
        <time>2022-06-06T07:36:02Z</time>
      </trkpt>
      <trkpt lat="48.0424280" lon="8.1909260">
        <ele>435.6</ele>
        <time>2022-06-06T07:36:06Z</time>
      </trkpt>
      <trkpt lat="48.0422750" lon="8.1908660">
        <ele>436.0</ele>
        <time>2022-06-06T07:36:10Z</time>
      </trkpt>
      <trkpt lat="48.0421200" lon="8.1908180">
        <ele>434.6</ele>
        <time>2022-06-06T07:36:14Z</time>
      </trkpt>
      <trkpt lat="48.0419580" lon="8.1907830">
        <ele>434.6</ele>
        <time>2022-06-06T07:36:18Z</time>
      </trkpt>
      <trkpt lat="48.0418000" lon="8.1907430">
        <ele>434.8</ele>
        <time>2022-06-06T07:36:22Z</time>
      </trkpt>
      <trkpt lat="48.0416350" lon="8.1907200">
        <ele>435.0</ele>
        <time>2022-06-06T07:36:26Z</time>
      </trkpt>
      <trkpt lat="48.0414650" lon="8.1907080">
        <ele>434.6</ele>
        <time>2022-06-06T07:36:30Z</time>
      </trkpt>
      <trkpt lat="48.0413050" lon="8.1906830">
        <ele>434.8</ele>
        <time>2022-06-06T07:36:34Z</time>
      </trkpt>
      <trkpt lat="48.0411400" lon="8.1906780">
        <ele>434.8</ele>
        <time>2022-06-06T07:36:38Z</time>
      </trkpt>
      <trkpt lat="48.0409710" lon="8.1906600">
        <ele>435.0</ele>
        <time>2022-06-06T07:36:42Z</time>
      </trkpt>
      <trkpt lat="48.0408060" lon="8.1906450">
        <ele>435.2</ele>
        <time>2022-06-06T07:36:46Z</time>
      </trkpt>
      <trkpt lat="48.0406430" lon="8.1906350">
        <ele>434.8</ele>
        <time>2022-06-06T07:36:50Z</time>
      </trkpt>
      <trkpt lat="48.0404860" lon="8.1906250">
        <ele>435.4</ele>
        <time>2022-06-06T07:36:54Z</time>
      </trkpt>
      <trkpt lat="48.0403300" lon="8.1906050">
        <ele>435.2</ele>
        <time>2022-06-06T07:36:58Z</time>
      </trkpt>
      <trkpt lat="48.0401700" lon="8.1905910">
        <ele>435.2</ele>
        <time>2022-06-06T07:37:02Z</time>
      </trkpt>
      <trkpt lat="48.0400100" lon="8.1905850">
        <ele>435.2</ele>
        <time>2022-06-06T07:37:06Z</time>
      </trkpt>
      <trkpt lat="48.0398500" lon="8.1906000">
        <ele>435.4</ele>
        <time>2022-06-06T07:37:10Z</time>
      </trkpt>
      <trkpt lat="48.0397010" lon="8.1906380">
        <ele>435.0</ele>
        <time>2022-06-06T07:37:14Z</time>
      </trkpt>
      <trkpt lat="48.0395680" lon="8.1906710">
        <ele>434.8</ele>
        <time>2022-06-06T07:37:18Z</time>
      </trkpt>
      <trkpt lat="48.0394360" lon="8.1907330">
        <ele>435.6</ele>
        <time>2022-06-06T07:37:22Z</time>
      </trkpt>
      <trkpt lat="48.0393110" lon="8.1908250">
        <ele>435.4</ele>
        <time>2022-06-06T07:37:26Z</time>
      </trkpt>
      <trkpt lat="48.0392100" lon="8.1909280">
        <ele>435.4</ele>
        <time>2022-06-06T07:37:30Z</time>
      </trkpt>
      <trkpt lat="48.0391010" lon="8.1909830">
        <ele>435.6</ele>
        <time>2022-06-06T07:37:34Z</time>
      </trkpt>
      <trkpt lat="48.0389900" lon="8.1909150">
        <ele>434.8</ele>
        <time>2022-06-06T07:37:38Z</time>
      </trkpt>
      <trkpt lat="48.0388600" lon="8.1909250">
        <ele>434.8</ele>
        <time>2022-06-06T07:37:42Z</time>
      </trkpt>
      <trkpt lat="48.0387310" lon="8.1909480">
        <ele>435.0</ele>
        <time>2022-06-06T07:37:46Z</time>
      </trkpt>
      <trkpt lat="48.0386050" lon="8.1909900">
        <ele>435.0</ele>
        <time>2022-06-06T07:37:50Z</time>
      </trkpt>
      <trkpt lat="48.0384710" lon="8.1910080">
        <ele>434.8</ele>
        <time>2022-06-06T07:37:54Z</time>
      </trkpt>
      <trkpt lat="48.0383450" lon="8.1909950">
        <ele>435.4</ele>
        <time>2022-06-06T07:37:58Z</time>
      </trkpt>
      <trkpt lat="48.0382150" lon="8.1909800">
        <ele>435.6</ele>
        <time>2022-06-06T07:38:02Z</time>
      </trkpt>
      <trkpt lat="48.0380950" lon="8.1909930">
        <ele>437.0</ele>
        <time>2022-06-06T07:38:06Z</time>
      </trkpt>
      <trkpt lat="48.0379860" lon="8.1909700">
        <ele>437.8</ele>
        <time>2022-06-06T07:38:10Z</time>
      </trkpt>
      <trkpt lat="48.0378950" lon="8.1909130">
        <ele>438.2</ele>
        <time>2022-06-06T07:38:14Z</time>
      </trkpt>
      <trkpt lat="48.0378330" lon="8.1908010">
        <ele>438.8</ele>
        <time>2022-06-06T07:38:18Z</time>
      </trkpt>
      <trkpt lat="48.0377830" lon="8.1906630">
        <ele>438.8</ele>
        <time>2022-06-06T07:38:22Z</time>
      </trkpt>
      <trkpt lat="48.0377260" lon="8.1905380">
        <ele>439.8</ele>
        <time>2022-06-06T07:38:26Z</time>
      </trkpt>
      <trkpt lat="48.0376560" lon="8.1904180">
        <ele>440.0</ele>
        <time>2022-06-06T07:38:30Z</time>
      </trkpt>
      <trkpt lat="48.0375960" lon="8.1902960">
        <ele>440.6</ele>
        <time>2022-06-06T07:38:34Z</time>
      </trkpt>
      <trkpt lat="48.0375460" lon="8.1901780">
        <ele>441.0</ele>
        <time>2022-06-06T07:38:38Z</time>
      </trkpt>
      <trkpt lat="48.0374900" lon="8.1900680">
        <ele>442.2</ele>
        <time>2022-06-06T07:38:42Z</time>
      </trkpt>
      <trkpt lat="48.0374360" lon="8.1899530">
        <ele>443.0</ele>
        <time>2022-06-06T07:38:46Z</time>
      </trkpt>
      <trkpt lat="48.0373950" lon="8.1898330">
        <ele>443.6</ele>
        <time>2022-06-06T07:38:50Z</time>
      </trkpt>
      <trkpt lat="48.0373160" lon="8.1897250">
        <ele>444.0</ele>
        <time>2022-06-06T07:38:54Z</time>
      </trkpt>
      <trkpt lat="48.0372430" lon="8.1896230">
        <ele>444.2</ele>
        <time>2022-06-06T07:38:58Z</time>
      </trkpt>
      <trkpt lat="48.0371760" lon="8.1895160">
        <ele>445.0</ele>
        <time>2022-06-06T07:39:02Z</time>
      </trkpt>
      <trkpt lat="48.0371050" lon="8.1894230">
        <ele>445.2</ele>
        <time>2022-06-06T07:39:06Z</time>
      </trkpt>
      <trkpt lat="48.0370430" lon="8.1893230">
        <ele>445.4</ele>
        <time>2022-06-06T07:39:10Z</time>
      </trkpt>
      <trkpt lat="48.0369780" lon="8.1892360">
        <ele>445.6</ele>
        <time>2022-06-06T07:39:14Z</time>
      </trkpt>
      <trkpt lat="48.0369100" lon="8.1891480">
        <ele>445.4</ele>
        <time>2022-06-06T07:39:18Z</time>
      </trkpt>
      <trkpt lat="48.0368410" lon="8.1890700">
        <ele>445.4</ele>
        <time>2022-06-06T07:39:22Z</time>
      </trkpt>
      <trkpt lat="48.0367650" lon="8.1889960">
        <ele>446.0</ele>
        <time>2022-06-06T07:39:26Z</time>
      </trkpt>
      <trkpt lat="48.0366930" lon="8.1889480">
        <ele>447.8</ele>
        <time>2022-06-06T07:39:30Z</time>
      </trkpt>
      <trkpt lat="48.0366250" lon="8.1888900">
        <ele>448.8</ele>
        <time>2022-06-06T07:39:34Z</time>
      </trkpt>
      <trkpt lat="48.0365460" lon="8.1888430">
        <ele>448.8</ele>
        <time>2022-06-06T07:39:38Z</time>
      </trkpt>
      <trkpt lat="48.0364630" lon="8.1887930">
        <ele>449.4</ele>
        <time>2022-06-06T07:39:42Z</time>
      </trkpt>
      <trkpt lat="48.0363830" lon="8.1887460">
        <ele>450.4</ele>
        <time>2022-06-06T07:39:46Z</time>
      </trkpt>
      <trkpt lat="48.0362850" lon="8.1886980">
        <ele>450.8</ele>
        <time>2022-06-06T07:39:50Z</time>
      </trkpt>
      <trkpt lat="48.0362000" lon="8.1886380">
        <ele>451.6</ele>
        <time>2022-06-06T07:39:54Z</time>
      </trkpt>
      <trkpt lat="48.0360860" lon="8.1885580">
        <ele>451.8</ele>
        <time>2022-06-06T07:39:58Z</time>
      </trkpt>
      <trkpt lat="48.0359880" lon="8.1884900">
        <ele>452.4</ele>
        <time>2022-06-06T07:40:02Z</time>
      </trkpt>
      <trkpt lat="48.0359010" lon="8.1884230">
        <ele>453.0</ele>
        <time>2022-06-06T07:40:06Z</time>
      </trkpt>
      <trkpt lat="48.0358110" lon="8.1883600">
        <ele>452.4</ele>
        <time>2022-06-06T07:40:10Z</time>
      </trkpt>
      <trkpt lat="48.0357110" lon="8.1882850">
        <ele>453.6</ele>
        <time>2022-06-06T07:40:14Z</time>
      </trkpt>
      <trkpt lat="48.0356200" lon="8.1882110">
        <ele>452.8</ele>
        <time>2022-06-06T07:40:18Z</time>
      </trkpt>
      <trkpt lat="48.0355280" lon="8.1881380">
        <ele>453.4</ele>
        <time>2022-06-06T07:40:22Z</time>
      </trkpt>
      <trkpt lat="48.0354260" lon="8.1880650">
        <ele>453.8</ele>
        <time>2022-06-06T07:40:26Z</time>
      </trkpt>
      <trkpt lat="48.0353360" lon="8.1879950">
        <ele>453.8</ele>
        <time>2022-06-06T07:40:30Z</time>
      </trkpt>
      <trkpt lat="48.0352230" lon="8.1879310">
        <ele>454.0</ele>
        <time>2022-06-06T07:40:34Z</time>
      </trkpt>
      <trkpt lat="48.0351080" lon="8.1878700">
        <ele>454.4</ele>
        <time>2022-06-06T07:40:38Z</time>
      </trkpt>
      <trkpt lat="48.0349750" lon="8.1878200">
        <ele>453.6</ele>
        <time>2022-06-06T07:40:42Z</time>
      </trkpt>
      <trkpt lat="48.0348550" lon="8.1877480">
        <ele>453.2</ele>
        <time>2022-06-06T07:40:46Z</time>
      </trkpt>
      <trkpt lat="48.0347300" lon="8.1876750">
        <ele>453.2</ele>
        <time>2022-06-06T07:40:50Z</time>
      </trkpt>
      <trkpt lat="48.0345950" lon="8.1875660">
        <ele>452.4</ele>
        <time>2022-06-06T07:40:54Z</time>
      </trkpt>
      <trkpt lat="48.0344160" lon="8.1874460">
        <ele>451.4</ele>
        <time>2022-06-06T07:40:58Z</time>
      </trkpt>
      <trkpt lat="48.0342450" lon="8.1872600">
        <ele>450.8</ele>
        <time>2022-06-06T07:41:02Z</time>
      </trkpt>
      <trkpt lat="48.0341180" lon="8.1870160">
        <ele>451.4</ele>
        <time>2022-06-06T07:41:06Z</time>
      </trkpt>
      <trkpt lat="48.0340010" lon="8.1867880">
        <ele>451.4</ele>
        <time>2022-06-06T07:41:10Z</time>
      </trkpt>
      <trkpt lat="48.0338760" lon="8.1866360">
        <ele>451.6</ele>
        <time>2022-06-06T07:41:14Z</time>
      </trkpt>
      <trkpt lat="48.0337600" lon="8.1866030">
        <ele>452.8</ele>
        <time>2022-06-06T07:41:18Z</time>
      </trkpt>
      <trkpt lat="48.0336460" lon="8.1865900">
        <ele>454.0</ele>
        <time>2022-06-06T07:41:22Z</time>
      </trkpt>
      <trkpt lat="48.0335430" lon="8.1865860">
        <ele>455.2</ele>
        <time>2022-06-06T07:41:26Z</time>
      </trkpt>
      <trkpt lat="48.0334350" lon="8.1865750">
        <ele>456.4</ele>
        <time>2022-06-06T07:41:30Z</time>
      </trkpt>
      <trkpt lat="48.0333250" lon="8.1865550">
        <ele>456.6</ele>
        <time>2022-06-06T07:41:34Z</time>
      </trkpt>
      <trkpt lat="48.0332280" lon="8.1865360">
        <ele>456.8</ele>
        <time>2022-06-06T07:41:38Z</time>
      </trkpt>
      <trkpt lat="48.0331250" lon="8.1865200">
        <ele>457.4</ele>
        <time>2022-06-06T07:41:42Z</time>
      </trkpt>
      <trkpt lat="48.0330210" lon="8.1865110">
        <ele>458.2</ele>
        <time>2022-06-06T07:41:46Z</time>
      </trkpt>
      <trkpt lat="48.0329160" lon="8.1864960">
        <ele>458.2</ele>
        <time>2022-06-06T07:41:50Z</time>
      </trkpt>
      <trkpt lat="48.0328080" lon="8.1864700">
        <ele>459.2</ele>
        <time>2022-06-06T07:41:54Z</time>
      </trkpt>
      <trkpt lat="48.0327060" lon="8.1864780">
        <ele>459.6</ele>
        <time>2022-06-06T07:41:58Z</time>
      </trkpt>
      <trkpt lat="48.0326060" lon="8.1864950">
        <ele>459.6</ele>
        <time>2022-06-06T07:42:02Z</time>
      </trkpt>
      <trkpt lat="48.0325080" lon="8.1865200">
        <ele>460.8</ele>
        <time>2022-06-06T07:42:06Z</time>
      </trkpt>
      <trkpt lat="48.0324100" lon="8.1865410">
        <ele>461.2</ele>
        <time>2022-06-06T07:42:10Z</time>
      </trkpt>
      <trkpt lat="48.0323130" lon="8.1865800">
        <ele>461.4</ele>
        <time>2022-06-06T07:42:14Z</time>
      </trkpt>
      <trkpt lat="48.0322200" lon="8.1866210">
        <ele>462.0</ele>
        <time>2022-06-06T07:42:18Z</time>
      </trkpt>
      <trkpt lat="48.0321300" lon="8.1866800">
        <ele>462.2</ele>
        <time>2022-06-06T07:42:22Z</time>
      </trkpt>
      <trkpt lat="48.0320350" lon="8.1867200">
        <ele>462.8</ele>
        <time>2022-06-06T07:42:26Z</time>
      </trkpt>
      <trkpt lat="48.0319350" lon="8.1867530">
        <ele>462.8</ele>
        <time>2022-06-06T07:42:30Z</time>
      </trkpt>
      <trkpt lat="48.0318400" lon="8.1867750">
        <ele>463.4</ele>
        <time>2022-06-06T07:42:34Z</time>
      </trkpt>
      <trkpt lat="48.0317430" lon="8.1867800">
        <ele>463.4</ele>
        <time>2022-06-06T07:42:38Z</time>
      </trkpt>
      <trkpt lat="48.0316430" lon="8.1867730">
        <ele>463.8</ele>
        <time>2022-06-06T07:42:42Z</time>
      </trkpt>
      <trkpt lat="48.0315360" lon="8.1867750">
        <ele>463.8</ele>
        <time>2022-06-06T07:42:46Z</time>
      </trkpt>
      <trkpt lat="48.0314280" lon="8.1867900">
        <ele>464.6</ele>
        <time>2022-06-06T07:42:50Z</time>
      </trkpt>
      <trkpt lat="48.0313200" lon="8.1868080">
        <ele>465.0</ele>
        <time>2022-06-06T07:42:54Z</time>
      </trkpt>
      <trkpt lat="48.0312210" lon="8.1868150">
        <ele>465.4</ele>
        <time>2022-06-06T07:42:58Z</time>
      </trkpt>
      <trkpt lat="48.0311260" lon="8.1868080">
        <ele>466.2</ele>
        <time>2022-06-06T07:43:02Z</time>
      </trkpt>
      <trkpt lat="48.0310350" lon="8.1868060">
        <ele>467.2</ele>
        <time>2022-06-06T07:43:06Z</time>
      </trkpt>
      <trkpt lat="48.0309460" lon="8.1868000">
        <ele>467.4</ele>
        <time>2022-06-06T07:43:10Z</time>
      </trkpt>
      <trkpt lat="48.0308630" lon="8.1867760">
        <ele>468.8</ele>
        <time>2022-06-06T07:43:14Z</time>
      </trkpt>
      <trkpt lat="48.0307880" lon="8.1867750">
        <ele>469.6</ele>
        <time>2022-06-06T07:43:18Z</time>
      </trkpt>
      <trkpt lat="48.0307080" lon="8.1867850">
        <ele>470.4</ele>
        <time>2022-06-06T07:43:22Z</time>
      </trkpt>
      <trkpt lat="48.0306310" lon="8.1868080">
        <ele>471.4</ele>
        <time>2022-06-06T07:43:26Z</time>
      </trkpt>
      <trkpt lat="48.0305500" lon="8.1868550">
        <ele>471.6</ele>
        <time>2022-06-06T07:43:30Z</time>
      </trkpt>
      <trkpt lat="48.0304680" lon="8.1868930">
        <ele>472.4</ele>
        <time>2022-06-06T07:43:34Z</time>
      </trkpt>
      <trkpt lat="48.0303860" lon="8.1869330">
        <ele>473.0</ele>
        <time>2022-06-06T07:43:38Z</time>
      </trkpt>
      <trkpt lat="48.0303030" lon="8.1869700">
        <ele>473.4</ele>
        <time>2022-06-06T07:43:42Z</time>
      </trkpt>
      <trkpt lat="48.0302210" lon="8.1870100">
        <ele>473.6</ele>
        <time>2022-06-06T07:43:46Z</time>
      </trkpt>
      <trkpt lat="48.0301410" lon="8.1870480">
        <ele>474.0</ele>
        <time>2022-06-06T07:43:50Z</time>
      </trkpt>
      <trkpt lat="48.0300580" lon="8.1870900">
        <ele>474.4</ele>
        <time>2022-06-06T07:43:54Z</time>
      </trkpt>
      <trkpt lat="48.0299730" lon="8.1871160">
        <ele>475.2</ele>
        <time>2022-06-06T07:43:58Z</time>
      </trkpt>
      <trkpt lat="48.0298860" lon="8.1871500">
        <ele>475.2</ele>
        <time>2022-06-06T07:44:02Z</time>
      </trkpt>
      <trkpt lat="48.0298050" lon="8.1871730">
        <ele>475.4</ele>
        <time>2022-06-06T07:44:06Z</time>
      </trkpt>
      <trkpt lat="48.0297180" lon="8.1871860">
        <ele>476.0</ele>
        <time>2022-06-06T07:44:10Z</time>
      </trkpt>
      <trkpt lat="48.0296310" lon="8.1872000">
        <ele>476.6</ele>
        <time>2022-06-06T07:44:14Z</time>
      </trkpt>
      <trkpt lat="48.0295410" lon="8.1872030">
        <ele>477.0</ele>
        <time>2022-06-06T07:44:18Z</time>
      </trkpt>
      <trkpt lat="48.0294480" lon="8.1872030">
        <ele>477.4</ele>
        <time>2022-06-06T07:44:22Z</time>
      </trkpt>
      <trkpt lat="48.0293500" lon="8.1872100">
        <ele>477.6</ele>
        <time>2022-06-06T07:44:26Z</time>
      </trkpt>
      <trkpt lat="48.0292550" lon="8.1872180">
        <ele>478.0</ele>
        <time>2022-06-06T07:44:30Z</time>
      </trkpt>
      <trkpt lat="48.0291560" lon="8.1872210">
        <ele>478.4</ele>
        <time>2022-06-06T07:44:34Z</time>
      </trkpt>
      <trkpt lat="48.0290550" lon="8.1872310">
        <ele>478.6</ele>
        <time>2022-06-06T07:44:38Z</time>
      </trkpt>
      <trkpt lat="48.0289580" lon="8.1872610">
        <ele>479.4</ele>
        <time>2022-06-06T07:44:42Z</time>
      </trkpt>
      <trkpt lat="48.0288630" lon="8.1873110">
        <ele>479.6</ele>
        <time>2022-06-06T07:44:46Z</time>
      </trkpt>
      <trkpt lat="48.0287830" lon="8.1874080">
        <ele>479.8</ele>
        <time>2022-06-06T07:44:50Z</time>
      </trkpt>
      <trkpt lat="48.0287200" lon="8.1875460">
        <ele>480.0</ele>
        <time>2022-06-06T07:44:54Z</time>
      </trkpt>
      <trkpt lat="48.0286760" lon="8.1877030">
        <ele>480.0</ele>
        <time>2022-06-06T07:44:58Z</time>
      </trkpt>
      <trkpt lat="48.0286350" lon="8.1878510">
        <ele>480.6</ele>
        <time>2022-06-06T07:45:02Z</time>
      </trkpt>
      <trkpt lat="48.0285880" lon="8.1879710">
        <ele>481.2</ele>
        <time>2022-06-06T07:45:06Z</time>
      </trkpt>
      <trkpt lat="48.0285350" lon="8.1880750">
        <ele>481.8</ele>
        <time>2022-06-06T07:45:10Z</time>
      </trkpt>
      <trkpt lat="48.0284830" lon="8.1881810">
        <ele>482.8</ele>
        <time>2022-06-06T07:45:14Z</time>
      </trkpt>
      <trkpt lat="48.0284130" lon="8.1882550">
        <ele>483.8</ele>
        <time>2022-06-06T07:45:18Z</time>
      </trkpt>
      <trkpt lat="48.0283360" lon="8.1883280">
        <ele>483.8</ele>
        <time>2022-06-06T07:45:22Z</time>
      </trkpt>
      <trkpt lat="48.0282660" lon="8.1884060">
        <ele>484.8</ele>
        <time>2022-06-06T07:45:26Z</time>
      </trkpt>
      <trkpt lat="48.0281860" lon="8.1884560">
        <ele>485.4</ele>
        <time>2022-06-06T07:45:30Z</time>
      </trkpt>
      <trkpt lat="48.0281130" lon="8.1885060">
        <ele>485.8</ele>
        <time>2022-06-06T07:45:34Z</time>
      </trkpt>
      <trkpt lat="48.0280430" lon="8.1885560">
        <ele>487.6</ele>
        <time>2022-06-06T07:45:38Z</time>
      </trkpt>
      <trkpt lat="48.0279760" lon="8.1885960">
        <ele>487.6</ele>
        <time>2022-06-06T07:45:42Z</time>
      </trkpt>
      <trkpt lat="48.0279060" lon="8.1886300">
        <ele>488.8</ele>
        <time>2022-06-06T07:45:46Z</time>
      </trkpt>
      <trkpt lat="48.0278380" lon="8.1886660">
        <ele>489.0</ele>
        <time>2022-06-06T07:45:50Z</time>
      </trkpt>
      <trkpt lat="48.0277700" lon="8.1887080">
        <ele>490.2</ele>
        <time>2022-06-06T07:45:54Z</time>
      </trkpt>
      <trkpt lat="48.0277010" lon="8.1887510">
        <ele>490.8</ele>
        <time>2022-06-06T07:45:58Z</time>
      </trkpt>
      <trkpt lat="48.0276300" lon="8.1887980">
        <ele>491.6</ele>
        <time>2022-06-06T07:46:02Z</time>
      </trkpt>
      <trkpt lat="48.0275610" lon="8.1888500">
        <ele>492.2</ele>
        <time>2022-06-06T07:46:06Z</time>
      </trkpt>
      <trkpt lat="48.0274980" lon="8.1889030">
        <ele>492.6</ele>
        <time>2022-06-06T07:46:10Z</time>
      </trkpt>
      <trkpt lat="48.0274330" lon="8.1889610">
        <ele>494.0</ele>
        <time>2022-06-06T07:46:14Z</time>
      </trkpt>
      <trkpt lat="48.0273680" lon="8.1890100">
        <ele>494.4</ele>
        <time>2022-06-06T07:46:18Z</time>
      </trkpt>
      <trkpt lat="48.0273080" lon="8.1890600">
        <ele>495.4</ele>
        <time>2022-06-06T07:46:22Z</time>
      </trkpt>
      <trkpt lat="48.0272360" lon="8.1891030">
        <ele>496.4</ele>
        <time>2022-06-06T07:46:26Z</time>
      </trkpt>
      <trkpt lat="48.0271660" lon="8.1891230">
        <ele>496.8</ele>
        <time>2022-06-06T07:46:30Z</time>
      </trkpt>
      <trkpt lat="48.0270960" lon="8.1891300">
        <ele>497.0</ele>
        <time>2022-06-06T07:46:34Z</time>
      </trkpt>
      <trkpt lat="48.0270200" lon="8.1891280">
        <ele>497.8</ele>
        <time>2022-06-06T07:46:38Z</time>
      </trkpt>
      <trkpt lat="48.0269360" lon="8.1891330">
        <ele>499.2</ele>
        <time>2022-06-06T07:46:42Z</time>
      </trkpt>
      <trkpt lat="48.0268650" lon="8.1891280">
        <ele>499.4</ele>
        <time>2022-06-06T07:46:46Z</time>
      </trkpt>
      <trkpt lat="48.0267930" lon="8.1891300">
        <ele>500.4</ele>
        <time>2022-06-06T07:46:50Z</time>
      </trkpt>
      <trkpt lat="48.0267180" lon="8.1891400">
        <ele>501.6</ele>
        <time>2022-06-06T07:46:54Z</time>
      </trkpt>
      <trkpt lat="48.0266510" lon="8.1891560">
        <ele>501.8</ele>
        <time>2022-06-06T07:46:58Z</time>
      </trkpt>
      <trkpt lat="48.0265810" lon="8.1891700">
        <ele>502.6</ele>
        <time>2022-06-06T07:47:02Z</time>
      </trkpt>
      <trkpt lat="48.0265110" lon="8.1891780">
        <ele>503.4</ele>
        <time>2022-06-06T07:47:06Z</time>
      </trkpt>
      <trkpt lat="48.0264360" lon="8.1892030">
        <ele>503.6</ele>
        <time>2022-06-06T07:47:10Z</time>
      </trkpt>
      <trkpt lat="48.0263610" lon="8.1892280">
        <ele>504.4</ele>
        <time>2022-06-06T07:47:14Z</time>
      </trkpt>
      <trkpt lat="48.0262900" lon="8.1892510">
        <ele>505.4</ele>
        <time>2022-06-06T07:47:18Z</time>
      </trkpt>
      <trkpt lat="48.0262150" lon="8.1892780">
        <ele>506.4</ele>
        <time>2022-06-06T07:47:22Z</time>
      </trkpt>
      <trkpt lat="48.0261330" lon="8.1892900">
        <ele>506.8</ele>
        <time>2022-06-06T07:47:26Z</time>
      </trkpt>
      <trkpt lat="48.0260560" lon="8.1893110">
        <ele>508.0</ele>
        <time>2022-06-06T07:47:30Z</time>
      </trkpt>
      <trkpt lat="48.0259730" lon="8.1893260">
        <ele>507.8</ele>
        <time>2022-06-06T07:47:34Z</time>
      </trkpt>
      <trkpt lat="48.0258910" lon="8.1893410">
        <ele>508.6</ele>
        <time>2022-06-06T07:47:38Z</time>
      </trkpt>
      <trkpt lat="48.0258080" lon="8.1893660">
        <ele>509.8</ele>
        <time>2022-06-06T07:47:42Z</time>
      </trkpt>
      <trkpt lat="48.0257350" lon="8.1893930">
        <ele>510.2</ele>
        <time>2022-06-06T07:47:46Z</time>
      </trkpt>
      <trkpt lat="48.0256600" lon="8.1894160">
        <ele>511.4</ele>
        <time>2022-06-06T07:47:50Z</time>
      </trkpt>
      <trkpt lat="48.0255810" lon="8.1894430">
        <ele>512.6</ele>
        <time>2022-06-06T07:47:54Z</time>
      </trkpt>
      <trkpt lat="48.0255050" lon="8.1894700">
        <ele>513.0</ele>
        <time>2022-06-06T07:47:58Z</time>
      </trkpt>
      <trkpt lat="48.0254260" lon="8.1894800">
        <ele>514.4</ele>
        <time>2022-06-06T07:48:02Z</time>
      </trkpt>
      <trkpt lat="48.0253450" lon="8.1895060">
        <ele>515.0</ele>
        <time>2022-06-06T07:48:06Z</time>
      </trkpt>
      <trkpt lat="48.0252650" lon="8.1895380">
        <ele>515.6</ele>
        <time>2022-06-06T07:48:10Z</time>
      </trkpt>
      <trkpt lat="48.0251830" lon="8.1895650">
        <ele>516.2</ele>
        <time>2022-06-06T07:48:14Z</time>
      </trkpt>
      <trkpt lat="48.0251050" lon="8.1895830">
        <ele>517.0</ele>
        <time>2022-06-06T07:48:18Z</time>
      </trkpt>
      <trkpt lat="48.0250260" lon="8.1896050">
        <ele>517.4</ele>
        <time>2022-06-06T07:48:22Z</time>
      </trkpt>
      <trkpt lat="48.0249450" lon="8.1896080">
        <ele>517.8</ele>
        <time>2022-06-06T07:48:26Z</time>
      </trkpt>
      <trkpt lat="48.0248630" lon="8.1896160">
        <ele>518.6</ele>
        <time>2022-06-06T07:48:30Z</time>
      </trkpt>
      <trkpt lat="48.0247860" lon="8.1896050">
        <ele>519.6</ele>
        <time>2022-06-06T07:48:34Z</time>
      </trkpt>
      <trkpt lat="48.0247030" lon="8.1895830">
        <ele>520.4</ele>
        <time>2022-06-06T07:48:38Z</time>
      </trkpt>
      <trkpt lat="48.0246130" lon="8.1895810">
        <ele>520.8</ele>
        <time>2022-06-06T07:48:42Z</time>
      </trkpt>
      <trkpt lat="48.0245310" lon="8.1895680">
        <ele>522.2</ele>
        <time>2022-06-06T07:48:46Z</time>
      </trkpt>
      <trkpt lat="48.0244530" lon="8.1895410">
        <ele>522.4</ele>
        <time>2022-06-06T07:48:50Z</time>
      </trkpt>
      <trkpt lat="48.0243760" lon="8.1895300">
        <ele>524.2</ele>
        <time>2022-06-06T07:48:54Z</time>
      </trkpt>
      <trkpt lat="48.0243030" lon="8.1894910">
        <ele>525.4</ele>
        <time>2022-06-06T07:48:58Z</time>
      </trkpt>
      <trkpt lat="48.0242130" lon="8.1894480">
        <ele>527.2</ele>
        <time>2022-06-06T07:49:02Z</time>
      </trkpt>
      <trkpt lat="48.0241330" lon="8.1894130">
        <ele>528.2</ele>
        <time>2022-06-06T07:49:06Z</time>
      </trkpt>
      <trkpt lat="48.0240400" lon="8.1893980">
        <ele>528.6</ele>
        <time>2022-06-06T07:49:10Z</time>
      </trkpt>
      <trkpt lat="48.0239450" lon="8.1893860">
        <ele>529.8</ele>
        <time>2022-06-06T07:49:14Z</time>
      </trkpt>
      <trkpt lat="48.0238630" lon="8.1893560">
        <ele>531.0</ele>
        <time>2022-06-06T07:49:18Z</time>
      </trkpt>
      <trkpt lat="48.0238030" lon="8.1893030">
        <ele>531.6</ele>
        <time>2022-06-06T07:49:22Z</time>
      </trkpt>
      <trkpt lat="48.0237880" lon="8.1892110">
        <ele>531.4</ele>
        <time>2022-06-06T07:49:26Z</time>
      </trkpt>
      <trkpt lat="48.0237880" lon="8.1892110">
        <ele>531.2</ele>
        <time>2022-06-06T07:49:30Z</time>
      </trkpt>
      <trkpt lat="48.0237880" lon="8.1892110">
        <ele>530.8</ele>
        <time>2022-06-06T07:49:34Z</time>
      </trkpt>
      <trkpt lat="48.0237880" lon="8.1892110">
        <ele>531.2</ele>
        <time>2022-06-06T07:49:38Z</time>
      </trkpt>
      <trkpt lat="48.0237880" lon="8.1892110">
        <ele>531.0</ele>
        <time>2022-06-06T07:49:42Z</time>
      </trkpt>
      <trkpt lat="48.0237880" lon="8.1892110">
        <ele>531.0</ele>
        <time>2022-06-06T07:49:46Z</time>
      </trkpt>
      <trkpt lat="48.0237880" lon="8.1892110">
        <ele>531.0</ele>
        <time>2022-06-06T07:49:50Z</time>
      </trkpt>
      <trkpt lat="48.0237880" lon="8.1892110">
        <ele>530.8</ele>
        <time>2022-06-06T07:49:54Z</time>
      </trkpt>
      <trkpt lat="48.0237880" lon="8.1892110">
        <ele>530.8</ele>
        <time>2022-06-06T07:49:58Z</time>
      </trkpt>
      <trkpt lat="48.0237880" lon="8.1892110">
        <ele>530.6</ele>
        <time>2022-06-06T07:50:02Z</time>
      </trkpt>
      <trkpt lat="48.0237880" lon="8.1892110">
        <ele>530.8</ele>
        <time>2022-06-06T07:50:06Z</time>
      </trkpt>
      <trkpt lat="48.0237880" lon="8.1892110">
        <ele>531.0</ele>
        <time>2022-06-06T07:50:10Z</time>
      </trkpt>
      <trkpt lat="48.0237880" lon="8.1892110">
        <ele>530.8</ele>
        <time>2022-06-06T07:50:14Z</time>
      </trkpt>
      <trkpt lat="48.0237880" lon="8.1892110">
        <ele>530.6</ele>
        <time>2022-06-06T07:50:18Z</time>
      </trkpt>
      <trkpt lat="48.0237880" lon="8.1892110">
        <ele>530.8</ele>
        <time>2022-06-06T07:50:22Z</time>
      </trkpt>
      <trkpt lat="48.0237880" lon="8.1892110">
        <ele>530.8</ele>
        <time>2022-06-06T07:50:26Z</time>
      </trkpt>
      <trkpt lat="48.0237880" lon="8.1892110">
        <ele>530.8</ele>
        <time>2022-06-06T07:50:30Z</time>
      </trkpt>
      <trkpt lat="48.0237880" lon="8.1892110">
        <ele>531.0</ele>
        <time>2022-06-06T07:50:34Z</time>
      </trkpt>
      <trkpt lat="48.0237880" lon="8.1892110">
        <ele>530.8</ele>
        <time>2022-06-06T07:50:38Z</time>
      </trkpt>
      <trkpt lat="48.0237880" lon="8.1892110">
        <ele>530.8</ele>
        <time>2022-06-06T07:50:42Z</time>
      </trkpt>
      <trkpt lat="48.0237880" lon="8.1892110">
        <ele>531.0</ele>
        <time>2022-06-06T07:50:46Z</time>
      </trkpt>
      <trkpt lat="48.0237880" lon="8.1892110">
        <ele>530.8</ele>
        <time>2022-06-06T07:50:50Z</time>
      </trkpt>
      <trkpt lat="48.0237880" lon="8.1892110">
        <ele>530.2</ele>
        <time>2022-06-06T07:50:54Z</time>
      </trkpt>
      <trkpt lat="48.0237880" lon="8.1892110">
        <ele>530.6</ele>
        <time>2022-06-06T07:50:58Z</time>
      </trkpt>
      <trkpt lat="48.0237880" lon="8.1892110">
        <ele>530.6</ele>
        <time>2022-06-06T07:51:02Z</time>
      </trkpt>
      <trkpt lat="48.0237880" lon="8.1892110">
        <ele>530.8</ele>
        <time>2022-06-06T07:51:06Z</time>
      </trkpt>
      <trkpt lat="48.0237880" lon="8.1892110">
        <ele>530.8</ele>
        <time>2022-06-06T07:51:10Z</time>
      </trkpt>
      <trkpt lat="48.0237880" lon="8.1892110">
        <ele>531.0</ele>
        <time>2022-06-06T07:51:14Z</time>
      </trkpt>
      <trkpt lat="48.0237880" lon="8.1892110">
        <ele>530.8</ele>
        <time>2022-06-06T07:51:18Z</time>
      </trkpt>
      <trkpt lat="48.0237880" lon="8.1892110">
        <ele>531.0</ele>
        <time>2022-06-06T07:51:22Z</time>
      </trkpt>
      <trkpt lat="48.0237880" lon="8.1892110">
        <ele>531.0</ele>
        <time>2022-06-06T07:51:26Z</time>
      </trkpt>
      <trkpt lat="48.0237880" lon="8.1892110">
        <ele>531.0</ele>
        <time>2022-06-06T07:51:30Z</time>
      </trkpt>
      <trkpt lat="48.0237880" lon="8.1892110">
        <ele>531.0</ele>
        <time>2022-06-06T07:51:34Z</time>
      </trkpt>
      <trkpt lat="48.0237880" lon="8.1892110">
        <ele>531.0</ele>
        <time>2022-06-06T07:51:38Z</time>
      </trkpt>
      <trkpt lat="48.0237880" lon="8.1892110">
        <ele>531.0</ele>
        <time>2022-06-06T07:51:42Z</time>
      </trkpt>
      <trkpt lat="48.0237880" lon="8.1892110">
        <ele>531.0</ele>
        <time>2022-06-06T07:51:46Z</time>
      </trkpt>
      <trkpt lat="48.0237880" lon="8.1892110">
        <ele>531.0</ele>
        <time>2022-06-06T07:51:50Z</time>
      </trkpt>
      <trkpt lat="48.0237880" lon="8.1892110">
        <ele>530.8</ele>
        <time>2022-06-06T07:51:54Z</time>
      </trkpt>
      <trkpt lat="48.0237880" lon="8.1892110">
        <ele>530.6</ele>
        <time>2022-06-06T07:51:58Z</time>
      </trkpt>
      <trkpt lat="48.0237880" lon="8.1892110">
        <ele>531.0</ele>
        <time>2022-06-06T07:52:02Z</time>
      </trkpt>
      <trkpt lat="48.0237880" lon="8.1892110">
        <ele>530.8</ele>
        <time>2022-06-06T07:52:06Z</time>
      </trkpt>
      <trkpt lat="48.0237880" lon="8.1892110">
        <ele>530.8</ele>
        <time>2022-06-06T07:52:10Z</time>
      </trkpt>
      <trkpt lat="48.0237880" lon="8.1892110">
        <ele>530.8</ele>
        <time>2022-06-06T07:52:14Z</time>
      </trkpt>
      <trkpt lat="48.0237880" lon="8.1892110">
        <ele>530.4</ele>
        <time>2022-06-06T07:52:18Z</time>
      </trkpt>
      <trkpt lat="48.0237880" lon="8.1892110">
        <ele>531.0</ele>
        <time>2022-06-06T07:52:22Z</time>
      </trkpt>
      <trkpt lat="48.0237880" lon="8.1892110">
        <ele>530.8</ele>
        <time>2022-06-06T07:52:26Z</time>
      </trkpt>
      <trkpt lat="48.0237880" lon="8.1892110">
        <ele>530.6</ele>
        <time>2022-06-06T07:52:30Z</time>
      </trkpt>
      <trkpt lat="48.0237880" lon="8.1892110">
        <ele>530.6</ele>
        <time>2022-06-06T07:52:34Z</time>
      </trkpt>
      <trkpt lat="48.0237880" lon="8.1892110">
        <ele>530.6</ele>
        <time>2022-06-06T07:52:38Z</time>
      </trkpt>
      <trkpt lat="48.0237880" lon="8.1892110">
        <ele>530.6</ele>
        <time>2022-06-06T07:52:42Z</time>
      </trkpt>
      <trkpt lat="48.0237880" lon="8.1892110">
        <ele>530.8</ele>
        <time>2022-06-06T07:52:46Z</time>
      </trkpt>
      <trkpt lat="48.0237880" lon="8.1892110">
        <ele>530.4</ele>
        <time>2022-06-06T07:52:50Z</time>
      </trkpt>
      <trkpt lat="48.0237880" lon="8.1892110">
        <ele>530.8</ele>
        <time>2022-06-06T07:52:54Z</time>
      </trkpt>
      <trkpt lat="48.0237880" lon="8.1892110">
        <ele>530.4</ele>
        <time>2022-06-06T07:52:58Z</time>
      </trkpt>
      <trkpt lat="48.0237880" lon="8.1892110">
        <ele>530.8</ele>
        <time>2022-06-06T07:53:02Z</time>
      </trkpt>
      <trkpt lat="48.0237880" lon="8.1892110">
        <ele>530.4</ele>
        <time>2022-06-06T07:53:06Z</time>
      </trkpt>
      <trkpt lat="48.0237880" lon="8.1892110">
        <ele>530.6</ele>
        <time>2022-06-06T07:53:10Z</time>
      </trkpt>
      <trkpt lat="48.0237880" lon="8.1892110">
        <ele>530.6</ele>
        <time>2022-06-06T07:53:14Z</time>
      </trkpt>
      <trkpt lat="48.0237880" lon="8.1892110">
        <ele>531.0</ele>
        <time>2022-06-06T07:53:18Z</time>
      </trkpt>
      <trkpt lat="48.0237880" lon="8.1892110">
        <ele>531.0</ele>
        <time>2022-06-06T07:53:22Z</time>
      </trkpt>
      <trkpt lat="48.0237880" lon="8.1892110">
        <ele>530.8</ele>
        <time>2022-06-06T07:53:26Z</time>
      </trkpt>
      <trkpt lat="48.0237880" lon="8.1892110">
        <ele>530.8</ele>
        <time>2022-06-06T07:53:30Z</time>
      </trkpt>
      <trkpt lat="48.0237880" lon="8.1892110">
        <ele>530.8</ele>
        <time>2022-06-06T07:53:34Z</time>
      </trkpt>
      <trkpt lat="48.0237880" lon="8.1892110">
        <ele>531.0</ele>
        <time>2022-06-06T07:53:38Z</time>
      </trkpt>
      <trkpt lat="48.0237880" lon="8.1892110">
        <ele>530.8</ele>
        <time>2022-06-06T07:53:42Z</time>
      </trkpt>
      <trkpt lat="48.0237880" lon="8.1892110">
        <ele>530.4</ele>
        <time>2022-06-06T07:53:46Z</time>
      </trkpt>
      <trkpt lat="48.0237880" lon="8.1892110">
        <ele>530.6</ele>
        <time>2022-06-06T07:53:50Z</time>
      </trkpt>
      <trkpt lat="48.0237880" lon="8.1892110">
        <ele>531.0</ele>
        <time>2022-06-06T07:53:54Z</time>
      </trkpt>
      <trkpt lat="48.0237880" lon="8.1892110">
        <ele>530.6</ele>
        <time>2022-06-06T07:53:58Z</time>
      </trkpt>
      <trkpt lat="48.0237880" lon="8.1892110">
        <ele>530.8</ele>
        <time>2022-06-06T07:54:02Z</time>
      </trkpt>
      <trkpt lat="48.0237880" lon="8.1892110">
        <ele>530.8</ele>
        <time>2022-06-06T07:54:06Z</time>
      </trkpt>
      <trkpt lat="48.0237880" lon="8.1892110">
        <ele>530.8</ele>
        <time>2022-06-06T07:54:10Z</time>
      </trkpt>
      <trkpt lat="48.0237880" lon="8.1892110">
        <ele>531.0</ele>
        <time>2022-06-06T07:54:14Z</time>
      </trkpt>
      <trkpt lat="48.0237880" lon="8.1892110">
        <ele>530.4</ele>
        <time>2022-06-06T07:54:18Z</time>
      </trkpt>
      <trkpt lat="48.0237880" lon="8.1892110">
        <ele>530.6</ele>
        <time>2022-06-06T07:54:22Z</time>
      </trkpt>
      <trkpt lat="48.0237880" lon="8.1892110">
        <ele>530.4</ele>
        <time>2022-06-06T07:54:26Z</time>
      </trkpt>
      <trkpt lat="48.0237880" lon="8.1892110">
        <ele>530.6</ele>
        <time>2022-06-06T07:54:30Z</time>
      </trkpt>
      <trkpt lat="48.0237880" lon="8.1892110">
        <ele>530.4</ele>
        <time>2022-06-06T07:54:34Z</time>
      </trkpt>
      <trkpt lat="48.0237880" lon="8.1892110">
        <ele>530.6</ele>
        <time>2022-06-06T07:54:38Z</time>
      </trkpt>
      <trkpt lat="48.0237880" lon="8.1892110">
        <ele>530.6</ele>
        <time>2022-06-06T07:54:42Z</time>
      </trkpt>
      <trkpt lat="48.0237880" lon="8.1892110">
        <ele>530.2</ele>
        <time>2022-06-06T07:54:46Z</time>
      </trkpt>
      <trkpt lat="48.0237880" lon="8.1892110">
        <ele>530.8</ele>
        <time>2022-06-06T07:54:50Z</time>
      </trkpt>
      <trkpt lat="48.0237880" lon="8.1892110">
        <ele>530.6</ele>
        <time>2022-06-06T07:54:54Z</time>
      </trkpt>
      <trkpt lat="48.0237880" lon="8.1892110">
        <ele>530.6</ele>
        <time>2022-06-06T07:54:58Z</time>
      </trkpt>
      <trkpt lat="48.0237880" lon="8.1892110">
        <ele>530.2</ele>
        <time>2022-06-06T07:55:02Z</time>
      </trkpt>
      <trkpt lat="48.0237880" lon="8.1892110">
        <ele>530.6</ele>
        <time>2022-06-06T07:55:06Z</time>
      </trkpt>
      <trkpt lat="48.0237880" lon="8.1892110">
        <ele>530.2</ele>
        <time>2022-06-06T07:55:10Z</time>
      </trkpt>
      <trkpt lat="48.0237880" lon="8.1892110">
        <ele>530.6</ele>
        <time>2022-06-06T07:55:14Z</time>
      </trkpt>
      <trkpt lat="48.0237880" lon="8.1892110">
        <ele>530.4</ele>
        <time>2022-06-06T07:55:18Z</time>
      </trkpt>
      <trkpt lat="48.0237880" lon="8.1892110">
        <ele>530.4</ele>
        <time>2022-06-06T07:55:22Z</time>
      </trkpt>
      <trkpt lat="48.0237880" lon="8.1892110">
        <ele>530.6</ele>
        <time>2022-06-06T07:55:26Z</time>
      </trkpt>
      <trkpt lat="48.0237880" lon="8.1892110">
        <ele>530.6</ele>
        <time>2022-06-06T07:55:30Z</time>
      </trkpt>
      <trkpt lat="48.0237880" lon="8.1892110">
        <ele>530.8</ele>
        <time>2022-06-06T07:55:34Z</time>
      </trkpt>
      <trkpt lat="48.0237880" lon="8.1892110">
        <ele>530.6</ele>
        <time>2022-06-06T07:55:38Z</time>
      </trkpt>
      <trkpt lat="48.0237880" lon="8.1892110">
        <ele>530.4</ele>
        <time>2022-06-06T07:55:42Z</time>
      </trkpt>
      <trkpt lat="48.0237880" lon="8.1892110">
        <ele>530.4</ele>
        <time>2022-06-06T07:55:46Z</time>
      </trkpt>
      <trkpt lat="48.0237880" lon="8.1892110">
        <ele>530.6</ele>
        <time>2022-06-06T07:55:50Z</time>
      </trkpt>
      <trkpt lat="48.0237880" lon="8.1892110">
        <ele>530.6</ele>
        <time>2022-06-06T07:55:54Z</time>
      </trkpt>
      <trkpt lat="48.0237880" lon="8.1892110">
        <ele>530.6</ele>
        <time>2022-06-06T07:55:58Z</time>
      </trkpt>
      <trkpt lat="48.0237880" lon="8.1892110">
        <ele>530.6</ele>
        <time>2022-06-06T07:56:02Z</time>
      </trkpt>
      <trkpt lat="48.0237880" lon="8.1892110">
        <ele>530.8</ele>
        <time>2022-06-06T07:56:06Z</time>
      </trkpt>
      <trkpt lat="48.0237880" lon="8.1892110">
        <ele>530.8</ele>
        <time>2022-06-06T07:56:10Z</time>
      </trkpt>
      <trkpt lat="48.0237880" lon="8.1892110">
        <ele>530.8</ele>
        <time>2022-06-06T07:56:14Z</time>
      </trkpt>
      <trkpt lat="48.0237880" lon="8.1892110">
        <ele>530.8</ele>
        <time>2022-06-06T07:56:18Z</time>
      </trkpt>
      <trkpt lat="48.0237880" lon="8.1892110">
        <ele>530.8</ele>
        <time>2022-06-06T07:56:22Z</time>
      </trkpt>
      <trkpt lat="48.0237880" lon="8.1892110">
        <ele>530.4</ele>
        <time>2022-06-06T07:56:26Z</time>
      </trkpt>
      <trkpt lat="48.0237880" lon="8.1892110">
        <ele>530.8</ele>
        <time>2022-06-06T07:56:30Z</time>
      </trkpt>
      <trkpt lat="48.0237880" lon="8.1892110">
        <ele>530.8</ele>
        <time>2022-06-06T07:56:34Z</time>
      </trkpt>
      <trkpt lat="48.0237880" lon="8.1892110">
        <ele>530.8</ele>
        <time>2022-06-06T07:56:38Z</time>
      </trkpt>
      <trkpt lat="48.0237880" lon="8.1892110">
        <ele>530.6</ele>
        <time>2022-06-06T07:56:42Z</time>
      </trkpt>
      <trkpt lat="48.0237880" lon="8.1892110">
        <ele>531.6</ele>
        <time>2022-06-06T07:56:46Z</time>
      </trkpt>
      <trkpt lat="48.0237880" lon="8.1892110">
        <ele>531.2</ele>
        <time>2022-06-06T07:56:50Z</time>
      </trkpt>
      <trkpt lat="48.0237980" lon="8.1891330">
        <ele>531.2</ele>
        <time>2022-06-06T07:56:54Z</time>
      </trkpt>
      <trkpt lat="48.0237980" lon="8.1891330">
        <ele>531.2</ele>
        <time>2022-06-06T07:56:58Z</time>
      </trkpt>
      <trkpt lat="48.0238000" lon="8.1891630">
        <ele>531.2</ele>
        <time>2022-06-06T07:57:02Z</time>
      </trkpt>
      <trkpt lat="48.0237680" lon="8.1892560">
        <ele>531.2</ele>
        <time>2022-06-06T07:57:06Z</time>
      </trkpt>
      <trkpt lat="48.0236760" lon="8.1893500">
        <ele>531.6</ele>
        <time>2022-06-06T07:57:10Z</time>
      </trkpt>
      <trkpt lat="48.0235750" lon="8.1894010">
        <ele>531.6</ele>
        <time>2022-06-06T07:57:14Z</time>
      </trkpt>
      <trkpt lat="48.0234630" lon="8.1894210">
        <ele>532.2</ele>
        <time>2022-06-06T07:57:18Z</time>
      </trkpt>
      <trkpt lat="48.0233460" lon="8.1894150">
        <ele>530.8</ele>
        <time>2022-06-06T07:57:22Z</time>
      </trkpt>
      <trkpt lat="48.0232150" lon="8.1893600">
        <ele>529.8</ele>
        <time>2022-06-06T07:57:26Z</time>
      </trkpt>
      <trkpt lat="48.0230500" lon="8.1893050">
        <ele>529.0</ele>
        <time>2022-06-06T07:57:30Z</time>
      </trkpt>
      <trkpt lat="48.0228400" lon="8.1892580">
        <ele>528.6</ele>
        <time>2022-06-06T07:57:34Z</time>
      </trkpt>
      <trkpt lat="48.0226300" lon="8.1891860">
        <ele>528.2</ele>
        <time>2022-06-06T07:57:38Z</time>
      </trkpt>
      <trkpt lat="48.0225610" lon="8.1889150">
        <ele>528.6</ele>
        <time>2022-06-06T07:57:42Z</time>
      </trkpt>
      <trkpt lat="48.0225110" lon="8.1886310">
        <ele>528.2</ele>
        <time>2022-06-06T07:57:46Z</time>
      </trkpt>
      <trkpt lat="48.0224300" lon="8.1883760">
        <ele>528.2</ele>
        <time>2022-06-06T07:57:50Z</time>
      </trkpt>
      <trkpt lat="48.0223560" lon="8.1881250">
        <ele>527.8</ele>
        <time>2022-06-06T07:57:54Z</time>
      </trkpt>
      <trkpt lat="48.0223050" lon="8.1878450">
        <ele>526.6</ele>
        <time>2022-06-06T07:57:58Z</time>
      </trkpt>
      <trkpt lat="48.0222710" lon="8.1875350">
        <ele>525.6</ele>
        <time>2022-06-06T07:58:02Z</time>
      </trkpt>
      <trkpt lat="48.0222530" lon="8.1872050">
        <ele>524.8</ele>
        <time>2022-06-06T07:58:06Z</time>
      </trkpt>
      <trkpt lat="48.0222260" lon="8.1868630">
        <ele>523.8</ele>
        <time>2022-06-06T07:58:10Z</time>
      </trkpt>
      <trkpt lat="48.0221650" lon="8.1865160">
        <ele>522.0</ele>
        <time>2022-06-06T07:58:14Z</time>
      </trkpt>
      <trkpt lat="48.0220500" lon="8.1861460">
        <ele>520.4</ele>
        <time>2022-06-06T07:58:18Z</time>
      </trkpt>
      <trkpt lat="48.0218700" lon="8.1857650">
        <ele>517.8</ele>
        <time>2022-06-06T07:58:22Z</time>
      </trkpt>
      <trkpt lat="48.0216510" lon="8.1854010">
        <ele>515.2</ele>
        <time>2022-06-06T07:58:26Z</time>
      </trkpt>
      <trkpt lat="48.0214160" lon="8.1850850">
        <ele>513.0</ele>
        <time>2022-06-06T07:58:30Z</time>
      </trkpt>
      <trkpt lat="48.0211680" lon="8.1847600">
        <ele>509.8</ele>
        <time>2022-06-06T07:58:34Z</time>
      </trkpt>
      <trkpt lat="48.0209010" lon="8.1843960">
        <ele>507.8</ele>
        <time>2022-06-06T07:58:38Z</time>
      </trkpt>
      <trkpt lat="48.0205760" lon="8.1841910">
        <ele>506.8</ele>
        <time>2022-06-06T07:58:42Z</time>
      </trkpt>
      <trkpt lat="48.0202730" lon="8.1841000">
        <ele>506.0</ele>
        <time>2022-06-06T07:58:46Z</time>
      </trkpt>
      <trkpt lat="48.0200080" lon="8.1840480">
        <ele>506.4</ele>
        <time>2022-06-06T07:58:50Z</time>
      </trkpt>
      <trkpt lat="48.0197780" lon="8.1840360">
        <ele>506.8</ele>
        <time>2022-06-06T07:58:54Z</time>
      </trkpt>
      <trkpt lat="48.0195900" lon="8.1840110">
        <ele>507.8</ele>
        <time>2022-06-06T07:58:58Z</time>
      </trkpt>
      <trkpt lat="48.0194680" lon="8.1838760">
        <ele>507.8</ele>
        <time>2022-06-06T07:59:02Z</time>
      </trkpt>
      <trkpt lat="48.0193860" lon="8.1836810">
        <ele>507.2</ele>
        <time>2022-06-06T07:59:06Z</time>
      </trkpt>
      <trkpt lat="48.0192750" lon="8.1834830">
        <ele>506.8</ele>
        <time>2022-06-06T07:59:10Z</time>
      </trkpt>
      <trkpt lat="48.0191760" lon="8.1832380">
        <ele>505.8</ele>
        <time>2022-06-06T07:59:14Z</time>
      </trkpt>
      <trkpt lat="48.0190430" lon="8.1829900">
        <ele>504.4</ele>
        <time>2022-06-06T07:59:18Z</time>
      </trkpt>
      <trkpt lat="48.0188930" lon="8.1827460">
        <ele>504.0</ele>
        <time>2022-06-06T07:59:22Z</time>
      </trkpt>
      <trkpt lat="48.0187580" lon="8.1824950">
        <ele>502.8</ele>
        <time>2022-06-06T07:59:26Z</time>
      </trkpt>
      <trkpt lat="48.0186380" lon="8.1822100">
        <ele>501.8</ele>
        <time>2022-06-06T07:59:30Z</time>
      </trkpt>
      <trkpt lat="48.0185380" lon="8.1819360">
        <ele>502.8</ele>
        <time>2022-06-06T07:59:34Z</time>
      </trkpt>
      <trkpt lat="48.0184530" lon="8.1816730">
        <ele>503.8</ele>
        <time>2022-06-06T07:59:38Z</time>
      </trkpt>
      <trkpt lat="48.0183710" lon="8.1814830">
        <ele>503.6</ele>
        <time>2022-06-06T07:59:42Z</time>
      </trkpt>
      <trkpt lat="48.0182380" lon="8.1813080">
        <ele>504.4</ele>
        <time>2022-06-06T07:59:46Z</time>
      </trkpt>
      <trkpt lat="48.0181010" lon="8.1810710">
        <ele>504.2</ele>
        <time>2022-06-06T07:59:50Z</time>
      </trkpt>
      <trkpt lat="48.0179860" lon="8.1808310">
        <ele>505.4</ele>
        <time>2022-06-06T07:59:54Z</time>
      </trkpt>
      <trkpt lat="48.0179110" lon="8.1806180">
        <ele>505.8</ele>
        <time>2022-06-06T07:59:58Z</time>
      </trkpt>
      <trkpt lat="48.0178660" lon="8.1804110">
        <ele>506.4</ele>
        <time>2022-06-06T08:00:02Z</time>
      </trkpt>
      <trkpt lat="48.0178300" lon="8.1802030">
        <ele>506.2</ele>
        <time>2022-06-06T08:00:06Z</time>
      </trkpt>
      <trkpt lat="48.0178060" lon="8.1799850">
        <ele>506.2</ele>
        <time>2022-06-06T08:00:10Z</time>
      </trkpt>
      <trkpt lat="48.0178110" lon="8.1797750">
        <ele>506.4</ele>
        <time>2022-06-06T08:00:14Z</time>
      </trkpt>
      <trkpt lat="48.0178180" lon="8.1795560">
        <ele>505.8</ele>
        <time>2022-06-06T08:00:18Z</time>
      </trkpt>
      <trkpt lat="48.0178450" lon="8.1793280">
        <ele>505.4</ele>
        <time>2022-06-06T08:00:22Z</time>
      </trkpt>
      <trkpt lat="48.0178880" lon="8.1791010">
        <ele>504.4</ele>
        <time>2022-06-06T08:00:26Z</time>
      </trkpt>
      <trkpt lat="48.0179380" lon="8.1788730">
        <ele>504.4</ele>
        <time>2022-06-06T08:00:30Z</time>
      </trkpt>
      <trkpt lat="48.0180200" lon="8.1786460">
        <ele>503.0</ele>
        <time>2022-06-06T08:00:34Z</time>
      </trkpt>
      <trkpt lat="48.0181610" lon="8.1784350">
        <ele>503.4</ele>
        <time>2022-06-06T08:00:38Z</time>
      </trkpt>
      <trkpt lat="48.0183260" lon="8.1782250">
        <ele>502.8</ele>
        <time>2022-06-06T08:00:42Z</time>
      </trkpt>
      <trkpt lat="48.0184930" lon="8.1779980">
        <ele>502.2</ele>
        <time>2022-06-06T08:00:46Z</time>
      </trkpt>
      <trkpt lat="48.0186650" lon="8.1777680">
        <ele>500.8</ele>
        <time>2022-06-06T08:00:50Z</time>
      </trkpt>
      <trkpt lat="48.0188380" lon="8.1775160">
        <ele>498.8</ele>
        <time>2022-06-06T08:00:54Z</time>
      </trkpt>
      <trkpt lat="48.0190130" lon="8.1772450">
        <ele>497.0</ele>
        <time>2022-06-06T08:00:58Z</time>
      </trkpt>
      <trkpt lat="48.0191460" lon="8.1770210">
        <ele>495.2</ele>
        <time>2022-06-06T08:01:02Z</time>
      </trkpt>
      <trkpt lat="48.0192310" lon="8.1768580">
        <ele>494.2</ele>
        <time>2022-06-06T08:01:06Z</time>
      </trkpt>
      <trkpt lat="48.0191860" lon="8.1767630">
        <ele>494.0</ele>
        <time>2022-06-06T08:01:10Z</time>
      </trkpt>
      <trkpt lat="48.0190780" lon="8.1768030">
        <ele>493.2</ele>
        <time>2022-06-06T08:01:14Z</time>
      </trkpt>
      <trkpt lat="48.0189650" lon="8.1768800">
        <ele>493.0</ele>
        <time>2022-06-06T08:01:18Z</time>
      </trkpt>
      <trkpt lat="48.0188410" lon="8.1769800">
        <ele>492.0</ele>
        <time>2022-06-06T08:01:22Z</time>
      </trkpt>
      <trkpt lat="48.0186910" lon="8.1770710">
        <ele>491.4</ele>
        <time>2022-06-06T08:01:26Z</time>
      </trkpt>
      <trkpt lat="48.0185350" lon="8.1771830">
        <ele>490.6</ele>
        <time>2022-06-06T08:01:30Z</time>
      </trkpt>
      <trkpt lat="48.0183650" lon="8.1773150">
        <ele>488.8</ele>
        <time>2022-06-06T08:01:34Z</time>
      </trkpt>
      <trkpt lat="48.0181450" lon="8.1774710">
        <ele>486.4</ele>
        <time>2022-06-06T08:01:38Z</time>
      </trkpt>
      <trkpt lat="48.0178810" lon="8.1776550">
        <ele>486.0</ele>
        <time>2022-06-06T08:01:42Z</time>
      </trkpt>
      <trkpt lat="48.0175900" lon="8.1778480">
        <ele>481.0</ele>
        <time>2022-06-06T08:01:46Z</time>
      </trkpt>
      <trkpt lat="48.0173030" lon="8.1781260">
        <ele>480.2</ele>
        <time>2022-06-06T08:01:50Z</time>
      </trkpt>
      <trkpt lat="48.0170900" lon="8.1784710">
        <ele>477.6</ele>
        <time>2022-06-06T08:01:54Z</time>
      </trkpt>
      <trkpt lat="48.0169400" lon="8.1789260">
        <ele>473.6</ele>
        <time>2022-06-06T08:01:58Z</time>
      </trkpt>
      <trkpt lat="48.0168110" lon="8.1794250">
        <ele>472.4</ele>
        <time>2022-06-06T08:02:02Z</time>
      </trkpt>
      <trkpt lat="48.0167280" lon="8.1799750">
        <ele>468.4</ele>
        <time>2022-06-06T08:02:06Z</time>
      </trkpt>
      <trkpt lat="48.0166950" lon="8.1805180">
        <ele>467.0</ele>
        <time>2022-06-06T08:02:10Z</time>
      </trkpt>
      <trkpt lat="48.0168060" lon="8.1810260">
        <ele>463.8</ele>
        <time>2022-06-06T08:02:14Z</time>
      </trkpt>
      <trkpt lat="48.0170850" lon="8.1814160">
        <ele>461.4</ele>
        <time>2022-06-06T08:02:18Z</time>
      </trkpt>
      <trkpt lat="48.0170930" lon="8.1818430">
        <ele>460.4</ele>
        <time>2022-06-06T08:02:22Z</time>
      </trkpt>
      <trkpt lat="48.0168500" lon="8.1819880">
        <ele>459.4</ele>
        <time>2022-06-06T08:02:26Z</time>
      </trkpt>
      <trkpt lat="48.0165850" lon="8.1818850">
        <ele>458.2</ele>
        <time>2022-06-06T08:02:30Z</time>
      </trkpt>
      <trkpt lat="48.0163000" lon="8.1817560">
        <ele>457.2</ele>
        <time>2022-06-06T08:02:34Z</time>
      </trkpt>
      <trkpt lat="48.0159760" lon="8.1817610">
        <ele>455.6</ele>
        <time>2022-06-06T08:02:38Z</time>
      </trkpt>
      <trkpt lat="48.0156360" lon="8.1818460">
        <ele>453.4</ele>
        <time>2022-06-06T08:02:42Z</time>
      </trkpt>
      <trkpt lat="48.0152780" lon="8.1819430">
        <ele>450.8</ele>
        <time>2022-06-06T08:02:46Z</time>
      </trkpt>
      <trkpt lat="48.0149280" lon="8.1821250">
        <ele>449.6</ele>
        <time>2022-06-06T08:02:50Z</time>
      </trkpt>
      <trkpt lat="48.0145760" lon="8.1823680">
        <ele>447.8</ele>
        <time>2022-06-06T08:02:54Z</time>
      </trkpt>
      <trkpt lat="48.0141860" lon="8.1825160">
        <ele>444.0</ele>
        <time>2022-06-06T08:02:58Z</time>
      </trkpt>
      <trkpt lat="48.0137880" lon="8.1825060">
        <ele>443.2</ele>
        <time>2022-06-06T08:03:02Z</time>
      </trkpt>
      <trkpt lat="48.0134280" lon="8.1826010">
        <ele>438.6</ele>
        <time>2022-06-06T08:03:06Z</time>
      </trkpt>
      <trkpt lat="48.0131700" lon="8.1830150">
        <ele>436.8</ele>
        <time>2022-06-06T08:03:10Z</time>
      </trkpt>
      <trkpt lat="48.0129480" lon="8.1834080">
        <ele>434.8</ele>
        <time>2022-06-06T08:03:14Z</time>
      </trkpt>
      <trkpt lat="48.0127830" lon="8.1838530">
        <ele>432.8</ele>
        <time>2022-06-06T08:03:18Z</time>
      </trkpt>
      <trkpt lat="48.0125950" lon="8.1841250">
        <ele>431.4</ele>
        <time>2022-06-06T08:03:22Z</time>
      </trkpt>
      <trkpt lat="48.0124530" lon="8.1840730">
        <ele>431.6</ele>
        <time>2022-06-06T08:03:26Z</time>
      </trkpt>
      <trkpt lat="48.0124380" lon="8.1841330">
        <ele>431.8</ele>
        <time>2022-06-06T08:03:30Z</time>
      </trkpt>
      <trkpt lat="48.0124760" lon="8.1841080">
        <ele>431.8</ele>
        <time>2022-06-06T08:03:34Z</time>
      </trkpt>
      <trkpt lat="48.0125180" lon="8.1841360">
        <ele>432.0</ele>
        <time>2022-06-06T08:03:38Z</time>
      </trkpt>
      <trkpt lat="48.0124680" lon="8.1841330">
        <ele>431.8</ele>
        <time>2022-06-06T08:03:42Z</time>
      </trkpt>
      <trkpt lat="48.0124330" lon="8.1841250">
        <ele>432.0</ele>
        <time>2022-06-06T08:03:46Z</time>
      </trkpt>
      <trkpt lat="48.0124330" lon="8.1841250">
        <ele>432.0</ele>
        <time>2022-06-06T08:03:50Z</time>
      </trkpt>
      <trkpt lat="48.0124330" lon="8.1841250">
        <ele>431.8</ele>
        <time>2022-06-06T08:03:54Z</time>
      </trkpt>
      <trkpt lat="48.0124330" lon="8.1841250">
        <ele>431.8</ele>
        <time>2022-06-06T08:03:58Z</time>
      </trkpt>
      <trkpt lat="48.0124330" lon="8.1841250">
        <ele>431.6</ele>
        <time>2022-06-06T08:04:02Z</time>
      </trkpt>
      <trkpt lat="48.0124330" lon="8.1841250">
        <ele>431.8</ele>
        <time>2022-06-06T08:04:06Z</time>
      </trkpt>
      <trkpt lat="48.0122950" lon="8.1840450">
        <ele>431.4</ele>
        <time>2022-06-06T08:04:10Z</time>
      </trkpt>
      <trkpt lat="48.0123450" lon="8.1840300">
        <ele>431.0</ele>
        <time>2022-06-06T08:04:14Z</time>
      </trkpt>
      <trkpt lat="48.0124060" lon="8.1840950">
        <ele>432.4</ele>
        <time>2022-06-06T08:04:18Z</time>
      </trkpt>
      <trkpt lat="48.0124550" lon="8.1841510">
        <ele>433.2</ele>
        <time>2022-06-06T08:04:22Z</time>
      </trkpt>
      <trkpt lat="48.0124380" lon="8.1842730">
        <ele>433.6</ele>
        <time>2022-06-06T08:04:26Z</time>
      </trkpt>
      <trkpt lat="48.0123730" lon="8.1843650">
        <ele>434.0</ele>
        <time>2022-06-06T08:04:30Z</time>
      </trkpt>
      <trkpt lat="48.0122900" lon="8.1844750">
        <ele>434.8</ele>
        <time>2022-06-06T08:04:34Z</time>
      </trkpt>
      <trkpt lat="48.0122230" lon="8.1845910">
        <ele>434.8</ele>
        <time>2022-06-06T08:04:38Z</time>
      </trkpt>
      <trkpt lat="48.0121580" lon="8.1847230">
        <ele>435.2</ele>
        <time>2022-06-06T08:04:42Z</time>
      </trkpt>
      <trkpt lat="48.0120910" lon="8.1848610">
        <ele>435.8</ele>
        <time>2022-06-06T08:04:46Z</time>
      </trkpt>
      <trkpt lat="48.0120700" lon="8.1850260">
        <ele>436.0</ele>
        <time>2022-06-06T08:04:50Z</time>
      </trkpt>
      <trkpt lat="48.0119850" lon="8.1851360">
        <ele>436.0</ele>
        <time>2022-06-06T08:04:54Z</time>
      </trkpt>
      <trkpt lat="48.0118830" lon="8.1851850">
        <ele>436.8</ele>
        <time>2022-06-06T08:04:58Z</time>
      </trkpt>
      <trkpt lat="48.0118100" lon="8.1852110">
        <ele>437.8</ele>
        <time>2022-06-06T08:05:02Z</time>
      </trkpt>
      <trkpt lat="48.0117410" lon="8.1852400">
        <ele>438.8</ele>
        <time>2022-06-06T08:05:06Z</time>
      </trkpt>
      <trkpt lat="48.0116930" lon="8.1852850">
        <ele>438.8</ele>
        <time>2022-06-06T08:05:10Z</time>
      </trkpt>
      <trkpt lat="48.0116600" lon="8.1853400">
        <ele>439.4</ele>
        <time>2022-06-06T08:05:14Z</time>
      </trkpt>
      <trkpt lat="48.0116180" lon="8.1853950">
        <ele>439.4</ele>
        <time>2022-06-06T08:05:18Z</time>
      </trkpt>
      <trkpt lat="48.0115550" lon="8.1854250">
        <ele>440.6</ele>
        <time>2022-06-06T08:05:22Z</time>
      </trkpt>
      <trkpt lat="48.0114860" lon="8.1854710">
        <ele>441.0</ele>
        <time>2022-06-06T08:05:26Z</time>
      </trkpt>
      <trkpt lat="48.0114230" lon="8.1855350">
        <ele>441.6</ele>
        <time>2022-06-06T08:05:30Z</time>
      </trkpt>
      <trkpt lat="48.0113580" lon="8.1856260">
        <ele>442.2</ele>
        <time>2022-06-06T08:05:34Z</time>
      </trkpt>
      <trkpt lat="48.0112960" lon="8.1857130">
        <ele>442.4</ele>
        <time>2022-06-06T08:05:38Z</time>
      </trkpt>
      <trkpt lat="48.0112400" lon="8.1857980">
        <ele>442.4</ele>
        <time>2022-06-06T08:05:42Z</time>
      </trkpt>
      <trkpt lat="48.0111980" lon="8.1858900">
        <ele>443.0</ele>
        <time>2022-06-06T08:05:46Z</time>
      </trkpt>
      <trkpt lat="48.0111560" lon="8.1859860">
        <ele>443.2</ele>
        <time>2022-06-06T08:05:50Z</time>
      </trkpt>
      <trkpt lat="48.0111200" lon="8.1860900">
        <ele>443.4</ele>
        <time>2022-06-06T08:05:54Z</time>
      </trkpt>
      <trkpt lat="48.0111200" lon="8.1862050">
        <ele>443.8</ele>
        <time>2022-06-06T08:05:58Z</time>
      </trkpt>
      <trkpt lat="48.0111080" lon="8.1863180">
        <ele>444.8</ele>
        <time>2022-06-06T08:06:02Z</time>
      </trkpt>
      <trkpt lat="48.0110850" lon="8.1864300">
        <ele>444.6</ele>
        <time>2022-06-06T08:06:06Z</time>
      </trkpt>
      <trkpt lat="48.0110360" lon="8.1865150">
        <ele>445.2</ele>
        <time>2022-06-06T08:06:10Z</time>
      </trkpt>
      <trkpt lat="48.0109830" lon="8.1865860">
        <ele>445.8</ele>
        <time>2022-06-06T08:06:14Z</time>
      </trkpt>
      <trkpt lat="48.0109160" lon="8.1866330">
        <ele>446.6</ele>
        <time>2022-06-06T08:06:18Z</time>
      </trkpt>
      <trkpt lat="48.0108360" lon="8.1866510">
        <ele>446.8</ele>
        <time>2022-06-06T08:06:22Z</time>
      </trkpt>
      <trkpt lat="48.0107710" lon="8.1866650">
        <ele>447.8</ele>
        <time>2022-06-06T08:06:26Z</time>
      </trkpt>
      <trkpt lat="48.0107080" lon="8.1866700">
        <ele>447.8</ele>
        <time>2022-06-06T08:06:30Z</time>
      </trkpt>
      <trkpt lat="48.0106350" lon="8.1866750">
        <ele>448.0</ele>
        <time>2022-06-06T08:06:34Z</time>
      </trkpt>
      <trkpt lat="48.0105660" lon="8.1866860">
        <ele>448.8</ele>
        <time>2022-06-06T08:06:38Z</time>
      </trkpt>
      <trkpt lat="48.0104910" lon="8.1866980">
        <ele>449.6</ele>
        <time>2022-06-06T08:06:42Z</time>
      </trkpt>
      <trkpt lat="48.0104210" lon="8.1867210">
        <ele>449.6</ele>
        <time>2022-06-06T08:06:46Z</time>
      </trkpt>
      <trkpt lat="48.0103550" lon="8.1867360">
        <ele>449.6</ele>
        <time>2022-06-06T08:06:50Z</time>
      </trkpt>
      <trkpt lat="48.0102930" lon="8.1867680">
        <ele>450.4</ele>
        <time>2022-06-06T08:06:54Z</time>
      </trkpt>
      <trkpt lat="48.0102300" lon="8.1867930">
        <ele>450.8</ele>
        <time>2022-06-06T08:06:58Z</time>
      </trkpt>
      <trkpt lat="48.0101650" lon="8.1868130">
        <ele>451.2</ele>
        <time>2022-06-06T08:07:02Z</time>
      </trkpt>
      <trkpt lat="48.0100960" lon="8.1868310">
        <ele>451.6</ele>
        <time>2022-06-06T08:07:06Z</time>
      </trkpt>
      <trkpt lat="48.0100350" lon="8.1868630">
        <ele>452.2</ele>
        <time>2022-06-06T08:07:10Z</time>
      </trkpt>
      <trkpt lat="48.0099710" lon="8.1868860">
        <ele>452.4</ele>
        <time>2022-06-06T08:07:14Z</time>
      </trkpt>
      <trkpt lat="48.0099210" lon="8.1869330">
        <ele>452.8</ele>
        <time>2022-06-06T08:07:18Z</time>
      </trkpt>
      <trkpt lat="48.0098630" lon="8.1869550">
        <ele>453.2</ele>
        <time>2022-06-06T08:07:22Z</time>
      </trkpt>
      <trkpt lat="48.0098130" lon="8.1869730">
        <ele>454.2</ele>
        <time>2022-06-06T08:07:26Z</time>
      </trkpt>
      <trkpt lat="48.0097710" lon="8.1870210">
        <ele>454.4</ele>
        <time>2022-06-06T08:07:30Z</time>
      </trkpt>
      <trkpt lat="48.0097330" lon="8.1870780">
        <ele>454.6</ele>
        <time>2022-06-06T08:07:34Z</time>
      </trkpt>
      <trkpt lat="48.0096700" lon="8.1871330">
        <ele>454.8</ele>
        <time>2022-06-06T08:07:38Z</time>
      </trkpt>
      <trkpt lat="48.0096260" lon="8.1872000">
        <ele>455.2</ele>
        <time>2022-06-06T08:07:42Z</time>
      </trkpt>
      <trkpt lat="48.0095710" lon="8.1872660">
        <ele>455.4</ele>
        <time>2022-06-06T08:07:46Z</time>
      </trkpt>
      <trkpt lat="48.0095160" lon="8.1873210">
        <ele>455.6</ele>
        <time>2022-06-06T08:07:50Z</time>
      </trkpt>
      <trkpt lat="48.0094460" lon="8.1873560">
        <ele>456.6</ele>
        <time>2022-06-06T08:07:54Z</time>
      </trkpt>
      <trkpt lat="48.0093660" lon="8.1873910">
        <ele>456.4</ele>
        <time>2022-06-06T08:07:58Z</time>
      </trkpt>
      <trkpt lat="48.0092960" lon="8.1874310">
        <ele>457.2</ele>
        <time>2022-06-06T08:08:02Z</time>
      </trkpt>
      <trkpt lat="48.0092250" lon="8.1874680">
        <ele>458.0</ele>
        <time>2022-06-06T08:08:06Z</time>
      </trkpt>
      <trkpt lat="48.0091580" lon="8.1875180">
        <ele>458.2</ele>
        <time>2022-06-06T08:08:10Z</time>
      </trkpt>
      <trkpt lat="48.0090930" lon="8.1875760">
        <ele>458.2</ele>
        <time>2022-06-06T08:08:14Z</time>
      </trkpt>
      <trkpt lat="48.0090230" lon="8.1876250">
        <ele>459.2</ele>
        <time>2022-06-06T08:08:18Z</time>
      </trkpt>
      <trkpt lat="48.0089510" lon="8.1876630">
        <ele>459.2</ele>
        <time>2022-06-06T08:08:22Z</time>
      </trkpt>
      <trkpt lat="48.0088680" lon="8.1876950">
        <ele>460.2</ele>
        <time>2022-06-06T08:08:26Z</time>
      </trkpt>
      <trkpt lat="48.0087800" lon="8.1877180">
        <ele>460.4</ele>
        <time>2022-06-06T08:08:30Z</time>
      </trkpt>
      <trkpt lat="48.0086960" lon="8.1877350">
        <ele>461.0</ele>
        <time>2022-06-06T08:08:34Z</time>
      </trkpt>
      <trkpt lat="48.0086100" lon="8.1877550">
        <ele>461.2</ele>
        <time>2022-06-06T08:08:38Z</time>
      </trkpt>
      <trkpt lat="48.0085230" lon="8.1877700">
        <ele>461.2</ele>
        <time>2022-06-06T08:08:42Z</time>
      </trkpt>
      <trkpt lat="48.0084400" lon="8.1877810">
        <ele>462.4</ele>
        <time>2022-06-06T08:08:46Z</time>
      </trkpt>
      <trkpt lat="48.0083580" lon="8.1877930">
        <ele>462.4</ele>
        <time>2022-06-06T08:08:50Z</time>
      </trkpt>
      <trkpt lat="48.0082760" lon="8.1878150">
        <ele>462.8</ele>
        <time>2022-06-06T08:08:54Z</time>
      </trkpt>
      <trkpt lat="48.0081910" lon="8.1878400">
        <ele>463.4</ele>
        <time>2022-06-06T08:08:58Z</time>
      </trkpt>
      <trkpt lat="48.0081180" lon="8.1878630">
        <ele>464.0</ele>
        <time>2022-06-06T08:09:02Z</time>
      </trkpt>
      <trkpt lat="48.0080310" lon="8.1878910">
        <ele>464.6</ele>
        <time>2022-06-06T08:09:06Z</time>
      </trkpt>
      <trkpt lat="48.0079500" lon="8.1879210">
        <ele>465.0</ele>
        <time>2022-06-06T08:09:10Z</time>
      </trkpt>
      <trkpt lat="48.0078710" lon="8.1879510">
        <ele>465.4</ele>
        <time>2022-06-06T08:09:14Z</time>
      </trkpt>
      <trkpt lat="48.0077900" lon="8.1879830">
        <ele>465.8</ele>
        <time>2022-06-06T08:09:18Z</time>
      </trkpt>
      <trkpt lat="48.0077080" lon="8.1880280">
        <ele>465.8</ele>
        <time>2022-06-06T08:09:22Z</time>
      </trkpt>
      <trkpt lat="48.0076360" lon="8.1880810">
        <ele>466.8</ele>
        <time>2022-06-06T08:09:26Z</time>
      </trkpt>
      <trkpt lat="48.0075680" lon="8.1881580">
        <ele>466.8</ele>
        <time>2022-06-06T08:09:30Z</time>
      </trkpt>
      <trkpt lat="48.0074950" lon="8.1882260">
        <ele>467.2</ele>
        <time>2022-06-06T08:09:34Z</time>
      </trkpt>
      <trkpt lat="48.0074260" lon="8.1883060">
        <ele>467.4</ele>
        <time>2022-06-06T08:09:38Z</time>
      </trkpt>
      <trkpt lat="48.0073650" lon="8.1884000">
        <ele>467.8</ele>
        <time>2022-06-06T08:09:42Z</time>
      </trkpt>
      <trkpt lat="48.0072960" lon="8.1884910">
        <ele>467.8</ele>
        <time>2022-06-06T08:09:46Z</time>
      </trkpt>
      <trkpt lat="48.0072330" lon="8.1885810">
        <ele>468.0</ele>
        <time>2022-06-06T08:09:50Z</time>
      </trkpt>
      <trkpt lat="48.0071550" lon="8.1886700">
        <ele>468.0</ele>
        <time>2022-06-06T08:09:54Z</time>
      </trkpt>
      <trkpt lat="48.0070560" lon="8.1887330">
        <ele>468.8</ele>
        <time>2022-06-06T08:09:58Z</time>
      </trkpt>
      <trkpt lat="48.0069610" lon="8.1887980">
        <ele>468.8</ele>
        <time>2022-06-06T08:10:02Z</time>
      </trkpt>
      <trkpt lat="48.0068660" lon="8.1888550">
        <ele>469.0</ele>
        <time>2022-06-06T08:10:06Z</time>
      </trkpt>
      <trkpt lat="48.0067830" lon="8.1889200">
        <ele>469.6</ele>
        <time>2022-06-06T08:10:10Z</time>
      </trkpt>
      <trkpt lat="48.0067050" lon="8.1890030">
        <ele>469.6</ele>
        <time>2022-06-06T08:10:14Z</time>
      </trkpt>
      <trkpt lat="48.0066180" lon="8.1890750">
        <ele>470.0</ele>
        <time>2022-06-06T08:10:18Z</time>
      </trkpt>
      <trkpt lat="48.0065210" lon="8.1891510">
        <ele>470.4</ele>
        <time>2022-06-06T08:10:22Z</time>
      </trkpt>
      <trkpt lat="48.0064410" lon="8.1892330">
        <ele>471.0</ele>
        <time>2022-06-06T08:10:26Z</time>
      </trkpt>
      <trkpt lat="48.0063550" lon="8.1892930">
        <ele>471.4</ele>
        <time>2022-06-06T08:10:30Z</time>
      </trkpt>
      <trkpt lat="48.0062710" lon="8.1893500">
        <ele>471.6</ele>
        <time>2022-06-06T08:10:34Z</time>
      </trkpt>
      <trkpt lat="48.0062030" lon="8.1894230">
        <ele>472.2</ele>
        <time>2022-06-06T08:10:38Z</time>
      </trkpt>
      <trkpt lat="48.0061350" lon="8.1894810">
        <ele>472.2</ele>
        <time>2022-06-06T08:10:42Z</time>
      </trkpt>
      <trkpt lat="48.0060780" lon="8.1895450">
        <ele>472.6</ele>
        <time>2022-06-06T08:10:46Z</time>
      </trkpt>
      <trkpt lat="48.0060150" lon="8.1896310">
        <ele>473.0</ele>
        <time>2022-06-06T08:10:50Z</time>
      </trkpt>
      <trkpt lat="48.0059460" lon="8.1897200">
        <ele>473.6</ele>
        <time>2022-06-06T08:10:54Z</time>
      </trkpt>
      <trkpt lat="48.0058960" lon="8.1898100">
        <ele>473.6</ele>
        <time>2022-06-06T08:10:58Z</time>
      </trkpt>
      <trkpt lat="48.0058650" lon="8.1899230">
        <ele>473.8</ele>
        <time>2022-06-06T08:11:02Z</time>
      </trkpt>
      <trkpt lat="48.0058650" lon="8.1900550">
        <ele>474.4</ele>
        <time>2022-06-06T08:11:06Z</time>
      </trkpt>
      <trkpt lat="48.0058560" lon="8.1901900">
        <ele>475.2</ele>
        <time>2022-06-06T08:11:10Z</time>
      </trkpt>
      <trkpt lat="48.0058430" lon="8.1903380">
        <ele>475.4</ele>
        <time>2022-06-06T08:11:14Z</time>
      </trkpt>
      <trkpt lat="48.0058300" lon="8.1904880">
        <ele>475.6</ele>
        <time>2022-06-06T08:11:18Z</time>
      </trkpt>
      <trkpt lat="48.0058180" lon="8.1906310">
        <ele>476.2</ele>
        <time>2022-06-06T08:11:22Z</time>
      </trkpt>
      <trkpt lat="48.0058150" lon="8.1907560">
        <ele>476.6</ele>
        <time>2022-06-06T08:11:26Z</time>
      </trkpt>
      <trkpt lat="48.0057980" lon="8.1909200">
        <ele>476.8</ele>
        <time>2022-06-06T08:11:30Z</time>
      </trkpt>
      <trkpt lat="48.0057580" lon="8.1910510">
        <ele>477.0</ele>
        <time>2022-06-06T08:11:34Z</time>
      </trkpt>
      <trkpt lat="48.0057380" lon="8.1911950">
        <ele>477.0</ele>
        <time>2022-06-06T08:11:38Z</time>
      </trkpt>
      <trkpt lat="48.0057060" lon="8.1913430">
        <ele>477.8</ele>
        <time>2022-06-06T08:11:42Z</time>
      </trkpt>
      <trkpt lat="48.0056780" lon="8.1915110">
        <ele>478.4</ele>
        <time>2022-06-06T08:11:46Z</time>
      </trkpt>
      <trkpt lat="48.0056450" lon="8.1916660">
        <ele>478.2</ele>
        <time>2022-06-06T08:11:50Z</time>
      </trkpt>
      <trkpt lat="48.0055930" lon="8.1918150">
        <ele>479.0</ele>
        <time>2022-06-06T08:11:54Z</time>
      </trkpt>
      <trkpt lat="48.0055500" lon="8.1919550">
        <ele>479.8</ele>
        <time>2022-06-06T08:11:58Z</time>
      </trkpt>
      <trkpt lat="48.0054850" lon="8.1920880">
        <ele>480.2</ele>
        <time>2022-06-06T08:12:02Z</time>
      </trkpt>
      <trkpt lat="48.0054810" lon="8.1922430">
        <ele>480.2</ele>
        <time>2022-06-06T08:12:06Z</time>
      </trkpt>
      <trkpt lat="48.0054580" lon="8.1923760">
        <ele>480.8</ele>
        <time>2022-06-06T08:12:10Z</time>
      </trkpt>
      <trkpt lat="48.0054010" lon="8.1925000">
        <ele>481.0</ele>
        <time>2022-06-06T08:12:14Z</time>
      </trkpt>
      <trkpt lat="48.0053860" lon="8.1926400">
        <ele>481.4</ele>
        <time>2022-06-06T08:12:18Z</time>
      </trkpt>
      <trkpt lat="48.0053360" lon="8.1927550">
        <ele>482.0</ele>
        <time>2022-06-06T08:12:22Z</time>
      </trkpt>
      <trkpt lat="48.0052950" lon="8.1928780">
        <ele>482.4</ele>
        <time>2022-06-06T08:12:26Z</time>
      </trkpt>
      <trkpt lat="48.0052610" lon="8.1930050">
        <ele>482.6</ele>
        <time>2022-06-06T08:12:30Z</time>
      </trkpt>
      <trkpt lat="48.0052330" lon="8.1931380">
        <ele>483.4</ele>
        <time>2022-06-06T08:12:34Z</time>
      </trkpt>
      <trkpt lat="48.0052010" lon="8.1932510">
        <ele>483.6</ele>
        <time>2022-06-06T08:12:38Z</time>
      </trkpt>
      <trkpt lat="48.0052000" lon="8.1934080">
        <ele>484.2</ele>
        <time>2022-06-06T08:12:42Z</time>
      </trkpt>
      <trkpt lat="48.0051900" lon="8.1935500">
        <ele>484.4</ele>
        <time>2022-06-06T08:12:46Z</time>
      </trkpt>
      <trkpt lat="48.0051380" lon="8.1936980">
        <ele>485.4</ele>
        <time>2022-06-06T08:12:50Z</time>
      </trkpt>
      <trkpt lat="48.0050660" lon="8.1938780">
        <ele>485.6</ele>
        <time>2022-06-06T08:12:54Z</time>
      </trkpt>
      <trkpt lat="48.0049880" lon="8.1940110">
        <ele>485.8</ele>
        <time>2022-06-06T08:12:58Z</time>
      </trkpt>
      <trkpt lat="48.0049150" lon="8.1941480">
        <ele>486.8</ele>
        <time>2022-06-06T08:13:02Z</time>
      </trkpt>
      <trkpt lat="48.0048210" lon="8.1942660">
        <ele>487.0</ele>
        <time>2022-06-06T08:13:06Z</time>
      </trkpt>
      <trkpt lat="48.0047480" lon="8.1943900">
        <ele>487.4</ele>
        <time>2022-06-06T08:13:10Z</time>
      </trkpt>
      <trkpt lat="48.0046630" lon="8.1945160">
        <ele>488.6</ele>
        <time>2022-06-06T08:13:14Z</time>
      </trkpt>
      <trkpt lat="48.0045800" lon="8.1946280">
        <ele>488.8</ele>
        <time>2022-06-06T08:13:18Z</time>
      </trkpt>
      <trkpt lat="48.0044880" lon="8.1947300">
        <ele>489.0</ele>
        <time>2022-06-06T08:13:22Z</time>
      </trkpt>
      <trkpt lat="48.0043960" lon="8.1948310">
        <ele>489.4</ele>
        <time>2022-06-06T08:13:26Z</time>
      </trkpt>
      <trkpt lat="48.0043200" lon="8.1949200">
        <ele>490.0</ele>
        <time>2022-06-06T08:13:30Z</time>
      </trkpt>
      <trkpt lat="48.0042330" lon="8.1950060">
        <ele>490.8</ele>
        <time>2022-06-06T08:13:34Z</time>
      </trkpt>
      <trkpt lat="48.0041180" lon="8.1950560">
        <ele>490.8</ele>
        <time>2022-06-06T08:13:38Z</time>
      </trkpt>
      <trkpt lat="48.0040080" lon="8.1951000">
        <ele>491.2</ele>
        <time>2022-06-06T08:13:42Z</time>
      </trkpt>
      <trkpt lat="48.0038950" lon="8.1951130">
        <ele>492.2</ele>
        <time>2022-06-06T08:13:46Z</time>
      </trkpt>
      <trkpt lat="48.0037880" lon="8.1951160">
        <ele>492.6</ele>
        <time>2022-06-06T08:13:50Z</time>
      </trkpt>
      <trkpt lat="48.0036760" lon="8.1951080">
        <ele>493.0</ele>
        <time>2022-06-06T08:13:54Z</time>
      </trkpt>
      <trkpt lat="48.0035680" lon="8.1950730">
        <ele>493.2</ele>
        <time>2022-06-06T08:13:58Z</time>
      </trkpt>
      <trkpt lat="48.0034660" lon="8.1950280">
        <ele>493.2</ele>
        <time>2022-06-06T08:14:02Z</time>
      </trkpt>
      <trkpt lat="48.0033710" lon="8.1949660">
        <ele>493.6</ele>
        <time>2022-06-06T08:14:06Z</time>
      </trkpt>
      <trkpt lat="48.0032860" lon="8.1948830">
        <ele>493.8</ele>
        <time>2022-06-06T08:14:10Z</time>
      </trkpt>
      <trkpt lat="48.0032050" lon="8.1947930">
        <ele>494.6</ele>
        <time>2022-06-06T08:14:14Z</time>
      </trkpt>
      <trkpt lat="48.0031010" lon="8.1946950">
        <ele>494.8</ele>
        <time>2022-06-06T08:14:18Z</time>
      </trkpt>
      <trkpt lat="48.0029950" lon="8.1946030">
        <ele>495.2</ele>
        <time>2022-06-06T08:14:22Z</time>
      </trkpt>
      <trkpt lat="48.0028830" lon="8.1945080">
        <ele>495.0</ele>
        <time>2022-06-06T08:14:26Z</time>
      </trkpt>
      <trkpt lat="48.0027700" lon="8.1944230">
        <ele>495.8</ele>
        <time>2022-06-06T08:14:30Z</time>
      </trkpt>
      <trkpt lat="48.0026510" lon="8.1943560">
        <ele>495.8</ele>
        <time>2022-06-06T08:14:34Z</time>
      </trkpt>
      <trkpt lat="48.0025380" lon="8.1943000">
        <ele>496.6</ele>
        <time>2022-06-06T08:14:38Z</time>
      </trkpt>
      <trkpt lat="48.0024230" lon="8.1942610">
        <ele>497.4</ele>
        <time>2022-06-06T08:14:42Z</time>
      </trkpt>
      <trkpt lat="48.0023180" lon="8.1942180">
        <ele>497.4</ele>
        <time>2022-06-06T08:14:46Z</time>
      </trkpt>
      <trkpt lat="48.0022150" lon="8.1941660">
        <ele>497.8</ele>
        <time>2022-06-06T08:14:50Z</time>
      </trkpt>
      <trkpt lat="48.0021000" lon="8.1941010">
        <ele>498.0</ele>
        <time>2022-06-06T08:14:54Z</time>
      </trkpt>
      <trkpt lat="48.0019950" lon="8.1940300">
        <ele>498.2</ele>
        <time>2022-06-06T08:14:58Z</time>
      </trkpt>
      <trkpt lat="48.0018950" lon="8.1939610">
        <ele>498.6</ele>
        <time>2022-06-06T08:15:02Z</time>
      </trkpt>
      <trkpt lat="48.0018050" lon="8.1938780">
        <ele>499.4</ele>
        <time>2022-06-06T08:15:06Z</time>
      </trkpt>
      <trkpt lat="48.0017150" lon="8.1937960">
        <ele>499.4</ele>
        <time>2022-06-06T08:15:10Z</time>
      </trkpt>
      <trkpt lat="48.0016230" lon="8.1936960">
        <ele>500.0</ele>
        <time>2022-06-06T08:15:14Z</time>
      </trkpt>
      <trkpt lat="48.0015360" lon="8.1936060">
        <ele>500.4</ele>
        <time>2022-06-06T08:15:18Z</time>
      </trkpt>
      <trkpt lat="48.0014480" lon="8.1934980">
        <ele>501.2</ele>
        <time>2022-06-06T08:15:22Z</time>
      </trkpt>
      <trkpt lat="48.0013630" lon="8.1933910">
        <ele>501.6</ele>
        <time>2022-06-06T08:15:26Z</time>
      </trkpt>
      <trkpt lat="48.0012930" lon="8.1933180">
        <ele>501.8</ele>
        <time>2022-06-06T08:15:30Z</time>
      </trkpt>
      <trkpt lat="48.0012130" lon="8.1932400">
        <ele>502.8</ele>
        <time>2022-06-06T08:15:34Z</time>
      </trkpt>
      <trkpt lat="48.0011780" lon="8.1931810">
        <ele>503.8</ele>
        <time>2022-06-06T08:15:38Z</time>
      </trkpt>
      <trkpt lat="48.0012000" lon="8.1931410">
        <ele>503.4</ele>
        <time>2022-06-06T08:15:42Z</time>
      </trkpt>
      <trkpt lat="48.0012000" lon="8.1931410">
        <ele>503.6</ele>
        <time>2022-06-06T08:15:46Z</time>
      </trkpt>
      <trkpt lat="48.0011880" lon="8.1931510">
        <ele>503.6</ele>
        <time>2022-06-06T08:15:50Z</time>
      </trkpt>
      <trkpt lat="48.0011880" lon="8.1931510">
        <ele>503.4</ele>
        <time>2022-06-06T08:15:54Z</time>
      </trkpt>
      <trkpt lat="48.0011880" lon="8.1931510">
        <ele>503.4</ele>
        <time>2022-06-06T08:15:58Z</time>
      </trkpt>
      <trkpt lat="48.0011880" lon="8.1931510">
        <ele>503.4</ele>
        <time>2022-06-06T08:16:02Z</time>
      </trkpt>
      <trkpt lat="48.0011880" lon="8.1931510">
        <ele>503.6</ele>
        <time>2022-06-06T08:16:06Z</time>
      </trkpt>
      <trkpt lat="48.0011880" lon="8.1931510">
        <ele>503.4</ele>
        <time>2022-06-06T08:16:10Z</time>
      </trkpt>
      <trkpt lat="48.0011880" lon="8.1931510">
        <ele>503.4</ele>
        <time>2022-06-06T08:16:14Z</time>
      </trkpt>
      <trkpt lat="48.0011880" lon="8.1931510">
        <ele>503.4</ele>
        <time>2022-06-06T08:16:18Z</time>
      </trkpt>
      <trkpt lat="48.0011880" lon="8.1931510">
        <ele>503.6</ele>
        <time>2022-06-06T08:16:22Z</time>
      </trkpt>
      <trkpt lat="48.0011880" lon="8.1931510">
        <ele>503.4</ele>
        <time>2022-06-06T08:16:26Z</time>
      </trkpt>
      <trkpt lat="48.0011880" lon="8.1931510">
        <ele>503.6</ele>
        <time>2022-06-06T08:16:30Z</time>
      </trkpt>
      <trkpt lat="48.0011880" lon="8.1931510">
        <ele>503.4</ele>
        <time>2022-06-06T08:16:34Z</time>
      </trkpt>
      <trkpt lat="48.0011880" lon="8.1931510">
        <ele>503.4</ele>
        <time>2022-06-06T08:16:38Z</time>
      </trkpt>
      <trkpt lat="48.0011880" lon="8.1931510">
        <ele>503.4</ele>
        <time>2022-06-06T08:16:42Z</time>
      </trkpt>
      <trkpt lat="48.0011880" lon="8.1931510">
        <ele>503.4</ele>
        <time>2022-06-06T08:16:46Z</time>
      </trkpt>
      <trkpt lat="48.0011880" lon="8.1931510">
        <ele>503.2</ele>
        <time>2022-06-06T08:16:50Z</time>
      </trkpt>
      <trkpt lat="48.0011880" lon="8.1931510">
        <ele>503.4</ele>
        <time>2022-06-06T08:16:54Z</time>
      </trkpt>
      <trkpt lat="48.0011880" lon="8.1931510">
        <ele>503.4</ele>
        <time>2022-06-06T08:16:58Z</time>
      </trkpt>
      <trkpt lat="48.0011880" lon="8.1931510">
        <ele>503.4</ele>
        <time>2022-06-06T08:17:02Z</time>
      </trkpt>
      <trkpt lat="48.0011880" lon="8.1931510">
        <ele>503.0</ele>
        <time>2022-06-06T08:17:06Z</time>
      </trkpt>
      <trkpt lat="48.0011880" lon="8.1931510">
        <ele>502.8</ele>
        <time>2022-06-06T08:17:10Z</time>
      </trkpt>
      <trkpt lat="48.0011880" lon="8.1931510">
        <ele>503.4</ele>
        <time>2022-06-06T08:17:14Z</time>
      </trkpt>
      <trkpt lat="48.0011880" lon="8.1931510">
        <ele>503.0</ele>
        <time>2022-06-06T08:17:18Z</time>
      </trkpt>
      <trkpt lat="48.0011880" lon="8.1931510">
        <ele>503.4</ele>
        <time>2022-06-06T08:17:22Z</time>
      </trkpt>
      <trkpt lat="48.0011880" lon="8.1931510">
        <ele>502.8</ele>
        <time>2022-06-06T08:17:26Z</time>
      </trkpt>
      <trkpt lat="48.0011880" lon="8.1931510">
        <ele>503.4</ele>
        <time>2022-06-06T08:17:30Z</time>
      </trkpt>
      <trkpt lat="48.0011880" lon="8.1931510">
        <ele>503.6</ele>
        <time>2022-06-06T08:17:34Z</time>
      </trkpt>
      <trkpt lat="48.0011880" lon="8.1931510">
        <ele>503.6</ele>
        <time>2022-06-06T08:17:38Z</time>
      </trkpt>
      <trkpt lat="48.0011880" lon="8.1931510">
        <ele>503.4</ele>
        <time>2022-06-06T08:17:42Z</time>
      </trkpt>
      <trkpt lat="48.0011880" lon="8.1931510">
        <ele>503.4</ele>
        <time>2022-06-06T08:17:46Z</time>
      </trkpt>
      <trkpt lat="48.0011880" lon="8.1931510">
        <ele>503.8</ele>
        <time>2022-06-06T08:17:50Z</time>
      </trkpt>
      <trkpt lat="48.0011880" lon="8.1931510">
        <ele>503.6</ele>
        <time>2022-06-06T08:17:54Z</time>
      </trkpt>
      <trkpt lat="48.0011880" lon="8.1931510">
        <ele>503.4</ele>
        <time>2022-06-06T08:17:58Z</time>
      </trkpt>
      <trkpt lat="48.0011880" lon="8.1931510">
        <ele>503.2</ele>
        <time>2022-06-06T08:18:02Z</time>
      </trkpt>
      <trkpt lat="48.0011880" lon="8.1931510">
        <ele>503.4</ele>
        <time>2022-06-06T08:18:06Z</time>
      </trkpt>
      <trkpt lat="48.0011880" lon="8.1931510">
        <ele>503.4</ele>
        <time>2022-06-06T08:18:10Z</time>
      </trkpt>
      <trkpt lat="48.0011880" lon="8.1931510">
        <ele>503.6</ele>
        <time>2022-06-06T08:18:14Z</time>
      </trkpt>
      <trkpt lat="48.0011880" lon="8.1931510">
        <ele>503.4</ele>
        <time>2022-06-06T08:18:18Z</time>
      </trkpt>
      <trkpt lat="48.0011880" lon="8.1931510">
        <ele>502.8</ele>
        <time>2022-06-06T08:18:22Z</time>
      </trkpt>
      <trkpt lat="48.0011880" lon="8.1931510">
        <ele>503.4</ele>
        <time>2022-06-06T08:18:26Z</time>
      </trkpt>
      <trkpt lat="48.0011880" lon="8.1931510">
        <ele>503.6</ele>
        <time>2022-06-06T08:18:30Z</time>
      </trkpt>
      <trkpt lat="48.0011880" lon="8.1931510">
        <ele>503.4</ele>
        <time>2022-06-06T08:18:34Z</time>
      </trkpt>
      <trkpt lat="48.0011880" lon="8.1931510">
        <ele>503.4</ele>
        <time>2022-06-06T08:18:38Z</time>
      </trkpt>
      <trkpt lat="48.0011880" lon="8.1931510">
        <ele>503.4</ele>
        <time>2022-06-06T08:18:42Z</time>
      </trkpt>
      <trkpt lat="48.0011880" lon="8.1931510">
        <ele>503.6</ele>
        <time>2022-06-06T08:18:46Z</time>
      </trkpt>
      <trkpt lat="48.0011880" lon="8.1931510">
        <ele>503.2</ele>
        <time>2022-06-06T08:18:50Z</time>
      </trkpt>
      <trkpt lat="48.0011880" lon="8.1931510">
        <ele>503.4</ele>
        <time>2022-06-06T08:18:54Z</time>
      </trkpt>
      <trkpt lat="48.0011880" lon="8.1931510">
        <ele>503.4</ele>
        <time>2022-06-06T08:18:58Z</time>
      </trkpt>
      <trkpt lat="48.0011880" lon="8.1931510">
        <ele>503.4</ele>
        <time>2022-06-06T08:19:02Z</time>
      </trkpt>
      <trkpt lat="48.0011880" lon="8.1931510">
        <ele>503.4</ele>
        <time>2022-06-06T08:19:06Z</time>
      </trkpt>
      <trkpt lat="48.0011880" lon="8.1931510">
        <ele>503.4</ele>
        <time>2022-06-06T08:19:10Z</time>
      </trkpt>
      <trkpt lat="48.0011880" lon="8.1931510">
        <ele>503.4</ele>
        <time>2022-06-06T08:19:14Z</time>
      </trkpt>
      <trkpt lat="48.0011300" lon="8.1931280">
        <ele>503.4</ele>
        <time>2022-06-06T08:19:18Z</time>
      </trkpt>
      <trkpt lat="48.0011300" lon="8.1931280">
        <ele>503.4</ele>
        <time>2022-06-06T08:19:22Z</time>
      </trkpt>
      <trkpt lat="48.0011060" lon="8.1931310">
        <ele>503.4</ele>
        <time>2022-06-06T08:19:26Z</time>
      </trkpt>
      <trkpt lat="48.0010560" lon="8.1931130">
        <ele>503.4</ele>
        <time>2022-06-06T08:19:30Z</time>
      </trkpt>
      <trkpt lat="48.0009930" lon="8.1931200">
        <ele>503.6</ele>
        <time>2022-06-06T08:19:34Z</time>
      </trkpt>
      <trkpt lat="48.0009360" lon="8.1931950">
        <ele>504.4</ele>
        <time>2022-06-06T08:19:38Z</time>
      </trkpt>
      <trkpt lat="48.0009110" lon="8.1932930">
        <ele>505.0</ele>
        <time>2022-06-06T08:19:42Z</time>
      </trkpt>
      <trkpt lat="48.0009160" lon="8.1933930">
        <ele>505.2</ele>
        <time>2022-06-06T08:19:46Z</time>
      </trkpt>
      <trkpt lat="48.0009250" lon="8.1934580">
        <ele>505.8</ele>
        <time>2022-06-06T08:19:50Z</time>
      </trkpt>
      <trkpt lat="48.0009500" lon="8.1935350">
        <ele>506.0</ele>
        <time>2022-06-06T08:19:54Z</time>
      </trkpt>
      <trkpt lat="48.0009930" lon="8.1936300">
        <ele>507.4</ele>
        <time>2022-06-06T08:19:58Z</time>
      </trkpt>
      <trkpt lat="48.0010430" lon="8.1937060">
        <ele>508.2</ele>
        <time>2022-06-06T08:20:02Z</time>
      </trkpt>
      <trkpt lat="48.0011050" lon="8.1937730">
        <ele>508.6</ele>
        <time>2022-06-06T08:20:06Z</time>
      </trkpt>
      <trkpt lat="48.0011530" lon="8.1938460">
        <ele>508.6</ele>
        <time>2022-06-06T08:20:10Z</time>
      </trkpt>
      <trkpt lat="48.0012050" lon="8.1939130">
        <ele>509.2</ele>
        <time>2022-06-06T08:20:14Z</time>
      </trkpt>
      <trkpt lat="48.0012560" lon="8.1940000">
        <ele>509.8</ele>
        <time>2022-06-06T08:20:18Z</time>
      </trkpt>
      <trkpt lat="48.0013210" lon="8.1940760">
        <ele>510.6</ele>
        <time>2022-06-06T08:20:22Z</time>
      </trkpt>
      <trkpt lat="48.0013810" lon="8.1941430">
        <ele>510.6</ele>
        <time>2022-06-06T08:20:26Z</time>
      </trkpt>
      <trkpt lat="48.0014780" lon="8.1942500">
        <ele>510.6</ele>
        <time>2022-06-06T08:20:30Z</time>
      </trkpt>
      <trkpt lat="48.0015560" lon="8.1943460">
        <ele>511.4</ele>
        <time>2022-06-06T08:20:34Z</time>
      </trkpt>
      <trkpt lat="48.0016650" lon="8.1944560">
        <ele>512.0</ele>
        <time>2022-06-06T08:20:38Z</time>
      </trkpt>
      <trkpt lat="48.0017710" lon="8.1945680">
        <ele>512.8</ele>
        <time>2022-06-06T08:20:42Z</time>
      </trkpt>
      <trkpt lat="48.0018480" lon="8.1946530">
        <ele>512.8</ele>
        <time>2022-06-06T08:20:46Z</time>
      </trkpt>
      <trkpt lat="48.0019230" lon="8.1947160">
        <ele>513.6</ele>
        <time>2022-06-06T08:20:50Z</time>
      </trkpt>
      <trkpt lat="48.0019610" lon="8.1947780">
        <ele>514.4</ele>
        <time>2022-06-06T08:20:54Z</time>
      </trkpt>
      <trkpt lat="48.0020310" lon="8.1947960">
        <ele>515.0</ele>
        <time>2022-06-06T08:20:58Z</time>
      </trkpt>
      <trkpt lat="48.0021250" lon="8.1948510">
        <ele>515.4</ele>
        <time>2022-06-06T08:21:02Z</time>
      </trkpt>
      <trkpt lat="48.0022150" lon="8.1949300">
        <ele>515.8</ele>
        <time>2022-06-06T08:21:06Z</time>
      </trkpt>
      <trkpt lat="48.0023130" lon="8.1950280">
        <ele>516.8</ele>
        <time>2022-06-06T08:21:10Z</time>
      </trkpt>
      <trkpt lat="48.0024260" lon="8.1951860">
        <ele>517.0</ele>
        <time>2022-06-06T08:21:14Z</time>
      </trkpt>
      <trkpt lat="48.0025100" lon="8.1952260">
        <ele>517.0</ele>
        <time>2022-06-06T08:21:18Z</time>
      </trkpt>
      <trkpt lat="48.0026000" lon="8.1953150">
        <ele>518.4</ele>
        <time>2022-06-06T08:21:22Z</time>
      </trkpt>
      <trkpt lat="48.0026750" lon="8.1954060">
        <ele>518.8</ele>
        <time>2022-06-06T08:21:26Z</time>
      </trkpt>
      <trkpt lat="48.0027500" lon="8.1954510">
        <ele>519.2</ele>
        <time>2022-06-06T08:21:30Z</time>
      </trkpt>
      <trkpt lat="48.0028130" lon="8.1954730">
        <ele>519.4</ele>
        <time>2022-06-06T08:21:34Z</time>
      </trkpt>
      <trkpt lat="48.0029050" lon="8.1955410">
        <ele>520.2</ele>
        <time>2022-06-06T08:21:38Z</time>
      </trkpt>
      <trkpt lat="48.0029760" lon="8.1956100">
        <ele>520.8</ele>
        <time>2022-06-06T08:21:42Z</time>
      </trkpt>
      <trkpt lat="48.0030160" lon="8.1956800">
        <ele>521.4</ele>
        <time>2022-06-06T08:21:46Z</time>
      </trkpt>
      <trkpt lat="48.0030860" lon="8.1957600">
        <ele>522.2</ele>
        <time>2022-06-06T08:21:50Z</time>
      </trkpt>
      <trkpt lat="48.0031580" lon="8.1958410">
        <ele>523.2</ele>
        <time>2022-06-06T08:21:54Z</time>
      </trkpt>
      <trkpt lat="48.0031580" lon="8.1958410">
        <ele>523.8</ele>
        <time>2022-06-06T08:21:58Z</time>
      </trkpt>
      <trkpt lat="48.0032310" lon="8.1959160">
        <ele>524.0</ele>
        <time>2022-06-06T08:22:02Z</time>
      </trkpt>
      <trkpt lat="48.0032930" lon="8.1960310">
        <ele>524.6</ele>
        <time>2022-06-06T08:22:06Z</time>
      </trkpt>
      <trkpt lat="48.0033480" lon="8.1961030">
        <ele>525.0</ele>
        <time>2022-06-06T08:22:10Z</time>
      </trkpt>
      <trkpt lat="48.0034260" lon="8.1961860">
        <ele>525.4</ele>
        <time>2022-06-06T08:22:14Z</time>
      </trkpt>
      <trkpt lat="48.0035250" lon="8.1962710">
        <ele>526.2</ele>
        <time>2022-06-06T08:22:18Z</time>
      </trkpt>
      <trkpt lat="48.0037010" lon="8.1964080">
        <ele>526.6</ele>
        <time>2022-06-06T08:22:22Z</time>
      </trkpt>
      <trkpt lat="48.0037830" lon="8.1964310">
        <ele>527.4</ele>
        <time>2022-06-06T08:22:26Z</time>
      </trkpt>
      <trkpt lat="48.0038710" lon="8.1964660">
        <ele>528.4</ele>
        <time>2022-06-06T08:22:30Z</time>
      </trkpt>
      <trkpt lat="48.0039610" lon="8.1964930">
        <ele>529.2</ele>
        <time>2022-06-06T08:22:34Z</time>
      </trkpt>
      <trkpt lat="48.0040530" lon="8.1965280">
        <ele>529.0</ele>
        <time>2022-06-06T08:22:38Z</time>
      </trkpt>
      <trkpt lat="48.0041330" lon="8.1965500">
        <ele>530.4</ele>
        <time>2022-06-06T08:22:42Z</time>
      </trkpt>
      <trkpt lat="48.0041930" lon="8.1965360">
        <ele>530.8</ele>
        <time>2022-06-06T08:22:46Z</time>
      </trkpt>
      <trkpt lat="48.0042760" lon="8.1965380">
        <ele>531.0</ele>
        <time>2022-06-06T08:22:50Z</time>
      </trkpt>
      <trkpt lat="48.0044010" lon="8.1965500">
        <ele>532.0</ele>
        <time>2022-06-06T08:22:54Z</time>
      </trkpt>
      <trkpt lat="48.0044950" lon="8.1965860">
        <ele>532.2</ele>
        <time>2022-06-06T08:22:58Z</time>
      </trkpt>
      <trkpt lat="48.0045660" lon="8.1965980">
        <ele>532.6</ele>
        <time>2022-06-06T08:23:02Z</time>
      </trkpt>
      <trkpt lat="48.0046600" lon="8.1965930">
        <ele>533.6</ele>
        <time>2022-06-06T08:23:06Z</time>
      </trkpt>
      <trkpt lat="48.0047460" lon="8.1965850">
        <ele>534.0</ele>
        <time>2022-06-06T08:23:10Z</time>
      </trkpt>
      <trkpt lat="48.0048630" lon="8.1965880">
        <ele>534.2</ele>
        <time>2022-06-06T08:23:14Z</time>
      </trkpt>
      <trkpt lat="48.0049500" lon="8.1965910">
        <ele>535.4</ele>
        <time>2022-06-06T08:23:18Z</time>
      </trkpt>
      <trkpt lat="48.0050310" lon="8.1966280">
        <ele>536.2</ele>
        <time>2022-06-06T08:23:22Z</time>
      </trkpt>
      <trkpt lat="48.0051310" lon="8.1966650">
        <ele>536.8</ele>
        <time>2022-06-06T08:23:26Z</time>
      </trkpt>
      <trkpt lat="48.0052130" lon="8.1966350">
        <ele>537.0</ele>
        <time>2022-06-06T08:23:30Z</time>
      </trkpt>
      <trkpt lat="48.0052910" lon="8.1966550">
        <ele>538.2</ele>
        <time>2022-06-06T08:23:34Z</time>
      </trkpt>
      <trkpt lat="48.0053610" lon="8.1966530">
        <ele>538.6</ele>
        <time>2022-06-06T08:23:38Z</time>
      </trkpt>
      <trkpt lat="48.0054760" lon="8.1966800">
        <ele>539.0</ele>
        <time>2022-06-06T08:23:42Z</time>
      </trkpt>
      <trkpt lat="48.0055530" lon="8.1967330">
        <ele>539.6</ele>
        <time>2022-06-06T08:23:46Z</time>
      </trkpt>
      <trkpt lat="48.0055500" lon="8.1968200">
        <ele>540.8</ele>
        <time>2022-06-06T08:23:50Z</time>
      </trkpt>
      <trkpt lat="48.0054900" lon="8.1968250">
        <ele>541.2</ele>
        <time>2022-06-06T08:23:54Z</time>
      </trkpt>
      <trkpt lat="48.0054180" lon="8.1968010">
        <ele>542.6</ele>
        <time>2022-06-06T08:23:58Z</time>
      </trkpt>
      <trkpt lat="48.0053280" lon="8.1967780">
        <ele>542.2</ele>
        <time>2022-06-06T08:24:02Z</time>
      </trkpt>
      <trkpt lat="48.0052430" lon="8.1967710">
        <ele>542.8</ele>
        <time>2022-06-06T08:24:06Z</time>
      </trkpt>
      <trkpt lat="48.0051610" lon="8.1967630">
        <ele>543.0</ele>
        <time>2022-06-06T08:24:10Z</time>
      </trkpt>
      <trkpt lat="48.0050760" lon="8.1967710">
        <ele>543.6</ele>
        <time>2022-06-06T08:24:14Z</time>
      </trkpt>
      <trkpt lat="48.0049880" lon="8.1967910">
        <ele>543.6</ele>
        <time>2022-06-06T08:24:18Z</time>
      </trkpt>
      <trkpt lat="48.0049130" lon="8.1967930">
        <ele>544.2</ele>
        <time>2022-06-06T08:24:22Z</time>
      </trkpt>
      <trkpt lat="48.0048310" lon="8.1968000">
        <ele>544.8</ele>
        <time>2022-06-06T08:24:26Z</time>
      </trkpt>
      <trkpt lat="48.0047410" lon="8.1968430">
        <ele>546.0</ele>
        <time>2022-06-06T08:24:30Z</time>
      </trkpt>
      <trkpt lat="48.0046630" lon="8.1968960">
        <ele>546.2</ele>
        <time>2022-06-06T08:24:34Z</time>
      </trkpt>
      <trkpt lat="48.0045860" lon="8.1969500">
        <ele>546.8</ele>
        <time>2022-06-06T08:24:38Z</time>
      </trkpt>
      <trkpt lat="48.0045060" lon="8.1969700">
        <ele>547.6</ele>
        <time>2022-06-06T08:24:42Z</time>
      </trkpt>
      <trkpt lat="48.0044180" lon="8.1969510">
        <ele>548.4</ele>
        <time>2022-06-06T08:24:46Z</time>
      </trkpt>
      <trkpt lat="48.0043360" lon="8.1969450">
        <ele>549.2</ele>
        <time>2022-06-06T08:24:50Z</time>
      </trkpt>
      <trkpt lat="48.0042300" lon="8.1969630">
        <ele>549.4</ele>
        <time>2022-06-06T08:24:54Z</time>
      </trkpt>
      <trkpt lat="48.0041380" lon="8.1969900">
        <ele>550.0</ele>
        <time>2022-06-06T08:24:58Z</time>
      </trkpt>
      <trkpt lat="48.0040430" lon="8.1969950">
        <ele>550.6</ele>
        <time>2022-06-06T08:25:02Z</time>
      </trkpt>
      <trkpt lat="48.0039710" lon="8.1970250">
        <ele>551.2</ele>
        <time>2022-06-06T08:25:06Z</time>
      </trkpt>
      <trkpt lat="48.0039000" lon="8.1970410">
        <ele>551.2</ele>
        <time>2022-06-06T08:25:10Z</time>
      </trkpt>
      <trkpt lat="48.0038280" lon="8.1970700">
        <ele>552.2</ele>
        <time>2022-06-06T08:25:14Z</time>
      </trkpt>
      <trkpt lat="48.0037580" lon="8.1970980">
        <ele>552.6</ele>
        <time>2022-06-06T08:25:18Z</time>
      </trkpt>
      <trkpt lat="48.0036960" lon="8.1971180">
        <ele>553.2</ele>
        <time>2022-06-06T08:25:22Z</time>
      </trkpt>
      <trkpt lat="48.0036360" lon="8.1971550">
        <ele>554.0</ele>
        <time>2022-06-06T08:25:26Z</time>
      </trkpt>
      <trkpt lat="48.0035530" lon="8.1971680">
        <ele>554.8</ele>
        <time>2022-06-06T08:25:30Z</time>
      </trkpt>
      <trkpt lat="48.0034680" lon="8.1971580">
        <ele>555.4</ele>
        <time>2022-06-06T08:25:34Z</time>
      </trkpt>
      <trkpt lat="48.0033960" lon="8.1971510">
        <ele>555.4</ele>
        <time>2022-06-06T08:25:38Z</time>
      </trkpt>
      <trkpt lat="48.0033330" lon="8.1971060">
        <ele>556.2</ele>
        <time>2022-06-06T08:25:42Z</time>
      </trkpt>
      <trkpt lat="48.0032660" lon="8.1970630">
        <ele>557.2</ele>
        <time>2022-06-06T08:25:46Z</time>
      </trkpt>
      <trkpt lat="48.0031930" lon="8.1970110">
        <ele>557.4</ele>
        <time>2022-06-06T08:25:50Z</time>
      </trkpt>
      <trkpt lat="48.0030980" lon="8.1969250">
        <ele>558.4</ele>
        <time>2022-06-06T08:25:54Z</time>
      </trkpt>
      <trkpt lat="48.0030280" lon="8.1968660">
        <ele>559.2</ele>
        <time>2022-06-06T08:25:58Z</time>
      </trkpt>
      <trkpt lat="48.0029650" lon="8.1968110">
        <ele>559.8</ele>
        <time>2022-06-06T08:26:02Z</time>
      </trkpt>
      <trkpt lat="48.0029000" lon="8.1967610">
        <ele>560.2</ele>
        <time>2022-06-06T08:26:06Z</time>
      </trkpt>
      <trkpt lat="48.0028400" lon="8.1967510">
        <ele>560.6</ele>
        <time>2022-06-06T08:26:10Z</time>
      </trkpt>
      <trkpt lat="48.0027730" lon="8.1967250">
        <ele>561.4</ele>
        <time>2022-06-06T08:26:14Z</time>
      </trkpt>
      <trkpt lat="48.0027210" lon="8.1966960">
        <ele>561.4</ele>
        <time>2022-06-06T08:26:18Z</time>
      </trkpt>
      <trkpt lat="48.0026680" lon="8.1966830">
        <ele>562.2</ele>
        <time>2022-06-06T08:26:22Z</time>
      </trkpt>
      <trkpt lat="48.0026050" lon="8.1966480">
        <ele>562.6</ele>
        <time>2022-06-06T08:26:26Z</time>
      </trkpt>
      <trkpt lat="48.0025400" lon="8.1966300">
        <ele>562.8</ele>
        <time>2022-06-06T08:26:30Z</time>
      </trkpt>
      <trkpt lat="48.0024560" lon="8.1965900">
        <ele>563.4</ele>
        <time>2022-06-06T08:26:34Z</time>
      </trkpt>
      <trkpt lat="48.0023680" lon="8.1965350">
        <ele>564.6</ele>
        <time>2022-06-06T08:26:38Z</time>
      </trkpt>
      <trkpt lat="48.0022910" lon="8.1965010">
        <ele>565.6</ele>
        <time>2022-06-06T08:26:42Z</time>
      </trkpt>
      <trkpt lat="48.0022150" lon="8.1964730">
        <ele>565.6</ele>
        <time>2022-06-06T08:26:46Z</time>
      </trkpt>
      <trkpt lat="48.0021110" lon="8.1964360">
        <ele>566.2</ele>
        <time>2022-06-06T08:26:50Z</time>
      </trkpt>
      <trkpt lat="48.0020110" lon="8.1964210">
        <ele>567.4</ele>
        <time>2022-06-06T08:26:54Z</time>
      </trkpt>
      <trkpt lat="48.0019230" lon="8.1963880">
        <ele>568.6</ele>
        <time>2022-06-06T08:26:58Z</time>
      </trkpt>
      <trkpt lat="48.0018310" lon="8.1963960">
        <ele>569.2</ele>
        <time>2022-06-06T08:27:02Z</time>
      </trkpt>
      <trkpt lat="48.0017450" lon="8.1964330">
        <ele>569.6</ele>
        <time>2022-06-06T08:27:06Z</time>
      </trkpt>
      <trkpt lat="48.0016660" lon="8.1964750">
        <ele>571.6</ele>
        <time>2022-06-06T08:27:10Z</time>
      </trkpt>
      <trkpt lat="48.0015810" lon="8.1965100">
        <ele>572.2</ele>
        <time>2022-06-06T08:27:14Z</time>
      </trkpt>
      <trkpt lat="48.0015010" lon="8.1965580">
        <ele>573.0</ele>
        <time>2022-06-06T08:27:18Z</time>
      </trkpt>
      <trkpt lat="48.0014150" lon="8.1965930">
        <ele>573.0</ele>
        <time>2022-06-06T08:27:22Z</time>
      </trkpt>
      <trkpt lat="48.0013310" lon="8.1966080">
        <ele>573.6</ele>
        <time>2022-06-06T08:27:26Z</time>
      </trkpt>
      <trkpt lat="48.0012500" lon="8.1966060">
        <ele>574.4</ele>
        <time>2022-06-06T08:27:30Z</time>
      </trkpt>
      <trkpt lat="48.0011700" lon="8.1965610">
        <ele>574.6</ele>
        <time>2022-06-06T08:27:34Z</time>
      </trkpt>
      <trkpt lat="48.0010910" lon="8.1964960">
        <ele>574.6</ele>
        <time>2022-06-06T08:27:38Z</time>
      </trkpt>
      <trkpt lat="48.0010100" lon="8.1964330">
        <ele>575.2</ele>
        <time>2022-06-06T08:27:42Z</time>
      </trkpt>
      <trkpt lat="48.0009150" lon="8.1963910">
        <ele>575.4</ele>
        <time>2022-06-06T08:27:46Z</time>
      </trkpt>
      <trkpt lat="48.0008160" lon="8.1963900">
        <ele>575.6</ele>
        <time>2022-06-06T08:27:50Z</time>
      </trkpt>
      <trkpt lat="48.0007200" lon="8.1964150">
        <ele>575.8</ele>
        <time>2022-06-06T08:27:54Z</time>
      </trkpt>
      <trkpt lat="48.0006230" lon="8.1964650">
        <ele>576.0</ele>
        <time>2022-06-06T08:27:58Z</time>
      </trkpt>
      <trkpt lat="48.0005280" lon="8.1965100">
        <ele>576.6</ele>
        <time>2022-06-06T08:28:02Z</time>
      </trkpt>
      <trkpt lat="48.0004280" lon="8.1965360">
        <ele>577.2</ele>
        <time>2022-06-06T08:28:06Z</time>
      </trkpt>
      <trkpt lat="48.0003250" lon="8.1965410">
        <ele>576.8</ele>
        <time>2022-06-06T08:28:10Z</time>
      </trkpt>
      <trkpt lat="48.0002250" lon="8.1965200">
        <ele>577.0</ele>
        <time>2022-06-06T08:28:14Z</time>
      </trkpt>
      <trkpt lat="48.0001230" lon="8.1964810">
        <ele>578.4</ele>
        <time>2022-06-06T08:28:18Z</time>
      </trkpt>
      <trkpt lat="48.0000260" lon="8.1964060">
        <ele>578.8</ele>
        <time>2022-06-06T08:28:22Z</time>
      </trkpt>
      <trkpt lat="47.9999260" lon="8.1963200">
        <ele>578.4</ele>
        <time>2022-06-06T08:28:26Z</time>
      </trkpt>
      <trkpt lat="47.9998280" lon="8.1962160">
        <ele>578.4</ele>
        <time>2022-06-06T08:28:30Z</time>
      </trkpt>
      <trkpt lat="47.9997280" lon="8.1961100">
        <ele>578.0</ele>
        <time>2022-06-06T08:28:34Z</time>
      </trkpt>
      <trkpt lat="47.9996250" lon="8.1960100">
        <ele>578.6</ele>
        <time>2022-06-06T08:28:38Z</time>
      </trkpt>
      <trkpt lat="47.9995250" lon="8.1959080">
        <ele>578.4</ele>
        <time>2022-06-06T08:28:42Z</time>
      </trkpt>
      <trkpt lat="47.9994260" lon="8.1958080">
        <ele>578.8</ele>
        <time>2022-06-06T08:28:46Z</time>
      </trkpt>
      <trkpt lat="47.9993300" lon="8.1957080">
        <ele>579.2</ele>
        <time>2022-06-06T08:28:50Z</time>
      </trkpt>
      <trkpt lat="47.9992300" lon="8.1956160">
        <ele>579.2</ele>
        <time>2022-06-06T08:28:54Z</time>
      </trkpt>
      <trkpt lat="47.9991300" lon="8.1955150">
        <ele>579.8</ele>
        <time>2022-06-06T08:28:58Z</time>
      </trkpt>
      <trkpt lat="47.9990280" lon="8.1954180">
        <ele>579.8</ele>
        <time>2022-06-06T08:29:02Z</time>
      </trkpt>
      <trkpt lat="47.9989280" lon="8.1953280">
        <ele>581.8</ele>
        <time>2022-06-06T08:29:06Z</time>
      </trkpt>
      <trkpt lat="47.9988310" lon="8.1952280">
        <ele>582.2</ele>
        <time>2022-06-06T08:29:10Z</time>
      </trkpt>
      <trkpt lat="47.9987350" lon="8.1951360">
        <ele>582.6</ele>
        <time>2022-06-06T08:29:14Z</time>
      </trkpt>
      <trkpt lat="47.9986410" lon="8.1950450">
        <ele>582.8</ele>
        <time>2022-06-06T08:29:18Z</time>
      </trkpt>
      <trkpt lat="47.9985480" lon="8.1949610">
        <ele>583.0</ele>
        <time>2022-06-06T08:29:22Z</time>
      </trkpt>
      <trkpt lat="47.9984610" lon="8.1948650">
        <ele>584.0</ele>
        <time>2022-06-06T08:29:26Z</time>
      </trkpt>
      <trkpt lat="47.9983650" lon="8.1948560">
        <ele>585.0</ele>
        <time>2022-06-06T08:29:30Z</time>
      </trkpt>
      <trkpt lat="47.9982700" lon="8.1948610">
        <ele>585.6</ele>
        <time>2022-06-06T08:29:34Z</time>
      </trkpt>
      <trkpt lat="47.9981750" lon="8.1948400">
        <ele>586.2</ele>
        <time>2022-06-06T08:29:38Z</time>
      </trkpt>
      <trkpt lat="47.9980800" lon="8.1948610">
        <ele>586.0</ele>
        <time>2022-06-06T08:29:42Z</time>
      </trkpt>
      <trkpt lat="47.9979830" lon="8.1949210">
        <ele>586.2</ele>
        <time>2022-06-06T08:29:46Z</time>
      </trkpt>
      <trkpt lat="47.9978900" lon="8.1949960">
        <ele>586.4</ele>
        <time>2022-06-06T08:29:50Z</time>
      </trkpt>
      <trkpt lat="47.9978060" lon="8.1950500">
        <ele>586.6</ele>
        <time>2022-06-06T08:29:54Z</time>
      </trkpt>
      <trkpt lat="47.9977300" lon="8.1950900">
        <ele>587.4</ele>
        <time>2022-06-06T08:29:58Z</time>
      </trkpt>
      <trkpt lat="47.9976480" lon="8.1951260">
        <ele>587.6</ele>
        <time>2022-06-06T08:30:02Z</time>
      </trkpt>
      <trkpt lat="47.9975680" lon="8.1951450">
        <ele>588.8</ele>
        <time>2022-06-06T08:30:06Z</time>
      </trkpt>
      <trkpt lat="47.9974900" lon="8.1951310">
        <ele>590.0</ele>
        <time>2022-06-06T08:30:10Z</time>
      </trkpt>
      <trkpt lat="47.9974030" lon="8.1951050">
        <ele>591.2</ele>
        <time>2022-06-06T08:30:14Z</time>
      </trkpt>
      <trkpt lat="47.9973200" lon="8.1950560">
        <ele>591.8</ele>
        <time>2022-06-06T08:30:18Z</time>
      </trkpt>
      <trkpt lat="47.9972410" lon="8.1949980">
        <ele>592.8</ele>
        <time>2022-06-06T08:30:22Z</time>
      </trkpt>
      <trkpt lat="47.9971650" lon="8.1949730">
        <ele>592.8</ele>
        <time>2022-06-06T08:30:26Z</time>
      </trkpt>
      <trkpt lat="47.9970900" lon="8.1949450">
        <ele>594.4</ele>
        <time>2022-06-06T08:30:30Z</time>
      </trkpt>
      <trkpt lat="47.9970180" lon="8.1949360">
        <ele>595.6</ele>
        <time>2022-06-06T08:30:34Z</time>
      </trkpt>
      <trkpt lat="47.9969330" lon="8.1949180">
        <ele>596.0</ele>
        <time>2022-06-06T08:30:38Z</time>
      </trkpt>
      <trkpt lat="47.9968600" lon="8.1948930">
        <ele>597.0</ele>
        <time>2022-06-06T08:30:42Z</time>
      </trkpt>
      <trkpt lat="47.9967730" lon="8.1948560">
        <ele>597.6</ele>
        <time>2022-06-06T08:30:46Z</time>
      </trkpt>
      <trkpt lat="47.9966900" lon="8.1948400">
        <ele>598.4</ele>
        <time>2022-06-06T08:30:50Z</time>
      </trkpt>
      <trkpt lat="47.9966180" lon="8.1948210">
        <ele>599.0</ele>
        <time>2022-06-06T08:30:54Z</time>
      </trkpt>
      <trkpt lat="47.9965350" lon="8.1948360">
        <ele>599.2</ele>
        <time>2022-06-06T08:30:58Z</time>
      </trkpt>
      <trkpt lat="47.9964550" lon="8.1948450">
        <ele>600.0</ele>
        <time>2022-06-06T08:31:02Z</time>
      </trkpt>
      <trkpt lat="47.9963730" lon="8.1948560">
        <ele>600.6</ele>
        <time>2022-06-06T08:31:06Z</time>
      </trkpt>
      <trkpt lat="47.9962810" lon="8.1948710">
        <ele>601.8</ele>
        <time>2022-06-06T08:31:10Z</time>
      </trkpt>
      <trkpt lat="47.9961980" lon="8.1948880">
        <ele>602.2</ele>
        <time>2022-06-06T08:31:14Z</time>
      </trkpt>
      <trkpt lat="47.9961050" lon="8.1949030">
        <ele>603.0</ele>
        <time>2022-06-06T08:31:18Z</time>
      </trkpt>
      <trkpt lat="47.9960180" lon="8.1949150">
        <ele>604.0</ele>
        <time>2022-06-06T08:31:22Z</time>
      </trkpt>
      <trkpt lat="47.9959280" lon="8.1949260">
        <ele>605.2</ele>
        <time>2022-06-06T08:31:26Z</time>
      </trkpt>
      <trkpt lat="47.9958510" lon="8.1949510">
        <ele>606.2</ele>
        <time>2022-06-06T08:31:30Z</time>
      </trkpt>
      <trkpt lat="47.9957700" lon="8.1949700">
        <ele>607.0</ele>
        <time>2022-06-06T08:31:34Z</time>
      </trkpt>
      <trkpt lat="47.9956800" lon="8.1949880">
        <ele>608.2</ele>
        <time>2022-06-06T08:31:38Z</time>
      </trkpt>
      <trkpt lat="47.9955860" lon="8.1950030">
        <ele>609.0</ele>
        <time>2022-06-06T08:31:42Z</time>
      </trkpt>
      <trkpt lat="47.9954880" lon="8.1950060">
        <ele>610.0</ele>
        <time>2022-06-06T08:31:46Z</time>
      </trkpt>
      <trkpt lat="47.9953850" lon="8.1949880">
        <ele>610.8</ele>
        <time>2022-06-06T08:31:50Z</time>
      </trkpt>
      <trkpt lat="47.9952980" lon="8.1950030">
        <ele>611.8</ele>
        <time>2022-06-06T08:31:54Z</time>
      </trkpt>
      <trkpt lat="47.9952150" lon="8.1950210">
        <ele>613.4</ele>
        <time>2022-06-06T08:31:58Z</time>
      </trkpt>
      <trkpt lat="47.9951480" lon="8.1950450">
        <ele>614.4</ele>
        <time>2022-06-06T08:32:02Z</time>
      </trkpt>
      <trkpt lat="47.9950710" lon="8.1951030">
        <ele>615.4</ele>
        <time>2022-06-06T08:32:06Z</time>
      </trkpt>
      <trkpt lat="47.9950030" lon="8.1951950">
        <ele>616.0</ele>
        <time>2022-06-06T08:32:10Z</time>
      </trkpt>
      <trkpt lat="47.9949550" lon="8.1953160">
        <ele>616.8</ele>
        <time>2022-06-06T08:32:14Z</time>
      </trkpt>
      <trkpt lat="47.9949180" lon="8.1954480">
        <ele>618.2</ele>
        <time>2022-06-06T08:32:18Z</time>
      </trkpt>
      <trkpt lat="47.9948980" lon="8.1955650">
        <ele>619.0</ele>
        <time>2022-06-06T08:32:22Z</time>
      </trkpt>
      <trkpt lat="47.9948830" lon="8.1956750">
        <ele>620.0</ele>
        <time>2022-06-06T08:32:26Z</time>
      </trkpt>
      <trkpt lat="47.9948760" lon="8.1957900">
        <ele>620.8</ele>
        <time>2022-06-06T08:32:30Z</time>
      </trkpt>
      <trkpt lat="47.9948560" lon="8.1958980">
        <ele>621.4</ele>
        <time>2022-06-06T08:32:34Z</time>
      </trkpt>
      <trkpt lat="47.9948130" lon="8.1960080">
        <ele>622.8</ele>
        <time>2022-06-06T08:32:38Z</time>
      </trkpt>
      <trkpt lat="47.9947410" lon="8.1960810">
        <ele>623.8</ele>
        <time>2022-06-06T08:32:42Z</time>
      </trkpt>
      <trkpt lat="47.9946860" lon="8.1961150">
        <ele>624.8</ele>
        <time>2022-06-06T08:32:46Z</time>
      </trkpt>
      <trkpt lat="47.9946160" lon="8.1961330">
        <ele>625.6</ele>
        <time>2022-06-06T08:32:50Z</time>
      </trkpt>
      <trkpt lat="47.9945460" lon="8.1961210">
        <ele>626.8</ele>
        <time>2022-06-06T08:32:54Z</time>
      </trkpt>
      <trkpt lat="47.9944750" lon="8.1961150">
        <ele>626.8</ele>
        <time>2022-06-06T08:32:58Z</time>
      </trkpt>
      <trkpt lat="47.9944050" lon="8.1961050">
        <ele>627.6</ele>
        <time>2022-06-06T08:33:02Z</time>
      </trkpt>
      <trkpt lat="47.9943200" lon="8.1961000">
        <ele>629.2</ele>
        <time>2022-06-06T08:33:06Z</time>
      </trkpt>
      <trkpt lat="47.9942380" lon="8.1961050">
        <ele>630.2</ele>
        <time>2022-06-06T08:33:10Z</time>
      </trkpt>
      <trkpt lat="47.9941610" lon="8.1961230">
        <ele>631.0</ele>
        <time>2022-06-06T08:33:14Z</time>
      </trkpt>
      <trkpt lat="47.9941010" lon="8.1962060">
        <ele>631.4</ele>
        <time>2022-06-06T08:33:18Z</time>
      </trkpt>
      <trkpt lat="47.9940530" lon="8.1963110">
        <ele>632.8</ele>
        <time>2022-06-06T08:33:22Z</time>
      </trkpt>
      <trkpt lat="47.9940050" lon="8.1964180">
        <ele>633.8</ele>
        <time>2022-06-06T08:33:26Z</time>
      </trkpt>
      <trkpt lat="47.9939660" lon="8.1965230">
        <ele>634.6</ele>
        <time>2022-06-06T08:33:30Z</time>
      </trkpt>
      <trkpt lat="47.9939350" lon="8.1966180">
        <ele>635.8</ele>
        <time>2022-06-06T08:33:34Z</time>
      </trkpt>
      <trkpt lat="47.9939110" lon="8.1967030">
        <ele>636.6</ele>
        <time>2022-06-06T08:33:38Z</time>
      </trkpt>
      <trkpt lat="47.9939060" lon="8.1967930">
        <ele>637.6</ele>
        <time>2022-06-06T08:33:42Z</time>
      </trkpt>
      <trkpt lat="47.9938960" lon="8.1968810">
        <ele>638.2</ele>
        <time>2022-06-06T08:33:46Z</time>
      </trkpt>
      <trkpt lat="47.9938510" lon="8.1970060">
        <ele>638.2</ele>
        <time>2022-06-06T08:33:50Z</time>
      </trkpt>
      <trkpt lat="47.9937950" lon="8.1971100">
        <ele>639.8</ele>
        <time>2022-06-06T08:33:54Z</time>
      </trkpt>
      <trkpt lat="47.9937280" lon="8.1971980">
        <ele>640.6</ele>
        <time>2022-06-06T08:33:58Z</time>
      </trkpt>
      <trkpt lat="47.9936630" lon="8.1972680">
        <ele>641.4</ele>
        <time>2022-06-06T08:34:02Z</time>
      </trkpt>
      <trkpt lat="47.9935510" lon="8.1973350">
        <ele>641.6</ele>
        <time>2022-06-06T08:34:06Z</time>
      </trkpt>
      <trkpt lat="47.9934480" lon="8.1973980">
        <ele>642.4</ele>
        <time>2022-06-06T08:34:10Z</time>
      </trkpt>
      <trkpt lat="47.9933510" lon="8.1974310">
        <ele>643.8</ele>
        <time>2022-06-06T08:34:14Z</time>
      </trkpt>
      <trkpt lat="47.9932660" lon="8.1974580">
        <ele>644.6</ele>
        <time>2022-06-06T08:34:18Z</time>
      </trkpt>
      <trkpt lat="47.9931800" lon="8.1974880">
        <ele>645.0</ele>
        <time>2022-06-06T08:34:22Z</time>
      </trkpt>
      <trkpt lat="47.9930980" lon="8.1974760">
        <ele>644.4</ele>
        <time>2022-06-06T08:34:26Z</time>
      </trkpt>
      <trkpt lat="47.9930130" lon="8.1974630">
        <ele>645.0</ele>
        <time>2022-06-06T08:34:30Z</time>
      </trkpt>
      <trkpt lat="47.9929360" lon="8.1974400">
        <ele>646.0</ele>
        <time>2022-06-06T08:34:34Z</time>
      </trkpt>
      <trkpt lat="47.9928550" lon="8.1974050">
        <ele>646.2</ele>
        <time>2022-06-06T08:34:38Z</time>
      </trkpt>
      <trkpt lat="47.9927830" lon="8.1973480">
        <ele>647.4</ele>
        <time>2022-06-06T08:34:42Z</time>
      </trkpt>
      <trkpt lat="47.9927160" lon="8.1972750">
        <ele>648.2</ele>
        <time>2022-06-06T08:34:46Z</time>
      </trkpt>
      <trkpt lat="47.9926510" lon="8.1971780">
        <ele>648.4</ele>
        <time>2022-06-06T08:34:50Z</time>
      </trkpt>
      <trkpt lat="47.9925950" lon="8.1970700">
        <ele>649.0</ele>
        <time>2022-06-06T08:34:54Z</time>
      </trkpt>
      <trkpt lat="47.9925400" lon="8.1969580">
        <ele>649.4</ele>
        <time>2022-06-06T08:34:58Z</time>
      </trkpt>
      <trkpt lat="47.9924880" lon="8.1968460">
        <ele>649.8</ele>
        <time>2022-06-06T08:35:02Z</time>
      </trkpt>
      <trkpt lat="47.9924310" lon="8.1967380">
        <ele>649.6</ele>
        <time>2022-06-06T08:35:06Z</time>
      </trkpt>
      <trkpt lat="47.9923710" lon="8.1966250">
        <ele>650.2</ele>
        <time>2022-06-06T08:35:10Z</time>
      </trkpt>
      <trkpt lat="47.9923200" lon="8.1965050">
        <ele>650.6</ele>
        <time>2022-06-06T08:35:14Z</time>
      </trkpt>
      <trkpt lat="47.9922600" lon="8.1963830">
        <ele>651.0</ele>
        <time>2022-06-06T08:35:18Z</time>
      </trkpt>
      <trkpt lat="47.9921900" lon="8.1962600">
        <ele>651.2</ele>
        <time>2022-06-06T08:35:22Z</time>
      </trkpt>
      <trkpt lat="47.9921180" lon="8.1961380">
        <ele>651.6</ele>
        <time>2022-06-06T08:35:26Z</time>
      </trkpt>
      <trkpt lat="47.9920410" lon="8.1960250">
        <ele>652.2</ele>
        <time>2022-06-06T08:35:30Z</time>
      </trkpt>
      <trkpt lat="47.9919610" lon="8.1959060">
        <ele>652.2</ele>
        <time>2022-06-06T08:35:34Z</time>
      </trkpt>
      <trkpt lat="47.9918830" lon="8.1957850">
        <ele>652.8</ele>
        <time>2022-06-06T08:35:38Z</time>
      </trkpt>
      <trkpt lat="47.9918060" lon="8.1956530">
        <ele>653.0</ele>
        <time>2022-06-06T08:35:42Z</time>
      </trkpt>
      <trkpt lat="47.9917330" lon="8.1955260">
        <ele>654.2</ele>
        <time>2022-06-06T08:35:46Z</time>
      </trkpt>
      <trkpt lat="47.9916510" lon="8.1953980">
        <ele>654.2</ele>
        <time>2022-06-06T08:35:50Z</time>
      </trkpt>
      <trkpt lat="47.9915780" lon="8.1952560">
        <ele>654.6</ele>
        <time>2022-06-06T08:35:54Z</time>
      </trkpt>
      <trkpt lat="47.9915080" lon="8.1951230">
        <ele>654.4</ele>
        <time>2022-06-06T08:35:58Z</time>
      </trkpt>
      <trkpt lat="47.9914360" lon="8.1949950">
        <ele>655.2</ele>
        <time>2022-06-06T08:36:02Z</time>
      </trkpt>
      <trkpt lat="47.9913660" lon="8.1948650">
        <ele>655.4</ele>
        <time>2022-06-06T08:36:06Z</time>
      </trkpt>
      <trkpt lat="47.9913030" lon="8.1947310">
        <ele>656.4</ele>
        <time>2022-06-06T08:36:10Z</time>
      </trkpt>
      <trkpt lat="47.9912350" lon="8.1946100">
        <ele>656.0</ele>
        <time>2022-06-06T08:36:14Z</time>
      </trkpt>
      <trkpt lat="47.9911680" lon="8.1944910">
        <ele>656.6</ele>
        <time>2022-06-06T08:36:18Z</time>
      </trkpt>
      <trkpt lat="47.9911030" lon="8.1943750">
        <ele>656.6</ele>
        <time>2022-06-06T08:36:22Z</time>
      </trkpt>
      <trkpt lat="47.9910400" lon="8.1942680">
        <ele>657.2</ele>
        <time>2022-06-06T08:36:26Z</time>
      </trkpt>
      <trkpt lat="47.9909730" lon="8.1941660">
        <ele>658.0</ele>
        <time>2022-06-06T08:36:30Z</time>
      </trkpt>
      <trkpt lat="47.9909060" lon="8.1940630">
        <ele>658.4</ele>
        <time>2022-06-06T08:36:34Z</time>
      </trkpt>
      <trkpt lat="47.9908400" lon="8.1939510">
        <ele>658.8</ele>
        <time>2022-06-06T08:36:38Z</time>
      </trkpt>
      <trkpt lat="47.9907750" lon="8.1938380">
        <ele>659.4</ele>
        <time>2022-06-06T08:36:42Z</time>
      </trkpt>
      <trkpt lat="47.9907150" lon="8.1937260">
        <ele>658.6</ele>
        <time>2022-06-06T08:36:46Z</time>
      </trkpt>
      <trkpt lat="47.9906630" lon="8.1936430">
        <ele>658.6</ele>
        <time>2022-06-06T08:36:50Z</time>
      </trkpt>
      <trkpt lat="47.9906510" lon="8.1935850">
        <ele>659.0</ele>
        <time>2022-06-06T08:36:54Z</time>
      </trkpt>
      <trkpt lat="47.9906850" lon="8.1935930">
        <ele>659.4</ele>
        <time>2022-06-06T08:36:58Z</time>
      </trkpt>
      <trkpt lat="47.9906850" lon="8.1935930">
        <ele>659.2</ele>
        <time>2022-06-06T08:37:02Z</time>
      </trkpt>
      <trkpt lat="47.9906850" lon="8.1935930">
        <ele>659.8</ele>
        <time>2022-06-06T08:37:06Z</time>
      </trkpt>
      <trkpt lat="47.9906850" lon="8.1935930">
        <ele>659.4</ele>
        <time>2022-06-06T08:37:10Z</time>
      </trkpt>
      <trkpt lat="47.9906850" lon="8.1935930">
        <ele>659.4</ele>
        <time>2022-06-06T08:37:14Z</time>
      </trkpt>
      <trkpt lat="47.9906850" lon="8.1935930">
        <ele>659.2</ele>
        <time>2022-06-06T08:37:18Z</time>
      </trkpt>
      <trkpt lat="47.9906850" lon="8.1935930">
        <ele>658.8</ele>
        <time>2022-06-06T08:37:22Z</time>
      </trkpt>
      <trkpt lat="47.9906850" lon="8.1935930">
        <ele>659.2</ele>
        <time>2022-06-06T08:37:26Z</time>
      </trkpt>
      <trkpt lat="47.9906850" lon="8.1935930">
        <ele>659.0</ele>
        <time>2022-06-06T08:37:30Z</time>
      </trkpt>
      <trkpt lat="47.9906850" lon="8.1935930">
        <ele>659.0</ele>
        <time>2022-06-06T08:37:34Z</time>
      </trkpt>
      <trkpt lat="47.9906850" lon="8.1935930">
        <ele>659.0</ele>
        <time>2022-06-06T08:37:38Z</time>
      </trkpt>
      <trkpt lat="47.9906850" lon="8.1935930">
        <ele>659.0</ele>
        <time>2022-06-06T08:37:42Z</time>
      </trkpt>
      <trkpt lat="47.9906850" lon="8.1935930">
        <ele>659.0</ele>
        <time>2022-06-06T08:37:46Z</time>
      </trkpt>
      <trkpt lat="47.9906850" lon="8.1935930">
        <ele>659.0</ele>
        <time>2022-06-06T08:37:50Z</time>
      </trkpt>
      <trkpt lat="47.9906850" lon="8.1935930">
        <ele>659.4</ele>
        <time>2022-06-06T08:37:54Z</time>
      </trkpt>
      <trkpt lat="47.9906850" lon="8.1935930">
        <ele>659.2</ele>
        <time>2022-06-06T08:37:58Z</time>
      </trkpt>
      <trkpt lat="47.9906850" lon="8.1935930">
        <ele>659.0</ele>
        <time>2022-06-06T08:38:02Z</time>
      </trkpt>
      <trkpt lat="47.9906850" lon="8.1935930">
        <ele>658.8</ele>
        <time>2022-06-06T08:38:06Z</time>
      </trkpt>
      <trkpt lat="47.9906850" lon="8.1935930">
        <ele>659.2</ele>
        <time>2022-06-06T08:38:10Z</time>
      </trkpt>
      <trkpt lat="47.9906850" lon="8.1935930">
        <ele>659.6</ele>
        <time>2022-06-06T08:38:14Z</time>
      </trkpt>
      <trkpt lat="47.9906850" lon="8.1935930">
        <ele>659.6</ele>
        <time>2022-06-06T08:38:18Z</time>
      </trkpt>
      <trkpt lat="47.9906850" lon="8.1935930">
        <ele>659.4</ele>
        <time>2022-06-06T08:38:22Z</time>
      </trkpt>
      <trkpt lat="47.9906850" lon="8.1935930">
        <ele>659.0</ele>
        <time>2022-06-06T08:38:26Z</time>
      </trkpt>
      <trkpt lat="47.9906850" lon="8.1935930">
        <ele>659.2</ele>
        <time>2022-06-06T08:38:30Z</time>
      </trkpt>
      <trkpt lat="47.9906850" lon="8.1935930">
        <ele>659.2</ele>
        <time>2022-06-06T08:38:34Z</time>
      </trkpt>
      <trkpt lat="47.9906850" lon="8.1935930">
        <ele>659.2</ele>
        <time>2022-06-06T08:38:38Z</time>
      </trkpt>
      <trkpt lat="47.9906850" lon="8.1935930">
        <ele>659.2</ele>
        <time>2022-06-06T08:38:42Z</time>
      </trkpt>
      <trkpt lat="47.9906850" lon="8.1935930">
        <ele>659.4</ele>
        <time>2022-06-06T08:38:46Z</time>
      </trkpt>
      <trkpt lat="47.9906850" lon="8.1935930">
        <ele>659.8</ele>
        <time>2022-06-06T08:38:50Z</time>
      </trkpt>
      <trkpt lat="47.9906850" lon="8.1935930">
        <ele>659.4</ele>
        <time>2022-06-06T08:38:54Z</time>
      </trkpt>
      <trkpt lat="47.9906850" lon="8.1935930">
        <ele>659.4</ele>
        <time>2022-06-06T08:38:58Z</time>
      </trkpt>
      <trkpt lat="47.9906850" lon="8.1935930">
        <ele>659.6</ele>
        <time>2022-06-06T08:39:02Z</time>
      </trkpt>
      <trkpt lat="47.9906680" lon="8.1936100">
        <ele>658.4</ele>
        <time>2022-06-06T08:39:06Z</time>
      </trkpt>
      <trkpt lat="47.9906410" lon="8.1935980">
        <ele>658.8</ele>
        <time>2022-06-06T08:39:10Z</time>
      </trkpt>
      <trkpt lat="47.9906410" lon="8.1935980">
        <ele>658.6</ele>
        <time>2022-06-06T08:39:14Z</time>
      </trkpt>
      <trkpt lat="47.9906410" lon="8.1935980">
        <ele>658.8</ele>
        <time>2022-06-06T08:39:18Z</time>
      </trkpt>
      <trkpt lat="47.9906410" lon="8.1935980">
        <ele>658.8</ele>
        <time>2022-06-06T08:39:22Z</time>
      </trkpt>
      <trkpt lat="47.9906200" lon="8.1935980">
        <ele>658.6</ele>
        <time>2022-06-06T08:39:26Z</time>
      </trkpt>
      <trkpt lat="47.9906200" lon="8.1935980">
        <ele>658.2</ele>
        <time>2022-06-06T08:39:30Z</time>
      </trkpt>
      <trkpt lat="47.9906200" lon="8.1935980">
        <ele>658.8</ele>
        <time>2022-06-06T08:39:34Z</time>
      </trkpt>
      <trkpt lat="47.9906200" lon="8.1935980">
        <ele>658.4</ele>
        <time>2022-06-06T08:39:38Z</time>
      </trkpt>
      <trkpt lat="47.9906200" lon="8.1935980">
        <ele>658.2</ele>
        <time>2022-06-06T08:39:42Z</time>
      </trkpt>
      <trkpt lat="47.9906200" lon="8.1935980">
        <ele>658.6</ele>
        <time>2022-06-06T08:39:46Z</time>
      </trkpt>
      <trkpt lat="47.9906200" lon="8.1935980">
        <ele>659.0</ele>
        <time>2022-06-06T08:39:50Z</time>
      </trkpt>
      <trkpt lat="47.9906200" lon="8.1935980">
        <ele>659.4</ele>
        <time>2022-06-06T08:39:54Z</time>
      </trkpt>
      <trkpt lat="47.9906200" lon="8.1935980">
        <ele>659.0</ele>
        <time>2022-06-06T08:39:58Z</time>
      </trkpt>
      <trkpt lat="47.9906200" lon="8.1935980">
        <ele>658.6</ele>
        <time>2022-06-06T08:40:02Z</time>
      </trkpt>
      <trkpt lat="47.9906200" lon="8.1935980">
        <ele>658.8</ele>
        <time>2022-06-06T08:40:06Z</time>
      </trkpt>
      <trkpt lat="47.9906200" lon="8.1935980">
        <ele>658.6</ele>
        <time>2022-06-06T08:40:10Z</time>
      </trkpt>
      <trkpt lat="47.9906200" lon="8.1935980">
        <ele>658.2</ele>
        <time>2022-06-06T08:40:14Z</time>
      </trkpt>
      <trkpt lat="47.9905900" lon="8.1936280">
        <ele>658.0</ele>
        <time>2022-06-06T08:40:18Z</time>
      </trkpt>
      <trkpt lat="47.9905430" lon="8.1936130">
        <ele>658.2</ele>
        <time>2022-06-06T08:40:22Z</time>
      </trkpt>
      <trkpt lat="47.9904980" lon="8.1936550">
        <ele>657.6</ele>
        <time>2022-06-06T08:40:26Z</time>
      </trkpt>
      <trkpt lat="47.9904210" lon="8.1937450">
        <ele>657.0</ele>
        <time>2022-06-06T08:40:30Z</time>
      </trkpt>
      <trkpt lat="47.9903010" lon="8.1938360">
        <ele>656.6</ele>
        <time>2022-06-06T08:40:34Z</time>
      </trkpt>
      <trkpt lat="47.9901580" lon="8.1939460">
        <ele>655.4</ele>
        <time>2022-06-06T08:40:38Z</time>
      </trkpt>
      <trkpt lat="47.9900030" lon="8.1940510">
        <ele>655.4</ele>
        <time>2022-06-06T08:40:42Z</time>
      </trkpt>
      <trkpt lat="47.9898430" lon="8.1941560">
        <ele>656.0</ele>
        <time>2022-06-06T08:40:46Z</time>
      </trkpt>
      <trkpt lat="47.9896930" lon="8.1942510">
        <ele>656.0</ele>
        <time>2022-06-06T08:40:50Z</time>
      </trkpt>
      <trkpt lat="47.9895280" lon="8.1942910">
        <ele>655.6</ele>
        <time>2022-06-06T08:40:54Z</time>
      </trkpt>
      <trkpt lat="47.9893410" lon="8.1943210">
        <ele>655.4</ele>
        <time>2022-06-06T08:40:58Z</time>
      </trkpt>
      <trkpt lat="47.9891260" lon="8.1942810">
        <ele>654.0</ele>
        <time>2022-06-06T08:41:02Z</time>
      </trkpt>
      <trkpt lat="47.9889080" lon="8.1942410">
        <ele>653.8</ele>
        <time>2022-06-06T08:41:06Z</time>
      </trkpt>
      <trkpt lat="47.9887080" lon="8.1942310">
        <ele>653.0</ele>
        <time>2022-06-06T08:41:10Z</time>
      </trkpt>
      <trkpt lat="47.9884950" lon="8.1942280">
        <ele>653.4</ele>
        <time>2022-06-06T08:41:14Z</time>
      </trkpt>
      <trkpt lat="47.9883330" lon="8.1942100">
        <ele>653.4</ele>
        <time>2022-06-06T08:41:18Z</time>
      </trkpt>
      <trkpt lat="47.9881910" lon="8.1941760">
        <ele>653.4</ele>
        <time>2022-06-06T08:41:22Z</time>
      </trkpt>
      <trkpt lat="47.9880530" lon="8.1941630">
        <ele>653.6</ele>
        <time>2022-06-06T08:41:26Z</time>
      </trkpt>
      <trkpt lat="47.9879080" lon="8.1940960">
        <ele>653.4</ele>
        <time>2022-06-06T08:41:30Z</time>
      </trkpt>
      <trkpt lat="47.9877530" lon="8.1940730">
        <ele>654.0</ele>
        <time>2022-06-06T08:41:34Z</time>
      </trkpt>
      <trkpt lat="47.9876150" lon="8.1941030">
        <ele>654.6</ele>
        <time>2022-06-06T08:41:38Z</time>
      </trkpt>
      <trkpt lat="47.9874860" lon="8.1941650">
        <ele>654.8</ele>
        <time>2022-06-06T08:41:42Z</time>
      </trkpt>
      <trkpt lat="47.9873400" lon="8.1942000">
        <ele>654.6</ele>
        <time>2022-06-06T08:41:46Z</time>
      </trkpt>
      <trkpt lat="47.9871850" lon="8.1942650">
        <ele>654.8</ele>
        <time>2022-06-06T08:41:50Z</time>
      </trkpt>
      <trkpt lat="47.9870400" lon="8.1942780">
        <ele>655.0</ele>
        <time>2022-06-06T08:41:54Z</time>
      </trkpt>
      <trkpt lat="47.9869080" lon="8.1942980">
        <ele>655.8</ele>
        <time>2022-06-06T08:41:58Z</time>
      </trkpt>
      <trkpt lat="47.9867660" lon="8.1943550">
        <ele>656.0</ele>
        <time>2022-06-06T08:42:02Z</time>
      </trkpt>
      <trkpt lat="47.9866660" lon="8.1944000">
        <ele>656.4</ele>
        <time>2022-06-06T08:42:06Z</time>
      </trkpt>
      <trkpt lat="47.9865830" lon="8.1944500">
        <ele>656.4</ele>
        <time>2022-06-06T08:42:10Z</time>
      </trkpt>
      <trkpt lat="47.9864760" lon="8.1945100">
        <ele>656.2</ele>
        <time>2022-06-06T08:42:14Z</time>
      </trkpt>
      <trkpt lat="47.9863780" lon="8.1946110">
        <ele>655.8</ele>
        <time>2022-06-06T08:42:18Z</time>
      </trkpt>
      <trkpt lat="47.9862610" lon="8.1947150">
        <ele>655.6</ele>
        <time>2022-06-06T08:42:22Z</time>
      </trkpt>
      <trkpt lat="47.9861350" lon="8.1948500">
        <ele>655.2</ele>
        <time>2022-06-06T08:42:26Z</time>
      </trkpt>
      <trkpt lat="47.9859830" lon="8.1950150">
        <ele>655.2</ele>
        <time>2022-06-06T08:42:30Z</time>
      </trkpt>
      <trkpt lat="47.9858330" lon="8.1951960">
        <ele>655.2</ele>
        <time>2022-06-06T08:42:34Z</time>
      </trkpt>
      <trkpt lat="47.9856930" lon="8.1953750">
        <ele>655.0</ele>
        <time>2022-06-06T08:42:38Z</time>
      </trkpt>
      <trkpt lat="47.9855410" lon="8.1955260">
        <ele>655.2</ele>
        <time>2022-06-06T08:42:42Z</time>
      </trkpt>
      <trkpt lat="47.9853950" lon="8.1956380">
        <ele>655.2</ele>
        <time>2022-06-06T08:42:46Z</time>
      </trkpt>
      <trkpt lat="47.9852460" lon="8.1957750">
        <ele>655.4</ele>
        <time>2022-06-06T08:42:50Z</time>
      </trkpt>
      <trkpt lat="47.9851300" lon="8.1959100">
        <ele>655.8</ele>
        <time>2022-06-06T08:42:54Z</time>
      </trkpt>
      <trkpt lat="47.9850280" lon="8.1960060">
        <ele>656.2</ele>
        <time>2022-06-06T08:42:58Z</time>
      </trkpt>
      <trkpt lat="47.9849080" lon="8.1961110">
        <ele>656.8</ele>
        <time>2022-06-06T08:43:02Z</time>
      </trkpt>
      <trkpt lat="47.9848050" lon="8.1962130">
        <ele>657.6</ele>
        <time>2022-06-06T08:43:06Z</time>
      </trkpt>
      <trkpt lat="47.9847110" lon="8.1962850">
        <ele>657.8</ele>
        <time>2022-06-06T08:43:10Z</time>
      </trkpt>
      <trkpt lat="47.9846210" lon="8.1963500">
        <ele>658.6</ele>
        <time>2022-06-06T08:43:14Z</time>
      </trkpt>
      <trkpt lat="47.9845330" lon="8.1964000">
        <ele>659.4</ele>
        <time>2022-06-06T08:43:18Z</time>
      </trkpt>
      <trkpt lat="47.9843900" lon="8.1964910">
        <ele>660.2</ele>
        <time>2022-06-06T08:43:22Z</time>
      </trkpt>
      <trkpt lat="47.9842780" lon="8.1965030">
        <ele>661.6</ele>
        <time>2022-06-06T08:43:26Z</time>
      </trkpt>
      <trkpt lat="47.9841960" lon="8.1964860">
        <ele>662.4</ele>
        <time>2022-06-06T08:43:30Z</time>
      </trkpt>
      <trkpt lat="47.9841180" lon="8.1964700">
        <ele>662.6</ele>
        <time>2022-06-06T08:43:34Z</time>
      </trkpt>
      <trkpt lat="47.9840210" lon="8.1964330">
        <ele>662.4</ele>
        <time>2022-06-06T08:43:38Z</time>
      </trkpt>
      <trkpt lat="47.9839210" lon="8.1963680">
        <ele>662.6</ele>
        <time>2022-06-06T08:43:42Z</time>
      </trkpt>
      <trkpt lat="47.9838360" lon="8.1962980">
        <ele>662.8</ele>
        <time>2022-06-06T08:43:46Z</time>
      </trkpt>
      <trkpt lat="47.9837380" lon="8.1961750">
        <ele>662.6</ele>
        <time>2022-06-06T08:43:50Z</time>
      </trkpt>
      <trkpt lat="47.9836080" lon="8.1960730">
        <ele>663.2</ele>
        <time>2022-06-06T08:43:54Z</time>
      </trkpt>
      <trkpt lat="47.9834800" lon="8.1959380">
        <ele>663.0</ele>
        <time>2022-06-06T08:43:58Z</time>
      </trkpt>
      <trkpt lat="47.9833510" lon="8.1958050">
        <ele>662.6</ele>
        <time>2022-06-06T08:44:02Z</time>
      </trkpt>
      <trkpt lat="47.9832200" lon="8.1956780">
        <ele>662.6</ele>
        <time>2022-06-06T08:44:06Z</time>
      </trkpt>
      <trkpt lat="47.9830800" lon="8.1955850">
        <ele>662.8</ele>
        <time>2022-06-06T08:44:10Z</time>
      </trkpt>
      <trkpt lat="47.9829650" lon="8.1954700">
        <ele>662.8</ele>
        <time>2022-06-06T08:44:14Z</time>
      </trkpt>
      <trkpt lat="47.9828330" lon="8.1953410">
        <ele>662.8</ele>
        <time>2022-06-06T08:44:18Z</time>
      </trkpt>
      <trkpt lat="47.9826910" lon="8.1951750">
        <ele>661.8</ele>
        <time>2022-06-06T08:44:22Z</time>
      </trkpt>
      <trkpt lat="47.9825510" lon="8.1950030">
        <ele>662.0</ele>
        <time>2022-06-06T08:44:26Z</time>
      </trkpt>
      <trkpt lat="47.9824110" lon="8.1948580">
        <ele>662.2</ele>
        <time>2022-06-06T08:44:30Z</time>
      </trkpt>
      <trkpt lat="47.9822810" lon="8.1947260">
        <ele>662.2</ele>
        <time>2022-06-06T08:44:34Z</time>
      </trkpt>
      <trkpt lat="47.9821160" lon="8.1945900">
        <ele>662.2</ele>
        <time>2022-06-06T08:44:38Z</time>
      </trkpt>
      <trkpt lat="47.9819600" lon="8.1944710">
        <ele>661.8</ele>
        <time>2022-06-06T08:44:42Z</time>
      </trkpt>
      <trkpt lat="47.9818130" lon="8.1943510">
        <ele>662.2</ele>
        <time>2022-06-06T08:44:46Z</time>
      </trkpt>
      <trkpt lat="47.9816900" lon="8.1942400">
        <ele>662.2</ele>
        <time>2022-06-06T08:44:50Z</time>
      </trkpt>
      <trkpt lat="47.9815800" lon="8.1941380">
        <ele>663.2</ele>
        <time>2022-06-06T08:44:54Z</time>
      </trkpt>
      <trkpt lat="47.9815110" lon="8.1940580">
        <ele>664.2</ele>
        <time>2022-06-06T08:44:58Z</time>
      </trkpt>
      <trkpt lat="47.9814050" lon="8.1939610">
        <ele>664.8</ele>
        <time>2022-06-06T08:45:02Z</time>
      </trkpt>
      <trkpt lat="47.9813160" lon="8.1939130">
        <ele>666.2</ele>
        <time>2022-06-06T08:45:06Z</time>
      </trkpt>
      <trkpt lat="47.9812200" lon="8.1938800">
        <ele>667.2</ele>
        <time>2022-06-06T08:45:10Z</time>
      </trkpt>
      <trkpt lat="47.9811080" lon="8.1938630">
        <ele>668.0</ele>
        <time>2022-06-06T08:45:14Z</time>
      </trkpt>
      <trkpt lat="47.9809910" lon="8.1938410">
        <ele>669.0</ele>
        <time>2022-06-06T08:45:18Z</time>
      </trkpt>
      <trkpt lat="47.9808850" lon="8.1938560">
        <ele>669.6</ele>
        <time>2022-06-06T08:45:22Z</time>
      </trkpt>
      <trkpt lat="47.9807830" lon="8.1938800">
        <ele>671.2</ele>
        <time>2022-06-06T08:45:26Z</time>
      </trkpt>
      <trkpt lat="47.9806710" lon="8.1939280">
        <ele>671.8</ele>
        <time>2022-06-06T08:45:30Z</time>
      </trkpt>
      <trkpt lat="47.9805750" lon="8.1940100">
        <ele>673.0</ele>
        <time>2022-06-06T08:45:34Z</time>
      </trkpt>
      <trkpt lat="47.9804880" lon="8.1941010">
        <ele>674.0</ele>
        <time>2022-06-06T08:45:38Z</time>
      </trkpt>
      <trkpt lat="47.9803950" lon="8.1941780">
        <ele>674.4</ele>
        <time>2022-06-06T08:45:42Z</time>
      </trkpt>
      <trkpt lat="47.9802960" lon="8.1942460">
        <ele>675.0</ele>
        <time>2022-06-06T08:45:46Z</time>
      </trkpt>
      <trkpt lat="47.9802010" lon="8.1943030">
        <ele>675.8</ele>
        <time>2022-06-06T08:45:50Z</time>
      </trkpt>
      <trkpt lat="47.9801010" lon="8.1943460">
        <ele>676.2</ele>
        <time>2022-06-06T08:45:54Z</time>
      </trkpt>
      <trkpt lat="47.9800030" lon="8.1943700">
        <ele>677.0</ele>
        <time>2022-06-06T08:45:58Z</time>
      </trkpt>
      <trkpt lat="47.9799130" lon="8.1943780">
        <ele>678.0</ele>
        <time>2022-06-06T08:46:02Z</time>
      </trkpt>
      <trkpt lat="47.9798230" lon="8.1943730">
        <ele>678.4</ele>
        <time>2022-06-06T08:46:06Z</time>
      </trkpt>
      <trkpt lat="47.9797350" lon="8.1943610">
        <ele>678.4</ele>
        <time>2022-06-06T08:46:10Z</time>
      </trkpt>
      <trkpt lat="47.9796500" lon="8.1943500">
        <ele>678.4</ele>
        <time>2022-06-06T08:46:14Z</time>
      </trkpt>
      <trkpt lat="47.9795710" lon="8.1943380">
        <ele>678.4</ele>
        <time>2022-06-06T08:46:18Z</time>
      </trkpt>
      <trkpt lat="47.9794880" lon="8.1943110">
        <ele>678.8</ele>
        <time>2022-06-06T08:46:22Z</time>
      </trkpt>
      <trkpt lat="47.9793910" lon="8.1942880">
        <ele>678.0</ele>
        <time>2022-06-06T08:46:26Z</time>
      </trkpt>
      <trkpt lat="47.9792780" lon="8.1942530">
        <ele>677.8</ele>
        <time>2022-06-06T08:46:30Z</time>
      </trkpt>
      <trkpt lat="47.9791530" lon="8.1942230">
        <ele>677.6</ele>
        <time>2022-06-06T08:46:34Z</time>
      </trkpt>
      <trkpt lat="47.9790130" lon="8.1941760">
        <ele>677.4</ele>
        <time>2022-06-06T08:46:38Z</time>
      </trkpt>
      <trkpt lat="47.9788410" lon="8.1941300">
        <ele>675.6</ele>
        <time>2022-06-06T08:46:42Z</time>
      </trkpt>
      <trkpt lat="47.9786700" lon="8.1940830">
        <ele>675.2</ele>
        <time>2022-06-06T08:46:46Z</time>
      </trkpt>
      <trkpt lat="47.9785050" lon="8.1940460">
        <ele>673.8</ele>
        <time>2022-06-06T08:46:50Z</time>
      </trkpt>
      <trkpt lat="47.9783250" lon="8.1940000">
        <ele>672.6</ele>
        <time>2022-06-06T08:46:54Z</time>
      </trkpt>
      <trkpt lat="47.9781050" lon="8.1939430">
        <ele>672.0</ele>
        <time>2022-06-06T08:46:58Z</time>
      </trkpt>
      <trkpt lat="47.9778800" lon="8.1939700">
        <ele>670.2</ele>
        <time>2022-06-06T08:47:02Z</time>
      </trkpt>
      <trkpt lat="47.9776510" lon="8.1940650">
        <ele>669.0</ele>
        <time>2022-06-06T08:47:06Z</time>
      </trkpt>
      <trkpt lat="47.9774180" lon="8.1941660">
        <ele>666.4</ele>
        <time>2022-06-06T08:47:10Z</time>
      </trkpt>
      <trkpt lat="47.9771800" lon="8.1943350">
        <ele>663.8</ele>
        <time>2022-06-06T08:47:14Z</time>
      </trkpt>
      <trkpt lat="47.9769310" lon="8.1945110">
        <ele>662.4</ele>
        <time>2022-06-06T08:47:18Z</time>
      </trkpt>
      <trkpt lat="47.9766350" lon="8.1946900">
        <ele>660.2</ele>
        <time>2022-06-06T08:47:22Z</time>
      </trkpt>
      <trkpt lat="47.9763460" lon="8.1949850">
        <ele>656.0</ele>
        <time>2022-06-06T08:47:26Z</time>
      </trkpt>
      <trkpt lat="47.9761200" lon="8.1953860">
        <ele>656.2</ele>
        <time>2022-06-06T08:47:30Z</time>
      </trkpt>
      <trkpt lat="47.9759450" lon="8.1957730">
        <ele>656.6</ele>
        <time>2022-06-06T08:47:34Z</time>
      </trkpt>
      <trkpt lat="47.9758150" lon="8.1961400">
        <ele>656.6</ele>
        <time>2022-06-06T08:47:38Z</time>
      </trkpt>
      <trkpt lat="47.9757310" lon="8.1964850">
        <ele>656.4</ele>
        <time>2022-06-06T08:47:42Z</time>
      </trkpt>
      <trkpt lat="47.9756380" lon="8.1967710">
        <ele>656.6</ele>
        <time>2022-06-06T08:47:46Z</time>
      </trkpt>
      <trkpt lat="47.9755460" lon="8.1970160">
        <ele>656.6</ele>
        <time>2022-06-06T08:47:50Z</time>
      </trkpt>
      <trkpt lat="47.9754630" lon="8.1972100">
        <ele>656.6</ele>
        <time>2022-06-06T08:47:54Z</time>
      </trkpt>
      <trkpt lat="47.9754230" lon="8.1973330">
        <ele>656.8</ele>
        <time>2022-06-06T08:47:58Z</time>
      </trkpt>
      <trkpt lat="47.9754230" lon="8.1973330">
        <ele>656.8</ele>
        <time>2022-06-06T08:48:02Z</time>
      </trkpt>
      <trkpt lat="47.9754230" lon="8.1973330">
        <ele>656.8</ele>
        <time>2022-06-06T08:48:06Z</time>
      </trkpt>
      <trkpt lat="47.9754230" lon="8.1973330">
        <ele>656.8</ele>
        <time>2022-06-06T08:48:10Z</time>
      </trkpt>
      <trkpt lat="47.9754230" lon="8.1973330">
        <ele>656.8</ele>
        <time>2022-06-06T08:48:14Z</time>
      </trkpt>
      <trkpt lat="47.9754230" lon="8.1973330">
        <ele>656.8</ele>
        <time>2022-06-06T08:48:18Z</time>
      </trkpt>
      <trkpt lat="47.9754230" lon="8.1973330">
        <ele>656.8</ele>
        <time>2022-06-06T08:48:22Z</time>
      </trkpt>
      <trkpt lat="47.9754230" lon="8.1973330">
        <ele>656.6</ele>
        <time>2022-06-06T08:48:26Z</time>
      </trkpt>
      <trkpt lat="47.9754230" lon="8.1973330">
        <ele>656.4</ele>
        <time>2022-06-06T08:48:30Z</time>
      </trkpt>
      <trkpt lat="47.9754230" lon="8.1973330">
        <ele>656.4</ele>
        <time>2022-06-06T08:48:34Z</time>
      </trkpt>
      <trkpt lat="47.9754230" lon="8.1973330">
        <ele>656.6</ele>
        <time>2022-06-06T08:48:38Z</time>
      </trkpt>
      <trkpt lat="47.9754230" lon="8.1973330">
        <ele>656.4</ele>
        <time>2022-06-06T08:48:42Z</time>
      </trkpt>
      <trkpt lat="47.9754230" lon="8.1973330">
        <ele>656.8</ele>
        <time>2022-06-06T08:48:46Z</time>
      </trkpt>
      <trkpt lat="47.9754230" lon="8.1973330">
        <ele>656.8</ele>
        <time>2022-06-06T08:48:50Z</time>
      </trkpt>
      <trkpt lat="47.9754230" lon="8.1973330">
        <ele>656.6</ele>
        <time>2022-06-06T08:48:54Z</time>
      </trkpt>
      <trkpt lat="47.9754230" lon="8.1973330">
        <ele>656.6</ele>
        <time>2022-06-06T08:48:58Z</time>
      </trkpt>
      <trkpt lat="47.9753530" lon="8.1974350">
        <ele>656.6</ele>
        <time>2022-06-06T08:49:02Z</time>
      </trkpt>
      <trkpt lat="47.9753160" lon="8.1975210">
        <ele>657.0</ele>
        <time>2022-06-06T08:49:06Z</time>
      </trkpt>
      <trkpt lat="47.9752510" lon="8.1976600">
        <ele>656.8</ele>
        <time>2022-06-06T08:49:10Z</time>
      </trkpt>
      <trkpt lat="47.9751710" lon="8.1977450">
        <ele>657.4</ele>
        <time>2022-06-06T08:49:14Z</time>
      </trkpt>
      <trkpt lat="47.9751000" lon="8.1978860">
        <ele>658.2</ele>
        <time>2022-06-06T08:49:18Z</time>
      </trkpt>
      <trkpt lat="47.9750280" lon="8.1980800">
        <ele>658.0</ele>
        <time>2022-06-06T08:49:22Z</time>
      </trkpt>
      <trkpt lat="47.9749310" lon="8.1982600">
        <ele>658.2</ele>
        <time>2022-06-06T08:49:26Z</time>
      </trkpt>
      <trkpt lat="47.9748600" lon="8.1984460">
        <ele>658.2</ele>
        <time>2022-06-06T08:49:30Z</time>
      </trkpt>
      <trkpt lat="47.9747850" lon="8.1986210">
        <ele>657.4</ele>
        <time>2022-06-06T08:49:34Z</time>
      </trkpt>
      <trkpt lat="47.9747260" lon="8.1987700">
        <ele>657.2</ele>
        <time>2022-06-06T08:49:38Z</time>
      </trkpt>
      <trkpt lat="47.9746500" lon="8.1989030">
        <ele>655.8</ele>
        <time>2022-06-06T08:49:42Z</time>
      </trkpt>
      <trkpt lat="47.9745380" lon="8.1991030">
        <ele>654.4</ele>
        <time>2022-06-06T08:49:46Z</time>
      </trkpt>
      <trkpt lat="47.9744050" lon="8.1992930">
        <ele>652.4</ele>
        <time>2022-06-06T08:49:50Z</time>
      </trkpt>
      <trkpt lat="47.9742650" lon="8.1994530">
        <ele>650.8</ele>
        <time>2022-06-06T08:49:54Z</time>
      </trkpt>
      <trkpt lat="47.9741380" lon="8.1996300">
        <ele>650.6</ele>
        <time>2022-06-06T08:49:58Z</time>
      </trkpt>
      <trkpt lat="47.9739380" lon="8.1998860">
        <ele>649.8</ele>
        <time>2022-06-06T08:50:02Z</time>
      </trkpt>
      <trkpt lat="47.9737880" lon="8.2001080">
        <ele>649.6</ele>
        <time>2022-06-06T08:50:06Z</time>
      </trkpt>
      <trkpt lat="47.9736410" lon="8.2002910">
        <ele>649.8</ele>
        <time>2022-06-06T08:50:10Z</time>
      </trkpt>
      <trkpt lat="47.9734700" lon="8.2004830">
        <ele>650.2</ele>
        <time>2022-06-06T08:50:14Z</time>
      </trkpt>
      <trkpt lat="47.9733060" lon="8.2007880">
        <ele>650.8</ele>
        <time>2022-06-06T08:50:18Z</time>
      </trkpt>
      <trkpt lat="47.9732230" lon="8.2010030">
        <ele>652.0</ele>
        <time>2022-06-06T08:50:22Z</time>
      </trkpt>
      <trkpt lat="47.9731460" lon="8.2011910">
        <ele>652.4</ele>
        <time>2022-06-06T08:50:26Z</time>
      </trkpt>
      <trkpt lat="47.9730650" lon="8.2013760">
        <ele>653.4</ele>
        <time>2022-06-06T08:50:30Z</time>
      </trkpt>
      <trkpt lat="47.9730130" lon="8.2015610">
        <ele>653.8</ele>
        <time>2022-06-06T08:50:34Z</time>
      </trkpt>
      <trkpt lat="47.9729630" lon="8.2017280">
        <ele>654.4</ele>
        <time>2022-06-06T08:50:38Z</time>
      </trkpt>
      <trkpt lat="47.9728980" lon="8.2018650">
        <ele>654.4</ele>
        <time>2022-06-06T08:50:42Z</time>
      </trkpt>
      <trkpt lat="47.9728650" lon="8.2020160">
        <ele>655.0</ele>
        <time>2022-06-06T08:50:46Z</time>
      </trkpt>
      <trkpt lat="47.9728210" lon="8.2021750">
        <ele>655.6</ele>
        <time>2022-06-06T08:50:50Z</time>
      </trkpt>
      <trkpt lat="47.9727750" lon="8.2023460">
        <ele>655.2</ele>
        <time>2022-06-06T08:50:54Z</time>
      </trkpt>
      <trkpt lat="47.9727330" lon="8.2025330">
        <ele>656.2</ele>
        <time>2022-06-06T08:50:58Z</time>
      </trkpt>
      <trkpt lat="47.9726980" lon="8.2027150">
        <ele>656.4</ele>
        <time>2022-06-06T08:51:02Z</time>
      </trkpt>
      <trkpt lat="47.9726700" lon="8.2028980">
        <ele>656.6</ele>
        <time>2022-06-06T08:51:06Z</time>
      </trkpt>
      <trkpt lat="47.9726450" lon="8.2030850">
        <ele>656.4</ele>
        <time>2022-06-06T08:51:10Z</time>
      </trkpt>
      <trkpt lat="47.9726150" lon="8.2032780">
        <ele>656.6</ele>
        <time>2022-06-06T08:51:14Z</time>
      </trkpt>
      <trkpt lat="47.9725730" lon="8.2034600">
        <ele>656.8</ele>
        <time>2022-06-06T08:51:18Z</time>
      </trkpt>
      <trkpt lat="47.9725230" lon="8.2036560">
        <ele>656.8</ele>
        <time>2022-06-06T08:51:22Z</time>
      </trkpt>
      <trkpt lat="47.9724680" lon="8.2038610">
        <ele>656.0</ele>
        <time>2022-06-06T08:51:26Z</time>
      </trkpt>
      <trkpt lat="47.9724060" lon="8.2040860">
        <ele>656.4</ele>
        <time>2022-06-06T08:51:30Z</time>
      </trkpt>
      <trkpt lat="47.9723360" lon="8.2043330">
        <ele>655.8</ele>
        <time>2022-06-06T08:51:34Z</time>
      </trkpt>
      <trkpt lat="47.9722660" lon="8.2046230">
        <ele>654.8</ele>
        <time>2022-06-06T08:51:38Z</time>
      </trkpt>
      <trkpt lat="47.9721960" lon="8.2049210">
        <ele>654.2</ele>
        <time>2022-06-06T08:51:42Z</time>
      </trkpt>
      <trkpt lat="47.9721330" lon="8.2052030">
        <ele>653.8</ele>
        <time>2022-06-06T08:51:46Z</time>
      </trkpt>
      <trkpt lat="47.9720730" lon="8.2054700">
        <ele>653.8</ele>
        <time>2022-06-06T08:51:50Z</time>
      </trkpt>
      <trkpt lat="47.9720210" lon="8.2057260">
        <ele>654.4</ele>
        <time>2022-06-06T08:51:54Z</time>
      </trkpt>
      <trkpt lat="47.9719760" lon="8.2059730">
        <ele>654.0</ele>
        <time>2022-06-06T08:51:58Z</time>
      </trkpt>
      <trkpt lat="47.9719180" lon="8.2061930">
        <ele>655.0</ele>
        <time>2022-06-06T08:52:02Z</time>
      </trkpt>
      <trkpt lat="47.9718460" lon="8.2063900">
        <ele>655.6</ele>
        <time>2022-06-06T08:52:06Z</time>
      </trkpt>
      <trkpt lat="47.9717730" lon="8.2065780">
        <ele>655.4</ele>
        <time>2022-06-06T08:52:10Z</time>
      </trkpt>
      <trkpt lat="47.9716910" lon="8.2067610">
        <ele>655.2</ele>
        <time>2022-06-06T08:52:14Z</time>
      </trkpt>
      <trkpt lat="47.9716080" lon="8.2069650">
        <ele>655.0</ele>
        <time>2022-06-06T08:52:18Z</time>
      </trkpt>
      <trkpt lat="47.9715360" lon="8.2071950">
        <ele>654.4</ele>
        <time>2022-06-06T08:52:22Z</time>
      </trkpt>
      <trkpt lat="47.9714700" lon="8.2074310">
        <ele>653.4</ele>
        <time>2022-06-06T08:52:26Z</time>
      </trkpt>
      <trkpt lat="47.9714200" lon="8.2076680">
        <ele>653.2</ele>
        <time>2022-06-06T08:52:30Z</time>
      </trkpt>
      <trkpt lat="47.9713700" lon="8.2078930">
        <ele>652.6</ele>
        <time>2022-06-06T08:52:34Z</time>
      </trkpt>
      <trkpt lat="47.9713150" lon="8.2081480">
        <ele>651.8</ele>
        <time>2022-06-06T08:52:38Z</time>
      </trkpt>
      <trkpt lat="47.9712730" lon="8.2084180">
        <ele>650.2</ele>
        <time>2022-06-06T08:52:42Z</time>
      </trkpt>
      <trkpt lat="47.9712300" lon="8.2087010">
        <ele>648.2</ele>
        <time>2022-06-06T08:52:46Z</time>
      </trkpt>
      <trkpt lat="47.9711730" lon="8.2089900">
        <ele>646.4</ele>
        <time>2022-06-06T08:52:50Z</time>
      </trkpt>
      <trkpt lat="47.9711050" lon="8.2092680">
        <ele>645.2</ele>
        <time>2022-06-06T08:52:54Z</time>
      </trkpt>
      <trkpt lat="47.9710030" lon="8.2095750">
        <ele>642.4</ele>
        <time>2022-06-06T08:52:58Z</time>
      </trkpt>
      <trkpt lat="47.9708800" lon="8.2098780">
        <ele>640.8</ele>
        <time>2022-06-06T08:53:02Z</time>
      </trkpt>
      <trkpt lat="47.9707530" lon="8.2101960">
        <ele>639.4</ele>
        <time>2022-06-06T08:53:06Z</time>
      </trkpt>
      <trkpt lat="47.9706180" lon="8.2105560">
        <ele>636.8</ele>
        <time>2022-06-06T08:53:10Z</time>
      </trkpt>
      <trkpt lat="47.9704930" lon="8.2109880">
        <ele>633.6</ele>
        <time>2022-06-06T08:53:14Z</time>
      </trkpt>
      <trkpt lat="47.9703730" lon="8.2114360">
        <ele>629.8</ele>
        <time>2022-06-06T08:53:18Z</time>
      </trkpt>
      <trkpt lat="47.9702960" lon="8.2118850">
        <ele>627.8</ele>
        <time>2022-06-06T08:53:22Z</time>
      </trkpt>
      <trkpt lat="47.9702460" lon="8.2123030">
        <ele>625.0</ele>
        <time>2022-06-06T08:53:26Z</time>
      </trkpt>
      <trkpt lat="47.9701500" lon="8.2127200">
        <ele>622.6</ele>
        <time>2022-06-06T08:53:30Z</time>
      </trkpt>
      <trkpt lat="47.9701550" lon="8.2131810">
        <ele>618.8</ele>
        <time>2022-06-06T08:53:34Z</time>
      </trkpt>
      <trkpt lat="47.9702130" lon="8.2136730">
        <ele>614.8</ele>
        <time>2022-06-06T08:53:38Z</time>
      </trkpt>
      <trkpt lat="47.9702580" lon="8.2140910">
        <ele>613.6</ele>
        <time>2022-06-06T08:53:42Z</time>
      </trkpt>
      <trkpt lat="47.9703480" lon="8.2144000">
        <ele>611.6</ele>
        <time>2022-06-06T08:53:46Z</time>
      </trkpt>
      <trkpt lat="47.9704210" lon="8.2146850">
        <ele>611.0</ele>
        <time>2022-06-06T08:53:50Z</time>
      </trkpt>
      <trkpt lat="47.9704900" lon="8.2149010">
        <ele>609.0</ele>
        <time>2022-06-06T08:53:54Z</time>
      </trkpt>
      <trkpt lat="47.9705610" lon="8.2151750">
        <ele>607.4</ele>
        <time>2022-06-06T08:53:58Z</time>
      </trkpt>
      <trkpt lat="47.9705780" lon="8.2154360">
        <ele>606.4</ele>
        <time>2022-06-06T08:54:02Z</time>
      </trkpt>
      <trkpt lat="47.9706110" lon="8.2156730">
        <ele>604.6</ele>
        <time>2022-06-06T08:54:06Z</time>
      </trkpt>
      <trkpt lat="47.9706300" lon="8.2159550">
        <ele>603.4</ele>
        <time>2022-06-06T08:54:10Z</time>
      </trkpt>
      <trkpt lat="47.9705230" lon="8.2163760">
        <ele>602.4</ele>
        <time>2022-06-06T08:54:14Z</time>
      </trkpt>
      <trkpt lat="47.9703700" lon="8.2167260">
        <ele>600.8</ele>
        <time>2022-06-06T08:54:18Z</time>
      </trkpt>
      <trkpt lat="47.9701760" lon="8.2170160">
        <ele>599.0</ele>
        <time>2022-06-06T08:54:22Z</time>
      </trkpt>
      <trkpt lat="47.9699910" lon="8.2172680">
        <ele>599.4</ele>
        <time>2022-06-06T08:54:26Z</time>
      </trkpt>
      <trkpt lat="47.9698110" lon="8.2174600">
        <ele>599.4</ele>
        <time>2022-06-06T08:54:30Z</time>
      </trkpt>
      <trkpt lat="47.9696410" lon="8.2176030">
        <ele>599.2</ele>
        <time>2022-06-06T08:54:34Z</time>
      </trkpt>
      <trkpt lat="47.9694960" lon="8.2176980">
        <ele>599.6</ele>
        <time>2022-06-06T08:54:38Z</time>
      </trkpt>
      <trkpt lat="47.9693760" lon="8.2177750">
        <ele>600.8</ele>
        <time>2022-06-06T08:54:42Z</time>
      </trkpt>
      <trkpt lat="47.9692600" lon="8.2178180">
        <ele>601.4</ele>
        <time>2022-06-06T08:54:46Z</time>
      </trkpt>
      <trkpt lat="47.9691630" lon="8.2178500">
        <ele>602.8</ele>
        <time>2022-06-06T08:54:50Z</time>
      </trkpt>
      <trkpt lat="47.9690780" lon="8.2178430">
        <ele>603.2</ele>
        <time>2022-06-06T08:54:54Z</time>
      </trkpt>
      <trkpt lat="47.9689910" lon="8.2178160">
        <ele>604.0</ele>
        <time>2022-06-06T08:54:58Z</time>
      </trkpt>
      <trkpt lat="47.9688900" lon="8.2177800">
        <ele>603.8</ele>
        <time>2022-06-06T08:55:02Z</time>
      </trkpt>
      <trkpt lat="47.9687910" lon="8.2177310">
        <ele>604.0</ele>
        <time>2022-06-06T08:55:06Z</time>
      </trkpt>
      <trkpt lat="47.9687000" lon="8.2177000">
        <ele>605.0</ele>
        <time>2022-06-06T08:55:10Z</time>
      </trkpt>
      <trkpt lat="47.9686110" lon="8.2176710">
        <ele>605.4</ele>
        <time>2022-06-06T08:55:14Z</time>
      </trkpt>
      <trkpt lat="47.9685230" lon="8.2176560">
        <ele>605.8</ele>
        <time>2022-06-06T08:55:18Z</time>
      </trkpt>
      <trkpt lat="47.9684360" lon="8.2176550">
        <ele>606.2</ele>
        <time>2022-06-06T08:55:22Z</time>
      </trkpt>
      <trkpt lat="47.9683500" lon="8.2176500">
        <ele>606.6</ele>
        <time>2022-06-06T08:55:26Z</time>
      </trkpt>
      <trkpt lat="47.9682610" lon="8.2176430">
        <ele>607.6</ele>
        <time>2022-06-06T08:55:30Z</time>
      </trkpt>
      <trkpt lat="47.9681750" lon="8.2176300">
        <ele>607.8</ele>
        <time>2022-06-06T08:55:34Z</time>
      </trkpt>
      <trkpt lat="47.9680830" lon="8.2176210">
        <ele>608.6</ele>
        <time>2022-06-06T08:55:38Z</time>
      </trkpt>
      <trkpt lat="47.9679930" lon="8.2176360">
        <ele>608.8</ele>
        <time>2022-06-06T08:55:42Z</time>
      </trkpt>
      <trkpt lat="47.9679080" lon="8.2176380">
        <ele>609.2</ele>
        <time>2022-06-06T08:55:46Z</time>
      </trkpt>
      <trkpt lat="47.9678260" lon="8.2176550">
        <ele>609.6</ele>
        <time>2022-06-06T08:55:50Z</time>
      </trkpt>
      <trkpt lat="47.9677360" lon="8.2176650">
        <ele>610.0</ele>
        <time>2022-06-06T08:55:54Z</time>
      </trkpt>
      <trkpt lat="47.9676400" lon="8.2176860">
        <ele>610.4</ele>
        <time>2022-06-06T08:55:58Z</time>
      </trkpt>
      <trkpt lat="47.9675510" lon="8.2177010">
        <ele>610.6</ele>
        <time>2022-06-06T08:56:02Z</time>
      </trkpt>
      <trkpt lat="47.9674600" lon="8.2177060">
        <ele>611.8</ele>
        <time>2022-06-06T08:56:06Z</time>
      </trkpt>
      <trkpt lat="47.9673650" lon="8.2177250">
        <ele>611.8</ele>
        <time>2022-06-06T08:56:10Z</time>
      </trkpt>
      <trkpt lat="47.9672660" lon="8.2177300">
        <ele>612.4</ele>
        <time>2022-06-06T08:56:14Z</time>
      </trkpt>
      <trkpt lat="47.9671730" lon="8.2177450">
        <ele>613.0</ele>
        <time>2022-06-06T08:56:18Z</time>
      </trkpt>
      <trkpt lat="47.9670780" lon="8.2177510">
        <ele>613.4</ele>
        <time>2022-06-06T08:56:22Z</time>
      </trkpt>
      <trkpt lat="47.9669800" lon="8.2177730">
        <ele>614.6</ele>
        <time>2022-06-06T08:56:26Z</time>
      </trkpt>
      <trkpt lat="47.9669000" lon="8.2178150">
        <ele>615.2</ele>
        <time>2022-06-06T08:56:30Z</time>
      </trkpt>
      <trkpt lat="47.9668080" lon="8.2178210">
        <ele>616.0</ele>
        <time>2022-06-06T08:56:34Z</time>
      </trkpt>
      <trkpt lat="47.9667260" lon="8.2178180">
        <ele>616.2</ele>
        <time>2022-06-06T08:56:38Z</time>
      </trkpt>
      <trkpt lat="47.9666230" lon="8.2178180">
        <ele>616.6</ele>
        <time>2022-06-06T08:56:42Z</time>
      </trkpt>
      <trkpt lat="47.9665230" lon="8.2178060">
        <ele>618.2</ele>
        <time>2022-06-06T08:56:46Z</time>
      </trkpt>
      <trkpt lat="47.9664130" lon="8.2178130">
        <ele>619.2</ele>
        <time>2022-06-06T08:56:50Z</time>
      </trkpt>
      <trkpt lat="47.9663180" lon="8.2178110">
        <ele>619.0</ele>
        <time>2022-06-06T08:56:54Z</time>
      </trkpt>
      <trkpt lat="47.9662230" lon="8.2177900">
        <ele>619.8</ele>
        <time>2022-06-06T08:56:58Z</time>
      </trkpt>
      <trkpt lat="47.9661250" lon="8.2177880">
        <ele>620.0</ele>
        <time>2022-06-06T08:57:02Z</time>
      </trkpt>
      <trkpt lat="47.9660280" lon="8.2177750">
        <ele>620.2</ele>
        <time>2022-06-06T08:57:06Z</time>
      </trkpt>
      <trkpt lat="47.9659230" lon="8.2177460">
        <ele>620.4</ele>
        <time>2022-06-06T08:57:10Z</time>
      </trkpt>
      <trkpt lat="47.9658060" lon="8.2176950">
        <ele>620.6</ele>
        <time>2022-06-06T08:57:14Z</time>
      </trkpt>
      <trkpt lat="47.9656980" lon="8.2176460">
        <ele>620.6</ele>
        <time>2022-06-06T08:57:18Z</time>
      </trkpt>
      <trkpt lat="47.9655930" lon="8.2175750">
        <ele>620.8</ele>
        <time>2022-06-06T08:57:22Z</time>
      </trkpt>
      <trkpt lat="47.9654810" lon="8.2175080">
        <ele>620.4</ele>
        <time>2022-06-06T08:57:26Z</time>
      </trkpt>
      <trkpt lat="47.9653560" lon="8.2174460">
        <ele>620.8</ele>
        <time>2022-06-06T08:57:30Z</time>
      </trkpt>
      <trkpt lat="47.9652210" lon="8.2173660">
        <ele>620.8</ele>
        <time>2022-06-06T08:57:34Z</time>
      </trkpt>
      <trkpt lat="47.9651010" lon="8.2173030">
        <ele>621.2</ele>
        <time>2022-06-06T08:57:38Z</time>
      </trkpt>
      <trkpt lat="47.9649710" lon="8.2172280">
        <ele>621.4</ele>
        <time>2022-06-06T08:57:42Z</time>
      </trkpt>
      <trkpt lat="47.9648660" lon="8.2171310">
        <ele>622.2</ele>
        <time>2022-06-06T08:57:46Z</time>
      </trkpt>
      <trkpt lat="47.9647680" lon="8.2170330">
        <ele>622.2</ele>
        <time>2022-06-06T08:57:50Z</time>
      </trkpt>
      <trkpt lat="47.9646710" lon="8.2169760">
        <ele>623.4</ele>
        <time>2022-06-06T08:57:54Z</time>
      </trkpt>
      <trkpt lat="47.9645760" lon="8.2169050">
        <ele>624.2</ele>
        <time>2022-06-06T08:57:58Z</time>
      </trkpt>
      <trkpt lat="47.9644560" lon="8.2168580">
        <ele>624.6</ele>
        <time>2022-06-06T08:58:02Z</time>
      </trkpt>
      <trkpt lat="47.9643430" lon="8.2168280">
        <ele>624.6</ele>
        <time>2022-06-06T08:58:06Z</time>
      </trkpt>
      <trkpt lat="47.9642410" lon="8.2167860">
        <ele>625.0</ele>
        <time>2022-06-06T08:58:10Z</time>
      </trkpt>
      <trkpt lat="47.9641480" lon="8.2167780">
        <ele>625.0</ele>
        <time>2022-06-06T08:58:14Z</time>
      </trkpt>
      <trkpt lat="47.9640430" lon="8.2167650">
        <ele>623.6</ele>
        <time>2022-06-06T08:58:18Z</time>
      </trkpt>
      <trkpt lat="47.9639100" lon="8.2167750">
        <ele>623.6</ele>
        <time>2022-06-06T08:58:22Z</time>
      </trkpt>
      <trkpt lat="47.9637660" lon="8.2167930">
        <ele>622.0</ele>
        <time>2022-06-06T08:58:26Z</time>
      </trkpt>
      <trkpt lat="47.9636180" lon="8.2169410">
        <ele>620.4</ele>
        <time>2022-06-06T08:58:30Z</time>
      </trkpt>
      <trkpt lat="47.9634330" lon="8.2171910">
        <ele>618.8</ele>
        <time>2022-06-06T08:58:34Z</time>
      </trkpt>
      <trkpt lat="47.9632160" lon="8.2175480">
        <ele>614.6</ele>
        <time>2022-06-06T08:58:38Z</time>
      </trkpt>
      <trkpt lat="47.9630100" lon="8.2179550">
        <ele>611.4</ele>
        <time>2022-06-06T08:58:42Z</time>
      </trkpt>
      <trkpt lat="47.9627530" lon="8.2183430">
        <ele>607.2</ele>
        <time>2022-06-06T08:58:46Z</time>
      </trkpt>
      <trkpt lat="47.9624410" lon="8.2187630">
        <ele>603.2</ele>
        <time>2022-06-06T08:58:50Z</time>
      </trkpt>
      <trkpt lat="47.9620830" lon="8.2192660">
        <ele>597.2</ele>
        <time>2022-06-06T08:58:54Z</time>
      </trkpt>
      <trkpt lat="47.9617530" lon="8.2198430">
        <ele>593.2</ele>
        <time>2022-06-06T08:58:58Z</time>
      </trkpt>
      <trkpt lat="47.9614430" lon="8.2204430">
        <ele>590.0</ele>
        <time>2022-06-06T08:59:02Z</time>
      </trkpt>
      <trkpt lat="47.9611530" lon="8.2209700">
        <ele>588.0</ele>
        <time>2022-06-06T08:59:06Z</time>
      </trkpt>
      <trkpt lat="47.9609030" lon="8.2214130">
        <ele>585.0</ele>
        <time>2022-06-06T08:59:10Z</time>
      </trkpt>
      <trkpt lat="47.9607830" lon="8.2216300">
        <ele>582.4</ele>
        <time>2022-06-06T08:59:14Z</time>
      </trkpt>
      <trkpt lat="47.9607860" lon="8.2215400">
        <ele>582.0</ele>
        <time>2022-06-06T08:59:18Z</time>
      </trkpt>
      <trkpt lat="47.9608030" lon="8.2213330">
        <ele>580.2</ele>
        <time>2022-06-06T08:59:22Z</time>
      </trkpt>
      <trkpt lat="47.9608360" lon="8.2210250">
        <ele>579.6</ele>
        <time>2022-06-06T08:59:26Z</time>
      </trkpt>
      <trkpt lat="47.9608700" lon="8.2206630">
        <ele>577.2</ele>
        <time>2022-06-06T08:59:30Z</time>
      </trkpt>
      <trkpt lat="47.9608450" lon="8.2202880">
        <ele>575.4</ele>
        <time>2022-06-06T08:59:34Z</time>
      </trkpt>
      <trkpt lat="47.9607130" lon="8.2199400">
        <ele>574.0</ele>
        <time>2022-06-06T08:59:38Z</time>
      </trkpt>
      <trkpt lat="47.9605760" lon="8.2195150">
        <ele>568.4</ele>
        <time>2022-06-06T08:59:42Z</time>
      </trkpt>
      <trkpt lat="47.9604250" lon="8.2190210">
        <ele>565.2</ele>
        <time>2022-06-06T08:59:46Z</time>
      </trkpt>
      <trkpt lat="47.9602530" lon="8.2185860">
        <ele>563.2</ele>
        <time>2022-06-06T08:59:50Z</time>
      </trkpt>
      <trkpt lat="47.9600630" lon="8.2181960">
        <ele>560.6</ele>
        <time>2022-06-06T08:59:54Z</time>
      </trkpt>
      <trkpt lat="47.9599980" lon="8.2177510">
        <ele>557.8</ele>
        <time>2022-06-06T08:59:58Z</time>
      </trkpt>
      <trkpt lat="47.9600030" lon="8.2172530">
        <ele>553.0</ele>
        <time>2022-06-06T09:00:02Z</time>
      </trkpt>
      <trkpt lat="47.9600000" lon="8.2168430">
        <ele>550.4</ele>
        <time>2022-06-06T09:00:06Z</time>
      </trkpt>
      <trkpt lat="47.9598180" lon="8.2166010">
        <ele>546.4</ele>
        <time>2022-06-06T09:00:10Z</time>
      </trkpt>
      <trkpt lat="47.9594660" lon="8.2165960">
        <ele>539.6</ele>
        <time>2022-06-06T09:00:14Z</time>
      </trkpt>
      <trkpt lat="47.9591000" lon="8.2166310">
        <ele>536.2</ele>
        <time>2022-06-06T09:00:18Z</time>
      </trkpt>
      <trkpt lat="47.9588250" lon="8.2169250">
        <ele>535.6</ele>
        <time>2022-06-06T09:00:22Z</time>
      </trkpt>
      <trkpt lat="47.9587300" lon="8.2173700">
        <ele>532.2</ele>
        <time>2022-06-06T09:00:26Z</time>
      </trkpt>
      <trkpt lat="47.9587050" lon="8.2177930">
        <ele>531.6</ele>
        <time>2022-06-06T09:00:30Z</time>
      </trkpt>
      <trkpt lat="47.9586410" lon="8.2182700">
        <ele>528.4</ele>
        <time>2022-06-06T09:00:34Z</time>
      </trkpt>
      <trkpt lat="47.9584800" lon="8.2186510">
        <ele>528.4</ele>
        <time>2022-06-06T09:00:38Z</time>
      </trkpt>
      <trkpt lat="47.9582550" lon="8.2188430">
        <ele>526.8</ele>
        <time>2022-06-06T09:00:42Z</time>
      </trkpt>
      <trkpt lat="47.9580180" lon="8.2190450">
        <ele>523.8</ele>
        <time>2022-06-06T09:00:46Z</time>
      </trkpt>
      <trkpt lat="47.9576950" lon="8.2191410">
        <ele>517.4</ele>
        <time>2022-06-06T09:00:50Z</time>
      </trkpt>
      <trkpt lat="47.9573810" lon="8.2194030">
        <ele>513.8</ele>
        <time>2022-06-06T09:00:54Z</time>
      </trkpt>
      <trkpt lat="47.9570300" lon="8.2197580">
        <ele>508.0</ele>
        <time>2022-06-06T09:00:58Z</time>
      </trkpt>
      <trkpt lat="47.9566710" lon="8.2199980">
        <ele>506.2</ele>
        <time>2022-06-06T09:01:02Z</time>
      </trkpt>
      <trkpt lat="47.9563150" lon="8.2200110">
        <ele>504.8</ele>
        <time>2022-06-06T09:01:06Z</time>
      </trkpt>
      <trkpt lat="47.9559750" lon="8.2198360">
        <ele>504.0</ele>
        <time>2022-06-06T09:01:10Z</time>
      </trkpt>
      <trkpt lat="47.9556410" lon="8.2195710">
        <ele>498.4</ele>
        <time>2022-06-06T09:01:14Z</time>
      </trkpt>
      <trkpt lat="47.9553160" lon="8.2193130">
        <ele>495.0</ele>
        <time>2022-06-06T09:01:18Z</time>
      </trkpt>
      <trkpt lat="47.9549980" lon="8.2190580">
        <ele>490.8</ele>
        <time>2022-06-06T09:01:22Z</time>
      </trkpt>
      <trkpt lat="47.9546730" lon="8.2188050">
        <ele>487.6</ele>
        <time>2022-06-06T09:01:26Z</time>
      </trkpt>
      <trkpt lat="47.9542880" lon="8.2186500">
        <ele>483.6</ele>
        <time>2022-06-06T09:01:30Z</time>
      </trkpt>
      <trkpt lat="47.9538680" lon="8.2186180">
        <ele>479.4</ele>
        <time>2022-06-06T09:01:34Z</time>
      </trkpt>
      <trkpt lat="47.9534710" lon="8.2187250">
        <ele>476.0</ele>
        <time>2022-06-06T09:01:38Z</time>
      </trkpt>
      <trkpt lat="47.9531660" lon="8.2189250">
        <ele>475.6</ele>
        <time>2022-06-06T09:01:42Z</time>
      </trkpt>
      <trkpt lat="47.9529030" lon="8.2191980">
        <ele>475.8</ele>
        <time>2022-06-06T09:01:46Z</time>
      </trkpt>
      <trkpt lat="47.9526600" lon="8.2194860">
        <ele>474.4</ele>
        <time>2022-06-06T09:01:50Z</time>
      </trkpt>
      <trkpt lat="47.9524060" lon="8.2197580">
        <ele>473.6</ele>
        <time>2022-06-06T09:01:54Z</time>
      </trkpt>
      <trkpt lat="47.9521230" lon="8.2199610">
        <ele>472.4</ele>
        <time>2022-06-06T09:01:58Z</time>
      </trkpt>
      <trkpt lat="47.9518150" lon="8.2201560">
        <ele>468.2</ele>
        <time>2022-06-06T09:02:02Z</time>
      </trkpt>
      <trkpt lat="47.9514900" lon="8.2203810">
        <ele>468.8</ele>
        <time>2022-06-06T09:02:06Z</time>
      </trkpt>
      <trkpt lat="47.9512010" lon="8.2206780">
        <ele>464.4</ele>
        <time>2022-06-06T09:02:10Z</time>
      </trkpt>
      <trkpt lat="47.9509280" lon="8.2209250">
        <ele>460.4</ele>
        <time>2022-06-06T09:02:14Z</time>
      </trkpt>
      <trkpt lat="47.9506300" lon="8.2207710">
        <ele>457.4</ele>
        <time>2022-06-06T09:02:18Z</time>
      </trkpt>
      <trkpt lat="47.9504180" lon="8.2203380">
        <ele>450.4</ele>
        <time>2022-06-06T09:02:22Z</time>
      </trkpt>
      <trkpt lat="47.9501100" lon="8.2200480">
        <ele>452.4</ele>
        <time>2022-06-06T09:02:26Z</time>
      </trkpt>
      <trkpt lat="47.9498150" lon="8.2198010">
        <ele>450.8</ele>
        <time>2022-06-06T09:02:30Z</time>
      </trkpt>
      <trkpt lat="47.9495610" lon="8.2195860">
        <ele>450.4</ele>
        <time>2022-06-06T09:02:34Z</time>
      </trkpt>
      <trkpt lat="47.9493410" lon="8.2193980">
        <ele>451.2</ele>
        <time>2022-06-06T09:02:38Z</time>
      </trkpt>
      <trkpt lat="47.9491380" lon="8.2192200">
        <ele>451.0</ele>
        <time>2022-06-06T09:02:42Z</time>
      </trkpt>
      <trkpt lat="47.9489180" lon="8.2190760">
        <ele>450.4</ele>
        <time>2022-06-06T09:02:46Z</time>
      </trkpt>
      <trkpt lat="47.9486860" lon="8.2189500">
        <ele>448.8</ele>
        <time>2022-06-06T09:02:50Z</time>
      </trkpt>
      <trkpt lat="47.9484700" lon="8.2188060">
        <ele>448.8</ele>
        <time>2022-06-06T09:02:54Z</time>
      </trkpt>
      <trkpt lat="47.9482730" lon="8.2186150">
        <ele>447.2</ele>
        <time>2022-06-06T09:02:58Z</time>
      </trkpt>
      <trkpt lat="47.9480800" lon="8.2183610">
        <ele>446.2</ele>
        <time>2022-06-06T09:03:02Z</time>
      </trkpt>
      <trkpt lat="47.9478730" lon="8.2180610">
        <ele>444.4</ele>
        <time>2022-06-06T09:03:06Z</time>
      </trkpt>
      <trkpt lat="47.9476510" lon="8.2177410">
        <ele>444.6</ele>
        <time>2022-06-06T09:03:10Z</time>
      </trkpt>
      <trkpt lat="47.9474180" lon="8.2174180">
        <ele>441.6</ele>
        <time>2022-06-06T09:03:14Z</time>
      </trkpt>
      <trkpt lat="47.9471580" lon="8.2171530">
        <ele>441.8</ele>
        <time>2022-06-06T09:03:18Z</time>
      </trkpt>
      <trkpt lat="47.9469200" lon="8.2169150">
        <ele>440.4</ele>
        <time>2022-06-06T09:03:22Z</time>
      </trkpt>
      <trkpt lat="47.9467010" lon="8.2167200">
        <ele>441.4</ele>
        <time>2022-06-06T09:03:26Z</time>
      </trkpt>
      <trkpt lat="47.9464710" lon="8.2165800">
        <ele>439.2</ele>
        <time>2022-06-06T09:03:30Z</time>
      </trkpt>
      <trkpt lat="47.9462350" lon="8.2164450">
        <ele>439.2</ele>
        <time>2022-06-06T09:03:34Z</time>
      </trkpt>
      <trkpt lat="47.9460510" lon="8.2162630">
        <ele>439.4</ele>
        <time>2022-06-06T09:03:38Z</time>
      </trkpt>
      <trkpt lat="47.9459080" lon="8.2160560">
        <ele>440.4</ele>
        <time>2022-06-06T09:03:42Z</time>
      </trkpt>
      <trkpt lat="47.9458110" lon="8.2158580">
        <ele>441.2</ele>
        <time>2022-06-06T09:03:46Z</time>
      </trkpt>
      <trkpt lat="47.9457200" lon="8.2156550">
        <ele>440.4</ele>
        <time>2022-06-06T09:03:50Z</time>
      </trkpt>
      <trkpt lat="47.9456180" lon="8.2154660">
        <ele>442.0</ele>
        <time>2022-06-06T09:03:54Z</time>
      </trkpt>
      <trkpt lat="47.9455260" lon="8.2153130">
        <ele>442.2</ele>
        <time>2022-06-06T09:03:58Z</time>
      </trkpt>
      <trkpt lat="47.9454360" lon="8.2151710">
        <ele>443.0</ele>
        <time>2022-06-06T09:04:02Z</time>
      </trkpt>
      <trkpt lat="47.9453530" lon="8.2150460">
        <ele>443.8</ele>
        <time>2022-06-06T09:04:06Z</time>
      </trkpt>
      <trkpt lat="47.9452730" lon="8.2149200">
        <ele>444.4</ele>
        <time>2022-06-06T09:04:10Z</time>
      </trkpt>
      <trkpt lat="47.9451950" lon="8.2147830">
        <ele>444.8</ele>
        <time>2022-06-06T09:04:14Z</time>
      </trkpt>
      <trkpt lat="47.9451210" lon="8.2146430">
        <ele>445.8</ele>
        <time>2022-06-06T09:04:18Z</time>
      </trkpt>
      <trkpt lat="47.9450410" lon="8.2145030">
        <ele>446.6</ele>
        <time>2022-06-06T09:04:22Z</time>
      </trkpt>
      <trkpt lat="47.9449560" lon="8.2143710">
        <ele>446.8</ele>
        <time>2022-06-06T09:04:26Z</time>
      </trkpt>
      <trkpt lat="47.9448750" lon="8.2142360">
        <ele>447.6</ele>
        <time>2022-06-06T09:04:30Z</time>
      </trkpt>
      <trkpt lat="47.9447980" lon="8.2140960">
        <ele>448.0</ele>
        <time>2022-06-06T09:04:34Z</time>
      </trkpt>
      <trkpt lat="47.9447300" lon="8.2139500">
        <ele>447.8</ele>
        <time>2022-06-06T09:04:38Z</time>
      </trkpt>
      <trkpt lat="47.9446630" lon="8.2138030">
        <ele>448.6</ele>
        <time>2022-06-06T09:04:42Z</time>
      </trkpt>
      <trkpt lat="47.9445900" lon="8.2136560">
        <ele>449.4</ele>
        <time>2022-06-06T09:04:46Z</time>
      </trkpt>
      <trkpt lat="47.9444960" lon="8.2135300">
        <ele>449.4</ele>
        <time>2022-06-06T09:04:50Z</time>
      </trkpt>
      <trkpt lat="47.9444110" lon="8.2134030">
        <ele>449.8</ele>
        <time>2022-06-06T09:04:54Z</time>
      </trkpt>
      <trkpt lat="47.9443210" lon="8.2132860">
        <ele>450.4</ele>
        <time>2022-06-06T09:04:58Z</time>
      </trkpt>
      <trkpt lat="47.9442360" lon="8.2131660">
        <ele>451.0</ele>
        <time>2022-06-06T09:05:02Z</time>
      </trkpt>
      <trkpt lat="47.9441460" lon="8.2130500">
        <ele>452.0</ele>
        <time>2022-06-06T09:05:06Z</time>
      </trkpt>
      <trkpt lat="47.9440510" lon="8.2129310">
        <ele>452.4</ele>
        <time>2022-06-06T09:05:10Z</time>
      </trkpt>
      <trkpt lat="47.9439530" lon="8.2128180">
        <ele>453.2</ele>
        <time>2022-06-06T09:05:14Z</time>
      </trkpt>
      <trkpt lat="47.9438650" lon="8.2127000">
        <ele>453.2</ele>
        <time>2022-06-06T09:05:18Z</time>
      </trkpt>
      <trkpt lat="47.9437630" lon="8.2125980">
        <ele>453.2</ele>
        <time>2022-06-06T09:05:22Z</time>
      </trkpt>
      <trkpt lat="47.9436610" lon="8.2124910">
        <ele>454.0</ele>
        <time>2022-06-06T09:05:26Z</time>
      </trkpt>
      <trkpt lat="47.9435630" lon="8.2123750">
        <ele>453.6</ele>
        <time>2022-06-06T09:05:30Z</time>
      </trkpt>
      <trkpt lat="47.9434660" lon="8.2122550">
        <ele>453.4</ele>
        <time>2022-06-06T09:05:34Z</time>
      </trkpt>
      <trkpt lat="47.9433710" lon="8.2121300">
        <ele>453.4</ele>
        <time>2022-06-06T09:05:38Z</time>
      </trkpt>
      <trkpt lat="47.9432800" lon="8.2120060">
        <ele>453.2</ele>
        <time>2022-06-06T09:05:42Z</time>
      </trkpt>
      <trkpt lat="47.9432010" lon="8.2118880">
        <ele>453.0</ele>
        <time>2022-06-06T09:05:46Z</time>
      </trkpt>
      <trkpt lat="47.9431080" lon="8.2117330">
        <ele>452.8</ele>
        <time>2022-06-06T09:05:50Z</time>
      </trkpt>
      <trkpt lat="47.9429980" lon="8.2115330">
        <ele>451.0</ele>
        <time>2022-06-06T09:05:54Z</time>
      </trkpt>
      <trkpt lat="47.9428710" lon="8.2112980">
        <ele>449.2</ele>
        <time>2022-06-06T09:05:58Z</time>
      </trkpt>
      <trkpt lat="47.9427210" lon="8.2110310">
        <ele>448.4</ele>
        <time>2022-06-06T09:06:02Z</time>
      </trkpt>
      <trkpt lat="47.9425600" lon="8.2107080">
        <ele>447.0</ele>
        <time>2022-06-06T09:06:06Z</time>
      </trkpt>
      <trkpt lat="47.9423950" lon="8.2103680">
        <ele>445.0</ele>
        <time>2022-06-06T09:06:10Z</time>
      </trkpt>
      <trkpt lat="47.9422330" lon="8.2100430">
        <ele>442.6</ele>
        <time>2022-06-06T09:06:14Z</time>
      </trkpt>
      <trkpt lat="47.9420800" lon="8.2097630">
        <ele>443.4</ele>
        <time>2022-06-06T09:06:18Z</time>
      </trkpt>
      <trkpt lat="47.9419360" lon="8.2095610">
        <ele>442.4</ele>
        <time>2022-06-06T09:06:22Z</time>
      </trkpt>
      <trkpt lat="47.9417980" lon="8.2094950">
        <ele>443.4</ele>
        <time>2022-06-06T09:06:26Z</time>
      </trkpt>
      <trkpt lat="47.9417980" lon="8.2094950">
        <ele>444.2</ele>
        <time>2022-06-06T09:06:30Z</time>
      </trkpt>
      <trkpt lat="47.9417980" lon="8.2094950">
        <ele>444.0</ele>
        <time>2022-06-06T09:06:34Z</time>
      </trkpt>
      <trkpt lat="47.9417980" lon="8.2094950">
        <ele>443.8</ele>
        <time>2022-06-06T09:06:38Z</time>
      </trkpt>
      <trkpt lat="47.9417980" lon="8.2094950">
        <ele>444.2</ele>
        <time>2022-06-06T09:06:42Z</time>
      </trkpt>
      <trkpt lat="47.9417980" lon="8.2094950">
        <ele>444.0</ele>
        <time>2022-06-06T09:06:46Z</time>
      </trkpt>
      <trkpt lat="47.9417980" lon="8.2094950">
        <ele>443.8</ele>
        <time>2022-06-06T09:06:50Z</time>
      </trkpt>
      <trkpt lat="47.9417980" lon="8.2094950">
        <ele>443.8</ele>
        <time>2022-06-06T09:06:54Z</time>
      </trkpt>
      <trkpt lat="47.9417980" lon="8.2094950">
        <ele>444.2</ele>
        <time>2022-06-06T09:06:58Z</time>
      </trkpt>
      <trkpt lat="47.9417980" lon="8.2094950">
        <ele>444.0</ele>
        <time>2022-06-06T09:07:02Z</time>
      </trkpt>
      <trkpt lat="47.9417550" lon="8.2095310">
        <ele>444.2</ele>
        <time>2022-06-06T09:07:06Z</time>
      </trkpt>
      <trkpt lat="47.9417550" lon="8.2095310">
        <ele>443.8</ele>
        <time>2022-06-06T09:07:10Z</time>
      </trkpt>
      <trkpt lat="47.9417400" lon="8.2094910">
        <ele>443.8</ele>
        <time>2022-06-06T09:07:14Z</time>
      </trkpt>
      <trkpt lat="47.9417560" lon="8.2093800">
        <ele>443.2</ele>
        <time>2022-06-06T09:07:18Z</time>
      </trkpt>
      <trkpt lat="47.9416810" lon="8.2092260">
        <ele>442.8</ele>
        <time>2022-06-06T09:07:22Z</time>
      </trkpt>
      <trkpt lat="47.9416030" lon="8.2090580">
        <ele>442.2</ele>
        <time>2022-06-06T09:07:26Z</time>
      </trkpt>
      <trkpt lat="47.9415080" lon="8.2088380">
        <ele>440.0</ele>
        <time>2022-06-06T09:07:30Z</time>
      </trkpt>
      <trkpt lat="47.9413900" lon="8.2085930">
        <ele>437.8</ele>
        <time>2022-06-06T09:07:34Z</time>
      </trkpt>
      <trkpt lat="47.9412850" lon="8.2083760">
        <ele>438.4</ele>
        <time>2022-06-06T09:07:38Z</time>
      </trkpt>
      <trkpt lat="47.9412200" lon="8.2082430">
        <ele>436.4</ele>
        <time>2022-06-06T09:07:42Z</time>
      </trkpt>
      <trkpt lat="47.9412200" lon="8.2082430">
        <ele>436.6</ele>
        <time>2022-06-06T09:07:46Z</time>
      </trkpt>
      <trkpt lat="47.9412200" lon="8.2082430">
        <ele>436.8</ele>
        <time>2022-06-06T09:07:50Z</time>
      </trkpt>
      <trkpt lat="47.9412200" lon="8.2082430">
        <ele>437.0</ele>
        <time>2022-06-06T09:07:54Z</time>
      </trkpt>
      <trkpt lat="47.9412200" lon="8.2082430">
        <ele>436.6</ele>
        <time>2022-06-06T09:07:58Z</time>
      </trkpt>
      <trkpt lat="47.9412200" lon="8.2082430">
        <ele>436.8</ele>
        <time>2022-06-06T09:08:02Z</time>
      </trkpt>
      <trkpt lat="47.9412200" lon="8.2082430">
        <ele>437.6</ele>
        <time>2022-06-06T09:08:06Z</time>
      </trkpt>
      <trkpt lat="47.9412200" lon="8.2082430">
        <ele>437.0</ele>
        <time>2022-06-06T09:08:10Z</time>
      </trkpt>
      <trkpt lat="47.9412200" lon="8.2082430">
        <ele>437.2</ele>
        <time>2022-06-06T09:08:14Z</time>
      </trkpt>
      <trkpt lat="47.9412200" lon="8.2082430">
        <ele>437.8</ele>
        <time>2022-06-06T09:08:18Z</time>
      </trkpt>
      <trkpt lat="47.9412200" lon="8.2082430">
        <ele>437.2</ele>
        <time>2022-06-06T09:08:22Z</time>
      </trkpt>
      <trkpt lat="47.9411780" lon="8.2081980">
        <ele>436.8</ele>
        <time>2022-06-06T09:08:26Z</time>
      </trkpt>
      <trkpt lat="47.9411800" lon="8.2080610">
        <ele>436.4</ele>
        <time>2022-06-06T09:08:30Z</time>
      </trkpt>
      <trkpt lat="47.9411000" lon="8.2078130">
        <ele>435.8</ele>
        <time>2022-06-06T09:08:34Z</time>
      </trkpt>
      <trkpt lat="47.9409310" lon="8.2075000">
        <ele>433.6</ele>
        <time>2022-06-06T09:08:38Z</time>
      </trkpt>
      <trkpt lat="47.9407030" lon="8.2071260">
        <ele>430.6</ele>
        <time>2022-06-06T09:08:42Z</time>
      </trkpt>
      <trkpt lat="47.9404350" lon="8.2067860">
        <ele>427.8</ele>
        <time>2022-06-06T09:08:46Z</time>
      </trkpt>
      <trkpt lat="47.9401710" lon="8.2064730">
        <ele>426.2</ele>
        <time>2022-06-06T09:08:50Z</time>
      </trkpt>
      <trkpt lat="47.9399800" lon="8.2061280">
        <ele>425.2</ele>
        <time>2022-06-06T09:08:54Z</time>
      </trkpt>
      <trkpt lat="47.9400030" lon="8.2056500">
        <ele>424.0</ele>
        <time>2022-06-06T09:08:58Z</time>
      </trkpt>
      <trkpt lat="47.9401750" lon="8.2051750">
        <ele>419.2</ele>
        <time>2022-06-06T09:09:02Z</time>
      </trkpt>
      <trkpt lat="47.9403800" lon="8.2047330">
        <ele>417.2</ele>
        <time>2022-06-06T09:09:06Z</time>
      </trkpt>
      <trkpt lat="47.9406610" lon="8.2043330">
        <ele>413.4</ele>
        <time>2022-06-06T09:09:10Z</time>
      </trkpt>
      <trkpt lat="47.9409600" lon="8.2038660">
        <ele>409.0</ele>
        <time>2022-06-06T09:09:14Z</time>
      </trkpt>
      <trkpt lat="47.9411110" lon="8.2032730">
        <ele>404.8</ele>
        <time>2022-06-06T09:09:18Z</time>
      </trkpt>
      <trkpt lat="47.9411330" lon="8.2027400">
        <ele>405.2</ele>
        <time>2022-06-06T09:09:22Z</time>
      </trkpt>
      <trkpt lat="47.9410760" lon="8.2023880">
        <ele>406.4</ele>
        <time>2022-06-06T09:09:26Z</time>
      </trkpt>
      <trkpt lat="47.9408780" lon="8.2022360">
        <ele>405.4</ele>
        <time>2022-06-06T09:09:30Z</time>
      </trkpt>
      <trkpt lat="47.9406800" lon="8.2020510">
        <ele>404.6</ele>
        <time>2022-06-06T09:09:34Z</time>
      </trkpt>
      <trkpt lat="47.9405430" lon="8.2018660">
        <ele>404.2</ele>
        <time>2022-06-06T09:09:38Z</time>
      </trkpt>
      <trkpt lat="47.9405060" lon="8.2018630">
        <ele>404.2</ele>
        <time>2022-06-06T09:09:42Z</time>
      </trkpt>
      <trkpt lat="47.9405060" lon="8.2018630">
        <ele>404.4</ele>
        <time>2022-06-06T09:09:46Z</time>
      </trkpt>
      <trkpt lat="47.9405060" lon="8.2018630">
        <ele>404.2</ele>
        <time>2022-06-06T09:09:50Z</time>
      </trkpt>
      <trkpt lat="47.9405060" lon="8.2018630">
        <ele>404.2</ele>
        <time>2022-06-06T09:09:54Z</time>
      </trkpt>
      <trkpt lat="47.9405060" lon="8.2018630">
        <ele>404.2</ele>
        <time>2022-06-06T09:09:58Z</time>
      </trkpt>
      <trkpt lat="47.9405310" lon="8.2018610">
        <ele>404.4</ele>
        <time>2022-06-06T09:10:02Z</time>
      </trkpt>
      <trkpt lat="47.9405330" lon="8.2018830">
        <ele>404.4</ele>
        <time>2022-06-06T09:10:06Z</time>
      </trkpt>
      <trkpt lat="47.9404750" lon="8.2018180">
        <ele>403.8</ele>
        <time>2022-06-06T09:10:10Z</time>
      </trkpt>
      <trkpt lat="47.9403550" lon="8.2017680">
        <ele>404.4</ele>
        <time>2022-06-06T09:10:14Z</time>
      </trkpt>
      <trkpt lat="47.9401760" lon="8.2017050">
        <ele>403.8</ele>
        <time>2022-06-06T09:10:18Z</time>
      </trkpt>
      <trkpt lat="47.9400030" lon="8.2017660">
        <ele>404.4</ele>
        <time>2022-06-06T09:10:22Z</time>
      </trkpt>
      <trkpt lat="47.9398650" lon="8.2019110">
        <ele>404.4</ele>
        <time>2022-06-06T09:10:26Z</time>
      </trkpt>
      <trkpt lat="47.9397550" lon="8.2020860">
        <ele>405.4</ele>
        <time>2022-06-06T09:10:30Z</time>
      </trkpt>
      <trkpt lat="47.9396780" lon="8.2022710">
        <ele>405.6</ele>
        <time>2022-06-06T09:10:34Z</time>
      </trkpt>
      <trkpt lat="47.9395800" lon="8.2024100">
        <ele>405.8</ele>
        <time>2022-06-06T09:10:38Z</time>
      </trkpt>
      <trkpt lat="47.9394580" lon="8.2024580">
        <ele>406.4</ele>
        <time>2022-06-06T09:10:42Z</time>
      </trkpt>
      <trkpt lat="47.9393350" lon="8.2024200">
        <ele>407.4</ele>
        <time>2022-06-06T09:10:46Z</time>
      </trkpt>
      <trkpt lat="47.9392260" lon="8.2023160">
        <ele>407.0</ele>
        <time>2022-06-06T09:10:50Z</time>
      </trkpt>
      <trkpt lat="47.9391350" lon="8.2022030">
        <ele>407.6</ele>
        <time>2022-06-06T09:10:54Z</time>
      </trkpt>
      <trkpt lat="47.9390430" lon="8.2020900">
        <ele>407.6</ele>
        <time>2022-06-06T09:10:58Z</time>
      </trkpt>
      <trkpt lat="47.9389310" lon="8.2020030">
        <ele>407.4</ele>
        <time>2022-06-06T09:11:02Z</time>
      </trkpt>
      <trkpt lat="47.9388130" lon="8.2018900">
        <ele>407.2</ele>
        <time>2022-06-06T09:11:06Z</time>
      </trkpt>
      <trkpt lat="47.9386880" lon="8.2017910">
        <ele>406.6</ele>
        <time>2022-06-06T09:11:10Z</time>
      </trkpt>
      <trkpt lat="47.9385630" lon="8.2016850">
        <ele>407.2</ele>
        <time>2022-06-06T09:11:14Z</time>
      </trkpt>
      <trkpt lat="47.9384400" lon="8.2015780">
        <ele>407.6</ele>
        <time>2022-06-06T09:11:18Z</time>
      </trkpt>
      <trkpt lat="47.9383200" lon="8.2014450">
        <ele>406.8</ele>
        <time>2022-06-06T09:11:22Z</time>
      </trkpt>
      <trkpt lat="47.9381850" lon="8.2012660">
        <ele>406.2</ele>
        <time>2022-06-06T09:11:26Z</time>
      </trkpt>
      <trkpt lat="47.9380300" lon="8.2010360">
        <ele>404.4</ele>
        <time>2022-06-06T09:11:30Z</time>
      </trkpt>
      <trkpt lat="47.9379000" lon="8.2007530">
        <ele>404.2</ele>
        <time>2022-06-06T09:11:34Z</time>
      </trkpt>
      <trkpt lat="47.9377830" lon="8.2004900">
        <ele>403.6</ele>
        <time>2022-06-06T09:11:38Z</time>
      </trkpt>
      <trkpt lat="47.9376700" lon="8.2003060">
        <ele>403.2</ele>
        <time>2022-06-06T09:11:42Z</time>
      </trkpt>
      <trkpt lat="47.9375510" lon="8.2001460">
        <ele>404.6</ele>
        <time>2022-06-06T09:11:46Z</time>
      </trkpt>
      <trkpt lat="47.9374200" lon="8.2000110">
        <ele>404.0</ele>
        <time>2022-06-06T09:11:50Z</time>
      </trkpt>
      <trkpt lat="47.9372730" lon="8.1998880">
        <ele>403.6</ele>
        <time>2022-06-06T09:11:54Z</time>
      </trkpt>
      <trkpt lat="47.9371130" lon="8.1998150">
        <ele>403.2</ele>
        <time>2022-06-06T09:11:58Z</time>
      </trkpt>
      <trkpt lat="47.9369800" lon="8.1997700">
        <ele>403.8</ele>
        <time>2022-06-06T09:12:02Z</time>
      </trkpt>
      <trkpt lat="47.9368800" lon="8.1997360">
        <ele>404.8</ele>
        <time>2022-06-06T09:12:06Z</time>
      </trkpt>
      <trkpt lat="47.9367980" lon="8.1997060">
        <ele>404.4</ele>
        <time>2022-06-06T09:12:10Z</time>
      </trkpt>
      <trkpt lat="47.9366880" lon="8.1996750">
        <ele>404.2</ele>
        <time>2022-06-06T09:12:14Z</time>
      </trkpt>
      <trkpt lat="47.9365830" lon="8.1996550">
        <ele>405.2</ele>
        <time>2022-06-06T09:12:18Z</time>
      </trkpt>
      <trkpt lat="47.9364900" lon="8.1996250">
        <ele>406.4</ele>
        <time>2022-06-06T09:12:22Z</time>
      </trkpt>
      <trkpt lat="47.9363950" lon="8.1995860">
        <ele>407.6</ele>
        <time>2022-06-06T09:12:26Z</time>
      </trkpt>
      <trkpt lat="47.9362930" lon="8.1995400">
        <ele>408.4</ele>
        <time>2022-06-06T09:12:30Z</time>
      </trkpt>
      <trkpt lat="47.9361910" lon="8.1994860">
        <ele>409.2</ele>
        <time>2022-06-06T09:12:34Z</time>
      </trkpt>
      <trkpt lat="47.9360980" lon="8.1994250">
        <ele>409.0</ele>
        <time>2022-06-06T09:12:38Z</time>
      </trkpt>
      <trkpt lat="47.9360050" lon="8.1993530">
        <ele>410.0</ele>
        <time>2022-06-06T09:12:42Z</time>
      </trkpt>
      <trkpt lat="47.9359110" lon="8.1992810">
        <ele>410.0</ele>
        <time>2022-06-06T09:12:46Z</time>
      </trkpt>
      <trkpt lat="47.9358210" lon="8.1991930">
        <ele>411.0</ele>
        <time>2022-06-06T09:12:50Z</time>
      </trkpt>
      <trkpt lat="47.9357400" lon="8.1990960">
        <ele>410.8</ele>
        <time>2022-06-06T09:12:54Z</time>
      </trkpt>
      <trkpt lat="47.9356560" lon="8.1989900">
        <ele>410.8</ele>
        <time>2022-06-06T09:12:58Z</time>
      </trkpt>
      <trkpt lat="47.9355780" lon="8.1988800">
        <ele>412.4</ele>
        <time>2022-06-06T09:13:02Z</time>
      </trkpt>
      <trkpt lat="47.9355000" lon="8.1987880">
        <ele>412.8</ele>
        <time>2022-06-06T09:13:06Z</time>
      </trkpt>
      <trkpt lat="47.9354200" lon="8.1986930">
        <ele>412.6</ele>
        <time>2022-06-06T09:13:10Z</time>
      </trkpt>
      <trkpt lat="47.9353400" lon="8.1986160">
        <ele>414.2</ele>
        <time>2022-06-06T09:13:14Z</time>
      </trkpt>
      <trkpt lat="47.9352600" lon="8.1985550">
        <ele>415.0</ele>
        <time>2022-06-06T09:13:18Z</time>
      </trkpt>
      <trkpt lat="47.9351750" lon="8.1985010">
        <ele>415.0</ele>
        <time>2022-06-06T09:13:22Z</time>
      </trkpt>
      <trkpt lat="47.9350810" lon="8.1984550">
        <ele>416.0</ele>
        <time>2022-06-06T09:13:26Z</time>
      </trkpt>
      <trkpt lat="47.9349780" lon="8.1984160">
        <ele>417.2</ele>
        <time>2022-06-06T09:13:30Z</time>
      </trkpt>
      <trkpt lat="47.9348730" lon="8.1983860">
        <ele>418.2</ele>
        <time>2022-06-06T09:13:34Z</time>
      </trkpt>
      <trkpt lat="47.9347560" lon="8.1983630">
        <ele>417.4</ele>
        <time>2022-06-06T09:13:38Z</time>
      </trkpt>
      <trkpt lat="47.9346310" lon="8.1983500">
        <ele>417.4</ele>
        <time>2022-06-06T09:13:42Z</time>
      </trkpt>
      <trkpt lat="47.9345010" lon="8.1983330">
        <ele>417.8</ele>
        <time>2022-06-06T09:13:46Z</time>
      </trkpt>
      <trkpt lat="47.9343710" lon="8.1983200">
        <ele>417.4</ele>
        <time>2022-06-06T09:13:50Z</time>
      </trkpt>
      <trkpt lat="47.9342430" lon="8.1983060">
        <ele>417.2</ele>
        <time>2022-06-06T09:13:54Z</time>
      </trkpt>
      <trkpt lat="47.9341230" lon="8.1983000">
        <ele>418.4</ele>
        <time>2022-06-06T09:13:58Z</time>
      </trkpt>
      <trkpt lat="47.9340160" lon="8.1982780">
        <ele>418.6</ele>
        <time>2022-06-06T09:14:02Z</time>
      </trkpt>
      <trkpt lat="47.9339600" lon="8.1982350">
        <ele>419.0</ele>
        <time>2022-06-06T09:14:06Z</time>
      </trkpt>
      <trkpt lat="47.9338630" lon="8.1981880">
        <ele>418.8</ele>
        <time>2022-06-06T09:14:10Z</time>
      </trkpt>
      <trkpt lat="47.9337630" lon="8.1981510">
        <ele>418.4</ele>
        <time>2022-06-06T09:14:14Z</time>
      </trkpt>
      <trkpt lat="47.9336350" lon="8.1981230">
        <ele>418.0</ele>
        <time>2022-06-06T09:14:18Z</time>
      </trkpt>
      <trkpt lat="47.9334780" lon="8.1980860">
        <ele>417.4</ele>
        <time>2022-06-06T09:14:22Z</time>
      </trkpt>
      <trkpt lat="47.9333180" lon="8.1980160">
        <ele>417.4</ele>
        <time>2022-06-06T09:14:26Z</time>
      </trkpt>
      <trkpt lat="47.9331680" lon="8.1979250">
        <ele>417.2</ele>
        <time>2022-06-06T09:14:30Z</time>
      </trkpt>
      <trkpt lat="47.9330180" lon="8.1978210">
        <ele>416.6</ele>
        <time>2022-06-06T09:14:34Z</time>
      </trkpt>
      <trkpt lat="47.9328500" lon="8.1977310">
        <ele>415.8</ele>
        <time>2022-06-06T09:14:38Z</time>
      </trkpt>
      <trkpt lat="47.9326930" lon="8.1976110">
        <ele>414.6</ele>
        <time>2022-06-06T09:14:42Z</time>
      </trkpt>
      <trkpt lat="47.9325350" lon="8.1974080">
        <ele>414.2</ele>
        <time>2022-06-06T09:14:46Z</time>
      </trkpt>
      <trkpt lat="47.9323650" lon="8.1972330">
        <ele>414.0</ele>
        <time>2022-06-06T09:14:50Z</time>
      </trkpt>
      <trkpt lat="47.9322160" lon="8.1969330">
        <ele>412.4</ele>
        <time>2022-06-06T09:14:54Z</time>
      </trkpt>
      <trkpt lat="47.9320530" lon="8.1965610">
        <ele>412.8</ele>
        <time>2022-06-06T09:14:58Z</time>
      </trkpt>
      <trkpt lat="47.9320250" lon="8.1961580">
        <ele>411.8</ele>
        <time>2022-06-06T09:15:02Z</time>
      </trkpt>
      <trkpt lat="47.9320980" lon="8.1958230">
        <ele>411.4</ele>
        <time>2022-06-06T09:15:06Z</time>
      </trkpt>
      <trkpt lat="47.9321750" lon="8.1955280">
        <ele>410.8</ele>
        <time>2022-06-06T09:15:10Z</time>
      </trkpt>
      <trkpt lat="47.9321550" lon="8.1952800">
        <ele>410.8</ele>
        <time>2022-06-06T09:15:14Z</time>
      </trkpt>
      <trkpt lat="47.9321050" lon="8.1950430">
        <ele>410.2</ele>
        <time>2022-06-06T09:15:18Z</time>
      </trkpt>
      <trkpt lat="47.9320430" lon="8.1948250">
        <ele>410.8</ele>
        <time>2022-06-06T09:15:22Z</time>
      </trkpt>
      <trkpt lat="47.9319430" lon="8.1946080">
        <ele>410.6</ele>
        <time>2022-06-06T09:15:26Z</time>
      </trkpt>
      <trkpt lat="47.9318330" lon="8.1944180">
        <ele>409.6</ele>
        <time>2022-06-06T09:15:30Z</time>
      </trkpt>
      <trkpt lat="47.9316980" lon="8.1941930">
        <ele>410.0</ele>
        <time>2022-06-06T09:15:34Z</time>
      </trkpt>
      <trkpt lat="47.9315560" lon="8.1939180">
        <ele>408.0</ele>
        <time>2022-06-06T09:15:38Z</time>
      </trkpt>
      <trkpt lat="47.9314030" lon="8.1936210">
        <ele>406.8</ele>
        <time>2022-06-06T09:15:42Z</time>
      </trkpt>
      <trkpt lat="47.9312460" lon="8.1933380">
        <ele>403.4</ele>
        <time>2022-06-06T09:15:46Z</time>
      </trkpt>
      <trkpt lat="47.9310250" lon="8.1930680">
        <ele>402.6</ele>
        <time>2022-06-06T09:15:50Z</time>
      </trkpt>
      <trkpt lat="47.9307450" lon="8.1929430">
        <ele>399.6</ele>
        <time>2022-06-06T09:15:54Z</time>
      </trkpt>
      <trkpt lat="47.9304650" lon="8.1928230">
        <ele>397.6</ele>
        <time>2022-06-06T09:15:58Z</time>
      </trkpt>
      <trkpt lat="47.9302180" lon="8.1926500">
        <ele>397.6</ele>
        <time>2022-06-06T09:16:02Z</time>
      </trkpt>
      <trkpt lat="47.9300210" lon="8.1925360">
        <ele>398.2</ele>
        <time>2022-06-06T09:16:06Z</time>
      </trkpt>
      <trkpt lat="47.9298280" lon="8.1923880">
        <ele>396.8</ele>
        <time>2022-06-06T09:16:10Z</time>
      </trkpt>
      <trkpt lat="47.9296150" lon="8.1923050">
        <ele>397.6</ele>
        <time>2022-06-06T09:16:14Z</time>
      </trkpt>
      <trkpt lat="47.9294010" lon="8.1922000">
        <ele>396.8</ele>
        <time>2022-06-06T09:16:18Z</time>
      </trkpt>
      <trkpt lat="47.9291960" lon="8.1921310">
        <ele>395.2</ele>
        <time>2022-06-06T09:16:22Z</time>
      </trkpt>
      <trkpt lat="47.9289860" lon="8.1920550">
        <ele>396.4</ele>
        <time>2022-06-06T09:16:26Z</time>
      </trkpt>
      <trkpt lat="47.9287830" lon="8.1920010">
        <ele>396.0</ele>
        <time>2022-06-06T09:16:30Z</time>
      </trkpt>
      <trkpt lat="47.9285550" lon="8.1919650">
        <ele>395.6</ele>
        <time>2022-06-06T09:16:34Z</time>
      </trkpt>
      <trkpt lat="47.9283410" lon="8.1919910">
        <ele>395.8</ele>
        <time>2022-06-06T09:16:38Z</time>
      </trkpt>
      <trkpt lat="47.9281380" lon="8.1920430">
        <ele>395.6</ele>
        <time>2022-06-06T09:16:42Z</time>
      </trkpt>
      <trkpt lat="47.9279610" lon="8.1920900">
        <ele>395.4</ele>
        <time>2022-06-06T09:16:46Z</time>
      </trkpt>
      <trkpt lat="47.9277710" lon="8.1921730">
        <ele>395.2</ele>
        <time>2022-06-06T09:16:50Z</time>
      </trkpt>
      <trkpt lat="47.9275600" lon="8.1922730">
        <ele>394.6</ele>
        <time>2022-06-06T09:16:54Z</time>
      </trkpt>
      <trkpt lat="47.9273560" lon="8.1923460">
        <ele>394.8</ele>
        <time>2022-06-06T09:16:58Z</time>
      </trkpt>
      <trkpt lat="47.9271580" lon="8.1924450">
        <ele>394.8</ele>
        <time>2022-06-06T09:17:02Z</time>
      </trkpt>
      <trkpt lat="47.9269800" lon="8.1924910">
        <ele>394.0</ele>
        <time>2022-06-06T09:17:06Z</time>
      </trkpt>
      <trkpt lat="47.9268080" lon="8.1925280">
        <ele>395.4</ele>
        <time>2022-06-06T09:17:10Z</time>
      </trkpt>
      <trkpt lat="47.9266280" lon="8.1925610">
        <ele>395.4</ele>
        <time>2022-06-06T09:17:14Z</time>
      </trkpt>
      <trkpt lat="47.9264310" lon="8.1925810">
        <ele>395.2</ele>
        <time>2022-06-06T09:17:18Z</time>
      </trkpt>
      <trkpt lat="47.9262330" lon="8.1926080">
        <ele>394.8</ele>
        <time>2022-06-06T09:17:22Z</time>
      </trkpt>
      <trkpt lat="47.9260380" lon="8.1926350">
        <ele>394.8</ele>
        <time>2022-06-06T09:17:26Z</time>
      </trkpt>
      <trkpt lat="47.9258510" lon="8.1926660">
        <ele>394.6</ele>
        <time>2022-06-06T09:17:30Z</time>
      </trkpt>
      <trkpt lat="47.9256860" lon="8.1927060">
        <ele>394.4</ele>
        <time>2022-06-06T09:17:34Z</time>
      </trkpt>
      <trkpt lat="47.9254800" lon="8.1928310">
        <ele>394.0</ele>
        <time>2022-06-06T09:17:38Z</time>
      </trkpt>
      <trkpt lat="47.9252810" lon="8.1929950">
        <ele>392.8</ele>
        <time>2022-06-06T09:17:42Z</time>
      </trkpt>
      <trkpt lat="47.9250880" lon="8.1932050">
        <ele>392.2</ele>
        <time>2022-06-06T09:17:46Z</time>
      </trkpt>
      <trkpt lat="47.9249030" lon="8.1934310">
        <ele>391.2</ele>
        <time>2022-06-06T09:17:50Z</time>
      </trkpt>
      <trkpt lat="47.9247010" lon="8.1936900">
        <ele>391.2</ele>
        <time>2022-06-06T09:17:54Z</time>
      </trkpt>
      <trkpt lat="47.9244730" lon="8.1939400">
        <ele>390.2</ele>
        <time>2022-06-06T09:17:58Z</time>
      </trkpt>
      <trkpt lat="47.9242400" lon="8.1941280">
        <ele>388.6</ele>
        <time>2022-06-06T09:18:02Z</time>
      </trkpt>
      <trkpt lat="47.9239910" lon="8.1941830">
        <ele>387.0</ele>
        <time>2022-06-06T09:18:06Z</time>
      </trkpt>
      <trkpt lat="47.9238210" lon="8.1941200">
        <ele>386.2</ele>
        <time>2022-06-06T09:18:10Z</time>
      </trkpt>
      <trkpt lat="47.9237480" lon="8.1939010">
        <ele>385.4</ele>
        <time>2022-06-06T09:18:14Z</time>
      </trkpt>
      <trkpt lat="47.9237280" lon="8.1935980">
        <ele>383.8</ele>
        <time>2022-06-06T09:18:18Z</time>
      </trkpt>
      <trkpt lat="47.9237600" lon="8.1932680">
        <ele>383.0</ele>
        <time>2022-06-06T09:18:22Z</time>
      </trkpt>
      <trkpt lat="47.9237900" lon="8.1929410">
        <ele>382.8</ele>
        <time>2022-06-06T09:18:26Z</time>
      </trkpt>
      <trkpt lat="47.9238100" lon="8.1926280">
        <ele>383.2</ele>
        <time>2022-06-06T09:18:30Z</time>
      </trkpt>
      <trkpt lat="47.9238330" lon="8.1923400">
        <ele>382.8</ele>
        <time>2022-06-06T09:18:34Z</time>
      </trkpt>
      <trkpt lat="47.9238560" lon="8.1920630">
        <ele>383.4</ele>
        <time>2022-06-06T09:18:38Z</time>
      </trkpt>
      <trkpt lat="47.9238760" lon="8.1917950">
        <ele>383.8</ele>
        <time>2022-06-06T09:18:42Z</time>
      </trkpt>
      <trkpt lat="47.9238980" lon="8.1915530">
        <ele>384.2</ele>
        <time>2022-06-06T09:18:46Z</time>
      </trkpt>
      <trkpt lat="47.9239200" lon="8.1913380">
        <ele>384.0</ele>
        <time>2022-06-06T09:18:50Z</time>
      </trkpt>
      <trkpt lat="47.9239330" lon="8.1911400">
        <ele>384.8</ele>
        <time>2022-06-06T09:18:54Z</time>
      </trkpt>
      <trkpt lat="47.9239530" lon="8.1909610">
        <ele>385.2</ele>
        <time>2022-06-06T09:18:58Z</time>
      </trkpt>
      <trkpt lat="47.9239780" lon="8.1907750">
        <ele>385.8</ele>
        <time>2022-06-06T09:19:02Z</time>
      </trkpt>
      <trkpt lat="47.9240010" lon="8.1905980">
        <ele>386.2</ele>
        <time>2022-06-06T09:19:06Z</time>
      </trkpt>
      <trkpt lat="47.9240410" lon="8.1904280">
        <ele>386.6</ele>
        <time>2022-06-06T09:19:10Z</time>
      </trkpt>
      <trkpt lat="47.9240480" lon="8.1902630">
        <ele>387.2</ele>
        <time>2022-06-06T09:19:14Z</time>
      </trkpt>
      <trkpt lat="47.9240660" lon="8.1900860">
        <ele>388.2</ele>
        <time>2022-06-06T09:19:18Z</time>
      </trkpt>
      <trkpt lat="47.9240860" lon="8.1899080">
        <ele>388.4</ele>
        <time>2022-06-06T09:19:22Z</time>
      </trkpt>
      <trkpt lat="47.9241210" lon="8.1897360">
        <ele>388.6</ele>
        <time>2022-06-06T09:19:26Z</time>
      </trkpt>
      <trkpt lat="47.9241530" lon="8.1895580">
        <ele>389.2</ele>
        <time>2022-06-06T09:19:30Z</time>
      </trkpt>
      <trkpt lat="47.9241900" lon="8.1893810">
        <ele>389.8</ele>
        <time>2022-06-06T09:19:34Z</time>
      </trkpt>
      <trkpt lat="47.9242180" lon="8.1891950">
        <ele>389.8</ele>
        <time>2022-06-06T09:19:38Z</time>
      </trkpt>
      <trkpt lat="47.9242430" lon="8.1890100">
        <ele>390.6</ele>
        <time>2022-06-06T09:19:42Z</time>
      </trkpt>
      <trkpt lat="47.9242630" lon="8.1888250">
        <ele>390.4</ele>
        <time>2022-06-06T09:19:46Z</time>
      </trkpt>
      <trkpt lat="47.9242780" lon="8.1886400">
        <ele>390.2</ele>
        <time>2022-06-06T09:19:50Z</time>
      </trkpt>
      <trkpt lat="47.9242780" lon="8.1884550">
        <ele>391.2</ele>
        <time>2022-06-06T09:19:54Z</time>
      </trkpt>
      <trkpt lat="47.9242600" lon="8.1882460">
        <ele>390.4</ele>
        <time>2022-06-06T09:19:58Z</time>
      </trkpt>
      <trkpt lat="47.9242210" lon="8.1880230">
        <ele>390.4</ele>
        <time>2022-06-06T09:20:02Z</time>
      </trkpt>
      <trkpt lat="47.9241510" lon="8.1877910">
        <ele>388.4</ele>
        <time>2022-06-06T09:20:06Z</time>
      </trkpt>
      <trkpt lat="47.9240680" lon="8.1875500">
        <ele>388.6</ele>
        <time>2022-06-06T09:20:10Z</time>
      </trkpt>
      <trkpt lat="47.9239910" lon="8.1873010">
        <ele>388.6</ele>
        <time>2022-06-06T09:20:14Z</time>
      </trkpt>
      <trkpt lat="47.9239210" lon="8.1870460">
        <ele>388.2</ele>
        <time>2022-06-06T09:20:18Z</time>
      </trkpt>
      <trkpt lat="47.9238430" lon="8.1867910">
        <ele>387.4</ele>
        <time>2022-06-06T09:20:22Z</time>
      </trkpt>
      <trkpt lat="47.9237700" lon="8.1865350">
        <ele>388.8</ele>
        <time>2022-06-06T09:20:26Z</time>
      </trkpt>
      <trkpt lat="47.9236880" lon="8.1862880">
        <ele>388.0</ele>
        <time>2022-06-06T09:20:30Z</time>
      </trkpt>
      <trkpt lat="47.9236150" lon="8.1860380">
        <ele>387.4</ele>
        <time>2022-06-06T09:20:34Z</time>
      </trkpt>
      <trkpt lat="47.9235360" lon="8.1857950">
        <ele>387.6</ele>
        <time>2022-06-06T09:20:38Z</time>
      </trkpt>
      <trkpt lat="47.9234600" lon="8.1855610">
        <ele>387.8</ele>
        <time>2022-06-06T09:20:42Z</time>
      </trkpt>
      <trkpt lat="47.9233900" lon="8.1853410">
        <ele>388.2</ele>
        <time>2022-06-06T09:20:46Z</time>
      </trkpt>
      <trkpt lat="47.9233180" lon="8.1851110">
        <ele>388.2</ele>
        <time>2022-06-06T09:20:50Z</time>
      </trkpt>
      <trkpt lat="47.9232510" lon="8.1848880">
        <ele>389.4</ele>
        <time>2022-06-06T09:20:54Z</time>
      </trkpt>
      <trkpt lat="47.9231960" lon="8.1846660">
        <ele>388.4</ele>
        <time>2022-06-06T09:20:58Z</time>
      </trkpt>
      <trkpt lat="47.9231400" lon="8.1844550">
        <ele>388.6</ele>
        <time>2022-06-06T09:21:02Z</time>
      </trkpt>
      <trkpt lat="47.9230850" lon="8.1842580">
        <ele>388.0</ele>
        <time>2022-06-06T09:21:06Z</time>
      </trkpt>
      <trkpt lat="47.9230250" lon="8.1840630">
        <ele>388.2</ele>
        <time>2022-06-06T09:21:10Z</time>
      </trkpt>
      <trkpt lat="47.9229680" lon="8.1838630">
        <ele>388.2</ele>
        <time>2022-06-06T09:21:14Z</time>
      </trkpt>
      <trkpt lat="47.9229080" lon="8.1836680">
        <ele>387.8</ele>
        <time>2022-06-06T09:21:18Z</time>
      </trkpt>
      <trkpt lat="47.9228480" lon="8.1834680">
        <ele>388.4</ele>
        <time>2022-06-06T09:21:22Z</time>
      </trkpt>
      <trkpt lat="47.9227900" lon="8.1832700">
        <ele>389.0</ele>
        <time>2022-06-06T09:21:26Z</time>
      </trkpt>
      <trkpt lat="47.9227310" lon="8.1830760">
        <ele>388.0</ele>
        <time>2022-06-06T09:21:30Z</time>
      </trkpt>
      <trkpt lat="47.9226800" lon="8.1828950">
        <ele>388.8</ele>
        <time>2022-06-06T09:21:34Z</time>
      </trkpt>
      <trkpt lat="47.9226260" lon="8.1827250">
        <ele>389.2</ele>
        <time>2022-06-06T09:21:38Z</time>
      </trkpt>
      <trkpt lat="47.9225760" lon="8.1825530">
        <ele>388.6</ele>
        <time>2022-06-06T09:21:42Z</time>
      </trkpt>
      <trkpt lat="47.9225210" lon="8.1824010">
        <ele>389.8</ele>
        <time>2022-06-06T09:21:46Z</time>
      </trkpt>
      <trkpt lat="47.9224700" lon="8.1822450">
        <ele>390.8</ele>
        <time>2022-06-06T09:21:50Z</time>
      </trkpt>
      <trkpt lat="47.9224100" lon="8.1820860">
        <ele>391.2</ele>
        <time>2022-06-06T09:21:54Z</time>
      </trkpt>
      <trkpt lat="47.9223460" lon="8.1819200">
        <ele>392.4</ele>
        <time>2022-06-06T09:21:58Z</time>
      </trkpt>
      <trkpt lat="47.9222760" lon="8.1817600">
        <ele>393.0</ele>
        <time>2022-06-06T09:22:02Z</time>
      </trkpt>
      <trkpt lat="47.9222010" lon="8.1815960">
        <ele>393.0</ele>
        <time>2022-06-06T09:22:06Z</time>
      </trkpt>
      <trkpt lat="47.9221260" lon="8.1814180">
        <ele>392.8</ele>
        <time>2022-06-06T09:22:10Z</time>
      </trkpt>
      <trkpt lat="47.9220510" lon="8.1812360">
        <ele>393.2</ele>
        <time>2022-06-06T09:22:14Z</time>
      </trkpt>
      <trkpt lat="47.9219700" lon="8.1810530">
        <ele>393.0</ele>
        <time>2022-06-06T09:22:18Z</time>
      </trkpt>
      <trkpt lat="47.9218880" lon="8.1808610">
        <ele>393.2</ele>
        <time>2022-06-06T09:22:22Z</time>
      </trkpt>
      <trkpt lat="47.9218030" lon="8.1806680">
        <ele>393.6</ele>
        <time>2022-06-06T09:22:26Z</time>
      </trkpt>
      <trkpt lat="47.9217300" lon="8.1804760">
        <ele>394.2</ele>
        <time>2022-06-06T09:22:30Z</time>
      </trkpt>
      <trkpt lat="47.9216610" lon="8.1803100">
        <ele>394.0</ele>
        <time>2022-06-06T09:22:34Z</time>
      </trkpt>
      <trkpt lat="47.9215930" lon="8.1801500">
        <ele>393.0</ele>
        <time>2022-06-06T09:22:38Z</time>
      </trkpt>
      <trkpt lat="47.9215230" lon="8.1799810">
        <ele>394.4</ele>
        <time>2022-06-06T09:22:42Z</time>
      </trkpt>
      <trkpt lat="47.9214450" lon="8.1798050">
        <ele>393.8</ele>
        <time>2022-06-06T09:22:46Z</time>
      </trkpt>
      <trkpt lat="47.9213630" lon="8.1796160">
        <ele>394.2</ele>
        <time>2022-06-06T09:22:50Z</time>
      </trkpt>
      <trkpt lat="47.9212780" lon="8.1794310">
        <ele>394.6</ele>
        <time>2022-06-06T09:22:54Z</time>
      </trkpt>
      <trkpt lat="47.9212000" lon="8.1792500">
        <ele>394.8</ele>
        <time>2022-06-06T09:22:58Z</time>
      </trkpt>
      <trkpt lat="47.9211210" lon="8.1790800">
        <ele>394.6</ele>
        <time>2022-06-06T09:23:02Z</time>
      </trkpt>
      <trkpt lat="47.9210510" lon="8.1789210">
        <ele>395.2</ele>
        <time>2022-06-06T09:23:06Z</time>
      </trkpt>
      <trkpt lat="47.9209810" lon="8.1787610">
        <ele>394.8</ele>
        <time>2022-06-06T09:23:10Z</time>
      </trkpt>
      <trkpt lat="47.9209130" lon="8.1785910">
        <ele>395.4</ele>
        <time>2022-06-06T09:23:14Z</time>
      </trkpt>
      <trkpt lat="47.9208450" lon="8.1784210">
        <ele>395.8</ele>
        <time>2022-06-06T09:23:18Z</time>
      </trkpt>
      <trkpt lat="47.9207850" lon="8.1782480">
        <ele>396.2</ele>
        <time>2022-06-06T09:23:22Z</time>
      </trkpt>
      <trkpt lat="47.9207300" lon="8.1780760">
        <ele>396.6</ele>
        <time>2022-06-06T09:23:26Z</time>
      </trkpt>
      <trkpt lat="47.9206880" lon="8.1778950">
        <ele>396.8</ele>
        <time>2022-06-06T09:23:30Z</time>
      </trkpt>
      <trkpt lat="47.9206480" lon="8.1777080">
        <ele>397.4</ele>
        <time>2022-06-06T09:23:34Z</time>
      </trkpt>
      <trkpt lat="47.9206160" lon="8.1775030">
        <ele>396.8</ele>
        <time>2022-06-06T09:23:38Z</time>
      </trkpt>
      <trkpt lat="47.9205880" lon="8.1772980">
        <ele>396.8</ele>
        <time>2022-06-06T09:23:42Z</time>
      </trkpt>
      <trkpt lat="47.9205510" lon="8.1770880">
        <ele>396.8</ele>
        <time>2022-06-06T09:23:46Z</time>
      </trkpt>
      <trkpt lat="47.9205060" lon="8.1768480">
        <ele>396.2</ele>
        <time>2022-06-06T09:23:50Z</time>
      </trkpt>
      <trkpt lat="47.9204460" lon="8.1766100">
        <ele>396.2</ele>
        <time>2022-06-06T09:23:54Z</time>
      </trkpt>
      <trkpt lat="47.9203880" lon="8.1763730">
        <ele>397.0</ele>
        <time>2022-06-06T09:23:58Z</time>
      </trkpt>
      <trkpt lat="47.9203250" lon="8.1761480">
        <ele>396.6</ele>
        <time>2022-06-06T09:24:02Z</time>
      </trkpt>
      <trkpt lat="47.9202450" lon="8.1759460">
        <ele>396.2</ele>
        <time>2022-06-06T09:24:06Z</time>
      </trkpt>
      <trkpt lat="47.9201730" lon="8.1757560">
        <ele>396.8</ele>
        <time>2022-06-06T09:24:10Z</time>
      </trkpt>
      <trkpt lat="47.9201050" lon="8.1755680">
        <ele>397.6</ele>
        <time>2022-06-06T09:24:14Z</time>
      </trkpt>
      <trkpt lat="47.9200380" lon="8.1753730">
        <ele>398.4</ele>
        <time>2022-06-06T09:24:18Z</time>
      </trkpt>
      <trkpt lat="47.9199830" lon="8.1751800">
        <ele>399.4</ele>
        <time>2022-06-06T09:24:22Z</time>
      </trkpt>
      <trkpt lat="47.9199230" lon="8.1749910">
        <ele>399.0</ele>
        <time>2022-06-06T09:24:26Z</time>
      </trkpt>
      <trkpt lat="47.9198560" lon="8.1748010">
        <ele>400.0</ele>
        <time>2022-06-06T09:24:30Z</time>
      </trkpt>
      <trkpt lat="47.9197960" lon="8.1746360">
        <ele>399.4</ele>
        <time>2022-06-06T09:24:34Z</time>
      </trkpt>
      <trkpt lat="47.9197360" lon="8.1744580">
        <ele>398.8</ele>
        <time>2022-06-06T09:24:38Z</time>
      </trkpt>
      <trkpt lat="47.9196580" lon="8.1742710">
        <ele>398.6</ele>
        <time>2022-06-06T09:24:42Z</time>
      </trkpt>
      <trkpt lat="47.9195650" lon="8.1740860">
        <ele>398.8</ele>
        <time>2022-06-06T09:24:46Z</time>
      </trkpt>
      <trkpt lat="47.9194610" lon="8.1738860">
        <ele>398.2</ele>
        <time>2022-06-06T09:24:50Z</time>
      </trkpt>
      <trkpt lat="47.9193780" lon="8.1736700">
        <ele>399.0</ele>
        <time>2022-06-06T09:24:54Z</time>
      </trkpt>
      <trkpt lat="47.9192850" lon="8.1734700">
        <ele>398.6</ele>
        <time>2022-06-06T09:24:58Z</time>
      </trkpt>
      <trkpt lat="47.9191730" lon="8.1732830">
        <ele>397.0</ele>
        <time>2022-06-06T09:25:02Z</time>
      </trkpt>
      <trkpt lat="47.9190860" lon="8.1730600">
        <ele>397.0</ele>
        <time>2022-06-06T09:25:06Z</time>
      </trkpt>
      <trkpt lat="47.9189560" lon="8.1728360">
        <ele>395.8</ele>
        <time>2022-06-06T09:25:10Z</time>
      </trkpt>
      <trkpt lat="47.9188160" lon="8.1725980">
        <ele>396.6</ele>
        <time>2022-06-06T09:25:14Z</time>
      </trkpt>
      <trkpt lat="47.9186700" lon="8.1723680">
        <ele>395.0</ele>
        <time>2022-06-06T09:25:18Z</time>
      </trkpt>
      <trkpt lat="47.9185080" lon="8.1721730">
        <ele>393.8</ele>
        <time>2022-06-06T09:25:22Z</time>
      </trkpt>
      <trkpt lat="47.9183400" lon="8.1719960">
        <ele>394.2</ele>
        <time>2022-06-06T09:25:26Z</time>
      </trkpt>
      <trkpt lat="47.9181700" lon="8.1718660">
        <ele>393.4</ele>
        <time>2022-06-06T09:25:30Z</time>
      </trkpt>
      <trkpt lat="47.9179800" lon="8.1717960">
        <ele>393.2</ele>
        <time>2022-06-06T09:25:34Z</time>
      </trkpt>
      <trkpt lat="47.9177950" lon="8.1716960">
        <ele>394.4</ele>
        <time>2022-06-06T09:25:38Z</time>
      </trkpt>
      <trkpt lat="47.9176210" lon="8.1715480">
        <ele>393.2</ele>
        <time>2022-06-06T09:25:42Z</time>
      </trkpt>
      <trkpt lat="47.9174530" lon="8.1713980">
        <ele>394.6</ele>
        <time>2022-06-06T09:25:46Z</time>
      </trkpt>
      <trkpt lat="47.9172930" lon="8.1712460">
        <ele>393.8</ele>
        <time>2022-06-06T09:25:50Z</time>
      </trkpt>
      <trkpt lat="47.9171400" lon="8.1711010">
        <ele>394.6</ele>
        <time>2022-06-06T09:25:54Z</time>
      </trkpt>
      <trkpt lat="47.9169960" lon="8.1709580">
        <ele>394.8</ele>
        <time>2022-06-06T09:25:58Z</time>
      </trkpt>
      <trkpt lat="47.9168560" lon="8.1708250">
        <ele>394.8</ele>
        <time>2022-06-06T09:26:02Z</time>
      </trkpt>
      <trkpt lat="47.9167180" lon="8.1706980">
        <ele>395.0</ele>
        <time>2022-06-06T09:26:06Z</time>
      </trkpt>
      <trkpt lat="47.9165850" lon="8.1705600">
        <ele>395.4</ele>
        <time>2022-06-06T09:26:10Z</time>
      </trkpt>
      <trkpt lat="47.9164530" lon="8.1704300">
        <ele>395.6</ele>
        <time>2022-06-06T09:26:14Z</time>
      </trkpt>
      <trkpt lat="47.9163300" lon="8.1703100">
        <ele>396.2</ele>
        <time>2022-06-06T09:26:18Z</time>
      </trkpt>
      <trkpt lat="47.9162280" lon="8.1702010">
        <ele>395.8</ele>
        <time>2022-06-06T09:26:22Z</time>
      </trkpt>
      <trkpt lat="47.9161210" lon="8.1700880">
        <ele>395.6</ele>
        <time>2022-06-06T09:26:26Z</time>
      </trkpt>
      <trkpt lat="47.9160000" lon="8.1699460">
        <ele>395.6</ele>
        <time>2022-06-06T09:26:30Z</time>
      </trkpt>
      <trkpt lat="47.9158800" lon="8.1698230">
        <ele>395.8</ele>
        <time>2022-06-06T09:26:34Z</time>
      </trkpt>
      <trkpt lat="47.9157680" lon="8.1696700">
        <ele>395.4</ele>
        <time>2022-06-06T09:26:38Z</time>
      </trkpt>
      <trkpt lat="47.9156550" lon="8.1695180">
        <ele>396.2</ele>
        <time>2022-06-06T09:26:42Z</time>
      </trkpt>
      <trkpt lat="47.9155380" lon="8.1693630">
        <ele>396.8</ele>
        <time>2022-06-06T09:26:46Z</time>
      </trkpt>
      <trkpt lat="47.9154210" lon="8.1692030">
        <ele>397.2</ele>
        <time>2022-06-06T09:26:50Z</time>
      </trkpt>
      <trkpt lat="47.9153060" lon="8.1690410">
        <ele>396.6</ele>
        <time>2022-06-06T09:26:54Z</time>
      </trkpt>
      <trkpt lat="47.9151900" lon="8.1688810">
        <ele>396.8</ele>
        <time>2022-06-06T09:26:58Z</time>
      </trkpt>
      <trkpt lat="47.9150800" lon="8.1687260">
        <ele>397.0</ele>
        <time>2022-06-06T09:27:02Z</time>
      </trkpt>
      <trkpt lat="47.9149750" lon="8.1685750">
        <ele>397.2</ele>
        <time>2022-06-06T09:27:06Z</time>
      </trkpt>
      <trkpt lat="47.9148680" lon="8.1684210">
        <ele>397.8</ele>
        <time>2022-06-06T09:27:10Z</time>
      </trkpt>
      <trkpt lat="47.9147560" lon="8.1682650">
        <ele>397.6</ele>
        <time>2022-06-06T09:27:14Z</time>
      </trkpt>
      <trkpt lat="47.9146500" lon="8.1681150">
        <ele>397.0</ele>
        <time>2022-06-06T09:27:18Z</time>
      </trkpt>
      <trkpt lat="47.9145380" lon="8.1679530">
        <ele>397.2</ele>
        <time>2022-06-06T09:27:22Z</time>
      </trkpt>
      <trkpt lat="47.9144200" lon="8.1677910">
        <ele>397.4</ele>
        <time>2022-06-06T09:27:26Z</time>
      </trkpt>
      <trkpt lat="47.9143010" lon="8.1676230">
        <ele>397.6</ele>
        <time>2022-06-06T09:27:30Z</time>
      </trkpt>
      <trkpt lat="47.9141810" lon="8.1674580">
        <ele>397.6</ele>
        <time>2022-06-06T09:27:34Z</time>
      </trkpt>
      <trkpt lat="47.9140650" lon="8.1672930">
        <ele>397.4</ele>
        <time>2022-06-06T09:27:38Z</time>
      </trkpt>
      <trkpt lat="47.9139480" lon="8.1671310">
        <ele>398.4</ele>
        <time>2022-06-06T09:27:42Z</time>
      </trkpt>
      <trkpt lat="47.9138300" lon="8.1669700">
        <ele>398.4</ele>
        <time>2022-06-06T09:27:46Z</time>
      </trkpt>
      <trkpt lat="47.9137110" lon="8.1668080">
        <ele>398.0</ele>
        <time>2022-06-06T09:27:50Z</time>
      </trkpt>
      <trkpt lat="47.9135910" lon="8.1666400">
        <ele>398.4</ele>
        <time>2022-06-06T09:27:54Z</time>
      </trkpt>
      <trkpt lat="47.9134730" lon="8.1664730">
        <ele>398.4</ele>
        <time>2022-06-06T09:27:58Z</time>
      </trkpt>
      <trkpt lat="47.9133600" lon="8.1663050">
        <ele>398.8</ele>
        <time>2022-06-06T09:28:02Z</time>
      </trkpt>
      <trkpt lat="47.9132380" lon="8.1661550">
        <ele>398.8</ele>
        <time>2022-06-06T09:28:06Z</time>
      </trkpt>
      <trkpt lat="47.9131050" lon="8.1660160">
        <ele>398.8</ele>
        <time>2022-06-06T09:28:10Z</time>
      </trkpt>
      <trkpt lat="47.9129700" lon="8.1658960">
        <ele>399.6</ele>
        <time>2022-06-06T09:28:14Z</time>
      </trkpt>
      <trkpt lat="47.9128250" lon="8.1657950">
        <ele>399.4</ele>
        <time>2022-06-06T09:28:18Z</time>
      </trkpt>
      <trkpt lat="47.9126810" lon="8.1656810">
        <ele>399.4</ele>
        <time>2022-06-06T09:28:22Z</time>
      </trkpt>
      <trkpt lat="47.9125500" lon="8.1655410">
        <ele>399.4</ele>
        <time>2022-06-06T09:28:26Z</time>
      </trkpt>
      <trkpt lat="47.9124310" lon="8.1654010">
        <ele>398.6</ele>
        <time>2022-06-06T09:28:30Z</time>
      </trkpt>
      <trkpt lat="47.9123230" lon="8.1652400">
        <ele>399.0</ele>
        <time>2022-06-06T09:28:34Z</time>
      </trkpt>
      <trkpt lat="47.9122150" lon="8.1650880">
        <ele>398.8</ele>
        <time>2022-06-06T09:28:38Z</time>
      </trkpt>
      <trkpt lat="47.9121100" lon="8.1649330">
        <ele>399.6</ele>
        <time>2022-06-06T09:28:42Z</time>
      </trkpt>
      <trkpt lat="47.9120080" lon="8.1647810">
        <ele>401.0</ele>
        <time>2022-06-06T09:28:46Z</time>
      </trkpt>
      <trkpt lat="47.9119050" lon="8.1646330">
        <ele>401.4</ele>
        <time>2022-06-06T09:28:50Z</time>
      </trkpt>
      <trkpt lat="47.9118010" lon="8.1644880">
        <ele>402.2</ele>
        <time>2022-06-06T09:28:54Z</time>
      </trkpt>
      <trkpt lat="47.9117030" lon="8.1643450">
        <ele>402.2</ele>
        <time>2022-06-06T09:28:58Z</time>
      </trkpt>
      <trkpt lat="47.9116010" lon="8.1642100">
        <ele>401.8</ele>
        <time>2022-06-06T09:29:02Z</time>
      </trkpt>
      <trkpt lat="47.9115030" lon="8.1640610">
        <ele>402.2</ele>
        <time>2022-06-06T09:29:06Z</time>
      </trkpt>
      <trkpt lat="47.9114050" lon="8.1639210">
        <ele>402.8</ele>
        <time>2022-06-06T09:29:10Z</time>
      </trkpt>
      <trkpt lat="47.9113050" lon="8.1637830">
        <ele>402.0</ele>
        <time>2022-06-06T09:29:14Z</time>
      </trkpt>
      <trkpt lat="47.9112150" lon="8.1636400">
        <ele>402.2</ele>
        <time>2022-06-06T09:29:18Z</time>
      </trkpt>
      <trkpt lat="47.9111280" lon="8.1635160">
        <ele>402.6</ele>
        <time>2022-06-06T09:29:22Z</time>
      </trkpt>
      <trkpt lat="47.9110460" lon="8.1633830">
        <ele>402.8</ele>
        <time>2022-06-06T09:29:26Z</time>
      </trkpt>
      <trkpt lat="47.9109610" lon="8.1632550">
        <ele>403.2</ele>
        <time>2022-06-06T09:29:30Z</time>
      </trkpt>
      <trkpt lat="47.9108460" lon="8.1631160">
        <ele>402.6</ele>
        <time>2022-06-06T09:29:34Z</time>
      </trkpt>
      <trkpt lat="47.9107400" lon="8.1629710">
        <ele>403.8</ele>
        <time>2022-06-06T09:29:38Z</time>
      </trkpt>
      <trkpt lat="47.9106400" lon="8.1628250">
        <ele>404.0</ele>
        <time>2022-06-06T09:29:42Z</time>
      </trkpt>
      <trkpt lat="47.9105360" lon="8.1626800">
        <ele>404.2</ele>
        <time>2022-06-06T09:29:46Z</time>
      </trkpt>
      <trkpt lat="47.9104450" lon="8.1625350">
        <ele>403.6</ele>
        <time>2022-06-06T09:29:50Z</time>
      </trkpt>
      <trkpt lat="47.9103660" lon="8.1624130">
        <ele>404.8</ele>
        <time>2022-06-06T09:29:54Z</time>
      </trkpt>
      <trkpt lat="47.9103010" lon="8.1622830">
        <ele>404.4</ele>
        <time>2022-06-06T09:29:58Z</time>
      </trkpt>
      <trkpt lat="47.9102510" lon="8.1621910">
        <ele>405.2</ele>
        <time>2022-06-06T09:30:02Z</time>
      </trkpt>
      <trkpt lat="47.9101950" lon="8.1621010">
        <ele>404.8</ele>
        <time>2022-06-06T09:30:06Z</time>
      </trkpt>
      <trkpt lat="47.9101950" lon="8.1621010">
        <ele>406.0</ele>
        <time>2022-06-06T09:30:10Z</time>
      </trkpt>
      <trkpt lat="47.9101950" lon="8.1621010">
        <ele>405.8</ele>
        <time>2022-06-06T09:30:14Z</time>
      </trkpt>
      <trkpt lat="47.9101950" lon="8.1621010">
        <ele>406.0</ele>
        <time>2022-06-06T09:30:18Z</time>
      </trkpt>
      <trkpt lat="47.9101500" lon="8.1620450">
        <ele>406.2</ele>
        <time>2022-06-06T09:30:22Z</time>
      </trkpt>
      <trkpt lat="47.9101050" lon="8.1619650">
        <ele>406.4</ele>
        <time>2022-06-06T09:30:26Z</time>
      </trkpt>
      <trkpt lat="47.9100100" lon="8.1618850">
        <ele>405.8</ele>
        <time>2022-06-06T09:30:30Z</time>
      </trkpt>
      <trkpt lat="47.9099150" lon="8.1617830">
        <ele>407.0</ele>
        <time>2022-06-06T09:30:34Z</time>
      </trkpt>
      <trkpt lat="47.9098300" lon="8.1616450">
        <ele>407.4</ele>
        <time>2022-06-06T09:30:38Z</time>
      </trkpt>
      <trkpt lat="47.9097360" lon="8.1615160">
        <ele>408.0</ele>
        <time>2022-06-06T09:30:42Z</time>
      </trkpt>
      <trkpt lat="47.9096430" lon="8.1613760">
        <ele>408.6</ele>
        <time>2022-06-06T09:30:46Z</time>
      </trkpt>
      <trkpt lat="47.9095460" lon="8.1612500">
        <ele>408.8</ele>
        <time>2022-06-06T09:30:50Z</time>
      </trkpt>
      <trkpt lat="47.9094550" lon="8.1611300">
        <ele>408.8</ele>
        <time>2022-06-06T09:30:54Z</time>
      </trkpt>
      <trkpt lat="47.9093680" lon="8.1610360">
        <ele>408.8</ele>
        <time>2022-06-06T09:30:58Z</time>
      </trkpt>
      <trkpt lat="47.9092900" lon="8.1609330">
        <ele>409.8</ele>
        <time>2022-06-06T09:31:02Z</time>
      </trkpt>
      <trkpt lat="47.9091950" lon="8.1608000">
        <ele>409.4</ele>
        <time>2022-06-06T09:31:06Z</time>
      </trkpt>
      <trkpt lat="47.9090980" lon="8.1606630">
        <ele>410.6</ele>
        <time>2022-06-06T09:31:10Z</time>
      </trkpt>
      <trkpt lat="47.9090050" lon="8.1605260">
        <ele>410.6</ele>
        <time>2022-06-06T09:31:14Z</time>
      </trkpt>
      <trkpt lat="47.9089130" lon="8.1603680">
        <ele>410.2</ele>
        <time>2022-06-06T09:31:18Z</time>
      </trkpt>
      <trkpt lat="47.9088210" lon="8.1602160">
        <ele>409.6</ele>
        <time>2022-06-06T09:31:22Z</time>
      </trkpt>
      <trkpt lat="47.9087300" lon="8.1600780">
        <ele>410.0</ele>
        <time>2022-06-06T09:31:26Z</time>
      </trkpt>
      <trkpt lat="47.9086250" lon="8.1599300">
        <ele>410.0</ele>
        <time>2022-06-06T09:31:30Z</time>
      </trkpt>
      <trkpt lat="47.9085210" lon="8.1597700">
        <ele>410.0</ele>
        <time>2022-06-06T09:31:34Z</time>
      </trkpt>
      <trkpt lat="47.9084130" lon="8.1596100">
        <ele>409.8</ele>
        <time>2022-06-06T09:31:38Z</time>
      </trkpt>
      <trkpt lat="47.9083100" lon="8.1594660">
        <ele>410.0</ele>
        <time>2022-06-06T09:31:42Z</time>
      </trkpt>
      <trkpt lat="47.9082110" lon="8.1593180">
        <ele>409.4</ele>
        <time>2022-06-06T09:31:46Z</time>
      </trkpt>
      <trkpt lat="47.9081130" lon="8.1592330">
        <ele>409.8</ele>
        <time>2022-06-06T09:31:50Z</time>
      </trkpt>
      <trkpt lat="47.9080350" lon="8.1592830">
        <ele>409.8</ele>
        <time>2022-06-06T09:31:54Z</time>
      </trkpt>
      <trkpt lat="47.9079350" lon="8.1593450">
        <ele>409.0</ele>
        <time>2022-06-06T09:31:58Z</time>
      </trkpt>
      <trkpt lat="47.9078380" lon="8.1594130">
        <ele>408.8</ele>
        <time>2022-06-06T09:32:02Z</time>
      </trkpt>
      <trkpt lat="47.9077980" lon="8.1595310">
        <ele>409.4</ele>
        <time>2022-06-06T09:32:06Z</time>
      </trkpt>
      <trkpt lat="47.9077930" lon="8.1596980">
        <ele>409.0</ele>
        <time>2022-06-06T09:32:10Z</time>
      </trkpt>
      <trkpt lat="47.9078180" lon="8.1598780">
        <ele>408.8</ele>
        <time>2022-06-06T09:32:14Z</time>
      </trkpt>
      <trkpt lat="47.9078430" lon="8.1600530">
        <ele>409.6</ele>
        <time>2022-06-06T09:32:18Z</time>
      </trkpt>
      <trkpt lat="47.9078630" lon="8.1602130">
        <ele>408.8</ele>
        <time>2022-06-06T09:32:22Z</time>
      </trkpt>
      <trkpt lat="47.9078780" lon="8.1603580">
        <ele>409.0</ele>
        <time>2022-06-06T09:32:26Z</time>
      </trkpt>
      <trkpt lat="47.9078050" lon="8.1603630">
        <ele>408.4</ele>
        <time>2022-06-06T09:32:30Z</time>
      </trkpt>
      <trkpt lat="47.9077600" lon="8.1602230">
        <ele>408.0</ele>
        <time>2022-06-06T09:32:34Z</time>
      </trkpt>
      <trkpt lat="47.9076930" lon="8.1601150">
        <ele>408.8</ele>
        <time>2022-06-06T09:32:38Z</time>
      </trkpt>
      <trkpt lat="47.9076480" lon="8.1601530">
        <ele>409.0</ele>
        <time>2022-06-06T09:32:42Z</time>
      </trkpt>
      <trkpt lat="47.9076900" lon="8.1602650">
        <ele>409.0</ele>
        <time>2022-06-06T09:32:46Z</time>
      </trkpt>
      <trkpt lat="47.9076530" lon="8.1604060">
        <ele>409.0</ele>
        <time>2022-06-06T09:32:50Z</time>
      </trkpt>
      <trkpt lat="47.9075860" lon="8.1605130">
        <ele>409.2</ele>
        <time>2022-06-06T09:32:54Z</time>
      </trkpt>
      <trkpt lat="47.9075150" lon="8.1606350">
        <ele>409.8</ele>
        <time>2022-06-06T09:32:58Z</time>
      </trkpt>
      <trkpt lat="47.9074230" lon="8.1607060">
        <ele>409.6</ele>
        <time>2022-06-06T09:33:02Z</time>
      </trkpt>
      <trkpt lat="47.9073300" lon="8.1607730">
        <ele>409.2</ele>
        <time>2022-06-06T09:33:06Z</time>
      </trkpt>
      <trkpt lat="47.9072330" lon="8.1608950">
        <ele>408.8</ele>
        <time>2022-06-06T09:33:10Z</time>
      </trkpt>
      <trkpt lat="47.9071700" lon="8.1609950">
        <ele>408.6</ele>
        <time>2022-06-06T09:33:14Z</time>
      </trkpt>
      <trkpt lat="47.9070930" lon="8.1611100">
        <ele>408.6</ele>
        <time>2022-06-06T09:33:18Z</time>
      </trkpt>
      <trkpt lat="47.9070350" lon="8.1612200">
        <ele>407.4</ele>
        <time>2022-06-06T09:33:22Z</time>
      </trkpt>
      <trkpt lat="47.9069730" lon="8.1613180">
        <ele>408.2</ele>
        <time>2022-06-06T09:33:26Z</time>
      </trkpt>
      <trkpt lat="47.9069100" lon="8.1614100">
        <ele>407.6</ele>
        <time>2022-06-06T09:33:30Z</time>
      </trkpt>
      <trkpt lat="47.9068600" lon="8.1615060">
        <ele>408.6</ele>
        <time>2022-06-06T09:33:34Z</time>
      </trkpt>
      <trkpt lat="47.9068010" lon="8.1615930">
        <ele>407.6</ele>
        <time>2022-06-06T09:33:38Z</time>
      </trkpt>
      <trkpt lat="47.9067760" lon="8.1616480">
        <ele>408.2</ele>
        <time>2022-06-06T09:33:42Z</time>
      </trkpt>
      <trkpt lat="47.9067760" lon="8.1616480">
        <ele>409.0</ele>
        <time>2022-06-06T09:33:46Z</time>
      </trkpt>
      <trkpt lat="47.9067750" lon="8.1616750">
        <ele>409.0</ele>
        <time>2022-06-06T09:33:50Z</time>
      </trkpt>
      <trkpt lat="47.9067280" lon="8.1616760">
        <ele>409.0</ele>
        <time>2022-06-06T09:33:54Z</time>
      </trkpt>
      <trkpt lat="47.9066750" lon="8.1615710">
        <ele>409.2</ele>
        <time>2022-06-06T09:33:58Z</time>
      </trkpt>
      <trkpt lat="47.9066200" lon="8.1614200">
        <ele>408.0</ele>
        <time>2022-06-06T09:34:02Z</time>
      </trkpt>
      <trkpt lat="47.9065680" lon="8.1612900">
        <ele>409.0</ele>
        <time>2022-06-06T09:34:06Z</time>
      </trkpt>
      <trkpt lat="47.9065350" lon="8.1611710">
        <ele>409.4</ele>
        <time>2022-06-06T09:34:10Z</time>
      </trkpt>
      <trkpt lat="47.9065060" lon="8.1610710">
        <ele>409.4</ele>
        <time>2022-06-06T09:34:14Z</time>
      </trkpt>
      <trkpt lat="47.9064500" lon="8.1610080">
        <ele>409.4</ele>
        <time>2022-06-06T09:34:18Z</time>
      </trkpt>
      <trkpt lat="47.9063760" lon="8.1610380">
        <ele>409.0</ele>
        <time>2022-06-06T09:34:22Z</time>
      </trkpt>
      <trkpt lat="47.9063000" lon="8.1611060">
        <ele>407.8</ele>
        <time>2022-06-06T09:34:26Z</time>
      </trkpt>
      <trkpt lat="47.9062300" lon="8.1611930">
        <ele>408.0</ele>
        <time>2022-06-06T09:34:30Z</time>
      </trkpt>
      <trkpt lat="47.9061980" lon="8.1612750">
        <ele>407.6</ele>
        <time>2022-06-06T09:34:34Z</time>
      </trkpt>
      <trkpt lat="47.9060660" lon="8.1613500">
        <ele>408.0</ele>
        <time>2022-06-06T09:34:38Z</time>
      </trkpt>
      <trkpt lat="47.9059450" lon="8.1614860">
        <ele>408.0</ele>
        <time>2022-06-06T09:34:42Z</time>
      </trkpt>
      <trkpt lat="47.9057980" lon="8.1615600">
        <ele>409.0</ele>
        <time>2022-06-06T09:34:46Z</time>
      </trkpt>
      <trkpt lat="47.9056800" lon="8.1615110">
        <ele>408.6</ele>
        <time>2022-06-06T09:34:50Z</time>
      </trkpt>
      <trkpt lat="47.9055910" lon="8.1613980">
        <ele>409.0</ele>
        <time>2022-06-06T09:34:54Z</time>
      </trkpt>
      <trkpt lat="47.9054980" lon="8.1612680">
        <ele>408.2</ele>
        <time>2022-06-06T09:34:58Z</time>
      </trkpt>
      <trkpt lat="47.9054280" lon="8.1611030">
        <ele>409.6</ele>
        <time>2022-06-06T09:35:02Z</time>
      </trkpt>
      <trkpt lat="47.9053630" lon="8.1609460">
        <ele>410.6</ele>
        <time>2022-06-06T09:35:06Z</time>
      </trkpt>
      <trkpt lat="47.9053060" lon="8.1608100">
        <ele>410.6</ele>
        <time>2022-06-06T09:35:10Z</time>
      </trkpt>
      <trkpt lat="47.9052560" lon="8.1606900">
        <ele>410.8</ele>
        <time>2022-06-06T09:35:14Z</time>
      </trkpt>
      <trkpt lat="47.9051950" lon="8.1605680">
        <ele>411.0</ele>
        <time>2022-06-06T09:35:18Z</time>
      </trkpt>
      <trkpt lat="47.9051360" lon="8.1604450">
        <ele>411.0</ele>
        <time>2022-06-06T09:35:22Z</time>
      </trkpt>
      <trkpt lat="47.9050780" lon="8.1603260">
        <ele>411.2</ele>
        <time>2022-06-06T09:35:26Z</time>
      </trkpt>
      <trkpt lat="47.9050180" lon="8.1601930">
        <ele>411.6</ele>
        <time>2022-06-06T09:35:30Z</time>
      </trkpt>
      <trkpt lat="47.9049580" lon="8.1600560">
        <ele>412.0</ele>
        <time>2022-06-06T09:35:34Z</time>
      </trkpt>
      <trkpt lat="47.9049060" lon="8.1599110">
        <ele>411.8</ele>
        <time>2022-06-06T09:35:38Z</time>
      </trkpt>
      <trkpt lat="47.9048550" lon="8.1597450">
        <ele>412.2</ele>
        <time>2022-06-06T09:35:42Z</time>
      </trkpt>
      <trkpt lat="47.9047930" lon="8.1595910">
        <ele>412.4</ele>
        <time>2022-06-06T09:35:46Z</time>
      </trkpt>
      <trkpt lat="47.9047260" lon="8.1594360">
        <ele>412.8</ele>
        <time>2022-06-06T09:35:50Z</time>
      </trkpt>
      <trkpt lat="47.9046550" lon="8.1592800">
        <ele>412.8</ele>
        <time>2022-06-06T09:35:54Z</time>
      </trkpt>
      <trkpt lat="47.9045750" lon="8.1591180">
        <ele>412.6</ele>
        <time>2022-06-06T09:35:58Z</time>
      </trkpt>
      <trkpt lat="47.9044910" lon="8.1589530">
        <ele>412.2</ele>
        <time>2022-06-06T09:36:02Z</time>
      </trkpt>
      <trkpt lat="47.9044030" lon="8.1587860">
        <ele>413.0</ele>
        <time>2022-06-06T09:36:06Z</time>
      </trkpt>
      <trkpt lat="47.9043110" lon="8.1586160">
        <ele>412.4</ele>
        <time>2022-06-06T09:36:10Z</time>
      </trkpt>
      <trkpt lat="47.9042210" lon="8.1584450">
        <ele>412.0</ele>
        <time>2022-06-06T09:36:14Z</time>
      </trkpt>
      <trkpt lat="47.9041260" lon="8.1582760">
        <ele>412.6</ele>
        <time>2022-06-06T09:36:18Z</time>
      </trkpt>
      <trkpt lat="47.9040360" lon="8.1581010">
        <ele>412.2</ele>
        <time>2022-06-06T09:36:22Z</time>
      </trkpt>
      <trkpt lat="47.9039360" lon="8.1579330">
        <ele>412.8</ele>
        <time>2022-06-06T09:36:26Z</time>
      </trkpt>
      <trkpt lat="47.9038280" lon="8.1577610">
        <ele>413.2</ele>
        <time>2022-06-06T09:36:30Z</time>
      </trkpt>
      <trkpt lat="47.9037180" lon="8.1575900">
        <ele>412.4</ele>
        <time>2022-06-06T09:36:34Z</time>
      </trkpt>
      <trkpt lat="47.9036180" lon="8.1574160">
        <ele>411.8</ele>
        <time>2022-06-06T09:36:38Z</time>
      </trkpt>
      <trkpt lat="47.9035210" lon="8.1572400">
        <ele>412.4</ele>
        <time>2022-06-06T09:36:42Z</time>
      </trkpt>
      <trkpt lat="47.9034230" lon="8.1570680">
        <ele>411.0</ele>
        <time>2022-06-06T09:36:46Z</time>
      </trkpt>
      <trkpt lat="47.9033210" lon="8.1568780">
        <ele>411.4</ele>
        <time>2022-06-06T09:36:50Z</time>
      </trkpt>
      <trkpt lat="47.9032250" lon="8.1566860">
        <ele>413.4</ele>
        <time>2022-06-06T09:36:54Z</time>
      </trkpt>
      <trkpt lat="47.9031550" lon="8.1564760">
        <ele>413.4</ele>
        <time>2022-06-06T09:36:58Z</time>
      </trkpt>
      <trkpt lat="47.9030710" lon="8.1562800">
        <ele>413.4</ele>
        <time>2022-06-06T09:37:02Z</time>
      </trkpt>
      <trkpt lat="47.9030010" lon="8.1560780">
        <ele>413.4</ele>
        <time>2022-06-06T09:37:06Z</time>
      </trkpt>
      <trkpt lat="47.9030000" lon="8.1558500">
        <ele>413.8</ele>
        <time>2022-06-06T09:37:10Z</time>
      </trkpt>
      <trkpt lat="47.9029610" lon="8.1556410">
        <ele>414.0</ele>
        <time>2022-06-06T09:37:14Z</time>
      </trkpt>
      <trkpt lat="47.9028930" lon="8.1554400">
        <ele>413.6</ele>
        <time>2022-06-06T09:37:18Z</time>
      </trkpt>
      <trkpt lat="47.9028200" lon="8.1552450">
        <ele>414.0</ele>
        <time>2022-06-06T09:37:22Z</time>
      </trkpt>
      <trkpt lat="47.9027450" lon="8.1550460">
        <ele>414.2</ele>
        <time>2022-06-06T09:37:26Z</time>
      </trkpt>
      <trkpt lat="47.9026680" lon="8.1548410">
        <ele>413.0</ele>
        <time>2022-06-06T09:37:30Z</time>
      </trkpt>
      <trkpt lat="47.9025830" lon="8.1546410">
        <ele>413.0</ele>
        <time>2022-06-06T09:37:34Z</time>
      </trkpt>
      <trkpt lat="47.9025110" lon="8.1544330">
        <ele>413.0</ele>
        <time>2022-06-06T09:37:38Z</time>
      </trkpt>
      <trkpt lat="47.9024430" lon="8.1542160">
        <ele>413.2</ele>
        <time>2022-06-06T09:37:42Z</time>
      </trkpt>
      <trkpt lat="47.9023760" lon="8.1539960">
        <ele>412.8</ele>
        <time>2022-06-06T09:37:46Z</time>
      </trkpt>
      <trkpt lat="47.9023060" lon="8.1537880">
        <ele>413.0</ele>
        <time>2022-06-06T09:37:50Z</time>
      </trkpt>
      <trkpt lat="47.9022460" lon="8.1535480">
        <ele>412.6</ele>
        <time>2022-06-06T09:37:54Z</time>
      </trkpt>
      <trkpt lat="47.9021830" lon="8.1533050">
        <ele>412.0</ele>
        <time>2022-06-06T09:37:58Z</time>
      </trkpt>
      <trkpt lat="47.9021260" lon="8.1530500">
        <ele>411.8</ele>
        <time>2022-06-06T09:38:02Z</time>
      </trkpt>
      <trkpt lat="47.9020830" lon="8.1528310">
        <ele>411.2</ele>
        <time>2022-06-06T09:38:06Z</time>
      </trkpt>
      <trkpt lat="47.9020460" lon="8.1526400">
        <ele>411.4</ele>
        <time>2022-06-06T09:38:10Z</time>
      </trkpt>
      <trkpt lat="47.9020150" lon="8.1524460">
        <ele>411.6</ele>
        <time>2022-06-06T09:38:14Z</time>
      </trkpt>
      <trkpt lat="47.9019860" lon="8.1522960">
        <ele>410.2</ele>
        <time>2022-06-06T09:38:18Z</time>
      </trkpt>
      <trkpt lat="47.9019050" lon="8.1521910">
        <ele>410.8</ele>
        <time>2022-06-06T09:38:22Z</time>
      </trkpt>
      <trkpt lat="47.9018260" lon="8.1521180">
        <ele>410.8</ele>
        <time>2022-06-06T09:38:26Z</time>
      </trkpt>
      <trkpt lat="47.9017460" lon="8.1520100">
        <ele>410.6</ele>
        <time>2022-06-06T09:38:30Z</time>
      </trkpt>
      <trkpt lat="47.9016750" lon="8.1518810">
        <ele>410.6</ele>
        <time>2022-06-06T09:38:34Z</time>
      </trkpt>
      <trkpt lat="47.9016060" lon="8.1517710">
        <ele>410.8</ele>
        <time>2022-06-06T09:38:38Z</time>
      </trkpt>
      <trkpt lat="47.9015760" lon="8.1516850">
        <ele>411.0</ele>
        <time>2022-06-06T09:38:42Z</time>
      </trkpt>
      <trkpt lat="47.9015700" lon="8.1516380">
        <ele>411.0</ele>
        <time>2022-06-06T09:38:46Z</time>
      </trkpt>
      <trkpt lat="47.9015700" lon="8.1516380">
        <ele>411.0</ele>
        <time>2022-06-06T09:38:50Z</time>
      </trkpt>
      <trkpt lat="47.9015700" lon="8.1516380">
        <ele>411.2</ele>
        <time>2022-06-06T09:38:54Z</time>
      </trkpt>
      <trkpt lat="47.9015630" lon="8.1515910">
        <ele>411.0</ele>
        <time>2022-06-06T09:38:58Z</time>
      </trkpt>
      <trkpt lat="47.9015410" lon="8.1515980">
        <ele>411.2</ele>
        <time>2022-06-06T09:39:02Z</time>
      </trkpt>
      <trkpt lat="47.9015110" lon="8.1516200">
        <ele>411.4</ele>
        <time>2022-06-06T09:39:06Z</time>
      </trkpt>
      <trkpt lat="47.9014850" lon="8.1516450">
        <ele>411.0</ele>
        <time>2022-06-06T09:39:10Z</time>
      </trkpt>
      <trkpt lat="47.9014850" lon="8.1516450">
        <ele>411.0</ele>
        <time>2022-06-06T09:39:14Z</time>
      </trkpt>
      <trkpt lat="47.9014850" lon="8.1516450">
        <ele>410.8</ele>
        <time>2022-06-06T09:39:18Z</time>
      </trkpt>
      <trkpt lat="47.9014850" lon="8.1516450">
        <ele>410.8</ele>
        <time>2022-06-06T09:39:22Z</time>
      </trkpt>
      <trkpt lat="47.9014850" lon="8.1516450">
        <ele>411.4</ele>
        <time>2022-06-06T09:39:26Z</time>
      </trkpt>
      <trkpt lat="47.9014850" lon="8.1516450">
        <ele>411.6</ele>
        <time>2022-06-06T09:39:30Z</time>
      </trkpt>
      <trkpt lat="47.9014850" lon="8.1516450">
        <ele>411.0</ele>
        <time>2022-06-06T09:39:34Z</time>
      </trkpt>
      <trkpt lat="47.9014850" lon="8.1516450">
        <ele>411.0</ele>
        <time>2022-06-06T09:39:38Z</time>
      </trkpt>
      <trkpt lat="47.9014850" lon="8.1516450">
        <ele>411.0</ele>
        <time>2022-06-06T09:39:42Z</time>
      </trkpt>
      <trkpt lat="47.9014850" lon="8.1516450">
        <ele>411.8</ele>
        <time>2022-06-06T09:39:46Z</time>
      </trkpt>
      <trkpt lat="47.9014850" lon="8.1516450">
        <ele>411.8</ele>
        <time>2022-06-06T09:39:50Z</time>
      </trkpt>
      <trkpt lat="47.9014850" lon="8.1516450">
        <ele>411.6</ele>
        <time>2022-06-06T09:39:54Z</time>
      </trkpt>
      <trkpt lat="47.9014850" lon="8.1516450">
        <ele>411.6</ele>
        <time>2022-06-06T09:39:58Z</time>
      </trkpt>
      <trkpt lat="47.9014850" lon="8.1516450">
        <ele>411.2</ele>
        <time>2022-06-06T09:40:02Z</time>
      </trkpt>
      <trkpt lat="47.9014850" lon="8.1516450">
        <ele>411.8</ele>
        <time>2022-06-06T09:40:06Z</time>
      </trkpt>
      <trkpt lat="47.9014850" lon="8.1516450">
        <ele>411.6</ele>
        <time>2022-06-06T09:40:10Z</time>
      </trkpt>
      <trkpt lat="47.9014850" lon="8.1516450">
        <ele>411.8</ele>
        <time>2022-06-06T09:40:14Z</time>
      </trkpt>
      <trkpt lat="47.9014850" lon="8.1516450">
        <ele>411.4</ele>
        <time>2022-06-06T09:40:18Z</time>
      </trkpt>
      <trkpt lat="47.9014850" lon="8.1516450">
        <ele>411.6</ele>
        <time>2022-06-06T09:40:22Z</time>
      </trkpt>
      <trkpt lat="47.9014850" lon="8.1516450">
        <ele>411.2</ele>
        <time>2022-06-06T09:40:26Z</time>
      </trkpt>
      <trkpt lat="47.9014850" lon="8.1516450">
        <ele>411.6</ele>
        <time>2022-06-06T09:40:30Z</time>
      </trkpt>
      <trkpt lat="47.9014850" lon="8.1516450">
        <ele>411.4</ele>
        <time>2022-06-06T09:40:34Z</time>
      </trkpt>
      <trkpt lat="47.9014850" lon="8.1516450">
        <ele>411.8</ele>
        <time>2022-06-06T09:40:38Z</time>
      </trkpt>
      <trkpt lat="47.9014850" lon="8.1516450">
        <ele>411.8</ele>
        <time>2022-06-06T09:40:42Z</time>
      </trkpt>
      <trkpt lat="47.9014850" lon="8.1516450">
        <ele>411.6</ele>
        <time>2022-06-06T09:40:46Z</time>
      </trkpt>
      <trkpt lat="47.9014850" lon="8.1516450">
        <ele>411.6</ele>
        <time>2022-06-06T09:40:50Z</time>
      </trkpt>
      <trkpt lat="47.9014850" lon="8.1516450">
        <ele>411.8</ele>
        <time>2022-06-06T09:40:54Z</time>
      </trkpt>
      <trkpt lat="47.9014850" lon="8.1516450">
        <ele>411.4</ele>
        <time>2022-06-06T09:40:58Z</time>
      </trkpt>
      <trkpt lat="47.9014850" lon="8.1516450">
        <ele>411.8</ele>
        <time>2022-06-06T09:41:02Z</time>
      </trkpt>
      <trkpt lat="47.9014850" lon="8.1516450">
        <ele>411.6</ele>
        <time>2022-06-06T09:41:06Z</time>
      </trkpt>
      <trkpt lat="47.9014850" lon="8.1516450">
        <ele>411.8</ele>
        <time>2022-06-06T09:41:10Z</time>
      </trkpt>
      <trkpt lat="47.9014850" lon="8.1516450">
        <ele>411.8</ele>
        <time>2022-06-06T09:41:14Z</time>
      </trkpt>
      <trkpt lat="47.9014850" lon="8.1516450">
        <ele>411.2</ele>
        <time>2022-06-06T09:41:18Z</time>
      </trkpt>
      <trkpt lat="47.9014850" lon="8.1516450">
        <ele>411.6</ele>
        <time>2022-06-06T09:41:22Z</time>
      </trkpt>
      <trkpt lat="47.9014850" lon="8.1516450">
        <ele>411.0</ele>
        <time>2022-06-06T09:41:26Z</time>
      </trkpt>
      <trkpt lat="47.9014850" lon="8.1516450">
        <ele>411.4</ele>
        <time>2022-06-06T09:41:30Z</time>
      </trkpt>
      <trkpt lat="47.9014850" lon="8.1516450">
        <ele>411.2</ele>
        <time>2022-06-06T09:41:34Z</time>
      </trkpt>
      <trkpt lat="47.9014850" lon="8.1516450">
        <ele>411.4</ele>
        <time>2022-06-06T09:41:38Z</time>
      </trkpt>
      <trkpt lat="47.9014850" lon="8.1516450">
        <ele>411.4</ele>
        <time>2022-06-06T09:41:42Z</time>
      </trkpt>
      <trkpt lat="47.9014850" lon="8.1516450">
        <ele>411.2</ele>
        <time>2022-06-06T09:41:46Z</time>
      </trkpt>
      <trkpt lat="47.9014850" lon="8.1516450">
        <ele>410.8</ele>
        <time>2022-06-06T09:41:50Z</time>
      </trkpt>
      <trkpt lat="47.9014850" lon="8.1516450">
        <ele>411.6</ele>
        <time>2022-06-06T09:41:54Z</time>
      </trkpt>
      <trkpt lat="47.9014850" lon="8.1516450">
        <ele>411.6</ele>
        <time>2022-06-06T09:41:58Z</time>
      </trkpt>
      <trkpt lat="47.9014850" lon="8.1516450">
        <ele>411.4</ele>
        <time>2022-06-06T09:42:02Z</time>
      </trkpt>
      <trkpt lat="47.9014850" lon="8.1516450">
        <ele>411.4</ele>
        <time>2022-06-06T09:42:06Z</time>
      </trkpt>
      <trkpt lat="47.9014850" lon="8.1516450">
        <ele>411.4</ele>
        <time>2022-06-06T09:42:10Z</time>
      </trkpt>
      <trkpt lat="47.9014850" lon="8.1516450">
        <ele>411.4</ele>
        <time>2022-06-06T09:42:14Z</time>
      </trkpt>
      <trkpt lat="47.9014850" lon="8.1516450">
        <ele>411.6</ele>
        <time>2022-06-06T09:42:18Z</time>
      </trkpt>
      <trkpt lat="47.9014850" lon="8.1516450">
        <ele>411.2</ele>
        <time>2022-06-06T09:42:22Z</time>
      </trkpt>
      <trkpt lat="47.9014850" lon="8.1516450">
        <ele>411.2</ele>
        <time>2022-06-06T09:42:26Z</time>
      </trkpt>
      <trkpt lat="47.9014850" lon="8.1516450">
        <ele>412.0</ele>
        <time>2022-06-06T09:42:30Z</time>
      </trkpt>
      <trkpt lat="47.9014850" lon="8.1516450">
        <ele>411.8</ele>
        <time>2022-06-06T09:42:34Z</time>
      </trkpt>
      <trkpt lat="47.9014850" lon="8.1516450">
        <ele>411.4</ele>
        <time>2022-06-06T09:42:38Z</time>
      </trkpt>
      <trkpt lat="47.9014850" lon="8.1516450">
        <ele>411.4</ele>
        <time>2022-06-06T09:42:42Z</time>
      </trkpt>
      <trkpt lat="47.9014850" lon="8.1516450">
        <ele>411.6</ele>
        <time>2022-06-06T09:42:46Z</time>
      </trkpt>
      <trkpt lat="47.9014850" lon="8.1516450">
        <ele>412.4</ele>
        <time>2022-06-06T09:42:50Z</time>
      </trkpt>
      <trkpt lat="47.9014850" lon="8.1516450">
        <ele>412.0</ele>
        <time>2022-06-06T09:42:54Z</time>
      </trkpt>
      <trkpt lat="47.9014850" lon="8.1516450">
        <ele>412.0</ele>
        <time>2022-06-06T09:42:58Z</time>
      </trkpt>
      <trkpt lat="47.9014850" lon="8.1516450">
        <ele>412.2</ele>
        <time>2022-06-06T09:43:02Z</time>
      </trkpt>
      <trkpt lat="47.9014850" lon="8.1516450">
        <ele>412.0</ele>
        <time>2022-06-06T09:43:06Z</time>
      </trkpt>
      <trkpt lat="47.9014850" lon="8.1516450">
        <ele>412.2</ele>
        <time>2022-06-06T09:43:10Z</time>
      </trkpt>
      <trkpt lat="47.9014850" lon="8.1516450">
        <ele>411.8</ele>
        <time>2022-06-06T09:43:14Z</time>
      </trkpt>
      <trkpt lat="47.9014850" lon="8.1516450">
        <ele>411.8</ele>
        <time>2022-06-06T09:43:18Z</time>
      </trkpt>
      <trkpt lat="47.9014850" lon="8.1516450">
        <ele>412.0</ele>
        <time>2022-06-06T09:43:22Z</time>
      </trkpt>
      <trkpt lat="47.9014850" lon="8.1516450">
        <ele>411.6</ele>
        <time>2022-06-06T09:43:26Z</time>
      </trkpt>
      <trkpt lat="47.9014850" lon="8.1516450">
        <ele>411.8</ele>
        <time>2022-06-06T09:43:30Z</time>
      </trkpt>
      <trkpt lat="47.9014850" lon="8.1516450">
        <ele>412.2</ele>
        <time>2022-06-06T09:43:34Z</time>
      </trkpt>
      <trkpt lat="47.9014850" lon="8.1516450">
        <ele>411.8</ele>
        <time>2022-06-06T09:43:38Z</time>
      </trkpt>
      <trkpt lat="47.9014850" lon="8.1516450">
        <ele>411.6</ele>
        <time>2022-06-06T09:43:42Z</time>
      </trkpt>
      <trkpt lat="47.9014850" lon="8.1516450">
        <ele>411.8</ele>
        <time>2022-06-06T09:43:46Z</time>
      </trkpt>
      <trkpt lat="47.9014850" lon="8.1516450">
        <ele>411.6</ele>
        <time>2022-06-06T09:43:50Z</time>
      </trkpt>
      <trkpt lat="47.9014850" lon="8.1516450">
        <ele>411.8</ele>
        <time>2022-06-06T09:43:54Z</time>
      </trkpt>
      <trkpt lat="47.9014850" lon="8.1516450">
        <ele>411.6</ele>
        <time>2022-06-06T09:43:58Z</time>
      </trkpt>
      <trkpt lat="47.9014850" lon="8.1516450">
        <ele>412.0</ele>
        <time>2022-06-06T09:44:02Z</time>
      </trkpt>
      <trkpt lat="47.9014850" lon="8.1516450">
        <ele>411.8</ele>
        <time>2022-06-06T09:44:06Z</time>
      </trkpt>
      <trkpt lat="47.9014850" lon="8.1516450">
        <ele>411.6</ele>
        <time>2022-06-06T09:44:10Z</time>
      </trkpt>
      <trkpt lat="47.9014850" lon="8.1516450">
        <ele>412.0</ele>
        <time>2022-06-06T09:44:14Z</time>
      </trkpt>
      <trkpt lat="47.9014850" lon="8.1516450">
        <ele>412.2</ele>
        <time>2022-06-06T09:44:18Z</time>
      </trkpt>
      <trkpt lat="47.9014850" lon="8.1516450">
        <ele>412.0</ele>
        <time>2022-06-06T09:44:22Z</time>
      </trkpt>
      <trkpt lat="47.9014850" lon="8.1516450">
        <ele>412.4</ele>
        <time>2022-06-06T09:44:26Z</time>
      </trkpt>
      <trkpt lat="47.9014850" lon="8.1516450">
        <ele>412.6</ele>
        <time>2022-06-06T09:44:30Z</time>
      </trkpt>
      <trkpt lat="47.9014850" lon="8.1516450">
        <ele>412.0</ele>
        <time>2022-06-06T09:44:34Z</time>
      </trkpt>
      <trkpt lat="47.9014850" lon="8.1516450">
        <ele>412.2</ele>
        <time>2022-06-06T09:44:38Z</time>
      </trkpt>
      <trkpt lat="47.9014850" lon="8.1516450">
        <ele>412.2</ele>
        <time>2022-06-06T09:44:42Z</time>
      </trkpt>
      <trkpt lat="47.9014850" lon="8.1516450">
        <ele>411.8</ele>
        <time>2022-06-06T09:44:46Z</time>
      </trkpt>
      <trkpt lat="47.9014850" lon="8.1516450">
        <ele>412.0</ele>
        <time>2022-06-06T09:44:50Z</time>
      </trkpt>
      <trkpt lat="47.9014850" lon="8.1516450">
        <ele>412.2</ele>
        <time>2022-06-06T09:44:54Z</time>
      </trkpt>
      <trkpt lat="47.9014850" lon="8.1516450">
        <ele>412.4</ele>
        <time>2022-06-06T09:44:58Z</time>
      </trkpt>
      <trkpt lat="47.9014850" lon="8.1516450">
        <ele>412.4</ele>
        <time>2022-06-06T09:45:02Z</time>
      </trkpt>
      <trkpt lat="47.9014850" lon="8.1516450">
        <ele>412.4</ele>
        <time>2022-06-06T09:45:06Z</time>
      </trkpt>
      <trkpt lat="47.9014850" lon="8.1516450">
        <ele>412.2</ele>
        <time>2022-06-06T09:45:10Z</time>
      </trkpt>
      <trkpt lat="47.9014850" lon="8.1516450">
        <ele>412.0</ele>
        <time>2022-06-06T09:45:14Z</time>
      </trkpt>
      <trkpt lat="47.9014850" lon="8.1516450">
        <ele>411.8</ele>
        <time>2022-06-06T09:45:18Z</time>
      </trkpt>
      <trkpt lat="47.9014850" lon="8.1516450">
        <ele>412.0</ele>
        <time>2022-06-06T09:45:22Z</time>
      </trkpt>
      <trkpt lat="47.9014850" lon="8.1516450">
        <ele>412.0</ele>
        <time>2022-06-06T09:45:26Z</time>
      </trkpt>
      <trkpt lat="47.9014850" lon="8.1516450">
        <ele>412.2</ele>
        <time>2022-06-06T09:45:30Z</time>
      </trkpt>
      <trkpt lat="47.9014850" lon="8.1516450">
        <ele>412.2</ele>
        <time>2022-06-06T09:45:34Z</time>
      </trkpt>
      <trkpt lat="47.9014850" lon="8.1516450">
        <ele>412.8</ele>
        <time>2022-06-06T09:45:38Z</time>
      </trkpt>
      <trkpt lat="47.9014850" lon="8.1516450">
        <ele>412.4</ele>
        <time>2022-06-06T09:45:42Z</time>
      </trkpt>
      <trkpt lat="47.9014850" lon="8.1516450">
        <ele>412.4</ele>
        <time>2022-06-06T09:45:46Z</time>
      </trkpt>
      <trkpt lat="47.9014850" lon="8.1516450">
        <ele>412.6</ele>
        <time>2022-06-06T09:45:50Z</time>
      </trkpt>
      <trkpt lat="47.9014850" lon="8.1516450">
        <ele>412.6</ele>
        <time>2022-06-06T09:45:54Z</time>
      </trkpt>
      <trkpt lat="47.9014850" lon="8.1516450">
        <ele>412.2</ele>
        <time>2022-06-06T09:45:58Z</time>
      </trkpt>
      <trkpt lat="47.9014850" lon="8.1516450">
        <ele>412.6</ele>
        <time>2022-06-06T09:46:02Z</time>
      </trkpt>
      <trkpt lat="47.9014850" lon="8.1516450">
        <ele>412.2</ele>
        <time>2022-06-06T09:46:06Z</time>
      </trkpt>
      <trkpt lat="47.9014850" lon="8.1516450">
        <ele>412.4</ele>
        <time>2022-06-06T09:46:10Z</time>
      </trkpt>
      <trkpt lat="47.9014850" lon="8.1516450">
        <ele>412.4</ele>
        <time>2022-06-06T09:46:14Z</time>
      </trkpt>
      <trkpt lat="47.9014850" lon="8.1516450">
        <ele>412.0</ele>
        <time>2022-06-06T09:46:18Z</time>
      </trkpt>
      <trkpt lat="47.9014850" lon="8.1516450">
        <ele>412.6</ele>
        <time>2022-06-06T09:46:22Z</time>
      </trkpt>
      <trkpt lat="47.9014850" lon="8.1516450">
        <ele>412.4</ele>
        <time>2022-06-06T09:46:26Z</time>
      </trkpt>
      <trkpt lat="47.9014850" lon="8.1516450">
        <ele>412.6</ele>
        <time>2022-06-06T09:46:30Z</time>
      </trkpt>
      <trkpt lat="47.9014850" lon="8.1516450">
        <ele>412.2</ele>
        <time>2022-06-06T09:46:34Z</time>
      </trkpt>
      <trkpt lat="47.9014850" lon="8.1516450">
        <ele>412.4</ele>
        <time>2022-06-06T09:46:38Z</time>
      </trkpt>
      <trkpt lat="47.9014850" lon="8.1516450">
        <ele>412.4</ele>
        <time>2022-06-06T09:46:42Z</time>
      </trkpt>
      <trkpt lat="47.9014850" lon="8.1516450">
        <ele>412.4</ele>
        <time>2022-06-06T09:46:46Z</time>
      </trkpt>
      <trkpt lat="47.9014850" lon="8.1516450">
        <ele>412.6</ele>
        <time>2022-06-06T09:46:50Z</time>
      </trkpt>
      <trkpt lat="47.9014850" lon="8.1516450">
        <ele>412.6</ele>
        <time>2022-06-06T09:46:54Z</time>
      </trkpt>
      <trkpt lat="47.9014850" lon="8.1516450">
        <ele>412.6</ele>
        <time>2022-06-06T09:46:58Z</time>
      </trkpt>
      <trkpt lat="47.9014850" lon="8.1516450">
        <ele>412.4</ele>
        <time>2022-06-06T09:47:02Z</time>
      </trkpt>
      <trkpt lat="47.9014850" lon="8.1516450">
        <ele>412.4</ele>
        <time>2022-06-06T09:47:06Z</time>
      </trkpt>
      <trkpt lat="47.9014850" lon="8.1516450">
        <ele>412.6</ele>
        <time>2022-06-06T09:47:10Z</time>
      </trkpt>
      <trkpt lat="47.9014850" lon="8.1516450">
        <ele>412.4</ele>
        <time>2022-06-06T09:47:14Z</time>
      </trkpt>
      <trkpt lat="47.9014850" lon="8.1516450">
        <ele>412.0</ele>
        <time>2022-06-06T09:47:18Z</time>
      </trkpt>
      <trkpt lat="47.9014850" lon="8.1516450">
        <ele>412.2</ele>
        <time>2022-06-06T09:47:22Z</time>
      </trkpt>
      <trkpt lat="47.9014850" lon="8.1516450">
        <ele>412.8</ele>
        <time>2022-06-06T09:47:26Z</time>
      </trkpt>
      <trkpt lat="47.9014850" lon="8.1516450">
        <ele>413.0</ele>
        <time>2022-06-06T09:47:30Z</time>
      </trkpt>
      <trkpt lat="47.9014850" lon="8.1516450">
        <ele>412.6</ele>
        <time>2022-06-06T09:47:34Z</time>
      </trkpt>
      <trkpt lat="47.9014850" lon="8.1516450">
        <ele>412.8</ele>
        <time>2022-06-06T09:47:38Z</time>
      </trkpt>
      <trkpt lat="47.9014850" lon="8.1516450">
        <ele>412.6</ele>
        <time>2022-06-06T09:47:42Z</time>
      </trkpt>
      <trkpt lat="47.9014850" lon="8.1516450">
        <ele>412.8</ele>
        <time>2022-06-06T09:47:46Z</time>
      </trkpt>
      <trkpt lat="47.9014850" lon="8.1516450">
        <ele>412.6</ele>
        <time>2022-06-06T09:47:50Z</time>
      </trkpt>
      <trkpt lat="47.9014850" lon="8.1516450">
        <ele>412.6</ele>
        <time>2022-06-06T09:47:54Z</time>
      </trkpt>
      <trkpt lat="47.9014850" lon="8.1516450">
        <ele>412.8</ele>
        <time>2022-06-06T09:47:58Z</time>
      </trkpt>
      <trkpt lat="47.9014850" lon="8.1516450">
        <ele>412.6</ele>
        <time>2022-06-06T09:48:02Z</time>
      </trkpt>
      <trkpt lat="47.9014850" lon="8.1516450">
        <ele>412.0</ele>
        <time>2022-06-06T09:48:06Z</time>
      </trkpt>
      <trkpt lat="47.9014850" lon="8.1516450">
        <ele>412.0</ele>
        <time>2022-06-06T09:48:10Z</time>
      </trkpt>
      <trkpt lat="47.9014850" lon="8.1516450">
        <ele>412.6</ele>
        <time>2022-06-06T09:48:14Z</time>
      </trkpt>
      <trkpt lat="47.9014850" lon="8.1516450">
        <ele>413.2</ele>
        <time>2022-06-06T09:48:18Z</time>
      </trkpt>
      <trkpt lat="47.9014850" lon="8.1516450">
        <ele>412.2</ele>
        <time>2022-06-06T09:48:22Z</time>
      </trkpt>
      <trkpt lat="47.9014850" lon="8.1516450">
        <ele>412.8</ele>
        <time>2022-06-06T09:48:26Z</time>
      </trkpt>
      <trkpt lat="47.9014850" lon="8.1516450">
        <ele>412.6</ele>
        <time>2022-06-06T09:48:30Z</time>
      </trkpt>
      <trkpt lat="47.9014850" lon="8.1516450">
        <ele>412.2</ele>
        <time>2022-06-06T09:48:34Z</time>
      </trkpt>
      <trkpt lat="47.9014850" lon="8.1516450">
        <ele>412.4</ele>
        <time>2022-06-06T09:48:38Z</time>
      </trkpt>
      <trkpt lat="47.9014850" lon="8.1516450">
        <ele>411.8</ele>
        <time>2022-06-06T09:48:42Z</time>
      </trkpt>
      <trkpt lat="47.9014850" lon="8.1516450">
        <ele>412.0</ele>
        <time>2022-06-06T09:48:46Z</time>
      </trkpt>
      <trkpt lat="47.9014850" lon="8.1516450">
        <ele>412.6</ele>
        <time>2022-06-06T09:48:50Z</time>
      </trkpt>
      <trkpt lat="47.9014850" lon="8.1516450">
        <ele>412.2</ele>
        <time>2022-06-06T09:48:54Z</time>
      </trkpt>
      <trkpt lat="47.9014850" lon="8.1516450">
        <ele>412.0</ele>
        <time>2022-06-06T09:48:58Z</time>
      </trkpt>
      <trkpt lat="47.9014850" lon="8.1516450">
        <ele>412.2</ele>
        <time>2022-06-06T09:49:02Z</time>
      </trkpt>
      <trkpt lat="47.9014850" lon="8.1516450">
        <ele>412.2</ele>
        <time>2022-06-06T09:49:06Z</time>
      </trkpt>
      <trkpt lat="47.9014850" lon="8.1516450">
        <ele>412.2</ele>
        <time>2022-06-06T09:49:10Z</time>
      </trkpt>
      <trkpt lat="47.9014850" lon="8.1516450">
        <ele>412.4</ele>
        <time>2022-06-06T09:49:14Z</time>
      </trkpt>
      <trkpt lat="47.9014850" lon="8.1516450">
        <ele>412.4</ele>
        <time>2022-06-06T09:49:18Z</time>
      </trkpt>
      <trkpt lat="47.9014850" lon="8.1516450">
        <ele>412.2</ele>
        <time>2022-06-06T09:49:22Z</time>
      </trkpt>
      <trkpt lat="47.9014850" lon="8.1516450">
        <ele>412.2</ele>
        <time>2022-06-06T09:49:26Z</time>
      </trkpt>
      <trkpt lat="47.9014850" lon="8.1516450">
        <ele>412.4</ele>
        <time>2022-06-06T09:49:30Z</time>
      </trkpt>
      <trkpt lat="47.9014850" lon="8.1516450">
        <ele>412.8</ele>
        <time>2022-06-06T09:49:34Z</time>
      </trkpt>
      <trkpt lat="47.9014850" lon="8.1516450">
        <ele>412.6</ele>
        <time>2022-06-06T09:49:38Z</time>
      </trkpt>
      <trkpt lat="47.9014850" lon="8.1516450">
        <ele>413.0</ele>
        <time>2022-06-06T09:49:42Z</time>
      </trkpt>
      <trkpt lat="47.9014850" lon="8.1516450">
        <ele>412.8</ele>
        <time>2022-06-06T09:49:46Z</time>
      </trkpt>
      <trkpt lat="47.9014850" lon="8.1516450">
        <ele>412.8</ele>
        <time>2022-06-06T09:49:50Z</time>
      </trkpt>
      <trkpt lat="47.9014850" lon="8.1516450">
        <ele>412.4</ele>
        <time>2022-06-06T09:49:54Z</time>
      </trkpt>
      <trkpt lat="47.9014850" lon="8.1516450">
        <ele>412.8</ele>
        <time>2022-06-06T09:49:58Z</time>
      </trkpt>
      <trkpt lat="47.9014850" lon="8.1516450">
        <ele>412.6</ele>
        <time>2022-06-06T09:50:02Z</time>
      </trkpt>
      <trkpt lat="47.9014850" lon="8.1516450">
        <ele>412.2</ele>
        <time>2022-06-06T09:50:06Z</time>
      </trkpt>
      <trkpt lat="47.9014850" lon="8.1516450">
        <ele>412.4</ele>
        <time>2022-06-06T09:50:10Z</time>
      </trkpt>
      <trkpt lat="47.9014850" lon="8.1516450">
        <ele>412.4</ele>
        <time>2022-06-06T09:50:14Z</time>
      </trkpt>
      <trkpt lat="47.9014850" lon="8.1516450">
        <ele>412.6</ele>
        <time>2022-06-06T09:50:18Z</time>
      </trkpt>
      <trkpt lat="47.9014850" lon="8.1516450">
        <ele>413.2</ele>
        <time>2022-06-06T09:50:22Z</time>
      </trkpt>
      <trkpt lat="47.9014850" lon="8.1516450">
        <ele>412.8</ele>
        <time>2022-06-06T09:50:26Z</time>
      </trkpt>
      <trkpt lat="47.9014850" lon="8.1516450">
        <ele>412.4</ele>
        <time>2022-06-06T09:50:30Z</time>
      </trkpt>
      <trkpt lat="47.9014850" lon="8.1516450">
        <ele>412.6</ele>
        <time>2022-06-06T09:50:34Z</time>
      </trkpt>
      <trkpt lat="47.9014850" lon="8.1516450">
        <ele>412.0</ele>
        <time>2022-06-06T09:50:38Z</time>
      </trkpt>
      <trkpt lat="47.9014850" lon="8.1516450">
        <ele>412.8</ele>
        <time>2022-06-06T09:50:42Z</time>
      </trkpt>
      <trkpt lat="47.9014850" lon="8.1516450">
        <ele>412.6</ele>
        <time>2022-06-06T09:50:46Z</time>
      </trkpt>
      <trkpt lat="47.9014850" lon="8.1516450">
        <ele>412.6</ele>
        <time>2022-06-06T09:50:50Z</time>
      </trkpt>
      <trkpt lat="47.9014850" lon="8.1516450">
        <ele>412.8</ele>
        <time>2022-06-06T09:50:54Z</time>
      </trkpt>
      <trkpt lat="47.9014850" lon="8.1516450">
        <ele>413.0</ele>
        <time>2022-06-06T09:50:58Z</time>
      </trkpt>
      <trkpt lat="47.9014850" lon="8.1516450">
        <ele>412.8</ele>
        <time>2022-06-06T09:51:02Z</time>
      </trkpt>
      <trkpt lat="47.9014850" lon="8.1516450">
        <ele>412.6</ele>
        <time>2022-06-06T09:51:06Z</time>
      </trkpt>
      <trkpt lat="47.9014850" lon="8.1516450">
        <ele>412.2</ele>
        <time>2022-06-06T09:51:10Z</time>
      </trkpt>
      <trkpt lat="47.9014850" lon="8.1516450">
        <ele>412.0</ele>
        <time>2022-06-06T09:51:14Z</time>
      </trkpt>
      <trkpt lat="47.9014850" lon="8.1516450">
        <ele>412.4</ele>
        <time>2022-06-06T09:51:18Z</time>
      </trkpt>
      <trkpt lat="47.9014850" lon="8.1516450">
        <ele>412.4</ele>
        <time>2022-06-06T09:51:22Z</time>
      </trkpt>
      <trkpt lat="47.9014850" lon="8.1516450">
        <ele>412.6</ele>
        <time>2022-06-06T09:51:26Z</time>
      </trkpt>
      <trkpt lat="47.9014850" lon="8.1516450">
        <ele>412.6</ele>
        <time>2022-06-06T09:51:30Z</time>
      </trkpt>
      <trkpt lat="47.9014850" lon="8.1516450">
        <ele>412.6</ele>
        <time>2022-06-06T09:51:34Z</time>
      </trkpt>
      <trkpt lat="47.9014850" lon="8.1516450">
        <ele>412.6</ele>
        <time>2022-06-06T09:51:38Z</time>
      </trkpt>
      <trkpt lat="47.9014850" lon="8.1516450">
        <ele>412.6</ele>
        <time>2022-06-06T09:51:42Z</time>
      </trkpt>
      <trkpt lat="47.9014850" lon="8.1516450">
        <ele>412.8</ele>
        <time>2022-06-06T09:51:46Z</time>
      </trkpt>
      <trkpt lat="47.9014850" lon="8.1516450">
        <ele>413.0</ele>
        <time>2022-06-06T09:51:50Z</time>
      </trkpt>
      <trkpt lat="47.9014850" lon="8.1516450">
        <ele>413.0</ele>
        <time>2022-06-06T09:51:54Z</time>
      </trkpt>
      <trkpt lat="47.9014850" lon="8.1516450">
        <ele>412.8</ele>
        <time>2022-06-06T09:51:58Z</time>
      </trkpt>
      <trkpt lat="47.9014850" lon="8.1516450">
        <ele>412.8</ele>
        <time>2022-06-06T09:52:02Z</time>
      </trkpt>
      <trkpt lat="47.9014850" lon="8.1516450">
        <ele>412.8</ele>
        <time>2022-06-06T09:52:06Z</time>
      </trkpt>
      <trkpt lat="47.9014850" lon="8.1516450">
        <ele>412.4</ele>
        <time>2022-06-06T09:52:10Z</time>
      </trkpt>
      <trkpt lat="47.9014850" lon="8.1516450">
        <ele>412.6</ele>
        <time>2022-06-06T09:52:14Z</time>
      </trkpt>
      <trkpt lat="47.9014850" lon="8.1516450">
        <ele>412.4</ele>
        <time>2022-06-06T09:52:18Z</time>
      </trkpt>
      <trkpt lat="47.9014850" lon="8.1516450">
        <ele>412.2</ele>
        <time>2022-06-06T09:52:22Z</time>
      </trkpt>
      <trkpt lat="47.9014850" lon="8.1516450">
        <ele>412.2</ele>
        <time>2022-06-06T09:52:26Z</time>
      </trkpt>
      <trkpt lat="47.9014850" lon="8.1516450">
        <ele>412.6</ele>
        <time>2022-06-06T09:52:30Z</time>
      </trkpt>
      <trkpt lat="47.9014850" lon="8.1516450">
        <ele>412.8</ele>
        <time>2022-06-06T09:52:34Z</time>
      </trkpt>
      <trkpt lat="47.9014850" lon="8.1516450">
        <ele>412.8</ele>
        <time>2022-06-06T09:52:38Z</time>
      </trkpt>
      <trkpt lat="47.9014850" lon="8.1516450">
        <ele>412.8</ele>
        <time>2022-06-06T09:52:42Z</time>
      </trkpt>
      <trkpt lat="47.9014850" lon="8.1516450">
        <ele>412.8</ele>
        <time>2022-06-06T09:52:46Z</time>
      </trkpt>
      <trkpt lat="47.9014850" lon="8.1516450">
        <ele>413.2</ele>
        <time>2022-06-06T09:52:50Z</time>
      </trkpt>
      <trkpt lat="47.9014850" lon="8.1516450">
        <ele>412.6</ele>
        <time>2022-06-06T09:52:54Z</time>
      </trkpt>
      <trkpt lat="47.9014850" lon="8.1516450">
        <ele>412.6</ele>
        <time>2022-06-06T09:52:58Z</time>
      </trkpt>
      <trkpt lat="47.9014850" lon="8.1516450">
        <ele>412.2</ele>
        <time>2022-06-06T09:53:02Z</time>
      </trkpt>
      <trkpt lat="47.9014850" lon="8.1516450">
        <ele>412.4</ele>
        <time>2022-06-06T09:53:06Z</time>
      </trkpt>
      <trkpt lat="47.9014850" lon="8.1516450">
        <ele>412.8</ele>
        <time>2022-06-06T09:53:10Z</time>
      </trkpt>
      <trkpt lat="47.9014850" lon="8.1516450">
        <ele>412.6</ele>
        <time>2022-06-06T09:53:14Z</time>
      </trkpt>
      <trkpt lat="47.9014850" lon="8.1516450">
        <ele>412.6</ele>
        <time>2022-06-06T09:53:18Z</time>
      </trkpt>
      <trkpt lat="47.9014850" lon="8.1516450">
        <ele>412.6</ele>
        <time>2022-06-06T09:53:22Z</time>
      </trkpt>
      <trkpt lat="47.9014850" lon="8.1516450">
        <ele>412.8</ele>
        <time>2022-06-06T09:53:26Z</time>
      </trkpt>
      <trkpt lat="47.9014850" lon="8.1516450">
        <ele>412.8</ele>
        <time>2022-06-06T09:53:30Z</time>
      </trkpt>
      <trkpt lat="47.9014850" lon="8.1516450">
        <ele>412.8</ele>
        <time>2022-06-06T09:53:34Z</time>
      </trkpt>
      <trkpt lat="47.9014850" lon="8.1516450">
        <ele>412.4</ele>
        <time>2022-06-06T09:53:38Z</time>
      </trkpt>
      <trkpt lat="47.9014850" lon="8.1516450">
        <ele>412.6</ele>
        <time>2022-06-06T09:53:42Z</time>
      </trkpt>
      <trkpt lat="47.9014850" lon="8.1516450">
        <ele>412.6</ele>
        <time>2022-06-06T09:53:46Z</time>
      </trkpt>
      <trkpt lat="47.9014850" lon="8.1516450">
        <ele>412.6</ele>
        <time>2022-06-06T09:53:50Z</time>
      </trkpt>
      <trkpt lat="47.9014850" lon="8.1516450">
        <ele>413.0</ele>
        <time>2022-06-06T09:53:54Z</time>
      </trkpt>
      <trkpt lat="47.9014850" lon="8.1516450">
        <ele>413.2</ele>
        <time>2022-06-06T09:53:58Z</time>
      </trkpt>
      <trkpt lat="47.9014850" lon="8.1516450">
        <ele>413.0</ele>
        <time>2022-06-06T09:54:02Z</time>
      </trkpt>
      <trkpt lat="47.9014850" lon="8.1516450">
        <ele>413.2</ele>
        <time>2022-06-06T09:54:06Z</time>
      </trkpt>
      <trkpt lat="47.9014850" lon="8.1516450">
        <ele>412.6</ele>
        <time>2022-06-06T09:54:10Z</time>
      </trkpt>
      <trkpt lat="47.9014850" lon="8.1516450">
        <ele>412.6</ele>
        <time>2022-06-06T09:54:14Z</time>
      </trkpt>
      <trkpt lat="47.9014850" lon="8.1516450">
        <ele>413.0</ele>
        <time>2022-06-06T09:54:18Z</time>
      </trkpt>
      <trkpt lat="47.9014850" lon="8.1516450">
        <ele>412.8</ele>
        <time>2022-06-06T09:54:22Z</time>
      </trkpt>
      <trkpt lat="47.9014850" lon="8.1516450">
        <ele>412.4</ele>
        <time>2022-06-06T09:54:26Z</time>
      </trkpt>
      <trkpt lat="47.9014850" lon="8.1516450">
        <ele>412.4</ele>
        <time>2022-06-06T09:54:30Z</time>
      </trkpt>
      <trkpt lat="47.9014850" lon="8.1516450">
        <ele>413.0</ele>
        <time>2022-06-06T09:54:34Z</time>
      </trkpt>
      <trkpt lat="47.9014850" lon="8.1516450">
        <ele>412.8</ele>
        <time>2022-06-06T09:54:38Z</time>
      </trkpt>
      <trkpt lat="47.9014850" lon="8.1516450">
        <ele>412.8</ele>
        <time>2022-06-06T09:54:42Z</time>
      </trkpt>
      <trkpt lat="47.9014850" lon="8.1516450">
        <ele>413.2</ele>
        <time>2022-06-06T09:54:46Z</time>
      </trkpt>
      <trkpt lat="47.9014850" lon="8.1516450">
        <ele>413.0</ele>
        <time>2022-06-06T09:54:50Z</time>
      </trkpt>
      <trkpt lat="47.9014850" lon="8.1516450">
        <ele>412.6</ele>
        <time>2022-06-06T09:54:54Z</time>
      </trkpt>
      <trkpt lat="47.9014850" lon="8.1516450">
        <ele>412.2</ele>
        <time>2022-06-06T09:54:58Z</time>
      </trkpt>
      <trkpt lat="47.9014850" lon="8.1516450">
        <ele>412.8</ele>
        <time>2022-06-06T09:55:02Z</time>
      </trkpt>
      <trkpt lat="47.9014850" lon="8.1516450">
        <ele>412.4</ele>
        <time>2022-06-06T09:55:06Z</time>
      </trkpt>
      <trkpt lat="47.9014850" lon="8.1516450">
        <ele>412.0</ele>
        <time>2022-06-06T09:55:10Z</time>
      </trkpt>
      <trkpt lat="47.9014850" lon="8.1516450">
        <ele>412.0</ele>
        <time>2022-06-06T09:55:14Z</time>
      </trkpt>
      <trkpt lat="47.9014850" lon="8.1516450">
        <ele>412.6</ele>
        <time>2022-06-06T09:55:18Z</time>
      </trkpt>
      <trkpt lat="47.9014850" lon="8.1516450">
        <ele>412.0</ele>
        <time>2022-06-06T09:55:22Z</time>
      </trkpt>
      <trkpt lat="47.9014850" lon="8.1516450">
        <ele>412.0</ele>
        <time>2022-06-06T09:55:26Z</time>
      </trkpt>
      <trkpt lat="47.9014850" lon="8.1516450">
        <ele>412.0</ele>
        <time>2022-06-06T09:55:30Z</time>
      </trkpt>
      <trkpt lat="47.9014850" lon="8.1516450">
        <ele>412.6</ele>
        <time>2022-06-06T09:55:34Z</time>
      </trkpt>
      <trkpt lat="47.9014850" lon="8.1516450">
        <ele>411.8</ele>
        <time>2022-06-06T09:55:38Z</time>
      </trkpt>
      <trkpt lat="47.9014850" lon="8.1516450">
        <ele>412.2</ele>
        <time>2022-06-06T09:55:42Z</time>
      </trkpt>
      <trkpt lat="47.9014850" lon="8.1516450">
        <ele>412.2</ele>
        <time>2022-06-06T09:55:46Z</time>
      </trkpt>
      <trkpt lat="47.9014850" lon="8.1516450">
        <ele>412.6</ele>
        <time>2022-06-06T09:55:50Z</time>
      </trkpt>
      <trkpt lat="47.9014850" lon="8.1516450">
        <ele>412.0</ele>
        <time>2022-06-06T09:55:54Z</time>
      </trkpt>
      <trkpt lat="47.9014850" lon="8.1516450">
        <ele>411.8</ele>
        <time>2022-06-06T09:55:58Z</time>
      </trkpt>
      <trkpt lat="47.9014850" lon="8.1516450">
        <ele>412.4</ele>
        <time>2022-06-06T09:56:02Z</time>
      </trkpt>
      <trkpt lat="47.9014850" lon="8.1516450">
        <ele>412.4</ele>
        <time>2022-06-06T09:56:06Z</time>
      </trkpt>
      <trkpt lat="47.9014850" lon="8.1516450">
        <ele>412.2</ele>
        <time>2022-06-06T09:56:10Z</time>
      </trkpt>
      <trkpt lat="47.9014850" lon="8.1516450">
        <ele>412.4</ele>
        <time>2022-06-06T09:56:14Z</time>
      </trkpt>
      <trkpt lat="47.9014850" lon="8.1516450">
        <ele>412.6</ele>
        <time>2022-06-06T09:56:18Z</time>
      </trkpt>
      <trkpt lat="47.9014850" lon="8.1516450">
        <ele>412.8</ele>
        <time>2022-06-06T09:56:22Z</time>
      </trkpt>
      <trkpt lat="47.9014850" lon="8.1516450">
        <ele>412.2</ele>
        <time>2022-06-06T09:56:26Z</time>
      </trkpt>
      <trkpt lat="47.9014850" lon="8.1516450">
        <ele>412.4</ele>
        <time>2022-06-06T09:56:30Z</time>
      </trkpt>
      <trkpt lat="47.9014850" lon="8.1516450">
        <ele>412.2</ele>
        <time>2022-06-06T09:56:34Z</time>
      </trkpt>
      <trkpt lat="47.9014850" lon="8.1516450">
        <ele>412.2</ele>
        <time>2022-06-06T09:56:38Z</time>
      </trkpt>
      <trkpt lat="47.9014850" lon="8.1516450">
        <ele>412.8</ele>
        <time>2022-06-06T09:56:42Z</time>
      </trkpt>
      <trkpt lat="47.9014850" lon="8.1516450">
        <ele>412.2</ele>
        <time>2022-06-06T09:56:46Z</time>
      </trkpt>
      <trkpt lat="47.9014850" lon="8.1516450">
        <ele>412.4</ele>
        <time>2022-06-06T09:56:50Z</time>
      </trkpt>
      <trkpt lat="47.9014850" lon="8.1516450">
        <ele>412.8</ele>
        <time>2022-06-06T09:56:54Z</time>
      </trkpt>
      <trkpt lat="47.9014850" lon="8.1516450">
        <ele>412.6</ele>
        <time>2022-06-06T09:56:58Z</time>
      </trkpt>
      <trkpt lat="47.9014850" lon="8.1516450">
        <ele>412.4</ele>
        <time>2022-06-06T09:57:02Z</time>
      </trkpt>
      <trkpt lat="47.9014850" lon="8.1516450">
        <ele>412.4</ele>
        <time>2022-06-06T09:57:06Z</time>
      </trkpt>
      <trkpt lat="47.9014850" lon="8.1516450">
        <ele>412.0</ele>
        <time>2022-06-06T09:57:10Z</time>
      </trkpt>
      <trkpt lat="47.9014850" lon="8.1516450">
        <ele>412.6</ele>
        <time>2022-06-06T09:57:14Z</time>
      </trkpt>
      <trkpt lat="47.9014850" lon="8.1516450">
        <ele>412.4</ele>
        <time>2022-06-06T09:57:18Z</time>
      </trkpt>
      <trkpt lat="47.9014850" lon="8.1516450">
        <ele>412.4</ele>
        <time>2022-06-06T09:57:22Z</time>
      </trkpt>
      <trkpt lat="47.9014850" lon="8.1516450">
        <ele>412.4</ele>
        <time>2022-06-06T09:57:26Z</time>
      </trkpt>
      <trkpt lat="47.9014850" lon="8.1516450">
        <ele>412.2</ele>
        <time>2022-06-06T09:57:30Z</time>
      </trkpt>
      <trkpt lat="47.9014850" lon="8.1516450">
        <ele>411.6</ele>
        <time>2022-06-06T09:57:34Z</time>
      </trkpt>
      <trkpt lat="47.9014850" lon="8.1516450">
        <ele>412.2</ele>
        <time>2022-06-06T09:57:38Z</time>
      </trkpt>
      <trkpt lat="47.9014850" lon="8.1516450">
        <ele>412.0</ele>
        <time>2022-06-06T09:57:42Z</time>
      </trkpt>
      <trkpt lat="47.9014850" lon="8.1516450">
        <ele>412.0</ele>
        <time>2022-06-06T09:57:46Z</time>
      </trkpt>
      <trkpt lat="47.9014850" lon="8.1516450">
        <ele>412.4</ele>
        <time>2022-06-06T09:57:50Z</time>
      </trkpt>
      <trkpt lat="47.9014850" lon="8.1516450">
        <ele>412.2</ele>
        <time>2022-06-06T09:57:54Z</time>
      </trkpt>
      <trkpt lat="47.9014850" lon="8.1516450">
        <ele>412.4</ele>
        <time>2022-06-06T09:57:58Z</time>
      </trkpt>
      <trkpt lat="47.9014850" lon="8.1516450">
        <ele>412.4</ele>
        <time>2022-06-06T09:58:02Z</time>
      </trkpt>
      <trkpt lat="47.9014850" lon="8.1516450">
        <ele>412.4</ele>
        <time>2022-06-06T09:58:06Z</time>
      </trkpt>
      <trkpt lat="47.9014850" lon="8.1516450">
        <ele>412.4</ele>
        <time>2022-06-06T09:58:10Z</time>
      </trkpt>
      <trkpt lat="47.9014850" lon="8.1516450">
        <ele>412.4</ele>
        <time>2022-06-06T09:58:14Z</time>
      </trkpt>
      <trkpt lat="47.9014850" lon="8.1516450">
        <ele>412.0</ele>
        <time>2022-06-06T09:58:18Z</time>
      </trkpt>
      <trkpt lat="47.9014850" lon="8.1516450">
        <ele>412.2</ele>
        <time>2022-06-06T09:58:22Z</time>
      </trkpt>
      <trkpt lat="47.9014850" lon="8.1516450">
        <ele>411.8</ele>
        <time>2022-06-06T09:58:26Z</time>
      </trkpt>
      <trkpt lat="47.9014850" lon="8.1516450">
        <ele>412.0</ele>
        <time>2022-06-06T09:58:30Z</time>
      </trkpt>
      <trkpt lat="47.9014850" lon="8.1516450">
        <ele>412.2</ele>
        <time>2022-06-06T09:58:34Z</time>
      </trkpt>
      <trkpt lat="47.9014850" lon="8.1516450">
        <ele>412.6</ele>
        <time>2022-06-06T09:58:38Z</time>
      </trkpt>
      <trkpt lat="47.9014850" lon="8.1516450">
        <ele>412.0</ele>
        <time>2022-06-06T09:58:42Z</time>
      </trkpt>
      <trkpt lat="47.9014850" lon="8.1516450">
        <ele>412.2</ele>
        <time>2022-06-06T09:58:46Z</time>
      </trkpt>
      <trkpt lat="47.9014850" lon="8.1516450">
        <ele>412.4</ele>
        <time>2022-06-06T09:58:50Z</time>
      </trkpt>
      <trkpt lat="47.9014850" lon="8.1516450">
        <ele>412.6</ele>
        <time>2022-06-06T09:58:54Z</time>
      </trkpt>
      <trkpt lat="47.9014850" lon="8.1516450">
        <ele>412.2</ele>
        <time>2022-06-06T09:58:58Z</time>
      </trkpt>
      <trkpt lat="47.9014850" lon="8.1516450">
        <ele>412.2</ele>
        <time>2022-06-06T09:59:02Z</time>
      </trkpt>
      <trkpt lat="47.9014850" lon="8.1516450">
        <ele>412.2</ele>
        <time>2022-06-06T09:59:06Z</time>
      </trkpt>
      <trkpt lat="47.9014850" lon="8.1516450">
        <ele>412.4</ele>
        <time>2022-06-06T09:59:10Z</time>
      </trkpt>
      <trkpt lat="47.9014850" lon="8.1516450">
        <ele>412.4</ele>
        <time>2022-06-06T09:59:14Z</time>
      </trkpt>
      <trkpt lat="47.9014850" lon="8.1516450">
        <ele>412.2</ele>
        <time>2022-06-06T09:59:18Z</time>
      </trkpt>
      <trkpt lat="47.9014850" lon="8.1516450">
        <ele>412.2</ele>
        <time>2022-06-06T09:59:22Z</time>
      </trkpt>
      <trkpt lat="47.9014850" lon="8.1516450">
        <ele>412.2</ele>
        <time>2022-06-06T09:59:26Z</time>
      </trkpt>
      <trkpt lat="47.9014850" lon="8.1516450">
        <ele>411.8</ele>
        <time>2022-06-06T09:59:30Z</time>
      </trkpt>
      <trkpt lat="47.9014850" lon="8.1516450">
        <ele>412.2</ele>
        <time>2022-06-06T09:59:34Z</time>
      </trkpt>
      <trkpt lat="47.9014850" lon="8.1516450">
        <ele>412.2</ele>
        <time>2022-06-06T09:59:38Z</time>
      </trkpt>
      <trkpt lat="47.9014850" lon="8.1516450">
        <ele>412.2</ele>
        <time>2022-06-06T09:59:42Z</time>
      </trkpt>
      <trkpt lat="47.9014850" lon="8.1516450">
        <ele>412.4</ele>
        <time>2022-06-06T09:59:46Z</time>
      </trkpt>
      <trkpt lat="47.9014850" lon="8.1516450">
        <ele>412.0</ele>
        <time>2022-06-06T09:59:50Z</time>
      </trkpt>
      <trkpt lat="47.9014850" lon="8.1516450">
        <ele>412.2</ele>
        <time>2022-06-06T09:59:54Z</time>
      </trkpt>
      <trkpt lat="47.9014850" lon="8.1516450">
        <ele>412.4</ele>
        <time>2022-06-06T09:59:58Z</time>
      </trkpt>
      <trkpt lat="47.9014850" lon="8.1516450">
        <ele>412.8</ele>
        <time>2022-06-06T10:00:02Z</time>
      </trkpt>
      <trkpt lat="47.9014850" lon="8.1516450">
        <ele>412.4</ele>
        <time>2022-06-06T10:00:06Z</time>
      </trkpt>
      <trkpt lat="47.9014850" lon="8.1516450">
        <ele>412.8</ele>
        <time>2022-06-06T10:00:10Z</time>
      </trkpt>
      <trkpt lat="47.9014850" lon="8.1516450">
        <ele>413.2</ele>
        <time>2022-06-06T10:00:14Z</time>
      </trkpt>
      <trkpt lat="47.9014850" lon="8.1516450">
        <ele>412.4</ele>
        <time>2022-06-06T10:00:18Z</time>
      </trkpt>
      <trkpt lat="47.9014850" lon="8.1516450">
        <ele>412.4</ele>
        <time>2022-06-06T10:00:22Z</time>
      </trkpt>
      <trkpt lat="47.9014850" lon="8.1516450">
        <ele>412.4</ele>
        <time>2022-06-06T10:00:26Z</time>
      </trkpt>
      <trkpt lat="47.9014850" lon="8.1516450">
        <ele>412.8</ele>
        <time>2022-06-06T10:00:30Z</time>
      </trkpt>
      <trkpt lat="47.9014850" lon="8.1516450">
        <ele>412.8</ele>
        <time>2022-06-06T10:00:34Z</time>
      </trkpt>
      <trkpt lat="47.9014850" lon="8.1516450">
        <ele>413.2</ele>
        <time>2022-06-06T10:00:38Z</time>
      </trkpt>
      <trkpt lat="47.9014850" lon="8.1516450">
        <ele>412.8</ele>
        <time>2022-06-06T10:00:42Z</time>
      </trkpt>
      <trkpt lat="47.9014850" lon="8.1516450">
        <ele>412.8</ele>
        <time>2022-06-06T10:00:46Z</time>
      </trkpt>
      <trkpt lat="47.9014850" lon="8.1516450">
        <ele>412.4</ele>
        <time>2022-06-06T10:00:50Z</time>
      </trkpt>
      <trkpt lat="47.9014850" lon="8.1516450">
        <ele>412.6</ele>
        <time>2022-06-06T10:00:54Z</time>
      </trkpt>
      <trkpt lat="47.9014850" lon="8.1516450">
        <ele>412.4</ele>
        <time>2022-06-06T10:00:58Z</time>
      </trkpt>
      <trkpt lat="47.9014850" lon="8.1516450">
        <ele>412.8</ele>
        <time>2022-06-06T10:01:02Z</time>
      </trkpt>
      <trkpt lat="47.9014850" lon="8.1516450">
        <ele>412.8</ele>
        <time>2022-06-06T10:01:06Z</time>
      </trkpt>
      <trkpt lat="47.9014850" lon="8.1516450">
        <ele>412.8</ele>
        <time>2022-06-06T10:01:10Z</time>
      </trkpt>
      <trkpt lat="47.9014850" lon="8.1516450">
        <ele>412.8</ele>
        <time>2022-06-06T10:01:14Z</time>
      </trkpt>
      <trkpt lat="47.9014850" lon="8.1516450">
        <ele>413.2</ele>
        <time>2022-06-06T10:01:18Z</time>
      </trkpt>
      <trkpt lat="47.9014850" lon="8.1516450">
        <ele>412.6</ele>
        <time>2022-06-06T10:01:22Z</time>
      </trkpt>
      <trkpt lat="47.9014850" lon="8.1516450">
        <ele>412.8</ele>
        <time>2022-06-06T10:01:26Z</time>
      </trkpt>
      <trkpt lat="47.9014850" lon="8.1516450">
        <ele>412.8</ele>
        <time>2022-06-06T10:01:30Z</time>
      </trkpt>
      <trkpt lat="47.9014850" lon="8.1516450">
        <ele>413.6</ele>
        <time>2022-06-06T10:01:34Z</time>
      </trkpt>
      <trkpt lat="47.9014850" lon="8.1516450">
        <ele>413.4</ele>
        <time>2022-06-06T10:01:38Z</time>
      </trkpt>
      <trkpt lat="47.9014850" lon="8.1516450">
        <ele>413.6</ele>
        <time>2022-06-06T10:01:42Z</time>
      </trkpt>
      <trkpt lat="47.9014850" lon="8.1516450">
        <ele>413.8</ele>
        <time>2022-06-06T10:01:46Z</time>
      </trkpt>
      <trkpt lat="47.9014850" lon="8.1516450">
        <ele>413.6</ele>
        <time>2022-06-06T10:01:50Z</time>
      </trkpt>
      <trkpt lat="47.9014850" lon="8.1516450">
        <ele>413.0</ele>
        <time>2022-06-06T10:01:54Z</time>
      </trkpt>
      <trkpt lat="47.9014850" lon="8.1516450">
        <ele>413.4</ele>
        <time>2022-06-06T10:01:58Z</time>
      </trkpt>
      <trkpt lat="47.9014850" lon="8.1516450">
        <ele>413.4</ele>
        <time>2022-06-06T10:02:02Z</time>
      </trkpt>
      <trkpt lat="47.9014850" lon="8.1516450">
        <ele>413.6</ele>
        <time>2022-06-06T10:02:06Z</time>
      </trkpt>
      <trkpt lat="47.9014850" lon="8.1516450">
        <ele>413.4</ele>
        <time>2022-06-06T10:02:10Z</time>
      </trkpt>
      <trkpt lat="47.9014850" lon="8.1516450">
        <ele>413.6</ele>
        <time>2022-06-06T10:02:14Z</time>
      </trkpt>
      <trkpt lat="47.9014850" lon="8.1516450">
        <ele>413.4</ele>
        <time>2022-06-06T10:02:18Z</time>
      </trkpt>
      <trkpt lat="47.9014850" lon="8.1516450">
        <ele>413.4</ele>
        <time>2022-06-06T10:02:22Z</time>
      </trkpt>
      <trkpt lat="47.9014850" lon="8.1516450">
        <ele>413.0</ele>
        <time>2022-06-06T10:02:26Z</time>
      </trkpt>
      <trkpt lat="47.9014850" lon="8.1516450">
        <ele>413.6</ele>
        <time>2022-06-06T10:02:30Z</time>
      </trkpt>
      <trkpt lat="47.9014850" lon="8.1516450">
        <ele>413.4</ele>
        <time>2022-06-06T10:02:34Z</time>
      </trkpt>
      <trkpt lat="47.9014850" lon="8.1516450">
        <ele>413.4</ele>
        <time>2022-06-06T10:02:38Z</time>
      </trkpt>
      <trkpt lat="47.9014850" lon="8.1516450">
        <ele>413.4</ele>
        <time>2022-06-06T10:02:42Z</time>
      </trkpt>
      <trkpt lat="47.9014850" lon="8.1516450">
        <ele>413.2</ele>
        <time>2022-06-06T10:02:46Z</time>
      </trkpt>
      <trkpt lat="47.9014850" lon="8.1516450">
        <ele>413.2</ele>
        <time>2022-06-06T10:02:50Z</time>
      </trkpt>
      <trkpt lat="47.9014850" lon="8.1516450">
        <ele>412.8</ele>
        <time>2022-06-06T10:02:54Z</time>
      </trkpt>
      <trkpt lat="47.9014850" lon="8.1516450">
        <ele>413.4</ele>
        <time>2022-06-06T10:02:58Z</time>
      </trkpt>
      <trkpt lat="47.9014850" lon="8.1516450">
        <ele>413.6</ele>
        <time>2022-06-06T10:03:02Z</time>
      </trkpt>
      <trkpt lat="47.9014850" lon="8.1516450">
        <ele>413.0</ele>
        <time>2022-06-06T10:03:06Z</time>
      </trkpt>
      <trkpt lat="47.9014850" lon="8.1516450">
        <ele>413.0</ele>
        <time>2022-06-06T10:03:10Z</time>
      </trkpt>
      <trkpt lat="47.9014850" lon="8.1516450">
        <ele>413.2</ele>
        <time>2022-06-06T10:03:14Z</time>
      </trkpt>
      <trkpt lat="47.9014510" lon="8.1516560">
        <ele>413.4</ele>
        <time>2022-06-06T10:03:18Z</time>
      </trkpt>
      <trkpt lat="47.9014510" lon="8.1516560">
        <ele>413.6</ele>
        <time>2022-06-06T10:03:22Z</time>
      </trkpt>
      <trkpt lat="47.9014510" lon="8.1516560">
        <ele>413.2</ele>
        <time>2022-06-06T10:03:26Z</time>
      </trkpt>
      <trkpt lat="47.9014510" lon="8.1516560">
        <ele>413.6</ele>
        <time>2022-06-06T10:03:30Z</time>
      </trkpt>
      <trkpt lat="47.9014450" lon="8.1516730">
        <ele>413.4</ele>
        <time>2022-06-06T10:03:34Z</time>
      </trkpt>
      <trkpt lat="47.9014230" lon="8.1517100">
        <ele>413.2</ele>
        <time>2022-06-06T10:03:38Z</time>
      </trkpt>
      <trkpt lat="47.9013430" lon="8.1517300">
        <ele>413.0</ele>
        <time>2022-06-06T10:03:42Z</time>
      </trkpt>
      <trkpt lat="47.9012280" lon="8.1516960">
        <ele>413.2</ele>
        <time>2022-06-06T10:03:46Z</time>
      </trkpt>
      <trkpt lat="47.9011480" lon="8.1515630">
        <ele>413.6</ele>
        <time>2022-06-06T10:03:50Z</time>
      </trkpt>
      <trkpt lat="47.9011110" lon="8.1513950">
        <ele>413.0</ele>
        <time>2022-06-06T10:03:54Z</time>
      </trkpt>
      <trkpt lat="47.9010750" lon="8.1512010">
        <ele>413.6</ele>
        <time>2022-06-06T10:03:58Z</time>
      </trkpt>
      <trkpt lat="47.9010330" lon="8.1509960">
        <ele>413.6</ele>
        <time>2022-06-06T10:04:02Z</time>
      </trkpt>
      <trkpt lat="47.9010030" lon="8.1508010">
        <ele>414.2</ele>
        <time>2022-06-06T10:04:06Z</time>
      </trkpt>
      <trkpt lat="47.9009680" lon="8.1506110">
        <ele>413.6</ele>
        <time>2022-06-06T10:04:10Z</time>
      </trkpt>
      <trkpt lat="47.9009280" lon="8.1504210">
        <ele>413.2</ele>
        <time>2022-06-06T10:04:14Z</time>
      </trkpt>
      <trkpt lat="47.9008800" lon="8.1502230">
        <ele>412.8</ele>
        <time>2022-06-06T10:04:18Z</time>
      </trkpt>
      <trkpt lat="47.9008360" lon="8.1500260">
        <ele>413.2</ele>
        <time>2022-06-06T10:04:22Z</time>
      </trkpt>
      <trkpt lat="47.9007910" lon="8.1498280">
        <ele>412.6</ele>
        <time>2022-06-06T10:04:26Z</time>
      </trkpt>
      <trkpt lat="47.9007360" lon="8.1496160">
        <ele>412.6</ele>
        <time>2022-06-06T10:04:30Z</time>
      </trkpt>
      <trkpt lat="47.9006810" lon="8.1494110">
        <ele>412.4</ele>
        <time>2022-06-06T10:04:34Z</time>
      </trkpt>
      <trkpt lat="47.9006230" lon="8.1492080">
        <ele>413.0</ele>
        <time>2022-06-06T10:04:38Z</time>
      </trkpt>
      <trkpt lat="47.9005480" lon="8.1490150">
        <ele>413.4</ele>
        <time>2022-06-06T10:04:42Z</time>
      </trkpt>
      <trkpt lat="47.9004680" lon="8.1488210">
        <ele>413.2</ele>
        <time>2022-06-06T10:04:46Z</time>
      </trkpt>
      <trkpt lat="47.9003900" lon="8.1486450">
        <ele>413.2</ele>
        <time>2022-06-06T10:04:50Z</time>
      </trkpt>
      <trkpt lat="47.9003200" lon="8.1484830">
        <ele>412.8</ele>
        <time>2022-06-06T10:04:54Z</time>
      </trkpt>
      <trkpt lat="47.9002580" lon="8.1483350">
        <ele>412.8</ele>
        <time>2022-06-06T10:04:58Z</time>
      </trkpt>
      <trkpt lat="47.9001810" lon="8.1482780">
        <ele>412.8</ele>
        <time>2022-06-06T10:05:02Z</time>
      </trkpt>
      <trkpt lat="47.9001380" lon="8.1482210">
        <ele>412.4</ele>
        <time>2022-06-06T10:05:06Z</time>
      </trkpt>
      <trkpt lat="47.9000800" lon="8.1481450">
        <ele>411.2</ele>
        <time>2022-06-06T10:05:10Z</time>
      </trkpt>
      <trkpt lat="47.9000080" lon="8.1480500">
        <ele>411.0</ele>
        <time>2022-06-06T10:05:14Z</time>
      </trkpt>
      <trkpt lat="47.8999850" lon="8.1479380">
        <ele>410.2</ele>
        <time>2022-06-06T10:05:18Z</time>
      </trkpt>
      <trkpt lat="47.8999850" lon="8.1479380">
        <ele>409.4</ele>
        <time>2022-06-06T10:05:22Z</time>
      </trkpt>
      <trkpt lat="47.8999850" lon="8.1479380">
        <ele>409.6</ele>
        <time>2022-06-06T10:05:26Z</time>
      </trkpt>
      <trkpt lat="47.8999780" lon="8.1478700">
        <ele>409.0</ele>
        <time>2022-06-06T10:05:30Z</time>
      </trkpt>
      <trkpt lat="47.8999550" lon="8.1478210">
        <ele>409.2</ele>
        <time>2022-06-06T10:05:34Z</time>
      </trkpt>
      <trkpt lat="47.8999780" lon="8.1479100">
        <ele>409.6</ele>
        <time>2022-06-06T10:05:38Z</time>
      </trkpt>
      <trkpt lat="47.8999910" lon="8.1480150">
        <ele>411.2</ele>
        <time>2022-06-06T10:05:42Z</time>
      </trkpt>
      <trkpt lat="47.9000380" lon="8.1480150">
        <ele>411.8</ele>
        <time>2022-06-06T10:05:46Z</time>
      </trkpt>
      <trkpt lat="47.9000450" lon="8.1479260">
        <ele>412.6</ele>
        <time>2022-06-06T10:05:50Z</time>
      </trkpt>
      <trkpt lat="47.9000210" lon="8.1477900">
        <ele>412.4</ele>
        <time>2022-06-06T10:05:54Z</time>
      </trkpt>
      <trkpt lat="47.8999760" lon="8.1476210">
        <ele>412.0</ele>
        <time>2022-06-06T10:05:58Z</time>
      </trkpt>
      <trkpt lat="47.8999360" lon="8.1474380">
        <ele>413.0</ele>
        <time>2022-06-06T10:06:02Z</time>
      </trkpt>
      <trkpt lat="47.8999010" lon="8.1472260">
        <ele>412.2</ele>
        <time>2022-06-06T10:06:06Z</time>
      </trkpt>
      <trkpt lat="47.8998650" lon="8.1470010">
        <ele>411.4</ele>
        <time>2022-06-06T10:06:10Z</time>
      </trkpt>
      <trkpt lat="47.8998280" lon="8.1467650">
        <ele>411.2</ele>
        <time>2022-06-06T10:06:14Z</time>
      </trkpt>
      <trkpt lat="47.8997880" lon="8.1465250">
        <ele>411.2</ele>
        <time>2022-06-06T10:06:18Z</time>
      </trkpt>
      <trkpt lat="47.8997380" lon="8.1462930">
        <ele>410.8</ele>
        <time>2022-06-06T10:06:22Z</time>
      </trkpt>
      <trkpt lat="47.8996660" lon="8.1460680">
        <ele>410.2</ele>
        <time>2022-06-06T10:06:26Z</time>
      </trkpt>
      <trkpt lat="47.8996080" lon="8.1459150">
        <ele>410.4</ele>
        <time>2022-06-06T10:06:30Z</time>
      </trkpt>
      <trkpt lat="47.8995680" lon="8.1457950">
        <ele>410.2</ele>
        <time>2022-06-06T10:06:34Z</time>
      </trkpt>
      <trkpt lat="47.8995500" lon="8.1456460">
        <ele>409.6</ele>
        <time>2022-06-06T10:06:38Z</time>
      </trkpt>
      <trkpt lat="47.8994910" lon="8.1454800">
        <ele>409.8</ele>
        <time>2022-06-06T10:06:42Z</time>
      </trkpt>
      <trkpt lat="47.8994110" lon="8.1453060">
        <ele>409.4</ele>
        <time>2022-06-06T10:06:46Z</time>
      </trkpt>
      <trkpt lat="47.8993330" lon="8.1451460">
        <ele>409.0</ele>
        <time>2022-06-06T10:06:50Z</time>
      </trkpt>
      <trkpt lat="47.8992260" lon="8.1450000">
        <ele>408.4</ele>
        <time>2022-06-06T10:06:54Z</time>
      </trkpt>
      <trkpt lat="47.8991210" lon="8.1448160">
        <ele>408.0</ele>
        <time>2022-06-06T10:06:58Z</time>
      </trkpt>
      <trkpt lat="47.8990060" lon="8.1446280">
        <ele>408.2</ele>
        <time>2022-06-06T10:07:02Z</time>
      </trkpt>
      <trkpt lat="47.8988960" lon="8.1444450">
        <ele>408.8</ele>
        <time>2022-06-06T10:07:06Z</time>
      </trkpt>
      <trkpt lat="47.8988010" lon="8.1442680">
        <ele>409.4</ele>
        <time>2022-06-06T10:07:10Z</time>
      </trkpt>
      <trkpt lat="47.8987110" lon="8.1441100">
        <ele>409.8</ele>
        <time>2022-06-06T10:07:14Z</time>
      </trkpt>
      <trkpt lat="47.8986180" lon="8.1439710">
        <ele>409.2</ele>
        <time>2022-06-06T10:07:18Z</time>
      </trkpt>
      <trkpt lat="47.8985260" lon="8.1438600">
        <ele>409.2</ele>
        <time>2022-06-06T10:07:22Z</time>
      </trkpt>
      <trkpt lat="47.8984300" lon="8.1437550">
        <ele>410.4</ele>
        <time>2022-06-06T10:07:26Z</time>
      </trkpt>
      <trkpt lat="47.8983210" lon="8.1436530">
        <ele>410.6</ele>
        <time>2022-06-06T10:07:30Z</time>
      </trkpt>
      <trkpt lat="47.8982050" lon="8.1435680">
        <ele>411.4</ele>
        <time>2022-06-06T10:07:34Z</time>
      </trkpt>
      <trkpt lat="47.8980800" lon="8.1435050">
        <ele>411.8</ele>
        <time>2022-06-06T10:07:38Z</time>
      </trkpt>
      <trkpt lat="47.8979500" lon="8.1434430">
        <ele>412.2</ele>
        <time>2022-06-06T10:07:42Z</time>
      </trkpt>
      <trkpt lat="47.8978230" lon="8.1433950">
        <ele>412.8</ele>
        <time>2022-06-06T10:07:46Z</time>
      </trkpt>
      <trkpt lat="47.8977030" lon="8.1433460">
        <ele>413.6</ele>
        <time>2022-06-06T10:07:50Z</time>
      </trkpt>
      <trkpt lat="47.8975830" lon="8.1433080">
        <ele>414.4</ele>
        <time>2022-06-06T10:07:54Z</time>
      </trkpt>
      <trkpt lat="47.8974600" lon="8.1432710">
        <ele>414.8</ele>
        <time>2022-06-06T10:07:58Z</time>
      </trkpt>
      <trkpt lat="47.8973360" lon="8.1432410">
        <ele>414.4</ele>
        <time>2022-06-06T10:08:02Z</time>
      </trkpt>
      <trkpt lat="47.8972200" lon="8.1431860">
        <ele>414.4</ele>
        <time>2022-06-06T10:08:06Z</time>
      </trkpt>
      <trkpt lat="47.8971050" lon="8.1431530">
        <ele>415.4</ele>
        <time>2022-06-06T10:08:10Z</time>
      </trkpt>
      <trkpt lat="47.8969880" lon="8.1431060">
        <ele>416.4</ele>
        <time>2022-06-06T10:08:14Z</time>
      </trkpt>
      <trkpt lat="47.8968650" lon="8.1430600">
        <ele>416.6</ele>
        <time>2022-06-06T10:08:18Z</time>
      </trkpt>
      <trkpt lat="47.8967480" lon="8.1430000">
        <ele>416.8</ele>
        <time>2022-06-06T10:08:22Z</time>
      </trkpt>
      <trkpt lat="47.8966350" lon="8.1429310">
        <ele>416.4</ele>
        <time>2022-06-06T10:08:26Z</time>
      </trkpt>
      <trkpt lat="47.8965260" lon="8.1428600">
        <ele>417.4</ele>
        <time>2022-06-06T10:08:30Z</time>
      </trkpt>
      <trkpt lat="47.8964360" lon="8.1427700">
        <ele>418.2</ele>
        <time>2022-06-06T10:08:34Z</time>
      </trkpt>
      <trkpt lat="47.8963510" lon="8.1426550">
        <ele>419.0</ele>
        <time>2022-06-06T10:08:38Z</time>
      </trkpt>
      <trkpt lat="47.8962700" lon="8.1425330">
        <ele>419.0</ele>
        <time>2022-06-06T10:08:42Z</time>
      </trkpt>
      <trkpt lat="47.8961860" lon="8.1424100">
        <ele>419.4</ele>
        <time>2022-06-06T10:08:46Z</time>
      </trkpt>
      <trkpt lat="47.8961050" lon="8.1422760">
        <ele>420.6</ele>
        <time>2022-06-06T10:08:50Z</time>
      </trkpt>
      <trkpt lat="47.8960160" lon="8.1421400">
        <ele>420.6</ele>
        <time>2022-06-06T10:08:54Z</time>
      </trkpt>
      <trkpt lat="47.8959250" lon="8.1420150">
        <ele>420.8</ele>
        <time>2022-06-06T10:08:58Z</time>
      </trkpt>
      <trkpt lat="47.8958380" lon="8.1418750">
        <ele>421.0</ele>
        <time>2022-06-06T10:09:02Z</time>
      </trkpt>
      <trkpt lat="47.8957530" lon="8.1417350">
        <ele>421.6</ele>
        <time>2022-06-06T10:09:06Z</time>
      </trkpt>
      <trkpt lat="47.8956760" lon="8.1415850">
        <ele>422.0</ele>
        <time>2022-06-06T10:09:10Z</time>
      </trkpt>
      <trkpt lat="47.8955930" lon="8.1414500">
        <ele>422.2</ele>
        <time>2022-06-06T10:09:14Z</time>
      </trkpt>
      <trkpt lat="47.8954900" lon="8.1413160">
        <ele>423.0</ele>
        <time>2022-06-06T10:09:18Z</time>
      </trkpt>
      <trkpt lat="47.8953800" lon="8.1412000">
        <ele>424.0</ele>
        <time>2022-06-06T10:09:22Z</time>
      </trkpt>
      <trkpt lat="47.8952760" lon="8.1410730">
        <ele>424.2</ele>
        <time>2022-06-06T10:09:26Z</time>
      </trkpt>
      <trkpt lat="47.8951730" lon="8.1409530">
        <ele>424.4</ele>
        <time>2022-06-06T10:09:30Z</time>
      </trkpt>
      <trkpt lat="47.8950730" lon="8.1408430">
        <ele>424.6</ele>
        <time>2022-06-06T10:09:34Z</time>
      </trkpt>
      <trkpt lat="47.8949580" lon="8.1407430">
        <ele>425.0</ele>
        <time>2022-06-06T10:09:38Z</time>
      </trkpt>
      <trkpt lat="47.8948460" lon="8.1406480">
        <ele>425.2</ele>
        <time>2022-06-06T10:09:42Z</time>
      </trkpt>
      <trkpt lat="47.8947330" lon="8.1405460">
        <ele>425.4</ele>
        <time>2022-06-06T10:09:46Z</time>
      </trkpt>
      <trkpt lat="47.8946200" lon="8.1404500">
        <ele>425.6</ele>
        <time>2022-06-06T10:09:50Z</time>
      </trkpt>
      <trkpt lat="47.8945180" lon="8.1403360">
        <ele>426.0</ele>
        <time>2022-06-06T10:09:54Z</time>
      </trkpt>
      <trkpt lat="47.8944050" lon="8.1402230">
        <ele>426.2</ele>
        <time>2022-06-06T10:09:58Z</time>
      </trkpt>
      <trkpt lat="47.8943030" lon="8.1401210">
        <ele>427.0</ele>
        <time>2022-06-06T10:10:02Z</time>
      </trkpt>
      <trkpt lat="47.8942080" lon="8.1400060">
        <ele>427.4</ele>
        <time>2022-06-06T10:10:06Z</time>
      </trkpt>
      <trkpt lat="47.8941180" lon="8.1398930">
        <ele>426.8</ele>
        <time>2022-06-06T10:10:10Z</time>
      </trkpt>
      <trkpt lat="47.8940100" lon="8.1397850">
        <ele>427.0</ele>
        <time>2022-06-06T10:10:14Z</time>
      </trkpt>
      <trkpt lat="47.8939060" lon="8.1396610">
        <ele>428.2</ele>
        <time>2022-06-06T10:10:18Z</time>
      </trkpt>
      <trkpt lat="47.8938000" lon="8.1395360">
        <ele>428.4</ele>
        <time>2022-06-06T10:10:22Z</time>
      </trkpt>
      <trkpt lat="47.8937000" lon="8.1393860">
        <ele>428.4</ele>
        <time>2022-06-06T10:10:26Z</time>
      </trkpt>
      <trkpt lat="47.8936030" lon="8.1392330">
        <ele>428.4</ele>
        <time>2022-06-06T10:10:30Z</time>
      </trkpt>
      <trkpt lat="47.8935050" lon="8.1390780">
        <ele>428.4</ele>
        <time>2022-06-06T10:10:34Z</time>
      </trkpt>
      <trkpt lat="47.8934180" lon="8.1389280">
        <ele>428.0</ele>
        <time>2022-06-06T10:10:38Z</time>
      </trkpt>
      <trkpt lat="47.8933230" lon="8.1387680">
        <ele>428.8</ele>
        <time>2022-06-06T10:10:42Z</time>
      </trkpt>
      <trkpt lat="47.8932410" lon="8.1386060">
        <ele>429.0</ele>
        <time>2022-06-06T10:10:46Z</time>
      </trkpt>
      <trkpt lat="47.8931660" lon="8.1384300">
        <ele>428.4</ele>
        <time>2022-06-06T10:10:50Z</time>
      </trkpt>
      <trkpt lat="47.8931000" lon="8.1382560">
        <ele>428.8</ele>
        <time>2022-06-06T10:10:54Z</time>
      </trkpt>
      <trkpt lat="47.8930110" lon="8.1381400">
        <ele>429.4</ele>
        <time>2022-06-06T10:10:58Z</time>
      </trkpt>
      <trkpt lat="47.8929280" lon="8.1381000">
        <ele>429.0</ele>
        <time>2022-06-06T10:11:02Z</time>
      </trkpt>
      <trkpt lat="47.8928580" lon="8.1381000">
        <ele>428.8</ele>
        <time>2022-06-06T10:11:06Z</time>
      </trkpt>
      <trkpt lat="47.8928580" lon="8.1381000">
        <ele>428.6</ele>
        <time>2022-06-06T10:11:10Z</time>
      </trkpt>
      <trkpt lat="47.8928580" lon="8.1381000">
        <ele>428.4</ele>
        <time>2022-06-06T10:11:14Z</time>
      </trkpt>
      <trkpt lat="47.8928580" lon="8.1381000">
        <ele>428.0</ele>
        <time>2022-06-06T10:11:18Z</time>
      </trkpt>
      <trkpt lat="47.8928580" lon="8.1381000">
        <ele>428.2</ele>
        <time>2022-06-06T10:11:22Z</time>
      </trkpt>
      <trkpt lat="47.8928580" lon="8.1381000">
        <ele>428.4</ele>
        <time>2022-06-06T10:11:26Z</time>
      </trkpt>
      <trkpt lat="47.8928580" lon="8.1381000">
        <ele>428.4</ele>
        <time>2022-06-06T10:11:30Z</time>
      </trkpt>
      <trkpt lat="47.8928580" lon="8.1381000">
        <ele>428.6</ele>
        <time>2022-06-06T10:11:34Z</time>
      </trkpt>
      <trkpt lat="47.8928580" lon="8.1381000">
        <ele>428.2</ele>
        <time>2022-06-06T10:11:38Z</time>
      </trkpt>
      <trkpt lat="47.8928580" lon="8.1381000">
        <ele>427.6</ele>
        <time>2022-06-06T10:11:42Z</time>
      </trkpt>
      <trkpt lat="47.8928580" lon="8.1381000">
        <ele>428.4</ele>
        <time>2022-06-06T10:11:46Z</time>
      </trkpt>
      <trkpt lat="47.8928580" lon="8.1381000">
        <ele>428.0</ele>
        <time>2022-06-06T10:11:50Z</time>
      </trkpt>
      <trkpt lat="47.8928580" lon="8.1381000">
        <ele>427.6</ele>
        <time>2022-06-06T10:11:54Z</time>
      </trkpt>
      <trkpt lat="47.8928580" lon="8.1381000">
        <ele>428.4</ele>
        <time>2022-06-06T10:11:58Z</time>
      </trkpt>
      <trkpt lat="47.8928580" lon="8.1381000">
        <ele>428.4</ele>
        <time>2022-06-06T10:12:02Z</time>
      </trkpt>
      <trkpt lat="47.8928580" lon="8.1381000">
        <ele>428.8</ele>
        <time>2022-06-06T10:12:06Z</time>
      </trkpt>
      <trkpt lat="47.8928580" lon="8.1381000">
        <ele>428.8</ele>
        <time>2022-06-06T10:12:10Z</time>
      </trkpt>
      <trkpt lat="47.8928580" lon="8.1381000">
        <ele>428.4</ele>
        <time>2022-06-06T10:12:14Z</time>
      </trkpt>
      <trkpt lat="47.8928580" lon="8.1381000">
        <ele>428.2</ele>
        <time>2022-06-06T10:12:18Z</time>
      </trkpt>
      <trkpt lat="47.8928580" lon="8.1381000">
        <ele>427.8</ele>
        <time>2022-06-06T10:12:22Z</time>
      </trkpt>
      <trkpt lat="47.8928580" lon="8.1381000">
        <ele>427.0</ele>
        <time>2022-06-06T10:12:26Z</time>
      </trkpt>
      <trkpt lat="47.8928580" lon="8.1381000">
        <ele>427.8</ele>
        <time>2022-06-06T10:12:30Z</time>
      </trkpt>
      <trkpt lat="47.8928580" lon="8.1381000">
        <ele>429.0</ele>
        <time>2022-06-06T10:12:34Z</time>
      </trkpt>
      <trkpt lat="47.8928580" lon="8.1381000">
        <ele>428.8</ele>
        <time>2022-06-06T10:12:38Z</time>
      </trkpt>
      <trkpt lat="47.8928580" lon="8.1381000">
        <ele>428.6</ele>
        <time>2022-06-06T10:12:42Z</time>
      </trkpt>
      <trkpt lat="47.8928580" lon="8.1381000">
        <ele>428.6</ele>
        <time>2022-06-06T10:12:46Z</time>
      </trkpt>
      <trkpt lat="47.8928580" lon="8.1381000">
        <ele>428.6</ele>
        <time>2022-06-06T10:12:50Z</time>
      </trkpt>
      <trkpt lat="47.8928580" lon="8.1381000">
        <ele>428.4</ele>
        <time>2022-06-06T10:12:54Z</time>
      </trkpt>
      <trkpt lat="47.8928580" lon="8.1381000">
        <ele>428.6</ele>
        <time>2022-06-06T10:12:58Z</time>
      </trkpt>
      <trkpt lat="47.8928580" lon="8.1381000">
        <ele>428.8</ele>
        <time>2022-06-06T10:13:02Z</time>
      </trkpt>
      <trkpt lat="47.8928580" lon="8.1381000">
        <ele>428.8</ele>
        <time>2022-06-06T10:13:06Z</time>
      </trkpt>
      <trkpt lat="47.8928580" lon="8.1381000">
        <ele>428.2</ele>
        <time>2022-06-06T10:13:10Z</time>
      </trkpt>
      <trkpt lat="47.8928580" lon="8.1381000">
        <ele>428.0</ele>
        <time>2022-06-06T10:13:14Z</time>
      </trkpt>
      <trkpt lat="47.8928580" lon="8.1381000">
        <ele>428.0</ele>
        <time>2022-06-06T10:13:18Z</time>
      </trkpt>
      <trkpt lat="47.8928580" lon="8.1381000">
        <ele>428.8</ele>
        <time>2022-06-06T10:13:22Z</time>
      </trkpt>
      <trkpt lat="47.8928310" lon="8.1380730">
        <ele>428.8</ele>
        <time>2022-06-06T10:13:26Z</time>
      </trkpt>
      <trkpt lat="47.8928410" lon="8.1380410">
        <ele>429.2</ele>
        <time>2022-06-06T10:13:30Z</time>
      </trkpt>
      <trkpt lat="47.8928630" lon="8.1379930">
        <ele>429.0</ele>
        <time>2022-06-06T10:13:34Z</time>
      </trkpt>
      <trkpt lat="47.8929150" lon="8.1379630">
        <ele>429.4</ele>
        <time>2022-06-06T10:13:38Z</time>
      </trkpt>
      <trkpt lat="47.8929960" lon="8.1379410">
        <ele>429.2</ele>
        <time>2022-06-06T10:13:42Z</time>
      </trkpt>
      <trkpt lat="47.8930180" lon="8.1377360">
        <ele>427.0</ele>
        <time>2022-06-06T10:13:46Z</time>
      </trkpt>
      <trkpt lat="47.8930130" lon="8.1375210">
        <ele>428.0</ele>
        <time>2022-06-06T10:13:50Z</time>
      </trkpt>
      <trkpt lat="47.8930180" lon="8.1373200">
        <ele>428.4</ele>
        <time>2022-06-06T10:13:54Z</time>
      </trkpt>
      <trkpt lat="47.8930200" lon="8.1371200">
        <ele>429.6</ele>
        <time>2022-06-06T10:13:58Z</time>
      </trkpt>
      <trkpt lat="47.8929950" lon="8.1369180">
        <ele>430.0</ele>
        <time>2022-06-06T10:14:02Z</time>
      </trkpt>
      <trkpt lat="47.8928930" lon="8.1367560">
        <ele>429.0</ele>
        <time>2022-06-06T10:14:06Z</time>
      </trkpt>
      <trkpt lat="47.8927680" lon="8.1366250">
        <ele>428.6</ele>
        <time>2022-06-06T10:14:10Z</time>
      </trkpt>
      <trkpt lat="47.8926380" lon="8.1364900">
        <ele>429.8</ele>
        <time>2022-06-06T10:14:14Z</time>
      </trkpt>
      <trkpt lat="47.8925010" lon="8.1363630">
        <ele>429.4</ele>
        <time>2022-06-06T10:14:18Z</time>
      </trkpt>
      <trkpt lat="47.8923630" lon="8.1362130">
        <ele>429.6</ele>
        <time>2022-06-06T10:14:22Z</time>
      </trkpt>
      <trkpt lat="47.8922530" lon="8.1360230">
        <ele>429.0</ele>
        <time>2022-06-06T10:14:26Z</time>
      </trkpt>
      <trkpt lat="47.8921700" lon="8.1358180">
        <ele>428.6</ele>
        <time>2022-06-06T10:14:30Z</time>
      </trkpt>
      <trkpt lat="47.8920950" lon="8.1355930">
        <ele>427.6</ele>
        <time>2022-06-06T10:14:34Z</time>
      </trkpt>
      <trkpt lat="47.8920060" lon="8.1353850">
        <ele>428.6</ele>
        <time>2022-06-06T10:14:38Z</time>
      </trkpt>
      <trkpt lat="47.8919000" lon="8.1351960">
        <ele>428.0</ele>
        <time>2022-06-06T10:14:42Z</time>
      </trkpt>
      <trkpt lat="47.8917810" lon="8.1350380">
        <ele>426.4</ele>
        <time>2022-06-06T10:14:46Z</time>
      </trkpt>
      <trkpt lat="47.8916430" lon="8.1348960">
        <ele>428.0</ele>
        <time>2022-06-06T10:14:50Z</time>
      </trkpt>
      <trkpt lat="47.8914980" lon="8.1347580">
        <ele>427.4</ele>
        <time>2022-06-06T10:14:54Z</time>
      </trkpt>
      <trkpt lat="47.8913560" lon="8.1346180">
        <ele>428.2</ele>
        <time>2022-06-06T10:14:58Z</time>
      </trkpt>
      <trkpt lat="47.8912330" lon="8.1344430">
        <ele>427.0</ele>
        <time>2022-06-06T10:15:02Z</time>
      </trkpt>
      <trkpt lat="47.8911430" lon="8.1342300">
        <ele>427.4</ele>
        <time>2022-06-06T10:15:06Z</time>
      </trkpt>
      <trkpt lat="47.8910780" lon="8.1340050">
        <ele>427.2</ele>
        <time>2022-06-06T10:15:10Z</time>
      </trkpt>
      <trkpt lat="47.8910230" lon="8.1337750">
        <ele>427.8</ele>
        <time>2022-06-06T10:15:14Z</time>
      </trkpt>
      <trkpt lat="47.8909530" lon="8.1335660">
        <ele>427.0</ele>
        <time>2022-06-06T10:15:18Z</time>
      </trkpt>
      <trkpt lat="47.8908230" lon="8.1333930">
        <ele>425.2</ele>
        <time>2022-06-06T10:15:22Z</time>
      </trkpt>
      <trkpt lat="47.8906510" lon="8.1332550">
        <ele>425.4</ele>
        <time>2022-06-06T10:15:26Z</time>
      </trkpt>
      <trkpt lat="47.8904730" lon="8.1331210">
        <ele>425.8</ele>
        <time>2022-06-06T10:15:30Z</time>
      </trkpt>
      <trkpt lat="47.8903250" lon="8.1329480">
        <ele>425.0</ele>
        <time>2022-06-06T10:15:34Z</time>
      </trkpt>
      <trkpt lat="47.8902060" lon="8.1327410">
        <ele>424.8</ele>
        <time>2022-06-06T10:15:38Z</time>
      </trkpt>
      <trkpt lat="47.8901230" lon="8.1325050">
        <ele>424.4</ele>
        <time>2022-06-06T10:15:42Z</time>
      </trkpt>
      <trkpt lat="47.8900410" lon="8.1322660">
        <ele>424.0</ele>
        <time>2022-06-06T10:15:46Z</time>
      </trkpt>
      <trkpt lat="47.8899380" lon="8.1320750">
        <ele>425.0</ele>
        <time>2022-06-06T10:15:50Z</time>
      </trkpt>
      <trkpt lat="47.8897980" lon="8.1318910">
        <ele>425.0</ele>
        <time>2022-06-06T10:15:54Z</time>
      </trkpt>
      <trkpt lat="47.8896350" lon="8.1317430">
        <ele>424.4</ele>
        <time>2022-06-06T10:15:58Z</time>
      </trkpt>
      <trkpt lat="47.8894850" lon="8.1315750">
        <ele>423.8</ele>
        <time>2022-06-06T10:16:02Z</time>
      </trkpt>
      <trkpt lat="47.8893550" lon="8.1313960">
        <ele>423.2</ele>
        <time>2022-06-06T10:16:06Z</time>
      </trkpt>
      <trkpt lat="47.8892660" lon="8.1311560">
        <ele>423.0</ele>
        <time>2022-06-06T10:16:10Z</time>
      </trkpt>
      <trkpt lat="47.8892030" lon="8.1308960">
        <ele>421.6</ele>
        <time>2022-06-06T10:16:14Z</time>
      </trkpt>
      <trkpt lat="47.8891300" lon="8.1306600">
        <ele>423.0</ele>
        <time>2022-06-06T10:16:18Z</time>
      </trkpt>
      <trkpt lat="47.8890710" lon="8.1304050">
        <ele>421.8</ele>
        <time>2022-06-06T10:16:22Z</time>
      </trkpt>
      <trkpt lat="47.8889800" lon="8.1301800">
        <ele>422.0</ele>
        <time>2022-06-06T10:16:26Z</time>
      </trkpt>
      <trkpt lat="47.8888910" lon="8.1299630">
        <ele>421.4</ele>
        <time>2022-06-06T10:16:30Z</time>
      </trkpt>
      <trkpt lat="47.8888430" lon="8.1297260">
        <ele>421.6</ele>
        <time>2022-06-06T10:16:34Z</time>
      </trkpt>
      <trkpt lat="47.8888110" lon="8.1294980">
        <ele>421.0</ele>
        <time>2022-06-06T10:16:38Z</time>
      </trkpt>
      <trkpt lat="47.8887250" lon="8.1293400">
        <ele>420.8</ele>
        <time>2022-06-06T10:16:42Z</time>
      </trkpt>
      <trkpt lat="47.8886900" lon="8.1291080">
        <ele>420.4</ele>
        <time>2022-06-06T10:16:46Z</time>
      </trkpt>
      <trkpt lat="47.8886050" lon="8.1289130">
        <ele>418.2</ele>
        <time>2022-06-06T10:16:50Z</time>
      </trkpt>
      <trkpt lat="47.8884560" lon="8.1288200">
        <ele>416.8</ele>
        <time>2022-06-06T10:16:54Z</time>
      </trkpt>
      <trkpt lat="47.8883060" lon="8.1288400">
        <ele>415.8</ele>
        <time>2022-06-06T10:16:58Z</time>
      </trkpt>
      <trkpt lat="47.8881560" lon="8.1289860">
        <ele>414.4</ele>
        <time>2022-06-06T10:17:02Z</time>
      </trkpt>
      <trkpt lat="47.8880050" lon="8.1292060">
        <ele>412.6</ele>
        <time>2022-06-06T10:17:06Z</time>
      </trkpt>
      <trkpt lat="47.8878210" lon="8.1294000">
        <ele>410.4</ele>
        <time>2022-06-06T10:17:10Z</time>
      </trkpt>
      <trkpt lat="47.8875900" lon="8.1296550">
        <ele>407.0</ele>
        <time>2022-06-06T10:17:14Z</time>
      </trkpt>
      <trkpt lat="47.8873180" lon="8.1299050">
        <ele>404.4</ele>
        <time>2022-06-06T10:17:18Z</time>
      </trkpt>
      <trkpt lat="47.8870700" lon="8.1300830">
        <ele>403.8</ele>
        <time>2022-06-06T10:17:22Z</time>
      </trkpt>
      <trkpt lat="47.8868550" lon="8.1302010">
        <ele>405.8</ele>
        <time>2022-06-06T10:17:26Z</time>
      </trkpt>
      <trkpt lat="47.8866480" lon="8.1303230">
        <ele>405.2</ele>
        <time>2022-06-06T10:17:30Z</time>
      </trkpt>
      <trkpt lat="47.8864450" lon="8.1304730">
        <ele>405.4</ele>
        <time>2022-06-06T10:17:34Z</time>
      </trkpt>
      <trkpt lat="47.8863080" lon="8.1306300">
        <ele>405.8</ele>
        <time>2022-06-06T10:17:38Z</time>
      </trkpt>
      <trkpt lat="47.8861860" lon="8.1307430">
        <ele>405.2</ele>
        <time>2022-06-06T10:17:42Z</time>
      </trkpt>
      <trkpt lat="47.8861480" lon="8.1310080">
        <ele>404.2</ele>
        <time>2022-06-06T10:17:46Z</time>
      </trkpt>
      <trkpt lat="47.8861710" lon="8.1312700">
        <ele>404.2</ele>
        <time>2022-06-06T10:17:50Z</time>
      </trkpt>
      <trkpt lat="47.8861180" lon="8.1315200">
        <ele>404.6</ele>
        <time>2022-06-06T10:17:54Z</time>
      </trkpt>
      <trkpt lat="47.8859850" lon="8.1317060">
        <ele>404.4</ele>
        <time>2022-06-06T10:17:58Z</time>
      </trkpt>
      <trkpt lat="47.8858460" lon="8.1319050">
        <ele>404.8</ele>
        <time>2022-06-06T10:18:02Z</time>
      </trkpt>
      <trkpt lat="47.8856910" lon="8.1320730">
        <ele>404.6</ele>
        <time>2022-06-06T10:18:06Z</time>
      </trkpt>
      <trkpt lat="47.8855880" lon="8.1322350">
        <ele>404.8</ele>
        <time>2022-06-06T10:18:10Z</time>
      </trkpt>
      <trkpt lat="47.8854660" lon="8.1323950">
        <ele>404.8</ele>
        <time>2022-06-06T10:18:14Z</time>
      </trkpt>
      <trkpt lat="47.8853760" lon="8.1325550">
        <ele>405.2</ele>
        <time>2022-06-06T10:18:18Z</time>
      </trkpt>
      <trkpt lat="47.8853300" lon="8.1327780">
        <ele>406.0</ele>
        <time>2022-06-06T10:18:22Z</time>
      </trkpt>
      <trkpt lat="47.8853200" lon="8.1330080">
        <ele>405.8</ele>
        <time>2022-06-06T10:18:26Z</time>
      </trkpt>
      <trkpt lat="47.8853780" lon="8.1332180">
        <ele>406.0</ele>
        <time>2022-06-06T10:18:30Z</time>
      </trkpt>
      <trkpt lat="47.8854580" lon="8.1334510">
        <ele>406.2</ele>
        <time>2022-06-06T10:18:34Z</time>
      </trkpt>
      <trkpt lat="47.8855250" lon="8.1336550">
        <ele>406.4</ele>
        <time>2022-06-06T10:18:38Z</time>
      </trkpt>
      <trkpt lat="47.8856260" lon="8.1338500">
        <ele>407.0</ele>
        <time>2022-06-06T10:18:42Z</time>
      </trkpt>
      <trkpt lat="47.8856930" lon="8.1340730">
        <ele>406.6</ele>
        <time>2022-06-06T10:18:46Z</time>
      </trkpt>
      <trkpt lat="47.8857560" lon="8.1343510">
        <ele>406.4</ele>
        <time>2022-06-06T10:18:50Z</time>
      </trkpt>
      <trkpt lat="47.8858130" lon="8.1346400">
        <ele>405.4</ele>
        <time>2022-06-06T10:18:54Z</time>
      </trkpt>
      <trkpt lat="47.8858700" lon="8.1349360">
        <ele>405.2</ele>
        <time>2022-06-06T10:18:58Z</time>
      </trkpt>
      <trkpt lat="47.8859580" lon="8.1351950">
        <ele>405.2</ele>
        <time>2022-06-06T10:19:02Z</time>
      </trkpt>
      <trkpt lat="47.8860550" lon="8.1354650">
        <ele>405.2</ele>
        <time>2022-06-06T10:19:06Z</time>
      </trkpt>
      <trkpt lat="47.8861330" lon="8.1357400">
        <ele>404.8</ele>
        <time>2022-06-06T10:19:10Z</time>
      </trkpt>
      <trkpt lat="47.8862400" lon="8.1360100">
        <ele>404.4</ele>
        <time>2022-06-06T10:19:14Z</time>
      </trkpt>
      <trkpt lat="47.8863800" lon="8.1362480">
        <ele>404.2</ele>
        <time>2022-06-06T10:19:18Z</time>
      </trkpt>
      <trkpt lat="47.8864910" lon="8.1364780">
        <ele>404.4</ele>
        <time>2022-06-06T10:19:22Z</time>
      </trkpt>
      <trkpt lat="47.8865780" lon="8.1367310">
        <ele>404.2</ele>
        <time>2022-06-06T10:19:26Z</time>
      </trkpt>
      <trkpt lat="47.8866510" lon="8.1369960">
        <ele>403.4</ele>
        <time>2022-06-06T10:19:30Z</time>
      </trkpt>
      <trkpt lat="47.8867400" lon="8.1372480">
        <ele>404.4</ele>
        <time>2022-06-06T10:19:34Z</time>
      </trkpt>
      <trkpt lat="47.8868350" lon="8.1374710">
        <ele>404.8</ele>
        <time>2022-06-06T10:19:38Z</time>
      </trkpt>
      <trkpt lat="47.8869380" lon="8.1376700">
        <ele>404.2</ele>
        <time>2022-06-06T10:19:42Z</time>
      </trkpt>
      <trkpt lat="47.8870210" lon="8.1378730">
        <ele>404.6</ele>
        <time>2022-06-06T10:19:46Z</time>
      </trkpt>
      <trkpt lat="47.8870750" lon="8.1380810">
        <ele>404.6</ele>
        <time>2022-06-06T10:19:50Z</time>
      </trkpt>
      <trkpt lat="47.8871280" lon="8.1382800">
        <ele>405.2</ele>
        <time>2022-06-06T10:19:54Z</time>
      </trkpt>
      <trkpt lat="47.8872160" lon="8.1384950">
        <ele>405.4</ele>
        <time>2022-06-06T10:19:58Z</time>
      </trkpt>
      <trkpt lat="47.8872800" lon="8.1387080">
        <ele>405.6</ele>
        <time>2022-06-06T10:20:02Z</time>
      </trkpt>
      <trkpt lat="47.8873750" lon="8.1388750">
        <ele>405.8</ele>
        <time>2022-06-06T10:20:06Z</time>
      </trkpt>
      <trkpt lat="47.8874680" lon="8.1390510">
        <ele>405.4</ele>
        <time>2022-06-06T10:20:10Z</time>
      </trkpt>
      <trkpt lat="47.8875660" lon="8.1392080">
        <ele>406.0</ele>
        <time>2022-06-06T10:20:14Z</time>
      </trkpt>
      <trkpt lat="47.8876430" lon="8.1393910">
        <ele>405.4</ele>
        <time>2022-06-06T10:20:18Z</time>
      </trkpt>
      <trkpt lat="47.8876730" lon="8.1395880">
        <ele>406.0</ele>
        <time>2022-06-06T10:20:22Z</time>
      </trkpt>
      <trkpt lat="47.8876680" lon="8.1397880">
        <ele>406.0</ele>
        <time>2022-06-06T10:20:26Z</time>
      </trkpt>
      <trkpt lat="47.8876800" lon="8.1399350">
        <ele>405.8</ele>
        <time>2022-06-06T10:20:30Z</time>
      </trkpt>
      <trkpt lat="47.8876780" lon="8.1400960">
        <ele>405.8</ele>
        <time>2022-06-06T10:20:34Z</time>
      </trkpt>
      <trkpt lat="47.8876880" lon="8.1402680">
        <ele>405.8</ele>
        <time>2022-06-06T10:20:38Z</time>
      </trkpt>
      <trkpt lat="47.8877360" lon="8.1403600">
        <ele>406.2</ele>
        <time>2022-06-06T10:20:42Z</time>
      </trkpt>
      <trkpt lat="47.8877360" lon="8.1403600">
        <ele>406.4</ele>
        <time>2022-06-06T10:20:46Z</time>
      </trkpt>
      <trkpt lat="47.8877360" lon="8.1403600">
        <ele>406.2</ele>
        <time>2022-06-06T10:20:50Z</time>
      </trkpt>
      <trkpt lat="47.8877360" lon="8.1403600">
        <ele>406.4</ele>
        <time>2022-06-06T10:20:54Z</time>
      </trkpt>
      <trkpt lat="47.8877360" lon="8.1403600">
        <ele>406.0</ele>
        <time>2022-06-06T10:20:58Z</time>
      </trkpt>
      <trkpt lat="47.8877360" lon="8.1403600">
        <ele>406.0</ele>
        <time>2022-06-06T10:21:02Z</time>
      </trkpt>
      <trkpt lat="47.8877360" lon="8.1403600">
        <ele>406.4</ele>
        <time>2022-06-06T10:21:06Z</time>
      </trkpt>
      <trkpt lat="47.8877360" lon="8.1403600">
        <ele>406.2</ele>
        <time>2022-06-06T10:21:10Z</time>
      </trkpt>
      <trkpt lat="47.8877360" lon="8.1403600">
        <ele>406.0</ele>
        <time>2022-06-06T10:21:14Z</time>
      </trkpt>
      <trkpt lat="47.8877360" lon="8.1403600">
        <ele>406.2</ele>
        <time>2022-06-06T10:21:18Z</time>
      </trkpt>
      <trkpt lat="47.8877360" lon="8.1403600">
        <ele>406.2</ele>
        <time>2022-06-06T10:21:22Z</time>
      </trkpt>
      <trkpt lat="47.8877360" lon="8.1403600">
        <ele>406.2</ele>
        <time>2022-06-06T10:21:26Z</time>
      </trkpt>
      <trkpt lat="47.8877560" lon="8.1403710">
        <ele>406.0</ele>
        <time>2022-06-06T10:21:30Z</time>
      </trkpt>
      <trkpt lat="47.8877210" lon="8.1404230">
        <ele>406.0</ele>
        <time>2022-06-06T10:21:34Z</time>
      </trkpt>
      <trkpt lat="47.8876560" lon="8.1404760">
        <ele>406.2</ele>
        <time>2022-06-06T10:21:38Z</time>
      </trkpt>
      <trkpt lat="47.8876560" lon="8.1404760">
        <ele>406.0</ele>
        <time>2022-06-06T10:21:42Z</time>
      </trkpt>
      <trkpt lat="47.8876560" lon="8.1404760">
        <ele>406.0</ele>
        <time>2022-06-06T10:21:46Z</time>
      </trkpt>
      <trkpt lat="47.8876510" lon="8.1405050">
        <ele>406.0</ele>
        <time>2022-06-06T10:21:50Z</time>
      </trkpt>
      <trkpt lat="47.8876650" lon="8.1406200">
        <ele>406.4</ele>
        <time>2022-06-06T10:21:54Z</time>
      </trkpt>
      <trkpt lat="47.8876860" lon="8.1407830">
        <ele>406.0</ele>
        <time>2022-06-06T10:21:58Z</time>
      </trkpt>
      <trkpt lat="47.8876760" lon="8.1409700">
        <ele>406.8</ele>
        <time>2022-06-06T10:22:02Z</time>
      </trkpt>
      <trkpt lat="47.8876430" lon="8.1411750">
        <ele>406.4</ele>
        <time>2022-06-06T10:22:06Z</time>
      </trkpt>
      <trkpt lat="47.8876310" lon="8.1413680">
        <ele>406.6</ele>
        <time>2022-06-06T10:22:10Z</time>
      </trkpt>
      <trkpt lat="47.8876530" lon="8.1415630">
        <ele>406.6</ele>
        <time>2022-06-06T10:22:14Z</time>
      </trkpt>
      <trkpt lat="47.8877110" lon="8.1417360">
        <ele>406.8</ele>
        <time>2022-06-06T10:22:18Z</time>
      </trkpt>
      <trkpt lat="47.8877460" lon="8.1418960">
        <ele>406.8</ele>
        <time>2022-06-06T10:22:22Z</time>
      </trkpt>
      <trkpt lat="47.8877750" lon="8.1420560">
        <ele>406.4</ele>
        <time>2022-06-06T10:22:26Z</time>
      </trkpt>
      <trkpt lat="47.8877760" lon="8.1422450">
        <ele>406.8</ele>
        <time>2022-06-06T10:22:30Z</time>
      </trkpt>
      <trkpt lat="47.8878380" lon="8.1424150">
        <ele>406.6</ele>
        <time>2022-06-06T10:22:34Z</time>
      </trkpt>
      <trkpt lat="47.8878910" lon="8.1426010">
        <ele>406.2</ele>
        <time>2022-06-06T10:22:38Z</time>
      </trkpt>
      <trkpt lat="47.8879760" lon="8.1427510">
        <ele>406.8</ele>
        <time>2022-06-06T10:22:42Z</time>
      </trkpt>
      <trkpt lat="47.8880400" lon="8.1428960">
        <ele>406.6</ele>
        <time>2022-06-06T10:22:46Z</time>
      </trkpt>
      <trkpt lat="47.8880980" lon="8.1430600">
        <ele>406.8</ele>
        <time>2022-06-06T10:22:50Z</time>
      </trkpt>
      <trkpt lat="47.8881730" lon="8.1431550">
        <ele>406.6</ele>
        <time>2022-06-06T10:22:54Z</time>
      </trkpt>
      <trkpt lat="47.8882650" lon="8.1432800">
        <ele>406.0</ele>
        <time>2022-06-06T10:22:58Z</time>
      </trkpt>
      <trkpt lat="47.8883810" lon="8.1434310">
        <ele>406.4</ele>
        <time>2022-06-06T10:23:02Z</time>
      </trkpt>
      <trkpt lat="47.8884300" lon="8.1435630">
        <ele>406.4</ele>
        <time>2022-06-06T10:23:06Z</time>
      </trkpt>
      <trkpt lat="47.8885050" lon="8.1436900">
        <ele>406.2</ele>
        <time>2022-06-06T10:23:10Z</time>
      </trkpt>
      <trkpt lat="47.8885250" lon="8.1438480">
        <ele>406.4</ele>
        <time>2022-06-06T10:23:14Z</time>
      </trkpt>
      <trkpt lat="47.8886130" lon="8.1439760">
        <ele>406.6</ele>
        <time>2022-06-06T10:23:18Z</time>
      </trkpt>
      <trkpt lat="47.8886800" lon="8.1440900">
        <ele>406.4</ele>
        <time>2022-06-06T10:23:22Z</time>
      </trkpt>
      <trkpt lat="47.8887000" lon="8.1441950">
        <ele>407.0</ele>
        <time>2022-06-06T10:23:26Z</time>
      </trkpt>
      <trkpt lat="47.8887660" lon="8.1443310">
        <ele>406.4</ele>
        <time>2022-06-06T10:23:30Z</time>
      </trkpt>
      <trkpt lat="47.8888410" lon="8.1445030">
        <ele>406.4</ele>
        <time>2022-06-06T10:23:34Z</time>
      </trkpt>
      <trkpt lat="47.8889250" lon="8.1446730">
        <ele>406.6</ele>
        <time>2022-06-06T10:23:38Z</time>
      </trkpt>
      <trkpt lat="47.8889760" lon="8.1448510">
        <ele>406.6</ele>
        <time>2022-06-06T10:23:42Z</time>
      </trkpt>
      <trkpt lat="47.8890500" lon="8.1450060">
        <ele>406.4</ele>
        <time>2022-06-06T10:23:46Z</time>
      </trkpt>
      <trkpt lat="47.8891400" lon="8.1451230">
        <ele>406.8</ele>
        <time>2022-06-06T10:23:50Z</time>
      </trkpt>
      <trkpt lat="47.8892480" lon="8.1452410">
        <ele>406.8</ele>
        <time>2022-06-06T10:23:54Z</time>
      </trkpt>
      <trkpt lat="47.8893530" lon="8.1453610">
        <ele>407.0</ele>
        <time>2022-06-06T10:23:58Z</time>
      </trkpt>
      <trkpt lat="47.8894460" lon="8.1455080">
        <ele>406.8</ele>
        <time>2022-06-06T10:24:02Z</time>
      </trkpt>
      <trkpt lat="47.8895580" lon="8.1456410">
        <ele>406.2</ele>
        <time>2022-06-06T10:24:06Z</time>
      </trkpt>
      <trkpt lat="47.8896600" lon="8.1457500">
        <ele>406.8</ele>
        <time>2022-06-06T10:24:10Z</time>
      </trkpt>
      <trkpt lat="47.8897600" lon="8.1458630">
        <ele>406.8</ele>
        <time>2022-06-06T10:24:14Z</time>
      </trkpt>
      <trkpt lat="47.8898160" lon="8.1460100">
        <ele>407.6</ele>
        <time>2022-06-06T10:24:18Z</time>
      </trkpt>
      <trkpt lat="47.8898800" lon="8.1461880">
        <ele>406.8</ele>
        <time>2022-06-06T10:24:22Z</time>
      </trkpt>
      <trkpt lat="47.8899700" lon="8.1463480">
        <ele>406.8</ele>
        <time>2022-06-06T10:24:26Z</time>
      </trkpt>
      <trkpt lat="47.8900630" lon="8.1465060">
        <ele>407.0</ele>
        <time>2022-06-06T10:24:30Z</time>
      </trkpt>
      <trkpt lat="47.8901430" lon="8.1466700">
        <ele>407.0</ele>
        <time>2022-06-06T10:24:34Z</time>
      </trkpt>
      <trkpt lat="47.8902100" lon="8.1468050">
        <ele>406.8</ele>
        <time>2022-06-06T10:24:38Z</time>
      </trkpt>
      <trkpt lat="47.8903210" lon="8.1469830">
        <ele>406.0</ele>
        <time>2022-06-06T10:24:42Z</time>
      </trkpt>
      <trkpt lat="47.8904300" lon="8.1471460">
        <ele>405.8</ele>
        <time>2022-06-06T10:24:46Z</time>
      </trkpt>
      <trkpt lat="47.8905410" lon="8.1473030">
        <ele>405.0</ele>
        <time>2022-06-06T10:24:50Z</time>
      </trkpt>
      <trkpt lat="47.8906710" lon="8.1474710">
        <ele>404.4</ele>
        <time>2022-06-06T10:24:54Z</time>
      </trkpt>
      <trkpt lat="47.8908110" lon="8.1476550">
        <ele>403.8</ele>
        <time>2022-06-06T10:24:58Z</time>
      </trkpt>
      <trkpt lat="47.8909310" lon="8.1478350">
        <ele>403.2</ele>
        <time>2022-06-06T10:25:02Z</time>
      </trkpt>
      <trkpt lat="47.8910100" lon="8.1480480">
        <ele>403.0</ele>
        <time>2022-06-06T10:25:06Z</time>
      </trkpt>
      <trkpt lat="47.8910410" lon="8.1482360">
        <ele>403.6</ele>
        <time>2022-06-06T10:25:10Z</time>
      </trkpt>
      <trkpt lat="47.8911060" lon="8.1484380">
        <ele>403.8</ele>
        <time>2022-06-06T10:25:14Z</time>
      </trkpt>
      <trkpt lat="47.8912150" lon="8.1485930">
        <ele>404.2</ele>
        <time>2022-06-06T10:25:18Z</time>
      </trkpt>
      <trkpt lat="47.8913330" lon="8.1487580">
        <ele>404.6</ele>
        <time>2022-06-06T10:25:22Z</time>
      </trkpt>
      <trkpt lat="47.8914230" lon="8.1489330">
        <ele>404.6</ele>
        <time>2022-06-06T10:25:26Z</time>
      </trkpt>
      <trkpt lat="47.8915100" lon="8.1490950">
        <ele>405.0</ele>
        <time>2022-06-06T10:25:30Z</time>
      </trkpt>
      <trkpt lat="47.8915880" lon="8.1492660">
        <ele>404.2</ele>
        <time>2022-06-06T10:25:34Z</time>
      </trkpt>
      <trkpt lat="47.8916450" lon="8.1494710">
        <ele>404.0</ele>
        <time>2022-06-06T10:25:38Z</time>
      </trkpt>
      <trkpt lat="47.8917350" lon="8.1496650">
        <ele>404.0</ele>
        <time>2022-06-06T10:25:42Z</time>
      </trkpt>
      <trkpt lat="47.8917960" lon="8.1498610">
        <ele>404.4</ele>
        <time>2022-06-06T10:25:46Z</time>
      </trkpt>
      <trkpt lat="47.8918360" lon="8.1500180">
        <ele>404.8</ele>
        <time>2022-06-06T10:25:50Z</time>
      </trkpt>
      <trkpt lat="47.8918900" lon="8.1501810">
        <ele>405.2</ele>
        <time>2022-06-06T10:25:54Z</time>
      </trkpt>
      <trkpt lat="47.8919710" lon="8.1503360">
        <ele>405.4</ele>
        <time>2022-06-06T10:25:58Z</time>
      </trkpt>
      <trkpt lat="47.8920810" lon="8.1504950">
        <ele>406.4</ele>
        <time>2022-06-06T10:26:02Z</time>
      </trkpt>
      <trkpt lat="47.8921500" lon="8.1506150">
        <ele>406.6</ele>
        <time>2022-06-06T10:26:06Z</time>
      </trkpt>
      <trkpt lat="47.8921910" lon="8.1507430">
        <ele>405.6</ele>
        <time>2022-06-06T10:26:10Z</time>
      </trkpt>
      <trkpt lat="47.8922310" lon="8.1508760">
        <ele>405.4</ele>
        <time>2022-06-06T10:26:14Z</time>
      </trkpt>
      <trkpt lat="47.8924460" lon="8.1511010">
        <ele>404.4</ele>
        <time>2022-06-06T10:26:18Z</time>
      </trkpt>
      <trkpt lat="47.8925850" lon="8.1512880">
        <ele>404.8</ele>
        <time>2022-06-06T10:26:22Z</time>
      </trkpt>
      <trkpt lat="47.8926810" lon="8.1514180">
        <ele>405.2</ele>
        <time>2022-06-06T10:26:26Z</time>
      </trkpt>
      <trkpt lat="47.8927310" lon="8.1515780">
        <ele>406.0</ele>
        <time>2022-06-06T10:26:30Z</time>
      </trkpt>
      <trkpt lat="47.8927630" lon="8.1516960">
        <ele>406.0</ele>
        <time>2022-06-06T10:26:34Z</time>
      </trkpt>
      <trkpt lat="47.8927930" lon="8.1519100">
        <ele>405.8</ele>
        <time>2022-06-06T10:26:38Z</time>
      </trkpt>
      <trkpt lat="47.8928680" lon="8.1521030">
        <ele>405.2</ele>
        <time>2022-06-06T10:26:42Z</time>
      </trkpt>
      <trkpt lat="47.8930660" lon="8.1522850">
        <ele>405.8</ele>
        <time>2022-06-06T10:26:46Z</time>
      </trkpt>
      <trkpt lat="47.8931730" lon="8.1524800">
        <ele>405.8</ele>
        <time>2022-06-06T10:26:50Z</time>
      </trkpt>
      <trkpt lat="47.8932530" lon="8.1526660">
        <ele>405.6</ele>
        <time>2022-06-06T10:26:54Z</time>
      </trkpt>
      <trkpt lat="47.8933800" lon="8.1528530">
        <ele>405.8</ele>
        <time>2022-06-06T10:26:58Z</time>
      </trkpt>
      <trkpt lat="47.8934430" lon="8.1530150">
        <ele>406.6</ele>
        <time>2022-06-06T10:27:02Z</time>
      </trkpt>
      <trkpt lat="47.8934700" lon="8.1531660">
        <ele>407.2</ele>
        <time>2022-06-06T10:27:06Z</time>
      </trkpt>
      <trkpt lat="47.8935560" lon="8.1533280">
        <ele>408.0</ele>
        <time>2022-06-06T10:27:10Z</time>
      </trkpt>
      <trkpt lat="47.8936680" lon="8.1534730">
        <ele>408.8</ele>
        <time>2022-06-06T10:27:14Z</time>
      </trkpt>
      <trkpt lat="47.8938010" lon="8.1536250">
        <ele>409.8</ele>
        <time>2022-06-06T10:27:18Z</time>
      </trkpt>
      <trkpt lat="47.8938960" lon="8.1537610">
        <ele>410.6</ele>
        <time>2022-06-06T10:27:22Z</time>
      </trkpt>
      <trkpt lat="47.8939900" lon="8.1538800">
        <ele>411.0</ele>
        <time>2022-06-06T10:27:26Z</time>
      </trkpt>
      <trkpt lat="47.8940560" lon="8.1540010">
        <ele>411.6</ele>
        <time>2022-06-06T10:27:30Z</time>
      </trkpt>
      <trkpt lat="47.8940960" lon="8.1540980">
        <ele>412.0</ele>
        <time>2022-06-06T10:27:34Z</time>
      </trkpt>
      <trkpt lat="47.8941380" lon="8.1542150">
        <ele>412.8</ele>
        <time>2022-06-06T10:27:38Z</time>
      </trkpt>
      <trkpt lat="47.8942610" lon="8.1543460">
        <ele>413.8</ele>
        <time>2022-06-06T10:27:42Z</time>
      </trkpt>
      <trkpt lat="47.8943310" lon="8.1545000">
        <ele>413.6</ele>
        <time>2022-06-06T10:27:46Z</time>
      </trkpt>
      <trkpt lat="47.8944100" lon="8.1546400">
        <ele>415.2</ele>
        <time>2022-06-06T10:27:50Z</time>
      </trkpt>
      <trkpt lat="47.8944660" lon="8.1547800">
        <ele>415.6</ele>
        <time>2022-06-06T10:27:54Z</time>
      </trkpt>
      <trkpt lat="47.8945260" lon="8.1549060">
        <ele>416.6</ele>
        <time>2022-06-06T10:27:58Z</time>
      </trkpt>
      <trkpt lat="47.8945910" lon="8.1550300">
        <ele>417.2</ele>
        <time>2022-06-06T10:28:02Z</time>
      </trkpt>
      <trkpt lat="47.8946550" lon="8.1551500">
        <ele>417.2</ele>
        <time>2022-06-06T10:28:06Z</time>
      </trkpt>
      <trkpt lat="47.8947250" lon="8.1552630">
        <ele>417.8</ele>
        <time>2022-06-06T10:28:10Z</time>
      </trkpt>
      <trkpt lat="47.8947910" lon="8.1553950">
        <ele>417.6</ele>
        <time>2022-06-06T10:28:14Z</time>
      </trkpt>
      <trkpt lat="47.8948800" lon="8.1555030">
        <ele>418.0</ele>
        <time>2022-06-06T10:28:18Z</time>
      </trkpt>
      <trkpt lat="47.8949660" lon="8.1556510">
        <ele>417.8</ele>
        <time>2022-06-06T10:28:22Z</time>
      </trkpt>
      <trkpt lat="47.8950630" lon="8.1558010">
        <ele>417.8</ele>
        <time>2022-06-06T10:28:26Z</time>
      </trkpt>
      <trkpt lat="47.8951510" lon="8.1559480">
        <ele>418.0</ele>
        <time>2022-06-06T10:28:30Z</time>
      </trkpt>
      <trkpt lat="47.8952450" lon="8.1560950">
        <ele>419.0</ele>
        <time>2022-06-06T10:28:34Z</time>
      </trkpt>
      <trkpt lat="47.8953410" lon="8.1562460">
        <ele>418.0</ele>
        <time>2022-06-06T10:28:38Z</time>
      </trkpt>
      <trkpt lat="47.8954430" lon="8.1563880">
        <ele>418.6</ele>
        <time>2022-06-06T10:28:42Z</time>
      </trkpt>
      <trkpt lat="47.8955310" lon="8.1565410">
        <ele>418.6</ele>
        <time>2022-06-06T10:28:46Z</time>
      </trkpt>
      <trkpt lat="47.8956200" lon="8.1566910">
        <ele>419.2</ele>
        <time>2022-06-06T10:28:50Z</time>
      </trkpt>
      <trkpt lat="47.8957100" lon="8.1568360">
        <ele>418.8</ele>
        <time>2022-06-06T10:28:54Z</time>
      </trkpt>
      <trkpt lat="47.8958100" lon="8.1569730">
        <ele>419.2</ele>
        <time>2022-06-06T10:28:58Z</time>
      </trkpt>
      <trkpt lat="47.8958730" lon="8.1570750">
        <ele>419.4</ele>
        <time>2022-06-06T10:29:02Z</time>
      </trkpt>
      <trkpt lat="47.8959280" lon="8.1571530">
        <ele>418.6</ele>
        <time>2022-06-06T10:29:06Z</time>
      </trkpt>
      <trkpt lat="47.8960200" lon="8.1572280">
        <ele>418.4</ele>
        <time>2022-06-06T10:29:10Z</time>
      </trkpt>
      <trkpt lat="47.8961310" lon="8.1573230">
        <ele>418.4</ele>
        <time>2022-06-06T10:29:14Z</time>
      </trkpt>
      <trkpt lat="47.8962360" lon="8.1573560">
        <ele>418.0</ele>
        <time>2022-06-06T10:29:18Z</time>
      </trkpt>
      <trkpt lat="47.8963410" lon="8.1573860">
        <ele>417.4</ele>
        <time>2022-06-06T10:29:22Z</time>
      </trkpt>
      <trkpt lat="47.8964150" lon="8.1574050">
        <ele>417.4</ele>
        <time>2022-06-06T10:29:26Z</time>
      </trkpt>
      <trkpt lat="47.8964860" lon="8.1573850">
        <ele>417.2</ele>
        <time>2022-06-06T10:29:30Z</time>
      </trkpt>
      <trkpt lat="47.8965810" lon="8.1573550">
        <ele>417.2</ele>
        <time>2022-06-06T10:29:34Z</time>
      </trkpt>
      <trkpt lat="47.8967210" lon="8.1573330">
        <ele>415.8</ele>
        <time>2022-06-06T10:29:38Z</time>
      </trkpt>
      <trkpt lat="47.8968460" lon="8.1573480">
        <ele>416.4</ele>
        <time>2022-06-06T10:29:42Z</time>
      </trkpt>
      <trkpt lat="47.8969900" lon="8.1573030">
        <ele>415.2</ele>
        <time>2022-06-06T10:29:46Z</time>
      </trkpt>
      <trkpt lat="47.8971110" lon="8.1572850">
        <ele>414.6</ele>
        <time>2022-06-06T10:29:50Z</time>
      </trkpt>
      <trkpt lat="47.8972360" lon="8.1572450">
        <ele>414.2</ele>
        <time>2022-06-06T10:29:54Z</time>
      </trkpt>
      <trkpt lat="47.8973450" lon="8.1571300">
        <ele>413.8</ele>
        <time>2022-06-06T10:29:58Z</time>
      </trkpt>
      <trkpt lat="47.8974730" lon="8.1570080">
        <ele>412.2</ele>
        <time>2022-06-06T10:30:02Z</time>
      </trkpt>
      <trkpt lat="47.8976230" lon="8.1568450">
        <ele>411.4</ele>
        <time>2022-06-06T10:30:06Z</time>
      </trkpt>
      <trkpt lat="47.8977850" lon="8.1566260">
        <ele>410.6</ele>
        <time>2022-06-06T10:30:10Z</time>
      </trkpt>
      <trkpt lat="47.8979600" lon="8.1563410">
        <ele>410.0</ele>
        <time>2022-06-06T10:30:14Z</time>
      </trkpt>
      <trkpt lat="47.8981060" lon="8.1560310">
        <ele>409.2</ele>
        <time>2022-06-06T10:30:18Z</time>
      </trkpt>
      <trkpt lat="47.8982460" lon="8.1557050">
        <ele>407.8</ele>
        <time>2022-06-06T10:30:22Z</time>
      </trkpt>
      <trkpt lat="47.8983580" lon="8.1554700">
        <ele>408.0</ele>
        <time>2022-06-06T10:30:26Z</time>
      </trkpt>
      <trkpt lat="47.8984410" lon="8.1552880">
        <ele>407.6</ele>
        <time>2022-06-06T10:30:30Z</time>
      </trkpt>
      <trkpt lat="47.8985260" lon="8.1551180">
        <ele>407.4</ele>
        <time>2022-06-06T10:30:34Z</time>
      </trkpt>
      <trkpt lat="47.8985880" lon="8.1549750">
        <ele>406.6</ele>
        <time>2022-06-06T10:30:38Z</time>
      </trkpt>
      <trkpt lat="47.8986410" lon="8.1548960">
        <ele>406.6</ele>
        <time>2022-06-06T10:30:42Z</time>
      </trkpt>
      <trkpt lat="47.8986730" lon="8.1549100">
        <ele>407.2</ele>
        <time>2022-06-06T10:30:46Z</time>
      </trkpt>
      <trkpt lat="47.8986730" lon="8.1549100">
        <ele>407.8</ele>
        <time>2022-06-06T10:30:50Z</time>
      </trkpt>
      <trkpt lat="47.8986730" lon="8.1549100">
        <ele>407.6</ele>
        <time>2022-06-06T10:30:54Z</time>
      </trkpt>
      <trkpt lat="47.8986730" lon="8.1549100">
        <ele>407.6</ele>
        <time>2022-06-06T10:30:58Z</time>
      </trkpt>
      <trkpt lat="47.8987280" lon="8.1549560">
        <ele>407.6</ele>
        <time>2022-06-06T10:31:02Z</time>
      </trkpt>
      <trkpt lat="47.8987280" lon="8.1549560">
        <ele>407.4</ele>
        <time>2022-06-06T10:31:06Z</time>
      </trkpt>
      <trkpt lat="47.8987160" lon="8.1549730">
        <ele>408.0</ele>
        <time>2022-06-06T10:31:10Z</time>
      </trkpt>
      <trkpt lat="47.8987160" lon="8.1549730">
        <ele>408.0</ele>
        <time>2022-06-06T10:31:14Z</time>
      </trkpt>
      <trkpt lat="47.8987230" lon="8.1549880">
        <ele>408.0</ele>
        <time>2022-06-06T10:31:18Z</time>
      </trkpt>
      <trkpt lat="47.8987230" lon="8.1549880">
        <ele>407.8</ele>
        <time>2022-06-06T10:31:22Z</time>
      </trkpt>
      <trkpt lat="47.8987230" lon="8.1549880">
        <ele>408.0</ele>
        <time>2022-06-06T10:31:26Z</time>
      </trkpt>
      <trkpt lat="47.8987230" lon="8.1549880">
        <ele>408.0</ele>
        <time>2022-06-06T10:31:30Z</time>
      </trkpt>
      <trkpt lat="47.8987230" lon="8.1549880">
        <ele>407.6</ele>
        <time>2022-06-06T10:31:34Z</time>
      </trkpt>
      <trkpt lat="47.8987230" lon="8.1549880">
        <ele>407.2</ele>
        <time>2022-06-06T10:31:38Z</time>
      </trkpt>
      <trkpt lat="47.8987780" lon="8.1550200">
        <ele>407.4</ele>
        <time>2022-06-06T10:31:42Z</time>
      </trkpt>
      <trkpt lat="47.8987880" lon="8.1550730">
        <ele>407.6</ele>
        <time>2022-06-06T10:31:46Z</time>
      </trkpt>
      <trkpt lat="47.8988130" lon="8.1550910">
        <ele>408.2</ele>
        <time>2022-06-06T10:31:50Z</time>
      </trkpt>
      <trkpt lat="47.8988100" lon="8.1551500">
        <ele>408.0</ele>
        <time>2022-06-06T10:31:54Z</time>
      </trkpt>
      <trkpt lat="47.8988130" lon="8.1552180">
        <ele>408.8</ele>
        <time>2022-06-06T10:31:58Z</time>
      </trkpt>
      <trkpt lat="47.8988180" lon="8.1552760">
        <ele>409.6</ele>
        <time>2022-06-06T10:32:02Z</time>
      </trkpt>
      <trkpt lat="47.8988460" lon="8.1553230">
        <ele>410.2</ele>
        <time>2022-06-06T10:32:06Z</time>
      </trkpt>
      <trkpt lat="47.8988200" lon="8.1554130">
        <ele>410.4</ele>
        <time>2022-06-06T10:32:10Z</time>
      </trkpt>
      <trkpt lat="47.8988360" lon="8.1555480">
        <ele>410.2</ele>
        <time>2022-06-06T10:32:14Z</time>
      </trkpt>
      <trkpt lat="47.8988550" lon="8.1556930">
        <ele>410.8</ele>
        <time>2022-06-06T10:32:18Z</time>
      </trkpt>
      <trkpt lat="47.8988860" lon="8.1558330">
        <ele>411.2</ele>
        <time>2022-06-06T10:32:22Z</time>
      </trkpt>
      <trkpt lat="47.8989280" lon="8.1559810">
        <ele>411.2</ele>
        <time>2022-06-06T10:32:26Z</time>
      </trkpt>
      <trkpt lat="47.8989680" lon="8.1561350">
        <ele>411.6</ele>
        <time>2022-06-06T10:32:30Z</time>
      </trkpt>
      <trkpt lat="47.8990150" lon="8.1562910">
        <ele>410.8</ele>
        <time>2022-06-06T10:32:34Z</time>
      </trkpt>
      <trkpt lat="47.8990560" lon="8.1564750">
        <ele>412.0</ele>
        <time>2022-06-06T10:32:38Z</time>
      </trkpt>
      <trkpt lat="47.8991000" lon="8.1566460">
        <ele>412.8</ele>
        <time>2022-06-06T10:32:42Z</time>
      </trkpt>
      <trkpt lat="47.8991530" lon="8.1568260">
        <ele>413.0</ele>
        <time>2022-06-06T10:32:46Z</time>
      </trkpt>
      <trkpt lat="47.8991980" lon="8.1570410">
        <ele>413.0</ele>
        <time>2022-06-06T10:32:50Z</time>
      </trkpt>
      <trkpt lat="47.8992460" lon="8.1572750">
        <ele>413.0</ele>
        <time>2022-06-06T10:32:54Z</time>
      </trkpt>
      <trkpt lat="47.8993000" lon="8.1575150">
        <ele>412.4</ele>
        <time>2022-06-06T10:32:58Z</time>
      </trkpt>
      <trkpt lat="47.8993480" lon="8.1577500">
        <ele>412.0</ele>
        <time>2022-06-06T10:33:02Z</time>
      </trkpt>
      <trkpt lat="47.8993960" lon="8.1579830">
        <ele>411.6</ele>
        <time>2022-06-06T10:33:06Z</time>
      </trkpt>
      <trkpt lat="47.8994600" lon="8.1582330">
        <ele>411.4</ele>
        <time>2022-06-06T10:33:10Z</time>
      </trkpt>
      <trkpt lat="47.8995410" lon="8.1585400">
        <ele>410.0</ele>
        <time>2022-06-06T10:33:14Z</time>
      </trkpt>
      <trkpt lat="47.8996400" lon="8.1588400">
        <ele>410.4</ele>
        <time>2022-06-06T10:33:18Z</time>
      </trkpt>
      <trkpt lat="47.8997110" lon="8.1591060">
        <ele>410.6</ele>
        <time>2022-06-06T10:33:22Z</time>
      </trkpt>
      <trkpt lat="47.8997650" lon="8.1592930">
        <ele>410.8</ele>
        <time>2022-06-06T10:33:26Z</time>
      </trkpt>
      <trkpt lat="47.8998000" lon="8.1594700">
        <ele>411.4</ele>
        <time>2022-06-06T10:33:30Z</time>
      </trkpt>
      <trkpt lat="47.8998510" lon="8.1596260">
        <ele>412.2</ele>
        <time>2022-06-06T10:33:34Z</time>
      </trkpt>
      <trkpt lat="47.8998960" lon="8.1597960">
        <ele>413.0</ele>
        <time>2022-06-06T10:33:38Z</time>
      </trkpt>
      <trkpt lat="47.8999380" lon="8.1599630">
        <ele>413.6</ele>
        <time>2022-06-06T10:33:42Z</time>
      </trkpt>
      <trkpt lat="47.8999950" lon="8.1601300">
        <ele>413.6</ele>
        <time>2022-06-06T10:33:46Z</time>
      </trkpt>
      <trkpt lat="47.9000460" lon="8.1602750">
        <ele>413.6</ele>
        <time>2022-06-06T10:33:50Z</time>
      </trkpt>
      <trkpt lat="47.9001060" lon="8.1604230">
        <ele>414.0</ele>
        <time>2022-06-06T10:33:54Z</time>
      </trkpt>
      <trkpt lat="47.9001710" lon="8.1605760">
        <ele>413.6</ele>
        <time>2022-06-06T10:33:58Z</time>
      </trkpt>
      <trkpt lat="47.9002250" lon="8.1607200">
        <ele>413.4</ele>
        <time>2022-06-06T10:34:02Z</time>
      </trkpt>
      <trkpt lat="47.9002810" lon="8.1608780">
        <ele>413.2</ele>
        <time>2022-06-06T10:34:06Z</time>
      </trkpt>
      <trkpt lat="47.9003380" lon="8.1610530">
        <ele>413.4</ele>
        <time>2022-06-06T10:34:10Z</time>
      </trkpt>
      <trkpt lat="47.9004100" lon="8.1612280">
        <ele>413.2</ele>
        <time>2022-06-06T10:34:14Z</time>
      </trkpt>
      <trkpt lat="47.9004760" lon="8.1614150">
        <ele>413.6</ele>
        <time>2022-06-06T10:34:18Z</time>
      </trkpt>
      <trkpt lat="47.9005380" lon="8.1616000">
        <ele>414.0</ele>
        <time>2022-06-06T10:34:22Z</time>
      </trkpt>
      <trkpt lat="47.9006010" lon="8.1617780">
        <ele>413.6</ele>
        <time>2022-06-06T10:34:26Z</time>
      </trkpt>
      <trkpt lat="47.9006730" lon="8.1619780">
        <ele>413.6</ele>
        <time>2022-06-06T10:34:30Z</time>
      </trkpt>
      <trkpt lat="47.9007500" lon="8.1622030">
        <ele>412.8</ele>
        <time>2022-06-06T10:34:34Z</time>
      </trkpt>
      <trkpt lat="47.9008300" lon="8.1624260">
        <ele>412.6</ele>
        <time>2022-06-06T10:34:38Z</time>
      </trkpt>
      <trkpt lat="47.9008980" lon="8.1626550">
        <ele>412.6</ele>
        <time>2022-06-06T10:34:42Z</time>
      </trkpt>
      <trkpt lat="47.9009600" lon="8.1628830">
        <ele>412.4</ele>
        <time>2022-06-06T10:34:46Z</time>
      </trkpt>
      <trkpt lat="47.9010100" lon="8.1631080">
        <ele>412.0</ele>
        <time>2022-06-06T10:34:50Z</time>
      </trkpt>
      <trkpt lat="47.9010610" lon="8.1633310">
        <ele>411.8</ele>
        <time>2022-06-06T10:34:54Z</time>
      </trkpt>
      <trkpt lat="47.9011210" lon="8.1635580">
        <ele>411.8</ele>
        <time>2022-06-06T10:34:58Z</time>
      </trkpt>
      <trkpt lat="47.9012000" lon="8.1637330">
        <ele>412.0</ele>
        <time>2022-06-06T10:35:02Z</time>
      </trkpt>
      <trkpt lat="47.9013100" lon="8.1638980">
        <ele>411.2</ele>
        <time>2022-06-06T10:35:06Z</time>
      </trkpt>
      <trkpt lat="47.9014330" lon="8.1641160">
        <ele>411.0</ele>
        <time>2022-06-06T10:35:10Z</time>
      </trkpt>
      <trkpt lat="47.9015730" lon="8.1643660">
        <ele>410.4</ele>
        <time>2022-06-06T10:35:14Z</time>
      </trkpt>
      <trkpt lat="47.9017230" lon="8.1646130">
        <ele>409.8</ele>
        <time>2022-06-06T10:35:18Z</time>
      </trkpt>
      <trkpt lat="47.9018630" lon="8.1648380">
        <ele>409.6</ele>
        <time>2022-06-06T10:35:22Z</time>
      </trkpt>
      <trkpt lat="47.9020110" lon="8.1650600">
        <ele>408.2</ele>
        <time>2022-06-06T10:35:26Z</time>
      </trkpt>
      <trkpt lat="47.9021850" lon="8.1653010">
        <ele>407.2</ele>
        <time>2022-06-06T10:35:30Z</time>
      </trkpt>
      <trkpt lat="47.9024460" lon="8.1655000">
        <ele>405.2</ele>
        <time>2022-06-06T10:35:34Z</time>
      </trkpt>
      <trkpt lat="47.9026680" lon="8.1656350">
        <ele>404.2</ele>
        <time>2022-06-06T10:35:38Z</time>
      </trkpt>
      <trkpt lat="47.9026880" lon="8.1658780">
        <ele>404.6</ele>
        <time>2022-06-06T10:35:42Z</time>
      </trkpt>
      <trkpt lat="47.9027200" lon="8.1661610">
        <ele>404.2</ele>
        <time>2022-06-06T10:35:46Z</time>
      </trkpt>
      <trkpt lat="47.9028910" lon="8.1662200">
        <ele>403.2</ele>
        <time>2022-06-06T10:35:50Z</time>
      </trkpt>
      <trkpt lat="47.9030510" lon="8.1661110">
        <ele>403.2</ele>
        <time>2022-06-06T10:35:54Z</time>
      </trkpt>
      <trkpt lat="47.9031930" lon="8.1661230">
        <ele>404.2</ele>
        <time>2022-06-06T10:35:58Z</time>
      </trkpt>
      <trkpt lat="47.9033510" lon="8.1661710">
        <ele>404.4</ele>
        <time>2022-06-06T10:36:02Z</time>
      </trkpt>
      <trkpt lat="47.9035010" lon="8.1661950">
        <ele>405.2</ele>
        <time>2022-06-06T10:36:06Z</time>
      </trkpt>
      <trkpt lat="47.9036180" lon="8.1662350">
        <ele>405.2</ele>
        <time>2022-06-06T10:36:10Z</time>
      </trkpt>
      <trkpt lat="47.9037560" lon="8.1662850">
        <ele>405.2</ele>
        <time>2022-06-06T10:36:14Z</time>
      </trkpt>
      <trkpt lat="47.9038860" lon="8.1663110">
        <ele>405.6</ele>
        <time>2022-06-06T10:36:18Z</time>
      </trkpt>
      <trkpt lat="47.9040380" lon="8.1663460">
        <ele>406.0</ele>
        <time>2022-06-06T10:36:22Z</time>
      </trkpt>
      <trkpt lat="47.9041560" lon="8.1664730">
        <ele>405.8</ele>
        <time>2022-06-06T10:36:26Z</time>
      </trkpt>
      <trkpt lat="47.9042560" lon="8.1666610">
        <ele>405.0</ele>
        <time>2022-06-06T10:36:30Z</time>
      </trkpt>
      <trkpt lat="47.9043750" lon="8.1668760">
        <ele>404.6</ele>
        <time>2022-06-06T10:36:34Z</time>
      </trkpt>
      <trkpt lat="47.9045010" lon="8.1670560">
        <ele>405.2</ele>
        <time>2022-06-06T10:36:38Z</time>
      </trkpt>
      <trkpt lat="47.9046350" lon="8.1671860">
        <ele>404.6</ele>
        <time>2022-06-06T10:36:42Z</time>
      </trkpt>
      <trkpt lat="47.9047750" lon="8.1672650">
        <ele>405.0</ele>
        <time>2022-06-06T10:36:46Z</time>
      </trkpt>
      <trkpt lat="47.9049150" lon="8.1673430">
        <ele>405.0</ele>
        <time>2022-06-06T10:36:50Z</time>
      </trkpt>
      <trkpt lat="47.9050550" lon="8.1674350">
        <ele>405.4</ele>
        <time>2022-06-06T10:36:54Z</time>
      </trkpt>
      <trkpt lat="47.9051850" lon="8.1675280">
        <ele>406.2</ele>
        <time>2022-06-06T10:36:58Z</time>
      </trkpt>
      <trkpt lat="47.9053050" lon="8.1676300">
        <ele>406.6</ele>
        <time>2022-06-06T10:37:02Z</time>
      </trkpt>
      <trkpt lat="47.9054280" lon="8.1677450">
        <ele>406.2</ele>
        <time>2022-06-06T10:37:06Z</time>
      </trkpt>
      <trkpt lat="47.9055510" lon="8.1678710">
        <ele>406.0</ele>
        <time>2022-06-06T10:37:10Z</time>
      </trkpt>
      <trkpt lat="47.9056800" lon="8.1679850">
        <ele>406.4</ele>
        <time>2022-06-06T10:37:14Z</time>
      </trkpt>
      <trkpt lat="47.9058100" lon="8.1680910">
        <ele>405.2</ele>
        <time>2022-06-06T10:37:18Z</time>
      </trkpt>
      <trkpt lat="47.9059300" lon="8.1682260">
        <ele>405.2</ele>
        <time>2022-06-06T10:37:22Z</time>
      </trkpt>
      <trkpt lat="47.9060610" lon="8.1683410">
        <ele>406.0</ele>
        <time>2022-06-06T10:37:26Z</time>
      </trkpt>
      <trkpt lat="47.9062010" lon="8.1684660">
        <ele>405.4</ele>
        <time>2022-06-06T10:37:30Z</time>
      </trkpt>
      <trkpt lat="47.9063460" lon="8.1685880">
        <ele>405.2</ele>
        <time>2022-06-06T10:37:34Z</time>
      </trkpt>
      <trkpt lat="47.9064800" lon="8.1687360">
        <ele>405.2</ele>
        <time>2022-06-06T10:37:38Z</time>
      </trkpt>
      <trkpt lat="47.9065800" lon="8.1689310">
        <ele>405.2</ele>
        <time>2022-06-06T10:37:42Z</time>
      </trkpt>
      <trkpt lat="47.9066510" lon="8.1691860">
        <ele>404.4</ele>
        <time>2022-06-06T10:37:46Z</time>
      </trkpt>
      <trkpt lat="47.9067060" lon="8.1695280">
        <ele>402.6</ele>
        <time>2022-06-06T10:37:50Z</time>
      </trkpt>
      <trkpt lat="47.9067630" lon="8.1699500">
        <ele>401.0</ele>
        <time>2022-06-06T10:37:54Z</time>
      </trkpt>
      <trkpt lat="47.9069700" lon="8.1701030">
        <ele>401.2</ele>
        <time>2022-06-06T10:37:58Z</time>
      </trkpt>
      <trkpt lat="47.9071510" lon="8.1700460">
        <ele>402.2</ele>
        <time>2022-06-06T10:38:02Z</time>
      </trkpt>
      <trkpt lat="47.9073260" lon="8.1699810">
        <ele>403.0</ele>
        <time>2022-06-06T10:38:06Z</time>
      </trkpt>
      <trkpt lat="47.9074860" lon="8.1699180">
        <ele>403.6</ele>
        <time>2022-06-06T10:38:10Z</time>
      </trkpt>
      <trkpt lat="47.9076400" lon="8.1698750">
        <ele>403.6</ele>
        <time>2022-06-06T10:38:14Z</time>
      </trkpt>
      <trkpt lat="47.9077910" lon="8.1698650">
        <ele>403.6</ele>
        <time>2022-06-06T10:38:18Z</time>
      </trkpt>
      <trkpt lat="47.9079360" lon="8.1699050">
        <ele>403.8</ele>
        <time>2022-06-06T10:38:22Z</time>
      </trkpt>
      <trkpt lat="47.9080760" lon="8.1699730">
        <ele>403.8</ele>
        <time>2022-06-06T10:38:26Z</time>
      </trkpt>
      <trkpt lat="47.9082230" lon="8.1700450">
        <ele>403.8</ele>
        <time>2022-06-06T10:38:30Z</time>
      </trkpt>
      <trkpt lat="47.9083810" lon="8.1701250">
        <ele>403.6</ele>
        <time>2022-06-06T10:38:34Z</time>
      </trkpt>
      <trkpt lat="47.9085350" lon="8.1702250">
        <ele>403.0</ele>
        <time>2022-06-06T10:38:38Z</time>
      </trkpt>
      <trkpt lat="47.9086900" lon="8.1703260">
        <ele>403.2</ele>
        <time>2022-06-06T10:38:42Z</time>
      </trkpt>
      <trkpt lat="47.9088450" lon="8.1704380">
        <ele>402.8</ele>
        <time>2022-06-06T10:38:46Z</time>
      </trkpt>
      <trkpt lat="47.9090050" lon="8.1705580">
        <ele>402.8</ele>
        <time>2022-06-06T10:38:50Z</time>
      </trkpt>
      <trkpt lat="47.9091630" lon="8.1706610">
        <ele>403.8</ele>
        <time>2022-06-06T10:38:54Z</time>
      </trkpt>
      <trkpt lat="47.9092960" lon="8.1707000">
        <ele>405.0</ele>
        <time>2022-06-06T10:38:58Z</time>
      </trkpt>
      <trkpt lat="47.9094230" lon="8.1706300">
        <ele>405.6</ele>
        <time>2022-06-06T10:39:02Z</time>
      </trkpt>
      <trkpt lat="47.9095400" lon="8.1705080">
        <ele>405.4</ele>
        <time>2022-06-06T10:39:06Z</time>
      </trkpt>
      <trkpt lat="47.9096500" lon="8.1704060">
        <ele>405.4</ele>
        <time>2022-06-06T10:39:10Z</time>
      </trkpt>
      <trkpt lat="47.9097660" lon="8.1705130">
        <ele>405.2</ele>
        <time>2022-06-06T10:39:14Z</time>
      </trkpt>
      <trkpt lat="47.9098380" lon="8.1707080">
        <ele>405.0</ele>
        <time>2022-06-06T10:39:18Z</time>
      </trkpt>
      <trkpt lat="47.9099460" lon="8.1709400">
        <ele>403.0</ele>
        <time>2022-06-06T10:39:22Z</time>
      </trkpt>
      <trkpt lat="47.9101280" lon="8.1711600">
        <ele>402.8</ele>
        <time>2022-06-06T10:39:26Z</time>
      </trkpt>
      <trkpt lat="47.9103730" lon="8.1713680">
        <ele>400.0</ele>
        <time>2022-06-06T10:39:30Z</time>
      </trkpt>
      <trkpt lat="47.9106030" lon="8.1715900">
        <ele>400.4</ele>
        <time>2022-06-06T10:39:34Z</time>
      </trkpt>
      <trkpt lat="47.9108150" lon="8.1718010">
        <ele>400.4</ele>
        <time>2022-06-06T10:39:38Z</time>
      </trkpt>
      <trkpt lat="47.9110030" lon="8.1720280">
        <ele>400.2</ele>
        <time>2022-06-06T10:39:42Z</time>
      </trkpt>
      <trkpt lat="47.9111880" lon="8.1722480">
        <ele>399.6</ele>
        <time>2022-06-06T10:39:46Z</time>
      </trkpt>
      <trkpt lat="47.9113910" lon="8.1724310">
        <ele>399.8</ele>
        <time>2022-06-06T10:39:50Z</time>
      </trkpt>
      <trkpt lat="47.9116100" lon="8.1725910">
        <ele>398.8</ele>
        <time>2022-06-06T10:39:54Z</time>
      </trkpt>
      <trkpt lat="47.9118350" lon="8.1727710">
        <ele>398.2</ele>
        <time>2022-06-06T10:39:58Z</time>
      </trkpt>
      <trkpt lat="47.9120530" lon="8.1730210">
        <ele>396.6</ele>
        <time>2022-06-06T10:40:02Z</time>
      </trkpt>
      <trkpt lat="47.9122830" lon="8.1733300">
        <ele>394.0</ele>
        <time>2022-06-06T10:40:06Z</time>
      </trkpt>
      <trkpt lat="47.9124300" lon="8.1737000">
        <ele>394.6</ele>
        <time>2022-06-06T10:40:10Z</time>
      </trkpt>
      <trkpt lat="47.9125130" lon="8.1741260">
        <ele>394.0</ele>
        <time>2022-06-06T10:40:14Z</time>
      </trkpt>
      <trkpt lat="47.9125860" lon="8.1745710">
        <ele>392.6</ele>
        <time>2022-06-06T10:40:18Z</time>
      </trkpt>
      <trkpt lat="47.9126610" lon="8.1750100">
        <ele>391.6</ele>
        <time>2022-06-06T10:40:22Z</time>
      </trkpt>
      <trkpt lat="47.9127360" lon="8.1754310">
        <ele>391.2</ele>
        <time>2022-06-06T10:40:26Z</time>
      </trkpt>
      <trkpt lat="47.9127780" lon="8.1758250">
        <ele>391.6</ele>
        <time>2022-06-06T10:40:30Z</time>
      </trkpt>
      <trkpt lat="47.9126480" lon="8.1761030">
        <ele>391.6</ele>
        <time>2022-06-06T10:40:34Z</time>
      </trkpt>
      <trkpt lat="47.9125150" lon="8.1762610">
        <ele>392.4</ele>
        <time>2022-06-06T10:40:38Z</time>
      </trkpt>
      <trkpt lat="47.9125600" lon="8.1764560">
        <ele>393.0</ele>
        <time>2022-06-06T10:40:42Z</time>
      </trkpt>
      <trkpt lat="47.9126700" lon="8.1765280">
        <ele>393.2</ele>
        <time>2022-06-06T10:40:46Z</time>
      </trkpt>
      <trkpt lat="47.9128380" lon="8.1766310">
        <ele>392.0</ele>
        <time>2022-06-06T10:40:50Z</time>
      </trkpt>
      <trkpt lat="47.9130150" lon="8.1767730">
        <ele>391.2</ele>
        <time>2022-06-06T10:40:54Z</time>
      </trkpt>
      <trkpt lat="47.9131160" lon="8.1769410">
        <ele>392.4</ele>
        <time>2022-06-06T10:40:58Z</time>
      </trkpt>
      <trkpt lat="47.9132030" lon="8.1770730">
        <ele>393.8</ele>
        <time>2022-06-06T10:41:02Z</time>
      </trkpt>
      <trkpt lat="47.9132630" lon="8.1772100">
        <ele>394.8</ele>
        <time>2022-06-06T10:41:06Z</time>
      </trkpt>
      <trkpt lat="47.9133310" lon="8.1773380">
        <ele>395.6</ele>
        <time>2022-06-06T10:41:10Z</time>
      </trkpt>
      <trkpt lat="47.9133630" lon="8.1774510">
        <ele>396.4</ele>
        <time>2022-06-06T10:41:14Z</time>
      </trkpt>
      <trkpt lat="47.9134210" lon="8.1775550">
        <ele>397.4</ele>
        <time>2022-06-06T10:41:18Z</time>
      </trkpt>
      <trkpt lat="47.9134710" lon="8.1776580">
        <ele>397.8</ele>
        <time>2022-06-06T10:41:22Z</time>
      </trkpt>
      <trkpt lat="47.9135350" lon="8.1777660">
        <ele>398.2</ele>
        <time>2022-06-06T10:41:26Z</time>
      </trkpt>
      <trkpt lat="47.9136250" lon="8.1778780">
        <ele>398.6</ele>
        <time>2022-06-06T10:41:30Z</time>
      </trkpt>
      <trkpt lat="47.9137310" lon="8.1780010">
        <ele>398.0</ele>
        <time>2022-06-06T10:41:34Z</time>
      </trkpt>
      <trkpt lat="47.9138510" lon="8.1781200">
        <ele>398.2</ele>
        <time>2022-06-06T10:41:38Z</time>
      </trkpt>
      <trkpt lat="47.9139780" lon="8.1782400">
        <ele>398.2</ele>
        <time>2022-06-06T10:41:42Z</time>
      </trkpt>
      <trkpt lat="47.9140960" lon="8.1783600">
        <ele>397.6</ele>
        <time>2022-06-06T10:41:46Z</time>
      </trkpt>
      <trkpt lat="47.9142260" lon="8.1784780">
        <ele>398.0</ele>
        <time>2022-06-06T10:41:50Z</time>
      </trkpt>
      <trkpt lat="47.9143530" lon="8.1785980">
        <ele>397.8</ele>
        <time>2022-06-06T10:41:54Z</time>
      </trkpt>
      <trkpt lat="47.9145060" lon="8.1787160">
        <ele>397.6</ele>
        <time>2022-06-06T10:41:58Z</time>
      </trkpt>
      <trkpt lat="47.9146630" lon="8.1788200">
        <ele>397.6</ele>
        <time>2022-06-06T10:42:02Z</time>
      </trkpt>
      <trkpt lat="47.9148080" lon="8.1789180">
        <ele>397.6</ele>
        <time>2022-06-06T10:42:06Z</time>
      </trkpt>
      <trkpt lat="47.9149630" lon="8.1790160">
        <ele>397.6</ele>
        <time>2022-06-06T10:42:10Z</time>
      </trkpt>
      <trkpt lat="47.9151130" lon="8.1791110">
        <ele>396.8</ele>
        <time>2022-06-06T10:42:14Z</time>
      </trkpt>
      <trkpt lat="47.9152630" lon="8.1792110">
        <ele>397.0</ele>
        <time>2022-06-06T10:42:18Z</time>
      </trkpt>
      <trkpt lat="47.9154230" lon="8.1793230">
        <ele>397.0</ele>
        <time>2022-06-06T10:42:22Z</time>
      </trkpt>
      <trkpt lat="47.9155760" lon="8.1794410">
        <ele>396.6</ele>
        <time>2022-06-06T10:42:26Z</time>
      </trkpt>
      <trkpt lat="47.9157210" lon="8.1795660">
        <ele>397.0</ele>
        <time>2022-06-06T10:42:30Z</time>
      </trkpt>
      <trkpt lat="47.9158630" lon="8.1797150">
        <ele>396.6</ele>
        <time>2022-06-06T10:42:34Z</time>
      </trkpt>
      <trkpt lat="47.9160100" lon="8.1798750">
        <ele>396.0</ele>
        <time>2022-06-06T10:42:38Z</time>
      </trkpt>
      <trkpt lat="47.9161430" lon="8.1800350">
        <ele>396.2</ele>
        <time>2022-06-06T10:42:42Z</time>
      </trkpt>
      <trkpt lat="47.9162630" lon="8.1801830">
        <ele>396.6</ele>
        <time>2022-06-06T10:42:46Z</time>
      </trkpt>
      <trkpt lat="47.9163830" lon="8.1803500">
        <ele>395.8</ele>
        <time>2022-06-06T10:42:50Z</time>
      </trkpt>
      <trkpt lat="47.9165050" lon="8.1805350">
        <ele>395.6</ele>
        <time>2022-06-06T10:42:54Z</time>
      </trkpt>
      <trkpt lat="47.9166260" lon="8.1807380">
        <ele>394.8</ele>
        <time>2022-06-06T10:42:58Z</time>
      </trkpt>
      <trkpt lat="47.9167310" lon="8.1809560">
        <ele>395.6</ele>
        <time>2022-06-06T10:43:02Z</time>
      </trkpt>
      <trkpt lat="47.9168360" lon="8.1811780">
        <ele>395.0</ele>
        <time>2022-06-06T10:43:06Z</time>
      </trkpt>
      <trkpt lat="47.9169360" lon="8.1814030">
        <ele>395.0</ele>
        <time>2022-06-06T10:43:10Z</time>
      </trkpt>
      <trkpt lat="47.9170280" lon="8.1816300">
        <ele>395.8</ele>
        <time>2022-06-06T10:43:14Z</time>
      </trkpt>
      <trkpt lat="47.9171130" lon="8.1818510">
        <ele>396.0</ele>
        <time>2022-06-06T10:43:18Z</time>
      </trkpt>
      <trkpt lat="47.9171980" lon="8.1820660">
        <ele>395.6</ele>
        <time>2022-06-06T10:43:22Z</time>
      </trkpt>
      <trkpt lat="47.9172860" lon="8.1822660">
        <ele>396.2</ele>
        <time>2022-06-06T10:43:26Z</time>
      </trkpt>
      <trkpt lat="47.9173980" lon="8.1824530">
        <ele>396.4</ele>
        <time>2022-06-06T10:43:30Z</time>
      </trkpt>
      <trkpt lat="47.9175050" lon="8.1826350">
        <ele>396.4</ele>
        <time>2022-06-06T10:43:34Z</time>
      </trkpt>
      <trkpt lat="47.9176150" lon="8.1828110">
        <ele>397.0</ele>
        <time>2022-06-06T10:43:38Z</time>
      </trkpt>
      <trkpt lat="47.9177280" lon="8.1829800">
        <ele>396.8</ele>
        <time>2022-06-06T10:43:42Z</time>
      </trkpt>
      <trkpt lat="47.9178360" lon="8.1831510">
        <ele>396.8</ele>
        <time>2022-06-06T10:43:46Z</time>
      </trkpt>
      <trkpt lat="47.9179380" lon="8.1833080">
        <ele>397.6</ele>
        <time>2022-06-06T10:43:50Z</time>
      </trkpt>
      <trkpt lat="47.9180550" lon="8.1834550">
        <ele>397.8</ele>
        <time>2022-06-06T10:43:54Z</time>
      </trkpt>
      <trkpt lat="47.9181760" lon="8.1836010">
        <ele>398.2</ele>
        <time>2022-06-06T10:43:58Z</time>
      </trkpt>
      <trkpt lat="47.9182880" lon="8.1837430">
        <ele>398.2</ele>
        <time>2022-06-06T10:44:02Z</time>
      </trkpt>
      <trkpt lat="47.9183930" lon="8.1839010">
        <ele>398.6</ele>
        <time>2022-06-06T10:44:06Z</time>
      </trkpt>
      <trkpt lat="47.9185050" lon="8.1840450">
        <ele>399.2</ele>
        <time>2022-06-06T10:44:10Z</time>
      </trkpt>
      <trkpt lat="47.9186330" lon="8.1841880">
        <ele>399.6</ele>
        <time>2022-06-06T10:44:14Z</time>
      </trkpt>
      <trkpt lat="47.9187450" lon="8.1843360">
        <ele>399.6</ele>
        <time>2022-06-06T10:44:18Z</time>
      </trkpt>
      <trkpt lat="47.9188580" lon="8.1844980">
        <ele>399.4</ele>
        <time>2022-06-06T10:44:22Z</time>
      </trkpt>
      <trkpt lat="47.9189900" lon="8.1846580">
        <ele>399.4</ele>
        <time>2022-06-06T10:44:26Z</time>
      </trkpt>
      <trkpt lat="47.9190980" lon="8.1848330">
        <ele>399.8</ele>
        <time>2022-06-06T10:44:30Z</time>
      </trkpt>
      <trkpt lat="47.9192100" lon="8.1849910">
        <ele>399.6</ele>
        <time>2022-06-06T10:44:34Z</time>
      </trkpt>
      <trkpt lat="47.9193250" lon="8.1851530">
        <ele>399.4</ele>
        <time>2022-06-06T10:44:38Z</time>
      </trkpt>
      <trkpt lat="47.9194380" lon="8.1853250">
        <ele>399.4</ele>
        <time>2022-06-06T10:44:42Z</time>
      </trkpt>
      <trkpt lat="47.9195480" lon="8.1855000">
        <ele>399.4</ele>
        <time>2022-06-06T10:44:46Z</time>
      </trkpt>
      <trkpt lat="47.9196560" lon="8.1856730">
        <ele>399.0</ele>
        <time>2022-06-06T10:44:50Z</time>
      </trkpt>
      <trkpt lat="47.9197630" lon="8.1858430">
        <ele>399.2</ele>
        <time>2022-06-06T10:44:54Z</time>
      </trkpt>
      <trkpt lat="47.9198730" lon="8.1860230">
        <ele>399.2</ele>
        <time>2022-06-06T10:44:58Z</time>
      </trkpt>
      <trkpt lat="47.9199800" lon="8.1862160">
        <ele>399.0</ele>
        <time>2022-06-06T10:45:02Z</time>
      </trkpt>
      <trkpt lat="47.9200860" lon="8.1864380">
        <ele>398.4</ele>
        <time>2022-06-06T10:45:06Z</time>
      </trkpt>
      <trkpt lat="47.9201710" lon="8.1866850">
        <ele>397.8</ele>
        <time>2022-06-06T10:45:10Z</time>
      </trkpt>
      <trkpt lat="47.9202860" lon="8.1868700">
        <ele>397.8</ele>
        <time>2022-06-06T10:45:14Z</time>
      </trkpt>
      <trkpt lat="47.9204150" lon="8.1868580">
        <ele>396.8</ele>
        <time>2022-06-06T10:45:18Z</time>
      </trkpt>
      <trkpt lat="47.9204510" lon="8.1866780">
        <ele>396.2</ele>
        <time>2022-06-06T10:45:22Z</time>
      </trkpt>
      <trkpt lat="47.9204700" lon="8.1864600">
        <ele>395.4</ele>
        <time>2022-06-06T10:45:26Z</time>
      </trkpt>
      <trkpt lat="47.9204860" lon="8.1861650">
        <ele>394.2</ele>
        <time>2022-06-06T10:45:30Z</time>
      </trkpt>
      <trkpt lat="47.9205450" lon="8.1857900">
        <ele>390.2</ele>
        <time>2022-06-06T10:45:34Z</time>
      </trkpt>
      <trkpt lat="47.9206650" lon="8.1854000">
        <ele>389.4</ele>
        <time>2022-06-06T10:45:38Z</time>
      </trkpt>
      <trkpt lat="47.9207960" lon="8.1850150">
        <ele>389.2</ele>
        <time>2022-06-06T10:45:42Z</time>
      </trkpt>
      <trkpt lat="47.9209550" lon="8.1846930">
        <ele>389.4</ele>
        <time>2022-06-06T10:45:46Z</time>
      </trkpt>
      <trkpt lat="47.9211330" lon="8.1844400">
        <ele>388.8</ele>
        <time>2022-06-06T10:45:50Z</time>
      </trkpt>
      <trkpt lat="47.9213130" lon="8.1842260">
        <ele>389.4</ele>
        <time>2022-06-06T10:45:54Z</time>
      </trkpt>
      <trkpt lat="47.9214910" lon="8.1840450">
        <ele>389.2</ele>
        <time>2022-06-06T10:45:58Z</time>
      </trkpt>
      <trkpt lat="47.9216510" lon="8.1838710">
        <ele>389.2</ele>
        <time>2022-06-06T10:46:02Z</time>
      </trkpt>
      <trkpt lat="47.9217850" lon="8.1837150">
        <ele>389.6</ele>
        <time>2022-06-06T10:46:06Z</time>
      </trkpt>
      <trkpt lat="47.9218660" lon="8.1836050">
        <ele>390.8</ele>
        <time>2022-06-06T10:46:10Z</time>
      </trkpt>
      <trkpt lat="47.9219130" lon="8.1835430">
        <ele>391.2</ele>
        <time>2022-06-06T10:46:14Z</time>
      </trkpt>
      <trkpt lat="47.9219560" lon="8.1834980">
        <ele>391.4</ele>
        <time>2022-06-06T10:46:18Z</time>
      </trkpt>
      <trkpt lat="47.9220110" lon="8.1834600">
        <ele>392.0</ele>
        <time>2022-06-06T10:46:22Z</time>
      </trkpt>
      <trkpt lat="47.9220810" lon="8.1834280">
        <ele>392.0</ele>
        <time>2022-06-06T10:46:26Z</time>
      </trkpt>
      <trkpt lat="47.9221350" lon="8.1833660">
        <ele>392.0</ele>
        <time>2022-06-06T10:46:30Z</time>
      </trkpt>
      <trkpt lat="47.9221610" lon="8.1832860">
        <ele>392.2</ele>
        <time>2022-06-06T10:46:34Z</time>
      </trkpt>
      <trkpt lat="47.9222300" lon="8.1832080">
        <ele>392.6</ele>
        <time>2022-06-06T10:46:38Z</time>
      </trkpt>
      <trkpt lat="47.9223200" lon="8.1831210">
        <ele>392.4</ele>
        <time>2022-06-06T10:46:42Z</time>
      </trkpt>
      <trkpt lat="47.9224130" lon="8.1830650">
        <ele>393.0</ele>
        <time>2022-06-06T10:46:46Z</time>
      </trkpt>
      <trkpt lat="47.9225010" lon="8.1830450">
        <ele>393.4</ele>
        <time>2022-06-06T10:46:50Z</time>
      </trkpt>
      <trkpt lat="47.9225680" lon="8.1830430">
        <ele>393.2</ele>
        <time>2022-06-06T10:46:54Z</time>
      </trkpt>
      <trkpt lat="47.9226130" lon="8.1830460">
        <ele>393.8</ele>
        <time>2022-06-06T10:46:58Z</time>
      </trkpt>
      <trkpt lat="47.9226130" lon="8.1830460">
        <ele>393.8</ele>
        <time>2022-06-06T10:47:02Z</time>
      </trkpt>
      <trkpt lat="47.9226210" lon="8.1830780">
        <ele>393.6</ele>
        <time>2022-06-06T10:47:06Z</time>
      </trkpt>
      <trkpt lat="47.9225910" lon="8.1831260">
        <ele>392.8</ele>
        <time>2022-06-06T10:47:10Z</time>
      </trkpt>
      <trkpt lat="47.9226430" lon="8.1833180">
        <ele>391.6</ele>
        <time>2022-06-06T10:47:14Z</time>
      </trkpt>
      <trkpt lat="47.9227180" lon="8.1834910">
        <ele>391.4</ele>
        <time>2022-06-06T10:47:18Z</time>
      </trkpt>
      <trkpt lat="47.9227710" lon="8.1836510">
        <ele>391.8</ele>
        <time>2022-06-06T10:47:22Z</time>
      </trkpt>
      <trkpt lat="47.9227750" lon="8.1837950">
        <ele>391.6</ele>
        <time>2022-06-06T10:47:26Z</time>
      </trkpt>
      <trkpt lat="47.9228000" lon="8.1838380">
        <ele>392.2</ele>
        <time>2022-06-06T10:47:30Z</time>
      </trkpt>
      <trkpt lat="47.9228060" lon="8.1839030">
        <ele>392.0</ele>
        <time>2022-06-06T10:47:34Z</time>
      </trkpt>
      <trkpt lat="47.9228410" lon="8.1839760">
        <ele>392.0</ele>
        <time>2022-06-06T10:47:38Z</time>
      </trkpt>
      <trkpt lat="47.9228410" lon="8.1839760">
        <ele>392.0</ele>
        <time>2022-06-06T10:47:42Z</time>
      </trkpt>
      <trkpt lat="47.9228850" lon="8.1839880">
        <ele>391.6</ele>
        <time>2022-06-06T10:47:46Z</time>
      </trkpt>
      <trkpt lat="47.9228960" lon="8.1839550">
        <ele>391.8</ele>
        <time>2022-06-06T10:47:50Z</time>
      </trkpt>
      <trkpt lat="47.9228900" lon="8.1839250">
        <ele>392.0</ele>
        <time>2022-06-06T10:47:54Z</time>
      </trkpt>
      <trkpt lat="47.9228660" lon="8.1838860">
        <ele>392.0</ele>
        <time>2022-06-06T10:47:58Z</time>
      </trkpt>
      <trkpt lat="47.9228200" lon="8.1838600">
        <ele>392.6</ele>
        <time>2022-06-06T10:48:02Z</time>
      </trkpt>
      <trkpt lat="47.9227810" lon="8.1838060">
        <ele>392.6</ele>
        <time>2022-06-06T10:48:06Z</time>
      </trkpt>
      <trkpt lat="47.9227450" lon="8.1836530">
        <ele>391.8</ele>
        <time>2022-06-06T10:48:10Z</time>
      </trkpt>
      <trkpt lat="47.9227000" lon="8.1834760">
        <ele>391.8</ele>
        <time>2022-06-06T10:48:14Z</time>
      </trkpt>
      <trkpt lat="47.9226500" lon="8.1833010">
        <ele>392.2</ele>
        <time>2022-06-06T10:48:18Z</time>
      </trkpt>
      <trkpt lat="47.9225860" lon="8.1831480">
        <ele>392.2</ele>
        <time>2022-06-06T10:48:22Z</time>
      </trkpt>
      <trkpt lat="47.9225100" lon="8.1830900">
        <ele>393.4</ele>
        <time>2022-06-06T10:48:26Z</time>
      </trkpt>
      <trkpt lat="47.9223960" lon="8.1831150">
        <ele>393.2</ele>
        <time>2022-06-06T10:48:30Z</time>
      </trkpt>
      <trkpt lat="47.9222950" lon="8.1831980">
        <ele>392.8</ele>
        <time>2022-06-06T10:48:34Z</time>
      </trkpt>
      <trkpt lat="47.9221910" lon="8.1832960">
        <ele>392.6</ele>
        <time>2022-06-06T10:48:38Z</time>
      </trkpt>
      <trkpt lat="47.9221210" lon="8.1833730">
        <ele>391.4</ele>
        <time>2022-06-06T10:48:42Z</time>
      </trkpt>
      <trkpt lat="47.9220710" lon="8.1834230">
        <ele>391.0</ele>
        <time>2022-06-06T10:48:46Z</time>
      </trkpt>
      <trkpt lat="47.9220280" lon="8.1834510">
        <ele>391.2</ele>
        <time>2022-06-06T10:48:50Z</time>
      </trkpt>
      <trkpt lat="47.9219860" lon="8.1835110">
        <ele>391.2</ele>
        <time>2022-06-06T10:48:54Z</time>
      </trkpt>
      <trkpt lat="47.9219330" lon="8.1835600">
        <ele>391.4</ele>
        <time>2022-06-06T10:48:58Z</time>
      </trkpt>
      <trkpt lat="47.9218480" lon="8.1836350">
        <ele>390.6</ele>
        <time>2022-06-06T10:49:02Z</time>
      </trkpt>
      <trkpt lat="47.9217080" lon="8.1837810">
        <ele>389.0</ele>
        <time>2022-06-06T10:49:06Z</time>
      </trkpt>
      <trkpt lat="47.9215360" lon="8.1839650">
        <ele>388.0</ele>
        <time>2022-06-06T10:49:10Z</time>
      </trkpt>
      <trkpt lat="47.9213660" lon="8.1841360">
        <ele>388.0</ele>
        <time>2022-06-06T10:49:14Z</time>
      </trkpt>
      <trkpt lat="47.9212180" lon="8.1842950">
        <ele>388.8</ele>
        <time>2022-06-06T10:49:18Z</time>
      </trkpt>
      <trkpt lat="47.9210880" lon="8.1844800">
        <ele>389.2</ele>
        <time>2022-06-06T10:49:22Z</time>
      </trkpt>
      <trkpt lat="47.9209730" lon="8.1846730">
        <ele>389.4</ele>
        <time>2022-06-06T10:49:26Z</time>
      </trkpt>
      <trkpt lat="47.9208750" lon="8.1848760">
        <ele>390.0</ele>
        <time>2022-06-06T10:49:30Z</time>
      </trkpt>
      <trkpt lat="47.9207900" lon="8.1850710">
        <ele>390.2</ele>
        <time>2022-06-06T10:49:34Z</time>
      </trkpt>
      <trkpt lat="47.9207250" lon="8.1852750">
        <ele>390.4</ele>
        <time>2022-06-06T10:49:38Z</time>
      </trkpt>
      <trkpt lat="47.9206650" lon="8.1854500">
        <ele>390.6</ele>
        <time>2022-06-06T10:49:42Z</time>
      </trkpt>
      <trkpt lat="47.9206200" lon="8.1855950">
        <ele>391.2</ele>
        <time>2022-06-06T10:49:46Z</time>
      </trkpt>
      <trkpt lat="47.9205880" lon="8.1857250">
        <ele>391.2</ele>
        <time>2022-06-06T10:49:50Z</time>
      </trkpt>
      <trkpt lat="47.9205450" lon="8.1858710">
        <ele>392.2</ele>
        <time>2022-06-06T10:49:54Z</time>
      </trkpt>
      <trkpt lat="47.9205230" lon="8.1860130">
        <ele>393.4</ele>
        <time>2022-06-06T10:49:58Z</time>
      </trkpt>
      <trkpt lat="47.9205130" lon="8.1861610">
        <ele>394.0</ele>
        <time>2022-06-06T10:50:02Z</time>
      </trkpt>
      <trkpt lat="47.9204950" lon="8.1862930">
        <ele>395.4</ele>
        <time>2022-06-06T10:50:06Z</time>
      </trkpt>
      <trkpt lat="47.9205030" lon="8.1863880">
        <ele>395.6</ele>
        <time>2022-06-06T10:50:10Z</time>
      </trkpt>
      <trkpt lat="47.9204780" lon="8.1864700">
        <ele>396.0</ele>
        <time>2022-06-06T10:50:14Z</time>
      </trkpt>
      <trkpt lat="47.9204430" lon="8.1865330">
        <ele>396.2</ele>
        <time>2022-06-06T10:50:18Z</time>
      </trkpt>
      <trkpt lat="47.9204380" lon="8.1866410">
        <ele>396.4</ele>
        <time>2022-06-06T10:50:22Z</time>
      </trkpt>
      <trkpt lat="47.9204260" lon="8.1867810">
        <ele>396.4</ele>
        <time>2022-06-06T10:50:26Z</time>
      </trkpt>
      <trkpt lat="47.9204250" lon="8.1868930">
        <ele>396.8</ele>
        <time>2022-06-06T10:50:30Z</time>
      </trkpt>
      <trkpt lat="47.9204310" lon="8.1869880">
        <ele>397.2</ele>
        <time>2022-06-06T10:50:34Z</time>
      </trkpt>
      <trkpt lat="47.9204180" lon="8.1870760">
        <ele>397.2</ele>
        <time>2022-06-06T10:50:38Z</time>
      </trkpt>
      <trkpt lat="47.9204180" lon="8.1870760">
        <ele>397.6</ele>
        <time>2022-06-06T10:50:42Z</time>
      </trkpt>
      <trkpt lat="47.9204180" lon="8.1870760">
        <ele>397.4</ele>
        <time>2022-06-06T10:50:46Z</time>
      </trkpt>
      <trkpt lat="47.9204180" lon="8.1870760">
        <ele>397.2</ele>
        <time>2022-06-06T10:50:50Z</time>
      </trkpt>
      <trkpt lat="47.9204180" lon="8.1870760">
        <ele>397.6</ele>
        <time>2022-06-06T10:50:54Z</time>
      </trkpt>
      <trkpt lat="47.9204180" lon="8.1870760">
        <ele>397.6</ele>
        <time>2022-06-06T10:50:58Z</time>
      </trkpt>
      <trkpt lat="47.9204180" lon="8.1870760">
        <ele>397.6</ele>
        <time>2022-06-06T10:51:02Z</time>
      </trkpt>
      <trkpt lat="47.9204180" lon="8.1870760">
        <ele>397.6</ele>
        <time>2022-06-06T10:51:06Z</time>
      </trkpt>
      <trkpt lat="47.9204180" lon="8.1870760">
        <ele>397.6</ele>
        <time>2022-06-06T10:51:10Z</time>
      </trkpt>
      <trkpt lat="47.9204180" lon="8.1870760">
        <ele>397.4</ele>
        <time>2022-06-06T10:51:14Z</time>
      </trkpt>
      <trkpt lat="47.9204180" lon="8.1870760">
        <ele>397.6</ele>
        <time>2022-06-06T10:51:18Z</time>
      </trkpt>
      <trkpt lat="47.9204180" lon="8.1870760">
        <ele>397.8</ele>
        <time>2022-06-06T10:51:22Z</time>
      </trkpt>
      <trkpt lat="47.9204180" lon="8.1870760">
        <ele>397.6</ele>
        <time>2022-06-06T10:51:26Z</time>
      </trkpt>
      <trkpt lat="47.9204180" lon="8.1870760">
        <ele>397.6</ele>
        <time>2022-06-06T10:51:30Z</time>
      </trkpt>
      <trkpt lat="47.9204180" lon="8.1870760">
        <ele>397.6</ele>
        <time>2022-06-06T10:51:34Z</time>
      </trkpt>
      <trkpt lat="47.9204180" lon="8.1870760">
        <ele>397.4</ele>
        <time>2022-06-06T10:51:38Z</time>
      </trkpt>
      <trkpt lat="47.9204180" lon="8.1870760">
        <ele>398.0</ele>
        <time>2022-06-06T10:51:42Z</time>
      </trkpt>
      <trkpt lat="47.9204180" lon="8.1870760">
        <ele>397.8</ele>
        <time>2022-06-06T10:51:46Z</time>
      </trkpt>
      <trkpt lat="47.9204180" lon="8.1870760">
        <ele>397.8</ele>
        <time>2022-06-06T10:51:50Z</time>
      </trkpt>
      <trkpt lat="47.9204180" lon="8.1870760">
        <ele>398.4</ele>
        <time>2022-06-06T10:51:54Z</time>
      </trkpt>
      <trkpt lat="47.9204180" lon="8.1870760">
        <ele>398.0</ele>
        <time>2022-06-06T10:51:58Z</time>
      </trkpt>
      <trkpt lat="47.9204180" lon="8.1870760">
        <ele>397.8</ele>
        <time>2022-06-06T10:52:02Z</time>
      </trkpt>
      <trkpt lat="47.9204180" lon="8.1870760">
        <ele>398.4</ele>
        <time>2022-06-06T10:52:06Z</time>
      </trkpt>
      <trkpt lat="47.9204180" lon="8.1870760">
        <ele>398.0</ele>
        <time>2022-06-06T10:52:10Z</time>
      </trkpt>
      <trkpt lat="47.9204510" lon="8.1871380">
        <ele>398.0</ele>
        <time>2022-06-06T10:52:14Z</time>
      </trkpt>
      <trkpt lat="47.9204760" lon="8.1870910">
        <ele>397.4</ele>
        <time>2022-06-06T10:52:18Z</time>
      </trkpt>
      <trkpt lat="47.9204180" lon="8.1869950">
        <ele>397.0</ele>
        <time>2022-06-06T10:52:22Z</time>
      </trkpt>
      <trkpt lat="47.9203260" lon="8.1869280">
        <ele>396.8</ele>
        <time>2022-06-06T10:52:26Z</time>
      </trkpt>
      <trkpt lat="47.9202480" lon="8.1868610">
        <ele>397.4</ele>
        <time>2022-06-06T10:52:30Z</time>
      </trkpt>
      <trkpt lat="47.9201880" lon="8.1867450">
        <ele>397.6</ele>
        <time>2022-06-06T10:52:34Z</time>
      </trkpt>
      <trkpt lat="47.9201430" lon="8.1866130">
        <ele>398.0</ele>
        <time>2022-06-06T10:52:38Z</time>
      </trkpt>
      <trkpt lat="47.9201080" lon="8.1864810">
        <ele>398.0</ele>
        <time>2022-06-06T10:52:42Z</time>
      </trkpt>
      <trkpt lat="47.9200650" lon="8.1863730">
        <ele>398.4</ele>
        <time>2022-06-06T10:52:46Z</time>
      </trkpt>
      <trkpt lat="47.9200250" lon="8.1862800">
        <ele>398.4</ele>
        <time>2022-06-06T10:52:50Z</time>
      </trkpt>
      <trkpt lat="47.9199850" lon="8.1862000">
        <ele>398.4</ele>
        <time>2022-06-06T10:52:54Z</time>
      </trkpt>
      <trkpt lat="47.9199530" lon="8.1861330">
        <ele>399.0</ele>
        <time>2022-06-06T10:52:58Z</time>
      </trkpt>
      <trkpt lat="47.9199110" lon="8.1860700">
        <ele>399.0</ele>
        <time>2022-06-06T10:53:02Z</time>
      </trkpt>
      <trkpt lat="47.9199110" lon="8.1860700">
        <ele>399.2</ele>
        <time>2022-06-06T10:53:06Z</time>
      </trkpt>
      <trkpt lat="47.9199110" lon="8.1860700">
        <ele>399.2</ele>
        <time>2022-06-06T10:53:10Z</time>
      </trkpt>
      <trkpt lat="47.9199110" lon="8.1860700">
        <ele>399.2</ele>
        <time>2022-06-06T10:53:14Z</time>
      </trkpt>
      <trkpt lat="47.9199110" lon="8.1860700">
        <ele>399.4</ele>
        <time>2022-06-06T10:53:18Z</time>
      </trkpt>
      <trkpt lat="47.9199110" lon="8.1860700">
        <ele>399.6</ele>
        <time>2022-06-06T10:53:22Z</time>
      </trkpt>
      <trkpt lat="47.9199110" lon="8.1860700">
        <ele>399.4</ele>
        <time>2022-06-06T10:53:26Z</time>
      </trkpt>
      <trkpt lat="47.9199110" lon="8.1860700">
        <ele>399.2</ele>
        <time>2022-06-06T10:53:30Z</time>
      </trkpt>
      <trkpt lat="47.9199110" lon="8.1860700">
        <ele>399.2</ele>
        <time>2022-06-06T10:53:34Z</time>
      </trkpt>
      <trkpt lat="47.9199110" lon="8.1860700">
        <ele>399.6</ele>
        <time>2022-06-06T10:53:38Z</time>
      </trkpt>
      <trkpt lat="47.9199110" lon="8.1860700">
        <ele>399.4</ele>
        <time>2022-06-06T10:53:42Z</time>
      </trkpt>
      <trkpt lat="47.9199110" lon="8.1860700">
        <ele>399.6</ele>
        <time>2022-06-06T10:53:46Z</time>
      </trkpt>
      <trkpt lat="47.9199110" lon="8.1860700">
        <ele>399.6</ele>
        <time>2022-06-06T10:53:50Z</time>
      </trkpt>
      <trkpt lat="47.9199110" lon="8.1860700">
        <ele>399.6</ele>
        <time>2022-06-06T10:53:54Z</time>
      </trkpt>
      <trkpt lat="47.9199110" lon="8.1860700">
        <ele>399.6</ele>
        <time>2022-06-06T10:53:58Z</time>
      </trkpt>
      <trkpt lat="47.9199110" lon="8.1860700">
        <ele>399.6</ele>
        <time>2022-06-06T10:54:02Z</time>
      </trkpt>
      <trkpt lat="47.9199000" lon="8.1860930">
        <ele>399.4</ele>
        <time>2022-06-06T10:54:06Z</time>
      </trkpt>
      <trkpt lat="47.9199510" lon="8.1861530">
        <ele>399.4</ele>
        <time>2022-06-06T10:54:10Z</time>
      </trkpt>
      <trkpt lat="47.9200110" lon="8.1862760">
        <ele>399.6</ele>
        <time>2022-06-06T10:54:14Z</time>
      </trkpt>
      <trkpt lat="47.9200830" lon="8.1864480">
        <ele>399.6</ele>
        <time>2022-06-06T10:54:18Z</time>
      </trkpt>
      <trkpt lat="47.9201560" lon="8.1866360">
        <ele>398.8</ele>
        <time>2022-06-06T10:54:22Z</time>
      </trkpt>
      <trkpt lat="47.9201950" lon="8.1867530">
        <ele>398.6</ele>
        <time>2022-06-06T10:54:26Z</time>
      </trkpt>
      <trkpt lat="47.9202600" lon="8.1868550">
        <ele>398.4</ele>
        <time>2022-06-06T10:54:30Z</time>
      </trkpt>
      <trkpt lat="47.9203900" lon="8.1869900">
        <ele>397.6</ele>
        <time>2022-06-06T10:54:34Z</time>
      </trkpt>
      <trkpt lat="47.9204580" lon="8.1871460">
        <ele>396.8</ele>
        <time>2022-06-06T10:54:38Z</time>
      </trkpt>
      <trkpt lat="47.9204910" lon="8.1872660">
        <ele>398.0</ele>
        <time>2022-06-06T10:54:42Z</time>
      </trkpt>
      <trkpt lat="47.9205180" lon="8.1873560">
        <ele>398.0</ele>
        <time>2022-06-06T10:54:46Z</time>
      </trkpt>
      <trkpt lat="47.9205480" lon="8.1874200">
        <ele>398.0</ele>
        <time>2022-06-06T10:54:50Z</time>
      </trkpt>
      <trkpt lat="47.9205480" lon="8.1874200">
        <ele>398.6</ele>
        <time>2022-06-06T10:54:54Z</time>
      </trkpt>
      <trkpt lat="47.9205480" lon="8.1874200">
        <ele>398.6</ele>
        <time>2022-06-06T10:54:58Z</time>
      </trkpt>
      <trkpt lat="47.9205480" lon="8.1874200">
        <ele>398.6</ele>
        <time>2022-06-06T10:55:02Z</time>
      </trkpt>
      <trkpt lat="47.9205480" lon="8.1874200">
        <ele>398.4</ele>
        <time>2022-06-06T10:55:06Z</time>
      </trkpt>
      <trkpt lat="47.9205480" lon="8.1874200">
        <ele>398.6</ele>
        <time>2022-06-06T10:55:10Z</time>
      </trkpt>
      <trkpt lat="47.9205480" lon="8.1874200">
        <ele>398.6</ele>
        <time>2022-06-06T10:55:14Z</time>
      </trkpt>
      <trkpt lat="47.9205480" lon="8.1874200">
        <ele>398.6</ele>
        <time>2022-06-06T10:55:18Z</time>
      </trkpt>
      <trkpt lat="47.9205480" lon="8.1874200">
        <ele>398.8</ele>
        <time>2022-06-06T10:55:22Z</time>
      </trkpt>
      <trkpt lat="47.9205480" lon="8.1874200">
        <ele>398.4</ele>
        <time>2022-06-06T10:55:26Z</time>
      </trkpt>
      <trkpt lat="47.9205480" lon="8.1874200">
        <ele>398.2</ele>
        <time>2022-06-06T10:55:30Z</time>
      </trkpt>
      <trkpt lat="47.9205480" lon="8.1874200">
        <ele>398.2</ele>
        <time>2022-06-06T10:55:34Z</time>
      </trkpt>
      <trkpt lat="47.9205480" lon="8.1874200">
        <ele>398.6</ele>
        <time>2022-06-06T10:55:38Z</time>
      </trkpt>
      <trkpt lat="47.9205480" lon="8.1874200">
        <ele>398.8</ele>
        <time>2022-06-06T10:55:42Z</time>
      </trkpt>
      <trkpt lat="47.9205480" lon="8.1874200">
        <ele>398.6</ele>
        <time>2022-06-06T10:55:46Z</time>
      </trkpt>
      <trkpt lat="47.9205480" lon="8.1874200">
        <ele>399.4</ele>
        <time>2022-06-06T10:55:50Z</time>
      </trkpt>
      <trkpt lat="47.9205480" lon="8.1874200">
        <ele>399.0</ele>
        <time>2022-06-06T10:55:54Z</time>
      </trkpt>
      <trkpt lat="47.9205480" lon="8.1874200">
        <ele>399.0</ele>
        <time>2022-06-06T10:55:58Z</time>
      </trkpt>
      <trkpt lat="47.9205480" lon="8.1874200">
        <ele>399.4</ele>
        <time>2022-06-06T10:56:02Z</time>
      </trkpt>
      <trkpt lat="47.9205480" lon="8.1874200">
        <ele>398.8</ele>
        <time>2022-06-06T10:56:06Z</time>
      </trkpt>
      <trkpt lat="47.9205480" lon="8.1874200">
        <ele>399.0</ele>
        <time>2022-06-06T10:56:10Z</time>
      </trkpt>
      <trkpt lat="47.9205480" lon="8.1874200">
        <ele>399.6</ele>
        <time>2022-06-06T10:56:14Z</time>
      </trkpt>
      <trkpt lat="47.9205480" lon="8.1874200">
        <ele>399.2</ele>
        <time>2022-06-06T10:56:18Z</time>
      </trkpt>
      <trkpt lat="47.9205480" lon="8.1874200">
        <ele>399.2</ele>
        <time>2022-06-06T10:56:22Z</time>
      </trkpt>
      <trkpt lat="47.9205500" lon="8.1874210">
        <ele>399.2</ele>
        <time>2022-06-06T10:56:26Z</time>
      </trkpt>
      <trkpt lat="47.9205500" lon="8.1874210">
        <ele>399.6</ele>
        <time>2022-06-06T10:56:30Z</time>
      </trkpt>
      <trkpt lat="47.9205500" lon="8.1874210">
        <ele>398.6</ele>
        <time>2022-06-06T10:56:34Z</time>
      </trkpt>
      <trkpt lat="47.9205500" lon="8.1874210">
        <ele>398.6</ele>
        <time>2022-06-06T10:56:38Z</time>
      </trkpt>
      <trkpt lat="47.9205500" lon="8.1874210">
        <ele>398.8</ele>
        <time>2022-06-06T10:56:42Z</time>
      </trkpt>
      <trkpt lat="47.9205500" lon="8.1874210">
        <ele>398.6</ele>
        <time>2022-06-06T10:56:46Z</time>
      </trkpt>
      <trkpt lat="47.9205500" lon="8.1874210">
        <ele>399.0</ele>
        <time>2022-06-06T10:56:50Z</time>
      </trkpt>
      <trkpt lat="47.9205060" lon="8.1874650">
        <ele>398.6</ele>
        <time>2022-06-06T10:56:54Z</time>
      </trkpt>
      <trkpt lat="47.9204860" lon="8.1874310">
        <ele>398.8</ele>
        <time>2022-06-06T10:56:58Z</time>
      </trkpt>
      <trkpt lat="47.9204530" lon="8.1874510">
        <ele>399.2</ele>
        <time>2022-06-06T10:57:02Z</time>
      </trkpt>
      <trkpt lat="47.9204730" lon="8.1875500">
        <ele>399.6</ele>
        <time>2022-06-06T10:57:06Z</time>
      </trkpt>
      <trkpt lat="47.9204880" lon="8.1876460">
        <ele>400.4</ele>
        <time>2022-06-06T10:57:10Z</time>
      </trkpt>
      <trkpt lat="47.9204910" lon="8.1877410">
        <ele>401.2</ele>
        <time>2022-06-06T10:57:14Z</time>
      </trkpt>
      <trkpt lat="47.9204960" lon="8.1878610">
        <ele>401.6</ele>
        <time>2022-06-06T10:57:18Z</time>
      </trkpt>
      <trkpt lat="47.9205000" lon="8.1879850">
        <ele>402.4</ele>
        <time>2022-06-06T10:57:22Z</time>
      </trkpt>
      <trkpt lat="47.9205060" lon="8.1881110">
        <ele>403.4</ele>
        <time>2022-06-06T10:57:26Z</time>
      </trkpt>
      <trkpt lat="47.9205130" lon="8.1882300">
        <ele>404.2</ele>
        <time>2022-06-06T10:57:30Z</time>
      </trkpt>
      <trkpt lat="47.9205280" lon="8.1883380">
        <ele>404.0</ele>
        <time>2022-06-06T10:57:34Z</time>
      </trkpt>
      <trkpt lat="47.9205580" lon="8.1884460">
        <ele>404.4</ele>
        <time>2022-06-06T10:57:38Z</time>
      </trkpt>
      <trkpt lat="47.9206030" lon="8.1885450">
        <ele>405.2</ele>
        <time>2022-06-06T10:57:42Z</time>
      </trkpt>
      <trkpt lat="47.9206580" lon="8.1886300">
        <ele>405.4</ele>
        <time>2022-06-06T10:57:46Z</time>
      </trkpt>
      <trkpt lat="47.9206950" lon="8.1887210">
        <ele>405.8</ele>
        <time>2022-06-06T10:57:50Z</time>
      </trkpt>
      <trkpt lat="47.9207330" lon="8.1888230">
        <ele>406.2</ele>
        <time>2022-06-06T10:57:54Z</time>
      </trkpt>
      <trkpt lat="47.9207580" lon="8.1889210">
        <ele>407.2</ele>
        <time>2022-06-06T10:57:58Z</time>
      </trkpt>
      <trkpt lat="47.9207850" lon="8.1890350">
        <ele>408.0</ele>
        <time>2022-06-06T10:58:02Z</time>
      </trkpt>
      <trkpt lat="47.9207650" lon="8.1891600">
        <ele>407.8</ele>
        <time>2022-06-06T10:58:06Z</time>
      </trkpt>
      <trkpt lat="47.9207430" lon="8.1892800">
        <ele>408.8</ele>
        <time>2022-06-06T10:58:10Z</time>
      </trkpt>
      <trkpt lat="47.9207310" lon="8.1894080">
        <ele>408.8</ele>
        <time>2022-06-06T10:58:14Z</time>
      </trkpt>
      <trkpt lat="47.9206860" lon="8.1895210">
        <ele>409.4</ele>
        <time>2022-06-06T10:58:18Z</time>
      </trkpt>
      <trkpt lat="47.9206160" lon="8.1896250">
        <ele>409.8</ele>
        <time>2022-06-06T10:58:22Z</time>
      </trkpt>
      <trkpt lat="47.9205250" lon="8.1896580">
        <ele>410.4</ele>
        <time>2022-06-06T10:58:26Z</time>
      </trkpt>
      <trkpt lat="47.9204280" lon="8.1896560">
        <ele>410.8</ele>
        <time>2022-06-06T10:58:30Z</time>
      </trkpt>
      <trkpt lat="47.9203200" lon="8.1896530">
        <ele>410.6</ele>
        <time>2022-06-06T10:58:34Z</time>
      </trkpt>
      <trkpt lat="47.9201900" lon="8.1896560">
        <ele>410.4</ele>
        <time>2022-06-06T10:58:38Z</time>
      </trkpt>
      <trkpt lat="47.9200650" lon="8.1897810">
        <ele>410.0</ele>
        <time>2022-06-06T10:58:42Z</time>
      </trkpt>
      <trkpt lat="47.9200160" lon="8.1900230">
        <ele>409.8</ele>
        <time>2022-06-06T10:58:46Z</time>
      </trkpt>
      <trkpt lat="47.9199950" lon="8.1902780">
        <ele>409.8</ele>
        <time>2022-06-06T10:58:50Z</time>
      </trkpt>
      <trkpt lat="47.9199800" lon="8.1905610">
        <ele>409.0</ele>
        <time>2022-06-06T10:58:54Z</time>
      </trkpt>
      <trkpt lat="47.9199710" lon="8.1908830">
        <ele>408.0</ele>
        <time>2022-06-06T10:58:58Z</time>
      </trkpt>
      <trkpt lat="47.9199480" lon="8.1912200">
        <ele>407.0</ele>
        <time>2022-06-06T10:59:02Z</time>
      </trkpt>
      <trkpt lat="47.9198980" lon="8.1915550">
        <ele>406.4</ele>
        <time>2022-06-06T10:59:06Z</time>
      </trkpt>
      <trkpt lat="47.9198210" lon="8.1918910">
        <ele>405.4</ele>
        <time>2022-06-06T10:59:10Z</time>
      </trkpt>
      <trkpt lat="47.9197410" lon="8.1922380">
        <ele>404.6</ele>
        <time>2022-06-06T10:59:14Z</time>
      </trkpt>
      <trkpt lat="47.9196380" lon="8.1925700">
        <ele>404.0</ele>
        <time>2022-06-06T10:59:18Z</time>
      </trkpt>
      <trkpt lat="47.9195100" lon="8.1929300">
        <ele>403.8</ele>
        <time>2022-06-06T10:59:22Z</time>
      </trkpt>
      <trkpt lat="47.9193780" lon="8.1933080">
        <ele>402.6</ele>
        <time>2022-06-06T10:59:26Z</time>
      </trkpt>
      <trkpt lat="47.9192630" lon="8.1936860">
        <ele>402.2</ele>
        <time>2022-06-06T10:59:30Z</time>
      </trkpt>
      <trkpt lat="47.9191600" lon="8.1940280">
        <ele>401.0</ele>
        <time>2022-06-06T10:59:34Z</time>
      </trkpt>
      <trkpt lat="47.9190680" lon="8.1943410">
        <ele>401.8</ele>
        <time>2022-06-06T10:59:38Z</time>
      </trkpt>
      <trkpt lat="47.9189760" lon="8.1946600">
        <ele>401.2</ele>
        <time>2022-06-06T10:59:42Z</time>
      </trkpt>
      <trkpt lat="47.9189000" lon="8.1949760">
        <ele>401.0</ele>
        <time>2022-06-06T10:59:46Z</time>
      </trkpt>
      <trkpt lat="47.9188230" lon="8.1952730">
        <ele>400.4</ele>
        <time>2022-06-06T10:59:50Z</time>
      </trkpt>
      <trkpt lat="47.9187530" lon="8.1955580">
        <ele>401.0</ele>
        <time>2022-06-06T10:59:54Z</time>
      </trkpt>
      <trkpt lat="47.9186860" lon="8.1958260">
        <ele>400.2</ele>
        <time>2022-06-06T10:59:58Z</time>
      </trkpt>
      <trkpt lat="47.9186130" lon="8.1961010">
        <ele>400.0</ele>
        <time>2022-06-06T11:00:02Z</time>
      </trkpt>
      <trkpt lat="47.9185380" lon="8.1963900">
        <ele>399.6</ele>
        <time>2022-06-06T11:00:06Z</time>
      </trkpt>
      <trkpt lat="47.9184600" lon="8.1966860">
        <ele>399.6</ele>
        <time>2022-06-06T11:00:10Z</time>
      </trkpt>
      <trkpt lat="47.9183780" lon="8.1969810">
        <ele>399.4</ele>
        <time>2022-06-06T11:00:14Z</time>
      </trkpt>
      <trkpt lat="47.9182930" lon="8.1972860">
        <ele>399.4</ele>
        <time>2022-06-06T11:00:18Z</time>
      </trkpt>
      <trkpt lat="47.9182060" lon="8.1976080">
        <ele>397.8</ele>
        <time>2022-06-06T11:00:22Z</time>
      </trkpt>
      <trkpt lat="47.9180780" lon="8.1979230">
        <ele>397.8</ele>
        <time>2022-06-06T11:00:26Z</time>
      </trkpt>
      <trkpt lat="47.9179460" lon="8.1982560">
        <ele>396.4</ele>
        <time>2022-06-06T11:00:30Z</time>
      </trkpt>
      <trkpt lat="47.9178410" lon="8.1985700">
        <ele>396.8</ele>
        <time>2022-06-06T11:00:34Z</time>
      </trkpt>
      <trkpt lat="47.9177750" lon="8.1988210">
        <ele>397.4</ele>
        <time>2022-06-06T11:00:38Z</time>
      </trkpt>
      <trkpt lat="47.9177160" lon="8.1990300">
        <ele>398.6</ele>
        <time>2022-06-06T11:00:42Z</time>
      </trkpt>
      <trkpt lat="47.9176560" lon="8.1992100">
        <ele>399.4</ele>
        <time>2022-06-06T11:00:46Z</time>
      </trkpt>
      <trkpt lat="47.9175900" lon="8.1993800">
        <ele>400.2</ele>
        <time>2022-06-06T11:00:50Z</time>
      </trkpt>
      <trkpt lat="47.9175160" lon="8.1995410">
        <ele>400.4</ele>
        <time>2022-06-06T11:00:54Z</time>
      </trkpt>
      <trkpt lat="47.9174330" lon="8.1997050">
        <ele>400.8</ele>
        <time>2022-06-06T11:00:58Z</time>
      </trkpt>
      <trkpt lat="47.9173460" lon="8.1998750">
        <ele>399.8</ele>
        <time>2022-06-06T11:01:02Z</time>
      </trkpt>
      <trkpt lat="47.9172550" lon="8.2000410">
        <ele>401.0</ele>
        <time>2022-06-06T11:01:06Z</time>
      </trkpt>
      <trkpt lat="47.9171500" lon="8.2001950">
        <ele>400.4</ele>
        <time>2022-06-06T11:01:10Z</time>
      </trkpt>
      <trkpt lat="47.9170310" lon="8.2003400">
        <ele>399.6</ele>
        <time>2022-06-06T11:01:14Z</time>
      </trkpt>
      <trkpt lat="47.9168950" lon="8.2004530">
        <ele>399.4</ele>
        <time>2022-06-06T11:01:18Z</time>
      </trkpt>
      <trkpt lat="47.9167550" lon="8.2005430">
        <ele>400.6</ele>
        <time>2022-06-06T11:01:22Z</time>
      </trkpt>
      <trkpt lat="47.9166100" lon="8.2006200">
        <ele>400.6</ele>
        <time>2022-06-06T11:01:26Z</time>
      </trkpt>
      <trkpt lat="47.9164730" lon="8.2007060">
        <ele>401.4</ele>
        <time>2022-06-06T11:01:30Z</time>
      </trkpt>
      <trkpt lat="47.9163350" lon="8.2007880">
        <ele>401.2</ele>
        <time>2022-06-06T11:01:34Z</time>
      </trkpt>
      <trkpt lat="47.9162030" lon="8.2008850">
        <ele>401.8</ele>
        <time>2022-06-06T11:01:38Z</time>
      </trkpt>
      <trkpt lat="47.9160660" lon="8.2010050">
        <ele>402.4</ele>
        <time>2022-06-06T11:01:42Z</time>
      </trkpt>
      <trkpt lat="47.9159410" lon="8.2011330">
        <ele>402.6</ele>
        <time>2022-06-06T11:01:46Z</time>
      </trkpt>
      <trkpt lat="47.9158280" lon="8.2012750">
        <ele>403.4</ele>
        <time>2022-06-06T11:01:50Z</time>
      </trkpt>
      <trkpt lat="47.9157160" lon="8.2014200">
        <ele>403.8</ele>
        <time>2022-06-06T11:01:54Z</time>
      </trkpt>
      <trkpt lat="47.9156200" lon="8.2015680">
        <ele>404.6</ele>
        <time>2022-06-06T11:01:58Z</time>
      </trkpt>
      <trkpt lat="47.9155360" lon="8.2017150">
        <ele>405.0</ele>
        <time>2022-06-06T11:02:02Z</time>
      </trkpt>
      <trkpt lat="47.9154500" lon="8.2018710">
        <ele>404.8</ele>
        <time>2022-06-06T11:02:06Z</time>
      </trkpt>
      <trkpt lat="47.9153850" lon="8.2020360">
        <ele>405.4</ele>
        <time>2022-06-06T11:02:10Z</time>
      </trkpt>
      <trkpt lat="47.9153210" lon="8.2022160">
        <ele>404.8</ele>
        <time>2022-06-06T11:02:14Z</time>
      </trkpt>
      <trkpt lat="47.9152630" lon="8.2024780">
        <ele>403.6</ele>
        <time>2022-06-06T11:02:18Z</time>
      </trkpt>
      <trkpt lat="47.9152030" lon="8.2027980">
        <ele>402.4</ele>
        <time>2022-06-06T11:02:22Z</time>
      </trkpt>
      <trkpt lat="47.9151760" lon="8.2031050">
        <ele>401.8</ele>
        <time>2022-06-06T11:02:26Z</time>
      </trkpt>
      <trkpt lat="47.9151760" lon="8.2034080">
        <ele>400.0</ele>
        <time>2022-06-06T11:02:30Z</time>
      </trkpt>
      <trkpt lat="47.9151480" lon="8.2037450">
        <ele>397.4</ele>
        <time>2022-06-06T11:02:34Z</time>
      </trkpt>
      <trkpt lat="47.9149980" lon="8.2040360">
        <ele>396.2</ele>
        <time>2022-06-06T11:02:38Z</time>
      </trkpt>
      <trkpt lat="47.9147980" lon="8.2042450">
        <ele>395.4</ele>
        <time>2022-06-06T11:02:42Z</time>
      </trkpt>
      <trkpt lat="47.9145900" lon="8.2043500">
        <ele>395.6</ele>
        <time>2022-06-06T11:02:46Z</time>
      </trkpt>
      <trkpt lat="47.9144310" lon="8.2044530">
        <ele>395.6</ele>
        <time>2022-06-06T11:02:50Z</time>
      </trkpt>
      <trkpt lat="47.9143310" lon="8.2045650">
        <ele>395.2</ele>
        <time>2022-06-06T11:02:54Z</time>
      </trkpt>
      <trkpt lat="47.9142910" lon="8.2046650">
        <ele>395.0</ele>
        <time>2022-06-06T11:02:58Z</time>
      </trkpt>
      <trkpt lat="47.9142560" lon="8.2047510">
        <ele>395.0</ele>
        <time>2022-06-06T11:03:02Z</time>
      </trkpt>
      <trkpt lat="47.9141610" lon="8.2048360">
        <ele>395.2</ele>
        <time>2022-06-06T11:03:06Z</time>
      </trkpt>
      <trkpt lat="47.9140480" lon="8.2049180">
        <ele>394.8</ele>
        <time>2022-06-06T11:03:10Z</time>
      </trkpt>
      <trkpt lat="47.9139450" lon="8.2050200">
        <ele>395.0</ele>
        <time>2022-06-06T11:03:14Z</time>
      </trkpt>
      <trkpt lat="47.9138260" lon="8.2051410">
        <ele>395.2</ele>
        <time>2022-06-06T11:03:18Z</time>
      </trkpt>
      <trkpt lat="47.9137130" lon="8.2052510">
        <ele>395.2</ele>
        <time>2022-06-06T11:03:22Z</time>
      </trkpt>
      <trkpt lat="47.9135860" lon="8.2053430">
        <ele>395.2</ele>
        <time>2022-06-06T11:03:26Z</time>
      </trkpt>
      <trkpt lat="47.9134660" lon="8.2054560">
        <ele>394.8</ele>
        <time>2022-06-06T11:03:30Z</time>
      </trkpt>
      <trkpt lat="47.9133480" lon="8.2055550">
        <ele>394.6</ele>
        <time>2022-06-06T11:03:34Z</time>
      </trkpt>
      <trkpt lat="47.9132400" lon="8.2056510">
        <ele>394.4</ele>
        <time>2022-06-06T11:03:38Z</time>
      </trkpt>
      <trkpt lat="47.9131460" lon="8.2057550">
        <ele>393.8</ele>
        <time>2022-06-06T11:03:42Z</time>
      </trkpt>
      <trkpt lat="47.9130550" lon="8.2058280">
        <ele>392.2</ele>
        <time>2022-06-06T11:03:46Z</time>
      </trkpt>
      <trkpt lat="47.9130550" lon="8.2058280">
        <ele>392.8</ele>
        <time>2022-06-06T11:03:50Z</time>
      </trkpt>
      <trkpt lat="47.9130550" lon="8.2058280">
        <ele>392.6</ele>
        <time>2022-06-06T11:03:54Z</time>
      </trkpt>
      <trkpt lat="47.9130300" lon="8.2058530">
        <ele>392.6</ele>
        <time>2022-06-06T11:03:58Z</time>
      </trkpt>
      <trkpt lat="47.9129650" lon="8.2058380">
        <ele>392.0</ele>
        <time>2022-06-06T11:04:02Z</time>
      </trkpt>
      <trkpt lat="47.9128860" lon="8.2059380">
        <ele>392.0</ele>
        <time>2022-06-06T11:04:06Z</time>
      </trkpt>
      <trkpt lat="47.9127850" lon="8.2060900">
        <ele>391.2</ele>
        <time>2022-06-06T11:04:10Z</time>
      </trkpt>
      <trkpt lat="47.9126710" lon="8.2062550">
        <ele>390.8</ele>
        <time>2022-06-06T11:04:14Z</time>
      </trkpt>
      <trkpt lat="47.9125460" lon="8.2064210">
        <ele>390.8</ele>
        <time>2022-06-06T11:04:18Z</time>
      </trkpt>
      <trkpt lat="47.9124180" lon="8.2065600">
        <ele>390.6</ele>
        <time>2022-06-06T11:04:22Z</time>
      </trkpt>
      <trkpt lat="47.9122760" lon="8.2066810">
        <ele>391.2</ele>
        <time>2022-06-06T11:04:26Z</time>
      </trkpt>
      <trkpt lat="47.9121350" lon="8.2068030">
        <ele>391.0</ele>
        <time>2022-06-06T11:04:30Z</time>
      </trkpt>
      <trkpt lat="47.9119910" lon="8.2069250">
        <ele>390.8</ele>
        <time>2022-06-06T11:04:34Z</time>
      </trkpt>
      <trkpt lat="47.9118500" lon="8.2070450">
        <ele>390.6</ele>
        <time>2022-06-06T11:04:38Z</time>
      </trkpt>
      <trkpt lat="47.9117080" lon="8.2071630">
        <ele>390.8</ele>
        <time>2022-06-06T11:04:42Z</time>
      </trkpt>
      <trkpt lat="47.9115660" lon="8.2072810">
        <ele>389.8</ele>
        <time>2022-06-06T11:04:46Z</time>
      </trkpt>
      <trkpt lat="47.9114300" lon="8.2074010">
        <ele>390.4</ele>
        <time>2022-06-06T11:04:50Z</time>
      </trkpt>
      <trkpt lat="47.9113030" lon="8.2075150">
        <ele>390.4</ele>
        <time>2022-06-06T11:04:54Z</time>
      </trkpt>
      <trkpt lat="47.9111760" lon="8.2076300">
        <ele>390.2</ele>
        <time>2022-06-06T11:04:58Z</time>
      </trkpt>
      <trkpt lat="47.9110400" lon="8.2077430">
        <ele>390.4</ele>
        <time>2022-06-06T11:05:02Z</time>
      </trkpt>
      <trkpt lat="47.9109100" lon="8.2078600">
        <ele>390.6</ele>
        <time>2022-06-06T11:05:06Z</time>
      </trkpt>
      <trkpt lat="47.9107830" lon="8.2079730">
        <ele>391.0</ele>
        <time>2022-06-06T11:05:10Z</time>
      </trkpt>
      <trkpt lat="47.9106580" lon="8.2080810">
        <ele>391.0</ele>
        <time>2022-06-06T11:05:14Z</time>
      </trkpt>
      <trkpt lat="47.9105360" lon="8.2081900">
        <ele>390.6</ele>
        <time>2022-06-06T11:05:18Z</time>
      </trkpt>
      <trkpt lat="47.9104080" lon="8.2083080">
        <ele>390.2</ele>
        <time>2022-06-06T11:05:22Z</time>
      </trkpt>
      <trkpt lat="47.9102630" lon="8.2084350">
        <ele>389.4</ele>
        <time>2022-06-06T11:05:26Z</time>
      </trkpt>
      <trkpt lat="47.9101100" lon="8.2085730">
        <ele>388.4</ele>
        <time>2022-06-06T11:05:30Z</time>
      </trkpt>
      <trkpt lat="47.9099750" lon="8.2086960">
        <ele>387.4</ele>
        <time>2022-06-06T11:05:34Z</time>
      </trkpt>
      <trkpt lat="47.9098850" lon="8.2088080">
        <ele>386.4</ele>
        <time>2022-06-06T11:05:38Z</time>
      </trkpt>
      <trkpt lat="47.9099060" lon="8.2090310">
        <ele>384.8</ele>
        <time>2022-06-06T11:05:42Z</time>
      </trkpt>
      <trkpt lat="47.9100310" lon="8.2091160">
        <ele>386.4</ele>
        <time>2022-06-06T11:05:46Z</time>
      </trkpt>
      <trkpt lat="47.9101100" lon="8.2090850">
        <ele>387.6</ele>
        <time>2022-06-06T11:05:50Z</time>
      </trkpt>
      <trkpt lat="47.9101800" lon="8.2090250">
        <ele>388.6</ele>
        <time>2022-06-06T11:05:54Z</time>
      </trkpt>
      <trkpt lat="47.9102450" lon="8.2089500">
        <ele>389.2</ele>
        <time>2022-06-06T11:05:58Z</time>
      </trkpt>
      <trkpt lat="47.9103310" lon="8.2088980">
        <ele>390.0</ele>
        <time>2022-06-06T11:06:02Z</time>
      </trkpt>
      <trkpt lat="47.9103950" lon="8.2088500">
        <ele>389.4</ele>
        <time>2022-06-06T11:06:06Z</time>
      </trkpt>
      <trkpt lat="47.9104660" lon="8.2088060">
        <ele>390.0</ele>
        <time>2022-06-06T11:06:10Z</time>
      </trkpt>
      <trkpt lat="47.9105310" lon="8.2087780">
        <ele>390.2</ele>
        <time>2022-06-06T11:06:14Z</time>
      </trkpt>
      <trkpt lat="47.9105960" lon="8.2087480">
        <ele>390.2</ele>
        <time>2022-06-06T11:06:18Z</time>
      </trkpt>
      <trkpt lat="47.9106650" lon="8.2087400">
        <ele>389.6</ele>
        <time>2022-06-06T11:06:22Z</time>
      </trkpt>
      <trkpt lat="47.9107160" lon="8.2087280">
        <ele>389.8</ele>
        <time>2022-06-06T11:06:26Z</time>
      </trkpt>
      <trkpt lat="47.9107530" lon="8.2087260">
        <ele>390.2</ele>
        <time>2022-06-06T11:06:30Z</time>
      </trkpt>
      <trkpt lat="47.9107510" lon="8.2087880">
        <ele>389.4</ele>
        <time>2022-06-06T11:06:34Z</time>
      </trkpt>
      <trkpt lat="47.9106850" lon="8.2087800">
        <ele>389.6</ele>
        <time>2022-06-06T11:06:38Z</time>
      </trkpt>
      <trkpt lat="47.9106110" lon="8.2087710">
        <ele>390.2</ele>
        <time>2022-06-06T11:06:42Z</time>
      </trkpt>
      <trkpt lat="47.9105350" lon="8.2087980">
        <ele>390.2</ele>
        <time>2022-06-06T11:06:46Z</time>
      </trkpt>
      <trkpt lat="47.9104630" lon="8.2088350">
        <ele>389.8</ele>
        <time>2022-06-06T11:06:50Z</time>
      </trkpt>
      <trkpt lat="47.9103910" lon="8.2088800">
        <ele>389.8</ele>
        <time>2022-06-06T11:06:54Z</time>
      </trkpt>
      <trkpt lat="47.9103210" lon="8.2089300">
        <ele>389.4</ele>
        <time>2022-06-06T11:06:58Z</time>
      </trkpt>
      <trkpt lat="47.9102460" lon="8.2089960">
        <ele>389.2</ele>
        <time>2022-06-06T11:07:02Z</time>
      </trkpt>
      <trkpt lat="47.9101550" lon="8.2090750">
        <ele>388.0</ele>
        <time>2022-06-06T11:07:06Z</time>
      </trkpt>
      <trkpt lat="47.9100480" lon="8.2091580">
        <ele>385.8</ele>
        <time>2022-06-06T11:07:10Z</time>
      </trkpt>
      <trkpt lat="47.9099230" lon="8.2090800">
        <ele>385.6</ele>
        <time>2022-06-06T11:07:14Z</time>
      </trkpt>
      <trkpt lat="47.9099000" lon="8.2088950">
        <ele>386.4</ele>
        <time>2022-06-06T11:07:18Z</time>
      </trkpt>
      <trkpt lat="47.9098610" lon="8.2087710">
        <ele>388.2</ele>
        <time>2022-06-06T11:07:22Z</time>
      </trkpt>
      <trkpt lat="47.9098250" lon="8.2086750">
        <ele>389.2</ele>
        <time>2022-06-06T11:07:26Z</time>
      </trkpt>
      <trkpt lat="47.9098000" lon="8.2085680">
        <ele>390.0</ele>
        <time>2022-06-06T11:07:30Z</time>
      </trkpt>
      <trkpt lat="47.9097630" lon="8.2084460">
        <ele>390.0</ele>
        <time>2022-06-06T11:07:34Z</time>
      </trkpt>
      <trkpt lat="47.9097250" lon="8.2083280">
        <ele>390.0</ele>
        <time>2022-06-06T11:07:38Z</time>
      </trkpt>
      <trkpt lat="47.9096880" lon="8.2081630">
        <ele>389.2</ele>
        <time>2022-06-06T11:07:42Z</time>
      </trkpt>
      <trkpt lat="47.9096510" lon="8.2080180">
        <ele>388.8</ele>
        <time>2022-06-06T11:07:46Z</time>
      </trkpt>
      <trkpt lat="47.9095930" lon="8.2079950">
        <ele>387.8</ele>
        <time>2022-06-06T11:07:50Z</time>
      </trkpt>
      <trkpt lat="47.9095700" lon="8.2081400">
        <ele>386.4</ele>
        <time>2022-06-06T11:07:54Z</time>
      </trkpt>
      <trkpt lat="47.9095980" lon="8.2083110">
        <ele>384.4</ele>
        <time>2022-06-06T11:07:58Z</time>
      </trkpt>
      <trkpt lat="47.9096430" lon="8.2084980">
        <ele>382.4</ele>
        <time>2022-06-06T11:08:02Z</time>
      </trkpt>
      <trkpt lat="47.9096800" lon="8.2086860">
        <ele>379.4</ele>
        <time>2022-06-06T11:08:06Z</time>
      </trkpt>
      <trkpt lat="47.9097210" lon="8.2088980">
        <ele>377.4</ele>
        <time>2022-06-06T11:08:10Z</time>
      </trkpt>
      <trkpt lat="47.9096760" lon="8.2091430">
        <ele>375.2</ele>
        <time>2022-06-06T11:08:14Z</time>
      </trkpt>
      <trkpt lat="47.9096150" lon="8.2094310">
        <ele>372.6</ele>
        <time>2022-06-06T11:08:18Z</time>
      </trkpt>
      <trkpt lat="47.9095880" lon="8.2096880">
        <ele>372.6</ele>
        <time>2022-06-06T11:08:22Z</time>
      </trkpt>
      <trkpt lat="47.9096180" lon="8.2098760">
        <ele>371.2</ele>
        <time>2022-06-06T11:08:26Z</time>
      </trkpt>
      <trkpt lat="47.9096250" lon="8.2102230">
        <ele>369.0</ele>
        <time>2022-06-06T11:08:30Z</time>
      </trkpt>
      <trkpt lat="47.9096550" lon="8.2106300">
        <ele>368.2</ele>
        <time>2022-06-06T11:08:34Z</time>
      </trkpt>
      <trkpt lat="47.9097110" lon="8.2109610">
        <ele>368.0</ele>
        <time>2022-06-06T11:08:38Z</time>
      </trkpt>
      <trkpt lat="47.9097800" lon="8.2112550">
        <ele>367.2</ele>
        <time>2022-06-06T11:08:42Z</time>
      </trkpt>
      <trkpt lat="47.9098510" lon="8.2114710">
        <ele>367.2</ele>
        <time>2022-06-06T11:08:46Z</time>
      </trkpt>
      <trkpt lat="47.9099410" lon="8.2116330">
        <ele>366.4</ele>
        <time>2022-06-06T11:08:50Z</time>
      </trkpt>
      <trkpt lat="47.9100730" lon="8.2118000">
        <ele>365.8</ele>
        <time>2022-06-06T11:08:54Z</time>
      </trkpt>
      <trkpt lat="47.9102060" lon="8.2119980">
        <ele>365.2</ele>
        <time>2022-06-06T11:08:58Z</time>
      </trkpt>
      <trkpt lat="47.9103360" lon="8.2121480">
        <ele>364.6</ele>
        <time>2022-06-06T11:09:02Z</time>
      </trkpt>
      <trkpt lat="47.9104150" lon="8.2123330">
        <ele>364.4</ele>
        <time>2022-06-06T11:09:06Z</time>
      </trkpt>
      <trkpt lat="47.9103480" lon="8.2125550">
        <ele>364.0</ele>
        <time>2022-06-06T11:09:10Z</time>
      </trkpt>
      <trkpt lat="47.9102080" lon="8.2127350">
        <ele>363.4</ele>
        <time>2022-06-06T11:09:14Z</time>
      </trkpt>
      <trkpt lat="47.9100710" lon="8.2129100">
        <ele>363.4</ele>
        <time>2022-06-06T11:09:18Z</time>
      </trkpt>
      <trkpt lat="47.9099130" lon="8.2129980">
        <ele>362.6</ele>
        <time>2022-06-06T11:09:22Z</time>
      </trkpt>
      <trkpt lat="47.9097650" lon="8.2131210">
        <ele>363.4</ele>
        <time>2022-06-06T11:09:26Z</time>
      </trkpt>
      <trkpt lat="47.9096300" lon="8.2132430">
        <ele>363.6</ele>
        <time>2022-06-06T11:09:30Z</time>
      </trkpt>
      <trkpt lat="47.9095130" lon="8.2133330">
        <ele>363.8</ele>
        <time>2022-06-06T11:09:34Z</time>
      </trkpt>
      <trkpt lat="47.9094180" lon="8.2134430">
        <ele>364.0</ele>
        <time>2022-06-06T11:09:38Z</time>
      </trkpt>
      <trkpt lat="47.9093330" lon="8.2135600">
        <ele>364.2</ele>
        <time>2022-06-06T11:09:42Z</time>
      </trkpt>
      <trkpt lat="47.9092400" lon="8.2136480">
        <ele>363.6</ele>
        <time>2022-06-06T11:09:46Z</time>
      </trkpt>
      <trkpt lat="47.9090950" lon="8.2136180">
        <ele>362.8</ele>
        <time>2022-06-06T11:09:50Z</time>
      </trkpt>
      <trkpt lat="47.9089330" lon="8.2136400">
        <ele>363.0</ele>
        <time>2022-06-06T11:09:54Z</time>
      </trkpt>
      <trkpt lat="47.9088160" lon="8.2137660">
        <ele>364.2</ele>
        <time>2022-06-06T11:09:58Z</time>
      </trkpt>
      <trkpt lat="47.9087900" lon="8.2138860">
        <ele>364.6</ele>
        <time>2022-06-06T11:10:02Z</time>
      </trkpt>
      <trkpt lat="47.9087910" lon="8.2139700">
        <ele>365.0</ele>
        <time>2022-06-06T11:10:06Z</time>
      </trkpt>
      <trkpt lat="47.9087980" lon="8.2140480">
        <ele>365.6</ele>
        <time>2022-06-06T11:10:10Z</time>
      </trkpt>
      <trkpt lat="47.9088030" lon="8.2141410">
        <ele>366.4</ele>
        <time>2022-06-06T11:10:14Z</time>
      </trkpt>
      <trkpt lat="47.9088000" lon="8.2142480">
        <ele>367.0</ele>
        <time>2022-06-06T11:10:18Z</time>
      </trkpt>
      <trkpt lat="47.9088080" lon="8.2143530">
        <ele>368.2</ele>
        <time>2022-06-06T11:10:22Z</time>
      </trkpt>
      <trkpt lat="47.9088030" lon="8.2144450">
        <ele>368.8</ele>
        <time>2022-06-06T11:10:26Z</time>
      </trkpt>
      <trkpt lat="47.9087960" lon="8.2145410">
        <ele>369.4</ele>
        <time>2022-06-06T11:10:30Z</time>
      </trkpt>
      <trkpt lat="47.9087680" lon="8.2146250">
        <ele>370.2</ele>
        <time>2022-06-06T11:10:34Z</time>
      </trkpt>
      <trkpt lat="47.9087360" lon="8.2146960">
        <ele>370.4</ele>
        <time>2022-06-06T11:10:38Z</time>
      </trkpt>
      <trkpt lat="47.9087060" lon="8.2147710">
        <ele>370.8</ele>
        <time>2022-06-06T11:10:42Z</time>
      </trkpt>
      <trkpt lat="47.9086780" lon="8.2148400">
        <ele>371.8</ele>
        <time>2022-06-06T11:10:46Z</time>
      </trkpt>
      <trkpt lat="47.9086580" lon="8.2149210">
        <ele>372.2</ele>
        <time>2022-06-06T11:10:50Z</time>
      </trkpt>
      <trkpt lat="47.9086160" lon="8.2149910">
        <ele>372.8</ele>
        <time>2022-06-06T11:10:54Z</time>
      </trkpt>
      <trkpt lat="47.9085730" lon="8.2150580">
        <ele>373.8</ele>
        <time>2022-06-06T11:10:58Z</time>
      </trkpt>
      <trkpt lat="47.9085350" lon="8.2151430">
        <ele>374.6</ele>
        <time>2022-06-06T11:11:02Z</time>
      </trkpt>
      <trkpt lat="47.9084880" lon="8.2152180">
        <ele>375.0</ele>
        <time>2022-06-06T11:11:06Z</time>
      </trkpt>
      <trkpt lat="47.9084500" lon="8.2153010">
        <ele>375.4</ele>
        <time>2022-06-06T11:11:10Z</time>
      </trkpt>
      <trkpt lat="47.9083930" lon="8.2153810">
        <ele>376.4</ele>
        <time>2022-06-06T11:11:14Z</time>
      </trkpt>
      <trkpt lat="47.9083310" lon="8.2154560">
        <ele>376.4</ele>
        <time>2022-06-06T11:11:18Z</time>
      </trkpt>
      <trkpt lat="47.9082710" lon="8.2155510">
        <ele>376.4</ele>
        <time>2022-06-06T11:11:22Z</time>
      </trkpt>
      <trkpt lat="47.9082130" lon="8.2156550">
        <ele>376.2</ele>
        <time>2022-06-06T11:11:26Z</time>
      </trkpt>
      <trkpt lat="47.9081430" lon="8.2157580">
        <ele>376.4</ele>
        <time>2022-06-06T11:11:30Z</time>
      </trkpt>
      <trkpt lat="47.9080680" lon="8.2158450">
        <ele>376.6</ele>
        <time>2022-06-06T11:11:34Z</time>
      </trkpt>
      <trkpt lat="47.9080000" lon="8.2159650">
        <ele>376.4</ele>
        <time>2022-06-06T11:11:38Z</time>
      </trkpt>
      <trkpt lat="47.9079130" lon="8.2160680">
        <ele>376.8</ele>
        <time>2022-06-06T11:11:42Z</time>
      </trkpt>
      <trkpt lat="47.9078330" lon="8.2161880">
        <ele>377.0</ele>
        <time>2022-06-06T11:11:46Z</time>
      </trkpt>
      <trkpt lat="47.9077500" lon="8.2162960">
        <ele>377.2</ele>
        <time>2022-06-06T11:11:50Z</time>
      </trkpt>
      <trkpt lat="47.9076700" lon="8.2164160">
        <ele>377.6</ele>
        <time>2022-06-06T11:11:54Z</time>
      </trkpt>
      <trkpt lat="47.9075880" lon="8.2165280">
        <ele>377.0</ele>
        <time>2022-06-06T11:11:58Z</time>
      </trkpt>
      <trkpt lat="47.9075110" lon="8.2166260">
        <ele>377.2</ele>
        <time>2022-06-06T11:12:02Z</time>
      </trkpt>
      <trkpt lat="47.9074580" lon="8.2167160">
        <ele>377.6</ele>
        <time>2022-06-06T11:12:06Z</time>
      </trkpt>
      <trkpt lat="47.9074750" lon="8.2168550">
        <ele>377.2</ele>
        <time>2022-06-06T11:12:10Z</time>
      </trkpt>
      <trkpt lat="47.9074700" lon="8.2170630">
        <ele>377.0</ele>
        <time>2022-06-06T11:12:14Z</time>
      </trkpt>
      <trkpt lat="47.9074080" lon="8.2172850">
        <ele>376.6</ele>
        <time>2022-06-06T11:12:18Z</time>
      </trkpt>
      <trkpt lat="47.9073280" lon="8.2175100">
        <ele>375.4</ele>
        <time>2022-06-06T11:12:22Z</time>
      </trkpt>
      <trkpt lat="47.9072330" lon="8.2177430">
        <ele>375.2</ele>
        <time>2022-06-06T11:12:26Z</time>
      </trkpt>
      <trkpt lat="47.9071380" lon="8.2179680">
        <ele>375.4</ele>
        <time>2022-06-06T11:12:30Z</time>
      </trkpt>
      <trkpt lat="47.9070430" lon="8.2181750">
        <ele>374.6</ele>
        <time>2022-06-06T11:12:34Z</time>
      </trkpt>
      <trkpt lat="47.9069780" lon="8.2183780">
        <ele>373.8</ele>
        <time>2022-06-06T11:12:38Z</time>
      </trkpt>
      <trkpt lat="47.9068960" lon="8.2185460">
        <ele>374.0</ele>
        <time>2022-06-06T11:12:42Z</time>
      </trkpt>
      <trkpt lat="47.9068010" lon="8.2187180">
        <ele>373.6</ele>
        <time>2022-06-06T11:12:46Z</time>
      </trkpt>
      <trkpt lat="47.9067260" lon="8.2189080">
        <ele>374.0</ele>
        <time>2022-06-06T11:12:50Z</time>
      </trkpt>
      <trkpt lat="47.9066430" lon="8.2191100">
        <ele>373.8</ele>
        <time>2022-06-06T11:12:54Z</time>
      </trkpt>
      <trkpt lat="47.9065600" lon="8.2193060">
        <ele>372.8</ele>
        <time>2022-06-06T11:12:58Z</time>
      </trkpt>
      <trkpt lat="47.9064730" lon="8.2195030">
        <ele>372.6</ele>
        <time>2022-06-06T11:13:02Z</time>
      </trkpt>
      <trkpt lat="47.9063900" lon="8.2196960">
        <ele>372.2</ele>
        <time>2022-06-06T11:13:06Z</time>
      </trkpt>
      <trkpt lat="47.9062980" lon="8.2198880">
        <ele>372.0</ele>
        <time>2022-06-06T11:13:10Z</time>
      </trkpt>
      <trkpt lat="47.9062010" lon="8.2200810">
        <ele>372.0</ele>
        <time>2022-06-06T11:13:14Z</time>
      </trkpt>
      <trkpt lat="47.9061000" lon="8.2202710">
        <ele>371.6</ele>
        <time>2022-06-06T11:13:18Z</time>
      </trkpt>
      <trkpt lat="47.9059880" lon="8.2204560">
        <ele>371.6</ele>
        <time>2022-06-06T11:13:22Z</time>
      </trkpt>
      <trkpt lat="47.9058750" lon="8.2206380">
        <ele>371.2</ele>
        <time>2022-06-06T11:13:26Z</time>
      </trkpt>
      <trkpt lat="47.9057530" lon="8.2208430">
        <ele>370.0</ele>
        <time>2022-06-06T11:13:30Z</time>
      </trkpt>
      <trkpt lat="47.9056530" lon="8.2210900">
        <ele>369.8</ele>
        <time>2022-06-06T11:13:34Z</time>
      </trkpt>
      <trkpt lat="47.9056160" lon="8.2213960">
        <ele>369.2</ele>
        <time>2022-06-06T11:13:38Z</time>
      </trkpt>
      <trkpt lat="47.9056750" lon="8.2216750">
        <ele>368.6</ele>
        <time>2022-06-06T11:13:42Z</time>
      </trkpt>
      <trkpt lat="47.9056950" lon="8.2219460">
        <ele>368.0</ele>
        <time>2022-06-06T11:13:46Z</time>
      </trkpt>
      <trkpt lat="47.9056510" lon="8.2222560">
        <ele>367.2</ele>
        <time>2022-06-06T11:13:50Z</time>
      </trkpt>
      <trkpt lat="47.9055380" lon="8.2225580">
        <ele>367.4</ele>
        <time>2022-06-06T11:13:54Z</time>
      </trkpt>
      <trkpt lat="47.9054260" lon="8.2228330">
        <ele>366.2</ele>
        <time>2022-06-06T11:13:58Z</time>
      </trkpt>
      <trkpt lat="47.9053260" lon="8.2230860">
        <ele>367.2</ele>
        <time>2022-06-06T11:14:02Z</time>
      </trkpt>
      <trkpt lat="47.9052330" lon="8.2233280">
        <ele>366.8</ele>
        <time>2022-06-06T11:14:06Z</time>
      </trkpt>
      <trkpt lat="47.9051330" lon="8.2235830">
        <ele>366.4</ele>
        <time>2022-06-06T11:14:10Z</time>
      </trkpt>
      <trkpt lat="47.9050330" lon="8.2238360">
        <ele>366.2</ele>
        <time>2022-06-06T11:14:14Z</time>
      </trkpt>
      <trkpt lat="47.9049330" lon="8.2240760">
        <ele>366.4</ele>
        <time>2022-06-06T11:14:18Z</time>
      </trkpt>
      <trkpt lat="47.9048380" lon="8.2243110">
        <ele>367.2</ele>
        <time>2022-06-06T11:14:22Z</time>
      </trkpt>
      <trkpt lat="47.9047500" lon="8.2245350">
        <ele>367.2</ele>
        <time>2022-06-06T11:14:26Z</time>
      </trkpt>
      <trkpt lat="47.9046660" lon="8.2247580">
        <ele>367.2</ele>
        <time>2022-06-06T11:14:30Z</time>
      </trkpt>
      <trkpt lat="47.9045810" lon="8.2249680">
        <ele>367.0</ele>
        <time>2022-06-06T11:14:34Z</time>
      </trkpt>
      <trkpt lat="47.9044980" lon="8.2251730">
        <ele>367.0</ele>
        <time>2022-06-06T11:14:38Z</time>
      </trkpt>
      <trkpt lat="47.9044250" lon="8.2253700">
        <ele>367.0</ele>
        <time>2022-06-06T11:14:42Z</time>
      </trkpt>
      <trkpt lat="47.9043400" lon="8.2255610">
        <ele>367.8</ele>
        <time>2022-06-06T11:14:46Z</time>
      </trkpt>
      <trkpt lat="47.9042660" lon="8.2257430">
        <ele>368.0</ele>
        <time>2022-06-06T11:14:50Z</time>
      </trkpt>
      <trkpt lat="47.9041980" lon="8.2259430">
        <ele>368.0</ele>
        <time>2022-06-06T11:14:54Z</time>
      </trkpt>
      <trkpt lat="47.9041280" lon="8.2261580">
        <ele>367.6</ele>
        <time>2022-06-06T11:14:58Z</time>
      </trkpt>
      <trkpt lat="47.9040560" lon="8.2263850">
        <ele>366.8</ele>
        <time>2022-06-06T11:15:02Z</time>
      </trkpt>
      <trkpt lat="47.9039950" lon="8.2266280">
        <ele>366.4</ele>
        <time>2022-06-06T11:15:06Z</time>
      </trkpt>
      <trkpt lat="47.9039510" lon="8.2268730">
        <ele>366.0</ele>
        <time>2022-06-06T11:15:10Z</time>
      </trkpt>
      <trkpt lat="47.9038930" lon="8.2271200">
        <ele>366.0</ele>
        <time>2022-06-06T11:15:14Z</time>
      </trkpt>
      <trkpt lat="47.9038180" lon="8.2273760">
        <ele>366.2</ele>
        <time>2022-06-06T11:15:18Z</time>
      </trkpt>
      <trkpt lat="47.9037410" lon="8.2276430">
        <ele>365.4</ele>
        <time>2022-06-06T11:15:22Z</time>
      </trkpt>
      <trkpt lat="47.9036650" lon="8.2279280">
        <ele>364.4</ele>
        <time>2022-06-06T11:15:26Z</time>
      </trkpt>
      <trkpt lat="47.9035900" lon="8.2282380">
        <ele>363.2</ele>
        <time>2022-06-06T11:15:30Z</time>
      </trkpt>
      <trkpt lat="47.9035050" lon="8.2285610">
        <ele>362.4</ele>
        <time>2022-06-06T11:15:34Z</time>
      </trkpt>
      <trkpt lat="47.9034200" lon="8.2288810">
        <ele>362.2</ele>
        <time>2022-06-06T11:15:38Z</time>
      </trkpt>
      <trkpt lat="47.9033460" lon="8.2291780">
        <ele>361.8</ele>
        <time>2022-06-06T11:15:42Z</time>
      </trkpt>
      <trkpt lat="47.9032780" lon="8.2294560">
        <ele>362.6</ele>
        <time>2022-06-06T11:15:46Z</time>
      </trkpt>
      <trkpt lat="47.9032230" lon="8.2297030">
        <ele>363.4</ele>
        <time>2022-06-06T11:15:50Z</time>
      </trkpt>
      <trkpt lat="47.9031760" lon="8.2299080">
        <ele>364.2</ele>
        <time>2022-06-06T11:15:54Z</time>
      </trkpt>
      <trkpt lat="47.9031380" lon="8.2301050">
        <ele>364.6</ele>
        <time>2022-06-06T11:15:58Z</time>
      </trkpt>
      <trkpt lat="47.9031050" lon="8.2302930">
        <ele>364.8</ele>
        <time>2022-06-06T11:16:02Z</time>
      </trkpt>
      <trkpt lat="47.9030700" lon="8.2304930">
        <ele>364.4</ele>
        <time>2022-06-06T11:16:06Z</time>
      </trkpt>
      <trkpt lat="47.9030310" lon="8.2306900">
        <ele>365.6</ele>
        <time>2022-06-06T11:16:10Z</time>
      </trkpt>
      <trkpt lat="47.9029900" lon="8.2308810">
        <ele>365.4</ele>
        <time>2022-06-06T11:16:14Z</time>
      </trkpt>
      <trkpt lat="47.9029430" lon="8.2310730">
        <ele>366.2</ele>
        <time>2022-06-06T11:16:18Z</time>
      </trkpt>
      <trkpt lat="47.9028910" lon="8.2312600">
        <ele>365.8</ele>
        <time>2022-06-06T11:16:22Z</time>
      </trkpt>
      <trkpt lat="47.9028360" lon="8.2314510">
        <ele>366.0</ele>
        <time>2022-06-06T11:16:26Z</time>
      </trkpt>
      <trkpt lat="47.9027730" lon="8.2316360">
        <ele>366.2</ele>
        <time>2022-06-06T11:16:30Z</time>
      </trkpt>
      <trkpt lat="47.9027150" lon="8.2318280">
        <ele>365.2</ele>
        <time>2022-06-06T11:16:34Z</time>
      </trkpt>
      <trkpt lat="47.9026630" lon="8.2320280">
        <ele>365.6</ele>
        <time>2022-06-06T11:16:38Z</time>
      </trkpt>
      <trkpt lat="47.9026030" lon="8.2322160">
        <ele>366.0</ele>
        <time>2022-06-06T11:16:42Z</time>
      </trkpt>
      <trkpt lat="47.9025450" lon="8.2324060">
        <ele>365.8</ele>
        <time>2022-06-06T11:16:46Z</time>
      </trkpt>
      <trkpt lat="47.9024760" lon="8.2326060">
        <ele>366.4</ele>
        <time>2022-06-06T11:16:50Z</time>
      </trkpt>
      <trkpt lat="47.9024130" lon="8.2327910">
        <ele>366.0</ele>
        <time>2022-06-06T11:16:54Z</time>
      </trkpt>
      <trkpt lat="47.9023410" lon="8.2329780">
        <ele>366.2</ele>
        <time>2022-06-06T11:16:58Z</time>
      </trkpt>
      <trkpt lat="47.9022730" lon="8.2331700">
        <ele>365.8</ele>
        <time>2022-06-06T11:17:02Z</time>
      </trkpt>
      <trkpt lat="47.9022010" lon="8.2333560">
        <ele>366.0</ele>
        <time>2022-06-06T11:17:06Z</time>
      </trkpt>
      <trkpt lat="47.9021360" lon="8.2335380">
        <ele>366.8</ele>
        <time>2022-06-06T11:17:10Z</time>
      </trkpt>
      <trkpt lat="47.9020730" lon="8.2337180">
        <ele>367.2</ele>
        <time>2022-06-06T11:17:14Z</time>
      </trkpt>
      <trkpt lat="47.9020060" lon="8.2338980">
        <ele>367.0</ele>
        <time>2022-06-06T11:17:18Z</time>
      </trkpt>
      <trkpt lat="47.9019400" lon="8.2340800">
        <ele>367.2</ele>
        <time>2022-06-06T11:17:22Z</time>
      </trkpt>
      <trkpt lat="47.9018750" lon="8.2342580">
        <ele>367.0</ele>
        <time>2022-06-06T11:17:26Z</time>
      </trkpt>
      <trkpt lat="47.9018050" lon="8.2344410">
        <ele>367.0</ele>
        <time>2022-06-06T11:17:30Z</time>
      </trkpt>
      <trkpt lat="47.9017430" lon="8.2346250">
        <ele>367.4</ele>
        <time>2022-06-06T11:17:34Z</time>
      </trkpt>
      <trkpt lat="47.9016780" lon="8.2347930">
        <ele>368.0</ele>
        <time>2022-06-06T11:17:38Z</time>
      </trkpt>
      <trkpt lat="47.9016160" lon="8.2349680">
        <ele>368.8</ele>
        <time>2022-06-06T11:17:42Z</time>
      </trkpt>
      <trkpt lat="47.9015650" lon="8.2351350">
        <ele>369.0</ele>
        <time>2022-06-06T11:17:46Z</time>
      </trkpt>
      <trkpt lat="47.9014910" lon="8.2353000">
        <ele>369.2</ele>
        <time>2022-06-06T11:17:50Z</time>
      </trkpt>
      <trkpt lat="47.9014300" lon="8.2354500">
        <ele>370.4</ele>
        <time>2022-06-06T11:17:54Z</time>
      </trkpt>
      <trkpt lat="47.9013710" lon="8.2356000">
        <ele>370.8</ele>
        <time>2022-06-06T11:17:58Z</time>
      </trkpt>
      <trkpt lat="47.9013060" lon="8.2357450">
        <ele>371.4</ele>
        <time>2022-06-06T11:18:02Z</time>
      </trkpt>
      <trkpt lat="47.9012410" lon="8.2358810">
        <ele>372.2</ele>
        <time>2022-06-06T11:18:06Z</time>
      </trkpt>
      <trkpt lat="47.9011780" lon="8.2360210">
        <ele>371.6</ele>
        <time>2022-06-06T11:18:10Z</time>
      </trkpt>
      <trkpt lat="47.9011160" lon="8.2361530">
        <ele>372.2</ele>
        <time>2022-06-06T11:18:14Z</time>
      </trkpt>
      <trkpt lat="47.9010450" lon="8.2362880">
        <ele>373.6</ele>
        <time>2022-06-06T11:18:18Z</time>
      </trkpt>
      <trkpt lat="47.9009660" lon="8.2364160">
        <ele>373.8</ele>
        <time>2022-06-06T11:18:22Z</time>
      </trkpt>
      <trkpt lat="47.9008950" lon="8.2365300">
        <ele>374.0</ele>
        <time>2022-06-06T11:18:26Z</time>
      </trkpt>
      <trkpt lat="47.9008250" lon="8.2366400">
        <ele>375.0</ele>
        <time>2022-06-06T11:18:30Z</time>
      </trkpt>
      <trkpt lat="47.9007560" lon="8.2367500">
        <ele>375.2</ele>
        <time>2022-06-06T11:18:34Z</time>
      </trkpt>
      <trkpt lat="47.9006830" lon="8.2368630">
        <ele>375.2</ele>
        <time>2022-06-06T11:18:38Z</time>
      </trkpt>
      <trkpt lat="47.9006080" lon="8.2369800">
        <ele>375.6</ele>
        <time>2022-06-06T11:18:42Z</time>
      </trkpt>
      <trkpt lat="47.9005280" lon="8.2370900">
        <ele>376.4</ele>
        <time>2022-06-06T11:18:46Z</time>
      </trkpt>
      <trkpt lat="47.9004450" lon="8.2372060">
        <ele>377.0</ele>
        <time>2022-06-06T11:18:50Z</time>
      </trkpt>
      <trkpt lat="47.9003710" lon="8.2373010">
        <ele>377.6</ele>
        <time>2022-06-06T11:18:54Z</time>
      </trkpt>
      <trkpt lat="47.9002950" lon="8.2373900">
        <ele>378.4</ele>
        <time>2022-06-06T11:18:58Z</time>
      </trkpt>
      <trkpt lat="47.9002250" lon="8.2374660">
        <ele>379.0</ele>
        <time>2022-06-06T11:19:02Z</time>
      </trkpt>
      <trkpt lat="47.9002250" lon="8.2374660">
        <ele>379.2</ele>
        <time>2022-06-06T11:19:06Z</time>
      </trkpt>
      <trkpt lat="47.9002250" lon="8.2374660">
        <ele>378.8</ele>
        <time>2022-06-06T11:19:10Z</time>
      </trkpt>
      <trkpt lat="47.9001880" lon="8.2375130">
        <ele>379.0</ele>
        <time>2022-06-06T11:19:14Z</time>
      </trkpt>
      <trkpt lat="47.9001300" lon="8.2375650">
        <ele>379.0</ele>
        <time>2022-06-06T11:19:18Z</time>
      </trkpt>
      <trkpt lat="47.9000660" lon="8.2376380">
        <ele>379.8</ele>
        <time>2022-06-06T11:19:22Z</time>
      </trkpt>
      <trkpt lat="47.9000010" lon="8.2377060">
        <ele>379.8</ele>
        <time>2022-06-06T11:19:26Z</time>
      </trkpt>
      <trkpt lat="47.8999380" lon="8.2377750">
        <ele>381.2</ele>
        <time>2022-06-06T11:19:30Z</time>
      </trkpt>
      <trkpt lat="47.8998800" lon="8.2378430">
        <ele>381.6</ele>
        <time>2022-06-06T11:19:34Z</time>
      </trkpt>
      <trkpt lat="47.8998110" lon="8.2379110">
        <ele>381.8</ele>
        <time>2022-06-06T11:19:38Z</time>
      </trkpt>
      <trkpt lat="47.8997410" lon="8.2379800">
        <ele>382.2</ele>
        <time>2022-06-06T11:19:42Z</time>
      </trkpt>
      <trkpt lat="47.8996660" lon="8.2380460">
        <ele>383.2</ele>
        <time>2022-06-06T11:19:46Z</time>
      </trkpt>
      <trkpt lat="47.8995910" lon="8.2381110">
        <ele>383.2</ele>
        <time>2022-06-06T11:19:50Z</time>
      </trkpt>
      <trkpt lat="47.8995100" lon="8.2381680">
        <ele>383.8</ele>
        <time>2022-06-06T11:19:54Z</time>
      </trkpt>
      <trkpt lat="47.8994250" lon="8.2382350">
        <ele>383.2</ele>
        <time>2022-06-06T11:19:58Z</time>
      </trkpt>
      <trkpt lat="47.8993360" lon="8.2383310">
        <ele>382.8</ele>
        <time>2022-06-06T11:20:02Z</time>
      </trkpt>
      <trkpt lat="47.8992480" lon="8.2384550">
        <ele>382.0</ele>
        <time>2022-06-06T11:20:06Z</time>
      </trkpt>
      <trkpt lat="47.8991630" lon="8.2385750">
        <ele>380.8</ele>
        <time>2022-06-06T11:20:10Z</time>
      </trkpt>
      <trkpt lat="47.8990480" lon="8.2387150">
        <ele>379.6</ele>
        <time>2022-06-06T11:20:14Z</time>
      </trkpt>
      <trkpt lat="47.8989280" lon="8.2388650">
        <ele>378.0</ele>
        <time>2022-06-06T11:20:18Z</time>
      </trkpt>
      <trkpt lat="47.8987910" lon="8.2390580">
        <ele>376.6</ele>
        <time>2022-06-06T11:20:22Z</time>
      </trkpt>
      <trkpt lat="47.8986530" lon="8.2393110">
        <ele>375.6</ele>
        <time>2022-06-06T11:20:26Z</time>
      </trkpt>
      <trkpt lat="47.8984710" lon="8.2394630">
        <ele>373.6</ele>
        <time>2022-06-06T11:20:30Z</time>
      </trkpt>
      <trkpt lat="47.8982310" lon="8.2393650">
        <ele>370.0</ele>
        <time>2022-06-06T11:20:34Z</time>
      </trkpt>
      <trkpt lat="47.8980100" lon="8.2394630">
        <ele>367.8</ele>
        <time>2022-06-06T11:20:38Z</time>
      </trkpt>
      <trkpt lat="47.8979860" lon="8.2397710">
        <ele>369.0</ele>
        <time>2022-06-06T11:20:42Z</time>
      </trkpt>
      <trkpt lat="47.8979930" lon="8.2400230">
        <ele>368.6</ele>
        <time>2022-06-06T11:20:46Z</time>
      </trkpt>
      <trkpt lat="47.8979760" lon="8.2402660">
        <ele>369.0</ele>
        <time>2022-06-06T11:20:50Z</time>
      </trkpt>
      <trkpt lat="47.8979310" lon="8.2405000">
        <ele>368.2</ele>
        <time>2022-06-06T11:20:54Z</time>
      </trkpt>
      <trkpt lat="47.8978380" lon="8.2407330">
        <ele>367.6</ele>
        <time>2022-06-06T11:20:58Z</time>
      </trkpt>
      <trkpt lat="47.8977010" lon="8.2409560">
        <ele>366.0</ele>
        <time>2022-06-06T11:21:02Z</time>
      </trkpt>
      <trkpt lat="47.8975330" lon="8.2412380">
        <ele>364.6</ele>
        <time>2022-06-06T11:21:06Z</time>
      </trkpt>
      <trkpt lat="47.8973600" lon="8.2415180">
        <ele>363.8</ele>
        <time>2022-06-06T11:21:10Z</time>
      </trkpt>
      <trkpt lat="47.8971950" lon="8.2417560">
        <ele>364.2</ele>
        <time>2022-06-06T11:21:14Z</time>
      </trkpt>
      <trkpt lat="47.8970600" lon="8.2419560">
        <ele>363.2</ele>
        <time>2022-06-06T11:21:18Z</time>
      </trkpt>
      <trkpt lat="47.8969310" lon="8.2421330">
        <ele>364.0</ele>
        <time>2022-06-06T11:21:22Z</time>
      </trkpt>
      <trkpt lat="47.8967900" lon="8.2422760">
        <ele>364.4</ele>
        <time>2022-06-06T11:21:26Z</time>
      </trkpt>
      <trkpt lat="47.8966380" lon="8.2424010">
        <ele>364.4</ele>
        <time>2022-06-06T11:21:30Z</time>
      </trkpt>
      <trkpt lat="47.8964900" lon="8.2425180">
        <ele>364.8</ele>
        <time>2022-06-06T11:21:34Z</time>
      </trkpt>
      <trkpt lat="47.8963550" lon="8.2426630">
        <ele>365.4</ele>
        <time>2022-06-06T11:21:38Z</time>
      </trkpt>
      <trkpt lat="47.8962300" lon="8.2428050">
        <ele>365.2</ele>
        <time>2022-06-06T11:21:42Z</time>
      </trkpt>
      <trkpt lat="47.8960950" lon="8.2429160">
        <ele>365.8</ele>
        <time>2022-06-06T11:21:46Z</time>
      </trkpt>
      <trkpt lat="47.8959500" lon="8.2429960">
        <ele>365.2</ele>
        <time>2022-06-06T11:21:50Z</time>
      </trkpt>
      <trkpt lat="47.8958030" lon="8.2430860">
        <ele>365.6</ele>
        <time>2022-06-06T11:21:54Z</time>
      </trkpt>
      <trkpt lat="47.8956600" lon="8.2431800">
        <ele>365.8</ele>
        <time>2022-06-06T11:21:58Z</time>
      </trkpt>
      <trkpt lat="47.8955200" lon="8.2432610">
        <ele>366.4</ele>
        <time>2022-06-06T11:22:02Z</time>
      </trkpt>
      <trkpt lat="47.8953760" lon="8.2433450">
        <ele>366.0</ele>
        <time>2022-06-06T11:22:06Z</time>
      </trkpt>
      <trkpt lat="47.8952330" lon="8.2434160">
        <ele>365.6</ele>
        <time>2022-06-06T11:22:10Z</time>
      </trkpt>
      <trkpt lat="47.8950760" lon="8.2434650">
        <ele>366.0</ele>
        <time>2022-06-06T11:22:14Z</time>
      </trkpt>
      <trkpt lat="47.8949010" lon="8.2435000">
        <ele>364.6</ele>
        <time>2022-06-06T11:22:18Z</time>
      </trkpt>
      <trkpt lat="47.8947030" lon="8.2435330">
        <ele>362.6</ele>
        <time>2022-06-06T11:22:22Z</time>
      </trkpt>
      <trkpt lat="47.8944950" lon="8.2435410">
        <ele>362.8</ele>
        <time>2022-06-06T11:22:26Z</time>
      </trkpt>
      <trkpt lat="47.8942710" lon="8.2435400">
        <ele>362.0</ele>
        <time>2022-06-06T11:22:30Z</time>
      </trkpt>
      <trkpt lat="47.8940350" lon="8.2435550">
        <ele>360.8</ele>
        <time>2022-06-06T11:22:34Z</time>
      </trkpt>
      <trkpt lat="47.8938000" lon="8.2435310">
        <ele>360.2</ele>
        <time>2022-06-06T11:22:38Z</time>
      </trkpt>
      <trkpt lat="47.8935660" lon="8.2434800">
        <ele>359.2</ele>
        <time>2022-06-06T11:22:42Z</time>
      </trkpt>
      <trkpt lat="47.8933050" lon="8.2434280">
        <ele>357.6</ele>
        <time>2022-06-06T11:22:46Z</time>
      </trkpt>
      <trkpt lat="47.8930260" lon="8.2433730">
        <ele>356.6</ele>
        <time>2022-06-06T11:22:50Z</time>
      </trkpt>
      <trkpt lat="47.8927550" lon="8.2432950">
        <ele>355.6</ele>
        <time>2022-06-06T11:22:54Z</time>
      </trkpt>
      <trkpt lat="47.8925160" lon="8.2432210">
        <ele>355.2</ele>
        <time>2022-06-06T11:22:58Z</time>
      </trkpt>
      <trkpt lat="47.8923350" lon="8.2431700">
        <ele>355.0</ele>
        <time>2022-06-06T11:23:02Z</time>
      </trkpt>
      <trkpt lat="47.8921850" lon="8.2431300">
        <ele>355.6</ele>
        <time>2022-06-06T11:23:06Z</time>
      </trkpt>
      <trkpt lat="47.8920350" lon="8.2430830">
        <ele>356.4</ele>
        <time>2022-06-06T11:23:10Z</time>
      </trkpt>
      <trkpt lat="47.8918980" lon="8.2430550">
        <ele>356.4</ele>
        <time>2022-06-06T11:23:14Z</time>
      </trkpt>
      <trkpt lat="47.8917730" lon="8.2430160">
        <ele>356.4</ele>
        <time>2022-06-06T11:23:18Z</time>
      </trkpt>
      <trkpt lat="47.8916650" lon="8.2429560">
        <ele>357.0</ele>
        <time>2022-06-06T11:23:22Z</time>
      </trkpt>
      <trkpt lat="47.8915680" lon="8.2428850">
        <ele>358.8</ele>
        <time>2022-06-06T11:23:26Z</time>
      </trkpt>
      <trkpt lat="47.8914760" lon="8.2428130">
        <ele>359.2</ele>
        <time>2022-06-06T11:23:30Z</time>
      </trkpt>
      <trkpt lat="47.8914010" lon="8.2427350">
        <ele>360.0</ele>
        <time>2022-06-06T11:23:34Z</time>
      </trkpt>
      <trkpt lat="47.8913060" lon="8.2426930">
        <ele>361.0</ele>
        <time>2022-06-06T11:23:38Z</time>
      </trkpt>
      <trkpt lat="47.8912010" lon="8.2427050">
        <ele>361.6</ele>
        <time>2022-06-06T11:23:42Z</time>
      </trkpt>
      <trkpt lat="47.8911060" lon="8.2427410">
        <ele>361.8</ele>
        <time>2022-06-06T11:23:46Z</time>
      </trkpt>
      <trkpt lat="47.8910100" lon="8.2427530">
        <ele>361.8</ele>
        <time>2022-06-06T11:23:50Z</time>
      </trkpt>
      <trkpt lat="47.8909180" lon="8.2427250">
        <ele>361.8</ele>
        <time>2022-06-06T11:23:54Z</time>
      </trkpt>
      <trkpt lat="47.8908100" lon="8.2427030">
        <ele>362.0</ele>
        <time>2022-06-06T11:23:58Z</time>
      </trkpt>
      <trkpt lat="47.8907280" lon="8.2427130">
        <ele>362.2</ele>
        <time>2022-06-06T11:24:02Z</time>
      </trkpt>
      <trkpt lat="47.8906300" lon="8.2427550">
        <ele>362.8</ele>
        <time>2022-06-06T11:24:06Z</time>
      </trkpt>
      <trkpt lat="47.8905230" lon="8.2428110">
        <ele>363.2</ele>
        <time>2022-06-06T11:24:10Z</time>
      </trkpt>
      <trkpt lat="47.8904080" lon="8.2428710">
        <ele>363.0</ele>
        <time>2022-06-06T11:24:14Z</time>
      </trkpt>
      <trkpt lat="47.8902910" lon="8.2428660">
        <ele>363.4</ele>
        <time>2022-06-06T11:24:18Z</time>
      </trkpt>
      <trkpt lat="47.8901660" lon="8.2428630">
        <ele>363.4</ele>
        <time>2022-06-06T11:24:22Z</time>
      </trkpt>
      <trkpt lat="47.8900330" lon="8.2428580">
        <ele>363.4</ele>
        <time>2022-06-06T11:24:26Z</time>
      </trkpt>
      <trkpt lat="47.8899080" lon="8.2428550">
        <ele>363.6</ele>
        <time>2022-06-06T11:24:30Z</time>
      </trkpt>
      <trkpt lat="47.8897900" lon="8.2428010">
        <ele>363.6</ele>
        <time>2022-06-06T11:24:34Z</time>
      </trkpt>
      <trkpt lat="47.8896900" lon="8.2427150">
        <ele>363.6</ele>
        <time>2022-06-06T11:24:38Z</time>
      </trkpt>
      <trkpt lat="47.8895800" lon="8.2426250">
        <ele>364.0</ele>
        <time>2022-06-06T11:24:42Z</time>
      </trkpt>
      <trkpt lat="47.8894660" lon="8.2425030">
        <ele>364.0</ele>
        <time>2022-06-06T11:24:46Z</time>
      </trkpt>
      <trkpt lat="47.8893510" lon="8.2424060">
        <ele>364.6</ele>
        <time>2022-06-06T11:24:50Z</time>
      </trkpt>
      <trkpt lat="47.8892230" lon="8.2423200">
        <ele>363.8</ele>
        <time>2022-06-06T11:24:54Z</time>
      </trkpt>
      <trkpt lat="47.8890900" lon="8.2423550">
        <ele>363.2</ele>
        <time>2022-06-06T11:24:58Z</time>
      </trkpt>
      <trkpt lat="47.8890030" lon="8.2425160">
        <ele>362.8</ele>
        <time>2022-06-06T11:25:02Z</time>
      </trkpt>
      <trkpt lat="47.8890100" lon="8.2426860">
        <ele>362.8</ele>
        <time>2022-06-06T11:25:06Z</time>
      </trkpt>
      <trkpt lat="47.8890650" lon="8.2428560">
        <ele>361.2</ele>
        <time>2022-06-06T11:25:10Z</time>
      </trkpt>
      <trkpt lat="47.8891230" lon="8.2431000">
        <ele>359.0</ele>
        <time>2022-06-06T11:25:14Z</time>
      </trkpt>
      <trkpt lat="47.8891130" lon="8.2433980">
        <ele>356.4</ele>
        <time>2022-06-06T11:25:18Z</time>
      </trkpt>
      <trkpt lat="47.8889430" lon="8.2437150">
        <ele>352.0</ele>
        <time>2022-06-06T11:25:22Z</time>
      </trkpt>
      <trkpt lat="47.8887460" lon="8.2440600">
        <ele>351.6</ele>
        <time>2022-06-06T11:25:26Z</time>
      </trkpt>
      <trkpt lat="47.8885230" lon="8.2443380">
        <ele>348.6</ele>
        <time>2022-06-06T11:25:30Z</time>
      </trkpt>
      <trkpt lat="47.8883110" lon="8.2445850">
        <ele>348.4</ele>
        <time>2022-06-06T11:25:34Z</time>
      </trkpt>
      <trkpt lat="47.8881360" lon="8.2447950">
        <ele>349.2</ele>
        <time>2022-06-06T11:25:38Z</time>
      </trkpt>
      <trkpt lat="47.8879810" lon="8.2449860">
        <ele>349.4</ele>
        <time>2022-06-06T11:25:42Z</time>
      </trkpt>
      <trkpt lat="47.8878480" lon="8.2451600">
        <ele>349.6</ele>
        <time>2022-06-06T11:25:46Z</time>
      </trkpt>
      <trkpt lat="47.8877510" lon="8.2452900">
        <ele>349.8</ele>
        <time>2022-06-06T11:25:50Z</time>
      </trkpt>
      <trkpt lat="47.8877510" lon="8.2452900">
        <ele>349.6</ele>
        <time>2022-06-06T11:25:54Z</time>
      </trkpt>
      <trkpt lat="47.8877510" lon="8.2452900">
        <ele>349.8</ele>
        <time>2022-06-06T11:25:58Z</time>
      </trkpt>
      <trkpt lat="47.8877510" lon="8.2452900">
        <ele>349.6</ele>
        <time>2022-06-06T11:26:02Z</time>
      </trkpt>
      <trkpt lat="47.8877510" lon="8.2452900">
        <ele>349.6</ele>
        <time>2022-06-06T11:26:06Z</time>
      </trkpt>
      <trkpt lat="47.8877510" lon="8.2452900">
        <ele>349.6</ele>
        <time>2022-06-06T11:26:10Z</time>
      </trkpt>
      <trkpt lat="47.8877510" lon="8.2452900">
        <ele>349.0</ele>
        <time>2022-06-06T11:26:14Z</time>
      </trkpt>
      <trkpt lat="47.8877510" lon="8.2452900">
        <ele>349.6</ele>
        <time>2022-06-06T11:26:18Z</time>
      </trkpt>
      <trkpt lat="47.8877510" lon="8.2452900">
        <ele>349.8</ele>
        <time>2022-06-06T11:26:22Z</time>
      </trkpt>
      <trkpt lat="47.8877510" lon="8.2452900">
        <ele>349.4</ele>
        <time>2022-06-06T11:26:26Z</time>
      </trkpt>
      <trkpt lat="47.8877510" lon="8.2452900">
        <ele>349.6</ele>
        <time>2022-06-06T11:26:30Z</time>
      </trkpt>
      <trkpt lat="47.8877510" lon="8.2452900">
        <ele>349.4</ele>
        <time>2022-06-06T11:26:34Z</time>
      </trkpt>
      <trkpt lat="47.8877510" lon="8.2452900">
        <ele>349.6</ele>
        <time>2022-06-06T11:26:38Z</time>
      </trkpt>
      <trkpt lat="47.8877510" lon="8.2452900">
        <ele>349.4</ele>
        <time>2022-06-06T11:26:42Z</time>
      </trkpt>
      <trkpt lat="47.8877510" lon="8.2452900">
        <ele>349.4</ele>
        <time>2022-06-06T11:26:46Z</time>
      </trkpt>
      <trkpt lat="47.8877510" lon="8.2452900">
        <ele>349.8</ele>
        <time>2022-06-06T11:26:50Z</time>
      </trkpt>
      <trkpt lat="47.8877510" lon="8.2452900">
        <ele>349.6</ele>
        <time>2022-06-06T11:26:54Z</time>
      </trkpt>
      <trkpt lat="47.8877510" lon="8.2452900">
        <ele>349.6</ele>
        <time>2022-06-06T11:26:58Z</time>
      </trkpt>
      <trkpt lat="47.8877510" lon="8.2452900">
        <ele>349.0</ele>
        <time>2022-06-06T11:27:02Z</time>
      </trkpt>
      <trkpt lat="47.8877510" lon="8.2452900">
        <ele>349.8</ele>
        <time>2022-06-06T11:27:06Z</time>
      </trkpt>
      <trkpt lat="47.8877510" lon="8.2452900">
        <ele>349.2</ele>
        <time>2022-06-06T11:27:10Z</time>
      </trkpt>
      <trkpt lat="47.8877510" lon="8.2452900">
        <ele>349.2</ele>
        <time>2022-06-06T11:27:14Z</time>
      </trkpt>
      <trkpt lat="47.8877510" lon="8.2452900">
        <ele>349.4</ele>
        <time>2022-06-06T11:27:18Z</time>
      </trkpt>
      <trkpt lat="47.8877510" lon="8.2452900">
        <ele>349.2</ele>
        <time>2022-06-06T11:27:22Z</time>
      </trkpt>
      <trkpt lat="47.8877230" lon="8.2453650">
        <ele>349.6</ele>
        <time>2022-06-06T11:27:26Z</time>
      </trkpt>
      <trkpt lat="47.8876980" lon="8.2454010">
        <ele>349.8</ele>
        <time>2022-06-06T11:27:30Z</time>
      </trkpt>
      <trkpt lat="47.8876560" lon="8.2454700">
        <ele>349.6</ele>
        <time>2022-06-06T11:27:34Z</time>
      </trkpt>
      <trkpt lat="47.8875880" lon="8.2455750">
        <ele>349.4</ele>
        <time>2022-06-06T11:27:38Z</time>
      </trkpt>
      <trkpt lat="47.8875160" lon="8.2456910">
        <ele>349.6</ele>
        <time>2022-06-06T11:27:42Z</time>
      </trkpt>
      <trkpt lat="47.8874410" lon="8.2458250">
        <ele>350.2</ele>
        <time>2022-06-06T11:27:46Z</time>
      </trkpt>
      <trkpt lat="47.8873680" lon="8.2459510">
        <ele>349.6</ele>
        <time>2022-06-06T11:27:50Z</time>
      </trkpt>
      <trkpt lat="47.8872930" lon="8.2460780">
        <ele>349.6</ele>
        <time>2022-06-06T11:27:54Z</time>
      </trkpt>
      <trkpt lat="47.8872210" lon="8.2462010">
        <ele>349.2</ele>
        <time>2022-06-06T11:27:58Z</time>
      </trkpt>
      <trkpt lat="47.8871460" lon="8.2463430">
        <ele>349.6</ele>
        <time>2022-06-06T11:28:02Z</time>
      </trkpt>
      <trkpt lat="47.8870700" lon="8.2464910">
        <ele>349.4</ele>
        <time>2022-06-06T11:28:06Z</time>
      </trkpt>
      <trkpt lat="47.8870010" lon="8.2466330">
        <ele>349.4</ele>
        <time>2022-06-06T11:28:10Z</time>
      </trkpt>
      <trkpt lat="47.8869410" lon="8.2467730">
        <ele>349.6</ele>
        <time>2022-06-06T11:28:14Z</time>
      </trkpt>
      <trkpt lat="47.8868760" lon="8.2469080">
        <ele>349.2</ele>
        <time>2022-06-06T11:28:18Z</time>
      </trkpt>
      <trkpt lat="47.8868050" lon="8.2470550">
        <ele>349.2</ele>
        <time>2022-06-06T11:28:22Z</time>
      </trkpt>
      <trkpt lat="47.8867350" lon="8.2472060">
        <ele>349.4</ele>
        <time>2022-06-06T11:28:26Z</time>
      </trkpt>
      <trkpt lat="47.8866660" lon="8.2473650">
        <ele>349.0</ele>
        <time>2022-06-06T11:28:30Z</time>
      </trkpt>
      <trkpt lat="47.8865950" lon="8.2475180">
        <ele>349.2</ele>
        <time>2022-06-06T11:28:34Z</time>
      </trkpt>
      <trkpt lat="47.8865200" lon="8.2476730">
        <ele>348.6</ele>
        <time>2022-06-06T11:28:38Z</time>
      </trkpt>
      <trkpt lat="47.8864500" lon="8.2478230">
        <ele>349.4</ele>
        <time>2022-06-06T11:28:42Z</time>
      </trkpt>
      <trkpt lat="47.8863750" lon="8.2479860">
        <ele>349.6</ele>
        <time>2022-06-06T11:28:46Z</time>
      </trkpt>
      <trkpt lat="47.8863000" lon="8.2481310">
        <ele>349.4</ele>
        <time>2022-06-06T11:28:50Z</time>
      </trkpt>
      <trkpt lat="47.8862210" lon="8.2482900">
        <ele>349.2</ele>
        <time>2022-06-06T11:28:54Z</time>
      </trkpt>
      <trkpt lat="47.8861450" lon="8.2484500">
        <ele>349.2</ele>
        <time>2022-06-06T11:28:58Z</time>
      </trkpt>
      <trkpt lat="47.8860680" lon="8.2486030">
        <ele>349.2</ele>
        <time>2022-06-06T11:29:02Z</time>
      </trkpt>
      <trkpt lat="47.8859930" lon="8.2487600">
        <ele>350.0</ele>
        <time>2022-06-06T11:29:06Z</time>
      </trkpt>
      <trkpt lat="47.8859210" lon="8.2489010">
        <ele>349.8</ele>
        <time>2022-06-06T11:29:10Z</time>
      </trkpt>
      <trkpt lat="47.8858360" lon="8.2490410">
        <ele>350.2</ele>
        <time>2022-06-06T11:29:14Z</time>
      </trkpt>
      <trkpt lat="47.8857480" lon="8.2491780">
        <ele>349.6</ele>
        <time>2022-06-06T11:29:18Z</time>
      </trkpt>
      <trkpt lat="47.8856560" lon="8.2493260">
        <ele>350.0</ele>
        <time>2022-06-06T11:29:22Z</time>
      </trkpt>
      <trkpt lat="47.8855600" lon="8.2494780">
        <ele>350.0</ele>
        <time>2022-06-06T11:29:26Z</time>
      </trkpt>
      <trkpt lat="47.8854700" lon="8.2496210">
        <ele>349.6</ele>
        <time>2022-06-06T11:29:30Z</time>
      </trkpt>
      <trkpt lat="47.8853800" lon="8.2497700">
        <ele>349.8</ele>
        <time>2022-06-06T11:29:34Z</time>
      </trkpt>
      <trkpt lat="47.8852800" lon="8.2499030">
        <ele>349.8</ele>
        <time>2022-06-06T11:29:38Z</time>
      </trkpt>
      <trkpt lat="47.8851750" lon="8.2500460">
        <ele>349.2</ele>
        <time>2022-06-06T11:29:42Z</time>
      </trkpt>
      <trkpt lat="47.8850680" lon="8.2501960">
        <ele>349.4</ele>
        <time>2022-06-06T11:29:46Z</time>
      </trkpt>
      <trkpt lat="47.8849630" lon="8.2503380">
        <ele>349.6</ele>
        <time>2022-06-06T11:29:50Z</time>
      </trkpt>
      <trkpt lat="47.8848630" lon="8.2504750">
        <ele>349.0</ele>
        <time>2022-06-06T11:29:54Z</time>
      </trkpt>
      <trkpt lat="47.8847610" lon="8.2505900">
        <ele>349.4</ele>
        <time>2022-06-06T11:29:58Z</time>
      </trkpt>
      <trkpt lat="47.8846480" lon="8.2507080">
        <ele>350.6</ele>
        <time>2022-06-06T11:30:02Z</time>
      </trkpt>
      <trkpt lat="47.8845280" lon="8.2508200">
        <ele>349.8</ele>
        <time>2022-06-06T11:30:06Z</time>
      </trkpt>
      <trkpt lat="47.8844060" lon="8.2509260">
        <ele>350.2</ele>
        <time>2022-06-06T11:30:10Z</time>
      </trkpt>
      <trkpt lat="47.8842800" lon="8.2510100">
        <ele>349.8</ele>
        <time>2022-06-06T11:30:14Z</time>
      </trkpt>
      <trkpt lat="47.8841510" lon="8.2510810">
        <ele>350.2</ele>
        <time>2022-06-06T11:30:18Z</time>
      </trkpt>
      <trkpt lat="47.8840210" lon="8.2511410">
        <ele>350.6</ele>
        <time>2022-06-06T11:30:22Z</time>
      </trkpt>
      <trkpt lat="47.8838930" lon="8.2511880">
        <ele>350.4</ele>
        <time>2022-06-06T11:30:26Z</time>
      </trkpt>
      <trkpt lat="47.8837680" lon="8.2512230">
        <ele>350.4</ele>
        <time>2022-06-06T11:30:30Z</time>
      </trkpt>
      <trkpt lat="47.8836310" lon="8.2512480">
        <ele>350.2</ele>
        <time>2022-06-06T11:30:34Z</time>
      </trkpt>
      <trkpt lat="47.8834780" lon="8.2512410">
        <ele>349.8</ele>
        <time>2022-06-06T11:30:38Z</time>
      </trkpt>
      <trkpt lat="47.8833050" lon="8.2511950">
        <ele>349.2</ele>
        <time>2022-06-06T11:30:42Z</time>
      </trkpt>
      <trkpt lat="47.8831060" lon="8.2511250">
        <ele>348.6</ele>
        <time>2022-06-06T11:30:46Z</time>
      </trkpt>
      <trkpt lat="47.8828880" lon="8.2510200">
        <ele>346.8</ele>
        <time>2022-06-06T11:30:50Z</time>
      </trkpt>
      <trkpt lat="47.8827330" lon="8.2509080">
        <ele>346.8</ele>
        <time>2022-06-06T11:30:54Z</time>
      </trkpt>
      <trkpt lat="47.8826450" lon="8.2508550">
        <ele>347.4</ele>
        <time>2022-06-06T11:30:58Z</time>
      </trkpt>
      <trkpt lat="47.8825960" lon="8.2508850">
        <ele>348.2</ele>
        <time>2022-06-06T11:31:02Z</time>
      </trkpt>
      <trkpt lat="47.8825500" lon="8.2510250">
        <ele>347.6</ele>
        <time>2022-06-06T11:31:06Z</time>
      </trkpt>
      <trkpt lat="47.8823900" lon="8.2510080">
        <ele>347.2</ele>
        <time>2022-06-06T11:31:10Z</time>
      </trkpt>
      <trkpt lat="47.8821960" lon="8.2508600">
        <ele>345.8</ele>
        <time>2022-06-06T11:31:14Z</time>
      </trkpt>
      <trkpt lat="47.8819580" lon="8.2506880">
        <ele>344.0</ele>
        <time>2022-06-06T11:31:18Z</time>
      </trkpt>
      <trkpt lat="47.8817130" lon="8.2505280">
        <ele>342.4</ele>
        <time>2022-06-06T11:31:22Z</time>
      </trkpt>
      <trkpt lat="47.8814450" lon="8.2503810">
        <ele>341.6</ele>
        <time>2022-06-06T11:31:26Z</time>
      </trkpt>
      <trkpt lat="47.8812160" lon="8.2502450">
        <ele>340.6</ele>
        <time>2022-06-06T11:31:30Z</time>
      </trkpt>
      <trkpt lat="47.8810150" lon="8.2501300">
        <ele>341.6</ele>
        <time>2022-06-06T11:31:34Z</time>
      </trkpt>
      <trkpt lat="47.8808330" lon="8.2500010">
        <ele>342.2</ele>
        <time>2022-06-06T11:31:38Z</time>
      </trkpt>
      <trkpt lat="47.8806560" lon="8.2498760">
        <ele>342.2</ele>
        <time>2022-06-06T11:31:42Z</time>
      </trkpt>
      <trkpt lat="47.8804680" lon="8.2497760">
        <ele>342.2</ele>
        <time>2022-06-06T11:31:46Z</time>
      </trkpt>
      <trkpt lat="47.8802760" lon="8.2496930">
        <ele>342.2</ele>
        <time>2022-06-06T11:31:50Z</time>
      </trkpt>
      <trkpt lat="47.8800880" lon="8.2496300">
        <ele>342.0</ele>
        <time>2022-06-06T11:31:54Z</time>
      </trkpt>
      <trkpt lat="47.8799010" lon="8.2495860">
        <ele>342.6</ele>
        <time>2022-06-06T11:31:58Z</time>
      </trkpt>
      <trkpt lat="47.8797180" lon="8.2495730">
        <ele>342.2</ele>
        <time>2022-06-06T11:32:02Z</time>
      </trkpt>
      <trkpt lat="47.8795450" lon="8.2495830">
        <ele>341.6</ele>
        <time>2022-06-06T11:32:06Z</time>
      </trkpt>
      <trkpt lat="47.8793950" lon="8.2496300">
        <ele>341.6</ele>
        <time>2022-06-06T11:32:10Z</time>
      </trkpt>
      <trkpt lat="47.8792550" lon="8.2496860">
        <ele>341.8</ele>
        <time>2022-06-06T11:32:14Z</time>
      </trkpt>
      <trkpt lat="47.8791180" lon="8.2497150">
        <ele>341.6</ele>
        <time>2022-06-06T11:32:18Z</time>
      </trkpt>
      <trkpt lat="47.8789800" lon="8.2497410">
        <ele>341.8</ele>
        <time>2022-06-06T11:32:22Z</time>
      </trkpt>
      <trkpt lat="47.8789510" lon="8.2498510">
        <ele>341.0</ele>
        <time>2022-06-06T11:32:26Z</time>
      </trkpt>
      <trkpt lat="47.8790910" lon="8.2498760">
        <ele>339.8</ele>
        <time>2022-06-06T11:32:30Z</time>
      </trkpt>
      <trkpt lat="47.8792630" lon="8.2500180">
        <ele>339.2</ele>
        <time>2022-06-06T11:32:34Z</time>
      </trkpt>
      <trkpt lat="47.8793830" lon="8.2503280">
        <ele>337.4</ele>
        <time>2022-06-06T11:32:38Z</time>
      </trkpt>
      <trkpt lat="47.8794880" lon="8.2506600">
        <ele>335.6</ele>
        <time>2022-06-06T11:32:42Z</time>
      </trkpt>
      <trkpt lat="47.8795730" lon="8.2509560">
        <ele>335.4</ele>
        <time>2022-06-06T11:32:46Z</time>
      </trkpt>
      <trkpt lat="47.8795560" lon="8.2512610">
        <ele>333.0</ele>
        <time>2022-06-06T11:32:50Z</time>
      </trkpt>
      <trkpt lat="47.8794060" lon="8.2515800">
        <ele>328.2</ele>
        <time>2022-06-06T11:32:54Z</time>
      </trkpt>
      <trkpt lat="47.8791360" lon="8.2517280">
        <ele>324.4</ele>
        <time>2022-06-06T11:32:58Z</time>
      </trkpt>
      <trkpt lat="47.8788660" lon="8.2518080">
        <ele>319.0</ele>
        <time>2022-06-06T11:33:02Z</time>
      </trkpt>
      <trkpt lat="47.8787180" lon="8.2521300">
        <ele>314.6</ele>
        <time>2022-06-06T11:33:06Z</time>
      </trkpt>
      <trkpt lat="47.8787460" lon="8.2525510">
        <ele>312.0</ele>
        <time>2022-06-06T11:33:10Z</time>
      </trkpt>
      <trkpt lat="47.8787010" lon="8.2528350">
        <ele>313.0</ele>
        <time>2022-06-06T11:33:14Z</time>
      </trkpt>
      <trkpt lat="47.8785810" lon="8.2529960">
        <ele>314.6</ele>
        <time>2022-06-06T11:33:18Z</time>
      </trkpt>
      <trkpt lat="47.8784880" lon="8.2530780">
        <ele>316.2</ele>
        <time>2022-06-06T11:33:22Z</time>
      </trkpt>
      <trkpt lat="47.8784080" lon="8.2531610">
        <ele>316.8</ele>
        <time>2022-06-06T11:33:26Z</time>
      </trkpt>
      <trkpt lat="47.8783360" lon="8.2532360">
        <ele>318.2</ele>
        <time>2022-06-06T11:33:30Z</time>
      </trkpt>
      <trkpt lat="47.8782810" lon="8.2532980">
        <ele>318.2</ele>
        <time>2022-06-06T11:33:34Z</time>
      </trkpt>
      <trkpt lat="47.8782360" lon="8.2533550">
        <ele>319.2</ele>
        <time>2022-06-06T11:33:38Z</time>
      </trkpt>
      <trkpt lat="47.8781930" lon="8.2534060">
        <ele>320.0</ele>
        <time>2022-06-06T11:33:42Z</time>
      </trkpt>
      <trkpt lat="47.8781580" lon="8.2534800">
        <ele>320.4</ele>
        <time>2022-06-06T11:33:46Z</time>
      </trkpt>
      <trkpt lat="47.8781310" lon="8.2535530">
        <ele>321.6</ele>
        <time>2022-06-06T11:33:50Z</time>
      </trkpt>
      <trkpt lat="47.8781100" lon="8.2536200">
        <ele>322.0</ele>
        <time>2022-06-06T11:33:54Z</time>
      </trkpt>
      <trkpt lat="47.8780930" lon="8.2536710">
        <ele>322.2</ele>
        <time>2022-06-06T11:33:58Z</time>
      </trkpt>
      <trkpt lat="47.8780830" lon="8.2537300">
        <ele>323.4</ele>
        <time>2022-06-06T11:34:02Z</time>
      </trkpt>
      <trkpt lat="47.8780650" lon="8.2537900">
        <ele>323.6</ele>
        <time>2022-06-06T11:34:06Z</time>
      </trkpt>
      <trkpt lat="47.8780450" lon="8.2538580">
        <ele>324.6</ele>
        <time>2022-06-06T11:34:10Z</time>
      </trkpt>
      <trkpt lat="47.8780200" lon="8.2539230">
        <ele>325.2</ele>
        <time>2022-06-06T11:34:14Z</time>
      </trkpt>
      <trkpt lat="47.8779980" lon="8.2539780">
        <ele>325.8</ele>
        <time>2022-06-06T11:34:18Z</time>
      </trkpt>
      <trkpt lat="47.8779730" lon="8.2540430">
        <ele>326.8</ele>
        <time>2022-06-06T11:34:22Z</time>
      </trkpt>
      <trkpt lat="47.8779480" lon="8.2541110">
        <ele>327.2</ele>
        <time>2022-06-06T11:34:26Z</time>
      </trkpt>
      <trkpt lat="47.8779230" lon="8.2541760">
        <ele>327.8</ele>
        <time>2022-06-06T11:34:30Z</time>
      </trkpt>
      <trkpt lat="47.8779010" lon="8.2542400">
        <ele>328.4</ele>
        <time>2022-06-06T11:34:34Z</time>
      </trkpt>
      <trkpt lat="47.8778750" lon="8.2542980">
        <ele>329.6</ele>
        <time>2022-06-06T11:34:38Z</time>
      </trkpt>
      <trkpt lat="47.8778450" lon="8.2543650">
        <ele>330.6</ele>
        <time>2022-06-06T11:34:42Z</time>
      </trkpt>
      <trkpt lat="47.8778280" lon="8.2544280">
        <ele>331.6</ele>
        <time>2022-06-06T11:34:46Z</time>
      </trkpt>
      <trkpt lat="47.8778060" lon="8.2544910">
        <ele>332.8</ele>
        <time>2022-06-06T11:34:50Z</time>
      </trkpt>
      <trkpt lat="47.8777910" lon="8.2545510">
        <ele>333.0</ele>
        <time>2022-06-06T11:34:54Z</time>
      </trkpt>
      <trkpt lat="47.8777650" lon="8.2546130">
        <ele>333.8</ele>
        <time>2022-06-06T11:34:58Z</time>
      </trkpt>
      <trkpt lat="47.8777380" lon="8.2546650">
        <ele>334.2</ele>
        <time>2022-06-06T11:35:02Z</time>
      </trkpt>
      <trkpt lat="47.8777080" lon="8.2547150">
        <ele>335.4</ele>
        <time>2022-06-06T11:35:06Z</time>
      </trkpt>
      <trkpt lat="47.8776860" lon="8.2547700">
        <ele>336.0</ele>
        <time>2022-06-06T11:35:10Z</time>
      </trkpt>
      <trkpt lat="47.8776510" lon="8.2548160">
        <ele>336.6</ele>
        <time>2022-06-06T11:35:14Z</time>
      </trkpt>
      <trkpt lat="47.8776160" lon="8.2548610">
        <ele>337.2</ele>
        <time>2022-06-06T11:35:18Z</time>
      </trkpt>
      <trkpt lat="47.8775750" lon="8.2548950">
        <ele>338.2</ele>
        <time>2022-06-06T11:35:22Z</time>
      </trkpt>
      <trkpt lat="47.8775380" lon="8.2549260">
        <ele>339.2</ele>
        <time>2022-06-06T11:35:26Z</time>
      </trkpt>
      <trkpt lat="47.8775080" lon="8.2549700">
        <ele>339.8</ele>
        <time>2022-06-06T11:35:30Z</time>
      </trkpt>
      <trkpt lat="47.8774750" lon="8.2550150">
        <ele>340.6</ele>
        <time>2022-06-06T11:35:34Z</time>
      </trkpt>
      <trkpt lat="47.8774380" lon="8.2550560">
        <ele>341.8</ele>
        <time>2022-06-06T11:35:38Z</time>
      </trkpt>
      <trkpt lat="47.8774010" lon="8.2550980">
        <ele>343.0</ele>
        <time>2022-06-06T11:35:42Z</time>
      </trkpt>
      <trkpt lat="47.8773700" lon="8.2551450">
        <ele>343.0</ele>
        <time>2022-06-06T11:35:46Z</time>
      </trkpt>
      <trkpt lat="47.8773380" lon="8.2551980">
        <ele>344.0</ele>
        <time>2022-06-06T11:35:50Z</time>
      </trkpt>
      <trkpt lat="47.8773050" lon="8.2552500">
        <ele>345.4</ele>
        <time>2022-06-06T11:35:54Z</time>
      </trkpt>
      <trkpt lat="47.8772830" lon="8.2553050">
        <ele>345.8</ele>
        <time>2022-06-06T11:35:58Z</time>
      </trkpt>
      <trkpt lat="47.8772630" lon="8.2553650">
        <ele>346.4</ele>
        <time>2022-06-06T11:36:02Z</time>
      </trkpt>
      <trkpt lat="47.8772460" lon="8.2554250">
        <ele>347.4</ele>
        <time>2022-06-06T11:36:06Z</time>
      </trkpt>
      <trkpt lat="47.8772350" lon="8.2554910">
        <ele>348.6</ele>
        <time>2022-06-06T11:36:10Z</time>
      </trkpt>
      <trkpt lat="47.8772260" lon="8.2555660">
        <ele>349.2</ele>
        <time>2022-06-06T11:36:14Z</time>
      </trkpt>
      <trkpt lat="47.8772250" lon="8.2556360">
        <ele>351.0</ele>
        <time>2022-06-06T11:36:18Z</time>
      </trkpt>
      <trkpt lat="47.8772350" lon="8.2557130">
        <ele>351.0</ele>
        <time>2022-06-06T11:36:22Z</time>
      </trkpt>
      <trkpt lat="47.8772610" lon="8.2557650">
        <ele>351.8</ele>
        <time>2022-06-06T11:36:26Z</time>
      </trkpt>
      <trkpt lat="47.8772610" lon="8.2557650">
        <ele>352.0</ele>
        <time>2022-06-06T11:36:30Z</time>
      </trkpt>
      <trkpt lat="47.8772980" lon="8.2557860">
        <ele>351.2</ele>
        <time>2022-06-06T11:36:34Z</time>
      </trkpt>
      <trkpt lat="47.8773480" lon="8.2557750">
        <ele>352.6</ele>
        <time>2022-06-06T11:36:38Z</time>
      </trkpt>
      <trkpt lat="47.8774060" lon="8.2557410">
        <ele>352.2</ele>
        <time>2022-06-06T11:36:42Z</time>
      </trkpt>
      <trkpt lat="47.8774510" lon="8.2556910">
        <ele>352.8</ele>
        <time>2022-06-06T11:36:46Z</time>
      </trkpt>
      <trkpt lat="47.8774910" lon="8.2556380">
        <ele>353.2</ele>
        <time>2022-06-06T11:36:50Z</time>
      </trkpt>
      <trkpt lat="47.8775230" lon="8.2555730">
        <ele>353.2</ele>
        <time>2022-06-06T11:36:54Z</time>
      </trkpt>
      <trkpt lat="47.8775650" lon="8.2555160">
        <ele>355.2</ele>
        <time>2022-06-06T11:36:58Z</time>
      </trkpt>
      <trkpt lat="47.8776160" lon="8.2554830">
        <ele>355.6</ele>
        <time>2022-06-06T11:37:02Z</time>
      </trkpt>
      <trkpt lat="47.8776710" lon="8.2554700">
        <ele>356.6</ele>
        <time>2022-06-06T11:37:06Z</time>
      </trkpt>
      <trkpt lat="47.8777250" lon="8.2554560">
        <ele>357.8</ele>
        <time>2022-06-06T11:37:10Z</time>
      </trkpt>
      <trkpt lat="47.8777660" lon="8.2554260">
        <ele>358.8</ele>
        <time>2022-06-06T11:37:14Z</time>
      </trkpt>
      <trkpt lat="47.8778130" lon="8.2554100">
        <ele>359.8</ele>
        <time>2022-06-06T11:37:18Z</time>
      </trkpt>
      <trkpt lat="47.8778600" lon="8.2553850">
        <ele>361.0</ele>
        <time>2022-06-06T11:37:22Z</time>
      </trkpt>
      <trkpt lat="47.8779200" lon="8.2553630">
        <ele>361.4</ele>
        <time>2022-06-06T11:37:26Z</time>
      </trkpt>
      <trkpt lat="47.8779810" lon="8.2553430">
        <ele>362.0</ele>
        <time>2022-06-06T11:37:30Z</time>
      </trkpt>
      <trkpt lat="47.8780330" lon="8.2553110">
        <ele>362.8</ele>
        <time>2022-06-06T11:37:34Z</time>
      </trkpt>
      <trkpt lat="47.8780800" lon="8.2552860">
        <ele>363.8</ele>
        <time>2022-06-06T11:37:38Z</time>
      </trkpt>
      <trkpt lat="47.8781250" lon="8.2552580">
        <ele>364.2</ele>
        <time>2022-06-06T11:37:42Z</time>
      </trkpt>
      <trkpt lat="47.8781710" lon="8.2552330">
        <ele>364.8</ele>
        <time>2022-06-06T11:37:46Z</time>
      </trkpt>
      <trkpt lat="47.8782130" lon="8.2552060">
        <ele>365.6</ele>
        <time>2022-06-06T11:37:50Z</time>
      </trkpt>
      <trkpt lat="47.8782530" lon="8.2551780">
        <ele>365.6</ele>
        <time>2022-06-06T11:37:54Z</time>
      </trkpt>
      <trkpt lat="47.8782910" lon="8.2551550">
        <ele>366.4</ele>
        <time>2022-06-06T11:37:58Z</time>
      </trkpt>
      <trkpt lat="47.8783260" lon="8.2551260">
        <ele>366.6</ele>
        <time>2022-06-06T11:38:02Z</time>
      </trkpt>
      <trkpt lat="47.8783610" lon="8.2550900">
        <ele>367.8</ele>
        <time>2022-06-06T11:38:06Z</time>
      </trkpt>
      <trkpt lat="47.8784000" lon="8.2550580">
        <ele>368.2</ele>
        <time>2022-06-06T11:38:10Z</time>
      </trkpt>
      <trkpt lat="47.8784360" lon="8.2550200">
        <ele>369.4</ele>
        <time>2022-06-06T11:38:14Z</time>
      </trkpt>
      <trkpt lat="47.8784750" lon="8.2549760">
        <ele>370.2</ele>
        <time>2022-06-06T11:38:18Z</time>
      </trkpt>
      <trkpt lat="47.8785210" lon="8.2549410">
        <ele>370.8</ele>
        <time>2022-06-06T11:38:22Z</time>
      </trkpt>
      <trkpt lat="47.8785580" lon="8.2548960">
        <ele>372.4</ele>
        <time>2022-06-06T11:38:26Z</time>
      </trkpt>
      <trkpt lat="47.8785980" lon="8.2548600">
        <ele>373.2</ele>
        <time>2022-06-06T11:38:30Z</time>
      </trkpt>
      <trkpt lat="47.8786280" lon="8.2548150">
        <ele>373.8</ele>
        <time>2022-06-06T11:38:34Z</time>
      </trkpt>
      <trkpt lat="47.8786610" lon="8.2547580">
        <ele>375.4</ele>
        <time>2022-06-06T11:38:38Z</time>
      </trkpt>
      <trkpt lat="47.8787130" lon="8.2547330">
        <ele>375.4</ele>
        <time>2022-06-06T11:38:42Z</time>
      </trkpt>
      <trkpt lat="47.8787510" lon="8.2546860">
        <ele>376.8</ele>
        <time>2022-06-06T11:38:46Z</time>
      </trkpt>
      <trkpt lat="47.8787900" lon="8.2546460">
        <ele>377.4</ele>
        <time>2022-06-06T11:38:50Z</time>
      </trkpt>
      <trkpt lat="47.8788300" lon="8.2546010">
        <ele>378.2</ele>
        <time>2022-06-06T11:38:54Z</time>
      </trkpt>
      <trkpt lat="47.8788700" lon="8.2545650">
        <ele>379.2</ele>
        <time>2022-06-06T11:38:58Z</time>
      </trkpt>
      <trkpt lat="47.8789100" lon="8.2545210">
        <ele>380.4</ele>
        <time>2022-06-06T11:39:02Z</time>
      </trkpt>
      <trkpt lat="47.8789500" lon="8.2544810">
        <ele>381.0</ele>
        <time>2022-06-06T11:39:06Z</time>
      </trkpt>
      <trkpt lat="47.8789900" lon="8.2544550">
        <ele>381.8</ele>
        <time>2022-06-06T11:39:10Z</time>
      </trkpt>
      <trkpt lat="47.8790280" lon="8.2544110">
        <ele>383.6</ele>
        <time>2022-06-06T11:39:14Z</time>
      </trkpt>
      <trkpt lat="47.8790700" lon="8.2543560">
        <ele>384.0</ele>
        <time>2022-06-06T11:39:18Z</time>
      </trkpt>
      <trkpt lat="47.8791100" lon="8.2543200">
        <ele>384.8</ele>
        <time>2022-06-06T11:39:22Z</time>
      </trkpt>
      <trkpt lat="47.8791500" lon="8.2542910">
        <ele>385.4</ele>
        <time>2022-06-06T11:39:26Z</time>
      </trkpt>
      <trkpt lat="47.8791850" lon="8.2542680">
        <ele>385.4</ele>
        <time>2022-06-06T11:39:30Z</time>
      </trkpt>
      <trkpt lat="47.8792160" lon="8.2542980">
        <ele>385.2</ele>
        <time>2022-06-06T11:39:34Z</time>
      </trkpt>
      <trkpt lat="47.8792430" lon="8.2542500">
        <ele>385.4</ele>
        <time>2022-06-06T11:39:38Z</time>
      </trkpt>
      <trkpt lat="47.8792800" lon="8.2542200">
        <ele>386.4</ele>
        <time>2022-06-06T11:39:42Z</time>
      </trkpt>
      <trkpt lat="47.8792800" lon="8.2542200">
        <ele>386.8</ele>
        <time>2022-06-06T11:39:46Z</time>
      </trkpt>
      <trkpt lat="47.8792800" lon="8.2542200">
        <ele>386.8</ele>
        <time>2022-06-06T11:39:50Z</time>
      </trkpt>
      <trkpt lat="47.8792800" lon="8.2542200">
        <ele>386.4</ele>
        <time>2022-06-06T11:39:54Z</time>
      </trkpt>
      <trkpt lat="47.8792800" lon="8.2542200">
        <ele>386.4</ele>
        <time>2022-06-06T11:39:58Z</time>
      </trkpt>
      <trkpt lat="47.8792800" lon="8.2542200">
        <ele>386.6</ele>
        <time>2022-06-06T11:40:02Z</time>
      </trkpt>
      <trkpt lat="47.8792800" lon="8.2542200">
        <ele>386.6</ele>
        <time>2022-06-06T11:40:06Z</time>
      </trkpt>
      <trkpt lat="47.8792800" lon="8.2542200">
        <ele>386.6</ele>
        <time>2022-06-06T11:40:10Z</time>
      </trkpt>
      <trkpt lat="47.8792800" lon="8.2542200">
        <ele>386.6</ele>
        <time>2022-06-06T11:40:14Z</time>
      </trkpt>
      <trkpt lat="47.8792800" lon="8.2542200">
        <ele>386.4</ele>
        <time>2022-06-06T11:40:18Z</time>
      </trkpt>
      <trkpt lat="47.8792800" lon="8.2542200">
        <ele>386.2</ele>
        <time>2022-06-06T11:40:22Z</time>
      </trkpt>
      <trkpt lat="47.8792800" lon="8.2542200">
        <ele>386.4</ele>
        <time>2022-06-06T11:40:26Z</time>
      </trkpt>
      <trkpt lat="47.8792800" lon="8.2542200">
        <ele>386.4</ele>
        <time>2022-06-06T11:40:30Z</time>
      </trkpt>
      <trkpt lat="47.8792800" lon="8.2542200">
        <ele>386.0</ele>
        <time>2022-06-06T11:40:34Z</time>
      </trkpt>
      <trkpt lat="47.8792800" lon="8.2542200">
        <ele>386.2</ele>
        <time>2022-06-06T11:40:38Z</time>
      </trkpt>
      <trkpt lat="47.8792800" lon="8.2542200">
        <ele>386.4</ele>
        <time>2022-06-06T11:40:42Z</time>
      </trkpt>
      <trkpt lat="47.8792800" lon="8.2542200">
        <ele>386.2</ele>
        <time>2022-06-06T11:40:46Z</time>
      </trkpt>
      <trkpt lat="47.8792800" lon="8.2542200">
        <ele>386.4</ele>
        <time>2022-06-06T11:40:50Z</time>
      </trkpt>
      <trkpt lat="47.8792800" lon="8.2542200">
        <ele>386.4</ele>
        <time>2022-06-06T11:40:54Z</time>
      </trkpt>
      <trkpt lat="47.8792800" lon="8.2542200">
        <ele>386.0</ele>
        <time>2022-06-06T11:40:58Z</time>
      </trkpt>
      <trkpt lat="47.8792800" lon="8.2542200">
        <ele>386.4</ele>
        <time>2022-06-06T11:41:02Z</time>
      </trkpt>
      <trkpt lat="47.8793500" lon="8.2541930">
        <ele>386.4</ele>
        <time>2022-06-06T11:41:06Z</time>
      </trkpt>
      <trkpt lat="47.8793750" lon="8.2541580">
        <ele>386.2</ele>
        <time>2022-06-06T11:41:10Z</time>
      </trkpt>
      <trkpt lat="47.8793750" lon="8.2541580">
        <ele>387.0</ele>
        <time>2022-06-06T11:41:14Z</time>
      </trkpt>
      <trkpt lat="47.8794150" lon="8.2541280">
        <ele>387.4</ele>
        <time>2022-06-06T11:41:18Z</time>
      </trkpt>
      <trkpt lat="47.8794460" lon="8.2540980">
        <ele>387.6</ele>
        <time>2022-06-06T11:41:22Z</time>
      </trkpt>
      <trkpt lat="47.8794850" lon="8.2540760">
        <ele>388.0</ele>
        <time>2022-06-06T11:41:26Z</time>
      </trkpt>
      <trkpt lat="47.8795180" lon="8.2540560">
        <ele>388.4</ele>
        <time>2022-06-06T11:41:30Z</time>
      </trkpt>
      <trkpt lat="47.8795330" lon="8.2540150">
        <ele>388.6</ele>
        <time>2022-06-06T11:41:34Z</time>
      </trkpt>
      <trkpt lat="47.8795330" lon="8.2540150">
        <ele>388.6</ele>
        <time>2022-06-06T11:41:38Z</time>
      </trkpt>
      <trkpt lat="47.8795330" lon="8.2540150">
        <ele>387.8</ele>
        <time>2022-06-06T11:41:42Z</time>
      </trkpt>
      <trkpt lat="47.8795330" lon="8.2540150">
        <ele>388.0</ele>
        <time>2022-06-06T11:41:46Z</time>
      </trkpt>
      <trkpt lat="47.8795330" lon="8.2540150">
        <ele>388.6</ele>
        <time>2022-06-06T11:41:50Z</time>
      </trkpt>
      <trkpt lat="47.8795330" lon="8.2540150">
        <ele>388.8</ele>
        <time>2022-06-06T11:41:54Z</time>
      </trkpt>
      <trkpt lat="47.8795330" lon="8.2540150">
        <ele>388.4</ele>
        <time>2022-06-06T11:41:58Z</time>
      </trkpt>
      <trkpt lat="47.8795330" lon="8.2540150">
        <ele>388.6</ele>
        <time>2022-06-06T11:42:02Z</time>
      </trkpt>
      <trkpt lat="47.8795330" lon="8.2540150">
        <ele>388.2</ele>
        <time>2022-06-06T11:42:06Z</time>
      </trkpt>
      <trkpt lat="47.8795330" lon="8.2540150">
        <ele>388.8</ele>
        <time>2022-06-06T11:42:10Z</time>
      </trkpt>
      <trkpt lat="47.8795330" lon="8.2540150">
        <ele>388.2</ele>
        <time>2022-06-06T11:42:14Z</time>
      </trkpt>
      <trkpt lat="47.8795330" lon="8.2540150">
        <ele>388.0</ele>
        <time>2022-06-06T11:42:18Z</time>
      </trkpt>
      <trkpt lat="47.8795460" lon="8.2539850">
        <ele>388.2</ele>
        <time>2022-06-06T11:42:22Z</time>
      </trkpt>
      <trkpt lat="47.8795850" lon="8.2539810">
        <ele>388.0</ele>
        <time>2022-06-06T11:42:26Z</time>
      </trkpt>
      <trkpt lat="47.8796180" lon="8.2539530">
        <ele>388.6</ele>
        <time>2022-06-06T11:42:30Z</time>
      </trkpt>
      <trkpt lat="47.8796660" lon="8.2539430">
        <ele>389.2</ele>
        <time>2022-06-06T11:42:34Z</time>
      </trkpt>
      <trkpt lat="47.8797100" lon="8.2539300">
        <ele>389.4</ele>
        <time>2022-06-06T11:42:38Z</time>
      </trkpt>
      <trkpt lat="47.8797500" lon="8.2539230">
        <ele>390.0</ele>
        <time>2022-06-06T11:42:42Z</time>
      </trkpt>
      <trkpt lat="47.8797500" lon="8.2539230">
        <ele>390.6</ele>
        <time>2022-06-06T11:42:46Z</time>
      </trkpt>
      <trkpt lat="47.8797500" lon="8.2539230">
        <ele>391.2</ele>
        <time>2022-06-06T11:42:50Z</time>
      </trkpt>
      <trkpt lat="47.8797500" lon="8.2539230">
        <ele>391.4</ele>
        <time>2022-06-06T11:42:54Z</time>
      </trkpt>
      <trkpt lat="47.8797500" lon="8.2539230">
        <ele>390.8</ele>
        <time>2022-06-06T11:42:58Z</time>
      </trkpt>
      <trkpt lat="47.8797500" lon="8.2539230">
        <ele>391.0</ele>
        <time>2022-06-06T11:43:02Z</time>
      </trkpt>
      <trkpt lat="47.8797500" lon="8.2539230">
        <ele>391.2</ele>
        <time>2022-06-06T11:43:06Z</time>
      </trkpt>
      <trkpt lat="47.8797500" lon="8.2539230">
        <ele>391.2</ele>
        <time>2022-06-06T11:43:10Z</time>
      </trkpt>
      <trkpt lat="47.8798310" lon="8.2539600">
        <ele>391.0</ele>
        <time>2022-06-06T11:43:14Z</time>
      </trkpt>
      <trkpt lat="47.8798310" lon="8.2539600">
        <ele>392.0</ele>
        <time>2022-06-06T11:43:18Z</time>
      </trkpt>
      <trkpt lat="47.8798310" lon="8.2539600">
        <ele>391.4</ele>
        <time>2022-06-06T11:43:22Z</time>
      </trkpt>
      <trkpt lat="47.8798310" lon="8.2539600">
        <ele>391.6</ele>
        <time>2022-06-06T11:43:26Z</time>
      </trkpt>
      <trkpt lat="47.8798310" lon="8.2539600">
        <ele>391.8</ele>
        <time>2022-06-06T11:43:30Z</time>
      </trkpt>
      <trkpt lat="47.8798310" lon="8.2539600">
        <ele>391.2</ele>
        <time>2022-06-06T11:43:34Z</time>
      </trkpt>
      <trkpt lat="47.8798310" lon="8.2539600">
        <ele>391.4</ele>
        <time>2022-06-06T11:43:38Z</time>
      </trkpt>
      <trkpt lat="47.8798310" lon="8.2539600">
        <ele>391.4</ele>
        <time>2022-06-06T11:43:42Z</time>
      </trkpt>
      <trkpt lat="47.8798310" lon="8.2539600">
        <ele>391.2</ele>
        <time>2022-06-06T11:43:46Z</time>
      </trkpt>
      <trkpt lat="47.8798310" lon="8.2539600">
        <ele>391.2</ele>
        <time>2022-06-06T11:43:50Z</time>
      </trkpt>
      <trkpt lat="47.8798310" lon="8.2539600">
        <ele>391.2</ele>
        <time>2022-06-06T11:43:54Z</time>
      </trkpt>
      <trkpt lat="47.8798310" lon="8.2539600">
        <ele>391.6</ele>
        <time>2022-06-06T11:43:58Z</time>
      </trkpt>
      <trkpt lat="47.8798310" lon="8.2539600">
        <ele>391.6</ele>
        <time>2022-06-06T11:44:02Z</time>
      </trkpt>
      <trkpt lat="47.8798310" lon="8.2539600">
        <ele>391.6</ele>
        <time>2022-06-06T11:44:06Z</time>
      </trkpt>
      <trkpt lat="47.8798310" lon="8.2539600">
        <ele>391.2</ele>
        <time>2022-06-06T11:44:10Z</time>
      </trkpt>
      <trkpt lat="47.8798310" lon="8.2539600">
        <ele>391.4</ele>
        <time>2022-06-06T11:44:14Z</time>
      </trkpt>
      <trkpt lat="47.8798310" lon="8.2539600">
        <ele>391.6</ele>
        <time>2022-06-06T11:44:18Z</time>
      </trkpt>
      <trkpt lat="47.8798310" lon="8.2539600">
        <ele>391.4</ele>
        <time>2022-06-06T11:44:22Z</time>
      </trkpt>
      <trkpt lat="47.8798310" lon="8.2539600">
        <ele>391.6</ele>
        <time>2022-06-06T11:44:26Z</time>
      </trkpt>
      <trkpt lat="47.8798310" lon="8.2539600">
        <ele>391.6</ele>
        <time>2022-06-06T11:44:30Z</time>
      </trkpt>
      <trkpt lat="47.8798310" lon="8.2539600">
        <ele>391.8</ele>
        <time>2022-06-06T11:44:34Z</time>
      </trkpt>
      <trkpt lat="47.8798310" lon="8.2539600">
        <ele>391.6</ele>
        <time>2022-06-06T11:44:38Z</time>
      </trkpt>
      <trkpt lat="47.8798310" lon="8.2539600">
        <ele>391.8</ele>
        <time>2022-06-06T11:44:42Z</time>
      </trkpt>
      <trkpt lat="47.8798310" lon="8.2539600">
        <ele>391.6</ele>
        <time>2022-06-06T11:44:46Z</time>
      </trkpt>
      <trkpt lat="47.8798310" lon="8.2539600">
        <ele>391.6</ele>
        <time>2022-06-06T11:44:50Z</time>
      </trkpt>
      <trkpt lat="47.8798310" lon="8.2539600">
        <ele>391.6</ele>
        <time>2022-06-06T11:44:54Z</time>
      </trkpt>
      <trkpt lat="47.8798310" lon="8.2539600">
        <ele>391.8</ele>
        <time>2022-06-06T11:44:58Z</time>
      </trkpt>
      <trkpt lat="47.8798310" lon="8.2539600">
        <ele>391.6</ele>
        <time>2022-06-06T11:45:02Z</time>
      </trkpt>
      <trkpt lat="47.8798310" lon="8.2539600">
        <ele>391.4</ele>
        <time>2022-06-06T11:45:06Z</time>
      </trkpt>
      <trkpt lat="47.8798310" lon="8.2539600">
        <ele>391.4</ele>
        <time>2022-06-06T11:45:10Z</time>
      </trkpt>
      <trkpt lat="47.8798310" lon="8.2539600">
        <ele>391.4</ele>
        <time>2022-06-06T11:45:14Z</time>
      </trkpt>
      <trkpt lat="47.8798700" lon="8.2538700">
        <ele>391.6</ele>
        <time>2022-06-06T11:45:18Z</time>
      </trkpt>
      <trkpt lat="47.8798910" lon="8.2538980">
        <ele>392.0</ele>
        <time>2022-06-06T11:45:22Z</time>
      </trkpt>
      <trkpt lat="47.8799180" lon="8.2539310">
        <ele>392.2</ele>
        <time>2022-06-06T11:45:26Z</time>
      </trkpt>
      <trkpt lat="47.8799510" lon="8.2539580">
        <ele>393.0</ele>
        <time>2022-06-06T11:45:30Z</time>
      </trkpt>
      <trkpt lat="47.8799850" lon="8.2539850">
        <ele>393.4</ele>
        <time>2022-06-06T11:45:34Z</time>
      </trkpt>
      <trkpt lat="47.8799850" lon="8.2539850">
        <ele>393.8</ele>
        <time>2022-06-06T11:45:38Z</time>
      </trkpt>
      <trkpt lat="47.8800050" lon="8.2540000">
        <ele>393.8</ele>
        <time>2022-06-06T11:45:42Z</time>
      </trkpt>
      <trkpt lat="47.8800480" lon="8.2540480">
        <ele>394.0</ele>
        <time>2022-06-06T11:45:46Z</time>
      </trkpt>
      <trkpt lat="47.8800850" lon="8.2541100">
        <ele>395.0</ele>
        <time>2022-06-06T11:45:50Z</time>
      </trkpt>
      <trkpt lat="47.8801360" lon="8.2541930">
        <ele>395.4</ele>
        <time>2022-06-06T11:45:54Z</time>
      </trkpt>
      <trkpt lat="47.8801750" lon="8.2542630">
        <ele>396.0</ele>
        <time>2022-06-06T11:45:58Z</time>
      </trkpt>
      <trkpt lat="47.8802130" lon="8.2543280">
        <ele>396.0</ele>
        <time>2022-06-06T11:46:02Z</time>
      </trkpt>
      <trkpt lat="47.8802410" lon="8.2544030">
        <ele>396.8</ele>
        <time>2022-06-06T11:46:06Z</time>
      </trkpt>
      <trkpt lat="47.8802710" lon="8.2544780">
        <ele>397.2</ele>
        <time>2022-06-06T11:46:10Z</time>
      </trkpt>
      <trkpt lat="47.8802860" lon="8.2545450">
        <ele>398.0</ele>
        <time>2022-06-06T11:46:14Z</time>
      </trkpt>
      <trkpt lat="47.8803080" lon="8.2546030">
        <ele>398.6</ele>
        <time>2022-06-06T11:46:18Z</time>
      </trkpt>
      <trkpt lat="47.8803300" lon="8.2546680">
        <ele>399.4</ele>
        <time>2022-06-06T11:46:22Z</time>
      </trkpt>
      <trkpt lat="47.8803510" lon="8.2547110">
        <ele>400.2</ele>
        <time>2022-06-06T11:46:26Z</time>
      </trkpt>
      <trkpt lat="47.8803710" lon="8.2547530">
        <ele>400.8</ele>
        <time>2022-06-06T11:46:30Z</time>
      </trkpt>
      <trkpt lat="47.8803950" lon="8.2548210">
        <ele>402.0</ele>
        <time>2022-06-06T11:46:34Z</time>
      </trkpt>
      <trkpt lat="47.8804180" lon="8.2548950">
        <ele>402.4</ele>
        <time>2022-06-06T11:46:38Z</time>
      </trkpt>
      <trkpt lat="47.8804310" lon="8.2549860">
        <ele>403.0</ele>
        <time>2022-06-06T11:46:42Z</time>
      </trkpt>
      <trkpt lat="47.8804450" lon="8.2550810">
        <ele>404.0</ele>
        <time>2022-06-06T11:46:46Z</time>
      </trkpt>
      <trkpt lat="47.8804630" lon="8.2551700">
        <ele>404.4</ele>
        <time>2022-06-06T11:46:50Z</time>
      </trkpt>
      <trkpt lat="47.8804880" lon="8.2552560">
        <ele>405.2</ele>
        <time>2022-06-06T11:46:54Z</time>
      </trkpt>
      <trkpt lat="47.8805100" lon="8.2553550">
        <ele>405.4</ele>
        <time>2022-06-06T11:46:58Z</time>
      </trkpt>
      <trkpt lat="47.8805230" lon="8.2554400">
        <ele>406.2</ele>
        <time>2022-06-06T11:47:02Z</time>
      </trkpt>
      <trkpt lat="47.8805350" lon="8.2555200">
        <ele>407.0</ele>
        <time>2022-06-06T11:47:06Z</time>
      </trkpt>
      <trkpt lat="47.8805380" lon="8.2555760">
        <ele>407.2</ele>
        <time>2022-06-06T11:47:10Z</time>
      </trkpt>
      <trkpt lat="47.8805460" lon="8.2556330">
        <ele>408.8</ele>
        <time>2022-06-06T11:47:14Z</time>
      </trkpt>
      <trkpt lat="47.8805530" lon="8.2557100">
        <ele>408.6</ele>
        <time>2022-06-06T11:47:18Z</time>
      </trkpt>
      <trkpt lat="47.8805610" lon="8.2557900">
        <ele>409.4</ele>
        <time>2022-06-06T11:47:22Z</time>
      </trkpt>
      <trkpt lat="47.8805610" lon="8.2558660">
        <ele>410.2</ele>
        <time>2022-06-06T11:47:26Z</time>
      </trkpt>
      <trkpt lat="47.8805680" lon="8.2559360">
        <ele>410.8</ele>
        <time>2022-06-06T11:47:30Z</time>
      </trkpt>
      <trkpt lat="47.8805760" lon="8.2560060">
        <ele>411.4</ele>
        <time>2022-06-06T11:47:34Z</time>
      </trkpt>
      <trkpt lat="47.8805780" lon="8.2560610">
        <ele>412.4</ele>
        <time>2022-06-06T11:47:38Z</time>
      </trkpt>
      <trkpt lat="47.8805680" lon="8.2561300">
        <ele>413.0</ele>
        <time>2022-06-06T11:47:42Z</time>
      </trkpt>
      <trkpt lat="47.8805730" lon="8.2562030">
        <ele>413.6</ele>
        <time>2022-06-06T11:47:46Z</time>
      </trkpt>
      <trkpt lat="47.8805780" lon="8.2562930">
        <ele>414.6</ele>
        <time>2022-06-06T11:47:50Z</time>
      </trkpt>
      <trkpt lat="47.8805650" lon="8.2563680">
        <ele>415.2</ele>
        <time>2022-06-06T11:47:54Z</time>
      </trkpt>
      <trkpt lat="47.8805730" lon="8.2564530">
        <ele>416.2</ele>
        <time>2022-06-06T11:47:58Z</time>
      </trkpt>
      <trkpt lat="47.8805710" lon="8.2565180">
        <ele>417.0</ele>
        <time>2022-06-06T11:48:02Z</time>
      </trkpt>
      <trkpt lat="47.8805610" lon="8.2565810">
        <ele>417.4</ele>
        <time>2022-06-06T11:48:06Z</time>
      </trkpt>
      <trkpt lat="47.8805650" lon="8.2566360">
        <ele>418.6</ele>
        <time>2022-06-06T11:48:10Z</time>
      </trkpt>
      <trkpt lat="47.8805610" lon="8.2567030">
        <ele>419.8</ele>
        <time>2022-06-06T11:48:14Z</time>
      </trkpt>
      <trkpt lat="47.8805400" lon="8.2567830">
        <ele>420.2</ele>
        <time>2022-06-06T11:48:18Z</time>
      </trkpt>
      <trkpt lat="47.8805450" lon="8.2568510">
        <ele>421.2</ele>
        <time>2022-06-06T11:48:22Z</time>
      </trkpt>
      <trkpt lat="47.8805250" lon="8.2569180">
        <ele>421.8</ele>
        <time>2022-06-06T11:48:26Z</time>
      </trkpt>
      <trkpt lat="47.8805210" lon="8.2570010">
        <ele>422.0</ele>
        <time>2022-06-06T11:48:30Z</time>
      </trkpt>
      <trkpt lat="47.8805150" lon="8.2570780">
        <ele>423.0</ele>
        <time>2022-06-06T11:48:34Z</time>
      </trkpt>
      <trkpt lat="47.8804960" lon="8.2571580">
        <ele>423.4</ele>
        <time>2022-06-06T11:48:38Z</time>
      </trkpt>
      <trkpt lat="47.8804710" lon="8.2572300">
        <ele>424.0</ele>
        <time>2022-06-06T11:48:42Z</time>
      </trkpt>
      <trkpt lat="47.8804730" lon="8.2573030">
        <ele>424.8</ele>
        <time>2022-06-06T11:48:46Z</time>
      </trkpt>
      <trkpt lat="47.8804550" lon="8.2573560">
        <ele>425.2</ele>
        <time>2022-06-06T11:48:50Z</time>
      </trkpt>
      <trkpt lat="47.8804100" lon="8.2574310">
        <ele>425.8</ele>
        <time>2022-06-06T11:48:54Z</time>
      </trkpt>
      <trkpt lat="47.8803750" lon="8.2574880">
        <ele>426.4</ele>
        <time>2022-06-06T11:48:58Z</time>
      </trkpt>
      <trkpt lat="47.8803560" lon="8.2575580">
        <ele>426.8</ele>
        <time>2022-06-06T11:49:02Z</time>
      </trkpt>
      <trkpt lat="47.8803410" lon="8.2576210">
        <ele>428.0</ele>
        <time>2022-06-06T11:49:06Z</time>
      </trkpt>
      <trkpt lat="47.8803080" lon="8.2576900">
        <ele>428.4</ele>
        <time>2022-06-06T11:49:10Z</time>
      </trkpt>
      <trkpt lat="47.8802800" lon="8.2577630">
        <ele>429.2</ele>
        <time>2022-06-06T11:49:14Z</time>
      </trkpt>
      <trkpt lat="47.8802500" lon="8.2578410">
        <ele>429.6</ele>
        <time>2022-06-06T11:49:18Z</time>
      </trkpt>
      <trkpt lat="47.8802310" lon="8.2579230">
        <ele>430.8</ele>
        <time>2022-06-06T11:49:22Z</time>
      </trkpt>
      <trkpt lat="47.8802160" lon="8.2579930">
        <ele>431.6</ele>
        <time>2022-06-06T11:49:26Z</time>
      </trkpt>
      <trkpt lat="47.8802330" lon="8.2581030">
        <ele>432.4</ele>
        <time>2022-06-06T11:49:30Z</time>
      </trkpt>
      <trkpt lat="47.8802100" lon="8.2581730">
        <ele>433.0</ele>
        <time>2022-06-06T11:49:34Z</time>
      </trkpt>
      <trkpt lat="47.8802110" lon="8.2582530">
        <ele>434.6</ele>
        <time>2022-06-06T11:49:38Z</time>
      </trkpt>
      <trkpt lat="47.8801910" lon="8.2583260">
        <ele>436.0</ele>
        <time>2022-06-06T11:49:42Z</time>
      </trkpt>
      <trkpt lat="47.8801860" lon="8.2584110">
        <ele>436.0</ele>
        <time>2022-06-06T11:49:46Z</time>
      </trkpt>
      <trkpt lat="47.8801880" lon="8.2585010">
        <ele>436.6</ele>
        <time>2022-06-06T11:49:50Z</time>
      </trkpt>
      <trkpt lat="47.8801830" lon="8.2585810">
        <ele>437.2</ele>
        <time>2022-06-06T11:49:54Z</time>
      </trkpt>
      <trkpt lat="47.8801800" lon="8.2586600">
        <ele>438.2</ele>
        <time>2022-06-06T11:49:58Z</time>
      </trkpt>
      <trkpt lat="47.8802030" lon="8.2587080">
        <ele>439.0</ele>
        <time>2022-06-06T11:50:02Z</time>
      </trkpt>
      <trkpt lat="47.8802350" lon="8.2587950">
        <ele>439.4</ele>
        <time>2022-06-06T11:50:06Z</time>
      </trkpt>
      <trkpt lat="47.8802530" lon="8.2588660">
        <ele>440.2</ele>
        <time>2022-06-06T11:50:10Z</time>
      </trkpt>
      <trkpt lat="47.8802810" lon="8.2589250">
        <ele>441.4</ele>
        <time>2022-06-06T11:50:14Z</time>
      </trkpt>
      <trkpt lat="47.8803100" lon="8.2589730">
        <ele>442.0</ele>
        <time>2022-06-06T11:50:18Z</time>
      </trkpt>
      <trkpt lat="47.8803330" lon="8.2590100">
        <ele>442.0</ele>
        <time>2022-06-06T11:50:22Z</time>
      </trkpt>
      <trkpt lat="47.8803580" lon="8.2590430">
        <ele>442.8</ele>
        <time>2022-06-06T11:50:26Z</time>
      </trkpt>
      <trkpt lat="47.8803800" lon="8.2591030">
        <ele>443.6</ele>
        <time>2022-06-06T11:50:30Z</time>
      </trkpt>
      <trkpt lat="47.8804010" lon="8.2591380">
        <ele>444.4</ele>
        <time>2022-06-06T11:50:34Z</time>
      </trkpt>
      <trkpt lat="47.8804360" lon="8.2591650">
        <ele>445.2</ele>
        <time>2022-06-06T11:50:38Z</time>
      </trkpt>
      <trkpt lat="47.8804650" lon="8.2591950">
        <ele>446.0</ele>
        <time>2022-06-06T11:50:42Z</time>
      </trkpt>
      <trkpt lat="47.8805030" lon="8.2592350">
        <ele>446.8</ele>
        <time>2022-06-06T11:50:46Z</time>
      </trkpt>
      <trkpt lat="47.8805330" lon="8.2592860">
        <ele>448.0</ele>
        <time>2022-06-06T11:50:50Z</time>
      </trkpt>
      <trkpt lat="47.8805810" lon="8.2593300">
        <ele>448.6</ele>
        <time>2022-06-06T11:50:54Z</time>
      </trkpt>
      <trkpt lat="47.8806230" lon="8.2593730">
        <ele>450.0</ele>
        <time>2022-06-06T11:50:58Z</time>
      </trkpt>
      <trkpt lat="47.8806560" lon="8.2594210">
        <ele>450.4</ele>
        <time>2022-06-06T11:51:02Z</time>
      </trkpt>
      <trkpt lat="47.8806950" lon="8.2594550">
        <ele>451.2</ele>
        <time>2022-06-06T11:51:06Z</time>
      </trkpt>
      <trkpt lat="47.8807450" lon="8.2594960">
        <ele>451.8</ele>
        <time>2022-06-06T11:51:10Z</time>
      </trkpt>
      <trkpt lat="47.8807830" lon="8.2595360">
        <ele>452.4</ele>
        <time>2022-06-06T11:51:14Z</time>
      </trkpt>
      <trkpt lat="47.8808230" lon="8.2595730">
        <ele>452.8</ele>
        <time>2022-06-06T11:51:18Z</time>
      </trkpt>
      <trkpt lat="47.8808750" lon="8.2596230">
        <ele>453.4</ele>
        <time>2022-06-06T11:51:22Z</time>
      </trkpt>
      <trkpt lat="47.8809100" lon="8.2596600">
        <ele>454.2</ele>
        <time>2022-06-06T11:51:26Z</time>
      </trkpt>
      <trkpt lat="47.8809430" lon="8.2597050">
        <ele>454.6</ele>
        <time>2022-06-06T11:51:30Z</time>
      </trkpt>
      <trkpt lat="47.8809830" lon="8.2597580">
        <ele>455.6</ele>
        <time>2022-06-06T11:51:34Z</time>
      </trkpt>
      <trkpt lat="47.8810150" lon="8.2597930">
        <ele>455.8</ele>
        <time>2022-06-06T11:51:38Z</time>
      </trkpt>
      <trkpt lat="47.8810500" lon="8.2598230">
        <ele>456.6</ele>
        <time>2022-06-06T11:51:42Z</time>
      </trkpt>
      <trkpt lat="47.8810880" lon="8.2598810">
        <ele>457.2</ele>
        <time>2022-06-06T11:51:46Z</time>
      </trkpt>
      <trkpt lat="47.8811380" lon="8.2599360">
        <ele>457.4</ele>
        <time>2022-06-06T11:51:50Z</time>
      </trkpt>
      <trkpt lat="47.8811780" lon="8.2599830">
        <ele>458.0</ele>
        <time>2022-06-06T11:51:54Z</time>
      </trkpt>
      <trkpt lat="47.8812080" lon="8.2600300">
        <ele>459.0</ele>
        <time>2022-06-06T11:51:58Z</time>
      </trkpt>
      <trkpt lat="47.8812560" lon="8.2600700">
        <ele>458.8</ele>
        <time>2022-06-06T11:52:02Z</time>
      </trkpt>
      <trkpt lat="47.8813100" lon="8.2601060">
        <ele>458.8</ele>
        <time>2022-06-06T11:52:06Z</time>
      </trkpt>
      <trkpt lat="47.8813600" lon="8.2601410">
        <ele>460.2</ele>
        <time>2022-06-06T11:52:10Z</time>
      </trkpt>
      <trkpt lat="47.8814100" lon="8.2601830">
        <ele>460.4</ele>
        <time>2022-06-06T11:52:14Z</time>
      </trkpt>
      <trkpt lat="47.8814550" lon="8.2602210">
        <ele>461.2</ele>
        <time>2022-06-06T11:52:18Z</time>
      </trkpt>
      <trkpt lat="47.8815050" lon="8.2602580">
        <ele>462.0</ele>
        <time>2022-06-06T11:52:22Z</time>
      </trkpt>
      <trkpt lat="47.8815550" lon="8.2603010">
        <ele>462.6</ele>
        <time>2022-06-06T11:52:26Z</time>
      </trkpt>
      <trkpt lat="47.8816000" lon="8.2603230">
        <ele>463.2</ele>
        <time>2022-06-06T11:52:30Z</time>
      </trkpt>
      <trkpt lat="47.8816560" lon="8.2603360">
        <ele>463.6</ele>
        <time>2022-06-06T11:52:34Z</time>
      </trkpt>
      <trkpt lat="47.8817060" lon="8.2603430">
        <ele>464.8</ele>
        <time>2022-06-06T11:52:38Z</time>
      </trkpt>
      <trkpt lat="47.8817450" lon="8.2603450">
        <ele>465.4</ele>
        <time>2022-06-06T11:52:42Z</time>
      </trkpt>
      <trkpt lat="47.8817950" lon="8.2603330">
        <ele>467.0</ele>
        <time>2022-06-06T11:52:46Z</time>
      </trkpt>
      <trkpt lat="47.8818430" lon="8.2603460">
        <ele>467.6</ele>
        <time>2022-06-06T11:52:50Z</time>
      </trkpt>
      <trkpt lat="47.8818800" lon="8.2603610">
        <ele>468.4</ele>
        <time>2022-06-06T11:52:54Z</time>
      </trkpt>
      <trkpt lat="47.8819230" lon="8.2603730">
        <ele>469.4</ele>
        <time>2022-06-06T11:52:58Z</time>
      </trkpt>
      <trkpt lat="47.8819660" lon="8.2603660">
        <ele>470.2</ele>
        <time>2022-06-06T11:53:02Z</time>
      </trkpt>
      <trkpt lat="47.8820150" lon="8.2603650">
        <ele>471.4</ele>
        <time>2022-06-06T11:53:06Z</time>
      </trkpt>
      <trkpt lat="47.8820650" lon="8.2603800">
        <ele>472.2</ele>
        <time>2022-06-06T11:53:10Z</time>
      </trkpt>
      <trkpt lat="47.8821110" lon="8.2603800">
        <ele>472.8</ele>
        <time>2022-06-06T11:53:14Z</time>
      </trkpt>
      <trkpt lat="47.8821700" lon="8.2603980">
        <ele>474.4</ele>
        <time>2022-06-06T11:53:18Z</time>
      </trkpt>
      <trkpt lat="47.8822110" lon="8.2603980">
        <ele>474.6</ele>
        <time>2022-06-06T11:53:22Z</time>
      </trkpt>
      <trkpt lat="47.8822700" lon="8.2603880">
        <ele>475.6</ele>
        <time>2022-06-06T11:53:26Z</time>
      </trkpt>
      <trkpt lat="47.8823150" lon="8.2603700">
        <ele>476.4</ele>
        <time>2022-06-06T11:53:30Z</time>
      </trkpt>
      <trkpt lat="47.8823660" lon="8.2603700">
        <ele>476.8</ele>
        <time>2022-06-06T11:53:34Z</time>
      </trkpt>
      <trkpt lat="47.8824230" lon="8.2603780">
        <ele>477.8</ele>
        <time>2022-06-06T11:53:38Z</time>
      </trkpt>
      <trkpt lat="47.8824780" lon="8.2603950">
        <ele>478.6</ele>
        <time>2022-06-06T11:53:42Z</time>
      </trkpt>
      <trkpt lat="47.8825330" lon="8.2603960">
        <ele>479.2</ele>
        <time>2022-06-06T11:53:46Z</time>
      </trkpt>
      <trkpt lat="47.8825800" lon="8.2603980">
        <ele>479.8</ele>
        <time>2022-06-06T11:53:50Z</time>
      </trkpt>
      <trkpt lat="47.8825800" lon="8.2603980">
        <ele>480.6</ele>
        <time>2022-06-06T11:53:54Z</time>
      </trkpt>
      <trkpt lat="47.8826460" lon="8.2604310">
        <ele>482.0</ele>
        <time>2022-06-06T11:53:58Z</time>
      </trkpt>
      <trkpt lat="47.8826930" lon="8.2604460">
        <ele>482.8</ele>
        <time>2022-06-06T11:54:02Z</time>
      </trkpt>
      <trkpt lat="47.8827410" lon="8.2604530">
        <ele>483.0</ele>
        <time>2022-06-06T11:54:06Z</time>
      </trkpt>
      <trkpt lat="47.8827780" lon="8.2604560">
        <ele>483.6</ele>
        <time>2022-06-06T11:54:10Z</time>
      </trkpt>
      <trkpt lat="47.8828280" lon="8.2604800">
        <ele>484.4</ele>
        <time>2022-06-06T11:54:14Z</time>
      </trkpt>
      <trkpt lat="47.8828680" lon="8.2604910">
        <ele>484.8</ele>
        <time>2022-06-06T11:54:18Z</time>
      </trkpt>
      <trkpt lat="47.8829230" lon="8.2605360">
        <ele>485.8</ele>
        <time>2022-06-06T11:54:22Z</time>
      </trkpt>
      <trkpt lat="47.8829660" lon="8.2605400">
        <ele>486.0</ele>
        <time>2022-06-06T11:54:26Z</time>
      </trkpt>
      <trkpt lat="47.8830100" lon="8.2605780">
        <ele>486.8</ele>
        <time>2022-06-06T11:54:30Z</time>
      </trkpt>
      <trkpt lat="47.8830560" lon="8.2605980">
        <ele>487.0</ele>
        <time>2022-06-06T11:54:34Z</time>
      </trkpt>
      <trkpt lat="47.8831060" lon="8.2606480">
        <ele>487.8</ele>
        <time>2022-06-06T11:54:38Z</time>
      </trkpt>
      <trkpt lat="47.8831510" lon="8.2606960">
        <ele>488.4</ele>
        <time>2022-06-06T11:54:42Z</time>
      </trkpt>
      <trkpt lat="47.8831850" lon="8.2607480">
        <ele>489.2</ele>
        <time>2022-06-06T11:54:46Z</time>
      </trkpt>
      <trkpt lat="47.8832160" lon="8.2608030">
        <ele>488.8</ele>
        <time>2022-06-06T11:54:50Z</time>
      </trkpt>
      <trkpt lat="47.8832450" lon="8.2608980">
        <ele>489.8</ele>
        <time>2022-06-06T11:54:54Z</time>
      </trkpt>
      <trkpt lat="47.8832780" lon="8.2609910">
        <ele>490.6</ele>
        <time>2022-06-06T11:54:58Z</time>
      </trkpt>
      <trkpt lat="47.8833030" lon="8.2610480">
        <ele>491.4</ele>
        <time>2022-06-06T11:55:02Z</time>
      </trkpt>
      <trkpt lat="47.8833230" lon="8.2611110">
        <ele>491.8</ele>
        <time>2022-06-06T11:55:06Z</time>
      </trkpt>
      <trkpt lat="47.8833350" lon="8.2611830">
        <ele>492.2</ele>
        <time>2022-06-06T11:55:10Z</time>
      </trkpt>
      <trkpt lat="47.8833660" lon="8.2612460">
        <ele>493.6</ele>
        <time>2022-06-06T11:55:14Z</time>
      </trkpt>
      <trkpt lat="47.8833980" lon="8.2613380">
        <ele>493.6</ele>
        <time>2022-06-06T11:55:18Z</time>
      </trkpt>
      <trkpt lat="47.8834310" lon="8.2614530">
        <ele>494.4</ele>
        <time>2022-06-06T11:55:22Z</time>
      </trkpt>
      <trkpt lat="47.8834510" lon="8.2615550">
        <ele>495.0</ele>
        <time>2022-06-06T11:55:26Z</time>
      </trkpt>
      <trkpt lat="47.8834830" lon="8.2616560">
        <ele>495.4</ele>
        <time>2022-06-06T11:55:30Z</time>
      </trkpt>
      <trkpt lat="47.8835080" lon="8.2617450">
        <ele>495.0</ele>
        <time>2022-06-06T11:55:34Z</time>
      </trkpt>
      <trkpt lat="47.8835380" lon="8.2618480">
        <ele>494.8</ele>
        <time>2022-06-06T11:55:38Z</time>
      </trkpt>
      <trkpt lat="47.8835930" lon="8.2620300">
        <ele>494.8</ele>
        <time>2022-06-06T11:55:42Z</time>
      </trkpt>
      <trkpt lat="47.8836610" lon="8.2622250">
        <ele>494.0</ele>
        <time>2022-06-06T11:55:46Z</time>
      </trkpt>
      <trkpt lat="47.8837360" lon="8.2623500">
        <ele>493.8</ele>
        <time>2022-06-06T11:55:50Z</time>
      </trkpt>
      <trkpt lat="47.8838010" lon="8.2624710">
        <ele>493.2</ele>
        <time>2022-06-06T11:55:54Z</time>
      </trkpt>
      <trkpt lat="47.8838810" lon="8.2625900">
        <ele>493.0</ele>
        <time>2022-06-06T11:55:58Z</time>
      </trkpt>
      <trkpt lat="47.8840030" lon="8.2627210">
        <ele>492.6</ele>
        <time>2022-06-06T11:56:02Z</time>
      </trkpt>
      <trkpt lat="47.8841210" lon="8.2628430">
        <ele>491.6</ele>
        <time>2022-06-06T11:56:06Z</time>
      </trkpt>
      <trkpt lat="47.8842730" lon="8.2629350">
        <ele>491.2</ele>
        <time>2022-06-06T11:56:10Z</time>
      </trkpt>
      <trkpt lat="47.8843930" lon="8.2630800">
        <ele>490.2</ele>
        <time>2022-06-06T11:56:14Z</time>
      </trkpt>
      <trkpt lat="47.8845430" lon="8.2632650">
        <ele>489.6</ele>
        <time>2022-06-06T11:56:18Z</time>
      </trkpt>
      <trkpt lat="47.8846800" lon="8.2634180">
        <ele>488.8</ele>
        <time>2022-06-06T11:56:22Z</time>
      </trkpt>
      <trkpt lat="47.8848400" lon="8.2635710">
        <ele>488.0</ele>
        <time>2022-06-06T11:56:26Z</time>
      </trkpt>
      <trkpt lat="47.8850160" lon="8.2637030">
        <ele>488.0</ele>
        <time>2022-06-06T11:56:30Z</time>
      </trkpt>
      <trkpt lat="47.8851700" lon="8.2638110">
        <ele>487.2</ele>
        <time>2022-06-06T11:56:34Z</time>
      </trkpt>
      <trkpt lat="47.8853350" lon="8.2639310">
        <ele>486.8</ele>
        <time>2022-06-06T11:56:38Z</time>
      </trkpt>
      <trkpt lat="47.8854850" lon="8.2640230">
        <ele>486.0</ele>
        <time>2022-06-06T11:56:42Z</time>
      </trkpt>
      <trkpt lat="47.8856160" lon="8.2641350">
        <ele>485.2</ele>
        <time>2022-06-06T11:56:46Z</time>
      </trkpt>
      <trkpt lat="47.8857810" lon="8.2642910">
        <ele>484.6</ele>
        <time>2022-06-06T11:56:50Z</time>
      </trkpt>
      <trkpt lat="47.8859460" lon="8.2644080">
        <ele>484.2</ele>
        <time>2022-06-06T11:56:54Z</time>
      </trkpt>
      <trkpt lat="47.8861160" lon="8.2645730">
        <ele>484.4</ele>
        <time>2022-06-06T11:56:58Z</time>
      </trkpt>
      <trkpt lat="47.8862930" lon="8.2647260">
        <ele>482.6</ele>
        <time>2022-06-06T11:57:02Z</time>
      </trkpt>
      <trkpt lat="47.8864880" lon="8.2649230">
        <ele>482.6</ele>
        <time>2022-06-06T11:57:06Z</time>
      </trkpt>
      <trkpt lat="47.8867060" lon="8.2651530">
        <ele>480.6</ele>
        <time>2022-06-06T11:57:10Z</time>
      </trkpt>
      <trkpt lat="47.8869430" lon="8.2654380">
        <ele>479.8</ele>
        <time>2022-06-06T11:57:14Z</time>
      </trkpt>
      <trkpt lat="47.8871230" lon="8.2656580">
        <ele>478.2</ele>
        <time>2022-06-06T11:57:18Z</time>
      </trkpt>
      <trkpt lat="47.8872700" lon="8.2658610">
        <ele>477.6</ele>
        <time>2022-06-06T11:57:22Z</time>
      </trkpt>
      <trkpt lat="47.8874430" lon="8.2661700">
        <ele>476.6</ele>
        <time>2022-06-06T11:57:26Z</time>
      </trkpt>
      <trkpt lat="47.8875800" lon="8.2665250">
        <ele>475.2</ele>
        <time>2022-06-06T11:57:30Z</time>
      </trkpt>
      <trkpt lat="47.8877180" lon="8.2669300">
        <ele>474.4</ele>
        <time>2022-06-06T11:57:34Z</time>
      </trkpt>
      <trkpt lat="47.8878450" lon="8.2673580">
        <ele>473.0</ele>
        <time>2022-06-06T11:57:38Z</time>
      </trkpt>
      <trkpt lat="47.8879710" lon="8.2677980">
        <ele>472.2</ele>
        <time>2022-06-06T11:57:42Z</time>
      </trkpt>
      <trkpt lat="47.8881230" lon="8.2682610">
        <ele>470.8</ele>
        <time>2022-06-06T11:57:46Z</time>
      </trkpt>
      <trkpt lat="47.8882710" lon="8.2687000">
        <ele>468.4</ele>
        <time>2022-06-06T11:57:50Z</time>
      </trkpt>
      <trkpt lat="47.8884200" lon="8.2691560">
        <ele>467.2</ele>
        <time>2022-06-06T11:57:54Z</time>
      </trkpt>
      <trkpt lat="47.8885650" lon="8.2696360">
        <ele>462.4</ele>
        <time>2022-06-06T11:57:58Z</time>
      </trkpt>
      <trkpt lat="47.8886680" lon="8.2701530">
        <ele>462.0</ele>
        <time>2022-06-06T11:58:02Z</time>
      </trkpt>
      <trkpt lat="47.8887660" lon="8.2706830">
        <ele>459.4</ele>
        <time>2022-06-06T11:58:06Z</time>
      </trkpt>
      <trkpt lat="47.8888330" lon="8.2712080">
        <ele>458.0</ele>
        <time>2022-06-06T11:58:10Z</time>
      </trkpt>
      <trkpt lat="47.8888630" lon="8.2716980">
        <ele>455.6</ele>
        <time>2022-06-06T11:58:14Z</time>
      </trkpt>
      <trkpt lat="47.8888900" lon="8.2721910">
        <ele>454.4</ele>
        <time>2022-06-06T11:58:18Z</time>
      </trkpt>
      <trkpt lat="47.8890560" lon="8.2725600">
        <ele>453.4</ele>
        <time>2022-06-06T11:58:22Z</time>
      </trkpt>
      <trkpt lat="47.8892730" lon="8.2727750">
        <ele>452.4</ele>
        <time>2022-06-06T11:58:26Z</time>
      </trkpt>
      <trkpt lat="47.8895250" lon="8.2729380">
        <ele>450.2</ele>
        <time>2022-06-06T11:58:30Z</time>
      </trkpt>
      <trkpt lat="47.8898700" lon="8.2730880">
        <ele>448.6</ele>
        <time>2022-06-06T11:58:34Z</time>
      </trkpt>
      <trkpt lat="47.8901960" lon="8.2733380">
        <ele>448.8</ele>
        <time>2022-06-06T11:58:38Z</time>
      </trkpt>
      <trkpt lat="47.8904010" lon="8.2736030">
        <ele>449.4</ele>
        <time>2022-06-06T11:58:42Z</time>
      </trkpt>
      <trkpt lat="47.8905260" lon="8.2738380">
        <ele>449.2</ele>
        <time>2022-06-06T11:58:46Z</time>
      </trkpt>
      <trkpt lat="47.8906210" lon="8.2740400">
        <ele>450.4</ele>
        <time>2022-06-06T11:58:50Z</time>
      </trkpt>
      <trkpt lat="47.8906950" lon="8.2742210">
        <ele>450.4</ele>
        <time>2022-06-06T11:58:54Z</time>
      </trkpt>
      <trkpt lat="47.8907680" lon="8.2744210">
        <ele>450.6</ele>
        <time>2022-06-06T11:58:58Z</time>
      </trkpt>
      <trkpt lat="47.8908450" lon="8.2746000">
        <ele>450.6</ele>
        <time>2022-06-06T11:59:02Z</time>
      </trkpt>
      <trkpt lat="47.8909130" lon="8.2747300">
        <ele>450.8</ele>
        <time>2022-06-06T11:59:06Z</time>
      </trkpt>
      <trkpt lat="47.8909800" lon="8.2748160">
        <ele>450.8</ele>
        <time>2022-06-06T11:59:10Z</time>
      </trkpt>
      <trkpt lat="47.8909800" lon="8.2748160">
        <ele>450.6</ele>
        <time>2022-06-06T11:59:14Z</time>
      </trkpt>
      <trkpt lat="47.8909800" lon="8.2748160">
        <ele>450.6</ele>
        <time>2022-06-06T11:59:18Z</time>
      </trkpt>
      <trkpt lat="47.8909800" lon="8.2748160">
        <ele>450.2</ele>
        <time>2022-06-06T11:59:22Z</time>
      </trkpt>
      <trkpt lat="47.8909800" lon="8.2748160">
        <ele>450.4</ele>
        <time>2022-06-06T11:59:26Z</time>
      </trkpt>
      <trkpt lat="47.8909800" lon="8.2748160">
        <ele>450.8</ele>
        <time>2022-06-06T11:59:30Z</time>
      </trkpt>
      <trkpt lat="47.8909800" lon="8.2748160">
        <ele>450.4</ele>
        <time>2022-06-06T11:59:34Z</time>
      </trkpt>
      <trkpt lat="47.8909800" lon="8.2748160">
        <ele>450.4</ele>
        <time>2022-06-06T11:59:38Z</time>
      </trkpt>
      <trkpt lat="47.8909800" lon="8.2748160">
        <ele>450.2</ele>
        <time>2022-06-06T11:59:42Z</time>
      </trkpt>
      <trkpt lat="47.8909800" lon="8.2748160">
        <ele>450.6</ele>
        <time>2022-06-06T11:59:46Z</time>
      </trkpt>
      <trkpt lat="47.8910150" lon="8.2748380">
        <ele>450.8</ele>
        <time>2022-06-06T11:59:50Z</time>
      </trkpt>
      <trkpt lat="47.8910550" lon="8.2749030">
        <ele>450.8</ele>
        <time>2022-06-06T11:59:54Z</time>
      </trkpt>
      <trkpt lat="47.8911230" lon="8.2750180">
        <ele>451.0</ele>
        <time>2022-06-06T11:59:58Z</time>
      </trkpt>
      <trkpt lat="47.8912160" lon="8.2751280">
        <ele>451.6</ele>
        <time>2022-06-06T12:00:02Z</time>
      </trkpt>
      <trkpt lat="47.8913600" lon="8.2753630">
        <ele>450.8</ele>
        <time>2022-06-06T12:00:06Z</time>
      </trkpt>
      <trkpt lat="47.8914730" lon="8.2755610">
        <ele>450.8</ele>
        <time>2022-06-06T12:00:10Z</time>
      </trkpt>
      <trkpt lat="47.8915850" lon="8.2757710">
        <ele>451.0</ele>
        <time>2022-06-06T12:00:14Z</time>
      </trkpt>
      <trkpt lat="47.8916850" lon="8.2760410">
        <ele>451.4</ele>
        <time>2022-06-06T12:00:18Z</time>
      </trkpt>
      <trkpt lat="47.8917700" lon="8.2763200">
        <ele>451.6</ele>
        <time>2022-06-06T12:00:22Z</time>
      </trkpt>
      <trkpt lat="47.8918560" lon="8.2766130">
        <ele>451.6</ele>
        <time>2022-06-06T12:00:26Z</time>
      </trkpt>
      <trkpt lat="47.8919650" lon="8.2769050">
        <ele>450.4</ele>
        <time>2022-06-06T12:00:30Z</time>
      </trkpt>
      <trkpt lat="47.8920760" lon="8.2772110">
        <ele>450.2</ele>
        <time>2022-06-06T12:00:34Z</time>
      </trkpt>
      <trkpt lat="47.8921850" lon="8.2775180">
        <ele>448.8</ele>
        <time>2022-06-06T12:00:38Z</time>
      </trkpt>
      <trkpt lat="47.8923010" lon="8.2778360">
        <ele>448.4</ele>
        <time>2022-06-06T12:00:42Z</time>
      </trkpt>
      <trkpt lat="47.8924150" lon="8.2781710">
        <ele>447.8</ele>
        <time>2022-06-06T12:00:46Z</time>
      </trkpt>
      <trkpt lat="47.8925430" lon="8.2785130">
        <ele>447.2</ele>
        <time>2022-06-06T12:00:50Z</time>
      </trkpt>
      <trkpt lat="47.8926630" lon="8.2788780">
        <ele>446.4</ele>
        <time>2022-06-06T12:00:54Z</time>
      </trkpt>
      <trkpt lat="47.8927760" lon="8.2792750">
        <ele>444.6</ele>
        <time>2022-06-06T12:00:58Z</time>
      </trkpt>
      <trkpt lat="47.8929310" lon="8.2796600">
        <ele>444.4</ele>
        <time>2022-06-06T12:01:02Z</time>
      </trkpt>
      <trkpt lat="47.8931350" lon="8.2800160">
        <ele>441.6</ele>
        <time>2022-06-06T12:01:06Z</time>
      </trkpt>
      <trkpt lat="47.8933430" lon="8.2803160">
        <ele>441.0</ele>
        <time>2022-06-06T12:01:10Z</time>
      </trkpt>
      <trkpt lat="47.8934960" lon="8.2804880">
        <ele>440.2</ele>
        <time>2022-06-06T12:01:14Z</time>
      </trkpt>
      <trkpt lat="47.8936000" lon="8.2806180">
        <ele>439.6</ele>
        <time>2022-06-06T12:01:18Z</time>
      </trkpt>
      <trkpt lat="47.8936160" lon="8.2808860">
        <ele>437.8</ele>
        <time>2022-06-06T12:01:22Z</time>
      </trkpt>
      <trkpt lat="47.8936180" lon="8.2812780">
        <ele>435.6</ele>
        <time>2022-06-06T12:01:26Z</time>
      </trkpt>
      <trkpt lat="47.8936180" lon="8.2817780">
        <ele>433.4</ele>
        <time>2022-06-06T12:01:30Z</time>
      </trkpt>
      <trkpt lat="47.8936110" lon="8.2822860">
        <ele>430.6</ele>
        <time>2022-06-06T12:01:34Z</time>
      </trkpt>
      <trkpt lat="47.8936330" lon="8.2827950">
        <ele>428.6</ele>
        <time>2022-06-06T12:01:38Z</time>
      </trkpt>
      <trkpt lat="47.8936530" lon="8.2833560">
        <ele>425.4</ele>
        <time>2022-06-06T12:01:42Z</time>
      </trkpt>
      <trkpt lat="47.8936230" lon="8.2839280">
        <ele>421.8</ele>
        <time>2022-06-06T12:01:46Z</time>
      </trkpt>
      <trkpt lat="47.8936030" lon="8.2845150">
        <ele>418.4</ele>
        <time>2022-06-06T12:01:50Z</time>
      </trkpt>
      <trkpt lat="47.8935900" lon="8.2850830">
        <ele>416.6</ele>
        <time>2022-06-06T12:01:54Z</time>
      </trkpt>
      <trkpt lat="47.8935750" lon="8.2856350">
        <ele>414.4</ele>
        <time>2022-06-06T12:01:58Z</time>
      </trkpt>
      <trkpt lat="47.8935630" lon="8.2861600">
        <ele>411.6</ele>
        <time>2022-06-06T12:02:02Z</time>
      </trkpt>
      <trkpt lat="47.8935450" lon="8.2866650">
        <ele>411.2</ele>
        <time>2022-06-06T12:02:06Z</time>
      </trkpt>
      <trkpt lat="47.8935400" lon="8.2871780">
        <ele>409.0</ele>
        <time>2022-06-06T12:02:10Z</time>
      </trkpt>
      <trkpt lat="47.8935280" lon="8.2876830">
        <ele>406.4</ele>
        <time>2022-06-06T12:02:14Z</time>
      </trkpt>
      <trkpt lat="47.8935180" lon="8.2881560">
        <ele>406.0</ele>
        <time>2022-06-06T12:02:18Z</time>
      </trkpt>
      <trkpt lat="47.8935180" lon="8.2886130">
        <ele>403.6</ele>
        <time>2022-06-06T12:02:22Z</time>
      </trkpt>
      <trkpt lat="47.8935010" lon="8.2891060">
        <ele>401.6</ele>
        <time>2022-06-06T12:02:26Z</time>
      </trkpt>
      <trkpt lat="47.8934350" lon="8.2895700">
        <ele>399.2</ele>
        <time>2022-06-06T12:02:30Z</time>
      </trkpt>
      <trkpt lat="47.8933330" lon="8.2899680">
        <ele>397.6</ele>
        <time>2022-06-06T12:02:34Z</time>
      </trkpt>
      <trkpt lat="47.8932050" lon="8.2903350">
        <ele>397.6</ele>
        <time>2022-06-06T12:02:38Z</time>
      </trkpt>
      <trkpt lat="47.8931980" lon="8.2907280">
        <ele>396.2</ele>
        <time>2022-06-06T12:02:42Z</time>
      </trkpt>
      <trkpt lat="47.8933750" lon="8.2909730">
        <ele>394.8</ele>
        <time>2022-06-06T12:02:46Z</time>
      </trkpt>
      <trkpt lat="47.8935910" lon="8.2910650">
        <ele>394.8</ele>
        <time>2022-06-06T12:02:50Z</time>
      </trkpt>
      <trkpt lat="47.8937360" lon="8.2912860">
        <ele>393.4</ele>
        <time>2022-06-06T12:02:54Z</time>
      </trkpt>
      <trkpt lat="47.8937010" lon="8.2916260">
        <ele>391.8</ele>
        <time>2022-06-06T12:02:58Z</time>
      </trkpt>
      <trkpt lat="47.8935010" lon="8.2918880">
        <ele>389.0</ele>
        <time>2022-06-06T12:03:02Z</time>
      </trkpt>
      <trkpt lat="47.8932530" lon="8.2920700">
        <ele>387.8</ele>
        <time>2022-06-06T12:03:06Z</time>
      </trkpt>
      <trkpt lat="47.8930480" lon="8.2922210">
        <ele>386.4</ele>
        <time>2022-06-06T12:03:10Z</time>
      </trkpt>
      <trkpt lat="47.8928850" lon="8.2923380">
        <ele>386.2</ele>
        <time>2022-06-06T12:03:14Z</time>
      </trkpt>
      <trkpt lat="47.8927780" lon="8.2924700">
        <ele>386.0</ele>
        <time>2022-06-06T12:03:18Z</time>
      </trkpt>
      <trkpt lat="47.8927550" lon="8.2927100">
        <ele>385.0</ele>
        <time>2022-06-06T12:03:22Z</time>
      </trkpt>
      <trkpt lat="47.8927730" lon="8.2929810">
        <ele>385.4</ele>
        <time>2022-06-06T12:03:26Z</time>
      </trkpt>
      <trkpt lat="47.8927750" lon="8.2932560">
        <ele>384.8</ele>
        <time>2022-06-06T12:03:30Z</time>
      </trkpt>
      <trkpt lat="47.8927500" lon="8.2935350">
        <ele>384.4</ele>
        <time>2022-06-06T12:03:34Z</time>
      </trkpt>
      <trkpt lat="47.8927180" lon="8.2938000">
        <ele>385.0</ele>
        <time>2022-06-06T12:03:38Z</time>
      </trkpt>
      <trkpt lat="47.8926650" lon="8.2940350">
        <ele>384.2</ele>
        <time>2022-06-06T12:03:42Z</time>
      </trkpt>
      <trkpt lat="47.8925810" lon="8.2942280">
        <ele>385.0</ele>
        <time>2022-06-06T12:03:46Z</time>
      </trkpt>
      <trkpt lat="47.8925060" lon="8.2944060">
        <ele>384.8</ele>
        <time>2022-06-06T12:03:50Z</time>
      </trkpt>
      <trkpt lat="47.8924360" lon="8.2945460">
        <ele>385.8</ele>
        <time>2022-06-06T12:03:54Z</time>
      </trkpt>
      <trkpt lat="47.8923710" lon="8.2947050">
        <ele>385.6</ele>
        <time>2022-06-06T12:03:58Z</time>
      </trkpt>
      <trkpt lat="47.8923050" lon="8.2948560">
        <ele>385.4</ele>
        <time>2022-06-06T12:04:02Z</time>
      </trkpt>
      <trkpt lat="47.8922480" lon="8.2950060">
        <ele>385.0</ele>
        <time>2022-06-06T12:04:06Z</time>
      </trkpt>
      <trkpt lat="47.8921960" lon="8.2951380">
        <ele>385.2</ele>
        <time>2022-06-06T12:04:10Z</time>
      </trkpt>
      <trkpt lat="47.8921960" lon="8.2951380">
        <ele>385.6</ele>
        <time>2022-06-06T12:04:14Z</time>
      </trkpt>
      <trkpt lat="47.8921700" lon="8.2951650">
        <ele>385.2</ele>
        <time>2022-06-06T12:04:18Z</time>
      </trkpt>
      <trkpt lat="47.8921700" lon="8.2951650">
        <ele>385.2</ele>
        <time>2022-06-06T12:04:22Z</time>
      </trkpt>
      <trkpt lat="47.8921700" lon="8.2951650">
        <ele>385.0</ele>
        <time>2022-06-06T12:04:26Z</time>
      </trkpt>
      <trkpt lat="47.8921700" lon="8.2951650">
        <ele>385.6</ele>
        <time>2022-06-06T12:04:30Z</time>
      </trkpt>
      <trkpt lat="47.8921700" lon="8.2951650">
        <ele>385.2</ele>
        <time>2022-06-06T12:04:34Z</time>
      </trkpt>
      <trkpt lat="47.8921700" lon="8.2951650">
        <ele>385.2</ele>
        <time>2022-06-06T12:04:38Z</time>
      </trkpt>
      <trkpt lat="47.8921700" lon="8.2951650">
        <ele>384.8</ele>
        <time>2022-06-06T12:04:42Z</time>
      </trkpt>
      <trkpt lat="47.8921700" lon="8.2951650">
        <ele>385.2</ele>
        <time>2022-06-06T12:04:46Z</time>
      </trkpt>
      <trkpt lat="47.8921700" lon="8.2951650">
        <ele>385.2</ele>
        <time>2022-06-06T12:04:50Z</time>
      </trkpt>
      <trkpt lat="47.8921700" lon="8.2951650">
        <ele>385.0</ele>
        <time>2022-06-06T12:04:54Z</time>
      </trkpt>
      <trkpt lat="47.8921700" lon="8.2951650">
        <ele>385.2</ele>
        <time>2022-06-06T12:04:58Z</time>
      </trkpt>
      <trkpt lat="47.8921700" lon="8.2951650">
        <ele>385.0</ele>
        <time>2022-06-06T12:05:02Z</time>
      </trkpt>
      <trkpt lat="47.8921700" lon="8.2951650">
        <ele>385.4</ele>
        <time>2022-06-06T12:05:06Z</time>
      </trkpt>
      <trkpt lat="47.8921700" lon="8.2951650">
        <ele>385.0</ele>
        <time>2022-06-06T12:05:10Z</time>
      </trkpt>
      <trkpt lat="47.8921700" lon="8.2951650">
        <ele>385.6</ele>
        <time>2022-06-06T12:05:14Z</time>
      </trkpt>
      <trkpt lat="47.8921700" lon="8.2951650">
        <ele>385.4</ele>
        <time>2022-06-06T12:05:18Z</time>
      </trkpt>
      <trkpt lat="47.8921700" lon="8.2951650">
        <ele>384.8</ele>
        <time>2022-06-06T12:05:22Z</time>
      </trkpt>
      <trkpt lat="47.8921700" lon="8.2951650">
        <ele>385.4</ele>
        <time>2022-06-06T12:05:26Z</time>
      </trkpt>
      <trkpt lat="47.8921700" lon="8.2951650">
        <ele>385.8</ele>
        <time>2022-06-06T12:05:30Z</time>
      </trkpt>
      <trkpt lat="47.8921700" lon="8.2951650">
        <ele>385.4</ele>
        <time>2022-06-06T12:05:34Z</time>
      </trkpt>
      <trkpt lat="47.8921700" lon="8.2951650">
        <ele>385.8</ele>
        <time>2022-06-06T12:05:38Z</time>
      </trkpt>
      <trkpt lat="47.8921700" lon="8.2951650">
        <ele>386.0</ele>
        <time>2022-06-06T12:05:42Z</time>
      </trkpt>
      <trkpt lat="47.8921700" lon="8.2951650">
        <ele>386.0</ele>
        <time>2022-06-06T12:05:46Z</time>
      </trkpt>
      <trkpt lat="47.8921700" lon="8.2951650">
        <ele>385.6</ele>
        <time>2022-06-06T12:05:50Z</time>
      </trkpt>
      <trkpt lat="47.8921700" lon="8.2951650">
        <ele>385.8</ele>
        <time>2022-06-06T12:05:54Z</time>
      </trkpt>
      <trkpt lat="47.8921700" lon="8.2951650">
        <ele>385.6</ele>
        <time>2022-06-06T12:05:58Z</time>
      </trkpt>
      <trkpt lat="47.8921700" lon="8.2951650">
        <ele>385.8</ele>
        <time>2022-06-06T12:06:02Z</time>
      </trkpt>
      <trkpt lat="47.8921700" lon="8.2951650">
        <ele>385.6</ele>
        <time>2022-06-06T12:06:06Z</time>
      </trkpt>
      <trkpt lat="47.8921700" lon="8.2951650">
        <ele>385.6</ele>
        <time>2022-06-06T12:06:10Z</time>
      </trkpt>
      <trkpt lat="47.8922110" lon="8.2951730">
        <ele>385.6</ele>
        <time>2022-06-06T12:06:14Z</time>
      </trkpt>
      <trkpt lat="47.8922160" lon="8.2951130">
        <ele>385.8</ele>
        <time>2022-06-06T12:06:18Z</time>
      </trkpt>
      <trkpt lat="47.8922560" lon="8.2950550">
        <ele>385.8</ele>
        <time>2022-06-06T12:06:22Z</time>
      </trkpt>
      <trkpt lat="47.8922780" lon="8.2949550">
        <ele>386.0</ele>
        <time>2022-06-06T12:06:26Z</time>
      </trkpt>
      <trkpt lat="47.8923100" lon="8.2948680">
        <ele>386.0</ele>
        <time>2022-06-06T12:06:30Z</time>
      </trkpt>
      <trkpt lat="47.8923410" lon="8.2947830">
        <ele>386.0</ele>
        <time>2022-06-06T12:06:34Z</time>
      </trkpt>
      <trkpt lat="47.8923800" lon="8.2946860">
        <ele>386.2</ele>
        <time>2022-06-06T12:06:38Z</time>
      </trkpt>
      <trkpt lat="47.8924130" lon="8.2946000">
        <ele>386.0</ele>
        <time>2022-06-06T12:06:42Z</time>
      </trkpt>
      <trkpt lat="47.8924510" lon="8.2945200">
        <ele>385.8</ele>
        <time>2022-06-06T12:06:46Z</time>
      </trkpt>
      <trkpt lat="47.8924880" lon="8.2943980">
        <ele>385.6</ele>
        <time>2022-06-06T12:06:50Z</time>
      </trkpt>
      <trkpt lat="47.8925260" lon="8.2942810">
        <ele>385.2</ele>
        <time>2022-06-06T12:06:54Z</time>
      </trkpt>
      <trkpt lat="47.8925750" lon="8.2942580">
        <ele>384.8</ele>
        <time>2022-06-06T12:06:58Z</time>
      </trkpt>
      <trkpt lat="47.8926250" lon="8.2942460">
        <ele>385.0</ele>
        <time>2022-06-06T12:07:02Z</time>
      </trkpt>
      <trkpt lat="47.8926460" lon="8.2941880">
        <ele>385.0</ele>
        <time>2022-06-06T12:07:06Z</time>
      </trkpt>
      <trkpt lat="47.8926750" lon="8.2941850">
        <ele>385.0</ele>
        <time>2022-06-06T12:07:10Z</time>
      </trkpt>
      <trkpt lat="47.8926750" lon="8.2941850">
        <ele>385.6</ele>
        <time>2022-06-06T12:07:14Z</time>
      </trkpt>
      <trkpt lat="47.8926750" lon="8.2941850">
        <ele>385.6</ele>
        <time>2022-06-06T12:07:18Z</time>
      </trkpt>
      <trkpt lat="47.8926750" lon="8.2941850">
        <ele>385.6</ele>
        <time>2022-06-06T12:07:22Z</time>
      </trkpt>
      <trkpt lat="47.8931330" lon="8.2928280">
        <ele>396.0</ele>
        <time>2022-06-07T06:39:47Z</time>
      </trkpt>
      <trkpt lat="47.8931330" lon="8.2928280">
        <ele>396.0</ele>
        <time>2022-06-07T06:39:51Z</time>
      </trkpt>
      <trkpt lat="47.8931330" lon="8.2928280">
        <ele>395.6</ele>
        <time>2022-06-07T06:39:55Z</time>
      </trkpt>
      <trkpt lat="47.8931330" lon="8.2928280">
        <ele>395.4</ele>
        <time>2022-06-07T06:39:59Z</time>
      </trkpt>
      <trkpt lat="47.8931330" lon="8.2928280">
        <ele>395.6</ele>
        <time>2022-06-07T06:40:03Z</time>
      </trkpt>
      <trkpt lat="47.8931330" lon="8.2928280">
        <ele>395.8</ele>
        <time>2022-06-07T06:40:07Z</time>
      </trkpt>
      <trkpt lat="47.8931330" lon="8.2928280">
        <ele>395.8</ele>
        <time>2022-06-07T06:40:11Z</time>
      </trkpt>
      <trkpt lat="47.8931330" lon="8.2928280">
        <ele>396.0</ele>
        <time>2022-06-07T06:40:15Z</time>
      </trkpt>
      <trkpt lat="47.8931330" lon="8.2928280">
        <ele>395.8</ele>
        <time>2022-06-07T06:40:19Z</time>
      </trkpt>
      <trkpt lat="47.8931330" lon="8.2928280">
        <ele>396.2</ele>
        <time>2022-06-07T06:40:23Z</time>
      </trkpt>
      <trkpt lat="47.8931330" lon="8.2928280">
        <ele>395.8</ele>
        <time>2022-06-07T06:40:27Z</time>
      </trkpt>
      <trkpt lat="47.8931330" lon="8.2928280">
        <ele>396.0</ele>
        <time>2022-06-07T06:40:31Z</time>
      </trkpt>
      <trkpt lat="47.8931330" lon="8.2928280">
        <ele>396.0</ele>
        <time>2022-06-07T06:40:35Z</time>
      </trkpt>
      <trkpt lat="47.8931330" lon="8.2928280">
        <ele>396.0</ele>
        <time>2022-06-07T06:40:39Z</time>
      </trkpt>
      <trkpt lat="47.8931330" lon="8.2928280">
        <ele>396.0</ele>
        <time>2022-06-07T06:40:43Z</time>
      </trkpt>
      <trkpt lat="47.8931030" lon="8.2928410">
        <ele>395.8</ele>
        <time>2022-06-07T06:40:47Z</time>
      </trkpt>
      <trkpt lat="47.8930380" lon="8.2928760">
        <ele>395.4</ele>
        <time>2022-06-07T06:40:51Z</time>
      </trkpt>
      <trkpt lat="47.8929880" lon="8.2928560">
        <ele>394.8</ele>
        <time>2022-06-07T06:40:55Z</time>
      </trkpt>
      <trkpt lat="47.8929600" lon="8.2928310">
        <ele>393.6</ele>
        <time>2022-06-07T06:40:59Z</time>
      </trkpt>
      <trkpt lat="47.8928930" lon="8.2928450">
        <ele>393.4</ele>
        <time>2022-06-07T06:41:03Z</time>
      </trkpt>
      <trkpt lat="47.8928930" lon="8.2928450">
        <ele>393.4</ele>
        <time>2022-06-07T06:41:07Z</time>
      </trkpt>
      <trkpt lat="47.8928930" lon="8.2928450">
        <ele>393.2</ele>
        <time>2022-06-07T06:41:11Z</time>
      </trkpt>
      <trkpt lat="47.8928930" lon="8.2928450">
        <ele>393.2</ele>
        <time>2022-06-07T06:41:15Z</time>
      </trkpt>
      <trkpt lat="47.8928480" lon="8.2929000">
        <ele>393.2</ele>
        <time>2022-06-07T06:41:19Z</time>
      </trkpt>
      <trkpt lat="47.8928360" lon="8.2929660">
        <ele>393.2</ele>
        <time>2022-06-07T06:41:23Z</time>
      </trkpt>
      <trkpt lat="47.8928250" lon="8.2930700">
        <ele>392.8</ele>
        <time>2022-06-07T06:41:27Z</time>
      </trkpt>
      <trkpt lat="47.8928230" lon="8.2932060">
        <ele>392.6</ele>
        <time>2022-06-07T06:41:31Z</time>
      </trkpt>
      <trkpt lat="47.8928300" lon="8.2933430">
        <ele>392.0</ele>
        <time>2022-06-07T06:41:35Z</time>
      </trkpt>
      <trkpt lat="47.8927930" lon="8.2934800">
        <ele>392.2</ele>
        <time>2022-06-07T06:41:39Z</time>
      </trkpt>
      <trkpt lat="47.8927530" lon="8.2936360">
        <ele>392.0</ele>
        <time>2022-06-07T06:41:43Z</time>
      </trkpt>
      <trkpt lat="47.8927160" lon="8.2938110">
        <ele>391.8</ele>
        <time>2022-06-07T06:41:47Z</time>
      </trkpt>
      <trkpt lat="47.8926700" lon="8.2939900">
        <ele>391.8</ele>
        <time>2022-06-07T06:41:51Z</time>
      </trkpt>
      <trkpt lat="47.8926000" lon="8.2941450">
        <ele>392.0</ele>
        <time>2022-06-07T06:41:55Z</time>
      </trkpt>
      <trkpt lat="47.8925330" lon="8.2942660">
        <ele>392.4</ele>
        <time>2022-06-07T06:41:59Z</time>
      </trkpt>
      <trkpt lat="47.8924810" lon="8.2943510">
        <ele>392.8</ele>
        <time>2022-06-07T06:42:03Z</time>
      </trkpt>
      <trkpt lat="47.8924810" lon="8.2943510">
        <ele>392.8</ele>
        <time>2022-06-07T06:42:07Z</time>
      </trkpt>
      <trkpt lat="47.8924810" lon="8.2943510">
        <ele>393.0</ele>
        <time>2022-06-07T06:42:11Z</time>
      </trkpt>
      <trkpt lat="47.8924810" lon="8.2943510">
        <ele>392.4</ele>
        <time>2022-06-07T06:42:15Z</time>
      </trkpt>
      <trkpt lat="47.8924810" lon="8.2943510">
        <ele>392.6</ele>
        <time>2022-06-07T06:42:19Z</time>
      </trkpt>
      <trkpt lat="47.8924500" lon="8.2943980">
        <ele>392.4</ele>
        <time>2022-06-07T06:42:23Z</time>
      </trkpt>
      <trkpt lat="47.8924500" lon="8.2943980">
        <ele>392.2</ele>
        <time>2022-06-07T06:42:27Z</time>
      </trkpt>
      <trkpt lat="47.8924500" lon="8.2943980">
        <ele>393.0</ele>
        <time>2022-06-07T06:42:31Z</time>
      </trkpt>
      <trkpt lat="47.8924500" lon="8.2943980">
        <ele>392.8</ele>
        <time>2022-06-07T06:42:35Z</time>
      </trkpt>
      <trkpt lat="47.8924500" lon="8.2943980">
        <ele>392.6</ele>
        <time>2022-06-07T06:42:39Z</time>
      </trkpt>
      <trkpt lat="47.8924500" lon="8.2943980">
        <ele>392.6</ele>
        <time>2022-06-07T06:42:43Z</time>
      </trkpt>
      <trkpt lat="47.8924500" lon="8.2943980">
        <ele>392.6</ele>
        <time>2022-06-07T06:42:47Z</time>
      </trkpt>
      <trkpt lat="47.8924500" lon="8.2943980">
        <ele>392.6</ele>
        <time>2022-06-07T06:42:51Z</time>
      </trkpt>
      <trkpt lat="47.8924500" lon="8.2943980">
        <ele>392.6</ele>
        <time>2022-06-07T06:42:55Z</time>
      </trkpt>
      <trkpt lat="47.8924030" lon="8.2944600">
        <ele>392.2</ele>
        <time>2022-06-07T06:42:59Z</time>
      </trkpt>
      <trkpt lat="47.8923950" lon="8.2945080">
        <ele>392.4</ele>
        <time>2022-06-07T06:43:03Z</time>
      </trkpt>
      <trkpt lat="47.8923950" lon="8.2945080">
        <ele>392.6</ele>
        <time>2022-06-07T06:43:07Z</time>
      </trkpt>
      <trkpt lat="47.8923950" lon="8.2945080">
        <ele>393.0</ele>
        <time>2022-06-07T06:43:11Z</time>
      </trkpt>
      <trkpt lat="47.8923950" lon="8.2945080">
        <ele>392.8</ele>
        <time>2022-06-07T06:43:15Z</time>
      </trkpt>
      <trkpt lat="47.8924010" lon="8.2945530">
        <ele>393.0</ele>
        <time>2022-06-07T06:43:19Z</time>
      </trkpt>
      <trkpt lat="47.8924010" lon="8.2945910">
        <ele>393.0</ele>
        <time>2022-06-07T06:43:23Z</time>
      </trkpt>
      <trkpt lat="47.8924010" lon="8.2945910">
        <ele>393.0</ele>
        <time>2022-06-07T06:43:27Z</time>
      </trkpt>
      <trkpt lat="47.8924010" lon="8.2945910">
        <ele>393.4</ele>
        <time>2022-06-07T06:43:31Z</time>
      </trkpt>
      <trkpt lat="47.8924000" lon="8.2946030">
        <ele>393.2</ele>
        <time>2022-06-07T06:43:35Z</time>
      </trkpt>
      <trkpt lat="47.8923910" lon="8.2946260">
        <ele>393.2</ele>
        <time>2022-06-07T06:43:39Z</time>
      </trkpt>
      <trkpt lat="47.8923910" lon="8.2946260">
        <ele>393.2</ele>
        <time>2022-06-07T06:43:43Z</time>
      </trkpt>
      <trkpt lat="47.8923910" lon="8.2946260">
        <ele>394.0</ele>
        <time>2022-06-07T06:43:47Z</time>
      </trkpt>
      <trkpt lat="47.8923910" lon="8.2946260">
        <ele>393.4</ele>
        <time>2022-06-07T06:43:51Z</time>
      </trkpt>
      <trkpt lat="47.8923910" lon="8.2946260">
        <ele>393.4</ele>
        <time>2022-06-07T06:43:55Z</time>
      </trkpt>
      <trkpt lat="47.8923910" lon="8.2946260">
        <ele>393.4</ele>
        <time>2022-06-07T06:43:59Z</time>
      </trkpt>
      <trkpt lat="47.8923910" lon="8.2946260">
        <ele>393.0</ele>
        <time>2022-06-07T06:44:03Z</time>
      </trkpt>
      <trkpt lat="47.8923910" lon="8.2946260">
        <ele>393.4</ele>
        <time>2022-06-07T06:44:07Z</time>
      </trkpt>
      <trkpt lat="47.8923800" lon="8.2946260">
        <ele>393.6</ele>
        <time>2022-06-07T06:44:11Z</time>
      </trkpt>
      <trkpt lat="47.8923800" lon="8.2946260">
        <ele>393.0</ele>
        <time>2022-06-07T06:44:15Z</time>
      </trkpt>
      <trkpt lat="47.8923800" lon="8.2946260">
        <ele>393.0</ele>
        <time>2022-06-07T06:44:19Z</time>
      </trkpt>
      <trkpt lat="47.8923800" lon="8.2946260">
        <ele>393.2</ele>
        <time>2022-06-07T06:44:23Z</time>
      </trkpt>
      <trkpt lat="47.8923800" lon="8.2946260">
        <ele>393.2</ele>
        <time>2022-06-07T06:44:27Z</time>
      </trkpt>
      <trkpt lat="47.8923800" lon="8.2946260">
        <ele>393.4</ele>
        <time>2022-06-07T06:44:31Z</time>
      </trkpt>
      <trkpt lat="47.8923800" lon="8.2946260">
        <ele>393.6</ele>
        <time>2022-06-07T06:44:35Z</time>
      </trkpt>
      <trkpt lat="47.8923800" lon="8.2946260">
        <ele>393.4</ele>
        <time>2022-06-07T06:44:39Z</time>
      </trkpt>
      <trkpt lat="47.8923800" lon="8.2946260">
        <ele>393.2</ele>
        <time>2022-06-07T06:44:43Z</time>
      </trkpt>
      <trkpt lat="47.8923800" lon="8.2946260">
        <ele>393.4</ele>
        <time>2022-06-07T06:44:47Z</time>
      </trkpt>
      <trkpt lat="47.8923800" lon="8.2946260">
        <ele>393.2</ele>
        <time>2022-06-07T06:44:51Z</time>
      </trkpt>
      <trkpt lat="47.8923800" lon="8.2946260">
        <ele>393.6</ele>
        <time>2022-06-07T06:44:55Z</time>
      </trkpt>
      <trkpt lat="47.8923800" lon="8.2946260">
        <ele>393.4</ele>
        <time>2022-06-07T06:44:59Z</time>
      </trkpt>
      <trkpt lat="47.8923480" lon="8.2946810">
        <ele>393.0</ele>
        <time>2022-06-07T06:45:03Z</time>
      </trkpt>
      <trkpt lat="47.8923210" lon="8.2947600">
        <ele>393.2</ele>
        <time>2022-06-07T06:45:07Z</time>
      </trkpt>
      <trkpt lat="47.8922710" lon="8.2948750">
        <ele>393.2</ele>
        <time>2022-06-07T06:45:11Z</time>
      </trkpt>
      <trkpt lat="47.8922260" lon="8.2950330">
        <ele>393.0</ele>
        <time>2022-06-07T06:45:15Z</time>
      </trkpt>
      <trkpt lat="47.8921700" lon="8.2952000">
        <ele>392.8</ele>
        <time>2022-06-07T06:45:19Z</time>
      </trkpt>
      <trkpt lat="47.8921050" lon="8.2953480">
        <ele>393.4</ele>
        <time>2022-06-07T06:45:23Z</time>
      </trkpt>
      <trkpt lat="47.8920380" lon="8.2954860">
        <ele>393.2</ele>
        <time>2022-06-07T06:45:27Z</time>
      </trkpt>
      <trkpt lat="47.8919530" lon="8.2956060">
        <ele>393.6</ele>
        <time>2022-06-07T06:45:31Z</time>
      </trkpt>
      <trkpt lat="47.8918750" lon="8.2957080">
        <ele>394.2</ele>
        <time>2022-06-07T06:45:35Z</time>
      </trkpt>
      <trkpt lat="47.8918130" lon="8.2958010">
        <ele>394.8</ele>
        <time>2022-06-07T06:45:39Z</time>
      </trkpt>
      <trkpt lat="47.8917660" lon="8.2958780">
        <ele>396.2</ele>
        <time>2022-06-07T06:45:43Z</time>
      </trkpt>
      <trkpt lat="47.8917330" lon="8.2959560">
        <ele>397.0</ele>
        <time>2022-06-07T06:45:47Z</time>
      </trkpt>
      <trkpt lat="47.8917050" lon="8.2960360">
        <ele>397.2</ele>
        <time>2022-06-07T06:45:51Z</time>
      </trkpt>
      <trkpt lat="47.8916700" lon="8.2961280">
        <ele>398.0</ele>
        <time>2022-06-07T06:45:55Z</time>
      </trkpt>
      <trkpt lat="47.8916230" lon="8.2961760">
        <ele>398.6</ele>
        <time>2022-06-07T06:45:59Z</time>
      </trkpt>
      <trkpt lat="47.8915910" lon="8.2962410">
        <ele>399.6</ele>
        <time>2022-06-07T06:46:03Z</time>
      </trkpt>
      <trkpt lat="47.8915650" lon="8.2963100">
        <ele>400.6</ele>
        <time>2022-06-07T06:46:07Z</time>
      </trkpt>
      <trkpt lat="47.8915210" lon="8.2963730">
        <ele>401.0</ele>
        <time>2022-06-07T06:46:11Z</time>
      </trkpt>
      <trkpt lat="47.8914850" lon="8.2964280">
        <ele>402.0</ele>
        <time>2022-06-07T06:46:15Z</time>
      </trkpt>
      <trkpt lat="47.8914560" lon="8.2964930">
        <ele>403.0</ele>
        <time>2022-06-07T06:46:19Z</time>
      </trkpt>
      <trkpt lat="47.8914150" lon="8.2965560">
        <ele>403.6</ele>
        <time>2022-06-07T06:46:23Z</time>
      </trkpt>
      <trkpt lat="47.8913850" lon="8.2966250">
        <ele>404.2</ele>
        <time>2022-06-07T06:46:27Z</time>
      </trkpt>
      <trkpt lat="47.8913450" lon="8.2966810">
        <ele>404.8</ele>
        <time>2022-06-07T06:46:31Z</time>
      </trkpt>
      <trkpt lat="47.8913200" lon="8.2967410">
        <ele>405.4</ele>
        <time>2022-06-07T06:46:35Z</time>
      </trkpt>
      <trkpt lat="47.8912960" lon="8.2968050">
        <ele>406.0</ele>
        <time>2022-06-07T06:46:39Z</time>
      </trkpt>
      <trkpt lat="47.8912630" lon="8.2968600">
        <ele>406.8</ele>
        <time>2022-06-07T06:46:43Z</time>
      </trkpt>
      <trkpt lat="47.8912310" lon="8.2969210">
        <ele>406.8</ele>
        <time>2022-06-07T06:46:47Z</time>
      </trkpt>
      <trkpt lat="47.8912030" lon="8.2969900">
        <ele>407.6</ele>
        <time>2022-06-07T06:46:51Z</time>
      </trkpt>
      <trkpt lat="47.8911800" lon="8.2970500">
        <ele>408.2</ele>
        <time>2022-06-07T06:46:55Z</time>
      </trkpt>
      <trkpt lat="47.8911460" lon="8.2971110">
        <ele>408.8</ele>
        <time>2022-06-07T06:46:59Z</time>
      </trkpt>
      <trkpt lat="47.8911250" lon="8.2971810">
        <ele>409.4</ele>
        <time>2022-06-07T06:47:03Z</time>
      </trkpt>
      <trkpt lat="47.8911030" lon="8.2972480">
        <ele>409.8</ele>
        <time>2022-06-07T06:47:07Z</time>
      </trkpt>
      <trkpt lat="47.8910850" lon="8.2973210">
        <ele>410.2</ele>
        <time>2022-06-07T06:47:11Z</time>
      </trkpt>
      <trkpt lat="47.8910700" lon="8.2974010">
        <ele>410.8</ele>
        <time>2022-06-07T06:47:15Z</time>
      </trkpt>
      <trkpt lat="47.8910360" lon="8.2974760">
        <ele>411.2</ele>
        <time>2022-06-07T06:47:19Z</time>
      </trkpt>
      <trkpt lat="47.8910110" lon="8.2975500">
        <ele>411.6</ele>
        <time>2022-06-07T06:47:23Z</time>
      </trkpt>
      <trkpt lat="47.8909900" lon="8.2976250">
        <ele>411.8</ele>
        <time>2022-06-07T06:47:27Z</time>
      </trkpt>
      <trkpt lat="47.8909610" lon="8.2977050">
        <ele>412.4</ele>
        <time>2022-06-07T06:47:31Z</time>
      </trkpt>
      <trkpt lat="47.8909330" lon="8.2977860">
        <ele>412.8</ele>
        <time>2022-06-07T06:47:35Z</time>
      </trkpt>
      <trkpt lat="47.8909050" lon="8.2978710">
        <ele>413.2</ele>
        <time>2022-06-07T06:47:39Z</time>
      </trkpt>
      <trkpt lat="47.8908710" lon="8.2979530">
        <ele>413.6</ele>
        <time>2022-06-07T06:47:43Z</time>
      </trkpt>
      <trkpt lat="47.8908400" lon="8.2980450">
        <ele>413.6</ele>
        <time>2022-06-07T06:47:47Z</time>
      </trkpt>
      <trkpt lat="47.8908100" lon="8.2981480">
        <ele>414.0</ele>
        <time>2022-06-07T06:47:51Z</time>
      </trkpt>
      <trkpt lat="47.8907760" lon="8.2982510">
        <ele>414.4</ele>
        <time>2022-06-07T06:47:55Z</time>
      </trkpt>
      <trkpt lat="47.8907400" lon="8.2983610">
        <ele>414.6</ele>
        <time>2022-06-07T06:47:59Z</time>
      </trkpt>
      <trkpt lat="47.8907050" lon="8.2984760">
        <ele>414.6</ele>
        <time>2022-06-07T06:48:03Z</time>
      </trkpt>
      <trkpt lat="47.8906750" lon="8.2985880">
        <ele>414.8</ele>
        <time>2022-06-07T06:48:07Z</time>
      </trkpt>
      <trkpt lat="47.8906450" lon="8.2987080">
        <ele>415.2</ele>
        <time>2022-06-07T06:48:11Z</time>
      </trkpt>
      <trkpt lat="47.8906210" lon="8.2988430">
        <ele>415.6</ele>
        <time>2022-06-07T06:48:15Z</time>
      </trkpt>
      <trkpt lat="47.8905980" lon="8.2989810">
        <ele>415.8</ele>
        <time>2022-06-07T06:48:19Z</time>
      </trkpt>
      <trkpt lat="47.8905650" lon="8.2991160">
        <ele>416.4</ele>
        <time>2022-06-07T06:48:23Z</time>
      </trkpt>
      <trkpt lat="47.8905350" lon="8.2992550">
        <ele>416.0</ele>
        <time>2022-06-07T06:48:27Z</time>
      </trkpt>
      <trkpt lat="47.8905060" lon="8.2993950">
        <ele>416.0</ele>
        <time>2022-06-07T06:48:31Z</time>
      </trkpt>
      <trkpt lat="47.8904800" lon="8.2995380">
        <ele>416.6</ele>
        <time>2022-06-07T06:48:35Z</time>
      </trkpt>
      <trkpt lat="47.8904610" lon="8.2996750">
        <ele>417.8</ele>
        <time>2022-06-07T06:48:39Z</time>
      </trkpt>
      <trkpt lat="47.8904450" lon="8.2998210">
        <ele>417.8</ele>
        <time>2022-06-07T06:48:43Z</time>
      </trkpt>
      <trkpt lat="47.8904450" lon="8.2999550">
        <ele>418.4</ele>
        <time>2022-06-07T06:48:47Z</time>
      </trkpt>
      <trkpt lat="47.8904330" lon="8.3000710">
        <ele>418.8</ele>
        <time>2022-06-07T06:48:51Z</time>
      </trkpt>
      <trkpt lat="47.8904350" lon="8.3001780">
        <ele>419.2</ele>
        <time>2022-06-07T06:48:55Z</time>
      </trkpt>
      <trkpt lat="47.8904300" lon="8.3003400">
        <ele>419.6</ele>
        <time>2022-06-07T06:48:59Z</time>
      </trkpt>
      <trkpt lat="47.8904160" lon="8.3004850">
        <ele>420.0</ele>
        <time>2022-06-07T06:49:03Z</time>
      </trkpt>
      <trkpt lat="47.8903550" lon="8.3006030">
        <ele>420.4</ele>
        <time>2022-06-07T06:49:07Z</time>
      </trkpt>
      <trkpt lat="47.8902760" lon="8.3006710">
        <ele>420.6</ele>
        <time>2022-06-07T06:49:11Z</time>
      </trkpt>
      <trkpt lat="47.8901950" lon="8.3007300">
        <ele>420.8</ele>
        <time>2022-06-07T06:49:15Z</time>
      </trkpt>
      <trkpt lat="47.8901450" lon="8.3007310">
        <ele>420.8</ele>
        <time>2022-06-07T06:49:19Z</time>
      </trkpt>
      <trkpt lat="47.8901450" lon="8.3007310">
        <ele>420.8</ele>
        <time>2022-06-07T06:49:23Z</time>
      </trkpt>
      <trkpt lat="47.8901450" lon="8.3007310">
        <ele>420.6</ele>
        <time>2022-06-07T06:49:27Z</time>
      </trkpt>
      <trkpt lat="47.8901450" lon="8.3007310">
        <ele>421.0</ele>
        <time>2022-06-07T06:49:31Z</time>
      </trkpt>
      <trkpt lat="47.8901450" lon="8.3007310">
        <ele>420.6</ele>
        <time>2022-06-07T06:49:35Z</time>
      </trkpt>
      <trkpt lat="47.8901450" lon="8.3007310">
        <ele>420.8</ele>
        <time>2022-06-07T06:49:39Z</time>
      </trkpt>
      <trkpt lat="47.8901450" lon="8.3007310">
        <ele>420.6</ele>
        <time>2022-06-07T06:49:43Z</time>
      </trkpt>
      <trkpt lat="47.8901450" lon="8.3007310">
        <ele>420.6</ele>
        <time>2022-06-07T06:49:47Z</time>
      </trkpt>
      <trkpt lat="47.8901450" lon="8.3007310">
        <ele>420.4</ele>
        <time>2022-06-07T06:49:51Z</time>
      </trkpt>
      <trkpt lat="47.8901450" lon="8.3007310">
        <ele>420.6</ele>
        <time>2022-06-07T06:49:55Z</time>
      </trkpt>
      <trkpt lat="47.8901450" lon="8.3007310">
        <ele>420.4</ele>
        <time>2022-06-07T06:49:59Z</time>
      </trkpt>
      <trkpt lat="47.8901450" lon="8.3007310">
        <ele>420.2</ele>
        <time>2022-06-07T06:50:03Z</time>
      </trkpt>
      <trkpt lat="47.8901450" lon="8.3007310">
        <ele>420.2</ele>
        <time>2022-06-07T06:50:07Z</time>
      </trkpt>
      <trkpt lat="47.8901450" lon="8.3007310">
        <ele>420.4</ele>
        <time>2022-06-07T06:50:11Z</time>
      </trkpt>
      <trkpt lat="47.8901450" lon="8.3007310">
        <ele>420.4</ele>
        <time>2022-06-07T06:50:15Z</time>
      </trkpt>
      <trkpt lat="47.8901450" lon="8.3007310">
        <ele>420.2</ele>
        <time>2022-06-07T06:50:19Z</time>
      </trkpt>
      <trkpt lat="47.8901450" lon="8.3007310">
        <ele>420.0</ele>
        <time>2022-06-07T06:50:23Z</time>
      </trkpt>
      <trkpt lat="47.8901450" lon="8.3007310">
        <ele>419.8</ele>
        <time>2022-06-07T06:50:27Z</time>
      </trkpt>
      <trkpt lat="47.8901450" lon="8.3007310">
        <ele>420.0</ele>
        <time>2022-06-07T06:50:31Z</time>
      </trkpt>
      <trkpt lat="47.8901450" lon="8.3007310">
        <ele>420.0</ele>
        <time>2022-06-07T06:50:35Z</time>
      </trkpt>
      <trkpt lat="47.8901300" lon="8.3007530">
        <ele>420.4</ele>
        <time>2022-06-07T06:50:39Z</time>
      </trkpt>
      <trkpt lat="47.8900900" lon="8.3008300">
        <ele>420.2</ele>
        <time>2022-06-07T06:50:43Z</time>
      </trkpt>
      <trkpt lat="47.8900100" lon="8.3009210">
        <ele>420.2</ele>
        <time>2022-06-07T06:50:47Z</time>
      </trkpt>
      <trkpt lat="47.8899200" lon="8.3010130">
        <ele>421.2</ele>
        <time>2022-06-07T06:50:51Z</time>
      </trkpt>
      <trkpt lat="47.8898400" lon="8.3011230">
        <ele>421.4</ele>
        <time>2022-06-07T06:50:55Z</time>
      </trkpt>
      <trkpt lat="47.8897530" lon="8.3012480">
        <ele>421.0</ele>
        <time>2022-06-07T06:50:59Z</time>
      </trkpt>
      <trkpt lat="47.8896630" lon="8.3013830">
        <ele>421.2</ele>
        <time>2022-06-07T06:51:03Z</time>
      </trkpt>
      <trkpt lat="47.8895750" lon="8.3015100">
        <ele>421.6</ele>
        <time>2022-06-07T06:51:07Z</time>
      </trkpt>
      <trkpt lat="47.8894930" lon="8.3016210">
        <ele>422.0</ele>
        <time>2022-06-07T06:51:11Z</time>
      </trkpt>
      <trkpt lat="47.8894250" lon="8.3017380">
        <ele>421.8</ele>
        <time>2022-06-07T06:51:15Z</time>
      </trkpt>
      <trkpt lat="47.8893380" lon="8.3018450">
        <ele>421.6</ele>
        <time>2022-06-07T06:51:19Z</time>
      </trkpt>
      <trkpt lat="47.8892580" lon="8.3019680">
        <ele>422.2</ele>
        <time>2022-06-07T06:51:23Z</time>
      </trkpt>
      <trkpt lat="47.8892100" lon="8.3021200">
        <ele>421.8</ele>
        <time>2022-06-07T06:51:27Z</time>
      </trkpt>
      <trkpt lat="47.8891710" lon="8.3022710">
        <ele>422.6</ele>
        <time>2022-06-07T06:51:31Z</time>
      </trkpt>
      <trkpt lat="47.8891330" lon="8.3024130">
        <ele>423.2</ele>
        <time>2022-06-07T06:51:35Z</time>
      </trkpt>
      <trkpt lat="47.8891030" lon="8.3025530">
        <ele>423.4</ele>
        <time>2022-06-07T06:51:39Z</time>
      </trkpt>
      <trkpt lat="47.8890780" lon="8.3026900">
        <ele>424.2</ele>
        <time>2022-06-07T06:51:43Z</time>
      </trkpt>
      <trkpt lat="47.8890460" lon="8.3028350">
        <ele>424.2</ele>
        <time>2022-06-07T06:51:47Z</time>
      </trkpt>
      <trkpt lat="47.8890180" lon="8.3029800">
        <ele>424.4</ele>
        <time>2022-06-07T06:51:51Z</time>
      </trkpt>
      <trkpt lat="47.8889910" lon="8.3031280">
        <ele>424.4</ele>
        <time>2022-06-07T06:51:55Z</time>
      </trkpt>
      <trkpt lat="47.8889530" lon="8.3032910">
        <ele>424.2</ele>
        <time>2022-06-07T06:51:59Z</time>
      </trkpt>
      <trkpt lat="47.8888910" lon="8.3034780">
        <ele>424.2</ele>
        <time>2022-06-07T06:52:03Z</time>
      </trkpt>
      <trkpt lat="47.8888300" lon="8.3036810">
        <ele>423.8</ele>
        <time>2022-06-07T06:52:07Z</time>
      </trkpt>
      <trkpt lat="47.8887610" lon="8.3039060">
        <ele>423.6</ele>
        <time>2022-06-07T06:52:11Z</time>
      </trkpt>
      <trkpt lat="47.8886860" lon="8.3041460">
        <ele>423.0</ele>
        <time>2022-06-07T06:52:15Z</time>
      </trkpt>
      <trkpt lat="47.8886050" lon="8.3043860">
        <ele>422.8</ele>
        <time>2022-06-07T06:52:19Z</time>
      </trkpt>
      <trkpt lat="47.8885160" lon="8.3046410">
        <ele>421.2</ele>
        <time>2022-06-07T06:52:23Z</time>
      </trkpt>
      <trkpt lat="47.8884150" lon="8.3049130">
        <ele>421.0</ele>
        <time>2022-06-07T06:52:27Z</time>
      </trkpt>
      <trkpt lat="47.8883060" lon="8.3052180">
        <ele>420.4</ele>
        <time>2022-06-07T06:52:31Z</time>
      </trkpt>
      <trkpt lat="47.8881900" lon="8.3055480">
        <ele>419.6</ele>
        <time>2022-06-07T06:52:35Z</time>
      </trkpt>
      <trkpt lat="47.8880630" lon="8.3059030">
        <ele>418.0</ele>
        <time>2022-06-07T06:52:39Z</time>
      </trkpt>
      <trkpt lat="47.8879210" lon="8.3063110">
        <ele>416.2</ele>
        <time>2022-06-07T06:52:43Z</time>
      </trkpt>
      <trkpt lat="47.8877950" lon="8.3067650">
        <ele>413.0</ele>
        <time>2022-06-07T06:52:47Z</time>
      </trkpt>
      <trkpt lat="47.8877250" lon="8.3072600">
        <ele>413.6</ele>
        <time>2022-06-07T06:52:51Z</time>
      </trkpt>
      <trkpt lat="47.8876630" lon="8.3077630">
        <ele>412.4</ele>
        <time>2022-06-07T06:52:55Z</time>
      </trkpt>
      <trkpt lat="47.8876010" lon="8.3082700">
        <ele>409.0</ele>
        <time>2022-06-07T06:52:59Z</time>
      </trkpt>
      <trkpt lat="47.8875350" lon="8.3087810">
        <ele>409.8</ele>
        <time>2022-06-07T06:53:03Z</time>
      </trkpt>
      <trkpt lat="47.8874730" lon="8.3092960">
        <ele>409.0</ele>
        <time>2022-06-07T06:53:07Z</time>
      </trkpt>
      <trkpt lat="47.8874110" lon="8.3098010">
        <ele>408.8</ele>
        <time>2022-06-07T06:53:11Z</time>
      </trkpt>
      <trkpt lat="47.8873080" lon="8.3102880">
        <ele>406.8</ele>
        <time>2022-06-07T06:53:15Z</time>
      </trkpt>
      <trkpt lat="47.8871880" lon="8.3107780">
        <ele>406.2</ele>
        <time>2022-06-07T06:53:19Z</time>
      </trkpt>
      <trkpt lat="47.8870800" lon="8.3112730">
        <ele>405.2</ele>
        <time>2022-06-07T06:53:23Z</time>
      </trkpt>
      <trkpt lat="47.8869460" lon="8.3117430">
        <ele>404.2</ele>
        <time>2022-06-07T06:53:27Z</time>
      </trkpt>
      <trkpt lat="47.8868010" lon="8.3121850">
        <ele>403.6</ele>
        <time>2022-06-07T06:53:31Z</time>
      </trkpt>
      <trkpt lat="47.8866680" lon="8.3125950">
        <ele>402.4</ele>
        <time>2022-06-07T06:53:35Z</time>
      </trkpt>
      <trkpt lat="47.8865580" lon="8.3129650">
        <ele>403.2</ele>
        <time>2022-06-07T06:53:39Z</time>
      </trkpt>
      <trkpt lat="47.8864900" lon="8.3133180">
        <ele>404.2</ele>
        <time>2022-06-07T06:53:43Z</time>
      </trkpt>
      <trkpt lat="47.8864830" lon="8.3136660">
        <ele>404.0</ele>
        <time>2022-06-07T06:53:47Z</time>
      </trkpt>
      <trkpt lat="47.8865210" lon="8.3139980">
        <ele>404.4</ele>
        <time>2022-06-07T06:53:51Z</time>
      </trkpt>
      <trkpt lat="47.8865460" lon="8.3143030">
        <ele>404.6</ele>
        <time>2022-06-07T06:53:55Z</time>
      </trkpt>
      <trkpt lat="47.8865700" lon="8.3146150">
        <ele>404.2</ele>
        <time>2022-06-07T06:53:59Z</time>
      </trkpt>
      <trkpt lat="47.8865830" lon="8.3149200">
        <ele>404.8</ele>
        <time>2022-06-07T06:54:03Z</time>
      </trkpt>
      <trkpt lat="47.8865860" lon="8.3152250">
        <ele>405.0</ele>
        <time>2022-06-07T06:54:07Z</time>
      </trkpt>
      <trkpt lat="47.8865930" lon="8.3155180">
        <ele>404.8</ele>
        <time>2022-06-07T06:54:11Z</time>
      </trkpt>
      <trkpt lat="47.8865910" lon="8.3157960">
        <ele>405.4</ele>
        <time>2022-06-07T06:54:15Z</time>
      </trkpt>
      <trkpt lat="47.8865960" lon="8.3160700">
        <ele>405.6</ele>
        <time>2022-06-07T06:54:19Z</time>
      </trkpt>
      <trkpt lat="47.8865960" lon="8.3163460">
        <ele>405.8</ele>
        <time>2022-06-07T06:54:23Z</time>
      </trkpt>
      <trkpt lat="47.8865930" lon="8.3166210">
        <ele>406.0</ele>
        <time>2022-06-07T06:54:27Z</time>
      </trkpt>
      <trkpt lat="47.8865730" lon="8.3168880">
        <ele>406.2</ele>
        <time>2022-06-07T06:54:31Z</time>
      </trkpt>
      <trkpt lat="47.8865460" lon="8.3171410">
        <ele>406.6</ele>
        <time>2022-06-07T06:54:35Z</time>
      </trkpt>
      <trkpt lat="47.8865210" lon="8.3174000">
        <ele>406.6</ele>
        <time>2022-06-07T06:54:39Z</time>
      </trkpt>
      <trkpt lat="47.8865050" lon="8.3176660">
        <ele>406.8</ele>
        <time>2022-06-07T06:54:43Z</time>
      </trkpt>
      <trkpt lat="47.8864910" lon="8.3179400">
        <ele>406.2</ele>
        <time>2022-06-07T06:54:47Z</time>
      </trkpt>
      <trkpt lat="47.8864700" lon="8.3182180">
        <ele>406.2</ele>
        <time>2022-06-07T06:54:51Z</time>
      </trkpt>
      <trkpt lat="47.8864450" lon="8.3184930">
        <ele>406.0</ele>
        <time>2022-06-07T06:54:55Z</time>
      </trkpt>
      <trkpt lat="47.8864030" lon="8.3187610">
        <ele>406.2</ele>
        <time>2022-06-07T06:54:59Z</time>
      </trkpt>
      <trkpt lat="47.8863630" lon="8.3190310">
        <ele>405.8</ele>
        <time>2022-06-07T06:55:03Z</time>
      </trkpt>
      <trkpt lat="47.8863280" lon="8.3193000">
        <ele>405.8</ele>
        <time>2022-06-07T06:55:07Z</time>
      </trkpt>
      <trkpt lat="47.8863200" lon="8.3195680">
        <ele>406.4</ele>
        <time>2022-06-07T06:55:11Z</time>
      </trkpt>
      <trkpt lat="47.8863230" lon="8.3198260">
        <ele>407.0</ele>
        <time>2022-06-07T06:55:15Z</time>
      </trkpt>
      <trkpt lat="47.8863300" lon="8.3200830">
        <ele>407.0</ele>
        <time>2022-06-07T06:55:19Z</time>
      </trkpt>
      <trkpt lat="47.8863210" lon="8.3203480">
        <ele>407.0</ele>
        <time>2022-06-07T06:55:23Z</time>
      </trkpt>
      <trkpt lat="47.8862960" lon="8.3206130">
        <ele>407.2</ele>
        <time>2022-06-07T06:55:27Z</time>
      </trkpt>
      <trkpt lat="47.8862630" lon="8.3208700">
        <ele>407.4</ele>
        <time>2022-06-07T06:55:31Z</time>
      </trkpt>
      <trkpt lat="47.8862350" lon="8.3211210">
        <ele>408.0</ele>
        <time>2022-06-07T06:55:35Z</time>
      </trkpt>
      <trkpt lat="47.8862130" lon="8.3213650">
        <ele>407.4</ele>
        <time>2022-06-07T06:55:39Z</time>
      </trkpt>
      <trkpt lat="47.8862180" lon="8.3216100">
        <ele>408.0</ele>
        <time>2022-06-07T06:55:43Z</time>
      </trkpt>
      <trkpt lat="47.8862610" lon="8.3218610">
        <ele>407.8</ele>
        <time>2022-06-07T06:55:47Z</time>
      </trkpt>
      <trkpt lat="47.8863230" lon="8.3221300">
        <ele>407.4</ele>
        <time>2022-06-07T06:55:51Z</time>
      </trkpt>
      <trkpt lat="47.8864130" lon="8.3224130">
        <ele>406.6</ele>
        <time>2022-06-07T06:55:55Z</time>
      </trkpt>
      <trkpt lat="47.8865110" lon="8.3227060">
        <ele>404.8</ele>
        <time>2022-06-07T06:55:59Z</time>
      </trkpt>
      <trkpt lat="47.8866100" lon="8.3229810">
        <ele>404.8</ele>
        <time>2022-06-07T06:56:03Z</time>
      </trkpt>
      <trkpt lat="47.8866200" lon="8.3232200">
        <ele>404.2</ele>
        <time>2022-06-07T06:56:07Z</time>
      </trkpt>
      <trkpt lat="47.8864680" lon="8.3233450">
        <ele>404.4</ele>
        <time>2022-06-07T06:56:11Z</time>
      </trkpt>
      <trkpt lat="47.8863230" lon="8.3234750">
        <ele>405.0</ele>
        <time>2022-06-07T06:56:15Z</time>
      </trkpt>
      <trkpt lat="47.8862000" lon="8.3235950">
        <ele>405.6</ele>
        <time>2022-06-07T06:56:19Z</time>
      </trkpt>
      <trkpt lat="47.8860900" lon="8.3237000">
        <ele>406.0</ele>
        <time>2022-06-07T06:56:23Z</time>
      </trkpt>
      <trkpt lat="47.8859900" lon="8.3237950">
        <ele>407.8</ele>
        <time>2022-06-07T06:56:27Z</time>
      </trkpt>
      <trkpt lat="47.8859010" lon="8.3238860">
        <ele>408.0</ele>
        <time>2022-06-07T06:56:31Z</time>
      </trkpt>
      <trkpt lat="47.8858100" lon="8.3239710">
        <ele>408.8</ele>
        <time>2022-06-07T06:56:35Z</time>
      </trkpt>
      <trkpt lat="47.8857160" lon="8.3240630">
        <ele>409.6</ele>
        <time>2022-06-07T06:56:39Z</time>
      </trkpt>
      <trkpt lat="47.8856230" lon="8.3241550">
        <ele>410.2</ele>
        <time>2022-06-07T06:56:43Z</time>
      </trkpt>
      <trkpt lat="47.8855330" lon="8.3242360">
        <ele>411.2</ele>
        <time>2022-06-07T06:56:47Z</time>
      </trkpt>
      <trkpt lat="47.8854460" lon="8.3243180">
        <ele>412.0</ele>
        <time>2022-06-07T06:56:51Z</time>
      </trkpt>
      <trkpt lat="47.8853610" lon="8.3243980">
        <ele>412.8</ele>
        <time>2022-06-07T06:56:55Z</time>
      </trkpt>
      <trkpt lat="47.8852760" lon="8.3244760">
        <ele>413.6</ele>
        <time>2022-06-07T06:56:59Z</time>
      </trkpt>
      <trkpt lat="47.8851860" lon="8.3245500">
        <ele>413.8</ele>
        <time>2022-06-07T06:57:03Z</time>
      </trkpt>
      <trkpt lat="47.8851030" lon="8.3246310">
        <ele>414.2</ele>
        <time>2022-06-07T06:57:07Z</time>
      </trkpt>
      <trkpt lat="47.8850160" lon="8.3247060">
        <ele>415.0</ele>
        <time>2022-06-07T06:57:11Z</time>
      </trkpt>
      <trkpt lat="47.8849300" lon="8.3247960">
        <ele>415.8</ele>
        <time>2022-06-07T06:57:15Z</time>
      </trkpt>
      <trkpt lat="47.8848500" lon="8.3248960">
        <ele>416.4</ele>
        <time>2022-06-07T06:57:19Z</time>
      </trkpt>
      <trkpt lat="47.8848280" lon="8.3250510">
        <ele>416.8</ele>
        <time>2022-06-07T06:57:23Z</time>
      </trkpt>
      <trkpt lat="47.8848480" lon="8.3252280">
        <ele>416.6</ele>
        <time>2022-06-07T06:57:27Z</time>
      </trkpt>
      <trkpt lat="47.8848730" lon="8.3254060">
        <ele>417.0</ele>
        <time>2022-06-07T06:57:31Z</time>
      </trkpt>
      <trkpt lat="47.8848710" lon="8.3255680">
        <ele>417.4</ele>
        <time>2022-06-07T06:57:35Z</time>
      </trkpt>
      <trkpt lat="47.8848780" lon="8.3257160">
        <ele>417.4</ele>
        <time>2022-06-07T06:57:39Z</time>
      </trkpt>
      <trkpt lat="47.8849110" lon="8.3258960">
        <ele>417.4</ele>
        <time>2022-06-07T06:57:43Z</time>
      </trkpt>
      <trkpt lat="47.8849460" lon="8.3261000">
        <ele>416.6</ele>
        <time>2022-06-07T06:57:47Z</time>
      </trkpt>
      <trkpt lat="47.8849880" lon="8.3263150">
        <ele>416.6</ele>
        <time>2022-06-07T06:57:51Z</time>
      </trkpt>
      <trkpt lat="47.8850360" lon="8.3265510">
        <ele>416.8</ele>
        <time>2022-06-07T06:57:55Z</time>
      </trkpt>
      <trkpt lat="47.8850900" lon="8.3268060">
        <ele>415.8</ele>
        <time>2022-06-07T06:57:59Z</time>
      </trkpt>
      <trkpt lat="47.8851430" lon="8.3270660">
        <ele>415.2</ele>
        <time>2022-06-07T06:58:03Z</time>
      </trkpt>
      <trkpt lat="47.8851780" lon="8.3273510">
        <ele>415.0</ele>
        <time>2022-06-07T06:58:07Z</time>
      </trkpt>
      <trkpt lat="47.8851930" lon="8.3276530">
        <ele>415.0</ele>
        <time>2022-06-07T06:58:11Z</time>
      </trkpt>
      <trkpt lat="47.8852150" lon="8.3279550">
        <ele>414.2</ele>
        <time>2022-06-07T06:58:15Z</time>
      </trkpt>
      <trkpt lat="47.8852100" lon="8.3282700">
        <ele>413.6</ele>
        <time>2022-06-07T06:58:19Z</time>
      </trkpt>
      <trkpt lat="47.8851730" lon="8.3285880">
        <ele>413.2</ele>
        <time>2022-06-07T06:58:23Z</time>
      </trkpt>
      <trkpt lat="47.8851050" lon="8.3288810">
        <ele>413.2</ele>
        <time>2022-06-07T06:58:27Z</time>
      </trkpt>
      <trkpt lat="47.8850210" lon="8.3291450">
        <ele>413.4</ele>
        <time>2022-06-07T06:58:31Z</time>
      </trkpt>
      <trkpt lat="47.8849210" lon="8.3294030">
        <ele>413.0</ele>
        <time>2022-06-07T06:58:35Z</time>
      </trkpt>
      <trkpt lat="47.8848230" lon="8.3296760">
        <ele>412.0</ele>
        <time>2022-06-07T06:58:39Z</time>
      </trkpt>
      <trkpt lat="47.8847450" lon="8.3299580">
        <ele>412.2</ele>
        <time>2022-06-07T06:58:43Z</time>
      </trkpt>
      <trkpt lat="47.8846600" lon="8.3302430">
        <ele>411.6</ele>
        <time>2022-06-07T06:58:47Z</time>
      </trkpt>
      <trkpt lat="47.8845700" lon="8.3305400">
        <ele>410.8</ele>
        <time>2022-06-07T06:58:51Z</time>
      </trkpt>
      <trkpt lat="47.8845150" lon="8.3308030">
        <ele>409.6</ele>
        <time>2022-06-07T06:58:55Z</time>
      </trkpt>
      <trkpt lat="47.8844930" lon="8.3310360">
        <ele>408.8</ele>
        <time>2022-06-07T06:58:59Z</time>
      </trkpt>
      <trkpt lat="47.8845350" lon="8.3313210">
        <ele>407.2</ele>
        <time>2022-06-07T06:59:03Z</time>
      </trkpt>
      <trkpt lat="47.8845910" lon="8.3315850">
        <ele>405.0</ele>
        <time>2022-06-07T06:59:07Z</time>
      </trkpt>
      <trkpt lat="47.8846600" lon="8.3318950">
        <ele>403.6</ele>
        <time>2022-06-07T06:59:11Z</time>
      </trkpt>
      <trkpt lat="47.8847550" lon="8.3322650">
        <ele>401.2</ele>
        <time>2022-06-07T06:59:15Z</time>
      </trkpt>
      <trkpt lat="47.8848510" lon="8.3326630">
        <ele>399.8</ele>
        <time>2022-06-07T06:59:19Z</time>
      </trkpt>
      <trkpt lat="47.8849300" lon="8.3330260">
        <ele>399.4</ele>
        <time>2022-06-07T06:59:23Z</time>
      </trkpt>
      <trkpt lat="47.8849960" lon="8.3332550">
        <ele>399.6</ele>
        <time>2022-06-07T06:59:27Z</time>
      </trkpt>
      <trkpt lat="47.8850550" lon="8.3334260">
        <ele>399.2</ele>
        <time>2022-06-07T06:59:31Z</time>
      </trkpt>
      <trkpt lat="47.8851450" lon="8.3336430">
        <ele>398.6</ele>
        <time>2022-06-07T06:59:35Z</time>
      </trkpt>
      <trkpt lat="47.8852430" lon="8.3338850">
        <ele>397.2</ele>
        <time>2022-06-07T06:59:39Z</time>
      </trkpt>
      <trkpt lat="47.8853510" lon="8.3341350">
        <ele>397.0</ele>
        <time>2022-06-07T06:59:43Z</time>
      </trkpt>
      <trkpt lat="47.8854510" lon="8.3343900">
        <ele>396.8</ele>
        <time>2022-06-07T06:59:47Z</time>
      </trkpt>
      <trkpt lat="47.8855080" lon="8.3346760">
        <ele>396.0</ele>
        <time>2022-06-07T06:59:51Z</time>
      </trkpt>
      <trkpt lat="47.8854730" lon="8.3349730">
        <ele>396.0</ele>
        <time>2022-06-07T06:59:55Z</time>
      </trkpt>
      <trkpt lat="47.8853780" lon="8.3352510">
        <ele>395.6</ele>
        <time>2022-06-07T06:59:59Z</time>
      </trkpt>
      <trkpt lat="47.8852850" lon="8.3355500">
        <ele>394.0</ele>
        <time>2022-06-07T07:00:03Z</time>
      </trkpt>
      <trkpt lat="47.8852130" lon="8.3358660">
        <ele>393.4</ele>
        <time>2022-06-07T07:00:07Z</time>
      </trkpt>
      <trkpt lat="47.8851760" lon="8.3362110">
        <ele>391.6</ele>
        <time>2022-06-07T07:00:11Z</time>
      </trkpt>
      <trkpt lat="47.8851410" lon="8.3365830">
        <ele>390.4</ele>
        <time>2022-06-07T07:00:15Z</time>
      </trkpt>
      <trkpt lat="47.8851210" lon="8.3369180">
        <ele>389.0</ele>
        <time>2022-06-07T07:00:19Z</time>
      </trkpt>
      <trkpt lat="47.8851000" lon="8.3372630">
        <ele>387.4</ele>
        <time>2022-06-07T07:00:23Z</time>
      </trkpt>
      <trkpt lat="47.8850450" lon="8.3376230">
        <ele>386.0</ele>
        <time>2022-06-07T07:00:27Z</time>
      </trkpt>
      <trkpt lat="47.8850000" lon="8.3379510">
        <ele>385.6</ele>
        <time>2022-06-07T07:00:31Z</time>
      </trkpt>
      <trkpt lat="47.8849750" lon="8.3382480">
        <ele>385.4</ele>
        <time>2022-06-07T07:00:35Z</time>
      </trkpt>
      <trkpt lat="47.8850010" lon="8.3385580">
        <ele>384.0</ele>
        <time>2022-06-07T07:00:39Z</time>
      </trkpt>
      <trkpt lat="47.8850500" lon="8.3388600">
        <ele>383.6</ele>
        <time>2022-06-07T07:00:43Z</time>
      </trkpt>
      <trkpt lat="47.8850980" lon="8.3391580">
        <ele>383.0</ele>
        <time>2022-06-07T07:00:47Z</time>
      </trkpt>
      <trkpt lat="47.8851500" lon="8.3394630">
        <ele>383.0</ele>
        <time>2022-06-07T07:00:51Z</time>
      </trkpt>
      <trkpt lat="47.8852000" lon="8.3397510">
        <ele>381.4</ele>
        <time>2022-06-07T07:00:55Z</time>
      </trkpt>
      <trkpt lat="47.8852500" lon="8.3400010">
        <ele>380.2</ele>
        <time>2022-06-07T07:00:59Z</time>
      </trkpt>
      <trkpt lat="47.8852880" lon="8.3401900">
        <ele>379.4</ele>
        <time>2022-06-07T07:01:03Z</time>
      </trkpt>
      <trkpt lat="47.8853730" lon="8.3402000">
        <ele>379.2</ele>
        <time>2022-06-07T07:01:07Z</time>
      </trkpt>
      <trkpt lat="47.8855080" lon="8.3401330">
        <ele>378.6</ele>
        <time>2022-06-07T07:01:11Z</time>
      </trkpt>
      <trkpt lat="47.8856630" lon="8.3400560">
        <ele>378.0</ele>
        <time>2022-06-07T07:01:15Z</time>
      </trkpt>
      <trkpt lat="47.8858030" lon="8.3400560">
        <ele>378.2</ele>
        <time>2022-06-07T07:01:19Z</time>
      </trkpt>
      <trkpt lat="47.8859000" lon="8.3401880">
        <ele>377.8</ele>
        <time>2022-06-07T07:01:23Z</time>
      </trkpt>
      <trkpt lat="47.8859210" lon="8.3403830">
        <ele>378.2</ele>
        <time>2022-06-07T07:01:27Z</time>
      </trkpt>
      <trkpt lat="47.8858260" lon="8.3405430">
        <ele>377.8</ele>
        <time>2022-06-07T07:01:31Z</time>
      </trkpt>
      <trkpt lat="47.8856900" lon="8.3406430">
        <ele>377.6</ele>
        <time>2022-06-07T07:01:35Z</time>
      </trkpt>
      <trkpt lat="47.8855560" lon="8.3407380">
        <ele>377.8</ele>
        <time>2022-06-07T07:01:39Z</time>
      </trkpt>
      <trkpt lat="47.8854350" lon="8.3408800">
        <ele>377.2</ele>
        <time>2022-06-07T07:01:43Z</time>
      </trkpt>
      <trkpt lat="47.8853150" lon="8.3410900">
        <ele>376.2</ele>
        <time>2022-06-07T07:01:47Z</time>
      </trkpt>
      <trkpt lat="47.8852480" lon="8.3413160">
        <ele>375.0</ele>
        <time>2022-06-07T07:01:51Z</time>
      </trkpt>
      <trkpt lat="47.8852430" lon="8.3416130">
        <ele>373.8</ele>
        <time>2022-06-07T07:01:55Z</time>
      </trkpt>
      <trkpt lat="47.8852600" lon="8.3419450">
        <ele>372.6</ele>
        <time>2022-06-07T07:01:59Z</time>
      </trkpt>
      <trkpt lat="47.8852750" lon="8.3422860">
        <ele>371.8</ele>
        <time>2022-06-07T07:02:03Z</time>
      </trkpt>
      <trkpt lat="47.8853610" lon="8.3424850">
        <ele>372.4</ele>
        <time>2022-06-07T07:02:07Z</time>
      </trkpt>
      <trkpt lat="47.8855160" lon="8.3424710">
        <ele>372.4</ele>
        <time>2022-06-07T07:02:11Z</time>
      </trkpt>
      <trkpt lat="47.8856380" lon="8.3424300">
        <ele>374.2</ele>
        <time>2022-06-07T07:02:15Z</time>
      </trkpt>
      <trkpt lat="47.8857410" lon="8.3423760">
        <ele>375.0</ele>
        <time>2022-06-07T07:02:19Z</time>
      </trkpt>
      <trkpt lat="47.8858400" lon="8.3423300">
        <ele>375.2</ele>
        <time>2022-06-07T07:02:23Z</time>
      </trkpt>
      <trkpt lat="47.8859400" lon="8.3422530">
        <ele>375.6</ele>
        <time>2022-06-07T07:02:27Z</time>
      </trkpt>
      <trkpt lat="47.8860450" lon="8.3421710">
        <ele>376.2</ele>
        <time>2022-06-07T07:02:31Z</time>
      </trkpt>
      <trkpt lat="47.8861500" lon="8.3421000">
        <ele>377.2</ele>
        <time>2022-06-07T07:02:35Z</time>
      </trkpt>
      <trkpt lat="47.8862500" lon="8.3420430">
        <ele>377.2</ele>
        <time>2022-06-07T07:02:39Z</time>
      </trkpt>
      <trkpt lat="47.8863480" lon="8.3419810">
        <ele>377.4</ele>
        <time>2022-06-07T07:02:43Z</time>
      </trkpt>
      <trkpt lat="47.8864560" lon="8.3419110">
        <ele>378.0</ele>
        <time>2022-06-07T07:02:47Z</time>
      </trkpt>
      <trkpt lat="47.8865630" lon="8.3418430">
        <ele>378.2</ele>
        <time>2022-06-07T07:02:51Z</time>
      </trkpt>
      <trkpt lat="47.8866630" lon="8.3417780">
        <ele>379.0</ele>
        <time>2022-06-07T07:02:55Z</time>
      </trkpt>
      <trkpt lat="47.8867630" lon="8.3417110">
        <ele>379.0</ele>
        <time>2022-06-07T07:02:59Z</time>
      </trkpt>
      <trkpt lat="47.8868680" lon="8.3416510">
        <ele>379.4</ele>
        <time>2022-06-07T07:03:03Z</time>
      </trkpt>
      <trkpt lat="47.8869700" lon="8.3415930">
        <ele>380.0</ele>
        <time>2022-06-07T07:03:07Z</time>
      </trkpt>
      <trkpt lat="47.8870710" lon="8.3415280">
        <ele>380.4</ele>
        <time>2022-06-07T07:03:11Z</time>
      </trkpt>
      <trkpt lat="47.8871730" lon="8.3414730">
        <ele>380.8</ele>
        <time>2022-06-07T07:03:15Z</time>
      </trkpt>
      <trkpt lat="47.8872850" lon="8.3414110">
        <ele>380.6</ele>
        <time>2022-06-07T07:03:19Z</time>
      </trkpt>
      <trkpt lat="47.8874010" lon="8.3413430">
        <ele>381.4</ele>
        <time>2022-06-07T07:03:23Z</time>
      </trkpt>
      <trkpt lat="47.8875150" lon="8.3412930">
        <ele>382.0</ele>
        <time>2022-06-07T07:03:27Z</time>
      </trkpt>
      <trkpt lat="47.8876180" lon="8.3412960">
        <ele>382.6</ele>
        <time>2022-06-07T07:03:31Z</time>
      </trkpt>
      <trkpt lat="47.8877200" lon="8.3413400">
        <ele>383.4</ele>
        <time>2022-06-07T07:03:35Z</time>
      </trkpt>
      <trkpt lat="47.8878230" lon="8.3413980">
        <ele>383.0</ele>
        <time>2022-06-07T07:03:39Z</time>
      </trkpt>
      <trkpt lat="47.8879260" lon="8.3414600">
        <ele>383.2</ele>
        <time>2022-06-07T07:03:43Z</time>
      </trkpt>
      <trkpt lat="47.8880510" lon="8.3415280">
        <ele>383.0</ele>
        <time>2022-06-07T07:03:47Z</time>
      </trkpt>
      <trkpt lat="47.8881850" lon="8.3415980">
        <ele>382.8</ele>
        <time>2022-06-07T07:03:51Z</time>
      </trkpt>
      <trkpt lat="47.8883210" lon="8.3416750">
        <ele>383.8</ele>
        <time>2022-06-07T07:03:55Z</time>
      </trkpt>
      <trkpt lat="47.8884560" lon="8.3417500">
        <ele>384.2</ele>
        <time>2022-06-07T07:03:59Z</time>
      </trkpt>
      <trkpt lat="47.8885850" lon="8.3418230">
        <ele>383.8</ele>
        <time>2022-06-07T07:04:03Z</time>
      </trkpt>
      <trkpt lat="47.8887110" lon="8.3418860">
        <ele>384.4</ele>
        <time>2022-06-07T07:04:07Z</time>
      </trkpt>
      <trkpt lat="47.8888280" lon="8.3419510">
        <ele>384.2</ele>
        <time>2022-06-07T07:04:11Z</time>
      </trkpt>
      <trkpt lat="47.8889730" lon="8.3419810">
        <ele>383.8</ele>
        <time>2022-06-07T07:04:15Z</time>
      </trkpt>
      <trkpt lat="47.8891480" lon="8.3419930">
        <ele>383.8</ele>
        <time>2022-06-07T07:04:19Z</time>
      </trkpt>
      <trkpt lat="47.8893060" lon="8.3419760">
        <ele>384.0</ele>
        <time>2022-06-07T07:04:23Z</time>
      </trkpt>
      <trkpt lat="47.8894580" lon="8.3419310">
        <ele>384.4</ele>
        <time>2022-06-07T07:04:27Z</time>
      </trkpt>
      <trkpt lat="47.8895960" lon="8.3418650">
        <ele>384.2</ele>
        <time>2022-06-07T07:04:31Z</time>
      </trkpt>
      <trkpt lat="47.8897310" lon="8.3418960">
        <ele>384.6</ele>
        <time>2022-06-07T07:04:35Z</time>
      </trkpt>
      <trkpt lat="47.8898430" lon="8.3419800">
        <ele>385.4</ele>
        <time>2022-06-07T07:04:39Z</time>
      </trkpt>
      <trkpt lat="47.8899230" lon="8.3420830">
        <ele>386.4</ele>
        <time>2022-06-07T07:04:43Z</time>
      </trkpt>
      <trkpt lat="47.8900060" lon="8.3421710">
        <ele>387.8</ele>
        <time>2022-06-07T07:04:47Z</time>
      </trkpt>
      <trkpt lat="47.8900960" lon="8.3422360">
        <ele>388.6</ele>
        <time>2022-06-07T07:04:51Z</time>
      </trkpt>
      <trkpt lat="47.8901850" lon="8.3422760">
        <ele>389.4</ele>
        <time>2022-06-07T07:04:55Z</time>
      </trkpt>
      <trkpt lat="47.8902900" lon="8.3422930">
        <ele>390.4</ele>
        <time>2022-06-07T07:04:59Z</time>
      </trkpt>
      <trkpt lat="47.8903760" lon="8.3423250">
        <ele>391.2</ele>
        <time>2022-06-07T07:05:03Z</time>
      </trkpt>
      <trkpt lat="47.8904750" lon="8.3423730">
        <ele>392.0</ele>
        <time>2022-06-07T07:05:07Z</time>
      </trkpt>
      <trkpt lat="47.8905700" lon="8.3424460">
        <ele>392.2</ele>
        <time>2022-06-07T07:05:11Z</time>
      </trkpt>
      <trkpt lat="47.8906700" lon="8.3425300">
        <ele>392.4</ele>
        <time>2022-06-07T07:05:15Z</time>
      </trkpt>
      <trkpt lat="47.8907760" lon="8.3426200">
        <ele>392.0</ele>
        <time>2022-06-07T07:05:19Z</time>
      </trkpt>
      <trkpt lat="47.8908910" lon="8.3427160">
        <ele>392.6</ele>
        <time>2022-06-07T07:05:23Z</time>
      </trkpt>
      <trkpt lat="47.8910050" lon="8.3428210">
        <ele>392.8</ele>
        <time>2022-06-07T07:05:27Z</time>
      </trkpt>
      <trkpt lat="47.8911280" lon="8.3429110">
        <ele>391.8</ele>
        <time>2022-06-07T07:05:31Z</time>
      </trkpt>
      <trkpt lat="47.8912600" lon="8.3429980">
        <ele>392.8</ele>
        <time>2022-06-07T07:05:35Z</time>
      </trkpt>
      <trkpt lat="47.8913800" lon="8.3430960">
        <ele>393.0</ele>
        <time>2022-06-07T07:05:39Z</time>
      </trkpt>
      <trkpt lat="47.8915260" lon="8.3431950">
        <ele>393.0</ele>
        <time>2022-06-07T07:05:43Z</time>
      </trkpt>
      <trkpt lat="47.8916310" lon="8.3433180">
        <ele>394.0</ele>
        <time>2022-06-07T07:05:47Z</time>
      </trkpt>
      <trkpt lat="47.8917260" lon="8.3434360">
        <ele>395.0</ele>
        <time>2022-06-07T07:05:51Z</time>
      </trkpt>
      <trkpt lat="47.8918100" lon="8.3435480">
        <ele>395.8</ele>
        <time>2022-06-07T07:05:55Z</time>
      </trkpt>
      <trkpt lat="47.8918860" lon="8.3436700">
        <ele>396.6</ele>
        <time>2022-06-07T07:05:59Z</time>
      </trkpt>
      <trkpt lat="47.8919660" lon="8.3437830">
        <ele>397.4</ele>
        <time>2022-06-07T07:06:03Z</time>
      </trkpt>
      <trkpt lat="47.8920480" lon="8.3439030">
        <ele>397.8</ele>
        <time>2022-06-07T07:06:07Z</time>
      </trkpt>
      <trkpt lat="47.8921400" lon="8.3440050">
        <ele>398.8</ele>
        <time>2022-06-07T07:06:11Z</time>
      </trkpt>
      <trkpt lat="47.8922330" lon="8.3441150">
        <ele>399.6</ele>
        <time>2022-06-07T07:06:15Z</time>
      </trkpt>
      <trkpt lat="47.8923310" lon="8.3442210">
        <ele>399.6</ele>
        <time>2022-06-07T07:06:19Z</time>
      </trkpt>
      <trkpt lat="47.8924310" lon="8.3443410">
        <ele>399.6</ele>
        <time>2022-06-07T07:06:23Z</time>
      </trkpt>
      <trkpt lat="47.8925500" lon="8.3444730">
        <ele>400.0</ele>
        <time>2022-06-07T07:06:27Z</time>
      </trkpt>
      <trkpt lat="47.8926830" lon="8.3445880">
        <ele>399.6</ele>
        <time>2022-06-07T07:06:31Z</time>
      </trkpt>
      <trkpt lat="47.8928200" lon="8.3446950">
        <ele>399.6</ele>
        <time>2022-06-07T07:06:35Z</time>
      </trkpt>
      <trkpt lat="47.8929580" lon="8.3447980">
        <ele>399.6</ele>
        <time>2022-06-07T07:06:39Z</time>
      </trkpt>
      <trkpt lat="47.8930980" lon="8.3448980">
        <ele>399.4</ele>
        <time>2022-06-07T07:06:43Z</time>
      </trkpt>
      <trkpt lat="47.8932580" lon="8.3450130">
        <ele>397.6</ele>
        <time>2022-06-07T07:06:47Z</time>
      </trkpt>
      <trkpt lat="47.8934380" lon="8.3451410">
        <ele>396.6</ele>
        <time>2022-06-07T07:06:51Z</time>
      </trkpt>
      <trkpt lat="47.8936200" lon="8.3453030">
        <ele>396.2</ele>
        <time>2022-06-07T07:06:55Z</time>
      </trkpt>
      <trkpt lat="47.8937810" lon="8.3455030">
        <ele>394.8</ele>
        <time>2022-06-07T07:06:59Z</time>
      </trkpt>
      <trkpt lat="47.8939500" lon="8.3456660">
        <ele>394.2</ele>
        <time>2022-06-07T07:07:03Z</time>
      </trkpt>
      <trkpt lat="47.8941160" lon="8.3458100">
        <ele>391.8</ele>
        <time>2022-06-07T07:07:07Z</time>
      </trkpt>
      <trkpt lat="47.8942860" lon="8.3459500">
        <ele>389.2</ele>
        <time>2022-06-07T07:07:11Z</time>
      </trkpt>
      <trkpt lat="47.8944600" lon="8.3460910">
        <ele>387.0</ele>
        <time>2022-06-07T07:07:15Z</time>
      </trkpt>
      <trkpt lat="47.8946300" lon="8.3462210">
        <ele>384.2</ele>
        <time>2022-06-07T07:07:19Z</time>
      </trkpt>
      <trkpt lat="47.8947860" lon="8.3462900">
        <ele>382.2</ele>
        <time>2022-06-07T07:07:23Z</time>
      </trkpt>
      <trkpt lat="47.8949250" lon="8.3462960">
        <ele>379.6</ele>
        <time>2022-06-07T07:07:27Z</time>
      </trkpt>
      <trkpt lat="47.8950360" lon="8.3463110">
        <ele>377.8</ele>
        <time>2022-06-07T07:07:31Z</time>
      </trkpt>
      <trkpt lat="47.8951260" lon="8.3464110">
        <ele>374.8</ele>
        <time>2022-06-07T07:07:35Z</time>
      </trkpt>
      <trkpt lat="47.8952030" lon="8.3465100">
        <ele>372.0</ele>
        <time>2022-06-07T07:07:39Z</time>
      </trkpt>
      <trkpt lat="47.8952900" lon="8.3466280">
        <ele>369.4</ele>
        <time>2022-06-07T07:07:43Z</time>
      </trkpt>
      <trkpt lat="47.8953750" lon="8.3467560">
        <ele>366.6</ele>
        <time>2022-06-07T07:07:47Z</time>
      </trkpt>
      <trkpt lat="47.8954580" lon="8.3468960">
        <ele>363.6</ele>
        <time>2022-06-07T07:07:51Z</time>
      </trkpt>
      <trkpt lat="47.8955360" lon="8.3470460">
        <ele>361.0</ele>
        <time>2022-06-07T07:07:55Z</time>
      </trkpt>
      <trkpt lat="47.8956130" lon="8.3472100">
        <ele>358.8</ele>
        <time>2022-06-07T07:07:59Z</time>
      </trkpt>
      <trkpt lat="47.8956800" lon="8.3473830">
        <ele>356.2</ele>
        <time>2022-06-07T07:08:03Z</time>
      </trkpt>
      <trkpt lat="47.8957400" lon="8.3475460">
        <ele>354.0</ele>
        <time>2022-06-07T07:08:07Z</time>
      </trkpt>
      <trkpt lat="47.8957710" lon="8.3477100">
        <ele>352.2</ele>
        <time>2022-06-07T07:08:11Z</time>
      </trkpt>
      <trkpt lat="47.8957850" lon="8.3478560">
        <ele>351.8</ele>
        <time>2022-06-07T07:08:15Z</time>
      </trkpt>
      <trkpt lat="47.8958230" lon="8.3480280">
        <ele>350.4</ele>
        <time>2022-06-07T07:08:19Z</time>
      </trkpt>
      <trkpt lat="47.8959210" lon="8.3482300">
        <ele>348.6</ele>
        <time>2022-06-07T07:08:23Z</time>
      </trkpt>
      <trkpt lat="47.8960760" lon="8.3484360">
        <ele>347.4</ele>
        <time>2022-06-07T07:08:27Z</time>
      </trkpt>
      <trkpt lat="47.8961400" lon="8.3486880">
        <ele>347.6</ele>
        <time>2022-06-07T07:08:31Z</time>
      </trkpt>
      <trkpt lat="47.8961900" lon="8.3488650">
        <ele>348.0</ele>
        <time>2022-06-07T07:08:35Z</time>
      </trkpt>
      <trkpt lat="47.8962260" lon="8.3490280">
        <ele>348.4</ele>
        <time>2022-06-07T07:08:39Z</time>
      </trkpt>
      <trkpt lat="47.8962900" lon="8.3491510">
        <ele>348.4</ele>
        <time>2022-06-07T07:08:43Z</time>
      </trkpt>
      <trkpt lat="47.8964050" lon="8.3492430">
        <ele>348.4</ele>
        <time>2022-06-07T07:08:47Z</time>
      </trkpt>
      <trkpt lat="47.8965400" lon="8.3493060">
        <ele>348.4</ele>
        <time>2022-06-07T07:08:51Z</time>
      </trkpt>
      <trkpt lat="47.8966730" lon="8.3493310">
        <ele>349.4</ele>
        <time>2022-06-07T07:08:55Z</time>
      </trkpt>
      <trkpt lat="47.8967750" lon="8.3492980">
        <ele>349.2</ele>
        <time>2022-06-07T07:08:59Z</time>
      </trkpt>
      <trkpt lat="47.8968330" lon="8.3491950">
        <ele>349.4</ele>
        <time>2022-06-07T07:09:03Z</time>
      </trkpt>
      <trkpt lat="47.8968680" lon="8.3490830">
        <ele>350.0</ele>
        <time>2022-06-07T07:09:07Z</time>
      </trkpt>
      <trkpt lat="47.8968910" lon="8.3490010">
        <ele>350.2</ele>
        <time>2022-06-07T07:09:11Z</time>
      </trkpt>
      <trkpt lat="47.8969210" lon="8.3489210">
        <ele>350.2</ele>
        <time>2022-06-07T07:09:15Z</time>
      </trkpt>
      <trkpt lat="47.8969750" lon="8.3488600">
        <ele>350.2</ele>
        <time>2022-06-07T07:09:19Z</time>
      </trkpt>
      <trkpt lat="47.8970250" lon="8.3487710">
        <ele>350.4</ele>
        <time>2022-06-07T07:09:23Z</time>
      </trkpt>
      <trkpt lat="47.8970960" lon="8.3487050">
        <ele>350.4</ele>
        <time>2022-06-07T07:09:27Z</time>
      </trkpt>
      <trkpt lat="47.8971730" lon="8.3486430">
        <ele>351.0</ele>
        <time>2022-06-07T07:09:31Z</time>
      </trkpt>
      <trkpt lat="47.8972550" lon="8.3486110">
        <ele>351.0</ele>
        <time>2022-06-07T07:09:35Z</time>
      </trkpt>
      <trkpt lat="47.8973280" lon="8.3485830">
        <ele>351.6</ele>
        <time>2022-06-07T07:09:39Z</time>
      </trkpt>
      <trkpt lat="47.8974150" lon="8.3485700">
        <ele>352.8</ele>
        <time>2022-06-07T07:09:43Z</time>
      </trkpt>
      <trkpt lat="47.8974760" lon="8.3485610">
        <ele>353.2</ele>
        <time>2022-06-07T07:09:47Z</time>
      </trkpt>
      <trkpt lat="47.8975350" lon="8.3485930">
        <ele>353.6</ele>
        <time>2022-06-07T07:09:51Z</time>
      </trkpt>
      <trkpt lat="47.8976000" lon="8.3486280">
        <ele>354.4</ele>
        <time>2022-06-07T07:09:55Z</time>
      </trkpt>
      <trkpt lat="47.8976550" lon="8.3486860">
        <ele>354.6</ele>
        <time>2022-06-07T07:09:59Z</time>
      </trkpt>
      <trkpt lat="47.8977410" lon="8.3487430">
        <ele>355.8</ele>
        <time>2022-06-07T07:10:03Z</time>
      </trkpt>
      <trkpt lat="47.8978050" lon="8.3488210">
        <ele>356.2</ele>
        <time>2022-06-07T07:10:07Z</time>
      </trkpt>
      <trkpt lat="47.8978710" lon="8.3489010">
        <ele>356.6</ele>
        <time>2022-06-07T07:10:11Z</time>
      </trkpt>
      <trkpt lat="47.8979300" lon="8.3489900">
        <ele>357.4</ele>
        <time>2022-06-07T07:10:15Z</time>
      </trkpt>
      <trkpt lat="47.8979480" lon="8.3491010">
        <ele>358.2</ele>
        <time>2022-06-07T07:10:19Z</time>
      </trkpt>
      <trkpt lat="47.8979650" lon="8.3491810">
        <ele>359.2</ele>
        <time>2022-06-07T07:10:23Z</time>
      </trkpt>
      <trkpt lat="47.8979760" lon="8.3492680">
        <ele>360.2</ele>
        <time>2022-06-07T07:10:27Z</time>
      </trkpt>
      <trkpt lat="47.8980000" lon="8.3493500">
        <ele>360.4</ele>
        <time>2022-06-07T07:10:31Z</time>
      </trkpt>
      <trkpt lat="47.8980080" lon="8.3494410">
        <ele>361.6</ele>
        <time>2022-06-07T07:10:35Z</time>
      </trkpt>
      <trkpt lat="47.8980310" lon="8.3495280">
        <ele>362.2</ele>
        <time>2022-06-07T07:10:39Z</time>
      </trkpt>
      <trkpt lat="47.8980430" lon="8.3496150">
        <ele>363.4</ele>
        <time>2022-06-07T07:10:43Z</time>
      </trkpt>
      <trkpt lat="47.8980530" lon="8.3497100">
        <ele>364.2</ele>
        <time>2022-06-07T07:10:47Z</time>
      </trkpt>
      <trkpt lat="47.8980780" lon="8.3498080">
        <ele>365.2</ele>
        <time>2022-06-07T07:10:51Z</time>
      </trkpt>
      <trkpt lat="47.8980960" lon="8.3499030">
        <ele>365.8</ele>
        <time>2022-06-07T07:10:55Z</time>
      </trkpt>
      <trkpt lat="47.8981200" lon="8.3500100">
        <ele>366.4</ele>
        <time>2022-06-07T07:10:59Z</time>
      </trkpt>
      <trkpt lat="47.8981280" lon="8.3501130">
        <ele>367.2</ele>
        <time>2022-06-07T07:11:03Z</time>
      </trkpt>
      <trkpt lat="47.8981430" lon="8.3502200">
        <ele>367.6</ele>
        <time>2022-06-07T07:11:07Z</time>
      </trkpt>
      <trkpt lat="47.8981530" lon="8.3503300">
        <ele>368.2</ele>
        <time>2022-06-07T07:11:11Z</time>
      </trkpt>
      <trkpt lat="47.8981650" lon="8.3504360">
        <ele>368.4</ele>
        <time>2022-06-07T07:11:15Z</time>
      </trkpt>
      <trkpt lat="47.8981800" lon="8.3505450">
        <ele>369.6</ele>
        <time>2022-06-07T07:11:19Z</time>
      </trkpt>
      <trkpt lat="47.8981900" lon="8.3506500">
        <ele>370.2</ele>
        <time>2022-06-07T07:11:23Z</time>
      </trkpt>
      <trkpt lat="47.8982010" lon="8.3507580">
        <ele>371.2</ele>
        <time>2022-06-07T07:11:27Z</time>
      </trkpt>
      <trkpt lat="47.8982200" lon="8.3508680">
        <ele>371.2</ele>
        <time>2022-06-07T07:11:31Z</time>
      </trkpt>
      <trkpt lat="47.8982310" lon="8.3509780">
        <ele>371.8</ele>
        <time>2022-06-07T07:11:35Z</time>
      </trkpt>
      <trkpt lat="47.8982360" lon="8.3510850">
        <ele>371.8</ele>
        <time>2022-06-07T07:11:39Z</time>
      </trkpt>
      <trkpt lat="47.8982630" lon="8.3511960">
        <ele>372.8</ele>
        <time>2022-06-07T07:11:43Z</time>
      </trkpt>
      <trkpt lat="47.8982850" lon="8.3513180">
        <ele>372.8</ele>
        <time>2022-06-07T07:11:47Z</time>
      </trkpt>
      <trkpt lat="47.8983110" lon="8.3514350">
        <ele>373.6</ele>
        <time>2022-06-07T07:11:51Z</time>
      </trkpt>
      <trkpt lat="47.8983280" lon="8.3515500">
        <ele>374.0</ele>
        <time>2022-06-07T07:11:55Z</time>
      </trkpt>
      <trkpt lat="47.8983330" lon="8.3516660">
        <ele>374.6</ele>
        <time>2022-06-07T07:11:59Z</time>
      </trkpt>
      <trkpt lat="47.8983310" lon="8.3517880">
        <ele>375.2</ele>
        <time>2022-06-07T07:12:03Z</time>
      </trkpt>
      <trkpt lat="47.8983400" lon="8.3519130">
        <ele>375.4</ele>
        <time>2022-06-07T07:12:07Z</time>
      </trkpt>
      <trkpt lat="47.8983450" lon="8.3520480">
        <ele>375.4</ele>
        <time>2022-06-07T07:12:11Z</time>
      </trkpt>
      <trkpt lat="47.8983630" lon="8.3521810">
        <ele>375.6</ele>
        <time>2022-06-07T07:12:15Z</time>
      </trkpt>
      <trkpt lat="47.8983780" lon="8.3523100">
        <ele>375.8</ele>
        <time>2022-06-07T07:12:19Z</time>
      </trkpt>
      <trkpt lat="47.8984150" lon="8.3524400">
        <ele>376.0</ele>
        <time>2022-06-07T07:12:23Z</time>
      </trkpt>
      <trkpt lat="47.8984580" lon="8.3525810">
        <ele>376.4</ele>
        <time>2022-06-07T07:12:27Z</time>
      </trkpt>
      <trkpt lat="47.8984860" lon="8.3527350">
        <ele>375.8</ele>
        <time>2022-06-07T07:12:31Z</time>
      </trkpt>
      <trkpt lat="47.8985360" lon="8.3529060">
        <ele>375.6</ele>
        <time>2022-06-07T07:12:35Z</time>
      </trkpt>
      <trkpt lat="47.8985910" lon="8.3530760">
        <ele>375.8</ele>
        <time>2022-06-07T07:12:39Z</time>
      </trkpt>
      <trkpt lat="47.8986200" lon="8.3532300">
        <ele>376.4</ele>
        <time>2022-06-07T07:12:43Z</time>
      </trkpt>
      <trkpt lat="47.8986230" lon="8.3533830">
        <ele>376.4</ele>
        <time>2022-06-07T07:12:47Z</time>
      </trkpt>
      <trkpt lat="47.8986630" lon="8.3535200">
        <ele>376.8</ele>
        <time>2022-06-07T07:12:51Z</time>
      </trkpt>
      <trkpt lat="47.8986830" lon="8.3536360">
        <ele>377.0</ele>
        <time>2022-06-07T07:12:55Z</time>
      </trkpt>
      <trkpt lat="47.8986860" lon="8.3537630">
        <ele>377.4</ele>
        <time>2022-06-07T07:12:59Z</time>
      </trkpt>
      <trkpt lat="47.8987450" lon="8.3539110">
        <ele>377.8</ele>
        <time>2022-06-07T07:13:03Z</time>
      </trkpt>
      <trkpt lat="47.8987900" lon="8.3541000">
        <ele>379.4</ele>
        <time>2022-06-07T07:13:07Z</time>
      </trkpt>
      <trkpt lat="47.8987980" lon="8.3542660">
        <ele>379.8</ele>
        <time>2022-06-07T07:13:11Z</time>
      </trkpt>
      <trkpt lat="47.8987910" lon="8.3544180">
        <ele>380.0</ele>
        <time>2022-06-07T07:13:15Z</time>
      </trkpt>
      <trkpt lat="47.8987850" lon="8.3545360">
        <ele>381.4</ele>
        <time>2022-06-07T07:13:19Z</time>
      </trkpt>
      <trkpt lat="47.8987650" lon="8.3546660">
        <ele>382.0</ele>
        <time>2022-06-07T07:13:23Z</time>
      </trkpt>
      <trkpt lat="47.8987430" lon="8.3547950">
        <ele>383.0</ele>
        <time>2022-06-07T07:13:27Z</time>
      </trkpt>
      <trkpt lat="47.8987200" lon="8.3549230">
        <ele>383.8</ele>
        <time>2022-06-07T07:13:31Z</time>
      </trkpt>
      <trkpt lat="47.8987260" lon="8.3550510">
        <ele>384.2</ele>
        <time>2022-06-07T07:13:35Z</time>
      </trkpt>
      <trkpt lat="47.8987310" lon="8.3551730">
        <ele>385.6</ele>
        <time>2022-06-07T07:13:39Z</time>
      </trkpt>
      <trkpt lat="47.8987160" lon="8.3553030">
        <ele>386.0</ele>
        <time>2022-06-07T07:13:43Z</time>
      </trkpt>
      <trkpt lat="47.8987160" lon="8.3554250">
        <ele>387.2</ele>
        <time>2022-06-07T07:13:47Z</time>
      </trkpt>
      <trkpt lat="47.8987310" lon="8.3555200">
        <ele>387.4</ele>
        <time>2022-06-07T07:13:51Z</time>
      </trkpt>
      <trkpt lat="47.8987130" lon="8.3556200">
        <ele>388.6</ele>
        <time>2022-06-07T07:13:55Z</time>
      </trkpt>
      <trkpt lat="47.8987300" lon="8.3557180">
        <ele>389.4</ele>
        <time>2022-06-07T07:13:59Z</time>
      </trkpt>
      <trkpt lat="47.8987500" lon="8.3558160">
        <ele>390.0</ele>
        <time>2022-06-07T07:14:03Z</time>
      </trkpt>
      <trkpt lat="47.8987700" lon="8.3559060">
        <ele>390.6</ele>
        <time>2022-06-07T07:14:07Z</time>
      </trkpt>
      <trkpt lat="47.8987930" lon="8.3559900">
        <ele>391.2</ele>
        <time>2022-06-07T07:14:11Z</time>
      </trkpt>
      <trkpt lat="47.8988160" lon="8.3560750">
        <ele>391.6</ele>
        <time>2022-06-07T07:14:15Z</time>
      </trkpt>
      <trkpt lat="47.8988350" lon="8.3561610">
        <ele>392.6</ele>
        <time>2022-06-07T07:14:19Z</time>
      </trkpt>
      <trkpt lat="47.8988500" lon="8.3562460">
        <ele>393.0</ele>
        <time>2022-06-07T07:14:23Z</time>
      </trkpt>
      <trkpt lat="47.8988600" lon="8.3563450">
        <ele>394.2</ele>
        <time>2022-06-07T07:14:27Z</time>
      </trkpt>
      <trkpt lat="47.8988650" lon="8.3564360">
        <ele>394.8</ele>
        <time>2022-06-07T07:14:31Z</time>
      </trkpt>
      <trkpt lat="47.8988700" lon="8.3565450">
        <ele>395.4</ele>
        <time>2022-06-07T07:14:35Z</time>
      </trkpt>
      <trkpt lat="47.8988730" lon="8.3566530">
        <ele>395.8</ele>
        <time>2022-06-07T07:14:39Z</time>
      </trkpt>
      <trkpt lat="47.8988900" lon="8.3567550">
        <ele>396.4</ele>
        <time>2022-06-07T07:14:43Z</time>
      </trkpt>
      <trkpt lat="47.8988960" lon="8.3568530">
        <ele>397.2</ele>
        <time>2022-06-07T07:14:47Z</time>
      </trkpt>
      <trkpt lat="47.8989080" lon="8.3569530">
        <ele>398.2</ele>
        <time>2022-06-07T07:14:51Z</time>
      </trkpt>
      <trkpt lat="47.8989160" lon="8.3570460">
        <ele>398.8</ele>
        <time>2022-06-07T07:14:55Z</time>
      </trkpt>
      <trkpt lat="47.8989160" lon="8.3571410">
        <ele>399.2</ele>
        <time>2022-06-07T07:14:59Z</time>
      </trkpt>
      <trkpt lat="47.8989260" lon="8.3572230">
        <ele>399.6</ele>
        <time>2022-06-07T07:15:03Z</time>
      </trkpt>
      <trkpt lat="47.8989050" lon="8.3573280">
        <ele>400.2</ele>
        <time>2022-06-07T07:15:07Z</time>
      </trkpt>
      <trkpt lat="47.8989210" lon="8.3573980">
        <ele>401.2</ele>
        <time>2022-06-07T07:15:11Z</time>
      </trkpt>
      <trkpt lat="47.8989110" lon="8.3574880">
        <ele>402.4</ele>
        <time>2022-06-07T07:15:15Z</time>
      </trkpt>
      <trkpt lat="47.8989150" lon="8.3575760">
        <ele>403.2</ele>
        <time>2022-06-07T07:15:19Z</time>
      </trkpt>
      <trkpt lat="47.8989130" lon="8.3576660">
        <ele>403.6</ele>
        <time>2022-06-07T07:15:23Z</time>
      </trkpt>
      <trkpt lat="47.8989110" lon="8.3577550">
        <ele>405.0</ele>
        <time>2022-06-07T07:15:27Z</time>
      </trkpt>
      <trkpt lat="47.8989160" lon="8.3578160">
        <ele>405.6</ele>
        <time>2022-06-07T07:15:31Z</time>
      </trkpt>
      <trkpt lat="47.8989350" lon="8.3578850">
        <ele>406.6</ele>
        <time>2022-06-07T07:15:35Z</time>
      </trkpt>
      <trkpt lat="47.8989330" lon="8.3579780">
        <ele>407.4</ele>
        <time>2022-06-07T07:15:39Z</time>
      </trkpt>
      <trkpt lat="47.8989400" lon="8.3580600">
        <ele>408.4</ele>
        <time>2022-06-07T07:15:43Z</time>
      </trkpt>
      <trkpt lat="47.8989550" lon="8.3581350">
        <ele>409.0</ele>
        <time>2022-06-07T07:15:47Z</time>
      </trkpt>
      <trkpt lat="47.8989460" lon="8.3582310">
        <ele>409.8</ele>
        <time>2022-06-07T07:15:51Z</time>
      </trkpt>
      <trkpt lat="47.8989430" lon="8.3583200">
        <ele>410.0</ele>
        <time>2022-06-07T07:15:55Z</time>
      </trkpt>
      <trkpt lat="47.8989460" lon="8.3584060">
        <ele>411.0</ele>
        <time>2022-06-07T07:15:59Z</time>
      </trkpt>
      <trkpt lat="47.8989480" lon="8.3585100">
        <ele>412.0</ele>
        <time>2022-06-07T07:16:03Z</time>
      </trkpt>
      <trkpt lat="47.8989480" lon="8.3586100">
        <ele>412.8</ele>
        <time>2022-06-07T07:16:07Z</time>
      </trkpt>
      <trkpt lat="47.8989650" lon="8.3586950">
        <ele>413.6</ele>
        <time>2022-06-07T07:16:11Z</time>
      </trkpt>
      <trkpt lat="47.8989860" lon="8.3587680">
        <ele>414.0</ele>
        <time>2022-06-07T07:16:15Z</time>
      </trkpt>
      <trkpt lat="47.8990150" lon="8.3588480">
        <ele>415.0</ele>
        <time>2022-06-07T07:16:19Z</time>
      </trkpt>
      <trkpt lat="47.8990230" lon="8.3589460">
        <ele>414.6</ele>
        <time>2022-06-07T07:16:23Z</time>
      </trkpt>
      <trkpt lat="47.8990280" lon="8.3590380">
        <ele>415.6</ele>
        <time>2022-06-07T07:16:27Z</time>
      </trkpt>
      <trkpt lat="47.8990650" lon="8.3591360">
        <ele>416.2</ele>
        <time>2022-06-07T07:16:31Z</time>
      </trkpt>
      <trkpt lat="47.8990750" lon="8.3592600">
        <ele>416.6</ele>
        <time>2022-06-07T07:16:35Z</time>
      </trkpt>
      <trkpt lat="47.8990950" lon="8.3593860">
        <ele>417.0</ele>
        <time>2022-06-07T07:16:39Z</time>
      </trkpt>
      <trkpt lat="47.8991100" lon="8.3595000">
        <ele>417.6</ele>
        <time>2022-06-07T07:16:43Z</time>
      </trkpt>
      <trkpt lat="47.8991230" lon="8.3596080">
        <ele>418.2</ele>
        <time>2022-06-07T07:16:47Z</time>
      </trkpt>
      <trkpt lat="47.8991310" lon="8.3597210">
        <ele>418.4</ele>
        <time>2022-06-07T07:16:51Z</time>
      </trkpt>
      <trkpt lat="47.8991410" lon="8.3598360">
        <ele>418.8</ele>
        <time>2022-06-07T07:16:55Z</time>
      </trkpt>
      <trkpt lat="47.8991550" lon="8.3599500">
        <ele>419.4</ele>
        <time>2022-06-07T07:16:59Z</time>
      </trkpt>
      <trkpt lat="47.8991600" lon="8.3600610">
        <ele>419.8</ele>
        <time>2022-06-07T07:17:03Z</time>
      </trkpt>
      <trkpt lat="47.8991650" lon="8.3601680">
        <ele>420.2</ele>
        <time>2022-06-07T07:17:07Z</time>
      </trkpt>
      <trkpt lat="47.8991700" lon="8.3602730">
        <ele>420.2</ele>
        <time>2022-06-07T07:17:11Z</time>
      </trkpt>
      <trkpt lat="47.8991900" lon="8.3603830">
        <ele>420.8</ele>
        <time>2022-06-07T07:17:15Z</time>
      </trkpt>
      <trkpt lat="47.8992010" lon="8.3604980">
        <ele>420.8</ele>
        <time>2022-06-07T07:17:19Z</time>
      </trkpt>
      <trkpt lat="47.8992060" lon="8.3606300">
        <ele>421.6</ele>
        <time>2022-06-07T07:17:23Z</time>
      </trkpt>
      <trkpt lat="47.8992250" lon="8.3607560">
        <ele>422.0</ele>
        <time>2022-06-07T07:17:27Z</time>
      </trkpt>
      <trkpt lat="47.8992500" lon="8.3608800">
        <ele>422.4</ele>
        <time>2022-06-07T07:17:31Z</time>
      </trkpt>
      <trkpt lat="47.8992950" lon="8.3609860">
        <ele>422.4</ele>
        <time>2022-06-07T07:17:35Z</time>
      </trkpt>
      <trkpt lat="47.8993350" lon="8.3610850">
        <ele>422.8</ele>
        <time>2022-06-07T07:17:39Z</time>
      </trkpt>
      <trkpt lat="47.8993600" lon="8.3611910">
        <ele>423.4</ele>
        <time>2022-06-07T07:17:43Z</time>
      </trkpt>
      <trkpt lat="47.8994000" lon="8.3612950">
        <ele>424.2</ele>
        <time>2022-06-07T07:17:47Z</time>
      </trkpt>
      <trkpt lat="47.8994300" lon="8.3614050">
        <ele>424.6</ele>
        <time>2022-06-07T07:17:51Z</time>
      </trkpt>
      <trkpt lat="47.8994660" lon="8.3615130">
        <ele>425.6</ele>
        <time>2022-06-07T07:17:55Z</time>
      </trkpt>
      <trkpt lat="47.8995010" lon="8.3616280">
        <ele>425.8</ele>
        <time>2022-06-07T07:17:59Z</time>
      </trkpt>
      <trkpt lat="47.8995400" lon="8.3617430">
        <ele>426.0</ele>
        <time>2022-06-07T07:18:03Z</time>
      </trkpt>
      <trkpt lat="47.8995960" lon="8.3618610">
        <ele>426.6</ele>
        <time>2022-06-07T07:18:07Z</time>
      </trkpt>
      <trkpt lat="47.8996850" lon="8.3619410">
        <ele>426.6</ele>
        <time>2022-06-07T07:18:11Z</time>
      </trkpt>
      <trkpt lat="47.8997750" lon="8.3619960">
        <ele>427.0</ele>
        <time>2022-06-07T07:18:15Z</time>
      </trkpt>
      <trkpt lat="47.8998550" lon="8.3620260">
        <ele>427.2</ele>
        <time>2022-06-07T07:18:19Z</time>
      </trkpt>
      <trkpt lat="47.8999450" lon="8.3620660">
        <ele>426.6</ele>
        <time>2022-06-07T07:18:23Z</time>
      </trkpt>
      <trkpt lat="47.9000660" lon="8.3621150">
        <ele>426.0</ele>
        <time>2022-06-07T07:18:27Z</time>
      </trkpt>
      <trkpt lat="47.9002280" lon="8.3621730">
        <ele>425.8</ele>
        <time>2022-06-07T07:18:31Z</time>
      </trkpt>
      <trkpt lat="47.9004200" lon="8.3622330">
        <ele>424.8</ele>
        <time>2022-06-07T07:18:35Z</time>
      </trkpt>
      <trkpt lat="47.9006310" lon="8.3623360">
        <ele>423.4</ele>
        <time>2022-06-07T07:18:39Z</time>
      </trkpt>
      <trkpt lat="47.9008660" lon="8.3624600">
        <ele>421.4</ele>
        <time>2022-06-07T07:18:43Z</time>
      </trkpt>
      <trkpt lat="47.9011060" lon="8.3625930">
        <ele>421.2</ele>
        <time>2022-06-07T07:18:47Z</time>
      </trkpt>
      <trkpt lat="47.9013100" lon="8.3627930">
        <ele>419.8</ele>
        <time>2022-06-07T07:18:51Z</time>
      </trkpt>
      <trkpt lat="47.9014850" lon="8.3629360">
        <ele>419.8</ele>
        <time>2022-06-07T07:18:55Z</time>
      </trkpt>
      <trkpt lat="47.9016380" lon="8.3630950">
        <ele>418.4</ele>
        <time>2022-06-07T07:18:59Z</time>
      </trkpt>
      <trkpt lat="47.9018110" lon="8.3632230">
        <ele>419.0</ele>
        <time>2022-06-07T07:19:03Z</time>
      </trkpt>
      <trkpt lat="47.9020030" lon="8.3633410">
        <ele>417.0</ele>
        <time>2022-06-07T07:19:07Z</time>
      </trkpt>
      <trkpt lat="47.9021900" lon="8.3634580">
        <ele>416.6</ele>
        <time>2022-06-07T07:19:11Z</time>
      </trkpt>
      <trkpt lat="47.9023810" lon="8.3634780">
        <ele>417.2</ele>
        <time>2022-06-07T07:19:15Z</time>
      </trkpt>
      <trkpt lat="47.9025360" lon="8.3634760">
        <ele>417.6</ele>
        <time>2022-06-07T07:19:19Z</time>
      </trkpt>
      <trkpt lat="47.9026950" lon="8.3635250">
        <ele>417.4</ele>
        <time>2022-06-07T07:19:23Z</time>
      </trkpt>
      <trkpt lat="47.9028430" lon="8.3634980">
        <ele>418.0</ele>
        <time>2022-06-07T07:19:27Z</time>
      </trkpt>
      <trkpt lat="47.9029830" lon="8.3633800">
        <ele>417.4</ele>
        <time>2022-06-07T07:19:31Z</time>
      </trkpt>
      <trkpt lat="47.9031360" lon="8.3632180">
        <ele>417.4</ele>
        <time>2022-06-07T07:19:35Z</time>
      </trkpt>
      <trkpt lat="47.9032660" lon="8.3631000">
        <ele>416.0</ele>
        <time>2022-06-07T07:19:39Z</time>
      </trkpt>
      <trkpt lat="47.9032660" lon="8.3631000">
        <ele>415.8</ele>
        <time>2022-06-07T07:19:43Z</time>
      </trkpt>
      <trkpt lat="47.9032660" lon="8.3631000">
        <ele>415.6</ele>
        <time>2022-06-07T07:19:47Z</time>
      </trkpt>
      <trkpt lat="47.9032660" lon="8.3631000">
        <ele>415.6</ele>
        <time>2022-06-07T07:19:51Z</time>
      </trkpt>
      <trkpt lat="47.9032660" lon="8.3631000">
        <ele>415.2</ele>
        <time>2022-06-07T07:19:55Z</time>
      </trkpt>
      <trkpt lat="47.9032660" lon="8.3631000">
        <ele>415.4</ele>
        <time>2022-06-07T07:19:59Z</time>
      </trkpt>
      <trkpt lat="47.9032660" lon="8.3631000">
        <ele>415.6</ele>
        <time>2022-06-07T07:20:03Z</time>
      </trkpt>
      <trkpt lat="47.9032660" lon="8.3631000">
        <ele>415.6</ele>
        <time>2022-06-07T07:20:07Z</time>
      </trkpt>
      <trkpt lat="47.9032660" lon="8.3631000">
        <ele>415.6</ele>
        <time>2022-06-07T07:20:11Z</time>
      </trkpt>
      <trkpt lat="47.9032660" lon="8.3631000">
        <ele>415.6</ele>
        <time>2022-06-07T07:20:15Z</time>
      </trkpt>
      <trkpt lat="47.9032660" lon="8.3631000">
        <ele>415.4</ele>
        <time>2022-06-07T07:20:19Z</time>
      </trkpt>
      <trkpt lat="47.9032660" lon="8.3631000">
        <ele>415.6</ele>
        <time>2022-06-07T07:20:23Z</time>
      </trkpt>
      <trkpt lat="47.9032660" lon="8.3631000">
        <ele>415.6</ele>
        <time>2022-06-07T07:20:27Z</time>
      </trkpt>
      <trkpt lat="47.9032660" lon="8.3631000">
        <ele>415.8</ele>
        <time>2022-06-07T07:20:31Z</time>
      </trkpt>
      <trkpt lat="47.9032660" lon="8.3631000">
        <ele>415.8</ele>
        <time>2022-06-07T07:20:35Z</time>
      </trkpt>
      <trkpt lat="47.9032660" lon="8.3631000">
        <ele>415.8</ele>
        <time>2022-06-07T07:20:39Z</time>
      </trkpt>
      <trkpt lat="47.9032660" lon="8.3631000">
        <ele>415.6</ele>
        <time>2022-06-07T07:20:43Z</time>
      </trkpt>
      <trkpt lat="47.9032660" lon="8.3631000">
        <ele>415.6</ele>
        <time>2022-06-07T07:20:47Z</time>
      </trkpt>
      <trkpt lat="47.9032660" lon="8.3631000">
        <ele>415.2</ele>
        <time>2022-06-07T07:20:51Z</time>
      </trkpt>
      <trkpt lat="47.9033360" lon="8.3630730">
        <ele>415.2</ele>
        <time>2022-06-07T07:20:55Z</time>
      </trkpt>
      <trkpt lat="47.9034080" lon="8.3630030">
        <ele>414.0</ele>
        <time>2022-06-07T07:20:59Z</time>
      </trkpt>
      <trkpt lat="47.9035700" lon="8.3628800">
        <ele>412.6</ele>
        <time>2022-06-07T07:21:03Z</time>
      </trkpt>
      <trkpt lat="47.9037960" lon="8.3627260">
        <ele>411.8</ele>
        <time>2022-06-07T07:21:07Z</time>
      </trkpt>
      <trkpt lat="47.9040710" lon="8.3625430">
        <ele>407.4</ele>
        <time>2022-06-07T07:21:11Z</time>
      </trkpt>
      <trkpt lat="47.9043950" lon="8.3623460">
        <ele>404.6</ele>
        <time>2022-06-07T07:21:15Z</time>
      </trkpt>
      <trkpt lat="47.9047530" lon="8.3621410">
        <ele>401.6</ele>
        <time>2022-06-07T07:21:19Z</time>
      </trkpt>
      <trkpt lat="47.9051350" lon="8.3619330">
        <ele>398.6</ele>
        <time>2022-06-07T07:21:23Z</time>
      </trkpt>
      <trkpt lat="47.9055230" lon="8.3616900">
        <ele>397.6</ele>
        <time>2022-06-07T07:21:27Z</time>
      </trkpt>
      <trkpt lat="47.9059080" lon="8.3614410">
        <ele>394.6</ele>
        <time>2022-06-07T07:21:31Z</time>
      </trkpt>
      <trkpt lat="47.9063010" lon="8.3612350">
        <ele>394.0</ele>
        <time>2022-06-07T07:21:35Z</time>
      </trkpt>
      <trkpt lat="47.9066900" lon="8.3610730">
        <ele>391.4</ele>
        <time>2022-06-07T07:21:39Z</time>
      </trkpt>
      <trkpt lat="47.9070650" lon="8.3609380">
        <ele>392.0</ele>
        <time>2022-06-07T07:21:43Z</time>
      </trkpt>
      <trkpt lat="47.9074180" lon="8.3608450">
        <ele>392.2</ele>
        <time>2022-06-07T07:21:47Z</time>
      </trkpt>
      <trkpt lat="47.9077480" lon="8.3607710">
        <ele>389.6</ele>
        <time>2022-06-07T07:21:51Z</time>
      </trkpt>
      <trkpt lat="47.9080600" lon="8.3607110">
        <ele>390.2</ele>
        <time>2022-06-07T07:21:55Z</time>
      </trkpt>
      <trkpt lat="47.9083530" lon="8.3606560">
        <ele>389.2</ele>
        <time>2022-06-07T07:21:59Z</time>
      </trkpt>
      <trkpt lat="47.9086330" lon="8.3605960">
        <ele>388.2</ele>
        <time>2022-06-07T07:22:03Z</time>
      </trkpt>
      <trkpt lat="47.9089100" lon="8.3605010">
        <ele>386.4</ele>
        <time>2022-06-07T07:22:07Z</time>
      </trkpt>
      <trkpt lat="47.9091930" lon="8.3603360">
        <ele>385.0</ele>
        <time>2022-06-07T07:22:11Z</time>
      </trkpt>
      <trkpt lat="47.9094810" lon="8.3600910">
        <ele>382.4</ele>
        <time>2022-06-07T07:22:15Z</time>
      </trkpt>
      <trkpt lat="47.9097750" lon="8.3597910">
        <ele>379.2</ele>
        <time>2022-06-07T07:22:19Z</time>
      </trkpt>
      <trkpt lat="47.9101250" lon="8.3595150">
        <ele>374.2</ele>
        <time>2022-06-07T07:22:23Z</time>
      </trkpt>
      <trkpt lat="47.9105330" lon="8.3593630">
        <ele>371.8</ele>
        <time>2022-06-07T07:22:27Z</time>
      </trkpt>
      <trkpt lat="47.9109830" lon="8.3593450">
        <ele>367.2</ele>
        <time>2022-06-07T07:22:31Z</time>
      </trkpt>
      <trkpt lat="47.9114460" lon="8.3594460">
        <ele>365.0</ele>
        <time>2022-06-07T07:22:35Z</time>
      </trkpt>
      <trkpt lat="47.9119110" lon="8.3595980">
        <ele>361.6</ele>
        <time>2022-06-07T07:22:39Z</time>
      </trkpt>
      <trkpt lat="47.9123700" lon="8.3597260">
        <ele>360.0</ele>
        <time>2022-06-07T07:22:43Z</time>
      </trkpt>
      <trkpt lat="47.9128110" lon="8.3597460">
        <ele>358.4</ele>
        <time>2022-06-07T07:22:47Z</time>
      </trkpt>
      <trkpt lat="47.9132310" lon="8.3596750">
        <ele>357.2</ele>
        <time>2022-06-07T07:22:51Z</time>
      </trkpt>
      <trkpt lat="47.9136210" lon="8.3595360">
        <ele>357.4</ele>
        <time>2022-06-07T07:22:55Z</time>
      </trkpt>
      <trkpt lat="47.9139900" lon="8.3593860">
        <ele>356.0</ele>
        <time>2022-06-07T07:22:59Z</time>
      </trkpt>
      <trkpt lat="47.9143460" lon="8.3592830">
        <ele>357.2</ele>
        <time>2022-06-07T07:23:03Z</time>
      </trkpt>
      <trkpt lat="47.9146800" lon="8.3592400">
        <ele>356.0</ele>
        <time>2022-06-07T07:23:07Z</time>
      </trkpt>
      <trkpt lat="47.9149830" lon="8.3592350">
        <ele>356.4</ele>
        <time>2022-06-07T07:23:11Z</time>
      </trkpt>
      <trkpt lat="47.9152550" lon="8.3592480">
        <ele>357.4</ele>
        <time>2022-06-07T07:23:15Z</time>
      </trkpt>
      <trkpt lat="47.9154860" lon="8.3592550">
        <ele>357.0</ele>
        <time>2022-06-07T07:23:19Z</time>
      </trkpt>
      <trkpt lat="47.9156960" lon="8.3592500">
        <ele>357.6</ele>
        <time>2022-06-07T07:23:23Z</time>
      </trkpt>
      <trkpt lat="47.9158960" lon="8.3592350">
        <ele>357.8</ele>
        <time>2022-06-07T07:23:27Z</time>
      </trkpt>
      <trkpt lat="47.9160880" lon="8.3592000">
        <ele>358.0</ele>
        <time>2022-06-07T07:23:31Z</time>
      </trkpt>
      <trkpt lat="47.9162730" lon="8.3591580">
        <ele>358.4</ele>
        <time>2022-06-07T07:23:35Z</time>
      </trkpt>
      <trkpt lat="47.9164480" lon="8.3591050">
        <ele>358.8</ele>
        <time>2022-06-07T07:23:39Z</time>
      </trkpt>
      <trkpt lat="47.9166130" lon="8.3590410">
        <ele>358.4</ele>
        <time>2022-06-07T07:23:43Z</time>
      </trkpt>
      <trkpt lat="47.9167660" lon="8.3589680">
        <ele>358.8</ele>
        <time>2022-06-07T07:23:47Z</time>
      </trkpt>
      <trkpt lat="47.9169130" lon="8.3588900">
        <ele>359.2</ele>
        <time>2022-06-07T07:23:51Z</time>
      </trkpt>
      <trkpt lat="47.9170530" lon="8.3588060">
        <ele>359.4</ele>
        <time>2022-06-07T07:23:55Z</time>
      </trkpt>
      <trkpt lat="47.9171900" lon="8.3587130">
        <ele>360.2</ele>
        <time>2022-06-07T07:23:59Z</time>
      </trkpt>
      <trkpt lat="47.9173260" lon="8.3586180">
        <ele>360.0</ele>
        <time>2022-06-07T07:24:03Z</time>
      </trkpt>
      <trkpt lat="47.9174580" lon="8.3585080">
        <ele>360.0</ele>
        <time>2022-06-07T07:24:07Z</time>
      </trkpt>
      <trkpt lat="47.9175860" lon="8.3583960">
        <ele>360.2</ele>
        <time>2022-06-07T07:24:11Z</time>
      </trkpt>
      <trkpt lat="47.9177110" lon="8.3582800">
        <ele>361.0</ele>
        <time>2022-06-07T07:24:15Z</time>
      </trkpt>
      <trkpt lat="47.9178280" lon="8.3581560">
        <ele>361.0</ele>
        <time>2022-06-07T07:24:19Z</time>
      </trkpt>
      <trkpt lat="47.9179430" lon="8.3580300">
        <ele>361.2</ele>
        <time>2022-06-07T07:24:23Z</time>
      </trkpt>
      <trkpt lat="47.9180630" lon="8.3579030">
        <ele>361.6</ele>
        <time>2022-06-07T07:24:27Z</time>
      </trkpt>
      <trkpt lat="47.9181830" lon="8.3577750">
        <ele>361.8</ele>
        <time>2022-06-07T07:24:31Z</time>
      </trkpt>
      <trkpt lat="47.9183030" lon="8.3576550">
        <ele>362.2</ele>
        <time>2022-06-07T07:24:35Z</time>
      </trkpt>
      <trkpt lat="47.9184200" lon="8.3575430">
        <ele>362.8</ele>
        <time>2022-06-07T07:24:39Z</time>
      </trkpt>
      <trkpt lat="47.9185380" lon="8.3574380">
        <ele>363.2</ele>
        <time>2022-06-07T07:24:43Z</time>
      </trkpt>
      <trkpt lat="47.9186550" lon="8.3573500">
        <ele>363.0</ele>
        <time>2022-06-07T07:24:47Z</time>
      </trkpt>
      <trkpt lat="47.9187660" lon="8.3572650">
        <ele>363.4</ele>
        <time>2022-06-07T07:24:51Z</time>
      </trkpt>
      <trkpt lat="47.9188780" lon="8.3571910">
        <ele>364.0</ele>
        <time>2022-06-07T07:24:55Z</time>
      </trkpt>
      <trkpt lat="47.9189860" lon="8.3571310">
        <ele>364.0</ele>
        <time>2022-06-07T07:24:59Z</time>
      </trkpt>
      <trkpt lat="47.9190880" lon="8.3570810">
        <ele>364.2</ele>
        <time>2022-06-07T07:25:03Z</time>
      </trkpt>
      <trkpt lat="47.9191660" lon="8.3570910">
        <ele>364.6</ele>
        <time>2022-06-07T07:25:07Z</time>
      </trkpt>
      <trkpt lat="47.9191780" lon="8.3572110">
        <ele>364.2</ele>
        <time>2022-06-07T07:25:11Z</time>
      </trkpt>
      <trkpt lat="47.9191600" lon="8.3572860">
        <ele>364.2</ele>
        <time>2022-06-07T07:25:15Z</time>
      </trkpt>
      <trkpt lat="47.9191600" lon="8.3572860">
        <ele>364.4</ele>
        <time>2022-06-07T07:25:19Z</time>
      </trkpt>
      <trkpt lat="47.9191600" lon="8.3572860">
        <ele>364.2</ele>
        <time>2022-06-07T07:25:23Z</time>
      </trkpt>
      <trkpt lat="47.9191600" lon="8.3572860">
        <ele>364.6</ele>
        <time>2022-06-07T07:25:27Z</time>
      </trkpt>
      <trkpt lat="47.9191600" lon="8.3572860">
        <ele>364.6</ele>
        <time>2022-06-07T07:25:31Z</time>
      </trkpt>
      <trkpt lat="47.9191600" lon="8.3572860">
        <ele>364.4</ele>
        <time>2022-06-07T07:25:35Z</time>
      </trkpt>
      <trkpt lat="47.9191600" lon="8.3572860">
        <ele>364.2</ele>
        <time>2022-06-07T07:25:39Z</time>
      </trkpt>
      <trkpt lat="47.9191600" lon="8.3572860">
        <ele>364.4</ele>
        <time>2022-06-07T07:25:43Z</time>
      </trkpt>
      <trkpt lat="47.9191600" lon="8.3572860">
        <ele>364.6</ele>
        <time>2022-06-07T07:25:47Z</time>
      </trkpt>
      <trkpt lat="47.9191600" lon="8.3572860">
        <ele>364.4</ele>
        <time>2022-06-07T07:25:51Z</time>
      </trkpt>
      <trkpt lat="47.9191600" lon="8.3572860">
        <ele>365.0</ele>
        <time>2022-06-07T07:25:55Z</time>
      </trkpt>
      <trkpt lat="47.9191600" lon="8.3572860">
        <ele>365.0</ele>
        <time>2022-06-07T07:25:59Z</time>
      </trkpt>
      <trkpt lat="47.9191600" lon="8.3572860">
        <ele>364.8</ele>
        <time>2022-06-07T07:26:03Z</time>
      </trkpt>
      <trkpt lat="47.9191600" lon="8.3572860">
        <ele>364.8</ele>
        <time>2022-06-07T07:26:07Z</time>
      </trkpt>
      <trkpt lat="47.9191600" lon="8.3572860">
        <ele>364.8</ele>
        <time>2022-06-07T07:26:11Z</time>
      </trkpt>
      <trkpt lat="47.9191600" lon="8.3572860">
        <ele>364.6</ele>
        <time>2022-06-07T07:26:15Z</time>
      </trkpt>
      <trkpt lat="47.9191600" lon="8.3572860">
        <ele>364.6</ele>
        <time>2022-06-07T07:26:19Z</time>
      </trkpt>
      <trkpt lat="47.9191600" lon="8.3572860">
        <ele>364.8</ele>
        <time>2022-06-07T07:26:23Z</time>
      </trkpt>
      <trkpt lat="47.9191600" lon="8.3572860">
        <ele>364.8</ele>
        <time>2022-06-07T07:26:27Z</time>
      </trkpt>
      <trkpt lat="47.9191410" lon="8.3573150">
        <ele>364.6</ele>
        <time>2022-06-07T07:26:31Z</time>
      </trkpt>
      <trkpt lat="47.9191130" lon="8.3573860">
        <ele>364.6</ele>
        <time>2022-06-07T07:26:35Z</time>
      </trkpt>
      <trkpt lat="47.9190850" lon="8.3575080">
        <ele>364.2</ele>
        <time>2022-06-07T07:26:39Z</time>
      </trkpt>
      <trkpt lat="47.9190800" lon="8.3576230">
        <ele>363.8</ele>
        <time>2022-06-07T07:26:43Z</time>
      </trkpt>
      <trkpt lat="47.9190900" lon="8.3577100">
        <ele>363.4</ele>
        <time>2022-06-07T07:26:47Z</time>
      </trkpt>
      <trkpt lat="47.9190900" lon="8.3577100">
        <ele>363.2</ele>
        <time>2022-06-07T07:26:51Z</time>
      </trkpt>
      <trkpt lat="47.9190900" lon="8.3577100">
        <ele>363.4</ele>
        <time>2022-06-07T07:26:55Z</time>
      </trkpt>
      <trkpt lat="47.9190900" lon="8.3577100">
        <ele>363.6</ele>
        <time>2022-06-07T07:26:59Z</time>
      </trkpt>
      <trkpt lat="47.9190900" lon="8.3577100">
        <ele>363.6</ele>
        <time>2022-06-07T07:27:03Z</time>
      </trkpt>
      <trkpt lat="47.9190900" lon="8.3577100">
        <ele>363.4</ele>
        <time>2022-06-07T07:27:07Z</time>
      </trkpt>
      <trkpt lat="47.9190900" lon="8.3577100">
        <ele>363.0</ele>
        <time>2022-06-07T07:27:11Z</time>
      </trkpt>
      <trkpt lat="47.9190900" lon="8.3577100">
        <ele>363.4</ele>
        <time>2022-06-07T07:27:15Z</time>
      </trkpt>
      <trkpt lat="47.9190900" lon="8.3577100">
        <ele>363.0</ele>
        <time>2022-06-07T07:27:19Z</time>
      </trkpt>
      <trkpt lat="47.9190900" lon="8.3577100">
        <ele>362.6</ele>
        <time>2022-06-07T07:27:23Z</time>
      </trkpt>
      <trkpt lat="47.9190900" lon="8.3577100">
        <ele>363.2</ele>
        <time>2022-06-07T07:27:27Z</time>
      </trkpt>
      <trkpt lat="47.9191260" lon="8.3577550">
        <ele>363.0</ele>
        <time>2022-06-07T07:27:31Z</time>
      </trkpt>
      <trkpt lat="47.9191310" lon="8.3577200">
        <ele>363.2</ele>
        <time>2022-06-07T07:27:35Z</time>
      </trkpt>
      <trkpt lat="47.9191310" lon="8.3577200">
        <ele>363.4</ele>
        <time>2022-06-07T07:27:39Z</time>
      </trkpt>
      <trkpt lat="47.9191310" lon="8.3577200">
        <ele>363.2</ele>
        <time>2022-06-07T07:27:43Z</time>
      </trkpt>
      <trkpt lat="47.9191310" lon="8.3577200">
        <ele>363.0</ele>
        <time>2022-06-07T07:27:47Z</time>
      </trkpt>
      <trkpt lat="47.9191310" lon="8.3577200">
        <ele>363.4</ele>
        <time>2022-06-07T07:27:51Z</time>
      </trkpt>
      <trkpt lat="47.9191310" lon="8.3577200">
        <ele>363.4</ele>
        <time>2022-06-07T07:27:55Z</time>
      </trkpt>
      <trkpt lat="47.9191310" lon="8.3577200">
        <ele>363.6</ele>
        <time>2022-06-07T07:27:59Z</time>
      </trkpt>
      <trkpt lat="47.9191310" lon="8.3577200">
        <ele>363.4</ele>
        <time>2022-06-07T07:28:03Z</time>
      </trkpt>
      <trkpt lat="47.9191310" lon="8.3577200">
        <ele>363.4</ele>
        <time>2022-06-07T07:28:07Z</time>
      </trkpt>
      <trkpt lat="47.9191310" lon="8.3577200">
        <ele>363.6</ele>
        <time>2022-06-07T07:28:11Z</time>
      </trkpt>
      <trkpt lat="47.9191310" lon="8.3577200">
        <ele>363.4</ele>
        <time>2022-06-07T07:28:15Z</time>
      </trkpt>
      <trkpt lat="47.9191310" lon="8.3577200">
        <ele>363.4</ele>
        <time>2022-06-07T07:28:19Z</time>
      </trkpt>
      <trkpt lat="47.9191260" lon="8.3576980">
        <ele>363.4</ele>
        <time>2022-06-07T07:28:23Z</time>
      </trkpt>
      <trkpt lat="47.9191080" lon="8.3576550">
        <ele>363.6</ele>
        <time>2022-06-07T07:28:27Z</time>
      </trkpt>
      <trkpt lat="47.9190850" lon="8.3575730">
        <ele>363.6</ele>
        <time>2022-06-07T07:28:31Z</time>
      </trkpt>
      <trkpt lat="47.9191100" lon="8.3574730">
        <ele>364.0</ele>
        <time>2022-06-07T07:28:35Z</time>
      </trkpt>
      <trkpt lat="47.9191360" lon="8.3573630">
        <ele>364.6</ele>
        <time>2022-06-07T07:28:39Z</time>
      </trkpt>
      <trkpt lat="47.9191560" lon="8.3572660">
        <ele>364.8</ele>
        <time>2022-06-07T07:28:43Z</time>
      </trkpt>
      <trkpt lat="47.9191900" lon="8.3571710">
        <ele>365.2</ele>
        <time>2022-06-07T07:28:47Z</time>
      </trkpt>
      <trkpt lat="47.9191700" lon="8.3570910">
        <ele>365.4</ele>
        <time>2022-06-07T07:28:51Z</time>
      </trkpt>
      <trkpt lat="47.9192160" lon="8.3570200">
        <ele>365.4</ele>
        <time>2022-06-07T07:28:55Z</time>
      </trkpt>
      <trkpt lat="47.9192930" lon="8.3569830">
        <ele>366.0</ele>
        <time>2022-06-07T07:28:59Z</time>
      </trkpt>
      <trkpt lat="47.9193680" lon="8.3569480">
        <ele>366.0</ele>
        <time>2022-06-07T07:29:03Z</time>
      </trkpt>
      <trkpt lat="47.9194430" lon="8.3569230">
        <ele>365.6</ele>
        <time>2022-06-07T07:29:07Z</time>
      </trkpt>
      <trkpt lat="47.9195160" lon="8.3568900">
        <ele>366.0</ele>
        <time>2022-06-07T07:29:11Z</time>
      </trkpt>
      <trkpt lat="47.9194880" lon="8.3568600">
        <ele>366.0</ele>
        <time>2022-06-07T07:29:15Z</time>
      </trkpt>
      <trkpt lat="47.9194360" lon="8.3569650">
        <ele>365.8</ele>
        <time>2022-06-07T07:29:19Z</time>
      </trkpt>
      <trkpt lat="47.9194880" lon="8.3570660">
        <ele>365.4</ele>
        <time>2022-06-07T07:29:23Z</time>
      </trkpt>
      <trkpt lat="47.9195450" lon="8.3571660">
        <ele>365.6</ele>
        <time>2022-06-07T07:29:27Z</time>
      </trkpt>
      <trkpt lat="47.9196000" lon="8.3572650">
        <ele>364.6</ele>
        <time>2022-06-07T07:29:31Z</time>
      </trkpt>
      <trkpt lat="47.9196580" lon="8.3573780">
        <ele>364.2</ele>
        <time>2022-06-07T07:29:35Z</time>
      </trkpt>
      <trkpt lat="47.9197000" lon="8.3574580">
        <ele>363.6</ele>
        <time>2022-06-07T07:29:39Z</time>
      </trkpt>
      <trkpt lat="47.9197000" lon="8.3574580">
        <ele>364.6</ele>
        <time>2022-06-07T07:29:43Z</time>
      </trkpt>
      <trkpt lat="47.9197000" lon="8.3574580">
        <ele>364.4</ele>
        <time>2022-06-07T07:29:47Z</time>
      </trkpt>
      <trkpt lat="47.9197000" lon="8.3574580">
        <ele>364.6</ele>
        <time>2022-06-07T07:29:51Z</time>
      </trkpt>
      <trkpt lat="47.9197000" lon="8.3574580">
        <ele>363.8</ele>
        <time>2022-06-07T07:29:55Z</time>
      </trkpt>
      <trkpt lat="47.9197000" lon="8.3574580">
        <ele>364.2</ele>
        <time>2022-06-07T07:29:59Z</time>
      </trkpt>
      <trkpt lat="47.9197000" lon="8.3574580">
        <ele>364.4</ele>
        <time>2022-06-07T07:30:03Z</time>
      </trkpt>
      <trkpt lat="47.9197000" lon="8.3574580">
        <ele>364.4</ele>
        <time>2022-06-07T07:30:07Z</time>
      </trkpt>
      <trkpt lat="47.9197160" lon="8.3574660">
        <ele>363.8</ele>
        <time>2022-06-07T07:30:11Z</time>
      </trkpt>
      <trkpt lat="47.9196910" lon="8.3574360">
        <ele>364.4</ele>
        <time>2022-06-07T07:30:15Z</time>
      </trkpt>
      <trkpt lat="47.9196430" lon="8.3573900">
        <ele>364.6</ele>
        <time>2022-06-07T07:30:19Z</time>
      </trkpt>
      <trkpt lat="47.9196050" lon="8.3573080">
        <ele>365.0</ele>
        <time>2022-06-07T07:30:23Z</time>
      </trkpt>
      <trkpt lat="47.9195610" lon="8.3572250">
        <ele>365.4</ele>
        <time>2022-06-07T07:30:27Z</time>
      </trkpt>
      <trkpt lat="47.9195080" lon="8.3571360">
        <ele>365.6</ele>
        <time>2022-06-07T07:30:31Z</time>
      </trkpt>
      <trkpt lat="47.9194530" lon="8.3570500">
        <ele>365.6</ele>
        <time>2022-06-07T07:30:35Z</time>
      </trkpt>
      <trkpt lat="47.9194210" lon="8.3569660">
        <ele>366.0</ele>
        <time>2022-06-07T07:30:39Z</time>
      </trkpt>
      <trkpt lat="47.9194950" lon="8.3569000">
        <ele>366.0</ele>
        <time>2022-06-07T07:30:43Z</time>
      </trkpt>
      <trkpt lat="47.9196060" lon="8.3568560">
        <ele>366.8</ele>
        <time>2022-06-07T07:30:47Z</time>
      </trkpt>
      <trkpt lat="47.9197280" lon="8.3567950">
        <ele>367.0</ele>
        <time>2022-06-07T07:30:51Z</time>
      </trkpt>
      <trkpt lat="47.9198400" lon="8.3567330">
        <ele>367.2</ele>
        <time>2022-06-07T07:30:55Z</time>
      </trkpt>
      <trkpt lat="47.9199610" lon="8.3566680">
        <ele>367.2</ele>
        <time>2022-06-07T07:30:59Z</time>
      </trkpt>
      <trkpt lat="47.9200860" lon="8.3565950">
        <ele>367.2</ele>
        <time>2022-06-07T07:31:03Z</time>
      </trkpt>
      <trkpt lat="47.9202050" lon="8.3565160">
        <ele>367.0</ele>
        <time>2022-06-07T07:31:07Z</time>
      </trkpt>
      <trkpt lat="47.9203200" lon="8.3564350">
        <ele>367.6</ele>
        <time>2022-06-07T07:31:11Z</time>
      </trkpt>
      <trkpt lat="47.9204350" lon="8.3563400">
        <ele>368.0</ele>
        <time>2022-06-07T07:31:15Z</time>
      </trkpt>
      <trkpt lat="47.9205450" lon="8.3562380">
        <ele>367.4</ele>
        <time>2022-06-07T07:31:19Z</time>
      </trkpt>
      <trkpt lat="47.9206580" lon="8.3561330">
        <ele>367.8</ele>
        <time>2022-06-07T07:31:23Z</time>
      </trkpt>
      <trkpt lat="47.9207710" lon="8.3560150">
        <ele>367.6</ele>
        <time>2022-06-07T07:31:27Z</time>
      </trkpt>
      <trkpt lat="47.9208900" lon="8.3558860">
        <ele>368.0</ele>
        <time>2022-06-07T07:31:31Z</time>
      </trkpt>
      <trkpt lat="47.9210060" lon="8.3557400">
        <ele>368.0</ele>
        <time>2022-06-07T07:31:35Z</time>
      </trkpt>
      <trkpt lat="47.9211280" lon="8.3555910">
        <ele>367.8</ele>
        <time>2022-06-07T07:31:39Z</time>
      </trkpt>
      <trkpt lat="47.9212460" lon="8.3554310">
        <ele>368.2</ele>
        <time>2022-06-07T07:31:43Z</time>
      </trkpt>
      <trkpt lat="47.9213710" lon="8.3552830">
        <ele>367.6</ele>
        <time>2022-06-07T07:31:47Z</time>
      </trkpt>
      <trkpt lat="47.9215060" lon="8.3551460">
        <ele>368.0</ele>
        <time>2022-06-07T07:31:51Z</time>
      </trkpt>
      <trkpt lat="47.9216500" lon="8.3550200">
        <ele>366.8</ele>
        <time>2022-06-07T07:31:55Z</time>
      </trkpt>
      <trkpt lat="47.9218130" lon="8.3549100">
        <ele>366.6</ele>
        <time>2022-06-07T07:31:59Z</time>
      </trkpt>
      <trkpt lat="47.9219980" lon="8.3548410">
        <ele>366.6</ele>
        <time>2022-06-07T07:32:03Z</time>
      </trkpt>
      <trkpt lat="47.9221830" lon="8.3548230">
        <ele>366.6</ele>
        <time>2022-06-07T07:32:07Z</time>
      </trkpt>
      <trkpt lat="47.9223650" lon="8.3548630">
        <ele>365.2</ele>
        <time>2022-06-07T07:32:11Z</time>
      </trkpt>
      <trkpt lat="47.9225410" lon="8.3549350">
        <ele>365.8</ele>
        <time>2022-06-07T07:32:15Z</time>
      </trkpt>
      <trkpt lat="47.9227160" lon="8.3550100">
        <ele>365.4</ele>
        <time>2022-06-07T07:32:19Z</time>
      </trkpt>
      <trkpt lat="47.9228860" lon="8.3550860">
        <ele>366.4</ele>
        <time>2022-06-07T07:32:23Z</time>
      </trkpt>
      <trkpt lat="47.9230430" lon="8.3551600">
        <ele>366.6</ele>
        <time>2022-06-07T07:32:27Z</time>
      </trkpt>
      <trkpt lat="47.9231860" lon="8.3552030">
        <ele>367.0</ele>
        <time>2022-06-07T07:32:31Z</time>
      </trkpt>
      <trkpt lat="47.9232930" lon="8.3552000">
        <ele>367.4</ele>
        <time>2022-06-07T07:32:35Z</time>
      </trkpt>
      <trkpt lat="47.9232510" lon="8.3551810">
        <ele>367.8</ele>
        <time>2022-06-07T07:32:39Z</time>
      </trkpt>
      <trkpt lat="47.9232510" lon="8.3552960">
        <ele>366.4</ele>
        <time>2022-06-07T07:32:43Z</time>
      </trkpt>
      <trkpt lat="47.9232510" lon="8.3552960">
        <ele>366.8</ele>
        <time>2022-06-07T07:32:47Z</time>
      </trkpt>
      <trkpt lat="47.9232510" lon="8.3552960">
        <ele>366.8</ele>
        <time>2022-06-07T07:32:51Z</time>
      </trkpt>
      <trkpt lat="47.9232510" lon="8.3552960">
        <ele>366.8</ele>
        <time>2022-06-07T07:32:55Z</time>
      </trkpt>
      <trkpt lat="47.9232510" lon="8.3552960">
        <ele>367.0</ele>
        <time>2022-06-07T07:32:59Z</time>
      </trkpt>
      <trkpt lat="47.9232510" lon="8.3552960">
        <ele>366.8</ele>
        <time>2022-06-07T07:33:03Z</time>
      </trkpt>
      <trkpt lat="47.9232510" lon="8.3552960">
        <ele>367.2</ele>
        <time>2022-06-07T07:33:07Z</time>
      </trkpt>
      <trkpt lat="47.9232630" lon="8.3553000">
        <ele>367.4</ele>
        <time>2022-06-07T07:33:11Z</time>
      </trkpt>
      <trkpt lat="47.9232630" lon="8.3553000">
        <ele>367.2</ele>
        <time>2022-06-07T07:33:15Z</time>
      </trkpt>
      <trkpt lat="47.9232560" lon="8.3552830">
        <ele>367.6</ele>
        <time>2022-06-07T07:33:19Z</time>
      </trkpt>
      <trkpt lat="47.9232530" lon="8.3552260">
        <ele>367.4</ele>
        <time>2022-06-07T07:33:23Z</time>
      </trkpt>
      <trkpt lat="47.9233150" lon="8.3551910">
        <ele>368.2</ele>
        <time>2022-06-07T07:33:27Z</time>
      </trkpt>
      <trkpt lat="47.9234100" lon="8.3551610">
        <ele>368.0</ele>
        <time>2022-06-07T07:33:31Z</time>
      </trkpt>
      <trkpt lat="47.9235050" lon="8.3550800">
        <ele>368.4</ele>
        <time>2022-06-07T07:33:35Z</time>
      </trkpt>
      <trkpt lat="47.9236000" lon="8.3549930">
        <ele>370.0</ele>
        <time>2022-06-07T07:33:39Z</time>
      </trkpt>
      <trkpt lat="47.9236860" lon="8.3548910">
        <ele>370.2</ele>
        <time>2022-06-07T07:33:43Z</time>
      </trkpt>
      <trkpt lat="47.9237600" lon="8.3547950">
        <ele>371.6</ele>
        <time>2022-06-07T07:33:47Z</time>
      </trkpt>
      <trkpt lat="47.9238250" lon="8.3546900">
        <ele>371.4</ele>
        <time>2022-06-07T07:33:51Z</time>
      </trkpt>
      <trkpt lat="47.9238910" lon="8.3545680">
        <ele>372.4</ele>
        <time>2022-06-07T07:33:55Z</time>
      </trkpt>
      <trkpt lat="47.9239530" lon="8.3544600">
        <ele>372.4</ele>
        <time>2022-06-07T07:33:59Z</time>
      </trkpt>
      <trkpt lat="47.9240080" lon="8.3543530">
        <ele>373.6</ele>
        <time>2022-06-07T07:34:03Z</time>
      </trkpt>
      <trkpt lat="47.9240710" lon="8.3542610">
        <ele>374.0</ele>
        <time>2022-06-07T07:34:07Z</time>
      </trkpt>
      <trkpt lat="47.9241430" lon="8.3541650">
        <ele>374.6</ele>
        <time>2022-06-07T07:34:11Z</time>
      </trkpt>
      <trkpt lat="47.9242080" lon="8.3540800">
        <ele>375.0</ele>
        <time>2022-06-07T07:34:15Z</time>
      </trkpt>
      <trkpt lat="47.9242830" lon="8.3540180">
        <ele>375.2</ele>
        <time>2022-06-07T07:34:19Z</time>
      </trkpt>
      <trkpt lat="47.9243650" lon="8.3539580">
        <ele>376.4</ele>
        <time>2022-06-07T07:34:23Z</time>
      </trkpt>
      <trkpt lat="47.9244500" lon="8.3539060">
        <ele>377.2</ele>
        <time>2022-06-07T07:34:27Z</time>
      </trkpt>
      <trkpt lat="47.9245380" lon="8.3538730">
        <ele>377.2</ele>
        <time>2022-06-07T07:34:31Z</time>
      </trkpt>
      <trkpt lat="47.9246280" lon="8.3538530">
        <ele>377.4</ele>
        <time>2022-06-07T07:34:35Z</time>
      </trkpt>
      <trkpt lat="47.9247200" lon="8.3538400">
        <ele>378.2</ele>
        <time>2022-06-07T07:34:39Z</time>
      </trkpt>
      <trkpt lat="47.9248260" lon="8.3538500">
        <ele>378.6</ele>
        <time>2022-06-07T07:34:43Z</time>
      </trkpt>
      <trkpt lat="47.9249580" lon="8.3538730">
        <ele>378.4</ele>
        <time>2022-06-07T07:34:47Z</time>
      </trkpt>
      <trkpt lat="47.9251030" lon="8.3539300">
        <ele>379.0</ele>
        <time>2022-06-07T07:34:51Z</time>
      </trkpt>
      <trkpt lat="47.9252600" lon="8.3540100">
        <ele>378.4</ele>
        <time>2022-06-07T07:34:55Z</time>
      </trkpt>
      <trkpt lat="47.9254060" lon="8.3541080">
        <ele>378.6</ele>
        <time>2022-06-07T07:34:59Z</time>
      </trkpt>
      <trkpt lat="47.9255360" lon="8.3542230">
        <ele>378.8</ele>
        <time>2022-06-07T07:35:03Z</time>
      </trkpt>
      <trkpt lat="47.9256700" lon="8.3543530">
        <ele>378.6</ele>
        <time>2022-06-07T07:35:07Z</time>
      </trkpt>
      <trkpt lat="47.9258080" lon="8.3544880">
        <ele>378.4</ele>
        <time>2022-06-07T07:35:11Z</time>
      </trkpt>
      <trkpt lat="47.9259480" lon="8.3546260">
        <ele>378.4</ele>
        <time>2022-06-07T07:35:15Z</time>
      </trkpt>
      <trkpt lat="47.9260950" lon="8.3547730">
        <ele>377.6</ele>
        <time>2022-06-07T07:35:19Z</time>
      </trkpt>
      <trkpt lat="47.9262560" lon="8.3549260">
        <ele>377.4</ele>
        <time>2022-06-07T07:35:23Z</time>
      </trkpt>
      <trkpt lat="47.9264360" lon="8.3551100">
        <ele>376.4</ele>
        <time>2022-06-07T07:35:27Z</time>
      </trkpt>
      <trkpt lat="47.9266360" lon="8.3553060">
        <ele>374.6</ele>
        <time>2022-06-07T07:35:31Z</time>
      </trkpt>
      <trkpt lat="47.9268510" lon="8.3555200">
        <ele>373.2</ele>
        <time>2022-06-07T07:35:35Z</time>
      </trkpt>
      <trkpt lat="47.9270800" lon="8.3557430">
        <ele>372.2</ele>
        <time>2022-06-07T07:35:39Z</time>
      </trkpt>
      <trkpt lat="47.9273250" lon="8.3559810">
        <ele>371.8</ele>
        <time>2022-06-07T07:35:43Z</time>
      </trkpt>
      <trkpt lat="47.9275800" lon="8.3562330">
        <ele>370.0</ele>
        <time>2022-06-07T07:35:47Z</time>
      </trkpt>
      <trkpt lat="47.9278450" lon="8.3564960">
        <ele>367.2</ele>
        <time>2022-06-07T07:35:51Z</time>
      </trkpt>
      <trkpt lat="47.9281100" lon="8.3567610">
        <ele>369.0</ele>
        <time>2022-06-07T07:35:55Z</time>
      </trkpt>
      <trkpt lat="47.9283660" lon="8.3570200">
        <ele>365.8</ele>
        <time>2022-06-07T07:35:59Z</time>
      </trkpt>
      <trkpt lat="47.9286150" lon="8.3572550">
        <ele>365.6</ele>
        <time>2022-06-07T07:36:03Z</time>
      </trkpt>
      <trkpt lat="47.9287230" lon="8.3575110">
        <ele>364.6</ele>
        <time>2022-06-07T07:36:07Z</time>
      </trkpt>
      <trkpt lat="47.9285860" lon="8.3577600">
        <ele>365.0</ele>
        <time>2022-06-07T07:36:11Z</time>
      </trkpt>
      <trkpt lat="47.9284450" lon="8.3580100">
        <ele>365.2</ele>
        <time>2022-06-07T07:36:15Z</time>
      </trkpt>
      <trkpt lat="47.9283130" lon="8.3582460">
        <ele>365.0</ele>
        <time>2022-06-07T07:36:19Z</time>
      </trkpt>
      <trkpt lat="47.9281950" lon="8.3584630">
        <ele>364.6</ele>
        <time>2022-06-07T07:36:23Z</time>
      </trkpt>
      <trkpt lat="47.9280780" lon="8.3586410">
        <ele>365.0</ele>
        <time>2022-06-07T07:36:27Z</time>
      </trkpt>
      <trkpt lat="47.9279700" lon="8.3588000">
        <ele>364.8</ele>
        <time>2022-06-07T07:36:31Z</time>
      </trkpt>
      <trkpt lat="47.9278630" lon="8.3589400">
        <ele>364.8</ele>
        <time>2022-06-07T07:36:35Z</time>
      </trkpt>
      <trkpt lat="47.9277550" lon="8.3590660">
        <ele>364.8</ele>
        <time>2022-06-07T07:36:39Z</time>
      </trkpt>
      <trkpt lat="47.9276380" lon="8.3591910">
        <ele>364.6</ele>
        <time>2022-06-07T07:36:43Z</time>
      </trkpt>
      <trkpt lat="47.9275250" lon="8.3592880">
        <ele>364.8</ele>
        <time>2022-06-07T07:36:47Z</time>
      </trkpt>
      <trkpt lat="47.9274180" lon="8.3593750">
        <ele>364.8</ele>
        <time>2022-06-07T07:36:51Z</time>
      </trkpt>
      <trkpt lat="47.9273130" lon="8.3594630">
        <ele>364.6</ele>
        <time>2022-06-07T07:36:55Z</time>
      </trkpt>
      <trkpt lat="47.9272050" lon="8.3595430">
        <ele>364.8</ele>
        <time>2022-06-07T07:36:59Z</time>
      </trkpt>
      <trkpt lat="47.9271010" lon="8.3596030">
        <ele>364.8</ele>
        <time>2022-06-07T07:37:03Z</time>
      </trkpt>
      <trkpt lat="47.9269810" lon="8.3596910">
        <ele>364.6</ele>
        <time>2022-06-07T07:37:07Z</time>
      </trkpt>
      <trkpt lat="47.9268350" lon="8.3597930">
        <ele>364.8</ele>
        <time>2022-06-07T07:37:11Z</time>
      </trkpt>
      <trkpt lat="47.9266750" lon="8.3598900">
        <ele>364.6</ele>
        <time>2022-06-07T07:37:15Z</time>
      </trkpt>
      <trkpt lat="47.9265210" lon="8.3599930">
        <ele>364.8</ele>
        <time>2022-06-07T07:37:19Z</time>
      </trkpt>
      <trkpt lat="47.9263710" lon="8.3601010">
        <ele>364.6</ele>
        <time>2022-06-07T07:37:23Z</time>
      </trkpt>
      <trkpt lat="47.9262300" lon="8.3602250">
        <ele>364.6</ele>
        <time>2022-06-07T07:37:27Z</time>
      </trkpt>
      <trkpt lat="47.9260910" lon="8.3603680">
        <ele>364.6</ele>
        <time>2022-06-07T07:37:31Z</time>
      </trkpt>
      <trkpt lat="47.9259530" lon="8.3605110">
        <ele>364.8</ele>
        <time>2022-06-07T07:37:35Z</time>
      </trkpt>
      <trkpt lat="47.9258280" lon="8.3606560">
        <ele>365.0</ele>
        <time>2022-06-07T07:37:39Z</time>
      </trkpt>
      <trkpt lat="47.9257180" lon="8.3608060">
        <ele>364.6</ele>
        <time>2022-06-07T07:37:43Z</time>
      </trkpt>
      <trkpt lat="47.9256160" lon="8.3609700">
        <ele>364.8</ele>
        <time>2022-06-07T07:37:47Z</time>
      </trkpt>
      <trkpt lat="47.9255230" lon="8.3611510">
        <ele>364.4</ele>
        <time>2022-06-07T07:37:51Z</time>
      </trkpt>
      <trkpt lat="47.9254360" lon="8.3613410">
        <ele>364.8</ele>
        <time>2022-06-07T07:37:55Z</time>
      </trkpt>
      <trkpt lat="47.9253610" lon="8.3615280">
        <ele>364.6</ele>
        <time>2022-06-07T07:37:59Z</time>
      </trkpt>
      <trkpt lat="47.9252860" lon="8.3617130">
        <ele>365.2</ele>
        <time>2022-06-07T07:38:03Z</time>
      </trkpt>
      <trkpt lat="47.9252060" lon="8.3619050">
        <ele>365.0</ele>
        <time>2022-06-07T07:38:07Z</time>
      </trkpt>
      <trkpt lat="47.9251330" lon="8.3621000">
        <ele>365.0</ele>
        <time>2022-06-07T07:38:11Z</time>
      </trkpt>
      <trkpt lat="47.9250600" lon="8.3622960">
        <ele>364.8</ele>
        <time>2022-06-07T07:38:15Z</time>
      </trkpt>
      <trkpt lat="47.9249980" lon="8.3624910">
        <ele>365.4</ele>
        <time>2022-06-07T07:38:19Z</time>
      </trkpt>
      <trkpt lat="47.9249430" lon="8.3626830">
        <ele>365.2</ele>
        <time>2022-06-07T07:38:23Z</time>
      </trkpt>
      <trkpt lat="47.9248850" lon="8.3628760">
        <ele>365.0</ele>
        <time>2022-06-07T07:38:27Z</time>
      </trkpt>
      <trkpt lat="47.9248280" lon="8.3630860">
        <ele>365.4</ele>
        <time>2022-06-07T07:38:31Z</time>
      </trkpt>
      <trkpt lat="47.9247660" lon="8.3632930">
        <ele>365.2</ele>
        <time>2022-06-07T07:38:35Z</time>
      </trkpt>
      <trkpt lat="47.9247110" lon="8.3634960">
        <ele>365.2</ele>
        <time>2022-06-07T07:38:39Z</time>
      </trkpt>
      <trkpt lat="47.9247030" lon="8.3637150">
        <ele>364.8</ele>
        <time>2022-06-07T07:38:43Z</time>
      </trkpt>
      <trkpt lat="47.9247100" lon="8.3639480">
        <ele>364.4</ele>
        <time>2022-06-07T07:38:47Z</time>
      </trkpt>
      <trkpt lat="47.9247200" lon="8.3641980">
        <ele>364.2</ele>
        <time>2022-06-07T07:38:51Z</time>
      </trkpt>
      <trkpt lat="47.9247260" lon="8.3644600">
        <ele>363.6</ele>
        <time>2022-06-07T07:38:55Z</time>
      </trkpt>
      <trkpt lat="47.9247410" lon="8.3647060">
        <ele>363.4</ele>
        <time>2022-06-07T07:38:59Z</time>
      </trkpt>
      <trkpt lat="47.9247580" lon="8.3649510">
        <ele>363.6</ele>
        <time>2022-06-07T07:39:03Z</time>
      </trkpt>
      <trkpt lat="47.9247800" lon="8.3651900">
        <ele>363.6</ele>
        <time>2022-06-07T07:39:07Z</time>
      </trkpt>
      <trkpt lat="47.9248030" lon="8.3654330">
        <ele>363.2</ele>
        <time>2022-06-07T07:39:11Z</time>
      </trkpt>
      <trkpt lat="47.9248200" lon="8.3656880">
        <ele>363.2</ele>
        <time>2022-06-07T07:39:15Z</time>
      </trkpt>
      <trkpt lat="47.9248460" lon="8.3659350">
        <ele>363.2</ele>
        <time>2022-06-07T07:39:19Z</time>
      </trkpt>
      <trkpt lat="47.9248800" lon="8.3661850">
        <ele>363.2</ele>
        <time>2022-06-07T07:39:23Z</time>
      </trkpt>
      <trkpt lat="47.9249080" lon="8.3664410">
        <ele>363.2</ele>
        <time>2022-06-07T07:39:27Z</time>
      </trkpt>
      <trkpt lat="47.9249380" lon="8.3666910">
        <ele>363.2</ele>
        <time>2022-06-07T07:39:31Z</time>
      </trkpt>
      <trkpt lat="47.9249630" lon="8.3669330">
        <ele>362.8</ele>
        <time>2022-06-07T07:39:35Z</time>
      </trkpt>
      <trkpt lat="47.9249880" lon="8.3671850">
        <ele>363.0</ele>
        <time>2022-06-07T07:39:39Z</time>
      </trkpt>
      <trkpt lat="47.9250160" lon="8.3674460">
        <ele>362.4</ele>
        <time>2022-06-07T07:39:43Z</time>
      </trkpt>
      <trkpt lat="47.9250380" lon="8.3677110">
        <ele>362.6</ele>
        <time>2022-06-07T07:39:47Z</time>
      </trkpt>
      <trkpt lat="47.9250760" lon="8.3679700">
        <ele>362.0</ele>
        <time>2022-06-07T07:39:51Z</time>
      </trkpt>
      <trkpt lat="47.9251050" lon="8.3682310">
        <ele>361.6</ele>
        <time>2022-06-07T07:39:55Z</time>
      </trkpt>
      <trkpt lat="47.9251350" lon="8.3684910">
        <ele>361.6</ele>
        <time>2022-06-07T07:39:59Z</time>
      </trkpt>
      <trkpt lat="47.9251710" lon="8.3687460">
        <ele>361.2</ele>
        <time>2022-06-07T07:40:03Z</time>
      </trkpt>
      <trkpt lat="47.9251910" lon="8.3690110">
        <ele>360.0</ele>
        <time>2022-06-07T07:40:07Z</time>
      </trkpt>
      <trkpt lat="47.9251810" lon="8.3692700">
        <ele>360.4</ele>
        <time>2022-06-07T07:40:11Z</time>
      </trkpt>
      <trkpt lat="47.9251650" lon="8.3695130">
        <ele>360.8</ele>
        <time>2022-06-07T07:40:15Z</time>
      </trkpt>
      <trkpt lat="47.9251630" lon="8.3697400">
        <ele>360.6</ele>
        <time>2022-06-07T07:40:19Z</time>
      </trkpt>
      <trkpt lat="47.9251660" lon="8.3699750">
        <ele>360.6</ele>
        <time>2022-06-07T07:40:23Z</time>
      </trkpt>
      <trkpt lat="47.9251730" lon="8.3701910">
        <ele>360.4</ele>
        <time>2022-06-07T07:40:27Z</time>
      </trkpt>
      <trkpt lat="47.9251860" lon="8.3703560">
        <ele>360.4</ele>
        <time>2022-06-07T07:40:31Z</time>
      </trkpt>
      <trkpt lat="47.9251960" lon="8.3705300">
        <ele>360.0</ele>
        <time>2022-06-07T07:40:35Z</time>
      </trkpt>
      <trkpt lat="47.9252010" lon="8.3707310">
        <ele>360.0</ele>
        <time>2022-06-07T07:40:39Z</time>
      </trkpt>
      <trkpt lat="47.9252100" lon="8.3709210">
        <ele>360.2</ele>
        <time>2022-06-07T07:40:43Z</time>
      </trkpt>
      <trkpt lat="47.9252130" lon="8.3710960">
        <ele>360.4</ele>
        <time>2022-06-07T07:40:47Z</time>
      </trkpt>
      <trkpt lat="47.9252280" lon="8.3712400">
        <ele>360.6</ele>
        <time>2022-06-07T07:40:51Z</time>
      </trkpt>
      <trkpt lat="47.9253280" lon="8.3713150">
        <ele>359.8</ele>
        <time>2022-06-07T07:40:55Z</time>
      </trkpt>
      <trkpt lat="47.9254230" lon="8.3713780">
        <ele>358.6</ele>
        <time>2022-06-07T07:40:59Z</time>
      </trkpt>
      <trkpt lat="47.9254230" lon="8.3713780">
        <ele>359.2</ele>
        <time>2022-06-07T07:41:03Z</time>
      </trkpt>
      <trkpt lat="47.9254230" lon="8.3713780">
        <ele>358.6</ele>
        <time>2022-06-07T07:41:07Z</time>
      </trkpt>
      <trkpt lat="47.9254230" lon="8.3713780">
        <ele>358.2</ele>
        <time>2022-06-07T07:41:11Z</time>
      </trkpt>
      <trkpt lat="47.9254230" lon="8.3713780">
        <ele>358.6</ele>
        <time>2022-06-07T07:41:15Z</time>
      </trkpt>
      <trkpt lat="47.9254230" lon="8.3713780">
        <ele>358.2</ele>
        <time>2022-06-07T07:41:19Z</time>
      </trkpt>
      <trkpt lat="47.9254230" lon="8.3713780">
        <ele>358.4</ele>
        <time>2022-06-07T07:41:23Z</time>
      </trkpt>
      <trkpt lat="47.9254230" lon="8.3713780">
        <ele>358.6</ele>
        <time>2022-06-07T07:41:27Z</time>
      </trkpt>
      <trkpt lat="47.9254230" lon="8.3713780">
        <ele>358.8</ele>
        <time>2022-06-07T07:41:31Z</time>
      </trkpt>
      <trkpt lat="47.9254230" lon="8.3713780">
        <ele>359.2</ele>
        <time>2022-06-07T07:41:35Z</time>
      </trkpt>
      <trkpt lat="47.9254230" lon="8.3713780">
        <ele>358.6</ele>
        <time>2022-06-07T07:41:39Z</time>
      </trkpt>
      <trkpt lat="47.9254230" lon="8.3713780">
        <ele>359.0</ele>
        <time>2022-06-07T07:41:43Z</time>
      </trkpt>
      <trkpt lat="47.9254230" lon="8.3713780">
        <ele>358.6</ele>
        <time>2022-06-07T07:41:47Z</time>
      </trkpt>
      <trkpt lat="47.9254230" lon="8.3713780">
        <ele>358.8</ele>
        <time>2022-06-07T07:41:51Z</time>
      </trkpt>
      <trkpt lat="47.9254230" lon="8.3713780">
        <ele>359.0</ele>
        <time>2022-06-07T07:41:55Z</time>
      </trkpt>
      <trkpt lat="47.9254230" lon="8.3713780">
        <ele>358.8</ele>
        <time>2022-06-07T07:41:59Z</time>
      </trkpt>
      <trkpt lat="47.9254230" lon="8.3713780">
        <ele>358.8</ele>
        <time>2022-06-07T07:42:03Z</time>
      </trkpt>
      <trkpt lat="47.9254230" lon="8.3713780">
        <ele>358.8</ele>
        <time>2022-06-07T07:42:07Z</time>
      </trkpt>
      <trkpt lat="47.9254230" lon="8.3713780">
        <ele>358.6</ele>
        <time>2022-06-07T07:42:11Z</time>
      </trkpt>
      <trkpt lat="47.9254230" lon="8.3713780">
        <ele>358.8</ele>
        <time>2022-06-07T07:42:15Z</time>
      </trkpt>
      <trkpt lat="47.9254230" lon="8.3713780">
        <ele>358.6</ele>
        <time>2022-06-07T07:42:19Z</time>
      </trkpt>
      <trkpt lat="47.9254230" lon="8.3713780">
        <ele>359.2</ele>
        <time>2022-06-07T07:42:23Z</time>
      </trkpt>
      <trkpt lat="47.9254230" lon="8.3713780">
        <ele>359.0</ele>
        <time>2022-06-07T07:42:27Z</time>
      </trkpt>
      <trkpt lat="47.9254230" lon="8.3713780">
        <ele>358.6</ele>
        <time>2022-06-07T07:42:31Z</time>
      </trkpt>
      <trkpt lat="47.9254230" lon="8.3713780">
        <ele>359.2</ele>
        <time>2022-06-07T07:42:35Z</time>
      </trkpt>
      <trkpt lat="47.9254230" lon="8.3713780">
        <ele>359.2</ele>
        <time>2022-06-07T07:42:39Z</time>
      </trkpt>
      <trkpt lat="47.9254230" lon="8.3713780">
        <ele>359.2</ele>
        <time>2022-06-07T07:42:43Z</time>
      </trkpt>
      <trkpt lat="47.9254230" lon="8.3713780">
        <ele>359.0</ele>
        <time>2022-06-07T07:42:47Z</time>
      </trkpt>
      <trkpt lat="47.9254230" lon="8.3713780">
        <ele>359.0</ele>
        <time>2022-06-07T07:42:51Z</time>
      </trkpt>
      <trkpt lat="47.9254230" lon="8.3713780">
        <ele>359.0</ele>
        <time>2022-06-07T07:42:55Z</time>
      </trkpt>
      <trkpt lat="47.9254230" lon="8.3713780">
        <ele>359.2</ele>
        <time>2022-06-07T07:42:59Z</time>
      </trkpt>
      <trkpt lat="47.9254230" lon="8.3713780">
        <ele>358.8</ele>
        <time>2022-06-07T07:43:03Z</time>
      </trkpt>
      <trkpt lat="47.9254230" lon="8.3713780">
        <ele>358.8</ele>
        <time>2022-06-07T07:43:07Z</time>
      </trkpt>
      <trkpt lat="47.9254230" lon="8.3713780">
        <ele>359.0</ele>
        <time>2022-06-07T07:43:11Z</time>
      </trkpt>
      <trkpt lat="47.9254230" lon="8.3713780">
        <ele>359.0</ele>
        <time>2022-06-07T07:43:15Z</time>
      </trkpt>
      <trkpt lat="47.9254230" lon="8.3713780">
        <ele>359.0</ele>
        <time>2022-06-07T07:43:19Z</time>
      </trkpt>
      <trkpt lat="47.9254230" lon="8.3713780">
        <ele>359.0</ele>
        <time>2022-06-07T07:43:23Z</time>
      </trkpt>
      <trkpt lat="47.9254230" lon="8.3713780">
        <ele>359.0</ele>
        <time>2022-06-07T07:43:27Z</time>
      </trkpt>
      <trkpt lat="47.9254230" lon="8.3713780">
        <ele>359.2</ele>
        <time>2022-06-07T07:43:31Z</time>
      </trkpt>
      <trkpt lat="47.9254230" lon="8.3713780">
        <ele>359.2</ele>
        <time>2022-06-07T07:43:35Z</time>
      </trkpt>
      <trkpt lat="47.9254500" lon="8.3714230">
        <ele>359.2</ele>
        <time>2022-06-07T07:43:39Z</time>
      </trkpt>
      <trkpt lat="47.9254300" lon="8.3714080">
        <ele>358.6</ele>
        <time>2022-06-07T07:43:43Z</time>
      </trkpt>
      <trkpt lat="47.9254500" lon="8.3713600">
        <ele>359.4</ele>
        <time>2022-06-07T07:43:47Z</time>
      </trkpt>
      <trkpt lat="47.9254750" lon="8.3713110">
        <ele>359.4</ele>
        <time>2022-06-07T07:43:51Z</time>
      </trkpt>
      <trkpt lat="47.9254660" lon="8.3712550">
        <ele>359.6</ele>
        <time>2022-06-07T07:43:55Z</time>
      </trkpt>
      <trkpt lat="47.9254660" lon="8.3712550">
        <ele>359.2</ele>
        <time>2022-06-07T07:43:59Z</time>
      </trkpt>
      <trkpt lat="47.9254660" lon="8.3712550">
        <ele>359.8</ele>
        <time>2022-06-07T07:44:03Z</time>
      </trkpt>
      <trkpt lat="47.9254660" lon="8.3712550">
        <ele>359.6</ele>
        <time>2022-06-07T07:44:07Z</time>
      </trkpt>
      <trkpt lat="47.9254660" lon="8.3712550">
        <ele>359.4</ele>
        <time>2022-06-07T07:44:11Z</time>
      </trkpt>
      <trkpt lat="47.9254660" lon="8.3712550">
        <ele>360.0</ele>
        <time>2022-06-07T07:44:15Z</time>
      </trkpt>
      <trkpt lat="47.9254660" lon="8.3712550">
        <ele>360.0</ele>
        <time>2022-06-07T07:44:19Z</time>
      </trkpt>
      <trkpt lat="47.9254660" lon="8.3712550">
        <ele>359.6</ele>
        <time>2022-06-07T07:44:23Z</time>
      </trkpt>
      <trkpt lat="47.9254660" lon="8.3712550">
        <ele>360.4</ele>
        <time>2022-06-07T07:44:27Z</time>
      </trkpt>
      <trkpt lat="47.9254660" lon="8.3712550">
        <ele>360.0</ele>
        <time>2022-06-07T07:44:31Z</time>
      </trkpt>
      <trkpt lat="47.9254660" lon="8.3712550">
        <ele>360.6</ele>
        <time>2022-06-07T07:44:35Z</time>
      </trkpt>
      <trkpt lat="47.9254660" lon="8.3712550">
        <ele>360.0</ele>
        <time>2022-06-07T07:44:39Z</time>
      </trkpt>
      <trkpt lat="47.9254660" lon="8.3712550">
        <ele>360.2</ele>
        <time>2022-06-07T07:44:43Z</time>
      </trkpt>
      <trkpt lat="47.9254660" lon="8.3712550">
        <ele>360.4</ele>
        <time>2022-06-07T07:44:47Z</time>
      </trkpt>
      <trkpt lat="47.9254280" lon="8.3712780">
        <ele>359.8</ele>
        <time>2022-06-07T07:44:51Z</time>
      </trkpt>
      <trkpt lat="47.9253950" lon="8.3713130">
        <ele>360.2</ele>
        <time>2022-06-07T07:44:55Z</time>
      </trkpt>
      <trkpt lat="47.9253480" lon="8.3713450">
        <ele>360.4</ele>
        <time>2022-06-07T07:44:59Z</time>
      </trkpt>
      <trkpt lat="47.9253100" lon="8.3713000">
        <ele>360.6</ele>
        <time>2022-06-07T07:45:03Z</time>
      </trkpt>
      <trkpt lat="47.9252500" lon="8.3713180">
        <ele>361.2</ele>
        <time>2022-06-07T07:45:07Z</time>
      </trkpt>
      <trkpt lat="47.9252230" lon="8.3713950">
        <ele>361.8</ele>
        <time>2022-06-07T07:45:11Z</time>
      </trkpt>
      <trkpt lat="47.9252150" lon="8.3715350">
        <ele>361.8</ele>
        <time>2022-06-07T07:45:15Z</time>
      </trkpt>
      <trkpt lat="47.9252310" lon="8.3716960">
        <ele>361.6</ele>
        <time>2022-06-07T07:45:19Z</time>
      </trkpt>
      <trkpt lat="47.9252330" lon="8.3718800">
        <ele>361.6</ele>
        <time>2022-06-07T07:45:23Z</time>
      </trkpt>
      <trkpt lat="47.9252330" lon="8.3720680">
        <ele>361.2</ele>
        <time>2022-06-07T07:45:27Z</time>
      </trkpt>
      <trkpt lat="47.9252360" lon="8.3722430">
        <ele>360.8</ele>
        <time>2022-06-07T07:45:31Z</time>
      </trkpt>
      <trkpt lat="47.9252450" lon="8.3723960">
        <ele>361.8</ele>
        <time>2022-06-07T07:45:35Z</time>
      </trkpt>
      <trkpt lat="47.9252700" lon="8.3725580">
        <ele>361.8</ele>
        <time>2022-06-07T07:45:39Z</time>
      </trkpt>
      <trkpt lat="47.9253260" lon="8.3727230">
        <ele>361.6</ele>
        <time>2022-06-07T07:45:43Z</time>
      </trkpt>
      <trkpt lat="47.9254250" lon="8.3728500">
        <ele>361.8</ele>
        <time>2022-06-07T07:45:47Z</time>
      </trkpt>
      <trkpt lat="47.9255310" lon="8.3729430">
        <ele>361.2</ele>
        <time>2022-06-07T07:45:51Z</time>
      </trkpt>
      <trkpt lat="47.9256310" lon="8.3730460">
        <ele>361.4</ele>
        <time>2022-06-07T07:45:55Z</time>
      </trkpt>
      <trkpt lat="47.9257280" lon="8.3731280">
        <ele>361.8</ele>
        <time>2022-06-07T07:45:59Z</time>
      </trkpt>
      <trkpt lat="47.9258330" lon="8.3732430">
        <ele>361.6</ele>
        <time>2022-06-07T07:46:03Z</time>
      </trkpt>
      <trkpt lat="47.9259350" lon="8.3733580">
        <ele>362.0</ele>
        <time>2022-06-07T07:46:07Z</time>
      </trkpt>
      <trkpt lat="47.9260230" lon="8.3734900">
        <ele>361.8</ele>
        <time>2022-06-07T07:46:11Z</time>
      </trkpt>
      <trkpt lat="47.9261150" lon="8.3736210">
        <ele>361.8</ele>
        <time>2022-06-07T07:46:15Z</time>
      </trkpt>
      <trkpt lat="47.9261960" lon="8.3737680">
        <ele>361.8</ele>
        <time>2022-06-07T07:46:19Z</time>
      </trkpt>
      <trkpt lat="47.9262760" lon="8.3739030">
        <ele>361.6</ele>
        <time>2022-06-07T07:46:23Z</time>
      </trkpt>
      <trkpt lat="47.9263700" lon="8.3740330">
        <ele>361.0</ele>
        <time>2022-06-07T07:46:27Z</time>
      </trkpt>
      <trkpt lat="47.9264760" lon="8.3741200">
        <ele>361.0</ele>
        <time>2022-06-07T07:46:31Z</time>
      </trkpt>
      <trkpt lat="47.9265830" lon="8.3741730">
        <ele>361.4</ele>
        <time>2022-06-07T07:46:35Z</time>
      </trkpt>
      <trkpt lat="47.9266980" lon="8.3741760">
        <ele>361.6</ele>
        <time>2022-06-07T07:46:39Z</time>
      </trkpt>
      <trkpt lat="47.9268200" lon="8.3741560">
        <ele>361.8</ele>
        <time>2022-06-07T07:46:43Z</time>
      </trkpt>
      <trkpt lat="47.9269410" lon="8.3741150">
        <ele>361.6</ele>
        <time>2022-06-07T07:46:47Z</time>
      </trkpt>
      <trkpt lat="47.9270710" lon="8.3740900">
        <ele>361.6</ele>
        <time>2022-06-07T07:46:51Z</time>
      </trkpt>
      <trkpt lat="47.9271950" lon="8.3740950">
        <ele>361.2</ele>
        <time>2022-06-07T07:46:55Z</time>
      </trkpt>
      <trkpt lat="47.9273110" lon="8.3741210">
        <ele>361.6</ele>
        <time>2022-06-07T07:46:59Z</time>
      </trkpt>
      <trkpt lat="47.9274210" lon="8.3741960">
        <ele>361.8</ele>
        <time>2022-06-07T07:47:03Z</time>
      </trkpt>
      <trkpt lat="47.9275000" lon="8.3743230">
        <ele>362.0</ele>
        <time>2022-06-07T07:47:07Z</time>
      </trkpt>
      <trkpt lat="47.9275380" lon="8.3744660">
        <ele>362.4</ele>
        <time>2022-06-07T07:47:11Z</time>
      </trkpt>
      <trkpt lat="47.9275310" lon="8.3746300">
        <ele>362.8</ele>
        <time>2022-06-07T07:47:15Z</time>
      </trkpt>
      <trkpt lat="47.9275000" lon="8.3747780">
        <ele>363.8</ele>
        <time>2022-06-07T07:47:19Z</time>
      </trkpt>
      <trkpt lat="47.9274510" lon="8.3749010">
        <ele>364.0</ele>
        <time>2022-06-07T07:47:23Z</time>
      </trkpt>
      <trkpt lat="47.9273980" lon="8.3750110">
        <ele>365.0</ele>
        <time>2022-06-07T07:47:27Z</time>
      </trkpt>
      <trkpt lat="47.9273380" lon="8.3751130">
        <ele>365.4</ele>
        <time>2022-06-07T07:47:31Z</time>
      </trkpt>
      <trkpt lat="47.9272730" lon="8.3751950">
        <ele>365.6</ele>
        <time>2022-06-07T07:47:35Z</time>
      </trkpt>
      <trkpt lat="47.9272160" lon="8.3752810">
        <ele>366.8</ele>
        <time>2022-06-07T07:47:39Z</time>
      </trkpt>
      <trkpt lat="47.9271550" lon="8.3753880">
        <ele>367.2</ele>
        <time>2022-06-07T07:47:43Z</time>
      </trkpt>
      <trkpt lat="47.9270930" lon="8.3754710">
        <ele>367.4</ele>
        <time>2022-06-07T07:47:47Z</time>
      </trkpt>
      <trkpt lat="47.9270350" lon="8.3755550">
        <ele>368.4</ele>
        <time>2022-06-07T07:47:51Z</time>
      </trkpt>
      <trkpt lat="47.9269850" lon="8.3756560">
        <ele>368.6</ele>
        <time>2022-06-07T07:47:55Z</time>
      </trkpt>
      <trkpt lat="47.9269260" lon="8.3757610">
        <ele>368.6</ele>
        <time>2022-06-07T07:47:59Z</time>
      </trkpt>
      <trkpt lat="47.9268860" lon="8.3758760">
        <ele>369.2</ele>
        <time>2022-06-07T07:48:03Z</time>
      </trkpt>
      <trkpt lat="47.9268410" lon="8.3760010">
        <ele>370.0</ele>
        <time>2022-06-07T07:48:07Z</time>
      </trkpt>
      <trkpt lat="47.9268160" lon="8.3761310">
        <ele>370.4</ele>
        <time>2022-06-07T07:48:11Z</time>
      </trkpt>
      <trkpt lat="47.9267850" lon="8.3762580">
        <ele>371.0</ele>
        <time>2022-06-07T07:48:15Z</time>
      </trkpt>
      <trkpt lat="47.9267660" lon="8.3763910">
        <ele>371.4</ele>
        <time>2022-06-07T07:48:19Z</time>
      </trkpt>
      <trkpt lat="47.9267550" lon="8.3764910">
        <ele>371.8</ele>
        <time>2022-06-07T07:48:23Z</time>
      </trkpt>
      <trkpt lat="47.9267110" lon="8.3766000">
        <ele>372.0</ele>
        <time>2022-06-07T07:48:27Z</time>
      </trkpt>
      <trkpt lat="47.9266680" lon="8.3767050">
        <ele>372.8</ele>
        <time>2022-06-07T07:48:31Z</time>
      </trkpt>
      <trkpt lat="47.9266380" lon="8.3767980">
        <ele>373.2</ele>
        <time>2022-06-07T07:48:35Z</time>
      </trkpt>
      <trkpt lat="47.9265930" lon="8.3768960">
        <ele>373.8</ele>
        <time>2022-06-07T07:48:39Z</time>
      </trkpt>
      <trkpt lat="47.9265360" lon="8.3769900">
        <ele>374.2</ele>
        <time>2022-06-07T07:48:43Z</time>
      </trkpt>
      <trkpt lat="47.9264760" lon="8.3770910">
        <ele>375.0</ele>
        <time>2022-06-07T07:48:47Z</time>
      </trkpt>
      <trkpt lat="47.9264160" lon="8.3771980">
        <ele>375.4</ele>
        <time>2022-06-07T07:48:51Z</time>
      </trkpt>
      <trkpt lat="47.9263750" lon="8.3773010">
        <ele>375.8</ele>
        <time>2022-06-07T07:48:55Z</time>
      </trkpt>
      <trkpt lat="47.9263360" lon="8.3774130">
        <ele>376.4</ele>
        <time>2022-06-07T07:48:59Z</time>
      </trkpt>
      <trkpt lat="47.9263050" lon="8.3775250">
        <ele>377.2</ele>
        <time>2022-06-07T07:49:03Z</time>
      </trkpt>
      <trkpt lat="47.9262750" lon="8.3776610">
        <ele>377.4</ele>
        <time>2022-06-07T07:49:07Z</time>
      </trkpt>
      <trkpt lat="47.9262500" lon="8.3777980">
        <ele>378.2</ele>
        <time>2022-06-07T07:49:11Z</time>
      </trkpt>
      <trkpt lat="47.9262180" lon="8.3779280">
        <ele>378.2</ele>
        <time>2022-06-07T07:49:15Z</time>
      </trkpt>
      <trkpt lat="47.9261880" lon="8.3780530">
        <ele>379.2</ele>
        <time>2022-06-07T07:49:19Z</time>
      </trkpt>
      <trkpt lat="47.9261560" lon="8.3781750">
        <ele>379.2</ele>
        <time>2022-06-07T07:49:23Z</time>
      </trkpt>
      <trkpt lat="47.9261250" lon="8.3783030">
        <ele>379.4</ele>
        <time>2022-06-07T07:49:27Z</time>
      </trkpt>
      <trkpt lat="47.9260960" lon="8.3784330">
        <ele>380.0</ele>
        <time>2022-06-07T07:49:31Z</time>
      </trkpt>
      <trkpt lat="47.9260580" lon="8.3785780">
        <ele>379.8</ele>
        <time>2022-06-07T07:49:35Z</time>
      </trkpt>
      <trkpt lat="47.9260330" lon="8.3787150">
        <ele>380.6</ele>
        <time>2022-06-07T07:49:39Z</time>
      </trkpt>
      <trkpt lat="47.9260030" lon="8.3788510">
        <ele>380.4</ele>
        <time>2022-06-07T07:49:43Z</time>
      </trkpt>
      <trkpt lat="47.9259750" lon="8.3789780">
        <ele>380.4</ele>
        <time>2022-06-07T07:49:47Z</time>
      </trkpt>
      <trkpt lat="47.9259550" lon="8.3790910">
        <ele>380.8</ele>
        <time>2022-06-07T07:49:51Z</time>
      </trkpt>
      <trkpt lat="47.9259460" lon="8.3792030">
        <ele>381.4</ele>
        <time>2022-06-07T07:49:55Z</time>
      </trkpt>
      <trkpt lat="47.9259660" lon="8.3793430">
        <ele>382.0</ele>
        <time>2022-06-07T07:49:59Z</time>
      </trkpt>
      <trkpt lat="47.9260210" lon="8.3795230">
        <ele>382.0</ele>
        <time>2022-06-07T07:50:03Z</time>
      </trkpt>
      <trkpt lat="47.9261010" lon="8.3797500">
        <ele>381.8</ele>
        <time>2022-06-07T07:50:07Z</time>
      </trkpt>
      <trkpt lat="47.9261750" lon="8.3800130">
        <ele>381.4</ele>
        <time>2022-06-07T07:50:11Z</time>
      </trkpt>
      <trkpt lat="47.9262410" lon="8.3802960">
        <ele>381.0</ele>
        <time>2022-06-07T07:50:15Z</time>
      </trkpt>
      <trkpt lat="47.9263130" lon="8.3806000">
        <ele>381.0</ele>
        <time>2022-06-07T07:50:19Z</time>
      </trkpt>
      <trkpt lat="47.9263780" lon="8.3809060">
        <ele>380.4</ele>
        <time>2022-06-07T07:50:23Z</time>
      </trkpt>
      <trkpt lat="47.9264530" lon="8.3812210">
        <ele>379.4</ele>
        <time>2022-06-07T07:50:27Z</time>
      </trkpt>
      <trkpt lat="47.9265180" lon="8.3815580">
        <ele>378.8</ele>
        <time>2022-06-07T07:50:31Z</time>
      </trkpt>
      <trkpt lat="47.9265930" lon="8.3819110">
        <ele>377.4</ele>
        <time>2022-06-07T07:50:35Z</time>
      </trkpt>
      <trkpt lat="47.9266780" lon="8.3822860">
        <ele>377.8</ele>
        <time>2022-06-07T07:50:39Z</time>
      </trkpt>
      <trkpt lat="47.9267630" lon="8.3826980">
        <ele>374.6</ele>
        <time>2022-06-07T07:50:43Z</time>
      </trkpt>
      <trkpt lat="47.9268200" lon="8.3831580">
        <ele>373.6</ele>
        <time>2022-06-07T07:50:47Z</time>
      </trkpt>
      <trkpt lat="47.9267900" lon="8.3836660">
        <ele>370.8</ele>
        <time>2022-06-07T07:50:51Z</time>
      </trkpt>
      <trkpt lat="47.9266850" lon="8.3841880">
        <ele>368.8</ele>
        <time>2022-06-07T07:50:55Z</time>
      </trkpt>
      <trkpt lat="47.9265710" lon="8.3847400">
        <ele>366.6</ele>
        <time>2022-06-07T07:50:59Z</time>
      </trkpt>
      <trkpt lat="47.9264580" lon="8.3853160">
        <ele>363.6</ele>
        <time>2022-06-07T07:51:03Z</time>
      </trkpt>
      <trkpt lat="47.9264230" lon="8.3859250">
        <ele>361.0</ele>
        <time>2022-06-07T07:51:07Z</time>
      </trkpt>
      <trkpt lat="47.9264180" lon="8.3865330">
        <ele>362.8</ele>
        <time>2022-06-07T07:51:11Z</time>
      </trkpt>
      <trkpt lat="47.9264300" lon="8.3871350">
        <ele>358.4</ele>
        <time>2022-06-07T07:51:15Z</time>
      </trkpt>
      <trkpt lat="47.9264510" lon="8.3877260">
        <ele>358.8</ele>
        <time>2022-06-07T07:51:19Z</time>
      </trkpt>
      <trkpt lat="47.9264600" lon="8.3882960">
        <ele>357.6</ele>
        <time>2022-06-07T07:51:23Z</time>
      </trkpt>
      <trkpt lat="47.9264260" lon="8.3888530">
        <ele>355.6</ele>
        <time>2022-06-07T07:51:27Z</time>
      </trkpt>
      <trkpt lat="47.9264780" lon="8.3894280">
        <ele>352.8</ele>
        <time>2022-06-07T07:51:31Z</time>
      </trkpt>
      <trkpt lat="47.9265630" lon="8.3900110">
        <ele>350.6</ele>
        <time>2022-06-07T07:51:35Z</time>
      </trkpt>
      <trkpt lat="47.9266560" lon="8.3905900">
        <ele>349.2</ele>
        <time>2022-06-07T07:51:39Z</time>
      </trkpt>
      <trkpt lat="47.9267800" lon="8.3911610">
        <ele>347.0</ele>
        <time>2022-06-07T07:51:43Z</time>
      </trkpt>
      <trkpt lat="47.9269450" lon="8.3917410">
        <ele>344.0</ele>
        <time>2022-06-07T07:51:47Z</time>
      </trkpt>
      <trkpt lat="47.9271210" lon="8.3923030">
        <ele>342.4</ele>
        <time>2022-06-07T07:51:51Z</time>
      </trkpt>
      <trkpt lat="47.9273030" lon="8.3928560">
        <ele>340.2</ele>
        <time>2022-06-07T07:51:55Z</time>
      </trkpt>
      <trkpt lat="47.9274860" lon="8.3933900">
        <ele>338.6</ele>
        <time>2022-06-07T07:51:59Z</time>
      </trkpt>
      <trkpt lat="47.9276750" lon="8.3938880">
        <ele>337.0</ele>
        <time>2022-06-07T07:52:03Z</time>
      </trkpt>
      <trkpt lat="47.9278380" lon="8.3943980">
        <ele>336.8</ele>
        <time>2022-06-07T07:52:07Z</time>
      </trkpt>
      <trkpt lat="47.9279500" lon="8.3949230">
        <ele>336.0</ele>
        <time>2022-06-07T07:52:11Z</time>
      </trkpt>
      <trkpt lat="47.9280960" lon="8.3954050">
        <ele>335.2</ele>
        <time>2022-06-07T07:52:15Z</time>
      </trkpt>
      <trkpt lat="47.9282680" lon="8.3958600">
        <ele>334.0</ele>
        <time>2022-06-07T07:52:19Z</time>
      </trkpt>
      <trkpt lat="47.9284480" lon="8.3963050">
        <ele>333.2</ele>
        <time>2022-06-07T07:52:23Z</time>
      </trkpt>
      <trkpt lat="47.9286060" lon="8.3967610">
        <ele>332.8</ele>
        <time>2022-06-07T07:52:27Z</time>
      </trkpt>
      <trkpt lat="47.9287530" lon="8.3972580">
        <ele>330.6</ele>
        <time>2022-06-07T07:52:31Z</time>
      </trkpt>
      <trkpt lat="47.9288910" lon="8.3977900">
        <ele>327.8</ele>
        <time>2022-06-07T07:52:35Z</time>
      </trkpt>
      <trkpt lat="47.9290210" lon="8.3983330">
        <ele>327.6</ele>
        <time>2022-06-07T07:52:39Z</time>
      </trkpt>
      <trkpt lat="47.9291460" lon="8.3988930">
        <ele>322.6</ele>
        <time>2022-06-07T07:52:43Z</time>
      </trkpt>
      <trkpt lat="47.9292060" lon="8.3994680">
        <ele>321.6</ele>
        <time>2022-06-07T07:52:47Z</time>
      </trkpt>
      <trkpt lat="47.9291930" lon="8.4000580">
        <ele>318.4</ele>
        <time>2022-06-07T07:52:51Z</time>
      </trkpt>
      <trkpt lat="47.9292380" lon="8.4006260">
        <ele>316.8</ele>
        <time>2022-06-07T07:52:55Z</time>
      </trkpt>
      <trkpt lat="47.9293250" lon="8.4011830">
        <ele>315.0</ele>
        <time>2022-06-07T07:52:59Z</time>
      </trkpt>
      <trkpt lat="47.9293560" lon="8.4015810">
        <ele>313.8</ele>
        <time>2022-06-07T07:53:03Z</time>
      </trkpt>
      <trkpt lat="47.9293560" lon="8.4015810">
        <ele>315.0</ele>
        <time>2022-06-07T07:53:07Z</time>
      </trkpt>
      <trkpt lat="47.9293560" lon="8.4015810">
        <ele>315.4</ele>
        <time>2022-06-07T07:53:11Z</time>
      </trkpt>
      <trkpt lat="47.9293560" lon="8.4015810">
        <ele>315.0</ele>
        <time>2022-06-07T07:53:15Z</time>
      </trkpt>
      <trkpt lat="47.9293560" lon="8.4015810">
        <ele>315.0</ele>
        <time>2022-06-07T07:53:19Z</time>
      </trkpt>
      <trkpt lat="47.9293560" lon="8.4015810">
        <ele>315.4</ele>
        <time>2022-06-07T07:53:23Z</time>
      </trkpt>
      <trkpt lat="47.9293560" lon="8.4015810">
        <ele>315.6</ele>
        <time>2022-06-07T07:53:27Z</time>
      </trkpt>
      <trkpt lat="47.9293560" lon="8.4015810">
        <ele>315.4</ele>
        <time>2022-06-07T07:53:31Z</time>
      </trkpt>
      <trkpt lat="47.9293560" lon="8.4015810">
        <ele>315.2</ele>
        <time>2022-06-07T07:53:35Z</time>
      </trkpt>
      <trkpt lat="47.9293560" lon="8.4015810">
        <ele>315.2</ele>
        <time>2022-06-07T07:53:39Z</time>
      </trkpt>
      <trkpt lat="47.9293560" lon="8.4015810">
        <ele>315.0</ele>
        <time>2022-06-07T07:53:43Z</time>
      </trkpt>
      <trkpt lat="47.9293560" lon="8.4015810">
        <ele>315.2</ele>
        <time>2022-06-07T07:53:47Z</time>
      </trkpt>
      <trkpt lat="47.9293100" lon="8.4016830">
        <ele>314.8</ele>
        <time>2022-06-07T07:53:51Z</time>
      </trkpt>
      <trkpt lat="47.9293850" lon="8.4017200">
        <ele>314.4</ele>
        <time>2022-06-07T07:53:55Z</time>
      </trkpt>
      <trkpt lat="47.9294560" lon="8.4019210">
        <ele>313.4</ele>
        <time>2022-06-07T07:53:59Z</time>
      </trkpt>
      <trkpt lat="47.9295050" lon="8.4022010">
        <ele>312.8</ele>
        <time>2022-06-07T07:54:03Z</time>
      </trkpt>
      <trkpt lat="47.9295680" lon="8.4025230">
        <ele>311.4</ele>
        <time>2022-06-07T07:54:07Z</time>
      </trkpt>
      <trkpt lat="47.9296380" lon="8.4028700">
        <ele>310.4</ele>
        <time>2022-06-07T07:54:11Z</time>
      </trkpt>
      <trkpt lat="47.9297000" lon="8.4032450">
        <ele>309.4</ele>
        <time>2022-06-07T07:54:15Z</time>
      </trkpt>
      <trkpt lat="47.9297530" lon="8.4036500">
        <ele>308.8</ele>
        <time>2022-06-07T07:54:19Z</time>
      </trkpt>
      <trkpt lat="47.9297810" lon="8.4040810">
        <ele>306.8</ele>
        <time>2022-06-07T07:54:23Z</time>
      </trkpt>
      <trkpt lat="47.9298060" lon="8.4045280">
        <ele>307.6</ele>
        <time>2022-06-07T07:54:27Z</time>
      </trkpt>
      <trkpt lat="47.9298150" lon="8.4049860">
        <ele>306.4</ele>
        <time>2022-06-07T07:54:31Z</time>
      </trkpt>
      <trkpt lat="47.9298230" lon="8.4054530">
        <ele>303.4</ele>
        <time>2022-06-07T07:54:35Z</time>
      </trkpt>
      <trkpt lat="47.9298280" lon="8.4059280">
        <ele>304.0</ele>
        <time>2022-06-07T07:54:39Z</time>
      </trkpt>
      <trkpt lat="47.9298450" lon="8.4064130">
        <ele>301.2</ele>
        <time>2022-06-07T07:54:43Z</time>
      </trkpt>
      <trkpt lat="47.9299310" lon="8.4068950">
        <ele>299.2</ele>
        <time>2022-06-07T07:54:47Z</time>
      </trkpt>
      <trkpt lat="47.9301310" lon="8.4073050">
        <ele>298.6</ele>
        <time>2022-06-07T07:54:51Z</time>
      </trkpt>
      <trkpt lat="47.9303850" lon="8.4076380">
        <ele>298.0</ele>
        <time>2022-06-07T07:54:55Z</time>
      </trkpt>
      <trkpt lat="47.9305910" lon="8.4079850">
        <ele>298.8</ele>
        <time>2022-06-07T07:54:59Z</time>
      </trkpt>
      <trkpt lat="47.9306300" lon="8.4082960">
        <ele>298.0</ele>
        <time>2022-06-07T07:55:03Z</time>
      </trkpt>
      <trkpt lat="47.9304300" lon="8.4084600">
        <ele>297.8</ele>
        <time>2022-06-07T07:55:07Z</time>
      </trkpt>
      <trkpt lat="47.9302250" lon="8.4085600">
        <ele>298.0</ele>
        <time>2022-06-07T07:55:11Z</time>
      </trkpt>
      <trkpt lat="47.9300410" lon="8.4086760">
        <ele>297.8</ele>
        <time>2022-06-07T07:55:15Z</time>
      </trkpt>
      <trkpt lat="47.9298500" lon="8.4087330">
        <ele>298.8</ele>
        <time>2022-06-07T07:55:19Z</time>
      </trkpt>
      <trkpt lat="47.9296730" lon="8.4087930">
        <ele>299.4</ele>
        <time>2022-06-07T07:55:23Z</time>
      </trkpt>
      <trkpt lat="47.9295650" lon="8.4089410">
        <ele>300.4</ele>
        <time>2022-06-07T07:55:27Z</time>
      </trkpt>
      <trkpt lat="47.9295310" lon="8.4091100">
        <ele>299.8</ele>
        <time>2022-06-07T07:55:31Z</time>
      </trkpt>
      <trkpt lat="47.9295050" lon="8.4092880">
        <ele>300.8</ele>
        <time>2022-06-07T07:55:35Z</time>
      </trkpt>
      <trkpt lat="47.9294780" lon="8.4094560">
        <ele>301.2</ele>
        <time>2022-06-07T07:55:39Z</time>
      </trkpt>
      <trkpt lat="47.9294500" lon="8.4096110">
        <ele>301.4</ele>
        <time>2022-06-07T07:55:43Z</time>
      </trkpt>
      <trkpt lat="47.9294230" lon="8.4097250">
        <ele>301.2</ele>
        <time>2022-06-07T07:55:47Z</time>
      </trkpt>
      <trkpt lat="47.9294030" lon="8.4098880">
        <ele>301.4</ele>
        <time>2022-06-07T07:55:51Z</time>
      </trkpt>
      <trkpt lat="47.9293800" lon="8.4100960">
        <ele>300.4</ele>
        <time>2022-06-07T07:55:55Z</time>
      </trkpt>
      <trkpt lat="47.9293930" lon="8.4103560">
        <ele>299.4</ele>
        <time>2022-06-07T07:55:59Z</time>
      </trkpt>
      <trkpt lat="47.9295050" lon="8.4106130">
        <ele>298.8</ele>
        <time>2022-06-07T07:56:03Z</time>
      </trkpt>
      <trkpt lat="47.9296410" lon="8.4109000">
        <ele>297.0</ele>
        <time>2022-06-07T07:56:07Z</time>
      </trkpt>
      <trkpt lat="47.9297160" lon="8.4112410">
        <ele>297.0</ele>
        <time>2022-06-07T07:56:11Z</time>
      </trkpt>
      <trkpt lat="47.9297310" lon="8.4115750">
        <ele>296.6</ele>
        <time>2022-06-07T07:56:15Z</time>
      </trkpt>
      <trkpt lat="47.9297360" lon="8.4118960">
        <ele>296.2</ele>
        <time>2022-06-07T07:56:19Z</time>
      </trkpt>
      <trkpt lat="47.9297300" lon="8.4122030">
        <ele>296.2</ele>
        <time>2022-06-07T07:56:23Z</time>
      </trkpt>
      <trkpt lat="47.9297230" lon="8.4124830">
        <ele>296.4</ele>
        <time>2022-06-07T07:56:27Z</time>
      </trkpt>
      <trkpt lat="47.9297200" lon="8.4127550">
        <ele>296.2</ele>
        <time>2022-06-07T07:56:31Z</time>
      </trkpt>
      <trkpt lat="47.9297700" lon="8.4129930">
        <ele>297.2</ele>
        <time>2022-06-07T07:56:35Z</time>
      </trkpt>
      <trkpt lat="47.9298730" lon="8.4131550">
        <ele>296.0</ele>
        <time>2022-06-07T07:56:39Z</time>
      </trkpt>
      <trkpt lat="47.9300010" lon="8.4133430">
        <ele>294.4</ele>
        <time>2022-06-07T07:56:43Z</time>
      </trkpt>
      <trkpt lat="47.9300900" lon="8.4136750">
        <ele>294.0</ele>
        <time>2022-06-07T07:56:47Z</time>
      </trkpt>
      <trkpt lat="47.9301380" lon="8.4140360">
        <ele>292.0</ele>
        <time>2022-06-07T07:56:51Z</time>
      </trkpt>
      <trkpt lat="47.9301650" lon="8.4144300">
        <ele>290.6</ele>
        <time>2022-06-07T07:56:55Z</time>
      </trkpt>
      <trkpt lat="47.9301730" lon="8.4148200">
        <ele>289.4</ele>
        <time>2022-06-07T07:56:59Z</time>
      </trkpt>
      <trkpt lat="47.9301680" lon="8.4152130">
        <ele>290.2</ele>
        <time>2022-06-07T07:57:03Z</time>
      </trkpt>
      <trkpt lat="47.9301530" lon="8.4155900">
        <ele>289.4</ele>
        <time>2022-06-07T07:57:07Z</time>
      </trkpt>
      <trkpt lat="47.9301410" lon="8.4159450">
        <ele>289.6</ele>
        <time>2022-06-07T07:57:11Z</time>
      </trkpt>
      <trkpt lat="47.9301430" lon="8.4162800">
        <ele>289.4</ele>
        <time>2022-06-07T07:57:15Z</time>
      </trkpt>
      <trkpt lat="47.9301160" lon="8.4166030">
        <ele>289.4</ele>
        <time>2022-06-07T07:57:19Z</time>
      </trkpt>
      <trkpt lat="47.9300630" lon="8.4169030">
        <ele>288.8</ele>
        <time>2022-06-07T07:57:23Z</time>
      </trkpt>
      <trkpt lat="47.9299960" lon="8.4171930">
        <ele>288.6</ele>
        <time>2022-06-07T07:57:27Z</time>
      </trkpt>
      <trkpt lat="47.9299580" lon="8.4174200">
        <ele>289.2</ele>
        <time>2022-06-07T07:57:31Z</time>
      </trkpt>
      <trkpt lat="47.9299580" lon="8.4175860">
        <ele>288.4</ele>
        <time>2022-06-07T07:57:35Z</time>
      </trkpt>
      <trkpt lat="47.9299400" lon="8.4177550">
        <ele>288.4</ele>
        <time>2022-06-07T07:57:39Z</time>
      </trkpt>
      <trkpt lat="47.9299250" lon="8.4179450">
        <ele>288.0</ele>
        <time>2022-06-07T07:57:43Z</time>
      </trkpt>
      <trkpt lat="47.9298960" lon="8.4181730">
        <ele>288.2</ele>
        <time>2022-06-07T07:57:47Z</time>
      </trkpt>
      <trkpt lat="47.9298760" lon="8.4184300">
        <ele>288.0</ele>
        <time>2022-06-07T07:57:51Z</time>
      </trkpt>
      <trkpt lat="47.9298580" lon="8.4186660">
        <ele>288.2</ele>
        <time>2022-06-07T07:57:55Z</time>
      </trkpt>
      <trkpt lat="47.9298360" lon="8.4189050">
        <ele>287.8</ele>
        <time>2022-06-07T07:57:59Z</time>
      </trkpt>
      <trkpt lat="47.9298110" lon="8.4191460">
        <ele>287.8</ele>
        <time>2022-06-07T07:58:03Z</time>
      </trkpt>
      <trkpt lat="47.9297810" lon="8.4194000">
        <ele>287.8</ele>
        <time>2022-06-07T07:58:07Z</time>
      </trkpt>
      <trkpt lat="47.9297510" lon="8.4196780">
        <ele>287.4</ele>
        <time>2022-06-07T07:58:11Z</time>
      </trkpt>
      <trkpt lat="47.9297410" lon="8.4199730">
        <ele>287.4</ele>
        <time>2022-06-07T07:58:15Z</time>
      </trkpt>
      <trkpt lat="47.9297600" lon="8.4202650">
        <ele>286.8</ele>
        <time>2022-06-07T07:58:19Z</time>
      </trkpt>
      <trkpt lat="47.9297810" lon="8.4205580">
        <ele>286.2</ele>
        <time>2022-06-07T07:58:23Z</time>
      </trkpt>
      <trkpt lat="47.9298030" lon="8.4208580">
        <ele>285.8</ele>
        <time>2022-06-07T07:58:27Z</time>
      </trkpt>
      <trkpt lat="47.9298300" lon="8.4211600">
        <ele>286.2</ele>
        <time>2022-06-07T07:58:31Z</time>
      </trkpt>
      <trkpt lat="47.9298630" lon="8.4214510">
        <ele>286.0</ele>
        <time>2022-06-07T07:58:35Z</time>
      </trkpt>
      <trkpt lat="47.9299000" lon="8.4217500">
        <ele>284.2</ele>
        <time>2022-06-07T07:58:39Z</time>
      </trkpt>
      <trkpt lat="47.9299380" lon="8.4220580">
        <ele>283.0</ele>
        <time>2022-06-07T07:58:43Z</time>
      </trkpt>
      <trkpt lat="47.9299700" lon="8.4223710">
        <ele>284.0</ele>
        <time>2022-06-07T07:58:47Z</time>
      </trkpt>
      <trkpt lat="47.9300000" lon="8.4226860">
        <ele>283.8</ele>
        <time>2022-06-07T07:58:51Z</time>
      </trkpt>
      <trkpt lat="47.9300110" lon="8.4230180">
        <ele>283.6</ele>
        <time>2022-06-07T07:58:55Z</time>
      </trkpt>
      <trkpt lat="47.9300350" lon="8.4233560">
        <ele>283.4</ele>
        <time>2022-06-07T07:58:59Z</time>
      </trkpt>
      <trkpt lat="47.9301080" lon="8.4236680">
        <ele>282.4</ele>
        <time>2022-06-07T07:59:03Z</time>
      </trkpt>
      <trkpt lat="47.9301850" lon="8.4239880">
        <ele>282.4</ele>
        <time>2022-06-07T07:59:07Z</time>
      </trkpt>
      <trkpt lat="47.9302480" lon="8.4243180">
        <ele>281.8</ele>
        <time>2022-06-07T07:59:11Z</time>
      </trkpt>
      <trkpt lat="47.9303050" lon="8.4246530">
        <ele>281.8</ele>
        <time>2022-06-07T07:59:15Z</time>
      </trkpt>
      <trkpt lat="47.9303580" lon="8.4249980">
        <ele>281.2</ele>
        <time>2022-06-07T07:59:19Z</time>
      </trkpt>
      <trkpt lat="47.9304080" lon="8.4253500">
        <ele>281.2</ele>
        <time>2022-06-07T07:59:23Z</time>
      </trkpt>
      <trkpt lat="47.9304510" lon="8.4256980">
        <ele>281.2</ele>
        <time>2022-06-07T07:59:27Z</time>
      </trkpt>
      <trkpt lat="47.9304650" lon="8.4260460">
        <ele>281.2</ele>
        <time>2022-06-07T07:59:31Z</time>
      </trkpt>
      <trkpt lat="47.9304510" lon="8.4263850">
        <ele>280.6</ele>
        <time>2022-06-07T07:59:35Z</time>
      </trkpt>
      <trkpt lat="47.9304250" lon="8.4267050">
        <ele>281.2</ele>
        <time>2022-06-07T07:59:39Z</time>
      </trkpt>
      <trkpt lat="47.9303600" lon="8.4269950">
        <ele>281.2</ele>
        <time>2022-06-07T07:59:43Z</time>
      </trkpt>
      <trkpt lat="47.9303350" lon="8.4272750">
        <ele>281.6</ele>
        <time>2022-06-07T07:59:47Z</time>
      </trkpt>
      <trkpt lat="47.9303460" lon="8.4275560">
        <ele>281.4</ele>
        <time>2022-06-07T07:59:51Z</time>
      </trkpt>
      <trkpt lat="47.9303530" lon="8.4278510">
        <ele>281.0</ele>
        <time>2022-06-07T07:59:55Z</time>
      </trkpt>
      <trkpt lat="47.9303650" lon="8.4281380">
        <ele>280.8</ele>
        <time>2022-06-07T07:59:59Z</time>
      </trkpt>
      <trkpt lat="47.9303680" lon="8.4284360">
        <ele>280.0</ele>
        <time>2022-06-07T08:00:03Z</time>
      </trkpt>
      <trkpt lat="47.9303660" lon="8.4287650">
        <ele>279.8</ele>
        <time>2022-06-07T08:00:07Z</time>
      </trkpt>
      <trkpt lat="47.9303460" lon="8.4291080">
        <ele>280.0</ele>
        <time>2022-06-07T08:00:11Z</time>
      </trkpt>
      <trkpt lat="47.9303280" lon="8.4294450">
        <ele>279.2</ele>
        <time>2022-06-07T08:00:15Z</time>
      </trkpt>
      <trkpt lat="47.9302980" lon="8.4297750">
        <ele>278.2</ele>
        <time>2022-06-07T08:00:19Z</time>
      </trkpt>
      <trkpt lat="47.9302580" lon="8.4300950">
        <ele>278.0</ele>
        <time>2022-06-07T08:00:23Z</time>
      </trkpt>
      <trkpt lat="47.9302130" lon="8.4303950">
        <ele>278.2</ele>
        <time>2022-06-07T08:00:27Z</time>
      </trkpt>
      <trkpt lat="47.9301810" lon="8.4306860">
        <ele>278.4</ele>
        <time>2022-06-07T08:00:31Z</time>
      </trkpt>
      <trkpt lat="47.9301380" lon="8.4309600">
        <ele>278.4</ele>
        <time>2022-06-07T08:00:35Z</time>
      </trkpt>
      <trkpt lat="47.9300830" lon="8.4312430">
        <ele>278.8</ele>
        <time>2022-06-07T08:00:39Z</time>
      </trkpt>
      <trkpt lat="47.9300080" lon="8.4315130">
        <ele>278.6</ele>
        <time>2022-06-07T08:00:43Z</time>
      </trkpt>
      <trkpt lat="47.9299310" lon="8.4317700">
        <ele>278.8</ele>
        <time>2022-06-07T08:00:47Z</time>
      </trkpt>
      <trkpt lat="47.9298500" lon="8.4320200">
        <ele>279.2</ele>
        <time>2022-06-07T08:00:51Z</time>
      </trkpt>
      <trkpt lat="47.9297630" lon="8.4322750">
        <ele>279.2</ele>
        <time>2022-06-07T08:00:55Z</time>
      </trkpt>
      <trkpt lat="47.9296800" lon="8.4325260">
        <ele>278.6</ele>
        <time>2022-06-07T08:00:59Z</time>
      </trkpt>
      <trkpt lat="47.9296160" lon="8.4327880">
        <ele>279.0</ele>
        <time>2022-06-07T08:01:03Z</time>
      </trkpt>
      <trkpt lat="47.9296030" lon="8.4330630">
        <ele>278.4</ele>
        <time>2022-06-07T08:01:07Z</time>
      </trkpt>
      <trkpt lat="47.9296110" lon="8.4333380">
        <ele>278.8</ele>
        <time>2022-06-07T08:01:11Z</time>
      </trkpt>
      <trkpt lat="47.9296280" lon="8.4336230">
        <ele>278.2</ele>
        <time>2022-06-07T08:01:15Z</time>
      </trkpt>
      <trkpt lat="47.9296360" lon="8.4339100">
        <ele>277.4</ele>
        <time>2022-06-07T08:01:19Z</time>
      </trkpt>
      <trkpt lat="47.9296430" lon="8.4341900">
        <ele>278.0</ele>
        <time>2022-06-07T08:01:23Z</time>
      </trkpt>
      <trkpt lat="47.9296510" lon="8.4344700">
        <ele>277.2</ele>
        <time>2022-06-07T08:01:27Z</time>
      </trkpt>
      <trkpt lat="47.9296650" lon="8.4347650">
        <ele>277.2</ele>
        <time>2022-06-07T08:01:31Z</time>
      </trkpt>
      <trkpt lat="47.9296700" lon="8.4350710">
        <ele>276.4</ele>
        <time>2022-06-07T08:01:35Z</time>
      </trkpt>
      <trkpt lat="47.9296760" lon="8.4353900">
        <ele>276.0</ele>
        <time>2022-06-07T08:01:39Z</time>
      </trkpt>
      <trkpt lat="47.9296780" lon="8.4357230">
        <ele>274.8</ele>
        <time>2022-06-07T08:01:43Z</time>
      </trkpt>
      <trkpt lat="47.9296700" lon="8.4360610">
        <ele>275.0</ele>
        <time>2022-06-07T08:01:47Z</time>
      </trkpt>
      <trkpt lat="47.9296550" lon="8.4363900">
        <ele>274.4</ele>
        <time>2022-06-07T08:01:51Z</time>
      </trkpt>
      <trkpt lat="47.9296250" lon="8.4367080">
        <ele>273.4</ele>
        <time>2022-06-07T08:01:55Z</time>
      </trkpt>
      <trkpt lat="47.9295850" lon="8.4370200">
        <ele>272.8</ele>
        <time>2022-06-07T08:01:59Z</time>
      </trkpt>
      <trkpt lat="47.9295330" lon="8.4373360">
        <ele>273.2</ele>
        <time>2022-06-07T08:02:03Z</time>
      </trkpt>
      <trkpt lat="47.9294630" lon="8.4376400">
        <ele>272.6</ele>
        <time>2022-06-07T08:02:07Z</time>
      </trkpt>
      <trkpt lat="47.9293800" lon="8.4379260">
        <ele>272.2</ele>
        <time>2022-06-07T08:02:11Z</time>
      </trkpt>
      <trkpt lat="47.9292810" lon="8.4382200">
        <ele>272.0</ele>
        <time>2022-06-07T08:02:15Z</time>
      </trkpt>
      <trkpt lat="47.9291410" lon="8.4384900">
        <ele>271.6</ele>
        <time>2022-06-07T08:02:19Z</time>
      </trkpt>
      <trkpt lat="47.9290510" lon="8.4387950">
        <ele>272.4</ele>
        <time>2022-06-07T08:02:23Z</time>
      </trkpt>
      <trkpt lat="47.9290180" lon="8.4391250">
        <ele>273.0</ele>
        <time>2022-06-07T08:02:27Z</time>
      </trkpt>
      <trkpt lat="47.9291010" lon="8.4394050">
        <ele>273.6</ele>
        <time>2022-06-07T08:02:31Z</time>
      </trkpt>
      <trkpt lat="47.9292200" lon="8.4396400">
        <ele>272.4</ele>
        <time>2022-06-07T08:02:35Z</time>
      </trkpt>
      <trkpt lat="47.9293650" lon="8.4399150">
        <ele>272.6</ele>
        <time>2022-06-07T08:02:39Z</time>
      </trkpt>
      <trkpt lat="47.9295080" lon="8.4401800">
        <ele>272.6</ele>
        <time>2022-06-07T08:02:43Z</time>
      </trkpt>
      <trkpt lat="47.9295860" lon="8.4404560">
        <ele>273.0</ele>
        <time>2022-06-07T08:02:47Z</time>
      </trkpt>
      <trkpt lat="47.9295480" lon="8.4407330">
        <ele>273.2</ele>
        <time>2022-06-07T08:02:51Z</time>
      </trkpt>
      <trkpt lat="47.9294600" lon="8.4409800">
        <ele>273.2</ele>
        <time>2022-06-07T08:02:55Z</time>
      </trkpt>
      <trkpt lat="47.9293980" lon="8.4412450">
        <ele>273.2</ele>
        <time>2022-06-07T08:02:59Z</time>
      </trkpt>
      <trkpt lat="47.9293260" lon="8.4415080">
        <ele>273.6</ele>
        <time>2022-06-07T08:03:03Z</time>
      </trkpt>
      <trkpt lat="47.9292550" lon="8.4417710">
        <ele>273.0</ele>
        <time>2022-06-07T08:03:07Z</time>
      </trkpt>
      <trkpt lat="47.9291680" lon="8.4420550">
        <ele>272.6</ele>
        <time>2022-06-07T08:03:11Z</time>
      </trkpt>
      <trkpt lat="47.9290680" lon="8.4423450">
        <ele>272.0</ele>
        <time>2022-06-07T08:03:15Z</time>
      </trkpt>
      <trkpt lat="47.9290230" lon="8.4426530">
        <ele>271.4</ele>
        <time>2022-06-07T08:03:19Z</time>
      </trkpt>
      <trkpt lat="47.9289830" lon="8.4429600">
        <ele>271.6</ele>
        <time>2022-06-07T08:03:23Z</time>
      </trkpt>
      <trkpt lat="47.9289450" lon="8.4432500">
        <ele>270.8</ele>
        <time>2022-06-07T08:03:27Z</time>
      </trkpt>
      <trkpt lat="47.9288860" lon="8.4435210">
        <ele>271.0</ele>
        <time>2022-06-07T08:03:31Z</time>
      </trkpt>
      <trkpt lat="47.9287760" lon="8.4437500">
        <ele>271.0</ele>
        <time>2022-06-07T08:03:35Z</time>
      </trkpt>
      <trkpt lat="47.9287050" lon="8.4440160">
        <ele>270.8</ele>
        <time>2022-06-07T08:03:39Z</time>
      </trkpt>
      <trkpt lat="47.9287500" lon="8.4443650">
        <ele>270.8</ele>
        <time>2022-06-07T08:03:43Z</time>
      </trkpt>
      <trkpt lat="47.9287760" lon="8.4446380">
        <ele>270.4</ele>
        <time>2022-06-07T08:03:47Z</time>
      </trkpt>
      <trkpt lat="47.9288530" lon="8.4449130">
        <ele>269.8</ele>
        <time>2022-06-07T08:03:51Z</time>
      </trkpt>
      <trkpt lat="47.9289130" lon="8.4451710">
        <ele>270.4</ele>
        <time>2022-06-07T08:03:55Z</time>
      </trkpt>
      <trkpt lat="47.9290130" lon="8.4453700">
        <ele>270.2</ele>
        <time>2022-06-07T08:03:59Z</time>
      </trkpt>
      <trkpt lat="47.9291360" lon="8.4455210">
        <ele>269.8</ele>
        <time>2022-06-07T08:04:03Z</time>
      </trkpt>
      <trkpt lat="47.9292130" lon="8.4457230">
        <ele>269.8</ele>
        <time>2022-06-07T08:04:07Z</time>
      </trkpt>
      <trkpt lat="47.9292810" lon="8.4459500">
        <ele>269.0</ele>
        <time>2022-06-07T08:04:11Z</time>
      </trkpt>
      <trkpt lat="47.9293850" lon="8.4461450">
        <ele>268.8</ele>
        <time>2022-06-07T08:04:15Z</time>
      </trkpt>
      <trkpt lat="47.9294360" lon="8.4462930">
        <ele>269.2</ele>
        <time>2022-06-07T08:04:19Z</time>
      </trkpt>
      <trkpt lat="47.9294360" lon="8.4462930">
        <ele>269.0</ele>
        <time>2022-06-07T08:04:23Z</time>
      </trkpt>
      <trkpt lat="47.9294360" lon="8.4462930">
        <ele>268.8</ele>
        <time>2022-06-07T08:04:27Z</time>
      </trkpt>
      <trkpt lat="47.9294360" lon="8.4462930">
        <ele>269.4</ele>
        <time>2022-06-07T08:04:31Z</time>
      </trkpt>
      <trkpt lat="47.9294360" lon="8.4462930">
        <ele>269.2</ele>
        <time>2022-06-07T08:04:35Z</time>
      </trkpt>
      <trkpt lat="47.9294360" lon="8.4462930">
        <ele>269.4</ele>
        <time>2022-06-07T08:04:39Z</time>
      </trkpt>
      <trkpt lat="47.9294360" lon="8.4462930">
        <ele>269.4</ele>
        <time>2022-06-07T08:04:43Z</time>
      </trkpt>
      <trkpt lat="47.9294360" lon="8.4462930">
        <ele>269.4</ele>
        <time>2022-06-07T08:04:47Z</time>
      </trkpt>
      <trkpt lat="47.9294360" lon="8.4462930">
        <ele>268.8</ele>
        <time>2022-06-07T08:04:51Z</time>
      </trkpt>
      <trkpt lat="47.9294360" lon="8.4462930">
        <ele>269.0</ele>
        <time>2022-06-07T08:04:55Z</time>
      </trkpt>
      <trkpt lat="47.9294360" lon="8.4462930">
        <ele>269.0</ele>
        <time>2022-06-07T08:04:59Z</time>
      </trkpt>
      <trkpt lat="47.9294360" lon="8.4462930">
        <ele>269.2</ele>
        <time>2022-06-07T08:05:03Z</time>
      </trkpt>
      <trkpt lat="47.9294360" lon="8.4462930">
        <ele>269.2</ele>
        <time>2022-06-07T08:05:07Z</time>
      </trkpt>
      <trkpt lat="47.9294360" lon="8.4462930">
        <ele>268.8</ele>
        <time>2022-06-07T08:05:11Z</time>
      </trkpt>
      <trkpt lat="47.9294360" lon="8.4462930">
        <ele>269.0</ele>
        <time>2022-06-07T08:05:15Z</time>
      </trkpt>
      <trkpt lat="47.9294360" lon="8.4462930">
        <ele>269.4</ele>
        <time>2022-06-07T08:05:19Z</time>
      </trkpt>
      <trkpt lat="47.9294360" lon="8.4462930">
        <ele>269.4</ele>
        <time>2022-06-07T08:05:23Z</time>
      </trkpt>
      <trkpt lat="47.9294360" lon="8.4462930">
        <ele>269.0</ele>
        <time>2022-06-07T08:05:27Z</time>
      </trkpt>
      <trkpt lat="47.9294360" lon="8.4462930">
        <ele>269.0</ele>
        <time>2022-06-07T08:05:31Z</time>
      </trkpt>
      <trkpt lat="47.9294360" lon="8.4462930">
        <ele>269.0</ele>
        <time>2022-06-07T08:05:35Z</time>
      </trkpt>
      <trkpt lat="47.9294360" lon="8.4462930">
        <ele>269.0</ele>
        <time>2022-06-07T08:05:39Z</time>
      </trkpt>
      <trkpt lat="47.9294360" lon="8.4462930">
        <ele>269.0</ele>
        <time>2022-06-07T08:05:43Z</time>
      </trkpt>
      <trkpt lat="47.9294360" lon="8.4462930">
        <ele>269.2</ele>
        <time>2022-06-07T08:05:47Z</time>
      </trkpt>
      <trkpt lat="47.9294360" lon="8.4462930">
        <ele>269.4</ele>
        <time>2022-06-07T08:05:51Z</time>
      </trkpt>
      <trkpt lat="47.9294360" lon="8.4462930">
        <ele>268.8</ele>
        <time>2022-06-07T08:05:55Z</time>
      </trkpt>
      <trkpt lat="47.9294360" lon="8.4462930">
        <ele>269.0</ele>
        <time>2022-06-07T08:05:59Z</time>
      </trkpt>
      <trkpt lat="47.9294360" lon="8.4462930">
        <ele>269.2</ele>
        <time>2022-06-07T08:06:03Z</time>
      </trkpt>
      <trkpt lat="47.9294360" lon="8.4462930">
        <ele>269.4</ele>
        <time>2022-06-07T08:06:07Z</time>
      </trkpt>
      <trkpt lat="47.9294360" lon="8.4462930">
        <ele>268.8</ele>
        <time>2022-06-07T08:06:11Z</time>
      </trkpt>
      <trkpt lat="47.9294360" lon="8.4462930">
        <ele>269.0</ele>
        <time>2022-06-07T08:06:15Z</time>
      </trkpt>
      <trkpt lat="47.9294360" lon="8.4462930">
        <ele>269.0</ele>
        <time>2022-06-07T08:06:19Z</time>
      </trkpt>
      <trkpt lat="47.9294360" lon="8.4462930">
        <ele>269.0</ele>
        <time>2022-06-07T08:06:23Z</time>
      </trkpt>
      <trkpt lat="47.9294360" lon="8.4462930">
        <ele>269.0</ele>
        <time>2022-06-07T08:06:27Z</time>
      </trkpt>
      <trkpt lat="47.9294360" lon="8.4462930">
        <ele>269.2</ele>
        <time>2022-06-07T08:06:31Z</time>
      </trkpt>
      <trkpt lat="47.9294360" lon="8.4462930">
        <ele>269.2</ele>
        <time>2022-06-07T08:06:35Z</time>
      </trkpt>
      <trkpt lat="47.9294360" lon="8.4462930">
        <ele>269.2</ele>
        <time>2022-06-07T08:06:39Z</time>
      </trkpt>
      <trkpt lat="47.9294360" lon="8.4462930">
        <ele>269.2</ele>
        <time>2022-06-07T08:06:43Z</time>
      </trkpt>
      <trkpt lat="47.9294360" lon="8.4462930">
        <ele>268.6</ele>
        <time>2022-06-07T08:06:47Z</time>
      </trkpt>
      <trkpt lat="47.9294360" lon="8.4462930">
        <ele>268.8</ele>
        <time>2022-06-07T08:06:51Z</time>
      </trkpt>
      <trkpt lat="47.9294360" lon="8.4462930">
        <ele>269.0</ele>
        <time>2022-06-07T08:06:55Z</time>
      </trkpt>
      <trkpt lat="47.9294360" lon="8.4462930">
        <ele>268.6</ele>
        <time>2022-06-07T08:06:59Z</time>
      </trkpt>
      <trkpt lat="47.9294360" lon="8.4462930">
        <ele>268.8</ele>
        <time>2022-06-07T08:07:03Z</time>
      </trkpt>
      <trkpt lat="47.9294360" lon="8.4462930">
        <ele>268.8</ele>
        <time>2022-06-07T08:07:07Z</time>
      </trkpt>
      <trkpt lat="47.9294360" lon="8.4462930">
        <ele>269.0</ele>
        <time>2022-06-07T08:07:11Z</time>
      </trkpt>
      <trkpt lat="47.9294360" lon="8.4462930">
        <ele>269.0</ele>
        <time>2022-06-07T08:07:15Z</time>
      </trkpt>
      <trkpt lat="47.9294360" lon="8.4462930">
        <ele>268.8</ele>
        <time>2022-06-07T08:07:19Z</time>
      </trkpt>
      <trkpt lat="47.9294360" lon="8.4462930">
        <ele>268.8</ele>
        <time>2022-06-07T08:07:23Z</time>
      </trkpt>
      <trkpt lat="47.9294360" lon="8.4462930">
        <ele>268.6</ele>
        <time>2022-06-07T08:07:27Z</time>
      </trkpt>
      <trkpt lat="47.9294360" lon="8.4462930">
        <ele>268.6</ele>
        <time>2022-06-07T08:07:31Z</time>
      </trkpt>
      <trkpt lat="47.9294360" lon="8.4462930">
        <ele>269.0</ele>
        <time>2022-06-07T08:07:35Z</time>
      </trkpt>
      <trkpt lat="47.9294360" lon="8.4462930">
        <ele>269.0</ele>
        <time>2022-06-07T08:07:39Z</time>
      </trkpt>
      <trkpt lat="47.9294360" lon="8.4462930">
        <ele>269.0</ele>
        <time>2022-06-07T08:07:43Z</time>
      </trkpt>
      <trkpt lat="47.9294360" lon="8.4462930">
        <ele>269.0</ele>
        <time>2022-06-07T08:07:47Z</time>
      </trkpt>
      <trkpt lat="47.9294360" lon="8.4462930">
        <ele>268.8</ele>
        <time>2022-06-07T08:07:51Z</time>
      </trkpt>
      <trkpt lat="47.9295200" lon="8.4463410">
        <ele>268.8</ele>
        <time>2022-06-07T08:07:55Z</time>
      </trkpt>
      <trkpt lat="47.9295360" lon="8.4462960">
        <ele>269.0</ele>
        <time>2022-06-07T08:07:59Z</time>
      </trkpt>
      <trkpt lat="47.9295410" lon="8.4462460">
        <ele>269.0</ele>
        <time>2022-06-07T08:08:03Z</time>
      </trkpt>
      <trkpt lat="47.9295410" lon="8.4462460">
        <ele>269.0</ele>
        <time>2022-06-07T08:08:07Z</time>
      </trkpt>
      <trkpt lat="47.9295410" lon="8.4462460">
        <ele>269.4</ele>
        <time>2022-06-07T08:08:11Z</time>
      </trkpt>
      <trkpt lat="47.9295410" lon="8.4462460">
        <ele>269.2</ele>
        <time>2022-06-07T08:08:15Z</time>
      </trkpt>
      <trkpt lat="47.9295410" lon="8.4462460">
        <ele>269.4</ele>
        <time>2022-06-07T08:08:19Z</time>
      </trkpt>
      <trkpt lat="47.9295410" lon="8.4462460">
        <ele>269.4</ele>
        <time>2022-06-07T08:08:23Z</time>
      </trkpt>
      <trkpt lat="47.9295410" lon="8.4462460">
        <ele>268.8</ele>
        <time>2022-06-07T08:08:27Z</time>
      </trkpt>
      <trkpt lat="47.9295410" lon="8.4462460">
        <ele>269.2</ele>
        <time>2022-06-07T08:08:31Z</time>
      </trkpt>
      <trkpt lat="47.9295410" lon="8.4462460">
        <ele>269.4</ele>
        <time>2022-06-07T08:08:35Z</time>
      </trkpt>
      <trkpt lat="47.9295410" lon="8.4462460">
        <ele>269.4</ele>
        <time>2022-06-07T08:08:39Z</time>
      </trkpt>
      <trkpt lat="47.9295410" lon="8.4462460">
        <ele>269.2</ele>
        <time>2022-06-07T08:08:43Z</time>
      </trkpt>
      <trkpt lat="47.9295410" lon="8.4462460">
        <ele>269.6</ele>
        <time>2022-06-07T08:08:47Z</time>
      </trkpt>
      <trkpt lat="47.9295410" lon="8.4462460">
        <ele>269.4</ele>
        <time>2022-06-07T08:08:51Z</time>
      </trkpt>
      <trkpt lat="47.9295410" lon="8.4462460">
        <ele>269.4</ele>
        <time>2022-06-07T08:08:55Z</time>
      </trkpt>
      <trkpt lat="47.9295410" lon="8.4462460">
        <ele>269.4</ele>
        <time>2022-06-07T08:08:59Z</time>
      </trkpt>
      <trkpt lat="47.9295410" lon="8.4462460">
        <ele>269.2</ele>
        <time>2022-06-07T08:09:03Z</time>
      </trkpt>
      <trkpt lat="47.9295410" lon="8.4462460">
        <ele>269.4</ele>
        <time>2022-06-07T08:09:07Z</time>
      </trkpt>
      <trkpt lat="47.9294960" lon="8.4462710">
        <ele>268.8</ele>
        <time>2022-06-07T08:09:11Z</time>
      </trkpt>
      <trkpt lat="47.9294600" lon="8.4462760">
        <ele>269.4</ele>
        <time>2022-06-07T08:09:15Z</time>
      </trkpt>
      <trkpt lat="47.9294250" lon="8.4462160">
        <ele>269.4</ele>
        <time>2022-06-07T08:09:19Z</time>
      </trkpt>
      <trkpt lat="47.9293700" lon="8.4461200">
        <ele>269.2</ele>
        <time>2022-06-07T08:09:23Z</time>
      </trkpt>
      <trkpt lat="47.9293100" lon="8.4460000">
        <ele>269.8</ele>
        <time>2022-06-07T08:09:27Z</time>
      </trkpt>
      <trkpt lat="47.9292150" lon="8.4459330">
        <ele>269.8</ele>
        <time>2022-06-07T08:09:31Z</time>
      </trkpt>
      <trkpt lat="47.9291080" lon="8.4460130">
        <ele>269.4</ele>
        <time>2022-06-07T08:09:35Z</time>
      </trkpt>
      <trkpt lat="47.9289910" lon="8.4461310">
        <ele>269.4</ele>
        <time>2022-06-07T08:09:39Z</time>
      </trkpt>
      <trkpt lat="47.9288710" lon="8.4462430">
        <ele>269.4</ele>
        <time>2022-06-07T08:09:43Z</time>
      </trkpt>
      <trkpt lat="47.9287460" lon="8.4463460">
        <ele>269.4</ele>
        <time>2022-06-07T08:09:47Z</time>
      </trkpt>
      <trkpt lat="47.9286560" lon="8.4464960">
        <ele>269.8</ele>
        <time>2022-06-07T08:09:51Z</time>
      </trkpt>
      <trkpt lat="47.9285960" lon="8.4466860">
        <ele>268.8</ele>
        <time>2022-06-07T08:09:55Z</time>
      </trkpt>
      <trkpt lat="47.9285260" lon="8.4468860">
        <ele>269.4</ele>
        <time>2022-06-07T08:09:59Z</time>
      </trkpt>
      <trkpt lat="47.9284430" lon="8.4470550">
        <ele>269.0</ele>
        <time>2022-06-07T08:10:03Z</time>
      </trkpt>
      <trkpt lat="47.9283850" lon="8.4472500">
        <ele>269.0</ele>
        <time>2022-06-07T08:10:07Z</time>
      </trkpt>
      <trkpt lat="47.9283200" lon="8.4474450">
        <ele>269.4</ele>
        <time>2022-06-07T08:10:11Z</time>
      </trkpt>
      <trkpt lat="47.9282510" lon="8.4476300">
        <ele>269.0</ele>
        <time>2022-06-07T08:10:15Z</time>
      </trkpt>
      <trkpt lat="47.9281950" lon="8.4478030">
        <ele>269.2</ele>
        <time>2022-06-07T08:10:19Z</time>
      </trkpt>
      <trkpt lat="47.9281300" lon="8.4479880">
        <ele>269.0</ele>
        <time>2022-06-07T08:10:23Z</time>
      </trkpt>
      <trkpt lat="47.9280800" lon="8.4481800">
        <ele>268.8</ele>
        <time>2022-06-07T08:10:27Z</time>
      </trkpt>
      <trkpt lat="47.9280380" lon="8.4483710">
        <ele>268.8</ele>
        <time>2022-06-07T08:10:31Z</time>
      </trkpt>
      <trkpt lat="47.9280250" lon="8.4485950">
        <ele>269.0</ele>
        <time>2022-06-07T08:10:35Z</time>
      </trkpt>
      <trkpt lat="47.9280160" lon="8.4488210">
        <ele>269.0</ele>
        <time>2022-06-07T08:10:39Z</time>
      </trkpt>
      <trkpt lat="47.9280100" lon="8.4490310">
        <ele>268.8</ele>
        <time>2022-06-07T08:10:43Z</time>
      </trkpt>
      <trkpt lat="47.9280110" lon="8.4492280">
        <ele>269.0</ele>
        <time>2022-06-07T08:10:47Z</time>
      </trkpt>
      <trkpt lat="47.9280210" lon="8.4494410">
        <ele>268.6</ele>
        <time>2022-06-07T08:10:51Z</time>
      </trkpt>
      <trkpt lat="47.9279350" lon="8.4495510">
        <ele>269.2</ele>
        <time>2022-06-07T08:10:55Z</time>
      </trkpt>
      <trkpt lat="47.9278160" lon="8.4496230">
        <ele>270.0</ele>
        <time>2022-06-07T08:10:59Z</time>
      </trkpt>
      <trkpt lat="47.9277160" lon="8.4496960">
        <ele>269.4</ele>
        <time>2022-06-07T08:11:03Z</time>
      </trkpt>
      <trkpt lat="47.9275900" lon="8.4498180">
        <ele>270.0</ele>
        <time>2022-06-07T08:11:07Z</time>
      </trkpt>
      <trkpt lat="47.9274930" lon="8.4499810">
        <ele>270.4</ele>
        <time>2022-06-07T08:11:11Z</time>
      </trkpt>
      <trkpt lat="47.9274210" lon="8.4501460">
        <ele>270.8</ele>
        <time>2022-06-07T08:11:15Z</time>
      </trkpt>
      <trkpt lat="47.9273610" lon="8.4503110">
        <ele>270.8</ele>
        <time>2022-06-07T08:11:19Z</time>
      </trkpt>
      <trkpt lat="47.9274110" lon="8.4504560">
        <ele>270.6</ele>
        <time>2022-06-07T08:11:23Z</time>
      </trkpt>
      <trkpt lat="47.9275130" lon="8.4505710">
        <ele>270.0</ele>
        <time>2022-06-07T08:11:27Z</time>
      </trkpt>
      <trkpt lat="47.9275850" lon="8.4506660">
        <ele>270.2</ele>
        <time>2022-06-07T08:11:31Z</time>
      </trkpt>
      <trkpt lat="47.9275950" lon="8.4505710">
        <ele>270.2</ele>
        <time>2022-06-07T08:11:35Z</time>
      </trkpt>
      <trkpt lat="47.9274880" lon="8.4505380">
        <ele>270.4</ele>
        <time>2022-06-07T08:11:39Z</time>
      </trkpt>
      <trkpt lat="47.9273510" lon="8.4505180">
        <ele>271.0</ele>
        <time>2022-06-07T08:11:43Z</time>
      </trkpt>
      <trkpt lat="47.9272880" lon="8.4506050">
        <ele>272.4</ele>
        <time>2022-06-07T08:11:47Z</time>
      </trkpt>
      <trkpt lat="47.9272630" lon="8.4506780">
        <ele>272.8</ele>
        <time>2022-06-07T08:11:51Z</time>
      </trkpt>
      <trkpt lat="47.9272530" lon="8.4507410">
        <ele>273.4</ele>
        <time>2022-06-07T08:11:55Z</time>
      </trkpt>
      <trkpt lat="47.9272360" lon="8.4508150">
        <ele>273.6</ele>
        <time>2022-06-07T08:11:59Z</time>
      </trkpt>
      <trkpt lat="47.9272050" lon="8.4508860">
        <ele>275.0</ele>
        <time>2022-06-07T08:12:03Z</time>
      </trkpt>
      <trkpt lat="47.9272050" lon="8.4509530">
        <ele>275.2</ele>
        <time>2022-06-07T08:12:07Z</time>
      </trkpt>
      <trkpt lat="47.9272050" lon="8.4509530">
        <ele>275.2</ele>
        <time>2022-06-07T08:12:11Z</time>
      </trkpt>
      <trkpt lat="47.9272050" lon="8.4509530">
        <ele>274.8</ele>
        <time>2022-06-07T08:12:15Z</time>
      </trkpt>
      <trkpt lat="47.9272050" lon="8.4509530">
        <ele>275.0</ele>
        <time>2022-06-07T08:12:19Z</time>
      </trkpt>
      <trkpt lat="47.9272050" lon="8.4509530">
        <ele>274.8</ele>
        <time>2022-06-07T08:12:23Z</time>
      </trkpt>
      <trkpt lat="47.9271930" lon="8.4509850">
        <ele>274.8</ele>
        <time>2022-06-07T08:12:27Z</time>
      </trkpt>
      <trkpt lat="47.9271930" lon="8.4509850">
        <ele>274.8</ele>
        <time>2022-06-07T08:12:31Z</time>
      </trkpt>
      <trkpt lat="47.9271930" lon="8.4509850">
        <ele>275.0</ele>
        <time>2022-06-07T08:12:35Z</time>
      </trkpt>
      <trkpt lat="47.9271930" lon="8.4510100">
        <ele>274.6</ele>
        <time>2022-06-07T08:12:39Z</time>
      </trkpt>
      <trkpt lat="47.9271930" lon="8.4510100">
        <ele>274.6</ele>
        <time>2022-06-07T08:12:43Z</time>
      </trkpt>
      <trkpt lat="47.9271930" lon="8.4510100">
        <ele>274.8</ele>
        <time>2022-06-07T08:12:47Z</time>
      </trkpt>
      <trkpt lat="47.9271930" lon="8.4510100">
        <ele>274.4</ele>
        <time>2022-06-07T08:12:51Z</time>
      </trkpt>
      <trkpt lat="47.9271660" lon="8.4510350">
        <ele>274.4</ele>
        <time>2022-06-07T08:12:55Z</time>
      </trkpt>
      <trkpt lat="47.9271630" lon="8.4510980">
        <ele>274.6</ele>
        <time>2022-06-07T08:12:59Z</time>
      </trkpt>
      <trkpt lat="47.9271350" lon="8.4512080">
        <ele>274.0</ele>
        <time>2022-06-07T08:13:03Z</time>
      </trkpt>
      <trkpt lat="47.9271600" lon="8.4513880">
        <ele>273.6</ele>
        <time>2022-06-07T08:13:07Z</time>
      </trkpt>
      <trkpt lat="47.9272580" lon="8.4516400">
        <ele>272.0</ele>
        <time>2022-06-07T08:13:11Z</time>
      </trkpt>
      <trkpt lat="47.9273910" lon="8.4519750">
        <ele>270.0</ele>
        <time>2022-06-07T08:13:15Z</time>
      </trkpt>
      <trkpt lat="47.9275050" lon="8.4523750">
        <ele>268.6</ele>
        <time>2022-06-07T08:13:19Z</time>
      </trkpt>
      <trkpt lat="47.9275250" lon="8.4527630">
        <ele>268.8</ele>
        <time>2022-06-07T08:13:23Z</time>
      </trkpt>
      <trkpt lat="47.9274930" lon="8.4530700">
        <ele>268.2</ele>
        <time>2022-06-07T08:13:27Z</time>
      </trkpt>
      <trkpt lat="47.9274430" lon="8.4533400">
        <ele>269.6</ele>
        <time>2022-06-07T08:13:31Z</time>
      </trkpt>
      <trkpt lat="47.9273730" lon="8.4535550">
        <ele>269.4</ele>
        <time>2022-06-07T08:13:35Z</time>
      </trkpt>
      <trkpt lat="47.9273780" lon="8.4537180">
        <ele>269.6</ele>
        <time>2022-06-07T08:13:39Z</time>
      </trkpt>
      <trkpt lat="47.9273630" lon="8.4538750">
        <ele>269.4</ele>
        <time>2022-06-07T08:13:43Z</time>
      </trkpt>
      <trkpt lat="47.9273480" lon="8.4540460">
        <ele>269.4</ele>
        <time>2022-06-07T08:13:47Z</time>
      </trkpt>
      <trkpt lat="47.9273200" lon="8.4542830">
        <ele>269.2</ele>
        <time>2022-06-07T08:13:51Z</time>
      </trkpt>
      <trkpt lat="47.9272950" lon="8.4544780">
        <ele>269.8</ele>
        <time>2022-06-07T08:13:55Z</time>
      </trkpt>
      <trkpt lat="47.9272530" lon="8.4546330">
        <ele>270.0</ele>
        <time>2022-06-07T08:13:59Z</time>
      </trkpt>
      <trkpt lat="47.9272530" lon="8.4548500">
        <ele>270.0</ele>
        <time>2022-06-07T08:14:03Z</time>
      </trkpt>
      <trkpt lat="47.9272510" lon="8.4550760">
        <ele>270.8</ele>
        <time>2022-06-07T08:14:07Z</time>
      </trkpt>
      <trkpt lat="47.9272400" lon="8.4552630">
        <ele>270.4</ele>
        <time>2022-06-07T08:14:11Z</time>
      </trkpt>
      <trkpt lat="47.9272430" lon="8.4554580">
        <ele>270.6</ele>
        <time>2022-06-07T08:14:15Z</time>
      </trkpt>
      <trkpt lat="47.9273000" lon="8.4556200">
        <ele>271.8</ele>
        <time>2022-06-07T08:14:19Z</time>
      </trkpt>
      <trkpt lat="47.9273610" lon="8.4557980">
        <ele>272.6</ele>
        <time>2022-06-07T08:14:23Z</time>
      </trkpt>
      <trkpt lat="47.9273980" lon="8.4559950">
        <ele>273.6</ele>
        <time>2022-06-07T08:14:27Z</time>
      </trkpt>
      <trkpt lat="47.9274450" lon="8.4561750">
        <ele>273.8</ele>
        <time>2022-06-07T08:14:31Z</time>
      </trkpt>
      <trkpt lat="47.9274730" lon="8.4563080">
        <ele>274.4</ele>
        <time>2022-06-07T08:14:35Z</time>
      </trkpt>
      <trkpt lat="47.9275000" lon="8.4564350">
        <ele>274.6</ele>
        <time>2022-06-07T08:14:39Z</time>
      </trkpt>
      <trkpt lat="47.9274910" lon="8.4565950">
        <ele>276.0</ele>
        <time>2022-06-07T08:14:43Z</time>
      </trkpt>
      <trkpt lat="47.9274930" lon="8.4567260">
        <ele>276.2</ele>
        <time>2022-06-07T08:14:47Z</time>
      </trkpt>
      <trkpt lat="47.9274960" lon="8.4568500">
        <ele>277.4</ele>
        <time>2022-06-07T08:14:51Z</time>
      </trkpt>
      <trkpt lat="47.9275400" lon="8.4569830">
        <ele>277.8</ele>
        <time>2022-06-07T08:14:55Z</time>
      </trkpt>
      <trkpt lat="47.9275410" lon="8.4571710">
        <ele>278.4</ele>
        <time>2022-06-07T08:14:59Z</time>
      </trkpt>
      <trkpt lat="47.9275600" lon="8.4572950">
        <ele>278.2</ele>
        <time>2022-06-07T08:15:03Z</time>
      </trkpt>
      <trkpt lat="47.9275850" lon="8.4574360">
        <ele>278.4</ele>
        <time>2022-06-07T08:15:07Z</time>
      </trkpt>
      <trkpt lat="47.9275950" lon="8.4575360">
        <ele>278.2</ele>
        <time>2022-06-07T08:15:11Z</time>
      </trkpt>
      <trkpt lat="47.9275950" lon="8.4575360">
        <ele>278.2</ele>
        <time>2022-06-07T08:15:15Z</time>
      </trkpt>
      <trkpt lat="47.9275950" lon="8.4575360">
        <ele>278.2</ele>
        <time>2022-06-07T08:15:19Z</time>
      </trkpt>
      <trkpt lat="47.9276330" lon="8.4576730">
        <ele>278.0</ele>
        <time>2022-06-07T08:15:23Z</time>
      </trkpt>
      <trkpt lat="47.9276460" lon="8.4576730">
        <ele>278.6</ele>
        <time>2022-06-07T08:15:27Z</time>
      </trkpt>
      <trkpt lat="47.9276460" lon="8.4576730">
        <ele>278.8</ele>
        <time>2022-06-07T08:15:31Z</time>
      </trkpt>
      <trkpt lat="47.9276460" lon="8.4576730">
        <ele>278.8</ele>
        <time>2022-06-07T08:15:35Z</time>
      </trkpt>
      <trkpt lat="47.9276460" lon="8.4576730">
        <ele>278.6</ele>
        <time>2022-06-07T08:15:39Z</time>
      </trkpt>
      <trkpt lat="47.9276460" lon="8.4576730">
        <ele>278.6</ele>
        <time>2022-06-07T08:15:43Z</time>
      </trkpt>
      <trkpt lat="47.9276460" lon="8.4576730">
        <ele>278.6</ele>
        <time>2022-06-07T08:15:47Z</time>
      </trkpt>
      <trkpt lat="47.9276460" lon="8.4576730">
        <ele>278.8</ele>
        <time>2022-06-07T08:15:51Z</time>
      </trkpt>
      <trkpt lat="47.9276460" lon="8.4576730">
        <ele>278.6</ele>
        <time>2022-06-07T08:15:55Z</time>
      </trkpt>
      <trkpt lat="47.9276460" lon="8.4576730">
        <ele>278.6</ele>
        <time>2022-06-07T08:15:59Z</time>
      </trkpt>
      <trkpt lat="47.9276460" lon="8.4576730">
        <ele>278.4</ele>
        <time>2022-06-07T08:16:03Z</time>
      </trkpt>
      <trkpt lat="47.9276460" lon="8.4576730">
        <ele>278.2</ele>
        <time>2022-06-07T08:16:07Z</time>
      </trkpt>
      <trkpt lat="47.9276460" lon="8.4576730">
        <ele>278.2</ele>
        <time>2022-06-07T08:16:11Z</time>
      </trkpt>
      <trkpt lat="47.9276460" lon="8.4576730">
        <ele>277.8</ele>
        <time>2022-06-07T08:16:15Z</time>
      </trkpt>
      <trkpt lat="47.9276460" lon="8.4576730">
        <ele>278.0</ele>
        <time>2022-06-07T08:16:19Z</time>
      </trkpt>
      <trkpt lat="47.9276460" lon="8.4576730">
        <ele>278.2</ele>
        <time>2022-06-07T08:16:23Z</time>
      </trkpt>
      <trkpt lat="47.9276460" lon="8.4576730">
        <ele>277.8</ele>
        <time>2022-06-07T08:16:27Z</time>
      </trkpt>
      <trkpt lat="47.9276330" lon="8.4577030">
        <ele>277.8</ele>
        <time>2022-06-07T08:16:31Z</time>
      </trkpt>
      <trkpt lat="47.9276610" lon="8.4577350">
        <ele>277.6</ele>
        <time>2022-06-07T08:16:35Z</time>
      </trkpt>
      <trkpt lat="47.9276600" lon="8.4578530">
        <ele>278.2</ele>
        <time>2022-06-07T08:16:39Z</time>
      </trkpt>
      <trkpt lat="47.9276600" lon="8.4580110">
        <ele>277.4</ele>
        <time>2022-06-07T08:16:43Z</time>
      </trkpt>
      <trkpt lat="47.9276430" lon="8.4582230">
        <ele>276.8</ele>
        <time>2022-06-07T08:16:47Z</time>
      </trkpt>
      <trkpt lat="47.9275380" lon="8.4584360">
        <ele>276.2</ele>
        <time>2022-06-07T08:16:51Z</time>
      </trkpt>
      <trkpt lat="47.9274400" lon="8.4586780">
        <ele>276.0</ele>
        <time>2022-06-07T08:16:55Z</time>
      </trkpt>
      <trkpt lat="47.9273310" lon="8.4589510">
        <ele>274.6</ele>
        <time>2022-06-07T08:16:59Z</time>
      </trkpt>
      <trkpt lat="47.9272310" lon="8.4592460">
        <ele>274.6</ele>
        <time>2022-06-07T08:17:03Z</time>
      </trkpt>
      <trkpt lat="47.9271530" lon="8.4595160">
        <ele>274.6</ele>
        <time>2022-06-07T08:17:07Z</time>
      </trkpt>
      <trkpt lat="47.9270430" lon="8.4597130">
        <ele>274.8</ele>
        <time>2022-06-07T08:17:11Z</time>
      </trkpt>
      <trkpt lat="47.9269210" lon="8.4599150">
        <ele>274.6</ele>
        <time>2022-06-07T08:17:15Z</time>
      </trkpt>
      <trkpt lat="47.9267960" lon="8.4600700">
        <ele>274.6</ele>
        <time>2022-06-07T08:17:19Z</time>
      </trkpt>
      <trkpt lat="47.9266900" lon="8.4602250">
        <ele>274.6</ele>
        <time>2022-06-07T08:17:23Z</time>
      </trkpt>
      <trkpt lat="47.9265680" lon="8.4603750">
        <ele>275.4</ele>
        <time>2022-06-07T08:17:27Z</time>
      </trkpt>
      <trkpt lat="47.9264530" lon="8.4605030">
        <ele>275.6</ele>
        <time>2022-06-07T08:17:31Z</time>
      </trkpt>
      <trkpt lat="47.9263310" lon="8.4606330">
        <ele>274.8</ele>
        <time>2022-06-07T08:17:35Z</time>
      </trkpt>
      <trkpt lat="47.9261780" lon="8.4608150">
        <ele>275.2</ele>
        <time>2022-06-07T08:17:39Z</time>
      </trkpt>
      <trkpt lat="47.9260550" lon="8.4609580">
        <ele>275.2</ele>
        <time>2022-06-07T08:17:43Z</time>
      </trkpt>
      <trkpt lat="47.9259260" lon="8.4611650">
        <ele>275.4</ele>
        <time>2022-06-07T08:17:47Z</time>
      </trkpt>
      <trkpt lat="47.9258250" lon="8.4613380">
        <ele>275.0</ele>
        <time>2022-06-07T08:17:51Z</time>
      </trkpt>
      <trkpt lat="47.9256960" lon="8.4615230">
        <ele>274.6</ele>
        <time>2022-06-07T08:17:55Z</time>
      </trkpt>
      <trkpt lat="47.9255750" lon="8.4616850">
        <ele>274.2</ele>
        <time>2022-06-07T08:17:59Z</time>
      </trkpt>
      <trkpt lat="47.9254560" lon="8.4618710">
        <ele>273.6</ele>
        <time>2022-06-07T08:18:03Z</time>
      </trkpt>
      <trkpt lat="47.9253350" lon="8.4620260">
        <ele>273.0</ele>
        <time>2022-06-07T08:18:07Z</time>
      </trkpt>
      <trkpt lat="47.9252450" lon="8.4621700">
        <ele>273.8</ele>
        <time>2022-06-07T08:18:11Z</time>
      </trkpt>
      <trkpt lat="47.9251210" lon="8.4622950">
        <ele>274.0</ele>
        <time>2022-06-07T08:18:15Z</time>
      </trkpt>
      <trkpt lat="47.9250360" lon="8.4624110">
        <ele>275.2</ele>
        <time>2022-06-07T08:18:19Z</time>
      </trkpt>
      <trkpt lat="47.9249280" lon="8.4625310">
        <ele>275.4</ele>
        <time>2022-06-07T08:18:23Z</time>
      </trkpt>
      <trkpt lat="47.9248600" lon="8.4626300">
        <ele>275.4</ele>
        <time>2022-06-07T08:18:27Z</time>
      </trkpt>
      <trkpt lat="47.9247910" lon="8.4627800">
        <ele>276.2</ele>
        <time>2022-06-07T08:18:31Z</time>
      </trkpt>
      <trkpt lat="47.9246950" lon="8.4629080">
        <ele>276.2</ele>
        <time>2022-06-07T08:18:35Z</time>
      </trkpt>
      <trkpt lat="47.9246180" lon="8.4630100">
        <ele>276.8</ele>
        <time>2022-06-07T08:18:39Z</time>
      </trkpt>
      <trkpt lat="47.9244900" lon="8.4631710">
        <ele>277.2</ele>
        <time>2022-06-07T08:18:43Z</time>
      </trkpt>
      <trkpt lat="47.9243750" lon="8.4633150">
        <ele>277.4</ele>
        <time>2022-06-07T08:18:47Z</time>
      </trkpt>
      <trkpt lat="47.9242530" lon="8.4634310">
        <ele>277.0</ele>
        <time>2022-06-07T08:18:51Z</time>
      </trkpt>
      <trkpt lat="47.9241100" lon="8.4635860">
        <ele>276.8</ele>
        <time>2022-06-07T08:18:55Z</time>
      </trkpt>
      <trkpt lat="47.9239910" lon="8.4637550">
        <ele>276.6</ele>
        <time>2022-06-07T08:18:59Z</time>
      </trkpt>
      <trkpt lat="47.9238900" lon="8.4639210">
        <ele>276.8</ele>
        <time>2022-06-07T08:19:03Z</time>
      </trkpt>
      <trkpt lat="47.9237730" lon="8.4641060">
        <ele>277.0</ele>
        <time>2022-06-07T08:19:07Z</time>
      </trkpt>
      <trkpt lat="47.9236050" lon="8.4643910">
        <ele>276.8</ele>
        <time>2022-06-07T08:19:11Z</time>
      </trkpt>
      <trkpt lat="47.9235000" lon="8.4646200">
        <ele>276.8</ele>
        <time>2022-06-07T08:19:15Z</time>
      </trkpt>
      <trkpt lat="47.9234130" lon="8.4649080">
        <ele>277.0</ele>
        <time>2022-06-07T08:19:19Z</time>
      </trkpt>
      <trkpt lat="47.9233280" lon="8.4651460">
        <ele>276.6</ele>
        <time>2022-06-07T08:19:23Z</time>
      </trkpt>
      <trkpt lat="47.9232100" lon="8.4653850">
        <ele>275.2</ele>
        <time>2022-06-07T08:19:27Z</time>
      </trkpt>
      <trkpt lat="47.9230780" lon="8.4655950">
        <ele>274.8</ele>
        <time>2022-06-07T08:19:31Z</time>
      </trkpt>
      <trkpt lat="47.9229510" lon="8.4657450">
        <ele>274.6</ele>
        <time>2022-06-07T08:19:35Z</time>
      </trkpt>
      <trkpt lat="47.9228460" lon="8.4659400">
        <ele>273.8</ele>
        <time>2022-06-07T08:19:39Z</time>
      </trkpt>
      <trkpt lat="47.9227310" lon="8.4661380">
        <ele>272.6</ele>
        <time>2022-06-07T08:19:43Z</time>
      </trkpt>
      <trkpt lat="47.9225760" lon="8.4664310">
        <ele>271.6</ele>
        <time>2022-06-07T08:19:47Z</time>
      </trkpt>
      <trkpt lat="47.9224200" lon="8.4667160">
        <ele>270.6</ele>
        <time>2022-06-07T08:19:51Z</time>
      </trkpt>
      <trkpt lat="47.9222780" lon="8.4669560">
        <ele>269.4</ele>
        <time>2022-06-07T08:19:55Z</time>
      </trkpt>
      <trkpt lat="47.9221450" lon="8.4671960">
        <ele>270.6</ele>
        <time>2022-06-07T08:19:59Z</time>
      </trkpt>
      <trkpt lat="47.9220400" lon="8.4674030">
        <ele>271.4</ele>
        <time>2022-06-07T08:20:03Z</time>
      </trkpt>
      <trkpt lat="47.9219760" lon="8.4675680">
        <ele>271.8</ele>
        <time>2022-06-07T08:20:07Z</time>
      </trkpt>
      <trkpt lat="47.9219380" lon="8.4677250">
        <ele>272.0</ele>
        <time>2022-06-07T08:20:11Z</time>
      </trkpt>
      <trkpt lat="47.9218780" lon="8.4679030">
        <ele>272.2</ele>
        <time>2022-06-07T08:20:15Z</time>
      </trkpt>
      <trkpt lat="47.9218180" lon="8.4680660">
        <ele>272.0</ele>
        <time>2022-06-07T08:20:19Z</time>
      </trkpt>
      <trkpt lat="47.9217600" lon="8.4682200">
        <ele>271.8</ele>
        <time>2022-06-07T08:20:23Z</time>
      </trkpt>
      <trkpt lat="47.9216980" lon="8.4684110">
        <ele>271.4</ele>
        <time>2022-06-07T08:20:27Z</time>
      </trkpt>
      <trkpt lat="47.9216330" lon="8.4686530">
        <ele>271.4</ele>
        <time>2022-06-07T08:20:31Z</time>
      </trkpt>
      <trkpt lat="47.9215660" lon="8.4688600">
        <ele>271.4</ele>
        <time>2022-06-07T08:20:35Z</time>
      </trkpt>
      <trkpt lat="47.9214800" lon="8.4691030">
        <ele>272.2</ele>
        <time>2022-06-07T08:20:39Z</time>
      </trkpt>
      <trkpt lat="47.9214030" lon="8.4693200">
        <ele>272.2</ele>
        <time>2022-06-07T08:20:43Z</time>
      </trkpt>
      <trkpt lat="47.9213400" lon="8.4695530">
        <ele>272.0</ele>
        <time>2022-06-07T08:20:47Z</time>
      </trkpt>
      <trkpt lat="47.9212760" lon="8.4697410">
        <ele>272.4</ele>
        <time>2022-06-07T08:20:51Z</time>
      </trkpt>
      <trkpt lat="47.9211930" lon="8.4699580">
        <ele>272.2</ele>
        <time>2022-06-07T08:20:55Z</time>
      </trkpt>
      <trkpt lat="47.9211380" lon="8.4701530">
        <ele>272.6</ele>
        <time>2022-06-07T08:20:59Z</time>
      </trkpt>
      <trkpt lat="47.9210760" lon="8.4703680">
        <ele>272.8</ele>
        <time>2022-06-07T08:21:03Z</time>
      </trkpt>
      <trkpt lat="47.9210730" lon="8.4705500">
        <ele>272.2</ele>
        <time>2022-06-07T08:21:07Z</time>
      </trkpt>
      <trkpt lat="47.9210580" lon="8.4707450">
        <ele>272.6</ele>
        <time>2022-06-07T08:21:11Z</time>
      </trkpt>
      <trkpt lat="47.9209850" lon="8.4709800">
        <ele>273.0</ele>
        <time>2022-06-07T08:21:15Z</time>
      </trkpt>
      <trkpt lat="47.9209530" lon="8.4711810">
        <ele>273.2</ele>
        <time>2022-06-07T08:21:19Z</time>
      </trkpt>
      <trkpt lat="47.9208760" lon="8.4713810">
        <ele>273.6</ele>
        <time>2022-06-07T08:21:23Z</time>
      </trkpt>
      <trkpt lat="47.9208230" lon="8.4716180">
        <ele>273.6</ele>
        <time>2022-06-07T08:21:27Z</time>
      </trkpt>
      <trkpt lat="47.9208050" lon="8.4718630">
        <ele>272.6</ele>
        <time>2022-06-07T08:21:31Z</time>
      </trkpt>
      <trkpt lat="47.9207930" lon="8.4720960">
        <ele>273.6</ele>
        <time>2022-06-07T08:21:35Z</time>
      </trkpt>
      <trkpt lat="47.9207560" lon="8.4723580">
        <ele>273.4</ele>
        <time>2022-06-07T08:21:39Z</time>
      </trkpt>
      <trkpt lat="47.9207030" lon="8.4726210">
        <ele>272.8</ele>
        <time>2022-06-07T08:21:43Z</time>
      </trkpt>
      <trkpt lat="47.9206380" lon="8.4728610">
        <ele>272.8</ele>
        <time>2022-06-07T08:21:47Z</time>
      </trkpt>
      <trkpt lat="47.9205950" lon="8.4731180">
        <ele>272.6</ele>
        <time>2022-06-07T08:21:51Z</time>
      </trkpt>
      <trkpt lat="47.9205460" lon="8.4733560">
        <ele>273.2</ele>
        <time>2022-06-07T08:21:55Z</time>
      </trkpt>
      <trkpt lat="47.9205050" lon="8.4736030">
        <ele>272.8</ele>
        <time>2022-06-07T08:21:59Z</time>
      </trkpt>
      <trkpt lat="47.9204700" lon="8.4737930">
        <ele>273.2</ele>
        <time>2022-06-07T08:22:03Z</time>
      </trkpt>
      <trkpt lat="47.9204650" lon="8.4739200">
        <ele>272.6</ele>
        <time>2022-06-07T08:22:07Z</time>
      </trkpt>
      <trkpt lat="47.9204810" lon="8.4740750">
        <ele>272.2</ele>
        <time>2022-06-07T08:22:11Z</time>
      </trkpt>
      <trkpt lat="47.9204810" lon="8.4742750">
        <ele>272.4</ele>
        <time>2022-06-07T08:22:15Z</time>
      </trkpt>
      <trkpt lat="47.9204250" lon="8.4745380">
        <ele>271.8</ele>
        <time>2022-06-07T08:22:19Z</time>
      </trkpt>
      <trkpt lat="47.9204150" lon="8.4747400">
        <ele>271.8</ele>
        <time>2022-06-07T08:22:23Z</time>
      </trkpt>
      <trkpt lat="47.9203950" lon="8.4749850">
        <ele>272.0</ele>
        <time>2022-06-07T08:22:27Z</time>
      </trkpt>
      <trkpt lat="47.9203880" lon="8.4752080">
        <ele>272.0</ele>
        <time>2022-06-07T08:22:31Z</time>
      </trkpt>
      <trkpt lat="47.9203430" lon="8.4753700">
        <ele>271.6</ele>
        <time>2022-06-07T08:22:35Z</time>
      </trkpt>
      <trkpt lat="47.9202900" lon="8.4756000">
        <ele>271.4</ele>
        <time>2022-06-07T08:22:39Z</time>
      </trkpt>
      <trkpt lat="47.9202600" lon="8.4758360">
        <ele>271.0</ele>
        <time>2022-06-07T08:22:43Z</time>
      </trkpt>
      <trkpt lat="47.9202480" lon="8.4761000">
        <ele>270.8</ele>
        <time>2022-06-07T08:22:47Z</time>
      </trkpt>
      <trkpt lat="47.9202510" lon="8.4762410">
        <ele>270.8</ele>
        <time>2022-06-07T08:22:51Z</time>
      </trkpt>
      <trkpt lat="47.9202510" lon="8.4762410">
        <ele>271.0</ele>
        <time>2022-06-07T08:22:55Z</time>
      </trkpt>
      <trkpt lat="47.9202510" lon="8.4762410">
        <ele>270.6</ele>
        <time>2022-06-07T08:22:59Z</time>
      </trkpt>
      <trkpt lat="47.9202510" lon="8.4762410">
        <ele>270.8</ele>
        <time>2022-06-07T08:23:03Z</time>
      </trkpt>
      <trkpt lat="47.9202510" lon="8.4762410">
        <ele>270.4</ele>
        <time>2022-06-07T08:23:07Z</time>
      </trkpt>
      <trkpt lat="47.9202980" lon="8.4764100">
        <ele>270.2</ele>
        <time>2022-06-07T08:23:11Z</time>
      </trkpt>
      <trkpt lat="47.9202710" lon="8.4765130">
        <ele>269.8</ele>
        <time>2022-06-07T08:23:15Z</time>
      </trkpt>
      <trkpt lat="47.9202200" lon="8.4766980">
        <ele>268.6</ele>
        <time>2022-06-07T08:23:19Z</time>
      </trkpt>
      <trkpt lat="47.9201630" lon="8.4769780">
        <ele>266.8</ele>
        <time>2022-06-07T08:23:23Z</time>
      </trkpt>
      <trkpt lat="47.9201100" lon="8.4772110">
        <ele>265.6</ele>
        <time>2022-06-07T08:23:27Z</time>
      </trkpt>
      <trkpt lat="47.9200200" lon="8.4775030">
        <ele>265.2</ele>
        <time>2022-06-07T08:23:31Z</time>
      </trkpt>
      <trkpt lat="47.9200860" lon="8.4777510">
        <ele>263.8</ele>
        <time>2022-06-07T08:23:35Z</time>
      </trkpt>
      <trkpt lat="47.9201850" lon="8.4778980">
        <ele>264.2</ele>
        <time>2022-06-07T08:23:39Z</time>
      </trkpt>
      <trkpt lat="47.9203210" lon="8.4780930">
        <ele>262.8</ele>
        <time>2022-06-07T08:23:43Z</time>
      </trkpt>
      <trkpt lat="47.9204000" lon="8.4783580">
        <ele>262.0</ele>
        <time>2022-06-07T08:23:47Z</time>
      </trkpt>
      <trkpt lat="47.9204330" lon="8.4785700">
        <ele>261.4</ele>
        <time>2022-06-07T08:23:51Z</time>
      </trkpt>
      <trkpt lat="47.9204730" lon="8.4787680">
        <ele>261.2</ele>
        <time>2022-06-07T08:23:55Z</time>
      </trkpt>
      <trkpt lat="47.9205080" lon="8.4789960">
        <ele>261.6</ele>
        <time>2022-06-07T08:23:59Z</time>
      </trkpt>
      <trkpt lat="47.9205330" lon="8.4791710">
        <ele>261.4</ele>
        <time>2022-06-07T08:24:03Z</time>
      </trkpt>
      <trkpt lat="47.9205350" lon="8.4793700">
        <ele>261.6</ele>
        <time>2022-06-07T08:24:07Z</time>
      </trkpt>
      <trkpt lat="47.9205500" lon="8.4796230">
        <ele>261.2</ele>
        <time>2022-06-07T08:24:11Z</time>
      </trkpt>
      <trkpt lat="47.9205400" lon="8.4798710">
        <ele>261.2</ele>
        <time>2022-06-07T08:24:15Z</time>
      </trkpt>
      <trkpt lat="47.9205610" lon="8.4800800">
        <ele>262.2</ele>
        <time>2022-06-07T08:24:19Z</time>
      </trkpt>
      <trkpt lat="47.9205930" lon="8.4801930">
        <ele>262.6</ele>
        <time>2022-06-07T08:24:23Z</time>
      </trkpt>
      <trkpt lat="47.9206300" lon="8.4802760">
        <ele>262.4</ele>
        <time>2022-06-07T08:24:27Z</time>
      </trkpt>
      <trkpt lat="47.9206300" lon="8.4802760">
        <ele>262.2</ele>
        <time>2022-06-07T08:24:31Z</time>
      </trkpt>
      <trkpt lat="47.9206300" lon="8.4802760">
        <ele>262.6</ele>
        <time>2022-06-07T08:24:35Z</time>
      </trkpt>
      <trkpt lat="47.9206300" lon="8.4802760">
        <ele>262.6</ele>
        <time>2022-06-07T08:24:39Z</time>
      </trkpt>
      <trkpt lat="47.9206700" lon="8.4803310">
        <ele>262.0</ele>
        <time>2022-06-07T08:24:43Z</time>
      </trkpt>
      <trkpt lat="47.9206850" lon="8.4803980">
        <ele>262.8</ele>
        <time>2022-06-07T08:24:47Z</time>
      </trkpt>
      <trkpt lat="47.9206980" lon="8.4805050">
        <ele>262.8</ele>
        <time>2022-06-07T08:24:51Z</time>
      </trkpt>
      <trkpt lat="47.9207530" lon="8.4806250">
        <ele>262.6</ele>
        <time>2022-06-07T08:24:55Z</time>
      </trkpt>
      <trkpt lat="47.9208130" lon="8.4807830">
        <ele>262.4</ele>
        <time>2022-06-07T08:24:59Z</time>
      </trkpt>
      <trkpt lat="47.9208350" lon="8.4809400">
        <ele>262.0</ele>
        <time>2022-06-07T08:25:03Z</time>
      </trkpt>
      <trkpt lat="47.9208460" lon="8.4810850">
        <ele>262.0</ele>
        <time>2022-06-07T08:25:07Z</time>
      </trkpt>
      <trkpt lat="47.9208910" lon="8.4812900">
        <ele>262.4</ele>
        <time>2022-06-07T08:25:11Z</time>
      </trkpt>
      <trkpt lat="47.9209060" lon="8.4814510">
        <ele>262.2</ele>
        <time>2022-06-07T08:25:15Z</time>
      </trkpt>
      <trkpt lat="47.9209680" lon="8.4816180">
        <ele>262.0</ele>
        <time>2022-06-07T08:25:19Z</time>
      </trkpt>
      <trkpt lat="47.9210210" lon="8.4818180">
        <ele>262.2</ele>
        <time>2022-06-07T08:25:23Z</time>
      </trkpt>
      <trkpt lat="47.9210760" lon="8.4819980">
        <ele>262.0</ele>
        <time>2022-06-07T08:25:27Z</time>
      </trkpt>
      <trkpt lat="47.9211410" lon="8.4822330">
        <ele>261.4</ele>
        <time>2022-06-07T08:25:31Z</time>
      </trkpt>
      <trkpt lat="47.9211700" lon="8.4824500">
        <ele>261.0</ele>
        <time>2022-06-07T08:25:35Z</time>
      </trkpt>
      <trkpt lat="47.9212010" lon="8.4827160">
        <ele>260.2</ele>
        <time>2022-06-07T08:25:39Z</time>
      </trkpt>
      <trkpt lat="47.9212710" lon="8.4830280">
        <ele>260.6</ele>
        <time>2022-06-07T08:25:43Z</time>
      </trkpt>
      <trkpt lat="47.9213500" lon="8.4833110">
        <ele>259.2</ele>
        <time>2022-06-07T08:25:47Z</time>
      </trkpt>
      <trkpt lat="47.9214360" lon="8.4835530">
        <ele>259.6</ele>
        <time>2022-06-07T08:25:51Z</time>
      </trkpt>
      <trkpt lat="47.9214910" lon="8.4837700">
        <ele>259.6</ele>
        <time>2022-06-07T08:25:55Z</time>
      </trkpt>
      <trkpt lat="47.9215230" lon="8.4840030">
        <ele>259.2</ele>
        <time>2022-06-07T08:25:59Z</time>
      </trkpt>
      <trkpt lat="47.9215780" lon="8.4842510">
        <ele>259.4</ele>
        <time>2022-06-07T08:26:03Z</time>
      </trkpt>
      <trkpt lat="47.9216350" lon="8.4845100">
        <ele>259.8</ele>
        <time>2022-06-07T08:26:07Z</time>
      </trkpt>
      <trkpt lat="47.9217110" lon="8.4847710">
        <ele>259.6</ele>
        <time>2022-06-07T08:26:11Z</time>
      </trkpt>
      <trkpt lat="47.9217880" lon="8.4850380">
        <ele>259.8</ele>
        <time>2022-06-07T08:26:15Z</time>
      </trkpt>
      <trkpt lat="47.9218610" lon="8.4852880">
        <ele>259.4</ele>
        <time>2022-06-07T08:26:19Z</time>
      </trkpt>
      <trkpt lat="47.9219400" lon="8.4855480">
        <ele>259.4</ele>
        <time>2022-06-07T08:26:23Z</time>
      </trkpt>
      <trkpt lat="47.9220150" lon="8.4857950">
        <ele>259.4</ele>
        <time>2022-06-07T08:26:27Z</time>
      </trkpt>
      <trkpt lat="47.9220480" lon="8.4860130">
        <ele>259.0</ele>
        <time>2022-06-07T08:26:31Z</time>
      </trkpt>
      <trkpt lat="47.9221200" lon="8.4862350">
        <ele>259.2</ele>
        <time>2022-06-07T08:26:35Z</time>
      </trkpt>
      <trkpt lat="47.9221860" lon="8.4864980">
        <ele>259.0</ele>
        <time>2022-06-07T08:26:39Z</time>
      </trkpt>
      <trkpt lat="47.9222450" lon="8.4867180">
        <ele>259.0</ele>
        <time>2022-06-07T08:26:43Z</time>
      </trkpt>
      <trkpt lat="47.9222910" lon="8.4869050">
        <ele>258.8</ele>
        <time>2022-06-07T08:26:47Z</time>
      </trkpt>
      <trkpt lat="47.9223130" lon="8.4871600">
        <ele>258.8</ele>
        <time>2022-06-07T08:26:51Z</time>
      </trkpt>
      <trkpt lat="47.9223660" lon="8.4873980">
        <ele>258.8</ele>
        <time>2022-06-07T08:26:55Z</time>
      </trkpt>
      <trkpt lat="47.9224460" lon="8.4876150">
        <ele>258.8</ele>
        <time>2022-06-07T08:26:59Z</time>
      </trkpt>
      <trkpt lat="47.9225150" lon="8.4878500">
        <ele>258.6</ele>
        <time>2022-06-07T08:27:03Z</time>
      </trkpt>
      <trkpt lat="47.9226030" lon="8.4880700">
        <ele>259.0</ele>
        <time>2022-06-07T08:27:07Z</time>
      </trkpt>
      <trkpt lat="47.9226560" lon="8.4882580">
        <ele>259.4</ele>
        <time>2022-06-07T08:27:11Z</time>
      </trkpt>
      <trkpt lat="47.9226900" lon="8.4884130">
        <ele>260.4</ele>
        <time>2022-06-07T08:27:15Z</time>
      </trkpt>
      <trkpt lat="47.9227210" lon="8.4885310">
        <ele>260.0</ele>
        <time>2022-06-07T08:27:19Z</time>
      </trkpt>
      <trkpt lat="47.9228210" lon="8.4886430">
        <ele>260.4</ele>
        <time>2022-06-07T08:27:23Z</time>
      </trkpt>
      <trkpt lat="47.9229330" lon="8.4886460">
        <ele>260.4</ele>
        <time>2022-06-07T08:27:27Z</time>
      </trkpt>
      <trkpt lat="47.9230500" lon="8.4886310">
        <ele>260.4</ele>
        <time>2022-06-07T08:27:31Z</time>
      </trkpt>
      <trkpt lat="47.9231760" lon="8.4885950">
        <ele>260.4</ele>
        <time>2022-06-07T08:27:35Z</time>
      </trkpt>
      <trkpt lat="47.9233230" lon="8.4886060">
        <ele>259.4</ele>
        <time>2022-06-07T08:27:39Z</time>
      </trkpt>
      <trkpt lat="47.9234600" lon="8.4886410">
        <ele>259.6</ele>
        <time>2022-06-07T08:27:43Z</time>
      </trkpt>
      <trkpt lat="47.9236000" lon="8.4887210">
        <ele>259.4</ele>
        <time>2022-06-07T08:27:47Z</time>
      </trkpt>
      <trkpt lat="47.9237400" lon="8.4888080">
        <ele>259.4</ele>
        <time>2022-06-07T08:27:51Z</time>
      </trkpt>
      <trkpt lat="47.9238980" lon="8.4888650">
        <ele>257.8</ele>
        <time>2022-06-07T08:27:55Z</time>
      </trkpt>
      <trkpt lat="47.9240560" lon="8.4888280">
        <ele>257.6</ele>
        <time>2022-06-07T08:27:59Z</time>
      </trkpt>
      <trkpt lat="47.9242750" lon="8.4888230">
        <ele>258.0</ele>
        <time>2022-06-07T08:28:03Z</time>
      </trkpt>
      <trkpt lat="47.9244580" lon="8.4888710">
        <ele>257.8</ele>
        <time>2022-06-07T08:28:07Z</time>
      </trkpt>
      <trkpt lat="47.9246280" lon="8.4889730">
        <ele>258.6</ele>
        <time>2022-06-07T08:28:11Z</time>
      </trkpt>
      <trkpt lat="47.9248000" lon="8.4890700">
        <ele>257.4</ele>
        <time>2022-06-07T08:28:15Z</time>
      </trkpt>
      <trkpt lat="47.9249800" lon="8.4891510">
        <ele>258.0</ele>
        <time>2022-06-07T08:28:19Z</time>
      </trkpt>
      <trkpt lat="47.9251550" lon="8.4892100">
        <ele>258.8</ele>
        <time>2022-06-07T08:28:23Z</time>
      </trkpt>
      <trkpt lat="47.9253560" lon="8.4892400">
        <ele>258.6</ele>
        <time>2022-06-07T08:28:27Z</time>
      </trkpt>
      <trkpt lat="47.9255530" lon="8.4892480">
        <ele>258.4</ele>
        <time>2022-06-07T08:28:31Z</time>
      </trkpt>
      <trkpt lat="47.9257480" lon="8.4892400">
        <ele>257.6</ele>
        <time>2022-06-07T08:28:35Z</time>
      </trkpt>
      <trkpt lat="47.9259110" lon="8.4892950">
        <ele>258.6</ele>
        <time>2022-06-07T08:28:39Z</time>
      </trkpt>
      <trkpt lat="47.9260680" lon="8.4893930">
        <ele>258.6</ele>
        <time>2022-06-07T08:28:43Z</time>
      </trkpt>
      <trkpt lat="47.9262380" lon="8.4894100">
        <ele>258.4</ele>
        <time>2022-06-07T08:28:47Z</time>
      </trkpt>
      <trkpt lat="47.9263910" lon="8.4894430">
        <ele>258.8</ele>
        <time>2022-06-07T08:28:51Z</time>
      </trkpt>
      <trkpt lat="47.9265260" lon="8.4895200">
        <ele>258.8</ele>
        <time>2022-06-07T08:28:55Z</time>
      </trkpt>
      <trkpt lat="47.9266550" lon="8.4896180">
        <ele>259.0</ele>
        <time>2022-06-07T08:28:59Z</time>
      </trkpt>
      <trkpt lat="47.9268030" lon="8.4896780">
        <ele>258.8</ele>
        <time>2022-06-07T08:29:03Z</time>
      </trkpt>
      <trkpt lat="47.9269510" lon="8.4897680">
        <ele>259.4</ele>
        <time>2022-06-07T08:29:07Z</time>
      </trkpt>
      <trkpt lat="47.9270960" lon="8.4898680">
        <ele>258.8</ele>
        <time>2022-06-07T08:29:11Z</time>
      </trkpt>
      <trkpt lat="47.9272450" lon="8.4899600">
        <ele>258.8</ele>
        <time>2022-06-07T08:29:15Z</time>
      </trkpt>
      <trkpt lat="47.9273580" lon="8.4900280">
        <ele>258.6</ele>
        <time>2022-06-07T08:29:19Z</time>
      </trkpt>
      <trkpt lat="47.9274660" lon="8.4900900">
        <ele>258.0</ele>
        <time>2022-06-07T08:29:23Z</time>
      </trkpt>
      <trkpt lat="47.9275750" lon="8.4901680">
        <ele>258.4</ele>
        <time>2022-06-07T08:29:27Z</time>
      </trkpt>
      <trkpt lat="47.9276850" lon="8.4902760">
        <ele>258.4</ele>
        <time>2022-06-07T08:29:31Z</time>
      </trkpt>
      <trkpt lat="47.9277660" lon="8.4903450">
        <ele>258.6</ele>
        <time>2022-06-07T08:29:35Z</time>
      </trkpt>
      <trkpt lat="47.9278550" lon="8.4904250">
        <ele>258.2</ele>
        <time>2022-06-07T08:29:39Z</time>
      </trkpt>
      <trkpt lat="47.9279910" lon="8.4904900">
        <ele>258.6</ele>
        <time>2022-06-07T08:29:43Z</time>
      </trkpt>
      <trkpt lat="47.9281210" lon="8.4905930">
        <ele>257.6</ele>
        <time>2022-06-07T08:29:47Z</time>
      </trkpt>
      <trkpt lat="47.9282480" lon="8.4906850">
        <ele>258.2</ele>
        <time>2022-06-07T08:29:51Z</time>
      </trkpt>
      <trkpt lat="47.9283850" lon="8.4907850">
        <ele>258.6</ele>
        <time>2022-06-07T08:29:55Z</time>
      </trkpt>
      <trkpt lat="47.9285300" lon="8.4909000">
        <ele>258.6</ele>
        <time>2022-06-07T08:29:59Z</time>
      </trkpt>
      <trkpt lat="47.9286780" lon="8.4910080">
        <ele>258.6</ele>
        <time>2022-06-07T08:30:03Z</time>
      </trkpt>
      <trkpt lat="47.9288260" lon="8.4911210">
        <ele>258.6</ele>
        <time>2022-06-07T08:30:07Z</time>
      </trkpt>
      <trkpt lat="47.9289710" lon="8.4912310">
        <ele>258.2</ele>
        <time>2022-06-07T08:30:11Z</time>
      </trkpt>
      <trkpt lat="47.9291130" lon="8.4913350">
        <ele>258.2</ele>
        <time>2022-06-07T08:30:15Z</time>
      </trkpt>
      <trkpt lat="47.9292530" lon="8.4914450">
        <ele>258.2</ele>
        <time>2022-06-07T08:30:19Z</time>
      </trkpt>
      <trkpt lat="47.9293950" lon="8.4915600">
        <ele>258.0</ele>
        <time>2022-06-07T08:30:23Z</time>
      </trkpt>
      <trkpt lat="47.9295510" lon="8.4916530">
        <ele>258.6</ele>
        <time>2022-06-07T08:30:27Z</time>
      </trkpt>
      <trkpt lat="47.9297110" lon="8.4917680">
        <ele>258.4</ele>
        <time>2022-06-07T08:30:31Z</time>
      </trkpt>
      <trkpt lat="47.9298680" lon="8.4918810">
        <ele>257.4</ele>
        <time>2022-06-07T08:30:35Z</time>
      </trkpt>
      <trkpt lat="47.9300300" lon="8.4920000">
        <ele>257.8</ele>
        <time>2022-06-07T08:30:39Z</time>
      </trkpt>
      <trkpt lat="47.9301960" lon="8.4921180">
        <ele>258.0</ele>
        <time>2022-06-07T08:30:43Z</time>
      </trkpt>
      <trkpt lat="47.9303610" lon="8.4922450">
        <ele>258.0</ele>
        <time>2022-06-07T08:30:47Z</time>
      </trkpt>
      <trkpt lat="47.9305250" lon="8.4923680">
        <ele>258.4</ele>
        <time>2022-06-07T08:30:51Z</time>
      </trkpt>
      <trkpt lat="47.9307030" lon="8.4924980">
        <ele>258.0</ele>
        <time>2022-06-07T08:30:55Z</time>
      </trkpt>
      <trkpt lat="47.9308550" lon="8.4926500">
        <ele>257.6</ele>
        <time>2022-06-07T08:30:59Z</time>
      </trkpt>
      <trkpt lat="47.9309960" lon="8.4927530">
        <ele>258.0</ele>
        <time>2022-06-07T08:31:03Z</time>
      </trkpt>
      <trkpt lat="47.9311210" lon="8.4928430">
        <ele>257.4</ele>
        <time>2022-06-07T08:31:07Z</time>
      </trkpt>
      <trkpt lat="47.9312630" lon="8.4929450">
        <ele>257.4</ele>
        <time>2022-06-07T08:31:11Z</time>
      </trkpt>
      <trkpt lat="47.9314100" lon="8.4930530">
        <ele>257.8</ele>
        <time>2022-06-07T08:31:15Z</time>
      </trkpt>
      <trkpt lat="47.9315560" lon="8.4931580">
        <ele>257.8</ele>
        <time>2022-06-07T08:31:19Z</time>
      </trkpt>
      <trkpt lat="47.9316950" lon="8.4932460">
        <ele>257.8</ele>
        <time>2022-06-07T08:31:23Z</time>
      </trkpt>
      <trkpt lat="47.9318230" lon="8.4933280">
        <ele>257.8</ele>
        <time>2022-06-07T08:31:27Z</time>
      </trkpt>
      <trkpt lat="47.9319550" lon="8.4934280">
        <ele>258.2</ele>
        <time>2022-06-07T08:31:31Z</time>
      </trkpt>
      <trkpt lat="47.9320850" lon="8.4935200">
        <ele>258.4</ele>
        <time>2022-06-07T08:31:35Z</time>
      </trkpt>
      <trkpt lat="47.9322230" lon="8.4936300">
        <ele>258.0</ele>
        <time>2022-06-07T08:31:39Z</time>
      </trkpt>
      <trkpt lat="47.9323680" lon="8.4937310">
        <ele>258.2</ele>
        <time>2022-06-07T08:31:43Z</time>
      </trkpt>
      <trkpt lat="47.9325210" lon="8.4938280">
        <ele>257.4</ele>
        <time>2022-06-07T08:31:47Z</time>
      </trkpt>
      <trkpt lat="47.9326710" lon="8.4939350">
        <ele>258.0</ele>
        <time>2022-06-07T08:31:51Z</time>
      </trkpt>
      <trkpt lat="47.9328110" lon="8.4940380">
        <ele>257.0</ele>
        <time>2022-06-07T08:31:55Z</time>
      </trkpt>
      <trkpt lat="47.9329430" lon="8.4941430">
        <ele>256.6</ele>
        <time>2022-06-07T08:31:59Z</time>
      </trkpt>
      <trkpt lat="47.9330350" lon="8.4942900">
        <ele>257.4</ele>
        <time>2022-06-07T08:32:03Z</time>
      </trkpt>
      <trkpt lat="47.9330350" lon="8.4944360">
        <ele>257.2</ele>
        <time>2022-06-07T08:32:07Z</time>
      </trkpt>
      <trkpt lat="47.9330800" lon="8.4945600">
        <ele>257.0</ele>
        <time>2022-06-07T08:32:11Z</time>
      </trkpt>
      <trkpt lat="47.9330880" lon="8.4946960">
        <ele>256.4</ele>
        <time>2022-06-07T08:32:15Z</time>
      </trkpt>
      <trkpt lat="47.9331410" lon="8.4947900">
        <ele>256.8</ele>
        <time>2022-06-07T08:32:19Z</time>
      </trkpt>
      <trkpt lat="47.9332000" lon="8.4948480">
        <ele>257.0</ele>
        <time>2022-06-07T08:32:23Z</time>
      </trkpt>
      <trkpt lat="47.9332260" lon="8.4949330">
        <ele>257.6</ele>
        <time>2022-06-07T08:32:27Z</time>
      </trkpt>
      <trkpt lat="47.9332260" lon="8.4949330">
        <ele>257.6</ele>
        <time>2022-06-07T08:32:31Z</time>
      </trkpt>
      <trkpt lat="47.9332260" lon="8.4949330">
        <ele>257.6</ele>
        <time>2022-06-07T08:32:35Z</time>
      </trkpt>
      <trkpt lat="47.9332500" lon="8.4949910">
        <ele>256.8</ele>
        <time>2022-06-07T08:32:39Z</time>
      </trkpt>
      <trkpt lat="47.9332500" lon="8.4949910">
        <ele>257.6</ele>
        <time>2022-06-07T08:32:43Z</time>
      </trkpt>
      <trkpt lat="47.9332500" lon="8.4949910">
        <ele>257.6</ele>
        <time>2022-06-07T08:32:47Z</time>
      </trkpt>
      <trkpt lat="47.9332500" lon="8.4949910">
        <ele>257.2</ele>
        <time>2022-06-07T08:32:51Z</time>
      </trkpt>
      <trkpt lat="47.9332500" lon="8.4949910">
        <ele>257.6</ele>
        <time>2022-06-07T08:32:55Z</time>
      </trkpt>
      <trkpt lat="47.9332500" lon="8.4949910">
        <ele>257.2</ele>
        <time>2022-06-07T08:32:59Z</time>
      </trkpt>
      <trkpt lat="47.9332500" lon="8.4949910">
        <ele>257.2</ele>
        <time>2022-06-07T08:33:03Z</time>
      </trkpt>
      <trkpt lat="47.9332500" lon="8.4949910">
        <ele>257.6</ele>
        <time>2022-06-07T08:33:07Z</time>
      </trkpt>
      <trkpt lat="47.9332500" lon="8.4949910">
        <ele>257.0</ele>
        <time>2022-06-07T08:33:11Z</time>
      </trkpt>
      <trkpt lat="47.9332500" lon="8.4949910">
        <ele>257.2</ele>
        <time>2022-06-07T08:33:15Z</time>
      </trkpt>
      <trkpt lat="47.9332500" lon="8.4949910">
        <ele>257.2</ele>
        <time>2022-06-07T08:33:19Z</time>
      </trkpt>
      <trkpt lat="47.9332500" lon="8.4949910">
        <ele>257.6</ele>
        <time>2022-06-07T08:33:23Z</time>
      </trkpt>
      <trkpt lat="47.9332500" lon="8.4949910">
        <ele>257.8</ele>
        <time>2022-06-07T08:33:27Z</time>
      </trkpt>
      <trkpt lat="47.9332500" lon="8.4949910">
        <ele>257.4</ele>
        <time>2022-06-07T08:33:31Z</time>
      </trkpt>
      <trkpt lat="47.9332500" lon="8.4949910">
        <ele>257.2</ele>
        <time>2022-06-07T08:33:35Z</time>
      </trkpt>
      <trkpt lat="47.9332500" lon="8.4949910">
        <ele>257.8</ele>
        <time>2022-06-07T08:33:39Z</time>
      </trkpt>
      <trkpt lat="47.9332500" lon="8.4949910">
        <ele>257.8</ele>
        <time>2022-06-07T08:33:43Z</time>
      </trkpt>
      <trkpt lat="47.9332500" lon="8.4949910">
        <ele>257.6</ele>
        <time>2022-06-07T08:33:47Z</time>
      </trkpt>
      <trkpt lat="47.9332500" lon="8.4949910">
        <ele>257.8</ele>
        <time>2022-06-07T08:33:51Z</time>
      </trkpt>
      <trkpt lat="47.9332500" lon="8.4949910">
        <ele>257.8</ele>
        <time>2022-06-07T08:33:55Z</time>
      </trkpt>
      <trkpt lat="47.9332500" lon="8.4949910">
        <ele>257.6</ele>
        <time>2022-06-07T08:33:59Z</time>
      </trkpt>
      <trkpt lat="47.9332500" lon="8.4949910">
        <ele>257.2</ele>
        <time>2022-06-07T08:34:03Z</time>
      </trkpt>
      <trkpt lat="47.9332500" lon="8.4949910">
        <ele>257.8</ele>
        <time>2022-06-07T08:34:07Z</time>
      </trkpt>
      <trkpt lat="47.9332500" lon="8.4949910">
        <ele>257.4</ele>
        <time>2022-06-07T08:34:11Z</time>
      </trkpt>
      <trkpt lat="47.9332500" lon="8.4949910">
        <ele>257.6</ele>
        <time>2022-06-07T08:34:15Z</time>
      </trkpt>
      <trkpt lat="47.9332500" lon="8.4949910">
        <ele>257.8</ele>
        <time>2022-06-07T08:34:19Z</time>
      </trkpt>
      <trkpt lat="47.9332500" lon="8.4949910">
        <ele>257.8</ele>
        <time>2022-06-07T08:34:23Z</time>
      </trkpt>
      <trkpt lat="47.9332500" lon="8.4949910">
        <ele>257.8</ele>
        <time>2022-06-07T08:34:27Z</time>
      </trkpt>
      <trkpt lat="47.9332500" lon="8.4949910">
        <ele>258.0</ele>
        <time>2022-06-07T08:34:31Z</time>
      </trkpt>
      <trkpt lat="47.9332500" lon="8.4949910">
        <ele>257.8</ele>
        <time>2022-06-07T08:34:35Z</time>
      </trkpt>
      <trkpt lat="47.9332500" lon="8.4949910">
        <ele>257.6</ele>
        <time>2022-06-07T08:34:39Z</time>
      </trkpt>
      <trkpt lat="47.9332500" lon="8.4949910">
        <ele>257.8</ele>
        <time>2022-06-07T08:34:43Z</time>
      </trkpt>
      <trkpt lat="47.9332500" lon="8.4949910">
        <ele>257.6</ele>
        <time>2022-06-07T08:34:47Z</time>
      </trkpt>
      <trkpt lat="47.9332500" lon="8.4949910">
        <ele>257.6</ele>
        <time>2022-06-07T08:34:51Z</time>
      </trkpt>
      <trkpt lat="47.9332500" lon="8.4949910">
        <ele>257.8</ele>
        <time>2022-06-07T08:34:55Z</time>
      </trkpt>
      <trkpt lat="47.9332500" lon="8.4949910">
        <ele>257.8</ele>
        <time>2022-06-07T08:34:59Z</time>
      </trkpt>
      <trkpt lat="47.9332500" lon="8.4949910">
        <ele>257.8</ele>
        <time>2022-06-07T08:35:03Z</time>
      </trkpt>
      <trkpt lat="47.9332500" lon="8.4949910">
        <ele>257.8</ele>
        <time>2022-06-07T08:35:07Z</time>
      </trkpt>
      <trkpt lat="47.9332500" lon="8.4949910">
        <ele>258.0</ele>
        <time>2022-06-07T08:35:11Z</time>
      </trkpt>
      <trkpt lat="47.9332500" lon="8.4949910">
        <ele>258.0</ele>
        <time>2022-06-07T08:35:15Z</time>
      </trkpt>
      <trkpt lat="47.9332500" lon="8.4949910">
        <ele>257.8</ele>
        <time>2022-06-07T08:35:19Z</time>
      </trkpt>
      <trkpt lat="47.9332500" lon="8.4949910">
        <ele>257.6</ele>
        <time>2022-06-07T08:35:23Z</time>
      </trkpt>
      <trkpt lat="47.9332500" lon="8.4949910">
        <ele>258.0</ele>
        <time>2022-06-07T08:35:27Z</time>
      </trkpt>
      <trkpt lat="47.9332500" lon="8.4949910">
        <ele>257.8</ele>
        <time>2022-06-07T08:35:31Z</time>
      </trkpt>
      <trkpt lat="47.9332500" lon="8.4949910">
        <ele>257.8</ele>
        <time>2022-06-07T08:35:35Z</time>
      </trkpt>
      <trkpt lat="47.9332500" lon="8.4949910">
        <ele>258.0</ele>
        <time>2022-06-07T08:35:39Z</time>
      </trkpt>
      <trkpt lat="47.9332500" lon="8.4949910">
        <ele>257.8</ele>
        <time>2022-06-07T08:35:43Z</time>
      </trkpt>
      <trkpt lat="47.9332500" lon="8.4949910">
        <ele>257.6</ele>
        <time>2022-06-07T08:35:47Z</time>
      </trkpt>
      <trkpt lat="47.9332500" lon="8.4949910">
        <ele>257.4</ele>
        <time>2022-06-07T08:35:51Z</time>
      </trkpt>
      <trkpt lat="47.9332500" lon="8.4949910">
        <ele>257.4</ele>
        <time>2022-06-07T08:35:55Z</time>
      </trkpt>
      <trkpt lat="47.9332500" lon="8.4949910">
        <ele>257.6</ele>
        <time>2022-06-07T08:35:59Z</time>
      </trkpt>
      <trkpt lat="47.9332500" lon="8.4949910">
        <ele>257.8</ele>
        <time>2022-06-07T08:36:03Z</time>
      </trkpt>
      <trkpt lat="47.9332500" lon="8.4949910">
        <ele>257.4</ele>
        <time>2022-06-07T08:36:07Z</time>
      </trkpt>
      <trkpt lat="47.9332500" lon="8.4949910">
        <ele>257.4</ele>
        <time>2022-06-07T08:36:11Z</time>
      </trkpt>
      <trkpt lat="47.9332500" lon="8.4949910">
        <ele>257.6</ele>
        <time>2022-06-07T08:36:15Z</time>
      </trkpt>
      <trkpt lat="47.9332500" lon="8.4949910">
        <ele>257.4</ele>
        <time>2022-06-07T08:36:19Z</time>
      </trkpt>
      <trkpt lat="47.9332500" lon="8.4949910">
        <ele>257.6</ele>
        <time>2022-06-07T08:36:23Z</time>
      </trkpt>
      <trkpt lat="47.9332500" lon="8.4949910">
        <ele>257.4</ele>
        <time>2022-06-07T08:36:27Z</time>
      </trkpt>
      <trkpt lat="47.9332500" lon="8.4949910">
        <ele>257.8</ele>
        <time>2022-06-07T08:36:31Z</time>
      </trkpt>
      <trkpt lat="47.9332500" lon="8.4949910">
        <ele>257.8</ele>
        <time>2022-06-07T08:36:35Z</time>
      </trkpt>
      <trkpt lat="47.9332500" lon="8.4949910">
        <ele>257.6</ele>
        <time>2022-06-07T08:36:39Z</time>
      </trkpt>
      <trkpt lat="47.9332500" lon="8.4949910">
        <ele>257.6</ele>
        <time>2022-06-07T08:36:43Z</time>
      </trkpt>
      <trkpt lat="47.9332500" lon="8.4949910">
        <ele>257.6</ele>
        <time>2022-06-07T08:36:47Z</time>
      </trkpt>
      <trkpt lat="47.9332500" lon="8.4949910">
        <ele>257.4</ele>
        <time>2022-06-07T08:36:51Z</time>
      </trkpt>
      <trkpt lat="47.9332500" lon="8.4949910">
        <ele>257.6</ele>
        <time>2022-06-07T08:36:55Z</time>
      </trkpt>
      <trkpt lat="47.9332500" lon="8.4949910">
        <ele>257.6</ele>
        <time>2022-06-07T08:36:59Z</time>
      </trkpt>
      <trkpt lat="47.9332500" lon="8.4949910">
        <ele>257.2</ele>
        <time>2022-06-07T08:37:03Z</time>
      </trkpt>
      <trkpt lat="47.9332500" lon="8.4949910">
        <ele>257.2</ele>
        <time>2022-06-07T08:37:07Z</time>
      </trkpt>
      <trkpt lat="47.9332500" lon="8.4949910">
        <ele>258.0</ele>
        <time>2022-06-07T08:37:11Z</time>
      </trkpt>
      <trkpt lat="47.9332500" lon="8.4949910">
        <ele>257.8</ele>
        <time>2022-06-07T08:37:15Z</time>
      </trkpt>
      <trkpt lat="47.9332500" lon="8.4949910">
        <ele>257.6</ele>
        <time>2022-06-07T08:37:19Z</time>
      </trkpt>
      <trkpt lat="47.9332500" lon="8.4949910">
        <ele>257.8</ele>
        <time>2022-06-07T08:37:23Z</time>
      </trkpt>
      <trkpt lat="47.9332500" lon="8.4949910">
        <ele>257.8</ele>
        <time>2022-06-07T08:37:27Z</time>
      </trkpt>
      <trkpt lat="47.9332500" lon="8.4949910">
        <ele>257.8</ele>
        <time>2022-06-07T08:37:31Z</time>
      </trkpt>
      <trkpt lat="47.9332500" lon="8.4949910">
        <ele>258.0</ele>
        <time>2022-06-07T08:37:35Z</time>
      </trkpt>
      <trkpt lat="47.9332500" lon="8.4949910">
        <ele>257.8</ele>
        <time>2022-06-07T08:37:39Z</time>
      </trkpt>
      <trkpt lat="47.9332500" lon="8.4949910">
        <ele>257.8</ele>
        <time>2022-06-07T08:37:43Z</time>
      </trkpt>
      <trkpt lat="47.9332500" lon="8.4949910">
        <ele>257.8</ele>
        <time>2022-06-07T08:37:47Z</time>
      </trkpt>
      <trkpt lat="47.9332500" lon="8.4949910">
        <ele>257.8</ele>
        <time>2022-06-07T08:37:51Z</time>
      </trkpt>
      <trkpt lat="47.9332500" lon="8.4949910">
        <ele>258.0</ele>
        <time>2022-06-07T08:37:55Z</time>
      </trkpt>
      <trkpt lat="47.9332500" lon="8.4949910">
        <ele>257.6</ele>
        <time>2022-06-07T08:37:59Z</time>
      </trkpt>
      <trkpt lat="47.9332500" lon="8.4949910">
        <ele>257.6</ele>
        <time>2022-06-07T08:38:03Z</time>
      </trkpt>
      <trkpt lat="47.9332500" lon="8.4949910">
        <ele>258.0</ele>
        <time>2022-06-07T08:38:07Z</time>
      </trkpt>
      <trkpt lat="47.9332500" lon="8.4949910">
        <ele>257.6</ele>
        <time>2022-06-07T08:38:11Z</time>
      </trkpt>
      <trkpt lat="47.9332500" lon="8.4949910">
        <ele>257.8</ele>
        <time>2022-06-07T08:38:15Z</time>
      </trkpt>
      <trkpt lat="47.9332500" lon="8.4949910">
        <ele>257.0</ele>
        <time>2022-06-07T08:38:19Z</time>
      </trkpt>
      <trkpt lat="47.9332500" lon="8.4949910">
        <ele>257.6</ele>
        <time>2022-06-07T08:38:23Z</time>
      </trkpt>
      <trkpt lat="47.9332500" lon="8.4949910">
        <ele>257.6</ele>
        <time>2022-06-07T08:38:27Z</time>
      </trkpt>
      <trkpt lat="47.9332500" lon="8.4949910">
        <ele>257.8</ele>
        <time>2022-06-07T08:38:31Z</time>
      </trkpt>
      <trkpt lat="47.9332500" lon="8.4949910">
        <ele>257.8</ele>
        <time>2022-06-07T08:38:35Z</time>
      </trkpt>
      <trkpt lat="47.9332500" lon="8.4949910">
        <ele>257.8</ele>
        <time>2022-06-07T08:38:39Z</time>
      </trkpt>
      <trkpt lat="47.9332500" lon="8.4949910">
        <ele>257.6</ele>
        <time>2022-06-07T08:38:43Z</time>
      </trkpt>
      <trkpt lat="47.9332500" lon="8.4949910">
        <ele>257.2</ele>
        <time>2022-06-07T08:38:47Z</time>
      </trkpt>
      <trkpt lat="47.9332500" lon="8.4949910">
        <ele>257.8</ele>
        <time>2022-06-07T08:38:51Z</time>
      </trkpt>
      <trkpt lat="47.9332500" lon="8.4949910">
        <ele>257.8</ele>
        <time>2022-06-07T08:38:55Z</time>
      </trkpt>
      <trkpt lat="47.9332500" lon="8.4949910">
        <ele>258.0</ele>
        <time>2022-06-07T08:38:59Z</time>
      </trkpt>
      <trkpt lat="47.9332500" lon="8.4949910">
        <ele>258.0</ele>
        <time>2022-06-07T08:39:03Z</time>
      </trkpt>
      <trkpt lat="47.9332500" lon="8.4949910">
        <ele>258.0</ele>
        <time>2022-06-07T08:39:07Z</time>
      </trkpt>
      <trkpt lat="47.9332500" lon="8.4949910">
        <ele>257.8</ele>
        <time>2022-06-07T08:39:11Z</time>
      </trkpt>
      <trkpt lat="47.9332500" lon="8.4949910">
        <ele>257.8</ele>
        <time>2022-06-07T08:39:15Z</time>
      </trkpt>
      <trkpt lat="47.9332500" lon="8.4949910">
        <ele>257.4</ele>
        <time>2022-06-07T08:39:19Z</time>
      </trkpt>
      <trkpt lat="47.9332500" lon="8.4949910">
        <ele>257.6</ele>
        <time>2022-06-07T08:39:23Z</time>
      </trkpt>
      <trkpt lat="47.9332500" lon="8.4949910">
        <ele>257.8</ele>
        <time>2022-06-07T08:39:27Z</time>
      </trkpt>
      <trkpt lat="47.9332500" lon="8.4949910">
        <ele>258.0</ele>
        <time>2022-06-07T08:39:31Z</time>
      </trkpt>
      <trkpt lat="47.9332500" lon="8.4949910">
        <ele>258.0</ele>
        <time>2022-06-07T08:39:35Z</time>
      </trkpt>
      <trkpt lat="47.9332500" lon="8.4949910">
        <ele>258.2</ele>
        <time>2022-06-07T08:39:39Z</time>
      </trkpt>
      <trkpt lat="47.9332500" lon="8.4949910">
        <ele>258.0</ele>
        <time>2022-06-07T08:39:43Z</time>
      </trkpt>
      <trkpt lat="47.9332500" lon="8.4949910">
        <ele>258.0</ele>
        <time>2022-06-07T08:39:47Z</time>
      </trkpt>
      <trkpt lat="47.9332500" lon="8.4949910">
        <ele>258.0</ele>
        <time>2022-06-07T08:39:51Z</time>
      </trkpt>
      <trkpt lat="47.9332500" lon="8.4949910">
        <ele>257.8</ele>
        <time>2022-06-07T08:39:55Z</time>
      </trkpt>
      <trkpt lat="47.9332500" lon="8.4949910">
        <ele>258.0</ele>
        <time>2022-06-07T08:39:59Z</time>
      </trkpt>
      <trkpt lat="47.9332500" lon="8.4949910">
        <ele>258.0</ele>
        <time>2022-06-07T08:40:03Z</time>
      </trkpt>
      <trkpt lat="47.9332500" lon="8.4949910">
        <ele>258.2</ele>
        <time>2022-06-07T08:40:07Z</time>
      </trkpt>
      <trkpt lat="47.9332500" lon="8.4949910">
        <ele>257.8</ele>
        <time>2022-06-07T08:40:11Z</time>
      </trkpt>
      <trkpt lat="47.9332500" lon="8.4949910">
        <ele>257.6</ele>
        <time>2022-06-07T08:40:15Z</time>
      </trkpt>
      <trkpt lat="47.9332500" lon="8.4949910">
        <ele>258.0</ele>
        <time>2022-06-07T08:40:19Z</time>
      </trkpt>
      <trkpt lat="47.9332500" lon="8.4949910">
        <ele>258.2</ele>
        <time>2022-06-07T08:40:23Z</time>
      </trkpt>
      <trkpt lat="47.9332500" lon="8.4949910">
        <ele>257.8</ele>
        <time>2022-06-07T08:40:27Z</time>
      </trkpt>
      <trkpt lat="47.9332500" lon="8.4949910">
        <ele>257.8</ele>
        <time>2022-06-07T08:40:31Z</time>
      </trkpt>
      <trkpt lat="47.9332500" lon="8.4949910">
        <ele>257.6</ele>
        <time>2022-06-07T08:40:35Z</time>
      </trkpt>
      <trkpt lat="47.9332500" lon="8.4949910">
        <ele>257.8</ele>
        <time>2022-06-07T08:40:39Z</time>
      </trkpt>
      <trkpt lat="47.9332500" lon="8.4949910">
        <ele>258.2</ele>
        <time>2022-06-07T08:40:43Z</time>
      </trkpt>
      <trkpt lat="47.9332500" lon="8.4949910">
        <ele>258.2</ele>
        <time>2022-06-07T08:40:47Z</time>
      </trkpt>
      <trkpt lat="47.9332500" lon="8.4949910">
        <ele>258.6</ele>
        <time>2022-06-07T08:40:51Z</time>
      </trkpt>
      <trkpt lat="47.9332500" lon="8.4949910">
        <ele>258.2</ele>
        <time>2022-06-07T08:40:55Z</time>
      </trkpt>
      <trkpt lat="47.9332500" lon="8.4949910">
        <ele>258.8</ele>
        <time>2022-06-07T08:40:59Z</time>
      </trkpt>
      <trkpt lat="47.9332500" lon="8.4949910">
        <ele>258.0</ele>
        <time>2022-06-07T08:41:03Z</time>
      </trkpt>
      <trkpt lat="47.9332500" lon="8.4949910">
        <ele>258.4</ele>
        <time>2022-06-07T08:41:07Z</time>
      </trkpt>
      <trkpt lat="47.9332500" lon="8.4949910">
        <ele>258.6</ele>
        <time>2022-06-07T08:41:11Z</time>
      </trkpt>
      <trkpt lat="47.9332500" lon="8.4949910">
        <ele>258.6</ele>
        <time>2022-06-07T08:41:15Z</time>
      </trkpt>
      <trkpt lat="47.9332500" lon="8.4949910">
        <ele>258.0</ele>
        <time>2022-06-07T08:41:19Z</time>
      </trkpt>
      <trkpt lat="47.9332500" lon="8.4949910">
        <ele>258.2</ele>
        <time>2022-06-07T08:41:23Z</time>
      </trkpt>
      <trkpt lat="47.9332500" lon="8.4949910">
        <ele>258.0</ele>
        <time>2022-06-07T08:41:27Z</time>
      </trkpt>
      <trkpt lat="47.9332500" lon="8.4949910">
        <ele>258.0</ele>
        <time>2022-06-07T08:41:31Z</time>
      </trkpt>
      <trkpt lat="47.9332500" lon="8.4949910">
        <ele>258.4</ele>
        <time>2022-06-07T08:41:35Z</time>
      </trkpt>
      <trkpt lat="47.9332500" lon="8.4949910">
        <ele>258.4</ele>
        <time>2022-06-07T08:41:39Z</time>
      </trkpt>
      <trkpt lat="47.9332500" lon="8.4949910">
        <ele>258.0</ele>
        <time>2022-06-07T08:41:43Z</time>
      </trkpt>
      <trkpt lat="47.9332500" lon="8.4949910">
        <ele>258.4</ele>
        <time>2022-06-07T08:41:47Z</time>
      </trkpt>
      <trkpt lat="47.9332500" lon="8.4949910">
        <ele>258.2</ele>
        <time>2022-06-07T08:41:51Z</time>
      </trkpt>
      <trkpt lat="47.9332500" lon="8.4949910">
        <ele>258.4</ele>
        <time>2022-06-07T08:41:55Z</time>
      </trkpt>
      <trkpt lat="47.9332500" lon="8.4949910">
        <ele>258.6</ele>
        <time>2022-06-07T08:41:59Z</time>
      </trkpt>
      <trkpt lat="47.9332500" lon="8.4949910">
        <ele>258.6</ele>
        <time>2022-06-07T08:42:03Z</time>
      </trkpt>
      <trkpt lat="47.9332500" lon="8.4949910">
        <ele>258.6</ele>
        <time>2022-06-07T08:42:07Z</time>
      </trkpt>
      <trkpt lat="47.9332500" lon="8.4949910">
        <ele>258.2</ele>
        <time>2022-06-07T08:42:11Z</time>
      </trkpt>
      <trkpt lat="47.9332500" lon="8.4949910">
        <ele>258.4</ele>
        <time>2022-06-07T08:42:15Z</time>
      </trkpt>
      <trkpt lat="47.9332500" lon="8.4949910">
        <ele>258.4</ele>
        <time>2022-06-07T08:42:19Z</time>
      </trkpt>
      <trkpt lat="47.9332500" lon="8.4949910">
        <ele>258.2</ele>
        <time>2022-06-07T08:42:23Z</time>
      </trkpt>
      <trkpt lat="47.9332500" lon="8.4949910">
        <ele>258.4</ele>
        <time>2022-06-07T08:42:27Z</time>
      </trkpt>
      <trkpt lat="47.9332500" lon="8.4949910">
        <ele>258.2</ele>
        <time>2022-06-07T08:42:31Z</time>
      </trkpt>
      <trkpt lat="47.9332500" lon="8.4949910">
        <ele>258.4</ele>
        <time>2022-06-07T08:42:35Z</time>
      </trkpt>
      <trkpt lat="47.9332500" lon="8.4949910">
        <ele>258.6</ele>
        <time>2022-06-07T08:42:39Z</time>
      </trkpt>
      <trkpt lat="47.9332500" lon="8.4949910">
        <ele>258.6</ele>
        <time>2022-06-07T08:42:43Z</time>
      </trkpt>
      <trkpt lat="47.9332500" lon="8.4949910">
        <ele>258.4</ele>
        <time>2022-06-07T08:42:47Z</time>
      </trkpt>
      <trkpt lat="47.9332500" lon="8.4949910">
        <ele>258.8</ele>
        <time>2022-06-07T08:42:51Z</time>
      </trkpt>
      <trkpt lat="47.9332500" lon="8.4949910">
        <ele>258.6</ele>
        <time>2022-06-07T08:42:55Z</time>
      </trkpt>
      <trkpt lat="47.9332500" lon="8.4949910">
        <ele>258.6</ele>
        <time>2022-06-07T08:42:59Z</time>
      </trkpt>
      <trkpt lat="47.9332500" lon="8.4949910">
        <ele>258.6</ele>
        <time>2022-06-07T08:43:03Z</time>
      </trkpt>
      <trkpt lat="47.9332500" lon="8.4949910">
        <ele>258.4</ele>
        <time>2022-06-07T08:43:07Z</time>
      </trkpt>
      <trkpt lat="47.9332500" lon="8.4949910">
        <ele>258.6</ele>
        <time>2022-06-07T08:43:11Z</time>
      </trkpt>
      <trkpt lat="47.9332500" lon="8.4949910">
        <ele>258.2</ele>
        <time>2022-06-07T08:43:15Z</time>
      </trkpt>
      <trkpt lat="47.9332500" lon="8.4949910">
        <ele>257.8</ele>
        <time>2022-06-07T08:43:19Z</time>
      </trkpt>
      <trkpt lat="47.9332500" lon="8.4949910">
        <ele>258.6</ele>
        <time>2022-06-07T08:43:23Z</time>
      </trkpt>
      <trkpt lat="47.9332500" lon="8.4949910">
        <ele>258.4</ele>
        <time>2022-06-07T08:43:27Z</time>
      </trkpt>
      <trkpt lat="47.9332500" lon="8.4949910">
        <ele>258.2</ele>
        <time>2022-06-07T08:43:31Z</time>
      </trkpt>
      <trkpt lat="47.9332500" lon="8.4949910">
        <ele>258.4</ele>
        <time>2022-06-07T08:43:35Z</time>
      </trkpt>
      <trkpt lat="47.9332500" lon="8.4949910">
        <ele>258.6</ele>
        <time>2022-06-07T08:43:39Z</time>
      </trkpt>
      <trkpt lat="47.9332500" lon="8.4949910">
        <ele>258.4</ele>
        <time>2022-06-07T08:43:43Z</time>
      </trkpt>
      <trkpt lat="47.9332500" lon="8.4949910">
        <ele>258.2</ele>
        <time>2022-06-07T08:43:47Z</time>
      </trkpt>
      <trkpt lat="47.9332500" lon="8.4949910">
        <ele>258.2</ele>
        <time>2022-06-07T08:43:51Z</time>
      </trkpt>
      <trkpt lat="47.9332500" lon="8.4949910">
        <ele>258.4</ele>
        <time>2022-06-07T08:43:55Z</time>
      </trkpt>
      <trkpt lat="47.9332500" lon="8.4949910">
        <ele>258.4</ele>
        <time>2022-06-07T08:43:59Z</time>
      </trkpt>
      <trkpt lat="47.9332500" lon="8.4949910">
        <ele>258.4</ele>
        <time>2022-06-07T08:44:03Z</time>
      </trkpt>
      <trkpt lat="47.9332500" lon="8.4949910">
        <ele>258.4</ele>
        <time>2022-06-07T08:44:07Z</time>
      </trkpt>
      <trkpt lat="47.9332500" lon="8.4949910">
        <ele>258.6</ele>
        <time>2022-06-07T08:44:11Z</time>
      </trkpt>
      <trkpt lat="47.9332500" lon="8.4949910">
        <ele>258.6</ele>
        <time>2022-06-07T08:44:15Z</time>
      </trkpt>
      <trkpt lat="47.9332500" lon="8.4949910">
        <ele>258.0</ele>
        <time>2022-06-07T08:44:19Z</time>
      </trkpt>
      <trkpt lat="47.9332500" lon="8.4949910">
        <ele>257.8</ele>
        <time>2022-06-07T08:44:23Z</time>
      </trkpt>
      <trkpt lat="47.9332500" lon="8.4949910">
        <ele>258.6</ele>
        <time>2022-06-07T08:44:27Z</time>
      </trkpt>
      <trkpt lat="47.9332500" lon="8.4949910">
        <ele>258.6</ele>
        <time>2022-06-07T08:44:31Z</time>
      </trkpt>
      <trkpt lat="47.9332500" lon="8.4949910">
        <ele>258.0</ele>
        <time>2022-06-07T08:44:35Z</time>
      </trkpt>
      <trkpt lat="47.9332500" lon="8.4949910">
        <ele>258.2</ele>
        <time>2022-06-07T08:44:39Z</time>
      </trkpt>
      <trkpt lat="47.9332500" lon="8.4949910">
        <ele>258.4</ele>
        <time>2022-06-07T08:44:43Z</time>
      </trkpt>
      <trkpt lat="47.9332500" lon="8.4949910">
        <ele>258.2</ele>
        <time>2022-06-07T08:44:47Z</time>
      </trkpt>
      <trkpt lat="47.9332500" lon="8.4949910">
        <ele>258.6</ele>
        <time>2022-06-07T08:44:51Z</time>
      </trkpt>
      <trkpt lat="47.9332500" lon="8.4949910">
        <ele>258.2</ele>
        <time>2022-06-07T08:44:55Z</time>
      </trkpt>
      <trkpt lat="47.9332500" lon="8.4949910">
        <ele>258.6</ele>
        <time>2022-06-07T08:44:59Z</time>
      </trkpt>
      <trkpt lat="47.9332500" lon="8.4949910">
        <ele>258.2</ele>
        <time>2022-06-07T08:45:03Z</time>
      </trkpt>
      <trkpt lat="47.9332500" lon="8.4949910">
        <ele>258.2</ele>
        <time>2022-06-07T08:45:07Z</time>
      </trkpt>
      <trkpt lat="47.9332500" lon="8.4949910">
        <ele>258.2</ele>
        <time>2022-06-07T08:45:11Z</time>
      </trkpt>
      <trkpt lat="47.9332500" lon="8.4949910">
        <ele>258.0</ele>
        <time>2022-06-07T08:45:15Z</time>
      </trkpt>
      <trkpt lat="47.9332500" lon="8.4949910">
        <ele>258.4</ele>
        <time>2022-06-07T08:45:19Z</time>
      </trkpt>
      <trkpt lat="47.9332500" lon="8.4949910">
        <ele>258.2</ele>
        <time>2022-06-07T08:45:23Z</time>
      </trkpt>
      <trkpt lat="47.9332500" lon="8.4949910">
        <ele>258.2</ele>
        <time>2022-06-07T08:45:27Z</time>
      </trkpt>
      <trkpt lat="47.9332500" lon="8.4949910">
        <ele>258.6</ele>
        <time>2022-06-07T08:45:31Z</time>
      </trkpt>
      <trkpt lat="47.9332500" lon="8.4949910">
        <ele>258.4</ele>
        <time>2022-06-07T08:45:35Z</time>
      </trkpt>
      <trkpt lat="47.9332500" lon="8.4949910">
        <ele>258.0</ele>
        <time>2022-06-07T08:45:39Z</time>
      </trkpt>
      <trkpt lat="47.9332500" lon="8.4949910">
        <ele>258.0</ele>
        <time>2022-06-07T08:45:43Z</time>
      </trkpt>
      <trkpt lat="47.9332500" lon="8.4949910">
        <ele>257.8</ele>
        <time>2022-06-07T08:45:47Z</time>
      </trkpt>
      <trkpt lat="47.9332500" lon="8.4949910">
        <ele>257.8</ele>
        <time>2022-06-07T08:45:51Z</time>
      </trkpt>
      <trkpt lat="47.9332500" lon="8.4949910">
        <ele>258.2</ele>
        <time>2022-06-07T08:45:55Z</time>
      </trkpt>
      <trkpt lat="47.9332500" lon="8.4949910">
        <ele>257.8</ele>
        <time>2022-06-07T08:45:59Z</time>
      </trkpt>
      <trkpt lat="47.9332500" lon="8.4949910">
        <ele>257.6</ele>
        <time>2022-06-07T08:46:03Z</time>
      </trkpt>
      <trkpt lat="47.9332500" lon="8.4949910">
        <ele>257.8</ele>
        <time>2022-06-07T08:46:07Z</time>
      </trkpt>
      <trkpt lat="47.9332500" lon="8.4949910">
        <ele>258.2</ele>
        <time>2022-06-07T08:46:11Z</time>
      </trkpt>
      <trkpt lat="47.9332500" lon="8.4949910">
        <ele>258.2</ele>
        <time>2022-06-07T08:46:15Z</time>
      </trkpt>
      <trkpt lat="47.9332500" lon="8.4949910">
        <ele>258.0</ele>
        <time>2022-06-07T08:46:19Z</time>
      </trkpt>
      <trkpt lat="47.9332500" lon="8.4949910">
        <ele>258.0</ele>
        <time>2022-06-07T08:46:23Z</time>
      </trkpt>
      <trkpt lat="47.9332500" lon="8.4949910">
        <ele>258.0</ele>
        <time>2022-06-07T08:46:27Z</time>
      </trkpt>
      <trkpt lat="47.9332500" lon="8.4949910">
        <ele>258.0</ele>
        <time>2022-06-07T08:46:31Z</time>
      </trkpt>
      <trkpt lat="47.9332500" lon="8.4949910">
        <ele>258.2</ele>
        <time>2022-06-07T08:46:35Z</time>
      </trkpt>
      <trkpt lat="47.9332500" lon="8.4949910">
        <ele>258.0</ele>
        <time>2022-06-07T08:46:39Z</time>
      </trkpt>
      <trkpt lat="47.9332500" lon="8.4949910">
        <ele>258.0</ele>
        <time>2022-06-07T08:46:43Z</time>
      </trkpt>
      <trkpt lat="47.9332500" lon="8.4949910">
        <ele>257.8</ele>
        <time>2022-06-07T08:46:47Z</time>
      </trkpt>
      <trkpt lat="47.9332500" lon="8.4949910">
        <ele>258.0</ele>
        <time>2022-06-07T08:46:51Z</time>
      </trkpt>
      <trkpt lat="47.9332500" lon="8.4949910">
        <ele>257.8</ele>
        <time>2022-06-07T08:46:55Z</time>
      </trkpt>
      <trkpt lat="47.9332500" lon="8.4949910">
        <ele>258.0</ele>
        <time>2022-06-07T08:46:59Z</time>
      </trkpt>
      <trkpt lat="47.9332500" lon="8.4949910">
        <ele>257.8</ele>
        <time>2022-06-07T08:47:03Z</time>
      </trkpt>
      <trkpt lat="47.9332500" lon="8.4949910">
        <ele>257.8</ele>
        <time>2022-06-07T08:47:07Z</time>
      </trkpt>
      <trkpt lat="47.9332500" lon="8.4949910">
        <ele>258.0</ele>
        <time>2022-06-07T08:47:11Z</time>
      </trkpt>
      <trkpt lat="47.9332500" lon="8.4949910">
        <ele>257.8</ele>
        <time>2022-06-07T08:47:15Z</time>
      </trkpt>
      <trkpt lat="47.9332500" lon="8.4949910">
        <ele>257.8</ele>
        <time>2022-06-07T08:47:19Z</time>
      </trkpt>
      <trkpt lat="47.9332500" lon="8.4949910">
        <ele>258.0</ele>
        <time>2022-06-07T08:47:23Z</time>
      </trkpt>
      <trkpt lat="47.9332500" lon="8.4949910">
        <ele>258.2</ele>
        <time>2022-06-07T08:47:27Z</time>
      </trkpt>
      <trkpt lat="47.9332500" lon="8.4949910">
        <ele>257.8</ele>
        <time>2022-06-07T08:47:31Z</time>
      </trkpt>
      <trkpt lat="47.9332500" lon="8.4949910">
        <ele>257.8</ele>
        <time>2022-06-07T08:47:35Z</time>
      </trkpt>
      <trkpt lat="47.9332500" lon="8.4949910">
        <ele>258.2</ele>
        <time>2022-06-07T08:47:39Z</time>
      </trkpt>
      <trkpt lat="47.9332500" lon="8.4949910">
        <ele>258.0</ele>
        <time>2022-06-07T08:47:43Z</time>
      </trkpt>
      <trkpt lat="47.9332500" lon="8.4949910">
        <ele>258.0</ele>
        <time>2022-06-07T08:47:47Z</time>
      </trkpt>
      <trkpt lat="47.9332500" lon="8.4949910">
        <ele>258.0</ele>
        <time>2022-06-07T08:47:51Z</time>
      </trkpt>
      <trkpt lat="47.9332500" lon="8.4949910">
        <ele>257.8</ele>
        <time>2022-06-07T08:47:55Z</time>
      </trkpt>
      <trkpt lat="47.9332500" lon="8.4949910">
        <ele>257.8</ele>
        <time>2022-06-07T08:47:59Z</time>
      </trkpt>
      <trkpt lat="47.9332500" lon="8.4949910">
        <ele>257.8</ele>
        <time>2022-06-07T08:48:03Z</time>
      </trkpt>
      <trkpt lat="47.9332500" lon="8.4949910">
        <ele>258.0</ele>
        <time>2022-06-07T08:48:07Z</time>
      </trkpt>
      <trkpt lat="47.9332500" lon="8.4949910">
        <ele>258.0</ele>
        <time>2022-06-07T08:48:11Z</time>
      </trkpt>
      <trkpt lat="47.9332500" lon="8.4949910">
        <ele>257.8</ele>
        <time>2022-06-07T08:48:15Z</time>
      </trkpt>
      <trkpt lat="47.9332500" lon="8.4949910">
        <ele>258.2</ele>
        <time>2022-06-07T08:48:19Z</time>
      </trkpt>
      <trkpt lat="47.9332500" lon="8.4949910">
        <ele>258.4</ele>
        <time>2022-06-07T08:48:23Z</time>
      </trkpt>
      <trkpt lat="47.9332500" lon="8.4949910">
        <ele>258.0</ele>
        <time>2022-06-07T08:48:27Z</time>
      </trkpt>
      <trkpt lat="47.9332500" lon="8.4949910">
        <ele>257.8</ele>
        <time>2022-06-07T08:48:31Z</time>
      </trkpt>
      <trkpt lat="47.9332500" lon="8.4949910">
        <ele>258.2</ele>
        <time>2022-06-07T08:48:35Z</time>
      </trkpt>
      <trkpt lat="47.9332500" lon="8.4949910">
        <ele>258.6</ele>
        <time>2022-06-07T08:48:39Z</time>
      </trkpt>
      <trkpt lat="47.9332500" lon="8.4949910">
        <ele>258.4</ele>
        <time>2022-06-07T08:48:43Z</time>
      </trkpt>
      <trkpt lat="47.9332500" lon="8.4949910">
        <ele>258.4</ele>
        <time>2022-06-07T08:48:47Z</time>
      </trkpt>
      <trkpt lat="47.9332500" lon="8.4949910">
        <ele>258.2</ele>
        <time>2022-06-07T08:48:51Z</time>
      </trkpt>
      <trkpt lat="47.9332500" lon="8.4949910">
        <ele>258.2</ele>
        <time>2022-06-07T08:48:55Z</time>
      </trkpt>
      <trkpt lat="47.9332500" lon="8.4949910">
        <ele>258.2</ele>
        <time>2022-06-07T08:48:59Z</time>
      </trkpt>
      <trkpt lat="47.9332500" lon="8.4949910">
        <ele>258.2</ele>
        <time>2022-06-07T08:49:03Z</time>
      </trkpt>
      <trkpt lat="47.9332500" lon="8.4949910">
        <ele>258.2</ele>
        <time>2022-06-07T08:49:07Z</time>
      </trkpt>
      <trkpt lat="47.9332500" lon="8.4949910">
        <ele>258.6</ele>
        <time>2022-06-07T08:49:11Z</time>
      </trkpt>
      <trkpt lat="47.9332500" lon="8.4949910">
        <ele>258.2</ele>
        <time>2022-06-07T08:49:15Z</time>
      </trkpt>
      <trkpt lat="47.9332500" lon="8.4949910">
        <ele>258.6</ele>
        <time>2022-06-07T08:49:19Z</time>
      </trkpt>
      <trkpt lat="47.9332500" lon="8.4949910">
        <ele>258.6</ele>
        <time>2022-06-07T08:49:23Z</time>
      </trkpt>
      <trkpt lat="47.9332500" lon="8.4949910">
        <ele>258.6</ele>
        <time>2022-06-07T08:49:27Z</time>
      </trkpt>
      <trkpt lat="47.9332500" lon="8.4949910">
        <ele>258.6</ele>
        <time>2022-06-07T08:49:31Z</time>
      </trkpt>
      <trkpt lat="47.9332500" lon="8.4949910">
        <ele>258.4</ele>
        <time>2022-06-07T08:49:35Z</time>
      </trkpt>
      <trkpt lat="47.9332500" lon="8.4949910">
        <ele>258.4</ele>
        <time>2022-06-07T08:49:39Z</time>
      </trkpt>
      <trkpt lat="47.9332500" lon="8.4949910">
        <ele>258.2</ele>
        <time>2022-06-07T08:49:43Z</time>
      </trkpt>
      <trkpt lat="47.9332500" lon="8.4949910">
        <ele>258.8</ele>
        <time>2022-06-07T08:49:47Z</time>
      </trkpt>
      <trkpt lat="47.9332500" lon="8.4949910">
        <ele>258.6</ele>
        <time>2022-06-07T08:49:51Z</time>
      </trkpt>
      <trkpt lat="47.9332500" lon="8.4949910">
        <ele>259.2</ele>
        <time>2022-06-07T08:49:55Z</time>
      </trkpt>
      <trkpt lat="47.9332500" lon="8.4949910">
        <ele>258.8</ele>
        <time>2022-06-07T08:49:59Z</time>
      </trkpt>
      <trkpt lat="47.9332500" lon="8.4949910">
        <ele>258.6</ele>
        <time>2022-06-07T08:50:03Z</time>
      </trkpt>
      <trkpt lat="47.9332500" lon="8.4949910">
        <ele>258.6</ele>
        <time>2022-06-07T08:50:07Z</time>
      </trkpt>
      <trkpt lat="47.9332500" lon="8.4949910">
        <ele>258.4</ele>
        <time>2022-06-07T08:50:11Z</time>
      </trkpt>
      <trkpt lat="47.9332500" lon="8.4949910">
        <ele>258.6</ele>
        <time>2022-06-07T08:50:15Z</time>
      </trkpt>
      <trkpt lat="47.9332500" lon="8.4949910">
        <ele>258.6</ele>
        <time>2022-06-07T08:50:19Z</time>
      </trkpt>
      <trkpt lat="47.9332500" lon="8.4949910">
        <ele>259.2</ele>
        <time>2022-06-07T08:50:23Z</time>
      </trkpt>
      <trkpt lat="47.9332500" lon="8.4949910">
        <ele>259.4</ele>
        <time>2022-06-07T08:50:27Z</time>
      </trkpt>
      <trkpt lat="47.9332500" lon="8.4949910">
        <ele>259.4</ele>
        <time>2022-06-07T08:50:31Z</time>
      </trkpt>
      <trkpt lat="47.9332500" lon="8.4949910">
        <ele>258.8</ele>
        <time>2022-06-07T08:50:35Z</time>
      </trkpt>
      <trkpt lat="47.9332500" lon="8.4949910">
        <ele>258.6</ele>
        <time>2022-06-07T08:50:39Z</time>
      </trkpt>
      <trkpt lat="47.9332500" lon="8.4949910">
        <ele>258.4</ele>
        <time>2022-06-07T08:50:43Z</time>
      </trkpt>
      <trkpt lat="47.9332500" lon="8.4949910">
        <ele>258.8</ele>
        <time>2022-06-07T08:50:47Z</time>
      </trkpt>
      <trkpt lat="47.9332500" lon="8.4949910">
        <ele>259.0</ele>
        <time>2022-06-07T08:50:51Z</time>
      </trkpt>
      <trkpt lat="47.9332500" lon="8.4949910">
        <ele>258.8</ele>
        <time>2022-06-07T08:50:55Z</time>
      </trkpt>
      <trkpt lat="47.9332500" lon="8.4949910">
        <ele>258.6</ele>
        <time>2022-06-07T08:50:59Z</time>
      </trkpt>
      <trkpt lat="47.9332500" lon="8.4949910">
        <ele>258.8</ele>
        <time>2022-06-07T08:51:03Z</time>
      </trkpt>
      <trkpt lat="47.9332500" lon="8.4949910">
        <ele>258.4</ele>
        <time>2022-06-07T08:51:07Z</time>
      </trkpt>
      <trkpt lat="47.9332500" lon="8.4949910">
        <ele>258.4</ele>
        <time>2022-06-07T08:51:11Z</time>
      </trkpt>
      <trkpt lat="47.9332500" lon="8.4949910">
        <ele>258.6</ele>
        <time>2022-06-07T08:51:15Z</time>
      </trkpt>
      <trkpt lat="47.9332500" lon="8.4949910">
        <ele>258.6</ele>
        <time>2022-06-07T08:51:19Z</time>
      </trkpt>
      <trkpt lat="47.9332500" lon="8.4949910">
        <ele>258.6</ele>
        <time>2022-06-07T08:51:23Z</time>
      </trkpt>
      <trkpt lat="47.9332500" lon="8.4949910">
        <ele>258.6</ele>
        <time>2022-06-07T08:51:27Z</time>
      </trkpt>
      <trkpt lat="47.9332500" lon="8.4949910">
        <ele>258.6</ele>
        <time>2022-06-07T08:51:31Z</time>
      </trkpt>
      <trkpt lat="47.9332500" lon="8.4949910">
        <ele>258.6</ele>
        <time>2022-06-07T08:51:35Z</time>
      </trkpt>
      <trkpt lat="47.9332500" lon="8.4949910">
        <ele>257.8</ele>
        <time>2022-06-07T08:51:39Z</time>
      </trkpt>
      <trkpt lat="47.9332500" lon="8.4949910">
        <ele>258.6</ele>
        <time>2022-06-07T08:51:43Z</time>
      </trkpt>
      <trkpt lat="47.9332500" lon="8.4949910">
        <ele>258.6</ele>
        <time>2022-06-07T08:51:47Z</time>
      </trkpt>
      <trkpt lat="47.9332500" lon="8.4949910">
        <ele>258.6</ele>
        <time>2022-06-07T08:51:51Z</time>
      </trkpt>
      <trkpt lat="47.9332500" lon="8.4949910">
        <ele>258.2</ele>
        <time>2022-06-07T08:51:55Z</time>
      </trkpt>
      <trkpt lat="47.9332500" lon="8.4949910">
        <ele>258.4</ele>
        <time>2022-06-07T08:51:59Z</time>
      </trkpt>
      <trkpt lat="47.9332500" lon="8.4949910">
        <ele>258.2</ele>
        <time>2022-06-07T08:52:03Z</time>
      </trkpt>
      <trkpt lat="47.9332500" lon="8.4949910">
        <ele>257.8</ele>
        <time>2022-06-07T08:52:07Z</time>
      </trkpt>
      <trkpt lat="47.9332500" lon="8.4949910">
        <ele>258.4</ele>
        <time>2022-06-07T08:52:11Z</time>
      </trkpt>
      <trkpt lat="47.9332500" lon="8.4949910">
        <ele>258.8</ele>
        <time>2022-06-07T08:52:15Z</time>
      </trkpt>
      <trkpt lat="47.9332500" lon="8.4949910">
        <ele>258.6</ele>
        <time>2022-06-07T08:52:19Z</time>
      </trkpt>
      <trkpt lat="47.9332500" lon="8.4949910">
        <ele>258.2</ele>
        <time>2022-06-07T08:52:23Z</time>
      </trkpt>
      <trkpt lat="47.9332500" lon="8.4949910">
        <ele>258.2</ele>
        <time>2022-06-07T08:52:27Z</time>
      </trkpt>
      <trkpt lat="47.9332500" lon="8.4949910">
        <ele>258.4</ele>
        <time>2022-06-07T08:52:31Z</time>
      </trkpt>
      <trkpt lat="47.9332500" lon="8.4949910">
        <ele>258.2</ele>
        <time>2022-06-07T08:52:35Z</time>
      </trkpt>
      <trkpt lat="47.9332500" lon="8.4949910">
        <ele>258.2</ele>
        <time>2022-06-07T08:52:39Z</time>
      </trkpt>
      <trkpt lat="47.9332500" lon="8.4949910">
        <ele>258.2</ele>
        <time>2022-06-07T08:52:43Z</time>
      </trkpt>
      <trkpt lat="47.9332500" lon="8.4949910">
        <ele>258.2</ele>
        <time>2022-06-07T08:52:47Z</time>
      </trkpt>
      <trkpt lat="47.9332500" lon="8.4949910">
        <ele>257.8</ele>
        <time>2022-06-07T08:52:51Z</time>
      </trkpt>
      <trkpt lat="47.9332500" lon="8.4949910">
        <ele>258.0</ele>
        <time>2022-06-07T08:52:55Z</time>
      </trkpt>
      <trkpt lat="47.9332500" lon="8.4949910">
        <ele>258.0</ele>
        <time>2022-06-07T08:52:59Z</time>
      </trkpt>
      <trkpt lat="47.9332500" lon="8.4949910">
        <ele>258.6</ele>
        <time>2022-06-07T08:53:03Z</time>
      </trkpt>
      <trkpt lat="47.9332500" lon="8.4949910">
        <ele>258.4</ele>
        <time>2022-06-07T08:53:07Z</time>
      </trkpt>
      <trkpt lat="47.9332500" lon="8.4949910">
        <ele>258.6</ele>
        <time>2022-06-07T08:53:11Z</time>
      </trkpt>
      <trkpt lat="47.9332500" lon="8.4949910">
        <ele>258.0</ele>
        <time>2022-06-07T08:53:15Z</time>
      </trkpt>
      <trkpt lat="47.9332500" lon="8.4949910">
        <ele>258.2</ele>
        <time>2022-06-07T08:53:19Z</time>
      </trkpt>
      <trkpt lat="47.9332500" lon="8.4949910">
        <ele>258.2</ele>
        <time>2022-06-07T08:53:23Z</time>
      </trkpt>
      <trkpt lat="47.9332500" lon="8.4949910">
        <ele>258.0</ele>
        <time>2022-06-07T08:53:27Z</time>
      </trkpt>
      <trkpt lat="47.9332500" lon="8.4949910">
        <ele>258.4</ele>
        <time>2022-06-07T08:53:31Z</time>
      </trkpt>
      <trkpt lat="47.9332500" lon="8.4949910">
        <ele>258.6</ele>
        <time>2022-06-07T08:53:35Z</time>
      </trkpt>
      <trkpt lat="47.9332500" lon="8.4949910">
        <ele>258.0</ele>
        <time>2022-06-07T08:53:39Z</time>
      </trkpt>
      <trkpt lat="47.9332500" lon="8.4949910">
        <ele>258.6</ele>
        <time>2022-06-07T08:53:43Z</time>
      </trkpt>
      <trkpt lat="47.9332500" lon="8.4949910">
        <ele>258.6</ele>
        <time>2022-06-07T08:53:47Z</time>
      </trkpt>
      <trkpt lat="47.9332500" lon="8.4949910">
        <ele>258.4</ele>
        <time>2022-06-07T08:53:51Z</time>
      </trkpt>
      <trkpt lat="47.9332500" lon="8.4949910">
        <ele>258.4</ele>
        <time>2022-06-07T08:53:55Z</time>
      </trkpt>
      <trkpt lat="47.9332500" lon="8.4949910">
        <ele>258.4</ele>
        <time>2022-06-07T08:53:59Z</time>
      </trkpt>
      <trkpt lat="47.9332500" lon="8.4949910">
        <ele>258.2</ele>
        <time>2022-06-07T08:54:03Z</time>
      </trkpt>
      <trkpt lat="47.9332510" lon="8.4948950">
        <ele>258.6</ele>
        <time>2022-06-07T08:54:07Z</time>
      </trkpt>
      <trkpt lat="47.9332650" lon="8.4949080">
        <ele>258.4</ele>
        <time>2022-06-07T08:54:11Z</time>
      </trkpt>
      <trkpt lat="47.9332880" lon="8.4948980">
        <ele>258.6</ele>
        <time>2022-06-07T08:54:15Z</time>
      </trkpt>
      <trkpt lat="47.9332880" lon="8.4948980">
        <ele>258.4</ele>
        <time>2022-06-07T08:54:19Z</time>
      </trkpt>
      <trkpt lat="47.9333030" lon="8.4948800">
        <ele>258.6</ele>
        <time>2022-06-07T08:54:23Z</time>
      </trkpt>
      <trkpt lat="47.9333130" lon="8.4948480">
        <ele>258.4</ele>
        <time>2022-06-07T08:54:27Z</time>
      </trkpt>
      <trkpt lat="47.9333680" lon="8.4948630">
        <ele>258.0</ele>
        <time>2022-06-07T08:54:31Z</time>
      </trkpt>
      <trkpt lat="47.9334350" lon="8.4949050">
        <ele>258.2</ele>
        <time>2022-06-07T08:54:35Z</time>
      </trkpt>
      <trkpt lat="47.9335080" lon="8.4949330">
        <ele>258.4</ele>
        <time>2022-06-07T08:54:39Z</time>
      </trkpt>
      <trkpt lat="47.9335710" lon="8.4949960">
        <ele>258.4</ele>
        <time>2022-06-07T08:54:43Z</time>
      </trkpt>
      <trkpt lat="47.9336530" lon="8.4950930">
        <ele>258.4</ele>
        <time>2022-06-07T08:54:47Z</time>
      </trkpt>
      <trkpt lat="47.9337160" lon="8.4952260">
        <ele>258.2</ele>
        <time>2022-06-07T08:54:51Z</time>
      </trkpt>
      <trkpt lat="47.9337880" lon="8.4953630">
        <ele>257.8</ele>
        <time>2022-06-07T08:54:55Z</time>
      </trkpt>
      <trkpt lat="47.9338930" lon="8.4954060">
        <ele>258.2</ele>
        <time>2022-06-07T08:54:59Z</time>
      </trkpt>
      <trkpt lat="47.9340030" lon="8.4954330">
        <ele>258.4</ele>
        <time>2022-06-07T08:55:03Z</time>
      </trkpt>
      <trkpt lat="47.9341000" lon="8.4954860">
        <ele>258.6</ele>
        <time>2022-06-07T08:55:07Z</time>
      </trkpt>
      <trkpt lat="47.9341800" lon="8.4955880">
        <ele>259.2</ele>
        <time>2022-06-07T08:55:11Z</time>
      </trkpt>
      <trkpt lat="47.9342630" lon="8.4956710">
        <ele>258.4</ele>
        <time>2022-06-07T08:55:15Z</time>
      </trkpt>
      <trkpt lat="47.9343430" lon="8.4957460">
        <ele>258.6</ele>
        <time>2022-06-07T08:55:19Z</time>
      </trkpt>
      <trkpt lat="47.9344250" lon="8.4957700">
        <ele>258.6</ele>
        <time>2022-06-07T08:55:23Z</time>
      </trkpt>
      <trkpt lat="47.9344780" lon="8.4957580">
        <ele>258.4</ele>
        <time>2022-06-07T08:55:27Z</time>
      </trkpt>
      <trkpt lat="47.9345630" lon="8.4958630">
        <ele>258.6</ele>
        <time>2022-06-07T08:55:31Z</time>
      </trkpt>
      <trkpt lat="47.9346410" lon="8.4959810">
        <ele>258.6</ele>
        <time>2022-06-07T08:55:35Z</time>
      </trkpt>
      <trkpt lat="47.9346800" lon="8.4961380">
        <ele>258.2</ele>
        <time>2022-06-07T08:55:39Z</time>
      </trkpt>
      <trkpt lat="47.9346280" lon="8.4963260">
        <ele>258.0</ele>
        <time>2022-06-07T08:55:43Z</time>
      </trkpt>
      <trkpt lat="47.9345610" lon="8.4965200">
        <ele>257.6</ele>
        <time>2022-06-07T08:55:47Z</time>
      </trkpt>
      <trkpt lat="47.9345230" lon="8.4966180">
        <ele>257.2</ele>
        <time>2022-06-07T08:55:51Z</time>
      </trkpt>
      <trkpt lat="47.9344860" lon="8.4967780">
        <ele>257.0</ele>
        <time>2022-06-07T08:55:55Z</time>
      </trkpt>
      <trkpt lat="47.9344110" lon="8.4969960">
        <ele>257.2</ele>
        <time>2022-06-07T08:55:59Z</time>
      </trkpt>
      <trkpt lat="47.9343330" lon="8.4972180">
        <ele>256.6</ele>
        <time>2022-06-07T08:56:03Z</time>
      </trkpt>
      <trkpt lat="47.9342630" lon="8.4974500">
        <ele>257.0</ele>
        <time>2022-06-07T08:56:07Z</time>
      </trkpt>
      <trkpt lat="47.9342160" lon="8.4977030">
        <ele>256.6</ele>
        <time>2022-06-07T08:56:11Z</time>
      </trkpt>
      <trkpt lat="47.9341700" lon="8.4979610">
        <ele>256.6</ele>
        <time>2022-06-07T08:56:15Z</time>
      </trkpt>
      <trkpt lat="47.9341130" lon="8.4982130">
        <ele>256.4</ele>
        <time>2022-06-07T08:56:19Z</time>
      </trkpt>
      <trkpt lat="47.9340650" lon="8.4984380">
        <ele>257.0</ele>
        <time>2022-06-07T08:56:23Z</time>
      </trkpt>
      <trkpt lat="47.9340700" lon="8.4986480">
        <ele>256.6</ele>
        <time>2022-06-07T08:56:27Z</time>
      </trkpt>
      <trkpt lat="47.9342200" lon="8.4987800">
        <ele>257.0</ele>
        <time>2022-06-07T08:56:31Z</time>
      </trkpt>
      <trkpt lat="47.9343850" lon="8.4988900">
        <ele>257.2</ele>
        <time>2022-06-07T08:56:35Z</time>
      </trkpt>
      <trkpt lat="47.9345530" lon="8.4989930">
        <ele>256.6</ele>
        <time>2022-06-07T08:56:39Z</time>
      </trkpt>
      <trkpt lat="47.9347110" lon="8.4991030">
        <ele>257.0</ele>
        <time>2022-06-07T08:56:43Z</time>
      </trkpt>
      <trkpt lat="47.9348710" lon="8.4992200">
        <ele>256.2</ele>
        <time>2022-06-07T08:56:47Z</time>
      </trkpt>
      <trkpt lat="47.9350280" lon="8.4993500">
        <ele>256.4</ele>
        <time>2022-06-07T08:56:51Z</time>
      </trkpt>
      <trkpt lat="47.9351860" lon="8.4994860">
        <ele>256.0</ele>
        <time>2022-06-07T08:56:55Z</time>
      </trkpt>
      <trkpt lat="47.9353380" lon="8.4996260">
        <ele>256.2</ele>
        <time>2022-06-07T08:56:59Z</time>
      </trkpt>
      <trkpt lat="47.9354830" lon="8.4997650">
        <ele>256.2</ele>
        <time>2022-06-07T08:57:03Z</time>
      </trkpt>
      <trkpt lat="47.9356230" lon="8.4998950">
        <ele>256.6</ele>
        <time>2022-06-07T08:57:07Z</time>
      </trkpt>
      <trkpt lat="47.9357650" lon="8.5000210">
        <ele>256.2</ele>
        <time>2022-06-07T08:57:11Z</time>
      </trkpt>
      <trkpt lat="47.9359000" lon="8.5001480">
        <ele>257.6</ele>
        <time>2022-06-07T08:57:15Z</time>
      </trkpt>
      <trkpt lat="47.9360250" lon="8.5002650">
        <ele>257.2</ele>
        <time>2022-06-07T08:57:19Z</time>
      </trkpt>
      <trkpt lat="47.9361600" lon="8.5003930">
        <ele>257.2</ele>
        <time>2022-06-07T08:57:23Z</time>
      </trkpt>
      <trkpt lat="47.9362860" lon="8.5005210">
        <ele>257.8</ele>
        <time>2022-06-07T08:57:27Z</time>
      </trkpt>
      <trkpt lat="47.9364060" lon="8.5006430">
        <ele>257.0</ele>
        <time>2022-06-07T08:57:31Z</time>
      </trkpt>
      <trkpt lat="47.9365360" lon="8.5007630">
        <ele>256.8</ele>
        <time>2022-06-07T08:57:35Z</time>
      </trkpt>
      <trkpt lat="47.9366550" lon="8.5008830">
        <ele>257.6</ele>
        <time>2022-06-07T08:57:39Z</time>
      </trkpt>
      <trkpt lat="47.9367800" lon="8.5009980">
        <ele>258.2</ele>
        <time>2022-06-07T08:57:43Z</time>
      </trkpt>
      <trkpt lat="47.9369130" lon="8.5011130">
        <ele>257.6</ele>
        <time>2022-06-07T08:57:47Z</time>
      </trkpt>
      <trkpt lat="47.9370510" lon="8.5012310">
        <ele>257.2</ele>
        <time>2022-06-07T08:57:51Z</time>
      </trkpt>
      <trkpt lat="47.9371830" lon="8.5013610">
        <ele>257.2</ele>
        <time>2022-06-07T08:57:55Z</time>
      </trkpt>
      <trkpt lat="47.9373210" lon="8.5015060">
        <ele>257.2</ele>
        <time>2022-06-07T08:57:59Z</time>
      </trkpt>
      <trkpt lat="47.9374630" lon="8.5016530">
        <ele>257.4</ele>
        <time>2022-06-07T08:58:03Z</time>
      </trkpt>
      <trkpt lat="47.9376110" lon="8.5018160">
        <ele>257.2</ele>
        <time>2022-06-07T08:58:07Z</time>
      </trkpt>
      <trkpt lat="47.9377450" lon="8.5019760">
        <ele>257.2</ele>
        <time>2022-06-07T08:58:11Z</time>
      </trkpt>
      <trkpt lat="47.9378500" lon="8.5021250">
        <ele>256.8</ele>
        <time>2022-06-07T08:58:15Z</time>
      </trkpt>
      <trkpt lat="47.9379480" lon="8.5022860">
        <ele>257.0</ele>
        <time>2022-06-07T08:58:19Z</time>
      </trkpt>
      <trkpt lat="47.9380330" lon="8.5024630">
        <ele>257.2</ele>
        <time>2022-06-07T08:58:23Z</time>
      </trkpt>
      <trkpt lat="47.9381350" lon="8.5026500">
        <ele>256.6</ele>
        <time>2022-06-07T08:58:27Z</time>
      </trkpt>
      <trkpt lat="47.9382200" lon="8.5028410">
        <ele>257.2</ele>
        <time>2022-06-07T08:58:31Z</time>
      </trkpt>
      <trkpt lat="47.9383230" lon="8.5030210">
        <ele>257.0</ele>
        <time>2022-06-07T08:58:35Z</time>
      </trkpt>
      <trkpt lat="47.9384210" lon="8.5032000">
        <ele>256.6</ele>
        <time>2022-06-07T08:58:39Z</time>
      </trkpt>
      <trkpt lat="47.9385110" lon="8.5033610">
        <ele>257.0</ele>
        <time>2022-06-07T08:58:43Z</time>
      </trkpt>
      <trkpt lat="47.9385960" lon="8.5035080">
        <ele>256.8</ele>
        <time>2022-06-07T08:58:47Z</time>
      </trkpt>
      <trkpt lat="47.9386810" lon="8.5036410">
        <ele>257.0</ele>
        <time>2022-06-07T08:58:51Z</time>
      </trkpt>
      <trkpt lat="47.9387700" lon="8.5037400">
        <ele>256.2</ele>
        <time>2022-06-07T08:58:55Z</time>
      </trkpt>
      <trkpt lat="47.9388810" lon="8.5038260">
        <ele>256.4</ele>
        <time>2022-06-07T08:58:59Z</time>
      </trkpt>
      <trkpt lat="47.9389950" lon="8.5039330">
        <ele>255.8</ele>
        <time>2022-06-07T08:59:03Z</time>
      </trkpt>
      <trkpt lat="47.9391350" lon="8.5040410">
        <ele>255.2</ele>
        <time>2022-06-07T08:59:07Z</time>
      </trkpt>
      <trkpt lat="47.9392950" lon="8.5041450">
        <ele>255.2</ele>
        <time>2022-06-07T08:59:11Z</time>
      </trkpt>
      <trkpt lat="47.9394580" lon="8.5042000">
        <ele>255.4</ele>
        <time>2022-06-07T08:59:15Z</time>
      </trkpt>
      <trkpt lat="47.9396350" lon="8.5041730">
        <ele>255.2</ele>
        <time>2022-06-07T08:59:19Z</time>
      </trkpt>
      <trkpt lat="47.9397960" lon="8.5040780">
        <ele>255.4</ele>
        <time>2022-06-07T08:59:23Z</time>
      </trkpt>
      <trkpt lat="47.9399600" lon="8.5040150">
        <ele>255.4</ele>
        <time>2022-06-07T08:59:27Z</time>
      </trkpt>
      <trkpt lat="47.9401160" lon="8.5039810">
        <ele>255.4</ele>
        <time>2022-06-07T08:59:31Z</time>
      </trkpt>
      <trkpt lat="47.9402800" lon="8.5040280">
        <ele>255.6</ele>
        <time>2022-06-07T08:59:35Z</time>
      </trkpt>
      <trkpt lat="47.9403730" lon="8.5042500">
        <ele>255.0</ele>
        <time>2022-06-07T08:59:39Z</time>
      </trkpt>
      <trkpt lat="47.9403960" lon="8.5045210">
        <ele>255.2</ele>
        <time>2022-06-07T08:59:43Z</time>
      </trkpt>
      <trkpt lat="47.9403830" lon="8.5047880">
        <ele>256.2</ele>
        <time>2022-06-07T08:59:47Z</time>
      </trkpt>
      <trkpt lat="47.9403180" lon="8.5050000">
        <ele>256.6</ele>
        <time>2022-06-07T08:59:51Z</time>
      </trkpt>
      <trkpt lat="47.9402630" lon="8.5051960">
        <ele>257.0</ele>
        <time>2022-06-07T08:59:55Z</time>
      </trkpt>
      <trkpt lat="47.9402950" lon="8.5053330">
        <ele>256.2</ele>
        <time>2022-06-07T08:59:59Z</time>
      </trkpt>
      <trkpt lat="47.9404130" lon="8.5054610">
        <ele>255.8</ele>
        <time>2022-06-07T09:00:03Z</time>
      </trkpt>
      <trkpt lat="47.9405560" lon="8.5055980">
        <ele>256.2</ele>
        <time>2022-06-07T09:00:07Z</time>
      </trkpt>
      <trkpt lat="47.9406880" lon="8.5057200">
        <ele>256.6</ele>
        <time>2022-06-07T09:00:11Z</time>
      </trkpt>
      <trkpt lat="47.9408380" lon="8.5058450">
        <ele>255.8</ele>
        <time>2022-06-07T09:00:15Z</time>
      </trkpt>
      <trkpt lat="47.9410010" lon="8.5059460">
        <ele>256.4</ele>
        <time>2022-06-07T09:00:19Z</time>
      </trkpt>
      <trkpt lat="47.9411610" lon="8.5060450">
        <ele>256.0</ele>
        <time>2022-06-07T09:00:23Z</time>
      </trkpt>
      <trkpt lat="47.9413350" lon="8.5061300">
        <ele>256.0</ele>
        <time>2022-06-07T09:00:27Z</time>
      </trkpt>
      <trkpt lat="47.9415330" lon="8.5061530">
        <ele>255.4</ele>
        <time>2022-06-07T09:00:31Z</time>
      </trkpt>
      <trkpt lat="47.9417500" lon="8.5061250">
        <ele>254.8</ele>
        <time>2022-06-07T09:00:35Z</time>
      </trkpt>
      <trkpt lat="47.9419310" lon="8.5061130">
        <ele>255.2</ele>
        <time>2022-06-07T09:00:39Z</time>
      </trkpt>
      <trkpt lat="47.9421230" lon="8.5060900">
        <ele>255.4</ele>
        <time>2022-06-07T09:00:43Z</time>
      </trkpt>
      <trkpt lat="47.9423060" lon="8.5060660">
        <ele>255.0</ele>
        <time>2022-06-07T09:00:47Z</time>
      </trkpt>
      <trkpt lat="47.9424810" lon="8.5060550">
        <ele>255.2</ele>
        <time>2022-06-07T09:00:51Z</time>
      </trkpt>
      <trkpt lat="47.9426660" lon="8.5060450">
        <ele>255.0</ele>
        <time>2022-06-07T09:00:55Z</time>
      </trkpt>
      <trkpt lat="47.9428530" lon="8.5060300">
        <ele>255.2</ele>
        <time>2022-06-07T09:00:59Z</time>
      </trkpt>
      <trkpt lat="47.9430310" lon="8.5060080">
        <ele>254.6</ele>
        <time>2022-06-07T09:01:03Z</time>
      </trkpt>
      <trkpt lat="47.9432060" lon="8.5059900">
        <ele>254.6</ele>
        <time>2022-06-07T09:01:07Z</time>
      </trkpt>
      <trkpt lat="47.9433800" lon="8.5059580">
        <ele>254.8</ele>
        <time>2022-06-07T09:01:11Z</time>
      </trkpt>
      <trkpt lat="47.9435580" lon="8.5059500">
        <ele>254.8</ele>
        <time>2022-06-07T09:01:15Z</time>
      </trkpt>
      <trkpt lat="47.9437200" lon="8.5059110">
        <ele>255.4</ele>
        <time>2022-06-07T09:01:19Z</time>
      </trkpt>
      <trkpt lat="47.9438930" lon="8.5059100">
        <ele>254.8</ele>
        <time>2022-06-07T09:01:23Z</time>
      </trkpt>
      <trkpt lat="47.9440510" lon="8.5060110">
        <ele>254.8</ele>
        <time>2022-06-07T09:01:27Z</time>
      </trkpt>
      <trkpt lat="47.9441830" lon="8.5061960">
        <ele>254.6</ele>
        <time>2022-06-07T09:01:31Z</time>
      </trkpt>
      <trkpt lat="47.9443210" lon="8.5063930">
        <ele>254.8</ele>
        <time>2022-06-07T09:01:35Z</time>
      </trkpt>
      <trkpt lat="47.9444530" lon="8.5065850">
        <ele>254.8</ele>
        <time>2022-06-07T09:01:39Z</time>
      </trkpt>
      <trkpt lat="47.9446050" lon="8.5066560">
        <ele>254.6</ele>
        <time>2022-06-07T09:01:43Z</time>
      </trkpt>
      <trkpt lat="47.9447830" lon="8.5066860">
        <ele>254.0</ele>
        <time>2022-06-07T09:01:47Z</time>
      </trkpt>
      <trkpt lat="47.9449660" lon="8.5067550">
        <ele>254.2</ele>
        <time>2022-06-07T09:01:51Z</time>
      </trkpt>
      <trkpt lat="47.9451100" lon="8.5068500">
        <ele>254.2</ele>
        <time>2022-06-07T09:01:55Z</time>
      </trkpt>
      <trkpt lat="47.9452600" lon="8.5069750">
        <ele>255.0</ele>
        <time>2022-06-07T09:01:59Z</time>
      </trkpt>
      <trkpt lat="47.9453910" lon="8.5070910">
        <ele>254.8</ele>
        <time>2022-06-07T09:02:03Z</time>
      </trkpt>
      <trkpt lat="47.9455610" lon="8.5072160">
        <ele>255.4</ele>
        <time>2022-06-07T09:02:07Z</time>
      </trkpt>
      <trkpt lat="47.9456980" lon="8.5073010">
        <ele>255.4</ele>
        <time>2022-06-07T09:02:11Z</time>
      </trkpt>
      <trkpt lat="47.9458410" lon="8.5073930">
        <ele>254.2</ele>
        <time>2022-06-07T09:02:15Z</time>
      </trkpt>
      <trkpt lat="47.9459960" lon="8.5074450">
        <ele>254.8</ele>
        <time>2022-06-07T09:02:19Z</time>
      </trkpt>
      <trkpt lat="47.9461380" lon="8.5075080">
        <ele>254.6</ele>
        <time>2022-06-07T09:02:23Z</time>
      </trkpt>
      <trkpt lat="47.9462830" lon="8.5075800">
        <ele>254.4</ele>
        <time>2022-06-07T09:02:27Z</time>
      </trkpt>
      <trkpt lat="47.9464810" lon="8.5076530">
        <ele>254.6</ele>
        <time>2022-06-07T09:02:31Z</time>
      </trkpt>
      <trkpt lat="47.9466560" lon="8.5077110">
        <ele>254.4</ele>
        <time>2022-06-07T09:02:35Z</time>
      </trkpt>
      <trkpt lat="47.9468410" lon="8.5077380">
        <ele>254.8</ele>
        <time>2022-06-07T09:02:39Z</time>
      </trkpt>
      <trkpt lat="47.9470310" lon="8.5077260">
        <ele>255.2</ele>
        <time>2022-06-07T09:02:43Z</time>
      </trkpt>
      <trkpt lat="47.9472030" lon="8.5076950">
        <ele>254.8</ele>
        <time>2022-06-07T09:02:47Z</time>
      </trkpt>
      <trkpt lat="47.9473530" lon="8.5076210">
        <ele>254.8</ele>
        <time>2022-06-07T09:02:51Z</time>
      </trkpt>
      <trkpt lat="47.9474960" lon="8.5076760">
        <ele>254.4</ele>
        <time>2022-06-07T09:02:55Z</time>
      </trkpt>
      <trkpt lat="47.9476100" lon="8.5078530">
        <ele>254.6</ele>
        <time>2022-06-07T09:02:59Z</time>
      </trkpt>
      <trkpt lat="47.9477250" lon="8.5080380">
        <ele>254.2</ele>
        <time>2022-06-07T09:03:03Z</time>
      </trkpt>
      <trkpt lat="47.9478450" lon="8.5082000">
        <ele>254.6</ele>
        <time>2022-06-07T09:03:07Z</time>
      </trkpt>
      <trkpt lat="47.9479230" lon="8.5082300">
        <ele>255.2</ele>
        <time>2022-06-07T09:03:11Z</time>
      </trkpt>
      <trkpt lat="47.9479230" lon="8.5082300">
        <ele>254.6</ele>
        <time>2022-06-07T09:03:15Z</time>
      </trkpt>
      <trkpt lat="47.9479300" lon="8.5082400">
        <ele>255.2</ele>
        <time>2022-06-07T09:03:19Z</time>
      </trkpt>
      <trkpt lat="47.9479300" lon="8.5082400">
        <ele>254.6</ele>
        <time>2022-06-07T09:03:23Z</time>
      </trkpt>
      <trkpt lat="47.9479300" lon="8.5082400">
        <ele>255.0</ele>
        <time>2022-06-07T09:03:27Z</time>
      </trkpt>
      <trkpt lat="47.9479650" lon="8.5082930">
        <ele>254.8</ele>
        <time>2022-06-07T09:03:31Z</time>
      </trkpt>
      <trkpt lat="47.9479350" lon="8.5084100">
        <ele>254.8</ele>
        <time>2022-06-07T09:03:35Z</time>
      </trkpt>
      <trkpt lat="47.9479050" lon="8.5085450">
        <ele>254.8</ele>
        <time>2022-06-07T09:03:39Z</time>
      </trkpt>
      <trkpt lat="47.9478600" lon="8.5087300">
        <ele>255.0</ele>
        <time>2022-06-07T09:03:43Z</time>
      </trkpt>
      <trkpt lat="47.9478180" lon="8.5089260">
        <ele>254.6</ele>
        <time>2022-06-07T09:03:47Z</time>
      </trkpt>
      <trkpt lat="47.9477860" lon="8.5091310">
        <ele>254.0</ele>
        <time>2022-06-07T09:03:51Z</time>
      </trkpt>
      <trkpt lat="47.9477350" lon="8.5093550">
        <ele>254.6</ele>
        <time>2022-06-07T09:03:55Z</time>
      </trkpt>
      <trkpt lat="47.9476800" lon="8.5095930">
        <ele>254.2</ele>
        <time>2022-06-07T09:03:59Z</time>
      </trkpt>
      <trkpt lat="47.9476250" lon="8.5098250">
        <ele>254.4</ele>
        <time>2022-06-07T09:04:03Z</time>
      </trkpt>
      <trkpt lat="47.9475710" lon="8.5100700">
        <ele>254.4</ele>
        <time>2022-06-07T09:04:07Z</time>
      </trkpt>
      <trkpt lat="47.9475160" lon="8.5103280">
        <ele>253.8</ele>
        <time>2022-06-07T09:04:11Z</time>
      </trkpt>
      <trkpt lat="47.9474710" lon="8.5106100">
        <ele>254.0</ele>
        <time>2022-06-07T09:04:15Z</time>
      </trkpt>
      <trkpt lat="47.9474200" lon="8.5108600">
        <ele>254.4</ele>
        <time>2022-06-07T09:04:19Z</time>
      </trkpt>
      <trkpt lat="47.9473530" lon="8.5111180">
        <ele>254.6</ele>
        <time>2022-06-07T09:04:23Z</time>
      </trkpt>
      <trkpt lat="47.9473080" lon="8.5113850">
        <ele>254.2</ele>
        <time>2022-06-07T09:04:27Z</time>
      </trkpt>
      <trkpt lat="47.9472780" lon="8.5116580">
        <ele>254.6</ele>
        <time>2022-06-07T09:04:31Z</time>
      </trkpt>
      <trkpt lat="47.9472730" lon="8.5119250">
        <ele>254.2</ele>
        <time>2022-06-07T09:04:35Z</time>
      </trkpt>
      <trkpt lat="47.9472950" lon="8.5122130">
        <ele>254.0</ele>
        <time>2022-06-07T09:04:39Z</time>
      </trkpt>
      <trkpt lat="47.9473530" lon="8.5124830">
        <ele>254.0</ele>
        <time>2022-06-07T09:04:43Z</time>
      </trkpt>
      <trkpt lat="47.9474430" lon="8.5127330">
        <ele>253.0</ele>
        <time>2022-06-07T09:04:47Z</time>
      </trkpt>
      <trkpt lat="47.9475360" lon="8.5129830">
        <ele>253.4</ele>
        <time>2022-06-07T09:04:51Z</time>
      </trkpt>
      <trkpt lat="47.9475080" lon="8.5132460">
        <ele>253.4</ele>
        <time>2022-06-07T09:04:55Z</time>
      </trkpt>
      <trkpt lat="47.9475480" lon="8.5135010">
        <ele>254.0</ele>
        <time>2022-06-07T09:04:59Z</time>
      </trkpt>
      <trkpt lat="47.9476280" lon="8.5137380">
        <ele>253.6</ele>
        <time>2022-06-07T09:05:03Z</time>
      </trkpt>
      <trkpt lat="47.9477030" lon="8.5139600">
        <ele>254.0</ele>
        <time>2022-06-07T09:05:07Z</time>
      </trkpt>
      <trkpt lat="47.9477980" lon="8.5142000">
        <ele>253.4</ele>
        <time>2022-06-07T09:05:11Z</time>
      </trkpt>
      <trkpt lat="47.9478800" lon="8.5144330">
        <ele>253.2</ele>
        <time>2022-06-07T09:05:15Z</time>
      </trkpt>
      <trkpt lat="47.9479830" lon="8.5146610">
        <ele>253.2</ele>
        <time>2022-06-07T09:05:19Z</time>
      </trkpt>
      <trkpt lat="47.9480880" lon="8.5148610">
        <ele>253.8</ele>
        <time>2022-06-07T09:05:23Z</time>
      </trkpt>
      <trkpt lat="47.9481930" lon="8.5150430">
        <ele>253.4</ele>
        <time>2022-06-07T09:05:27Z</time>
      </trkpt>
      <trkpt lat="47.9482710" lon="8.5151830">
        <ele>253.8</ele>
        <time>2022-06-07T09:05:31Z</time>
      </trkpt>
      <trkpt lat="47.9483300" lon="8.5153380">
        <ele>253.2</ele>
        <time>2022-06-07T09:05:35Z</time>
      </trkpt>
      <trkpt lat="47.9484100" lon="8.5154650">
        <ele>253.8</ele>
        <time>2022-06-07T09:05:39Z</time>
      </trkpt>
      <trkpt lat="47.9484860" lon="8.5155950">
        <ele>253.8</ele>
        <time>2022-06-07T09:05:43Z</time>
      </trkpt>
      <trkpt lat="47.9485850" lon="8.5156930">
        <ele>253.4</ele>
        <time>2022-06-07T09:05:47Z</time>
      </trkpt>
      <trkpt lat="47.9487350" lon="8.5157300">
        <ele>252.2</ele>
        <time>2022-06-07T09:05:51Z</time>
      </trkpt>
      <trkpt lat="47.9488900" lon="8.5157610">
        <ele>252.0</ele>
        <time>2022-06-07T09:05:55Z</time>
      </trkpt>
      <trkpt lat="47.9490410" lon="8.5157810">
        <ele>252.8</ele>
        <time>2022-06-07T09:05:59Z</time>
      </trkpt>
      <trkpt lat="47.9491480" lon="8.5158180">
        <ele>252.6</ele>
        <time>2022-06-07T09:06:03Z</time>
      </trkpt>
      <trkpt lat="47.9492380" lon="8.5158430">
        <ele>252.4</ele>
        <time>2022-06-07T09:06:07Z</time>
      </trkpt>
      <trkpt lat="47.9493510" lon="8.5159110">
        <ele>252.2</ele>
        <time>2022-06-07T09:06:11Z</time>
      </trkpt>
      <trkpt lat="47.9494700" lon="8.5159760">
        <ele>252.4</ele>
        <time>2022-06-07T09:06:15Z</time>
      </trkpt>
      <trkpt lat="47.9495880" lon="8.5160410">
        <ele>253.0</ele>
        <time>2022-06-07T09:06:19Z</time>
      </trkpt>
      <trkpt lat="47.9497110" lon="8.5160930">
        <ele>252.8</ele>
        <time>2022-06-07T09:06:23Z</time>
      </trkpt>
      <trkpt lat="47.9498150" lon="8.5161810">
        <ele>253.2</ele>
        <time>2022-06-07T09:06:27Z</time>
      </trkpt>
      <trkpt lat="47.9498510" lon="8.5163050">
        <ele>253.4</ele>
        <time>2022-06-07T09:06:31Z</time>
      </trkpt>
      <trkpt lat="47.9498350" lon="8.5164630">
        <ele>253.8</ele>
        <time>2022-06-07T09:06:35Z</time>
      </trkpt>
      <trkpt lat="47.9498110" lon="8.5166480">
        <ele>254.4</ele>
        <time>2022-06-07T09:06:39Z</time>
      </trkpt>
      <trkpt lat="47.9497810" lon="8.5168200">
        <ele>254.6</ele>
        <time>2022-06-07T09:06:43Z</time>
      </trkpt>
      <trkpt lat="47.9497650" lon="8.5169960">
        <ele>255.2</ele>
        <time>2022-06-07T09:06:47Z</time>
      </trkpt>
      <trkpt lat="47.9497480" lon="8.5171750">
        <ele>255.0</ele>
        <time>2022-06-07T09:06:51Z</time>
      </trkpt>
      <trkpt lat="47.9496750" lon="8.5173580">
        <ele>253.8</ele>
        <time>2022-06-07T09:06:55Z</time>
      </trkpt>
      <trkpt lat="47.9495610" lon="8.5175130">
        <ele>254.2</ele>
        <time>2022-06-07T09:06:59Z</time>
      </trkpt>
      <trkpt lat="47.9494500" lon="8.5176550">
        <ele>254.8</ele>
        <time>2022-06-07T09:07:03Z</time>
      </trkpt>
      <trkpt lat="47.9493300" lon="8.5177960">
        <ele>254.8</ele>
        <time>2022-06-07T09:07:07Z</time>
      </trkpt>
      <trkpt lat="47.9492180" lon="8.5179510">
        <ele>254.4</ele>
        <time>2022-06-07T09:07:11Z</time>
      </trkpt>
      <trkpt lat="47.9491260" lon="8.5181400">
        <ele>255.0</ele>
        <time>2022-06-07T09:07:15Z</time>
      </trkpt>
      <trkpt lat="47.9490910" lon="8.5183680">
        <ele>254.8</ele>
        <time>2022-06-07T09:07:19Z</time>
      </trkpt>
      <trkpt lat="47.9491030" lon="8.5186300">
        <ele>254.4</ele>
        <time>2022-06-07T09:07:23Z</time>
      </trkpt>
      <trkpt lat="47.9491180" lon="8.5188960">
        <ele>254.0</ele>
        <time>2022-06-07T09:07:27Z</time>
      </trkpt>
      <trkpt lat="47.9491380" lon="8.5191660">
        <ele>254.0</ele>
        <time>2022-06-07T09:07:31Z</time>
      </trkpt>
      <trkpt lat="47.9491600" lon="8.5194250">
        <ele>253.8</ele>
        <time>2022-06-07T09:07:35Z</time>
      </trkpt>
      <trkpt lat="47.9491600" lon="8.5196910">
        <ele>253.4</ele>
        <time>2022-06-07T09:07:39Z</time>
      </trkpt>
      <trkpt lat="47.9491610" lon="8.5199480">
        <ele>253.6</ele>
        <time>2022-06-07T09:07:43Z</time>
      </trkpt>
      <trkpt lat="47.9491800" lon="8.5202050">
        <ele>252.8</ele>
        <time>2022-06-07T09:07:47Z</time>
      </trkpt>
      <trkpt lat="47.9492030" lon="8.5204660">
        <ele>253.2</ele>
        <time>2022-06-07T09:07:51Z</time>
      </trkpt>
      <trkpt lat="47.9492110" lon="8.5207650">
        <ele>253.0</ele>
        <time>2022-06-07T09:07:55Z</time>
      </trkpt>
      <trkpt lat="47.9491930" lon="8.5210130">
        <ele>252.4</ele>
        <time>2022-06-07T09:07:59Z</time>
      </trkpt>
      <trkpt lat="47.9491930" lon="8.5212300">
        <ele>253.6</ele>
        <time>2022-06-07T09:08:03Z</time>
      </trkpt>
      <trkpt lat="47.9490530" lon="8.5213400">
        <ele>253.6</ele>
        <time>2022-06-07T09:08:07Z</time>
      </trkpt>
      <trkpt lat="47.9488780" lon="8.5213200">
        <ele>253.6</ele>
        <time>2022-06-07T09:08:11Z</time>
      </trkpt>
      <trkpt lat="47.9486950" lon="8.5212880">
        <ele>253.4</ele>
        <time>2022-06-07T09:08:15Z</time>
      </trkpt>
      <trkpt lat="47.9485210" lon="8.5212710">
        <ele>253.0</ele>
        <time>2022-06-07T09:08:19Z</time>
      </trkpt>
      <trkpt lat="47.9483350" lon="8.5212660">
        <ele>253.4</ele>
        <time>2022-06-07T09:08:23Z</time>
      </trkpt>
      <trkpt lat="47.9481730" lon="8.5212450">
        <ele>253.8</ele>
        <time>2022-06-07T09:08:27Z</time>
      </trkpt>
      <trkpt lat="47.9480050" lon="8.5212080">
        <ele>253.8</ele>
        <time>2022-06-07T09:08:31Z</time>
      </trkpt>
      <trkpt lat="47.9478260" lon="8.5211810">
        <ele>253.4</ele>
        <time>2022-06-07T09:08:35Z</time>
      </trkpt>
      <trkpt lat="47.9476480" lon="8.5212580">
        <ele>253.2</ele>
        <time>2022-06-07T09:08:39Z</time>
      </trkpt>
      <trkpt lat="47.9475950" lon="8.5214810">
        <ele>252.8</ele>
        <time>2022-06-07T09:08:43Z</time>
      </trkpt>
      <trkpt lat="47.9475960" lon="8.5217250">
        <ele>253.0</ele>
        <time>2022-06-07T09:08:47Z</time>
      </trkpt>
      <trkpt lat="47.9476150" lon="8.5219450">
        <ele>252.8</ele>
        <time>2022-06-07T09:08:51Z</time>
      </trkpt>
      <trkpt lat="47.9476330" lon="8.5221930">
        <ele>252.8</ele>
        <time>2022-06-07T09:08:55Z</time>
      </trkpt>
      <trkpt lat="47.9476450" lon="8.5224610">
        <ele>252.4</ele>
        <time>2022-06-07T09:08:59Z</time>
      </trkpt>
      <trkpt lat="47.9476500" lon="8.5227410">
        <ele>252.8</ele>
        <time>2022-06-07T09:09:03Z</time>
      </trkpt>
      <trkpt lat="47.9476610" lon="8.5229900">
        <ele>252.2</ele>
        <time>2022-06-07T09:09:07Z</time>
      </trkpt>
      <trkpt lat="47.9476730" lon="8.5232700">
        <ele>252.0</ele>
        <time>2022-06-07T09:09:11Z</time>
      </trkpt>
      <trkpt lat="47.9476860" lon="8.5235430">
        <ele>252.0</ele>
        <time>2022-06-07T09:09:15Z</time>
      </trkpt>
      <trkpt lat="47.9476960" lon="8.5238150">
        <ele>251.6</ele>
        <time>2022-06-07T09:09:19Z</time>
      </trkpt>
      <trkpt lat="47.9477000" lon="8.5241150">
        <ele>252.2</ele>
        <time>2022-06-07T09:09:23Z</time>
      </trkpt>
      <trkpt lat="47.9477000" lon="8.5244100">
        <ele>251.6</ele>
        <time>2022-06-07T09:09:27Z</time>
      </trkpt>
      <trkpt lat="47.9476980" lon="8.5247010">
        <ele>252.0</ele>
        <time>2022-06-07T09:09:31Z</time>
      </trkpt>
      <trkpt lat="47.9476830" lon="8.5250010">
        <ele>251.2</ele>
        <time>2022-06-07T09:09:35Z</time>
      </trkpt>
      <trkpt lat="47.9476700" lon="8.5253000">
        <ele>252.4</ele>
        <time>2022-06-07T09:09:39Z</time>
      </trkpt>
      <trkpt lat="47.9476660" lon="8.5255980">
        <ele>252.0</ele>
        <time>2022-06-07T09:09:43Z</time>
      </trkpt>
      <trkpt lat="47.9476700" lon="8.5258830">
        <ele>252.2</ele>
        <time>2022-06-07T09:09:47Z</time>
      </trkpt>
      <trkpt lat="47.9476680" lon="8.5261760">
        <ele>252.4</ele>
        <time>2022-06-07T09:09:51Z</time>
      </trkpt>
      <trkpt lat="47.9476680" lon="8.5264650">
        <ele>252.6</ele>
        <time>2022-06-07T09:09:55Z</time>
      </trkpt>
      <trkpt lat="47.9476680" lon="8.5267610">
        <ele>252.0</ele>
        <time>2022-06-07T09:09:59Z</time>
      </trkpt>
      <trkpt lat="47.9476680" lon="8.5270600">
        <ele>252.2</ele>
        <time>2022-06-07T09:10:03Z</time>
      </trkpt>
      <trkpt lat="47.9476710" lon="8.5273510">
        <ele>252.2</ele>
        <time>2022-06-07T09:10:07Z</time>
      </trkpt>
      <trkpt lat="47.9476710" lon="8.5276430">
        <ele>251.6</ele>
        <time>2022-06-07T09:10:11Z</time>
      </trkpt>
      <trkpt lat="47.9476760" lon="8.5279410">
        <ele>251.2</ele>
        <time>2022-06-07T09:10:15Z</time>
      </trkpt>
      <trkpt lat="47.9476780" lon="8.5282380">
        <ele>252.0</ele>
        <time>2022-06-07T09:10:19Z</time>
      </trkpt>
      <trkpt lat="47.9476810" lon="8.5285250">
        <ele>252.2</ele>
        <time>2022-06-07T09:10:23Z</time>
      </trkpt>
      <trkpt lat="47.9476810" lon="8.5288060">
        <ele>252.2</ele>
        <time>2022-06-07T09:10:27Z</time>
      </trkpt>
      <trkpt lat="47.9476810" lon="8.5290860">
        <ele>252.0</ele>
        <time>2022-06-07T09:10:31Z</time>
      </trkpt>
      <trkpt lat="47.9476860" lon="8.5293530">
        <ele>251.4</ele>
        <time>2022-06-07T09:10:35Z</time>
      </trkpt>
      <trkpt lat="47.9476960" lon="8.5296150">
        <ele>251.2</ele>
        <time>2022-06-07T09:10:39Z</time>
      </trkpt>
      <trkpt lat="47.9477200" lon="8.5298850">
        <ele>251.4</ele>
        <time>2022-06-07T09:10:43Z</time>
      </trkpt>
      <trkpt lat="47.9477460" lon="8.5301550">
        <ele>251.2</ele>
        <time>2022-06-07T09:10:47Z</time>
      </trkpt>
      <trkpt lat="47.9477760" lon="8.5304280">
        <ele>251.2</ele>
        <time>2022-06-07T09:10:51Z</time>
      </trkpt>
      <trkpt lat="47.9478130" lon="8.5307080">
        <ele>251.6</ele>
        <time>2022-06-07T09:10:55Z</time>
      </trkpt>
      <trkpt lat="47.9478650" lon="8.5309830">
        <ele>251.2</ele>
        <time>2022-06-07T09:10:59Z</time>
      </trkpt>
      <trkpt lat="47.9479130" lon="8.5312550">
        <ele>251.6</ele>
        <time>2022-06-07T09:11:03Z</time>
      </trkpt>
      <trkpt lat="47.9479710" lon="8.5315260">
        <ele>251.0</ele>
        <time>2022-06-07T09:11:07Z</time>
      </trkpt>
      <trkpt lat="47.9480410" lon="8.5317930">
        <ele>251.2</ele>
        <time>2022-06-07T09:11:11Z</time>
      </trkpt>
      <trkpt lat="47.9481230" lon="8.5320580">
        <ele>251.6</ele>
        <time>2022-06-07T09:11:15Z</time>
      </trkpt>
      <trkpt lat="47.9481060" lon="8.5322980">
        <ele>251.4</ele>
        <time>2022-06-07T09:11:19Z</time>
      </trkpt>
      <trkpt lat="47.9479180" lon="8.5323180">
        <ele>250.4</ele>
        <time>2022-06-07T09:11:23Z</time>
      </trkpt>
      <trkpt lat="47.9477000" lon="8.5322700">
        <ele>251.2</ele>
        <time>2022-06-07T09:11:27Z</time>
      </trkpt>
      <trkpt lat="47.9474960" lon="8.5323160">
        <ele>251.0</ele>
        <time>2022-06-07T09:11:31Z</time>
      </trkpt>
      <trkpt lat="47.9473080" lon="8.5324180">
        <ele>251.0</ele>
        <time>2022-06-07T09:11:35Z</time>
      </trkpt>
      <trkpt lat="47.9471200" lon="8.5325150">
        <ele>251.4</ele>
        <time>2022-06-07T09:11:39Z</time>
      </trkpt>
      <trkpt lat="47.9469280" lon="8.5326210">
        <ele>251.4</ele>
        <time>2022-06-07T09:11:43Z</time>
      </trkpt>
      <trkpt lat="47.9467350" lon="8.5327200">
        <ele>251.4</ele>
        <time>2022-06-07T09:11:47Z</time>
      </trkpt>
      <trkpt lat="47.9465450" lon="8.5328280">
        <ele>251.4</ele>
        <time>2022-06-07T09:11:51Z</time>
      </trkpt>
      <trkpt lat="47.9463630" lon="8.5329510">
        <ele>250.6</ele>
        <time>2022-06-07T09:11:55Z</time>
      </trkpt>
      <trkpt lat="47.9461850" lon="8.5330900">
        <ele>250.8</ele>
        <time>2022-06-07T09:11:59Z</time>
      </trkpt>
      <trkpt lat="47.9460060" lon="8.5332480">
        <ele>251.2</ele>
        <time>2022-06-07T09:12:03Z</time>
      </trkpt>
      <trkpt lat="47.9458310" lon="8.5334110">
        <ele>251.8</ele>
        <time>2022-06-07T09:12:07Z</time>
      </trkpt>
      <trkpt lat="47.9456500" lon="8.5335610">
        <ele>251.0</ele>
        <time>2022-06-07T09:12:11Z</time>
      </trkpt>
      <trkpt lat="47.9454700" lon="8.5337200">
        <ele>251.4</ele>
        <time>2022-06-07T09:12:15Z</time>
      </trkpt>
      <trkpt lat="47.9452850" lon="8.5338850">
        <ele>251.8</ele>
        <time>2022-06-07T09:12:19Z</time>
      </trkpt>
      <trkpt lat="47.9451000" lon="8.5340460">
        <ele>251.8</ele>
        <time>2022-06-07T09:12:23Z</time>
      </trkpt>
      <trkpt lat="47.9449150" lon="8.5342050">
        <ele>251.4</ele>
        <time>2022-06-07T09:12:27Z</time>
      </trkpt>
      <trkpt lat="47.9447330" lon="8.5343650">
        <ele>251.0</ele>
        <time>2022-06-07T09:12:31Z</time>
      </trkpt>
      <trkpt lat="47.9445550" lon="8.5345230">
        <ele>251.4</ele>
        <time>2022-06-07T09:12:35Z</time>
      </trkpt>
      <trkpt lat="47.9443760" lon="8.5346750">
        <ele>251.4</ele>
        <time>2022-06-07T09:12:39Z</time>
      </trkpt>
      <trkpt lat="47.9441960" lon="8.5348280">
        <ele>252.0</ele>
        <time>2022-06-07T09:12:43Z</time>
      </trkpt>
      <trkpt lat="47.9440180" lon="8.5349830">
        <ele>251.8</ele>
        <time>2022-06-07T09:12:47Z</time>
      </trkpt>
      <trkpt lat="47.9438380" lon="8.5351380">
        <ele>251.8</ele>
        <time>2022-06-07T09:12:51Z</time>
      </trkpt>
      <trkpt lat="47.9437100" lon="8.5353780">
        <ele>251.4</ele>
        <time>2022-06-07T09:12:55Z</time>
      </trkpt>
      <trkpt lat="47.9436800" lon="8.5356780">
        <ele>251.2</ele>
        <time>2022-06-07T09:12:59Z</time>
      </trkpt>
      <trkpt lat="47.9436760" lon="8.5359780">
        <ele>251.4</ele>
        <time>2022-06-07T09:13:03Z</time>
      </trkpt>
      <trkpt lat="47.9436780" lon="8.5362810">
        <ele>251.0</ele>
        <time>2022-06-07T09:13:07Z</time>
      </trkpt>
      <trkpt lat="47.9436730" lon="8.5365750">
        <ele>251.2</ele>
        <time>2022-06-07T09:13:11Z</time>
      </trkpt>
      <trkpt lat="47.9436710" lon="8.5368710">
        <ele>251.4</ele>
        <time>2022-06-07T09:13:15Z</time>
      </trkpt>
      <trkpt lat="47.9436660" lon="8.5371730">
        <ele>250.8</ele>
        <time>2022-06-07T09:13:19Z</time>
      </trkpt>
      <trkpt lat="47.9436680" lon="8.5374760">
        <ele>251.0</ele>
        <time>2022-06-07T09:13:23Z</time>
      </trkpt>
      <trkpt lat="47.9436610" lon="8.5377800">
        <ele>251.4</ele>
        <time>2022-06-07T09:13:27Z</time>
      </trkpt>
      <trkpt lat="47.9436560" lon="8.5380810">
        <ele>251.8</ele>
        <time>2022-06-07T09:13:31Z</time>
      </trkpt>
      <trkpt lat="47.9436560" lon="8.5383880">
        <ele>250.8</ele>
        <time>2022-06-07T09:13:35Z</time>
      </trkpt>
      <trkpt lat="47.9436510" lon="8.5386900">
        <ele>251.6</ele>
        <time>2022-06-07T09:13:39Z</time>
      </trkpt>
      <trkpt lat="47.9436460" lon="8.5389880">
        <ele>251.0</ele>
        <time>2022-06-07T09:13:43Z</time>
      </trkpt>
      <trkpt lat="47.9436400" lon="8.5392810">
        <ele>251.8</ele>
        <time>2022-06-07T09:13:47Z</time>
      </trkpt>
      <trkpt lat="47.9436350" lon="8.5395780">
        <ele>251.2</ele>
        <time>2022-06-07T09:13:51Z</time>
      </trkpt>
      <trkpt lat="47.9436280" lon="8.5398750">
        <ele>251.0</ele>
        <time>2022-06-07T09:13:55Z</time>
      </trkpt>
      <trkpt lat="47.9436260" lon="8.5401780">
        <ele>250.8</ele>
        <time>2022-06-07T09:13:59Z</time>
      </trkpt>
      <trkpt lat="47.9436380" lon="8.5404660">
        <ele>251.0</ele>
        <time>2022-06-07T09:14:03Z</time>
      </trkpt>
      <trkpt lat="47.9435080" lon="8.5406460">
        <ele>250.4</ele>
        <time>2022-06-07T09:14:07Z</time>
      </trkpt>
      <trkpt lat="47.9433100" lon="8.5406700">
        <ele>250.4</ele>
        <time>2022-06-07T09:14:11Z</time>
      </trkpt>
      <trkpt lat="47.9431230" lon="8.5407060">
        <ele>250.4</ele>
        <time>2022-06-07T09:14:15Z</time>
      </trkpt>
      <trkpt lat="47.9429430" lon="8.5407580">
        <ele>251.0</ele>
        <time>2022-06-07T09:14:19Z</time>
      </trkpt>
      <trkpt lat="47.9427600" lon="8.5408410">
        <ele>250.8</ele>
        <time>2022-06-07T09:14:23Z</time>
      </trkpt>
      <trkpt lat="47.9425730" lon="8.5409160">
        <ele>251.4</ele>
        <time>2022-06-07T09:14:27Z</time>
      </trkpt>
      <trkpt lat="47.9423880" lon="8.5409660">
        <ele>251.2</ele>
        <time>2022-06-07T09:14:31Z</time>
      </trkpt>
      <trkpt lat="47.9422030" lon="8.5410210">
        <ele>250.6</ele>
        <time>2022-06-07T09:14:35Z</time>
      </trkpt>
      <trkpt lat="47.9420350" lon="8.5411500">
        <ele>250.6</ele>
        <time>2022-06-07T09:14:39Z</time>
      </trkpt>
      <trkpt lat="47.9418750" lon="8.5412980">
        <ele>251.4</ele>
        <time>2022-06-07T09:14:43Z</time>
      </trkpt>
      <trkpt lat="47.9416980" lon="8.5413980">
        <ele>251.2</ele>
        <time>2022-06-07T09:14:47Z</time>
      </trkpt>
      <trkpt lat="47.9415160" lon="8.5414680">
        <ele>250.6</ele>
        <time>2022-06-07T09:14:51Z</time>
      </trkpt>
      <trkpt lat="47.9413180" lon="8.5414750">
        <ele>250.0</ele>
        <time>2022-06-07T09:14:55Z</time>
      </trkpt>
      <trkpt lat="47.9411330" lon="8.5414930">
        <ele>250.8</ele>
        <time>2022-06-07T09:14:59Z</time>
      </trkpt>
      <trkpt lat="47.9409450" lon="8.5415300">
        <ele>250.8</ele>
        <time>2022-06-07T09:15:03Z</time>
      </trkpt>
      <trkpt lat="47.9407580" lon="8.5415650">
        <ele>250.2</ele>
        <time>2022-06-07T09:15:07Z</time>
      </trkpt>
      <trkpt lat="47.9405700" lon="8.5416080">
        <ele>251.4</ele>
        <time>2022-06-07T09:15:11Z</time>
      </trkpt>
      <trkpt lat="47.9403760" lon="8.5416510">
        <ele>250.4</ele>
        <time>2022-06-07T09:15:15Z</time>
      </trkpt>
      <trkpt lat="47.9401810" lon="8.5416960">
        <ele>251.8</ele>
        <time>2022-06-07T09:15:19Z</time>
      </trkpt>
      <trkpt lat="47.9399910" lon="8.5417380">
        <ele>251.2</ele>
        <time>2022-06-07T09:15:23Z</time>
      </trkpt>
      <trkpt lat="47.9397980" lon="8.5417760">
        <ele>251.4</ele>
        <time>2022-06-07T09:15:27Z</time>
      </trkpt>
      <trkpt lat="47.9396030" lon="8.5418160">
        <ele>250.6</ele>
        <time>2022-06-07T09:15:31Z</time>
      </trkpt>
      <trkpt lat="47.9394060" lon="8.5418600">
        <ele>251.4</ele>
        <time>2022-06-07T09:15:35Z</time>
      </trkpt>
      <trkpt lat="47.9392100" lon="8.5419050">
        <ele>251.0</ele>
        <time>2022-06-07T09:15:39Z</time>
      </trkpt>
      <trkpt lat="47.9390080" lon="8.5419450">
        <ele>250.8</ele>
        <time>2022-06-07T09:15:43Z</time>
      </trkpt>
      <trkpt lat="47.9388150" lon="8.5420230">
        <ele>249.8</ele>
        <time>2022-06-07T09:15:47Z</time>
      </trkpt>
      <trkpt lat="47.9387360" lon="8.5422650">
        <ele>250.4</ele>
        <time>2022-06-07T09:15:51Z</time>
      </trkpt>
      <trkpt lat="47.9387230" lon="8.5425510">
        <ele>251.2</ele>
        <time>2022-06-07T09:15:55Z</time>
      </trkpt>
      <trkpt lat="47.9387180" lon="8.5428410">
        <ele>250.8</ele>
        <time>2022-06-07T09:15:59Z</time>
      </trkpt>
      <trkpt lat="47.9387310" lon="8.5431310">
        <ele>250.6</ele>
        <time>2022-06-07T09:16:03Z</time>
      </trkpt>
      <trkpt lat="47.9387600" lon="8.5434360">
        <ele>250.0</ele>
        <time>2022-06-07T09:16:07Z</time>
      </trkpt>
      <trkpt lat="47.9387780" lon="8.5437430">
        <ele>249.8</ele>
        <time>2022-06-07T09:16:11Z</time>
      </trkpt>
      <trkpt lat="47.9388000" lon="8.5440460">
        <ele>249.6</ele>
        <time>2022-06-07T09:16:15Z</time>
      </trkpt>
      <trkpt lat="47.9388110" lon="8.5443530">
        <ele>249.4</ele>
        <time>2022-06-07T09:16:19Z</time>
      </trkpt>
      <trkpt lat="47.9388210" lon="8.5446600">
        <ele>249.8</ele>
        <time>2022-06-07T09:16:23Z</time>
      </trkpt>
      <trkpt lat="47.9388410" lon="8.5449650">
        <ele>249.6</ele>
        <time>2022-06-07T09:16:27Z</time>
      </trkpt>
      <trkpt lat="47.9388600" lon="8.5452680">
        <ele>249.4</ele>
        <time>2022-06-07T09:16:31Z</time>
      </trkpt>
      <trkpt lat="47.9388930" lon="8.5455660">
        <ele>249.8</ele>
        <time>2022-06-07T09:16:35Z</time>
      </trkpt>
      <trkpt lat="47.9389400" lon="8.5458630">
        <ele>250.2</ele>
        <time>2022-06-07T09:16:39Z</time>
      </trkpt>
      <trkpt lat="47.9390050" lon="8.5461430">
        <ele>249.6</ele>
        <time>2022-06-07T09:16:43Z</time>
      </trkpt>
      <trkpt lat="47.9390760" lon="8.5464230">
        <ele>249.6</ele>
        <time>2022-06-07T09:16:47Z</time>
      </trkpt>
      <trkpt lat="47.9391460" lon="8.5466930">
        <ele>249.8</ele>
        <time>2022-06-07T09:16:51Z</time>
      </trkpt>
      <trkpt lat="47.9392230" lon="8.5469610">
        <ele>249.6</ele>
        <time>2022-06-07T09:16:55Z</time>
      </trkpt>
      <trkpt lat="47.9392760" lon="8.5472360">
        <ele>249.8</ele>
        <time>2022-06-07T09:16:59Z</time>
      </trkpt>
      <trkpt lat="47.9392760" lon="8.5475180">
        <ele>250.6</ele>
        <time>2022-06-07T09:17:03Z</time>
      </trkpt>
      <trkpt lat="47.9392610" lon="8.5478100">
        <ele>250.4</ele>
        <time>2022-06-07T09:17:07Z</time>
      </trkpt>
      <trkpt lat="47.9392410" lon="8.5481150">
        <ele>250.2</ele>
        <time>2022-06-07T09:17:11Z</time>
      </trkpt>
      <trkpt lat="47.9392160" lon="8.5484130">
        <ele>249.6</ele>
        <time>2022-06-07T09:17:15Z</time>
      </trkpt>
      <trkpt lat="47.9391360" lon="8.5487000">
        <ele>250.0</ele>
        <time>2022-06-07T09:17:19Z</time>
      </trkpt>
      <trkpt lat="47.9390200" lon="8.5489360">
        <ele>249.6</ele>
        <time>2022-06-07T09:17:23Z</time>
      </trkpt>
      <trkpt lat="47.9388980" lon="8.5491110">
        <ele>251.0</ele>
        <time>2022-06-07T09:17:27Z</time>
      </trkpt>
      <trkpt lat="47.9388310" lon="8.5492250">
        <ele>251.8</ele>
        <time>2022-06-07T09:17:31Z</time>
      </trkpt>
      <trkpt lat="47.9388100" lon="8.5493580">
        <ele>252.2</ele>
        <time>2022-06-07T09:17:35Z</time>
      </trkpt>
      <trkpt lat="47.9388530" lon="8.5495430">
        <ele>252.2</ele>
        <time>2022-06-07T09:17:39Z</time>
      </trkpt>
      <trkpt lat="47.9388930" lon="8.5497180">
        <ele>252.4</ele>
        <time>2022-06-07T09:17:43Z</time>
      </trkpt>
      <trkpt lat="47.9389100" lon="8.5498700">
        <ele>252.2</ele>
        <time>2022-06-07T09:17:47Z</time>
      </trkpt>
      <trkpt lat="47.9389260" lon="8.5499800">
        <ele>252.8</ele>
        <time>2022-06-07T09:17:51Z</time>
      </trkpt>
      <trkpt lat="47.9389260" lon="8.5499800">
        <ele>253.2</ele>
        <time>2022-06-07T09:17:55Z</time>
      </trkpt>
      <trkpt lat="47.9389260" lon="8.5499800">
        <ele>253.2</ele>
        <time>2022-06-07T09:17:59Z</time>
      </trkpt>
      <trkpt lat="47.9389260" lon="8.5499800">
        <ele>252.8</ele>
        <time>2022-06-07T09:18:03Z</time>
      </trkpt>
      <trkpt lat="47.9389260" lon="8.5499800">
        <ele>253.0</ele>
        <time>2022-06-07T09:18:07Z</time>
      </trkpt>
      <trkpt lat="47.9389260" lon="8.5499800">
        <ele>253.2</ele>
        <time>2022-06-07T09:18:11Z</time>
      </trkpt>
      <trkpt lat="47.9389260" lon="8.5499800">
        <ele>253.0</ele>
        <time>2022-06-07T09:18:15Z</time>
      </trkpt>
      <trkpt lat="47.9389260" lon="8.5499800">
        <ele>253.0</ele>
        <time>2022-06-07T09:18:19Z</time>
      </trkpt>
      <trkpt lat="47.9389260" lon="8.5499800">
        <ele>253.0</ele>
        <time>2022-06-07T09:18:23Z</time>
      </trkpt>
      <trkpt lat="47.9389260" lon="8.5499800">
        <ele>253.0</ele>
        <time>2022-06-07T09:18:27Z</time>
      </trkpt>
      <trkpt lat="47.9389260" lon="8.5499800">
        <ele>253.2</ele>
        <time>2022-06-07T09:18:31Z</time>
      </trkpt>
      <trkpt lat="47.9389260" lon="8.5499800">
        <ele>252.8</ele>
        <time>2022-06-07T09:18:35Z</time>
      </trkpt>
      <trkpt lat="47.9389260" lon="8.5499800">
        <ele>252.8</ele>
        <time>2022-06-07T09:18:39Z</time>
      </trkpt>
      <trkpt lat="47.9389260" lon="8.5499800">
        <ele>253.0</ele>
        <time>2022-06-07T09:18:43Z</time>
      </trkpt>
      <trkpt lat="47.9389260" lon="8.5499800">
        <ele>253.0</ele>
        <time>2022-06-07T09:18:47Z</time>
      </trkpt>
      <trkpt lat="47.9389260" lon="8.5499800">
        <ele>253.4</ele>
        <time>2022-06-07T09:18:51Z</time>
      </trkpt>
      <trkpt lat="47.9389210" lon="8.5500510">
        <ele>253.4</ele>
        <time>2022-06-07T09:18:55Z</time>
      </trkpt>
      <trkpt lat="47.9389210" lon="8.5500510">
        <ele>253.2</ele>
        <time>2022-06-07T09:18:59Z</time>
      </trkpt>
      <trkpt lat="47.9389210" lon="8.5500510">
        <ele>253.0</ele>
        <time>2022-06-07T09:19:03Z</time>
      </trkpt>
      <trkpt lat="47.9389210" lon="8.5500510">
        <ele>253.4</ele>
        <time>2022-06-07T09:19:07Z</time>
      </trkpt>
      <trkpt lat="47.9389210" lon="8.5500510">
        <ele>253.6</ele>
        <time>2022-06-07T09:19:11Z</time>
      </trkpt>
      <trkpt lat="47.9389210" lon="8.5500510">
        <ele>252.8</ele>
        <time>2022-06-07T09:19:15Z</time>
      </trkpt>
      <trkpt lat="47.9389210" lon="8.5500510">
        <ele>253.2</ele>
        <time>2022-06-07T09:19:19Z</time>
      </trkpt>
      <trkpt lat="47.9389210" lon="8.5500510">
        <ele>253.2</ele>
        <time>2022-06-07T09:19:23Z</time>
      </trkpt>
      <trkpt lat="47.9389210" lon="8.5500510">
        <ele>252.8</ele>
        <time>2022-06-07T09:19:27Z</time>
      </trkpt>
      <trkpt lat="47.9389210" lon="8.5500510">
        <ele>253.0</ele>
        <time>2022-06-07T09:19:31Z</time>
      </trkpt>
      <trkpt lat="47.9389210" lon="8.5500510">
        <ele>253.0</ele>
        <time>2022-06-07T09:19:35Z</time>
      </trkpt>
      <trkpt lat="47.9389210" lon="8.5500510">
        <ele>253.0</ele>
        <time>2022-06-07T09:19:39Z</time>
      </trkpt>
      <trkpt lat="47.9389210" lon="8.5500510">
        <ele>253.4</ele>
        <time>2022-06-07T09:19:43Z</time>
      </trkpt>
      <trkpt lat="47.9389210" lon="8.5500510">
        <ele>253.0</ele>
        <time>2022-06-07T09:19:47Z</time>
      </trkpt>
      <trkpt lat="47.9389210" lon="8.5500510">
        <ele>253.2</ele>
        <time>2022-06-07T09:19:51Z</time>
      </trkpt>
      <trkpt lat="47.9389210" lon="8.5500510">
        <ele>253.4</ele>
        <time>2022-06-07T09:19:55Z</time>
      </trkpt>
      <trkpt lat="47.9389210" lon="8.5500510">
        <ele>253.0</ele>
        <time>2022-06-07T09:19:59Z</time>
      </trkpt>
      <trkpt lat="47.9389210" lon="8.5500510">
        <ele>253.0</ele>
        <time>2022-06-07T09:20:03Z</time>
      </trkpt>
      <trkpt lat="47.9389210" lon="8.5500510">
        <ele>253.0</ele>
        <time>2022-06-07T09:20:07Z</time>
      </trkpt>
      <trkpt lat="47.9389210" lon="8.5500510">
        <ele>253.4</ele>
        <time>2022-06-07T09:20:11Z</time>
      </trkpt>
      <trkpt lat="47.9389460" lon="8.5500700">
        <ele>253.0</ele>
        <time>2022-06-07T09:20:15Z</time>
      </trkpt>
      <trkpt lat="47.9389600" lon="8.5501280">
        <ele>253.4</ele>
        <time>2022-06-07T09:20:19Z</time>
      </trkpt>
      <trkpt lat="47.9389860" lon="8.5502680">
        <ele>253.4</ele>
        <time>2022-06-07T09:20:23Z</time>
      </trkpt>
      <trkpt lat="47.9390300" lon="8.5504750">
        <ele>252.4</ele>
        <time>2022-06-07T09:20:27Z</time>
      </trkpt>
      <trkpt lat="47.9390730" lon="8.5507180">
        <ele>252.2</ele>
        <time>2022-06-07T09:20:31Z</time>
      </trkpt>
      <trkpt lat="47.9391010" lon="8.5510180">
        <ele>251.4</ele>
        <time>2022-06-07T09:20:35Z</time>
      </trkpt>
      <trkpt lat="47.9391060" lon="8.5513110">
        <ele>251.4</ele>
        <time>2022-06-07T09:20:39Z</time>
      </trkpt>
      <trkpt lat="47.9391050" lon="8.5515830">
        <ele>252.2</ele>
        <time>2022-06-07T09:20:43Z</time>
      </trkpt>
      <trkpt lat="47.9391080" lon="8.5518450">
        <ele>252.4</ele>
        <time>2022-06-07T09:20:47Z</time>
      </trkpt>
      <trkpt lat="47.9391060" lon="8.5520930">
        <ele>252.4</ele>
        <time>2022-06-07T09:20:51Z</time>
      </trkpt>
      <trkpt lat="47.9391150" lon="8.5523250">
        <ele>252.2</ele>
        <time>2022-06-07T09:20:55Z</time>
      </trkpt>
      <trkpt lat="47.9390760" lon="8.5525210">
        <ele>251.8</ele>
        <time>2022-06-07T09:20:59Z</time>
      </trkpt>
      <trkpt lat="47.9389230" lon="8.5526050">
        <ele>250.8</ele>
        <time>2022-06-07T09:21:03Z</time>
      </trkpt>
      <trkpt lat="47.9387310" lon="8.5526760">
        <ele>250.0</ele>
        <time>2022-06-07T09:21:07Z</time>
      </trkpt>
      <trkpt lat="47.9385360" lon="8.5527580">
        <ele>250.4</ele>
        <time>2022-06-07T09:21:11Z</time>
      </trkpt>
      <trkpt lat="47.9383550" lon="8.5528610">
        <ele>250.8</ele>
        <time>2022-06-07T09:21:15Z</time>
      </trkpt>
      <trkpt lat="47.9381960" lon="8.5530260">
        <ele>251.2</ele>
        <time>2022-06-07T09:21:19Z</time>
      </trkpt>
      <trkpt lat="47.9380360" lon="8.5532000">
        <ele>250.6</ele>
        <time>2022-06-07T09:21:23Z</time>
      </trkpt>
      <trkpt lat="47.9378750" lon="8.5533630">
        <ele>251.4</ele>
        <time>2022-06-07T09:21:27Z</time>
      </trkpt>
      <trkpt lat="47.9377230" lon="8.5535180">
        <ele>252.2</ele>
        <time>2022-06-07T09:21:31Z</time>
      </trkpt>
      <trkpt lat="47.9375750" lon="8.5536630">
        <ele>252.8</ele>
        <time>2022-06-07T09:21:35Z</time>
      </trkpt>
      <trkpt lat="47.9374230" lon="8.5537710">
        <ele>253.2</ele>
        <time>2022-06-07T09:21:39Z</time>
      </trkpt>
      <trkpt lat="47.9372910" lon="8.5538630">
        <ele>254.4</ele>
        <time>2022-06-07T09:21:43Z</time>
      </trkpt>
      <trkpt lat="47.9371450" lon="8.5539500">
        <ele>255.2</ele>
        <time>2022-06-07T09:21:47Z</time>
      </trkpt>
      <trkpt lat="47.9369980" lon="8.5540250">
        <ele>255.2</ele>
        <time>2022-06-07T09:21:51Z</time>
      </trkpt>
      <trkpt lat="47.9368450" lon="8.5540860">
        <ele>255.4</ele>
        <time>2022-06-07T09:21:55Z</time>
      </trkpt>
      <trkpt lat="47.9366810" lon="8.5541330">
        <ele>255.6</ele>
        <time>2022-06-07T09:21:59Z</time>
      </trkpt>
      <trkpt lat="47.9365210" lon="8.5541450">
        <ele>255.4</ele>
        <time>2022-06-07T09:22:03Z</time>
      </trkpt>
      <trkpt lat="47.9363580" lon="8.5541630">
        <ele>256.4</ele>
        <time>2022-06-07T09:22:07Z</time>
      </trkpt>
      <trkpt lat="47.9362050" lon="8.5541660">
        <ele>257.0</ele>
        <time>2022-06-07T09:22:11Z</time>
      </trkpt>
      <trkpt lat="47.9360610" lon="8.5541660">
        <ele>257.2</ele>
        <time>2022-06-07T09:22:15Z</time>
      </trkpt>
      <trkpt lat="47.9359150" lon="8.5541760">
        <ele>258.0</ele>
        <time>2022-06-07T09:22:19Z</time>
      </trkpt>
      <trkpt lat="47.9357710" lon="8.5541450">
        <ele>258.6</ele>
        <time>2022-06-07T09:22:23Z</time>
      </trkpt>
      <trkpt lat="47.9356310" lon="8.5540800">
        <ele>259.2</ele>
        <time>2022-06-07T09:22:27Z</time>
      </trkpt>
      <trkpt lat="47.9354910" lon="8.5540660">
        <ele>259.6</ele>
        <time>2022-06-07T09:22:31Z</time>
      </trkpt>
      <trkpt lat="47.9353580" lon="8.5540730">
        <ele>260.4</ele>
        <time>2022-06-07T09:22:35Z</time>
      </trkpt>
      <trkpt lat="47.9352180" lon="8.5540900">
        <ele>261.2</ele>
        <time>2022-06-07T09:22:39Z</time>
      </trkpt>
      <trkpt lat="47.9350850" lon="8.5541000">
        <ele>262.0</ele>
        <time>2022-06-07T09:22:43Z</time>
      </trkpt>
      <trkpt lat="47.9349560" lon="8.5541310">
        <ele>262.8</ele>
        <time>2022-06-07T09:22:47Z</time>
      </trkpt>
      <trkpt lat="47.9348350" lon="8.5541880">
        <ele>262.0</ele>
        <time>2022-06-07T09:22:51Z</time>
      </trkpt>
      <trkpt lat="47.9347210" lon="8.5542400">
        <ele>264.0</ele>
        <time>2022-06-07T09:22:55Z</time>
      </trkpt>
      <trkpt lat="47.9346230" lon="8.5542360">
        <ele>263.6</ele>
        <time>2022-06-07T09:22:59Z</time>
      </trkpt>
      <trkpt lat="47.9345750" lon="8.5540480">
        <ele>261.2</ele>
        <time>2022-06-07T09:23:03Z</time>
      </trkpt>
      <trkpt lat="47.9345230" lon="8.5537000">
        <ele>257.0</ele>
        <time>2022-06-07T09:23:07Z</time>
      </trkpt>
      <trkpt lat="47.9344650" lon="8.5532350">
        <ele>253.4</ele>
        <time>2022-06-07T09:23:11Z</time>
      </trkpt>
      <trkpt lat="47.9342930" lon="8.5527260">
        <ele>254.6</ele>
        <time>2022-06-07T09:23:15Z</time>
      </trkpt>
      <trkpt lat="47.9339950" lon="8.5523860">
        <ele>253.8</ele>
        <time>2022-06-07T09:23:19Z</time>
      </trkpt>
      <trkpt lat="47.9336410" lon="8.5522700">
        <ele>251.8</ele>
        <time>2022-06-07T09:23:23Z</time>
      </trkpt>
      <trkpt lat="47.9333080" lon="8.5521910">
        <ele>250.4</ele>
        <time>2022-06-07T09:23:27Z</time>
      </trkpt>
      <trkpt lat="47.9329910" lon="8.5521250">
        <ele>250.4</ele>
        <time>2022-06-07T09:23:31Z</time>
      </trkpt>
      <trkpt lat="47.9327050" lon="8.5522450">
        <ele>250.0</ele>
        <time>2022-06-07T09:23:35Z</time>
      </trkpt>
      <trkpt lat="47.9324730" lon="8.5524700">
        <ele>249.6</ele>
        <time>2022-06-07T09:23:39Z</time>
      </trkpt>
      <trkpt lat="47.9322610" lon="8.5526860">
        <ele>250.4</ele>
        <time>2022-06-07T09:23:43Z</time>
      </trkpt>
      <trkpt lat="47.9320360" lon="8.5528380">
        <ele>250.4</ele>
        <time>2022-06-07T09:23:47Z</time>
      </trkpt>
      <trkpt lat="47.9318050" lon="8.5529350">
        <ele>250.0</ele>
        <time>2022-06-07T09:23:51Z</time>
      </trkpt>
      <trkpt lat="47.9315800" lon="8.5530530">
        <ele>250.4</ele>
        <time>2022-06-07T09:23:55Z</time>
      </trkpt>
      <trkpt lat="47.9313710" lon="8.5532000">
        <ele>250.4</ele>
        <time>2022-06-07T09:23:59Z</time>
      </trkpt>
      <trkpt lat="47.9311800" lon="8.5533700">
        <ele>249.8</ele>
        <time>2022-06-07T09:24:03Z</time>
      </trkpt>
      <trkpt lat="47.9309930" lon="8.5535530">
        <ele>250.4</ele>
        <time>2022-06-07T09:24:07Z</time>
      </trkpt>
      <trkpt lat="47.9308300" lon="8.5537660">
        <ele>250.4</ele>
        <time>2022-06-07T09:24:11Z</time>
      </trkpt>
      <trkpt lat="47.9306910" lon="8.5539860">
        <ele>250.0</ele>
        <time>2022-06-07T09:24:15Z</time>
      </trkpt>
      <trkpt lat="47.9305610" lon="8.5541860">
        <ele>250.4</ele>
        <time>2022-06-07T09:24:19Z</time>
      </trkpt>
      <trkpt lat="47.9304210" lon="8.5543500">
        <ele>252.0</ele>
        <time>2022-06-07T09:24:23Z</time>
      </trkpt>
      <trkpt lat="47.9302710" lon="8.5544750">
        <ele>252.4</ele>
        <time>2022-06-07T09:24:27Z</time>
      </trkpt>
      <trkpt lat="47.9301310" lon="8.5545710">
        <ele>253.2</ele>
        <time>2022-06-07T09:24:31Z</time>
      </trkpt>
      <trkpt lat="47.9299830" lon="8.5546660">
        <ele>253.0</ele>
        <time>2022-06-07T09:24:35Z</time>
      </trkpt>
      <trkpt lat="47.9298210" lon="8.5547550">
        <ele>252.4</ele>
        <time>2022-06-07T09:24:39Z</time>
      </trkpt>
      <trkpt lat="47.9296460" lon="8.5548500">
        <ele>251.4</ele>
        <time>2022-06-07T09:24:43Z</time>
      </trkpt>
      <trkpt lat="47.9294610" lon="8.5549500">
        <ele>252.2</ele>
        <time>2022-06-07T09:24:47Z</time>
      </trkpt>
      <trkpt lat="47.9292760" lon="8.5550530">
        <ele>252.2</ele>
        <time>2022-06-07T09:24:51Z</time>
      </trkpt>
      <trkpt lat="47.9290780" lon="8.5551650">
        <ele>250.6</ele>
        <time>2022-06-07T09:24:55Z</time>
      </trkpt>
      <trkpt lat="47.9288700" lon="8.5552930">
        <ele>250.2</ele>
        <time>2022-06-07T09:24:59Z</time>
      </trkpt>
      <trkpt lat="47.9286450" lon="8.5554450">
        <ele>249.6</ele>
        <time>2022-06-07T09:25:03Z</time>
      </trkpt>
      <trkpt lat="47.9284250" lon="8.5556160">
        <ele>249.2</ele>
        <time>2022-06-07T09:25:07Z</time>
      </trkpt>
      <trkpt lat="47.9282180" lon="8.5557960">
        <ele>249.6</ele>
        <time>2022-06-07T09:25:11Z</time>
      </trkpt>
      <trkpt lat="47.9280250" lon="8.5559760">
        <ele>249.6</ele>
        <time>2022-06-07T09:25:15Z</time>
      </trkpt>
      <trkpt lat="47.9278410" lon="8.5561410">
        <ele>250.0</ele>
        <time>2022-06-07T09:25:19Z</time>
      </trkpt>
      <trkpt lat="47.9276730" lon="8.5562850">
        <ele>250.0</ele>
        <time>2022-06-07T09:25:23Z</time>
      </trkpt>
      <trkpt lat="47.9275160" lon="8.5564110">
        <ele>249.8</ele>
        <time>2022-06-07T09:25:27Z</time>
      </trkpt>
      <trkpt lat="47.9273530" lon="8.5565430">
        <ele>250.2</ele>
        <time>2022-06-07T09:25:31Z</time>
      </trkpt>
      <trkpt lat="47.9271910" lon="8.5566710">
        <ele>250.2</ele>
        <time>2022-06-07T09:25:35Z</time>
      </trkpt>
      <trkpt lat="47.9270260" lon="8.5568030">
        <ele>249.8</ele>
        <time>2022-06-07T09:25:39Z</time>
      </trkpt>
      <trkpt lat="47.9268460" lon="8.5569400">
        <ele>249.8</ele>
        <time>2022-06-07T09:25:43Z</time>
      </trkpt>
      <trkpt lat="47.9266610" lon="8.5570710">
        <ele>249.4</ele>
        <time>2022-06-07T09:25:47Z</time>
      </trkpt>
      <trkpt lat="47.9264730" lon="8.5572010">
        <ele>249.6</ele>
        <time>2022-06-07T09:25:51Z</time>
      </trkpt>
      <trkpt lat="47.9262950" lon="8.5573150">
        <ele>249.6</ele>
        <time>2022-06-07T09:25:55Z</time>
      </trkpt>
      <trkpt lat="47.9261080" lon="8.5574210">
        <ele>249.8</ele>
        <time>2022-06-07T09:25:59Z</time>
      </trkpt>
      <trkpt lat="47.9259350" lon="8.5574880">
        <ele>249.6</ele>
        <time>2022-06-07T09:26:03Z</time>
      </trkpt>
      <trkpt lat="47.9257780" lon="8.5575950">
        <ele>249.6</ele>
        <time>2022-06-07T09:26:07Z</time>
      </trkpt>
      <trkpt lat="47.9257330" lon="8.5578280">
        <ele>250.0</ele>
        <time>2022-06-07T09:26:11Z</time>
      </trkpt>
      <trkpt lat="47.9257260" lon="8.5580980">
        <ele>249.6</ele>
        <time>2022-06-07T09:26:15Z</time>
      </trkpt>
      <trkpt lat="47.9257180" lon="8.5583800">
        <ele>249.8</ele>
        <time>2022-06-07T09:26:19Z</time>
      </trkpt>
      <trkpt lat="47.9257210" lon="8.5586680">
        <ele>249.6</ele>
        <time>2022-06-07T09:26:23Z</time>
      </trkpt>
      <trkpt lat="47.9257160" lon="8.5589560">
        <ele>250.0</ele>
        <time>2022-06-07T09:26:27Z</time>
      </trkpt>
      <trkpt lat="47.9257130" lon="8.5592380">
        <ele>249.4</ele>
        <time>2022-06-07T09:26:31Z</time>
      </trkpt>
      <trkpt lat="47.9257130" lon="8.5595060">
        <ele>250.2</ele>
        <time>2022-06-07T09:26:35Z</time>
      </trkpt>
      <trkpt lat="47.9257150" lon="8.5597750">
        <ele>249.8</ele>
        <time>2022-06-07T09:26:39Z</time>
      </trkpt>
      <trkpt lat="47.9257150" lon="8.5600460">
        <ele>249.8</ele>
        <time>2022-06-07T09:26:43Z</time>
      </trkpt>
      <trkpt lat="47.9257200" lon="8.5602930">
        <ele>250.6</ele>
        <time>2022-06-07T09:26:47Z</time>
      </trkpt>
      <trkpt lat="47.9257250" lon="8.5605060">
        <ele>252.2</ele>
        <time>2022-06-07T09:26:51Z</time>
      </trkpt>
      <trkpt lat="47.9257330" lon="8.5607150">
        <ele>252.4</ele>
        <time>2022-06-07T09:26:55Z</time>
      </trkpt>
      <trkpt lat="47.9257350" lon="8.5609180">
        <ele>253.6</ele>
        <time>2022-06-07T09:26:59Z</time>
      </trkpt>
      <trkpt lat="47.9257430" lon="8.5610930">
        <ele>254.8</ele>
        <time>2022-06-07T09:27:03Z</time>
      </trkpt>
      <trkpt lat="47.9257510" lon="8.5612580">
        <ele>255.4</ele>
        <time>2022-06-07T09:27:07Z</time>
      </trkpt>
      <trkpt lat="47.9257560" lon="8.5614330">
        <ele>256.4</ele>
        <time>2022-06-07T09:27:11Z</time>
      </trkpt>
      <trkpt lat="47.9257680" lon="8.5615980">
        <ele>256.8</ele>
        <time>2022-06-07T09:27:15Z</time>
      </trkpt>
      <trkpt lat="47.9257760" lon="8.5617630">
        <ele>257.2</ele>
        <time>2022-06-07T09:27:19Z</time>
      </trkpt>
      <trkpt lat="47.9257830" lon="8.5619350">
        <ele>257.6</ele>
        <time>2022-06-07T09:27:23Z</time>
      </trkpt>
      <trkpt lat="47.9257950" lon="8.5621050">
        <ele>258.4</ele>
        <time>2022-06-07T09:27:27Z</time>
      </trkpt>
      <trkpt lat="47.9258080" lon="8.5622780">
        <ele>258.6</ele>
        <time>2022-06-07T09:27:31Z</time>
      </trkpt>
      <trkpt lat="47.9258180" lon="8.5624580">
        <ele>258.6</ele>
        <time>2022-06-07T09:27:35Z</time>
      </trkpt>
      <trkpt lat="47.9258260" lon="8.5626600">
        <ele>258.4</ele>
        <time>2022-06-07T09:27:39Z</time>
      </trkpt>
      <trkpt lat="47.9258400" lon="8.5628710">
        <ele>259.0</ele>
        <time>2022-06-07T09:27:43Z</time>
      </trkpt>
      <trkpt lat="47.9258650" lon="8.5630880">
        <ele>259.0</ele>
        <time>2022-06-07T09:27:47Z</time>
      </trkpt>
      <trkpt lat="47.9258710" lon="8.5633050">
        <ele>259.0</ele>
        <time>2022-06-07T09:27:51Z</time>
      </trkpt>
      <trkpt lat="47.9258880" lon="8.5635200">
        <ele>258.4</ele>
        <time>2022-06-07T09:27:55Z</time>
      </trkpt>
      <trkpt lat="47.9259010" lon="8.5637280">
        <ele>259.6</ele>
        <time>2022-06-07T09:27:59Z</time>
      </trkpt>
      <trkpt lat="47.9259230" lon="8.5639450">
        <ele>259.2</ele>
        <time>2022-06-07T09:28:03Z</time>
      </trkpt>
      <trkpt lat="47.9259400" lon="8.5641700">
        <ele>258.2</ele>
        <time>2022-06-07T09:28:07Z</time>
      </trkpt>
      <trkpt lat="47.9259630" lon="8.5643980">
        <ele>258.6</ele>
        <time>2022-06-07T09:28:11Z</time>
      </trkpt>
      <trkpt lat="47.9259050" lon="8.5646080">
        <ele>258.0</ele>
        <time>2022-06-07T09:28:15Z</time>
      </trkpt>
      <trkpt lat="47.9257500" lon="8.5647250">
        <ele>257.6</ele>
        <time>2022-06-07T09:28:19Z</time>
      </trkpt>
      <trkpt lat="47.9255880" lon="8.5648550">
        <ele>257.0</ele>
        <time>2022-06-07T09:28:23Z</time>
      </trkpt>
      <trkpt lat="47.9254200" lon="8.5649930">
        <ele>255.4</ele>
        <time>2022-06-07T09:28:27Z</time>
      </trkpt>
      <trkpt lat="47.9252230" lon="8.5651530">
        <ele>254.6</ele>
        <time>2022-06-07T09:28:31Z</time>
      </trkpt>
      <trkpt lat="47.9249860" lon="8.5653410">
        <ele>252.2</ele>
        <time>2022-06-07T09:28:35Z</time>
      </trkpt>
      <trkpt lat="47.9247330" lon="8.5655310">
        <ele>252.0</ele>
        <time>2022-06-07T09:28:39Z</time>
      </trkpt>
      <trkpt lat="47.9244780" lon="8.5657350">
        <ele>251.0</ele>
        <time>2022-06-07T09:28:43Z</time>
      </trkpt>
      <trkpt lat="47.9242010" lon="8.5659560">
        <ele>249.4</ele>
        <time>2022-06-07T09:28:47Z</time>
      </trkpt>
      <trkpt lat="47.9239210" lon="8.5661880">
        <ele>249.2</ele>
        <time>2022-06-07T09:28:51Z</time>
      </trkpt>
      <trkpt lat="47.9236450" lon="8.5663460">
        <ele>249.0</ele>
        <time>2022-06-07T09:28:55Z</time>
      </trkpt>
      <trkpt lat="47.9233780" lon="8.5664100">
        <ele>248.8</ele>
        <time>2022-06-07T09:28:59Z</time>
      </trkpt>
      <trkpt lat="47.9231230" lon="8.5664600">
        <ele>249.4</ele>
        <time>2022-06-07T09:29:03Z</time>
      </trkpt>
      <trkpt lat="47.9228800" lon="8.5665060">
        <ele>249.2</ele>
        <time>2022-06-07T09:29:07Z</time>
      </trkpt>
      <trkpt lat="47.9226450" lon="8.5665500">
        <ele>249.2</ele>
        <time>2022-06-07T09:29:11Z</time>
      </trkpt>
      <trkpt lat="47.9224180" lon="8.5665960">
        <ele>249.6</ele>
        <time>2022-06-07T09:29:15Z</time>
      </trkpt>
      <trkpt lat="47.9221950" lon="8.5666810">
        <ele>249.0</ele>
        <time>2022-06-07T09:29:19Z</time>
      </trkpt>
      <trkpt lat="47.9220080" lon="8.5668780">
        <ele>248.6</ele>
        <time>2022-06-07T09:29:23Z</time>
      </trkpt>
      <trkpt lat="47.9218600" lon="8.5671060">
        <ele>248.2</ele>
        <time>2022-06-07T09:29:27Z</time>
      </trkpt>
      <trkpt lat="47.9217000" lon="8.5672930">
        <ele>248.4</ele>
        <time>2022-06-07T09:29:31Z</time>
      </trkpt>
      <trkpt lat="47.9215350" lon="8.5674750">
        <ele>248.2</ele>
        <time>2022-06-07T09:29:35Z</time>
      </trkpt>
      <trkpt lat="47.9213810" lon="8.5676700">
        <ele>248.8</ele>
        <time>2022-06-07T09:29:39Z</time>
      </trkpt>
      <trkpt lat="47.9212350" lon="8.5678560">
        <ele>248.6</ele>
        <time>2022-06-07T09:29:43Z</time>
      </trkpt>
      <trkpt lat="47.9210880" lon="8.5680410">
        <ele>249.0</ele>
        <time>2022-06-07T09:29:47Z</time>
      </trkpt>
      <trkpt lat="47.9209380" lon="8.5682080">
        <ele>249.2</ele>
        <time>2022-06-07T09:29:51Z</time>
      </trkpt>
      <trkpt lat="47.9207750" lon="8.5683530">
        <ele>249.2</ele>
        <time>2022-06-07T09:29:55Z</time>
      </trkpt>
      <trkpt lat="47.9205960" lon="8.5684650">
        <ele>248.8</ele>
        <time>2022-06-07T09:29:59Z</time>
      </trkpt>
      <trkpt lat="47.9204110" lon="8.5685310">
        <ele>249.0</ele>
        <time>2022-06-07T09:30:03Z</time>
      </trkpt>
      <trkpt lat="47.9202180" lon="8.5685800">
        <ele>248.8</ele>
        <time>2022-06-07T09:30:07Z</time>
      </trkpt>
      <trkpt lat="47.9200260" lon="8.5686000">
        <ele>248.8</ele>
        <time>2022-06-07T09:30:11Z</time>
      </trkpt>
      <trkpt lat="47.9198410" lon="8.5686700">
        <ele>248.4</ele>
        <time>2022-06-07T09:30:15Z</time>
      </trkpt>
      <trkpt lat="47.9196750" lon="8.5688150">
        <ele>248.4</ele>
        <time>2022-06-07T09:30:19Z</time>
      </trkpt>
      <trkpt lat="47.9195180" lon="8.5689900">
        <ele>248.6</ele>
        <time>2022-06-07T09:30:23Z</time>
      </trkpt>
      <trkpt lat="47.9193600" lon="8.5691700">
        <ele>248.8</ele>
        <time>2022-06-07T09:30:27Z</time>
      </trkpt>
      <trkpt lat="47.9192010" lon="8.5693460">
        <ele>248.2</ele>
        <time>2022-06-07T09:30:31Z</time>
      </trkpt>
      <trkpt lat="47.9190460" lon="8.5695250">
        <ele>248.0</ele>
        <time>2022-06-07T09:30:35Z</time>
      </trkpt>
      <trkpt lat="47.9188930" lon="8.5696980">
        <ele>248.2</ele>
        <time>2022-06-07T09:30:39Z</time>
      </trkpt>
      <trkpt lat="47.9187400" lon="8.5698800">
        <ele>248.2</ele>
        <time>2022-06-07T09:30:43Z</time>
      </trkpt>
      <trkpt lat="47.9185850" lon="8.5700650">
        <ele>248.0</ele>
        <time>2022-06-07T09:30:47Z</time>
      </trkpt>
      <trkpt lat="47.9184330" lon="8.5702460">
        <ele>247.8</ele>
        <time>2022-06-07T09:30:51Z</time>
      </trkpt>
      <trkpt lat="47.9182800" lon="8.5704260">
        <ele>247.6</ele>
        <time>2022-06-07T09:30:55Z</time>
      </trkpt>
      <trkpt lat="47.9181310" lon="8.5706080">
        <ele>248.0</ele>
        <time>2022-06-07T09:30:59Z</time>
      </trkpt>
      <trkpt lat="47.9179850" lon="8.5707900">
        <ele>248.0</ele>
        <time>2022-06-07T09:31:03Z</time>
      </trkpt>
      <trkpt lat="47.9178410" lon="8.5709860">
        <ele>247.8</ele>
        <time>2022-06-07T09:31:07Z</time>
      </trkpt>
      <trkpt lat="47.9177100" lon="8.5712060">
        <ele>247.0</ele>
        <time>2022-06-07T09:31:11Z</time>
      </trkpt>
      <trkpt lat="47.9175910" lon="8.5714150">
        <ele>247.6</ele>
        <time>2022-06-07T09:31:15Z</time>
      </trkpt>
      <trkpt lat="47.9174630" lon="8.5714900">
        <ele>248.0</ele>
        <time>2022-06-07T09:31:19Z</time>
      </trkpt>
      <trkpt lat="47.9173760" lon="8.5715500">
        <ele>248.0</ele>
        <time>2022-06-07T09:31:23Z</time>
      </trkpt>
      <trkpt lat="47.9173400" lon="8.5715830">
        <ele>247.8</ele>
        <time>2022-06-07T09:31:27Z</time>
      </trkpt>
      <trkpt lat="47.9173400" lon="8.5715830">
        <ele>247.6</ele>
        <time>2022-06-07T09:31:31Z</time>
      </trkpt>
      <trkpt lat="47.9173360" lon="8.5715910">
        <ele>247.6</ele>
        <time>2022-06-07T09:31:35Z</time>
      </trkpt>
      <trkpt lat="47.9173360" lon="8.5715910">
        <ele>247.4</ele>
        <time>2022-06-07T09:31:39Z</time>
      </trkpt>
      <trkpt lat="47.9173360" lon="8.5715910">
        <ele>247.6</ele>
        <time>2022-06-07T09:31:43Z</time>
      </trkpt>
      <trkpt lat="47.9173360" lon="8.5715910">
        <ele>247.4</ele>
        <time>2022-06-07T09:31:47Z</time>
      </trkpt>
      <trkpt lat="47.9173360" lon="8.5715910">
        <ele>247.2</ele>
        <time>2022-06-07T09:31:51Z</time>
      </trkpt>
      <trkpt lat="47.9173360" lon="8.5715910">
        <ele>247.2</ele>
        <time>2022-06-07T09:31:55Z</time>
      </trkpt>
      <trkpt lat="47.9173360" lon="8.5715910">
        <ele>248.0</ele>
        <time>2022-06-07T09:31:59Z</time>
      </trkpt>
      <trkpt lat="47.9173360" lon="8.5715910">
        <ele>247.8</ele>
        <time>2022-06-07T09:32:03Z</time>
      </trkpt>
      <trkpt lat="47.9173360" lon="8.5715910">
        <ele>247.8</ele>
        <time>2022-06-07T09:32:07Z</time>
      </trkpt>
      <trkpt lat="47.9173360" lon="8.5715910">
        <ele>248.0</ele>
        <time>2022-06-07T09:32:11Z</time>
      </trkpt>
      <trkpt lat="47.9173360" lon="8.5715910">
        <ele>247.8</ele>
        <time>2022-06-07T09:32:15Z</time>
      </trkpt>
      <trkpt lat="47.9173400" lon="8.5716050">
        <ele>248.0</ele>
        <time>2022-06-07T09:32:19Z</time>
      </trkpt>
      <trkpt lat="47.9173500" lon="8.5716310">
        <ele>248.0</ele>
        <time>2022-06-07T09:32:23Z</time>
      </trkpt>
      <trkpt lat="47.9173350" lon="8.5717200">
        <ele>247.6</ele>
        <time>2022-06-07T09:32:27Z</time>
      </trkpt>
      <trkpt lat="47.9172610" lon="8.5718410">
        <ele>247.4</ele>
        <time>2022-06-07T09:32:31Z</time>
      </trkpt>
      <trkpt lat="47.9171460" lon="8.5719480">
        <ele>248.0</ele>
        <time>2022-06-07T09:32:35Z</time>
      </trkpt>
      <trkpt lat="47.9170160" lon="8.5720730">
        <ele>248.0</ele>
        <time>2022-06-07T09:32:39Z</time>
      </trkpt>
      <trkpt lat="47.9168900" lon="8.5722460">
        <ele>247.6</ele>
        <time>2022-06-07T09:32:43Z</time>
      </trkpt>
      <trkpt lat="47.9167680" lon="8.5724350">
        <ele>247.4</ele>
        <time>2022-06-07T09:32:47Z</time>
      </trkpt>
      <trkpt lat="47.9166330" lon="8.5725900">
        <ele>247.6</ele>
        <time>2022-06-07T09:32:51Z</time>
      </trkpt>
      <trkpt lat="47.9165050" lon="8.5727210">
        <ele>247.8</ele>
        <time>2022-06-07T09:32:55Z</time>
      </trkpt>
      <trkpt lat="47.9164200" lon="8.5728900">
        <ele>247.6</ele>
        <time>2022-06-07T09:32:59Z</time>
      </trkpt>
      <trkpt lat="47.9163530" lon="8.5730600">
        <ele>248.0</ele>
        <time>2022-06-07T09:33:03Z</time>
      </trkpt>
      <trkpt lat="47.9162780" lon="8.5732310">
        <ele>248.0</ele>
        <time>2022-06-07T09:33:07Z</time>
      </trkpt>
      <trkpt lat="47.9162110" lon="8.5733900">
        <ele>248.2</ele>
        <time>2022-06-07T09:33:11Z</time>
      </trkpt>
      <trkpt lat="47.9162230" lon="8.5736110">
        <ele>248.0</ele>
        <time>2022-06-07T09:33:15Z</time>
      </trkpt>
      <trkpt lat="47.9162610" lon="8.5738450">
        <ele>248.0</ele>
        <time>2022-06-07T09:33:19Z</time>
      </trkpt>
      <trkpt lat="47.9163050" lon="8.5740780">
        <ele>248.2</ele>
        <time>2022-06-07T09:33:23Z</time>
      </trkpt>
      <trkpt lat="47.9163510" lon="8.5743280">
        <ele>247.8</ele>
        <time>2022-06-07T09:33:27Z</time>
      </trkpt>
      <trkpt lat="47.9164050" lon="8.5745800">
        <ele>248.4</ele>
        <time>2022-06-07T09:33:31Z</time>
      </trkpt>
      <trkpt lat="47.9164630" lon="8.5748300">
        <ele>248.0</ele>
        <time>2022-06-07T09:33:35Z</time>
      </trkpt>
      <trkpt lat="47.9165160" lon="8.5750780">
        <ele>248.2</ele>
        <time>2022-06-07T09:33:39Z</time>
      </trkpt>
      <trkpt lat="47.9165650" lon="8.5753180">
        <ele>248.0</ele>
        <time>2022-06-07T09:33:43Z</time>
      </trkpt>
      <trkpt lat="47.9166200" lon="8.5755660">
        <ele>247.8</ele>
        <time>2022-06-07T09:33:47Z</time>
      </trkpt>
      <trkpt lat="47.9166700" lon="8.5758110">
        <ele>247.4</ele>
        <time>2022-06-07T09:33:51Z</time>
      </trkpt>
      <trkpt lat="47.9167230" lon="8.5760610">
        <ele>247.6</ele>
        <time>2022-06-07T09:33:55Z</time>
      </trkpt>
      <trkpt lat="47.9167810" lon="8.5763230">
        <ele>247.6</ele>
        <time>2022-06-07T09:33:59Z</time>
      </trkpt>
      <trkpt lat="47.9168350" lon="8.5765930">
        <ele>248.0</ele>
        <time>2022-06-07T09:34:03Z</time>
      </trkpt>
      <trkpt lat="47.9168910" lon="8.5768460">
        <ele>247.8</ele>
        <time>2022-06-07T09:34:07Z</time>
      </trkpt>
      <trkpt lat="47.9169500" lon="8.5771130">
        <ele>247.8</ele>
        <time>2022-06-07T09:34:11Z</time>
      </trkpt>
      <trkpt lat="47.9170010" lon="8.5773860">
        <ele>247.8</ele>
        <time>2022-06-07T09:34:15Z</time>
      </trkpt>
      <trkpt lat="47.9170650" lon="8.5776610">
        <ele>247.8</ele>
        <time>2022-06-07T09:34:19Z</time>
      </trkpt>
      <trkpt lat="47.9171210" lon="8.5779460">
        <ele>247.8</ele>
        <time>2022-06-07T09:34:23Z</time>
      </trkpt>
      <trkpt lat="47.9171710" lon="8.5782280">
        <ele>248.0</ele>
        <time>2022-06-07T09:34:27Z</time>
      </trkpt>
      <trkpt lat="47.9172200" lon="8.5785180">
        <ele>248.0</ele>
        <time>2022-06-07T09:34:31Z</time>
      </trkpt>
      <trkpt lat="47.9172500" lon="8.5788210">
        <ele>247.8</ele>
        <time>2022-06-07T09:34:35Z</time>
      </trkpt>
      <trkpt lat="47.9172610" lon="8.5791310">
        <ele>247.8</ele>
        <time>2022-06-07T09:34:39Z</time>
      </trkpt>
      <trkpt lat="47.9172650" lon="8.5794330">
        <ele>247.0</ele>
        <time>2022-06-07T09:34:43Z</time>
      </trkpt>
      <trkpt lat="47.9172730" lon="8.5797210">
        <ele>247.2</ele>
        <time>2022-06-07T09:34:47Z</time>
      </trkpt>
      <trkpt lat="47.9173160" lon="8.5799980">
        <ele>246.8</ele>
        <time>2022-06-07T09:34:51Z</time>
      </trkpt>
      <trkpt lat="47.9173760" lon="8.5802760">
        <ele>246.6</ele>
        <time>2022-06-07T09:34:55Z</time>
      </trkpt>
      <trkpt lat="47.9174460" lon="8.5805660">
        <ele>246.8</ele>
        <time>2022-06-07T09:34:59Z</time>
      </trkpt>
      <trkpt lat="47.9175210" lon="8.5808610">
        <ele>246.4</ele>
        <time>2022-06-07T09:35:03Z</time>
      </trkpt>
      <trkpt lat="47.9175760" lon="8.5811650">
        <ele>246.8</ele>
        <time>2022-06-07T09:35:07Z</time>
      </trkpt>
      <trkpt lat="47.9175930" lon="8.5814700">
        <ele>247.2</ele>
        <time>2022-06-07T09:35:11Z</time>
      </trkpt>
      <trkpt lat="47.9175910" lon="8.5817530">
        <ele>247.4</ele>
        <time>2022-06-07T09:35:15Z</time>
      </trkpt>
      <trkpt lat="47.9175710" lon="8.5820360">
        <ele>247.0</ele>
        <time>2022-06-07T09:35:19Z</time>
      </trkpt>
      <trkpt lat="47.9175410" lon="8.5823410">
        <ele>247.0</ele>
        <time>2022-06-07T09:35:23Z</time>
      </trkpt>
      <trkpt lat="47.9175100" lon="8.5826550">
        <ele>246.8</ele>
        <time>2022-06-07T09:35:27Z</time>
      </trkpt>
      <trkpt lat="47.9174760" lon="8.5829660">
        <ele>246.8</ele>
        <time>2022-06-07T09:35:31Z</time>
      </trkpt>
      <trkpt lat="47.9174510" lon="8.5832800">
        <ele>246.8</ele>
        <time>2022-06-07T09:35:35Z</time>
      </trkpt>
      <trkpt lat="47.9174330" lon="8.5835950">
        <ele>246.8</ele>
        <time>2022-06-07T09:35:39Z</time>
      </trkpt>
      <trkpt lat="47.9174250" lon="8.5839110">
        <ele>247.0</ele>
        <time>2022-06-07T09:35:43Z</time>
      </trkpt>
      <trkpt lat="47.9174400" lon="8.5842230">
        <ele>246.4</ele>
        <time>2022-06-07T09:35:47Z</time>
      </trkpt>
      <trkpt lat="47.9174510" lon="8.5845360">
        <ele>246.8</ele>
        <time>2022-06-07T09:35:51Z</time>
      </trkpt>
      <trkpt lat="47.9174710" lon="8.5848450">
        <ele>246.6</ele>
        <time>2022-06-07T09:35:55Z</time>
      </trkpt>
      <trkpt lat="47.9175200" lon="8.5851430">
        <ele>246.6</ele>
        <time>2022-06-07T09:35:59Z</time>
      </trkpt>
      <trkpt lat="47.9175850" lon="8.5854300">
        <ele>246.6</ele>
        <time>2022-06-07T09:36:03Z</time>
      </trkpt>
      <trkpt lat="47.9176480" lon="8.5857210">
        <ele>246.2</ele>
        <time>2022-06-07T09:36:07Z</time>
      </trkpt>
      <trkpt lat="47.9177080" lon="8.5860200">
        <ele>246.2</ele>
        <time>2022-06-07T09:36:11Z</time>
      </trkpt>
      <trkpt lat="47.9177730" lon="8.5863080">
        <ele>246.0</ele>
        <time>2022-06-07T09:36:15Z</time>
      </trkpt>
      <trkpt lat="47.9178380" lon="8.5865830">
        <ele>247.0</ele>
        <time>2022-06-07T09:36:19Z</time>
      </trkpt>
      <trkpt lat="47.9178980" lon="8.5868500">
        <ele>246.6</ele>
        <time>2022-06-07T09:36:23Z</time>
      </trkpt>
      <trkpt lat="47.9179510" lon="8.5871130">
        <ele>246.6</ele>
        <time>2022-06-07T09:36:27Z</time>
      </trkpt>
      <trkpt lat="47.9180110" lon="8.5873760">
        <ele>246.4</ele>
        <time>2022-06-07T09:36:31Z</time>
      </trkpt>
      <trkpt lat="47.9180660" lon="8.5876550">
        <ele>246.4</ele>
        <time>2022-06-07T09:36:35Z</time>
      </trkpt>
      <trkpt lat="47.9181450" lon="8.5879200">
        <ele>247.0</ele>
        <time>2022-06-07T09:36:39Z</time>
      </trkpt>
      <trkpt lat="47.9183160" lon="8.5880660">
        <ele>246.4</ele>
        <time>2022-06-07T09:36:43Z</time>
      </trkpt>
      <trkpt lat="47.9185130" lon="8.5881350">
        <ele>246.8</ele>
        <time>2022-06-07T09:36:47Z</time>
      </trkpt>
      <trkpt lat="47.9187150" lon="8.5882050">
        <ele>246.4</ele>
        <time>2022-06-07T09:36:51Z</time>
      </trkpt>
      <trkpt lat="47.9189060" lon="8.5883130">
        <ele>246.2</ele>
        <time>2022-06-07T09:36:55Z</time>
      </trkpt>
      <trkpt lat="47.9190800" lon="8.5884830">
        <ele>245.6</ele>
        <time>2022-06-07T09:36:59Z</time>
      </trkpt>
      <trkpt lat="47.9192480" lon="8.5886750">
        <ele>246.8</ele>
        <time>2022-06-07T09:37:03Z</time>
      </trkpt>
      <trkpt lat="47.9194060" lon="8.5888750">
        <ele>246.2</ele>
        <time>2022-06-07T09:37:07Z</time>
      </trkpt>
      <trkpt lat="47.9195580" lon="8.5890950">
        <ele>246.4</ele>
        <time>2022-06-07T09:37:11Z</time>
      </trkpt>
      <trkpt lat="47.9196710" lon="8.5893560">
        <ele>246.2</ele>
        <time>2022-06-07T09:37:15Z</time>
      </trkpt>
      <trkpt lat="47.9197160" lon="8.5896600">
        <ele>246.8</ele>
        <time>2022-06-07T09:37:19Z</time>
      </trkpt>
      <trkpt lat="47.9195900" lon="8.5899160">
        <ele>246.8</ele>
        <time>2022-06-07T09:37:23Z</time>
      </trkpt>
      <trkpt lat="47.9194030" lon="8.5900810">
        <ele>246.6</ele>
        <time>2022-06-07T09:37:27Z</time>
      </trkpt>
      <trkpt lat="47.9192150" lon="8.5902410">
        <ele>246.8</ele>
        <time>2022-06-07T09:37:31Z</time>
      </trkpt>
      <trkpt lat="47.9190300" lon="8.5904000">
        <ele>246.6</ele>
        <time>2022-06-07T09:37:35Z</time>
      </trkpt>
      <trkpt lat="47.9188510" lon="8.5905610">
        <ele>246.8</ele>
        <time>2022-06-07T09:37:39Z</time>
      </trkpt>
      <trkpt lat="47.9186760" lon="8.5907210">
        <ele>246.2</ele>
        <time>2022-06-07T09:37:43Z</time>
      </trkpt>
      <trkpt lat="47.9185010" lon="8.5908730">
        <ele>246.4</ele>
        <time>2022-06-07T09:37:47Z</time>
      </trkpt>
      <trkpt lat="47.9183310" lon="8.5910300">
        <ele>246.0</ele>
        <time>2022-06-07T09:37:51Z</time>
      </trkpt>
      <trkpt lat="47.9181630" lon="8.5911780">
        <ele>245.8</ele>
        <time>2022-06-07T09:37:55Z</time>
      </trkpt>
      <trkpt lat="47.9179930" lon="8.5913230">
        <ele>246.6</ele>
        <time>2022-06-07T09:37:59Z</time>
      </trkpt>
      <trkpt lat="47.9178260" lon="8.5914730">
        <ele>246.4</ele>
        <time>2022-06-07T09:38:03Z</time>
      </trkpt>
      <trkpt lat="47.9176630" lon="8.5916050">
        <ele>246.4</ele>
        <time>2022-06-07T09:38:07Z</time>
      </trkpt>
      <trkpt lat="47.9176100" lon="8.5918300">
        <ele>245.8</ele>
        <time>2022-06-07T09:38:11Z</time>
      </trkpt>
      <trkpt lat="47.9177360" lon="8.5920450">
        <ele>246.2</ele>
        <time>2022-06-07T09:38:15Z</time>
      </trkpt>
      <trkpt lat="47.9178850" lon="8.5922610">
        <ele>245.8</ele>
        <time>2022-06-07T09:38:19Z</time>
      </trkpt>
      <trkpt lat="47.9180280" lon="8.5924750">
        <ele>245.6</ele>
        <time>2022-06-07T09:38:23Z</time>
      </trkpt>
      <trkpt lat="47.9181750" lon="8.5927010">
        <ele>246.8</ele>
        <time>2022-06-07T09:38:27Z</time>
      </trkpt>
      <trkpt lat="47.9182960" lon="8.5929510">
        <ele>246.2</ele>
        <time>2022-06-07T09:38:31Z</time>
      </trkpt>
      <trkpt lat="47.9184100" lon="8.5932150">
        <ele>246.2</ele>
        <time>2022-06-07T09:38:35Z</time>
      </trkpt>
      <trkpt lat="47.9185250" lon="8.5934730">
        <ele>245.8</ele>
        <time>2022-06-07T09:38:39Z</time>
      </trkpt>
      <trkpt lat="47.9186460" lon="8.5937180">
        <ele>245.4</ele>
        <time>2022-06-07T09:38:43Z</time>
      </trkpt>
      <trkpt lat="47.9187950" lon="8.5939330">
        <ele>246.0</ele>
        <time>2022-06-07T09:38:47Z</time>
      </trkpt>
      <trkpt lat="47.9189550" lon="8.5941160">
        <ele>245.2</ele>
        <time>2022-06-07T09:38:51Z</time>
      </trkpt>
      <trkpt lat="47.9191130" lon="8.5942960">
        <ele>246.0</ele>
        <time>2022-06-07T09:38:55Z</time>
      </trkpt>
      <trkpt lat="47.9192650" lon="8.5944880">
        <ele>245.8</ele>
        <time>2022-06-07T09:38:59Z</time>
      </trkpt>
      <trkpt lat="47.9194010" lon="8.5947060">
        <ele>244.6</ele>
        <time>2022-06-07T09:39:03Z</time>
      </trkpt>
      <trkpt lat="47.9194930" lon="8.5949680">
        <ele>244.8</ele>
        <time>2022-06-07T09:39:07Z</time>
      </trkpt>
      <trkpt lat="47.9195180" lon="8.5952650">
        <ele>245.4</ele>
        <time>2022-06-07T09:39:11Z</time>
      </trkpt>
      <trkpt lat="47.9195030" lon="8.5955530">
        <ele>245.8</ele>
        <time>2022-06-07T09:39:15Z</time>
      </trkpt>
      <trkpt lat="47.9195010" lon="8.5958330">
        <ele>245.6</ele>
        <time>2022-06-07T09:39:19Z</time>
      </trkpt>
      <trkpt lat="47.9194950" lon="8.5961100">
        <ele>245.6</ele>
        <time>2022-06-07T09:39:23Z</time>
      </trkpt>
      <trkpt lat="47.9194900" lon="8.5963860">
        <ele>245.6</ele>
        <time>2022-06-07T09:39:27Z</time>
      </trkpt>
      <trkpt lat="47.9194830" lon="8.5966700">
        <ele>245.6</ele>
        <time>2022-06-07T09:39:31Z</time>
      </trkpt>
      <trkpt lat="47.9194730" lon="8.5969510">
        <ele>245.6</ele>
        <time>2022-06-07T09:39:35Z</time>
      </trkpt>
      <trkpt lat="47.9194630" lon="8.5972400">
        <ele>245.6</ele>
        <time>2022-06-07T09:39:39Z</time>
      </trkpt>
      <trkpt lat="47.9194730" lon="8.5975150">
        <ele>245.0</ele>
        <time>2022-06-07T09:39:43Z</time>
      </trkpt>
      <trkpt lat="47.9196400" lon="8.5975850">
        <ele>245.0</ele>
        <time>2022-06-07T09:39:47Z</time>
      </trkpt>
      <trkpt lat="47.9198360" lon="8.5975260">
        <ele>245.0</ele>
        <time>2022-06-07T09:39:51Z</time>
      </trkpt>
      <trkpt lat="47.9200330" lon="8.5974650">
        <ele>246.0</ele>
        <time>2022-06-07T09:39:55Z</time>
      </trkpt>
      <trkpt lat="47.9202260" lon="8.5974060">
        <ele>245.8</ele>
        <time>2022-06-07T09:39:59Z</time>
      </trkpt>
      <trkpt lat="47.9204180" lon="8.5973530">
        <ele>245.8</ele>
        <time>2022-06-07T09:40:03Z</time>
      </trkpt>
      <trkpt lat="47.9206060" lon="8.5973300">
        <ele>245.8</ele>
        <time>2022-06-07T09:40:07Z</time>
      </trkpt>
      <trkpt lat="47.9207930" lon="8.5973580">
        <ele>246.0</ele>
        <time>2022-06-07T09:40:11Z</time>
      </trkpt>
      <trkpt lat="47.9209710" lon="8.5974380">
        <ele>245.8</ele>
        <time>2022-06-07T09:40:15Z</time>
      </trkpt>
      <trkpt lat="47.9211430" lon="8.5975200">
        <ele>245.8</ele>
        <time>2022-06-07T09:40:19Z</time>
      </trkpt>
      <trkpt lat="47.9213160" lon="8.5976280">
        <ele>246.4</ele>
        <time>2022-06-07T09:40:23Z</time>
      </trkpt>
      <trkpt lat="47.9214780" lon="8.5977350">
        <ele>246.8</ele>
        <time>2022-06-07T09:40:27Z</time>
      </trkpt>
      <trkpt lat="47.9216250" lon="8.5978660">
        <ele>247.2</ele>
        <time>2022-06-07T09:40:31Z</time>
      </trkpt>
      <trkpt lat="47.9217450" lon="8.5980130">
        <ele>247.2</ele>
        <time>2022-06-07T09:40:35Z</time>
      </trkpt>
      <trkpt lat="47.9218300" lon="8.5981950">
        <ele>248.0</ele>
        <time>2022-06-07T09:40:39Z</time>
      </trkpt>
      <trkpt lat="47.9217980" lon="8.5983850">
        <ele>248.8</ele>
        <time>2022-06-07T09:40:43Z</time>
      </trkpt>
      <trkpt lat="47.9216750" lon="8.5985530">
        <ele>248.6</ele>
        <time>2022-06-07T09:40:47Z</time>
      </trkpt>
      <trkpt lat="47.9215480" lon="8.5987310">
        <ele>249.0</ele>
        <time>2022-06-07T09:40:51Z</time>
      </trkpt>
      <trkpt lat="47.9214160" lon="8.5989150">
        <ele>248.2</ele>
        <time>2022-06-07T09:40:55Z</time>
      </trkpt>
      <trkpt lat="47.9212780" lon="8.5991010">
        <ele>248.2</ele>
        <time>2022-06-07T09:40:59Z</time>
      </trkpt>
      <trkpt lat="47.9211310" lon="8.5993010">
        <ele>247.8</ele>
        <time>2022-06-07T09:41:03Z</time>
      </trkpt>
      <trkpt lat="47.9209710" lon="8.5995130">
        <ele>247.2</ele>
        <time>2022-06-07T09:41:07Z</time>
      </trkpt>
      <trkpt lat="47.9208130" lon="8.5997260">
        <ele>246.8</ele>
        <time>2022-06-07T09:41:11Z</time>
      </trkpt>
      <trkpt lat="47.9206610" lon="8.5999310">
        <ele>246.4</ele>
        <time>2022-06-07T09:41:15Z</time>
      </trkpt>
      <trkpt lat="47.9205130" lon="8.6001260">
        <ele>247.0</ele>
        <time>2022-06-07T09:41:19Z</time>
      </trkpt>
      <trkpt lat="47.9203630" lon="8.6003200">
        <ele>246.8</ele>
        <time>2022-06-07T09:41:23Z</time>
      </trkpt>
      <trkpt lat="47.9202150" lon="8.6005210">
        <ele>246.4</ele>
        <time>2022-06-07T09:41:27Z</time>
      </trkpt>
      <trkpt lat="47.9200650" lon="8.6007260">
        <ele>246.8</ele>
        <time>2022-06-07T09:41:31Z</time>
      </trkpt>
      <trkpt lat="47.9199200" lon="8.6008930">
        <ele>247.2</ele>
        <time>2022-06-07T09:41:35Z</time>
      </trkpt>
      <trkpt lat="47.9197750" lon="8.6010780">
        <ele>246.6</ele>
        <time>2022-06-07T09:41:39Z</time>
      </trkpt>
      <trkpt lat="47.9196300" lon="8.6012630">
        <ele>247.0</ele>
        <time>2022-06-07T09:41:43Z</time>
      </trkpt>
      <trkpt lat="47.9194880" lon="8.6014530">
        <ele>246.6</ele>
        <time>2022-06-07T09:41:47Z</time>
      </trkpt>
      <trkpt lat="47.9193750" lon="8.6016760">
        <ele>247.0</ele>
        <time>2022-06-07T09:41:51Z</time>
      </trkpt>
      <trkpt lat="47.9192810" lon="8.6019310">
        <ele>246.6</ele>
        <time>2022-06-07T09:41:55Z</time>
      </trkpt>
      <trkpt lat="47.9191860" lon="8.6021930">
        <ele>246.4</ele>
        <time>2022-06-07T09:41:59Z</time>
      </trkpt>
      <trkpt lat="47.9190880" lon="8.6024610">
        <ele>246.6</ele>
        <time>2022-06-07T09:42:03Z</time>
      </trkpt>
      <trkpt lat="47.9189900" lon="8.6027260">
        <ele>245.4</ele>
        <time>2022-06-07T09:42:07Z</time>
      </trkpt>
      <trkpt lat="47.9189100" lon="8.6030030">
        <ele>246.2</ele>
        <time>2022-06-07T09:42:11Z</time>
      </trkpt>
      <trkpt lat="47.9188360" lon="8.6032580">
        <ele>246.2</ele>
        <time>2022-06-07T09:42:15Z</time>
      </trkpt>
      <trkpt lat="47.9187660" lon="8.6035130">
        <ele>245.6</ele>
        <time>2022-06-07T09:42:19Z</time>
      </trkpt>
      <trkpt lat="47.9187080" lon="8.6037960">
        <ele>245.6</ele>
        <time>2022-06-07T09:42:23Z</time>
      </trkpt>
      <trkpt lat="47.9186380" lon="8.6040750">
        <ele>245.6</ele>
        <time>2022-06-07T09:42:27Z</time>
      </trkpt>
      <trkpt lat="47.9185660" lon="8.6043530">
        <ele>245.6</ele>
        <time>2022-06-07T09:42:31Z</time>
      </trkpt>
      <trkpt lat="47.9184880" lon="8.6046310">
        <ele>245.8</ele>
        <time>2022-06-07T09:42:35Z</time>
      </trkpt>
      <trkpt lat="47.9184160" lon="8.6049050">
        <ele>245.8</ele>
        <time>2022-06-07T09:42:39Z</time>
      </trkpt>
      <trkpt lat="47.9183430" lon="8.6051750">
        <ele>245.6</ele>
        <time>2022-06-07T09:42:43Z</time>
      </trkpt>
      <trkpt lat="47.9182810" lon="8.6054510">
        <ele>245.6</ele>
        <time>2022-06-07T09:42:47Z</time>
      </trkpt>
      <trkpt lat="47.9182180" lon="8.6057280">
        <ele>246.0</ele>
        <time>2022-06-07T09:42:51Z</time>
      </trkpt>
      <trkpt lat="47.9181600" lon="8.6060010">
        <ele>246.4</ele>
        <time>2022-06-07T09:42:55Z</time>
      </trkpt>
      <trkpt lat="47.9181050" lon="8.6062700">
        <ele>246.2</ele>
        <time>2022-06-07T09:42:59Z</time>
      </trkpt>
      <trkpt lat="47.9180560" lon="8.6065430">
        <ele>246.4</ele>
        <time>2022-06-07T09:43:03Z</time>
      </trkpt>
      <trkpt lat="47.9180080" lon="8.6068110">
        <ele>246.6</ele>
        <time>2022-06-07T09:43:07Z</time>
      </trkpt>
      <trkpt lat="47.9179610" lon="8.6070710">
        <ele>246.4</ele>
        <time>2022-06-07T09:43:11Z</time>
      </trkpt>
      <trkpt lat="47.9179080" lon="8.6073310">
        <ele>246.0</ele>
        <time>2022-06-07T09:43:15Z</time>
      </trkpt>
      <trkpt lat="47.9178530" lon="8.6075950">
        <ele>246.4</ele>
        <time>2022-06-07T09:43:19Z</time>
      </trkpt>
      <trkpt lat="47.9178000" lon="8.6078580">
        <ele>246.2</ele>
        <time>2022-06-07T09:43:23Z</time>
      </trkpt>
      <trkpt lat="47.9177400" lon="8.6081250">
        <ele>246.4</ele>
        <time>2022-06-07T09:43:27Z</time>
      </trkpt>
      <trkpt lat="47.9176850" lon="8.6083860">
        <ele>246.4</ele>
        <time>2022-06-07T09:43:31Z</time>
      </trkpt>
      <trkpt lat="47.9176280" lon="8.6086510">
        <ele>246.4</ele>
        <time>2022-06-07T09:43:35Z</time>
      </trkpt>
      <trkpt lat="47.9175630" lon="8.6089200">
        <ele>246.4</ele>
        <time>2022-06-07T09:43:39Z</time>
      </trkpt>
      <trkpt lat="47.9174930" lon="8.6091900">
        <ele>245.8</ele>
        <time>2022-06-07T09:43:43Z</time>
      </trkpt>
      <trkpt lat="47.9174150" lon="8.6094650">
        <ele>246.0</ele>
        <time>2022-06-07T09:43:47Z</time>
      </trkpt>
      <trkpt lat="47.9173460" lon="8.6097360">
        <ele>246.4</ele>
        <time>2022-06-07T09:43:51Z</time>
      </trkpt>
      <trkpt lat="47.9172610" lon="8.6099930">
        <ele>246.0</ele>
        <time>2022-06-07T09:43:55Z</time>
      </trkpt>
      <trkpt lat="47.9171650" lon="8.6102580">
        <ele>245.6</ele>
        <time>2022-06-07T09:43:59Z</time>
      </trkpt>
      <trkpt lat="47.9170900" lon="8.6105560">
        <ele>245.8</ele>
        <time>2022-06-07T09:44:03Z</time>
      </trkpt>
      <trkpt lat="47.9170200" lon="8.6108380">
        <ele>245.8</ele>
        <time>2022-06-07T09:44:07Z</time>
      </trkpt>
      <trkpt lat="47.9169360" lon="8.6111080">
        <ele>245.8</ele>
        <time>2022-06-07T09:44:11Z</time>
      </trkpt>
      <trkpt lat="47.9168480" lon="8.6113760">
        <ele>245.4</ele>
        <time>2022-06-07T09:44:15Z</time>
      </trkpt>
      <trkpt lat="47.9167610" lon="8.6116330">
        <ele>245.6</ele>
        <time>2022-06-07T09:44:19Z</time>
      </trkpt>
      <trkpt lat="47.9166760" lon="8.6118910">
        <ele>245.8</ele>
        <time>2022-06-07T09:44:23Z</time>
      </trkpt>
      <trkpt lat="47.9165930" lon="8.6121450">
        <ele>246.6</ele>
        <time>2022-06-07T09:44:27Z</time>
      </trkpt>
      <trkpt lat="47.9165080" lon="8.6123930">
        <ele>246.4</ele>
        <time>2022-06-07T09:44:31Z</time>
      </trkpt>
      <trkpt lat="47.9164210" lon="8.6126480">
        <ele>246.8</ele>
        <time>2022-06-07T09:44:35Z</time>
      </trkpt>
      <trkpt lat="47.9163350" lon="8.6129080">
        <ele>247.2</ele>
        <time>2022-06-07T09:44:39Z</time>
      </trkpt>
      <trkpt lat="47.9162510" lon="8.6131660">
        <ele>246.6</ele>
        <time>2022-06-07T09:44:43Z</time>
      </trkpt>
      <trkpt lat="47.9161660" lon="8.6134210">
        <ele>246.8</ele>
        <time>2022-06-07T09:44:47Z</time>
      </trkpt>
      <trkpt lat="47.9160660" lon="8.6136630">
        <ele>245.8</ele>
        <time>2022-06-07T09:44:51Z</time>
      </trkpt>
      <trkpt lat="47.9159880" lon="8.6139300">
        <ele>245.8</ele>
        <time>2022-06-07T09:44:55Z</time>
      </trkpt>
      <trkpt lat="47.9159010" lon="8.6142200">
        <ele>244.6</ele>
        <time>2022-06-07T09:44:59Z</time>
      </trkpt>
      <trkpt lat="47.9158080" lon="8.6145160">
        <ele>245.4</ele>
        <time>2022-06-07T09:45:03Z</time>
      </trkpt>
      <trkpt lat="47.9157100" lon="8.6148000">
        <ele>245.6</ele>
        <time>2022-06-07T09:45:07Z</time>
      </trkpt>
      <trkpt lat="47.9156330" lon="8.6150780">
        <ele>244.8</ele>
        <time>2022-06-07T09:45:11Z</time>
      </trkpt>
      <trkpt lat="47.9155500" lon="8.6153550">
        <ele>245.6</ele>
        <time>2022-06-07T09:45:15Z</time>
      </trkpt>
      <trkpt lat="47.9154760" lon="8.6156360">
        <ele>245.6</ele>
        <time>2022-06-07T09:45:19Z</time>
      </trkpt>
      <trkpt lat="47.9154050" lon="8.6159180">
        <ele>245.2</ele>
        <time>2022-06-07T09:45:23Z</time>
      </trkpt>
      <trkpt lat="47.9153380" lon="8.6162000">
        <ele>245.6</ele>
        <time>2022-06-07T09:45:27Z</time>
      </trkpt>
      <trkpt lat="47.9152760" lon="8.6164780">
        <ele>245.6</ele>
        <time>2022-06-07T09:45:31Z</time>
      </trkpt>
      <trkpt lat="47.9152180" lon="8.6167550">
        <ele>245.8</ele>
        <time>2022-06-07T09:45:35Z</time>
      </trkpt>
      <trkpt lat="47.9151560" lon="8.6170300">
        <ele>245.6</ele>
        <time>2022-06-07T09:45:39Z</time>
      </trkpt>
      <trkpt lat="47.9150980" lon="8.6173180">
        <ele>245.0</ele>
        <time>2022-06-07T09:45:43Z</time>
      </trkpt>
      <trkpt lat="47.9150430" lon="8.6176050">
        <ele>244.8</ele>
        <time>2022-06-07T09:45:47Z</time>
      </trkpt>
      <trkpt lat="47.9150000" lon="8.6178910">
        <ele>245.6</ele>
        <time>2022-06-07T09:45:51Z</time>
      </trkpt>
      <trkpt lat="47.9149550" lon="8.6181810">
        <ele>245.4</ele>
        <time>2022-06-07T09:45:55Z</time>
      </trkpt>
      <trkpt lat="47.9149180" lon="8.6184730">
        <ele>245.6</ele>
        <time>2022-06-07T09:45:59Z</time>
      </trkpt>
      <trkpt lat="47.9148900" lon="8.6187530">
        <ele>245.6</ele>
        <time>2022-06-07T09:46:03Z</time>
      </trkpt>
      <trkpt lat="47.9148600" lon="8.6190300">
        <ele>246.4</ele>
        <time>2022-06-07T09:46:07Z</time>
      </trkpt>
      <trkpt lat="47.9148460" lon="8.6192910">
        <ele>247.0</ele>
        <time>2022-06-07T09:46:11Z</time>
      </trkpt>
      <trkpt lat="47.9148500" lon="8.6195310">
        <ele>247.8</ele>
        <time>2022-06-07T09:46:15Z</time>
      </trkpt>
      <trkpt lat="47.9148580" lon="8.6197430">
        <ele>248.8</ele>
        <time>2022-06-07T09:46:19Z</time>
      </trkpt>
      <trkpt lat="47.9148660" lon="8.6199250">
        <ele>249.8</ele>
        <time>2022-06-07T09:46:23Z</time>
      </trkpt>
      <trkpt lat="47.9148750" lon="8.6201060">
        <ele>250.4</ele>
        <time>2022-06-07T09:46:27Z</time>
      </trkpt>
      <trkpt lat="47.9148760" lon="8.6203080">
        <ele>250.8</ele>
        <time>2022-06-07T09:46:31Z</time>
      </trkpt>
      <trkpt lat="47.9148800" lon="8.6205110">
        <ele>251.0</ele>
        <time>2022-06-07T09:46:35Z</time>
      </trkpt>
      <trkpt lat="47.9148850" lon="8.6207200">
        <ele>251.2</ele>
        <time>2022-06-07T09:46:39Z</time>
      </trkpt>
      <trkpt lat="47.9148910" lon="8.6209360">
        <ele>251.6</ele>
        <time>2022-06-07T09:46:43Z</time>
      </trkpt>
      <trkpt lat="47.9149030" lon="8.6211700">
        <ele>251.4</ele>
        <time>2022-06-07T09:46:47Z</time>
      </trkpt>
      <trkpt lat="47.9149230" lon="8.6214060">
        <ele>251.8</ele>
        <time>2022-06-07T09:46:51Z</time>
      </trkpt>
      <trkpt lat="47.9149400" lon="8.6216400">
        <ele>251.4</ele>
        <time>2022-06-07T09:46:55Z</time>
      </trkpt>
      <trkpt lat="47.9149650" lon="8.6218700">
        <ele>251.6</ele>
        <time>2022-06-07T09:46:59Z</time>
      </trkpt>
      <trkpt lat="47.9149950" lon="8.6221160">
        <ele>251.2</ele>
        <time>2022-06-07T09:47:03Z</time>
      </trkpt>
      <trkpt lat="47.9150330" lon="8.6223880">
        <ele>251.0</ele>
        <time>2022-06-07T09:47:07Z</time>
      </trkpt>
      <trkpt lat="47.9150750" lon="8.6226610">
        <ele>250.2</ele>
        <time>2022-06-07T09:47:11Z</time>
      </trkpt>
      <trkpt lat="47.9151210" lon="8.6229550">
        <ele>249.8</ele>
        <time>2022-06-07T09:47:15Z</time>
      </trkpt>
      <trkpt lat="47.9151800" lon="8.6232760">
        <ele>248.8</ele>
        <time>2022-06-07T09:47:19Z</time>
      </trkpt>
      <trkpt lat="47.9152460" lon="8.6236000">
        <ele>248.8</ele>
        <time>2022-06-07T09:47:23Z</time>
      </trkpt>
      <trkpt lat="47.9153180" lon="8.6239300">
        <ele>248.2</ele>
        <time>2022-06-07T09:47:27Z</time>
      </trkpt>
      <trkpt lat="47.9153810" lon="8.6242700">
        <ele>248.4</ele>
        <time>2022-06-07T09:47:31Z</time>
      </trkpt>
      <trkpt lat="47.9154530" lon="8.6246110">
        <ele>247.2</ele>
        <time>2022-06-07T09:47:35Z</time>
      </trkpt>
      <trkpt lat="47.9155310" lon="8.6249730">
        <ele>245.4</ele>
        <time>2022-06-07T09:47:39Z</time>
      </trkpt>
      <trkpt lat="47.9156250" lon="8.6253430">
        <ele>245.0</ele>
        <time>2022-06-07T09:47:43Z</time>
      </trkpt>
      <trkpt lat="47.9157150" lon="8.6257200">
        <ele>244.6</ele>
        <time>2022-06-07T09:47:47Z</time>
      </trkpt>
      <trkpt lat="47.9158050" lon="8.6260850">
        <ele>244.8</ele>
        <time>2022-06-07T09:47:51Z</time>
      </trkpt>
      <trkpt lat="47.9158860" lon="8.6264330">
        <ele>244.8</ele>
        <time>2022-06-07T09:47:55Z</time>
      </trkpt>
      <trkpt lat="47.9159760" lon="8.6267760">
        <ele>245.0</ele>
        <time>2022-06-07T09:47:59Z</time>
      </trkpt>
      <trkpt lat="47.9160660" lon="8.6271100">
        <ele>244.0</ele>
        <time>2022-06-07T09:48:03Z</time>
      </trkpt>
      <trkpt lat="47.9161480" lon="8.6274550">
        <ele>243.4</ele>
        <time>2022-06-07T09:48:07Z</time>
      </trkpt>
      <trkpt lat="47.9162250" lon="8.6278030">
        <ele>243.4</ele>
        <time>2022-06-07T09:48:11Z</time>
      </trkpt>
      <trkpt lat="47.9162950" lon="8.6281460">
        <ele>243.4</ele>
        <time>2022-06-07T09:48:15Z</time>
      </trkpt>
      <trkpt lat="47.9163560" lon="8.6284830">
        <ele>243.4</ele>
        <time>2022-06-07T09:48:19Z</time>
      </trkpt>
      <trkpt lat="47.9164080" lon="8.6288200">
        <ele>243.6</ele>
        <time>2022-06-07T09:48:23Z</time>
      </trkpt>
      <trkpt lat="47.9164610" lon="8.6291560">
        <ele>244.0</ele>
        <time>2022-06-07T09:48:27Z</time>
      </trkpt>
      <trkpt lat="47.9165080" lon="8.6294860">
        <ele>244.2</ele>
        <time>2022-06-07T09:48:31Z</time>
      </trkpt>
      <trkpt lat="47.9165530" lon="8.6298150">
        <ele>244.0</ele>
        <time>2022-06-07T09:48:35Z</time>
      </trkpt>
      <trkpt lat="47.9165880" lon="8.6301400">
        <ele>244.0</ele>
        <time>2022-06-07T09:48:39Z</time>
      </trkpt>
      <trkpt lat="47.9166110" lon="8.6304610">
        <ele>243.6</ele>
        <time>2022-06-07T09:48:43Z</time>
      </trkpt>
      <trkpt lat="47.9166430" lon="8.6307700">
        <ele>243.4</ele>
        <time>2022-06-07T09:48:47Z</time>
      </trkpt>
      <trkpt lat="47.9167660" lon="8.6309480">
        <ele>243.2</ele>
        <time>2022-06-07T09:48:51Z</time>
      </trkpt>
      <trkpt lat="47.9169030" lon="8.6308380">
        <ele>244.0</ele>
        <time>2022-06-07T09:48:55Z</time>
      </trkpt>
      <trkpt lat="47.9170460" lon="8.6306730">
        <ele>243.0</ele>
        <time>2022-06-07T09:48:59Z</time>
      </trkpt>
      <trkpt lat="47.9172200" lon="8.6307210">
        <ele>243.4</ele>
        <time>2022-06-07T09:49:03Z</time>
      </trkpt>
      <trkpt lat="47.9173610" lon="8.6309150">
        <ele>243.2</ele>
        <time>2022-06-07T09:49:07Z</time>
      </trkpt>
      <trkpt lat="47.9175010" lon="8.6311130">
        <ele>243.0</ele>
        <time>2022-06-07T09:49:11Z</time>
      </trkpt>
      <trkpt lat="47.9176600" lon="8.6313080">
        <ele>242.8</ele>
        <time>2022-06-07T09:49:15Z</time>
      </trkpt>
      <trkpt lat="47.9178280" lon="8.6314880">
        <ele>243.4</ele>
        <time>2022-06-07T09:49:19Z</time>
      </trkpt>
      <trkpt lat="47.9179900" lon="8.6316630">
        <ele>242.8</ele>
        <time>2022-06-07T09:49:23Z</time>
      </trkpt>
      <trkpt lat="47.9181360" lon="8.6318160">
        <ele>243.0</ele>
        <time>2022-06-07T09:49:27Z</time>
      </trkpt>
      <trkpt lat="47.9182410" lon="8.6319550">
        <ele>243.8</ele>
        <time>2022-06-07T09:49:31Z</time>
      </trkpt>
      <trkpt lat="47.9183400" lon="8.6319550">
        <ele>243.4</ele>
        <time>2022-06-07T09:49:35Z</time>
      </trkpt>
      <trkpt lat="47.9184530" lon="8.6318430">
        <ele>243.4</ele>
        <time>2022-06-07T09:49:39Z</time>
      </trkpt>
      <trkpt lat="47.9186010" lon="8.6319030">
        <ele>243.4</ele>
        <time>2022-06-07T09:49:43Z</time>
      </trkpt>
      <trkpt lat="47.9187680" lon="8.6320330">
        <ele>243.4</ele>
        <time>2022-06-07T09:49:47Z</time>
      </trkpt>
      <trkpt lat="47.9189160" lon="8.6321610">
        <ele>243.2</ele>
        <time>2022-06-07T09:49:51Z</time>
      </trkpt>
      <trkpt lat="47.9190730" lon="8.6323010">
        <ele>243.2</ele>
        <time>2022-06-07T09:49:55Z</time>
      </trkpt>
      <trkpt lat="47.9192280" lon="8.6324510">
        <ele>243.0</ele>
        <time>2022-06-07T09:49:59Z</time>
      </trkpt>
      <trkpt lat="47.9193800" lon="8.6325900">
        <ele>243.0</ele>
        <time>2022-06-07T09:50:03Z</time>
      </trkpt>
      <trkpt lat="47.9195360" lon="8.6326650">
        <ele>243.0</ele>
        <time>2022-06-07T09:50:07Z</time>
      </trkpt>
      <trkpt lat="47.9197000" lon="8.6326280">
        <ele>243.2</ele>
        <time>2022-06-07T09:50:11Z</time>
      </trkpt>
      <trkpt lat="47.9198750" lon="8.6325960">
        <ele>243.4</ele>
        <time>2022-06-07T09:50:15Z</time>
      </trkpt>
      <trkpt lat="47.9200550" lon="8.6325830">
        <ele>243.4</ele>
        <time>2022-06-07T09:50:19Z</time>
      </trkpt>
      <trkpt lat="47.9202360" lon="8.6325680">
        <ele>243.4</ele>
        <time>2022-06-07T09:50:23Z</time>
      </trkpt>
      <trkpt lat="47.9204160" lon="8.6325610">
        <ele>244.0</ele>
        <time>2022-06-07T09:50:27Z</time>
      </trkpt>
      <trkpt lat="47.9205900" lon="8.6325510">
        <ele>244.2</ele>
        <time>2022-06-07T09:50:31Z</time>
      </trkpt>
      <trkpt lat="47.9207500" lon="8.6325630">
        <ele>244.6</ele>
        <time>2022-06-07T09:50:35Z</time>
      </trkpt>
      <trkpt lat="47.9208880" lon="8.6325510">
        <ele>244.4</ele>
        <time>2022-06-07T09:50:39Z</time>
      </trkpt>
      <trkpt lat="47.9210300" lon="8.6325280">
        <ele>245.8</ele>
        <time>2022-06-07T09:50:43Z</time>
      </trkpt>
      <trkpt lat="47.9211710" lon="8.6324750">
        <ele>246.4</ele>
        <time>2022-06-07T09:50:47Z</time>
      </trkpt>
      <trkpt lat="47.9213030" lon="8.6324230">
        <ele>246.8</ele>
        <time>2022-06-07T09:50:51Z</time>
      </trkpt>
      <trkpt lat="47.9214350" lon="8.6323510">
        <ele>247.8</ele>
        <time>2022-06-07T09:50:55Z</time>
      </trkpt>
      <trkpt lat="47.9215610" lon="8.6322610">
        <ele>248.4</ele>
        <time>2022-06-07T09:50:59Z</time>
      </trkpt>
      <trkpt lat="47.9216810" lon="8.6321530">
        <ele>250.0</ele>
        <time>2022-06-07T09:51:03Z</time>
      </trkpt>
      <trkpt lat="47.9217950" lon="8.6320760">
        <ele>250.4</ele>
        <time>2022-06-07T09:51:07Z</time>
      </trkpt>
      <trkpt lat="47.9219010" lon="8.6320030">
        <ele>250.8</ele>
        <time>2022-06-07T09:51:11Z</time>
      </trkpt>
      <trkpt lat="47.9220030" lon="8.6319660">
        <ele>252.2</ele>
        <time>2022-06-07T09:51:15Z</time>
      </trkpt>
      <trkpt lat="47.9221110" lon="8.6319610">
        <ele>253.0</ele>
        <time>2022-06-07T09:51:19Z</time>
      </trkpt>
      <trkpt lat="47.9222310" lon="8.6320060">
        <ele>253.2</ele>
        <time>2022-06-07T09:51:23Z</time>
      </trkpt>
      <trkpt lat="47.9223460" lon="8.6321050">
        <ele>253.4</ele>
        <time>2022-06-07T09:51:27Z</time>
      </trkpt>
      <trkpt lat="47.9224650" lon="8.6322300">
        <ele>253.0</ele>
        <time>2022-06-07T09:51:31Z</time>
      </trkpt>
      <trkpt lat="47.9225830" lon="8.6323830">
        <ele>253.0</ele>
        <time>2022-06-07T09:51:35Z</time>
      </trkpt>
      <trkpt lat="47.9227010" lon="8.6325410">
        <ele>253.0</ele>
        <time>2022-06-07T09:51:39Z</time>
      </trkpt>
      <trkpt lat="47.9228210" lon="8.6327130">
        <ele>252.6</ele>
        <time>2022-06-07T09:51:43Z</time>
      </trkpt>
      <trkpt lat="47.9229400" lon="8.6328880">
        <ele>252.4</ele>
        <time>2022-06-07T09:51:47Z</time>
      </trkpt>
      <trkpt lat="47.9230510" lon="8.6330650">
        <ele>252.8</ele>
        <time>2022-06-07T09:51:51Z</time>
      </trkpt>
      <trkpt lat="47.9231550" lon="8.6332710">
        <ele>252.6</ele>
        <time>2022-06-07T09:51:55Z</time>
      </trkpt>
      <trkpt lat="47.9232480" lon="8.6335130">
        <ele>252.0</ele>
        <time>2022-06-07T09:51:59Z</time>
      </trkpt>
      <trkpt lat="47.9233410" lon="8.6337860">
        <ele>250.6</ele>
        <time>2022-06-07T09:52:03Z</time>
      </trkpt>
      <trkpt lat="47.9234580" lon="8.6341230">
        <ele>250.0</ele>
        <time>2022-06-07T09:52:07Z</time>
      </trkpt>
      <trkpt lat="47.9235910" lon="8.6344930">
        <ele>248.4</ele>
        <time>2022-06-07T09:52:11Z</time>
      </trkpt>
      <trkpt lat="47.9237310" lon="8.6348810">
        <ele>245.2</ele>
        <time>2022-06-07T09:52:15Z</time>
      </trkpt>
      <trkpt lat="47.9238860" lon="8.6352610">
        <ele>245.2</ele>
        <time>2022-06-07T09:52:19Z</time>
      </trkpt>
      <trkpt lat="47.9240310" lon="8.6356410">
        <ele>245.0</ele>
        <time>2022-06-07T09:52:23Z</time>
      </trkpt>
      <trkpt lat="47.9241430" lon="8.6360280">
        <ele>244.6</ele>
        <time>2022-06-07T09:52:27Z</time>
      </trkpt>
      <trkpt lat="47.9242630" lon="8.6363960">
        <ele>244.2</ele>
        <time>2022-06-07T09:52:31Z</time>
      </trkpt>
      <trkpt lat="47.9243900" lon="8.6367410">
        <ele>244.8</ele>
        <time>2022-06-07T09:52:35Z</time>
      </trkpt>
      <trkpt lat="47.9245250" lon="8.6370410">
        <ele>244.2</ele>
        <time>2022-06-07T09:52:39Z</time>
      </trkpt>
      <trkpt lat="47.9247200" lon="8.6372160">
        <ele>245.6</ele>
        <time>2022-06-07T09:52:43Z</time>
      </trkpt>
      <trkpt lat="47.9248510" lon="8.6374150">
        <ele>245.8</ele>
        <time>2022-06-07T09:52:47Z</time>
      </trkpt>
      <trkpt lat="47.9249310" lon="8.6376900">
        <ele>245.4</ele>
        <time>2022-06-07T09:52:51Z</time>
      </trkpt>
      <trkpt lat="47.9250180" lon="8.6379560">
        <ele>246.0</ele>
        <time>2022-06-07T09:52:55Z</time>
      </trkpt>
      <trkpt lat="47.9251050" lon="8.6382150">
        <ele>245.4</ele>
        <time>2022-06-07T09:52:59Z</time>
      </trkpt>
      <trkpt lat="47.9250980" lon="8.6384680">
        <ele>245.6</ele>
        <time>2022-06-07T09:53:03Z</time>
      </trkpt>
      <trkpt lat="47.9249650" lon="8.6386630">
        <ele>246.2</ele>
        <time>2022-06-07T09:53:07Z</time>
      </trkpt>
      <trkpt lat="47.9248360" lon="8.6388780">
        <ele>245.6</ele>
        <time>2022-06-07T09:53:11Z</time>
      </trkpt>
      <trkpt lat="47.9247160" lon="8.6391050">
        <ele>245.6</ele>
        <time>2022-06-07T09:53:15Z</time>
      </trkpt>
      <trkpt lat="47.9245930" lon="8.6393460">
        <ele>244.4</ele>
        <time>2022-06-07T09:53:19Z</time>
      </trkpt>
      <trkpt lat="47.9244700" lon="8.6395780">
        <ele>244.8</ele>
        <time>2022-06-07T09:53:23Z</time>
      </trkpt>
      <trkpt lat="47.9243630" lon="8.6398260">
        <ele>245.0</ele>
        <time>2022-06-07T09:53:27Z</time>
      </trkpt>
      <trkpt lat="47.9242560" lon="8.6400760">
        <ele>244.8</ele>
        <time>2022-06-07T09:53:31Z</time>
      </trkpt>
      <trkpt lat="47.9241400" lon="8.6403310">
        <ele>244.4</ele>
        <time>2022-06-07T09:53:35Z</time>
      </trkpt>
      <trkpt lat="47.9240260" lon="8.6405860">
        <ele>244.4</ele>
        <time>2022-06-07T09:53:39Z</time>
      </trkpt>
      <trkpt lat="47.9239350" lon="8.6408000">
        <ele>244.2</ele>
        <time>2022-06-07T09:53:43Z</time>
      </trkpt>
      <trkpt lat="47.9238110" lon="8.6409250">
        <ele>244.2</ele>
        <time>2022-06-07T09:53:47Z</time>
      </trkpt>
      <trkpt lat="47.9237160" lon="8.6411210">
        <ele>244.2</ele>
        <time>2022-06-07T09:53:51Z</time>
      </trkpt>
      <trkpt lat="47.9236900" lon="8.6414310">
        <ele>244.2</ele>
        <time>2022-06-07T09:53:55Z</time>
      </trkpt>
      <trkpt lat="47.9236410" lon="8.6417360">
        <ele>244.2</ele>
        <time>2022-06-07T09:53:59Z</time>
      </trkpt>
      <trkpt lat="47.9235760" lon="8.6420380">
        <ele>244.0</ele>
        <time>2022-06-07T09:54:03Z</time>
      </trkpt>
      <trkpt lat="47.9235250" lon="8.6423450">
        <ele>243.8</ele>
        <time>2022-06-07T09:54:07Z</time>
      </trkpt>
      <trkpt lat="47.9234750" lon="8.6426610">
        <ele>244.0</ele>
        <time>2022-06-07T09:54:11Z</time>
      </trkpt>
      <trkpt lat="47.9234180" lon="8.6429830">
        <ele>243.4</ele>
        <time>2022-06-07T09:54:15Z</time>
      </trkpt>
      <trkpt lat="47.9233750" lon="8.6432930">
        <ele>244.2</ele>
        <time>2022-06-07T09:54:19Z</time>
      </trkpt>
      <trkpt lat="47.9233310" lon="8.6435930">
        <ele>244.0</ele>
        <time>2022-06-07T09:54:23Z</time>
      </trkpt>
      <trkpt lat="47.9232980" lon="8.6438810">
        <ele>244.2</ele>
        <time>2022-06-07T09:54:27Z</time>
      </trkpt>
      <trkpt lat="47.9232710" lon="8.6441930">
        <ele>244.2</ele>
        <time>2022-06-07T09:54:31Z</time>
      </trkpt>
      <trkpt lat="47.9232230" lon="8.6445000">
        <ele>244.2</ele>
        <time>2022-06-07T09:54:35Z</time>
      </trkpt>
      <trkpt lat="47.9231430" lon="8.6448060">
        <ele>244.2</ele>
        <time>2022-06-07T09:54:39Z</time>
      </trkpt>
      <trkpt lat="47.9230860" lon="8.6451060">
        <ele>244.4</ele>
        <time>2022-06-07T09:54:43Z</time>
      </trkpt>
      <trkpt lat="47.9230130" lon="8.6454030">
        <ele>244.8</ele>
        <time>2022-06-07T09:54:47Z</time>
      </trkpt>
      <trkpt lat="47.9229250" lon="8.6456830">
        <ele>244.8</ele>
        <time>2022-06-07T09:54:51Z</time>
      </trkpt>
      <trkpt lat="47.9228600" lon="8.6459560">
        <ele>245.4</ele>
        <time>2022-06-07T09:54:55Z</time>
      </trkpt>
      <trkpt lat="47.9228250" lon="8.6462330">
        <ele>246.6</ele>
        <time>2022-06-07T09:54:59Z</time>
      </trkpt>
      <trkpt lat="47.9227910" lon="8.6464910">
        <ele>246.6</ele>
        <time>2022-06-07T09:55:03Z</time>
      </trkpt>
      <trkpt lat="47.9227460" lon="8.6467580">
        <ele>247.4</ele>
        <time>2022-06-07T09:55:07Z</time>
      </trkpt>
      <trkpt lat="47.9226910" lon="8.6470110">
        <ele>247.6</ele>
        <time>2022-06-07T09:55:11Z</time>
      </trkpt>
      <trkpt lat="47.9226500" lon="8.6472710">
        <ele>248.2</ele>
        <time>2022-06-07T09:55:15Z</time>
      </trkpt>
      <trkpt lat="47.9225810" lon="8.6474980">
        <ele>248.2</ele>
        <time>2022-06-07T09:55:19Z</time>
      </trkpt>
      <trkpt lat="47.9225280" lon="8.6476950">
        <ele>247.8</ele>
        <time>2022-06-07T09:55:23Z</time>
      </trkpt>
      <trkpt lat="47.9225110" lon="8.6479130">
        <ele>248.2</ele>
        <time>2022-06-07T09:55:27Z</time>
      </trkpt>
      <trkpt lat="47.9224860" lon="8.6481460">
        <ele>248.6</ele>
        <time>2022-06-07T09:55:31Z</time>
      </trkpt>
      <trkpt lat="47.9224500" lon="8.6483750">
        <ele>248.8</ele>
        <time>2022-06-07T09:55:35Z</time>
      </trkpt>
      <trkpt lat="47.9224180" lon="8.6486110">
        <ele>248.6</ele>
        <time>2022-06-07T09:55:39Z</time>
      </trkpt>
      <trkpt lat="47.9224010" lon="8.6488600">
        <ele>248.6</ele>
        <time>2022-06-07T09:55:43Z</time>
      </trkpt>
      <trkpt lat="47.9224050" lon="8.6491100">
        <ele>248.2</ele>
        <time>2022-06-07T09:55:47Z</time>
      </trkpt>
      <trkpt lat="47.9224080" lon="8.6493480">
        <ele>248.6</ele>
        <time>2022-06-07T09:55:51Z</time>
      </trkpt>
      <trkpt lat="47.9224150" lon="8.6495560">
        <ele>248.6</ele>
        <time>2022-06-07T09:55:55Z</time>
      </trkpt>
      <trkpt lat="47.9224160" lon="8.6497450">
        <ele>248.6</ele>
        <time>2022-06-07T09:55:59Z</time>
      </trkpt>
      <trkpt lat="47.9224200" lon="8.6499510">
        <ele>248.8</ele>
        <time>2022-06-07T09:56:03Z</time>
      </trkpt>
      <trkpt lat="47.9223980" lon="8.6501410">
        <ele>248.8</ele>
        <time>2022-06-07T09:56:07Z</time>
      </trkpt>
      <trkpt lat="47.9223100" lon="8.6503330">
        <ele>248.8</ele>
        <time>2022-06-07T09:56:11Z</time>
      </trkpt>
      <trkpt lat="47.9221780" lon="8.6505110">
        <ele>248.2</ele>
        <time>2022-06-07T09:56:15Z</time>
      </trkpt>
      <trkpt lat="47.9220260" lon="8.6506450">
        <ele>248.0</ele>
        <time>2022-06-07T09:56:19Z</time>
      </trkpt>
      <trkpt lat="47.9218610" lon="8.6507950">
        <ele>247.2</ele>
        <time>2022-06-07T09:56:23Z</time>
      </trkpt>
      <trkpt lat="47.9217160" lon="8.6509330">
        <ele>246.4</ele>
        <time>2022-06-07T09:56:27Z</time>
      </trkpt>
      <trkpt lat="47.9217160" lon="8.6509330">
        <ele>246.2</ele>
        <time>2022-06-07T09:56:31Z</time>
      </trkpt>
      <trkpt lat="47.9217160" lon="8.6509330">
        <ele>246.2</ele>
        <time>2022-06-07T09:56:35Z</time>
      </trkpt>
      <trkpt lat="47.9216700" lon="8.6509760">
        <ele>246.2</ele>
        <time>2022-06-07T09:56:39Z</time>
      </trkpt>
      <trkpt lat="47.9216030" lon="8.6510260">
        <ele>245.8</ele>
        <time>2022-06-07T09:56:43Z</time>
      </trkpt>
      <trkpt lat="47.9215410" lon="8.6510910">
        <ele>246.4</ele>
        <time>2022-06-07T09:56:47Z</time>
      </trkpt>
      <trkpt lat="47.9215410" lon="8.6510910">
        <ele>246.4</ele>
        <time>2022-06-07T09:56:51Z</time>
      </trkpt>
      <trkpt lat="47.9215410" lon="8.6510910">
        <ele>246.4</ele>
        <time>2022-06-07T09:56:55Z</time>
      </trkpt>
      <trkpt lat="47.9215410" lon="8.6510910">
        <ele>246.4</ele>
        <time>2022-06-07T09:56:59Z</time>
      </trkpt>
      <trkpt lat="47.9215410" lon="8.6510910">
        <ele>246.4</ele>
        <time>2022-06-07T09:57:03Z</time>
      </trkpt>
      <trkpt lat="47.9215410" lon="8.6510910">
        <ele>246.2</ele>
        <time>2022-06-07T09:57:07Z</time>
      </trkpt>
      <trkpt lat="47.9215410" lon="8.6510910">
        <ele>246.8</ele>
        <time>2022-06-07T09:57:11Z</time>
      </trkpt>
      <trkpt lat="47.9215410" lon="8.6510910">
        <ele>246.6</ele>
        <time>2022-06-07T09:57:15Z</time>
      </trkpt>
      <trkpt lat="47.9215410" lon="8.6510910">
        <ele>246.6</ele>
        <time>2022-06-07T09:57:19Z</time>
      </trkpt>
      <trkpt lat="47.9215410" lon="8.6510910">
        <ele>246.6</ele>
        <time>2022-06-07T09:57:23Z</time>
      </trkpt>
      <trkpt lat="47.9215410" lon="8.6510910">
        <ele>246.6</ele>
        <time>2022-06-07T09:57:27Z</time>
      </trkpt>
      <trkpt lat="47.9215410" lon="8.6510910">
        <ele>246.6</ele>
        <time>2022-06-07T09:57:31Z</time>
      </trkpt>
      <trkpt lat="47.9215410" lon="8.6510910">
        <ele>246.4</ele>
        <time>2022-06-07T09:57:35Z</time>
      </trkpt>
      <trkpt lat="47.9215410" lon="8.6510910">
        <ele>246.6</ele>
        <time>2022-06-07T09:57:39Z</time>
      </trkpt>
      <trkpt lat="47.9215410" lon="8.6510910">
        <ele>246.4</ele>
        <time>2022-06-07T09:57:43Z</time>
      </trkpt>
      <trkpt lat="47.9215410" lon="8.6510910">
        <ele>246.4</ele>
        <time>2022-06-07T09:57:47Z</time>
      </trkpt>
      <trkpt lat="47.9215410" lon="8.6510910">
        <ele>246.6</ele>
        <time>2022-06-07T09:57:51Z</time>
      </trkpt>
      <trkpt lat="47.9215410" lon="8.6510910">
        <ele>246.6</ele>
        <time>2022-06-07T09:57:55Z</time>
      </trkpt>
      <trkpt lat="47.9215410" lon="8.6510910">
        <ele>246.4</ele>
        <time>2022-06-07T09:57:59Z</time>
      </trkpt>
      <trkpt lat="47.9215410" lon="8.6510910">
        <ele>247.2</ele>
        <time>2022-06-07T09:58:03Z</time>
      </trkpt>
      <trkpt lat="47.9215410" lon="8.6510910">
        <ele>246.6</ele>
        <time>2022-06-07T09:58:07Z</time>
      </trkpt>
      <trkpt lat="47.9215410" lon="8.6510910">
        <ele>246.8</ele>
        <time>2022-06-07T09:58:11Z</time>
      </trkpt>
      <trkpt lat="47.9215410" lon="8.6510910">
        <ele>246.4</ele>
        <time>2022-06-07T09:58:15Z</time>
      </trkpt>
      <trkpt lat="47.9215410" lon="8.6510910">
        <ele>247.2</ele>
        <time>2022-06-07T09:58:19Z</time>
      </trkpt>
      <trkpt lat="47.9215410" lon="8.6510910">
        <ele>246.4</ele>
        <time>2022-06-07T09:58:23Z</time>
      </trkpt>
      <trkpt lat="47.9215410" lon="8.6510910">
        <ele>246.8</ele>
        <time>2022-06-07T09:58:27Z</time>
      </trkpt>
      <trkpt lat="47.9215250" lon="8.6511350">
        <ele>246.6</ele>
        <time>2022-06-07T09:58:31Z</time>
      </trkpt>
      <trkpt lat="47.9214710" lon="8.6511710">
        <ele>246.6</ele>
        <time>2022-06-07T09:58:35Z</time>
      </trkpt>
      <trkpt lat="47.9213730" lon="8.6512550">
        <ele>246.4</ele>
        <time>2022-06-07T09:58:39Z</time>
      </trkpt>
      <trkpt lat="47.9213730" lon="8.6512550">
        <ele>246.4</ele>
        <time>2022-06-07T09:58:43Z</time>
      </trkpt>
      <trkpt lat="47.9213730" lon="8.6512550">
        <ele>246.4</ele>
        <time>2022-06-07T09:58:47Z</time>
      </trkpt>
      <trkpt lat="47.9213730" lon="8.6512550">
        <ele>246.4</ele>
        <time>2022-06-07T09:58:51Z</time>
      </trkpt>
      <trkpt lat="47.9213730" lon="8.6512550">
        <ele>246.2</ele>
        <time>2022-06-07T09:58:55Z</time>
      </trkpt>
      <trkpt lat="47.9213730" lon="8.6512550">
        <ele>246.4</ele>
        <time>2022-06-07T09:58:59Z</time>
      </trkpt>
      <trkpt lat="47.9213730" lon="8.6512550">
        <ele>246.4</ele>
        <time>2022-06-07T09:59:03Z</time>
      </trkpt>
      <trkpt lat="47.9213280" lon="8.6512760">
        <ele>246.4</ele>
        <time>2022-06-07T09:59:07Z</time>
      </trkpt>
      <trkpt lat="47.9212800" lon="8.6513560">
        <ele>246.2</ele>
        <time>2022-06-07T09:59:11Z</time>
      </trkpt>
      <trkpt lat="47.9212260" lon="8.6515730">
        <ele>245.6</ele>
        <time>2022-06-07T09:59:15Z</time>
      </trkpt>
      <trkpt lat="47.9212200" lon="8.6518660">
        <ele>245.6</ele>
        <time>2022-06-07T09:59:19Z</time>
      </trkpt>
      <trkpt lat="47.9212150" lon="8.6521760">
        <ele>245.4</ele>
        <time>2022-06-07T09:59:23Z</time>
      </trkpt>
      <trkpt lat="47.9212100" lon="8.6525010">
        <ele>245.4</ele>
        <time>2022-06-07T09:59:27Z</time>
      </trkpt>
      <trkpt lat="47.9212010" lon="8.6528510">
        <ele>244.8</ele>
        <time>2022-06-07T09:59:31Z</time>
      </trkpt>
      <trkpt lat="47.9211910" lon="8.6532060">
        <ele>244.2</ele>
        <time>2022-06-07T09:59:35Z</time>
      </trkpt>
      <trkpt lat="47.9211880" lon="8.6535630">
        <ele>243.0</ele>
        <time>2022-06-07T09:59:39Z</time>
      </trkpt>
      <trkpt lat="47.9211860" lon="8.6539110">
        <ele>243.6</ele>
        <time>2022-06-07T09:59:43Z</time>
      </trkpt>
      <trkpt lat="47.9211700" lon="8.6542630">
        <ele>244.0</ele>
        <time>2022-06-07T09:59:47Z</time>
      </trkpt>
      <trkpt lat="47.9211560" lon="8.6546060">
        <ele>242.0</ele>
        <time>2022-06-07T09:59:51Z</time>
      </trkpt>
      <trkpt lat="47.9211510" lon="8.6549700">
        <ele>242.8</ele>
        <time>2022-06-07T09:59:55Z</time>
      </trkpt>
      <trkpt lat="47.9211460" lon="8.6553450">
        <ele>242.8</ele>
        <time>2022-06-07T09:59:59Z</time>
      </trkpt>
      <trkpt lat="47.9211750" lon="8.6557200">
        <ele>242.8</ele>
        <time>2022-06-07T10:00:03Z</time>
      </trkpt>
      <trkpt lat="47.9211910" lon="8.6560850">
        <ele>243.0</ele>
        <time>2022-06-07T10:00:07Z</time>
      </trkpt>
      <trkpt lat="47.9212130" lon="8.6564380">
        <ele>242.8</ele>
        <time>2022-06-07T10:00:11Z</time>
      </trkpt>
      <trkpt lat="47.9212200" lon="8.6567900">
        <ele>243.2</ele>
        <time>2022-06-07T10:00:15Z</time>
      </trkpt>
      <trkpt lat="47.9212230" lon="8.6571300">
        <ele>242.4</ele>
        <time>2022-06-07T10:00:19Z</time>
      </trkpt>
      <trkpt lat="47.9212210" lon="8.6574760">
        <ele>242.4</ele>
        <time>2022-06-07T10:00:23Z</time>
      </trkpt>
      <trkpt lat="47.9212230" lon="8.6578110">
        <ele>242.6</ele>
        <time>2022-06-07T10:00:27Z</time>
      </trkpt>
      <trkpt lat="47.9212350" lon="8.6581180">
        <ele>243.4</ele>
        <time>2022-06-07T10:00:31Z</time>
      </trkpt>
      <trkpt lat="47.9212430" lon="8.6584350">
        <ele>243.4</ele>
        <time>2022-06-07T10:00:35Z</time>
      </trkpt>
      <trkpt lat="47.9212530" lon="8.6587500">
        <ele>244.4</ele>
        <time>2022-06-07T10:00:39Z</time>
      </trkpt>
      <trkpt lat="47.9212630" lon="8.6590480">
        <ele>244.0</ele>
        <time>2022-06-07T10:00:43Z</time>
      </trkpt>
      <trkpt lat="47.9212610" lon="8.6593530">
        <ele>243.4</ele>
        <time>2022-06-07T10:00:47Z</time>
      </trkpt>
      <trkpt lat="47.9212500" lon="8.6597100">
        <ele>243.0</ele>
        <time>2022-06-07T10:00:51Z</time>
      </trkpt>
      <trkpt lat="47.9212400" lon="8.6600780">
        <ele>242.2</ele>
        <time>2022-06-07T10:00:55Z</time>
      </trkpt>
      <trkpt lat="47.9212360" lon="8.6604280">
        <ele>242.6</ele>
        <time>2022-06-07T10:00:59Z</time>
      </trkpt>
      <trkpt lat="47.9212330" lon="8.6607680">
        <ele>243.0</ele>
        <time>2022-06-07T10:01:03Z</time>
      </trkpt>
      <trkpt lat="47.9212280" lon="8.6611130">
        <ele>242.8</ele>
        <time>2022-06-07T10:01:07Z</time>
      </trkpt>
      <trkpt lat="47.9212280" lon="8.6614510">
        <ele>242.4</ele>
        <time>2022-06-07T10:01:11Z</time>
      </trkpt>
      <trkpt lat="47.9212250" lon="8.6617950">
        <ele>242.4</ele>
        <time>2022-06-07T10:01:15Z</time>
      </trkpt>
      <trkpt lat="47.9212230" lon="8.6621480">
        <ele>241.6</ele>
        <time>2022-06-07T10:01:19Z</time>
      </trkpt>
      <trkpt lat="47.9212280" lon="8.6624930">
        <ele>241.8</ele>
        <time>2022-06-07T10:01:23Z</time>
      </trkpt>
      <trkpt lat="47.9212400" lon="8.6628410">
        <ele>242.4</ele>
        <time>2022-06-07T10:01:27Z</time>
      </trkpt>
      <trkpt lat="47.9212630" lon="8.6631950">
        <ele>242.6</ele>
        <time>2022-06-07T10:01:31Z</time>
      </trkpt>
      <trkpt lat="47.9212850" lon="8.6635450">
        <ele>243.0</ele>
        <time>2022-06-07T10:01:35Z</time>
      </trkpt>
      <trkpt lat="47.9213100" lon="8.6639010">
        <ele>242.4</ele>
        <time>2022-06-07T10:01:39Z</time>
      </trkpt>
      <trkpt lat="47.9213400" lon="8.6642410">
        <ele>243.2</ele>
        <time>2022-06-07T10:01:43Z</time>
      </trkpt>
      <trkpt lat="47.9213860" lon="8.6645780">
        <ele>242.2</ele>
        <time>2022-06-07T10:01:47Z</time>
      </trkpt>
      <trkpt lat="47.9214360" lon="8.6649350">
        <ele>242.0</ele>
        <time>2022-06-07T10:01:51Z</time>
      </trkpt>
      <trkpt lat="47.9214960" lon="8.6652880">
        <ele>242.6</ele>
        <time>2022-06-07T10:01:55Z</time>
      </trkpt>
      <trkpt lat="47.9215580" lon="8.6656350">
        <ele>241.8</ele>
        <time>2022-06-07T10:01:59Z</time>
      </trkpt>
      <trkpt lat="47.9216280" lon="8.6659810">
        <ele>242.2</ele>
        <time>2022-06-07T10:02:03Z</time>
      </trkpt>
      <trkpt lat="47.9217100" lon="8.6663030">
        <ele>242.0</ele>
        <time>2022-06-07T10:02:07Z</time>
      </trkpt>
      <trkpt lat="47.9217910" lon="8.6666210">
        <ele>242.8</ele>
        <time>2022-06-07T10:02:11Z</time>
      </trkpt>
      <trkpt lat="47.9218750" lon="8.6669260">
        <ele>242.4</ele>
        <time>2022-06-07T10:02:15Z</time>
      </trkpt>
      <trkpt lat="47.9219610" lon="8.6672200">
        <ele>242.0</ele>
        <time>2022-06-07T10:02:19Z</time>
      </trkpt>
      <trkpt lat="47.9220530" lon="8.6675180">
        <ele>242.2</ele>
        <time>2022-06-07T10:02:23Z</time>
      </trkpt>
      <trkpt lat="47.9221430" lon="8.6678250">
        <ele>241.8</ele>
        <time>2022-06-07T10:02:27Z</time>
      </trkpt>
      <trkpt lat="47.9222330" lon="8.6681310">
        <ele>242.4</ele>
        <time>2022-06-07T10:02:31Z</time>
      </trkpt>
      <trkpt lat="47.9223080" lon="8.6684210">
        <ele>243.0</ele>
        <time>2022-06-07T10:02:35Z</time>
      </trkpt>
      <trkpt lat="47.9223980" lon="8.6686860">
        <ele>243.0</ele>
        <time>2022-06-07T10:02:39Z</time>
      </trkpt>
      <trkpt lat="47.9225010" lon="8.6689600">
        <ele>243.4</ele>
        <time>2022-06-07T10:02:43Z</time>
      </trkpt>
      <trkpt lat="47.9225850" lon="8.6692410">
        <ele>244.0</ele>
        <time>2022-06-07T10:02:47Z</time>
      </trkpt>
      <trkpt lat="47.9226480" lon="8.6695180">
        <ele>243.8</ele>
        <time>2022-06-07T10:02:51Z</time>
      </trkpt>
      <trkpt lat="47.9227060" lon="8.6698100">
        <ele>244.8</ele>
        <time>2022-06-07T10:02:55Z</time>
      </trkpt>
      <trkpt lat="47.9228080" lon="8.6700900">
        <ele>244.4</ele>
        <time>2022-06-07T10:02:59Z</time>
      </trkpt>
      <trkpt lat="47.9228810" lon="8.6703380">
        <ele>245.0</ele>
        <time>2022-06-07T10:03:03Z</time>
      </trkpt>
      <trkpt lat="47.9229450" lon="8.6706000">
        <ele>245.6</ele>
        <time>2022-06-07T10:03:07Z</time>
      </trkpt>
      <trkpt lat="47.9230110" lon="8.6708780">
        <ele>246.4</ele>
        <time>2022-06-07T10:03:11Z</time>
      </trkpt>
      <trkpt lat="47.9230910" lon="8.6711380">
        <ele>245.8</ele>
        <time>2022-06-07T10:03:15Z</time>
      </trkpt>
      <trkpt lat="47.9231800" lon="8.6714130">
        <ele>246.4</ele>
        <time>2022-06-07T10:03:19Z</time>
      </trkpt>
      <trkpt lat="47.9232680" lon="8.6717050">
        <ele>245.6</ele>
        <time>2022-06-07T10:03:23Z</time>
      </trkpt>
      <trkpt lat="47.9233560" lon="8.6720060">
        <ele>245.2</ele>
        <time>2022-06-07T10:03:27Z</time>
      </trkpt>
      <trkpt lat="47.9234530" lon="8.6723160">
        <ele>244.6</ele>
        <time>2022-06-07T10:03:31Z</time>
      </trkpt>
      <trkpt lat="47.9235560" lon="8.6726300">
        <ele>244.8</ele>
        <time>2022-06-07T10:03:35Z</time>
      </trkpt>
      <trkpt lat="47.9236550" lon="8.6729580">
        <ele>243.4</ele>
        <time>2022-06-07T10:03:39Z</time>
      </trkpt>
      <trkpt lat="47.9237560" lon="8.6732710">
        <ele>242.8</ele>
        <time>2022-06-07T10:03:43Z</time>
      </trkpt>
      <trkpt lat="47.9238530" lon="8.6736010">
        <ele>242.2</ele>
        <time>2022-06-07T10:03:47Z</time>
      </trkpt>
      <trkpt lat="47.9239560" lon="8.6739350">
        <ele>242.4</ele>
        <time>2022-06-07T10:03:51Z</time>
      </trkpt>
      <trkpt lat="47.9240660" lon="8.6742700">
        <ele>241.4</ele>
        <time>2022-06-07T10:03:55Z</time>
      </trkpt>
      <trkpt lat="47.9241700" lon="8.6746080">
        <ele>241.0</ele>
        <time>2022-06-07T10:03:59Z</time>
      </trkpt>
      <trkpt lat="47.9242600" lon="8.6749330">
        <ele>242.0</ele>
        <time>2022-06-07T10:04:03Z</time>
      </trkpt>
      <trkpt lat="47.9243560" lon="8.6752660">
        <ele>242.4</ele>
        <time>2022-06-07T10:04:07Z</time>
      </trkpt>
      <trkpt lat="47.9244630" lon="8.6755900">
        <ele>241.2</ele>
        <time>2022-06-07T10:04:11Z</time>
      </trkpt>
      <trkpt lat="47.9245510" lon="8.6759280">
        <ele>241.2</ele>
        <time>2022-06-07T10:04:15Z</time>
      </trkpt>
      <trkpt lat="47.9246500" lon="8.6762650">
        <ele>240.8</ele>
        <time>2022-06-07T10:04:19Z</time>
      </trkpt>
      <trkpt lat="47.9247250" lon="8.6765830">
        <ele>241.0</ele>
        <time>2022-06-07T10:04:23Z</time>
      </trkpt>
      <trkpt lat="47.9248180" lon="8.6769030">
        <ele>240.6</ele>
        <time>2022-06-07T10:04:27Z</time>
      </trkpt>
      <trkpt lat="47.9249150" lon="8.6772400">
        <ele>240.6</ele>
        <time>2022-06-07T10:04:31Z</time>
      </trkpt>
      <trkpt lat="47.9250100" lon="8.6775580">
        <ele>242.0</ele>
        <time>2022-06-07T10:04:35Z</time>
      </trkpt>
      <trkpt lat="47.9250960" lon="8.6778630">
        <ele>241.8</ele>
        <time>2022-06-07T10:04:39Z</time>
      </trkpt>
      <trkpt lat="47.9251780" lon="8.6781730">
        <ele>242.2</ele>
        <time>2022-06-07T10:04:43Z</time>
      </trkpt>
      <trkpt lat="47.9252660" lon="8.6784830">
        <ele>241.2</ele>
        <time>2022-06-07T10:04:47Z</time>
      </trkpt>
      <trkpt lat="47.9253450" lon="8.6787850">
        <ele>242.0</ele>
        <time>2022-06-07T10:04:51Z</time>
      </trkpt>
      <trkpt lat="47.9254160" lon="8.6790960">
        <ele>241.6</ele>
        <time>2022-06-07T10:04:55Z</time>
      </trkpt>
      <trkpt lat="47.9254930" lon="8.6794050">
        <ele>241.6</ele>
        <time>2022-06-07T10:04:59Z</time>
      </trkpt>
      <trkpt lat="47.9255630" lon="8.6797100">
        <ele>241.4</ele>
        <time>2022-06-07T10:05:03Z</time>
      </trkpt>
      <trkpt lat="47.9256310" lon="8.6800210">
        <ele>241.0</ele>
        <time>2022-06-07T10:05:07Z</time>
      </trkpt>
      <trkpt lat="47.9256760" lon="8.6803500">
        <ele>240.6</ele>
        <time>2022-06-07T10:05:11Z</time>
      </trkpt>
      <trkpt lat="47.9257210" lon="8.6806850">
        <ele>240.4</ele>
        <time>2022-06-07T10:05:15Z</time>
      </trkpt>
      <trkpt lat="47.9257630" lon="8.6810260">
        <ele>240.4</ele>
        <time>2022-06-07T10:05:19Z</time>
      </trkpt>
      <trkpt lat="47.9257900" lon="8.6813750">
        <ele>240.6</ele>
        <time>2022-06-07T10:05:23Z</time>
      </trkpt>
      <trkpt lat="47.9257580" lon="8.6816930">
        <ele>241.2</ele>
        <time>2022-06-07T10:05:27Z</time>
      </trkpt>
      <trkpt lat="47.9256210" lon="8.6819280">
        <ele>239.6</ele>
        <time>2022-06-07T10:05:31Z</time>
      </trkpt>
      <trkpt lat="47.9254360" lon="8.6821860">
        <ele>238.2</ele>
        <time>2022-06-07T10:05:35Z</time>
      </trkpt>
      <trkpt lat="47.9253480" lon="8.6825200">
        <ele>238.6</ele>
        <time>2022-06-07T10:05:39Z</time>
      </trkpt>
      <trkpt lat="47.9254530" lon="8.6827880">
        <ele>239.4</ele>
        <time>2022-06-07T10:05:43Z</time>
      </trkpt>
      <trkpt lat="47.9255680" lon="8.6830360">
        <ele>239.6</ele>
        <time>2022-06-07T10:05:47Z</time>
      </trkpt>
      <trkpt lat="47.9256780" lon="8.6832930">
        <ele>239.8</ele>
        <time>2022-06-07T10:05:51Z</time>
      </trkpt>
      <trkpt lat="47.9257750" lon="8.6835550">
        <ele>240.2</ele>
        <time>2022-06-07T10:05:55Z</time>
      </trkpt>
      <trkpt lat="47.9258600" lon="8.6838250">
        <ele>240.2</ele>
        <time>2022-06-07T10:05:59Z</time>
      </trkpt>
      <trkpt lat="47.9259400" lon="8.6841010">
        <ele>240.2</ele>
        <time>2022-06-07T10:06:03Z</time>
      </trkpt>
      <trkpt lat="47.9260080" lon="8.6843850">
        <ele>240.4</ele>
        <time>2022-06-07T10:06:07Z</time>
      </trkpt>
      <trkpt lat="47.9260660" lon="8.6846860">
        <ele>240.8</ele>
        <time>2022-06-07T10:06:11Z</time>
      </trkpt>
      <trkpt lat="47.9261200" lon="8.6849880">
        <ele>240.8</ele>
        <time>2022-06-07T10:06:15Z</time>
      </trkpt>
      <trkpt lat="47.9261580" lon="8.6852800">
        <ele>241.6</ele>
        <time>2022-06-07T10:06:19Z</time>
      </trkpt>
      <trkpt lat="47.9261750" lon="8.6855260">
        <ele>242.4</ele>
        <time>2022-06-07T10:06:23Z</time>
      </trkpt>
      <trkpt lat="47.9261960" lon="8.6857950">
        <ele>242.0</ele>
        <time>2022-06-07T10:06:27Z</time>
      </trkpt>
      <trkpt lat="47.9262150" lon="8.6860810">
        <ele>242.0</ele>
        <time>2022-06-07T10:06:31Z</time>
      </trkpt>
      <trkpt lat="47.9261560" lon="8.6863210">
        <ele>242.2</ele>
        <time>2022-06-07T10:06:35Z</time>
      </trkpt>
      <trkpt lat="47.9260410" lon="8.6865610">
        <ele>241.0</ele>
        <time>2022-06-07T10:06:39Z</time>
      </trkpt>
      <trkpt lat="47.9260060" lon="8.6869230">
        <ele>240.4</ele>
        <time>2022-06-07T10:06:43Z</time>
      </trkpt>
      <trkpt lat="47.9261030" lon="8.6872250">
        <ele>241.2</ele>
        <time>2022-06-07T10:06:47Z</time>
      </trkpt>
      <trkpt lat="47.9261800" lon="8.6874610">
        <ele>242.0</ele>
        <time>2022-06-07T10:06:51Z</time>
      </trkpt>
      <trkpt lat="47.9261360" lon="8.6876860">
        <ele>241.6</ele>
        <time>2022-06-07T10:06:55Z</time>
      </trkpt>
      <trkpt lat="47.9259980" lon="8.6878260">
        <ele>241.8</ele>
        <time>2022-06-07T10:06:59Z</time>
      </trkpt>
      <trkpt lat="47.9258150" lon="8.6878660">
        <ele>241.4</ele>
        <time>2022-06-07T10:07:03Z</time>
      </trkpt>
      <trkpt lat="47.9256260" lon="8.6878900">
        <ele>241.0</ele>
        <time>2022-06-07T10:07:07Z</time>
      </trkpt>
      <trkpt lat="47.9254610" lon="8.6879010">
        <ele>240.0</ele>
        <time>2022-06-07T10:07:11Z</time>
      </trkpt>
      <trkpt lat="47.9254610" lon="8.6879010">
        <ele>239.6</ele>
        <time>2022-06-07T10:07:15Z</time>
      </trkpt>
      <trkpt lat="47.9254610" lon="8.6879010">
        <ele>240.0</ele>
        <time>2022-06-07T10:07:19Z</time>
      </trkpt>
      <trkpt lat="47.9254610" lon="8.6879010">
        <ele>240.0</ele>
        <time>2022-06-07T10:07:23Z</time>
      </trkpt>
      <trkpt lat="47.9254000" lon="8.6878960">
        <ele>240.0</ele>
        <time>2022-06-07T10:07:27Z</time>
      </trkpt>
      <trkpt lat="47.9253310" lon="8.6879630">
        <ele>240.0</ele>
        <time>2022-06-07T10:07:31Z</time>
      </trkpt>
      <trkpt lat="47.9253450" lon="8.6881600">
        <ele>239.4</ele>
        <time>2022-06-07T10:07:35Z</time>
      </trkpt>
      <trkpt lat="47.9254000" lon="8.6883880">
        <ele>239.2</ele>
        <time>2022-06-07T10:07:39Z</time>
      </trkpt>
      <trkpt lat="47.9254410" lon="8.6886180">
        <ele>239.2</ele>
        <time>2022-06-07T10:07:43Z</time>
      </trkpt>
      <trkpt lat="47.9254660" lon="8.6888610">
        <ele>240.0</ele>
        <time>2022-06-07T10:07:47Z</time>
      </trkpt>
      <trkpt lat="47.9254880" lon="8.6890900">
        <ele>239.8</ele>
        <time>2022-06-07T10:07:51Z</time>
      </trkpt>
      <trkpt lat="47.9254910" lon="8.6893200">
        <ele>240.2</ele>
        <time>2022-06-07T10:07:55Z</time>
      </trkpt>
      <trkpt lat="47.9254580" lon="8.6895850">
        <ele>239.2</ele>
        <time>2022-06-07T10:07:59Z</time>
      </trkpt>
      <trkpt lat="47.9254210" lon="8.6898710">
        <ele>239.8</ele>
        <time>2022-06-07T10:08:03Z</time>
      </trkpt>
      <trkpt lat="47.9253760" lon="8.6901450">
        <ele>239.8</ele>
        <time>2022-06-07T10:08:07Z</time>
      </trkpt>
      <trkpt lat="47.9253300" lon="8.6904160">
        <ele>240.0</ele>
        <time>2022-06-07T10:08:11Z</time>
      </trkpt>
      <trkpt lat="47.9252760" lon="8.6906860">
        <ele>239.6</ele>
        <time>2022-06-07T10:08:15Z</time>
      </trkpt>
      <trkpt lat="47.9252180" lon="8.6909610">
        <ele>239.8</ele>
        <time>2022-06-07T10:08:19Z</time>
      </trkpt>
      <trkpt lat="47.9251650" lon="8.6912360">
        <ele>240.0</ele>
        <time>2022-06-07T10:08:23Z</time>
      </trkpt>
      <trkpt lat="47.9251060" lon="8.6915210">
        <ele>239.4</ele>
        <time>2022-06-07T10:08:27Z</time>
      </trkpt>
      <trkpt lat="47.9250500" lon="8.6918030">
        <ele>239.6</ele>
        <time>2022-06-07T10:08:31Z</time>
      </trkpt>
      <trkpt lat="47.9249930" lon="8.6920850">
        <ele>239.6</ele>
        <time>2022-06-07T10:08:35Z</time>
      </trkpt>
      <trkpt lat="47.9249450" lon="8.6923650">
        <ele>239.4</ele>
        <time>2022-06-07T10:08:39Z</time>
      </trkpt>
      <trkpt lat="47.9249130" lon="8.6926460">
        <ele>239.4</ele>
        <time>2022-06-07T10:08:43Z</time>
      </trkpt>
      <trkpt lat="47.9248950" lon="8.6929430">
        <ele>239.8</ele>
        <time>2022-06-07T10:08:47Z</time>
      </trkpt>
      <trkpt lat="47.9249000" lon="8.6932460">
        <ele>240.0</ele>
        <time>2022-06-07T10:08:51Z</time>
      </trkpt>
      <trkpt lat="47.9249180" lon="8.6935600">
        <ele>240.0</ele>
        <time>2022-06-07T10:08:55Z</time>
      </trkpt>
      <trkpt lat="47.9249530" lon="8.6938660">
        <ele>240.0</ele>
        <time>2022-06-07T10:08:59Z</time>
      </trkpt>
      <trkpt lat="47.9250230" lon="8.6941600">
        <ele>240.0</ele>
        <time>2022-06-07T10:09:03Z</time>
      </trkpt>
      <trkpt lat="47.9251060" lon="8.6944360">
        <ele>240.0</ele>
        <time>2022-06-07T10:09:07Z</time>
      </trkpt>
      <trkpt lat="47.9251560" lon="8.6947130">
        <ele>239.6</ele>
        <time>2022-06-07T10:09:11Z</time>
      </trkpt>
      <trkpt lat="47.9250910" lon="8.6949910">
        <ele>239.4</ele>
        <time>2022-06-07T10:09:15Z</time>
      </trkpt>
      <trkpt lat="47.9251010" lon="8.6953030">
        <ele>239.6</ele>
        <time>2022-06-07T10:09:19Z</time>
      </trkpt>
      <trkpt lat="47.9251260" lon="8.6956210">
        <ele>239.6</ele>
        <time>2022-06-07T10:09:23Z</time>
      </trkpt>
      <trkpt lat="47.9251550" lon="8.6959430">
        <ele>239.4</ele>
        <time>2022-06-07T10:09:27Z</time>
      </trkpt>
      <trkpt lat="47.9251630" lon="8.6962430">
        <ele>240.4</ele>
        <time>2022-06-07T10:09:31Z</time>
      </trkpt>
      <trkpt lat="47.9251560" lon="8.6964680">
        <ele>241.6</ele>
        <time>2022-06-07T10:09:35Z</time>
      </trkpt>
      <trkpt lat="47.9251060" lon="8.6966100">
        <ele>242.6</ele>
        <time>2022-06-07T10:09:39Z</time>
      </trkpt>
      <trkpt lat="47.9249810" lon="8.6967100">
        <ele>243.0</ele>
        <time>2022-06-07T10:09:43Z</time>
      </trkpt>
      <trkpt lat="47.9248660" lon="8.6968250">
        <ele>243.2</ele>
        <time>2022-06-07T10:09:47Z</time>
      </trkpt>
      <trkpt lat="47.9247480" lon="8.6969350">
        <ele>244.0</ele>
        <time>2022-06-07T10:09:51Z</time>
      </trkpt>
      <trkpt lat="47.9246480" lon="8.6970830">
        <ele>244.8</ele>
        <time>2022-06-07T10:09:55Z</time>
      </trkpt>
      <trkpt lat="47.9246330" lon="8.6972700">
        <ele>245.4</ele>
        <time>2022-06-07T10:09:59Z</time>
      </trkpt>
      <trkpt lat="47.9247160" lon="8.6974260">
        <ele>245.2</ele>
        <time>2022-06-07T10:10:03Z</time>
      </trkpt>
      <trkpt lat="47.9248250" lon="8.6976150">
        <ele>244.8</ele>
        <time>2022-06-07T10:10:07Z</time>
      </trkpt>
      <trkpt lat="47.9249560" lon="8.6978080">
        <ele>244.2</ele>
        <time>2022-06-07T10:10:11Z</time>
      </trkpt>
      <trkpt lat="47.9251010" lon="8.6980030">
        <ele>243.8</ele>
        <time>2022-06-07T10:10:15Z</time>
      </trkpt>
      <trkpt lat="47.9252430" lon="8.6982010">
        <ele>244.2</ele>
        <time>2022-06-07T10:10:19Z</time>
      </trkpt>
      <trkpt lat="47.9253460" lon="8.6984350">
        <ele>244.2</ele>
        <time>2022-06-07T10:10:23Z</time>
      </trkpt>
      <trkpt lat="47.9254180" lon="8.6987000">
        <ele>243.4</ele>
        <time>2022-06-07T10:10:27Z</time>
      </trkpt>
      <trkpt lat="47.9255400" lon="8.6989250">
        <ele>243.4</ele>
        <time>2022-06-07T10:10:31Z</time>
      </trkpt>
      <trkpt lat="47.9256280" lon="8.6992000">
        <ele>242.4</ele>
        <time>2022-06-07T10:10:35Z</time>
      </trkpt>
      <trkpt lat="47.9257050" lon="8.6995050">
        <ele>243.0</ele>
        <time>2022-06-07T10:10:39Z</time>
      </trkpt>
      <trkpt lat="47.9258060" lon="8.6998310">
        <ele>242.0</ele>
        <time>2022-06-07T10:10:43Z</time>
      </trkpt>
      <trkpt lat="47.9259130" lon="8.7001600">
        <ele>241.6</ele>
        <time>2022-06-07T10:10:47Z</time>
      </trkpt>
      <trkpt lat="47.9260200" lon="8.7004910">
        <ele>241.6</ele>
        <time>2022-06-07T10:10:51Z</time>
      </trkpt>
      <trkpt lat="47.9261310" lon="8.7008230">
        <ele>240.6</ele>
        <time>2022-06-07T10:10:55Z</time>
      </trkpt>
      <trkpt lat="47.9262530" lon="8.7011460">
        <ele>241.0</ele>
        <time>2022-06-07T10:10:59Z</time>
      </trkpt>
      <trkpt lat="47.9263760" lon="8.7014580">
        <ele>241.4</ele>
        <time>2022-06-07T10:11:03Z</time>
      </trkpt>
      <trkpt lat="47.9264950" lon="8.7017780">
        <ele>241.0</ele>
        <time>2022-06-07T10:11:07Z</time>
      </trkpt>
      <trkpt lat="47.9266130" lon="8.7020800">
        <ele>240.4</ele>
        <time>2022-06-07T10:11:11Z</time>
      </trkpt>
      <trkpt lat="47.9267560" lon="8.7023360">
        <ele>240.6</ele>
        <time>2022-06-07T10:11:15Z</time>
      </trkpt>
      <trkpt lat="47.9269200" lon="8.7025560">
        <ele>240.0</ele>
        <time>2022-06-07T10:11:19Z</time>
      </trkpt>
      <trkpt lat="47.9271130" lon="8.7027580">
        <ele>240.0</ele>
        <time>2022-06-07T10:11:23Z</time>
      </trkpt>
      <trkpt lat="47.9273100" lon="8.7029730">
        <ele>239.0</ele>
        <time>2022-06-07T10:11:27Z</time>
      </trkpt>
      <trkpt lat="47.9275060" lon="8.7031900">
        <ele>238.6</ele>
        <time>2022-06-07T10:11:31Z</time>
      </trkpt>
      <trkpt lat="47.9277110" lon="8.7034010">
        <ele>239.0</ele>
        <time>2022-06-07T10:11:35Z</time>
      </trkpt>
      <trkpt lat="47.9279130" lon="8.7036210">
        <ele>239.2</ele>
        <time>2022-06-07T10:11:39Z</time>
      </trkpt>
      <trkpt lat="47.9281100" lon="8.7038360">
        <ele>238.6</ele>
        <time>2022-06-07T10:11:43Z</time>
      </trkpt>
      <trkpt lat="47.9282960" lon="8.7040510">
        <ele>239.2</ele>
        <time>2022-06-07T10:11:47Z</time>
      </trkpt>
      <trkpt lat="47.9284810" lon="8.7042610">
        <ele>239.2</ele>
        <time>2022-06-07T10:11:51Z</time>
      </trkpt>
      <trkpt lat="47.9286030" lon="8.7045330">
        <ele>239.2</ele>
        <time>2022-06-07T10:11:55Z</time>
      </trkpt>
      <trkpt lat="47.9286630" lon="8.7048410">
        <ele>239.6</ele>
        <time>2022-06-07T10:11:59Z</time>
      </trkpt>
      <trkpt lat="47.9287160" lon="8.7051260">
        <ele>240.4</ele>
        <time>2022-06-07T10:12:03Z</time>
      </trkpt>
      <trkpt lat="47.9287800" lon="8.7053480">
        <ele>241.6</ele>
        <time>2022-06-07T10:12:07Z</time>
      </trkpt>
      <trkpt lat="47.9288460" lon="8.7055360">
        <ele>242.4</ele>
        <time>2022-06-07T10:12:11Z</time>
      </trkpt>
      <trkpt lat="47.9289280" lon="8.7057330">
        <ele>242.4</ele>
        <time>2022-06-07T10:12:15Z</time>
      </trkpt>
      <trkpt lat="47.9290100" lon="8.7059610">
        <ele>243.2</ele>
        <time>2022-06-07T10:12:19Z</time>
      </trkpt>
      <trkpt lat="47.9291080" lon="8.7061900">
        <ele>242.0</ele>
        <time>2022-06-07T10:12:23Z</time>
      </trkpt>
      <trkpt lat="47.9292110" lon="8.7064400">
        <ele>242.2</ele>
        <time>2022-06-07T10:12:27Z</time>
      </trkpt>
      <trkpt lat="47.9293130" lon="8.7067050">
        <ele>242.4</ele>
        <time>2022-06-07T10:12:31Z</time>
      </trkpt>
      <trkpt lat="47.9294030" lon="8.7069700">
        <ele>242.2</ele>
        <time>2022-06-07T10:12:35Z</time>
      </trkpt>
      <trkpt lat="47.9294760" lon="8.7072530">
        <ele>242.4</ele>
        <time>2022-06-07T10:12:39Z</time>
      </trkpt>
      <trkpt lat="47.9295450" lon="8.7075380">
        <ele>242.6</ele>
        <time>2022-06-07T10:12:43Z</time>
      </trkpt>
      <trkpt lat="47.9296100" lon="8.7078180">
        <ele>242.6</ele>
        <time>2022-06-07T10:12:47Z</time>
      </trkpt>
      <trkpt lat="47.9296850" lon="8.7080880">
        <ele>242.2</ele>
        <time>2022-06-07T10:12:51Z</time>
      </trkpt>
      <trkpt lat="47.9297780" lon="8.7083650">
        <ele>242.0</ele>
        <time>2022-06-07T10:12:55Z</time>
      </trkpt>
      <trkpt lat="47.9298830" lon="8.7086360">
        <ele>241.2</ele>
        <time>2022-06-07T10:12:59Z</time>
      </trkpt>
      <trkpt lat="47.9299680" lon="8.7089430">
        <ele>240.8</ele>
        <time>2022-06-07T10:13:03Z</time>
      </trkpt>
      <trkpt lat="47.9300500" lon="8.7092960">
        <ele>240.0</ele>
        <time>2022-06-07T10:13:07Z</time>
      </trkpt>
      <trkpt lat="47.9301160" lon="8.7096480">
        <ele>239.6</ele>
        <time>2022-06-07T10:13:11Z</time>
      </trkpt>
      <trkpt lat="47.9301880" lon="8.7099800">
        <ele>239.8</ele>
        <time>2022-06-07T10:13:15Z</time>
      </trkpt>
      <trkpt lat="47.9302530" lon="8.7102730">
        <ele>241.0</ele>
        <time>2022-06-07T10:13:19Z</time>
      </trkpt>
      <trkpt lat="47.9303310" lon="8.7104910">
        <ele>241.2</ele>
        <time>2022-06-07T10:13:23Z</time>
      </trkpt>
      <trkpt lat="47.9303930" lon="8.7106400">
        <ele>241.6</ele>
        <time>2022-06-07T10:13:27Z</time>
      </trkpt>
      <trkpt lat="47.9304980" lon="8.7107030">
        <ele>241.0</ele>
        <time>2022-06-07T10:13:31Z</time>
      </trkpt>
      <trkpt lat="47.9305700" lon="8.7106650">
        <ele>240.8</ele>
        <time>2022-06-07T10:13:35Z</time>
      </trkpt>
      <trkpt lat="47.9305700" lon="8.7106650">
        <ele>241.0</ele>
        <time>2022-06-07T10:13:39Z</time>
      </trkpt>
      <trkpt lat="47.9305880" lon="8.7106450">
        <ele>241.2</ele>
        <time>2022-06-07T10:13:43Z</time>
      </trkpt>
      <trkpt lat="47.9306560" lon="8.7106050">
        <ele>241.6</ele>
        <time>2022-06-07T10:13:47Z</time>
      </trkpt>
      <trkpt lat="47.9307300" lon="8.7105350">
        <ele>241.2</ele>
        <time>2022-06-07T10:13:51Z</time>
      </trkpt>
      <trkpt lat="47.9308080" lon="8.7104560">
        <ele>240.8</ele>
        <time>2022-06-07T10:13:55Z</time>
      </trkpt>
      <trkpt lat="47.9309230" lon="8.7104060">
        <ele>239.8</ele>
        <time>2022-06-07T10:13:59Z</time>
      </trkpt>
      <trkpt lat="47.9310280" lon="8.7103980">
        <ele>238.2</ele>
        <time>2022-06-07T10:14:03Z</time>
      </trkpt>
      <trkpt lat="47.9310580" lon="8.7104900">
        <ele>237.6</ele>
        <time>2022-06-07T10:14:07Z</time>
      </trkpt>
      <trkpt lat="47.9310580" lon="8.7104900">
        <ele>237.6</ele>
        <time>2022-06-07T10:14:11Z</time>
      </trkpt>
      <trkpt lat="47.9310580" lon="8.7104900">
        <ele>237.6</ele>
        <time>2022-06-07T10:14:15Z</time>
      </trkpt>
      <trkpt lat="47.9310580" lon="8.7104900">
        <ele>237.6</ele>
        <time>2022-06-07T10:14:19Z</time>
      </trkpt>
      <trkpt lat="47.9310580" lon="8.7104900">
        <ele>237.8</ele>
        <time>2022-06-07T10:14:23Z</time>
      </trkpt>
      <trkpt lat="47.9310580" lon="8.7104900">
        <ele>237.6</ele>
        <time>2022-06-07T10:14:27Z</time>
      </trkpt>
      <trkpt lat="47.9310660" lon="8.7105130">
        <ele>237.6</ele>
        <time>2022-06-07T10:14:31Z</time>
      </trkpt>
      <trkpt lat="47.9310460" lon="8.7105500">
        <ele>238.2</ele>
        <time>2022-06-07T10:14:35Z</time>
      </trkpt>
      <trkpt lat="47.9310460" lon="8.7105500">
        <ele>238.0</ele>
        <time>2022-06-07T10:14:39Z</time>
      </trkpt>
      <trkpt lat="47.9310460" lon="8.7105500">
        <ele>237.8</ele>
        <time>2022-06-07T10:14:43Z</time>
      </trkpt>
      <trkpt lat="47.9310430" lon="8.7105600">
        <ele>238.0</ele>
        <time>2022-06-07T10:14:47Z</time>
      </trkpt>
      <trkpt lat="47.9310660" lon="8.7105680">
        <ele>238.0</ele>
        <time>2022-06-07T10:14:51Z</time>
      </trkpt>
      <trkpt lat="47.9311010" lon="8.7105200">
        <ele>238.0</ele>
        <time>2022-06-07T10:14:55Z</time>
      </trkpt>
      <trkpt lat="47.9311280" lon="8.7104560">
        <ele>237.6</ele>
        <time>2022-06-07T10:14:59Z</time>
      </trkpt>
      <trkpt lat="47.9311630" lon="8.7103980">
        <ele>237.8</ele>
        <time>2022-06-07T10:15:03Z</time>
      </trkpt>
      <trkpt lat="47.9312260" lon="8.7103760">
        <ele>238.0</ele>
        <time>2022-06-07T10:15:07Z</time>
      </trkpt>
      <trkpt lat="47.9313400" lon="8.7103910">
        <ele>238.4</ele>
        <time>2022-06-07T10:15:11Z</time>
      </trkpt>
      <trkpt lat="47.9314710" lon="8.7104500">
        <ele>238.4</ele>
        <time>2022-06-07T10:15:15Z</time>
      </trkpt>
      <trkpt lat="47.9315910" lon="8.7105810">
        <ele>239.2</ele>
        <time>2022-06-07T10:15:19Z</time>
      </trkpt>
      <trkpt lat="47.9316700" lon="8.7107580">
        <ele>240.0</ele>
        <time>2022-06-07T10:15:23Z</time>
      </trkpt>
      <trkpt lat="47.9317210" lon="8.7109480">
        <ele>240.6</ele>
        <time>2022-06-07T10:15:27Z</time>
      </trkpt>
      <trkpt lat="47.9317650" lon="8.7111310">
        <ele>241.0</ele>
        <time>2022-06-07T10:15:31Z</time>
      </trkpt>
      <trkpt lat="47.9317980" lon="8.7113050">
        <ele>241.6</ele>
        <time>2022-06-07T10:15:35Z</time>
      </trkpt>
      <trkpt lat="47.9318280" lon="8.7114730">
        <ele>242.6</ele>
        <time>2022-06-07T10:15:39Z</time>
      </trkpt>
      <trkpt lat="47.9318660" lon="8.7116260">
        <ele>243.2</ele>
        <time>2022-06-07T10:15:43Z</time>
      </trkpt>
      <trkpt lat="47.9318950" lon="8.7117900">
        <ele>243.4</ele>
        <time>2022-06-07T10:15:47Z</time>
      </trkpt>
      <trkpt lat="47.9319360" lon="8.7119500">
        <ele>244.2</ele>
        <time>2022-06-07T10:15:51Z</time>
      </trkpt>
      <trkpt lat="47.9320010" lon="8.7120860">
        <ele>244.8</ele>
        <time>2022-06-07T10:15:55Z</time>
      </trkpt>
      <trkpt lat="47.9320810" lon="8.7121980">
        <ele>245.4</ele>
        <time>2022-06-07T10:15:59Z</time>
      </trkpt>
      <trkpt lat="47.9321660" lon="8.7122550">
        <ele>245.8</ele>
        <time>2022-06-07T10:16:03Z</time>
      </trkpt>
      <trkpt lat="47.9322380" lon="8.7123430">
        <ele>245.8</ele>
        <time>2022-06-07T10:16:07Z</time>
      </trkpt>
      <trkpt lat="47.9322960" lon="8.7124780">
        <ele>245.4</ele>
        <time>2022-06-07T10:16:11Z</time>
      </trkpt>
      <trkpt lat="47.9323580" lon="8.7126610">
        <ele>244.4</ele>
        <time>2022-06-07T10:16:15Z</time>
      </trkpt>
      <trkpt lat="47.9324250" lon="8.7128460">
        <ele>243.4</ele>
        <time>2022-06-07T10:16:19Z</time>
      </trkpt>
      <trkpt lat="47.9325060" lon="8.7130680">
        <ele>242.0</ele>
        <time>2022-06-07T10:16:23Z</time>
      </trkpt>
      <trkpt lat="47.9325830" lon="8.7133010">
        <ele>241.8</ele>
        <time>2022-06-07T10:16:27Z</time>
      </trkpt>
      <trkpt lat="47.9326500" lon="8.7135660">
        <ele>241.4</ele>
        <time>2022-06-07T10:16:31Z</time>
      </trkpt>
      <trkpt lat="47.9327150" lon="8.7138430">
        <ele>241.6</ele>
        <time>2022-06-07T10:16:35Z</time>
      </trkpt>
      <trkpt lat="47.9327600" lon="8.7141110">
        <ele>241.0</ele>
        <time>2022-06-07T10:16:39Z</time>
      </trkpt>
      <trkpt lat="47.9327530" lon="8.7143950">
        <ele>240.8</ele>
        <time>2022-06-07T10:16:43Z</time>
      </trkpt>
      <trkpt lat="47.9327510" lon="8.7146950">
        <ele>240.6</ele>
        <time>2022-06-07T10:16:47Z</time>
      </trkpt>
      <trkpt lat="47.9327750" lon="8.7149680">
        <ele>240.2</ele>
        <time>2022-06-07T10:16:51Z</time>
      </trkpt>
      <trkpt lat="47.9328300" lon="8.7152260">
        <ele>240.2</ele>
        <time>2022-06-07T10:16:55Z</time>
      </trkpt>
      <trkpt lat="47.9328780" lon="8.7154860">
        <ele>240.4</ele>
        <time>2022-06-07T10:16:59Z</time>
      </trkpt>
      <trkpt lat="47.9329380" lon="8.7157280">
        <ele>240.2</ele>
        <time>2022-06-07T10:17:03Z</time>
      </trkpt>
      <trkpt lat="47.9330000" lon="8.7159880">
        <ele>240.0</ele>
        <time>2022-06-07T10:17:07Z</time>
      </trkpt>
      <trkpt lat="47.9330610" lon="8.7162580">
        <ele>240.4</ele>
        <time>2022-06-07T10:17:11Z</time>
      </trkpt>
      <trkpt lat="47.9331100" lon="8.7165150">
        <ele>239.6</ele>
        <time>2022-06-07T10:17:15Z</time>
      </trkpt>
      <trkpt lat="47.9330710" lon="8.7167850">
        <ele>240.2</ele>
        <time>2022-06-07T10:17:19Z</time>
      </trkpt>
      <trkpt lat="47.9330280" lon="8.7170710">
        <ele>239.6</ele>
        <time>2022-06-07T10:17:23Z</time>
      </trkpt>
      <trkpt lat="47.9330780" lon="8.7173580">
        <ele>239.4</ele>
        <time>2022-06-07T10:17:27Z</time>
      </trkpt>
      <trkpt lat="47.9331480" lon="8.7176310">
        <ele>239.6</ele>
        <time>2022-06-07T10:17:31Z</time>
      </trkpt>
      <trkpt lat="47.9332130" lon="8.7179160">
        <ele>239.2</ele>
        <time>2022-06-07T10:17:35Z</time>
      </trkpt>
      <trkpt lat="47.9332810" lon="8.7182150">
        <ele>239.6</ele>
        <time>2022-06-07T10:17:39Z</time>
      </trkpt>
      <trkpt lat="47.9333500" lon="8.7185150">
        <ele>239.6</ele>
        <time>2022-06-07T10:17:43Z</time>
      </trkpt>
      <trkpt lat="47.9334260" lon="8.7188050">
        <ele>239.4</ele>
        <time>2022-06-07T10:17:47Z</time>
      </trkpt>
      <trkpt lat="47.9335300" lon="8.7190780">
        <ele>239.8</ele>
        <time>2022-06-07T10:17:51Z</time>
      </trkpt>
      <trkpt lat="47.9336400" lon="8.7193460">
        <ele>240.2</ele>
        <time>2022-06-07T10:17:55Z</time>
      </trkpt>
      <trkpt lat="47.9337460" lon="8.7196060">
        <ele>240.0</ele>
        <time>2022-06-07T10:17:59Z</time>
      </trkpt>
      <trkpt lat="47.9338510" lon="8.7198660">
        <ele>240.0</ele>
        <time>2022-06-07T10:18:03Z</time>
      </trkpt>
      <trkpt lat="47.9339600" lon="8.7201180">
        <ele>239.8</ele>
        <time>2022-06-07T10:18:07Z</time>
      </trkpt>
      <trkpt lat="47.9340650" lon="8.7203800">
        <ele>240.0</ele>
        <time>2022-06-07T10:18:11Z</time>
      </trkpt>
      <trkpt lat="47.9341530" lon="8.7206530">
        <ele>240.2</ele>
        <time>2022-06-07T10:18:15Z</time>
      </trkpt>
      <trkpt lat="47.9342330" lon="8.7209300">
        <ele>240.0</ele>
        <time>2022-06-07T10:18:19Z</time>
      </trkpt>
      <trkpt lat="47.9343080" lon="8.7212300">
        <ele>239.4</ele>
        <time>2022-06-07T10:18:23Z</time>
      </trkpt>
      <trkpt lat="47.9343800" lon="8.7215230">
        <ele>239.8</ele>
        <time>2022-06-07T10:18:27Z</time>
      </trkpt>
      <trkpt lat="47.9344410" lon="8.7218230">
        <ele>239.2</ele>
        <time>2022-06-07T10:18:31Z</time>
      </trkpt>
      <trkpt lat="47.9345000" lon="8.7221380">
        <ele>239.4</ele>
        <time>2022-06-07T10:18:35Z</time>
      </trkpt>
      <trkpt lat="47.9345610" lon="8.7224410">
        <ele>239.8</ele>
        <time>2022-06-07T10:18:39Z</time>
      </trkpt>
      <trkpt lat="47.9346100" lon="8.7227560">
        <ele>240.0</ele>
        <time>2022-06-07T10:18:43Z</time>
      </trkpt>
      <trkpt lat="47.9346600" lon="8.7230700">
        <ele>239.8</ele>
        <time>2022-06-07T10:18:47Z</time>
      </trkpt>
      <trkpt lat="47.9347180" lon="8.7233610">
        <ele>239.8</ele>
        <time>2022-06-07T10:18:51Z</time>
      </trkpt>
      <trkpt lat="47.9347580" lon="8.7236600">
        <ele>239.6</ele>
        <time>2022-06-07T10:18:55Z</time>
      </trkpt>
      <trkpt lat="47.9348080" lon="8.7239700">
        <ele>239.6</ele>
        <time>2022-06-07T10:18:59Z</time>
      </trkpt>
      <trkpt lat="47.9348530" lon="8.7242850">
        <ele>239.4</ele>
        <time>2022-06-07T10:19:03Z</time>
      </trkpt>
      <trkpt lat="47.9349100" lon="8.7246010">
        <ele>239.0</ele>
        <time>2022-06-07T10:19:07Z</time>
      </trkpt>
      <trkpt lat="47.9349580" lon="8.7249200">
        <ele>239.2</ele>
        <time>2022-06-07T10:19:11Z</time>
      </trkpt>
      <trkpt lat="47.9350110" lon="8.7252300">
        <ele>239.2</ele>
        <time>2022-06-07T10:19:15Z</time>
      </trkpt>
      <trkpt lat="47.9350630" lon="8.7255500">
        <ele>239.0</ele>
        <time>2022-06-07T10:19:19Z</time>
      </trkpt>
      <trkpt lat="47.9351110" lon="8.7258700">
        <ele>239.8</ele>
        <time>2022-06-07T10:19:23Z</time>
      </trkpt>
      <trkpt lat="47.9351630" lon="8.7261910">
        <ele>239.0</ele>
        <time>2022-06-07T10:19:27Z</time>
      </trkpt>
      <trkpt lat="47.9352180" lon="8.7265060">
        <ele>239.2</ele>
        <time>2022-06-07T10:19:31Z</time>
      </trkpt>
      <trkpt lat="47.9352560" lon="8.7268200">
        <ele>239.6</ele>
        <time>2022-06-07T10:19:35Z</time>
      </trkpt>
      <trkpt lat="47.9353060" lon="8.7271260">
        <ele>239.0</ele>
        <time>2022-06-07T10:19:39Z</time>
      </trkpt>
      <trkpt lat="47.9353580" lon="8.7274250">
        <ele>238.6</ele>
        <time>2022-06-07T10:19:43Z</time>
      </trkpt>
      <trkpt lat="47.9354100" lon="8.7277350">
        <ele>239.0</ele>
        <time>2022-06-07T10:19:47Z</time>
      </trkpt>
      <trkpt lat="47.9354550" lon="8.7280360">
        <ele>239.0</ele>
        <time>2022-06-07T10:19:51Z</time>
      </trkpt>
      <trkpt lat="47.9355000" lon="8.7283410">
        <ele>238.8</ele>
        <time>2022-06-07T10:19:55Z</time>
      </trkpt>
      <trkpt lat="47.9355510" lon="8.7286480">
        <ele>238.8</ele>
        <time>2022-06-07T10:19:59Z</time>
      </trkpt>
      <trkpt lat="47.9356050" lon="8.7289500">
        <ele>239.2</ele>
        <time>2022-06-07T10:20:03Z</time>
      </trkpt>
      <trkpt lat="47.9356480" lon="8.7292560">
        <ele>239.4</ele>
        <time>2022-06-07T10:20:07Z</time>
      </trkpt>
      <trkpt lat="47.9356960" lon="8.7295710">
        <ele>239.4</ele>
        <time>2022-06-07T10:20:11Z</time>
      </trkpt>
      <trkpt lat="47.9357430" lon="8.7298600">
        <ele>239.0</ele>
        <time>2022-06-07T10:20:15Z</time>
      </trkpt>
      <trkpt lat="47.9357850" lon="8.7301550">
        <ele>238.6</ele>
        <time>2022-06-07T10:20:19Z</time>
      </trkpt>
      <trkpt lat="47.9358350" lon="8.7304480">
        <ele>238.6</ele>
        <time>2022-06-07T10:20:23Z</time>
      </trkpt>
      <trkpt lat="47.9358800" lon="8.7307280">
        <ele>239.0</ele>
        <time>2022-06-07T10:20:27Z</time>
      </trkpt>
      <trkpt lat="47.9359180" lon="8.7309730">
        <ele>239.2</ele>
        <time>2022-06-07T10:20:31Z</time>
      </trkpt>
      <trkpt lat="47.9359480" lon="8.7311910">
        <ele>238.8</ele>
        <time>2022-06-07T10:20:35Z</time>
      </trkpt>
      <trkpt lat="47.9358680" lon="8.7312930">
        <ele>239.2</ele>
        <time>2022-06-07T10:20:39Z</time>
      </trkpt>
      <trkpt lat="47.9358330" lon="8.7311410">
        <ele>240.0</ele>
        <time>2022-06-07T10:20:43Z</time>
      </trkpt>
      <trkpt lat="47.9358060" lon="8.7310000">
        <ele>240.4</ele>
        <time>2022-06-07T10:20:47Z</time>
      </trkpt>
      <trkpt lat="47.9357900" lon="8.7308260">
        <ele>242.0</ele>
        <time>2022-06-07T10:20:51Z</time>
      </trkpt>
      <trkpt lat="47.9357780" lon="8.7306750">
        <ele>242.4</ele>
        <time>2022-06-07T10:20:55Z</time>
      </trkpt>
      <trkpt lat="47.9358300" lon="8.7306930">
        <ele>243.4</ele>
        <time>2022-06-07T10:20:59Z</time>
      </trkpt>
      <trkpt lat="47.9358530" lon="8.7308110">
        <ele>244.0</ele>
        <time>2022-06-07T10:21:03Z</time>
      </trkpt>
      <trkpt lat="47.9358550" lon="8.7309450">
        <ele>244.8</ele>
        <time>2022-06-07T10:21:07Z</time>
      </trkpt>
      <trkpt lat="47.9358880" lon="8.7310630">
        <ele>245.2</ele>
        <time>2022-06-07T10:21:11Z</time>
      </trkpt>
      <trkpt lat="47.9359760" lon="8.7310560">
        <ele>246.4</ele>
        <time>2022-06-07T10:21:15Z</time>
      </trkpt>
      <trkpt lat="47.9360730" lon="8.7310130">
        <ele>246.6</ele>
        <time>2022-06-07T10:21:19Z</time>
      </trkpt>
      <trkpt lat="47.9361700" lon="8.7309900">
        <ele>246.6</ele>
        <time>2022-06-07T10:21:23Z</time>
      </trkpt>
      <trkpt lat="47.9362730" lon="8.7309450">
        <ele>247.2</ele>
        <time>2022-06-07T10:21:27Z</time>
      </trkpt>
      <trkpt lat="47.9363780" lon="8.7309110">
        <ele>246.8</ele>
        <time>2022-06-07T10:21:31Z</time>
      </trkpt>
      <trkpt lat="47.9364860" lon="8.7308760">
        <ele>246.8</ele>
        <time>2022-06-07T10:21:35Z</time>
      </trkpt>
      <trkpt lat="47.9365800" lon="8.7308450">
        <ele>246.8</ele>
        <time>2022-06-07T10:21:39Z</time>
      </trkpt>
      <trkpt lat="47.9366010" lon="8.7307500">
        <ele>244.8</ele>
        <time>2022-06-07T10:21:43Z</time>
      </trkpt>
      <trkpt lat="47.9365560" lon="8.7305310">
        <ele>244.0</ele>
        <time>2022-06-07T10:21:47Z</time>
      </trkpt>
      <trkpt lat="47.9365250" lon="8.7303100">
        <ele>243.6</ele>
        <time>2022-06-07T10:21:51Z</time>
      </trkpt>
      <trkpt lat="47.9365960" lon="8.7301860">
        <ele>243.0</ele>
        <time>2022-06-07T10:21:55Z</time>
      </trkpt>
      <trkpt lat="47.9366410" lon="8.7303830">
        <ele>240.4</ele>
        <time>2022-06-07T10:21:59Z</time>
      </trkpt>
      <trkpt lat="47.9366880" lon="8.7306180">
        <ele>239.8</ele>
        <time>2022-06-07T10:22:03Z</time>
      </trkpt>
      <trkpt lat="47.9368550" lon="8.7307260">
        <ele>239.8</ele>
        <time>2022-06-07T10:22:07Z</time>
      </trkpt>
      <trkpt lat="47.9369810" lon="8.7308800">
        <ele>239.4</ele>
        <time>2022-06-07T10:22:11Z</time>
      </trkpt>
      <trkpt lat="47.9370200" lon="8.7311210">
        <ele>240.2</ele>
        <time>2022-06-07T10:22:15Z</time>
      </trkpt>
      <trkpt lat="47.9370450" lon="8.7313500">
        <ele>240.4</ele>
        <time>2022-06-07T10:22:19Z</time>
      </trkpt>
      <trkpt lat="47.9370750" lon="8.7315560">
        <ele>240.4</ele>
        <time>2022-06-07T10:22:23Z</time>
      </trkpt>
      <trkpt lat="47.9371000" lon="8.7317550">
        <ele>241.2</ele>
        <time>2022-06-07T10:22:27Z</time>
      </trkpt>
      <trkpt lat="47.9371500" lon="8.7319280">
        <ele>241.2</ele>
        <time>2022-06-07T10:22:31Z</time>
      </trkpt>
      <trkpt lat="47.9371860" lon="8.7321180">
        <ele>241.2</ele>
        <time>2022-06-07T10:22:35Z</time>
      </trkpt>
      <trkpt lat="47.9372030" lon="8.7323080">
        <ele>241.0</ele>
        <time>2022-06-07T10:22:39Z</time>
      </trkpt>
      <trkpt lat="47.9371830" lon="8.7324930">
        <ele>241.8</ele>
        <time>2022-06-07T10:22:43Z</time>
      </trkpt>
      <trkpt lat="47.9371160" lon="8.7326550">
        <ele>240.4</ele>
        <time>2022-06-07T10:22:47Z</time>
      </trkpt>
      <trkpt lat="47.9370150" lon="8.7328160">
        <ele>240.8</ele>
        <time>2022-06-07T10:22:51Z</time>
      </trkpt>
      <trkpt lat="47.9369550" lon="8.7330430">
        <ele>241.0</ele>
        <time>2022-06-07T10:22:55Z</time>
      </trkpt>
      <trkpt lat="47.9370060" lon="8.7332380">
        <ele>241.0</ele>
        <time>2022-06-07T10:22:59Z</time>
      </trkpt>
      <trkpt lat="47.9370730" lon="8.7334110">
        <ele>241.2</ele>
        <time>2022-06-07T10:23:03Z</time>
      </trkpt>
      <trkpt lat="47.9371460" lon="8.7336030">
        <ele>240.6</ele>
        <time>2022-06-07T10:23:07Z</time>
      </trkpt>
      <trkpt lat="47.9372250" lon="8.7338150">
        <ele>240.2</ele>
        <time>2022-06-07T10:23:11Z</time>
      </trkpt>
      <trkpt lat="47.9373280" lon="8.7339780">
        <ele>240.4</ele>
        <time>2022-06-07T10:23:15Z</time>
      </trkpt>
      <trkpt lat="47.9374480" lon="8.7340360">
        <ele>240.8</ele>
        <time>2022-06-07T10:23:19Z</time>
      </trkpt>
      <trkpt lat="47.9375910" lon="8.7340650">
        <ele>241.0</ele>
        <time>2022-06-07T10:23:23Z</time>
      </trkpt>
      <trkpt lat="47.9377760" lon="8.7341610">
        <ele>241.2</ele>
        <time>2022-06-07T10:23:27Z</time>
      </trkpt>
      <trkpt lat="47.9378200" lon="8.7343630">
        <ele>241.4</ele>
        <time>2022-06-07T10:23:31Z</time>
      </trkpt>
      <trkpt lat="47.9378150" lon="8.7346180">
        <ele>240.4</ele>
        <time>2022-06-07T10:23:35Z</time>
      </trkpt>
      <trkpt lat="47.9378300" lon="8.7348930">
        <ele>239.6</ele>
        <time>2022-06-07T10:23:39Z</time>
      </trkpt>
      <trkpt lat="47.9377980" lon="8.7351750">
        <ele>239.8</ele>
        <time>2022-06-07T10:23:43Z</time>
      </trkpt>
      <trkpt lat="47.9377330" lon="8.7354350">
        <ele>239.8</ele>
        <time>2022-06-07T10:23:47Z</time>
      </trkpt>
      <trkpt lat="47.9375950" lon="8.7356260">
        <ele>238.8</ele>
        <time>2022-06-07T10:23:51Z</time>
      </trkpt>
      <trkpt lat="47.9374680" lon="8.7358130">
        <ele>238.6</ele>
        <time>2022-06-07T10:23:55Z</time>
      </trkpt>
      <trkpt lat="47.9373610" lon="8.7359660">
        <ele>237.4</ele>
        <time>2022-06-07T10:23:59Z</time>
      </trkpt>
      <trkpt lat="47.9372330" lon="8.7362060">
        <ele>238.2</ele>
        <time>2022-06-07T10:24:03Z</time>
      </trkpt>
      <trkpt lat="47.9371300" lon="8.7364930">
        <ele>237.6</ele>
        <time>2022-06-07T10:24:07Z</time>
      </trkpt>
      <trkpt lat="47.9370410" lon="8.7367680">
        <ele>238.0</ele>
        <time>2022-06-07T10:24:11Z</time>
      </trkpt>
      <trkpt lat="47.9369900" lon="8.7370700">
        <ele>238.2</ele>
        <time>2022-06-07T10:24:15Z</time>
      </trkpt>
      <trkpt lat="47.9369460" lon="8.7373550">
        <ele>237.6</ele>
        <time>2022-06-07T10:24:19Z</time>
      </trkpt>
      <trkpt lat="47.9368580" lon="8.7376510">
        <ele>236.0</ele>
        <time>2022-06-07T10:24:23Z</time>
      </trkpt>
      <trkpt lat="47.9367230" lon="8.7379500">
        <ele>238.4</ele>
        <time>2022-06-07T10:24:27Z</time>
      </trkpt>
      <trkpt lat="47.9366460" lon="8.7381150">
        <ele>239.0</ele>
        <time>2022-06-07T10:24:31Z</time>
      </trkpt>
      <trkpt lat="47.9365700" lon="8.7382680">
        <ele>239.0</ele>
        <time>2022-06-07T10:24:35Z</time>
      </trkpt>
      <trkpt lat="47.9364550" lon="8.7384500">
        <ele>236.6</ele>
        <time>2022-06-07T10:24:39Z</time>
      </trkpt>
      <trkpt lat="47.9363680" lon="8.7387610">
        <ele>237.8</ele>
        <time>2022-06-07T10:24:43Z</time>
      </trkpt>
      <trkpt lat="47.9363400" lon="8.7390700">
        <ele>237.6</ele>
        <time>2022-06-07T10:24:47Z</time>
      </trkpt>
      <trkpt lat="47.9362910" lon="8.7393660">
        <ele>237.4</ele>
        <time>2022-06-07T10:24:51Z</time>
      </trkpt>
      <trkpt lat="47.9362360" lon="8.7396450">
        <ele>238.4</ele>
        <time>2022-06-07T10:24:55Z</time>
      </trkpt>
      <trkpt lat="47.9361900" lon="8.7399180">
        <ele>238.2</ele>
        <time>2022-06-07T10:24:59Z</time>
      </trkpt>
      <trkpt lat="47.9361160" lon="8.7401750">
        <ele>237.8</ele>
        <time>2022-06-07T10:25:03Z</time>
      </trkpt>
      <trkpt lat="47.9360280" lon="8.7404250">
        <ele>238.4</ele>
        <time>2022-06-07T10:25:07Z</time>
      </trkpt>
      <trkpt lat="47.9359330" lon="8.7406860">
        <ele>238.8</ele>
        <time>2022-06-07T10:25:11Z</time>
      </trkpt>
      <trkpt lat="47.9358100" lon="8.7408950">
        <ele>240.2</ele>
        <time>2022-06-07T10:25:15Z</time>
      </trkpt>
      <trkpt lat="47.9357050" lon="8.7410500">
        <ele>241.0</ele>
        <time>2022-06-07T10:25:19Z</time>
      </trkpt>
      <trkpt lat="47.9356330" lon="8.7412010">
        <ele>241.8</ele>
        <time>2022-06-07T10:25:23Z</time>
      </trkpt>
      <trkpt lat="47.9355610" lon="8.7413700">
        <ele>241.4</ele>
        <time>2022-06-07T10:25:27Z</time>
      </trkpt>
      <trkpt lat="47.9355000" lon="8.7415880">
        <ele>241.4</ele>
        <time>2022-06-07T10:25:31Z</time>
      </trkpt>
      <trkpt lat="47.9354260" lon="8.7418360">
        <ele>240.0</ele>
        <time>2022-06-07T10:25:35Z</time>
      </trkpt>
      <trkpt lat="47.9353460" lon="8.7421250">
        <ele>237.6</ele>
        <time>2022-06-07T10:25:39Z</time>
      </trkpt>
      <trkpt lat="47.9352710" lon="8.7424430">
        <ele>239.0</ele>
        <time>2022-06-07T10:25:43Z</time>
      </trkpt>
      <trkpt lat="47.9352000" lon="8.7427900">
        <ele>237.4</ele>
        <time>2022-06-07T10:25:47Z</time>
      </trkpt>
      <trkpt lat="47.9351150" lon="8.7431250">
        <ele>237.8</ele>
        <time>2022-06-07T10:25:51Z</time>
      </trkpt>
      <trkpt lat="47.9349910" lon="8.7434310">
        <ele>238.4</ele>
        <time>2022-06-07T10:25:55Z</time>
      </trkpt>
      <trkpt lat="47.9348560" lon="8.7437380">
        <ele>237.8</ele>
        <time>2022-06-07T10:25:59Z</time>
      </trkpt>
      <trkpt lat="47.9347180" lon="8.7440230">
        <ele>236.8</ele>
        <time>2022-06-07T10:26:03Z</time>
      </trkpt>
      <trkpt lat="47.9345810" lon="8.7443000">
        <ele>237.0</ele>
        <time>2022-06-07T10:26:07Z</time>
      </trkpt>
      <trkpt lat="47.9344500" lon="8.7445610">
        <ele>238.4</ele>
        <time>2022-06-07T10:26:11Z</time>
      </trkpt>
      <trkpt lat="47.9343200" lon="8.7448200">
        <ele>237.0</ele>
        <time>2022-06-07T10:26:15Z</time>
      </trkpt>
      <trkpt lat="47.9341900" lon="8.7450710">
        <ele>235.8</ele>
        <time>2022-06-07T10:26:19Z</time>
      </trkpt>
      <trkpt lat="47.9340710" lon="8.7453250">
        <ele>236.8</ele>
        <time>2022-06-07T10:26:23Z</time>
      </trkpt>
      <trkpt lat="47.9339510" lon="8.7455660">
        <ele>236.4</ele>
        <time>2022-06-07T10:26:27Z</time>
      </trkpt>
      <trkpt lat="47.9338280" lon="8.7458110">
        <ele>236.6</ele>
        <time>2022-06-07T10:26:31Z</time>
      </trkpt>
      <trkpt lat="47.9337050" lon="8.7460600">
        <ele>236.6</ele>
        <time>2022-06-07T10:26:35Z</time>
      </trkpt>
      <trkpt lat="47.9335860" lon="8.7463060">
        <ele>236.6</ele>
        <time>2022-06-07T10:26:39Z</time>
      </trkpt>
      <trkpt lat="47.9334680" lon="8.7465360">
        <ele>237.2</ele>
        <time>2022-06-07T10:26:43Z</time>
      </trkpt>
      <trkpt lat="47.9333480" lon="8.7467650">
        <ele>236.4</ele>
        <time>2022-06-07T10:26:47Z</time>
      </trkpt>
      <trkpt lat="47.9332310" lon="8.7469780">
        <ele>237.2</ele>
        <time>2022-06-07T10:26:51Z</time>
      </trkpt>
      <trkpt lat="47.9331180" lon="8.7471950">
        <ele>238.0</ele>
        <time>2022-06-07T10:26:55Z</time>
      </trkpt>
      <trkpt lat="47.9330030" lon="8.7474100">
        <ele>237.8</ele>
        <time>2022-06-07T10:26:59Z</time>
      </trkpt>
      <trkpt lat="47.9328910" lon="8.7476230">
        <ele>237.6</ele>
        <time>2022-06-07T10:27:03Z</time>
      </trkpt>
      <trkpt lat="47.9327710" lon="8.7478280">
        <ele>237.6</ele>
        <time>2022-06-07T10:27:07Z</time>
      </trkpt>
      <trkpt lat="47.9326580" lon="8.7480410">
        <ele>236.8</ele>
        <time>2022-06-07T10:27:11Z</time>
      </trkpt>
      <trkpt lat="47.9325400" lon="8.7482480">
        <ele>237.4</ele>
        <time>2022-06-07T10:27:15Z</time>
      </trkpt>
      <trkpt lat="47.9324150" lon="8.7484480">
        <ele>237.2</ele>
        <time>2022-06-07T10:27:19Z</time>
      </trkpt>
      <trkpt lat="47.9322780" lon="8.7486330">
        <ele>237.4</ele>
        <time>2022-06-07T10:27:23Z</time>
      </trkpt>
      <trkpt lat="47.9321430" lon="8.7488030">
        <ele>236.6</ele>
        <time>2022-06-07T10:27:27Z</time>
      </trkpt>
      <trkpt lat="47.9320080" lon="8.7489680">
        <ele>237.4</ele>
        <time>2022-06-07T10:27:31Z</time>
      </trkpt>
      <trkpt lat="47.9318750" lon="8.7491180">
        <ele>237.8</ele>
        <time>2022-06-07T10:27:35Z</time>
      </trkpt>
      <trkpt lat="47.9317400" lon="8.7492450">
        <ele>238.4</ele>
        <time>2022-06-07T10:27:39Z</time>
      </trkpt>
      <trkpt lat="47.9316100" lon="8.7493560">
        <ele>238.8</ele>
        <time>2022-06-07T10:27:43Z</time>
      </trkpt>
      <trkpt lat="47.9315000" lon="8.7494730">
        <ele>237.8</ele>
        <time>2022-06-07T10:27:47Z</time>
      </trkpt>
      <trkpt lat="47.9315700" lon="8.7496950">
        <ele>236.6</ele>
        <time>2022-06-07T10:27:51Z</time>
      </trkpt>
      <trkpt lat="47.9317400" lon="8.7499060">
        <ele>235.8</ele>
        <time>2022-06-07T10:27:55Z</time>
      </trkpt>
      <trkpt lat="47.9319000" lon="8.7501330">
        <ele>236.4</ele>
        <time>2022-06-07T10:27:59Z</time>
      </trkpt>
      <trkpt lat="47.9320110" lon="8.7503960">
        <ele>236.4</ele>
        <time>2022-06-07T10:28:03Z</time>
      </trkpt>
      <trkpt lat="47.9320900" lon="8.7506530">
        <ele>237.8</ele>
        <time>2022-06-07T10:28:07Z</time>
      </trkpt>
      <trkpt lat="47.9321300" lon="8.7508780">
        <ele>237.8</ele>
        <time>2022-06-07T10:28:11Z</time>
      </trkpt>
      <trkpt lat="47.9321710" lon="8.7511110">
        <ele>238.4</ele>
        <time>2022-06-07T10:28:15Z</time>
      </trkpt>
      <trkpt lat="47.9322200" lon="8.7513660">
        <ele>238.4</ele>
        <time>2022-06-07T10:28:19Z</time>
      </trkpt>
      <trkpt lat="47.9322630" lon="8.7516150">
        <ele>236.0</ele>
        <time>2022-06-07T10:28:23Z</time>
      </trkpt>
      <trkpt lat="47.9323050" lon="8.7519300">
        <ele>236.2</ele>
        <time>2022-06-07T10:28:27Z</time>
      </trkpt>
      <trkpt lat="47.9322130" lon="8.7522500">
        <ele>235.8</ele>
        <time>2022-06-07T10:28:31Z</time>
      </trkpt>
      <trkpt lat="47.9320960" lon="8.7525400">
        <ele>236.0</ele>
        <time>2022-06-07T10:28:35Z</time>
      </trkpt>
      <trkpt lat="47.9319880" lon="8.7528210">
        <ele>235.2</ele>
        <time>2022-06-07T10:28:39Z</time>
      </trkpt>
      <trkpt lat="47.9318700" lon="8.7530900">
        <ele>235.4</ele>
        <time>2022-06-07T10:28:43Z</time>
      </trkpt>
      <trkpt lat="47.9317560" lon="8.7533610">
        <ele>235.6</ele>
        <time>2022-06-07T10:28:47Z</time>
      </trkpt>
      <trkpt lat="47.9316510" lon="8.7536350">
        <ele>235.6</ele>
        <time>2022-06-07T10:28:51Z</time>
      </trkpt>
      <trkpt lat="47.9315560" lon="8.7539060">
        <ele>235.2</ele>
        <time>2022-06-07T10:28:55Z</time>
      </trkpt>
      <trkpt lat="47.9314650" lon="8.7541760">
        <ele>234.4</ele>
        <time>2022-06-07T10:28:59Z</time>
      </trkpt>
      <trkpt lat="47.9313980" lon="8.7544480">
        <ele>236.0</ele>
        <time>2022-06-07T10:29:03Z</time>
      </trkpt>
      <trkpt lat="47.9313480" lon="8.7547250">
        <ele>235.6</ele>
        <time>2022-06-07T10:29:07Z</time>
      </trkpt>
      <trkpt lat="47.9313050" lon="8.7550100">
        <ele>234.4</ele>
        <time>2022-06-07T10:29:11Z</time>
      </trkpt>
      <trkpt lat="47.9312750" lon="8.7552960">
        <ele>234.4</ele>
        <time>2022-06-07T10:29:15Z</time>
      </trkpt>
      <trkpt lat="47.9312580" lon="8.7555800">
        <ele>234.8</ele>
        <time>2022-06-07T10:29:19Z</time>
      </trkpt>
      <trkpt lat="47.9312480" lon="8.7558550">
        <ele>234.6</ele>
        <time>2022-06-07T10:29:23Z</time>
      </trkpt>
      <trkpt lat="47.9312430" lon="8.7561280">
        <ele>235.0</ele>
        <time>2022-06-07T10:29:27Z</time>
      </trkpt>
      <trkpt lat="47.9312510" lon="8.7563980">
        <ele>232.8</ele>
        <time>2022-06-07T10:29:31Z</time>
      </trkpt>
      <trkpt lat="47.9312650" lon="8.7567160">
        <ele>233.0</ele>
        <time>2022-06-07T10:29:35Z</time>
      </trkpt>
      <trkpt lat="47.9312850" lon="8.7570500">
        <ele>233.2</ele>
        <time>2022-06-07T10:29:39Z</time>
      </trkpt>
      <trkpt lat="47.9313050" lon="8.7573610">
        <ele>233.4</ele>
        <time>2022-06-07T10:29:43Z</time>
      </trkpt>
      <trkpt lat="47.9313210" lon="8.7576450">
        <ele>234.6</ele>
        <time>2022-06-07T10:29:47Z</time>
      </trkpt>
      <trkpt lat="47.9313360" lon="8.7579150">
        <ele>233.8</ele>
        <time>2022-06-07T10:29:51Z</time>
      </trkpt>
      <trkpt lat="47.9313680" lon="8.7581880">
        <ele>234.2</ele>
        <time>2022-06-07T10:29:55Z</time>
      </trkpt>
      <trkpt lat="47.9314200" lon="8.7584650">
        <ele>233.6</ele>
        <time>2022-06-07T10:29:59Z</time>
      </trkpt>
      <trkpt lat="47.9314780" lon="8.7587450">
        <ele>234.2</ele>
        <time>2022-06-07T10:30:03Z</time>
      </trkpt>
      <trkpt lat="47.9315350" lon="8.7590130">
        <ele>234.4</ele>
        <time>2022-06-07T10:30:07Z</time>
      </trkpt>
      <trkpt lat="47.9316280" lon="8.7592630">
        <ele>233.6</ele>
        <time>2022-06-07T10:30:11Z</time>
      </trkpt>
      <trkpt lat="47.9317330" lon="8.7595260">
        <ele>233.4</ele>
        <time>2022-06-07T10:30:15Z</time>
      </trkpt>
      <trkpt lat="47.9318500" lon="8.7597610">
        <ele>233.6</ele>
        <time>2022-06-07T10:30:19Z</time>
      </trkpt>
      <trkpt lat="47.9319800" lon="8.7599700">
        <ele>233.2</ele>
        <time>2022-06-07T10:30:23Z</time>
      </trkpt>
      <trkpt lat="47.9321260" lon="8.7601860">
        <ele>233.4</ele>
        <time>2022-06-07T10:30:27Z</time>
      </trkpt>
      <trkpt lat="47.9322800" lon="8.7604080">
        <ele>234.0</ele>
        <time>2022-06-07T10:30:31Z</time>
      </trkpt>
      <trkpt lat="47.9323980" lon="8.7606010">
        <ele>233.6</ele>
        <time>2022-06-07T10:30:35Z</time>
      </trkpt>
      <trkpt lat="47.9325200" lon="8.7608180">
        <ele>234.0</ele>
        <time>2022-06-07T10:30:39Z</time>
      </trkpt>
      <trkpt lat="47.9326480" lon="8.7610230">
        <ele>234.4</ele>
        <time>2022-06-07T10:30:43Z</time>
      </trkpt>
      <trkpt lat="47.9327880" lon="8.7612350">
        <ele>234.4</ele>
        <time>2022-06-07T10:30:47Z</time>
      </trkpt>
      <trkpt lat="47.9329350" lon="8.7614430">
        <ele>234.2</ele>
        <time>2022-06-07T10:30:51Z</time>
      </trkpt>
      <trkpt lat="47.9330780" lon="8.7616460">
        <ele>234.0</ele>
        <time>2022-06-07T10:30:55Z</time>
      </trkpt>
      <trkpt lat="47.9332250" lon="8.7618460">
        <ele>234.4</ele>
        <time>2022-06-07T10:30:59Z</time>
      </trkpt>
      <trkpt lat="47.9333730" lon="8.7620550">
        <ele>234.4</ele>
        <time>2022-06-07T10:31:03Z</time>
      </trkpt>
      <trkpt lat="47.9335280" lon="8.7622580">
        <ele>234.2</ele>
        <time>2022-06-07T10:31:07Z</time>
      </trkpt>
      <trkpt lat="47.9336930" lon="8.7624210">
        <ele>234.4</ele>
        <time>2022-06-07T10:31:11Z</time>
      </trkpt>
      <trkpt lat="47.9338630" lon="8.7625910">
        <ele>234.0</ele>
        <time>2022-06-07T10:31:15Z</time>
      </trkpt>
      <trkpt lat="47.9339800" lon="8.7628360">
        <ele>234.4</ele>
        <time>2022-06-07T10:31:19Z</time>
      </trkpt>
      <trkpt lat="47.9340680" lon="8.7631110">
        <ele>234.4</ele>
        <time>2022-06-07T10:31:23Z</time>
      </trkpt>
      <trkpt lat="47.9341680" lon="8.7633750">
        <ele>234.4</ele>
        <time>2022-06-07T10:31:27Z</time>
      </trkpt>
      <trkpt lat="47.9342960" lon="8.7636030">
        <ele>234.6</ele>
        <time>2022-06-07T10:31:31Z</time>
      </trkpt>
      <trkpt lat="47.9344530" lon="8.7637860">
        <ele>234.6</ele>
        <time>2022-06-07T10:31:35Z</time>
      </trkpt>
      <trkpt lat="47.9346180" lon="8.7639400">
        <ele>233.8</ele>
        <time>2022-06-07T10:31:39Z</time>
      </trkpt>
      <trkpt lat="47.9347910" lon="8.7640950">
        <ele>234.4</ele>
        <time>2022-06-07T10:31:43Z</time>
      </trkpt>
      <trkpt lat="47.9349630" lon="8.7642280">
        <ele>234.6</ele>
        <time>2022-06-07T10:31:47Z</time>
      </trkpt>
      <trkpt lat="47.9351430" lon="8.7643360">
        <ele>234.4</ele>
        <time>2022-06-07T10:31:51Z</time>
      </trkpt>
      <trkpt lat="47.9353210" lon="8.7644380">
        <ele>234.8</ele>
        <time>2022-06-07T10:31:55Z</time>
      </trkpt>
      <trkpt lat="47.9355150" lon="8.7645210">
        <ele>234.2</ele>
        <time>2022-06-07T10:31:59Z</time>
      </trkpt>
      <trkpt lat="47.9357180" lon="8.7645960">
        <ele>234.2</ele>
        <time>2022-06-07T10:32:03Z</time>
      </trkpt>
      <trkpt lat="47.9359100" lon="8.7646730">
        <ele>234.2</ele>
        <time>2022-06-07T10:32:07Z</time>
      </trkpt>
      <trkpt lat="47.9361000" lon="8.7647400">
        <ele>234.4</ele>
        <time>2022-06-07T10:32:11Z</time>
      </trkpt>
      <trkpt lat="47.9362900" lon="8.7647910">
        <ele>234.2</ele>
        <time>2022-06-07T10:32:15Z</time>
      </trkpt>
      <trkpt lat="47.9364860" lon="8.7648150">
        <ele>233.8</ele>
        <time>2022-06-07T10:32:19Z</time>
      </trkpt>
      <trkpt lat="47.9366960" lon="8.7648010">
        <ele>234.0</ele>
        <time>2022-06-07T10:32:23Z</time>
      </trkpt>
      <trkpt lat="47.9369030" lon="8.7647510">
        <ele>234.2</ele>
        <time>2022-06-07T10:32:27Z</time>
      </trkpt>
      <trkpt lat="47.9371000" lon="8.7646900">
        <ele>234.0</ele>
        <time>2022-06-07T10:32:31Z</time>
      </trkpt>
      <trkpt lat="47.9373010" lon="8.7646580">
        <ele>234.2</ele>
        <time>2022-06-07T10:32:35Z</time>
      </trkpt>
      <trkpt lat="47.9375060" lon="8.7646480">
        <ele>234.4</ele>
        <time>2022-06-07T10:32:39Z</time>
      </trkpt>
      <trkpt lat="47.9377080" lon="8.7646260">
        <ele>234.4</ele>
        <time>2022-06-07T10:32:43Z</time>
      </trkpt>
      <trkpt lat="47.9379100" lon="8.7645880">
        <ele>233.8</ele>
        <time>2022-06-07T10:32:47Z</time>
      </trkpt>
      <trkpt lat="47.9381150" lon="8.7645460">
        <ele>234.4</ele>
        <time>2022-06-07T10:32:51Z</time>
      </trkpt>
      <trkpt lat="47.9383150" lon="8.7644980">
        <ele>234.4</ele>
        <time>2022-06-07T10:32:55Z</time>
      </trkpt>
      <trkpt lat="47.9385150" lon="8.7644510">
        <ele>234.0</ele>
        <time>2022-06-07T10:32:59Z</time>
      </trkpt>
      <trkpt lat="47.9387130" lon="8.7643900">
        <ele>234.0</ele>
        <time>2022-06-07T10:33:03Z</time>
      </trkpt>
      <trkpt lat="47.9389100" lon="8.7643180">
        <ele>234.2</ele>
        <time>2022-06-07T10:33:07Z</time>
      </trkpt>
      <trkpt lat="47.9391100" lon="8.7642510">
        <ele>234.0</ele>
        <time>2022-06-07T10:33:11Z</time>
      </trkpt>
      <trkpt lat="47.9393150" lon="8.7641810">
        <ele>233.6</ele>
        <time>2022-06-07T10:33:15Z</time>
      </trkpt>
      <trkpt lat="47.9395210" lon="8.7640980">
        <ele>233.8</ele>
        <time>2022-06-07T10:33:19Z</time>
      </trkpt>
      <trkpt lat="47.9397260" lon="8.7640130">
        <ele>233.2</ele>
        <time>2022-06-07T10:33:23Z</time>
      </trkpt>
      <trkpt lat="47.9399360" lon="8.7639130">
        <ele>233.4</ele>
        <time>2022-06-07T10:33:27Z</time>
      </trkpt>
      <trkpt lat="47.9401100" lon="8.7637310">
        <ele>234.0</ele>
        <time>2022-06-07T10:33:31Z</time>
      </trkpt>
      <trkpt lat="47.9402680" lon="8.7635280">
        <ele>234.2</ele>
        <time>2022-06-07T10:33:35Z</time>
      </trkpt>
      <trkpt lat="47.9404200" lon="8.7633310">
        <ele>234.4</ele>
        <time>2022-06-07T10:33:39Z</time>
      </trkpt>
      <trkpt lat="47.9405780" lon="8.7631330">
        <ele>234.2</ele>
        <time>2022-06-07T10:33:43Z</time>
      </trkpt>
      <trkpt lat="47.9407350" lon="8.7629330">
        <ele>234.2</ele>
        <time>2022-06-07T10:33:47Z</time>
      </trkpt>
      <trkpt lat="47.9408930" lon="8.7627250">
        <ele>234.2</ele>
        <time>2022-06-07T10:33:51Z</time>
      </trkpt>
      <trkpt lat="47.9410510" lon="8.7625180">
        <ele>233.0</ele>
        <time>2022-06-07T10:33:55Z</time>
      </trkpt>
      <trkpt lat="47.9412300" lon="8.7623560">
        <ele>233.0</ele>
        <time>2022-06-07T10:33:59Z</time>
      </trkpt>
      <trkpt lat="47.9414200" lon="8.7622460">
        <ele>233.4</ele>
        <time>2022-06-07T10:34:03Z</time>
      </trkpt>
      <trkpt lat="47.9416080" lon="8.7621450">
        <ele>233.4</ele>
        <time>2022-06-07T10:34:07Z</time>
      </trkpt>
      <trkpt lat="47.9418010" lon="8.7620350">
        <ele>233.6</ele>
        <time>2022-06-07T10:34:11Z</time>
      </trkpt>
      <trkpt lat="47.9419910" lon="8.7619300">
        <ele>233.6</ele>
        <time>2022-06-07T10:34:15Z</time>
      </trkpt>
      <trkpt lat="47.9421830" lon="8.7618210">
        <ele>234.2</ele>
        <time>2022-06-07T10:34:19Z</time>
      </trkpt>
      <trkpt lat="47.9423710" lon="8.7616880">
        <ele>234.0</ele>
        <time>2022-06-07T10:34:23Z</time>
      </trkpt>
      <trkpt lat="47.9425600" lon="8.7615400">
        <ele>233.4</ele>
        <time>2022-06-07T10:34:27Z</time>
      </trkpt>
      <trkpt lat="47.9427130" lon="8.7613210">
        <ele>233.6</ele>
        <time>2022-06-07T10:34:31Z</time>
      </trkpt>
      <trkpt lat="47.9427380" lon="8.7610050">
        <ele>233.6</ele>
        <time>2022-06-07T10:34:35Z</time>
      </trkpt>
      <trkpt lat="47.9427480" lon="8.7606950">
        <ele>233.6</ele>
        <time>2022-06-07T10:34:39Z</time>
      </trkpt>
      <trkpt lat="47.9427600" lon="8.7603880">
        <ele>233.2</ele>
        <time>2022-06-07T10:34:43Z</time>
      </trkpt>
      <trkpt lat="47.9428060" lon="8.7600880">
        <ele>232.8</ele>
        <time>2022-06-07T10:34:47Z</time>
      </trkpt>
      <trkpt lat="47.9429380" lon="8.7598350">
        <ele>233.0</ele>
        <time>2022-06-07T10:34:51Z</time>
      </trkpt>
      <trkpt lat="47.9430780" lon="8.7596100">
        <ele>233.6</ele>
        <time>2022-06-07T10:34:55Z</time>
      </trkpt>
      <trkpt lat="47.9432310" lon="8.7594180">
        <ele>234.0</ele>
        <time>2022-06-07T10:34:59Z</time>
      </trkpt>
      <trkpt lat="47.9433960" lon="8.7592600">
        <ele>234.0</ele>
        <time>2022-06-07T10:35:03Z</time>
      </trkpt>
      <trkpt lat="47.9435810" lon="8.7591180">
        <ele>234.0</ele>
        <time>2022-06-07T10:35:07Z</time>
      </trkpt>
      <trkpt lat="47.9437550" lon="8.7589760">
        <ele>234.6</ele>
        <time>2022-06-07T10:35:11Z</time>
      </trkpt>
      <trkpt lat="47.9439250" lon="8.7588400">
        <ele>234.8</ele>
        <time>2022-06-07T10:35:15Z</time>
      </trkpt>
      <trkpt lat="47.9440980" lon="8.7587230">
        <ele>235.0</ele>
        <time>2022-06-07T10:35:19Z</time>
      </trkpt>
      <trkpt lat="47.9442580" lon="8.7585750">
        <ele>234.8</ele>
        <time>2022-06-07T10:35:23Z</time>
      </trkpt>
      <trkpt lat="47.9444330" lon="8.7584630">
        <ele>235.2</ele>
        <time>2022-06-07T10:35:27Z</time>
      </trkpt>
      <trkpt lat="47.9446230" lon="8.7583200">
        <ele>234.2</ele>
        <time>2022-06-07T10:35:31Z</time>
      </trkpt>
      <trkpt lat="47.9448080" lon="8.7581680">
        <ele>234.4</ele>
        <time>2022-06-07T10:35:35Z</time>
      </trkpt>
      <trkpt lat="47.9450000" lon="8.7580250">
        <ele>234.4</ele>
        <time>2022-06-07T10:35:39Z</time>
      </trkpt>
      <trkpt lat="47.9451930" lon="8.7578830">
        <ele>233.4</ele>
        <time>2022-06-07T10:35:43Z</time>
      </trkpt>
      <trkpt lat="47.9453910" lon="8.7577430">
        <ele>233.6</ele>
        <time>2022-06-07T10:35:47Z</time>
      </trkpt>
      <trkpt lat="47.9455760" lon="8.7576010">
        <ele>233.6</ele>
        <time>2022-06-07T10:35:51Z</time>
      </trkpt>
      <trkpt lat="47.9457730" lon="8.7574530">
        <ele>233.4</ele>
        <time>2022-06-07T10:35:55Z</time>
      </trkpt>
      <trkpt lat="47.9459610" lon="8.7573060">
        <ele>233.8</ele>
        <time>2022-06-07T10:35:59Z</time>
      </trkpt>
      <trkpt lat="47.9461510" lon="8.7571630">
        <ele>233.4</ele>
        <time>2022-06-07T10:36:03Z</time>
      </trkpt>
      <trkpt lat="47.9463460" lon="8.7570180">
        <ele>233.0</ele>
        <time>2022-06-07T10:36:07Z</time>
      </trkpt>
      <trkpt lat="47.9465450" lon="8.7568800">
        <ele>233.0</ele>
        <time>2022-06-07T10:36:11Z</time>
      </trkpt>
      <trkpt lat="47.9467410" lon="8.7567560">
        <ele>233.6</ele>
        <time>2022-06-07T10:36:15Z</time>
      </trkpt>
      <trkpt lat="47.9469460" lon="8.7566380">
        <ele>232.4</ele>
        <time>2022-06-07T10:36:19Z</time>
      </trkpt>
      <trkpt lat="47.9471510" lon="8.7565250">
        <ele>233.2</ele>
        <time>2022-06-07T10:36:23Z</time>
      </trkpt>
      <trkpt lat="47.9473530" lon="8.7564150">
        <ele>233.0</ele>
        <time>2022-06-07T10:36:27Z</time>
      </trkpt>
      <trkpt lat="47.9475530" lon="8.7563230">
        <ele>232.6</ele>
        <time>2022-06-07T10:36:31Z</time>
      </trkpt>
      <trkpt lat="47.9477580" lon="8.7562380">
        <ele>232.8</ele>
        <time>2022-06-07T10:36:35Z</time>
      </trkpt>
      <trkpt lat="47.9479600" lon="8.7561610">
        <ele>232.6</ele>
        <time>2022-06-07T10:36:39Z</time>
      </trkpt>
      <trkpt lat="47.9481580" lon="8.7560910">
        <ele>233.0</ele>
        <time>2022-06-07T10:36:43Z</time>
      </trkpt>
      <trkpt lat="47.9483580" lon="8.7560310">
        <ele>233.0</ele>
        <time>2022-06-07T10:36:47Z</time>
      </trkpt>
      <trkpt lat="47.9485610" lon="8.7559800">
        <ele>232.6</ele>
        <time>2022-06-07T10:36:51Z</time>
      </trkpt>
      <trkpt lat="47.9487700" lon="8.7559330">
        <ele>232.8</ele>
        <time>2022-06-07T10:36:55Z</time>
      </trkpt>
      <trkpt lat="47.9489800" lon="8.7558910">
        <ele>233.2</ele>
        <time>2022-06-07T10:36:59Z</time>
      </trkpt>
      <trkpt lat="47.9491950" lon="8.7558600">
        <ele>233.0</ele>
        <time>2022-06-07T10:37:03Z</time>
      </trkpt>
      <trkpt lat="47.9494150" lon="8.7558360">
        <ele>232.8</ele>
        <time>2022-06-07T10:37:07Z</time>
      </trkpt>
      <trkpt lat="47.9496310" lon="8.7558110">
        <ele>233.2</ele>
        <time>2022-06-07T10:37:11Z</time>
      </trkpt>
      <trkpt lat="47.9498510" lon="8.7558080">
        <ele>233.4</ele>
        <time>2022-06-07T10:37:15Z</time>
      </trkpt>
      <trkpt lat="47.9500710" lon="8.7558010">
        <ele>234.0</ele>
        <time>2022-06-07T10:37:19Z</time>
      </trkpt>
      <trkpt lat="47.9502850" lon="8.7558210">
        <ele>234.4</ele>
        <time>2022-06-07T10:37:23Z</time>
      </trkpt>
      <trkpt lat="47.9504480" lon="8.7559460">
        <ele>235.0</ele>
        <time>2022-06-07T10:37:27Z</time>
      </trkpt>
      <trkpt lat="47.9506160" lon="8.7560980">
        <ele>234.8</ele>
        <time>2022-06-07T10:37:31Z</time>
      </trkpt>
      <trkpt lat="47.9508250" lon="8.7561560">
        <ele>234.4</ele>
        <time>2022-06-07T10:37:35Z</time>
      </trkpt>
      <trkpt lat="47.9510400" lon="8.7561930">
        <ele>234.6</ele>
        <time>2022-06-07T10:37:39Z</time>
      </trkpt>
      <trkpt lat="47.9512460" lon="8.7562330">
        <ele>234.4</ele>
        <time>2022-06-07T10:37:43Z</time>
      </trkpt>
      <trkpt lat="47.9514460" lon="8.7563130">
        <ele>235.0</ele>
        <time>2022-06-07T10:37:47Z</time>
      </trkpt>
      <trkpt lat="47.9516350" lon="8.7564310">
        <ele>234.8</ele>
        <time>2022-06-07T10:37:51Z</time>
      </trkpt>
      <trkpt lat="47.9518130" lon="8.7565930">
        <ele>234.0</ele>
        <time>2022-06-07T10:37:55Z</time>
      </trkpt>
      <trkpt lat="47.9519960" lon="8.7565100">
        <ele>234.6</ele>
        <time>2022-06-07T10:37:59Z</time>
      </trkpt>
      <trkpt lat="47.9521210" lon="8.7562760">
        <ele>234.6</ele>
        <time>2022-06-07T10:38:03Z</time>
      </trkpt>
      <trkpt lat="47.9522550" lon="8.7560960">
        <ele>234.8</ele>
        <time>2022-06-07T10:38:07Z</time>
      </trkpt>
      <trkpt lat="47.9524500" lon="8.7560510">
        <ele>234.6</ele>
        <time>2022-06-07T10:38:11Z</time>
      </trkpt>
      <trkpt lat="47.9526650" lon="8.7561460">
        <ele>232.0</ele>
        <time>2022-06-07T10:38:15Z</time>
      </trkpt>
      <trkpt lat="47.9529210" lon="8.7562630">
        <ele>231.4</ele>
        <time>2022-06-07T10:38:19Z</time>
      </trkpt>
      <trkpt lat="47.9531760" lon="8.7563830">
        <ele>231.6</ele>
        <time>2022-06-07T10:38:23Z</time>
      </trkpt>
      <trkpt lat="47.9534160" lon="8.7565210">
        <ele>231.2</ele>
        <time>2022-06-07T10:38:27Z</time>
      </trkpt>
      <trkpt lat="47.9536380" lon="8.7566580">
        <ele>231.6</ele>
        <time>2022-06-07T10:38:31Z</time>
      </trkpt>
      <trkpt lat="47.9538510" lon="8.7568080">
        <ele>231.2</ele>
        <time>2022-06-07T10:38:35Z</time>
      </trkpt>
      <trkpt lat="47.9540580" lon="8.7569580">
        <ele>230.4</ele>
        <time>2022-06-07T10:38:39Z</time>
      </trkpt>
      <trkpt lat="47.9542530" lon="8.7571010">
        <ele>231.0</ele>
        <time>2022-06-07T10:38:43Z</time>
      </trkpt>
      <trkpt lat="47.9544380" lon="8.7572710">
        <ele>231.8</ele>
        <time>2022-06-07T10:38:47Z</time>
      </trkpt>
      <trkpt lat="47.9546210" lon="8.7574600">
        <ele>231.4</ele>
        <time>2022-06-07T10:38:51Z</time>
      </trkpt>
      <trkpt lat="47.9548030" lon="8.7576460">
        <ele>231.4</ele>
        <time>2022-06-07T10:38:55Z</time>
      </trkpt>
      <trkpt lat="47.9549780" lon="8.7578300">
        <ele>231.8</ele>
        <time>2022-06-07T10:38:59Z</time>
      </trkpt>
      <trkpt lat="47.9551480" lon="8.7580230">
        <ele>232.8</ele>
        <time>2022-06-07T10:39:03Z</time>
      </trkpt>
      <trkpt lat="47.9552960" lon="8.7582060">
        <ele>233.6</ele>
        <time>2022-06-07T10:39:07Z</time>
      </trkpt>
      <trkpt lat="47.9554380" lon="8.7583610">
        <ele>234.2</ele>
        <time>2022-06-07T10:39:11Z</time>
      </trkpt>
      <trkpt lat="47.9555880" lon="8.7584980">
        <ele>234.4</ele>
        <time>2022-06-07T10:39:15Z</time>
      </trkpt>
      <trkpt lat="47.9557400" lon="8.7586580">
        <ele>234.4</ele>
        <time>2022-06-07T10:39:19Z</time>
      </trkpt>
      <trkpt lat="47.9558710" lon="8.7588580">
        <ele>233.6</ele>
        <time>2022-06-07T10:39:23Z</time>
      </trkpt>
      <trkpt lat="47.9559950" lon="8.7590880">
        <ele>233.2</ele>
        <time>2022-06-07T10:39:27Z</time>
      </trkpt>
      <trkpt lat="47.9561300" lon="8.7593300">
        <ele>233.8</ele>
        <time>2022-06-07T10:39:31Z</time>
      </trkpt>
      <trkpt lat="47.9562560" lon="8.7595810">
        <ele>233.6</ele>
        <time>2022-06-07T10:39:35Z</time>
      </trkpt>
      <trkpt lat="47.9563730" lon="8.7598350">
        <ele>234.2</ele>
        <time>2022-06-07T10:39:39Z</time>
      </trkpt>
      <trkpt lat="47.9564800" lon="8.7601000">
        <ele>233.6</ele>
        <time>2022-06-07T10:39:43Z</time>
      </trkpt>
      <trkpt lat="47.9565810" lon="8.7603800">
        <ele>233.8</ele>
        <time>2022-06-07T10:39:47Z</time>
      </trkpt>
      <trkpt lat="47.9566730" lon="8.7606680">
        <ele>233.4</ele>
        <time>2022-06-07T10:39:51Z</time>
      </trkpt>
      <trkpt lat="47.9567530" lon="8.7609650">
        <ele>233.4</ele>
        <time>2022-06-07T10:39:55Z</time>
      </trkpt>
      <trkpt lat="47.9568180" lon="8.7612660">
        <ele>233.0</ele>
        <time>2022-06-07T10:39:59Z</time>
      </trkpt>
      <trkpt lat="47.9568550" lon="8.7615750">
        <ele>233.2</ele>
        <time>2022-06-07T10:40:03Z</time>
      </trkpt>
      <trkpt lat="47.9568050" lon="8.7618710">
        <ele>233.0</ele>
        <time>2022-06-07T10:40:07Z</time>
      </trkpt>
      <trkpt lat="47.9567930" lon="8.7621730">
        <ele>233.0</ele>
        <time>2022-06-07T10:40:11Z</time>
      </trkpt>
      <trkpt lat="47.9568300" lon="8.7624610">
        <ele>233.2</ele>
        <time>2022-06-07T10:40:15Z</time>
      </trkpt>
      <trkpt lat="47.9568300" lon="8.7627330">
        <ele>232.8</ele>
        <time>2022-06-07T10:40:19Z</time>
      </trkpt>
      <trkpt lat="47.9567030" lon="8.7629150">
        <ele>233.0</ele>
        <time>2022-06-07T10:40:23Z</time>
      </trkpt>
      <trkpt lat="47.9565910" lon="8.7630880">
        <ele>233.4</ele>
        <time>2022-06-07T10:40:27Z</time>
      </trkpt>
      <trkpt lat="47.9565260" lon="8.7632060">
        <ele>233.0</ele>
        <time>2022-06-07T10:40:31Z</time>
      </trkpt>
      <trkpt lat="47.9565730" lon="8.7633950">
        <ele>232.8</ele>
        <time>2022-06-07T10:40:35Z</time>
      </trkpt>
      <trkpt lat="47.9566610" lon="8.7635950">
        <ele>232.4</ele>
        <time>2022-06-07T10:40:39Z</time>
      </trkpt>
      <trkpt lat="47.9567330" lon="8.7637950">
        <ele>232.8</ele>
        <time>2022-06-07T10:40:43Z</time>
      </trkpt>
      <trkpt lat="47.9568310" lon="8.7639250">
        <ele>233.6</ele>
        <time>2022-06-07T10:40:47Z</time>
      </trkpt>
      <trkpt lat="47.9568310" lon="8.7639250">
        <ele>233.6</ele>
        <time>2022-06-07T10:40:51Z</time>
      </trkpt>
      <trkpt lat="47.9568310" lon="8.7639250">
        <ele>233.6</ele>
        <time>2022-06-07T10:40:55Z</time>
      </trkpt>
      <trkpt lat="47.9568310" lon="8.7639250">
        <ele>233.6</ele>
        <time>2022-06-07T10:40:59Z</time>
      </trkpt>
      <trkpt lat="47.9568310" lon="8.7639250">
        <ele>233.4</ele>
        <time>2022-06-07T10:41:03Z</time>
      </trkpt>
      <trkpt lat="47.9568310" lon="8.7639250">
        <ele>233.6</ele>
        <time>2022-06-07T10:41:07Z</time>
      </trkpt>
      <trkpt lat="47.9568310" lon="8.7639250">
        <ele>233.8</ele>
        <time>2022-06-07T10:41:11Z</time>
      </trkpt>
      <trkpt lat="47.9568310" lon="8.7639250">
        <ele>233.8</ele>
        <time>2022-06-07T10:41:15Z</time>
      </trkpt>
      <trkpt lat="47.9568310" lon="8.7639250">
        <ele>233.8</ele>
        <time>2022-06-07T10:41:19Z</time>
      </trkpt>
      <trkpt lat="47.9568310" lon="8.7639250">
        <ele>233.8</ele>
        <time>2022-06-07T10:41:23Z</time>
      </trkpt>
      <trkpt lat="47.9568310" lon="8.7639250">
        <ele>233.8</ele>
        <time>2022-06-07T10:41:27Z</time>
      </trkpt>
      <trkpt lat="47.9568310" lon="8.7639250">
        <ele>233.6</ele>
        <time>2022-06-07T10:41:31Z</time>
      </trkpt>
      <trkpt lat="47.9568310" lon="8.7639250">
        <ele>233.6</ele>
        <time>2022-06-07T10:41:35Z</time>
      </trkpt>
      <trkpt lat="47.9568310" lon="8.7639250">
        <ele>233.6</ele>
        <time>2022-06-07T10:41:39Z</time>
      </trkpt>
      <trkpt lat="47.9569660" lon="8.7639910">
        <ele>232.8</ele>
        <time>2022-06-07T10:41:43Z</time>
      </trkpt>
      <trkpt lat="47.9569930" lon="8.7640160">
        <ele>233.6</ele>
        <time>2022-06-07T10:41:47Z</time>
      </trkpt>
      <trkpt lat="47.9569930" lon="8.7640160">
        <ele>233.4</ele>
        <time>2022-06-07T10:41:51Z</time>
      </trkpt>
      <trkpt lat="47.9569930" lon="8.7640160">
        <ele>233.8</ele>
        <time>2022-06-07T10:41:55Z</time>
      </trkpt>
      <trkpt lat="47.9569930" lon="8.7640160">
        <ele>233.6</ele>
        <time>2022-06-07T10:41:59Z</time>
      </trkpt>
      <trkpt lat="47.9569930" lon="8.7640160">
        <ele>233.8</ele>
        <time>2022-06-07T10:42:03Z</time>
      </trkpt>
      <trkpt lat="47.9569850" lon="8.7640000">
        <ele>233.6</ele>
        <time>2022-06-07T10:42:07Z</time>
      </trkpt>
      <trkpt lat="47.9570480" lon="8.7639560">
        <ele>234.0</ele>
        <time>2022-06-07T10:42:11Z</time>
      </trkpt>
      <trkpt lat="47.9571330" lon="8.7639110">
        <ele>234.2</ele>
        <time>2022-06-07T10:42:15Z</time>
      </trkpt>
      <trkpt lat="47.9572400" lon="8.7638650">
        <ele>234.2</ele>
        <time>2022-06-07T10:42:19Z</time>
      </trkpt>
      <trkpt lat="47.9573430" lon="8.7639180">
        <ele>233.6</ele>
        <time>2022-06-07T10:42:23Z</time>
      </trkpt>
      <trkpt lat="47.9574310" lon="8.7641730">
        <ele>232.8</ele>
        <time>2022-06-07T10:42:27Z</time>
      </trkpt>
      <trkpt lat="47.9574930" lon="8.7643680">
        <ele>233.2</ele>
        <time>2022-06-07T10:42:31Z</time>
      </trkpt>
      <trkpt lat="47.9575610" lon="8.7645030">
        <ele>233.2</ele>
        <time>2022-06-07T10:42:35Z</time>
      </trkpt>
      <trkpt lat="47.9576300" lon="8.7646050">
        <ele>234.0</ele>
        <time>2022-06-07T10:42:39Z</time>
      </trkpt>
      <trkpt lat="47.9577050" lon="8.7647280">
        <ele>233.8</ele>
        <time>2022-06-07T10:42:43Z</time>
      </trkpt>
      <trkpt lat="47.9577760" lon="8.7648880">
        <ele>233.4</ele>
        <time>2022-06-07T10:42:47Z</time>
      </trkpt>
      <trkpt lat="47.9578550" lon="8.7650500">
        <ele>233.6</ele>
        <time>2022-06-07T10:42:51Z</time>
      </trkpt>
      <trkpt lat="47.9579330" lon="8.7652050">
        <ele>233.2</ele>
        <time>2022-06-07T10:42:55Z</time>
      </trkpt>
      <trkpt lat="47.9579800" lon="8.7653010">
        <ele>233.2</ele>
        <time>2022-06-07T10:42:59Z</time>
      </trkpt>
      <trkpt lat="47.9579410" lon="8.7654250">
        <ele>233.2</ele>
        <time>2022-06-07T10:43:03Z</time>
      </trkpt>
      <trkpt lat="47.9578300" lon="8.7655680">
        <ele>233.0</ele>
        <time>2022-06-07T10:43:07Z</time>
      </trkpt>
      <trkpt lat="47.9577660" lon="8.7657660">
        <ele>232.8</ele>
        <time>2022-06-07T10:43:11Z</time>
      </trkpt>
      <trkpt lat="47.9578500" lon="8.7659850">
        <ele>233.2</ele>
        <time>2022-06-07T10:43:15Z</time>
      </trkpt>
      <trkpt lat="47.9579250" lon="8.7662050">
        <ele>233.0</ele>
        <time>2022-06-07T10:43:19Z</time>
      </trkpt>
      <trkpt lat="47.9580130" lon="8.7664110">
        <ele>233.2</ele>
        <time>2022-06-07T10:43:23Z</time>
      </trkpt>
      <trkpt lat="47.9580930" lon="8.7665910">
        <ele>234.0</ele>
        <time>2022-06-07T10:43:27Z</time>
      </trkpt>
      <trkpt lat="47.9581530" lon="8.7667150">
        <ele>233.8</ele>
        <time>2022-06-07T10:43:31Z</time>
      </trkpt>
      <trkpt lat="47.9582060" lon="8.7668730">
        <ele>233.4</ele>
        <time>2022-06-07T10:43:35Z</time>
      </trkpt>
      <trkpt lat="47.9582830" lon="8.7670950">
        <ele>232.8</ele>
        <time>2022-06-07T10:43:39Z</time>
      </trkpt>
      <trkpt lat="47.9584010" lon="8.7671550">
        <ele>233.0</ele>
        <time>2022-06-07T10:43:43Z</time>
      </trkpt>
      <trkpt lat="47.9585560" lon="8.7670800">
        <ele>232.8</ele>
        <time>2022-06-07T10:43:47Z</time>
      </trkpt>
      <trkpt lat="47.9587010" lon="8.7670080">
        <ele>233.2</ele>
        <time>2022-06-07T10:43:51Z</time>
      </trkpt>
      <trkpt lat="47.9588360" lon="8.7669660">
        <ele>232.8</ele>
        <time>2022-06-07T10:43:55Z</time>
      </trkpt>
      <trkpt lat="47.9589630" lon="8.7669100">
        <ele>233.2</ele>
        <time>2022-06-07T10:43:59Z</time>
      </trkpt>
      <trkpt lat="47.9590910" lon="8.7669010">
        <ele>233.4</ele>
        <time>2022-06-07T10:44:03Z</time>
      </trkpt>
      <trkpt lat="47.9592410" lon="8.7668760">
        <ele>234.0</ele>
        <time>2022-06-07T10:44:07Z</time>
      </trkpt>
      <trkpt lat="47.9593900" lon="8.7668480">
        <ele>234.6</ele>
        <time>2022-06-07T10:44:11Z</time>
      </trkpt>
      <trkpt lat="47.9595410" lon="8.7668430">
        <ele>234.8</ele>
        <time>2022-06-07T10:44:15Z</time>
      </trkpt>
      <trkpt lat="47.9596610" lon="8.7669330">
        <ele>234.8</ele>
        <time>2022-06-07T10:44:19Z</time>
      </trkpt>
      <trkpt lat="47.9596530" lon="8.7671650">
        <ele>235.0</ele>
        <time>2022-06-07T10:44:23Z</time>
      </trkpt>
      <trkpt lat="47.9596360" lon="8.7674060">
        <ele>234.4</ele>
        <time>2022-06-07T10:44:27Z</time>
      </trkpt>
      <trkpt lat="47.9596230" lon="8.7676530">
        <ele>234.4</ele>
        <time>2022-06-07T10:44:31Z</time>
      </trkpt>
      <trkpt lat="47.9596010" lon="8.7679030">
        <ele>235.0</ele>
        <time>2022-06-07T10:44:35Z</time>
      </trkpt>
      <trkpt lat="47.9595880" lon="8.7681530">
        <ele>235.0</ele>
        <time>2022-06-07T10:44:39Z</time>
      </trkpt>
      <trkpt lat="47.9595630" lon="8.7684150">
        <ele>234.4</ele>
        <time>2022-06-07T10:44:43Z</time>
      </trkpt>
      <trkpt lat="47.9595450" lon="8.7686660">
        <ele>234.4</ele>
        <time>2022-06-07T10:44:47Z</time>
      </trkpt>
      <trkpt lat="47.9595160" lon="8.7688850">
        <ele>234.0</ele>
        <time>2022-06-07T10:44:51Z</time>
      </trkpt>
      <trkpt lat="47.9595210" lon="8.7690150">
        <ele>234.2</ele>
        <time>2022-06-07T10:44:55Z</time>
      </trkpt>
      <trkpt lat="47.9594680" lon="8.7690980">
        <ele>234.2</ele>
        <time>2022-06-07T10:44:59Z</time>
      </trkpt>
      <trkpt lat="47.9593580" lon="8.7691150">
        <ele>234.0</ele>
        <time>2022-06-07T10:45:03Z</time>
      </trkpt>
      <trkpt lat="47.9592380" lon="8.7691510">
        <ele>233.6</ele>
        <time>2022-06-07T10:45:07Z</time>
      </trkpt>
      <trkpt lat="47.9591050" lon="8.7691800">
        <ele>233.2</ele>
        <time>2022-06-07T10:45:11Z</time>
      </trkpt>
      <trkpt lat="47.9589530" lon="8.7692280">
        <ele>232.6</ele>
        <time>2022-06-07T10:45:15Z</time>
      </trkpt>
      <trkpt lat="47.9588010" lon="8.7692780">
        <ele>232.8</ele>
        <time>2022-06-07T10:45:19Z</time>
      </trkpt>
      <trkpt lat="47.9587580" lon="8.7694900">
        <ele>233.0</ele>
        <time>2022-06-07T10:45:23Z</time>
      </trkpt>
      <trkpt lat="47.9587230" lon="8.7697410">
        <ele>232.4</ele>
        <time>2022-06-07T10:45:27Z</time>
      </trkpt>
      <trkpt lat="47.9586980" lon="8.7700230">
        <ele>232.6</ele>
        <time>2022-06-07T10:45:31Z</time>
      </trkpt>
      <trkpt lat="47.9586810" lon="8.7702930">
        <ele>232.8</ele>
        <time>2022-06-07T10:45:35Z</time>
      </trkpt>
      <trkpt lat="47.9586650" lon="8.7705460">
        <ele>233.0</ele>
        <time>2022-06-07T10:45:39Z</time>
      </trkpt>
      <trkpt lat="47.9586410" lon="8.7708000">
        <ele>232.6</ele>
        <time>2022-06-07T10:45:43Z</time>
      </trkpt>
      <trkpt lat="47.9586150" lon="8.7710210">
        <ele>232.6</ele>
        <time>2022-06-07T10:45:47Z</time>
      </trkpt>
      <trkpt lat="47.9586380" lon="8.7712400">
        <ele>232.6</ele>
        <time>2022-06-07T10:45:51Z</time>
      </trkpt>
      <trkpt lat="47.9586650" lon="8.7714860">
        <ele>232.4</ele>
        <time>2022-06-07T10:45:55Z</time>
      </trkpt>
      <trkpt lat="47.9587010" lon="8.7717150">
        <ele>232.0</ele>
        <time>2022-06-07T10:45:59Z</time>
      </trkpt>
      <trkpt lat="47.9587510" lon="8.7719530">
        <ele>232.0</ele>
        <time>2022-06-07T10:46:03Z</time>
      </trkpt>
      <trkpt lat="47.9587500" lon="8.7721880">
        <ele>232.6</ele>
        <time>2022-06-07T10:46:07Z</time>
      </trkpt>
      <trkpt lat="47.9587260" lon="8.7724460">
        <ele>232.4</ele>
        <time>2022-06-07T10:46:11Z</time>
      </trkpt>
      <trkpt lat="47.9586960" lon="8.7727110">
        <ele>232.2</ele>
        <time>2022-06-07T10:46:15Z</time>
      </trkpt>
      <trkpt lat="47.9587010" lon="8.7729530">
        <ele>232.0</ele>
        <time>2022-06-07T10:46:19Z</time>
      </trkpt>
      <trkpt lat="47.9586380" lon="8.7729430">
        <ele>232.2</ele>
        <time>2022-06-07T10:46:23Z</time>
      </trkpt>
      <trkpt lat="47.9586260" lon="8.7727680">
        <ele>232.8</ele>
        <time>2022-06-07T10:46:27Z</time>
      </trkpt>
      <trkpt lat="47.9585810" lon="8.7728600">
        <ele>234.4</ele>
        <time>2022-06-07T10:46:31Z</time>
      </trkpt>
      <trkpt lat="47.9585460" lon="8.7730030">
        <ele>234.4</ele>
        <time>2022-06-07T10:46:35Z</time>
      </trkpt>
      <trkpt lat="47.9585180" lon="8.7732150">
        <ele>233.8</ele>
        <time>2022-06-07T10:46:39Z</time>
      </trkpt>
      <trkpt lat="47.9585800" lon="8.7734900">
        <ele>233.2</ele>
        <time>2022-06-07T10:46:43Z</time>
      </trkpt>
      <trkpt lat="47.9586900" lon="8.7737710">
        <ele>231.8</ele>
        <time>2022-06-07T10:46:47Z</time>
      </trkpt>
      <trkpt lat="47.9588280" lon="8.7740360">
        <ele>232.4</ele>
        <time>2022-06-07T10:46:51Z</time>
      </trkpt>
      <trkpt lat="47.9589580" lon="8.7742930">
        <ele>231.2</ele>
        <time>2022-06-07T10:46:55Z</time>
      </trkpt>
      <trkpt lat="47.9590710" lon="8.7745750">
        <ele>231.8</ele>
        <time>2022-06-07T10:46:59Z</time>
      </trkpt>
      <trkpt lat="47.9591610" lon="8.7748750">
        <ele>232.2</ele>
        <time>2022-06-07T10:47:03Z</time>
      </trkpt>
      <trkpt lat="47.9592000" lon="8.7751810">
        <ele>232.8</ele>
        <time>2022-06-07T10:47:07Z</time>
      </trkpt>
      <trkpt lat="47.9591800" lon="8.7754430">
        <ele>232.2</ele>
        <time>2022-06-07T10:47:11Z</time>
      </trkpt>
      <trkpt lat="47.9590930" lon="8.7756900">
        <ele>233.6</ele>
        <time>2022-06-07T10:47:15Z</time>
      </trkpt>
      <trkpt lat="47.9589630" lon="8.7758960">
        <ele>233.8</ele>
        <time>2022-06-07T10:47:19Z</time>
      </trkpt>
      <trkpt lat="47.9588160" lon="8.7760550">
        <ele>234.2</ele>
        <time>2022-06-07T10:47:23Z</time>
      </trkpt>
      <trkpt lat="47.9586530" lon="8.7761610">
        <ele>233.6</ele>
        <time>2022-06-07T10:47:27Z</time>
      </trkpt>
      <trkpt lat="47.9585060" lon="8.7763130">
        <ele>234.4</ele>
        <time>2022-06-07T10:47:31Z</time>
      </trkpt>
      <trkpt lat="47.9583530" lon="8.7764600">
        <ele>234.6</ele>
        <time>2022-06-07T10:47:35Z</time>
      </trkpt>
      <trkpt lat="47.9582030" lon="8.7766160">
        <ele>234.4</ele>
        <time>2022-06-07T10:47:39Z</time>
      </trkpt>
      <trkpt lat="47.9580880" lon="8.7768310">
        <ele>234.4</ele>
        <time>2022-06-07T10:47:43Z</time>
      </trkpt>
      <trkpt lat="47.9581310" lon="8.7771010">
        <ele>233.4</ele>
        <time>2022-06-07T10:47:47Z</time>
      </trkpt>
      <trkpt lat="47.9583150" lon="8.7773350">
        <ele>231.6</ele>
        <time>2022-06-07T10:47:51Z</time>
      </trkpt>
      <trkpt lat="47.9584960" lon="8.7775650">
        <ele>233.0</ele>
        <time>2022-06-07T10:47:55Z</time>
      </trkpt>
      <trkpt lat="47.9586630" lon="8.7777930">
        <ele>232.2</ele>
        <time>2022-06-07T10:47:59Z</time>
      </trkpt>
      <trkpt lat="47.9587980" lon="8.7780200">
        <ele>233.2</ele>
        <time>2022-06-07T10:48:03Z</time>
      </trkpt>
      <trkpt lat="47.9588960" lon="8.7782160">
        <ele>233.0</ele>
        <time>2022-06-07T10:48:07Z</time>
      </trkpt>
      <trkpt lat="47.9590160" lon="8.7784010">
        <ele>233.4</ele>
        <time>2022-06-07T10:48:11Z</time>
      </trkpt>
      <trkpt lat="47.9591450" lon="8.7786050">
        <ele>233.4</ele>
        <time>2022-06-07T10:48:15Z</time>
      </trkpt>
      <trkpt lat="47.9593100" lon="8.7788060">
        <ele>232.0</ele>
        <time>2022-06-07T10:48:19Z</time>
      </trkpt>
      <trkpt lat="47.9594680" lon="8.7790460">
        <ele>232.6</ele>
        <time>2022-06-07T10:48:23Z</time>
      </trkpt>
      <trkpt lat="47.9596180" lon="8.7792900">
        <ele>232.6</ele>
        <time>2022-06-07T10:48:27Z</time>
      </trkpt>
      <trkpt lat="47.9597730" lon="8.7795310">
        <ele>232.4</ele>
        <time>2022-06-07T10:48:31Z</time>
      </trkpt>
      <trkpt lat="47.9599360" lon="8.7797910">
        <ele>231.0</ele>
        <time>2022-06-07T10:48:35Z</time>
      </trkpt>
      <trkpt lat="47.9600810" lon="8.7800330">
        <ele>231.4</ele>
        <time>2022-06-07T10:48:39Z</time>
      </trkpt>
      <trkpt lat="47.9602260" lon="8.7802630">
        <ele>231.2</ele>
        <time>2022-06-07T10:48:43Z</time>
      </trkpt>
      <trkpt lat="47.9603700" lon="8.7804810">
        <ele>231.6</ele>
        <time>2022-06-07T10:48:47Z</time>
      </trkpt>
      <trkpt lat="47.9605150" lon="8.7806900">
        <ele>232.0</ele>
        <time>2022-06-07T10:48:51Z</time>
      </trkpt>
      <trkpt lat="47.9606710" lon="8.7809000">
        <ele>231.8</ele>
        <time>2022-06-07T10:48:55Z</time>
      </trkpt>
      <trkpt lat="47.9608200" lon="8.7811100">
        <ele>232.2</ele>
        <time>2022-06-07T10:48:59Z</time>
      </trkpt>
      <trkpt lat="47.9609710" lon="8.7813160">
        <ele>232.0</ele>
        <time>2022-06-07T10:49:03Z</time>
      </trkpt>
      <trkpt lat="47.9611230" lon="8.7815100">
        <ele>232.0</ele>
        <time>2022-06-07T10:49:07Z</time>
      </trkpt>
      <trkpt lat="47.9612660" lon="8.7817050">
        <ele>232.6</ele>
        <time>2022-06-07T10:49:11Z</time>
      </trkpt>
      <trkpt lat="47.9614030" lon="8.7818810">
        <ele>233.0</ele>
        <time>2022-06-07T10:49:15Z</time>
      </trkpt>
      <trkpt lat="47.9615560" lon="8.7818600">
        <ele>233.0</ele>
        <time>2022-06-07T10:49:19Z</time>
      </trkpt>
      <trkpt lat="47.9616650" lon="8.7816730">
        <ele>232.6</ele>
        <time>2022-06-07T10:49:23Z</time>
      </trkpt>
      <trkpt lat="47.9617460" lon="8.7814400">
        <ele>232.6</ele>
        <time>2022-06-07T10:49:27Z</time>
      </trkpt>
      <trkpt lat="47.9618110" lon="8.7811960">
        <ele>232.2</ele>
        <time>2022-06-07T10:49:31Z</time>
      </trkpt>
      <trkpt lat="47.9618830" lon="8.7809330">
        <ele>232.0</ele>
        <time>2022-06-07T10:49:35Z</time>
      </trkpt>
      <trkpt lat="47.9620360" lon="8.7807880">
        <ele>232.0</ele>
        <time>2022-06-07T10:49:39Z</time>
      </trkpt>
      <trkpt lat="47.9622280" lon="8.7808150">
        <ele>231.8</ele>
        <time>2022-06-07T10:49:43Z</time>
      </trkpt>
      <trkpt lat="47.9624000" lon="8.7809630">
        <ele>232.0</ele>
        <time>2022-06-07T10:49:47Z</time>
      </trkpt>
      <trkpt lat="47.9625750" lon="8.7811350">
        <ele>232.0</ele>
        <time>2022-06-07T10:49:51Z</time>
      </trkpt>
      <trkpt lat="47.9627560" lon="8.7813110">
        <ele>231.8</ele>
        <time>2022-06-07T10:49:55Z</time>
      </trkpt>
      <trkpt lat="47.9629380" lon="8.7814760">
        <ele>232.2</ele>
        <time>2022-06-07T10:49:59Z</time>
      </trkpt>
      <trkpt lat="47.9631180" lon="8.7816300">
        <ele>231.8</ele>
        <time>2022-06-07T10:50:03Z</time>
      </trkpt>
      <trkpt lat="47.9632950" lon="8.7817710">
        <ele>232.6</ele>
        <time>2022-06-07T10:50:07Z</time>
      </trkpt>
      <trkpt lat="47.9634710" lon="8.7819110">
        <ele>233.4</ele>
        <time>2022-06-07T10:50:11Z</time>
      </trkpt>
      <trkpt lat="47.9636380" lon="8.7820380">
        <ele>234.2</ele>
        <time>2022-06-07T10:50:15Z</time>
      </trkpt>
      <trkpt lat="47.9637800" lon="8.7819160">
        <ele>234.4</ele>
        <time>2022-06-07T10:50:19Z</time>
      </trkpt>
      <trkpt lat="47.9638830" lon="8.7817080">
        <ele>233.8</ele>
        <time>2022-06-07T10:50:23Z</time>
      </trkpt>
      <trkpt lat="47.9639880" lon="8.7814910">
        <ele>233.8</ele>
        <time>2022-06-07T10:50:27Z</time>
      </trkpt>
      <trkpt lat="47.9641050" lon="8.7812730">
        <ele>234.6</ele>
        <time>2022-06-07T10:50:31Z</time>
      </trkpt>
      <trkpt lat="47.9642230" lon="8.7810580">
        <ele>234.2</ele>
        <time>2022-06-07T10:50:35Z</time>
      </trkpt>
      <trkpt lat="47.9643330" lon="8.7808680">
        <ele>234.4</ele>
        <time>2022-06-07T10:50:39Z</time>
      </trkpt>
      <trkpt lat="47.9644660" lon="8.7807910">
        <ele>233.4</ele>
        <time>2022-06-07T10:50:43Z</time>
      </trkpt>
      <trkpt lat="47.9646030" lon="8.7809510">
        <ele>233.4</ele>
        <time>2022-06-07T10:50:47Z</time>
      </trkpt>
      <trkpt lat="47.9647400" lon="8.7811330">
        <ele>233.6</ele>
        <time>2022-06-07T10:50:51Z</time>
      </trkpt>
      <trkpt lat="47.9648830" lon="8.7813130">
        <ele>233.4</ele>
        <time>2022-06-07T10:50:55Z</time>
      </trkpt>
      <trkpt lat="47.9650350" lon="8.7814900">
        <ele>233.6</ele>
        <time>2022-06-07T10:50:59Z</time>
      </trkpt>
      <trkpt lat="47.9651830" lon="8.7816650">
        <ele>234.0</ele>
        <time>2022-06-07T10:51:03Z</time>
      </trkpt>
      <trkpt lat="47.9653500" lon="8.7817650">
        <ele>233.6</ele>
        <time>2022-06-07T10:51:07Z</time>
      </trkpt>
      <trkpt lat="47.9654930" lon="8.7815780">
        <ele>234.0</ele>
        <time>2022-06-07T10:51:11Z</time>
      </trkpt>
      <trkpt lat="47.9656030" lon="8.7813260">
        <ele>233.4</ele>
        <time>2022-06-07T10:51:15Z</time>
      </trkpt>
      <trkpt lat="47.9657630" lon="8.7811510">
        <ele>233.2</ele>
        <time>2022-06-07T10:51:19Z</time>
      </trkpt>
      <trkpt lat="47.9659380" lon="8.7812480">
        <ele>233.2</ele>
        <time>2022-06-07T10:51:23Z</time>
      </trkpt>
      <trkpt lat="47.9660880" lon="8.7814150">
        <ele>233.6</ele>
        <time>2022-06-07T10:51:27Z</time>
      </trkpt>
      <trkpt lat="47.9662510" lon="8.7815560">
        <ele>233.4</ele>
        <time>2022-06-07T10:51:31Z</time>
      </trkpt>
      <trkpt lat="47.9664280" lon="8.7816880">
        <ele>233.6</ele>
        <time>2022-06-07T10:51:35Z</time>
      </trkpt>
      <trkpt lat="47.9666200" lon="8.7817980">
        <ele>234.0</ele>
        <time>2022-06-07T10:51:39Z</time>
      </trkpt>
      <trkpt lat="47.9668150" lon="8.7818930">
        <ele>233.6</ele>
        <time>2022-06-07T10:51:43Z</time>
      </trkpt>
      <trkpt lat="47.9670200" lon="8.7819850">
        <ele>233.4</ele>
        <time>2022-06-07T10:51:47Z</time>
      </trkpt>
      <trkpt lat="47.9672200" lon="8.7821030">
        <ele>233.4</ele>
        <time>2022-06-07T10:51:51Z</time>
      </trkpt>
      <trkpt lat="47.9674110" lon="8.7822500">
        <ele>233.2</ele>
        <time>2022-06-07T10:51:55Z</time>
      </trkpt>
      <trkpt lat="47.9676080" lon="8.7824230">
        <ele>232.8</ele>
        <time>2022-06-07T10:51:59Z</time>
      </trkpt>
      <trkpt lat="47.9678030" lon="8.7826000">
        <ele>232.8</ele>
        <time>2022-06-07T10:52:03Z</time>
      </trkpt>
      <trkpt lat="47.9680010" lon="8.7827750">
        <ele>232.8</ele>
        <time>2022-06-07T10:52:07Z</time>
      </trkpt>
      <trkpt lat="47.9681910" lon="8.7829610">
        <ele>232.6</ele>
        <time>2022-06-07T10:52:11Z</time>
      </trkpt>
      <trkpt lat="47.9683560" lon="8.7831330">
        <ele>232.8</ele>
        <time>2022-06-07T10:52:15Z</time>
      </trkpt>
      <trkpt lat="47.9685150" lon="8.7832960">
        <ele>233.0</ele>
        <time>2022-06-07T10:52:19Z</time>
      </trkpt>
      <trkpt lat="47.9686680" lon="8.7834710">
        <ele>233.2</ele>
        <time>2022-06-07T10:52:23Z</time>
      </trkpt>
      <trkpt lat="47.9688450" lon="8.7836400">
        <ele>232.4</ele>
        <time>2022-06-07T10:52:27Z</time>
      </trkpt>
      <trkpt lat="47.9690200" lon="8.7838260">
        <ele>232.6</ele>
        <time>2022-06-07T10:52:31Z</time>
      </trkpt>
      <trkpt lat="47.9691910" lon="8.7840010">
        <ele>232.8</ele>
        <time>2022-06-07T10:52:35Z</time>
      </trkpt>
      <trkpt lat="47.9693410" lon="8.7841900">
        <ele>233.0</ele>
        <time>2022-06-07T10:52:39Z</time>
      </trkpt>
      <trkpt lat="47.9694950" lon="8.7843730">
        <ele>232.6</ele>
        <time>2022-06-07T10:52:43Z</time>
      </trkpt>
      <trkpt lat="47.9696530" lon="8.7845680">
        <ele>232.4</ele>
        <time>2022-06-07T10:52:47Z</time>
      </trkpt>
      <trkpt lat="47.9697860" lon="8.7847960">
        <ele>231.8</ele>
        <time>2022-06-07T10:52:51Z</time>
      </trkpt>
      <trkpt lat="47.9697250" lon="8.7850660">
        <ele>231.6</ele>
        <time>2022-06-07T10:52:55Z</time>
      </trkpt>
      <trkpt lat="47.9696150" lon="8.7852700">
        <ele>231.8</ele>
        <time>2022-06-07T10:52:59Z</time>
      </trkpt>
      <trkpt lat="47.9695380" lon="8.7854900">
        <ele>232.0</ele>
        <time>2022-06-07T10:53:03Z</time>
      </trkpt>
      <trkpt lat="47.9696230" lon="8.7857360">
        <ele>231.8</ele>
        <time>2022-06-07T10:53:07Z</time>
      </trkpt>
      <trkpt lat="47.9697750" lon="8.7859380">
        <ele>232.0</ele>
        <time>2022-06-07T10:53:11Z</time>
      </trkpt>
      <trkpt lat="47.9699250" lon="8.7861230">
        <ele>231.6</ele>
        <time>2022-06-07T10:53:15Z</time>
      </trkpt>
      <trkpt lat="47.9700810" lon="8.7863100">
        <ele>231.4</ele>
        <time>2022-06-07T10:53:19Z</time>
      </trkpt>
      <trkpt lat="47.9702380" lon="8.7864960">
        <ele>231.6</ele>
        <time>2022-06-07T10:53:23Z</time>
      </trkpt>
      <trkpt lat="47.9704060" lon="8.7866910">
        <ele>231.2</ele>
        <time>2022-06-07T10:53:27Z</time>
      </trkpt>
      <trkpt lat="47.9705700" lon="8.7868910">
        <ele>231.6</ele>
        <time>2022-06-07T10:53:31Z</time>
      </trkpt>
      <trkpt lat="47.9707200" lon="8.7870630">
        <ele>231.6</ele>
        <time>2022-06-07T10:53:35Z</time>
      </trkpt>
      <trkpt lat="47.9708780" lon="8.7872310">
        <ele>231.4</ele>
        <time>2022-06-07T10:53:39Z</time>
      </trkpt>
      <trkpt lat="47.9710500" lon="8.7873780">
        <ele>231.0</ele>
        <time>2022-06-07T10:53:43Z</time>
      </trkpt>
      <trkpt lat="47.9712310" lon="8.7874880">
        <ele>231.2</ele>
        <time>2022-06-07T10:53:47Z</time>
      </trkpt>
      <trkpt lat="47.9714250" lon="8.7875630">
        <ele>230.6</ele>
        <time>2022-06-07T10:53:51Z</time>
      </trkpt>
      <trkpt lat="47.9716330" lon="8.7876060">
        <ele>230.6</ele>
        <time>2022-06-07T10:53:55Z</time>
      </trkpt>
      <trkpt lat="47.9718480" lon="8.7876310">
        <ele>230.2</ele>
        <time>2022-06-07T10:53:59Z</time>
      </trkpt>
      <trkpt lat="47.9720610" lon="8.7876650">
        <ele>231.0</ele>
        <time>2022-06-07T10:54:03Z</time>
      </trkpt>
      <trkpt lat="47.9722700" lon="8.7877560">
        <ele>231.0</ele>
        <time>2022-06-07T10:54:07Z</time>
      </trkpt>
      <trkpt lat="47.9724410" lon="8.7879300">
        <ele>230.8</ele>
        <time>2022-06-07T10:54:11Z</time>
      </trkpt>
      <trkpt lat="47.9725700" lon="8.7881850">
        <ele>230.2</ele>
        <time>2022-06-07T10:54:15Z</time>
      </trkpt>
      <trkpt lat="47.9726350" lon="8.7884910">
        <ele>230.4</ele>
        <time>2022-06-07T10:54:19Z</time>
      </trkpt>
      <trkpt lat="47.9726810" lon="8.7887960">
        <ele>230.8</ele>
        <time>2022-06-07T10:54:23Z</time>
      </trkpt>
      <trkpt lat="47.9727180" lon="8.7891060">
        <ele>230.2</ele>
        <time>2022-06-07T10:54:27Z</time>
      </trkpt>
      <trkpt lat="47.9727560" lon="8.7894050">
        <ele>230.4</ele>
        <time>2022-06-07T10:54:31Z</time>
      </trkpt>
      <trkpt lat="47.9728080" lon="8.7896800">
        <ele>230.2</ele>
        <time>2022-06-07T10:54:35Z</time>
      </trkpt>
      <trkpt lat="47.9728880" lon="8.7899450">
        <ele>230.8</ele>
        <time>2022-06-07T10:54:39Z</time>
      </trkpt>
      <trkpt lat="47.9729880" lon="8.7901860">
        <ele>230.2</ele>
        <time>2022-06-07T10:54:43Z</time>
      </trkpt>
      <trkpt lat="47.9731030" lon="8.7903980">
        <ele>230.0</ele>
        <time>2022-06-07T10:54:47Z</time>
      </trkpt>
      <trkpt lat="47.9732300" lon="8.7905610">
        <ele>230.4</ele>
        <time>2022-06-07T10:54:51Z</time>
      </trkpt>
      <trkpt lat="47.9733580" lon="8.7907300">
        <ele>230.6</ele>
        <time>2022-06-07T10:54:55Z</time>
      </trkpt>
      <trkpt lat="47.9735030" lon="8.7908900">
        <ele>230.4</ele>
        <time>2022-06-07T10:54:59Z</time>
      </trkpt>
      <trkpt lat="47.9736580" lon="8.7910650">
        <ele>229.6</ele>
        <time>2022-06-07T10:55:03Z</time>
      </trkpt>
      <trkpt lat="47.9738200" lon="8.7912500">
        <ele>230.2</ele>
        <time>2022-06-07T10:55:07Z</time>
      </trkpt>
      <trkpt lat="47.9739730" lon="8.7914380">
        <ele>230.2</ele>
        <time>2022-06-07T10:55:11Z</time>
      </trkpt>
      <trkpt lat="47.9741200" lon="8.7916230">
        <ele>230.0</ele>
        <time>2022-06-07T10:55:15Z</time>
      </trkpt>
      <trkpt lat="47.9742750" lon="8.7918030">
        <ele>230.2</ele>
        <time>2022-06-07T10:55:19Z</time>
      </trkpt>
      <trkpt lat="47.9744400" lon="8.7919680">
        <ele>229.4</ele>
        <time>2022-06-07T10:55:23Z</time>
      </trkpt>
      <trkpt lat="47.9746050" lon="8.7921330">
        <ele>229.8</ele>
        <time>2022-06-07T10:55:27Z</time>
      </trkpt>
      <trkpt lat="47.9747480" lon="8.7922760">
        <ele>230.2</ele>
        <time>2022-06-07T10:55:31Z</time>
      </trkpt>
      <trkpt lat="47.9748360" lon="8.7924850">
        <ele>231.8</ele>
        <time>2022-06-07T10:55:35Z</time>
      </trkpt>
      <trkpt lat="47.9749010" lon="8.7926280">
        <ele>233.2</ele>
        <time>2022-06-07T10:55:39Z</time>
      </trkpt>
      <trkpt lat="47.9749010" lon="8.7926280">
        <ele>233.4</ele>
        <time>2022-06-07T10:55:43Z</time>
      </trkpt>
      <trkpt lat="47.9749010" lon="8.7926280">
        <ele>233.6</ele>
        <time>2022-06-07T10:55:47Z</time>
      </trkpt>
      <trkpt lat="47.9749010" lon="8.7926280">
        <ele>233.8</ele>
        <time>2022-06-07T10:55:51Z</time>
      </trkpt>
      <trkpt lat="47.9749010" lon="8.7927150">
        <ele>233.4</ele>
        <time>2022-06-07T10:55:55Z</time>
      </trkpt>
      <trkpt lat="47.9748810" lon="8.7926900">
        <ele>233.6</ele>
        <time>2022-06-07T10:55:59Z</time>
      </trkpt>
      <trkpt lat="47.9748550" lon="8.7926560">
        <ele>233.4</ele>
        <time>2022-06-07T10:56:03Z</time>
      </trkpt>
      <trkpt lat="47.9748310" lon="8.7926350">
        <ele>233.4</ele>
        <time>2022-06-07T10:56:07Z</time>
      </trkpt>
      <trkpt lat="47.9748060" lon="8.7926210">
        <ele>233.4</ele>
        <time>2022-06-07T10:56:11Z</time>
      </trkpt>
      <trkpt lat="47.9747800" lon="8.7925980">
        <ele>233.4</ele>
        <time>2022-06-07T10:56:15Z</time>
      </trkpt>
      <trkpt lat="47.9747530" lon="8.7926050">
        <ele>233.6</ele>
        <time>2022-06-07T10:56:19Z</time>
      </trkpt>
      <trkpt lat="47.9747530" lon="8.7926050">
        <ele>233.8</ele>
        <time>2022-06-07T10:56:23Z</time>
      </trkpt>
      <trkpt lat="47.9747530" lon="8.7926050">
        <ele>233.4</ele>
        <time>2022-06-07T10:56:27Z</time>
      </trkpt>
      <trkpt lat="47.9747530" lon="8.7926050">
        <ele>233.8</ele>
        <time>2022-06-07T10:56:31Z</time>
      </trkpt>
      <trkpt lat="47.9747400" lon="8.7926080">
        <ele>233.8</ele>
        <time>2022-06-07T10:56:35Z</time>
      </trkpt>
      <trkpt lat="47.9747500" lon="8.7926060">
        <ele>233.8</ele>
        <time>2022-06-07T10:56:39Z</time>
      </trkpt>
      <trkpt lat="47.9747500" lon="8.7926060">
        <ele>233.4</ele>
        <time>2022-06-07T10:56:43Z</time>
      </trkpt>
      <trkpt lat="47.9747810" lon="8.7926050">
        <ele>233.6</ele>
        <time>2022-06-07T10:56:47Z</time>
      </trkpt>
      <trkpt lat="47.9748230" lon="8.7925930">
        <ele>233.2</ele>
        <time>2022-06-07T10:56:51Z</time>
      </trkpt>
      <trkpt lat="47.9748660" lon="8.7926180">
        <ele>233.4</ele>
        <time>2022-06-07T10:56:55Z</time>
      </trkpt>
      <trkpt lat="47.9748660" lon="8.7926180">
        <ele>233.2</ele>
        <time>2022-06-07T10:56:59Z</time>
      </trkpt>
      <trkpt lat="47.9748660" lon="8.7926180">
        <ele>233.4</ele>
        <time>2022-06-07T10:57:03Z</time>
      </trkpt>
      <trkpt lat="47.9748660" lon="8.7926180">
        <ele>233.2</ele>
        <time>2022-06-07T10:57:07Z</time>
      </trkpt>
      <trkpt lat="47.9748660" lon="8.7926180">
        <ele>233.2</ele>
        <time>2022-06-07T10:57:11Z</time>
      </trkpt>
      <trkpt lat="47.9748660" lon="8.7926180">
        <ele>233.4</ele>
        <time>2022-06-07T10:57:15Z</time>
      </trkpt>
      <trkpt lat="47.9748660" lon="8.7926180">
        <ele>233.2</ele>
        <time>2022-06-07T10:57:19Z</time>
      </trkpt>
      <trkpt lat="47.9748660" lon="8.7926180">
        <ele>232.8</ele>
        <time>2022-06-07T10:57:23Z</time>
      </trkpt>
      <trkpt lat="47.9748660" lon="8.7926180">
        <ele>233.4</ele>
        <time>2022-06-07T10:57:27Z</time>
      </trkpt>
      <trkpt lat="47.9748660" lon="8.7926180">
        <ele>233.6</ele>
        <time>2022-06-07T10:57:31Z</time>
      </trkpt>
      <trkpt lat="47.9748660" lon="8.7926180">
        <ele>233.4</ele>
        <time>2022-06-07T10:57:35Z</time>
      </trkpt>
      <trkpt lat="47.9748660" lon="8.7926180">
        <ele>233.4</ele>
        <time>2022-06-07T10:57:39Z</time>
      </trkpt>
      <trkpt lat="47.9748660" lon="8.7926180">
        <ele>233.0</ele>
        <time>2022-06-07T10:57:43Z</time>
      </trkpt>
      <trkpt lat="47.9748660" lon="8.7926180">
        <ele>233.0</ele>
        <time>2022-06-07T10:57:47Z</time>
      </trkpt>
      <trkpt lat="47.9748860" lon="8.7926360">
        <ele>233.6</ele>
        <time>2022-06-07T10:57:51Z</time>
      </trkpt>
      <trkpt lat="47.9748860" lon="8.7926360">
        <ele>233.2</ele>
        <time>2022-06-07T10:57:55Z</time>
      </trkpt>
      <trkpt lat="47.9748860" lon="8.7926360">
        <ele>233.4</ele>
        <time>2022-06-07T10:57:59Z</time>
      </trkpt>
      <trkpt lat="47.9749030" lon="8.7926350">
        <ele>233.0</ele>
        <time>2022-06-07T10:58:03Z</time>
      </trkpt>
      <trkpt lat="47.9749060" lon="8.7926160">
        <ele>232.6</ele>
        <time>2022-06-07T10:58:07Z</time>
      </trkpt>
      <trkpt lat="47.9748680" lon="8.7925310">
        <ele>232.0</ele>
        <time>2022-06-07T10:58:11Z</time>
      </trkpt>
      <trkpt lat="47.9748300" lon="8.7924500">
        <ele>230.8</ele>
        <time>2022-06-07T10:58:15Z</time>
      </trkpt>
      <trkpt lat="47.9747830" lon="8.7923430">
        <ele>229.8</ele>
        <time>2022-06-07T10:58:19Z</time>
      </trkpt>
      <trkpt lat="47.9747930" lon="8.7922810">
        <ele>230.2</ele>
        <time>2022-06-07T10:58:23Z</time>
      </trkpt>
      <trkpt lat="47.9748530" lon="8.7922730">
        <ele>230.0</ele>
        <time>2022-06-07T10:58:27Z</time>
      </trkpt>
      <trkpt lat="47.9749260" lon="8.7921700">
        <ele>230.2</ele>
        <time>2022-06-07T10:58:31Z</time>
      </trkpt>
      <trkpt lat="47.9749960" lon="8.7920160">
        <ele>229.4</ele>
        <time>2022-06-07T10:58:35Z</time>
      </trkpt>
      <trkpt lat="47.9750760" lon="8.7918530">
        <ele>229.8</ele>
        <time>2022-06-07T10:58:39Z</time>
      </trkpt>
      <trkpt lat="47.9751830" lon="8.7917550">
        <ele>229.6</ele>
        <time>2022-06-07T10:58:43Z</time>
      </trkpt>
      <trkpt lat="47.9753010" lon="8.7917110">
        <ele>229.8</ele>
        <time>2022-06-07T10:58:47Z</time>
      </trkpt>
      <trkpt lat="47.9754360" lon="8.7916900">
        <ele>229.6</ele>
        <time>2022-06-07T10:58:51Z</time>
      </trkpt>
      <trkpt lat="47.9755860" lon="8.7916860">
        <ele>229.4</ele>
        <time>2022-06-07T10:58:55Z</time>
      </trkpt>
      <trkpt lat="47.9757430" lon="8.7917550">
        <ele>229.8</ele>
        <time>2022-06-07T10:58:59Z</time>
      </trkpt>
      <trkpt lat="47.9758830" lon="8.7918600">
        <ele>229.8</ele>
        <time>2022-06-07T10:59:03Z</time>
      </trkpt>
      <trkpt lat="47.9760160" lon="8.7919760">
        <ele>230.0</ele>
        <time>2022-06-07T10:59:07Z</time>
      </trkpt>
      <trkpt lat="47.9761480" lon="8.7920930">
        <ele>230.0</ele>
        <time>2022-06-07T10:59:11Z</time>
      </trkpt>
      <trkpt lat="47.9762850" lon="8.7922160">
        <ele>230.0</ele>
        <time>2022-06-07T10:59:15Z</time>
      </trkpt>
      <trkpt lat="47.9764310" lon="8.7923450">
        <ele>230.0</ele>
        <time>2022-06-07T10:59:19Z</time>
      </trkpt>
      <trkpt lat="47.9765830" lon="8.7924760">
        <ele>229.6</ele>
        <time>2022-06-07T10:59:23Z</time>
      </trkpt>
      <trkpt lat="47.9767330" lon="8.7926150">
        <ele>229.6</ele>
        <time>2022-06-07T10:59:27Z</time>
      </trkpt>
      <trkpt lat="47.9768810" lon="8.7927360">
        <ele>230.0</ele>
        <time>2022-06-07T10:59:31Z</time>
      </trkpt>
      <trkpt lat="47.9770160" lon="8.7928560">
        <ele>230.0</ele>
        <time>2022-06-07T10:59:35Z</time>
      </trkpt>
      <trkpt lat="47.9771810" lon="8.7930060">
        <ele>230.2</ele>
        <time>2022-06-07T10:59:39Z</time>
      </trkpt>
      <trkpt lat="47.9773400" lon="8.7931500">
        <ele>230.2</ele>
        <time>2022-06-07T10:59:43Z</time>
      </trkpt>
      <trkpt lat="47.9775030" lon="8.7932860">
        <ele>230.6</ele>
        <time>2022-06-07T10:59:47Z</time>
      </trkpt>
      <trkpt lat="47.9776630" lon="8.7934160">
        <ele>230.0</ele>
        <time>2022-06-07T10:59:51Z</time>
      </trkpt>
      <trkpt lat="47.9778330" lon="8.7935530">
        <ele>230.4</ele>
        <time>2022-06-07T10:59:55Z</time>
      </trkpt>
      <trkpt lat="47.9780060" lon="8.7936860">
        <ele>230.2</ele>
        <time>2022-06-07T10:59:59Z</time>
      </trkpt>
      <trkpt lat="47.9781650" lon="8.7938250">
        <ele>230.0</ele>
        <time>2022-06-07T11:00:03Z</time>
      </trkpt>
      <trkpt lat="47.9783380" lon="8.7939730">
        <ele>229.6</ele>
        <time>2022-06-07T11:00:07Z</time>
      </trkpt>
      <trkpt lat="47.9785200" lon="8.7941280">
        <ele>229.6</ele>
        <time>2022-06-07T11:00:11Z</time>
      </trkpt>
      <trkpt lat="47.9786760" lon="8.7942680">
        <ele>230.0</ele>
        <time>2022-06-07T11:00:15Z</time>
      </trkpt>
      <trkpt lat="47.9788450" lon="8.7944150">
        <ele>229.4</ele>
        <time>2022-06-07T11:00:19Z</time>
      </trkpt>
      <trkpt lat="47.9790100" lon="8.7945600">
        <ele>229.6</ele>
        <time>2022-06-07T11:00:23Z</time>
      </trkpt>
      <trkpt lat="47.9791780" lon="8.7947050">
        <ele>229.8</ele>
        <time>2022-06-07T11:00:27Z</time>
      </trkpt>
      <trkpt lat="47.9793430" lon="8.7948430">
        <ele>229.6</ele>
        <time>2022-06-07T11:00:31Z</time>
      </trkpt>
      <trkpt lat="47.9795210" lon="8.7949930">
        <ele>229.8</ele>
        <time>2022-06-07T11:00:35Z</time>
      </trkpt>
      <trkpt lat="47.9796810" lon="8.7951380">
        <ele>229.8</ele>
        <time>2022-06-07T11:00:39Z</time>
      </trkpt>
      <trkpt lat="47.9798560" lon="8.7952830">
        <ele>229.8</ele>
        <time>2022-06-07T11:00:43Z</time>
      </trkpt>
      <trkpt lat="47.9800300" lon="8.7954300">
        <ele>230.8</ele>
        <time>2022-06-07T11:00:47Z</time>
      </trkpt>
      <trkpt lat="47.9801960" lon="8.7955710">
        <ele>229.8</ele>
        <time>2022-06-07T11:00:51Z</time>
      </trkpt>
      <trkpt lat="47.9803700" lon="8.7957210">
        <ele>229.6</ele>
        <time>2022-06-07T11:00:55Z</time>
      </trkpt>
      <trkpt lat="47.9805450" lon="8.7958800">
        <ele>229.4</ele>
        <time>2022-06-07T11:00:59Z</time>
      </trkpt>
      <trkpt lat="47.9807150" lon="8.7960310">
        <ele>229.6</ele>
        <time>2022-06-07T11:01:03Z</time>
      </trkpt>
      <trkpt lat="47.9808860" lon="8.7961680">
        <ele>229.4</ele>
        <time>2022-06-07T11:01:07Z</time>
      </trkpt>
      <trkpt lat="47.9810560" lon="8.7963200">
        <ele>230.2</ele>
        <time>2022-06-07T11:01:11Z</time>
      </trkpt>
      <trkpt lat="47.9812230" lon="8.7964650">
        <ele>230.2</ele>
        <time>2022-06-07T11:01:15Z</time>
      </trkpt>
      <trkpt lat="47.9813930" lon="8.7966080">
        <ele>229.8</ele>
        <time>2022-06-07T11:01:19Z</time>
      </trkpt>
      <trkpt lat="47.9815630" lon="8.7967510">
        <ele>229.6</ele>
        <time>2022-06-07T11:01:23Z</time>
      </trkpt>
      <trkpt lat="47.9817210" lon="8.7968930">
        <ele>228.8</ele>
        <time>2022-06-07T11:01:27Z</time>
      </trkpt>
      <trkpt lat="47.9818780" lon="8.7970250">
        <ele>229.0</ele>
        <time>2022-06-07T11:01:31Z</time>
      </trkpt>
      <trkpt lat="47.9820360" lon="8.7971610">
        <ele>229.0</ele>
        <time>2022-06-07T11:01:35Z</time>
      </trkpt>
      <trkpt lat="47.9822080" lon="8.7972960">
        <ele>228.8</ele>
        <time>2022-06-07T11:01:39Z</time>
      </trkpt>
      <trkpt lat="47.9823600" lon="8.7974260">
        <ele>229.2</ele>
        <time>2022-06-07T11:01:43Z</time>
      </trkpt>
      <trkpt lat="47.9824950" lon="8.7975510">
        <ele>229.2</ele>
        <time>2022-06-07T11:01:47Z</time>
      </trkpt>
      <trkpt lat="47.9826210" lon="8.7976750">
        <ele>229.4</ele>
        <time>2022-06-07T11:01:51Z</time>
      </trkpt>
      <trkpt lat="47.9827300" lon="8.7977780">
        <ele>229.0</ele>
        <time>2022-06-07T11:01:55Z</time>
      </trkpt>
      <trkpt lat="47.9828000" lon="8.7978380">
        <ele>229.4</ele>
        <time>2022-06-07T11:01:59Z</time>
      </trkpt>
      <trkpt lat="47.9827930" lon="8.7977830">
        <ele>229.4</ele>
        <time>2022-06-07T11:02:03Z</time>
      </trkpt>
      <trkpt lat="47.9827380" lon="8.7977430">
        <ele>230.2</ele>
        <time>2022-06-07T11:02:07Z</time>
      </trkpt>
      <trkpt lat="47.9826850" lon="8.7977050">
        <ele>231.0</ele>
        <time>2022-06-07T11:02:11Z</time>
      </trkpt>
      <trkpt lat="47.9826500" lon="8.7976550">
        <ele>231.2</ele>
        <time>2022-06-07T11:02:15Z</time>
      </trkpt>
      <trkpt lat="47.9826900" lon="8.7975400">
        <ele>231.8</ele>
        <time>2022-06-07T11:02:19Z</time>
      </trkpt>
      <trkpt lat="47.9827400" lon="8.7974000">
        <ele>231.2</ele>
        <time>2022-06-07T11:02:23Z</time>
      </trkpt>
      <trkpt lat="47.9827830" lon="8.7972830">
        <ele>231.8</ele>
        <time>2022-06-07T11:02:27Z</time>
      </trkpt>
      <trkpt lat="47.9828000" lon="8.7972360">
        <ele>231.4</ele>
        <time>2022-06-07T11:02:31Z</time>
      </trkpt>
      <trkpt lat="47.9828550" lon="8.7972400">
        <ele>231.0</ele>
        <time>2022-06-07T11:02:35Z</time>
      </trkpt>
      <trkpt lat="47.9829610" lon="8.7973430">
        <ele>231.2</ele>
        <time>2022-06-07T11:02:39Z</time>
      </trkpt>
      <trkpt lat="47.9830850" lon="8.7974500">
        <ele>231.4</ele>
        <time>2022-06-07T11:02:43Z</time>
      </trkpt>
      <trkpt lat="47.9832180" lon="8.7975650">
        <ele>231.6</ele>
        <time>2022-06-07T11:02:47Z</time>
      </trkpt>
      <trkpt lat="47.9833460" lon="8.7976850">
        <ele>231.6</ele>
        <time>2022-06-07T11:02:51Z</time>
      </trkpt>
      <trkpt lat="47.9834850" lon="8.7978000">
        <ele>231.4</ele>
        <time>2022-06-07T11:02:55Z</time>
      </trkpt>
      <trkpt lat="47.9836260" lon="8.7979250">
        <ele>231.0</ele>
        <time>2022-06-07T11:02:59Z</time>
      </trkpt>
      <trkpt lat="47.9837550" lon="8.7980300">
        <ele>231.2</ele>
        <time>2022-06-07T11:03:03Z</time>
      </trkpt>
      <trkpt lat="47.9839300" lon="8.7981800">
        <ele>231.4</ele>
        <time>2022-06-07T11:03:07Z</time>
      </trkpt>
      <trkpt lat="47.9840650" lon="8.7983230">
        <ele>231.6</ele>
        <time>2022-06-07T11:03:11Z</time>
      </trkpt>
      <trkpt lat="47.9841910" lon="8.7984760">
        <ele>232.2</ele>
        <time>2022-06-07T11:03:15Z</time>
      </trkpt>
      <trkpt lat="47.9843210" lon="8.7986410">
        <ele>231.8</ele>
        <time>2022-06-07T11:03:19Z</time>
      </trkpt>
      <trkpt lat="47.9844380" lon="8.7988050">
        <ele>231.6</ele>
        <time>2022-06-07T11:03:23Z</time>
      </trkpt>
      <trkpt lat="47.9845530" lon="8.7990050">
        <ele>231.2</ele>
        <time>2022-06-07T11:03:27Z</time>
      </trkpt>
      <trkpt lat="47.9846710" lon="8.7992350">
        <ele>231.0</ele>
        <time>2022-06-07T11:03:31Z</time>
      </trkpt>
      <trkpt lat="47.9847810" lon="8.7994500">
        <ele>231.6</ele>
        <time>2022-06-07T11:03:35Z</time>
      </trkpt>
      <trkpt lat="47.9848710" lon="8.7996500">
        <ele>231.2</ele>
        <time>2022-06-07T11:03:39Z</time>
      </trkpt>
      <trkpt lat="47.9849080" lon="8.7998360">
        <ele>230.8</ele>
        <time>2022-06-07T11:03:43Z</time>
      </trkpt>
      <trkpt lat="47.9850080" lon="8.8001250">
        <ele>230.6</ele>
        <time>2022-06-07T11:03:47Z</time>
      </trkpt>
      <trkpt lat="47.9850680" lon="8.8003850">
        <ele>231.0</ele>
        <time>2022-06-07T11:03:51Z</time>
      </trkpt>
      <trkpt lat="47.9850950" lon="8.8006210">
        <ele>231.0</ele>
        <time>2022-06-07T11:03:55Z</time>
      </trkpt>
      <trkpt lat="47.9851460" lon="8.8008810">
        <ele>230.8</ele>
        <time>2022-06-07T11:03:59Z</time>
      </trkpt>
      <trkpt lat="47.9852610" lon="8.8010080">
        <ele>230.6</ele>
        <time>2022-06-07T11:04:03Z</time>
      </trkpt>
      <trkpt lat="47.9854130" lon="8.8009850">
        <ele>230.8</ele>
        <time>2022-06-07T11:04:07Z</time>
      </trkpt>
      <trkpt lat="47.9855580" lon="8.8011050">
        <ele>230.2</ele>
        <time>2022-06-07T11:04:11Z</time>
      </trkpt>
      <trkpt lat="47.9855910" lon="8.8013480">
        <ele>230.4</ele>
        <time>2022-06-07T11:04:15Z</time>
      </trkpt>
      <trkpt lat="47.9856680" lon="8.8015550">
        <ele>229.4</ele>
        <time>2022-06-07T11:04:19Z</time>
      </trkpt>
      <trkpt lat="47.9858160" lon="8.8016100">
        <ele>229.4</ele>
        <time>2022-06-07T11:04:23Z</time>
      </trkpt>
      <trkpt lat="47.9859400" lon="8.8015910">
        <ele>229.8</ele>
        <time>2022-06-07T11:04:27Z</time>
      </trkpt>
      <trkpt lat="47.9859700" lon="8.8016200">
        <ele>229.8</ele>
        <time>2022-06-07T11:04:31Z</time>
      </trkpt>
      <trkpt lat="47.9858600" lon="8.8016360">
        <ele>230.0</ele>
        <time>2022-06-07T11:04:35Z</time>
      </trkpt>
      <trkpt lat="47.9856850" lon="8.8016050">
        <ele>228.8</ele>
        <time>2022-06-07T11:04:39Z</time>
      </trkpt>
      <trkpt lat="47.9855060" lon="8.8015460">
        <ele>229.4</ele>
        <time>2022-06-07T11:04:43Z</time>
      </trkpt>
      <trkpt lat="47.9852960" lon="8.8014750">
        <ele>227.8</ele>
        <time>2022-06-07T11:04:47Z</time>
      </trkpt>
      <trkpt lat="47.9850950" lon="8.8015730">
        <ele>227.2</ele>
        <time>2022-06-07T11:04:51Z</time>
      </trkpt>
      <trkpt lat="47.9850260" lon="8.8018700">
        <ele>227.8</ele>
        <time>2022-06-07T11:04:55Z</time>
      </trkpt>
      <trkpt lat="47.9849810" lon="8.8022000">
        <ele>228.4</ele>
        <time>2022-06-07T11:04:59Z</time>
      </trkpt>
      <trkpt lat="47.9849150" lon="8.8024930">
        <ele>228.4</ele>
        <time>2022-06-07T11:05:03Z</time>
      </trkpt>
      <trkpt lat="47.9848530" lon="8.8027630">
        <ele>227.8</ele>
        <time>2022-06-07T11:05:07Z</time>
      </trkpt>
      <trkpt lat="47.9847710" lon="8.8030400">
        <ele>227.8</ele>
        <time>2022-06-07T11:05:11Z</time>
      </trkpt>
      <trkpt lat="47.9846830" lon="8.8033010">
        <ele>228.0</ele>
        <time>2022-06-07T11:05:15Z</time>
      </trkpt>
      <trkpt lat="47.9845860" lon="8.8035760">
        <ele>227.0</ele>
        <time>2022-06-07T11:05:19Z</time>
      </trkpt>
      <trkpt lat="47.9845730" lon="8.8038180">
        <ele>227.6</ele>
        <time>2022-06-07T11:05:23Z</time>
      </trkpt>
      <trkpt lat="47.9844410" lon="8.8040630">
        <ele>227.8</ele>
        <time>2022-06-07T11:05:27Z</time>
      </trkpt>
      <trkpt lat="47.9843250" lon="8.8042960">
        <ele>228.0</ele>
        <time>2022-06-07T11:05:31Z</time>
      </trkpt>
      <trkpt lat="47.9842260" lon="8.8045780">
        <ele>228.4</ele>
        <time>2022-06-07T11:05:35Z</time>
      </trkpt>
      <trkpt lat="47.9841350" lon="8.8048480">
        <ele>228.2</ele>
        <time>2022-06-07T11:05:39Z</time>
      </trkpt>
      <trkpt lat="47.9840450" lon="8.8051210">
        <ele>227.8</ele>
        <time>2022-06-07T11:05:43Z</time>
      </trkpt>
      <trkpt lat="47.9839710" lon="8.8054100">
        <ele>227.8</ele>
        <time>2022-06-07T11:05:47Z</time>
      </trkpt>
      <trkpt lat="47.9839060" lon="8.8057160">
        <ele>228.2</ele>
        <time>2022-06-07T11:05:51Z</time>
      </trkpt>
      <trkpt lat="47.9838950" lon="8.8060460">
        <ele>227.4</ele>
        <time>2022-06-07T11:05:55Z</time>
      </trkpt>
      <trkpt lat="47.9839300" lon="8.8063600">
        <ele>227.4</ele>
        <time>2022-06-07T11:05:59Z</time>
      </trkpt>
      <trkpt lat="47.9839580" lon="8.8066750">
        <ele>228.0</ele>
        <time>2022-06-07T11:06:03Z</time>
      </trkpt>
      <trkpt lat="47.9839910" lon="8.8069700">
        <ele>228.0</ele>
        <time>2022-06-07T11:06:07Z</time>
      </trkpt>
      <trkpt lat="47.9840150" lon="8.8072750">
        <ele>228.2</ele>
        <time>2022-06-07T11:06:11Z</time>
      </trkpt>
      <trkpt lat="47.9840210" lon="8.8075660">
        <ele>228.6</ele>
        <time>2022-06-07T11:06:15Z</time>
      </trkpt>
      <trkpt lat="47.9840080" lon="8.8078560">
        <ele>228.0</ele>
        <time>2022-06-07T11:06:19Z</time>
      </trkpt>
      <trkpt lat="47.9839850" lon="8.8081550">
        <ele>228.2</ele>
        <time>2022-06-07T11:06:23Z</time>
      </trkpt>
      <trkpt lat="47.9839680" lon="8.8084600">
        <ele>228.2</ele>
        <time>2022-06-07T11:06:27Z</time>
      </trkpt>
      <trkpt lat="47.9839710" lon="8.8087650">
        <ele>228.6</ele>
        <time>2022-06-07T11:06:31Z</time>
      </trkpt>
      <trkpt lat="47.9839830" lon="8.8090660">
        <ele>227.8</ele>
        <time>2022-06-07T11:06:35Z</time>
      </trkpt>
      <trkpt lat="47.9840050" lon="8.8093580">
        <ele>228.0</ele>
        <time>2022-06-07T11:06:39Z</time>
      </trkpt>
      <trkpt lat="47.9840430" lon="8.8096280">
        <ele>228.4</ele>
        <time>2022-06-07T11:06:43Z</time>
      </trkpt>
      <trkpt lat="47.9840760" lon="8.8097480">
        <ele>228.2</ele>
        <time>2022-06-07T11:06:47Z</time>
      </trkpt>
      <trkpt lat="47.9840880" lon="8.8098600">
        <ele>228.4</ele>
        <time>2022-06-07T11:06:51Z</time>
      </trkpt>
      <trkpt lat="47.9841260" lon="8.8100150">
        <ele>228.0</ele>
        <time>2022-06-07T11:06:55Z</time>
      </trkpt>
      <trkpt lat="47.9841500" lon="8.8101850">
        <ele>227.2</ele>
        <time>2022-06-07T11:06:59Z</time>
      </trkpt>
      <trkpt lat="47.9841830" lon="8.8103730">
        <ele>227.8</ele>
        <time>2022-06-07T11:07:03Z</time>
      </trkpt>
      <trkpt lat="47.9842130" lon="8.8106180">
        <ele>227.6</ele>
        <time>2022-06-07T11:07:07Z</time>
      </trkpt>
      <trkpt lat="47.9842460" lon="8.8108850">
        <ele>227.8</ele>
        <time>2022-06-07T11:07:11Z</time>
      </trkpt>
      <trkpt lat="47.9842930" lon="8.8111450">
        <ele>228.0</ele>
        <time>2022-06-07T11:07:15Z</time>
      </trkpt>
      <trkpt lat="47.9843300" lon="8.8114210">
        <ele>228.4</ele>
        <time>2022-06-07T11:07:19Z</time>
      </trkpt>
      <trkpt lat="47.9843680" lon="8.8116660">
        <ele>228.0</ele>
        <time>2022-06-07T11:07:23Z</time>
      </trkpt>
      <trkpt lat="47.9844000" lon="8.8119480">
        <ele>228.2</ele>
        <time>2022-06-07T11:07:27Z</time>
      </trkpt>
      <trkpt lat="47.9844510" lon="8.8122400">
        <ele>227.8</ele>
        <time>2022-06-07T11:07:31Z</time>
      </trkpt>
      <trkpt lat="47.9845080" lon="8.8125060">
        <ele>227.8</ele>
        <time>2022-06-07T11:07:35Z</time>
      </trkpt>
      <trkpt lat="47.9845630" lon="8.8127830">
        <ele>227.8</ele>
        <time>2022-06-07T11:07:39Z</time>
      </trkpt>
      <trkpt lat="47.9846410" lon="8.8130660">
        <ele>227.8</ele>
        <time>2022-06-07T11:07:43Z</time>
      </trkpt>
      <trkpt lat="47.9847060" lon="8.8133580">
        <ele>228.0</ele>
        <time>2022-06-07T11:07:47Z</time>
      </trkpt>
      <trkpt lat="47.9847830" lon="8.8136350">
        <ele>227.8</ele>
        <time>2022-06-07T11:07:51Z</time>
      </trkpt>
      <trkpt lat="47.9848730" lon="8.8139010">
        <ele>227.8</ele>
        <time>2022-06-07T11:07:55Z</time>
      </trkpt>
      <trkpt lat="47.9849650" lon="8.8141680">
        <ele>227.2</ele>
        <time>2022-06-07T11:07:59Z</time>
      </trkpt>
      <trkpt lat="47.9850600" lon="8.8144200">
        <ele>228.0</ele>
        <time>2022-06-07T11:08:03Z</time>
      </trkpt>
      <trkpt lat="47.9851630" lon="8.8146710">
        <ele>227.0</ele>
        <time>2022-06-07T11:08:07Z</time>
      </trkpt>
      <trkpt lat="47.9852760" lon="8.8149150">
        <ele>227.0</ele>
        <time>2022-06-07T11:08:11Z</time>
      </trkpt>
      <trkpt lat="47.9853780" lon="8.8151600">
        <ele>227.6</ele>
        <time>2022-06-07T11:08:15Z</time>
      </trkpt>
      <trkpt lat="47.9854810" lon="8.8154100">
        <ele>227.8</ele>
        <time>2022-06-07T11:08:19Z</time>
      </trkpt>
      <trkpt lat="47.9855800" lon="8.8156650">
        <ele>227.6</ele>
        <time>2022-06-07T11:08:23Z</time>
      </trkpt>
      <trkpt lat="47.9856480" lon="8.8159230">
        <ele>227.8</ele>
        <time>2022-06-07T11:08:27Z</time>
      </trkpt>
      <trkpt lat="47.9857030" lon="8.8162080">
        <ele>227.2</ele>
        <time>2022-06-07T11:08:31Z</time>
      </trkpt>
      <trkpt lat="47.9857560" lon="8.8164960">
        <ele>227.8</ele>
        <time>2022-06-07T11:08:35Z</time>
      </trkpt>
      <trkpt lat="47.9858100" lon="8.8167730">
        <ele>227.2</ele>
        <time>2022-06-07T11:08:39Z</time>
      </trkpt>
      <trkpt lat="47.9858960" lon="8.8170080">
        <ele>227.8</ele>
        <time>2022-06-07T11:08:43Z</time>
      </trkpt>
      <trkpt lat="47.9860050" lon="8.8171700">
        <ele>228.8</ele>
        <time>2022-06-07T11:08:47Z</time>
      </trkpt>
      <trkpt lat="47.9861200" lon="8.8173060">
        <ele>229.0</ele>
        <time>2022-06-07T11:08:51Z</time>
      </trkpt>
      <trkpt lat="47.9862010" lon="8.8174700">
        <ele>229.6</ele>
        <time>2022-06-07T11:08:55Z</time>
      </trkpt>
      <trkpt lat="47.9862810" lon="8.8176580">
        <ele>229.8</ele>
        <time>2022-06-07T11:08:59Z</time>
      </trkpt>
      <trkpt lat="47.9863410" lon="8.8178460">
        <ele>230.0</ele>
        <time>2022-06-07T11:09:03Z</time>
      </trkpt>
      <trkpt lat="47.9864280" lon="8.8180750">
        <ele>229.6</ele>
        <time>2022-06-07T11:09:07Z</time>
      </trkpt>
      <trkpt lat="47.9865110" lon="8.8182480">
        <ele>229.4</ele>
        <time>2022-06-07T11:09:11Z</time>
      </trkpt>
      <trkpt lat="47.9865880" lon="8.8184780">
        <ele>229.0</ele>
        <time>2022-06-07T11:09:15Z</time>
      </trkpt>
      <trkpt lat="47.9866730" lon="8.8187080">
        <ele>229.2</ele>
        <time>2022-06-07T11:09:19Z</time>
      </trkpt>
      <trkpt lat="47.9867630" lon="8.8189230">
        <ele>229.0</ele>
        <time>2022-06-07T11:09:23Z</time>
      </trkpt>
      <trkpt lat="47.9868260" lon="8.8191300">
        <ele>229.4</ele>
        <time>2022-06-07T11:09:27Z</time>
      </trkpt>
      <trkpt lat="47.9868850" lon="8.8193110">
        <ele>229.8</ele>
        <time>2022-06-07T11:09:31Z</time>
      </trkpt>
      <trkpt lat="47.9868400" lon="8.8194800">
        <ele>230.0</ele>
        <time>2022-06-07T11:09:35Z</time>
      </trkpt>
      <trkpt lat="47.9867380" lon="8.8195710">
        <ele>230.4</ele>
        <time>2022-06-07T11:09:39Z</time>
      </trkpt>
      <trkpt lat="47.9866200" lon="8.8196200">
        <ele>230.4</ele>
        <time>2022-06-07T11:09:43Z</time>
      </trkpt>
      <trkpt lat="47.9864910" lon="8.8196860">
        <ele>230.4</ele>
        <time>2022-06-07T11:09:47Z</time>
      </trkpt>
      <trkpt lat="47.9863750" lon="8.8197380">
        <ele>230.8</ele>
        <time>2022-06-07T11:09:51Z</time>
      </trkpt>
      <trkpt lat="47.9862630" lon="8.8198060">
        <ele>230.4</ele>
        <time>2022-06-07T11:09:55Z</time>
      </trkpt>
      <trkpt lat="47.9861360" lon="8.8198930">
        <ele>230.0</ele>
        <time>2022-06-07T11:09:59Z</time>
      </trkpt>
      <trkpt lat="47.9859880" lon="8.8199280">
        <ele>229.4</ele>
        <time>2022-06-07T11:10:03Z</time>
      </trkpt>
      <trkpt lat="47.9858230" lon="8.8200350">
        <ele>228.4</ele>
        <time>2022-06-07T11:10:07Z</time>
      </trkpt>
      <trkpt lat="47.9856280" lon="8.8201110">
        <ele>227.8</ele>
        <time>2022-06-07T11:10:11Z</time>
      </trkpt>
      <trkpt lat="47.9854480" lon="8.8202010">
        <ele>228.4</ele>
        <time>2022-06-07T11:10:15Z</time>
      </trkpt>
      <trkpt lat="47.9852930" lon="8.8202830">
        <ele>228.2</ele>
        <time>2022-06-07T11:10:19Z</time>
      </trkpt>
      <trkpt lat="47.9851910" lon="8.8203530">
        <ele>228.8</ele>
        <time>2022-06-07T11:10:23Z</time>
      </trkpt>
      <trkpt lat="47.9852230" lon="8.8204350">
        <ele>229.0</ele>
        <time>2022-06-07T11:10:27Z</time>
      </trkpt>
      <trkpt lat="47.9852430" lon="8.8205650">
        <ele>229.4</ele>
        <time>2022-06-07T11:10:31Z</time>
      </trkpt>
      <trkpt lat="47.9852880" lon="8.8206710">
        <ele>228.8</ele>
        <time>2022-06-07T11:10:35Z</time>
      </trkpt>
      <trkpt lat="47.9853750" lon="8.8206760">
        <ele>228.8</ele>
        <time>2022-06-07T11:10:39Z</time>
      </trkpt>
      <trkpt lat="47.9855030" lon="8.8206650">
        <ele>229.0</ele>
        <time>2022-06-07T11:10:43Z</time>
      </trkpt>
      <trkpt lat="47.9856000" lon="8.8206200">
        <ele>229.0</ele>
        <time>2022-06-07T11:10:47Z</time>
      </trkpt>
      <trkpt lat="47.9856000" lon="8.8206200">
        <ele>228.8</ele>
        <time>2022-06-07T11:10:51Z</time>
      </trkpt>
      <trkpt lat="47.9856300" lon="8.8212800">
        <ele>250.2</ele>
        <time>2022-06-08T05:35:24Z</time>
      </trkpt>
      <trkpt lat="47.9856300" lon="8.8212800">
        <ele>250.2</ele>
        <time>2022-06-08T05:35:28Z</time>
      </trkpt>
      <trkpt lat="47.9856300" lon="8.8212800">
        <ele>249.8</ele>
        <time>2022-06-08T05:35:32Z</time>
      </trkpt>
      <trkpt lat="47.9856300" lon="8.8212800">
        <ele>249.8</ele>
        <time>2022-06-08T05:35:36Z</time>
      </trkpt>
      <trkpt lat="47.9856300" lon="8.8212800">
        <ele>249.6</ele>
        <time>2022-06-08T05:35:40Z</time>
      </trkpt>
      <trkpt lat="47.9856300" lon="8.8212800">
        <ele>249.6</ele>
        <time>2022-06-08T05:35:44Z</time>
      </trkpt>
      <trkpt lat="47.9856300" lon="8.8212800">
        <ele>250.0</ele>
        <time>2022-06-08T05:35:48Z</time>
      </trkpt>
      <trkpt lat="47.9856300" lon="8.8212800">
        <ele>250.4</ele>
        <time>2022-06-08T05:35:52Z</time>
      </trkpt>
      <trkpt lat="47.9856300" lon="8.8212800">
        <ele>249.6</ele>
        <time>2022-06-08T05:35:56Z</time>
      </trkpt>
      <trkpt lat="47.9856300" lon="8.8212800">
        <ele>249.8</ele>
        <time>2022-06-08T05:36:00Z</time>
      </trkpt>
      <trkpt lat="47.9856300" lon="8.8212800">
        <ele>249.8</ele>
        <time>2022-06-08T05:36:04Z</time>
      </trkpt>
      <trkpt lat="47.9856300" lon="8.8212800">
        <ele>250.2</ele>
        <time>2022-06-08T05:36:08Z</time>
      </trkpt>
      <trkpt lat="47.9856300" lon="8.8212800">
        <ele>249.4</ele>
        <time>2022-06-08T05:36:12Z</time>
      </trkpt>
      <trkpt lat="47.9856300" lon="8.8212800">
        <ele>249.4</ele>
        <time>2022-06-08T05:36:16Z</time>
      </trkpt>
      <trkpt lat="47.9856300" lon="8.8212800">
        <ele>249.0</ele>
        <time>2022-06-08T05:36:20Z</time>
      </trkpt>
      <trkpt lat="47.9856300" lon="8.8212800">
        <ele>249.0</ele>
        <time>2022-06-08T05:36:24Z</time>
      </trkpt>
      <trkpt lat="47.9856300" lon="8.8212800">
        <ele>248.8</ele>
        <time>2022-06-08T05:36:28Z</time>
      </trkpt>
      <trkpt lat="47.9856300" lon="8.8212800">
        <ele>249.0</ele>
        <time>2022-06-08T05:36:32Z</time>
      </trkpt>
      <trkpt lat="47.9856350" lon="8.8212830">
        <ele>249.0</ele>
        <time>2022-06-08T05:36:36Z</time>
      </trkpt>
      <trkpt lat="47.9856210" lon="8.8212380">
        <ele>249.0</ele>
        <time>2022-06-08T05:36:40Z</time>
      </trkpt>
      <trkpt lat="47.9855600" lon="8.8212630">
        <ele>249.0</ele>
        <time>2022-06-08T05:36:44Z</time>
      </trkpt>
      <trkpt lat="47.9854960" lon="8.8212450">
        <ele>249.0</ele>
        <time>2022-06-08T05:36:48Z</time>
      </trkpt>
      <trkpt lat="47.9854310" lon="8.8212400">
        <ele>249.6</ele>
        <time>2022-06-08T05:36:52Z</time>
      </trkpt>
      <trkpt lat="47.9854100" lon="8.8212650">
        <ele>249.2</ele>
        <time>2022-06-08T05:36:56Z</time>
      </trkpt>
      <trkpt lat="47.9854100" lon="8.8212650">
        <ele>249.2</ele>
        <time>2022-06-08T05:37:00Z</time>
      </trkpt>
      <trkpt lat="47.9854100" lon="8.8212650">
        <ele>249.2</ele>
        <time>2022-06-08T05:37:04Z</time>
      </trkpt>
      <trkpt lat="47.9854100" lon="8.8212650">
        <ele>249.2</ele>
        <time>2022-06-08T05:37:08Z</time>
      </trkpt>
      <trkpt lat="47.9854100" lon="8.8212650">
        <ele>248.8</ele>
        <time>2022-06-08T05:37:12Z</time>
      </trkpt>
      <trkpt lat="47.9854100" lon="8.8212650">
        <ele>249.2</ele>
        <time>2022-06-08T05:37:16Z</time>
      </trkpt>
      <trkpt lat="47.9854100" lon="8.8212650">
        <ele>249.2</ele>
        <time>2022-06-08T05:37:20Z</time>
      </trkpt>
      <trkpt lat="47.9854100" lon="8.8212650">
        <ele>249.4</ele>
        <time>2022-06-08T05:37:24Z</time>
      </trkpt>
      <trkpt lat="47.9854100" lon="8.8212650">
        <ele>249.2</ele>
        <time>2022-06-08T05:37:28Z</time>
      </trkpt>
      <trkpt lat="47.9854100" lon="8.8212650">
        <ele>249.2</ele>
        <time>2022-06-08T05:37:32Z</time>
      </trkpt>
      <trkpt lat="47.9854100" lon="8.8212650">
        <ele>249.4</ele>
        <time>2022-06-08T05:37:36Z</time>
      </trkpt>
      <trkpt lat="47.9854100" lon="8.8212650">
        <ele>249.4</ele>
        <time>2022-06-08T05:37:40Z</time>
      </trkpt>
      <trkpt lat="47.9854100" lon="8.8212650">
        <ele>249.4</ele>
        <time>2022-06-08T05:37:44Z</time>
      </trkpt>
      <trkpt lat="47.9854100" lon="8.8212650">
        <ele>249.2</ele>
        <time>2022-06-08T05:37:48Z</time>
      </trkpt>
      <trkpt lat="47.9854100" lon="8.8212650">
        <ele>249.6</ele>
        <time>2022-06-08T05:37:52Z</time>
      </trkpt>
      <trkpt lat="47.9854100" lon="8.8212650">
        <ele>249.4</ele>
        <time>2022-06-08T05:37:56Z</time>
      </trkpt>
      <trkpt lat="47.9854100" lon="8.8212650">
        <ele>249.4</ele>
        <time>2022-06-08T05:38:00Z</time>
      </trkpt>
      <trkpt lat="47.9854100" lon="8.8212650">
        <ele>249.4</ele>
        <time>2022-06-08T05:38:04Z</time>
      </trkpt>
      <trkpt lat="47.9854100" lon="8.8212650">
        <ele>249.6</ele>
        <time>2022-06-08T05:38:08Z</time>
      </trkpt>
      <trkpt lat="47.9854100" lon="8.8212650">
        <ele>249.6</ele>
        <time>2022-06-08T05:38:12Z</time>
      </trkpt>
      <trkpt lat="47.9854100" lon="8.8212650">
        <ele>249.8</ele>
        <time>2022-06-08T05:38:16Z</time>
      </trkpt>
      <trkpt lat="47.9854100" lon="8.8212650">
        <ele>249.6</ele>
        <time>2022-06-08T05:38:20Z</time>
      </trkpt>
      <trkpt lat="47.9854100" lon="8.8212650">
        <ele>249.6</ele>
        <time>2022-06-08T05:38:24Z</time>
      </trkpt>
      <trkpt lat="47.9854100" lon="8.8212650">
        <ele>249.8</ele>
        <time>2022-06-08T05:38:28Z</time>
      </trkpt>
      <trkpt lat="47.9854100" lon="8.8212650">
        <ele>249.8</ele>
        <time>2022-06-08T05:38:32Z</time>
      </trkpt>
      <trkpt lat="47.9854100" lon="8.8212650">
        <ele>248.8</ele>
        <time>2022-06-08T05:38:36Z</time>
      </trkpt>
      <trkpt lat="47.9854100" lon="8.8212650">
        <ele>249.2</ele>
        <time>2022-06-08T05:38:40Z</time>
      </trkpt>
      <trkpt lat="47.9854100" lon="8.8212650">
        <ele>249.4</ele>
        <time>2022-06-08T05:38:44Z</time>
      </trkpt>
      <trkpt lat="47.9854100" lon="8.8212650">
        <ele>249.2</ele>
        <time>2022-06-08T05:38:48Z</time>
      </trkpt>
      <trkpt lat="47.9854100" lon="8.8212650">
        <ele>249.2</ele>
        <time>2022-06-08T05:38:52Z</time>
      </trkpt>
      <trkpt lat="47.9854100" lon="8.8212650">
        <ele>249.2</ele>
        <time>2022-06-08T05:38:56Z</time>
      </trkpt>
      <trkpt lat="47.9854100" lon="8.8212650">
        <ele>248.8</ele>
        <time>2022-06-08T05:39:00Z</time>
      </trkpt>
      <trkpt lat="47.9854100" lon="8.8212650">
        <ele>249.2</ele>
        <time>2022-06-08T05:39:04Z</time>
      </trkpt>
      <trkpt lat="47.9854100" lon="8.8212650">
        <ele>249.2</ele>
        <time>2022-06-08T05:39:08Z</time>
      </trkpt>
      <trkpt lat="47.9854100" lon="8.8212650">
        <ele>249.4</ele>
        <time>2022-06-08T05:39:12Z</time>
      </trkpt>
      <trkpt lat="47.9854600" lon="8.8215400">
        <ele>249.4</ele>
        <time>2022-06-08T05:39:16Z</time>
      </trkpt>
      <trkpt lat="47.9854160" lon="8.8215650">
        <ele>249.6</ele>
        <time>2022-06-08T05:39:20Z</time>
      </trkpt>
      <trkpt lat="47.9853180" lon="8.8215600">
        <ele>249.6</ele>
        <time>2022-06-08T05:39:24Z</time>
      </trkpt>
      <trkpt lat="47.9852250" lon="8.8215300">
        <ele>249.6</ele>
        <time>2022-06-08T05:39:28Z</time>
      </trkpt>
      <trkpt lat="47.9851430" lon="8.8215160">
        <ele>249.8</ele>
        <time>2022-06-08T05:39:32Z</time>
      </trkpt>
      <trkpt lat="47.9851430" lon="8.8215160">
        <ele>249.8</ele>
        <time>2022-06-08T05:39:36Z</time>
      </trkpt>
      <trkpt lat="47.9851430" lon="8.8215160">
        <ele>249.8</ele>
        <time>2022-06-08T05:39:40Z</time>
      </trkpt>
      <trkpt lat="47.9851430" lon="8.8215160">
        <ele>249.6</ele>
        <time>2022-06-08T05:39:44Z</time>
      </trkpt>
      <trkpt lat="47.9851430" lon="8.8215160">
        <ele>249.8</ele>
        <time>2022-06-08T05:39:48Z</time>
      </trkpt>
      <trkpt lat="47.9851430" lon="8.8215160">
        <ele>249.8</ele>
        <time>2022-06-08T05:39:52Z</time>
      </trkpt>
      <trkpt lat="47.9851430" lon="8.8215160">
        <ele>249.6</ele>
        <time>2022-06-08T05:39:56Z</time>
      </trkpt>
      <trkpt lat="47.9851430" lon="8.8215160">
        <ele>249.6</ele>
        <time>2022-06-08T05:40:00Z</time>
      </trkpt>
      <trkpt lat="47.9851430" lon="8.8215160">
        <ele>249.6</ele>
        <time>2022-06-08T05:40:04Z</time>
      </trkpt>
      <trkpt lat="47.9851430" lon="8.8215160">
        <ele>249.8</ele>
        <time>2022-06-08T05:40:08Z</time>
      </trkpt>
      <trkpt lat="47.9851430" lon="8.8215160">
        <ele>249.6</ele>
        <time>2022-06-08T05:40:12Z</time>
      </trkpt>
      <trkpt lat="47.9851430" lon="8.8215160">
        <ele>249.8</ele>
        <time>2022-06-08T05:40:16Z</time>
      </trkpt>
      <trkpt lat="47.9851430" lon="8.8215160">
        <ele>249.6</ele>
        <time>2022-06-08T05:40:20Z</time>
      </trkpt>
      <trkpt lat="47.9851430" lon="8.8215160">
        <ele>249.8</ele>
        <time>2022-06-08T05:40:24Z</time>
      </trkpt>
      <trkpt lat="47.9851430" lon="8.8215160">
        <ele>249.6</ele>
        <time>2022-06-08T05:40:28Z</time>
      </trkpt>
      <trkpt lat="47.9851430" lon="8.8215160">
        <ele>249.2</ele>
        <time>2022-06-08T05:40:32Z</time>
      </trkpt>
      <trkpt lat="47.9851430" lon="8.8215160">
        <ele>249.4</ele>
        <time>2022-06-08T05:40:36Z</time>
      </trkpt>
      <trkpt lat="47.9851000" lon="8.8216180">
        <ele>249.6</ele>
        <time>2022-06-08T05:40:40Z</time>
      </trkpt>
      <trkpt lat="47.9850460" lon="8.8216380">
        <ele>249.2</ele>
        <time>2022-06-08T05:40:44Z</time>
      </trkpt>
      <trkpt lat="47.9849900" lon="8.8214780">
        <ele>249.6</ele>
        <time>2022-06-08T05:40:48Z</time>
      </trkpt>
      <trkpt lat="47.9849530" lon="8.8212580">
        <ele>250.0</ele>
        <time>2022-06-08T05:40:52Z</time>
      </trkpt>
      <trkpt lat="47.9849330" lon="8.8210930">
        <ele>249.6</ele>
        <time>2022-06-08T05:40:56Z</time>
      </trkpt>
      <trkpt lat="47.9848500" lon="8.8209610">
        <ele>250.4</ele>
        <time>2022-06-08T05:41:00Z</time>
      </trkpt>
      <trkpt lat="47.9846950" lon="8.8209600">
        <ele>250.6</ele>
        <time>2022-06-08T05:41:04Z</time>
      </trkpt>
      <trkpt lat="47.9845560" lon="8.8210130">
        <ele>250.4</ele>
        <time>2022-06-08T05:41:08Z</time>
      </trkpt>
      <trkpt lat="47.9844250" lon="8.8210750">
        <ele>250.6</ele>
        <time>2022-06-08T05:41:12Z</time>
      </trkpt>
      <trkpt lat="47.9842980" lon="8.8211130">
        <ele>251.2</ele>
        <time>2022-06-08T05:41:16Z</time>
      </trkpt>
      <trkpt lat="47.9841550" lon="8.8211580">
        <ele>251.0</ele>
        <time>2022-06-08T05:41:20Z</time>
      </trkpt>
      <trkpt lat="47.9840130" lon="8.8212010">
        <ele>251.0</ele>
        <time>2022-06-08T05:41:24Z</time>
      </trkpt>
      <trkpt lat="47.9838860" lon="8.8211610">
        <ele>251.4</ele>
        <time>2022-06-08T05:41:28Z</time>
      </trkpt>
      <trkpt lat="47.9837800" lon="8.8210260">
        <ele>251.2</ele>
        <time>2022-06-08T05:41:32Z</time>
      </trkpt>
      <trkpt lat="47.9837080" lon="8.8208680">
        <ele>251.0</ele>
        <time>2022-06-08T05:41:36Z</time>
      </trkpt>
      <trkpt lat="47.9836360" lon="8.8207050">
        <ele>251.6</ele>
        <time>2022-06-08T05:41:40Z</time>
      </trkpt>
      <trkpt lat="47.9835700" lon="8.8205210">
        <ele>251.8</ele>
        <time>2022-06-08T05:41:44Z</time>
      </trkpt>
      <trkpt lat="47.9834850" lon="8.8203450">
        <ele>251.8</ele>
        <time>2022-06-08T05:41:48Z</time>
      </trkpt>
      <trkpt lat="47.9834200" lon="8.8201510">
        <ele>252.2</ele>
        <time>2022-06-08T05:41:52Z</time>
      </trkpt>
      <trkpt lat="47.9833310" lon="8.8199660">
        <ele>251.8</ele>
        <time>2022-06-08T05:41:56Z</time>
      </trkpt>
      <trkpt lat="47.9832360" lon="8.8198260">
        <ele>252.2</ele>
        <time>2022-06-08T05:42:00Z</time>
      </trkpt>
      <trkpt lat="47.9832360" lon="8.8198260">
        <ele>252.0</ele>
        <time>2022-06-08T05:42:04Z</time>
      </trkpt>
      <trkpt lat="47.9832360" lon="8.8198260">
        <ele>251.8</ele>
        <time>2022-06-08T05:42:08Z</time>
      </trkpt>
      <trkpt lat="47.9832360" lon="8.8198260">
        <ele>252.0</ele>
        <time>2022-06-08T05:42:12Z</time>
      </trkpt>
      <trkpt lat="47.9832360" lon="8.8198260">
        <ele>252.0</ele>
        <time>2022-06-08T05:42:16Z</time>
      </trkpt>
      <trkpt lat="47.9832360" lon="8.8198260">
        <ele>251.8</ele>
        <time>2022-06-08T05:42:20Z</time>
      </trkpt>
      <trkpt lat="47.9832360" lon="8.8198260">
        <ele>251.8</ele>
        <time>2022-06-08T05:42:24Z</time>
      </trkpt>
      <trkpt lat="47.9832360" lon="8.8198260">
        <ele>252.0</ele>
        <time>2022-06-08T05:42:28Z</time>
      </trkpt>
      <trkpt lat="47.9830630" lon="8.8197400">
        <ele>251.8</ele>
        <time>2022-06-08T05:42:32Z</time>
      </trkpt>
      <trkpt lat="47.9830030" lon="8.8196500">
        <ele>251.6</ele>
        <time>2022-06-08T05:42:36Z</time>
      </trkpt>
      <trkpt lat="47.9830110" lon="8.8194460">
        <ele>251.4</ele>
        <time>2022-06-08T05:42:40Z</time>
      </trkpt>
      <trkpt lat="47.9829280" lon="8.8192430">
        <ele>251.6</ele>
        <time>2022-06-08T05:42:44Z</time>
      </trkpt>
      <trkpt lat="47.9827760" lon="8.8191800">
        <ele>251.6</ele>
        <time>2022-06-08T05:42:48Z</time>
      </trkpt>
      <trkpt lat="47.9826230" lon="8.8191560">
        <ele>252.2</ele>
        <time>2022-06-08T05:42:52Z</time>
      </trkpt>
      <trkpt lat="47.9824650" lon="8.8191000">
        <ele>252.0</ele>
        <time>2022-06-08T05:42:56Z</time>
      </trkpt>
      <trkpt lat="47.9823010" lon="8.8190710">
        <ele>252.6</ele>
        <time>2022-06-08T05:43:00Z</time>
      </trkpt>
      <trkpt lat="47.9821410" lon="8.8190410">
        <ele>253.2</ele>
        <time>2022-06-08T05:43:04Z</time>
      </trkpt>
      <trkpt lat="47.9819710" lon="8.8190180">
        <ele>253.0</ele>
        <time>2022-06-08T05:43:08Z</time>
      </trkpt>
      <trkpt lat="47.9818110" lon="8.8189900">
        <ele>253.0</ele>
        <time>2022-06-08T05:43:12Z</time>
      </trkpt>
      <trkpt lat="47.9816460" lon="8.8189700">
        <ele>252.6</ele>
        <time>2022-06-08T05:43:16Z</time>
      </trkpt>
      <trkpt lat="47.9814730" lon="8.8189730">
        <ele>253.2</ele>
        <time>2022-06-08T05:43:20Z</time>
      </trkpt>
      <trkpt lat="47.9813000" lon="8.8189660">
        <ele>253.0</ele>
        <time>2022-06-08T05:43:24Z</time>
      </trkpt>
      <trkpt lat="47.9811380" lon="8.8189630">
        <ele>253.6</ele>
        <time>2022-06-08T05:43:28Z</time>
      </trkpt>
      <trkpt lat="47.9809800" lon="8.8189910">
        <ele>253.8</ele>
        <time>2022-06-08T05:43:32Z</time>
      </trkpt>
      <trkpt lat="47.9808200" lon="8.8189930">
        <ele>254.4</ele>
        <time>2022-06-08T05:43:36Z</time>
      </trkpt>
      <trkpt lat="47.9806480" lon="8.8190350">
        <ele>254.6</ele>
        <time>2022-06-08T05:43:40Z</time>
      </trkpt>
      <trkpt lat="47.9804760" lon="8.8190400">
        <ele>254.6</ele>
        <time>2022-06-08T05:43:44Z</time>
      </trkpt>
      <trkpt lat="47.9803030" lon="8.8190430">
        <ele>254.6</ele>
        <time>2022-06-08T05:43:48Z</time>
      </trkpt>
      <trkpt lat="47.9801410" lon="8.8190450">
        <ele>255.2</ele>
        <time>2022-06-08T05:43:52Z</time>
      </trkpt>
      <trkpt lat="47.9800260" lon="8.8189000">
        <ele>253.8</ele>
        <time>2022-06-08T05:43:56Z</time>
      </trkpt>
      <trkpt lat="47.9799380" lon="8.8186600">
        <ele>253.8</ele>
        <time>2022-06-08T05:44:00Z</time>
      </trkpt>
      <trkpt lat="47.9798760" lon="8.8184300">
        <ele>253.0</ele>
        <time>2022-06-08T05:44:04Z</time>
      </trkpt>
      <trkpt lat="47.9798400" lon="8.8182030">
        <ele>254.4</ele>
        <time>2022-06-08T05:44:08Z</time>
      </trkpt>
      <trkpt lat="47.9797900" lon="8.8179760">
        <ele>254.0</ele>
        <time>2022-06-08T05:44:12Z</time>
      </trkpt>
      <trkpt lat="47.9797430" lon="8.8177950">
        <ele>254.8</ele>
        <time>2022-06-08T05:44:16Z</time>
      </trkpt>
      <trkpt lat="47.9797160" lon="8.8176130">
        <ele>254.8</ele>
        <time>2022-06-08T05:44:20Z</time>
      </trkpt>
      <trkpt lat="47.9796700" lon="8.8174030">
        <ele>255.4</ele>
        <time>2022-06-08T05:44:24Z</time>
      </trkpt>
      <trkpt lat="47.9796260" lon="8.8172160">
        <ele>256.2</ele>
        <time>2022-06-08T05:44:28Z</time>
      </trkpt>
      <trkpt lat="47.9795800" lon="8.8170260">
        <ele>257.0</ele>
        <time>2022-06-08T05:44:32Z</time>
      </trkpt>
      <trkpt lat="47.9795250" lon="8.8168560">
        <ele>257.4</ele>
        <time>2022-06-08T05:44:36Z</time>
      </trkpt>
      <trkpt lat="47.9794930" lon="8.8166700">
        <ele>258.4</ele>
        <time>2022-06-08T05:44:40Z</time>
      </trkpt>
      <trkpt lat="47.9794730" lon="8.8165060">
        <ele>258.2</ele>
        <time>2022-06-08T05:44:44Z</time>
      </trkpt>
      <trkpt lat="47.9794460" lon="8.8163410">
        <ele>259.4</ele>
        <time>2022-06-08T05:44:48Z</time>
      </trkpt>
      <trkpt lat="47.9794260" lon="8.8161850">
        <ele>260.2</ele>
        <time>2022-06-08T05:44:52Z</time>
      </trkpt>
      <trkpt lat="47.9793850" lon="8.8160300">
        <ele>260.6</ele>
        <time>2022-06-08T05:44:56Z</time>
      </trkpt>
      <trkpt lat="47.9793610" lon="8.8158910">
        <ele>261.6</ele>
        <time>2022-06-08T05:45:00Z</time>
      </trkpt>
      <trkpt lat="47.9793430" lon="8.8157450">
        <ele>262.0</ele>
        <time>2022-06-08T05:45:04Z</time>
      </trkpt>
      <trkpt lat="47.9793260" lon="8.8156060">
        <ele>262.8</ele>
        <time>2022-06-08T05:45:08Z</time>
      </trkpt>
      <trkpt lat="47.9793130" lon="8.8154410">
        <ele>263.6</ele>
        <time>2022-06-08T05:45:12Z</time>
      </trkpt>
      <trkpt lat="47.9792650" lon="8.8152630">
        <ele>264.4</ele>
        <time>2022-06-08T05:45:16Z</time>
      </trkpt>
      <trkpt lat="47.9792480" lon="8.8150880">
        <ele>265.2</ele>
        <time>2022-06-08T05:45:20Z</time>
      </trkpt>
      <trkpt lat="47.9792280" lon="8.8149100">
        <ele>265.6</ele>
        <time>2022-06-08T05:45:24Z</time>
      </trkpt>
      <trkpt lat="47.9792000" lon="8.8147730">
        <ele>266.8</ele>
        <time>2022-06-08T05:45:28Z</time>
      </trkpt>
      <trkpt lat="47.9791700" lon="8.8146160">
        <ele>267.2</ele>
        <time>2022-06-08T05:45:32Z</time>
      </trkpt>
      <trkpt lat="47.9791360" lon="8.8144730">
        <ele>268.6</ele>
        <time>2022-06-08T05:45:36Z</time>
      </trkpt>
      <trkpt lat="47.9791130" lon="8.8143230">
        <ele>269.0</ele>
        <time>2022-06-08T05:45:40Z</time>
      </trkpt>
      <trkpt lat="47.9790810" lon="8.8141860">
        <ele>269.8</ele>
        <time>2022-06-08T05:45:44Z</time>
      </trkpt>
      <trkpt lat="47.9790500" lon="8.8140380">
        <ele>270.8</ele>
        <time>2022-06-08T05:45:48Z</time>
      </trkpt>
      <trkpt lat="47.9790180" lon="8.8138660">
        <ele>271.6</ele>
        <time>2022-06-08T05:45:52Z</time>
      </trkpt>
      <trkpt lat="47.9790060" lon="8.8137150">
        <ele>272.4</ele>
        <time>2022-06-08T05:45:56Z</time>
      </trkpt>
      <trkpt lat="47.9789860" lon="8.8135730">
        <ele>272.4</ele>
        <time>2022-06-08T05:46:00Z</time>
      </trkpt>
      <trkpt lat="47.9789530" lon="8.8134200">
        <ele>273.4</ele>
        <time>2022-06-08T05:46:04Z</time>
      </trkpt>
      <trkpt lat="47.9789160" lon="8.8132780">
        <ele>274.0</ele>
        <time>2022-06-08T05:46:08Z</time>
      </trkpt>
      <trkpt lat="47.9788900" lon="8.8131300">
        <ele>274.4</ele>
        <time>2022-06-08T05:46:12Z</time>
      </trkpt>
      <trkpt lat="47.9788610" lon="8.8129780">
        <ele>275.2</ele>
        <time>2022-06-08T05:46:16Z</time>
      </trkpt>
      <trkpt lat="47.9788280" lon="8.8128430">
        <ele>275.8</ele>
        <time>2022-06-08T05:46:20Z</time>
      </trkpt>
      <trkpt lat="47.9787950" lon="8.8127180">
        <ele>276.4</ele>
        <time>2022-06-08T05:46:24Z</time>
      </trkpt>
      <trkpt lat="47.9787600" lon="8.8126010">
        <ele>277.2</ele>
        <time>2022-06-08T05:46:28Z</time>
      </trkpt>
      <trkpt lat="47.9787180" lon="8.8124930">
        <ele>277.2</ele>
        <time>2022-06-08T05:46:32Z</time>
      </trkpt>
      <trkpt lat="47.9786710" lon="8.8123930">
        <ele>277.6</ele>
        <time>2022-06-08T05:46:36Z</time>
      </trkpt>
      <trkpt lat="47.9786360" lon="8.8122680">
        <ele>277.6</ele>
        <time>2022-06-08T05:46:40Z</time>
      </trkpt>
      <trkpt lat="47.9786330" lon="8.8121100">
        <ele>277.6</ele>
        <time>2022-06-08T05:46:44Z</time>
      </trkpt>
      <trkpt lat="47.9786530" lon="8.8119000">
        <ele>276.6</ele>
        <time>2022-06-08T05:46:48Z</time>
      </trkpt>
      <trkpt lat="47.9786880" lon="8.8116230">
        <ele>275.2</ele>
        <time>2022-06-08T05:46:52Z</time>
      </trkpt>
      <trkpt lat="47.9787350" lon="8.8112630">
        <ele>273.4</ele>
        <time>2022-06-08T05:46:56Z</time>
      </trkpt>
      <trkpt lat="47.9788080" lon="8.8108400">
        <ele>271.0</ele>
        <time>2022-06-08T05:47:00Z</time>
      </trkpt>
      <trkpt lat="47.9788830" lon="8.8104150">
        <ele>269.8</ele>
        <time>2022-06-08T05:47:04Z</time>
      </trkpt>
      <trkpt lat="47.9789500" lon="8.8100450">
        <ele>269.4</ele>
        <time>2022-06-08T05:47:08Z</time>
      </trkpt>
      <trkpt lat="47.9790100" lon="8.8097380">
        <ele>268.8</ele>
        <time>2022-06-08T05:47:12Z</time>
      </trkpt>
      <trkpt lat="47.9790750" lon="8.8094210">
        <ele>268.4</ele>
        <time>2022-06-08T05:47:16Z</time>
      </trkpt>
      <trkpt lat="47.9791600" lon="8.8091130">
        <ele>267.2</ele>
        <time>2022-06-08T05:47:20Z</time>
      </trkpt>
      <trkpt lat="47.9791260" lon="8.8088730">
        <ele>269.4</ele>
        <time>2022-06-08T05:47:24Z</time>
      </trkpt>
      <trkpt lat="47.9791310" lon="8.8087450">
        <ele>271.0</ele>
        <time>2022-06-08T05:47:28Z</time>
      </trkpt>
      <trkpt lat="47.9791110" lon="8.8086260">
        <ele>271.8</ele>
        <time>2022-06-08T05:47:32Z</time>
      </trkpt>
      <trkpt lat="47.9790960" lon="8.8085150">
        <ele>273.0</ele>
        <time>2022-06-08T05:47:36Z</time>
      </trkpt>
      <trkpt lat="47.9790750" lon="8.8084280">
        <ele>274.2</ele>
        <time>2022-06-08T05:47:40Z</time>
      </trkpt>
      <trkpt lat="47.9790660" lon="8.8083410">
        <ele>275.2</ele>
        <time>2022-06-08T05:47:44Z</time>
      </trkpt>
      <trkpt lat="47.9790700" lon="8.8082700">
        <ele>276.0</ele>
        <time>2022-06-08T05:47:48Z</time>
      </trkpt>
      <trkpt lat="47.9790700" lon="8.8081850">
        <ele>277.2</ele>
        <time>2022-06-08T05:47:52Z</time>
      </trkpt>
      <trkpt lat="47.9790650" lon="8.8080980">
        <ele>277.6</ele>
        <time>2022-06-08T05:47:56Z</time>
      </trkpt>
      <trkpt lat="47.9790680" lon="8.8080050">
        <ele>278.8</ele>
        <time>2022-06-08T05:48:00Z</time>
      </trkpt>
      <trkpt lat="47.9790680" lon="8.8079130">
        <ele>279.6</ele>
        <time>2022-06-08T05:48:04Z</time>
      </trkpt>
      <trkpt lat="47.9790600" lon="8.8078230">
        <ele>279.8</ele>
        <time>2022-06-08T05:48:08Z</time>
      </trkpt>
      <trkpt lat="47.9790530" lon="8.8077210">
        <ele>281.0</ele>
        <time>2022-06-08T05:48:12Z</time>
      </trkpt>
      <trkpt lat="47.9790410" lon="8.8076250">
        <ele>281.8</ele>
        <time>2022-06-08T05:48:16Z</time>
      </trkpt>
      <trkpt lat="47.9790280" lon="8.8075330">
        <ele>282.6</ele>
        <time>2022-06-08T05:48:20Z</time>
      </trkpt>
      <trkpt lat="47.9790110" lon="8.8074380">
        <ele>283.0</ele>
        <time>2022-06-08T05:48:24Z</time>
      </trkpt>
      <trkpt lat="47.9789910" lon="8.8073530">
        <ele>283.8</ele>
        <time>2022-06-08T05:48:28Z</time>
      </trkpt>
      <trkpt lat="47.9789830" lon="8.8072650">
        <ele>284.6</ele>
        <time>2022-06-08T05:48:32Z</time>
      </trkpt>
      <trkpt lat="47.9789630" lon="8.8071850">
        <ele>285.2</ele>
        <time>2022-06-08T05:48:36Z</time>
      </trkpt>
      <trkpt lat="47.9789460" lon="8.8071050">
        <ele>286.0</ele>
        <time>2022-06-08T05:48:40Z</time>
      </trkpt>
      <trkpt lat="47.9789350" lon="8.8070180">
        <ele>286.6</ele>
        <time>2022-06-08T05:48:44Z</time>
      </trkpt>
      <trkpt lat="47.9789130" lon="8.8069400">
        <ele>287.8</ele>
        <time>2022-06-08T05:48:48Z</time>
      </trkpt>
      <trkpt lat="47.9788910" lon="8.8068710">
        <ele>288.6</ele>
        <time>2022-06-08T05:48:52Z</time>
      </trkpt>
      <trkpt lat="47.9788460" lon="8.8068230">
        <ele>289.4</ele>
        <time>2022-06-08T05:48:56Z</time>
      </trkpt>
      <trkpt lat="47.9788050" lon="8.8067710">
        <ele>290.0</ele>
        <time>2022-06-08T05:49:00Z</time>
      </trkpt>
      <trkpt lat="47.9787760" lon="8.8067050">
        <ele>291.2</ele>
        <time>2022-06-08T05:49:04Z</time>
      </trkpt>
      <trkpt lat="47.9787560" lon="8.8066300">
        <ele>292.0</ele>
        <time>2022-06-08T05:49:08Z</time>
      </trkpt>
      <trkpt lat="47.9787300" lon="8.8065550">
        <ele>293.0</ele>
        <time>2022-06-08T05:49:12Z</time>
      </trkpt>
      <trkpt lat="47.9786980" lon="8.8064850">
        <ele>293.6</ele>
        <time>2022-06-08T05:49:16Z</time>
      </trkpt>
      <trkpt lat="47.9786760" lon="8.8064080">
        <ele>294.2</ele>
        <time>2022-06-08T05:49:20Z</time>
      </trkpt>
      <trkpt lat="47.9786380" lon="8.8063410">
        <ele>294.8</ele>
        <time>2022-06-08T05:49:24Z</time>
      </trkpt>
      <trkpt lat="47.9786160" lon="8.8062630">
        <ele>295.6</ele>
        <time>2022-06-08T05:49:28Z</time>
      </trkpt>
      <trkpt lat="47.9785880" lon="8.8061880">
        <ele>296.4</ele>
        <time>2022-06-08T05:49:32Z</time>
      </trkpt>
      <trkpt lat="47.9785550" lon="8.8061100">
        <ele>297.4</ele>
        <time>2022-06-08T05:49:36Z</time>
      </trkpt>
      <trkpt lat="47.9785400" lon="8.8060250">
        <ele>298.0</ele>
        <time>2022-06-08T05:49:40Z</time>
      </trkpt>
      <trkpt lat="47.9785250" lon="8.8059380">
        <ele>298.8</ele>
        <time>2022-06-08T05:49:44Z</time>
      </trkpt>
      <trkpt lat="47.9785060" lon="8.8058500">
        <ele>299.2</ele>
        <time>2022-06-08T05:49:48Z</time>
      </trkpt>
      <trkpt lat="47.9784950" lon="8.8057610">
        <ele>300.0</ele>
        <time>2022-06-08T05:49:52Z</time>
      </trkpt>
      <trkpt lat="47.9784830" lon="8.8056730">
        <ele>300.8</ele>
        <time>2022-06-08T05:49:56Z</time>
      </trkpt>
      <trkpt lat="47.9784680" lon="8.8055800">
        <ele>301.2</ele>
        <time>2022-06-08T05:50:00Z</time>
      </trkpt>
      <trkpt lat="47.9784530" lon="8.8054880">
        <ele>301.8</ele>
        <time>2022-06-08T05:50:04Z</time>
      </trkpt>
      <trkpt lat="47.9784400" lon="8.8053930">
        <ele>302.4</ele>
        <time>2022-06-08T05:50:08Z</time>
      </trkpt>
      <trkpt lat="47.9784250" lon="8.8052930">
        <ele>302.8</ele>
        <time>2022-06-08T05:50:12Z</time>
      </trkpt>
      <trkpt lat="47.9784000" lon="8.8051930">
        <ele>303.2</ele>
        <time>2022-06-08T05:50:16Z</time>
      </trkpt>
      <trkpt lat="47.9783760" lon="8.8050950">
        <ele>303.4</ele>
        <time>2022-06-08T05:50:20Z</time>
      </trkpt>
      <trkpt lat="47.9783510" lon="8.8049960">
        <ele>304.0</ele>
        <time>2022-06-08T05:50:24Z</time>
      </trkpt>
      <trkpt lat="47.9783300" lon="8.8048960">
        <ele>305.2</ele>
        <time>2022-06-08T05:50:28Z</time>
      </trkpt>
      <trkpt lat="47.9783060" lon="8.8048010">
        <ele>305.2</ele>
        <time>2022-06-08T05:50:32Z</time>
      </trkpt>
      <trkpt lat="47.9782900" lon="8.8047060">
        <ele>305.6</ele>
        <time>2022-06-08T05:50:36Z</time>
      </trkpt>
      <trkpt lat="47.9782560" lon="8.8046250">
        <ele>306.6</ele>
        <time>2022-06-08T05:50:40Z</time>
      </trkpt>
      <trkpt lat="47.9782260" lon="8.8045430">
        <ele>307.2</ele>
        <time>2022-06-08T05:50:44Z</time>
      </trkpt>
      <trkpt lat="47.9782060" lon="8.8044560">
        <ele>308.2</ele>
        <time>2022-06-08T05:50:48Z</time>
      </trkpt>
      <trkpt lat="47.9781880" lon="8.8043780">
        <ele>308.4</ele>
        <time>2022-06-08T05:50:52Z</time>
      </trkpt>
      <trkpt lat="47.9781600" lon="8.8042900">
        <ele>309.2</ele>
        <time>2022-06-08T05:50:56Z</time>
      </trkpt>
      <trkpt lat="47.9781310" lon="8.8042060">
        <ele>310.0</ele>
        <time>2022-06-08T05:51:00Z</time>
      </trkpt>
      <trkpt lat="47.9781060" lon="8.8041160">
        <ele>311.2</ele>
        <time>2022-06-08T05:51:04Z</time>
      </trkpt>
      <trkpt lat="47.9780780" lon="8.8040250">
        <ele>311.6</ele>
        <time>2022-06-08T05:51:08Z</time>
      </trkpt>
      <trkpt lat="47.9780480" lon="8.8039360">
        <ele>311.8</ele>
        <time>2022-06-08T05:51:12Z</time>
      </trkpt>
      <trkpt lat="47.9780210" lon="8.8038800">
        <ele>312.4</ele>
        <time>2022-06-08T05:51:16Z</time>
      </trkpt>
      <trkpt lat="47.9779910" lon="8.8038310">
        <ele>312.8</ele>
        <time>2022-06-08T05:51:20Z</time>
      </trkpt>
      <trkpt lat="47.9779450" lon="8.8038450">
        <ele>313.8</ele>
        <time>2022-06-08T05:51:24Z</time>
      </trkpt>
      <trkpt lat="47.9779160" lon="8.8038850">
        <ele>315.2</ele>
        <time>2022-06-08T05:51:28Z</time>
      </trkpt>
      <trkpt lat="47.9778810" lon="8.8039360">
        <ele>316.0</ele>
        <time>2022-06-08T05:51:32Z</time>
      </trkpt>
      <trkpt lat="47.9778500" lon="8.8039830">
        <ele>317.2</ele>
        <time>2022-06-08T05:51:36Z</time>
      </trkpt>
      <trkpt lat="47.9778300" lon="8.8040180">
        <ele>317.8</ele>
        <time>2022-06-08T05:51:40Z</time>
      </trkpt>
      <trkpt lat="47.9778150" lon="8.8040600">
        <ele>318.6</ele>
        <time>2022-06-08T05:51:44Z</time>
      </trkpt>
      <trkpt lat="47.9778000" lon="8.8041310">
        <ele>319.2</ele>
        <time>2022-06-08T05:51:48Z</time>
      </trkpt>
      <trkpt lat="47.9777600" lon="8.8042180">
        <ele>319.8</ele>
        <time>2022-06-08T05:51:52Z</time>
      </trkpt>
      <trkpt lat="47.9777350" lon="8.8043060">
        <ele>319.8</ele>
        <time>2022-06-08T05:51:56Z</time>
      </trkpt>
      <trkpt lat="47.9777010" lon="8.8043910">
        <ele>320.2</ele>
        <time>2022-06-08T05:52:00Z</time>
      </trkpt>
      <trkpt lat="47.9776810" lon="8.8044930">
        <ele>320.8</ele>
        <time>2022-06-08T05:52:04Z</time>
      </trkpt>
      <trkpt lat="47.9776660" lon="8.8046010">
        <ele>321.0</ele>
        <time>2022-06-08T05:52:08Z</time>
      </trkpt>
      <trkpt lat="47.9776360" lon="8.8047100">
        <ele>321.2</ele>
        <time>2022-06-08T05:52:12Z</time>
      </trkpt>
      <trkpt lat="47.9776050" lon="8.8048210">
        <ele>322.4</ele>
        <time>2022-06-08T05:52:16Z</time>
      </trkpt>
      <trkpt lat="47.9775760" lon="8.8049410">
        <ele>322.8</ele>
        <time>2022-06-08T05:52:20Z</time>
      </trkpt>
      <trkpt lat="47.9775610" lon="8.8050480">
        <ele>323.2</ele>
        <time>2022-06-08T05:52:24Z</time>
      </trkpt>
      <trkpt lat="47.9775350" lon="8.8051480">
        <ele>323.4</ele>
        <time>2022-06-08T05:52:28Z</time>
      </trkpt>
      <trkpt lat="47.9775130" lon="8.8052510">
        <ele>323.4</ele>
        <time>2022-06-08T05:52:32Z</time>
      </trkpt>
      <trkpt lat="47.9774980" lon="8.8053410">
        <ele>323.4</ele>
        <time>2022-06-08T05:52:36Z</time>
      </trkpt>
      <trkpt lat="47.9774930" lon="8.8054360">
        <ele>323.0</ele>
        <time>2022-06-08T05:52:40Z</time>
      </trkpt>
      <trkpt lat="47.9774910" lon="8.8055530">
        <ele>323.0</ele>
        <time>2022-06-08T05:52:44Z</time>
      </trkpt>
      <trkpt lat="47.9774680" lon="8.8057080">
        <ele>322.2</ele>
        <time>2022-06-08T05:52:48Z</time>
      </trkpt>
      <trkpt lat="47.9774680" lon="8.8057080">
        <ele>322.4</ele>
        <time>2022-06-08T05:52:52Z</time>
      </trkpt>
      <trkpt lat="47.9774680" lon="8.8057080">
        <ele>322.4</ele>
        <time>2022-06-08T05:52:56Z</time>
      </trkpt>
      <trkpt lat="47.9774680" lon="8.8057080">
        <ele>322.4</ele>
        <time>2022-06-08T05:53:00Z</time>
      </trkpt>
      <trkpt lat="47.9774680" lon="8.8057080">
        <ele>322.2</ele>
        <time>2022-06-08T05:53:04Z</time>
      </trkpt>
      <trkpt lat="47.9774680" lon="8.8057080">
        <ele>322.2</ele>
        <time>2022-06-08T05:53:08Z</time>
      </trkpt>
      <trkpt lat="47.9774680" lon="8.8057080">
        <ele>322.4</ele>
        <time>2022-06-08T05:53:12Z</time>
      </trkpt>
      <trkpt lat="47.9774680" lon="8.8057080">
        <ele>322.8</ele>
        <time>2022-06-08T05:53:16Z</time>
      </trkpt>
      <trkpt lat="47.9774680" lon="8.8057080">
        <ele>322.0</ele>
        <time>2022-06-08T05:53:20Z</time>
      </trkpt>
      <trkpt lat="47.9774680" lon="8.8057080">
        <ele>322.2</ele>
        <time>2022-06-08T05:53:24Z</time>
      </trkpt>
      <trkpt lat="47.9774680" lon="8.8057080">
        <ele>322.2</ele>
        <time>2022-06-08T05:53:28Z</time>
      </trkpt>
      <trkpt lat="47.9774680" lon="8.8057080">
        <ele>322.2</ele>
        <time>2022-06-08T05:53:32Z</time>
      </trkpt>
      <trkpt lat="47.9774680" lon="8.8057080">
        <ele>322.2</ele>
        <time>2022-06-08T05:53:36Z</time>
      </trkpt>
      <trkpt lat="47.9774680" lon="8.8057080">
        <ele>322.4</ele>
        <time>2022-06-08T05:53:40Z</time>
      </trkpt>
      <trkpt lat="47.9774250" lon="8.8058510">
        <ele>322.0</ele>
        <time>2022-06-08T05:53:44Z</time>
      </trkpt>
      <trkpt lat="47.9774380" lon="8.8058010">
        <ele>322.2</ele>
        <time>2022-06-08T05:53:48Z</time>
      </trkpt>
      <trkpt lat="47.9774330" lon="8.8057260">
        <ele>322.4</ele>
        <time>2022-06-08T05:53:52Z</time>
      </trkpt>
      <trkpt lat="47.9774410" lon="8.8056430">
        <ele>322.8</ele>
        <time>2022-06-08T05:53:56Z</time>
      </trkpt>
      <trkpt lat="47.9774460" lon="8.8055550">
        <ele>323.0</ele>
        <time>2022-06-08T05:54:00Z</time>
      </trkpt>
      <trkpt lat="47.9774510" lon="8.8054650">
        <ele>323.2</ele>
        <time>2022-06-08T05:54:04Z</time>
      </trkpt>
      <trkpt lat="47.9774680" lon="8.8053780">
        <ele>323.4</ele>
        <time>2022-06-08T05:54:08Z</time>
      </trkpt>
      <trkpt lat="47.9774760" lon="8.8052880">
        <ele>323.4</ele>
        <time>2022-06-08T05:54:12Z</time>
      </trkpt>
      <trkpt lat="47.9774950" lon="8.8051880">
        <ele>322.8</ele>
        <time>2022-06-08T05:54:16Z</time>
      </trkpt>
      <trkpt lat="47.9774950" lon="8.8050310">
        <ele>322.6</ele>
        <time>2022-06-08T05:54:20Z</time>
      </trkpt>
      <trkpt lat="47.9775280" lon="8.8048960">
        <ele>322.8</ele>
        <time>2022-06-08T05:54:24Z</time>
      </trkpt>
      <trkpt lat="47.9775500" lon="8.8047530">
        <ele>321.8</ele>
        <time>2022-06-08T05:54:28Z</time>
      </trkpt>
      <trkpt lat="47.9775730" lon="8.8046080">
        <ele>320.8</ele>
        <time>2022-06-08T05:54:32Z</time>
      </trkpt>
      <trkpt lat="47.9775980" lon="8.8044580">
        <ele>320.2</ele>
        <time>2022-06-08T05:54:36Z</time>
      </trkpt>
      <trkpt lat="47.9776160" lon="8.8043600">
        <ele>320.4</ele>
        <time>2022-06-08T05:54:40Z</time>
      </trkpt>
      <trkpt lat="47.9776360" lon="8.8042780">
        <ele>319.6</ele>
        <time>2022-06-08T05:54:44Z</time>
      </trkpt>
      <trkpt lat="47.9776410" lon="8.8042530">
        <ele>318.6</ele>
        <time>2022-06-08T05:54:48Z</time>
      </trkpt>
      <trkpt lat="47.9776410" lon="8.8042530">
        <ele>319.0</ele>
        <time>2022-06-08T05:54:52Z</time>
      </trkpt>
      <trkpt lat="47.9776410" lon="8.8042530">
        <ele>319.0</ele>
        <time>2022-06-08T05:54:56Z</time>
      </trkpt>
      <trkpt lat="47.9776700" lon="8.8042680">
        <ele>319.0</ele>
        <time>2022-06-08T05:55:00Z</time>
      </trkpt>
      <trkpt lat="47.9776910" lon="8.8042900">
        <ele>318.8</ele>
        <time>2022-06-08T05:55:04Z</time>
      </trkpt>
      <trkpt lat="47.9776910" lon="8.8042900">
        <ele>319.0</ele>
        <time>2022-06-08T05:55:08Z</time>
      </trkpt>
      <trkpt lat="47.9776910" lon="8.8042900">
        <ele>318.6</ele>
        <time>2022-06-08T05:55:12Z</time>
      </trkpt>
      <trkpt lat="47.9776910" lon="8.8042900">
        <ele>319.0</ele>
        <time>2022-06-08T05:55:16Z</time>
      </trkpt>
      <trkpt lat="47.9776910" lon="8.8042900">
        <ele>319.0</ele>
        <time>2022-06-08T05:55:20Z</time>
      </trkpt>
      <trkpt lat="47.9776910" lon="8.8042900">
        <ele>318.8</ele>
        <time>2022-06-08T05:55:24Z</time>
      </trkpt>
      <trkpt lat="47.9776910" lon="8.8042900">
        <ele>318.6</ele>
        <time>2022-06-08T05:55:28Z</time>
      </trkpt>
      <trkpt lat="47.9776910" lon="8.8042900">
        <ele>318.6</ele>
        <time>2022-06-08T05:55:32Z</time>
      </trkpt>
      <trkpt lat="47.9776910" lon="8.8042900">
        <ele>318.4</ele>
        <time>2022-06-08T05:55:36Z</time>
      </trkpt>
      <trkpt lat="47.9776910" lon="8.8042900">
        <ele>318.4</ele>
        <time>2022-06-08T05:55:40Z</time>
      </trkpt>
      <trkpt lat="47.9776910" lon="8.8042900">
        <ele>318.8</ele>
        <time>2022-06-08T05:55:44Z</time>
      </trkpt>
      <trkpt lat="47.9776910" lon="8.8042900">
        <ele>318.4</ele>
        <time>2022-06-08T05:55:48Z</time>
      </trkpt>
      <trkpt lat="47.9776910" lon="8.8042900">
        <ele>318.6</ele>
        <time>2022-06-08T05:55:52Z</time>
      </trkpt>
      <trkpt lat="47.9776910" lon="8.8042900">
        <ele>318.8</ele>
        <time>2022-06-08T05:55:56Z</time>
      </trkpt>
      <trkpt lat="47.9776910" lon="8.8042900">
        <ele>318.8</ele>
        <time>2022-06-08T05:56:00Z</time>
      </trkpt>
      <trkpt lat="47.9776910" lon="8.8042900">
        <ele>318.6</ele>
        <time>2022-06-08T05:56:04Z</time>
      </trkpt>
      <trkpt lat="47.9776910" lon="8.8042900">
        <ele>318.6</ele>
        <time>2022-06-08T05:56:08Z</time>
      </trkpt>
      <trkpt lat="47.9776910" lon="8.8042900">
        <ele>318.6</ele>
        <time>2022-06-08T05:56:12Z</time>
      </trkpt>
      <trkpt lat="47.9776910" lon="8.8042900">
        <ele>318.2</ele>
        <time>2022-06-08T05:56:16Z</time>
      </trkpt>
      <trkpt lat="47.9776910" lon="8.8042900">
        <ele>318.6</ele>
        <time>2022-06-08T05:56:20Z</time>
      </trkpt>
      <trkpt lat="47.9776910" lon="8.8042900">
        <ele>318.8</ele>
        <time>2022-06-08T05:56:24Z</time>
      </trkpt>
      <trkpt lat="47.9776910" lon="8.8042900">
        <ele>318.6</ele>
        <time>2022-06-08T05:56:28Z</time>
      </trkpt>
      <trkpt lat="47.9776910" lon="8.8042900">
        <ele>318.4</ele>
        <time>2022-06-08T05:56:32Z</time>
      </trkpt>
      <trkpt lat="47.9776910" lon="8.8042900">
        <ele>318.6</ele>
        <time>2022-06-08T05:56:36Z</time>
      </trkpt>
      <trkpt lat="47.9776910" lon="8.8042900">
        <ele>318.4</ele>
        <time>2022-06-08T05:56:40Z</time>
      </trkpt>
      <trkpt lat="47.9776910" lon="8.8042900">
        <ele>318.6</ele>
        <time>2022-06-08T05:56:44Z</time>
      </trkpt>
      <trkpt lat="47.9776910" lon="8.8042900">
        <ele>318.6</ele>
        <time>2022-06-08T05:56:48Z</time>
      </trkpt>
      <trkpt lat="47.9776910" lon="8.8042900">
        <ele>318.4</ele>
        <time>2022-06-08T05:56:52Z</time>
      </trkpt>
      <trkpt lat="47.9776910" lon="8.8042900">
        <ele>318.6</ele>
        <time>2022-06-08T05:56:56Z</time>
      </trkpt>
      <trkpt lat="47.9776910" lon="8.8042900">
        <ele>318.2</ele>
        <time>2022-06-08T05:57:00Z</time>
      </trkpt>
      <trkpt lat="47.9776910" lon="8.8042900">
        <ele>318.4</ele>
        <time>2022-06-08T05:57:04Z</time>
      </trkpt>
      <trkpt lat="47.9776910" lon="8.8042900">
        <ele>318.8</ele>
        <time>2022-06-08T05:57:08Z</time>
      </trkpt>
      <trkpt lat="47.9776910" lon="8.8042900">
        <ele>318.4</ele>
        <time>2022-06-08T05:57:12Z</time>
      </trkpt>
      <trkpt lat="47.9776910" lon="8.8042900">
        <ele>318.4</ele>
        <time>2022-06-08T05:57:16Z</time>
      </trkpt>
      <trkpt lat="47.9776910" lon="8.8042900">
        <ele>318.6</ele>
        <time>2022-06-08T05:57:20Z</time>
      </trkpt>
      <trkpt lat="47.9776910" lon="8.8042900">
        <ele>319.0</ele>
        <time>2022-06-08T05:57:24Z</time>
      </trkpt>
      <trkpt lat="47.9776910" lon="8.8042900">
        <ele>319.0</ele>
        <time>2022-06-08T05:57:28Z</time>
      </trkpt>
      <trkpt lat="47.9776910" lon="8.8042900">
        <ele>318.4</ele>
        <time>2022-06-08T05:57:32Z</time>
      </trkpt>
      <trkpt lat="47.9776910" lon="8.8042900">
        <ele>319.0</ele>
        <time>2022-06-08T05:57:36Z</time>
      </trkpt>
      <trkpt lat="47.9776910" lon="8.8042900">
        <ele>319.4</ele>
        <time>2022-06-08T05:57:40Z</time>
      </trkpt>
      <trkpt lat="47.9776910" lon="8.8042900">
        <ele>319.2</ele>
        <time>2022-06-08T05:57:44Z</time>
      </trkpt>
      <trkpt lat="47.9776910" lon="8.8042900">
        <ele>319.0</ele>
        <time>2022-06-08T05:57:48Z</time>
      </trkpt>
      <trkpt lat="47.9776910" lon="8.8042900">
        <ele>319.2</ele>
        <time>2022-06-08T05:57:52Z</time>
      </trkpt>
      <trkpt lat="47.9776910" lon="8.8042900">
        <ele>318.6</ele>
        <time>2022-06-08T05:57:56Z</time>
      </trkpt>
      <trkpt lat="47.9776310" lon="8.8043500">
        <ele>319.0</ele>
        <time>2022-06-08T05:58:00Z</time>
      </trkpt>
      <trkpt lat="47.9776500" lon="8.8043900">
        <ele>319.2</ele>
        <time>2022-06-08T05:58:04Z</time>
      </trkpt>
      <trkpt lat="47.9776410" lon="8.8044460">
        <ele>319.6</ele>
        <time>2022-06-08T05:58:08Z</time>
      </trkpt>
      <trkpt lat="47.9776250" lon="8.8045260">
        <ele>320.0</ele>
        <time>2022-06-08T05:58:12Z</time>
      </trkpt>
      <trkpt lat="47.9776200" lon="8.8045960">
        <ele>320.6</ele>
        <time>2022-06-08T05:58:16Z</time>
      </trkpt>
      <trkpt lat="47.9776310" lon="8.8046760">
        <ele>320.6</ele>
        <time>2022-06-08T05:58:20Z</time>
      </trkpt>
      <trkpt lat="47.9776080" lon="8.8047580">
        <ele>321.0</ele>
        <time>2022-06-08T05:58:24Z</time>
      </trkpt>
      <trkpt lat="47.9775760" lon="8.8048480">
        <ele>321.4</ele>
        <time>2022-06-08T05:58:28Z</time>
      </trkpt>
      <trkpt lat="47.9775550" lon="8.8049160">
        <ele>322.4</ele>
        <time>2022-06-08T05:58:32Z</time>
      </trkpt>
      <trkpt lat="47.9775450" lon="8.8050000">
        <ele>322.8</ele>
        <time>2022-06-08T05:58:36Z</time>
      </trkpt>
      <trkpt lat="47.9775300" lon="8.8051030">
        <ele>323.2</ele>
        <time>2022-06-08T05:58:40Z</time>
      </trkpt>
      <trkpt lat="47.9775150" lon="8.8052210">
        <ele>323.2</ele>
        <time>2022-06-08T05:58:44Z</time>
      </trkpt>
      <trkpt lat="47.9774960" lon="8.8053410">
        <ele>323.0</ele>
        <time>2022-06-08T05:58:48Z</time>
      </trkpt>
      <trkpt lat="47.9774850" lon="8.8054710">
        <ele>322.8</ele>
        <time>2022-06-08T05:58:52Z</time>
      </trkpt>
      <trkpt lat="47.9774700" lon="8.8056150">
        <ele>322.6</ele>
        <time>2022-06-08T05:58:56Z</time>
      </trkpt>
      <trkpt lat="47.9774260" lon="8.8057900">
        <ele>321.8</ele>
        <time>2022-06-08T05:59:00Z</time>
      </trkpt>
      <trkpt lat="47.9773810" lon="8.8059910">
        <ele>321.4</ele>
        <time>2022-06-08T05:59:04Z</time>
      </trkpt>
      <trkpt lat="47.9773130" lon="8.8061780">
        <ele>321.0</ele>
        <time>2022-06-08T05:59:08Z</time>
      </trkpt>
      <trkpt lat="47.9772100" lon="8.8063250">
        <ele>321.2</ele>
        <time>2022-06-08T05:59:12Z</time>
      </trkpt>
      <trkpt lat="47.9771230" lon="8.8064100">
        <ele>320.8</ele>
        <time>2022-06-08T05:59:16Z</time>
      </trkpt>
      <trkpt lat="47.9770450" lon="8.8064810">
        <ele>320.2</ele>
        <time>2022-06-08T05:59:20Z</time>
      </trkpt>
      <trkpt lat="47.9769910" lon="8.8065080">
        <ele>320.2</ele>
        <time>2022-06-08T05:59:24Z</time>
      </trkpt>
      <trkpt lat="47.9769910" lon="8.8065080">
        <ele>320.0</ele>
        <time>2022-06-08T05:59:28Z</time>
      </trkpt>
      <trkpt lat="47.9769910" lon="8.8065080">
        <ele>320.2</ele>
        <time>2022-06-08T05:59:32Z</time>
      </trkpt>
      <trkpt lat="47.9769910" lon="8.8065080">
        <ele>320.4</ele>
        <time>2022-06-08T05:59:36Z</time>
      </trkpt>
      <trkpt lat="47.9769910" lon="8.8065080">
        <ele>320.2</ele>
        <time>2022-06-08T05:59:40Z</time>
      </trkpt>
      <trkpt lat="47.9769910" lon="8.8065080">
        <ele>320.2</ele>
        <time>2022-06-08T05:59:44Z</time>
      </trkpt>
      <trkpt lat="47.9769510" lon="8.8065830">
        <ele>320.2</ele>
        <time>2022-06-08T05:59:48Z</time>
      </trkpt>
      <trkpt lat="47.9768710" lon="8.8066700">
        <ele>319.2</ele>
        <time>2022-06-08T05:59:52Z</time>
      </trkpt>
      <trkpt lat="47.9767350" lon="8.8067580">
        <ele>317.6</ele>
        <time>2022-06-08T05:59:56Z</time>
      </trkpt>
      <trkpt lat="47.9765310" lon="8.8068660">
        <ele>315.0</ele>
        <time>2022-06-08T06:00:00Z</time>
      </trkpt>
      <trkpt lat="47.9762880" lon="8.8069360">
        <ele>313.2</ele>
        <time>2022-06-08T06:00:04Z</time>
      </trkpt>
      <trkpt lat="47.9760710" lon="8.8070330">
        <ele>312.4</ele>
        <time>2022-06-08T06:00:08Z</time>
      </trkpt>
      <trkpt lat="47.9758360" lon="8.8071680">
        <ele>312.0</ele>
        <time>2022-06-08T06:00:12Z</time>
      </trkpt>
      <trkpt lat="47.9756030" lon="8.8072610">
        <ele>311.6</ele>
        <time>2022-06-08T06:00:16Z</time>
      </trkpt>
      <trkpt lat="47.9754050" lon="8.8074250">
        <ele>311.6</ele>
        <time>2022-06-08T06:00:20Z</time>
      </trkpt>
      <trkpt lat="47.9752030" lon="8.8075710">
        <ele>311.6</ele>
        <time>2022-06-08T06:00:24Z</time>
      </trkpt>
      <trkpt lat="47.9750030" lon="8.8077330">
        <ele>310.2</ele>
        <time>2022-06-08T06:00:28Z</time>
      </trkpt>
      <trkpt lat="47.9748030" lon="8.8079180">
        <ele>308.4</ele>
        <time>2022-06-08T06:00:32Z</time>
      </trkpt>
      <trkpt lat="47.9745830" lon="8.8081800">
        <ele>304.8</ele>
        <time>2022-06-08T06:00:36Z</time>
      </trkpt>
      <trkpt lat="47.9743110" lon="8.8084580">
        <ele>299.2</ele>
        <time>2022-06-08T06:00:40Z</time>
      </trkpt>
      <trkpt lat="47.9739980" lon="8.8087650">
        <ele>300.4</ele>
        <time>2022-06-08T06:00:44Z</time>
      </trkpt>
      <trkpt lat="47.9737210" lon="8.8090350">
        <ele>297.2</ele>
        <time>2022-06-08T06:00:48Z</time>
      </trkpt>
      <trkpt lat="47.9734810" lon="8.8092930">
        <ele>300.2</ele>
        <time>2022-06-08T06:00:52Z</time>
      </trkpt>
      <trkpt lat="47.9733260" lon="8.8094650">
        <ele>301.4</ele>
        <time>2022-06-08T06:00:56Z</time>
      </trkpt>
      <trkpt lat="47.9732310" lon="8.8096310">
        <ele>302.4</ele>
        <time>2022-06-08T06:01:00Z</time>
      </trkpt>
      <trkpt lat="47.9730960" lon="8.8097060">
        <ele>303.4</ele>
        <time>2022-06-08T06:01:04Z</time>
      </trkpt>
      <trkpt lat="47.9730000" lon="8.8097830">
        <ele>304.8</ele>
        <time>2022-06-08T06:01:08Z</time>
      </trkpt>
      <trkpt lat="47.9729110" lon="8.8098800">
        <ele>305.2</ele>
        <time>2022-06-08T06:01:12Z</time>
      </trkpt>
      <trkpt lat="47.9728300" lon="8.8099780">
        <ele>305.8</ele>
        <time>2022-06-08T06:01:16Z</time>
      </trkpt>
      <trkpt lat="47.9727310" lon="8.8100510">
        <ele>306.4</ele>
        <time>2022-06-08T06:01:20Z</time>
      </trkpt>
      <trkpt lat="47.9726380" lon="8.8101500">
        <ele>306.8</ele>
        <time>2022-06-08T06:01:24Z</time>
      </trkpt>
      <trkpt lat="47.9725480" lon="8.8102410">
        <ele>307.2</ele>
        <time>2022-06-08T06:01:28Z</time>
      </trkpt>
      <trkpt lat="47.9724430" lon="8.8103230">
        <ele>308.0</ele>
        <time>2022-06-08T06:01:32Z</time>
      </trkpt>
      <trkpt lat="47.9723730" lon="8.8104030">
        <ele>308.2</ele>
        <time>2022-06-08T06:01:36Z</time>
      </trkpt>
      <trkpt lat="47.9722800" lon="8.8104810">
        <ele>308.8</ele>
        <time>2022-06-08T06:01:40Z</time>
      </trkpt>
      <trkpt lat="47.9721980" lon="8.8105760">
        <ele>309.8</ele>
        <time>2022-06-08T06:01:44Z</time>
      </trkpt>
      <trkpt lat="47.9720980" lon="8.8106280">
        <ele>310.4</ele>
        <time>2022-06-08T06:01:48Z</time>
      </trkpt>
      <trkpt lat="47.9720180" lon="8.8107050">
        <ele>310.8</ele>
        <time>2022-06-08T06:01:52Z</time>
      </trkpt>
      <trkpt lat="47.9719430" lon="8.8107560">
        <ele>311.6</ele>
        <time>2022-06-08T06:01:56Z</time>
      </trkpt>
      <trkpt lat="47.9718400" lon="8.8107900">
        <ele>311.6</ele>
        <time>2022-06-08T06:02:00Z</time>
      </trkpt>
      <trkpt lat="47.9717400" lon="8.8108460">
        <ele>312.8</ele>
        <time>2022-06-08T06:02:04Z</time>
      </trkpt>
      <trkpt lat="47.9716480" lon="8.8109050">
        <ele>313.4</ele>
        <time>2022-06-08T06:02:08Z</time>
      </trkpt>
      <trkpt lat="47.9715610" lon="8.8109730">
        <ele>314.0</ele>
        <time>2022-06-08T06:02:12Z</time>
      </trkpt>
      <trkpt lat="47.9714900" lon="8.8110160">
        <ele>314.4</ele>
        <time>2022-06-08T06:02:16Z</time>
      </trkpt>
      <trkpt lat="47.9714230" lon="8.8111010">
        <ele>314.8</ele>
        <time>2022-06-08T06:02:20Z</time>
      </trkpt>
      <trkpt lat="47.9713550" lon="8.8111900">
        <ele>315.8</ele>
        <time>2022-06-08T06:02:24Z</time>
      </trkpt>
      <trkpt lat="47.9712780" lon="8.8112480">
        <ele>316.0</ele>
        <time>2022-06-08T06:02:28Z</time>
      </trkpt>
      <trkpt lat="47.9712050" lon="8.8113230">
        <ele>316.6</ele>
        <time>2022-06-08T06:02:32Z</time>
      </trkpt>
      <trkpt lat="47.9711260" lon="8.8113960">
        <ele>317.4</ele>
        <time>2022-06-08T06:02:36Z</time>
      </trkpt>
      <trkpt lat="47.9710550" lon="8.8114810">
        <ele>317.6</ele>
        <time>2022-06-08T06:02:40Z</time>
      </trkpt>
      <trkpt lat="47.9709860" lon="8.8115480">
        <ele>318.2</ele>
        <time>2022-06-08T06:02:44Z</time>
      </trkpt>
      <trkpt lat="47.9709410" lon="8.8116430">
        <ele>318.2</ele>
        <time>2022-06-08T06:02:48Z</time>
      </trkpt>
      <trkpt lat="47.9708860" lon="8.8117300">
        <ele>319.2</ele>
        <time>2022-06-08T06:02:52Z</time>
      </trkpt>
      <trkpt lat="47.9708080" lon="8.8118230">
        <ele>319.4</ele>
        <time>2022-06-08T06:02:56Z</time>
      </trkpt>
      <trkpt lat="47.9707310" lon="8.8119100">
        <ele>320.0</ele>
        <time>2022-06-08T06:03:00Z</time>
      </trkpt>
      <trkpt lat="47.9706480" lon="8.8119850">
        <ele>320.4</ele>
        <time>2022-06-08T06:03:04Z</time>
      </trkpt>
      <trkpt lat="47.9705760" lon="8.8120510">
        <ele>320.8</ele>
        <time>2022-06-08T06:03:08Z</time>
      </trkpt>
      <trkpt lat="47.9705000" lon="8.8121260">
        <ele>321.2</ele>
        <time>2022-06-08T06:03:12Z</time>
      </trkpt>
      <trkpt lat="47.9704360" lon="8.8122000">
        <ele>322.2</ele>
        <time>2022-06-08T06:03:16Z</time>
      </trkpt>
      <trkpt lat="47.9703630" lon="8.8122750">
        <ele>322.8</ele>
        <time>2022-06-08T06:03:20Z</time>
      </trkpt>
      <trkpt lat="47.9702750" lon="8.8123430">
        <ele>323.2</ele>
        <time>2022-06-08T06:03:24Z</time>
      </trkpt>
      <trkpt lat="47.9701960" lon="8.8124230">
        <ele>323.6</ele>
        <time>2022-06-08T06:03:28Z</time>
      </trkpt>
      <trkpt lat="47.9701250" lon="8.8125160">
        <ele>324.0</ele>
        <time>2022-06-08T06:03:32Z</time>
      </trkpt>
      <trkpt lat="47.9700430" lon="8.8126130">
        <ele>324.8</ele>
        <time>2022-06-08T06:03:36Z</time>
      </trkpt>
      <trkpt lat="47.9699650" lon="8.8127050">
        <ele>325.6</ele>
        <time>2022-06-08T06:03:40Z</time>
      </trkpt>
      <trkpt lat="47.9698780" lon="8.8127700">
        <ele>326.0</ele>
        <time>2022-06-08T06:03:44Z</time>
      </trkpt>
      <trkpt lat="47.9697900" lon="8.8128660">
        <ele>326.4</ele>
        <time>2022-06-08T06:03:48Z</time>
      </trkpt>
      <trkpt lat="47.9697360" lon="8.8129550">
        <ele>327.2</ele>
        <time>2022-06-08T06:03:52Z</time>
      </trkpt>
      <trkpt lat="47.9696880" lon="8.8130300">
        <ele>328.0</ele>
        <time>2022-06-08T06:03:56Z</time>
      </trkpt>
      <trkpt lat="47.9696400" lon="8.8130880">
        <ele>328.2</ele>
        <time>2022-06-08T06:04:00Z</time>
      </trkpt>
      <trkpt lat="47.9695780" lon="8.8131400">
        <ele>329.4</ele>
        <time>2022-06-08T06:04:04Z</time>
      </trkpt>
      <trkpt lat="47.9694930" lon="8.8131750">
        <ele>330.2</ele>
        <time>2022-06-08T06:04:08Z</time>
      </trkpt>
      <trkpt lat="47.9694380" lon="8.8132010">
        <ele>330.8</ele>
        <time>2022-06-08T06:04:12Z</time>
      </trkpt>
      <trkpt lat="47.9693510" lon="8.8132280">
        <ele>331.4</ele>
        <time>2022-06-08T06:04:16Z</time>
      </trkpt>
      <trkpt lat="47.9692750" lon="8.8132180">
        <ele>332.2</ele>
        <time>2022-06-08T06:04:20Z</time>
      </trkpt>
      <trkpt lat="47.9692080" lon="8.8132030">
        <ele>332.4</ele>
        <time>2022-06-08T06:04:24Z</time>
      </trkpt>
      <trkpt lat="47.9691080" lon="8.8132060">
        <ele>333.0</ele>
        <time>2022-06-08T06:04:28Z</time>
      </trkpt>
      <trkpt lat="47.9690200" lon="8.8132260">
        <ele>333.8</ele>
        <time>2022-06-08T06:04:32Z</time>
      </trkpt>
      <trkpt lat="47.9689650" lon="8.8132560">
        <ele>334.4</ele>
        <time>2022-06-08T06:04:36Z</time>
      </trkpt>
      <trkpt lat="47.9688930" lon="8.8132750">
        <ele>335.0</ele>
        <time>2022-06-08T06:04:40Z</time>
      </trkpt>
      <trkpt lat="47.9687600" lon="8.8132950">
        <ele>335.6</ele>
        <time>2022-06-08T06:04:44Z</time>
      </trkpt>
      <trkpt lat="47.9686550" lon="8.8133300">
        <ele>336.2</ele>
        <time>2022-06-08T06:04:48Z</time>
      </trkpt>
      <trkpt lat="47.9685450" lon="8.8133760">
        <ele>336.8</ele>
        <time>2022-06-08T06:04:52Z</time>
      </trkpt>
      <trkpt lat="47.9684500" lon="8.8134550">
        <ele>337.8</ele>
        <time>2022-06-08T06:04:56Z</time>
      </trkpt>
      <trkpt lat="47.9683600" lon="8.8135100">
        <ele>338.4</ele>
        <time>2022-06-08T06:05:00Z</time>
      </trkpt>
      <trkpt lat="47.9682810" lon="8.8135710">
        <ele>339.2</ele>
        <time>2022-06-08T06:05:04Z</time>
      </trkpt>
      <trkpt lat="47.9682080" lon="8.8136350">
        <ele>339.4</ele>
        <time>2022-06-08T06:05:08Z</time>
      </trkpt>
      <trkpt lat="47.9681600" lon="8.8137100">
        <ele>340.4</ele>
        <time>2022-06-08T06:05:12Z</time>
      </trkpt>
      <trkpt lat="47.9680830" lon="8.8137780">
        <ele>340.4</ele>
        <time>2022-06-08T06:05:16Z</time>
      </trkpt>
      <trkpt lat="47.9680160" lon="8.8138380">
        <ele>341.2</ele>
        <time>2022-06-08T06:05:20Z</time>
      </trkpt>
      <trkpt lat="47.9679700" lon="8.8139050">
        <ele>342.2</ele>
        <time>2022-06-08T06:05:24Z</time>
      </trkpt>
      <trkpt lat="47.9679280" lon="8.8139560">
        <ele>342.0</ele>
        <time>2022-06-08T06:05:28Z</time>
      </trkpt>
      <trkpt lat="47.9678950" lon="8.8140130">
        <ele>342.8</ele>
        <time>2022-06-08T06:05:32Z</time>
      </trkpt>
      <trkpt lat="47.9678950" lon="8.8140130">
        <ele>342.8</ele>
        <time>2022-06-08T06:05:36Z</time>
      </trkpt>
      <trkpt lat="47.9678950" lon="8.8140130">
        <ele>342.2</ele>
        <time>2022-06-08T06:05:40Z</time>
      </trkpt>
      <trkpt lat="47.9678950" lon="8.8140130">
        <ele>342.2</ele>
        <time>2022-06-08T06:05:44Z</time>
      </trkpt>
      <trkpt lat="47.9678950" lon="8.8140130">
        <ele>342.6</ele>
        <time>2022-06-08T06:05:48Z</time>
      </trkpt>
      <trkpt lat="47.9678950" lon="8.8140130">
        <ele>342.4</ele>
        <time>2022-06-08T06:05:52Z</time>
      </trkpt>
      <trkpt lat="47.9678950" lon="8.8140130">
        <ele>342.4</ele>
        <time>2022-06-08T06:05:56Z</time>
      </trkpt>
      <trkpt lat="47.9678950" lon="8.8140130">
        <ele>342.6</ele>
        <time>2022-06-08T06:06:00Z</time>
      </trkpt>
      <trkpt lat="47.9678950" lon="8.8140130">
        <ele>342.8</ele>
        <time>2022-06-08T06:06:04Z</time>
      </trkpt>
      <trkpt lat="47.9678950" lon="8.8140130">
        <ele>342.6</ele>
        <time>2022-06-08T06:06:08Z</time>
      </trkpt>
      <trkpt lat="47.9678950" lon="8.8140130">
        <ele>342.4</ele>
        <time>2022-06-08T06:06:12Z</time>
      </trkpt>
      <trkpt lat="47.9678950" lon="8.8140130">
        <ele>342.2</ele>
        <time>2022-06-08T06:06:16Z</time>
      </trkpt>
      <trkpt lat="47.9678950" lon="8.8140130">
        <ele>342.4</ele>
        <time>2022-06-08T06:06:20Z</time>
      </trkpt>
      <trkpt lat="47.9678950" lon="8.8140130">
        <ele>342.2</ele>
        <time>2022-06-08T06:06:24Z</time>
      </trkpt>
      <trkpt lat="47.9678950" lon="8.8140130">
        <ele>342.2</ele>
        <time>2022-06-08T06:06:28Z</time>
      </trkpt>
      <trkpt lat="47.9678950" lon="8.8140130">
        <ele>342.2</ele>
        <time>2022-06-08T06:06:32Z</time>
      </trkpt>
      <trkpt lat="47.9678950" lon="8.8140130">
        <ele>342.4</ele>
        <time>2022-06-08T06:06:36Z</time>
      </trkpt>
      <trkpt lat="47.9678950" lon="8.8140130">
        <ele>342.4</ele>
        <time>2022-06-08T06:06:40Z</time>
      </trkpt>
      <trkpt lat="47.9678950" lon="8.8140130">
        <ele>342.2</ele>
        <time>2022-06-08T06:06:44Z</time>
      </trkpt>
      <trkpt lat="47.9677900" lon="8.8141880">
        <ele>342.2</ele>
        <time>2022-06-08T06:06:48Z</time>
      </trkpt>
      <trkpt lat="47.9677530" lon="8.8142250">
        <ele>342.8</ele>
        <time>2022-06-08T06:06:52Z</time>
      </trkpt>
      <trkpt lat="47.9676960" lon="8.8142700">
        <ele>343.4</ele>
        <time>2022-06-08T06:06:56Z</time>
      </trkpt>
      <trkpt lat="47.9676450" lon="8.8143260">
        <ele>344.0</ele>
        <time>2022-06-08T06:07:00Z</time>
      </trkpt>
      <trkpt lat="47.9676030" lon="8.8143980">
        <ele>345.0</ele>
        <time>2022-06-08T06:07:04Z</time>
      </trkpt>
      <trkpt lat="47.9675760" lon="8.8145180">
        <ele>345.6</ele>
        <time>2022-06-08T06:07:08Z</time>
      </trkpt>
      <trkpt lat="47.9675200" lon="8.8145850">
        <ele>346.4</ele>
        <time>2022-06-08T06:07:12Z</time>
      </trkpt>
      <trkpt lat="47.9674410" lon="8.8147030">
        <ele>346.6</ele>
        <time>2022-06-08T06:07:16Z</time>
      </trkpt>
      <trkpt lat="47.9673550" lon="8.8147910">
        <ele>347.4</ele>
        <time>2022-06-08T06:07:20Z</time>
      </trkpt>
      <trkpt lat="47.9672900" lon="8.8148550">
        <ele>348.4</ele>
        <time>2022-06-08T06:07:24Z</time>
      </trkpt>
      <trkpt lat="47.9672450" lon="8.8149480">
        <ele>348.8</ele>
        <time>2022-06-08T06:07:28Z</time>
      </trkpt>
      <trkpt lat="47.9671880" lon="8.8150230">
        <ele>349.8</ele>
        <time>2022-06-08T06:07:32Z</time>
      </trkpt>
      <trkpt lat="47.9671030" lon="8.8151060">
        <ele>350.6</ele>
        <time>2022-06-08T06:07:36Z</time>
      </trkpt>
      <trkpt lat="47.9670310" lon="8.8151610">
        <ele>351.4</ele>
        <time>2022-06-08T06:07:40Z</time>
      </trkpt>
      <trkpt lat="47.9669450" lon="8.8152310">
        <ele>352.0</ele>
        <time>2022-06-08T06:07:44Z</time>
      </trkpt>
      <trkpt lat="47.9668800" lon="8.8153050">
        <ele>352.6</ele>
        <time>2022-06-08T06:07:48Z</time>
      </trkpt>
      <trkpt lat="47.9668050" lon="8.8153850">
        <ele>353.2</ele>
        <time>2022-06-08T06:07:52Z</time>
      </trkpt>
      <trkpt lat="47.9667260" lon="8.8154460">
        <ele>353.8</ele>
        <time>2022-06-08T06:07:56Z</time>
      </trkpt>
      <trkpt lat="47.9666830" lon="8.8155180">
        <ele>354.6</ele>
        <time>2022-06-08T06:08:00Z</time>
      </trkpt>
      <trkpt lat="47.9666430" lon="8.8155900">
        <ele>355.4</ele>
        <time>2022-06-08T06:08:04Z</time>
      </trkpt>
      <trkpt lat="47.9666130" lon="8.8156330">
        <ele>356.0</ele>
        <time>2022-06-08T06:08:08Z</time>
      </trkpt>
      <trkpt lat="47.9665900" lon="8.8157010">
        <ele>357.0</ele>
        <time>2022-06-08T06:08:12Z</time>
      </trkpt>
      <trkpt lat="47.9665000" lon="8.8157550">
        <ele>357.6</ele>
        <time>2022-06-08T06:08:16Z</time>
      </trkpt>
      <trkpt lat="47.9664410" lon="8.8158000">
        <ele>358.2</ele>
        <time>2022-06-08T06:08:20Z</time>
      </trkpt>
      <trkpt lat="47.9663230" lon="8.8158060">
        <ele>359.2</ele>
        <time>2022-06-08T06:08:24Z</time>
      </trkpt>
      <trkpt lat="47.9662280" lon="8.8158060">
        <ele>360.2</ele>
        <time>2022-06-08T06:08:28Z</time>
      </trkpt>
      <trkpt lat="47.9661310" lon="8.8158000">
        <ele>360.4</ele>
        <time>2022-06-08T06:08:32Z</time>
      </trkpt>
      <trkpt lat="47.9660180" lon="8.8157780">
        <ele>361.0</ele>
        <time>2022-06-08T06:08:36Z</time>
      </trkpt>
      <trkpt lat="47.9659210" lon="8.8157680">
        <ele>361.6</ele>
        <time>2022-06-08T06:08:40Z</time>
      </trkpt>
      <trkpt lat="47.9658410" lon="8.8157380">
        <ele>362.0</ele>
        <time>2022-06-08T06:08:44Z</time>
      </trkpt>
      <trkpt lat="47.9657610" lon="8.8156980">
        <ele>362.8</ele>
        <time>2022-06-08T06:08:48Z</time>
      </trkpt>
      <trkpt lat="47.9656860" lon="8.8156700">
        <ele>363.4</ele>
        <time>2022-06-08T06:08:52Z</time>
      </trkpt>
      <trkpt lat="47.9656310" lon="8.8156400">
        <ele>364.0</ele>
        <time>2022-06-08T06:08:56Z</time>
      </trkpt>
      <trkpt lat="47.9655660" lon="8.8156230">
        <ele>364.8</ele>
        <time>2022-06-08T06:09:00Z</time>
      </trkpt>
      <trkpt lat="47.9654860" lon="8.8156130">
        <ele>364.8</ele>
        <time>2022-06-08T06:09:04Z</time>
      </trkpt>
      <trkpt lat="47.9654360" lon="8.8156260">
        <ele>365.4</ele>
        <time>2022-06-08T06:09:08Z</time>
      </trkpt>
      <trkpt lat="47.9653680" lon="8.8156450">
        <ele>366.2</ele>
        <time>2022-06-08T06:09:12Z</time>
      </trkpt>
      <trkpt lat="47.9653010" lon="8.8156360">
        <ele>367.2</ele>
        <time>2022-06-08T06:09:16Z</time>
      </trkpt>
      <trkpt lat="47.9652560" lon="8.8156330">
        <ele>367.8</ele>
        <time>2022-06-08T06:09:20Z</time>
      </trkpt>
      <trkpt lat="47.9651850" lon="8.8156300">
        <ele>368.8</ele>
        <time>2022-06-08T06:09:24Z</time>
      </trkpt>
      <trkpt lat="47.9650610" lon="8.8156280">
        <ele>369.2</ele>
        <time>2022-06-08T06:09:28Z</time>
      </trkpt>
      <trkpt lat="47.9650050" lon="8.8156300">
        <ele>370.2</ele>
        <time>2022-06-08T06:09:32Z</time>
      </trkpt>
      <trkpt lat="47.9649510" lon="8.8156480">
        <ele>370.8</ele>
        <time>2022-06-08T06:09:36Z</time>
      </trkpt>
      <trkpt lat="47.9648930" lon="8.8156480">
        <ele>371.6</ele>
        <time>2022-06-08T06:09:40Z</time>
      </trkpt>
      <trkpt lat="47.9648200" lon="8.8156230">
        <ele>372.2</ele>
        <time>2022-06-08T06:09:44Z</time>
      </trkpt>
      <trkpt lat="47.9647450" lon="8.8156130">
        <ele>372.8</ele>
        <time>2022-06-08T06:09:48Z</time>
      </trkpt>
      <trkpt lat="47.9646850" lon="8.8156050">
        <ele>373.4</ele>
        <time>2022-06-08T06:09:52Z</time>
      </trkpt>
      <trkpt lat="47.9646110" lon="8.8155800">
        <ele>373.8</ele>
        <time>2022-06-08T06:09:56Z</time>
      </trkpt>
      <trkpt lat="47.9645250" lon="8.8155500">
        <ele>374.6</ele>
        <time>2022-06-08T06:10:00Z</time>
      </trkpt>
      <trkpt lat="47.9644500" lon="8.8155280">
        <ele>375.2</ele>
        <time>2022-06-08T06:10:04Z</time>
      </trkpt>
      <trkpt lat="47.9643760" lon="8.8155000">
        <ele>375.6</ele>
        <time>2022-06-08T06:10:08Z</time>
      </trkpt>
      <trkpt lat="47.9643110" lon="8.8154810">
        <ele>376.4</ele>
        <time>2022-06-08T06:10:12Z</time>
      </trkpt>
      <trkpt lat="47.9642500" lon="8.8154730">
        <ele>376.8</ele>
        <time>2022-06-08T06:10:16Z</time>
      </trkpt>
      <trkpt lat="47.9641900" lon="8.8154530">
        <ele>377.8</ele>
        <time>2022-06-08T06:10:20Z</time>
      </trkpt>
      <trkpt lat="47.9641360" lon="8.8154450">
        <ele>378.8</ele>
        <time>2022-06-08T06:10:24Z</time>
      </trkpt>
      <trkpt lat="47.9640850" lon="8.8154460">
        <ele>379.4</ele>
        <time>2022-06-08T06:10:28Z</time>
      </trkpt>
      <trkpt lat="47.9640050" lon="8.8154410">
        <ele>380.6</ele>
        <time>2022-06-08T06:10:32Z</time>
      </trkpt>
      <trkpt lat="47.9639450" lon="8.8154400">
        <ele>381.4</ele>
        <time>2022-06-08T06:10:36Z</time>
      </trkpt>
      <trkpt lat="47.9638860" lon="8.8154560">
        <ele>382.6</ele>
        <time>2022-06-08T06:10:40Z</time>
      </trkpt>
      <trkpt lat="47.9638280" lon="8.8154580">
        <ele>383.8</ele>
        <time>2022-06-08T06:10:44Z</time>
      </trkpt>
      <trkpt lat="47.9637680" lon="8.8154730">
        <ele>384.6</ele>
        <time>2022-06-08T06:10:48Z</time>
      </trkpt>
      <trkpt lat="47.9637100" lon="8.8154910">
        <ele>385.2</ele>
        <time>2022-06-08T06:10:52Z</time>
      </trkpt>
      <trkpt lat="47.9636410" lon="8.8155050">
        <ele>386.0</ele>
        <time>2022-06-08T06:10:56Z</time>
      </trkpt>
      <trkpt lat="47.9635700" lon="8.8155060">
        <ele>386.4</ele>
        <time>2022-06-08T06:11:00Z</time>
      </trkpt>
      <trkpt lat="47.9634980" lon="8.8155080">
        <ele>387.4</ele>
        <time>2022-06-08T06:11:04Z</time>
      </trkpt>
      <trkpt lat="47.9634300" lon="8.8155080">
        <ele>387.4</ele>
        <time>2022-06-08T06:11:08Z</time>
      </trkpt>
      <trkpt lat="47.9633600" lon="8.8155180">
        <ele>388.4</ele>
        <time>2022-06-08T06:11:12Z</time>
      </trkpt>
      <trkpt lat="47.9633010" lon="8.8155250">
        <ele>388.8</ele>
        <time>2022-06-08T06:11:16Z</time>
      </trkpt>
      <trkpt lat="47.9632450" lon="8.8155360">
        <ele>389.4</ele>
        <time>2022-06-08T06:11:20Z</time>
      </trkpt>
      <trkpt lat="47.9631880" lon="8.8155480">
        <ele>389.8</ele>
        <time>2022-06-08T06:11:24Z</time>
      </trkpt>
      <trkpt lat="47.9631260" lon="8.8155610">
        <ele>390.8</ele>
        <time>2022-06-08T06:11:28Z</time>
      </trkpt>
      <trkpt lat="47.9630780" lon="8.8155660">
        <ele>391.2</ele>
        <time>2022-06-08T06:11:32Z</time>
      </trkpt>
      <trkpt lat="47.9630060" lon="8.8155710">
        <ele>391.4</ele>
        <time>2022-06-08T06:11:36Z</time>
      </trkpt>
      <trkpt lat="47.9629360" lon="8.8155710">
        <ele>392.2</ele>
        <time>2022-06-08T06:11:40Z</time>
      </trkpt>
      <trkpt lat="47.9628850" lon="8.8155900">
        <ele>393.0</ele>
        <time>2022-06-08T06:11:44Z</time>
      </trkpt>
      <trkpt lat="47.9628310" lon="8.8155860">
        <ele>393.4</ele>
        <time>2022-06-08T06:11:48Z</time>
      </trkpt>
      <trkpt lat="47.9627400" lon="8.8155860">
        <ele>394.2</ele>
        <time>2022-06-08T06:11:52Z</time>
      </trkpt>
      <trkpt lat="47.9626780" lon="8.8156180">
        <ele>394.6</ele>
        <time>2022-06-08T06:11:56Z</time>
      </trkpt>
      <trkpt lat="47.9626250" lon="8.8156330">
        <ele>395.2</ele>
        <time>2022-06-08T06:12:00Z</time>
      </trkpt>
      <trkpt lat="47.9625500" lon="8.8156530">
        <ele>395.8</ele>
        <time>2022-06-08T06:12:04Z</time>
      </trkpt>
      <trkpt lat="47.9624730" lon="8.8156510">
        <ele>396.4</ele>
        <time>2022-06-08T06:12:08Z</time>
      </trkpt>
      <trkpt lat="47.9624080" lon="8.8156460">
        <ele>397.0</ele>
        <time>2022-06-08T06:12:12Z</time>
      </trkpt>
      <trkpt lat="47.9622830" lon="8.8156430">
        <ele>397.6</ele>
        <time>2022-06-08T06:12:16Z</time>
      </trkpt>
      <trkpt lat="47.9622200" lon="8.8156650">
        <ele>398.2</ele>
        <time>2022-06-08T06:12:20Z</time>
      </trkpt>
      <trkpt lat="47.9621710" lon="8.8156760">
        <ele>399.0</ele>
        <time>2022-06-08T06:12:24Z</time>
      </trkpt>
      <trkpt lat="47.9621130" lon="8.8156830">
        <ele>399.6</ele>
        <time>2022-06-08T06:12:28Z</time>
      </trkpt>
      <trkpt lat="47.9620630" lon="8.8156900">
        <ele>400.4</ele>
        <time>2022-06-08T06:12:32Z</time>
      </trkpt>
      <trkpt lat="47.9620110" lon="8.8157000">
        <ele>400.8</ele>
        <time>2022-06-08T06:12:36Z</time>
      </trkpt>
      <trkpt lat="47.9619180" lon="8.8156830">
        <ele>402.2</ele>
        <time>2022-06-08T06:12:40Z</time>
      </trkpt>
      <trkpt lat="47.9618060" lon="8.8156780">
        <ele>402.8</ele>
        <time>2022-06-08T06:12:44Z</time>
      </trkpt>
      <trkpt lat="47.9617300" lon="8.8156880">
        <ele>403.6</ele>
        <time>2022-06-08T06:12:48Z</time>
      </trkpt>
      <trkpt lat="47.9616750" lon="8.8156960">
        <ele>404.2</ele>
        <time>2022-06-08T06:12:52Z</time>
      </trkpt>
      <trkpt lat="47.9616200" lon="8.8157200">
        <ele>405.4</ele>
        <time>2022-06-08T06:12:56Z</time>
      </trkpt>
      <trkpt lat="47.9615460" lon="8.8157150">
        <ele>406.0</ele>
        <time>2022-06-08T06:13:00Z</time>
      </trkpt>
      <trkpt lat="47.9614910" lon="8.8157350">
        <ele>407.2</ele>
        <time>2022-06-08T06:13:04Z</time>
      </trkpt>
      <trkpt lat="47.9614280" lon="8.8157280">
        <ele>408.4</ele>
        <time>2022-06-08T06:13:08Z</time>
      </trkpt>
      <trkpt lat="47.9613710" lon="8.8157180">
        <ele>408.8</ele>
        <time>2022-06-08T06:13:12Z</time>
      </trkpt>
      <trkpt lat="47.9613030" lon="8.8157230">
        <ele>409.6</ele>
        <time>2022-06-08T06:13:16Z</time>
      </trkpt>
      <trkpt lat="47.9612500" lon="8.8157210">
        <ele>410.8</ele>
        <time>2022-06-08T06:13:20Z</time>
      </trkpt>
      <trkpt lat="47.9611810" lon="8.8157160">
        <ele>411.2</ele>
        <time>2022-06-08T06:13:24Z</time>
      </trkpt>
      <trkpt lat="47.9611180" lon="8.8157280">
        <ele>411.8</ele>
        <time>2022-06-08T06:13:28Z</time>
      </trkpt>
      <trkpt lat="47.9610700" lon="8.8157450">
        <ele>412.8</ele>
        <time>2022-06-08T06:13:32Z</time>
      </trkpt>
      <trkpt lat="47.9610000" lon="8.8157400">
        <ele>413.2</ele>
        <time>2022-06-08T06:13:36Z</time>
      </trkpt>
      <trkpt lat="47.9609310" lon="8.8157380">
        <ele>414.4</ele>
        <time>2022-06-08T06:13:40Z</time>
      </trkpt>
      <trkpt lat="47.9608850" lon="8.8157350">
        <ele>415.0</ele>
        <time>2022-06-08T06:13:44Z</time>
      </trkpt>
      <trkpt lat="47.9608250" lon="8.8157210">
        <ele>416.0</ele>
        <time>2022-06-08T06:13:48Z</time>
      </trkpt>
      <trkpt lat="47.9607580" lon="8.8157050">
        <ele>417.0</ele>
        <time>2022-06-08T06:13:52Z</time>
      </trkpt>
      <trkpt lat="47.9606930" lon="8.8156860">
        <ele>417.4</ele>
        <time>2022-06-08T06:13:56Z</time>
      </trkpt>
      <trkpt lat="47.9606380" lon="8.8156580">
        <ele>419.0</ele>
        <time>2022-06-08T06:14:00Z</time>
      </trkpt>
      <trkpt lat="47.9606050" lon="8.8156310">
        <ele>420.0</ele>
        <time>2022-06-08T06:14:04Z</time>
      </trkpt>
      <trkpt lat="47.9605630" lon="8.8155930">
        <ele>420.6</ele>
        <time>2022-06-08T06:14:08Z</time>
      </trkpt>
      <trkpt lat="47.9605200" lon="8.8155560">
        <ele>421.8</ele>
        <time>2022-06-08T06:14:12Z</time>
      </trkpt>
      <trkpt lat="47.9604430" lon="8.8155000">
        <ele>422.6</ele>
        <time>2022-06-08T06:14:16Z</time>
      </trkpt>
      <trkpt lat="47.9603880" lon="8.8154530">
        <ele>423.0</ele>
        <time>2022-06-08T06:14:20Z</time>
      </trkpt>
      <trkpt lat="47.9603460" lon="8.8153810">
        <ele>424.2</ele>
        <time>2022-06-08T06:14:24Z</time>
      </trkpt>
      <trkpt lat="47.9602930" lon="8.8153230">
        <ele>425.0</ele>
        <time>2022-06-08T06:14:28Z</time>
      </trkpt>
      <trkpt lat="47.9602550" lon="8.8152910">
        <ele>426.4</ele>
        <time>2022-06-08T06:14:32Z</time>
      </trkpt>
      <trkpt lat="47.9602410" lon="8.8153310">
        <ele>426.6</ele>
        <time>2022-06-08T06:14:36Z</time>
      </trkpt>
      <trkpt lat="47.9602260" lon="8.8154150">
        <ele>427.2</ele>
        <time>2022-06-08T06:14:40Z</time>
      </trkpt>
      <trkpt lat="47.9602180" lon="8.8154880">
        <ele>427.4</ele>
        <time>2022-06-08T06:14:44Z</time>
      </trkpt>
      <trkpt lat="47.9602210" lon="8.8155950">
        <ele>427.8</ele>
        <time>2022-06-08T06:14:48Z</time>
      </trkpt>
      <trkpt lat="47.9602380" lon="8.8156950">
        <ele>427.6</ele>
        <time>2022-06-08T06:14:52Z</time>
      </trkpt>
      <trkpt lat="47.9602400" lon="8.8157830">
        <ele>427.4</ele>
        <time>2022-06-08T06:14:56Z</time>
      </trkpt>
      <trkpt lat="47.9602430" lon="8.8158600">
        <ele>427.0</ele>
        <time>2022-06-08T06:15:00Z</time>
      </trkpt>
      <trkpt lat="47.9602310" lon="8.8158850">
        <ele>426.8</ele>
        <time>2022-06-08T06:15:04Z</time>
      </trkpt>
      <trkpt lat="47.9602360" lon="8.8158400">
        <ele>427.2</ele>
        <time>2022-06-08T06:15:08Z</time>
      </trkpt>
      <trkpt lat="47.9602310" lon="8.8157780">
        <ele>427.6</ele>
        <time>2022-06-08T06:15:12Z</time>
      </trkpt>
      <trkpt lat="47.9602210" lon="8.8157030">
        <ele>427.4</ele>
        <time>2022-06-08T06:15:16Z</time>
      </trkpt>
      <trkpt lat="47.9601950" lon="8.8156380">
        <ele>427.8</ele>
        <time>2022-06-08T06:15:20Z</time>
      </trkpt>
      <trkpt lat="47.9602050" lon="8.8154800">
        <ele>427.6</ele>
        <time>2022-06-08T06:15:24Z</time>
      </trkpt>
      <trkpt lat="47.9602010" lon="8.8153410">
        <ele>427.4</ele>
        <time>2022-06-08T06:15:28Z</time>
      </trkpt>
      <trkpt lat="47.9601930" lon="8.8151780">
        <ele>427.2</ele>
        <time>2022-06-08T06:15:32Z</time>
      </trkpt>
      <trkpt lat="47.9601860" lon="8.8150310">
        <ele>427.4</ele>
        <time>2022-06-08T06:15:36Z</time>
      </trkpt>
      <trkpt lat="47.9601410" lon="8.8149250">
        <ele>427.4</ele>
        <time>2022-06-08T06:15:40Z</time>
      </trkpt>
      <trkpt lat="47.9601330" lon="8.8148160">
        <ele>428.0</ele>
        <time>2022-06-08T06:15:44Z</time>
      </trkpt>
      <trkpt lat="47.9601060" lon="8.8146960">
        <ele>428.4</ele>
        <time>2022-06-08T06:15:48Z</time>
      </trkpt>
      <trkpt lat="47.9600680" lon="8.8145750">
        <ele>428.2</ele>
        <time>2022-06-08T06:15:52Z</time>
      </trkpt>
      <trkpt lat="47.9600680" lon="8.8145750">
        <ele>428.6</ele>
        <time>2022-06-08T06:15:56Z</time>
      </trkpt>
      <trkpt lat="47.9600680" lon="8.8145750">
        <ele>428.6</ele>
        <time>2022-06-08T06:16:00Z</time>
      </trkpt>
      <trkpt lat="47.9600680" lon="8.8145750">
        <ele>428.4</ele>
        <time>2022-06-08T06:16:04Z</time>
      </trkpt>
      <trkpt lat="47.9600680" lon="8.8145750">
        <ele>428.6</ele>
        <time>2022-06-08T06:16:08Z</time>
      </trkpt>
      <trkpt lat="47.9600680" lon="8.8145750">
        <ele>428.4</ele>
        <time>2022-06-08T06:16:12Z</time>
      </trkpt>
      <trkpt lat="47.9600680" lon="8.8145750">
        <ele>428.6</ele>
        <time>2022-06-08T06:16:16Z</time>
      </trkpt>
      <trkpt lat="47.9600680" lon="8.8145750">
        <ele>428.4</ele>
        <time>2022-06-08T06:16:20Z</time>
      </trkpt>
      <trkpt lat="47.9600510" lon="8.8144810">
        <ele>428.8</ele>
        <time>2022-06-08T06:16:24Z</time>
      </trkpt>
      <trkpt lat="47.9600550" lon="8.8145160">
        <ele>428.2</ele>
        <time>2022-06-08T06:16:28Z</time>
      </trkpt>
      <trkpt lat="47.9600760" lon="8.8145600">
        <ele>428.4</ele>
        <time>2022-06-08T06:16:32Z</time>
      </trkpt>
      <trkpt lat="47.9601100" lon="8.8146150">
        <ele>428.4</ele>
        <time>2022-06-08T06:16:36Z</time>
      </trkpt>
      <trkpt lat="47.9601310" lon="8.8146680">
        <ele>428.2</ele>
        <time>2022-06-08T06:16:40Z</time>
      </trkpt>
      <trkpt lat="47.9601480" lon="8.8147400">
        <ele>428.2</ele>
        <time>2022-06-08T06:16:44Z</time>
      </trkpt>
      <trkpt lat="47.9601550" lon="8.8148250">
        <ele>427.8</ele>
        <time>2022-06-08T06:16:48Z</time>
      </trkpt>
      <trkpt lat="47.9601760" lon="8.8149230">
        <ele>427.6</ele>
        <time>2022-06-08T06:16:52Z</time>
      </trkpt>
      <trkpt lat="47.9601900" lon="8.8150380">
        <ele>427.2</ele>
        <time>2022-06-08T06:16:56Z</time>
      </trkpt>
      <trkpt lat="47.9601900" lon="8.8150380">
        <ele>427.0</ele>
        <time>2022-06-08T06:17:00Z</time>
      </trkpt>
      <trkpt lat="47.9601900" lon="8.8150380">
        <ele>427.4</ele>
        <time>2022-06-08T06:17:04Z</time>
      </trkpt>
      <trkpt lat="47.9601900" lon="8.8150380">
        <ele>427.2</ele>
        <time>2022-06-08T06:17:08Z</time>
      </trkpt>
      <trkpt lat="47.9601900" lon="8.8150380">
        <ele>427.4</ele>
        <time>2022-06-08T06:17:12Z</time>
      </trkpt>
      <trkpt lat="47.9601900" lon="8.8150380">
        <ele>427.0</ele>
        <time>2022-06-08T06:17:16Z</time>
      </trkpt>
      <trkpt lat="47.9602030" lon="8.8151310">
        <ele>427.0</ele>
        <time>2022-06-08T06:17:20Z</time>
      </trkpt>
      <trkpt lat="47.9602030" lon="8.8151310">
        <ele>427.6</ele>
        <time>2022-06-08T06:17:24Z</time>
      </trkpt>
      <trkpt lat="47.9602030" lon="8.8151310">
        <ele>427.4</ele>
        <time>2022-06-08T06:17:28Z</time>
      </trkpt>
      <trkpt lat="47.9602030" lon="8.8151310">
        <ele>427.4</ele>
        <time>2022-06-08T06:17:32Z</time>
      </trkpt>
      <trkpt lat="47.9602030" lon="8.8151310">
        <ele>427.2</ele>
        <time>2022-06-08T06:17:36Z</time>
      </trkpt>
      <trkpt lat="47.9602030" lon="8.8151310">
        <ele>427.2</ele>
        <time>2022-06-08T06:17:40Z</time>
      </trkpt>
      <trkpt lat="47.9602060" lon="8.8150860">
        <ele>427.4</ele>
        <time>2022-06-08T06:17:44Z</time>
      </trkpt>
      <trkpt lat="47.9601950" lon="8.8149960">
        <ele>427.8</ele>
        <time>2022-06-08T06:17:48Z</time>
      </trkpt>
      <trkpt lat="47.9601660" lon="8.8148950">
        <ele>428.0</ele>
        <time>2022-06-08T06:17:52Z</time>
      </trkpt>
      <trkpt lat="47.9601460" lon="8.8148080">
        <ele>428.0</ele>
        <time>2022-06-08T06:17:56Z</time>
      </trkpt>
      <trkpt lat="47.9601210" lon="8.8147110">
        <ele>428.2</ele>
        <time>2022-06-08T06:18:00Z</time>
      </trkpt>
      <trkpt lat="47.9600960" lon="8.8146460">
        <ele>428.4</ele>
        <time>2022-06-08T06:18:04Z</time>
      </trkpt>
      <trkpt lat="47.9600480" lon="8.8145510">
        <ele>428.4</ele>
        <time>2022-06-08T06:18:08Z</time>
      </trkpt>
      <trkpt lat="47.9599860" lon="8.8144280">
        <ele>428.8</ele>
        <time>2022-06-08T06:18:12Z</time>
      </trkpt>
      <trkpt lat="47.9599210" lon="8.8142950">
        <ele>428.4</ele>
        <time>2022-06-08T06:18:16Z</time>
      </trkpt>
      <trkpt lat="47.9598550" lon="8.8141800">
        <ele>428.2</ele>
        <time>2022-06-08T06:18:20Z</time>
      </trkpt>
      <trkpt lat="47.9597960" lon="8.8140500">
        <ele>427.8</ele>
        <time>2022-06-08T06:18:24Z</time>
      </trkpt>
      <trkpt lat="47.9597580" lon="8.8139350">
        <ele>427.6</ele>
        <time>2022-06-08T06:18:28Z</time>
      </trkpt>
      <trkpt lat="47.9597260" lon="8.8138410">
        <ele>427.6</ele>
        <time>2022-06-08T06:18:32Z</time>
      </trkpt>
      <trkpt lat="47.9596550" lon="8.8137760">
        <ele>427.6</ele>
        <time>2022-06-08T06:18:36Z</time>
      </trkpt>
      <trkpt lat="47.9595800" lon="8.8136810">
        <ele>428.4</ele>
        <time>2022-06-08T06:18:40Z</time>
      </trkpt>
      <trkpt lat="47.9594910" lon="8.8136200">
        <ele>428.4</ele>
        <time>2022-06-08T06:18:44Z</time>
      </trkpt>
      <trkpt lat="47.9594150" lon="8.8135930">
        <ele>429.6</ele>
        <time>2022-06-08T06:18:48Z</time>
      </trkpt>
      <trkpt lat="47.9593700" lon="8.8136230">
        <ele>430.6</ele>
        <time>2022-06-08T06:18:52Z</time>
      </trkpt>
      <trkpt lat="47.9593200" lon="8.8136530">
        <ele>432.0</ele>
        <time>2022-06-08T06:18:56Z</time>
      </trkpt>
      <trkpt lat="47.9592630" lon="8.8136810">
        <ele>432.8</ele>
        <time>2022-06-08T06:19:00Z</time>
      </trkpt>
      <trkpt lat="47.9592130" lon="8.8137210">
        <ele>433.6</ele>
        <time>2022-06-08T06:19:04Z</time>
      </trkpt>
      <trkpt lat="47.9591560" lon="8.8137530">
        <ele>434.2</ele>
        <time>2022-06-08T06:19:08Z</time>
      </trkpt>
      <trkpt lat="47.9591030" lon="8.8138030">
        <ele>435.4</ele>
        <time>2022-06-08T06:19:12Z</time>
      </trkpt>
      <trkpt lat="47.9590380" lon="8.8138450">
        <ele>436.2</ele>
        <time>2022-06-08T06:19:16Z</time>
      </trkpt>
      <trkpt lat="47.9589710" lon="8.8138730">
        <ele>437.0</ele>
        <time>2022-06-08T06:19:20Z</time>
      </trkpt>
      <trkpt lat="47.9589030" lon="8.8139010">
        <ele>438.0</ele>
        <time>2022-06-08T06:19:24Z</time>
      </trkpt>
      <trkpt lat="47.9588430" lon="8.8139450">
        <ele>439.0</ele>
        <time>2022-06-08T06:19:28Z</time>
      </trkpt>
      <trkpt lat="47.9587680" lon="8.8140060">
        <ele>439.4</ele>
        <time>2022-06-08T06:19:32Z</time>
      </trkpt>
      <trkpt lat="47.9586960" lon="8.8140460">
        <ele>440.4</ele>
        <time>2022-06-08T06:19:36Z</time>
      </trkpt>
      <trkpt lat="47.9586310" lon="8.8140960">
        <ele>441.2</ele>
        <time>2022-06-08T06:19:40Z</time>
      </trkpt>
      <trkpt lat="47.9585850" lon="8.8141430">
        <ele>441.2</ele>
        <time>2022-06-08T06:19:44Z</time>
      </trkpt>
      <trkpt lat="47.9585230" lon="8.8142010">
        <ele>441.6</ele>
        <time>2022-06-08T06:19:48Z</time>
      </trkpt>
      <trkpt lat="47.9584530" lon="8.8142630">
        <ele>441.8</ele>
        <time>2022-06-08T06:19:52Z</time>
      </trkpt>
      <trkpt lat="47.9583710" lon="8.8142980">
        <ele>442.0</ele>
        <time>2022-06-08T06:19:56Z</time>
      </trkpt>
      <trkpt lat="47.9582550" lon="8.8143280">
        <ele>442.0</ele>
        <time>2022-06-08T06:20:00Z</time>
      </trkpt>
      <trkpt lat="47.9581560" lon="8.8143910">
        <ele>441.4</ele>
        <time>2022-06-08T06:20:04Z</time>
      </trkpt>
      <trkpt lat="47.9580810" lon="8.8144610">
        <ele>440.8</ele>
        <time>2022-06-08T06:20:08Z</time>
      </trkpt>
      <trkpt lat="47.9579910" lon="8.8145380">
        <ele>439.8</ele>
        <time>2022-06-08T06:20:12Z</time>
      </trkpt>
      <trkpt lat="47.9579910" lon="8.8145380">
        <ele>439.0</ele>
        <time>2022-06-08T06:20:16Z</time>
      </trkpt>
      <trkpt lat="47.9579910" lon="8.8145380">
        <ele>439.2</ele>
        <time>2022-06-08T06:20:20Z</time>
      </trkpt>
      <trkpt lat="47.9579910" lon="8.8145380">
        <ele>438.8</ele>
        <time>2022-06-08T06:20:24Z</time>
      </trkpt>
      <trkpt lat="47.9579910" lon="8.8145380">
        <ele>438.8</ele>
        <time>2022-06-08T06:20:28Z</time>
      </trkpt>
      <trkpt lat="47.9579910" lon="8.8145380">
        <ele>439.0</ele>
        <time>2022-06-08T06:20:32Z</time>
      </trkpt>
      <trkpt lat="47.9579910" lon="8.8145380">
        <ele>439.0</ele>
        <time>2022-06-08T06:20:36Z</time>
      </trkpt>
      <trkpt lat="47.9579910" lon="8.8145380">
        <ele>439.2</ele>
        <time>2022-06-08T06:20:40Z</time>
      </trkpt>
      <trkpt lat="47.9579910" lon="8.8145380">
        <ele>438.8</ele>
        <time>2022-06-08T06:20:44Z</time>
      </trkpt>
      <trkpt lat="47.9578580" lon="8.8145980">
        <ele>439.0</ele>
        <time>2022-06-08T06:20:48Z</time>
      </trkpt>
      <trkpt lat="47.9578080" lon="8.8146880">
        <ele>438.0</ele>
        <time>2022-06-08T06:20:52Z</time>
      </trkpt>
      <trkpt lat="47.9577860" lon="8.8148350">
        <ele>436.0</ele>
        <time>2022-06-08T06:20:56Z</time>
      </trkpt>
      <trkpt lat="47.9578050" lon="8.8150930">
        <ele>435.0</ele>
        <time>2022-06-08T06:21:00Z</time>
      </trkpt>
      <trkpt lat="47.9578400" lon="8.8153700">
        <ele>435.4</ele>
        <time>2022-06-08T06:21:04Z</time>
      </trkpt>
      <trkpt lat="47.9578780" lon="8.8155800">
        <ele>435.8</ele>
        <time>2022-06-08T06:21:08Z</time>
      </trkpt>
      <trkpt lat="47.9579250" lon="8.8157800">
        <ele>436.2</ele>
        <time>2022-06-08T06:21:12Z</time>
      </trkpt>
      <trkpt lat="47.9579830" lon="8.8159610">
        <ele>436.0</ele>
        <time>2022-06-08T06:21:16Z</time>
      </trkpt>
      <trkpt lat="47.9580330" lon="8.8161550">
        <ele>436.8</ele>
        <time>2022-06-08T06:21:20Z</time>
      </trkpt>
      <trkpt lat="47.9580760" lon="8.8163130">
        <ele>437.6</ele>
        <time>2022-06-08T06:21:24Z</time>
      </trkpt>
      <trkpt lat="47.9580850" lon="8.8164510">
        <ele>438.4</ele>
        <time>2022-06-08T06:21:28Z</time>
      </trkpt>
      <trkpt lat="47.9581350" lon="8.8166150">
        <ele>438.8</ele>
        <time>2022-06-08T06:21:32Z</time>
      </trkpt>
      <trkpt lat="47.9581500" lon="8.8167360">
        <ele>439.2</ele>
        <time>2022-06-08T06:21:36Z</time>
      </trkpt>
      <trkpt lat="47.9581950" lon="8.8168760">
        <ele>439.8</ele>
        <time>2022-06-08T06:21:40Z</time>
      </trkpt>
      <trkpt lat="47.9582110" lon="8.8170550">
        <ele>440.6</ele>
        <time>2022-06-08T06:21:44Z</time>
      </trkpt>
      <trkpt lat="47.9582250" lon="8.8172130">
        <ele>440.4</ele>
        <time>2022-06-08T06:21:48Z</time>
      </trkpt>
      <trkpt lat="47.9582180" lon="8.8173880">
        <ele>441.4</ele>
        <time>2022-06-08T06:21:52Z</time>
      </trkpt>
      <trkpt lat="47.9582400" lon="8.8175560">
        <ele>441.6</ele>
        <time>2022-06-08T06:21:56Z</time>
      </trkpt>
      <trkpt lat="47.9582400" lon="8.8177100">
        <ele>441.8</ele>
        <time>2022-06-08T06:22:00Z</time>
      </trkpt>
      <trkpt lat="47.9582260" lon="8.8178650">
        <ele>441.8</ele>
        <time>2022-06-08T06:22:04Z</time>
      </trkpt>
      <trkpt lat="47.9582200" lon="8.8180210">
        <ele>442.6</ele>
        <time>2022-06-08T06:22:08Z</time>
      </trkpt>
      <trkpt lat="47.9582280" lon="8.8181910">
        <ele>442.8</ele>
        <time>2022-06-08T06:22:12Z</time>
      </trkpt>
      <trkpt lat="47.9582260" lon="8.8183410">
        <ele>443.4</ele>
        <time>2022-06-08T06:22:16Z</time>
      </trkpt>
      <trkpt lat="47.9581930" lon="8.8184910">
        <ele>443.8</ele>
        <time>2022-06-08T06:22:20Z</time>
      </trkpt>
      <trkpt lat="47.9581560" lon="8.8186050">
        <ele>444.2</ele>
        <time>2022-06-08T06:22:24Z</time>
      </trkpt>
      <trkpt lat="47.9581000" lon="8.8186780">
        <ele>443.6</ele>
        <time>2022-06-08T06:22:28Z</time>
      </trkpt>
      <trkpt lat="47.9579730" lon="8.8186950">
        <ele>442.4</ele>
        <time>2022-06-08T06:22:32Z</time>
      </trkpt>
      <trkpt lat="47.9578480" lon="8.8186830">
        <ele>441.4</ele>
        <time>2022-06-08T06:22:36Z</time>
      </trkpt>
      <trkpt lat="47.9577360" lon="8.8187160">
        <ele>440.0</ele>
        <time>2022-06-08T06:22:40Z</time>
      </trkpt>
      <trkpt lat="47.9576280" lon="8.8187500">
        <ele>438.4</ele>
        <time>2022-06-08T06:22:44Z</time>
      </trkpt>
      <trkpt lat="47.9574760" lon="8.8187980">
        <ele>437.0</ele>
        <time>2022-06-08T06:22:48Z</time>
      </trkpt>
      <trkpt lat="47.9573500" lon="8.8188410">
        <ele>436.0</ele>
        <time>2022-06-08T06:22:52Z</time>
      </trkpt>
      <trkpt lat="47.9573500" lon="8.8188410">
        <ele>435.6</ele>
        <time>2022-06-08T06:22:56Z</time>
      </trkpt>
      <trkpt lat="47.9573500" lon="8.8188410">
        <ele>435.8</ele>
        <time>2022-06-08T06:23:00Z</time>
      </trkpt>
      <trkpt lat="47.9573500" lon="8.8188410">
        <ele>435.8</ele>
        <time>2022-06-08T06:23:04Z</time>
      </trkpt>
      <trkpt lat="47.9572750" lon="8.8188510">
        <ele>435.8</ele>
        <time>2022-06-08T06:23:08Z</time>
      </trkpt>
      <trkpt lat="47.9571650" lon="8.8189050">
        <ele>435.2</ele>
        <time>2022-06-08T06:23:12Z</time>
      </trkpt>
      <trkpt lat="47.9569280" lon="8.8189900">
        <ele>432.0</ele>
        <time>2022-06-08T06:23:16Z</time>
      </trkpt>
      <trkpt lat="47.9565910" lon="8.8190900">
        <ele>427.4</ele>
        <time>2022-06-08T06:23:20Z</time>
      </trkpt>
      <trkpt lat="47.9561780" lon="8.8192210">
        <ele>422.8</ele>
        <time>2022-06-08T06:23:24Z</time>
      </trkpt>
      <trkpt lat="47.9557310" lon="8.8193780">
        <ele>420.6</ele>
        <time>2022-06-08T06:23:28Z</time>
      </trkpt>
      <trkpt lat="47.9553580" lon="8.8195010">
        <ele>419.4</ele>
        <time>2022-06-08T06:23:32Z</time>
      </trkpt>
      <trkpt lat="47.9550080" lon="8.8196250">
        <ele>420.6</ele>
        <time>2022-06-08T06:23:36Z</time>
      </trkpt>
      <trkpt lat="47.9547100" lon="8.8197010">
        <ele>420.8</ele>
        <time>2022-06-08T06:23:40Z</time>
      </trkpt>
      <trkpt lat="47.9544680" lon="8.8197560">
        <ele>421.8</ele>
        <time>2022-06-08T06:23:44Z</time>
      </trkpt>
      <trkpt lat="47.9542900" lon="8.8198180">
        <ele>423.2</ele>
        <time>2022-06-08T06:23:48Z</time>
      </trkpt>
      <trkpt lat="47.9541780" lon="8.8198650">
        <ele>424.4</ele>
        <time>2022-06-08T06:23:52Z</time>
      </trkpt>
      <trkpt lat="47.9540850" lon="8.8199100">
        <ele>425.2</ele>
        <time>2022-06-08T06:23:56Z</time>
      </trkpt>
      <trkpt lat="47.9540050" lon="8.8199300">
        <ele>425.6</ele>
        <time>2022-06-08T06:24:00Z</time>
      </trkpt>
      <trkpt lat="47.9539230" lon="8.8199730">
        <ele>426.8</ele>
        <time>2022-06-08T06:24:04Z</time>
      </trkpt>
      <trkpt lat="47.9538530" lon="8.8200010">
        <ele>427.8</ele>
        <time>2022-06-08T06:24:08Z</time>
      </trkpt>
      <trkpt lat="47.9537660" lon="8.8200460">
        <ele>429.0</ele>
        <time>2022-06-08T06:24:12Z</time>
      </trkpt>
      <trkpt lat="47.9537080" lon="8.8200700">
        <ele>430.0</ele>
        <time>2022-06-08T06:24:16Z</time>
      </trkpt>
      <trkpt lat="47.9536330" lon="8.8200880">
        <ele>430.6</ele>
        <time>2022-06-08T06:24:20Z</time>
      </trkpt>
      <trkpt lat="47.9535900" lon="8.8201150">
        <ele>431.6</ele>
        <time>2022-06-08T06:24:24Z</time>
      </trkpt>
      <trkpt lat="47.9535210" lon="8.8201580">
        <ele>432.0</ele>
        <time>2022-06-08T06:24:28Z</time>
      </trkpt>
      <trkpt lat="47.9533780" lon="8.8201750">
        <ele>433.2</ele>
        <time>2022-06-08T06:24:32Z</time>
      </trkpt>
      <trkpt lat="47.9533000" lon="8.8202080">
        <ele>433.8</ele>
        <time>2022-06-08T06:24:36Z</time>
      </trkpt>
      <trkpt lat="47.9532160" lon="8.8202260">
        <ele>434.6</ele>
        <time>2022-06-08T06:24:40Z</time>
      </trkpt>
      <trkpt lat="47.9531450" lon="8.8202560">
        <ele>435.4</ele>
        <time>2022-06-08T06:24:44Z</time>
      </trkpt>
      <trkpt lat="47.9530750" lon="8.8202850">
        <ele>435.8</ele>
        <time>2022-06-08T06:24:48Z</time>
      </trkpt>
      <trkpt lat="47.9530080" lon="8.8203030">
        <ele>436.8</ele>
        <time>2022-06-08T06:24:52Z</time>
      </trkpt>
      <trkpt lat="47.9529480" lon="8.8203380">
        <ele>437.6</ele>
        <time>2022-06-08T06:24:56Z</time>
      </trkpt>
      <trkpt lat="47.9528730" lon="8.8203650">
        <ele>438.0</ele>
        <time>2022-06-08T06:25:00Z</time>
      </trkpt>
      <trkpt lat="47.9528010" lon="8.8203910">
        <ele>438.8</ele>
        <time>2022-06-08T06:25:04Z</time>
      </trkpt>
      <trkpt lat="47.9526880" lon="8.8204130">
        <ele>439.8</ele>
        <time>2022-06-08T06:25:08Z</time>
      </trkpt>
      <trkpt lat="47.9526310" lon="8.8204450">
        <ele>440.2</ele>
        <time>2022-06-08T06:25:12Z</time>
      </trkpt>
      <trkpt lat="47.9525680" lon="8.8204700">
        <ele>440.6</ele>
        <time>2022-06-08T06:25:16Z</time>
      </trkpt>
      <trkpt lat="47.9524830" lon="8.8204900">
        <ele>440.6</ele>
        <time>2022-06-08T06:25:20Z</time>
      </trkpt>
      <trkpt lat="47.9523350" lon="8.8204800">
        <ele>441.2</ele>
        <time>2022-06-08T06:25:24Z</time>
      </trkpt>
      <trkpt lat="47.9522630" lon="8.8205180">
        <ele>441.8</ele>
        <time>2022-06-08T06:25:28Z</time>
      </trkpt>
      <trkpt lat="47.9521730" lon="8.8205560">
        <ele>442.4</ele>
        <time>2022-06-08T06:25:32Z</time>
      </trkpt>
      <trkpt lat="47.9520580" lon="8.8206000">
        <ele>442.8</ele>
        <time>2022-06-08T06:25:36Z</time>
      </trkpt>
      <trkpt lat="47.9519450" lon="8.8206380">
        <ele>443.0</ele>
        <time>2022-06-08T06:25:40Z</time>
      </trkpt>
      <trkpt lat="47.9518410" lon="8.8206700">
        <ele>443.2</ele>
        <time>2022-06-08T06:25:44Z</time>
      </trkpt>
      <trkpt lat="47.9517780" lon="8.8206980">
        <ele>443.2</ele>
        <time>2022-06-08T06:25:48Z</time>
      </trkpt>
      <trkpt lat="47.9517780" lon="8.8206980">
        <ele>443.0</ele>
        <time>2022-06-08T06:25:52Z</time>
      </trkpt>
      <trkpt lat="47.9517780" lon="8.8206980">
        <ele>443.0</ele>
        <time>2022-06-08T06:25:56Z</time>
      </trkpt>
      <trkpt lat="47.9517780" lon="8.8206980">
        <ele>443.4</ele>
        <time>2022-06-08T06:26:00Z</time>
      </trkpt>
      <trkpt lat="47.9517780" lon="8.8206980">
        <ele>443.2</ele>
        <time>2022-06-08T06:26:04Z</time>
      </trkpt>
      <trkpt lat="47.9517780" lon="8.8206980">
        <ele>443.4</ele>
        <time>2022-06-08T06:26:08Z</time>
      </trkpt>
      <trkpt lat="47.9517780" lon="8.8206980">
        <ele>443.2</ele>
        <time>2022-06-08T06:26:12Z</time>
      </trkpt>
      <trkpt lat="47.9517350" lon="8.8207200">
        <ele>443.6</ele>
        <time>2022-06-08T06:26:16Z</time>
      </trkpt>
      <trkpt lat="47.9517350" lon="8.8207200">
        <ele>443.6</ele>
        <time>2022-06-08T06:26:20Z</time>
      </trkpt>
      <trkpt lat="47.9517350" lon="8.8207210">
        <ele>444.0</ele>
        <time>2022-06-08T06:26:24Z</time>
      </trkpt>
      <trkpt lat="47.9517350" lon="8.8207210">
        <ele>443.8</ele>
        <time>2022-06-08T06:26:28Z</time>
      </trkpt>
      <trkpt lat="47.9517350" lon="8.8207210">
        <ele>444.2</ele>
        <time>2022-06-08T06:26:32Z</time>
      </trkpt>
      <trkpt lat="47.9517350" lon="8.8207210">
        <ele>443.8</ele>
        <time>2022-06-08T06:26:36Z</time>
      </trkpt>
      <trkpt lat="47.9517350" lon="8.8207210">
        <ele>444.0</ele>
        <time>2022-06-08T06:26:40Z</time>
      </trkpt>
      <trkpt lat="47.9517350" lon="8.8207210">
        <ele>444.0</ele>
        <time>2022-06-08T06:26:44Z</time>
      </trkpt>
      <trkpt lat="47.9517350" lon="8.8207210">
        <ele>443.8</ele>
        <time>2022-06-08T06:26:48Z</time>
      </trkpt>
      <trkpt lat="47.9517350" lon="8.8207210">
        <ele>444.0</ele>
        <time>2022-06-08T06:26:52Z</time>
      </trkpt>
      <trkpt lat="47.9517350" lon="8.8207210">
        <ele>443.6</ele>
        <time>2022-06-08T06:26:56Z</time>
      </trkpt>
      <trkpt lat="47.9517350" lon="8.8207210">
        <ele>443.8</ele>
        <time>2022-06-08T06:27:00Z</time>
      </trkpt>
      <trkpt lat="47.9517350" lon="8.8207210">
        <ele>443.8</ele>
        <time>2022-06-08T06:27:04Z</time>
      </trkpt>
      <trkpt lat="47.9517350" lon="8.8207210">
        <ele>443.6</ele>
        <time>2022-06-08T06:27:08Z</time>
      </trkpt>
      <trkpt lat="47.9517350" lon="8.8207210">
        <ele>443.6</ele>
        <time>2022-06-08T06:27:12Z</time>
      </trkpt>
      <trkpt lat="47.9517350" lon="8.8207210">
        <ele>443.6</ele>
        <time>2022-06-08T06:27:16Z</time>
      </trkpt>
      <trkpt lat="47.9517350" lon="8.8207210">
        <ele>443.8</ele>
        <time>2022-06-08T06:27:20Z</time>
      </trkpt>
      <trkpt lat="47.9517350" lon="8.8207210">
        <ele>443.6</ele>
        <time>2022-06-08T06:27:24Z</time>
      </trkpt>
      <trkpt lat="47.9517350" lon="8.8207210">
        <ele>443.6</ele>
        <time>2022-06-08T06:27:28Z</time>
      </trkpt>
      <trkpt lat="47.9517350" lon="8.8207210">
        <ele>443.8</ele>
        <time>2022-06-08T06:27:32Z</time>
      </trkpt>
      <trkpt lat="47.9517350" lon="8.8207210">
        <ele>443.8</ele>
        <time>2022-06-08T06:27:36Z</time>
      </trkpt>
      <trkpt lat="47.9517350" lon="8.8207210">
        <ele>443.8</ele>
        <time>2022-06-08T06:27:40Z</time>
      </trkpt>
      <trkpt lat="47.9517350" lon="8.8207210">
        <ele>443.4</ele>
        <time>2022-06-08T06:27:44Z</time>
      </trkpt>
      <trkpt lat="47.9517350" lon="8.8207210">
        <ele>443.6</ele>
        <time>2022-06-08T06:27:48Z</time>
      </trkpt>
      <trkpt lat="47.9517350" lon="8.8207210">
        <ele>443.4</ele>
        <time>2022-06-08T06:27:52Z</time>
      </trkpt>
      <trkpt lat="47.9517350" lon="8.8207210">
        <ele>443.6</ele>
        <time>2022-06-08T06:27:56Z</time>
      </trkpt>
      <trkpt lat="47.9517350" lon="8.8207210">
        <ele>443.6</ele>
        <time>2022-06-08T06:28:00Z</time>
      </trkpt>
      <trkpt lat="47.9517350" lon="8.8207210">
        <ele>443.6</ele>
        <time>2022-06-08T06:28:04Z</time>
      </trkpt>
      <trkpt lat="47.9517350" lon="8.8207210">
        <ele>443.8</ele>
        <time>2022-06-08T06:28:08Z</time>
      </trkpt>
      <trkpt lat="47.9517350" lon="8.8207210">
        <ele>443.8</ele>
        <time>2022-06-08T06:28:12Z</time>
      </trkpt>
      <trkpt lat="47.9517350" lon="8.8207210">
        <ele>444.0</ele>
        <time>2022-06-08T06:28:16Z</time>
      </trkpt>
      <trkpt lat="47.9517350" lon="8.8207210">
        <ele>444.4</ele>
        <time>2022-06-08T06:28:20Z</time>
      </trkpt>
      <trkpt lat="47.9517350" lon="8.8207210">
        <ele>444.0</ele>
        <time>2022-06-08T06:28:24Z</time>
      </trkpt>
      <trkpt lat="47.9517350" lon="8.8207210">
        <ele>443.8</ele>
        <time>2022-06-08T06:28:28Z</time>
      </trkpt>
      <trkpt lat="47.9517350" lon="8.8207210">
        <ele>443.6</ele>
        <time>2022-06-08T06:28:32Z</time>
      </trkpt>
      <trkpt lat="47.9517350" lon="8.8207210">
        <ele>443.8</ele>
        <time>2022-06-08T06:28:36Z</time>
      </trkpt>
      <trkpt lat="47.9517350" lon="8.8207210">
        <ele>444.4</ele>
        <time>2022-06-08T06:28:40Z</time>
      </trkpt>
      <trkpt lat="47.9517350" lon="8.8207210">
        <ele>444.2</ele>
        <time>2022-06-08T06:28:44Z</time>
      </trkpt>
      <trkpt lat="47.9517350" lon="8.8207210">
        <ele>444.2</ele>
        <time>2022-06-08T06:28:48Z</time>
      </trkpt>
      <trkpt lat="47.9517350" lon="8.8207210">
        <ele>444.0</ele>
        <time>2022-06-08T06:28:52Z</time>
      </trkpt>
      <trkpt lat="47.9517350" lon="8.8207210">
        <ele>443.8</ele>
        <time>2022-06-08T06:28:56Z</time>
      </trkpt>
      <trkpt lat="47.9517350" lon="8.8207210">
        <ele>443.8</ele>
        <time>2022-06-08T06:29:00Z</time>
      </trkpt>
      <trkpt lat="47.9517350" lon="8.8207210">
        <ele>443.6</ele>
        <time>2022-06-08T06:29:04Z</time>
      </trkpt>
      <trkpt lat="47.9517350" lon="8.8207210">
        <ele>444.4</ele>
        <time>2022-06-08T06:29:08Z</time>
      </trkpt>
      <trkpt lat="47.9517350" lon="8.8207210">
        <ele>444.0</ele>
        <time>2022-06-08T06:29:12Z</time>
      </trkpt>
      <trkpt lat="47.9517350" lon="8.8207210">
        <ele>444.0</ele>
        <time>2022-06-08T06:29:16Z</time>
      </trkpt>
      <trkpt lat="47.9517350" lon="8.8207210">
        <ele>444.0</ele>
        <time>2022-06-08T06:29:20Z</time>
      </trkpt>
      <trkpt lat="47.9517350" lon="8.8207210">
        <ele>444.2</ele>
        <time>2022-06-08T06:29:24Z</time>
      </trkpt>
      <trkpt lat="47.9517350" lon="8.8207210">
        <ele>444.6</ele>
        <time>2022-06-08T06:29:28Z</time>
      </trkpt>
      <trkpt lat="47.9517350" lon="8.8207210">
        <ele>444.6</ele>
        <time>2022-06-08T06:29:32Z</time>
      </trkpt>
      <trkpt lat="47.9517350" lon="8.8207210">
        <ele>444.2</ele>
        <time>2022-06-08T06:29:36Z</time>
      </trkpt>
      <trkpt lat="47.9517350" lon="8.8207210">
        <ele>444.4</ele>
        <time>2022-06-08T06:29:40Z</time>
      </trkpt>
      <trkpt lat="47.9517350" lon="8.8207210">
        <ele>444.4</ele>
        <time>2022-06-08T06:29:44Z</time>
      </trkpt>
      <trkpt lat="47.9517350" lon="8.8207210">
        <ele>444.4</ele>
        <time>2022-06-08T06:29:48Z</time>
      </trkpt>
      <trkpt lat="47.9517350" lon="8.8207210">
        <ele>444.8</ele>
        <time>2022-06-08T06:29:52Z</time>
      </trkpt>
      <trkpt lat="47.9517350" lon="8.8207210">
        <ele>444.6</ele>
        <time>2022-06-08T06:29:56Z</time>
      </trkpt>
      <trkpt lat="47.9517350" lon="8.8207210">
        <ele>444.6</ele>
        <time>2022-06-08T06:30:00Z</time>
      </trkpt>
      <trkpt lat="47.9517350" lon="8.8207210">
        <ele>444.2</ele>
        <time>2022-06-08T06:30:04Z</time>
      </trkpt>
      <trkpt lat="47.9517350" lon="8.8207210">
        <ele>444.2</ele>
        <time>2022-06-08T06:30:08Z</time>
      </trkpt>
      <trkpt lat="47.9517460" lon="8.8207180">
        <ele>444.0</ele>
        <time>2022-06-08T06:30:12Z</time>
      </trkpt>
      <trkpt lat="47.9517460" lon="8.8207180">
        <ele>444.2</ele>
        <time>2022-06-08T06:30:16Z</time>
      </trkpt>
      <trkpt lat="47.9517330" lon="8.8206980">
        <ele>444.0</ele>
        <time>2022-06-08T06:30:20Z</time>
      </trkpt>
      <trkpt lat="47.9517330" lon="8.8206980">
        <ele>444.4</ele>
        <time>2022-06-08T06:30:24Z</time>
      </trkpt>
      <trkpt lat="47.9517330" lon="8.8206980">
        <ele>444.4</ele>
        <time>2022-06-08T06:30:28Z</time>
      </trkpt>
      <trkpt lat="47.9517330" lon="8.8206980">
        <ele>444.4</ele>
        <time>2022-06-08T06:30:32Z</time>
      </trkpt>
      <trkpt lat="47.9517330" lon="8.8206980">
        <ele>444.6</ele>
        <time>2022-06-08T06:30:36Z</time>
      </trkpt>
      <trkpt lat="47.9517330" lon="8.8206980">
        <ele>444.8</ele>
        <time>2022-06-08T06:30:40Z</time>
      </trkpt>
      <trkpt lat="47.9517330" lon="8.8206980">
        <ele>444.6</ele>
        <time>2022-06-08T06:30:44Z</time>
      </trkpt>
      <trkpt lat="47.9517330" lon="8.8206980">
        <ele>444.8</ele>
        <time>2022-06-08T06:30:48Z</time>
      </trkpt>
      <trkpt lat="47.9517330" lon="8.8206980">
        <ele>444.6</ele>
        <time>2022-06-08T06:30:52Z</time>
      </trkpt>
      <trkpt lat="47.9517330" lon="8.8206980">
        <ele>444.8</ele>
        <time>2022-06-08T06:30:56Z</time>
      </trkpt>
      <trkpt lat="47.9517330" lon="8.8206980">
        <ele>444.6</ele>
        <time>2022-06-08T06:31:00Z</time>
      </trkpt>
      <trkpt lat="47.9517330" lon="8.8206980">
        <ele>444.6</ele>
        <time>2022-06-08T06:31:04Z</time>
      </trkpt>
      <trkpt lat="47.9517330" lon="8.8206980">
        <ele>444.2</ele>
        <time>2022-06-08T06:31:08Z</time>
      </trkpt>
      <trkpt lat="47.9517330" lon="8.8206980">
        <ele>444.4</ele>
        <time>2022-06-08T06:31:12Z</time>
      </trkpt>
      <trkpt lat="47.9517330" lon="8.8206980">
        <ele>444.4</ele>
        <time>2022-06-08T06:31:16Z</time>
      </trkpt>
      <trkpt lat="47.9517330" lon="8.8206980">
        <ele>444.4</ele>
        <time>2022-06-08T06:31:20Z</time>
      </trkpt>
      <trkpt lat="47.9517330" lon="8.8206980">
        <ele>444.6</ele>
        <time>2022-06-08T06:31:24Z</time>
      </trkpt>
      <trkpt lat="47.9517330" lon="8.8206980">
        <ele>444.6</ele>
        <time>2022-06-08T06:31:28Z</time>
      </trkpt>
      <trkpt lat="47.9517330" lon="8.8206980">
        <ele>444.8</ele>
        <time>2022-06-08T06:31:32Z</time>
      </trkpt>
      <trkpt lat="47.9517330" lon="8.8206980">
        <ele>444.6</ele>
        <time>2022-06-08T06:31:36Z</time>
      </trkpt>
      <trkpt lat="47.9517330" lon="8.8206980">
        <ele>445.0</ele>
        <time>2022-06-08T06:31:40Z</time>
      </trkpt>
      <trkpt lat="47.9517330" lon="8.8206980">
        <ele>445.2</ele>
        <time>2022-06-08T06:31:44Z</time>
      </trkpt>
      <trkpt lat="47.9517330" lon="8.8206980">
        <ele>445.0</ele>
        <time>2022-06-08T06:31:48Z</time>
      </trkpt>
      <trkpt lat="47.9517260" lon="8.8206800">
        <ele>445.8</ele>
        <time>2022-06-08T06:31:52Z</time>
      </trkpt>
      <trkpt lat="47.9517460" lon="8.8207210">
        <ele>445.6</ele>
        <time>2022-06-08T06:31:56Z</time>
      </trkpt>
      <trkpt lat="47.9517130" lon="8.8207300">
        <ele>445.6</ele>
        <time>2022-06-08T06:32:00Z</time>
      </trkpt>
      <trkpt lat="47.9516680" lon="8.8207360">
        <ele>445.4</ele>
        <time>2022-06-08T06:32:04Z</time>
      </trkpt>
      <trkpt lat="47.9516330" lon="8.8207550">
        <ele>445.0</ele>
        <time>2022-06-08T06:32:08Z</time>
      </trkpt>
      <trkpt lat="47.9515980" lon="8.8207650">
        <ele>445.4</ele>
        <time>2022-06-08T06:32:12Z</time>
      </trkpt>
      <trkpt lat="47.9515980" lon="8.8207650">
        <ele>445.0</ele>
        <time>2022-06-08T06:32:16Z</time>
      </trkpt>
      <trkpt lat="47.9515860" lon="8.8207750">
        <ele>445.2</ele>
        <time>2022-06-08T06:32:20Z</time>
      </trkpt>
      <trkpt lat="47.9516160" lon="8.8208060">
        <ele>444.8</ele>
        <time>2022-06-08T06:32:24Z</time>
      </trkpt>
      <trkpt lat="47.9516600" lon="8.8207850">
        <ele>445.0</ele>
        <time>2022-06-08T06:32:28Z</time>
      </trkpt>
      <trkpt lat="47.9516960" lon="8.8207480">
        <ele>445.2</ele>
        <time>2022-06-08T06:32:32Z</time>
      </trkpt>
      <trkpt lat="47.9517230" lon="8.8207130">
        <ele>445.4</ele>
        <time>2022-06-08T06:32:36Z</time>
      </trkpt>
      <trkpt lat="47.9517230" lon="8.8207130">
        <ele>444.8</ele>
        <time>2022-06-08T06:32:40Z</time>
      </trkpt>
      <trkpt lat="47.9517230" lon="8.8207130">
        <ele>445.2</ele>
        <time>2022-06-08T06:32:44Z</time>
      </trkpt>
      <trkpt lat="47.9517230" lon="8.8207130">
        <ele>445.6</ele>
        <time>2022-06-08T06:32:48Z</time>
      </trkpt>
      <trkpt lat="47.9517230" lon="8.8207130">
        <ele>445.4</ele>
        <time>2022-06-08T06:32:52Z</time>
      </trkpt>
      <trkpt lat="47.9517230" lon="8.8207130">
        <ele>445.4</ele>
        <time>2022-06-08T06:32:56Z</time>
      </trkpt>
      <trkpt lat="47.9517230" lon="8.8207130">
        <ele>445.6</ele>
        <time>2022-06-08T06:33:00Z</time>
      </trkpt>
      <trkpt lat="47.9517230" lon="8.8207130">
        <ele>445.6</ele>
        <time>2022-06-08T06:33:04Z</time>
      </trkpt>
      <trkpt lat="47.9517230" lon="8.8207130">
        <ele>444.6</ele>
        <time>2022-06-08T06:33:08Z</time>
      </trkpt>
      <trkpt lat="47.9517230" lon="8.8207130">
        <ele>444.6</ele>
        <time>2022-06-08T06:33:12Z</time>
      </trkpt>
      <trkpt lat="47.9517230" lon="8.8207130">
        <ele>444.6</ele>
        <time>2022-06-08T06:33:16Z</time>
      </trkpt>
      <trkpt lat="47.9517230" lon="8.8207130">
        <ele>445.2</ele>
        <time>2022-06-08T06:33:20Z</time>
      </trkpt>
      <trkpt lat="47.9517230" lon="8.8207130">
        <ele>445.2</ele>
        <time>2022-06-08T06:33:24Z</time>
      </trkpt>
      <trkpt lat="47.9517230" lon="8.8207130">
        <ele>445.0</ele>
        <time>2022-06-08T06:33:28Z</time>
      </trkpt>
      <trkpt lat="47.9517230" lon="8.8207130">
        <ele>445.4</ele>
        <time>2022-06-08T06:33:32Z</time>
      </trkpt>
      <trkpt lat="47.9517230" lon="8.8207130">
        <ele>445.4</ele>
        <time>2022-06-08T06:33:36Z</time>
      </trkpt>
      <trkpt lat="47.9517230" lon="8.8207130">
        <ele>445.2</ele>
        <time>2022-06-08T06:33:40Z</time>
      </trkpt>
      <trkpt lat="47.9517230" lon="8.8207130">
        <ele>445.6</ele>
        <time>2022-06-08T06:33:44Z</time>
      </trkpt>
      <trkpt lat="47.9517230" lon="8.8207130">
        <ele>445.4</ele>
        <time>2022-06-08T06:33:48Z</time>
      </trkpt>
      <trkpt lat="47.9517230" lon="8.8207130">
        <ele>444.8</ele>
        <time>2022-06-08T06:33:52Z</time>
      </trkpt>
      <trkpt lat="47.9517230" lon="8.8207130">
        <ele>445.2</ele>
        <time>2022-06-08T06:33:56Z</time>
      </trkpt>
      <trkpt lat="47.9517230" lon="8.8207130">
        <ele>445.0</ele>
        <time>2022-06-08T06:34:00Z</time>
      </trkpt>
      <trkpt lat="47.9517230" lon="8.8207130">
        <ele>445.6</ele>
        <time>2022-06-08T06:34:04Z</time>
      </trkpt>
      <trkpt lat="47.9517230" lon="8.8207130">
        <ele>445.4</ele>
        <time>2022-06-08T06:34:08Z</time>
      </trkpt>
      <trkpt lat="47.9517230" lon="8.8207130">
        <ele>445.6</ele>
        <time>2022-06-08T06:34:12Z</time>
      </trkpt>
      <trkpt lat="47.9517210" lon="8.8206630">
        <ele>445.6</ele>
        <time>2022-06-08T06:34:16Z</time>
      </trkpt>
      <trkpt lat="47.9517210" lon="8.8206630">
        <ele>445.4</ele>
        <time>2022-06-08T06:34:20Z</time>
      </trkpt>
      <trkpt lat="47.9517210" lon="8.8206630">
        <ele>445.6</ele>
        <time>2022-06-08T06:34:24Z</time>
      </trkpt>
      <trkpt lat="47.9517210" lon="8.8206630">
        <ele>445.4</ele>
        <time>2022-06-08T06:34:28Z</time>
      </trkpt>
      <trkpt lat="47.9517210" lon="8.8206630">
        <ele>445.4</ele>
        <time>2022-06-08T06:34:32Z</time>
      </trkpt>
      <trkpt lat="47.9517210" lon="8.8206630">
        <ele>445.4</ele>
        <time>2022-06-08T06:34:36Z</time>
      </trkpt>
      <trkpt lat="47.9517210" lon="8.8206630">
        <ele>445.2</ele>
        <time>2022-06-08T06:34:40Z</time>
      </trkpt>
      <trkpt lat="47.9517210" lon="8.8206630">
        <ele>444.8</ele>
        <time>2022-06-08T06:34:44Z</time>
      </trkpt>
      <trkpt lat="47.9517210" lon="8.8206630">
        <ele>445.0</ele>
        <time>2022-06-08T06:34:48Z</time>
      </trkpt>
      <trkpt lat="47.9517210" lon="8.8206630">
        <ele>445.4</ele>
        <time>2022-06-08T06:34:52Z</time>
      </trkpt>
      <trkpt lat="47.9517210" lon="8.8206630">
        <ele>445.0</ele>
        <time>2022-06-08T06:34:56Z</time>
      </trkpt>
      <trkpt lat="47.9517210" lon="8.8206630">
        <ele>445.4</ele>
        <time>2022-06-08T06:35:00Z</time>
      </trkpt>
      <trkpt lat="47.9517210" lon="8.8206630">
        <ele>445.2</ele>
        <time>2022-06-08T06:35:04Z</time>
      </trkpt>
      <trkpt lat="47.9517210" lon="8.8206630">
        <ele>445.2</ele>
        <time>2022-06-08T06:35:08Z</time>
      </trkpt>
      <trkpt lat="47.9517210" lon="8.8206630">
        <ele>445.0</ele>
        <time>2022-06-08T06:35:12Z</time>
      </trkpt>
      <trkpt lat="47.9517210" lon="8.8206630">
        <ele>445.2</ele>
        <time>2022-06-08T06:35:16Z</time>
      </trkpt>
      <trkpt lat="47.9517210" lon="8.8206630">
        <ele>445.0</ele>
        <time>2022-06-08T06:35:20Z</time>
      </trkpt>
      <trkpt lat="47.9517210" lon="8.8206630">
        <ele>444.6</ele>
        <time>2022-06-08T06:35:24Z</time>
      </trkpt>
      <trkpt lat="47.9517210" lon="8.8206630">
        <ele>445.0</ele>
        <time>2022-06-08T06:35:28Z</time>
      </trkpt>
      <trkpt lat="47.9517210" lon="8.8206630">
        <ele>445.0</ele>
        <time>2022-06-08T06:35:32Z</time>
      </trkpt>
      <trkpt lat="47.9517210" lon="8.8206630">
        <ele>445.2</ele>
        <time>2022-06-08T06:35:36Z</time>
      </trkpt>
      <trkpt lat="47.9517210" lon="8.8206630">
        <ele>445.6</ele>
        <time>2022-06-08T06:35:40Z</time>
      </trkpt>
      <trkpt lat="47.9517210" lon="8.8206630">
        <ele>445.6</ele>
        <time>2022-06-08T06:35:44Z</time>
      </trkpt>
      <trkpt lat="47.9517210" lon="8.8206630">
        <ele>445.2</ele>
        <time>2022-06-08T06:35:48Z</time>
      </trkpt>
      <trkpt lat="47.9517210" lon="8.8206630">
        <ele>445.2</ele>
        <time>2022-06-08T06:35:52Z</time>
      </trkpt>
      <trkpt lat="47.9517210" lon="8.8206630">
        <ele>445.4</ele>
        <time>2022-06-08T06:35:56Z</time>
      </trkpt>
      <trkpt lat="47.9517210" lon="8.8206630">
        <ele>445.2</ele>
        <time>2022-06-08T06:36:00Z</time>
      </trkpt>
      <trkpt lat="47.9517210" lon="8.8206630">
        <ele>445.4</ele>
        <time>2022-06-08T06:36:04Z</time>
      </trkpt>
      <trkpt lat="47.9517210" lon="8.8206630">
        <ele>445.2</ele>
        <time>2022-06-08T06:36:08Z</time>
      </trkpt>
      <trkpt lat="47.9517210" lon="8.8206630">
        <ele>445.0</ele>
        <time>2022-06-08T06:36:12Z</time>
      </trkpt>
      <trkpt lat="47.9517210" lon="8.8206630">
        <ele>445.2</ele>
        <time>2022-06-08T06:36:16Z</time>
      </trkpt>
      <trkpt lat="47.9517210" lon="8.8206630">
        <ele>445.2</ele>
        <time>2022-06-08T06:36:20Z</time>
      </trkpt>
      <trkpt lat="47.9517210" lon="8.8206630">
        <ele>445.4</ele>
        <time>2022-06-08T06:36:24Z</time>
      </trkpt>
      <trkpt lat="47.9517210" lon="8.8206630">
        <ele>445.0</ele>
        <time>2022-06-08T06:36:28Z</time>
      </trkpt>
      <trkpt lat="47.9517210" lon="8.8206630">
        <ele>445.0</ele>
        <time>2022-06-08T06:36:32Z</time>
      </trkpt>
      <trkpt lat="47.9517210" lon="8.8206630">
        <ele>445.2</ele>
        <time>2022-06-08T06:36:36Z</time>
      </trkpt>
      <trkpt lat="47.9517210" lon="8.8206630">
        <ele>445.6</ele>
        <time>2022-06-08T06:36:40Z</time>
      </trkpt>
      <trkpt lat="47.9517210" lon="8.8206630">
        <ele>445.4</ele>
        <time>2022-06-08T06:36:44Z</time>
      </trkpt>
      <trkpt lat="47.9517210" lon="8.8206630">
        <ele>445.0</ele>
        <time>2022-06-08T06:36:48Z</time>
      </trkpt>
      <trkpt lat="47.9517210" lon="8.8206630">
        <ele>445.4</ele>
        <time>2022-06-08T06:36:52Z</time>
      </trkpt>
      <trkpt lat="47.9517210" lon="8.8206630">
        <ele>445.4</ele>
        <time>2022-06-08T06:36:56Z</time>
      </trkpt>
      <trkpt lat="47.9517210" lon="8.8206630">
        <ele>445.6</ele>
        <time>2022-06-08T06:37:00Z</time>
      </trkpt>
      <trkpt lat="47.9517210" lon="8.8206630">
        <ele>445.4</ele>
        <time>2022-06-08T06:37:04Z</time>
      </trkpt>
      <trkpt lat="47.9517210" lon="8.8206630">
        <ele>445.4</ele>
        <time>2022-06-08T06:37:08Z</time>
      </trkpt>
      <trkpt lat="47.9517210" lon="8.8206630">
        <ele>445.6</ele>
        <time>2022-06-08T06:37:12Z</time>
      </trkpt>
      <trkpt lat="47.9517210" lon="8.8206630">
        <ele>445.0</ele>
        <time>2022-06-08T06:37:16Z</time>
      </trkpt>
      <trkpt lat="47.9517210" lon="8.8206630">
        <ele>445.2</ele>
        <time>2022-06-08T06:37:20Z</time>
      </trkpt>
      <trkpt lat="47.9517210" lon="8.8206630">
        <ele>445.6</ele>
        <time>2022-06-08T06:37:24Z</time>
      </trkpt>
      <trkpt lat="47.9517210" lon="8.8206630">
        <ele>445.4</ele>
        <time>2022-06-08T06:37:28Z</time>
      </trkpt>
      <trkpt lat="47.9517210" lon="8.8206630">
        <ele>444.8</ele>
        <time>2022-06-08T06:37:32Z</time>
      </trkpt>
      <trkpt lat="47.9517210" lon="8.8206630">
        <ele>445.0</ele>
        <time>2022-06-08T06:37:36Z</time>
      </trkpt>
      <trkpt lat="47.9517210" lon="8.8206630">
        <ele>445.4</ele>
        <time>2022-06-08T06:37:40Z</time>
      </trkpt>
      <trkpt lat="47.9517210" lon="8.8206630">
        <ele>444.8</ele>
        <time>2022-06-08T06:37:44Z</time>
      </trkpt>
      <trkpt lat="47.9517210" lon="8.8206630">
        <ele>445.4</ele>
        <time>2022-06-08T06:37:48Z</time>
      </trkpt>
      <trkpt lat="47.9517210" lon="8.8206630">
        <ele>445.2</ele>
        <time>2022-06-08T06:37:52Z</time>
      </trkpt>
      <trkpt lat="47.9517210" lon="8.8206630">
        <ele>445.4</ele>
        <time>2022-06-08T06:37:56Z</time>
      </trkpt>
      <trkpt lat="47.9517210" lon="8.8206630">
        <ele>446.0</ele>
        <time>2022-06-08T06:38:00Z</time>
      </trkpt>
      <trkpt lat="47.9517210" lon="8.8206630">
        <ele>445.2</ele>
        <time>2022-06-08T06:38:04Z</time>
      </trkpt>
      <trkpt lat="47.9517210" lon="8.8206630">
        <ele>445.4</ele>
        <time>2022-06-08T06:38:08Z</time>
      </trkpt>
      <trkpt lat="47.9517210" lon="8.8206630">
        <ele>444.8</ele>
        <time>2022-06-08T06:38:12Z</time>
      </trkpt>
      <trkpt lat="47.9517210" lon="8.8206630">
        <ele>445.4</ele>
        <time>2022-06-08T06:38:16Z</time>
      </trkpt>
      <trkpt lat="47.9517210" lon="8.8206630">
        <ele>445.4</ele>
        <time>2022-06-08T06:38:20Z</time>
      </trkpt>
      <trkpt lat="47.9517210" lon="8.8206630">
        <ele>445.2</ele>
        <time>2022-06-08T06:38:24Z</time>
      </trkpt>
      <trkpt lat="47.9517210" lon="8.8206630">
        <ele>445.2</ele>
        <time>2022-06-08T06:38:28Z</time>
      </trkpt>
      <trkpt lat="47.9517210" lon="8.8206630">
        <ele>445.4</ele>
        <time>2022-06-08T06:38:32Z</time>
      </trkpt>
      <trkpt lat="47.9517210" lon="8.8206630">
        <ele>445.2</ele>
        <time>2022-06-08T06:38:36Z</time>
      </trkpt>
      <trkpt lat="47.9517210" lon="8.8206630">
        <ele>445.2</ele>
        <time>2022-06-08T06:38:40Z</time>
      </trkpt>
      <trkpt lat="47.9517210" lon="8.8206630">
        <ele>445.2</ele>
        <time>2022-06-08T06:38:44Z</time>
      </trkpt>
      <trkpt lat="47.9517810" lon="8.8206410">
        <ele>444.8</ele>
        <time>2022-06-08T06:38:48Z</time>
      </trkpt>
      <trkpt lat="47.9517650" lon="8.8206480">
        <ele>445.4</ele>
        <time>2022-06-08T06:38:52Z</time>
      </trkpt>
      <trkpt lat="47.9517650" lon="8.8206480">
        <ele>445.4</ele>
        <time>2022-06-08T06:38:56Z</time>
      </trkpt>
      <trkpt lat="47.9517650" lon="8.8206480">
        <ele>445.4</ele>
        <time>2022-06-08T06:39:00Z</time>
      </trkpt>
      <trkpt lat="47.9517650" lon="8.8206480">
        <ele>445.4</ele>
        <time>2022-06-08T06:39:04Z</time>
      </trkpt>
      <trkpt lat="47.9517650" lon="8.8206480">
        <ele>445.2</ele>
        <time>2022-06-08T06:39:08Z</time>
      </trkpt>
      <trkpt lat="47.9517650" lon="8.8206480">
        <ele>445.2</ele>
        <time>2022-06-08T06:39:12Z</time>
      </trkpt>
      <trkpt lat="47.9517650" lon="8.8206480">
        <ele>444.6</ele>
        <time>2022-06-08T06:39:16Z</time>
      </trkpt>
      <trkpt lat="47.9517250" lon="8.8206980">
        <ele>444.8</ele>
        <time>2022-06-08T06:39:20Z</time>
      </trkpt>
      <trkpt lat="47.9517250" lon="8.8206980">
        <ele>444.8</ele>
        <time>2022-06-08T06:39:24Z</time>
      </trkpt>
      <trkpt lat="47.9517250" lon="8.8206980">
        <ele>445.4</ele>
        <time>2022-06-08T06:39:28Z</time>
      </trkpt>
      <trkpt lat="47.9517250" lon="8.8206980">
        <ele>445.2</ele>
        <time>2022-06-08T06:39:32Z</time>
      </trkpt>
      <trkpt lat="47.9517250" lon="8.8206980">
        <ele>445.2</ele>
        <time>2022-06-08T06:39:36Z</time>
      </trkpt>
      <trkpt lat="47.9517250" lon="8.8206980">
        <ele>444.6</ele>
        <time>2022-06-08T06:39:40Z</time>
      </trkpt>
      <trkpt lat="47.9517250" lon="8.8206980">
        <ele>445.4</ele>
        <time>2022-06-08T06:39:44Z</time>
      </trkpt>
      <trkpt lat="47.9517250" lon="8.8206980">
        <ele>445.4</ele>
        <time>2022-06-08T06:39:48Z</time>
      </trkpt>
      <trkpt lat="47.9517250" lon="8.8206980">
        <ele>445.0</ele>
        <time>2022-06-08T06:39:52Z</time>
      </trkpt>
      <trkpt lat="47.9517250" lon="8.8206980">
        <ele>445.6</ele>
        <time>2022-06-08T06:39:56Z</time>
      </trkpt>
      <trkpt lat="47.9517250" lon="8.8206980">
        <ele>445.6</ele>
        <time>2022-06-08T06:40:00Z</time>
      </trkpt>
      <trkpt lat="47.9517250" lon="8.8206980">
        <ele>445.0</ele>
        <time>2022-06-08T06:40:04Z</time>
      </trkpt>
      <trkpt lat="47.9517250" lon="8.8206980">
        <ele>444.8</ele>
        <time>2022-06-08T06:40:08Z</time>
      </trkpt>
      <trkpt lat="47.9517250" lon="8.8206980">
        <ele>445.2</ele>
        <time>2022-06-08T06:40:12Z</time>
      </trkpt>
      <trkpt lat="47.9517250" lon="8.8206980">
        <ele>444.8</ele>
        <time>2022-06-08T06:40:16Z</time>
      </trkpt>
      <trkpt lat="47.9517250" lon="8.8206980">
        <ele>445.2</ele>
        <time>2022-06-08T06:40:20Z</time>
      </trkpt>
      <trkpt lat="47.9517250" lon="8.8206980">
        <ele>445.6</ele>
        <time>2022-06-08T06:40:24Z</time>
      </trkpt>
      <trkpt lat="47.9517250" lon="8.8206980">
        <ele>445.4</ele>
        <time>2022-06-08T06:40:28Z</time>
      </trkpt>
      <trkpt lat="47.9517250" lon="8.8206980">
        <ele>445.4</ele>
        <time>2022-06-08T06:40:32Z</time>
      </trkpt>
      <trkpt lat="47.9517250" lon="8.8206980">
        <ele>445.4</ele>
        <time>2022-06-08T06:40:36Z</time>
      </trkpt>
      <trkpt lat="47.9517250" lon="8.8206980">
        <ele>445.6</ele>
        <time>2022-06-08T06:40:40Z</time>
      </trkpt>
      <trkpt lat="47.9517250" lon="8.8206980">
        <ele>445.8</ele>
        <time>2022-06-08T06:40:44Z</time>
      </trkpt>
      <trkpt lat="47.9517250" lon="8.8206980">
        <ele>445.2</ele>
        <time>2022-06-08T06:40:48Z</time>
      </trkpt>
      <trkpt lat="47.9517250" lon="8.8206980">
        <ele>445.2</ele>
        <time>2022-06-08T06:40:52Z</time>
      </trkpt>
      <trkpt lat="47.9517150" lon="8.8207250">
        <ele>445.6</ele>
        <time>2022-06-08T06:40:56Z</time>
      </trkpt>
      <trkpt lat="47.9517080" lon="8.8207580">
        <ele>445.2</ele>
        <time>2022-06-08T06:41:00Z</time>
      </trkpt>
      <trkpt lat="47.9516400" lon="8.8207800">
        <ele>445.6</ele>
        <time>2022-06-08T06:41:04Z</time>
      </trkpt>
      <trkpt lat="47.9515300" lon="8.8208210">
        <ele>445.4</ele>
        <time>2022-06-08T06:41:08Z</time>
      </trkpt>
      <trkpt lat="47.9513730" lon="8.8208950">
        <ele>444.8</ele>
        <time>2022-06-08T06:41:12Z</time>
      </trkpt>
      <trkpt lat="47.9512010" lon="8.8209900">
        <ele>444.0</ele>
        <time>2022-06-08T06:41:16Z</time>
      </trkpt>
      <trkpt lat="47.9510200" lon="8.8210730">
        <ele>442.0</ele>
        <time>2022-06-08T06:41:20Z</time>
      </trkpt>
      <trkpt lat="47.9508100" lon="8.8211700">
        <ele>440.6</ele>
        <time>2022-06-08T06:41:24Z</time>
      </trkpt>
      <trkpt lat="47.9505480" lon="8.8213050">
        <ele>439.2</ele>
        <time>2022-06-08T06:41:28Z</time>
      </trkpt>
      <trkpt lat="47.9503450" lon="8.8214160">
        <ele>438.8</ele>
        <time>2022-06-08T06:41:32Z</time>
      </trkpt>
      <trkpt lat="47.9501500" lon="8.8215200">
        <ele>438.8</ele>
        <time>2022-06-08T06:41:36Z</time>
      </trkpt>
      <trkpt lat="47.9499980" lon="8.8215880">
        <ele>439.2</ele>
        <time>2022-06-08T06:41:40Z</time>
      </trkpt>
      <trkpt lat="47.9498280" lon="8.8216650">
        <ele>439.8</ele>
        <time>2022-06-08T06:41:44Z</time>
      </trkpt>
      <trkpt lat="47.9496600" lon="8.8217450">
        <ele>440.8</ele>
        <time>2022-06-08T06:41:48Z</time>
      </trkpt>
      <trkpt lat="47.9495150" lon="8.8218160">
        <ele>441.6</ele>
        <time>2022-06-08T06:41:52Z</time>
      </trkpt>
      <trkpt lat="47.9493810" lon="8.8218700">
        <ele>442.2</ele>
        <time>2022-06-08T06:41:56Z</time>
      </trkpt>
      <trkpt lat="47.9492200" lon="8.8219500">
        <ele>442.4</ele>
        <time>2022-06-08T06:42:00Z</time>
      </trkpt>
      <trkpt lat="47.9490830" lon="8.8220210">
        <ele>442.4</ele>
        <time>2022-06-08T06:42:04Z</time>
      </trkpt>
      <trkpt lat="47.9489630" lon="8.8220960">
        <ele>442.6</ele>
        <time>2022-06-08T06:42:08Z</time>
      </trkpt>
      <trkpt lat="47.9488300" lon="8.8221450">
        <ele>442.6</ele>
        <time>2022-06-08T06:42:12Z</time>
      </trkpt>
      <trkpt lat="47.9486950" lon="8.8222080">
        <ele>443.8</ele>
        <time>2022-06-08T06:42:16Z</time>
      </trkpt>
      <trkpt lat="47.9485500" lon="8.8222660">
        <ele>443.4</ele>
        <time>2022-06-08T06:42:20Z</time>
      </trkpt>
      <trkpt lat="47.9484010" lon="8.8223350">
        <ele>443.4</ele>
        <time>2022-06-08T06:42:24Z</time>
      </trkpt>
      <trkpt lat="47.9482600" lon="8.8224060">
        <ele>443.6</ele>
        <time>2022-06-08T06:42:28Z</time>
      </trkpt>
      <trkpt lat="47.9481200" lon="8.8224710">
        <ele>443.8</ele>
        <time>2022-06-08T06:42:32Z</time>
      </trkpt>
      <trkpt lat="47.9479750" lon="8.8225460">
        <ele>443.6</ele>
        <time>2022-06-08T06:42:36Z</time>
      </trkpt>
      <trkpt lat="47.9478230" lon="8.8226210">
        <ele>443.6</ele>
        <time>2022-06-08T06:42:40Z</time>
      </trkpt>
      <trkpt lat="47.9476630" lon="8.8227030">
        <ele>443.6</ele>
        <time>2022-06-08T06:42:44Z</time>
      </trkpt>
      <trkpt lat="47.9475060" lon="8.8227810">
        <ele>443.8</ele>
        <time>2022-06-08T06:42:48Z</time>
      </trkpt>
      <trkpt lat="47.9473430" lon="8.8228630">
        <ele>443.2</ele>
        <time>2022-06-08T06:42:52Z</time>
      </trkpt>
      <trkpt lat="47.9471760" lon="8.8229380">
        <ele>443.6</ele>
        <time>2022-06-08T06:42:56Z</time>
      </trkpt>
      <trkpt lat="47.9470150" lon="8.8230130">
        <ele>443.6</ele>
        <time>2022-06-08T06:43:00Z</time>
      </trkpt>
      <trkpt lat="47.9468550" lon="8.8230880">
        <ele>443.6</ele>
        <time>2022-06-08T06:43:04Z</time>
      </trkpt>
      <trkpt lat="47.9466950" lon="8.8231730">
        <ele>443.6</ele>
        <time>2022-06-08T06:43:08Z</time>
      </trkpt>
      <trkpt lat="47.9465310" lon="8.8232500">
        <ele>444.2</ele>
        <time>2022-06-08T06:43:12Z</time>
      </trkpt>
      <trkpt lat="47.9463700" lon="8.8233250">
        <ele>443.6</ele>
        <time>2022-06-08T06:43:16Z</time>
      </trkpt>
      <trkpt lat="47.9462080" lon="8.8234030">
        <ele>443.4</ele>
        <time>2022-06-08T06:43:20Z</time>
      </trkpt>
      <trkpt lat="47.9460610" lon="8.8234950">
        <ele>444.4</ele>
        <time>2022-06-08T06:43:24Z</time>
      </trkpt>
      <trkpt lat="47.9459060" lon="8.8235600">
        <ele>444.6</ele>
        <time>2022-06-08T06:43:28Z</time>
      </trkpt>
      <trkpt lat="47.9457560" lon="8.8236300">
        <ele>443.8</ele>
        <time>2022-06-08T06:43:32Z</time>
      </trkpt>
      <trkpt lat="47.9456050" lon="8.8236960">
        <ele>444.4</ele>
        <time>2022-06-08T06:43:36Z</time>
      </trkpt>
      <trkpt lat="47.9454450" lon="8.8237750">
        <ele>444.2</ele>
        <time>2022-06-08T06:43:40Z</time>
      </trkpt>
      <trkpt lat="47.9452880" lon="8.8238550">
        <ele>444.6</ele>
        <time>2022-06-08T06:43:44Z</time>
      </trkpt>
      <trkpt lat="47.9451210" lon="8.8239350">
        <ele>444.6</ele>
        <time>2022-06-08T06:43:48Z</time>
      </trkpt>
      <trkpt lat="47.9449600" lon="8.8240150">
        <ele>444.8</ele>
        <time>2022-06-08T06:43:52Z</time>
      </trkpt>
      <trkpt lat="47.9448000" lon="8.8240580">
        <ele>444.6</ele>
        <time>2022-06-08T06:43:56Z</time>
      </trkpt>
      <trkpt lat="47.9446510" lon="8.8240780">
        <ele>445.0</ele>
        <time>2022-06-08T06:44:00Z</time>
      </trkpt>
      <trkpt lat="47.9445200" lon="8.8240850">
        <ele>445.8</ele>
        <time>2022-06-08T06:44:04Z</time>
      </trkpt>
      <trkpt lat="47.9443880" lon="8.8240900">
        <ele>446.2</ele>
        <time>2022-06-08T06:44:08Z</time>
      </trkpt>
      <trkpt lat="47.9442600" lon="8.8240900">
        <ele>446.8</ele>
        <time>2022-06-08T06:44:12Z</time>
      </trkpt>
      <trkpt lat="47.9441360" lon="8.8240760">
        <ele>448.4</ele>
        <time>2022-06-08T06:44:16Z</time>
      </trkpt>
      <trkpt lat="47.9440180" lon="8.8240750">
        <ele>449.0</ele>
        <time>2022-06-08T06:44:20Z</time>
      </trkpt>
      <trkpt lat="47.9439030" lon="8.8240830">
        <ele>449.8</ele>
        <time>2022-06-08T06:44:24Z</time>
      </trkpt>
      <trkpt lat="47.9437950" lon="8.8240800">
        <ele>450.4</ele>
        <time>2022-06-08T06:44:28Z</time>
      </trkpt>
      <trkpt lat="47.9436860" lon="8.8240800">
        <ele>451.4</ele>
        <time>2022-06-08T06:44:32Z</time>
      </trkpt>
      <trkpt lat="47.9436100" lon="8.8241130">
        <ele>452.0</ele>
        <time>2022-06-08T06:44:36Z</time>
      </trkpt>
      <trkpt lat="47.9435160" lon="8.8240980">
        <ele>452.4</ele>
        <time>2022-06-08T06:44:40Z</time>
      </trkpt>
      <trkpt lat="47.9434110" lon="8.8240780">
        <ele>453.4</ele>
        <time>2022-06-08T06:44:44Z</time>
      </trkpt>
      <trkpt lat="47.9433100" lon="8.8240910">
        <ele>454.6</ele>
        <time>2022-06-08T06:44:48Z</time>
      </trkpt>
      <trkpt lat="47.9432080" lon="8.8240930">
        <ele>455.0</ele>
        <time>2022-06-08T06:44:52Z</time>
      </trkpt>
      <trkpt lat="47.9431210" lon="8.8241060">
        <ele>456.0</ele>
        <time>2022-06-08T06:44:56Z</time>
      </trkpt>
      <trkpt lat="47.9430630" lon="8.8241010">
        <ele>456.2</ele>
        <time>2022-06-08T06:45:00Z</time>
      </trkpt>
      <trkpt lat="47.9430630" lon="8.8241010">
        <ele>456.6</ele>
        <time>2022-06-08T06:45:04Z</time>
      </trkpt>
      <trkpt lat="47.9430630" lon="8.8241010">
        <ele>457.2</ele>
        <time>2022-06-08T06:45:08Z</time>
      </trkpt>
      <trkpt lat="47.9430630" lon="8.8241010">
        <ele>457.0</ele>
        <time>2022-06-08T06:45:12Z</time>
      </trkpt>
      <trkpt lat="47.9430630" lon="8.8241010">
        <ele>457.0</ele>
        <time>2022-06-08T06:45:16Z</time>
      </trkpt>
      <trkpt lat="47.9430630" lon="8.8241010">
        <ele>457.2</ele>
        <time>2022-06-08T06:45:20Z</time>
      </trkpt>
      <trkpt lat="47.9430630" lon="8.8241010">
        <ele>457.2</ele>
        <time>2022-06-08T06:45:24Z</time>
      </trkpt>
      <trkpt lat="47.9430630" lon="8.8241010">
        <ele>456.8</ele>
        <time>2022-06-08T06:45:28Z</time>
      </trkpt>
      <trkpt lat="47.9430630" lon="8.8241010">
        <ele>456.4</ele>
        <time>2022-06-08T06:45:32Z</time>
      </trkpt>
      <trkpt lat="47.9430630" lon="8.8241010">
        <ele>456.6</ele>
        <time>2022-06-08T06:45:36Z</time>
      </trkpt>
      <trkpt lat="47.9430630" lon="8.8241010">
        <ele>456.4</ele>
        <time>2022-06-08T06:45:40Z</time>
      </trkpt>
      <trkpt lat="47.9430630" lon="8.8241010">
        <ele>456.4</ele>
        <time>2022-06-08T06:45:44Z</time>
      </trkpt>
      <trkpt lat="47.9430630" lon="8.8241010">
        <ele>456.4</ele>
        <time>2022-06-08T06:45:48Z</time>
      </trkpt>
      <trkpt lat="47.9430630" lon="8.8241010">
        <ele>457.2</ele>
        <time>2022-06-08T06:45:52Z</time>
      </trkpt>
      <trkpt lat="47.9430630" lon="8.8241010">
        <ele>457.0</ele>
        <time>2022-06-08T06:45:56Z</time>
      </trkpt>
      <trkpt lat="47.9430630" lon="8.8241010">
        <ele>456.4</ele>
        <time>2022-06-08T06:46:00Z</time>
      </trkpt>
      <trkpt lat="47.9430630" lon="8.8241010">
        <ele>456.6</ele>
        <time>2022-06-08T06:46:04Z</time>
      </trkpt>
      <trkpt lat="47.9430630" lon="8.8241010">
        <ele>456.6</ele>
        <time>2022-06-08T06:46:08Z</time>
      </trkpt>
      <trkpt lat="47.9430630" lon="8.8241010">
        <ele>456.6</ele>
        <time>2022-06-08T06:46:12Z</time>
      </trkpt>
      <trkpt lat="47.9430630" lon="8.8241010">
        <ele>456.6</ele>
        <time>2022-06-08T06:46:16Z</time>
      </trkpt>
      <trkpt lat="47.9430630" lon="8.8241010">
        <ele>456.4</ele>
        <time>2022-06-08T06:46:20Z</time>
      </trkpt>
      <trkpt lat="47.9430630" lon="8.8241010">
        <ele>456.8</ele>
        <time>2022-06-08T06:46:24Z</time>
      </trkpt>
      <trkpt lat="47.9430630" lon="8.8241010">
        <ele>456.4</ele>
        <time>2022-06-08T06:46:28Z</time>
      </trkpt>
      <trkpt lat="47.9430630" lon="8.8241010">
        <ele>456.4</ele>
        <time>2022-06-08T06:46:32Z</time>
      </trkpt>
      <trkpt lat="47.9430630" lon="8.8241010">
        <ele>456.4</ele>
        <time>2022-06-08T06:46:36Z</time>
      </trkpt>
      <trkpt lat="47.9430630" lon="8.8241010">
        <ele>456.2</ele>
        <time>2022-06-08T06:46:40Z</time>
      </trkpt>
      <trkpt lat="47.9430630" lon="8.8241010">
        <ele>456.6</ele>
        <time>2022-06-08T06:46:44Z</time>
      </trkpt>
      <trkpt lat="47.9430630" lon="8.8241010">
        <ele>456.6</ele>
        <time>2022-06-08T06:46:48Z</time>
      </trkpt>
      <trkpt lat="47.9430630" lon="8.8241010">
        <ele>456.6</ele>
        <time>2022-06-08T06:46:52Z</time>
      </trkpt>
      <trkpt lat="47.9430630" lon="8.8241010">
        <ele>456.6</ele>
        <time>2022-06-08T06:46:56Z</time>
      </trkpt>
      <trkpt lat="47.9430630" lon="8.8241010">
        <ele>456.4</ele>
        <time>2022-06-08T06:47:00Z</time>
      </trkpt>
      <trkpt lat="47.9430630" lon="8.8241010">
        <ele>456.6</ele>
        <time>2022-06-08T06:47:04Z</time>
      </trkpt>
      <trkpt lat="47.9430630" lon="8.8241010">
        <ele>456.6</ele>
        <time>2022-06-08T06:47:08Z</time>
      </trkpt>
      <trkpt lat="47.9430630" lon="8.8241010">
        <ele>456.8</ele>
        <time>2022-06-08T06:47:12Z</time>
      </trkpt>
      <trkpt lat="47.9430630" lon="8.8241010">
        <ele>456.6</ele>
        <time>2022-06-08T06:47:16Z</time>
      </trkpt>
      <trkpt lat="47.9430630" lon="8.8241010">
        <ele>456.6</ele>
        <time>2022-06-08T06:47:20Z</time>
      </trkpt>
      <trkpt lat="47.9430630" lon="8.8241010">
        <ele>456.8</ele>
        <time>2022-06-08T06:47:24Z</time>
      </trkpt>
      <trkpt lat="47.9430330" lon="8.8241400">
        <ele>456.6</ele>
        <time>2022-06-08T06:47:28Z</time>
      </trkpt>
      <trkpt lat="47.9429760" lon="8.8241250">
        <ele>457.2</ele>
        <time>2022-06-08T06:47:32Z</time>
      </trkpt>
      <trkpt lat="47.9428960" lon="8.8241450">
        <ele>457.4</ele>
        <time>2022-06-08T06:47:36Z</time>
      </trkpt>
      <trkpt lat="47.9428060" lon="8.8241410">
        <ele>457.4</ele>
        <time>2022-06-08T06:47:40Z</time>
      </trkpt>
      <trkpt lat="47.9426850" lon="8.8241380">
        <ele>457.0</ele>
        <time>2022-06-08T06:47:44Z</time>
      </trkpt>
      <trkpt lat="47.9425280" lon="8.8241530">
        <ele>456.8</ele>
        <time>2022-06-08T06:47:48Z</time>
      </trkpt>
      <trkpt lat="47.9423450" lon="8.8241610">
        <ele>457.0</ele>
        <time>2022-06-08T06:47:52Z</time>
      </trkpt>
      <trkpt lat="47.9421400" lon="8.8241680">
        <ele>456.0</ele>
        <time>2022-06-08T06:47:56Z</time>
      </trkpt>
      <trkpt lat="47.9419230" lon="8.8241850">
        <ele>455.8</ele>
        <time>2022-06-08T06:48:00Z</time>
      </trkpt>
      <trkpt lat="47.9417200" lon="8.8241860">
        <ele>455.4</ele>
        <time>2022-06-08T06:48:04Z</time>
      </trkpt>
      <trkpt lat="47.9415260" lon="8.8241950">
        <ele>455.2</ele>
        <time>2022-06-08T06:48:08Z</time>
      </trkpt>
      <trkpt lat="47.9413410" lon="8.8241930">
        <ele>454.8</ele>
        <time>2022-06-08T06:48:12Z</time>
      </trkpt>
      <trkpt lat="47.9411730" lon="8.8242000">
        <ele>455.8</ele>
        <time>2022-06-08T06:48:16Z</time>
      </trkpt>
      <trkpt lat="47.9410200" lon="8.8242010">
        <ele>456.2</ele>
        <time>2022-06-08T06:48:20Z</time>
      </trkpt>
      <trkpt lat="47.9408680" lon="8.8241780">
        <ele>456.6</ele>
        <time>2022-06-08T06:48:24Z</time>
      </trkpt>
      <trkpt lat="47.9407080" lon="8.8241250">
        <ele>454.8</ele>
        <time>2022-06-08T06:48:28Z</time>
      </trkpt>
      <trkpt lat="47.9405360" lon="8.8240560">
        <ele>453.6</ele>
        <time>2022-06-08T06:48:32Z</time>
      </trkpt>
      <trkpt lat="47.9403880" lon="8.8239780">
        <ele>452.8</ele>
        <time>2022-06-08T06:48:36Z</time>
      </trkpt>
      <trkpt lat="47.9402060" lon="8.8238860">
        <ele>453.0</ele>
        <time>2022-06-08T06:48:40Z</time>
      </trkpt>
      <trkpt lat="47.9400030" lon="8.8238580">
        <ele>452.6</ele>
        <time>2022-06-08T06:48:44Z</time>
      </trkpt>
      <trkpt lat="47.9398010" lon="8.8239000">
        <ele>453.2</ele>
        <time>2022-06-08T06:48:48Z</time>
      </trkpt>
      <trkpt lat="47.9396030" lon="8.8239310">
        <ele>452.6</ele>
        <time>2022-06-08T06:48:52Z</time>
      </trkpt>
      <trkpt lat="47.9394230" lon="8.8239900">
        <ele>453.4</ele>
        <time>2022-06-08T06:48:56Z</time>
      </trkpt>
      <trkpt lat="47.9392830" lon="8.8240200">
        <ele>454.6</ele>
        <time>2022-06-08T06:49:00Z</time>
      </trkpt>
      <trkpt lat="47.9391700" lon="8.8240480">
        <ele>455.6</ele>
        <time>2022-06-08T06:49:04Z</time>
      </trkpt>
      <trkpt lat="47.9390560" lon="8.8240860">
        <ele>456.0</ele>
        <time>2022-06-08T06:49:08Z</time>
      </trkpt>
      <trkpt lat="47.9389250" lon="8.8241380">
        <ele>456.4</ele>
        <time>2022-06-08T06:49:12Z</time>
      </trkpt>
      <trkpt lat="47.9387850" lon="8.8241680">
        <ele>456.6</ele>
        <time>2022-06-08T06:49:16Z</time>
      </trkpt>
      <trkpt lat="47.9386550" lon="8.8242100">
        <ele>457.0</ele>
        <time>2022-06-08T06:49:20Z</time>
      </trkpt>
      <trkpt lat="47.9385330" lon="8.8242560">
        <ele>457.8</ele>
        <time>2022-06-08T06:49:24Z</time>
      </trkpt>
      <trkpt lat="47.9384080" lon="8.8243010">
        <ele>458.6</ele>
        <time>2022-06-08T06:49:28Z</time>
      </trkpt>
      <trkpt lat="47.9382610" lon="8.8243530">
        <ele>458.2</ele>
        <time>2022-06-08T06:49:32Z</time>
      </trkpt>
      <trkpt lat="47.9381280" lon="8.8244110">
        <ele>458.2</ele>
        <time>2022-06-08T06:49:36Z</time>
      </trkpt>
      <trkpt lat="47.9379960" lon="8.8244530">
        <ele>458.0</ele>
        <time>2022-06-08T06:49:40Z</time>
      </trkpt>
      <trkpt lat="47.9378580" lon="8.8245030">
        <ele>458.6</ele>
        <time>2022-06-08T06:49:44Z</time>
      </trkpt>
      <trkpt lat="47.9377180" lon="8.8245410">
        <ele>458.2</ele>
        <time>2022-06-08T06:49:48Z</time>
      </trkpt>
      <trkpt lat="47.9375750" lon="8.8245800">
        <ele>459.0</ele>
        <time>2022-06-08T06:49:52Z</time>
      </trkpt>
      <trkpt lat="47.9374300" lon="8.8246250">
        <ele>459.0</ele>
        <time>2022-06-08T06:49:56Z</time>
      </trkpt>
      <trkpt lat="47.9372910" lon="8.8246680">
        <ele>459.4</ele>
        <time>2022-06-08T06:50:00Z</time>
      </trkpt>
      <trkpt lat="47.9371560" lon="8.8246950">
        <ele>459.6</ele>
        <time>2022-06-08T06:50:04Z</time>
      </trkpt>
      <trkpt lat="47.9370150" lon="8.8247300">
        <ele>460.2</ele>
        <time>2022-06-08T06:50:08Z</time>
      </trkpt>
      <trkpt lat="47.9368750" lon="8.8247460">
        <ele>460.4</ele>
        <time>2022-06-08T06:50:12Z</time>
      </trkpt>
      <trkpt lat="47.9367350" lon="8.8247680">
        <ele>460.8</ele>
        <time>2022-06-08T06:50:16Z</time>
      </trkpt>
      <trkpt lat="47.9365880" lon="8.8247660">
        <ele>461.2</ele>
        <time>2022-06-08T06:50:20Z</time>
      </trkpt>
      <trkpt lat="47.9364510" lon="8.8247660">
        <ele>461.6</ele>
        <time>2022-06-08T06:50:24Z</time>
      </trkpt>
      <trkpt lat="47.9363130" lon="8.8247580">
        <ele>461.6</ele>
        <time>2022-06-08T06:50:28Z</time>
      </trkpt>
      <trkpt lat="47.9361630" lon="8.8247410">
        <ele>461.8</ele>
        <time>2022-06-08T06:50:32Z</time>
      </trkpt>
      <trkpt lat="47.9360230" lon="8.8247030">
        <ele>462.2</ele>
        <time>2022-06-08T06:50:36Z</time>
      </trkpt>
      <trkpt lat="47.9358900" lon="8.8246500">
        <ele>462.6</ele>
        <time>2022-06-08T06:50:40Z</time>
      </trkpt>
      <trkpt lat="47.9357480" lon="8.8245880">
        <ele>462.6</ele>
        <time>2022-06-08T06:50:44Z</time>
      </trkpt>
      <trkpt lat="47.9356150" lon="8.8245210">
        <ele>463.2</ele>
        <time>2022-06-08T06:50:48Z</time>
      </trkpt>
      <trkpt lat="47.9354860" lon="8.8244410">
        <ele>464.0</ele>
        <time>2022-06-08T06:50:52Z</time>
      </trkpt>
      <trkpt lat="47.9353630" lon="8.8243610">
        <ele>463.4</ele>
        <time>2022-06-08T06:50:56Z</time>
      </trkpt>
      <trkpt lat="47.9352450" lon="8.8242730">
        <ele>463.6</ele>
        <time>2022-06-08T06:51:00Z</time>
      </trkpt>
      <trkpt lat="47.9351480" lon="8.8241950">
        <ele>464.0</ele>
        <time>2022-06-08T06:51:04Z</time>
      </trkpt>
      <trkpt lat="47.9350580" lon="8.8241180">
        <ele>465.0</ele>
        <time>2022-06-08T06:51:08Z</time>
      </trkpt>
      <trkpt lat="47.9349710" lon="8.8240460">
        <ele>464.4</ele>
        <time>2022-06-08T06:51:12Z</time>
      </trkpt>
      <trkpt lat="47.9348950" lon="8.8240060">
        <ele>464.0</ele>
        <time>2022-06-08T06:51:16Z</time>
      </trkpt>
      <trkpt lat="47.9348950" lon="8.8240060">
        <ele>463.8</ele>
        <time>2022-06-08T06:51:20Z</time>
      </trkpt>
      <trkpt lat="47.9348950" lon="8.8240060">
        <ele>463.4</ele>
        <time>2022-06-08T06:51:24Z</time>
      </trkpt>
      <trkpt lat="47.9348950" lon="8.8240060">
        <ele>463.8</ele>
        <time>2022-06-08T06:51:28Z</time>
      </trkpt>
      <trkpt lat="47.9348950" lon="8.8240060">
        <ele>463.6</ele>
        <time>2022-06-08T06:51:32Z</time>
      </trkpt>
      <trkpt lat="47.9348950" lon="8.8240060">
        <ele>463.2</ele>
        <time>2022-06-08T06:51:36Z</time>
      </trkpt>
      <trkpt lat="47.9348950" lon="8.8240060">
        <ele>463.4</ele>
        <time>2022-06-08T06:51:40Z</time>
      </trkpt>
      <trkpt lat="47.9348950" lon="8.8240060">
        <ele>463.2</ele>
        <time>2022-06-08T06:51:44Z</time>
      </trkpt>
      <trkpt lat="47.9348950" lon="8.8240060">
        <ele>463.8</ele>
        <time>2022-06-08T06:51:48Z</time>
      </trkpt>
      <trkpt lat="47.9348950" lon="8.8240060">
        <ele>463.2</ele>
        <time>2022-06-08T06:51:52Z</time>
      </trkpt>
      <trkpt lat="47.9348950" lon="8.8240060">
        <ele>463.8</ele>
        <time>2022-06-08T06:51:56Z</time>
      </trkpt>
      <trkpt lat="47.9348950" lon="8.8240060">
        <ele>463.6</ele>
        <time>2022-06-08T06:52:00Z</time>
      </trkpt>
      <trkpt lat="47.9348950" lon="8.8240060">
        <ele>463.2</ele>
        <time>2022-06-08T06:52:04Z</time>
      </trkpt>
      <trkpt lat="47.9348950" lon="8.8240060">
        <ele>463.6</ele>
        <time>2022-06-08T06:52:08Z</time>
      </trkpt>
      <trkpt lat="47.9348950" lon="8.8240060">
        <ele>463.8</ele>
        <time>2022-06-08T06:52:12Z</time>
      </trkpt>
      <trkpt lat="47.9348950" lon="8.8240060">
        <ele>463.8</ele>
        <time>2022-06-08T06:52:16Z</time>
      </trkpt>
      <trkpt lat="47.9348950" lon="8.8240060">
        <ele>464.0</ele>
        <time>2022-06-08T06:52:20Z</time>
      </trkpt>
      <trkpt lat="47.9348950" lon="8.8240060">
        <ele>464.4</ele>
        <time>2022-06-08T06:52:24Z</time>
      </trkpt>
      <trkpt lat="47.9348950" lon="8.8240060">
        <ele>463.6</ele>
        <time>2022-06-08T06:52:28Z</time>
      </trkpt>
      <trkpt lat="47.9348950" lon="8.8240060">
        <ele>464.2</ele>
        <time>2022-06-08T06:52:32Z</time>
      </trkpt>
      <trkpt lat="47.9348950" lon="8.8240060">
        <ele>464.0</ele>
        <time>2022-06-08T06:52:36Z</time>
      </trkpt>
      <trkpt lat="47.9348950" lon="8.8240060">
        <ele>463.6</ele>
        <time>2022-06-08T06:52:40Z</time>
      </trkpt>
      <trkpt lat="47.9348950" lon="8.8240060">
        <ele>463.8</ele>
        <time>2022-06-08T06:52:44Z</time>
      </trkpt>
      <trkpt lat="47.9348950" lon="8.8240060">
        <ele>464.4</ele>
        <time>2022-06-08T06:52:48Z</time>
      </trkpt>
      <trkpt lat="47.9348950" lon="8.8240060">
        <ele>463.8</ele>
        <time>2022-06-08T06:52:52Z</time>
      </trkpt>
      <trkpt lat="47.9348950" lon="8.8240060">
        <ele>464.0</ele>
        <time>2022-06-08T06:52:56Z</time>
      </trkpt>
      <trkpt lat="47.9348950" lon="8.8240060">
        <ele>464.0</ele>
        <time>2022-06-08T06:53:00Z</time>
      </trkpt>
      <trkpt lat="47.9348950" lon="8.8240060">
        <ele>463.8</ele>
        <time>2022-06-08T06:53:04Z</time>
      </trkpt>
      <trkpt lat="47.9348950" lon="8.8240060">
        <ele>464.0</ele>
        <time>2022-06-08T06:53:08Z</time>
      </trkpt>
      <trkpt lat="47.9348950" lon="8.8240060">
        <ele>463.6</ele>
        <time>2022-06-08T06:53:12Z</time>
      </trkpt>
      <trkpt lat="47.9348950" lon="8.8240060">
        <ele>463.8</ele>
        <time>2022-06-08T06:53:16Z</time>
      </trkpt>
      <trkpt lat="47.9348950" lon="8.8240060">
        <ele>463.6</ele>
        <time>2022-06-08T06:53:20Z</time>
      </trkpt>
      <trkpt lat="47.9348950" lon="8.8240060">
        <ele>463.6</ele>
        <time>2022-06-08T06:53:24Z</time>
      </trkpt>
      <trkpt lat="47.9348950" lon="8.8240060">
        <ele>463.8</ele>
        <time>2022-06-08T06:53:28Z</time>
      </trkpt>
      <trkpt lat="47.9348950" lon="8.8240060">
        <ele>464.0</ele>
        <time>2022-06-08T06:53:32Z</time>
      </trkpt>
      <trkpt lat="47.9348950" lon="8.8240060">
        <ele>464.2</ele>
        <time>2022-06-08T06:53:36Z</time>
      </trkpt>
      <trkpt lat="47.9348950" lon="8.8240060">
        <ele>463.8</ele>
        <time>2022-06-08T06:53:40Z</time>
      </trkpt>
      <trkpt lat="47.9348950" lon="8.8240060">
        <ele>464.2</ele>
        <time>2022-06-08T06:53:44Z</time>
      </trkpt>
      <trkpt lat="47.9348950" lon="8.8240060">
        <ele>464.4</ele>
        <time>2022-06-08T06:53:48Z</time>
      </trkpt>
      <trkpt lat="47.9348950" lon="8.8240060">
        <ele>464.0</ele>
        <time>2022-06-08T06:53:52Z</time>
      </trkpt>
      <trkpt lat="47.9348950" lon="8.8240060">
        <ele>464.0</ele>
        <time>2022-06-08T06:53:56Z</time>
      </trkpt>
      <trkpt lat="47.9348950" lon="8.8240060">
        <ele>463.8</ele>
        <time>2022-06-08T06:54:00Z</time>
      </trkpt>
      <trkpt lat="47.9348950" lon="8.8240060">
        <ele>463.4</ele>
        <time>2022-06-08T06:54:04Z</time>
      </trkpt>
      <trkpt lat="47.9348950" lon="8.8240060">
        <ele>463.4</ele>
        <time>2022-06-08T06:54:08Z</time>
      </trkpt>
      <trkpt lat="47.9348950" lon="8.8240060">
        <ele>463.4</ele>
        <time>2022-06-08T06:54:12Z</time>
      </trkpt>
      <trkpt lat="47.9348950" lon="8.8240060">
        <ele>463.8</ele>
        <time>2022-06-08T06:54:16Z</time>
      </trkpt>
      <trkpt lat="47.9348950" lon="8.8240060">
        <ele>463.6</ele>
        <time>2022-06-08T06:54:20Z</time>
      </trkpt>
      <trkpt lat="47.9348950" lon="8.8240060">
        <ele>463.6</ele>
        <time>2022-06-08T06:54:24Z</time>
      </trkpt>
      <trkpt lat="47.9348950" lon="8.8240060">
        <ele>463.6</ele>
        <time>2022-06-08T06:54:28Z</time>
      </trkpt>
      <trkpt lat="47.9348950" lon="8.8240060">
        <ele>463.6</ele>
        <time>2022-06-08T06:54:32Z</time>
      </trkpt>
      <trkpt lat="47.9348950" lon="8.8240060">
        <ele>463.8</ele>
        <time>2022-06-08T06:54:36Z</time>
      </trkpt>
      <trkpt lat="47.9348950" lon="8.8240060">
        <ele>463.6</ele>
        <time>2022-06-08T06:54:40Z</time>
      </trkpt>
      <trkpt lat="47.9348950" lon="8.8240060">
        <ele>464.0</ele>
        <time>2022-06-08T06:54:44Z</time>
      </trkpt>
      <trkpt lat="47.9348950" lon="8.8240060">
        <ele>463.6</ele>
        <time>2022-06-08T06:54:48Z</time>
      </trkpt>
      <trkpt lat="47.9348950" lon="8.8240060">
        <ele>464.0</ele>
        <time>2022-06-08T06:54:52Z</time>
      </trkpt>
      <trkpt lat="47.9348950" lon="8.8240060">
        <ele>464.2</ele>
        <time>2022-06-08T06:54:56Z</time>
      </trkpt>
      <trkpt lat="47.9348950" lon="8.8240060">
        <ele>464.2</ele>
        <time>2022-06-08T06:55:00Z</time>
      </trkpt>
      <trkpt lat="47.9348950" lon="8.8240060">
        <ele>464.4</ele>
        <time>2022-06-08T06:55:04Z</time>
      </trkpt>
      <trkpt lat="47.9348950" lon="8.8240060">
        <ele>464.4</ele>
        <time>2022-06-08T06:55:08Z</time>
      </trkpt>
      <trkpt lat="47.9348950" lon="8.8240060">
        <ele>463.8</ele>
        <time>2022-06-08T06:55:12Z</time>
      </trkpt>
      <trkpt lat="47.9348950" lon="8.8240060">
        <ele>464.0</ele>
        <time>2022-06-08T06:55:16Z</time>
      </trkpt>
      <trkpt lat="47.9348950" lon="8.8240060">
        <ele>464.0</ele>
        <time>2022-06-08T06:55:20Z</time>
      </trkpt>
      <trkpt lat="47.9348950" lon="8.8240060">
        <ele>464.2</ele>
        <time>2022-06-08T06:55:24Z</time>
      </trkpt>
      <trkpt lat="47.9348950" lon="8.8240060">
        <ele>464.0</ele>
        <time>2022-06-08T06:55:28Z</time>
      </trkpt>
      <trkpt lat="47.9348950" lon="8.8240060">
        <ele>464.0</ele>
        <time>2022-06-08T06:55:32Z</time>
      </trkpt>
      <trkpt lat="47.9348950" lon="8.8240060">
        <ele>464.4</ele>
        <time>2022-06-08T06:55:36Z</time>
      </trkpt>
      <trkpt lat="47.9348950" lon="8.8240060">
        <ele>463.8</ele>
        <time>2022-06-08T06:55:40Z</time>
      </trkpt>
      <trkpt lat="47.9348950" lon="8.8240060">
        <ele>464.0</ele>
        <time>2022-06-08T06:55:44Z</time>
      </trkpt>
      <trkpt lat="47.9348950" lon="8.8240060">
        <ele>464.0</ele>
        <time>2022-06-08T06:55:48Z</time>
      </trkpt>
      <trkpt lat="47.9348950" lon="8.8240060">
        <ele>463.6</ele>
        <time>2022-06-08T06:55:52Z</time>
      </trkpt>
      <trkpt lat="47.9348950" lon="8.8240060">
        <ele>464.2</ele>
        <time>2022-06-08T06:55:56Z</time>
      </trkpt>
      <trkpt lat="47.9348950" lon="8.8240060">
        <ele>464.2</ele>
        <time>2022-06-08T06:56:00Z</time>
      </trkpt>
      <trkpt lat="47.9348950" lon="8.8240060">
        <ele>463.8</ele>
        <time>2022-06-08T06:56:04Z</time>
      </trkpt>
      <trkpt lat="47.9348950" lon="8.8240060">
        <ele>463.6</ele>
        <time>2022-06-08T06:56:08Z</time>
      </trkpt>
      <trkpt lat="47.9348950" lon="8.8240060">
        <ele>464.0</ele>
        <time>2022-06-08T06:56:12Z</time>
      </trkpt>
      <trkpt lat="47.9348950" lon="8.8240060">
        <ele>464.2</ele>
        <time>2022-06-08T06:56:16Z</time>
      </trkpt>
      <trkpt lat="47.9348950" lon="8.8240060">
        <ele>463.6</ele>
        <time>2022-06-08T06:56:20Z</time>
      </trkpt>
      <trkpt lat="47.9348950" lon="8.8240060">
        <ele>464.0</ele>
        <time>2022-06-08T06:56:24Z</time>
      </trkpt>
      <trkpt lat="47.9348950" lon="8.8240060">
        <ele>464.4</ele>
        <time>2022-06-08T06:56:28Z</time>
      </trkpt>
      <trkpt lat="47.9348950" lon="8.8240060">
        <ele>464.4</ele>
        <time>2022-06-08T06:56:32Z</time>
      </trkpt>
      <trkpt lat="47.9348950" lon="8.8240060">
        <ele>464.0</ele>
        <time>2022-06-08T06:56:36Z</time>
      </trkpt>
      <trkpt lat="47.9348950" lon="8.8240060">
        <ele>463.8</ele>
        <time>2022-06-08T06:56:40Z</time>
      </trkpt>
      <trkpt lat="47.9348950" lon="8.8240060">
        <ele>464.2</ele>
        <time>2022-06-08T06:56:44Z</time>
      </trkpt>
      <trkpt lat="47.9348950" lon="8.8240060">
        <ele>463.8</ele>
        <time>2022-06-08T06:56:48Z</time>
      </trkpt>
      <trkpt lat="47.9348950" lon="8.8240060">
        <ele>463.6</ele>
        <time>2022-06-08T06:56:52Z</time>
      </trkpt>
      <trkpt lat="47.9348950" lon="8.8240060">
        <ele>463.6</ele>
        <time>2022-06-08T06:56:56Z</time>
      </trkpt>
      <trkpt lat="47.9348510" lon="8.8239700">
        <ele>464.0</ele>
        <time>2022-06-08T06:57:00Z</time>
      </trkpt>
      <trkpt lat="47.9348510" lon="8.8239700">
        <ele>464.2</ele>
        <time>2022-06-08T06:57:04Z</time>
      </trkpt>
      <trkpt lat="47.9348510" lon="8.8239700">
        <ele>464.4</ele>
        <time>2022-06-08T06:57:08Z</time>
      </trkpt>
      <trkpt lat="47.9348400" lon="8.8239480">
        <ele>464.0</ele>
        <time>2022-06-08T06:57:12Z</time>
      </trkpt>
      <trkpt lat="47.9347930" lon="8.8238410">
        <ele>463.6</ele>
        <time>2022-06-08T06:57:16Z</time>
      </trkpt>
      <trkpt lat="47.9346850" lon="8.8236850">
        <ele>463.2</ele>
        <time>2022-06-08T06:57:20Z</time>
      </trkpt>
      <trkpt lat="47.9345410" lon="8.8235110">
        <ele>462.2</ele>
        <time>2022-06-08T06:57:24Z</time>
      </trkpt>
      <trkpt lat="47.9343710" lon="8.8233030">
        <ele>460.2</ele>
        <time>2022-06-08T06:57:28Z</time>
      </trkpt>
      <trkpt lat="47.9341960" lon="8.8230630">
        <ele>459.8</ele>
        <time>2022-06-08T06:57:32Z</time>
      </trkpt>
      <trkpt lat="47.9340110" lon="8.8228330">
        <ele>456.6</ele>
        <time>2022-06-08T06:57:36Z</time>
      </trkpt>
      <trkpt lat="47.9337460" lon="8.8226350">
        <ele>453.0</ele>
        <time>2022-06-08T06:57:40Z</time>
      </trkpt>
      <trkpt lat="47.9334610" lon="8.8225210">
        <ele>451.0</ele>
        <time>2022-06-08T06:57:44Z</time>
      </trkpt>
      <trkpt lat="47.9332700" lon="8.8226480">
        <ele>451.6</ele>
        <time>2022-06-08T06:57:48Z</time>
      </trkpt>
      <trkpt lat="47.9332460" lon="8.8229760">
        <ele>450.2</ele>
        <time>2022-06-08T06:57:52Z</time>
      </trkpt>
      <trkpt lat="47.9332850" lon="8.8233110">
        <ele>450.2</ele>
        <time>2022-06-08T06:57:56Z</time>
      </trkpt>
      <trkpt lat="47.9333150" lon="8.8236560">
        <ele>449.0</ele>
        <time>2022-06-08T06:58:00Z</time>
      </trkpt>
      <trkpt lat="47.9333300" lon="8.8240150">
        <ele>448.0</ele>
        <time>2022-06-08T06:58:04Z</time>
      </trkpt>
      <trkpt lat="47.9333450" lon="8.8243900">
        <ele>446.8</ele>
        <time>2022-06-08T06:58:08Z</time>
      </trkpt>
      <trkpt lat="47.9333660" lon="8.8247900">
        <ele>446.2</ele>
        <time>2022-06-08T06:58:12Z</time>
      </trkpt>
      <trkpt lat="47.9333610" lon="8.8252410">
        <ele>443.6</ele>
        <time>2022-06-08T06:58:16Z</time>
      </trkpt>
      <trkpt lat="47.9333250" lon="8.8257000">
        <ele>444.0</ele>
        <time>2022-06-08T06:58:20Z</time>
      </trkpt>
      <trkpt lat="47.9332600" lon="8.8261480">
        <ele>441.4</ele>
        <time>2022-06-08T06:58:24Z</time>
      </trkpt>
      <trkpt lat="47.9331810" lon="8.8266150">
        <ele>439.8</ele>
        <time>2022-06-08T06:58:28Z</time>
      </trkpt>
      <trkpt lat="47.9331010" lon="8.8271050">
        <ele>438.2</ele>
        <time>2022-06-08T06:58:32Z</time>
      </trkpt>
      <trkpt lat="47.9330280" lon="8.8275610">
        <ele>437.2</ele>
        <time>2022-06-08T06:58:36Z</time>
      </trkpt>
      <trkpt lat="47.9329910" lon="8.8279580">
        <ele>435.2</ele>
        <time>2022-06-08T06:58:40Z</time>
      </trkpt>
      <trkpt lat="47.9328960" lon="8.8282030">
        <ele>432.6</ele>
        <time>2022-06-08T06:58:44Z</time>
      </trkpt>
      <trkpt lat="47.9326430" lon="8.8282350">
        <ele>430.0</ele>
        <time>2022-06-08T06:58:48Z</time>
      </trkpt>
      <trkpt lat="47.9323530" lon="8.8282630">
        <ele>427.8</ele>
        <time>2022-06-08T06:58:52Z</time>
      </trkpt>
      <trkpt lat="47.9320450" lon="8.8283030">
        <ele>422.4</ele>
        <time>2022-06-08T06:58:56Z</time>
      </trkpt>
      <trkpt lat="47.9317400" lon="8.8283430">
        <ele>418.2</ele>
        <time>2022-06-08T06:59:00Z</time>
      </trkpt>
      <trkpt lat="47.9314800" lon="8.8285460">
        <ele>416.6</ele>
        <time>2022-06-08T06:59:04Z</time>
      </trkpt>
      <trkpt lat="47.9312930" lon="8.8289710">
        <ele>412.2</ele>
        <time>2022-06-08T06:59:08Z</time>
      </trkpt>
      <trkpt lat="47.9310700" lon="8.8292530">
        <ele>408.8</ele>
        <time>2022-06-08T06:59:12Z</time>
      </trkpt>
      <trkpt lat="47.9307400" lon="8.8292450">
        <ele>405.4</ele>
        <time>2022-06-08T06:59:16Z</time>
      </trkpt>
      <trkpt lat="47.9303710" lon="8.8291930">
        <ele>401.2</ele>
        <time>2022-06-08T06:59:20Z</time>
      </trkpt>
      <trkpt lat="47.9300160" lon="8.8291450">
        <ele>399.4</ele>
        <time>2022-06-08T06:59:24Z</time>
      </trkpt>
      <trkpt lat="47.9296860" lon="8.8290210">
        <ele>397.4</ele>
        <time>2022-06-08T06:59:28Z</time>
      </trkpt>
      <trkpt lat="47.9293860" lon="8.8287210">
        <ele>394.0</ele>
        <time>2022-06-08T06:59:32Z</time>
      </trkpt>
      <trkpt lat="47.9291280" lon="8.8283310">
        <ele>391.6</ele>
        <time>2022-06-08T06:59:36Z</time>
      </trkpt>
      <trkpt lat="47.9288760" lon="8.8280380">
        <ele>392.0</ele>
        <time>2022-06-08T06:59:40Z</time>
      </trkpt>
      <trkpt lat="47.9286280" lon="8.8278360">
        <ele>394.6</ele>
        <time>2022-06-08T06:59:44Z</time>
      </trkpt>
      <trkpt lat="47.9283850" lon="8.8277530">
        <ele>395.6</ele>
        <time>2022-06-08T06:59:48Z</time>
      </trkpt>
      <trkpt lat="47.9281700" lon="8.8277600">
        <ele>395.6</ele>
        <time>2022-06-08T06:59:52Z</time>
      </trkpt>
      <trkpt lat="47.9279800" lon="8.8277750">
        <ele>396.8</ele>
        <time>2022-06-08T06:59:56Z</time>
      </trkpt>
      <trkpt lat="47.9278100" lon="8.8278500">
        <ele>396.8</ele>
        <time>2022-06-08T07:00:00Z</time>
      </trkpt>
      <trkpt lat="47.9276530" lon="8.8279650">
        <ele>396.4</ele>
        <time>2022-06-08T07:00:04Z</time>
      </trkpt>
      <trkpt lat="47.9275050" lon="8.8280910">
        <ele>396.4</ele>
        <time>2022-06-08T07:00:08Z</time>
      </trkpt>
      <trkpt lat="47.9273650" lon="8.8282280">
        <ele>397.0</ele>
        <time>2022-06-08T07:00:12Z</time>
      </trkpt>
      <trkpt lat="47.9272260" lon="8.8283550">
        <ele>397.2</ele>
        <time>2022-06-08T07:00:16Z</time>
      </trkpt>
      <trkpt lat="47.9271030" lon="8.8284850">
        <ele>397.4</ele>
        <time>2022-06-08T07:00:20Z</time>
      </trkpt>
      <trkpt lat="47.9269910" lon="8.8286310">
        <ele>397.6</ele>
        <time>2022-06-08T07:00:24Z</time>
      </trkpt>
      <trkpt lat="47.9268880" lon="8.8288080">
        <ele>398.0</ele>
        <time>2022-06-08T07:00:28Z</time>
      </trkpt>
      <trkpt lat="47.9268100" lon="8.8289980">
        <ele>397.8</ele>
        <time>2022-06-08T07:00:32Z</time>
      </trkpt>
      <trkpt lat="47.9267460" lon="8.8291980">
        <ele>398.6</ele>
        <time>2022-06-08T07:00:36Z</time>
      </trkpt>
      <trkpt lat="47.9267000" lon="8.8294000">
        <ele>399.2</ele>
        <time>2022-06-08T07:00:40Z</time>
      </trkpt>
      <trkpt lat="47.9266630" lon="8.8296080">
        <ele>399.2</ele>
        <time>2022-06-08T07:00:44Z</time>
      </trkpt>
      <trkpt lat="47.9266410" lon="8.8298150">
        <ele>399.6</ele>
        <time>2022-06-08T07:00:48Z</time>
      </trkpt>
      <trkpt lat="47.9266310" lon="8.8300280">
        <ele>399.2</ele>
        <time>2022-06-08T07:00:52Z</time>
      </trkpt>
      <trkpt lat="47.9266280" lon="8.8302850">
        <ele>398.6</ele>
        <time>2022-06-08T07:00:56Z</time>
      </trkpt>
      <trkpt lat="47.9266180" lon="8.8306000">
        <ele>398.2</ele>
        <time>2022-06-08T07:01:00Z</time>
      </trkpt>
      <trkpt lat="47.9266080" lon="8.8309280">
        <ele>397.6</ele>
        <time>2022-06-08T07:01:04Z</time>
      </trkpt>
      <trkpt lat="47.9265860" lon="8.8312580">
        <ele>397.4</ele>
        <time>2022-06-08T07:01:08Z</time>
      </trkpt>
      <trkpt lat="47.9265280" lon="8.8315780">
        <ele>397.6</ele>
        <time>2022-06-08T07:01:12Z</time>
      </trkpt>
      <trkpt lat="47.9264510" lon="8.8319050">
        <ele>397.0</ele>
        <time>2022-06-08T07:01:16Z</time>
      </trkpt>
      <trkpt lat="47.9263600" lon="8.8322280">
        <ele>396.8</ele>
        <time>2022-06-08T07:01:20Z</time>
      </trkpt>
      <trkpt lat="47.9262760" lon="8.8325610">
        <ele>396.0</ele>
        <time>2022-06-08T07:01:24Z</time>
      </trkpt>
      <trkpt lat="47.9261810" lon="8.8328900">
        <ele>396.2</ele>
        <time>2022-06-08T07:01:28Z</time>
      </trkpt>
      <trkpt lat="47.9260950" lon="8.8332260">
        <ele>395.4</ele>
        <time>2022-06-08T07:01:32Z</time>
      </trkpt>
      <trkpt lat="47.9260100" lon="8.8335430">
        <ele>395.8</ele>
        <time>2022-06-08T07:01:36Z</time>
      </trkpt>
      <trkpt lat="47.9259410" lon="8.8338600">
        <ele>395.6</ele>
        <time>2022-06-08T07:01:40Z</time>
      </trkpt>
      <trkpt lat="47.9258750" lon="8.8341860">
        <ele>395.4</ele>
        <time>2022-06-08T07:01:44Z</time>
      </trkpt>
      <trkpt lat="47.9258130" lon="8.8345200">
        <ele>395.4</ele>
        <time>2022-06-08T07:01:48Z</time>
      </trkpt>
      <trkpt lat="47.9257550" lon="8.8348600">
        <ele>395.2</ele>
        <time>2022-06-08T07:01:52Z</time>
      </trkpt>
      <trkpt lat="47.9256910" lon="8.8351980">
        <ele>394.0</ele>
        <time>2022-06-08T07:01:56Z</time>
      </trkpt>
      <trkpt lat="47.9256380" lon="8.8355350">
        <ele>394.0</ele>
        <time>2022-06-08T07:02:00Z</time>
      </trkpt>
      <trkpt lat="47.9255860" lon="8.8358660">
        <ele>394.2</ele>
        <time>2022-06-08T07:02:04Z</time>
      </trkpt>
      <trkpt lat="47.9255180" lon="8.8361860">
        <ele>393.2</ele>
        <time>2022-06-08T07:02:08Z</time>
      </trkpt>
      <trkpt lat="47.9254310" lon="8.8364910">
        <ele>393.6</ele>
        <time>2022-06-08T07:02:12Z</time>
      </trkpt>
      <trkpt lat="47.9253210" lon="8.8367600">
        <ele>394.2</ele>
        <time>2022-06-08T07:02:16Z</time>
      </trkpt>
      <trkpt lat="47.9251980" lon="8.8369960">
        <ele>394.2</ele>
        <time>2022-06-08T07:02:20Z</time>
      </trkpt>
      <trkpt lat="47.9250710" lon="8.8372180">
        <ele>395.0</ele>
        <time>2022-06-08T07:02:24Z</time>
      </trkpt>
      <trkpt lat="47.9249610" lon="8.8374060">
        <ele>396.0</ele>
        <time>2022-06-08T07:02:28Z</time>
      </trkpt>
      <trkpt lat="47.9248510" lon="8.8375560">
        <ele>395.8</ele>
        <time>2022-06-08T07:02:32Z</time>
      </trkpt>
      <trkpt lat="47.9247400" lon="8.8377000">
        <ele>396.0</ele>
        <time>2022-06-08T07:02:36Z</time>
      </trkpt>
      <trkpt lat="47.9246260" lon="8.8378510">
        <ele>396.6</ele>
        <time>2022-06-08T07:02:40Z</time>
      </trkpt>
      <trkpt lat="47.9245050" lon="8.8380200">
        <ele>395.4</ele>
        <time>2022-06-08T07:02:44Z</time>
      </trkpt>
      <trkpt lat="47.9243680" lon="8.8382030">
        <ele>395.8</ele>
        <time>2022-06-08T07:02:48Z</time>
      </trkpt>
      <trkpt lat="47.9242200" lon="8.8384350">
        <ele>395.4</ele>
        <time>2022-06-08T07:02:52Z</time>
      </trkpt>
      <trkpt lat="47.9240330" lon="8.8387610">
        <ele>393.4</ele>
        <time>2022-06-08T07:02:56Z</time>
      </trkpt>
      <trkpt lat="47.9238250" lon="8.8391450">
        <ele>389.8</ele>
        <time>2022-06-08T07:03:00Z</time>
      </trkpt>
      <trkpt lat="47.9235860" lon="8.8395810">
        <ele>387.4</ele>
        <time>2022-06-08T07:03:04Z</time>
      </trkpt>
      <trkpt lat="47.9233900" lon="8.8399100">
        <ele>390.2</ele>
        <time>2022-06-08T07:03:08Z</time>
      </trkpt>
      <trkpt lat="47.9232580" lon="8.8400610">
        <ele>392.8</ele>
        <time>2022-06-08T07:03:12Z</time>
      </trkpt>
      <trkpt lat="47.9231610" lon="8.8401530">
        <ele>393.6</ele>
        <time>2022-06-08T07:03:16Z</time>
      </trkpt>
      <trkpt lat="47.9230550" lon="8.8402100">
        <ele>395.0</ele>
        <time>2022-06-08T07:03:20Z</time>
      </trkpt>
      <trkpt lat="47.9229410" lon="8.8402630">
        <ele>396.0</ele>
        <time>2022-06-08T07:03:24Z</time>
      </trkpt>
      <trkpt lat="47.9228350" lon="8.8402960">
        <ele>396.8</ele>
        <time>2022-06-08T07:03:28Z</time>
      </trkpt>
      <trkpt lat="47.9227160" lon="8.8403250">
        <ele>397.0</ele>
        <time>2022-06-08T07:03:32Z</time>
      </trkpt>
      <trkpt lat="47.9225950" lon="8.8403530">
        <ele>398.6</ele>
        <time>2022-06-08T07:03:36Z</time>
      </trkpt>
      <trkpt lat="47.9224730" lon="8.8403780">
        <ele>399.0</ele>
        <time>2022-06-08T07:03:40Z</time>
      </trkpt>
      <trkpt lat="47.9223510" lon="8.8403860">
        <ele>398.6</ele>
        <time>2022-06-08T07:03:44Z</time>
      </trkpt>
      <trkpt lat="47.9222130" lon="8.8403980">
        <ele>399.2</ele>
        <time>2022-06-08T07:03:48Z</time>
      </trkpt>
      <trkpt lat="47.9220780" lon="8.8404000">
        <ele>399.4</ele>
        <time>2022-06-08T07:03:52Z</time>
      </trkpt>
      <trkpt lat="47.9219450" lon="8.8404130">
        <ele>400.0</ele>
        <time>2022-06-08T07:03:56Z</time>
      </trkpt>
      <trkpt lat="47.9218080" lon="8.8404510">
        <ele>399.6</ele>
        <time>2022-06-08T07:04:00Z</time>
      </trkpt>
      <trkpt lat="47.9216780" lon="8.8405330">
        <ele>400.4</ele>
        <time>2022-06-08T07:04:04Z</time>
      </trkpt>
      <trkpt lat="47.9215550" lon="8.8406460">
        <ele>399.8</ele>
        <time>2022-06-08T07:04:08Z</time>
      </trkpt>
      <trkpt lat="47.9214250" lon="8.8408110">
        <ele>399.0</ele>
        <time>2022-06-08T07:04:12Z</time>
      </trkpt>
      <trkpt lat="47.9212850" lon="8.8410710">
        <ele>398.0</ele>
        <time>2022-06-08T07:04:16Z</time>
      </trkpt>
      <trkpt lat="47.9211400" lon="8.8414180">
        <ele>396.4</ele>
        <time>2022-06-08T07:04:20Z</time>
      </trkpt>
      <trkpt lat="47.9209980" lon="8.8417700">
        <ele>395.8</ele>
        <time>2022-06-08T07:04:24Z</time>
      </trkpt>
      <trkpt lat="47.9208680" lon="8.8421080">
        <ele>395.0</ele>
        <time>2022-06-08T07:04:28Z</time>
      </trkpt>
      <trkpt lat="47.9207750" lon="8.8424080">
        <ele>394.0</ele>
        <time>2022-06-08T07:04:32Z</time>
      </trkpt>
      <trkpt lat="47.9207500" lon="8.8426800">
        <ele>394.0</ele>
        <time>2022-06-08T07:04:36Z</time>
      </trkpt>
      <trkpt lat="47.9206330" lon="8.8428980">
        <ele>393.2</ele>
        <time>2022-06-08T07:04:40Z</time>
      </trkpt>
      <trkpt lat="47.9205030" lon="8.8429400">
        <ele>393.0</ele>
        <time>2022-06-08T07:04:44Z</time>
      </trkpt>
      <trkpt lat="47.9205030" lon="8.8429400">
        <ele>393.6</ele>
        <time>2022-06-08T07:04:48Z</time>
      </trkpt>
      <trkpt lat="47.9205030" lon="8.8429400">
        <ele>393.6</ele>
        <time>2022-06-08T07:04:52Z</time>
      </trkpt>
      <trkpt lat="47.9205030" lon="8.8429400">
        <ele>393.6</ele>
        <time>2022-06-08T07:04:56Z</time>
      </trkpt>
      <trkpt lat="47.9204880" lon="8.8429400">
        <ele>393.2</ele>
        <time>2022-06-08T07:05:00Z</time>
      </trkpt>
      <trkpt lat="47.9204880" lon="8.8429400">
        <ele>393.0</ele>
        <time>2022-06-08T07:05:04Z</time>
      </trkpt>
      <trkpt lat="47.9204880" lon="8.8429400">
        <ele>393.4</ele>
        <time>2022-06-08T07:05:08Z</time>
      </trkpt>
      <trkpt lat="47.9204750" lon="8.8429550">
        <ele>393.8</ele>
        <time>2022-06-08T07:05:12Z</time>
      </trkpt>
      <trkpt lat="47.9204750" lon="8.8429550">
        <ele>393.2</ele>
        <time>2022-06-08T07:05:16Z</time>
      </trkpt>
      <trkpt lat="47.9204680" lon="8.8429800">
        <ele>393.4</ele>
        <time>2022-06-08T07:05:20Z</time>
      </trkpt>
      <trkpt lat="47.9205010" lon="8.8429960">
        <ele>393.0</ele>
        <time>2022-06-08T07:05:24Z</time>
      </trkpt>
      <trkpt lat="47.9205450" lon="8.8429930">
        <ele>393.2</ele>
        <time>2022-06-08T07:05:28Z</time>
      </trkpt>
      <trkpt lat="47.9205450" lon="8.8429930">
        <ele>393.2</ele>
        <time>2022-06-08T07:05:32Z</time>
      </trkpt>
      <trkpt lat="47.9205630" lon="8.8430050">
        <ele>393.0</ele>
        <time>2022-06-08T07:05:36Z</time>
      </trkpt>
      <trkpt lat="47.9206050" lon="8.8431650">
        <ele>392.4</ele>
        <time>2022-06-08T07:05:40Z</time>
      </trkpt>
      <trkpt lat="47.9206360" lon="8.8433780">
        <ele>391.4</ele>
        <time>2022-06-08T07:05:44Z</time>
      </trkpt>
      <trkpt lat="47.9205180" lon="8.8435630">
        <ele>390.2</ele>
        <time>2022-06-08T07:05:48Z</time>
      </trkpt>
      <trkpt lat="47.9203350" lon="8.8436030">
        <ele>390.0</ele>
        <time>2022-06-08T07:05:52Z</time>
      </trkpt>
      <trkpt lat="47.9201530" lon="8.8437250">
        <ele>389.2</ele>
        <time>2022-06-08T07:05:56Z</time>
      </trkpt>
      <trkpt lat="47.9199910" lon="8.8439550">
        <ele>388.4</ele>
        <time>2022-06-08T07:06:00Z</time>
      </trkpt>
      <trkpt lat="47.9198230" lon="8.8442210">
        <ele>387.6</ele>
        <time>2022-06-08T07:06:04Z</time>
      </trkpt>
      <trkpt lat="47.9196160" lon="8.8445010">
        <ele>386.4</ele>
        <time>2022-06-08T07:06:08Z</time>
      </trkpt>
      <trkpt lat="47.9193550" lon="8.8447660">
        <ele>384.0</ele>
        <time>2022-06-08T07:06:12Z</time>
      </trkpt>
      <trkpt lat="47.9190380" lon="8.8449900">
        <ele>381.8</ele>
        <time>2022-06-08T07:06:16Z</time>
      </trkpt>
      <trkpt lat="47.9187080" lon="8.8451060">
        <ele>379.4</ele>
        <time>2022-06-08T07:06:20Z</time>
      </trkpt>
      <trkpt lat="47.9184460" lon="8.8451280">
        <ele>376.6</ele>
        <time>2022-06-08T07:06:24Z</time>
      </trkpt>
      <trkpt lat="47.9184110" lon="8.8451230">
        <ele>378.0</ele>
        <time>2022-06-08T07:06:28Z</time>
      </trkpt>
      <trkpt lat="47.9184110" lon="8.8451230">
        <ele>377.8</ele>
        <time>2022-06-08T07:06:32Z</time>
      </trkpt>
      <trkpt lat="47.9184180" lon="8.8451210">
        <ele>378.2</ele>
        <time>2022-06-08T07:06:36Z</time>
      </trkpt>
      <trkpt lat="47.9183480" lon="8.8451180">
        <ele>377.2</ele>
        <time>2022-06-08T07:06:40Z</time>
      </trkpt>
      <trkpt lat="47.9182130" lon="8.8451280">
        <ele>377.2</ele>
        <time>2022-06-08T07:06:44Z</time>
      </trkpt>
      <trkpt lat="47.9180500" lon="8.8450950">
        <ele>377.2</ele>
        <time>2022-06-08T07:06:48Z</time>
      </trkpt>
      <trkpt lat="47.9178310" lon="8.8450730">
        <ele>376.4</ele>
        <time>2022-06-08T07:06:52Z</time>
      </trkpt>
      <trkpt lat="47.9175350" lon="8.8450850">
        <ele>372.6</ele>
        <time>2022-06-08T07:06:56Z</time>
      </trkpt>
      <trkpt lat="47.9172410" lon="8.8452850">
        <ele>371.0</ele>
        <time>2022-06-08T07:07:00Z</time>
      </trkpt>
      <trkpt lat="47.9169930" lon="8.8455410">
        <ele>369.2</ele>
        <time>2022-06-08T07:07:04Z</time>
      </trkpt>
      <trkpt lat="47.9167230" lon="8.8457210">
        <ele>365.8</ele>
        <time>2022-06-08T07:07:08Z</time>
      </trkpt>
      <trkpt lat="47.9163960" lon="8.8458560">
        <ele>362.8</ele>
        <time>2022-06-08T07:07:12Z</time>
      </trkpt>
      <trkpt lat="47.9160860" lon="8.8460610">
        <ele>362.4</ele>
        <time>2022-06-08T07:07:16Z</time>
      </trkpt>
      <trkpt lat="47.9157930" lon="8.8462310">
        <ele>362.6</ele>
        <time>2022-06-08T07:07:20Z</time>
      </trkpt>
      <trkpt lat="47.9155450" lon="8.8464030">
        <ele>362.2</ele>
        <time>2022-06-08T07:07:24Z</time>
      </trkpt>
      <trkpt lat="47.9154050" lon="8.8465530">
        <ele>362.4</ele>
        <time>2022-06-08T07:07:28Z</time>
      </trkpt>
      <trkpt lat="47.9153430" lon="8.8465100">
        <ele>362.0</ele>
        <time>2022-06-08T07:07:32Z</time>
      </trkpt>
      <trkpt lat="47.9152830" lon="8.8464210">
        <ele>362.2</ele>
        <time>2022-06-08T07:07:36Z</time>
      </trkpt>
      <trkpt lat="47.9151360" lon="8.8464080">
        <ele>361.8</ele>
        <time>2022-06-08T07:07:40Z</time>
      </trkpt>
      <trkpt lat="47.9149580" lon="8.8464200">
        <ele>362.6</ele>
        <time>2022-06-08T07:07:44Z</time>
      </trkpt>
      <trkpt lat="47.9147680" lon="8.8464400">
        <ele>362.4</ele>
        <time>2022-06-08T07:07:48Z</time>
      </trkpt>
      <trkpt lat="47.9145780" lon="8.8464510">
        <ele>362.2</ele>
        <time>2022-06-08T07:07:52Z</time>
      </trkpt>
      <trkpt lat="47.9143880" lon="8.8464630">
        <ele>361.6</ele>
        <time>2022-06-08T07:07:56Z</time>
      </trkpt>
      <trkpt lat="47.9141880" lon="8.8464530">
        <ele>361.4</ele>
        <time>2022-06-08T07:08:00Z</time>
      </trkpt>
      <trkpt lat="47.9139710" lon="8.8464160">
        <ele>361.0</ele>
        <time>2022-06-08T07:08:04Z</time>
      </trkpt>
      <trkpt lat="47.9137260" lon="8.8463250">
        <ele>360.0</ele>
        <time>2022-06-08T07:08:08Z</time>
      </trkpt>
      <trkpt lat="47.9134510" lon="8.8462110">
        <ele>359.4</ele>
        <time>2022-06-08T07:08:12Z</time>
      </trkpt>
      <trkpt lat="47.9131310" lon="8.8461630">
        <ele>357.2</ele>
        <time>2022-06-08T07:08:16Z</time>
      </trkpt>
      <trkpt lat="47.9127800" lon="8.8462630">
        <ele>352.8</ele>
        <time>2022-06-08T07:08:20Z</time>
      </trkpt>
      <trkpt lat="47.9124480" lon="8.8465610">
        <ele>351.0</ele>
        <time>2022-06-08T07:08:24Z</time>
      </trkpt>
      <trkpt lat="47.9121850" lon="8.8470230">
        <ele>349.8</ele>
        <time>2022-06-08T07:08:28Z</time>
      </trkpt>
      <trkpt lat="47.9119600" lon="8.8475260">
        <ele>348.2</ele>
        <time>2022-06-08T07:08:32Z</time>
      </trkpt>
      <trkpt lat="47.9117450" lon="8.8480100">
        <ele>346.4</ele>
        <time>2022-06-08T07:08:36Z</time>
      </trkpt>
      <trkpt lat="47.9115500" lon="8.8484750">
        <ele>342.6</ele>
        <time>2022-06-08T07:08:40Z</time>
      </trkpt>
      <trkpt lat="47.9113510" lon="8.8489200">
        <ele>344.2</ele>
        <time>2022-06-08T07:08:44Z</time>
      </trkpt>
      <trkpt lat="47.9111560" lon="8.8493700">
        <ele>340.4</ele>
        <time>2022-06-08T07:08:48Z</time>
      </trkpt>
      <trkpt lat="47.9110100" lon="8.8498830">
        <ele>340.4</ele>
        <time>2022-06-08T07:08:52Z</time>
      </trkpt>
      <trkpt lat="47.9108680" lon="8.8504510">
        <ele>336.8</ele>
        <time>2022-06-08T07:08:56Z</time>
      </trkpt>
      <trkpt lat="47.9106380" lon="8.8509880">
        <ele>334.4</ele>
        <time>2022-06-08T07:09:00Z</time>
      </trkpt>
      <trkpt lat="47.9102810" lon="8.8513850">
        <ele>330.4</ele>
        <time>2022-06-08T07:09:04Z</time>
      </trkpt>
      <trkpt lat="47.9098930" lon="8.8517210">
        <ele>323.6</ele>
        <time>2022-06-08T07:09:08Z</time>
      </trkpt>
      <trkpt lat="47.9095280" lon="8.8521080">
        <ele>321.0</ele>
        <time>2022-06-08T07:09:12Z</time>
      </trkpt>
      <trkpt lat="47.9092160" lon="8.8525560">
        <ele>320.8</ele>
        <time>2022-06-08T07:09:16Z</time>
      </trkpt>
      <trkpt lat="47.9089410" lon="8.8530360">
        <ele>319.2</ele>
        <time>2022-06-08T07:09:20Z</time>
      </trkpt>
      <trkpt lat="47.9086660" lon="8.8535060">
        <ele>316.8</ele>
        <time>2022-06-08T07:09:24Z</time>
      </trkpt>
      <trkpt lat="47.9083460" lon="8.8538930">
        <ele>314.2</ele>
        <time>2022-06-08T07:09:28Z</time>
      </trkpt>
      <trkpt lat="47.9079880" lon="8.8541750">
        <ele>315.0</ele>
        <time>2022-06-08T07:09:32Z</time>
      </trkpt>
      <trkpt lat="47.9075960" lon="8.8543350">
        <ele>310.6</ele>
        <time>2022-06-08T07:09:36Z</time>
      </trkpt>
      <trkpt lat="47.9071880" lon="8.8543750">
        <ele>306.8</ele>
        <time>2022-06-08T07:09:40Z</time>
      </trkpt>
      <trkpt lat="47.9067760" lon="8.8542910">
        <ele>307.2</ele>
        <time>2022-06-08T07:09:44Z</time>
      </trkpt>
      <trkpt lat="47.9063980" lon="8.8540030">
        <ele>301.2</ele>
        <time>2022-06-08T07:09:48Z</time>
      </trkpt>
      <trkpt lat="47.9060680" lon="8.8535760">
        <ele>297.8</ele>
        <time>2022-06-08T07:09:52Z</time>
      </trkpt>
      <trkpt lat="47.9057030" lon="8.8532230">
        <ele>294.8</ele>
        <time>2022-06-08T07:09:56Z</time>
      </trkpt>
      <trkpt lat="47.9052760" lon="8.8530660">
        <ele>291.8</ele>
        <time>2022-06-08T07:10:00Z</time>
      </trkpt>
      <trkpt lat="47.9048350" lon="8.8529430">
        <ele>288.8</ele>
        <time>2022-06-08T07:10:04Z</time>
      </trkpt>
      <trkpt lat="47.9043950" lon="8.8528210">
        <ele>286.0</ele>
        <time>2022-06-08T07:10:08Z</time>
      </trkpt>
      <trkpt lat="47.9039310" lon="8.8527760">
        <ele>282.6</ele>
        <time>2022-06-08T07:10:12Z</time>
      </trkpt>
      <trkpt lat="47.9034730" lon="8.8528630">
        <ele>281.8</ele>
        <time>2022-06-08T07:10:16Z</time>
      </trkpt>
      <trkpt lat="47.9030130" lon="8.8529810">
        <ele>276.8</ele>
        <time>2022-06-08T07:10:20Z</time>
      </trkpt>
      <trkpt lat="47.9025550" lon="8.8530830">
        <ele>274.0</ele>
        <time>2022-06-08T07:10:24Z</time>
      </trkpt>
      <trkpt lat="47.9021230" lon="8.8531650">
        <ele>271.8</ele>
        <time>2022-06-08T07:10:28Z</time>
      </trkpt>
      <trkpt lat="47.9016700" lon="8.8532150">
        <ele>268.4</ele>
        <time>2022-06-08T07:10:32Z</time>
      </trkpt>
      <trkpt lat="47.9012150" lon="8.8530760">
        <ele>265.4</ele>
        <time>2022-06-08T07:10:36Z</time>
      </trkpt>
      <trkpt lat="47.9009830" lon="8.8525980">
        <ele>262.6</ele>
        <time>2022-06-08T07:10:40Z</time>
      </trkpt>
      <trkpt lat="47.9006700" lon="8.8520510">
        <ele>259.8</ele>
        <time>2022-06-08T07:10:44Z</time>
      </trkpt>
      <trkpt lat="47.9003780" lon="8.8514830">
        <ele>256.8</ele>
        <time>2022-06-08T07:10:48Z</time>
      </trkpt>
      <trkpt lat="47.9000610" lon="8.8509810">
        <ele>253.8</ele>
        <time>2022-06-08T07:10:52Z</time>
      </trkpt>
      <trkpt lat="47.8998410" lon="8.8504760">
        <ele>252.2</ele>
        <time>2022-06-08T07:10:56Z</time>
      </trkpt>
      <trkpt lat="47.8995800" lon="8.8501700">
        <ele>250.8</ele>
        <time>2022-06-08T07:11:00Z</time>
      </trkpt>
      <trkpt lat="47.8992700" lon="8.8501750">
        <ele>248.4</ele>
        <time>2022-06-08T07:11:04Z</time>
      </trkpt>
      <trkpt lat="47.8989650" lon="8.8504650">
        <ele>245.4</ele>
        <time>2022-06-08T07:11:08Z</time>
      </trkpt>
      <trkpt lat="47.8987460" lon="8.8508700">
        <ele>243.2</ele>
        <time>2022-06-08T07:11:12Z</time>
      </trkpt>
      <trkpt lat="47.8984560" lon="8.8512130">
        <ele>242.0</ele>
        <time>2022-06-08T07:11:16Z</time>
      </trkpt>
      <trkpt lat="47.8981350" lon="8.8514650">
        <ele>238.8</ele>
        <time>2022-06-08T07:11:20Z</time>
      </trkpt>
      <trkpt lat="47.8979610" lon="8.8519750">
        <ele>238.0</ele>
        <time>2022-06-08T07:11:24Z</time>
      </trkpt>
      <trkpt lat="47.8978410" lon="8.8524750">
        <ele>236.4</ele>
        <time>2022-06-08T07:11:28Z</time>
      </trkpt>
      <trkpt lat="47.8974980" lon="8.8527580">
        <ele>231.4</ele>
        <time>2022-06-08T07:11:32Z</time>
      </trkpt>
      <trkpt lat="47.8971000" lon="8.8527750">
        <ele>229.0</ele>
        <time>2022-06-08T07:11:36Z</time>
      </trkpt>
      <trkpt lat="47.8967280" lon="8.8526780">
        <ele>228.2</ele>
        <time>2022-06-08T07:11:40Z</time>
      </trkpt>
      <trkpt lat="47.8964160" lon="8.8527830">
        <ele>226.8</ele>
        <time>2022-06-08T07:11:44Z</time>
      </trkpt>
      <trkpt lat="47.8960830" lon="8.8529350">
        <ele>224.8</ele>
        <time>2022-06-08T07:11:48Z</time>
      </trkpt>
      <trkpt lat="47.8957300" lon="8.8530760">
        <ele>223.2</ele>
        <time>2022-06-08T07:11:52Z</time>
      </trkpt>
      <trkpt lat="47.8954300" lon="8.8533400">
        <ele>222.4</ele>
        <time>2022-06-08T07:11:56Z</time>
      </trkpt>
      <trkpt lat="47.8952610" lon="8.8538350">
        <ele>220.4</ele>
        <time>2022-06-08T07:12:00Z</time>
      </trkpt>
      <trkpt lat="47.8951250" lon="8.8542860">
        <ele>219.2</ele>
        <time>2022-06-08T07:12:04Z</time>
      </trkpt>
      <trkpt lat="47.8949060" lon="8.8545650">
        <ele>217.2</ele>
        <time>2022-06-08T07:12:08Z</time>
      </trkpt>
      <trkpt lat="47.8945380" lon="8.8547810">
        <ele>215.6</ele>
        <time>2022-06-08T07:12:12Z</time>
      </trkpt>
      <trkpt lat="47.8942050" lon="8.8549600">
        <ele>214.4</ele>
        <time>2022-06-08T07:12:16Z</time>
      </trkpt>
      <trkpt lat="47.8938530" lon="8.8550960">
        <ele>213.8</ele>
        <time>2022-06-08T07:12:20Z</time>
      </trkpt>
      <trkpt lat="47.8935310" lon="8.8550250">
        <ele>211.2</ele>
        <time>2022-06-08T07:12:24Z</time>
      </trkpt>
      <trkpt lat="47.8932260" lon="8.8549300">
        <ele>210.2</ele>
        <time>2022-06-08T07:12:28Z</time>
      </trkpt>
      <trkpt lat="47.8928580" lon="8.8551130">
        <ele>209.2</ele>
        <time>2022-06-08T07:12:32Z</time>
      </trkpt>
      <trkpt lat="47.8925780" lon="8.8554710">
        <ele>207.2</ele>
        <time>2022-06-08T07:12:36Z</time>
      </trkpt>
      <trkpt lat="47.8924180" lon="8.8559150">
        <ele>205.8</ele>
        <time>2022-06-08T07:12:40Z</time>
      </trkpt>
      <trkpt lat="47.8922680" lon="8.8564650">
        <ele>203.6</ele>
        <time>2022-06-08T07:12:44Z</time>
      </trkpt>
      <trkpt lat="47.8921130" lon="8.8569230">
        <ele>201.8</ele>
        <time>2022-06-08T07:12:48Z</time>
      </trkpt>
      <trkpt lat="47.8919330" lon="8.8572680">
        <ele>200.2</ele>
        <time>2022-06-08T07:12:52Z</time>
      </trkpt>
      <trkpt lat="47.8915360" lon="8.8574830">
        <ele>199.4</ele>
        <time>2022-06-08T07:12:56Z</time>
      </trkpt>
      <trkpt lat="47.8911080" lon="8.8577050">
        <ele>198.2</ele>
        <time>2022-06-08T07:13:00Z</time>
      </trkpt>
      <trkpt lat="47.8908010" lon="8.8579730">
        <ele>197.8</ele>
        <time>2022-06-08T07:13:04Z</time>
      </trkpt>
      <trkpt lat="47.8906300" lon="8.8580930">
        <ele>198.0</ele>
        <time>2022-06-08T07:13:08Z</time>
      </trkpt>
      <trkpt lat="47.8906300" lon="8.8580930">
        <ele>198.6</ele>
        <time>2022-06-08T07:13:12Z</time>
      </trkpt>
      <trkpt lat="47.8903430" lon="8.8585900">
        <ele>197.0</ele>
        <time>2022-06-08T07:13:16Z</time>
      </trkpt>
      <trkpt lat="47.8902080" lon="8.8590830">
        <ele>194.0</ele>
        <time>2022-06-08T07:13:20Z</time>
      </trkpt>
      <trkpt lat="47.8901360" lon="8.8595510">
        <ele>193.0</ele>
        <time>2022-06-08T07:13:24Z</time>
      </trkpt>
      <trkpt lat="47.8902200" lon="8.8600560">
        <ele>192.0</ele>
        <time>2022-06-08T07:13:28Z</time>
      </trkpt>
      <trkpt lat="47.8901030" lon="8.8603630">
        <ele>192.6</ele>
        <time>2022-06-08T07:13:32Z</time>
      </trkpt>
      <trkpt lat="47.8898800" lon="8.8603180">
        <ele>191.4</ele>
        <time>2022-06-08T07:13:36Z</time>
      </trkpt>
      <trkpt lat="47.8896510" lon="8.8602060">
        <ele>190.8</ele>
        <time>2022-06-08T07:13:40Z</time>
      </trkpt>
      <trkpt lat="47.8894150" lon="8.8600910">
        <ele>190.6</ele>
        <time>2022-06-08T07:13:44Z</time>
      </trkpt>
      <trkpt lat="47.8891880" lon="8.8599650">
        <ele>190.8</ele>
        <time>2022-06-08T07:13:48Z</time>
      </trkpt>
      <trkpt lat="47.8889600" lon="8.8598660">
        <ele>190.2</ele>
        <time>2022-06-08T07:13:52Z</time>
      </trkpt>
      <trkpt lat="47.8887310" lon="8.8597750">
        <ele>190.8</ele>
        <time>2022-06-08T07:13:56Z</time>
      </trkpt>
      <trkpt lat="47.8885010" lon="8.8596960">
        <ele>189.4</ele>
        <time>2022-06-08T07:14:00Z</time>
      </trkpt>
      <trkpt lat="47.8882700" lon="8.8596210">
        <ele>188.8</ele>
        <time>2022-06-08T07:14:04Z</time>
      </trkpt>
      <trkpt lat="47.8880350" lon="8.8595510">
        <ele>187.2</ele>
        <time>2022-06-08T07:14:08Z</time>
      </trkpt>
      <trkpt lat="47.8878100" lon="8.8594510">
        <ele>187.6</ele>
        <time>2022-06-08T07:14:12Z</time>
      </trkpt>
      <trkpt lat="47.8876230" lon="8.8592650">
        <ele>189.2</ele>
        <time>2022-06-08T07:14:16Z</time>
      </trkpt>
      <trkpt lat="47.8874150" lon="8.8591500">
        <ele>188.6</ele>
        <time>2022-06-08T07:14:20Z</time>
      </trkpt>
      <trkpt lat="47.8872100" lon="8.8590600">
        <ele>188.0</ele>
        <time>2022-06-08T07:14:24Z</time>
      </trkpt>
      <trkpt lat="47.8870130" lon="8.8589510">
        <ele>187.2</ele>
        <time>2022-06-08T07:14:28Z</time>
      </trkpt>
      <trkpt lat="47.8867710" lon="8.8588980">
        <ele>187.2</ele>
        <time>2022-06-08T07:14:32Z</time>
      </trkpt>
      <trkpt lat="47.8865360" lon="8.8588580">
        <ele>187.4</ele>
        <time>2022-06-08T07:14:36Z</time>
      </trkpt>
      <trkpt lat="47.8863230" lon="8.8587930">
        <ele>186.2</ele>
        <time>2022-06-08T07:14:40Z</time>
      </trkpt>
      <trkpt lat="47.8860900" lon="8.8587360">
        <ele>187.4</ele>
        <time>2022-06-08T07:14:44Z</time>
      </trkpt>
      <trkpt lat="47.8858700" lon="8.8586810">
        <ele>186.6</ele>
        <time>2022-06-08T07:14:48Z</time>
      </trkpt>
      <trkpt lat="47.8856950" lon="8.8585910">
        <ele>187.8</ele>
        <time>2022-06-08T07:14:52Z</time>
      </trkpt>
      <trkpt lat="47.8855800" lon="8.8584400">
        <ele>188.4</ele>
        <time>2022-06-08T07:14:56Z</time>
      </trkpt>
      <trkpt lat="47.8855080" lon="8.8583200">
        <ele>187.4</ele>
        <time>2022-06-08T07:15:00Z</time>
      </trkpt>
      <trkpt lat="47.8854160" lon="8.8581430">
        <ele>187.0</ele>
        <time>2022-06-08T07:15:04Z</time>
      </trkpt>
      <trkpt lat="47.8852650" lon="8.8579300">
        <ele>186.6</ele>
        <time>2022-06-08T07:15:08Z</time>
      </trkpt>
      <trkpt lat="47.8851410" lon="8.8577230">
        <ele>187.0</ele>
        <time>2022-06-08T07:15:12Z</time>
      </trkpt>
      <trkpt lat="47.8849830" lon="8.8575050">
        <ele>187.2</ele>
        <time>2022-06-08T07:15:16Z</time>
      </trkpt>
      <trkpt lat="47.8847750" lon="8.8572950">
        <ele>186.4</ele>
        <time>2022-06-08T07:15:20Z</time>
      </trkpt>
      <trkpt lat="47.8846280" lon="8.8570100">
        <ele>185.2</ele>
        <time>2022-06-08T07:15:24Z</time>
      </trkpt>
      <trkpt lat="47.8844760" lon="8.8567350">
        <ele>184.4</ele>
        <time>2022-06-08T07:15:28Z</time>
      </trkpt>
      <trkpt lat="47.8843400" lon="8.8564960">
        <ele>184.8</ele>
        <time>2022-06-08T07:15:32Z</time>
      </trkpt>
      <trkpt lat="47.8842030" lon="8.8563080">
        <ele>182.8</ele>
        <time>2022-06-08T07:15:36Z</time>
      </trkpt>
      <trkpt lat="47.8838960" lon="8.8563280">
        <ele>182.4</ele>
        <time>2022-06-08T07:15:40Z</time>
      </trkpt>
      <trkpt lat="47.8837400" lon="8.8566380">
        <ele>179.8</ele>
        <time>2022-06-08T07:15:44Z</time>
      </trkpt>
      <trkpt lat="47.8835950" lon="8.8569510">
        <ele>179.6</ele>
        <time>2022-06-08T07:15:48Z</time>
      </trkpt>
      <trkpt lat="47.8833310" lon="8.8571300">
        <ele>177.4</ele>
        <time>2022-06-08T07:15:52Z</time>
      </trkpt>
      <trkpt lat="47.8831030" lon="8.8572960">
        <ele>177.4</ele>
        <time>2022-06-08T07:15:56Z</time>
      </trkpt>
      <trkpt lat="47.8829000" lon="8.8574810">
        <ele>177.2</ele>
        <time>2022-06-08T07:16:00Z</time>
      </trkpt>
      <trkpt lat="47.8827310" lon="8.8576780">
        <ele>176.8</ele>
        <time>2022-06-08T07:16:04Z</time>
      </trkpt>
      <trkpt lat="47.8825650" lon="8.8578700">
        <ele>176.6</ele>
        <time>2022-06-08T07:16:08Z</time>
      </trkpt>
      <trkpt lat="47.8823880" lon="8.8580550">
        <ele>176.6</ele>
        <time>2022-06-08T07:16:12Z</time>
      </trkpt>
      <trkpt lat="47.8822200" lon="8.8582150">
        <ele>176.4</ele>
        <time>2022-06-08T07:16:16Z</time>
      </trkpt>
      <trkpt lat="47.8820530" lon="8.8583700">
        <ele>176.8</ele>
        <time>2022-06-08T07:16:20Z</time>
      </trkpt>
      <trkpt lat="47.8818900" lon="8.8585360">
        <ele>177.2</ele>
        <time>2022-06-08T07:16:24Z</time>
      </trkpt>
      <trkpt lat="47.8817450" lon="8.8586510">
        <ele>177.0</ele>
        <time>2022-06-08T07:16:28Z</time>
      </trkpt>
      <trkpt lat="47.8815460" lon="8.8587900">
        <ele>177.6</ele>
        <time>2022-06-08T07:16:32Z</time>
      </trkpt>
      <trkpt lat="47.8813700" lon="8.8589260">
        <ele>177.4</ele>
        <time>2022-06-08T07:16:36Z</time>
      </trkpt>
      <trkpt lat="47.8812310" lon="8.8590400">
        <ele>177.8</ele>
        <time>2022-06-08T07:16:40Z</time>
      </trkpt>
      <trkpt lat="47.8811010" lon="8.8591800">
        <ele>177.2</ele>
        <time>2022-06-08T07:16:44Z</time>
      </trkpt>
      <trkpt lat="47.8809810" lon="8.8593010">
        <ele>177.2</ele>
        <time>2022-06-08T07:16:48Z</time>
      </trkpt>
      <trkpt lat="47.8805980" lon="8.8594730">
        <ele>177.8</ele>
        <time>2022-06-08T07:16:52Z</time>
      </trkpt>
      <trkpt lat="47.8803750" lon="8.8595830">
        <ele>178.6</ele>
        <time>2022-06-08T07:16:56Z</time>
      </trkpt>
      <trkpt lat="47.8802160" lon="8.8596780">
        <ele>178.6</ele>
        <time>2022-06-08T07:17:00Z</time>
      </trkpt>
      <trkpt lat="47.8800700" lon="8.8597760">
        <ele>179.4</ele>
        <time>2022-06-08T07:17:04Z</time>
      </trkpt>
      <trkpt lat="47.8799350" lon="8.8598500">
        <ele>179.8</ele>
        <time>2022-06-08T07:17:08Z</time>
      </trkpt>
      <trkpt lat="47.8798010" lon="8.8599060">
        <ele>180.0</ele>
        <time>2022-06-08T07:17:12Z</time>
      </trkpt>
      <trkpt lat="47.8796850" lon="8.8599250">
        <ele>180.6</ele>
        <time>2022-06-08T07:17:16Z</time>
      </trkpt>
      <trkpt lat="47.8795800" lon="8.8599310">
        <ele>180.8</ele>
        <time>2022-06-08T07:17:20Z</time>
      </trkpt>
      <trkpt lat="47.8794610" lon="8.8599400">
        <ele>181.6</ele>
        <time>2022-06-08T07:17:24Z</time>
      </trkpt>
      <trkpt lat="47.8793160" lon="8.8599300">
        <ele>182.2</ele>
        <time>2022-06-08T07:17:28Z</time>
      </trkpt>
      <trkpt lat="47.8791780" lon="8.8599210">
        <ele>182.6</ele>
        <time>2022-06-08T07:17:32Z</time>
      </trkpt>
      <trkpt lat="47.8790230" lon="8.8599200">
        <ele>183.4</ele>
        <time>2022-06-08T07:17:36Z</time>
      </trkpt>
      <trkpt lat="47.8788910" lon="8.8599350">
        <ele>184.0</ele>
        <time>2022-06-08T07:17:40Z</time>
      </trkpt>
      <trkpt lat="47.8787360" lon="8.8599410">
        <ele>184.6</ele>
        <time>2022-06-08T07:17:44Z</time>
      </trkpt>
      <trkpt lat="47.8785950" lon="8.8599500">
        <ele>185.4</ele>
        <time>2022-06-08T07:17:48Z</time>
      </trkpt>
      <trkpt lat="47.8784760" lon="8.8599860">
        <ele>186.2</ele>
        <time>2022-06-08T07:17:52Z</time>
      </trkpt>
      <trkpt lat="47.8783780" lon="8.8600730">
        <ele>187.0</ele>
        <time>2022-06-08T07:17:56Z</time>
      </trkpt>
      <trkpt lat="47.8782660" lon="8.8601880">
        <ele>186.4</ele>
        <time>2022-06-08T07:18:00Z</time>
      </trkpt>
      <trkpt lat="47.8781250" lon="8.8603250">
        <ele>186.0</ele>
        <time>2022-06-08T07:18:04Z</time>
      </trkpt>
      <trkpt lat="47.8779800" lon="8.8604630">
        <ele>185.8</ele>
        <time>2022-06-08T07:18:08Z</time>
      </trkpt>
      <trkpt lat="47.8778380" lon="8.8606030">
        <ele>185.8</ele>
        <time>2022-06-08T07:18:12Z</time>
      </trkpt>
      <trkpt lat="47.8776980" lon="8.8607230">
        <ele>185.6</ele>
        <time>2022-06-08T07:18:16Z</time>
      </trkpt>
      <trkpt lat="47.8775710" lon="8.8608500">
        <ele>184.8</ele>
        <time>2022-06-08T07:18:20Z</time>
      </trkpt>
      <trkpt lat="47.8774480" lon="8.8609900">
        <ele>186.0</ele>
        <time>2022-06-08T07:18:24Z</time>
      </trkpt>
      <trkpt lat="47.8773400" lon="8.8611350">
        <ele>185.8</ele>
        <time>2022-06-08T07:18:28Z</time>
      </trkpt>
      <trkpt lat="47.8772300" lon="8.8612680">
        <ele>186.0</ele>
        <time>2022-06-08T07:18:32Z</time>
      </trkpt>
      <trkpt lat="47.8771310" lon="8.8613810">
        <ele>186.4</ele>
        <time>2022-06-08T07:18:36Z</time>
      </trkpt>
      <trkpt lat="47.8770210" lon="8.8614900">
        <ele>186.0</ele>
        <time>2022-06-08T07:18:40Z</time>
      </trkpt>
      <trkpt lat="47.8768910" lon="8.8615710">
        <ele>186.0</ele>
        <time>2022-06-08T07:18:44Z</time>
      </trkpt>
      <trkpt lat="47.8767680" lon="8.8616710">
        <ele>186.0</ele>
        <time>2022-06-08T07:18:48Z</time>
      </trkpt>
      <trkpt lat="47.8766480" lon="8.8617730">
        <ele>186.4</ele>
        <time>2022-06-08T07:18:52Z</time>
      </trkpt>
      <trkpt lat="47.8765180" lon="8.8618650">
        <ele>186.4</ele>
        <time>2022-06-08T07:18:56Z</time>
      </trkpt>
      <trkpt lat="47.8763830" lon="8.8619880">
        <ele>186.4</ele>
        <time>2022-06-08T07:19:00Z</time>
      </trkpt>
      <trkpt lat="47.8762630" lon="8.8621400">
        <ele>186.2</ele>
        <time>2022-06-08T07:19:04Z</time>
      </trkpt>
      <trkpt lat="47.8761480" lon="8.8623030">
        <ele>186.2</ele>
        <time>2022-06-08T07:19:08Z</time>
      </trkpt>
      <trkpt lat="47.8760360" lon="8.8624730">
        <ele>186.0</ele>
        <time>2022-06-08T07:19:12Z</time>
      </trkpt>
      <trkpt lat="47.8759230" lon="8.8626660">
        <ele>186.2</ele>
        <time>2022-06-08T07:19:16Z</time>
      </trkpt>
      <trkpt lat="47.8758410" lon="8.8628780">
        <ele>186.2</ele>
        <time>2022-06-08T07:19:20Z</time>
      </trkpt>
      <trkpt lat="47.8757560" lon="8.8631010">
        <ele>186.2</ele>
        <time>2022-06-08T07:19:24Z</time>
      </trkpt>
      <trkpt lat="47.8756980" lon="8.8633310">
        <ele>185.8</ele>
        <time>2022-06-08T07:19:28Z</time>
      </trkpt>
      <trkpt lat="47.8756280" lon="8.8635580">
        <ele>185.6</ele>
        <time>2022-06-08T07:19:32Z</time>
      </trkpt>
      <trkpt lat="47.8755430" lon="8.8638360">
        <ele>184.8</ele>
        <time>2022-06-08T07:19:36Z</time>
      </trkpt>
      <trkpt lat="47.8754730" lon="8.8641460">
        <ele>184.4</ele>
        <time>2022-06-08T07:19:40Z</time>
      </trkpt>
      <trkpt lat="47.8753980" lon="8.8644810">
        <ele>184.2</ele>
        <time>2022-06-08T07:19:44Z</time>
      </trkpt>
      <trkpt lat="47.8753380" lon="8.8647910">
        <ele>182.2</ele>
        <time>2022-06-08T07:19:48Z</time>
      </trkpt>
      <trkpt lat="47.8753080" lon="8.8651000">
        <ele>181.6</ele>
        <time>2022-06-08T07:19:52Z</time>
      </trkpt>
      <trkpt lat="47.8753200" lon="8.8654030">
        <ele>183.4</ele>
        <time>2022-06-08T07:19:56Z</time>
      </trkpt>
      <trkpt lat="47.8753510" lon="8.8657010">
        <ele>182.0</ele>
        <time>2022-06-08T07:20:00Z</time>
      </trkpt>
      <trkpt lat="47.8753810" lon="8.8659780">
        <ele>182.0</ele>
        <time>2022-06-08T07:20:04Z</time>
      </trkpt>
      <trkpt lat="47.8754200" lon="8.8662480">
        <ele>181.8</ele>
        <time>2022-06-08T07:20:08Z</time>
      </trkpt>
      <trkpt lat="47.8754530" lon="8.8665150">
        <ele>182.0</ele>
        <time>2022-06-08T07:20:12Z</time>
      </trkpt>
      <trkpt lat="47.8754980" lon="8.8667680">
        <ele>182.4</ele>
        <time>2022-06-08T07:20:16Z</time>
      </trkpt>
      <trkpt lat="47.8755430" lon="8.8670160">
        <ele>182.4</ele>
        <time>2022-06-08T07:20:20Z</time>
      </trkpt>
      <trkpt lat="47.8756000" lon="8.8672530">
        <ele>182.6</ele>
        <time>2022-06-08T07:20:24Z</time>
      </trkpt>
      <trkpt lat="47.8756460" lon="8.8675030">
        <ele>182.8</ele>
        <time>2022-06-08T07:20:28Z</time>
      </trkpt>
      <trkpt lat="47.8757160" lon="8.8677400">
        <ele>183.0</ele>
        <time>2022-06-08T07:20:32Z</time>
      </trkpt>
      <trkpt lat="47.8757800" lon="8.8679660">
        <ele>182.8</ele>
        <time>2022-06-08T07:20:36Z</time>
      </trkpt>
      <trkpt lat="47.8758330" lon="8.8681930">
        <ele>183.0</ele>
        <time>2022-06-08T07:20:40Z</time>
      </trkpt>
      <trkpt lat="47.8759050" lon="8.8684150">
        <ele>183.2</ele>
        <time>2022-06-08T07:20:44Z</time>
      </trkpt>
      <trkpt lat="47.8759580" lon="8.8686280">
        <ele>183.6</ele>
        <time>2022-06-08T07:20:48Z</time>
      </trkpt>
      <trkpt lat="47.8759650" lon="8.8688650">
        <ele>183.2</ele>
        <time>2022-06-08T07:20:52Z</time>
      </trkpt>
      <trkpt lat="47.8759230" lon="8.8691410">
        <ele>181.0</ele>
        <time>2022-06-08T07:20:56Z</time>
      </trkpt>
      <trkpt lat="47.8758630" lon="8.8694500">
        <ele>179.8</ele>
        <time>2022-06-08T07:21:00Z</time>
      </trkpt>
      <trkpt lat="47.8757410" lon="8.8697710">
        <ele>178.4</ele>
        <time>2022-06-08T07:21:04Z</time>
      </trkpt>
      <trkpt lat="47.8755550" lon="8.8701080">
        <ele>175.6</ele>
        <time>2022-06-08T07:21:08Z</time>
      </trkpt>
      <trkpt lat="47.8753460" lon="8.8704610">
        <ele>175.8</ele>
        <time>2022-06-08T07:21:12Z</time>
      </trkpt>
      <trkpt lat="47.8751230" lon="8.8707960">
        <ele>172.2</ele>
        <time>2022-06-08T07:21:16Z</time>
      </trkpt>
      <trkpt lat="47.8748410" lon="8.8710550">
        <ele>171.8</ele>
        <time>2022-06-08T07:21:20Z</time>
      </trkpt>
      <trkpt lat="47.8745660" lon="8.8712660">
        <ele>171.8</ele>
        <time>2022-06-08T07:21:24Z</time>
      </trkpt>
      <trkpt lat="47.8743130" lon="8.8714850">
        <ele>171.6</ele>
        <time>2022-06-08T07:21:28Z</time>
      </trkpt>
      <trkpt lat="47.8740730" lon="8.8716880">
        <ele>171.8</ele>
        <time>2022-06-08T07:21:32Z</time>
      </trkpt>
      <trkpt lat="47.8738650" lon="8.8719130">
        <ele>173.2</ele>
        <time>2022-06-08T07:21:36Z</time>
      </trkpt>
      <trkpt lat="47.8737010" lon="8.8722050">
        <ele>173.2</ele>
        <time>2022-06-08T07:21:40Z</time>
      </trkpt>
      <trkpt lat="47.8735650" lon="8.8724650">
        <ele>172.8</ele>
        <time>2022-06-08T07:21:44Z</time>
      </trkpt>
      <trkpt lat="47.8734300" lon="8.8727060">
        <ele>171.6</ele>
        <time>2022-06-08T07:21:48Z</time>
      </trkpt>
      <trkpt lat="47.8732850" lon="8.8730100">
        <ele>171.2</ele>
        <time>2022-06-08T07:21:52Z</time>
      </trkpt>
      <trkpt lat="47.8731760" lon="8.8731760">
        <ele>170.8</ele>
        <time>2022-06-08T07:21:56Z</time>
      </trkpt>
      <trkpt lat="47.8729650" lon="8.8733060">
        <ele>169.0</ele>
        <time>2022-06-08T07:22:00Z</time>
      </trkpt>
      <trkpt lat="47.8727550" lon="8.8733130">
        <ele>169.0</ele>
        <time>2022-06-08T07:22:04Z</time>
      </trkpt>
      <trkpt lat="47.8724800" lon="8.8732950">
        <ele>169.0</ele>
        <time>2022-06-08T07:22:08Z</time>
      </trkpt>
      <trkpt lat="47.8722330" lon="8.8731960">
        <ele>168.6</ele>
        <time>2022-06-08T07:22:12Z</time>
      </trkpt>
      <trkpt lat="47.8719810" lon="8.8731130">
        <ele>167.8</ele>
        <time>2022-06-08T07:22:16Z</time>
      </trkpt>
      <trkpt lat="47.8717460" lon="8.8729930">
        <ele>166.8</ele>
        <time>2022-06-08T07:22:20Z</time>
      </trkpt>
      <trkpt lat="47.8715310" lon="8.8728610">
        <ele>168.4</ele>
        <time>2022-06-08T07:22:24Z</time>
      </trkpt>
      <trkpt lat="47.8714200" lon="8.8727680">
        <ele>166.4</ele>
        <time>2022-06-08T07:22:28Z</time>
      </trkpt>
      <trkpt lat="47.8713010" lon="8.8727150">
        <ele>165.8</ele>
        <time>2022-06-08T07:22:32Z</time>
      </trkpt>
      <trkpt lat="47.8711250" lon="8.8726680">
        <ele>165.8</ele>
        <time>2022-06-08T07:22:36Z</time>
      </trkpt>
      <trkpt lat="47.8709710" lon="8.8725310">
        <ele>164.2</ele>
        <time>2022-06-08T07:22:40Z</time>
      </trkpt>
      <trkpt lat="47.8708480" lon="8.8724660">
        <ele>165.0</ele>
        <time>2022-06-08T07:22:44Z</time>
      </trkpt>
      <trkpt lat="47.8704450" lon="8.8724650">
        <ele>163.4</ele>
        <time>2022-06-08T07:22:48Z</time>
      </trkpt>
      <trkpt lat="47.8700630" lon="8.8724380">
        <ele>162.2</ele>
        <time>2022-06-08T07:22:52Z</time>
      </trkpt>
      <trkpt lat="47.8697850" lon="8.8723760">
        <ele>161.6</ele>
        <time>2022-06-08T07:22:56Z</time>
      </trkpt>
      <trkpt lat="47.8695330" lon="8.8723250">
        <ele>160.4</ele>
        <time>2022-06-08T07:23:00Z</time>
      </trkpt>
      <trkpt lat="47.8692960" lon="8.8723660">
        <ele>159.8</ele>
        <time>2022-06-08T07:23:04Z</time>
      </trkpt>
      <trkpt lat="47.8690330" lon="8.8724000">
        <ele>158.0</ele>
        <time>2022-06-08T07:23:08Z</time>
      </trkpt>
      <trkpt lat="47.8687250" lon="8.8723710">
        <ele>157.0</ele>
        <time>2022-06-08T07:23:12Z</time>
      </trkpt>
      <trkpt lat="47.8684280" lon="8.8723830">
        <ele>155.8</ele>
        <time>2022-06-08T07:23:16Z</time>
      </trkpt>
      <trkpt lat="47.8681610" lon="8.8724200">
        <ele>155.4</ele>
        <time>2022-06-08T07:23:20Z</time>
      </trkpt>
      <trkpt lat="47.8679110" lon="8.8724560">
        <ele>155.0</ele>
        <time>2022-06-08T07:23:24Z</time>
      </trkpt>
      <trkpt lat="47.8676460" lon="8.8724900">
        <ele>154.0</ele>
        <time>2022-06-08T07:23:28Z</time>
      </trkpt>
      <trkpt lat="47.8673030" lon="8.8725000">
        <ele>152.4</ele>
        <time>2022-06-08T07:23:32Z</time>
      </trkpt>
      <trkpt lat="47.8670160" lon="8.8725380">
        <ele>152.0</ele>
        <time>2022-06-08T07:23:36Z</time>
      </trkpt>
      <trkpt lat="47.8667600" lon="8.8726000">
        <ele>152.2</ele>
        <time>2022-06-08T07:23:40Z</time>
      </trkpt>
      <trkpt lat="47.8665150" lon="8.8726850">
        <ele>151.2</ele>
        <time>2022-06-08T07:23:44Z</time>
      </trkpt>
      <trkpt lat="47.8662680" lon="8.8728160">
        <ele>151.2</ele>
        <time>2022-06-08T07:23:48Z</time>
      </trkpt>
      <trkpt lat="47.8660530" lon="8.8730350">
        <ele>150.6</ele>
        <time>2022-06-08T07:23:52Z</time>
      </trkpt>
      <trkpt lat="47.8658900" lon="8.8733300">
        <ele>148.0</ele>
        <time>2022-06-08T07:23:56Z</time>
      </trkpt>
      <trkpt lat="47.8657880" lon="8.8736760">
        <ele>149.8</ele>
        <time>2022-06-08T07:24:00Z</time>
      </trkpt>
      <trkpt lat="47.8657000" lon="8.8740110">
        <ele>149.6</ele>
        <time>2022-06-08T07:24:04Z</time>
      </trkpt>
      <trkpt lat="47.8655710" lon="8.8742830">
        <ele>149.8</ele>
        <time>2022-06-08T07:24:08Z</time>
      </trkpt>
      <trkpt lat="47.8654150" lon="8.8745150">
        <ele>149.6</ele>
        <time>2022-06-08T07:24:12Z</time>
      </trkpt>
      <trkpt lat="47.8652500" lon="8.8747160">
        <ele>147.8</ele>
        <time>2022-06-08T07:24:16Z</time>
      </trkpt>
      <trkpt lat="47.8651130" lon="8.8749130">
        <ele>149.6</ele>
        <time>2022-06-08T07:24:20Z</time>
      </trkpt>
      <trkpt lat="47.8650100" lon="8.8750950">
        <ele>150.4</ele>
        <time>2022-06-08T07:24:24Z</time>
      </trkpt>
      <trkpt lat="47.8649510" lon="8.8752930">
        <ele>150.6</ele>
        <time>2022-06-08T07:24:28Z</time>
      </trkpt>
      <trkpt lat="47.8649130" lon="8.8754860">
        <ele>151.4</ele>
        <time>2022-06-08T07:24:32Z</time>
      </trkpt>
      <trkpt lat="47.8649000" lon="8.8756850">
        <ele>152.2</ele>
        <time>2022-06-08T07:24:36Z</time>
      </trkpt>
      <trkpt lat="47.8649080" lon="8.8758860">
        <ele>153.0</ele>
        <time>2022-06-08T07:24:40Z</time>
      </trkpt>
      <trkpt lat="47.8649200" lon="8.8760900">
        <ele>153.0</ele>
        <time>2022-06-08T07:24:44Z</time>
      </trkpt>
      <trkpt lat="47.8649410" lon="8.8763010">
        <ele>153.2</ele>
        <time>2022-06-08T07:24:48Z</time>
      </trkpt>
      <trkpt lat="47.8649560" lon="8.8765060">
        <ele>153.6</ele>
        <time>2022-06-08T07:24:52Z</time>
      </trkpt>
      <trkpt lat="47.8649730" lon="8.8767150">
        <ele>153.2</ele>
        <time>2022-06-08T07:24:56Z</time>
      </trkpt>
      <trkpt lat="47.8649800" lon="8.8769510">
        <ele>151.8</ele>
        <time>2022-06-08T07:25:00Z</time>
      </trkpt>
      <trkpt lat="47.8649760" lon="8.8772500">
        <ele>152.0</ele>
        <time>2022-06-08T07:25:04Z</time>
      </trkpt>
      <trkpt lat="47.8649080" lon="8.8776180">
        <ele>149.6</ele>
        <time>2022-06-08T07:25:08Z</time>
      </trkpt>
      <trkpt lat="47.8647560" lon="8.8780280">
        <ele>146.6</ele>
        <time>2022-06-08T07:25:12Z</time>
      </trkpt>
      <trkpt lat="47.8644950" lon="8.8784310">
        <ele>142.2</ele>
        <time>2022-06-08T07:25:16Z</time>
      </trkpt>
      <trkpt lat="47.8641710" lon="8.8788030">
        <ele>138.8</ele>
        <time>2022-06-08T07:25:20Z</time>
      </trkpt>
      <trkpt lat="47.8638180" lon="8.8791450">
        <ele>135.0</ele>
        <time>2022-06-08T07:25:24Z</time>
      </trkpt>
      <trkpt lat="47.8634760" lon="8.8794980">
        <ele>134.0</ele>
        <time>2022-06-08T07:25:28Z</time>
      </trkpt>
      <trkpt lat="47.8631730" lon="8.8798800">
        <ele>132.6</ele>
        <time>2022-06-08T07:25:32Z</time>
      </trkpt>
      <trkpt lat="47.8628960" lon="8.8802550">
        <ele>131.4</ele>
        <time>2022-06-08T07:25:36Z</time>
      </trkpt>
      <trkpt lat="47.8626480" lon="8.8806180">
        <ele>130.2</ele>
        <time>2022-06-08T07:25:40Z</time>
      </trkpt>
      <trkpt lat="47.8624180" lon="8.8809580">
        <ele>130.6</ele>
        <time>2022-06-08T07:25:44Z</time>
      </trkpt>
      <trkpt lat="47.8622080" lon="8.8812860">
        <ele>130.0</ele>
        <time>2022-06-08T07:25:48Z</time>
      </trkpt>
      <trkpt lat="47.8620130" lon="8.8816180">
        <ele>129.2</ele>
        <time>2022-06-08T07:25:52Z</time>
      </trkpt>
      <trkpt lat="47.8618300" lon="8.8819560">
        <ele>129.4</ele>
        <time>2022-06-08T07:25:56Z</time>
      </trkpt>
      <trkpt lat="47.8616610" lon="8.8822880">
        <ele>129.6</ele>
        <time>2022-06-08T07:26:00Z</time>
      </trkpt>
      <trkpt lat="47.8615100" lon="8.8826260">
        <ele>127.8</ele>
        <time>2022-06-08T07:26:04Z</time>
      </trkpt>
      <trkpt lat="47.8613630" lon="8.8829480">
        <ele>128.4</ele>
        <time>2022-06-08T07:26:08Z</time>
      </trkpt>
      <trkpt lat="47.8612160" lon="8.8832600">
        <ele>127.6</ele>
        <time>2022-06-08T07:26:12Z</time>
      </trkpt>
      <trkpt lat="47.8610730" lon="8.8835600">
        <ele>128.2</ele>
        <time>2022-06-08T07:26:16Z</time>
      </trkpt>
      <trkpt lat="47.8609510" lon="8.8838510">
        <ele>128.4</ele>
        <time>2022-06-08T07:26:20Z</time>
      </trkpt>
      <trkpt lat="47.8608350" lon="8.8841550">
        <ele>128.4</ele>
        <time>2022-06-08T07:26:24Z</time>
      </trkpt>
      <trkpt lat="47.8607410" lon="8.8844710">
        <ele>128.4</ele>
        <time>2022-06-08T07:26:28Z</time>
      </trkpt>
      <trkpt lat="47.8606660" lon="8.8847850">
        <ele>128.0</ele>
        <time>2022-06-08T07:26:32Z</time>
      </trkpt>
      <trkpt lat="47.8605950" lon="8.8851050">
        <ele>128.6</ele>
        <time>2022-06-08T07:26:36Z</time>
      </trkpt>
      <trkpt lat="47.8605230" lon="8.8854210">
        <ele>129.0</ele>
        <time>2022-06-08T07:26:40Z</time>
      </trkpt>
      <trkpt lat="47.8604410" lon="8.8857330">
        <ele>129.0</ele>
        <time>2022-06-08T07:26:44Z</time>
      </trkpt>
      <trkpt lat="47.8603310" lon="8.8860380">
        <ele>128.4</ele>
        <time>2022-06-08T07:26:48Z</time>
      </trkpt>
      <trkpt lat="47.8601810" lon="8.8863100">
        <ele>128.0</ele>
        <time>2022-06-08T07:26:52Z</time>
      </trkpt>
      <trkpt lat="47.8600030" lon="8.8865510">
        <ele>127.6</ele>
        <time>2022-06-08T07:26:56Z</time>
      </trkpt>
      <trkpt lat="47.8598110" lon="8.8867560">
        <ele>128.0</ele>
        <time>2022-06-08T07:27:00Z</time>
      </trkpt>
      <trkpt lat="47.8596160" lon="8.8869430">
        <ele>127.2</ele>
        <time>2022-06-08T07:27:04Z</time>
      </trkpt>
      <trkpt lat="47.8594250" lon="8.8871300">
        <ele>127.8</ele>
        <time>2022-06-08T07:27:08Z</time>
      </trkpt>
      <trkpt lat="47.8592550" lon="8.8873280">
        <ele>127.8</ele>
        <time>2022-06-08T07:27:12Z</time>
      </trkpt>
      <trkpt lat="47.8590960" lon="8.8875510">
        <ele>128.4</ele>
        <time>2022-06-08T07:27:16Z</time>
      </trkpt>
      <trkpt lat="47.8589530" lon="8.8878210">
        <ele>126.4</ele>
        <time>2022-06-08T07:27:20Z</time>
      </trkpt>
      <trkpt lat="47.8588300" lon="8.8881600">
        <ele>124.8</ele>
        <time>2022-06-08T07:27:24Z</time>
      </trkpt>
      <trkpt lat="47.8587180" lon="8.8885880">
        <ele>120.6</ele>
        <time>2022-06-08T07:27:28Z</time>
      </trkpt>
      <trkpt lat="47.8586060" lon="8.8890430">
        <ele>120.2</ele>
        <time>2022-06-08T07:27:32Z</time>
      </trkpt>
      <trkpt lat="47.8584750" lon="8.8894960">
        <ele>117.8</ele>
        <time>2022-06-08T07:27:36Z</time>
      </trkpt>
      <trkpt lat="47.8583130" lon="8.8899330">
        <ele>115.8</ele>
        <time>2022-06-08T07:27:40Z</time>
      </trkpt>
      <trkpt lat="47.8581280" lon="8.8904150">
        <ele>111.6</ele>
        <time>2022-06-08T07:27:44Z</time>
      </trkpt>
      <trkpt lat="47.8579360" lon="8.8908960">
        <ele>107.4</ele>
        <time>2022-06-08T07:27:48Z</time>
      </trkpt>
      <trkpt lat="47.8577510" lon="8.8913080">
        <ele>105.8</ele>
        <time>2022-06-08T07:27:52Z</time>
      </trkpt>
      <trkpt lat="47.8575530" lon="8.8914130">
        <ele>105.8</ele>
        <time>2022-06-08T07:27:56Z</time>
      </trkpt>
      <trkpt lat="47.8574500" lon="8.8914480">
        <ele>105.0</ele>
        <time>2022-06-08T07:28:00Z</time>
      </trkpt>
      <trkpt lat="47.8574000" lon="8.8915880">
        <ele>104.6</ele>
        <time>2022-06-08T07:28:04Z</time>
      </trkpt>
      <trkpt lat="47.8574180" lon="8.8918400">
        <ele>103.6</ele>
        <time>2022-06-08T07:28:08Z</time>
      </trkpt>
      <trkpt lat="47.8574130" lon="8.8921150">
        <ele>103.0</ele>
        <time>2022-06-08T07:28:12Z</time>
      </trkpt>
      <trkpt lat="47.8574100" lon="8.8924100">
        <ele>103.0</ele>
        <time>2022-06-08T07:28:16Z</time>
      </trkpt>
      <trkpt lat="47.8574010" lon="8.8927110">
        <ele>102.2</ele>
        <time>2022-06-08T07:28:20Z</time>
      </trkpt>
      <trkpt lat="47.8573960" lon="8.8930050">
        <ele>101.4</ele>
        <time>2022-06-08T07:28:24Z</time>
      </trkpt>
      <trkpt lat="47.8573850" lon="8.8933100">
        <ele>101.0</ele>
        <time>2022-06-08T07:28:28Z</time>
      </trkpt>
      <trkpt lat="47.8573850" lon="8.8936230">
        <ele>100.2</ele>
        <time>2022-06-08T07:28:32Z</time>
      </trkpt>
      <trkpt lat="47.8573950" lon="8.8939430">
        <ele>98.6</ele>
        <time>2022-06-08T07:28:36Z</time>
      </trkpt>
      <trkpt lat="47.8574180" lon="8.8942410">
        <ele>98.6</ele>
        <time>2022-06-08T07:28:40Z</time>
      </trkpt>
      <trkpt lat="47.8574600" lon="8.8945610">
        <ele>97.4</ele>
        <time>2022-06-08T07:28:44Z</time>
      </trkpt>
      <trkpt lat="47.8575110" lon="8.8948980">
        <ele>96.8</ele>
        <time>2022-06-08T07:28:48Z</time>
      </trkpt>
      <trkpt lat="47.8575060" lon="8.8950510">
        <ele>97.2</ele>
        <time>2022-06-08T07:28:52Z</time>
      </trkpt>
      <trkpt lat="47.8574760" lon="8.8949760">
        <ele>98.0</ele>
        <time>2022-06-08T07:28:56Z</time>
      </trkpt>
      <trkpt lat="47.8574600" lon="8.8948880">
        <ele>97.6</ele>
        <time>2022-06-08T07:29:00Z</time>
      </trkpt>
      <trkpt lat="47.8574600" lon="8.8948880">
        <ele>97.6</ele>
        <time>2022-06-08T07:29:04Z</time>
      </trkpt>
      <trkpt lat="47.8574460" lon="8.8948730">
        <ele>98.0</ele>
        <time>2022-06-08T07:29:08Z</time>
      </trkpt>
      <trkpt lat="47.8574460" lon="8.8948730">
        <ele>97.8</ele>
        <time>2022-06-08T07:29:12Z</time>
      </trkpt>
      <trkpt lat="47.8574460" lon="8.8948730">
        <ele>98.0</ele>
        <time>2022-06-08T07:29:16Z</time>
      </trkpt>
      <trkpt lat="47.8574460" lon="8.8948730">
        <ele>98.0</ele>
        <time>2022-06-08T07:29:20Z</time>
      </trkpt>
      <trkpt lat="47.8574460" lon="8.8948730">
        <ele>97.6</ele>
        <time>2022-06-08T07:29:24Z</time>
      </trkpt>
      <trkpt lat="47.8574460" lon="8.8948730">
        <ele>97.8</ele>
        <time>2022-06-08T07:29:28Z</time>
      </trkpt>
      <trkpt lat="47.8574460" lon="8.8948730">
        <ele>98.2</ele>
        <time>2022-06-08T07:29:32Z</time>
      </trkpt>
      <trkpt lat="47.8574460" lon="8.8948730">
        <ele>97.8</ele>
        <time>2022-06-08T07:29:36Z</time>
      </trkpt>
      <trkpt lat="47.8574460" lon="8.8948730">
        <ele>97.8</ele>
        <time>2022-06-08T07:29:40Z</time>
      </trkpt>
      <trkpt lat="47.8574460" lon="8.8948730">
        <ele>98.0</ele>
        <time>2022-06-08T07:29:44Z</time>
      </trkpt>
      <trkpt lat="47.8574460" lon="8.8948730">
        <ele>97.6</ele>
        <time>2022-06-08T07:29:48Z</time>
      </trkpt>
      <trkpt lat="47.8574460" lon="8.8948730">
        <ele>98.0</ele>
        <time>2022-06-08T07:29:52Z</time>
      </trkpt>
      <trkpt lat="47.8574460" lon="8.8948730">
        <ele>98.0</ele>
        <time>2022-06-08T07:29:56Z</time>
      </trkpt>
      <trkpt lat="47.8574460" lon="8.8948730">
        <ele>98.0</ele>
        <time>2022-06-08T07:30:00Z</time>
      </trkpt>
      <trkpt lat="47.8574460" lon="8.8948730">
        <ele>97.8</ele>
        <time>2022-06-08T07:30:04Z</time>
      </trkpt>
      <trkpt lat="47.8574460" lon="8.8948730">
        <ele>97.6</ele>
        <time>2022-06-08T07:30:08Z</time>
      </trkpt>
      <trkpt lat="47.8574460" lon="8.8948730">
        <ele>97.8</ele>
        <time>2022-06-08T07:30:12Z</time>
      </trkpt>
      <trkpt lat="47.8574460" lon="8.8948730">
        <ele>97.6</ele>
        <time>2022-06-08T07:30:16Z</time>
      </trkpt>
      <trkpt lat="47.8574460" lon="8.8948730">
        <ele>97.8</ele>
        <time>2022-06-08T07:30:20Z</time>
      </trkpt>
      <trkpt lat="47.8574460" lon="8.8948730">
        <ele>98.0</ele>
        <time>2022-06-08T07:30:24Z</time>
      </trkpt>
      <trkpt lat="47.8574460" lon="8.8948730">
        <ele>97.8</ele>
        <time>2022-06-08T07:30:28Z</time>
      </trkpt>
      <trkpt lat="47.8574460" lon="8.8948730">
        <ele>97.8</ele>
        <time>2022-06-08T07:30:32Z</time>
      </trkpt>
      <trkpt lat="47.8574460" lon="8.8948730">
        <ele>97.8</ele>
        <time>2022-06-08T07:30:36Z</time>
      </trkpt>
      <trkpt lat="47.8574460" lon="8.8948730">
        <ele>98.0</ele>
        <time>2022-06-08T07:30:40Z</time>
      </trkpt>
      <trkpt lat="47.8574460" lon="8.8948730">
        <ele>98.0</ele>
        <time>2022-06-08T07:30:44Z</time>
      </trkpt>
      <trkpt lat="47.8574460" lon="8.8948730">
        <ele>97.8</ele>
        <time>2022-06-08T07:30:48Z</time>
      </trkpt>
      <trkpt lat="47.8574460" lon="8.8948730">
        <ele>98.0</ele>
        <time>2022-06-08T07:30:52Z</time>
      </trkpt>
      <trkpt lat="47.8574460" lon="8.8948730">
        <ele>98.0</ele>
        <time>2022-06-08T07:30:56Z</time>
      </trkpt>
      <trkpt lat="47.8574460" lon="8.8948730">
        <ele>98.0</ele>
        <time>2022-06-08T07:31:00Z</time>
      </trkpt>
      <trkpt lat="47.8574460" lon="8.8948730">
        <ele>98.0</ele>
        <time>2022-06-08T07:31:04Z</time>
      </trkpt>
      <trkpt lat="47.8574460" lon="8.8948730">
        <ele>98.0</ele>
        <time>2022-06-08T07:31:08Z</time>
      </trkpt>
      <trkpt lat="47.8574460" lon="8.8948730">
        <ele>98.2</ele>
        <time>2022-06-08T07:31:12Z</time>
      </trkpt>
      <trkpt lat="47.8574460" lon="8.8948730">
        <ele>98.0</ele>
        <time>2022-06-08T07:31:16Z</time>
      </trkpt>
      <trkpt lat="47.8574460" lon="8.8948730">
        <ele>98.0</ele>
        <time>2022-06-08T07:31:20Z</time>
      </trkpt>
      <trkpt lat="47.8574460" lon="8.8948730">
        <ele>98.0</ele>
        <time>2022-06-08T07:31:24Z</time>
      </trkpt>
      <trkpt lat="47.8574460" lon="8.8948730">
        <ele>97.6</ele>
        <time>2022-06-08T07:31:28Z</time>
      </trkpt>
      <trkpt lat="47.8574460" lon="8.8948730">
        <ele>97.8</ele>
        <time>2022-06-08T07:31:32Z</time>
      </trkpt>
      <trkpt lat="47.8574460" lon="8.8948730">
        <ele>98.0</ele>
        <time>2022-06-08T07:31:36Z</time>
      </trkpt>
      <trkpt lat="47.8574460" lon="8.8948730">
        <ele>98.2</ele>
        <time>2022-06-08T07:31:40Z</time>
      </trkpt>
      <trkpt lat="47.8574460" lon="8.8948730">
        <ele>97.8</ele>
        <time>2022-06-08T07:31:44Z</time>
      </trkpt>
      <trkpt lat="47.8574460" lon="8.8948730">
        <ele>97.8</ele>
        <time>2022-06-08T07:31:48Z</time>
      </trkpt>
      <trkpt lat="47.8574460" lon="8.8948730">
        <ele>98.2</ele>
        <time>2022-06-08T07:31:52Z</time>
      </trkpt>
      <trkpt lat="47.8574460" lon="8.8948730">
        <ele>98.0</ele>
        <time>2022-06-08T07:31:56Z</time>
      </trkpt>
      <trkpt lat="47.8574460" lon="8.8948730">
        <ele>98.0</ele>
        <time>2022-06-08T07:32:00Z</time>
      </trkpt>
      <trkpt lat="47.8574460" lon="8.8948730">
        <ele>98.2</ele>
        <time>2022-06-08T07:32:04Z</time>
      </trkpt>
      <trkpt lat="47.8574460" lon="8.8948730">
        <ele>98.6</ele>
        <time>2022-06-08T07:32:08Z</time>
      </trkpt>
      <trkpt lat="47.8574460" lon="8.8948730">
        <ele>98.0</ele>
        <time>2022-06-08T07:32:12Z</time>
      </trkpt>
      <trkpt lat="47.8574460" lon="8.8948730">
        <ele>98.0</ele>
        <time>2022-06-08T07:32:16Z</time>
      </trkpt>
      <trkpt lat="47.8574460" lon="8.8948730">
        <ele>98.0</ele>
        <time>2022-06-08T07:32:20Z</time>
      </trkpt>
      <trkpt lat="47.8574460" lon="8.8948730">
        <ele>97.8</ele>
        <time>2022-06-08T07:32:24Z</time>
      </trkpt>
      <trkpt lat="47.8574460" lon="8.8948730">
        <ele>97.8</ele>
        <time>2022-06-08T07:32:28Z</time>
      </trkpt>
      <trkpt lat="47.8574460" lon="8.8948730">
        <ele>97.8</ele>
        <time>2022-06-08T07:32:32Z</time>
      </trkpt>
      <trkpt lat="47.8574460" lon="8.8948730">
        <ele>98.0</ele>
        <time>2022-06-08T07:32:36Z</time>
      </trkpt>
      <trkpt lat="47.8574460" lon="8.8948730">
        <ele>97.8</ele>
        <time>2022-06-08T07:32:40Z</time>
      </trkpt>
      <trkpt lat="47.8574460" lon="8.8948730">
        <ele>98.0</ele>
        <time>2022-06-08T07:32:44Z</time>
      </trkpt>
      <trkpt lat="47.8574460" lon="8.8948730">
        <ele>98.0</ele>
        <time>2022-06-08T07:32:48Z</time>
      </trkpt>
      <trkpt lat="47.8574460" lon="8.8948730">
        <ele>98.0</ele>
        <time>2022-06-08T07:32:52Z</time>
      </trkpt>
      <trkpt lat="47.8574460" lon="8.8948730">
        <ele>98.2</ele>
        <time>2022-06-08T07:32:56Z</time>
      </trkpt>
      <trkpt lat="47.8574460" lon="8.8948730">
        <ele>98.0</ele>
        <time>2022-06-08T07:33:00Z</time>
      </trkpt>
      <trkpt lat="47.8574460" lon="8.8948730">
        <ele>97.8</ele>
        <time>2022-06-08T07:33:04Z</time>
      </trkpt>
      <trkpt lat="47.8574460" lon="8.8948730">
        <ele>97.8</ele>
        <time>2022-06-08T07:33:08Z</time>
      </trkpt>
      <trkpt lat="47.8574460" lon="8.8948730">
        <ele>98.2</ele>
        <time>2022-06-08T07:33:12Z</time>
      </trkpt>
      <trkpt lat="47.8574460" lon="8.8948730">
        <ele>98.0</ele>
        <time>2022-06-08T07:33:16Z</time>
      </trkpt>
      <trkpt lat="47.8574460" lon="8.8948730">
        <ele>98.0</ele>
        <time>2022-06-08T07:33:20Z</time>
      </trkpt>
      <trkpt lat="47.8574460" lon="8.8948730">
        <ele>98.0</ele>
        <time>2022-06-08T07:33:24Z</time>
      </trkpt>
      <trkpt lat="47.8574460" lon="8.8948730">
        <ele>98.0</ele>
        <time>2022-06-08T07:33:28Z</time>
      </trkpt>
      <trkpt lat="47.8574460" lon="8.8948730">
        <ele>97.8</ele>
        <time>2022-06-08T07:33:32Z</time>
      </trkpt>
      <trkpt lat="47.8574460" lon="8.8948730">
        <ele>98.0</ele>
        <time>2022-06-08T07:33:36Z</time>
      </trkpt>
      <trkpt lat="47.8574460" lon="8.8948730">
        <ele>98.0</ele>
        <time>2022-06-08T07:33:40Z</time>
      </trkpt>
      <trkpt lat="47.8574460" lon="8.8948730">
        <ele>97.8</ele>
        <time>2022-06-08T07:33:44Z</time>
      </trkpt>
      <trkpt lat="47.8574460" lon="8.8948730">
        <ele>98.0</ele>
        <time>2022-06-08T07:33:48Z</time>
      </trkpt>
      <trkpt lat="47.8574460" lon="8.8948730">
        <ele>98.0</ele>
        <time>2022-06-08T07:33:52Z</time>
      </trkpt>
      <trkpt lat="47.8574460" lon="8.8948730">
        <ele>98.0</ele>
        <time>2022-06-08T07:33:56Z</time>
      </trkpt>
      <trkpt lat="47.8574460" lon="8.8948730">
        <ele>97.8</ele>
        <time>2022-06-08T07:34:00Z</time>
      </trkpt>
      <trkpt lat="47.8574460" lon="8.8948730">
        <ele>98.0</ele>
        <time>2022-06-08T07:34:04Z</time>
      </trkpt>
      <trkpt lat="47.8574460" lon="8.8948730">
        <ele>97.8</ele>
        <time>2022-06-08T07:34:08Z</time>
      </trkpt>
      <trkpt lat="47.8574460" lon="8.8948730">
        <ele>97.8</ele>
        <time>2022-06-08T07:34:12Z</time>
      </trkpt>
      <trkpt lat="47.8574460" lon="8.8948730">
        <ele>97.8</ele>
        <time>2022-06-08T07:34:16Z</time>
      </trkpt>
      <trkpt lat="47.8574460" lon="8.8948730">
        <ele>97.6</ele>
        <time>2022-06-08T07:34:20Z</time>
      </trkpt>
      <trkpt lat="47.8574460" lon="8.8948730">
        <ele>98.2</ele>
        <time>2022-06-08T07:34:24Z</time>
      </trkpt>
      <trkpt lat="47.8574460" lon="8.8948730">
        <ele>97.8</ele>
        <time>2022-06-08T07:34:28Z</time>
      </trkpt>
      <trkpt lat="47.8574460" lon="8.8948730">
        <ele>97.8</ele>
        <time>2022-06-08T07:34:32Z</time>
      </trkpt>
      <trkpt lat="47.8574460" lon="8.8948730">
        <ele>97.8</ele>
        <time>2022-06-08T07:34:36Z</time>
      </trkpt>
      <trkpt lat="47.8574460" lon="8.8948730">
        <ele>98.2</ele>
        <time>2022-06-08T07:34:40Z</time>
      </trkpt>
      <trkpt lat="47.8574460" lon="8.8948730">
        <ele>97.6</ele>
        <time>2022-06-08T07:34:44Z</time>
      </trkpt>
      <trkpt lat="47.8574460" lon="8.8948730">
        <ele>97.6</ele>
        <time>2022-06-08T07:34:48Z</time>
      </trkpt>
      <trkpt lat="47.8574460" lon="8.8948730">
        <ele>97.6</ele>
        <time>2022-06-08T07:34:52Z</time>
      </trkpt>
      <trkpt lat="47.8574460" lon="8.8948730">
        <ele>98.0</ele>
        <time>2022-06-08T07:34:56Z</time>
      </trkpt>
      <trkpt lat="47.8574460" lon="8.8948730">
        <ele>97.8</ele>
        <time>2022-06-08T07:35:00Z</time>
      </trkpt>
      <trkpt lat="47.8574460" lon="8.8948730">
        <ele>97.6</ele>
        <time>2022-06-08T07:35:04Z</time>
      </trkpt>
      <trkpt lat="47.8574460" lon="8.8948730">
        <ele>97.6</ele>
        <time>2022-06-08T07:35:08Z</time>
      </trkpt>
      <trkpt lat="47.8574460" lon="8.8948730">
        <ele>98.0</ele>
        <time>2022-06-08T07:35:12Z</time>
      </trkpt>
      <trkpt lat="47.8574460" lon="8.8948730">
        <ele>98.0</ele>
        <time>2022-06-08T07:35:16Z</time>
      </trkpt>
      <trkpt lat="47.8574460" lon="8.8948730">
        <ele>98.2</ele>
        <time>2022-06-08T07:35:20Z</time>
      </trkpt>
      <trkpt lat="47.8574460" lon="8.8948730">
        <ele>98.0</ele>
        <time>2022-06-08T07:35:24Z</time>
      </trkpt>
      <trkpt lat="47.8574460" lon="8.8948730">
        <ele>97.8</ele>
        <time>2022-06-08T07:35:28Z</time>
      </trkpt>
      <trkpt lat="47.8574460" lon="8.8948730">
        <ele>97.8</ele>
        <time>2022-06-08T07:35:32Z</time>
      </trkpt>
      <trkpt lat="47.8574460" lon="8.8948730">
        <ele>97.8</ele>
        <time>2022-06-08T07:35:36Z</time>
      </trkpt>
      <trkpt lat="47.8574460" lon="8.8948730">
        <ele>98.2</ele>
        <time>2022-06-08T07:35:40Z</time>
      </trkpt>
      <trkpt lat="47.8574460" lon="8.8948730">
        <ele>98.0</ele>
        <time>2022-06-08T07:35:44Z</time>
      </trkpt>
      <trkpt lat="47.8574460" lon="8.8948730">
        <ele>97.8</ele>
        <time>2022-06-08T07:35:48Z</time>
      </trkpt>
      <trkpt lat="47.8574460" lon="8.8948730">
        <ele>97.8</ele>
        <time>2022-06-08T07:35:52Z</time>
      </trkpt>
      <trkpt lat="47.8574460" lon="8.8948730">
        <ele>98.0</ele>
        <time>2022-06-08T07:35:56Z</time>
      </trkpt>
      <trkpt lat="47.8574460" lon="8.8948730">
        <ele>98.0</ele>
        <time>2022-06-08T07:36:00Z</time>
      </trkpt>
      <trkpt lat="47.8574460" lon="8.8948730">
        <ele>98.0</ele>
        <time>2022-06-08T07:36:04Z</time>
      </trkpt>
      <trkpt lat="47.8574460" lon="8.8948730">
        <ele>98.2</ele>
        <time>2022-06-08T07:36:08Z</time>
      </trkpt>
      <trkpt lat="47.8574460" lon="8.8948730">
        <ele>98.2</ele>
        <time>2022-06-08T07:36:12Z</time>
      </trkpt>
      <trkpt lat="47.8574460" lon="8.8948730">
        <ele>98.2</ele>
        <time>2022-06-08T07:36:16Z</time>
      </trkpt>
      <trkpt lat="47.8574460" lon="8.8948730">
        <ele>97.8</ele>
        <time>2022-06-08T07:36:20Z</time>
      </trkpt>
      <trkpt lat="47.8574460" lon="8.8948730">
        <ele>98.2</ele>
        <time>2022-06-08T07:36:24Z</time>
      </trkpt>
      <trkpt lat="47.8574460" lon="8.8948730">
        <ele>98.4</ele>
        <time>2022-06-08T07:36:28Z</time>
      </trkpt>
      <trkpt lat="47.8574460" lon="8.8948730">
        <ele>98.0</ele>
        <time>2022-06-08T07:36:32Z</time>
      </trkpt>
      <trkpt lat="47.8574460" lon="8.8948730">
        <ele>98.2</ele>
        <time>2022-06-08T07:36:36Z</time>
      </trkpt>
      <trkpt lat="47.8574460" lon="8.8948730">
        <ele>98.2</ele>
        <time>2022-06-08T07:36:40Z</time>
      </trkpt>
      <trkpt lat="47.8574460" lon="8.8948730">
        <ele>98.0</ele>
        <time>2022-06-08T07:36:44Z</time>
      </trkpt>
      <trkpt lat="47.8574460" lon="8.8948730">
        <ele>98.0</ele>
        <time>2022-06-08T07:36:48Z</time>
      </trkpt>
      <trkpt lat="47.8574460" lon="8.8948730">
        <ele>98.2</ele>
        <time>2022-06-08T07:36:52Z</time>
      </trkpt>
      <trkpt lat="47.8574460" lon="8.8948730">
        <ele>98.2</ele>
        <time>2022-06-08T07:36:56Z</time>
      </trkpt>
      <trkpt lat="47.8574460" lon="8.8948730">
        <ele>98.2</ele>
        <time>2022-06-08T07:37:00Z</time>
      </trkpt>
      <trkpt lat="47.8574460" lon="8.8948730">
        <ele>98.6</ele>
        <time>2022-06-08T07:37:04Z</time>
      </trkpt>
      <trkpt lat="47.8574460" lon="8.8948730">
        <ele>98.4</ele>
        <time>2022-06-08T07:37:08Z</time>
      </trkpt>
      <trkpt lat="47.8574460" lon="8.8948730">
        <ele>98.2</ele>
        <time>2022-06-08T07:37:12Z</time>
      </trkpt>
      <trkpt lat="47.8574460" lon="8.8948730">
        <ele>98.4</ele>
        <time>2022-06-08T07:37:16Z</time>
      </trkpt>
      <trkpt lat="47.8574460" lon="8.8948730">
        <ele>98.0</ele>
        <time>2022-06-08T07:37:20Z</time>
      </trkpt>
      <trkpt lat="47.8574460" lon="8.8948730">
        <ele>98.0</ele>
        <time>2022-06-08T07:37:24Z</time>
      </trkpt>
      <trkpt lat="47.8574460" lon="8.8948730">
        <ele>98.2</ele>
        <time>2022-06-08T07:37:28Z</time>
      </trkpt>
      <trkpt lat="47.8574460" lon="8.8948730">
        <ele>98.4</ele>
        <time>2022-06-08T07:37:32Z</time>
      </trkpt>
      <trkpt lat="47.8574460" lon="8.8948730">
        <ele>98.6</ele>
        <time>2022-06-08T07:37:36Z</time>
      </trkpt>
      <trkpt lat="47.8574460" lon="8.8948730">
        <ele>98.4</ele>
        <time>2022-06-08T07:37:40Z</time>
      </trkpt>
      <trkpt lat="47.8574460" lon="8.8948730">
        <ele>98.2</ele>
        <time>2022-06-08T07:37:44Z</time>
      </trkpt>
      <trkpt lat="47.8574460" lon="8.8948730">
        <ele>98.4</ele>
        <time>2022-06-08T07:37:48Z</time>
      </trkpt>
      <trkpt lat="47.8574460" lon="8.8948730">
        <ele>98.4</ele>
        <time>2022-06-08T07:37:52Z</time>
      </trkpt>
      <trkpt lat="47.8574460" lon="8.8948730">
        <ele>98.6</ele>
        <time>2022-06-08T07:37:56Z</time>
      </trkpt>
      <trkpt lat="47.8574460" lon="8.8948730">
        <ele>98.6</ele>
        <time>2022-06-08T07:38:00Z</time>
      </trkpt>
      <trkpt lat="47.8574460" lon="8.8948730">
        <ele>98.6</ele>
        <time>2022-06-08T07:38:04Z</time>
      </trkpt>
      <trkpt lat="47.8574460" lon="8.8948730">
        <ele>99.0</ele>
        <time>2022-06-08T07:38:08Z</time>
      </trkpt>
      <trkpt lat="47.8574460" lon="8.8948730">
        <ele>98.2</ele>
        <time>2022-06-08T07:38:12Z</time>
      </trkpt>
      <trkpt lat="47.8574460" lon="8.8948730">
        <ele>98.8</ele>
        <time>2022-06-08T07:38:16Z</time>
      </trkpt>
      <trkpt lat="47.8574460" lon="8.8948730">
        <ele>98.4</ele>
        <time>2022-06-08T07:38:20Z</time>
      </trkpt>
      <trkpt lat="47.8574460" lon="8.8948730">
        <ele>98.2</ele>
        <time>2022-06-08T07:38:24Z</time>
      </trkpt>
      <trkpt lat="47.8574460" lon="8.8948730">
        <ele>98.4</ele>
        <time>2022-06-08T07:38:28Z</time>
      </trkpt>
      <trkpt lat="47.8574460" lon="8.8948730">
        <ele>98.6</ele>
        <time>2022-06-08T07:38:32Z</time>
      </trkpt>
      <trkpt lat="47.8574460" lon="8.8948730">
        <ele>98.6</ele>
        <time>2022-06-08T07:38:36Z</time>
      </trkpt>
      <trkpt lat="47.8574460" lon="8.8948730">
        <ele>98.6</ele>
        <time>2022-06-08T07:38:40Z</time>
      </trkpt>
      <trkpt lat="47.8574460" lon="8.8948730">
        <ele>98.6</ele>
        <time>2022-06-08T07:38:44Z</time>
      </trkpt>
      <trkpt lat="47.8574460" lon="8.8948730">
        <ele>98.4</ele>
        <time>2022-06-08T07:38:48Z</time>
      </trkpt>
      <trkpt lat="47.8574460" lon="8.8948730">
        <ele>98.6</ele>
        <time>2022-06-08T07:38:52Z</time>
      </trkpt>
      <trkpt lat="47.8574460" lon="8.8948730">
        <ele>98.6</ele>
        <time>2022-06-08T07:38:56Z</time>
      </trkpt>
      <trkpt lat="47.8574460" lon="8.8948730">
        <ele>99.0</ele>
        <time>2022-06-08T07:39:00Z</time>
      </trkpt>
      <trkpt lat="47.8574460" lon="8.8948730">
        <ele>99.0</ele>
        <time>2022-06-08T07:39:04Z</time>
      </trkpt>
      <trkpt lat="47.8574460" lon="8.8948730">
        <ele>98.6</ele>
        <time>2022-06-08T07:39:08Z</time>
      </trkpt>
      <trkpt lat="47.8574460" lon="8.8948730">
        <ele>98.6</ele>
        <time>2022-06-08T07:39:12Z</time>
      </trkpt>
      <trkpt lat="47.8574460" lon="8.8948730">
        <ele>98.8</ele>
        <time>2022-06-08T07:39:16Z</time>
      </trkpt>
      <trkpt lat="47.8574460" lon="8.8948730">
        <ele>98.8</ele>
        <time>2022-06-08T07:39:20Z</time>
      </trkpt>
      <trkpt lat="47.8574460" lon="8.8948730">
        <ele>98.8</ele>
        <time>2022-06-08T07:39:24Z</time>
      </trkpt>
      <trkpt lat="47.8574460" lon="8.8948730">
        <ele>99.0</ele>
        <time>2022-06-08T07:39:28Z</time>
      </trkpt>
      <trkpt lat="47.8574460" lon="8.8948730">
        <ele>99.0</ele>
        <time>2022-06-08T07:39:32Z</time>
      </trkpt>
      <trkpt lat="47.8574460" lon="8.8948730">
        <ele>99.2</ele>
        <time>2022-06-08T07:39:36Z</time>
      </trkpt>
      <trkpt lat="47.8574460" lon="8.8948730">
        <ele>98.6</ele>
        <time>2022-06-08T07:39:40Z</time>
      </trkpt>
      <trkpt lat="47.8574460" lon="8.8948730">
        <ele>98.8</ele>
        <time>2022-06-08T07:39:44Z</time>
      </trkpt>
      <trkpt lat="47.8574460" lon="8.8948730">
        <ele>98.6</ele>
        <time>2022-06-08T07:39:48Z</time>
      </trkpt>
      <trkpt lat="47.8574460" lon="8.8948730">
        <ele>99.2</ele>
        <time>2022-06-08T07:39:52Z</time>
      </trkpt>
      <trkpt lat="47.8574460" lon="8.8948730">
        <ele>99.4</ele>
        <time>2022-06-08T07:39:56Z</time>
      </trkpt>
      <trkpt lat="47.8574460" lon="8.8948730">
        <ele>99.2</ele>
        <time>2022-06-08T07:40:00Z</time>
      </trkpt>
      <trkpt lat="47.8574460" lon="8.8948730">
        <ele>99.0</ele>
        <time>2022-06-08T07:40:04Z</time>
      </trkpt>
      <trkpt lat="47.8574460" lon="8.8948730">
        <ele>99.4</ele>
        <time>2022-06-08T07:40:08Z</time>
      </trkpt>
      <trkpt lat="47.8574460" lon="8.8948730">
        <ele>99.0</ele>
        <time>2022-06-08T07:40:12Z</time>
      </trkpt>
      <trkpt lat="47.8574460" lon="8.8948730">
        <ele>99.0</ele>
        <time>2022-06-08T07:40:16Z</time>
      </trkpt>
      <trkpt lat="47.8574460" lon="8.8948730">
        <ele>98.6</ele>
        <time>2022-06-08T07:40:20Z</time>
      </trkpt>
      <trkpt lat="47.8574460" lon="8.8948730">
        <ele>99.2</ele>
        <time>2022-06-08T07:40:24Z</time>
      </trkpt>
      <trkpt lat="47.8574460" lon="8.8948730">
        <ele>99.0</ele>
        <time>2022-06-08T07:40:28Z</time>
      </trkpt>
      <trkpt lat="47.8574460" lon="8.8948730">
        <ele>99.2</ele>
        <time>2022-06-08T07:40:32Z</time>
      </trkpt>
      <trkpt lat="47.8574460" lon="8.8948730">
        <ele>99.0</ele>
        <time>2022-06-08T07:40:36Z</time>
      </trkpt>
      <trkpt lat="47.8574460" lon="8.8948730">
        <ele>99.0</ele>
        <time>2022-06-08T07:40:40Z</time>
      </trkpt>
      <trkpt lat="47.8574460" lon="8.8948730">
        <ele>99.4</ele>
        <time>2022-06-08T07:40:44Z</time>
      </trkpt>
      <trkpt lat="47.8574460" lon="8.8948730">
        <ele>99.2</ele>
        <time>2022-06-08T07:40:48Z</time>
      </trkpt>
      <trkpt lat="47.8574460" lon="8.8948730">
        <ele>99.0</ele>
        <time>2022-06-08T07:40:52Z</time>
      </trkpt>
      <trkpt lat="47.8574460" lon="8.8948730">
        <ele>99.4</ele>
        <time>2022-06-08T07:40:56Z</time>
      </trkpt>
      <trkpt lat="47.8574460" lon="8.8948730">
        <ele>99.4</ele>
        <time>2022-06-08T07:41:00Z</time>
      </trkpt>
      <trkpt lat="47.8574460" lon="8.8948730">
        <ele>99.2</ele>
        <time>2022-06-08T07:41:04Z</time>
      </trkpt>
      <trkpt lat="47.8574460" lon="8.8948730">
        <ele>99.0</ele>
        <time>2022-06-08T07:41:08Z</time>
      </trkpt>
      <trkpt lat="47.8574460" lon="8.8948730">
        <ele>99.0</ele>
        <time>2022-06-08T07:41:12Z</time>
      </trkpt>
      <trkpt lat="47.8574460" lon="8.8948730">
        <ele>99.2</ele>
        <time>2022-06-08T07:41:16Z</time>
      </trkpt>
      <trkpt lat="47.8574460" lon="8.8948730">
        <ele>99.6</ele>
        <time>2022-06-08T07:41:20Z</time>
      </trkpt>
      <trkpt lat="47.8574460" lon="8.8948730">
        <ele>99.4</ele>
        <time>2022-06-08T07:41:24Z</time>
      </trkpt>
      <trkpt lat="47.8574460" lon="8.8948730">
        <ele>99.2</ele>
        <time>2022-06-08T07:41:28Z</time>
      </trkpt>
      <trkpt lat="47.8574460" lon="8.8948730">
        <ele>99.0</ele>
        <time>2022-06-08T07:41:32Z</time>
      </trkpt>
      <trkpt lat="47.8574460" lon="8.8948730">
        <ele>99.0</ele>
        <time>2022-06-08T07:41:36Z</time>
      </trkpt>
      <trkpt lat="47.8574460" lon="8.8948730">
        <ele>99.4</ele>
        <time>2022-06-08T07:41:40Z</time>
      </trkpt>
      <trkpt lat="47.8574460" lon="8.8948730">
        <ele>99.4</ele>
        <time>2022-06-08T07:41:44Z</time>
      </trkpt>
      <trkpt lat="47.8574460" lon="8.8948730">
        <ele>99.0</ele>
        <time>2022-06-08T07:41:48Z</time>
      </trkpt>
      <trkpt lat="47.8574460" lon="8.8948730">
        <ele>99.6</ele>
        <time>2022-06-08T07:41:52Z</time>
      </trkpt>
      <trkpt lat="47.8574460" lon="8.8948730">
        <ele>99.4</ele>
        <time>2022-06-08T07:41:56Z</time>
      </trkpt>
      <trkpt lat="47.8574460" lon="8.8948730">
        <ele>99.4</ele>
        <time>2022-06-08T07:42:00Z</time>
      </trkpt>
      <trkpt lat="47.8574460" lon="8.8948730">
        <ele>99.8</ele>
        <time>2022-06-08T07:42:04Z</time>
      </trkpt>
      <trkpt lat="47.8574460" lon="8.8948730">
        <ele>99.4</ele>
        <time>2022-06-08T07:42:08Z</time>
      </trkpt>
      <trkpt lat="47.8574460" lon="8.8948730">
        <ele>99.4</ele>
        <time>2022-06-08T07:42:12Z</time>
      </trkpt>
      <trkpt lat="47.8574460" lon="8.8948730">
        <ele>99.4</ele>
        <time>2022-06-08T07:42:16Z</time>
      </trkpt>
      <trkpt lat="47.8574460" lon="8.8948730">
        <ele>99.4</ele>
        <time>2022-06-08T07:42:20Z</time>
      </trkpt>
      <trkpt lat="47.8574460" lon="8.8948730">
        <ele>99.4</ele>
        <time>2022-06-08T07:42:24Z</time>
      </trkpt>
      <trkpt lat="47.8574460" lon="8.8948730">
        <ele>99.6</ele>
        <time>2022-06-08T07:42:28Z</time>
      </trkpt>
      <trkpt lat="47.8574460" lon="8.8948730">
        <ele>99.0</ele>
        <time>2022-06-08T07:42:32Z</time>
      </trkpt>
      <trkpt lat="47.8574460" lon="8.8948730">
        <ele>99.4</ele>
        <time>2022-06-08T07:42:36Z</time>
      </trkpt>
      <trkpt lat="47.8574460" lon="8.8948730">
        <ele>99.4</ele>
        <time>2022-06-08T07:42:40Z</time>
      </trkpt>
      <trkpt lat="47.8574460" lon="8.8948730">
        <ele>99.0</ele>
        <time>2022-06-08T07:42:44Z</time>
      </trkpt>
      <trkpt lat="47.8574460" lon="8.8948730">
        <ele>99.0</ele>
        <time>2022-06-08T07:42:48Z</time>
      </trkpt>
      <trkpt lat="47.8574460" lon="8.8948730">
        <ele>99.2</ele>
        <time>2022-06-08T07:42:52Z</time>
      </trkpt>
      <trkpt lat="47.8574460" lon="8.8948730">
        <ele>99.4</ele>
        <time>2022-06-08T07:42:56Z</time>
      </trkpt>
      <trkpt lat="47.8574460" lon="8.8948730">
        <ele>99.4</ele>
        <time>2022-06-08T07:43:00Z</time>
      </trkpt>
      <trkpt lat="47.8574460" lon="8.8948730">
        <ele>99.4</ele>
        <time>2022-06-08T07:43:04Z</time>
      </trkpt>
      <trkpt lat="47.8574460" lon="8.8948730">
        <ele>99.2</ele>
        <time>2022-06-08T07:43:08Z</time>
      </trkpt>
      <trkpt lat="47.8574460" lon="8.8948730">
        <ele>99.2</ele>
        <time>2022-06-08T07:43:12Z</time>
      </trkpt>
      <trkpt lat="47.8574460" lon="8.8948730">
        <ele>99.4</ele>
        <time>2022-06-08T07:43:16Z</time>
      </trkpt>
      <trkpt lat="47.8574460" lon="8.8948730">
        <ele>99.6</ele>
        <time>2022-06-08T07:43:20Z</time>
      </trkpt>
      <trkpt lat="47.8574460" lon="8.8948730">
        <ele>99.4</ele>
        <time>2022-06-08T07:43:24Z</time>
      </trkpt>
      <trkpt lat="47.8574460" lon="8.8948730">
        <ele>99.4</ele>
        <time>2022-06-08T07:43:28Z</time>
      </trkpt>
      <trkpt lat="47.8574460" lon="8.8948730">
        <ele>99.4</ele>
        <time>2022-06-08T07:43:32Z</time>
      </trkpt>
      <trkpt lat="47.8574460" lon="8.8948730">
        <ele>99.4</ele>
        <time>2022-06-08T07:43:36Z</time>
      </trkpt>
      <trkpt lat="47.8574460" lon="8.8948730">
        <ele>99.4</ele>
        <time>2022-06-08T07:43:40Z</time>
      </trkpt>
      <trkpt lat="47.8574460" lon="8.8948730">
        <ele>99.4</ele>
        <time>2022-06-08T07:43:44Z</time>
      </trkpt>
      <trkpt lat="47.8574460" lon="8.8948730">
        <ele>99.4</ele>
        <time>2022-06-08T07:43:48Z</time>
      </trkpt>
      <trkpt lat="47.8574460" lon="8.8948730">
        <ele>99.8</ele>
        <time>2022-06-08T07:43:52Z</time>
      </trkpt>
      <trkpt lat="47.8574460" lon="8.8948730">
        <ele>99.6</ele>
        <time>2022-06-08T07:43:56Z</time>
      </trkpt>
      <trkpt lat="47.8574460" lon="8.8948730">
        <ele>99.8</ele>
        <time>2022-06-08T07:44:00Z</time>
      </trkpt>
      <trkpt lat="47.8574460" lon="8.8948730">
        <ele>99.4</ele>
        <time>2022-06-08T07:44:04Z</time>
      </trkpt>
      <trkpt lat="47.8574460" lon="8.8948730">
        <ele>99.2</ele>
        <time>2022-06-08T07:44:08Z</time>
      </trkpt>
      <trkpt lat="47.8574460" lon="8.8948730">
        <ele>99.8</ele>
        <time>2022-06-08T07:44:12Z</time>
      </trkpt>
      <trkpt lat="47.8574460" lon="8.8948730">
        <ele>99.6</ele>
        <time>2022-06-08T07:44:16Z</time>
      </trkpt>
      <trkpt lat="47.8574460" lon="8.8948730">
        <ele>99.6</ele>
        <time>2022-06-08T07:44:20Z</time>
      </trkpt>
      <trkpt lat="47.8574460" lon="8.8948730">
        <ele>99.4</ele>
        <time>2022-06-08T07:44:24Z</time>
      </trkpt>
      <trkpt lat="47.8574460" lon="8.8948730">
        <ele>99.4</ele>
        <time>2022-06-08T07:44:28Z</time>
      </trkpt>
      <trkpt lat="47.8574460" lon="8.8948730">
        <ele>99.6</ele>
        <time>2022-06-08T07:44:32Z</time>
      </trkpt>
      <trkpt lat="47.8574460" lon="8.8948730">
        <ele>99.6</ele>
        <time>2022-06-08T07:44:36Z</time>
      </trkpt>
      <trkpt lat="47.8574980" lon="8.8948660">
        <ele>99.6</ele>
        <time>2022-06-08T07:44:40Z</time>
      </trkpt>
      <trkpt lat="47.8574980" lon="8.8948660">
        <ele>99.4</ele>
        <time>2022-06-08T07:44:44Z</time>
      </trkpt>
      <trkpt lat="47.8574980" lon="8.8948660">
        <ele>99.8</ele>
        <time>2022-06-08T07:44:48Z</time>
      </trkpt>
      <trkpt lat="47.8574900" lon="8.8949080">
        <ele>99.2</ele>
        <time>2022-06-08T07:44:52Z</time>
      </trkpt>
      <trkpt lat="47.8575380" lon="8.8950010">
        <ele>98.8</ele>
        <time>2022-06-08T07:44:56Z</time>
      </trkpt>
      <trkpt lat="47.8575850" lon="8.8949880">
        <ele>99.2</ele>
        <time>2022-06-08T07:45:00Z</time>
      </trkpt>
      <trkpt lat="47.8575800" lon="8.8948560">
        <ele>99.2</ele>
        <time>2022-06-08T07:45:04Z</time>
      </trkpt>
      <trkpt lat="47.8575450" lon="8.8947500">
        <ele>100.0</ele>
        <time>2022-06-08T07:45:08Z</time>
      </trkpt>
      <trkpt lat="47.8574860" lon="8.8946380">
        <ele>100.4</ele>
        <time>2022-06-08T07:45:12Z</time>
      </trkpt>
      <trkpt lat="47.8574700" lon="8.8945110">
        <ele>100.2</ele>
        <time>2022-06-08T07:45:16Z</time>
      </trkpt>
      <trkpt lat="47.8574380" lon="8.8943650">
        <ele>100.8</ele>
        <time>2022-06-08T07:45:20Z</time>
      </trkpt>
      <trkpt lat="47.8573980" lon="8.8942380">
        <ele>101.2</ele>
        <time>2022-06-08T07:45:24Z</time>
      </trkpt>
      <trkpt lat="47.8573080" lon="8.8941700">
        <ele>101.8</ele>
        <time>2022-06-08T07:45:28Z</time>
      </trkpt>
      <trkpt lat="47.8572180" lon="8.8942680">
        <ele>101.8</ele>
        <time>2022-06-08T07:45:32Z</time>
      </trkpt>
      <trkpt lat="47.8571230" lon="8.8943750">
        <ele>101.6</ele>
        <time>2022-06-08T07:45:36Z</time>
      </trkpt>
      <trkpt lat="47.8570150" lon="8.8945080">
        <ele>100.8</ele>
        <time>2022-06-08T07:45:40Z</time>
      </trkpt>
      <trkpt lat="47.8568730" lon="8.8946660">
        <ele>100.6</ele>
        <time>2022-06-08T07:45:44Z</time>
      </trkpt>
      <trkpt lat="47.8567300" lon="8.8948800">
        <ele>99.2</ele>
        <time>2022-06-08T07:45:48Z</time>
      </trkpt>
      <trkpt lat="47.8565760" lon="8.8951150">
        <ele>98.4</ele>
        <time>2022-06-08T07:45:52Z</time>
      </trkpt>
      <trkpt lat="47.8564130" lon="8.8953550">
        <ele>97.0</ele>
        <time>2022-06-08T07:45:56Z</time>
      </trkpt>
      <trkpt lat="47.8562210" lon="8.8955560">
        <ele>96.8</ele>
        <time>2022-06-08T07:46:00Z</time>
      </trkpt>
      <trkpt lat="47.8560330" lon="8.8957260">
        <ele>96.2</ele>
        <time>2022-06-08T07:46:04Z</time>
      </trkpt>
      <trkpt lat="47.8558700" lon="8.8959030">
        <ele>97.2</ele>
        <time>2022-06-08T07:46:08Z</time>
      </trkpt>
      <trkpt lat="47.8557150" lon="8.8960530">
        <ele>96.4</ele>
        <time>2022-06-08T07:46:12Z</time>
      </trkpt>
      <trkpt lat="47.8555580" lon="8.8961910">
        <ele>96.4</ele>
        <time>2022-06-08T07:46:16Z</time>
      </trkpt>
      <trkpt lat="47.8554060" lon="8.8963100">
        <ele>96.2</ele>
        <time>2022-06-08T07:46:20Z</time>
      </trkpt>
      <trkpt lat="47.8552550" lon="8.8964080">
        <ele>96.2</ele>
        <time>2022-06-08T07:46:24Z</time>
      </trkpt>
      <trkpt lat="47.8550980" lon="8.8965150">
        <ele>96.8</ele>
        <time>2022-06-08T07:46:28Z</time>
      </trkpt>
      <trkpt lat="47.8549430" lon="8.8966150">
        <ele>96.2</ele>
        <time>2022-06-08T07:46:32Z</time>
      </trkpt>
      <trkpt lat="47.8548000" lon="8.8967300">
        <ele>96.4</ele>
        <time>2022-06-08T07:46:36Z</time>
      </trkpt>
      <trkpt lat="47.8546500" lon="8.8968260">
        <ele>97.0</ele>
        <time>2022-06-08T07:46:40Z</time>
      </trkpt>
      <trkpt lat="47.8545160" lon="8.8969360">
        <ele>97.0</ele>
        <time>2022-06-08T07:46:44Z</time>
      </trkpt>
      <trkpt lat="47.8543860" lon="8.8970560">
        <ele>97.4</ele>
        <time>2022-06-08T07:46:48Z</time>
      </trkpt>
      <trkpt lat="47.8542510" lon="8.8971780">
        <ele>97.4</ele>
        <time>2022-06-08T07:46:52Z</time>
      </trkpt>
      <trkpt lat="47.8541150" lon="8.8973030">
        <ele>96.6</ele>
        <time>2022-06-08T07:46:56Z</time>
      </trkpt>
      <trkpt lat="47.8539850" lon="8.8974250">
        <ele>97.0</ele>
        <time>2022-06-08T07:47:00Z</time>
      </trkpt>
      <trkpt lat="47.8538610" lon="8.8975530">
        <ele>97.6</ele>
        <time>2022-06-08T07:47:04Z</time>
      </trkpt>
      <trkpt lat="47.8537360" lon="8.8976710">
        <ele>98.4</ele>
        <time>2022-06-08T07:47:08Z</time>
      </trkpt>
      <trkpt lat="47.8536110" lon="8.8977800">
        <ele>97.4</ele>
        <time>2022-06-08T07:47:12Z</time>
      </trkpt>
      <trkpt lat="47.8534860" lon="8.8978830">
        <ele>98.4</ele>
        <time>2022-06-08T07:47:16Z</time>
      </trkpt>
      <trkpt lat="47.8533630" lon="8.8979850">
        <ele>99.4</ele>
        <time>2022-06-08T07:47:20Z</time>
      </trkpt>
      <trkpt lat="47.8532410" lon="8.8980780">
        <ele>100.0</ele>
        <time>2022-06-08T07:47:24Z</time>
      </trkpt>
      <trkpt lat="47.8531360" lon="8.8981550">
        <ele>101.0</ele>
        <time>2022-06-08T07:47:28Z</time>
      </trkpt>
      <trkpt lat="47.8530230" lon="8.8982230">
        <ele>102.2</ele>
        <time>2022-06-08T07:47:32Z</time>
      </trkpt>
      <trkpt lat="47.8529100" lon="8.8982730">
        <ele>103.0</ele>
        <time>2022-06-08T07:47:36Z</time>
      </trkpt>
      <trkpt lat="47.8527930" lon="8.8983180">
        <ele>103.6</ele>
        <time>2022-06-08T07:47:40Z</time>
      </trkpt>
      <trkpt lat="47.8526780" lon="8.8983460">
        <ele>103.8</ele>
        <time>2022-06-08T07:47:44Z</time>
      </trkpt>
      <trkpt lat="47.8525660" lon="8.8983600">
        <ele>104.8</ele>
        <time>2022-06-08T07:47:48Z</time>
      </trkpt>
      <trkpt lat="47.8524510" lon="8.8983680">
        <ele>105.6</ele>
        <time>2022-06-08T07:47:52Z</time>
      </trkpt>
      <trkpt lat="47.8523360" lon="8.8983710">
        <ele>106.6</ele>
        <time>2022-06-08T07:47:56Z</time>
      </trkpt>
      <trkpt lat="47.8522310" lon="8.8983680">
        <ele>107.2</ele>
        <time>2022-06-08T07:48:00Z</time>
      </trkpt>
      <trkpt lat="47.8521280" lon="8.8983580">
        <ele>108.0</ele>
        <time>2022-06-08T07:48:04Z</time>
      </trkpt>
      <trkpt lat="47.8520300" lon="8.8983530">
        <ele>109.2</ele>
        <time>2022-06-08T07:48:08Z</time>
      </trkpt>
      <trkpt lat="47.8519480" lon="8.8983610">
        <ele>109.8</ele>
        <time>2022-06-08T07:48:12Z</time>
      </trkpt>
      <trkpt lat="47.8518550" lon="8.8983530">
        <ele>111.0</ele>
        <time>2022-06-08T07:48:16Z</time>
      </trkpt>
      <trkpt lat="47.8517600" lon="8.8983500">
        <ele>111.8</ele>
        <time>2022-06-08T07:48:20Z</time>
      </trkpt>
      <trkpt lat="47.8516560" lon="8.8983500">
        <ele>112.8</ele>
        <time>2022-06-08T07:48:24Z</time>
      </trkpt>
      <trkpt lat="47.8515560" lon="8.8983650">
        <ele>113.8</ele>
        <time>2022-06-08T07:48:28Z</time>
      </trkpt>
      <trkpt lat="47.8514630" lon="8.8983800">
        <ele>114.6</ele>
        <time>2022-06-08T07:48:32Z</time>
      </trkpt>
      <trkpt lat="47.8513730" lon="8.8984000">
        <ele>115.6</ele>
        <time>2022-06-08T07:48:36Z</time>
      </trkpt>
      <trkpt lat="47.8512830" lon="8.8984130">
        <ele>116.0</ele>
        <time>2022-06-08T07:48:40Z</time>
      </trkpt>
      <trkpt lat="47.8511930" lon="8.8984560">
        <ele>117.4</ele>
        <time>2022-06-08T07:48:44Z</time>
      </trkpt>
      <trkpt lat="47.8511060" lon="8.8984800">
        <ele>117.8</ele>
        <time>2022-06-08T07:48:48Z</time>
      </trkpt>
      <trkpt lat="47.8510250" lon="8.8985310">
        <ele>118.6</ele>
        <time>2022-06-08T07:48:52Z</time>
      </trkpt>
      <trkpt lat="47.8509350" lon="8.8985760">
        <ele>119.2</ele>
        <time>2022-06-08T07:48:56Z</time>
      </trkpt>
      <trkpt lat="47.8508430" lon="8.8986310">
        <ele>119.8</ele>
        <time>2022-06-08T07:49:00Z</time>
      </trkpt>
      <trkpt lat="47.8507510" lon="8.8987030">
        <ele>120.6</ele>
        <time>2022-06-08T07:49:04Z</time>
      </trkpt>
      <trkpt lat="47.8506580" lon="8.8987650">
        <ele>121.4</ele>
        <time>2022-06-08T07:49:08Z</time>
      </trkpt>
      <trkpt lat="47.8505610" lon="8.8988330">
        <ele>121.4</ele>
        <time>2022-06-08T07:49:12Z</time>
      </trkpt>
      <trkpt lat="47.8504600" lon="8.8989080">
        <ele>121.8</ele>
        <time>2022-06-08T07:49:16Z</time>
      </trkpt>
      <trkpt lat="47.8503560" lon="8.8989830">
        <ele>122.2</ele>
        <time>2022-06-08T07:49:20Z</time>
      </trkpt>
      <trkpt lat="47.8502400" lon="8.8990650">
        <ele>122.4</ele>
        <time>2022-06-08T07:49:24Z</time>
      </trkpt>
      <trkpt lat="47.8501180" lon="8.8991530">
        <ele>122.0</ele>
        <time>2022-06-08T07:49:28Z</time>
      </trkpt>
      <trkpt lat="47.8499900" lon="8.8992350">
        <ele>121.8</ele>
        <time>2022-06-08T07:49:32Z</time>
      </trkpt>
      <trkpt lat="47.8498610" lon="8.8993250">
        <ele>122.0</ele>
        <time>2022-06-08T07:49:36Z</time>
      </trkpt>
      <trkpt lat="47.8497260" lon="8.8994150">
        <ele>122.2</ele>
        <time>2022-06-08T07:49:40Z</time>
      </trkpt>
      <trkpt lat="47.8495910" lon="8.8995200">
        <ele>122.4</ele>
        <time>2022-06-08T07:49:44Z</time>
      </trkpt>
      <trkpt lat="47.8494580" lon="8.8996100">
        <ele>122.4</ele>
        <time>2022-06-08T07:49:48Z</time>
      </trkpt>
      <trkpt lat="47.8493260" lon="8.8996730">
        <ele>122.0</ele>
        <time>2022-06-08T07:49:52Z</time>
      </trkpt>
      <trkpt lat="47.8491960" lon="8.8997080">
        <ele>122.4</ele>
        <time>2022-06-08T07:49:56Z</time>
      </trkpt>
      <trkpt lat="47.8490460" lon="8.8997050">
        <ele>121.8</ele>
        <time>2022-06-08T07:50:00Z</time>
      </trkpt>
      <trkpt lat="47.8488330" lon="8.8996610">
        <ele>118.6</ele>
        <time>2022-06-08T07:50:04Z</time>
      </trkpt>
      <trkpt lat="47.8485330" lon="8.8996660">
        <ele>114.2</ele>
        <time>2022-06-08T07:50:08Z</time>
      </trkpt>
      <trkpt lat="47.8481680" lon="8.8997630">
        <ele>110.2</ele>
        <time>2022-06-08T07:50:12Z</time>
      </trkpt>
      <trkpt lat="47.8478110" lon="8.8999480">
        <ele>107.4</ele>
        <time>2022-06-08T07:50:16Z</time>
      </trkpt>
      <trkpt lat="47.8474850" lon="8.9001330">
        <ele>106.2</ele>
        <time>2022-06-08T07:50:20Z</time>
      </trkpt>
      <trkpt lat="47.8471350" lon="8.9003250">
        <ele>100.4</ele>
        <time>2022-06-08T07:50:24Z</time>
      </trkpt>
      <trkpt lat="47.8467580" lon="8.9004500">
        <ele>98.6</ele>
        <time>2022-06-08T07:50:28Z</time>
      </trkpt>
      <trkpt lat="47.8463860" lon="8.9003430">
        <ele>96.4</ele>
        <time>2022-06-08T07:50:32Z</time>
      </trkpt>
      <trkpt lat="47.8459980" lon="8.9001380">
        <ele>92.4</ele>
        <time>2022-06-08T07:50:36Z</time>
      </trkpt>
      <trkpt lat="47.8453730" lon="8.9000120">
        <ele>90.8</ele>
        <time>2022-06-08T07:50:40Z</time>
      </trkpt>
      <trkpt lat="47.8451700" lon="8.9000060">
        <ele>90.4</ele>
        <time>2022-06-08T07:50:44Z</time>
      </trkpt>
      <trkpt lat="47.8448230" lon="8.9000780">
        <ele>92.2</ele>
        <time>2022-06-08T07:50:48Z</time>
      </trkpt>
      <trkpt lat="47.8445300" lon="8.9001430">
        <ele>94.0</ele>
        <time>2022-06-08T07:50:52Z</time>
      </trkpt>
      <trkpt lat="47.8442750" lon="8.9001860">
        <ele>93.8</ele>
        <time>2022-06-08T07:50:56Z</time>
      </trkpt>
      <trkpt lat="47.8440280" lon="8.9002110">
        <ele>92.4</ele>
        <time>2022-06-08T07:51:00Z</time>
      </trkpt>
      <trkpt lat="47.8437550" lon="8.9002430">
        <ele>90.4</ele>
        <time>2022-06-08T07:51:04Z</time>
      </trkpt>
      <trkpt lat="47.8434560" lon="8.9002700">
        <ele>89.4</ele>
        <time>2022-06-08T07:51:08Z</time>
      </trkpt>
      <trkpt lat="47.8431600" lon="8.9002830">
        <ele>88.8</ele>
        <time>2022-06-08T07:51:12Z</time>
      </trkpt>
      <trkpt lat="47.8428530" lon="8.9002630">
        <ele>85.8</ele>
        <time>2022-06-08T07:51:16Z</time>
      </trkpt>
      <trkpt lat="47.8425380" lon="8.9002510">
        <ele>84.4</ele>
        <time>2022-06-08T07:51:20Z</time>
      </trkpt>
      <trkpt lat="47.8422210" lon="8.9002760">
        <ele>82.2</ele>
        <time>2022-06-08T07:51:24Z</time>
      </trkpt>
      <trkpt lat="47.8419130" lon="8.9002600">
        <ele>78.2</ele>
        <time>2022-06-08T07:51:28Z</time>
      </trkpt>
      <trkpt lat="47.8416010" lon="8.9002160">
        <ele>74.4</ele>
        <time>2022-06-08T07:51:32Z</time>
      </trkpt>
      <trkpt lat="47.8413480" lon="8.9003260">
        <ele>71.0</ele>
        <time>2022-06-08T07:51:36Z</time>
      </trkpt>
      <trkpt lat="47.8413150" lon="8.9006980">
        <ele>73.0</ele>
        <time>2022-06-08T07:51:40Z</time>
      </trkpt>
      <trkpt lat="47.8413410" lon="8.9009700">
        <ele>73.0</ele>
        <time>2022-06-08T07:51:44Z</time>
      </trkpt>
      <trkpt lat="47.8413060" lon="8.9012360">
        <ele>73.4</ele>
        <time>2022-06-08T07:51:48Z</time>
      </trkpt>
      <trkpt lat="47.8412410" lon="8.9014210">
        <ele>72.8</ele>
        <time>2022-06-08T07:51:52Z</time>
      </trkpt>
      <trkpt lat="47.8411680" lon="8.9016910">
        <ele>72.0</ele>
        <time>2022-06-08T07:51:56Z</time>
      </trkpt>
      <trkpt lat="47.8411130" lon="8.9019750">
        <ele>71.8</ele>
        <time>2022-06-08T07:52:00Z</time>
      </trkpt>
      <trkpt lat="47.8410800" lon="8.9022480">
        <ele>71.2</ele>
        <time>2022-06-08T07:52:04Z</time>
      </trkpt>
      <trkpt lat="47.8410450" lon="8.9024980">
        <ele>70.8</ele>
        <time>2022-06-08T07:52:08Z</time>
      </trkpt>
      <trkpt lat="47.8409850" lon="8.9027150">
        <ele>71.2</ele>
        <time>2022-06-08T07:52:12Z</time>
      </trkpt>
      <trkpt lat="47.8408500" lon="8.9028400">
        <ele>71.6</ele>
        <time>2022-06-08T07:52:16Z</time>
      </trkpt>
      <trkpt lat="47.8407200" lon="8.9029810">
        <ele>71.6</ele>
        <time>2022-06-08T07:52:20Z</time>
      </trkpt>
      <trkpt lat="47.8406360" lon="8.9031480">
        <ele>71.2</ele>
        <time>2022-06-08T07:52:24Z</time>
      </trkpt>
      <trkpt lat="47.8405280" lon="8.9033050">
        <ele>71.8</ele>
        <time>2022-06-08T07:52:28Z</time>
      </trkpt>
      <trkpt lat="47.8404460" lon="8.9034230">
        <ele>72.4</ele>
        <time>2022-06-08T07:52:32Z</time>
      </trkpt>
      <trkpt lat="47.8403810" lon="8.9035210">
        <ele>72.6</ele>
        <time>2022-06-08T07:52:36Z</time>
      </trkpt>
      <trkpt lat="47.8403810" lon="8.9035210">
        <ele>73.0</ele>
        <time>2022-06-08T07:52:40Z</time>
      </trkpt>
      <trkpt lat="47.8403810" lon="8.9035210">
        <ele>72.2</ele>
        <time>2022-06-08T07:52:44Z</time>
      </trkpt>
      <trkpt lat="47.8403810" lon="8.9035210">
        <ele>72.8</ele>
        <time>2022-06-08T07:52:48Z</time>
      </trkpt>
      <trkpt lat="47.8403810" lon="8.9035210">
        <ele>72.6</ele>
        <time>2022-06-08T07:52:52Z</time>
      </trkpt>
      <trkpt lat="47.8403810" lon="8.9035210">
        <ele>73.2</ele>
        <time>2022-06-08T07:52:56Z</time>
      </trkpt>
      <trkpt lat="47.8403810" lon="8.9035210">
        <ele>72.4</ele>
        <time>2022-06-08T07:53:00Z</time>
      </trkpt>
      <trkpt lat="47.8403810" lon="8.9035210">
        <ele>73.0</ele>
        <time>2022-06-08T07:53:04Z</time>
      </trkpt>
      <trkpt lat="47.8403810" lon="8.9035210">
        <ele>73.0</ele>
        <time>2022-06-08T07:53:08Z</time>
      </trkpt>
      <trkpt lat="47.8403810" lon="8.9035210">
        <ele>72.8</ele>
        <time>2022-06-08T07:53:12Z</time>
      </trkpt>
      <trkpt lat="47.8403810" lon="8.9035210">
        <ele>72.8</ele>
        <time>2022-06-08T07:53:16Z</time>
      </trkpt>
      <trkpt lat="47.8403810" lon="8.9035210">
        <ele>72.8</ele>
        <time>2022-06-08T07:53:20Z</time>
      </trkpt>
      <trkpt lat="47.8403810" lon="8.9035210">
        <ele>72.6</ele>
        <time>2022-06-08T07:53:24Z</time>
      </trkpt>
      <trkpt lat="47.8403810" lon="8.9035210">
        <ele>72.8</ele>
        <time>2022-06-08T07:53:28Z</time>
      </trkpt>
      <trkpt lat="47.8403810" lon="8.9035210">
        <ele>72.8</ele>
        <time>2022-06-08T07:53:32Z</time>
      </trkpt>
      <trkpt lat="47.8403810" lon="8.9035210">
        <ele>72.8</ele>
        <time>2022-06-08T07:53:36Z</time>
      </trkpt>
      <trkpt lat="47.8403810" lon="8.9035210">
        <ele>72.6</ele>
        <time>2022-06-08T07:53:40Z</time>
      </trkpt>
      <trkpt lat="47.8403810" lon="8.9035210">
        <ele>72.4</ele>
        <time>2022-06-08T07:53:44Z</time>
      </trkpt>
      <trkpt lat="47.8403180" lon="8.9036200">
        <ele>72.8</ele>
        <time>2022-06-08T07:53:48Z</time>
      </trkpt>
      <trkpt lat="47.8403010" lon="8.9036830">
        <ele>72.6</ele>
        <time>2022-06-08T07:53:52Z</time>
      </trkpt>
      <trkpt lat="47.8402680" lon="8.9037460">
        <ele>73.2</ele>
        <time>2022-06-08T07:53:56Z</time>
      </trkpt>
      <trkpt lat="47.8402360" lon="8.9038210">
        <ele>73.6</ele>
        <time>2022-06-08T07:54:00Z</time>
      </trkpt>
      <trkpt lat="47.8402130" lon="8.9039050">
        <ele>74.6</ele>
        <time>2022-06-08T07:54:04Z</time>
      </trkpt>
      <trkpt lat="47.8401760" lon="8.9039980">
        <ele>75.6</ele>
        <time>2022-06-08T07:54:08Z</time>
      </trkpt>
      <trkpt lat="47.8401300" lon="8.9040680">
        <ele>76.2</ele>
        <time>2022-06-08T07:54:12Z</time>
      </trkpt>
      <trkpt lat="47.8400810" lon="8.9041110">
        <ele>76.6</ele>
        <time>2022-06-08T07:54:16Z</time>
      </trkpt>
      <trkpt lat="47.8400260" lon="8.9041660">
        <ele>76.8</ele>
        <time>2022-06-08T07:54:20Z</time>
      </trkpt>
      <trkpt lat="47.8399650" lon="8.9042400">
        <ele>77.8</ele>
        <time>2022-06-08T07:54:24Z</time>
      </trkpt>
      <trkpt lat="47.8399060" lon="8.9043210">
        <ele>79.0</ele>
        <time>2022-06-08T07:54:28Z</time>
      </trkpt>
      <trkpt lat="47.8398610" lon="8.9043960">
        <ele>79.8</ele>
        <time>2022-06-08T07:54:32Z</time>
      </trkpt>
      <trkpt lat="47.8398200" lon="8.9044850">
        <ele>80.8</ele>
        <time>2022-06-08T07:54:36Z</time>
      </trkpt>
      <trkpt lat="47.8397960" lon="8.9045600">
        <ele>81.6</ele>
        <time>2022-06-08T07:54:40Z</time>
      </trkpt>
      <trkpt lat="47.8397850" lon="8.9046510">
        <ele>82.4</ele>
        <time>2022-06-08T07:54:44Z</time>
      </trkpt>
      <trkpt lat="47.8397950" lon="8.9047430">
        <ele>83.0</ele>
        <time>2022-06-08T07:54:48Z</time>
      </trkpt>
      <trkpt lat="47.8398060" lon="8.9048460">
        <ele>83.8</ele>
        <time>2022-06-08T07:54:52Z</time>
      </trkpt>
      <trkpt lat="47.8397960" lon="8.9049330">
        <ele>84.8</ele>
        <time>2022-06-08T07:54:56Z</time>
      </trkpt>
      <trkpt lat="47.8398050" lon="8.9050200">
        <ele>85.8</ele>
        <time>2022-06-08T07:55:00Z</time>
      </trkpt>
      <trkpt lat="47.8397980" lon="8.9050930">
        <ele>86.0</ele>
        <time>2022-06-08T07:55:04Z</time>
      </trkpt>
      <trkpt lat="47.8398130" lon="8.9051780">
        <ele>86.6</ele>
        <time>2022-06-08T07:55:08Z</time>
      </trkpt>
      <trkpt lat="47.8398460" lon="8.9052610">
        <ele>87.4</ele>
        <time>2022-06-08T07:55:12Z</time>
      </trkpt>
      <trkpt lat="47.8398850" lon="8.9053500">
        <ele>88.0</ele>
        <time>2022-06-08T07:55:16Z</time>
      </trkpt>
      <trkpt lat="47.8399110" lon="8.9054350">
        <ele>89.4</ele>
        <time>2022-06-08T07:55:20Z</time>
      </trkpt>
      <trkpt lat="47.8399530" lon="8.9055030">
        <ele>90.0</ele>
        <time>2022-06-08T07:55:24Z</time>
      </trkpt>
      <trkpt lat="47.8399810" lon="8.9055650">
        <ele>91.0</ele>
        <time>2022-06-08T07:55:28Z</time>
      </trkpt>
      <trkpt lat="47.8400310" lon="8.9056400">
        <ele>91.6</ele>
        <time>2022-06-08T07:55:32Z</time>
      </trkpt>
      <trkpt lat="47.8400760" lon="8.9057100">
        <ele>92.8</ele>
        <time>2022-06-08T07:55:36Z</time>
      </trkpt>
      <trkpt lat="47.8401080" lon="8.9057650">
        <ele>93.6</ele>
        <time>2022-06-08T07:55:40Z</time>
      </trkpt>
      <trkpt lat="47.8401480" lon="8.9058350">
        <ele>94.6</ele>
        <time>2022-06-08T07:55:44Z</time>
      </trkpt>
      <trkpt lat="47.8401730" lon="8.9059000">
        <ele>95.0</ele>
        <time>2022-06-08T07:55:48Z</time>
      </trkpt>
      <trkpt lat="47.8401950" lon="8.9059700">
        <ele>96.2</ele>
        <time>2022-06-08T07:55:52Z</time>
      </trkpt>
      <trkpt lat="47.8401900" lon="8.9060530">
        <ele>96.8</ele>
        <time>2022-06-08T07:55:56Z</time>
      </trkpt>
      <trkpt lat="47.8401480" lon="8.9061580">
        <ele>96.8</ele>
        <time>2022-06-08T07:56:00Z</time>
      </trkpt>
      <trkpt lat="47.8401210" lon="8.9062260">
        <ele>97.2</ele>
        <time>2022-06-08T07:56:04Z</time>
      </trkpt>
      <trkpt lat="47.8401210" lon="8.9063180">
        <ele>97.4</ele>
        <time>2022-06-08T07:56:08Z</time>
      </trkpt>
      <trkpt lat="47.8401410" lon="8.9064310">
        <ele>98.0</ele>
        <time>2022-06-08T07:56:12Z</time>
      </trkpt>
      <trkpt lat="47.8401850" lon="8.9065260">
        <ele>98.0</ele>
        <time>2022-06-08T07:56:16Z</time>
      </trkpt>
      <trkpt lat="47.8402060" lon="8.9066510">
        <ele>98.6</ele>
        <time>2022-06-08T07:56:20Z</time>
      </trkpt>
      <trkpt lat="47.8402500" lon="8.9067600">
        <ele>99.0</ele>
        <time>2022-06-08T07:56:24Z</time>
      </trkpt>
      <trkpt lat="47.8402930" lon="8.9068560">
        <ele>100.0</ele>
        <time>2022-06-08T07:56:28Z</time>
      </trkpt>
      <trkpt lat="47.8403330" lon="8.9069500">
        <ele>100.6</ele>
        <time>2022-06-08T07:56:32Z</time>
      </trkpt>
      <trkpt lat="47.8403800" lon="8.9070260">
        <ele>101.6</ele>
        <time>2022-06-08T07:56:36Z</time>
      </trkpt>
      <trkpt lat="47.8404060" lon="8.9071180">
        <ele>102.4</ele>
        <time>2022-06-08T07:56:40Z</time>
      </trkpt>
      <trkpt lat="47.8404150" lon="8.9072080">
        <ele>103.6</ele>
        <time>2022-06-08T07:56:44Z</time>
      </trkpt>
      <trkpt lat="47.8404360" lon="8.9073000">
        <ele>104.6</ele>
        <time>2022-06-08T07:56:48Z</time>
      </trkpt>
      <trkpt lat="47.8404580" lon="8.9073880">
        <ele>105.0</ele>
        <time>2022-06-08T07:56:52Z</time>
      </trkpt>
      <trkpt lat="47.8404730" lon="8.9074630">
        <ele>106.2</ele>
        <time>2022-06-08T07:56:56Z</time>
      </trkpt>
      <trkpt lat="47.8405030" lon="8.9075350">
        <ele>107.0</ele>
        <time>2022-06-08T07:57:00Z</time>
      </trkpt>
      <trkpt lat="47.8405180" lon="8.9076260">
        <ele>107.6</ele>
        <time>2022-06-08T07:57:04Z</time>
      </trkpt>
      <trkpt lat="47.8405300" lon="8.9077360">
        <ele>107.8</ele>
        <time>2022-06-08T07:57:08Z</time>
      </trkpt>
      <trkpt lat="47.8405550" lon="8.9078510">
        <ele>109.0</ele>
        <time>2022-06-08T07:57:12Z</time>
      </trkpt>
      <trkpt lat="47.8405630" lon="8.9079580">
        <ele>109.6</ele>
        <time>2022-06-08T07:57:16Z</time>
      </trkpt>
      <trkpt lat="47.8405730" lon="8.9080710">
        <ele>110.6</ele>
        <time>2022-06-08T07:57:20Z</time>
      </trkpt>
      <trkpt lat="47.8405860" lon="8.9081880">
        <ele>111.0</ele>
        <time>2022-06-08T07:57:24Z</time>
      </trkpt>
      <trkpt lat="47.8405860" lon="8.9083080">
        <ele>111.6</ele>
        <time>2022-06-08T07:57:28Z</time>
      </trkpt>
      <trkpt lat="47.8405850" lon="8.9084380">
        <ele>112.6</ele>
        <time>2022-06-08T07:57:32Z</time>
      </trkpt>
      <trkpt lat="47.8405830" lon="8.9085760">
        <ele>112.8</ele>
        <time>2022-06-08T07:57:36Z</time>
      </trkpt>
      <trkpt lat="47.8405710" lon="8.9087200">
        <ele>113.2</ele>
        <time>2022-06-08T07:57:40Z</time>
      </trkpt>
      <trkpt lat="47.8405350" lon="8.9088930">
        <ele>114.2</ele>
        <time>2022-06-08T07:57:44Z</time>
      </trkpt>
      <trkpt lat="47.8404750" lon="8.9090600">
        <ele>114.2</ele>
        <time>2022-06-08T07:57:48Z</time>
      </trkpt>
      <trkpt lat="47.8404030" lon="8.9092450">
        <ele>114.4</ele>
        <time>2022-06-08T07:57:52Z</time>
      </trkpt>
      <trkpt lat="47.8403380" lon="8.9094350">
        <ele>115.0</ele>
        <time>2022-06-08T07:57:56Z</time>
      </trkpt>
      <trkpt lat="47.8402560" lon="8.9095980">
        <ele>114.6</ele>
        <time>2022-06-08T07:58:00Z</time>
      </trkpt>
      <trkpt lat="47.8401850" lon="8.9097730">
        <ele>114.0</ele>
        <time>2022-06-08T07:58:04Z</time>
      </trkpt>
      <trkpt lat="47.8400910" lon="8.9099650">
        <ele>113.8</ele>
        <time>2022-06-08T07:58:08Z</time>
      </trkpt>
      <trkpt lat="47.8400050" lon="8.9101880">
        <ele>113.6</ele>
        <time>2022-06-08T07:58:12Z</time>
      </trkpt>
      <trkpt lat="47.8399030" lon="8.9104310">
        <ele>112.0</ele>
        <time>2022-06-08T07:58:16Z</time>
      </trkpt>
      <trkpt lat="47.8397910" lon="8.9107300">
        <ele>111.0</ele>
        <time>2022-06-08T07:58:20Z</time>
      </trkpt>
      <trkpt lat="47.8396810" lon="8.9111030">
        <ele>109.2</ele>
        <time>2022-06-08T07:58:24Z</time>
      </trkpt>
      <trkpt lat="47.8395960" lon="8.9115300">
        <ele>109.0</ele>
        <time>2022-06-08T07:58:28Z</time>
      </trkpt>
      <trkpt lat="47.8395300" lon="8.9120130">
        <ele>105.8</ele>
        <time>2022-06-08T07:58:32Z</time>
      </trkpt>
      <trkpt lat="47.8394460" lon="8.9125630">
        <ele>103.0</ele>
        <time>2022-06-08T07:58:36Z</time>
      </trkpt>
      <trkpt lat="47.8393180" lon="8.9131660">
        <ele>100.0</ele>
        <time>2022-06-08T07:58:40Z</time>
      </trkpt>
      <trkpt lat="47.8391410" lon="8.9137680">
        <ele>95.0</ele>
        <time>2022-06-08T07:58:44Z</time>
      </trkpt>
      <trkpt lat="47.8389480" lon="8.9143000">
        <ele>91.0</ele>
        <time>2022-06-08T07:58:48Z</time>
      </trkpt>
      <trkpt lat="47.8387480" lon="8.9148030">
        <ele>90.8</ele>
        <time>2022-06-08T07:58:52Z</time>
      </trkpt>
      <trkpt lat="47.8384850" lon="8.9152560">
        <ele>88.2</ele>
        <time>2022-06-08T07:58:56Z</time>
      </trkpt>
      <trkpt lat="47.8383280" lon="8.9157560">
        <ele>82.4</ele>
        <time>2022-06-08T07:59:00Z</time>
      </trkpt>
      <trkpt lat="47.8384730" lon="8.9163210">
        <ele>79.8</ele>
        <time>2022-06-08T07:59:04Z</time>
      </trkpt>
      <trkpt lat="47.8386830" lon="8.9168460">
        <ele>75.8</ele>
        <time>2022-06-08T07:59:08Z</time>
      </trkpt>
      <trkpt lat="47.8387950" lon="8.9173700">
        <ele>76.0</ele>
        <time>2022-06-08T07:59:12Z</time>
      </trkpt>
      <trkpt lat="47.8388360" lon="8.9179330">
        <ele>74.8</ele>
        <time>2022-06-08T07:59:16Z</time>
      </trkpt>
      <trkpt lat="47.8388800" lon="8.9184850">
        <ele>72.0</ele>
        <time>2022-06-08T07:59:20Z</time>
      </trkpt>
      <trkpt lat="47.8389200" lon="8.9190050">
        <ele>72.2</ele>
        <time>2022-06-08T07:59:24Z</time>
      </trkpt>
      <trkpt lat="47.8389560" lon="8.9194760">
        <ele>71.4</ele>
        <time>2022-06-08T07:59:28Z</time>
      </trkpt>
      <trkpt lat="47.8389950" lon="8.9199110">
        <ele>70.2</ele>
        <time>2022-06-08T07:59:32Z</time>
      </trkpt>
      <trkpt lat="47.8390300" lon="8.9203110">
        <ele>70.6</ele>
        <time>2022-06-08T07:59:36Z</time>
      </trkpt>
      <trkpt lat="47.8390510" lon="8.9206830">
        <ele>70.8</ele>
        <time>2022-06-08T07:59:40Z</time>
      </trkpt>
      <trkpt lat="47.8390660" lon="8.9210130">
        <ele>71.0</ele>
        <time>2022-06-08T07:59:44Z</time>
      </trkpt>
      <trkpt lat="47.8390710" lon="8.9213100">
        <ele>71.2</ele>
        <time>2022-06-08T07:59:48Z</time>
      </trkpt>
      <trkpt lat="47.8390580" lon="8.9215880">
        <ele>72.0</ele>
        <time>2022-06-08T07:59:52Z</time>
      </trkpt>
      <trkpt lat="47.8390480" lon="8.9218430">
        <ele>73.0</ele>
        <time>2022-06-08T07:59:56Z</time>
      </trkpt>
      <trkpt lat="47.8390310" lon="8.9220750">
        <ele>73.8</ele>
        <time>2022-06-08T08:00:00Z</time>
      </trkpt>
      <trkpt lat="47.8390100" lon="8.9222960">
        <ele>75.0</ele>
        <time>2022-06-08T08:00:04Z</time>
      </trkpt>
      <trkpt lat="47.8389880" lon="8.9225150">
        <ele>76.2</ele>
        <time>2022-06-08T08:00:08Z</time>
      </trkpt>
      <trkpt lat="47.8389580" lon="8.9227330">
        <ele>76.8</ele>
        <time>2022-06-08T08:00:12Z</time>
      </trkpt>
      <trkpt lat="47.8389230" lon="8.9229460">
        <ele>76.6</ele>
        <time>2022-06-08T08:00:16Z</time>
      </trkpt>
      <trkpt lat="47.8388830" lon="8.9231600">
        <ele>76.6</ele>
        <time>2022-06-08T08:00:20Z</time>
      </trkpt>
      <trkpt lat="47.8388400" lon="8.9233800">
        <ele>76.6</ele>
        <time>2022-06-08T08:00:24Z</time>
      </trkpt>
      <trkpt lat="47.8387860" lon="8.9236110">
        <ele>76.2</ele>
        <time>2022-06-08T08:00:28Z</time>
      </trkpt>
      <trkpt lat="47.8387230" lon="8.9238730">
        <ele>75.6</ele>
        <time>2022-06-08T08:00:32Z</time>
      </trkpt>
      <trkpt lat="47.8386380" lon="8.9241860">
        <ele>74.8</ele>
        <time>2022-06-08T08:00:36Z</time>
      </trkpt>
      <trkpt lat="47.8385330" lon="8.9245410">
        <ele>73.8</ele>
        <time>2022-06-08T08:00:40Z</time>
      </trkpt>
      <trkpt lat="47.8384150" lon="8.9249210">
        <ele>72.8</ele>
        <time>2022-06-08T08:00:44Z</time>
      </trkpt>
      <trkpt lat="47.8383000" lon="8.9252950">
        <ele>72.2</ele>
        <time>2022-06-08T08:00:48Z</time>
      </trkpt>
      <trkpt lat="47.8381960" lon="8.9256400">
        <ele>71.8</ele>
        <time>2022-06-08T08:00:52Z</time>
      </trkpt>
      <trkpt lat="47.8381000" lon="8.9259510">
        <ele>70.8</ele>
        <time>2022-06-08T08:00:56Z</time>
      </trkpt>
      <trkpt lat="47.8380130" lon="8.9262510">
        <ele>71.8</ele>
        <time>2022-06-08T08:01:00Z</time>
      </trkpt>
      <trkpt lat="47.8379160" lon="8.9265510">
        <ele>71.4</ele>
        <time>2022-06-08T08:01:04Z</time>
      </trkpt>
      <trkpt lat="47.8377930" lon="8.9268560">
        <ele>69.6</ele>
        <time>2022-06-08T08:01:08Z</time>
      </trkpt>
      <trkpt lat="47.8376780" lon="8.9271510">
        <ele>69.6</ele>
        <time>2022-06-08T08:01:12Z</time>
      </trkpt>
      <trkpt lat="47.8375730" lon="8.9274410">
        <ele>70.4</ele>
        <time>2022-06-08T08:01:16Z</time>
      </trkpt>
      <trkpt lat="47.8374530" lon="8.9277160">
        <ele>70.0</ele>
        <time>2022-06-08T08:01:20Z</time>
      </trkpt>
      <trkpt lat="47.8373580" lon="8.9279780">
        <ele>70.8</ele>
        <time>2022-06-08T08:01:24Z</time>
      </trkpt>
      <trkpt lat="47.8372680" lon="8.9282100">
        <ele>70.4</ele>
        <time>2022-06-08T08:01:28Z</time>
      </trkpt>
      <trkpt lat="47.8372250" lon="8.9284410">
        <ele>71.0</ele>
        <time>2022-06-08T08:01:32Z</time>
      </trkpt>
      <trkpt lat="47.8371950" lon="8.9286860">
        <ele>71.2</ele>
        <time>2022-06-08T08:01:36Z</time>
      </trkpt>
      <trkpt lat="47.8371710" lon="8.9288800">
        <ele>71.4</ele>
        <time>2022-06-08T08:01:40Z</time>
      </trkpt>
      <trkpt lat="47.8371600" lon="8.9289310">
        <ele>71.6</ele>
        <time>2022-06-08T08:01:44Z</time>
      </trkpt>
      <trkpt lat="47.8371280" lon="8.9290500">
        <ele>71.2</ele>
        <time>2022-06-08T08:01:48Z</time>
      </trkpt>
      <trkpt lat="47.8371100" lon="8.9292550">
        <ele>71.2</ele>
        <time>2022-06-08T08:01:52Z</time>
      </trkpt>
      <trkpt lat="47.8370580" lon="8.9294660">
        <ele>71.0</ele>
        <time>2022-06-08T08:01:56Z</time>
      </trkpt>
      <trkpt lat="47.8369600" lon="8.9296610">
        <ele>70.8</ele>
        <time>2022-06-08T08:02:00Z</time>
      </trkpt>
      <trkpt lat="47.8368510" lon="8.9298610">
        <ele>70.6</ele>
        <time>2022-06-08T08:02:04Z</time>
      </trkpt>
      <trkpt lat="47.8367250" lon="8.9300610">
        <ele>71.4</ele>
        <time>2022-06-08T08:02:08Z</time>
      </trkpt>
      <trkpt lat="47.8366030" lon="8.9302560">
        <ele>72.0</ele>
        <time>2022-06-08T08:02:12Z</time>
      </trkpt>
      <trkpt lat="47.8364600" lon="8.9304230">
        <ele>71.4</ele>
        <time>2022-06-08T08:02:16Z</time>
      </trkpt>
      <trkpt lat="47.8363300" lon="8.9306200">
        <ele>71.2</ele>
        <time>2022-06-08T08:02:20Z</time>
      </trkpt>
      <trkpt lat="47.8362180" lon="8.9308280">
        <ele>71.4</ele>
        <time>2022-06-08T08:02:24Z</time>
      </trkpt>
      <trkpt lat="47.8361060" lon="8.9310350">
        <ele>70.8</ele>
        <time>2022-06-08T08:02:28Z</time>
      </trkpt>
      <trkpt lat="47.8360010" lon="8.9312650">
        <ele>69.6</ele>
        <time>2022-06-08T08:02:32Z</time>
      </trkpt>
      <trkpt lat="47.8358930" lon="8.9315130">
        <ele>70.0</ele>
        <time>2022-06-08T08:02:36Z</time>
      </trkpt>
      <trkpt lat="47.8357960" lon="8.9317680">
        <ele>69.2</ele>
        <time>2022-06-08T08:02:40Z</time>
      </trkpt>
      <trkpt lat="47.8357030" lon="8.9320260">
        <ele>69.2</ele>
        <time>2022-06-08T08:02:44Z</time>
      </trkpt>
      <trkpt lat="47.8356180" lon="8.9322800">
        <ele>68.8</ele>
        <time>2022-06-08T08:02:48Z</time>
      </trkpt>
      <trkpt lat="47.8355280" lon="8.9325150">
        <ele>68.2</ele>
        <time>2022-06-08T08:02:52Z</time>
      </trkpt>
      <trkpt lat="47.8354730" lon="8.9327400">
        <ele>67.8</ele>
        <time>2022-06-08T08:02:56Z</time>
      </trkpt>
      <trkpt lat="47.8354400" lon="8.9329710">
        <ele>67.8</ele>
        <time>2022-06-08T08:03:00Z</time>
      </trkpt>
      <trkpt lat="47.8353780" lon="8.9332000">
        <ele>68.2</ele>
        <time>2022-06-08T08:03:04Z</time>
      </trkpt>
      <trkpt lat="47.8353030" lon="8.9334460">
        <ele>68.0</ele>
        <time>2022-06-08T08:03:08Z</time>
      </trkpt>
      <trkpt lat="47.8352130" lon="8.9336710">
        <ele>68.4</ele>
        <time>2022-06-08T08:03:12Z</time>
      </trkpt>
      <trkpt lat="47.8351280" lon="8.9339050">
        <ele>68.2</ele>
        <time>2022-06-08T08:03:16Z</time>
      </trkpt>
      <trkpt lat="47.8350530" lon="8.9341480">
        <ele>68.4</ele>
        <time>2022-06-08T08:03:20Z</time>
      </trkpt>
      <trkpt lat="47.8349560" lon="8.9343860">
        <ele>68.8</ele>
        <time>2022-06-08T08:03:24Z</time>
      </trkpt>
      <trkpt lat="47.8348560" lon="8.9346210">
        <ele>69.0</ele>
        <time>2022-06-08T08:03:28Z</time>
      </trkpt>
      <trkpt lat="47.8347250" lon="8.9348280">
        <ele>69.0</ele>
        <time>2022-06-08T08:03:32Z</time>
      </trkpt>
      <trkpt lat="47.8345830" lon="8.9350130">
        <ele>68.6</ele>
        <time>2022-06-08T08:03:36Z</time>
      </trkpt>
      <trkpt lat="47.8344350" lon="8.9351810">
        <ele>68.8</ele>
        <time>2022-06-08T08:03:40Z</time>
      </trkpt>
      <trkpt lat="47.8342760" lon="8.9353260">
        <ele>69.6</ele>
        <time>2022-06-08T08:03:44Z</time>
      </trkpt>
      <trkpt lat="47.8341130" lon="8.9354580">
        <ele>70.0</ele>
        <time>2022-06-08T08:03:48Z</time>
      </trkpt>
      <trkpt lat="47.8339560" lon="8.9355910">
        <ele>70.2</ele>
        <time>2022-06-08T08:03:52Z</time>
      </trkpt>
      <trkpt lat="47.8338100" lon="8.9357180">
        <ele>70.6</ele>
        <time>2022-06-08T08:03:56Z</time>
      </trkpt>
      <trkpt lat="47.8336680" lon="8.9358830">
        <ele>70.2</ele>
        <time>2022-06-08T08:04:00Z</time>
      </trkpt>
      <trkpt lat="47.8335160" lon="8.9360310">
        <ele>71.0</ele>
        <time>2022-06-08T08:04:04Z</time>
      </trkpt>
      <trkpt lat="47.8333780" lon="8.9361880">
        <ele>71.4</ele>
        <time>2022-06-08T08:04:08Z</time>
      </trkpt>
      <trkpt lat="47.8332460" lon="8.9363430">
        <ele>71.6</ele>
        <time>2022-06-08T08:04:12Z</time>
      </trkpt>
      <trkpt lat="47.8331210" lon="8.9364980">
        <ele>71.6</ele>
        <time>2022-06-08T08:04:16Z</time>
      </trkpt>
      <trkpt lat="47.8329780" lon="8.9366150">
        <ele>73.2</ele>
        <time>2022-06-08T08:04:20Z</time>
      </trkpt>
      <trkpt lat="47.8328330" lon="8.9367230">
        <ele>72.8</ele>
        <time>2022-06-08T08:04:24Z</time>
      </trkpt>
      <trkpt lat="47.8326880" lon="8.9368010">
        <ele>73.0</ele>
        <time>2022-06-08T08:04:28Z</time>
      </trkpt>
      <trkpt lat="47.8325360" lon="8.9368380">
        <ele>72.8</ele>
        <time>2022-06-08T08:04:32Z</time>
      </trkpt>
      <trkpt lat="47.8324260" lon="8.9370080">
        <ele>73.4</ele>
        <time>2022-06-08T08:04:36Z</time>
      </trkpt>
      <trkpt lat="47.8323630" lon="8.9371960">
        <ele>73.0</ele>
        <time>2022-06-08T08:04:40Z</time>
      </trkpt>
      <trkpt lat="47.8322810" lon="8.9373360">
        <ele>73.4</ele>
        <time>2022-06-08T08:04:44Z</time>
      </trkpt>
      <trkpt lat="47.8321860" lon="8.9374510">
        <ele>73.6</ele>
        <time>2022-06-08T08:04:48Z</time>
      </trkpt>
      <trkpt lat="47.8320600" lon="8.9375800">
        <ele>73.4</ele>
        <time>2022-06-08T08:04:52Z</time>
      </trkpt>
      <trkpt lat="47.8319300" lon="8.9377050">
        <ele>73.8</ele>
        <time>2022-06-08T08:04:56Z</time>
      </trkpt>
      <trkpt lat="47.8317950" lon="8.9378360">
        <ele>73.8</ele>
        <time>2022-06-08T08:05:00Z</time>
      </trkpt>
      <trkpt lat="47.8316550" lon="8.9379780">
        <ele>74.0</ele>
        <time>2022-06-08T08:05:04Z</time>
      </trkpt>
      <trkpt lat="47.8315230" lon="8.9381100">
        <ele>74.0</ele>
        <time>2022-06-08T08:05:08Z</time>
      </trkpt>
      <trkpt lat="47.8314050" lon="8.9382250">
        <ele>74.0</ele>
        <time>2022-06-08T08:05:12Z</time>
      </trkpt>
      <trkpt lat="47.8312910" lon="8.9383300">
        <ele>74.2</ele>
        <time>2022-06-08T08:05:16Z</time>
      </trkpt>
      <trkpt lat="47.8311630" lon="8.9384450">
        <ele>74.4</ele>
        <time>2022-06-08T08:05:20Z</time>
      </trkpt>
      <trkpt lat="47.8310380" lon="8.9385600">
        <ele>74.8</ele>
        <time>2022-06-08T08:05:24Z</time>
      </trkpt>
      <trkpt lat="47.8309100" lon="8.9386760">
        <ele>74.4</ele>
        <time>2022-06-08T08:05:28Z</time>
      </trkpt>
      <trkpt lat="47.8307660" lon="8.9388060">
        <ele>74.8</ele>
        <time>2022-06-08T08:05:32Z</time>
      </trkpt>
      <trkpt lat="47.8306200" lon="8.9389460">
        <ele>74.8</ele>
        <time>2022-06-08T08:05:36Z</time>
      </trkpt>
      <trkpt lat="47.8304730" lon="8.9390850">
        <ele>74.2</ele>
        <time>2022-06-08T08:05:40Z</time>
      </trkpt>
      <trkpt lat="47.8303280" lon="8.9392110">
        <ele>74.4</ele>
        <time>2022-06-08T08:05:44Z</time>
      </trkpt>
      <trkpt lat="47.8301810" lon="8.9393450">
        <ele>74.2</ele>
        <time>2022-06-08T08:05:48Z</time>
      </trkpt>
      <trkpt lat="47.8300360" lon="8.9394760">
        <ele>74.6</ele>
        <time>2022-06-08T08:05:52Z</time>
      </trkpt>
      <trkpt lat="47.8298950" lon="8.9396060">
        <ele>74.6</ele>
        <time>2022-06-08T08:05:56Z</time>
      </trkpt>
      <trkpt lat="47.8297530" lon="8.9397110">
        <ele>74.8</ele>
        <time>2022-06-08T08:06:00Z</time>
      </trkpt>
      <trkpt lat="47.8296060" lon="8.9396860">
        <ele>75.2</ele>
        <time>2022-06-08T08:06:04Z</time>
      </trkpt>
      <trkpt lat="47.8294600" lon="8.9396630">
        <ele>74.4</ele>
        <time>2022-06-08T08:06:08Z</time>
      </trkpt>
      <trkpt lat="47.8293630" lon="8.9394860">
        <ele>74.8</ele>
        <time>2022-06-08T08:06:12Z</time>
      </trkpt>
      <trkpt lat="47.8292530" lon="8.9393110">
        <ele>74.8</ele>
        <time>2022-06-08T08:06:16Z</time>
      </trkpt>
      <trkpt lat="47.8291430" lon="8.9391260">
        <ele>74.4</ele>
        <time>2022-06-08T08:06:20Z</time>
      </trkpt>
      <trkpt lat="47.8290280" lon="8.9389450">
        <ele>75.0</ele>
        <time>2022-06-08T08:06:24Z</time>
      </trkpt>
      <trkpt lat="47.8289180" lon="8.9387710">
        <ele>75.6</ele>
        <time>2022-06-08T08:06:28Z</time>
      </trkpt>
      <trkpt lat="47.8288130" lon="8.9386030">
        <ele>75.0</ele>
        <time>2022-06-08T08:06:32Z</time>
      </trkpt>
      <trkpt lat="47.8287010" lon="8.9384280">
        <ele>75.2</ele>
        <time>2022-06-08T08:06:36Z</time>
      </trkpt>
      <trkpt lat="47.8285900" lon="8.9382500">
        <ele>75.8</ele>
        <time>2022-06-08T08:06:40Z</time>
      </trkpt>
      <trkpt lat="47.8284830" lon="8.9380810">
        <ele>76.6</ele>
        <time>2022-06-08T08:06:44Z</time>
      </trkpt>
      <trkpt lat="47.8283810" lon="8.9379150">
        <ele>76.8</ele>
        <time>2022-06-08T08:06:48Z</time>
      </trkpt>
      <trkpt lat="47.8282800" lon="8.9377580">
        <ele>78.0</ele>
        <time>2022-06-08T08:06:52Z</time>
      </trkpt>
      <trkpt lat="47.8281860" lon="8.9376010">
        <ele>79.2</ele>
        <time>2022-06-08T08:06:56Z</time>
      </trkpt>
      <trkpt lat="47.8280800" lon="8.9375210">
        <ele>79.6</ele>
        <time>2022-06-08T08:07:00Z</time>
      </trkpt>
      <trkpt lat="47.8279710" lon="8.9374800">
        <ele>79.8</ele>
        <time>2022-06-08T08:07:04Z</time>
      </trkpt>
      <trkpt lat="47.8278160" lon="8.9374860">
        <ele>80.4</ele>
        <time>2022-06-08T08:07:08Z</time>
      </trkpt>
      <trkpt lat="47.8277110" lon="8.9374560">
        <ele>80.6</ele>
        <time>2022-06-08T08:07:12Z</time>
      </trkpt>
      <trkpt lat="47.8276130" lon="8.9374810">
        <ele>81.8</ele>
        <time>2022-06-08T08:07:16Z</time>
      </trkpt>
      <trkpt lat="47.8275480" lon="8.9375510">
        <ele>83.2</ele>
        <time>2022-06-08T08:07:20Z</time>
      </trkpt>
      <trkpt lat="47.8274850" lon="8.9376530">
        <ele>83.6</ele>
        <time>2022-06-08T08:07:24Z</time>
      </trkpt>
      <trkpt lat="47.8274200" lon="8.9377650">
        <ele>84.0</ele>
        <time>2022-06-08T08:07:28Z</time>
      </trkpt>
      <trkpt lat="47.8273580" lon="8.9378880">
        <ele>84.6</ele>
        <time>2022-06-08T08:07:32Z</time>
      </trkpt>
      <trkpt lat="47.8272910" lon="8.9380130">
        <ele>85.2</ele>
        <time>2022-06-08T08:07:36Z</time>
      </trkpt>
      <trkpt lat="47.8272410" lon="8.9381510">
        <ele>85.0</ele>
        <time>2022-06-08T08:07:40Z</time>
      </trkpt>
      <trkpt lat="47.8273230" lon="8.9383100">
        <ele>84.6</ele>
        <time>2022-06-08T08:07:44Z</time>
      </trkpt>
      <trkpt lat="47.8275010" lon="8.9385230">
        <ele>83.0</ele>
        <time>2022-06-08T08:07:48Z</time>
      </trkpt>
      <trkpt lat="47.8276550" lon="8.9388880">
        <ele>81.6</ele>
        <time>2022-06-08T08:07:52Z</time>
      </trkpt>
      <trkpt lat="47.8276450" lon="8.9393710">
        <ele>78.2</ele>
        <time>2022-06-08T08:07:56Z</time>
      </trkpt>
      <trkpt lat="47.8276250" lon="8.9398730">
        <ele>77.2</ele>
        <time>2022-06-08T08:08:00Z</time>
      </trkpt>
      <trkpt lat="47.8276210" lon="8.9403660">
        <ele>76.6</ele>
        <time>2022-06-08T08:08:04Z</time>
      </trkpt>
      <trkpt lat="47.8276260" lon="8.9408310">
        <ele>73.8</ele>
        <time>2022-06-08T08:08:08Z</time>
      </trkpt>
      <trkpt lat="47.8276400" lon="8.9412700">
        <ele>74.8</ele>
        <time>2022-06-08T08:08:12Z</time>
      </trkpt>
      <trkpt lat="47.8276580" lon="8.9417030">
        <ele>74.4</ele>
        <time>2022-06-08T08:08:16Z</time>
      </trkpt>
      <trkpt lat="47.8276830" lon="8.9421210">
        <ele>72.4</ele>
        <time>2022-06-08T08:08:20Z</time>
      </trkpt>
      <trkpt lat="47.8277080" lon="8.9425250">
        <ele>73.2</ele>
        <time>2022-06-08T08:08:24Z</time>
      </trkpt>
      <trkpt lat="47.8276630" lon="8.9429010">
        <ele>72.0</ele>
        <time>2022-06-08T08:08:28Z</time>
      </trkpt>
      <trkpt lat="47.8275210" lon="8.9432050">
        <ele>72.2</ele>
        <time>2022-06-08T08:08:32Z</time>
      </trkpt>
      <trkpt lat="47.8273710" lon="8.9434660">
        <ele>74.2</ele>
        <time>2022-06-08T08:08:36Z</time>
      </trkpt>
      <trkpt lat="47.8272230" lon="8.9437050">
        <ele>74.6</ele>
        <time>2022-06-08T08:08:40Z</time>
      </trkpt>
      <trkpt lat="47.8270710" lon="8.9439410">
        <ele>74.4</ele>
        <time>2022-06-08T08:08:44Z</time>
      </trkpt>
      <trkpt lat="47.8269050" lon="8.9441500">
        <ele>74.2</ele>
        <time>2022-06-08T08:08:48Z</time>
      </trkpt>
      <trkpt lat="47.8267110" lon="8.9442310">
        <ele>75.2</ele>
        <time>2022-06-08T08:08:52Z</time>
      </trkpt>
      <trkpt lat="47.8265300" lon="8.9442480">
        <ele>75.2</ele>
        <time>2022-06-08T08:08:56Z</time>
      </trkpt>
      <trkpt lat="47.8264860" lon="8.9444730">
        <ele>75.6</ele>
        <time>2022-06-08T08:09:00Z</time>
      </trkpt>
      <trkpt lat="47.8264530" lon="8.9447350">
        <ele>75.8</ele>
        <time>2022-06-08T08:09:04Z</time>
      </trkpt>
      <trkpt lat="47.8262850" lon="8.9449050">
        <ele>75.4</ele>
        <time>2022-06-08T08:09:08Z</time>
      </trkpt>
      <trkpt lat="47.8261250" lon="8.9451010">
        <ele>75.8</ele>
        <time>2022-06-08T08:09:12Z</time>
      </trkpt>
      <trkpt lat="47.8259710" lon="8.9453310">
        <ele>76.0</ele>
        <time>2022-06-08T08:09:16Z</time>
      </trkpt>
      <trkpt lat="47.8257900" lon="8.9455680">
        <ele>75.2</ele>
        <time>2022-06-08T08:09:20Z</time>
      </trkpt>
      <trkpt lat="47.8255900" lon="8.9457910">
        <ele>74.6</ele>
        <time>2022-06-08T08:09:24Z</time>
      </trkpt>
      <trkpt lat="47.8253980" lon="8.9460000">
        <ele>74.8</ele>
        <time>2022-06-08T08:09:28Z</time>
      </trkpt>
      <trkpt lat="47.8252250" lon="8.9462500">
        <ele>74.8</ele>
        <time>2022-06-08T08:09:32Z</time>
      </trkpt>
      <trkpt lat="47.8250250" lon="8.9464860">
        <ele>73.6</ele>
        <time>2022-06-08T08:09:36Z</time>
      </trkpt>
      <trkpt lat="47.8248500" lon="8.9467650">
        <ele>72.6</ele>
        <time>2022-06-08T08:09:40Z</time>
      </trkpt>
      <trkpt lat="47.8246750" lon="8.9470080">
        <ele>72.4</ele>
        <time>2022-06-08T08:09:44Z</time>
      </trkpt>
      <trkpt lat="47.8245560" lon="8.9473150">
        <ele>72.4</ele>
        <time>2022-06-08T08:09:48Z</time>
      </trkpt>
      <trkpt lat="47.8244350" lon="8.9476180">
        <ele>71.2</ele>
        <time>2022-06-08T08:09:52Z</time>
      </trkpt>
      <trkpt lat="47.8243180" lon="8.9479400">
        <ele>72.2</ele>
        <time>2022-06-08T08:09:56Z</time>
      </trkpt>
      <trkpt lat="47.8242050" lon="8.9482580">
        <ele>71.0</ele>
        <time>2022-06-08T08:10:00Z</time>
      </trkpt>
      <trkpt lat="47.8241150" lon="8.9485630">
        <ele>70.2</ele>
        <time>2022-06-08T08:10:04Z</time>
      </trkpt>
      <trkpt lat="47.8240260" lon="8.9488660">
        <ele>70.4</ele>
        <time>2022-06-08T08:10:08Z</time>
      </trkpt>
      <trkpt lat="47.8239380" lon="8.9491680">
        <ele>69.8</ele>
        <time>2022-06-08T08:10:12Z</time>
      </trkpt>
      <trkpt lat="47.8238400" lon="8.9494660">
        <ele>69.6</ele>
        <time>2022-06-08T08:10:16Z</time>
      </trkpt>
      <trkpt lat="47.8237230" lon="8.9497810">
        <ele>68.2</ele>
        <time>2022-06-08T08:10:20Z</time>
      </trkpt>
      <trkpt lat="47.8235960" lon="8.9500650">
        <ele>68.6</ele>
        <time>2022-06-08T08:10:24Z</time>
      </trkpt>
      <trkpt lat="47.8234680" lon="8.9503250">
        <ele>69.6</ele>
        <time>2022-06-08T08:10:28Z</time>
      </trkpt>
      <trkpt lat="47.8233250" lon="8.9505660">
        <ele>68.6</ele>
        <time>2022-06-08T08:10:32Z</time>
      </trkpt>
      <trkpt lat="47.8231660" lon="8.9507980">
        <ele>68.8</ele>
        <time>2022-06-08T08:10:36Z</time>
      </trkpt>
      <trkpt lat="47.8230030" lon="8.9510430">
        <ele>68.2</ele>
        <time>2022-06-08T08:10:40Z</time>
      </trkpt>
      <trkpt lat="47.8228460" lon="8.9513000">
        <ele>68.2</ele>
        <time>2022-06-08T08:10:44Z</time>
      </trkpt>
      <trkpt lat="47.8227150" lon="8.9515480">
        <ele>68.2</ele>
        <time>2022-06-08T08:10:48Z</time>
      </trkpt>
      <trkpt lat="47.8225980" lon="8.9517950">
        <ele>68.4</ele>
        <time>2022-06-08T08:10:52Z</time>
      </trkpt>
      <trkpt lat="47.8224800" lon="8.9520200">
        <ele>69.4</ele>
        <time>2022-06-08T08:10:56Z</time>
      </trkpt>
      <trkpt lat="47.8223480" lon="8.9522610">
        <ele>69.6</ele>
        <time>2022-06-08T08:11:00Z</time>
      </trkpt>
      <trkpt lat="47.8222350" lon="8.9525230">
        <ele>69.4</ele>
        <time>2022-06-08T08:11:04Z</time>
      </trkpt>
      <trkpt lat="47.8221130" lon="8.9527460">
        <ele>69.0</ele>
        <time>2022-06-08T08:11:08Z</time>
      </trkpt>
      <trkpt lat="47.8219960" lon="8.9529710">
        <ele>68.0</ele>
        <time>2022-06-08T08:11:12Z</time>
      </trkpt>
      <trkpt lat="47.8218780" lon="8.9532160">
        <ele>68.8</ele>
        <time>2022-06-08T08:11:16Z</time>
      </trkpt>
      <trkpt lat="47.8217600" lon="8.9534600">
        <ele>68.2</ele>
        <time>2022-06-08T08:11:20Z</time>
      </trkpt>
      <trkpt lat="47.8216360" lon="8.9537000">
        <ele>68.2</ele>
        <time>2022-06-08T08:11:24Z</time>
      </trkpt>
      <trkpt lat="47.8215100" lon="8.9539310">
        <ele>67.0</ele>
        <time>2022-06-08T08:11:28Z</time>
      </trkpt>
      <trkpt lat="47.8213780" lon="8.9541310">
        <ele>67.4</ele>
        <time>2022-06-08T08:11:32Z</time>
      </trkpt>
      <trkpt lat="47.8212380" lon="8.9543260">
        <ele>67.4</ele>
        <time>2022-06-08T08:11:36Z</time>
      </trkpt>
      <trkpt lat="47.8210980" lon="8.9545180">
        <ele>67.0</ele>
        <time>2022-06-08T08:11:40Z</time>
      </trkpt>
      <trkpt lat="47.8209480" lon="8.9547130">
        <ele>66.0</ele>
        <time>2022-06-08T08:11:44Z</time>
      </trkpt>
      <trkpt lat="47.8207950" lon="8.9549230">
        <ele>66.0</ele>
        <time>2022-06-08T08:11:48Z</time>
      </trkpt>
      <trkpt lat="47.8206350" lon="8.9551460">
        <ele>65.4</ele>
        <time>2022-06-08T08:11:52Z</time>
      </trkpt>
      <trkpt lat="47.8204630" lon="8.9553830">
        <ele>64.4</ele>
        <time>2022-06-08T08:11:56Z</time>
      </trkpt>
      <trkpt lat="47.8202900" lon="8.9556350">
        <ele>64.0</ele>
        <time>2022-06-08T08:12:00Z</time>
      </trkpt>
      <trkpt lat="47.8201080" lon="8.9559030">
        <ele>62.8</ele>
        <time>2022-06-08T08:12:04Z</time>
      </trkpt>
      <trkpt lat="47.8199110" lon="8.9561800">
        <ele>62.0</ele>
        <time>2022-06-08T08:12:08Z</time>
      </trkpt>
      <trkpt lat="47.8196910" lon="8.9564800">
        <ele>59.8</ele>
        <time>2022-06-08T08:12:12Z</time>
      </trkpt>
      <trkpt lat="47.8194650" lon="8.9568460">
        <ele>56.8</ele>
        <time>2022-06-08T08:12:16Z</time>
      </trkpt>
      <trkpt lat="47.8192410" lon="8.9572310">
        <ele>57.4</ele>
        <time>2022-06-08T08:12:20Z</time>
      </trkpt>
      <trkpt lat="47.8190230" lon="8.9576080">
        <ele>53.8</ele>
        <time>2022-06-08T08:12:24Z</time>
      </trkpt>
      <trkpt lat="47.8188230" lon="8.9579800">
        <ele>54.2</ele>
        <time>2022-06-08T08:12:28Z</time>
      </trkpt>
      <trkpt lat="47.8186260" lon="8.9583530">
        <ele>52.2</ele>
        <time>2022-06-08T08:12:32Z</time>
      </trkpt>
      <trkpt lat="47.8184250" lon="8.9587180">
        <ele>53.0</ele>
        <time>2022-06-08T08:12:36Z</time>
      </trkpt>
      <trkpt lat="47.8182280" lon="8.9590500">
        <ele>53.0</ele>
        <time>2022-06-08T08:12:40Z</time>
      </trkpt>
      <trkpt lat="47.8180060" lon="8.9593360">
        <ele>49.8</ele>
        <time>2022-06-08T08:12:44Z</time>
      </trkpt>
      <trkpt lat="47.8177650" lon="8.9596230">
        <ele>49.0</ele>
        <time>2022-06-08T08:12:48Z</time>
      </trkpt>
      <trkpt lat="47.8175130" lon="8.9598980">
        <ele>47.8</ele>
        <time>2022-06-08T08:12:52Z</time>
      </trkpt>
      <trkpt lat="47.8172460" lon="8.9601460">
        <ele>47.2</ele>
        <time>2022-06-08T08:12:56Z</time>
      </trkpt>
      <trkpt lat="47.8169730" lon="8.9603400">
        <ele>47.6</ele>
        <time>2022-06-08T08:13:00Z</time>
      </trkpt>
      <trkpt lat="47.8167110" lon="8.9605250">
        <ele>46.8</ele>
        <time>2022-06-08T08:13:04Z</time>
      </trkpt>
      <trkpt lat="47.8164580" lon="8.9606930">
        <ele>45.6</ele>
        <time>2022-06-08T08:13:08Z</time>
      </trkpt>
      <trkpt lat="47.8162210" lon="8.9608330">
        <ele>46.0</ele>
        <time>2022-06-08T08:13:12Z</time>
      </trkpt>
      <trkpt lat="47.8160250" lon="8.9609430">
        <ele>46.8</ele>
        <time>2022-06-08T08:13:16Z</time>
      </trkpt>
      <trkpt lat="47.8158650" lon="8.9610530">
        <ele>49.0</ele>
        <time>2022-06-08T08:13:20Z</time>
      </trkpt>
      <trkpt lat="47.8157210" lon="8.9611630">
        <ele>48.4</ele>
        <time>2022-06-08T08:13:24Z</time>
      </trkpt>
      <trkpt lat="47.8156050" lon="8.9612800">
        <ele>50.0</ele>
        <time>2022-06-08T08:13:28Z</time>
      </trkpt>
      <trkpt lat="47.8155150" lon="8.9614100">
        <ele>50.4</ele>
        <time>2022-06-08T08:13:32Z</time>
      </trkpt>
      <trkpt lat="47.8154880" lon="8.9616850">
        <ele>48.8</ele>
        <time>2022-06-08T08:13:36Z</time>
      </trkpt>
      <trkpt lat="47.8155250" lon="8.9620800">
        <ele>47.4</ele>
        <time>2022-06-08T08:13:40Z</time>
      </trkpt>
      <trkpt lat="47.8155310" lon="8.9624980">
        <ele>45.4</ele>
        <time>2022-06-08T08:13:44Z</time>
      </trkpt>
      <trkpt lat="47.8155060" lon="8.9629030">
        <ele>45.4</ele>
        <time>2022-06-08T08:13:48Z</time>
      </trkpt>
      <trkpt lat="47.8154410" lon="8.9632660">
        <ele>44.6</ele>
        <time>2022-06-08T08:13:52Z</time>
      </trkpt>
      <trkpt lat="47.8154080" lon="8.9635710">
        <ele>44.8</ele>
        <time>2022-06-08T08:13:56Z</time>
      </trkpt>
      <trkpt lat="47.8152680" lon="8.9637380">
        <ele>44.2</ele>
        <time>2022-06-08T08:14:00Z</time>
      </trkpt>
      <trkpt lat="47.8151150" lon="8.9638710">
        <ele>45.0</ele>
        <time>2022-06-08T08:14:04Z</time>
      </trkpt>
      <trkpt lat="47.8149500" lon="8.9639700">
        <ele>45.2</ele>
        <time>2022-06-08T08:14:08Z</time>
      </trkpt>
      <trkpt lat="47.8147910" lon="8.9640530">
        <ele>45.2</ele>
        <time>2022-06-08T08:14:12Z</time>
      </trkpt>
      <trkpt lat="47.8146760" lon="8.9641300">
        <ele>46.0</ele>
        <time>2022-06-08T08:14:16Z</time>
      </trkpt>
      <trkpt lat="47.8145710" lon="8.9642150">
        <ele>45.6</ele>
        <time>2022-06-08T08:14:20Z</time>
      </trkpt>
      <trkpt lat="47.8144730" lon="8.9643310">
        <ele>46.8</ele>
        <time>2022-06-08T08:14:24Z</time>
      </trkpt>
      <trkpt lat="47.8143700" lon="8.9644250">
        <ele>47.8</ele>
        <time>2022-06-08T08:14:28Z</time>
      </trkpt>
      <trkpt lat="47.8142750" lon="8.9645350">
        <ele>48.4</ele>
        <time>2022-06-08T08:14:32Z</time>
      </trkpt>
      <trkpt lat="47.8141780" lon="8.9646480">
        <ele>49.8</ele>
        <time>2022-06-08T08:14:36Z</time>
      </trkpt>
      <trkpt lat="47.8140830" lon="8.9647730">
        <ele>50.4</ele>
        <time>2022-06-08T08:14:40Z</time>
      </trkpt>
      <trkpt lat="47.8139860" lon="8.9649050">
        <ele>51.4</ele>
        <time>2022-06-08T08:14:44Z</time>
      </trkpt>
      <trkpt lat="47.8138900" lon="8.9650180">
        <ele>51.6</ele>
        <time>2022-06-08T08:14:48Z</time>
      </trkpt>
      <trkpt lat="47.8137910" lon="8.9651350">
        <ele>52.2</ele>
        <time>2022-06-08T08:14:52Z</time>
      </trkpt>
      <trkpt lat="47.8136860" lon="8.9652450">
        <ele>52.2</ele>
        <time>2022-06-08T08:14:56Z</time>
      </trkpt>
      <trkpt lat="47.8135780" lon="8.9653710">
        <ele>52.2</ele>
        <time>2022-06-08T08:15:00Z</time>
      </trkpt>
      <trkpt lat="47.8134700" lon="8.9655160">
        <ele>52.0</ele>
        <time>2022-06-08T08:15:04Z</time>
      </trkpt>
      <trkpt lat="47.8133480" lon="8.9656710">
        <ele>51.2</ele>
        <time>2022-06-08T08:15:08Z</time>
      </trkpt>
      <trkpt lat="47.8132080" lon="8.9658450">
        <ele>50.2</ele>
        <time>2022-06-08T08:15:12Z</time>
      </trkpt>
      <trkpt lat="47.8130680" lon="8.9660230">
        <ele>49.4</ele>
        <time>2022-06-08T08:15:16Z</time>
      </trkpt>
      <trkpt lat="47.8129600" lon="8.9661650">
        <ele>49.2</ele>
        <time>2022-06-08T08:15:20Z</time>
      </trkpt>
      <trkpt lat="47.8128830" lon="8.9663380">
        <ele>47.4</ele>
        <time>2022-06-08T08:15:24Z</time>
      </trkpt>
      <trkpt lat="47.8129130" lon="8.9665830">
        <ele>47.2</ele>
        <time>2022-06-08T08:15:28Z</time>
      </trkpt>
      <trkpt lat="47.8129730" lon="8.9668910">
        <ele>45.4</ele>
        <time>2022-06-08T08:15:32Z</time>
      </trkpt>
      <trkpt lat="47.8130150" lon="8.9671850">
        <ele>44.8</ele>
        <time>2022-06-08T08:15:36Z</time>
      </trkpt>
      <trkpt lat="47.8130750" lon="8.9675010">
        <ele>43.8</ele>
        <time>2022-06-08T08:15:40Z</time>
      </trkpt>
      <trkpt lat="47.8131550" lon="8.9678900">
        <ele>42.0</ele>
        <time>2022-06-08T08:15:44Z</time>
      </trkpt>
      <trkpt lat="47.8132360" lon="8.9683130">
        <ele>39.6</ele>
        <time>2022-06-08T08:15:48Z</time>
      </trkpt>
      <trkpt lat="47.8133260" lon="8.9687060">
        <ele>37.6</ele>
        <time>2022-06-08T08:15:52Z</time>
      </trkpt>
      <trkpt lat="47.8134110" lon="8.9690910">
        <ele>36.2</ele>
        <time>2022-06-08T08:15:56Z</time>
      </trkpt>
      <trkpt lat="47.8133310" lon="8.9693910">
        <ele>37.4</ele>
        <time>2022-06-08T08:16:00Z</time>
      </trkpt>
      <trkpt lat="47.8131730" lon="8.9694580">
        <ele>37.2</ele>
        <time>2022-06-08T08:16:04Z</time>
      </trkpt>
      <trkpt lat="47.8132160" lon="8.9694780">
        <ele>37.6</ele>
        <time>2022-06-08T08:16:08Z</time>
      </trkpt>
      <trkpt lat="47.8133310" lon="8.9694930">
        <ele>37.8</ele>
        <time>2022-06-08T08:16:12Z</time>
      </trkpt>
      <trkpt lat="47.8133330" lon="8.9697310">
        <ele>37.8</ele>
        <time>2022-06-08T08:16:16Z</time>
      </trkpt>
      <trkpt lat="47.8133100" lon="8.9699810">
        <ele>37.4</ele>
        <time>2022-06-08T08:16:20Z</time>
      </trkpt>
      <trkpt lat="47.8132860" lon="8.9702160">
        <ele>37.4</ele>
        <time>2022-06-08T08:16:24Z</time>
      </trkpt>
      <trkpt lat="47.8132550" lon="8.9704650">
        <ele>37.0</ele>
        <time>2022-06-08T08:16:28Z</time>
      </trkpt>
      <trkpt lat="47.8132510" lon="8.9707300">
        <ele>37.4</ele>
        <time>2022-06-08T08:16:32Z</time>
      </trkpt>
      <trkpt lat="47.8132680" lon="8.9710100">
        <ele>37.0</ele>
        <time>2022-06-08T08:16:36Z</time>
      </trkpt>
      <trkpt lat="47.8132730" lon="8.9712850">
        <ele>37.2</ele>
        <time>2022-06-08T08:16:40Z</time>
      </trkpt>
      <trkpt lat="47.8132760" lon="8.9715430">
        <ele>37.0</ele>
        <time>2022-06-08T08:16:44Z</time>
      </trkpt>
      <trkpt lat="47.8133060" lon="8.9717960">
        <ele>37.0</ele>
        <time>2022-06-08T08:16:48Z</time>
      </trkpt>
      <trkpt lat="47.8133730" lon="8.9720350">
        <ele>36.8</ele>
        <time>2022-06-08T08:16:52Z</time>
      </trkpt>
      <trkpt lat="47.8134260" lon="8.9722600">
        <ele>37.0</ele>
        <time>2022-06-08T08:16:56Z</time>
      </trkpt>
      <trkpt lat="47.8134810" lon="8.9724830">
        <ele>37.4</ele>
        <time>2022-06-08T08:17:00Z</time>
      </trkpt>
      <trkpt lat="47.8135460" lon="8.9727030">
        <ele>37.2</ele>
        <time>2022-06-08T08:17:04Z</time>
      </trkpt>
      <trkpt lat="47.8136130" lon="8.9729230">
        <ele>37.2</ele>
        <time>2022-06-08T08:17:08Z</time>
      </trkpt>
      <trkpt lat="47.8136950" lon="8.9731280">
        <ele>37.4</ele>
        <time>2022-06-08T08:17:12Z</time>
      </trkpt>
      <trkpt lat="47.8137750" lon="8.9733300">
        <ele>37.2</ele>
        <time>2022-06-08T08:17:16Z</time>
      </trkpt>
      <trkpt lat="47.8138430" lon="8.9735310">
        <ele>37.0</ele>
        <time>2022-06-08T08:17:20Z</time>
      </trkpt>
      <trkpt lat="47.8139380" lon="8.9737350">
        <ele>37.4</ele>
        <time>2022-06-08T08:17:24Z</time>
      </trkpt>
      <trkpt lat="47.8140380" lon="8.9739450">
        <ele>36.8</ele>
        <time>2022-06-08T08:17:28Z</time>
      </trkpt>
      <trkpt lat="47.8141430" lon="8.9741380">
        <ele>36.6</ele>
        <time>2022-06-08T08:17:32Z</time>
      </trkpt>
      <trkpt lat="47.8142410" lon="8.9743380">
        <ele>36.0</ele>
        <time>2022-06-08T08:17:36Z</time>
      </trkpt>
      <trkpt lat="47.8143350" lon="8.9745580">
        <ele>36.4</ele>
        <time>2022-06-08T08:17:40Z</time>
      </trkpt>
      <trkpt lat="47.8144280" lon="8.9747900">
        <ele>35.6</ele>
        <time>2022-06-08T08:17:44Z</time>
      </trkpt>
      <trkpt lat="47.8145330" lon="8.9750080">
        <ele>36.2</ele>
        <time>2022-06-08T08:17:48Z</time>
      </trkpt>
      <trkpt lat="47.8146350" lon="8.9752280">
        <ele>36.6</ele>
        <time>2022-06-08T08:17:52Z</time>
      </trkpt>
      <trkpt lat="47.8147310" lon="8.9754600">
        <ele>35.8</ele>
        <time>2022-06-08T08:17:56Z</time>
      </trkpt>
      <trkpt lat="47.8148460" lon="8.9756760">
        <ele>35.8</ele>
        <time>2022-06-08T08:18:00Z</time>
      </trkpt>
      <trkpt lat="47.8149600" lon="8.9759010">
        <ele>35.6</ele>
        <time>2022-06-08T08:18:04Z</time>
      </trkpt>
      <trkpt lat="47.8150800" lon="8.9761200">
        <ele>35.8</ele>
        <time>2022-06-08T08:18:08Z</time>
      </trkpt>
      <trkpt lat="47.8151880" lon="8.9763500">
        <ele>35.0</ele>
        <time>2022-06-08T08:18:12Z</time>
      </trkpt>
      <trkpt lat="47.8152950" lon="8.9765850">
        <ele>35.0</ele>
        <time>2022-06-08T08:18:16Z</time>
      </trkpt>
      <trkpt lat="47.8154030" lon="8.9768150">
        <ele>35.2</ele>
        <time>2022-06-08T08:18:20Z</time>
      </trkpt>
      <trkpt lat="47.8155030" lon="8.9770600">
        <ele>34.8</ele>
        <time>2022-06-08T08:18:24Z</time>
      </trkpt>
      <trkpt lat="47.8156060" lon="8.9773010">
        <ele>34.6</ele>
        <time>2022-06-08T08:18:28Z</time>
      </trkpt>
      <trkpt lat="47.8157210" lon="8.9775350">
        <ele>35.0</ele>
        <time>2022-06-08T08:18:32Z</time>
      </trkpt>
      <trkpt lat="47.8158280" lon="8.9777730">
        <ele>35.2</ele>
        <time>2022-06-08T08:18:36Z</time>
      </trkpt>
      <trkpt lat="47.8159400" lon="8.9780060">
        <ele>35.0</ele>
        <time>2022-06-08T08:18:40Z</time>
      </trkpt>
      <trkpt lat="47.8160500" lon="8.9782350">
        <ele>35.0</ele>
        <time>2022-06-08T08:18:44Z</time>
      </trkpt>
      <trkpt lat="47.8161550" lon="8.9784560">
        <ele>34.2</ele>
        <time>2022-06-08T08:18:48Z</time>
      </trkpt>
      <trkpt lat="47.8162680" lon="8.9786860">
        <ele>34.6</ele>
        <time>2022-06-08T08:18:52Z</time>
      </trkpt>
      <trkpt lat="47.8163850" lon="8.9789260">
        <ele>34.2</ele>
        <time>2022-06-08T08:18:56Z</time>
      </trkpt>
      <trkpt lat="47.8165110" lon="8.9791660">
        <ele>34.2</ele>
        <time>2022-06-08T08:19:00Z</time>
      </trkpt>
      <trkpt lat="47.8166280" lon="8.9794250">
        <ele>33.6</ele>
        <time>2022-06-08T08:19:04Z</time>
      </trkpt>
      <trkpt lat="47.8167350" lon="8.9797000">
        <ele>33.6</ele>
        <time>2022-06-08T08:19:08Z</time>
      </trkpt>
      <trkpt lat="47.8168400" lon="8.9799760">
        <ele>33.6</ele>
        <time>2022-06-08T08:19:12Z</time>
      </trkpt>
      <trkpt lat="47.8168980" lon="8.9802630">
        <ele>33.8</ele>
        <time>2022-06-08T08:19:16Z</time>
      </trkpt>
      <trkpt lat="47.8169110" lon="8.9805480">
        <ele>33.2</ele>
        <time>2022-06-08T08:19:20Z</time>
      </trkpt>
      <trkpt lat="47.8169150" lon="8.9808200">
        <ele>32.0</ele>
        <time>2022-06-08T08:19:24Z</time>
      </trkpt>
      <trkpt lat="47.8169230" lon="8.9810710">
        <ele>32.2</ele>
        <time>2022-06-08T08:19:28Z</time>
      </trkpt>
      <trkpt lat="47.8169210" lon="8.9813080">
        <ele>33.0</ele>
        <time>2022-06-08T08:19:32Z</time>
      </trkpt>
      <trkpt lat="47.8169280" lon="8.9815300">
        <ele>32.4</ele>
        <time>2022-06-08T08:19:36Z</time>
      </trkpt>
      <trkpt lat="47.8169400" lon="8.9817280">
        <ele>32.0</ele>
        <time>2022-06-08T08:19:40Z</time>
      </trkpt>
      <trkpt lat="47.8169400" lon="8.9817280">
        <ele>32.2</ele>
        <time>2022-06-08T08:19:44Z</time>
      </trkpt>
      <trkpt lat="47.8169400" lon="8.9817280">
        <ele>32.0</ele>
        <time>2022-06-08T08:19:48Z</time>
      </trkpt>
      <trkpt lat="47.8169400" lon="8.9817280">
        <ele>32.4</ele>
        <time>2022-06-08T08:19:52Z</time>
      </trkpt>
      <trkpt lat="47.8169400" lon="8.9817280">
        <ele>32.4</ele>
        <time>2022-06-08T08:19:56Z</time>
      </trkpt>
      <trkpt lat="47.8169400" lon="8.9817280">
        <ele>32.4</ele>
        <time>2022-06-08T08:20:00Z</time>
      </trkpt>
      <trkpt lat="47.8169400" lon="8.9817280">
        <ele>32.2</ele>
        <time>2022-06-08T08:20:04Z</time>
      </trkpt>
      <trkpt lat="47.8169400" lon="8.9817280">
        <ele>32.2</ele>
        <time>2022-06-08T08:20:08Z</time>
      </trkpt>
      <trkpt lat="47.8169480" lon="8.9818480">
        <ele>32.0</ele>
        <time>2022-06-08T08:20:12Z</time>
      </trkpt>
      <trkpt lat="47.8169680" lon="8.9819650">
        <ele>32.2</ele>
        <time>2022-06-08T08:20:16Z</time>
      </trkpt>
      <trkpt lat="47.8169960" lon="8.9821460">
        <ele>32.2</ele>
        <time>2022-06-08T08:20:20Z</time>
      </trkpt>
      <trkpt lat="47.8170400" lon="8.9823780">
        <ele>31.6</ele>
        <time>2022-06-08T08:20:24Z</time>
      </trkpt>
      <trkpt lat="47.8170910" lon="8.9826380">
        <ele>32.4</ele>
        <time>2022-06-08T08:20:28Z</time>
      </trkpt>
      <trkpt lat="47.8171480" lon="8.9829050">
        <ele>30.8</ele>
        <time>2022-06-08T08:20:32Z</time>
      </trkpt>
      <trkpt lat="47.8172050" lon="8.9831910">
        <ele>31.0</ele>
        <time>2022-06-08T08:20:36Z</time>
      </trkpt>
      <trkpt lat="47.8172610" lon="8.9834950">
        <ele>30.0</ele>
        <time>2022-06-08T08:20:40Z</time>
      </trkpt>
      <trkpt lat="47.8173260" lon="8.9838050">
        <ele>30.2</ele>
        <time>2022-06-08T08:20:44Z</time>
      </trkpt>
      <trkpt lat="47.8173860" lon="8.9841100">
        <ele>30.2</ele>
        <time>2022-06-08T08:20:48Z</time>
      </trkpt>
      <trkpt lat="47.8174410" lon="8.9844100">
        <ele>30.8</ele>
        <time>2022-06-08T08:20:52Z</time>
      </trkpt>
      <trkpt lat="47.8175010" lon="8.9847060">
        <ele>30.6</ele>
        <time>2022-06-08T08:20:56Z</time>
      </trkpt>
      <trkpt lat="47.8175610" lon="8.9850050">
        <ele>31.2</ele>
        <time>2022-06-08T08:21:00Z</time>
      </trkpt>
      <trkpt lat="47.8176180" lon="8.9853030">
        <ele>31.2</ele>
        <time>2022-06-08T08:21:04Z</time>
      </trkpt>
      <trkpt lat="47.8176750" lon="8.9855930">
        <ele>30.8</ele>
        <time>2022-06-08T08:21:08Z</time>
      </trkpt>
      <trkpt lat="47.8177310" lon="8.9858850">
        <ele>30.4</ele>
        <time>2022-06-08T08:21:12Z</time>
      </trkpt>
      <trkpt lat="47.8177910" lon="8.9861760">
        <ele>30.4</ele>
        <time>2022-06-08T08:21:16Z</time>
      </trkpt>
      <trkpt lat="47.8178500" lon="8.9864780">
        <ele>29.6</ele>
        <time>2022-06-08T08:21:20Z</time>
      </trkpt>
      <trkpt lat="47.8179060" lon="8.9867700">
        <ele>29.8</ele>
        <time>2022-06-08T08:21:24Z</time>
      </trkpt>
      <trkpt lat="47.8179710" lon="8.9870700">
        <ele>30.2</ele>
        <time>2022-06-08T08:21:28Z</time>
      </trkpt>
      <trkpt lat="47.8180310" lon="8.9873730">
        <ele>30.0</ele>
        <time>2022-06-08T08:21:32Z</time>
      </trkpt>
      <trkpt lat="47.8180980" lon="8.9876810">
        <ele>28.8</ele>
        <time>2022-06-08T08:21:36Z</time>
      </trkpt>
      <trkpt lat="47.8181680" lon="8.9879830">
        <ele>29.4</ele>
        <time>2022-06-08T08:21:40Z</time>
      </trkpt>
      <trkpt lat="47.8182450" lon="8.9882650">
        <ele>29.6</ele>
        <time>2022-06-08T08:21:44Z</time>
      </trkpt>
      <trkpt lat="47.8183250" lon="8.9885250">
        <ele>29.0</ele>
        <time>2022-06-08T08:21:48Z</time>
      </trkpt>
      <trkpt lat="47.8184060" lon="8.9887910">
        <ele>29.6</ele>
        <time>2022-06-08T08:21:52Z</time>
      </trkpt>
      <trkpt lat="47.8184960" lon="8.9890610">
        <ele>29.0</ele>
        <time>2022-06-08T08:21:56Z</time>
      </trkpt>
      <trkpt lat="47.8185980" lon="8.9893310">
        <ele>29.4</ele>
        <time>2022-06-08T08:22:00Z</time>
      </trkpt>
      <trkpt lat="47.8186930" lon="8.9896130">
        <ele>29.6</ele>
        <time>2022-06-08T08:22:04Z</time>
      </trkpt>
      <trkpt lat="47.8187850" lon="8.9898910">
        <ele>29.2</ele>
        <time>2022-06-08T08:22:08Z</time>
      </trkpt>
      <trkpt lat="47.8188500" lon="8.9901730">
        <ele>29.6</ele>
        <time>2022-06-08T08:22:12Z</time>
      </trkpt>
      <trkpt lat="47.8189130" lon="8.9904680">
        <ele>29.2</ele>
        <time>2022-06-08T08:22:16Z</time>
      </trkpt>
      <trkpt lat="47.8189710" lon="8.9907650">
        <ele>29.0</ele>
        <time>2022-06-08T08:22:20Z</time>
      </trkpt>
      <trkpt lat="47.8190350" lon="8.9910580">
        <ele>28.2</ele>
        <time>2022-06-08T08:22:24Z</time>
      </trkpt>
      <trkpt lat="47.8191000" lon="8.9913500">
        <ele>28.4</ele>
        <time>2022-06-08T08:22:28Z</time>
      </trkpt>
      <trkpt lat="47.8191710" lon="8.9916380">
        <ele>28.4</ele>
        <time>2022-06-08T08:22:32Z</time>
      </trkpt>
      <trkpt lat="47.8192430" lon="8.9919250">
        <ele>29.2</ele>
        <time>2022-06-08T08:22:36Z</time>
      </trkpt>
      <trkpt lat="47.8193210" lon="8.9922150">
        <ele>28.8</ele>
        <time>2022-06-08T08:22:40Z</time>
      </trkpt>
      <trkpt lat="47.8193980" lon="8.9925080">
        <ele>28.2</ele>
        <time>2022-06-08T08:22:44Z</time>
      </trkpt>
      <trkpt lat="47.8194730" lon="8.9927980">
        <ele>27.6</ele>
        <time>2022-06-08T08:22:48Z</time>
      </trkpt>
      <trkpt lat="47.8195580" lon="8.9930880">
        <ele>28.2</ele>
        <time>2022-06-08T08:22:52Z</time>
      </trkpt>
      <trkpt lat="47.8196350" lon="8.9933830">
        <ele>28.8</ele>
        <time>2022-06-08T08:22:56Z</time>
      </trkpt>
      <trkpt lat="47.8197300" lon="8.9936600">
        <ele>28.2</ele>
        <time>2022-06-08T08:23:00Z</time>
      </trkpt>
      <trkpt lat="47.8198360" lon="8.9939210">
        <ele>27.8</ele>
        <time>2022-06-08T08:23:04Z</time>
      </trkpt>
      <trkpt lat="47.8199510" lon="8.9941760">
        <ele>28.2</ele>
        <time>2022-06-08T08:23:08Z</time>
      </trkpt>
      <trkpt lat="47.8200580" lon="8.9944450">
        <ele>27.8</ele>
        <time>2022-06-08T08:23:12Z</time>
      </trkpt>
      <trkpt lat="47.8201160" lon="8.9947360">
        <ele>26.8</ele>
        <time>2022-06-08T08:23:16Z</time>
      </trkpt>
      <trkpt lat="47.8201080" lon="8.9950350">
        <ele>27.8</ele>
        <time>2022-06-08T08:23:20Z</time>
      </trkpt>
      <trkpt lat="47.8200480" lon="8.9953250">
        <ele>27.0</ele>
        <time>2022-06-08T08:23:24Z</time>
      </trkpt>
      <trkpt lat="47.8200130" lon="8.9955910">
        <ele>27.2</ele>
        <time>2022-06-08T08:23:28Z</time>
      </trkpt>
      <trkpt lat="47.8199760" lon="8.9958600">
        <ele>27.4</ele>
        <time>2022-06-08T08:23:32Z</time>
      </trkpt>
      <trkpt lat="47.8199010" lon="8.9961350">
        <ele>27.2</ele>
        <time>2022-06-08T08:23:36Z</time>
      </trkpt>
      <trkpt lat="47.8198560" lon="8.9964260">
        <ele>26.6</ele>
        <time>2022-06-08T08:23:40Z</time>
      </trkpt>
      <trkpt lat="47.8198800" lon="8.9967460">
        <ele>26.6</ele>
        <time>2022-06-08T08:23:44Z</time>
      </trkpt>
      <trkpt lat="47.8198750" lon="8.9970680">
        <ele>27.0</ele>
        <time>2022-06-08T08:23:48Z</time>
      </trkpt>
      <trkpt lat="47.8198560" lon="8.9973880">
        <ele>26.4</ele>
        <time>2022-06-08T08:23:52Z</time>
      </trkpt>
      <trkpt lat="47.8198400" lon="8.9977200">
        <ele>26.6</ele>
        <time>2022-06-08T08:23:56Z</time>
      </trkpt>
      <trkpt lat="47.8198300" lon="8.9980500">
        <ele>26.4</ele>
        <time>2022-06-08T08:24:00Z</time>
      </trkpt>
      <trkpt lat="47.8198200" lon="8.9983750">
        <ele>26.0</ele>
        <time>2022-06-08T08:24:04Z</time>
      </trkpt>
      <trkpt lat="47.8198100" lon="8.9986950">
        <ele>26.4</ele>
        <time>2022-06-08T08:24:08Z</time>
      </trkpt>
      <trkpt lat="47.8197880" lon="8.9990080">
        <ele>26.2</ele>
        <time>2022-06-08T08:24:12Z</time>
      </trkpt>
      <trkpt lat="47.8197660" lon="8.9993250">
        <ele>26.6</ele>
        <time>2022-06-08T08:24:16Z</time>
      </trkpt>
      <trkpt lat="47.8197380" lon="8.9996410">
        <ele>26.2</ele>
        <time>2022-06-08T08:24:20Z</time>
      </trkpt>
      <trkpt lat="47.8197160" lon="8.9999580">
        <ele>26.2</ele>
        <time>2022-06-08T08:24:24Z</time>
      </trkpt>
      <trkpt lat="47.8196910" lon="9.0002710">
        <ele>26.4</ele>
        <time>2022-06-08T08:24:28Z</time>
      </trkpt>
      <trkpt lat="47.8196650" lon="9.0005810">
        <ele>26.4</ele>
        <time>2022-06-08T08:24:32Z</time>
      </trkpt>
      <trkpt lat="47.8196400" lon="9.0008910">
        <ele>26.2</ele>
        <time>2022-06-08T08:24:36Z</time>
      </trkpt>
      <trkpt lat="47.8196130" lon="9.0012110">
        <ele>24.6</ele>
        <time>2022-06-08T08:24:40Z</time>
      </trkpt>
      <trkpt lat="47.8195900" lon="9.0015310">
        <ele>24.4</ele>
        <time>2022-06-08T08:24:44Z</time>
      </trkpt>
      <trkpt lat="47.8195650" lon="9.0018450">
        <ele>25.4</ele>
        <time>2022-06-08T08:24:48Z</time>
      </trkpt>
      <trkpt lat="47.8195150" lon="9.0021530">
        <ele>24.0</ele>
        <time>2022-06-08T08:24:52Z</time>
      </trkpt>
      <trkpt lat="47.8194350" lon="9.0024350">
        <ele>25.0</ele>
        <time>2022-06-08T08:24:56Z</time>
      </trkpt>
      <trkpt lat="47.8193230" lon="9.0026950">
        <ele>24.4</ele>
        <time>2022-06-08T08:25:00Z</time>
      </trkpt>
      <trkpt lat="47.8191960" lon="9.0029500">
        <ele>25.0</ele>
        <time>2022-06-08T08:25:04Z</time>
      </trkpt>
      <trkpt lat="47.8190800" lon="9.0032100">
        <ele>24.8</ele>
        <time>2022-06-08T08:25:08Z</time>
      </trkpt>
      <trkpt lat="47.8189710" lon="9.0034980">
        <ele>24.0</ele>
        <time>2022-06-08T08:25:12Z</time>
      </trkpt>
      <trkpt lat="47.8188760" lon="9.0038080">
        <ele>24.0</ele>
        <time>2022-06-08T08:25:16Z</time>
      </trkpt>
      <trkpt lat="47.8188460" lon="9.0041280">
        <ele>22.4</ele>
        <time>2022-06-08T08:25:20Z</time>
      </trkpt>
      <trkpt lat="47.8188050" lon="9.0044400">
        <ele>24.0</ele>
        <time>2022-06-08T08:25:24Z</time>
      </trkpt>
      <trkpt lat="47.8187130" lon="9.0047330">
        <ele>24.0</ele>
        <time>2022-06-08T08:25:28Z</time>
      </trkpt>
      <trkpt lat="47.8185660" lon="9.0049710">
        <ele>24.2</ele>
        <time>2022-06-08T08:25:32Z</time>
      </trkpt>
      <trkpt lat="47.8183950" lon="9.0051700">
        <ele>22.8</ele>
        <time>2022-06-08T08:25:36Z</time>
      </trkpt>
      <trkpt lat="47.8182360" lon="9.0053860">
        <ele>23.0</ele>
        <time>2022-06-08T08:25:40Z</time>
      </trkpt>
      <trkpt lat="47.8181160" lon="9.0056450">
        <ele>23.2</ele>
        <time>2022-06-08T08:25:44Z</time>
      </trkpt>
      <trkpt lat="47.8180850" lon="9.0059650">
        <ele>22.8</ele>
        <time>2022-06-08T08:25:48Z</time>
      </trkpt>
      <trkpt lat="47.8180750" lon="9.0062830">
        <ele>22.8</ele>
        <time>2022-06-08T08:25:52Z</time>
      </trkpt>
      <trkpt lat="47.8180610" lon="9.0066080">
        <ele>22.6</ele>
        <time>2022-06-08T08:25:56Z</time>
      </trkpt>
      <trkpt lat="47.8180580" lon="9.0069310">
        <ele>22.8</ele>
        <time>2022-06-08T08:26:00Z</time>
      </trkpt>
      <trkpt lat="47.8180360" lon="9.0072610">
        <ele>22.4</ele>
        <time>2022-06-08T08:26:04Z</time>
      </trkpt>
      <trkpt lat="47.8180200" lon="9.0075950">
        <ele>22.4</ele>
        <time>2022-06-08T08:26:08Z</time>
      </trkpt>
      <trkpt lat="47.8180160" lon="9.0079280">
        <ele>22.4</ele>
        <time>2022-06-08T08:26:12Z</time>
      </trkpt>
      <trkpt lat="47.8180050" lon="9.0082430">
        <ele>22.6</ele>
        <time>2022-06-08T08:26:16Z</time>
      </trkpt>
      <trkpt lat="47.8179950" lon="9.0085480">
        <ele>22.2</ele>
        <time>2022-06-08T08:26:20Z</time>
      </trkpt>
      <trkpt lat="47.8179830" lon="9.0088350">
        <ele>22.8</ele>
        <time>2022-06-08T08:26:24Z</time>
      </trkpt>
      <trkpt lat="47.8179910" lon="9.0089900">
        <ele>23.2</ele>
        <time>2022-06-08T08:26:28Z</time>
      </trkpt>
      <trkpt lat="47.8180300" lon="9.0090730">
        <ele>23.4</ele>
        <time>2022-06-08T08:26:32Z</time>
      </trkpt>
      <trkpt lat="47.8181050" lon="9.0092100">
        <ele>23.4</ele>
        <time>2022-06-08T08:26:36Z</time>
      </trkpt>
      <trkpt lat="47.8182530" lon="9.0093530">
        <ele>23.6</ele>
        <time>2022-06-08T08:26:40Z</time>
      </trkpt>
      <trkpt lat="47.8184130" lon="9.0095100">
        <ele>23.2</ele>
        <time>2022-06-08T08:26:44Z</time>
      </trkpt>
      <trkpt lat="47.8185850" lon="9.0096880">
        <ele>23.0</ele>
        <time>2022-06-08T08:26:48Z</time>
      </trkpt>
      <trkpt lat="47.8187380" lon="9.0099130">
        <ele>23.2</ele>
        <time>2022-06-08T08:26:52Z</time>
      </trkpt>
      <trkpt lat="47.8188160" lon="9.0102300">
        <ele>22.8</ele>
        <time>2022-06-08T08:26:56Z</time>
      </trkpt>
      <trkpt lat="47.8188000" lon="9.0105580">
        <ele>22.8</ele>
        <time>2022-06-08T08:27:00Z</time>
      </trkpt>
      <trkpt lat="47.8187500" lon="9.0108880">
        <ele>22.6</ele>
        <time>2022-06-08T08:27:04Z</time>
      </trkpt>
      <trkpt lat="47.8187080" lon="9.0112280">
        <ele>22.8</ele>
        <time>2022-06-08T08:27:08Z</time>
      </trkpt>
      <trkpt lat="47.8186610" lon="9.0115780">
        <ele>24.0</ele>
        <time>2022-06-08T08:27:12Z</time>
      </trkpt>
      <trkpt lat="47.8186030" lon="9.0119360">
        <ele>21.8</ele>
        <time>2022-06-08T08:27:16Z</time>
      </trkpt>
      <trkpt lat="47.8185500" lon="9.0122760">
        <ele>22.8</ele>
        <time>2022-06-08T08:27:20Z</time>
      </trkpt>
      <trkpt lat="47.8185030" lon="9.0126080">
        <ele>23.4</ele>
        <time>2022-06-08T08:27:24Z</time>
      </trkpt>
      <trkpt lat="47.8184550" lon="9.0129330">
        <ele>23.6</ele>
        <time>2022-06-08T08:27:28Z</time>
      </trkpt>
      <trkpt lat="47.8184130" lon="9.0132580">
        <ele>23.4</ele>
        <time>2022-06-08T08:27:32Z</time>
      </trkpt>
      <trkpt lat="47.8183710" lon="9.0135710">
        <ele>23.4</ele>
        <time>2022-06-08T08:27:36Z</time>
      </trkpt>
      <trkpt lat="47.8183300" lon="9.0138900">
        <ele>23.6</ele>
        <time>2022-06-08T08:27:40Z</time>
      </trkpt>
      <trkpt lat="47.8182860" lon="9.0142050">
        <ele>23.8</ele>
        <time>2022-06-08T08:27:44Z</time>
      </trkpt>
      <trkpt lat="47.8182450" lon="9.0145150">
        <ele>23.2</ele>
        <time>2022-06-08T08:27:48Z</time>
      </trkpt>
      <trkpt lat="47.8181980" lon="9.0148200">
        <ele>24.0</ele>
        <time>2022-06-08T08:27:52Z</time>
      </trkpt>
      <trkpt lat="47.8181280" lon="9.0151200">
        <ele>24.2</ele>
        <time>2022-06-08T08:27:56Z</time>
      </trkpt>
      <trkpt lat="47.8180760" lon="9.0154250">
        <ele>23.6</ele>
        <time>2022-06-08T08:28:00Z</time>
      </trkpt>
      <trkpt lat="47.8180550" lon="9.0157430">
        <ele>23.6</ele>
        <time>2022-06-08T08:28:04Z</time>
      </trkpt>
      <trkpt lat="47.8180210" lon="9.0160250">
        <ele>23.4</ele>
        <time>2022-06-08T08:28:08Z</time>
      </trkpt>
      <trkpt lat="47.8179880" lon="9.0162730">
        <ele>22.6</ele>
        <time>2022-06-08T08:28:12Z</time>
      </trkpt>
      <trkpt lat="47.8179530" lon="9.0165430">
        <ele>22.8</ele>
        <time>2022-06-08T08:28:16Z</time>
      </trkpt>
      <trkpt lat="47.8179180" lon="9.0168130">
        <ele>23.2</ele>
        <time>2022-06-08T08:28:20Z</time>
      </trkpt>
      <trkpt lat="47.8178830" lon="9.0170780">
        <ele>23.2</ele>
        <time>2022-06-08T08:28:24Z</time>
      </trkpt>
      <trkpt lat="47.8178500" lon="9.0173500">
        <ele>23.8</ele>
        <time>2022-06-08T08:28:28Z</time>
      </trkpt>
      <trkpt lat="47.8178110" lon="9.0176260">
        <ele>24.2</ele>
        <time>2022-06-08T08:28:32Z</time>
      </trkpt>
      <trkpt lat="47.8177700" lon="9.0179200">
        <ele>24.0</ele>
        <time>2022-06-08T08:28:36Z</time>
      </trkpt>
      <trkpt lat="47.8177380" lon="9.0182230">
        <ele>24.0</ele>
        <time>2022-06-08T08:28:40Z</time>
      </trkpt>
      <trkpt lat="47.8177080" lon="9.0185250">
        <ele>23.0</ele>
        <time>2022-06-08T08:28:44Z</time>
      </trkpt>
      <trkpt lat="47.8176760" lon="9.0188230">
        <ele>22.4</ele>
        <time>2022-06-08T08:28:48Z</time>
      </trkpt>
      <trkpt lat="47.8176560" lon="9.0191160">
        <ele>24.2</ele>
        <time>2022-06-08T08:28:52Z</time>
      </trkpt>
      <trkpt lat="47.8176360" lon="9.0194200">
        <ele>24.2</ele>
        <time>2022-06-08T08:28:56Z</time>
      </trkpt>
      <trkpt lat="47.8176210" lon="9.0197330">
        <ele>24.2</ele>
        <time>2022-06-08T08:29:00Z</time>
      </trkpt>
      <trkpt lat="47.8176130" lon="9.0200480">
        <ele>23.8</ele>
        <time>2022-06-08T08:29:04Z</time>
      </trkpt>
      <trkpt lat="47.8176050" lon="9.0203660">
        <ele>23.0</ele>
        <time>2022-06-08T08:29:08Z</time>
      </trkpt>
      <trkpt lat="47.8176080" lon="9.0206780">
        <ele>23.6</ele>
        <time>2022-06-08T08:29:12Z</time>
      </trkpt>
      <trkpt lat="47.8176130" lon="9.0209880">
        <ele>24.2</ele>
        <time>2022-06-08T08:29:16Z</time>
      </trkpt>
      <trkpt lat="47.8176250" lon="9.0212960">
        <ele>24.4</ele>
        <time>2022-06-08T08:29:20Z</time>
      </trkpt>
      <trkpt lat="47.8176400" lon="9.0216110">
        <ele>23.8</ele>
        <time>2022-06-08T08:29:24Z</time>
      </trkpt>
      <trkpt lat="47.8176600" lon="9.0219230">
        <ele>23.6</ele>
        <time>2022-06-08T08:29:28Z</time>
      </trkpt>
      <trkpt lat="47.8176800" lon="9.0222350">
        <ele>22.8</ele>
        <time>2022-06-08T08:29:32Z</time>
      </trkpt>
      <trkpt lat="47.8177100" lon="9.0225280">
        <ele>22.8</ele>
        <time>2022-06-08T08:29:36Z</time>
      </trkpt>
      <trkpt lat="47.8177400" lon="9.0227980">
        <ele>23.2</ele>
        <time>2022-06-08T08:29:40Z</time>
      </trkpt>
      <trkpt lat="47.8177750" lon="9.0230880">
        <ele>22.8</ele>
        <time>2022-06-08T08:29:44Z</time>
      </trkpt>
      <trkpt lat="47.8178030" lon="9.0233900">
        <ele>23.0</ele>
        <time>2022-06-08T08:29:48Z</time>
      </trkpt>
      <trkpt lat="47.8178360" lon="9.0236950">
        <ele>23.0</ele>
        <time>2022-06-08T08:29:52Z</time>
      </trkpt>
      <trkpt lat="47.8178680" lon="9.0240000">
        <ele>23.8</ele>
        <time>2022-06-08T08:29:56Z</time>
      </trkpt>
      <trkpt lat="47.8179050" lon="9.0243030">
        <ele>22.0</ele>
        <time>2022-06-08T08:30:00Z</time>
      </trkpt>
      <trkpt lat="47.8179380" lon="9.0246060">
        <ele>23.6</ele>
        <time>2022-06-08T08:30:04Z</time>
      </trkpt>
      <trkpt lat="47.8179710" lon="9.0249060">
        <ele>22.4</ele>
        <time>2022-06-08T08:30:08Z</time>
      </trkpt>
      <trkpt lat="47.8180050" lon="9.0252010">
        <ele>22.6</ele>
        <time>2022-06-08T08:30:12Z</time>
      </trkpt>
      <trkpt lat="47.8180230" lon="9.0254900">
        <ele>23.4</ele>
        <time>2022-06-08T08:30:16Z</time>
      </trkpt>
      <trkpt lat="47.8180130" lon="9.0257710">
        <ele>23.4</ele>
        <time>2022-06-08T08:30:20Z</time>
      </trkpt>
      <trkpt lat="47.8180960" lon="9.0260110">
        <ele>24.0</ele>
        <time>2022-06-08T08:30:24Z</time>
      </trkpt>
      <trkpt lat="47.8181330" lon="9.0262760">
        <ele>23.2</ele>
        <time>2022-06-08T08:30:28Z</time>
      </trkpt>
      <trkpt lat="47.8181730" lon="9.0265530">
        <ele>23.0</ele>
        <time>2022-06-08T08:30:32Z</time>
      </trkpt>
      <trkpt lat="47.8182100" lon="9.0268350">
        <ele>22.8</ele>
        <time>2022-06-08T08:30:36Z</time>
      </trkpt>
      <trkpt lat="47.8182350" lon="9.0271250">
        <ele>24.0</ele>
        <time>2022-06-08T08:30:40Z</time>
      </trkpt>
      <trkpt lat="47.8182630" lon="9.0274110">
        <ele>23.4</ele>
        <time>2022-06-08T08:30:44Z</time>
      </trkpt>
      <trkpt lat="47.8182950" lon="9.0276880">
        <ele>24.2</ele>
        <time>2022-06-08T08:30:48Z</time>
      </trkpt>
      <trkpt lat="47.8183280" lon="9.0279560">
        <ele>24.2</ele>
        <time>2022-06-08T08:30:52Z</time>
      </trkpt>
      <trkpt lat="47.8183610" lon="9.0282350">
        <ele>24.6</ele>
        <time>2022-06-08T08:30:56Z</time>
      </trkpt>
      <trkpt lat="47.8183910" lon="9.0284860">
        <ele>26.2</ele>
        <time>2022-06-08T08:31:00Z</time>
      </trkpt>
      <trkpt lat="47.8184180" lon="9.0287310">
        <ele>25.4</ele>
        <time>2022-06-08T08:31:04Z</time>
      </trkpt>
      <trkpt lat="47.8184480" lon="9.0289780">
        <ele>26.2</ele>
        <time>2022-06-08T08:31:08Z</time>
      </trkpt>
      <trkpt lat="47.8184780" lon="9.0292310">
        <ele>26.4</ele>
        <time>2022-06-08T08:31:12Z</time>
      </trkpt>
      <trkpt lat="47.8185110" lon="9.0294910">
        <ele>26.6</ele>
        <time>2022-06-08T08:31:16Z</time>
      </trkpt>
      <trkpt lat="47.8185350" lon="9.0297660">
        <ele>26.8</ele>
        <time>2022-06-08T08:31:20Z</time>
      </trkpt>
      <trkpt lat="47.8185630" lon="9.0300380">
        <ele>26.4</ele>
        <time>2022-06-08T08:31:24Z</time>
      </trkpt>
      <trkpt lat="47.8185980" lon="9.0303100">
        <ele>26.0</ele>
        <time>2022-06-08T08:31:28Z</time>
      </trkpt>
      <trkpt lat="47.8186310" lon="9.0306050">
        <ele>26.2</ele>
        <time>2022-06-08T08:31:32Z</time>
      </trkpt>
      <trkpt lat="47.8186730" lon="9.0309160">
        <ele>26.8</ele>
        <time>2022-06-08T08:31:36Z</time>
      </trkpt>
      <trkpt lat="47.8187060" lon="9.0312410">
        <ele>25.8</ele>
        <time>2022-06-08T08:31:40Z</time>
      </trkpt>
      <trkpt lat="47.8187400" lon="9.0315800">
        <ele>25.2</ele>
        <time>2022-06-08T08:31:44Z</time>
      </trkpt>
      <trkpt lat="47.8187650" lon="9.0319400">
        <ele>24.0</ele>
        <time>2022-06-08T08:31:48Z</time>
      </trkpt>
      <trkpt lat="47.8187830" lon="9.0323060">
        <ele>24.0</ele>
        <time>2022-06-08T08:31:52Z</time>
      </trkpt>
      <trkpt lat="47.8187930" lon="9.0326610">
        <ele>24.4</ele>
        <time>2022-06-08T08:31:56Z</time>
      </trkpt>
      <trkpt lat="47.8187910" lon="9.0329930">
        <ele>23.0</ele>
        <time>2022-06-08T08:32:00Z</time>
      </trkpt>
      <trkpt lat="47.8187700" lon="9.0333260">
        <ele>23.4</ele>
        <time>2022-06-08T08:32:04Z</time>
      </trkpt>
      <trkpt lat="47.8187400" lon="9.0336360">
        <ele>23.6</ele>
        <time>2022-06-08T08:32:08Z</time>
      </trkpt>
      <trkpt lat="47.8187150" lon="9.0339500">
        <ele>23.6</ele>
        <time>2022-06-08T08:32:12Z</time>
      </trkpt>
      <trkpt lat="47.8186860" lon="9.0342710">
        <ele>23.8</ele>
        <time>2022-06-08T08:32:16Z</time>
      </trkpt>
      <trkpt lat="47.8186560" lon="9.0345960">
        <ele>23.4</ele>
        <time>2022-06-08T08:32:20Z</time>
      </trkpt>
      <trkpt lat="47.8186200" lon="9.0349150">
        <ele>23.0</ele>
        <time>2022-06-08T08:32:24Z</time>
      </trkpt>
      <trkpt lat="47.8185900" lon="9.0352410">
        <ele>23.6</ele>
        <time>2022-06-08T08:32:28Z</time>
      </trkpt>
      <trkpt lat="47.8185560" lon="9.0355580">
        <ele>23.4</ele>
        <time>2022-06-08T08:32:32Z</time>
      </trkpt>
      <trkpt lat="47.8185350" lon="9.0358780">
        <ele>24.0</ele>
        <time>2022-06-08T08:32:36Z</time>
      </trkpt>
      <trkpt lat="47.8185100" lon="9.0361980">
        <ele>24.0</ele>
        <time>2022-06-08T08:32:40Z</time>
      </trkpt>
      <trkpt lat="47.8184800" lon="9.0365150">
        <ele>23.4</ele>
        <time>2022-06-08T08:32:44Z</time>
      </trkpt>
      <trkpt lat="47.8184450" lon="9.0368380">
        <ele>23.4</ele>
        <time>2022-06-08T08:32:48Z</time>
      </trkpt>
      <trkpt lat="47.8184200" lon="9.0371810">
        <ele>22.8</ele>
        <time>2022-06-08T08:32:52Z</time>
      </trkpt>
      <trkpt lat="47.8183780" lon="9.0374850">
        <ele>23.2</ele>
        <time>2022-06-08T08:32:56Z</time>
      </trkpt>
      <trkpt lat="47.8183530" lon="9.0377930">
        <ele>23.4</ele>
        <time>2022-06-08T08:33:00Z</time>
      </trkpt>
      <trkpt lat="47.8183200" lon="9.0380950">
        <ele>22.8</ele>
        <time>2022-06-08T08:33:04Z</time>
      </trkpt>
      <trkpt lat="47.8182910" lon="9.0383980">
        <ele>23.0</ele>
        <time>2022-06-08T08:33:08Z</time>
      </trkpt>
      <trkpt lat="47.8182580" lon="9.0386880">
        <ele>23.8</ele>
        <time>2022-06-08T08:33:12Z</time>
      </trkpt>
      <trkpt lat="47.8182300" lon="9.0389650">
        <ele>24.8</ele>
        <time>2022-06-08T08:33:16Z</time>
      </trkpt>
      <trkpt lat="47.8182050" lon="9.0392210">
        <ele>24.6</ele>
        <time>2022-06-08T08:33:20Z</time>
      </trkpt>
      <trkpt lat="47.8181780" lon="9.0394710">
        <ele>25.6</ele>
        <time>2022-06-08T08:33:24Z</time>
      </trkpt>
      <trkpt lat="47.8181500" lon="9.0397280">
        <ele>26.2</ele>
        <time>2022-06-08T08:33:28Z</time>
      </trkpt>
      <trkpt lat="47.8181260" lon="9.0399850">
        <ele>26.2</ele>
        <time>2022-06-08T08:33:32Z</time>
      </trkpt>
      <trkpt lat="47.8180960" lon="9.0402410">
        <ele>26.4</ele>
        <time>2022-06-08T08:33:36Z</time>
      </trkpt>
      <trkpt lat="47.8180700" lon="9.0405010">
        <ele>26.2</ele>
        <time>2022-06-08T08:33:40Z</time>
      </trkpt>
      <trkpt lat="47.8180400" lon="9.0407560">
        <ele>26.8</ele>
        <time>2022-06-08T08:33:44Z</time>
      </trkpt>
      <trkpt lat="47.8180110" lon="9.0410010">
        <ele>27.6</ele>
        <time>2022-06-08T08:33:48Z</time>
      </trkpt>
      <trkpt lat="47.8179800" lon="9.0412650">
        <ele>27.2</ele>
        <time>2022-06-08T08:33:52Z</time>
      </trkpt>
      <trkpt lat="47.8179580" lon="9.0415400">
        <ele>26.8</ele>
        <time>2022-06-08T08:33:56Z</time>
      </trkpt>
      <trkpt lat="47.8179350" lon="9.0417900">
        <ele>27.6</ele>
        <time>2022-06-08T08:34:00Z</time>
      </trkpt>
      <trkpt lat="47.8179200" lon="9.0420110">
        <ele>27.6</ele>
        <time>2022-06-08T08:34:04Z</time>
      </trkpt>
      <trkpt lat="47.8179010" lon="9.0422230">
        <ele>27.8</ele>
        <time>2022-06-08T08:34:08Z</time>
      </trkpt>
      <trkpt lat="47.8178760" lon="9.0424500">
        <ele>29.0</ele>
        <time>2022-06-08T08:34:12Z</time>
      </trkpt>
      <trkpt lat="47.8178530" lon="9.0427010">
        <ele>29.8</ele>
        <time>2022-06-08T08:34:16Z</time>
      </trkpt>
      <trkpt lat="47.8178180" lon="9.0429230">
        <ele>29.4</ele>
        <time>2022-06-08T08:34:20Z</time>
      </trkpt>
      <trkpt lat="47.8177880" lon="9.0431650">
        <ele>29.8</ele>
        <time>2022-06-08T08:34:24Z</time>
      </trkpt>
      <trkpt lat="47.8177530" lon="9.0434200">
        <ele>29.2</ele>
        <time>2022-06-08T08:34:28Z</time>
      </trkpt>
      <trkpt lat="47.8177110" lon="9.0436700">
        <ele>30.2</ele>
        <time>2022-06-08T08:34:32Z</time>
      </trkpt>
      <trkpt lat="47.8176560" lon="9.0439080">
        <ele>30.2</ele>
        <time>2022-06-08T08:34:36Z</time>
      </trkpt>
      <trkpt lat="47.8176010" lon="9.0441450">
        <ele>30.2</ele>
        <time>2022-06-08T08:34:40Z</time>
      </trkpt>
      <trkpt lat="47.8175500" lon="9.0443780">
        <ele>29.8</ele>
        <time>2022-06-08T08:34:44Z</time>
      </trkpt>
      <trkpt lat="47.8174860" lon="9.0446050">
        <ele>29.8</ele>
        <time>2022-06-08T08:34:48Z</time>
      </trkpt>
      <trkpt lat="47.8174110" lon="9.0448330">
        <ele>29.6</ele>
        <time>2022-06-08T08:34:52Z</time>
      </trkpt>
      <trkpt lat="47.8173280" lon="9.0450710">
        <ele>29.4</ele>
        <time>2022-06-08T08:34:56Z</time>
      </trkpt>
      <trkpt lat="47.8172250" lon="9.0454050">
        <ele>27.6</ele>
        <time>2022-06-08T08:35:00Z</time>
      </trkpt>
      <trkpt lat="47.8171350" lon="9.0457800">
        <ele>26.4</ele>
        <time>2022-06-08T08:35:04Z</time>
      </trkpt>
      <trkpt lat="47.8170460" lon="9.0461380">
        <ele>26.2</ele>
        <time>2022-06-08T08:35:08Z</time>
      </trkpt>
      <trkpt lat="47.8169600" lon="9.0465050">
        <ele>26.2</ele>
        <time>2022-06-08T08:35:12Z</time>
      </trkpt>
      <trkpt lat="47.8168680" lon="9.0468800">
        <ele>24.8</ele>
        <time>2022-06-08T08:35:16Z</time>
      </trkpt>
      <trkpt lat="47.8167800" lon="9.0472530">
        <ele>23.2</ele>
        <time>2022-06-08T08:35:20Z</time>
      </trkpt>
      <trkpt lat="47.8167000" lon="9.0476300">
        <ele>23.6</ele>
        <time>2022-06-08T08:35:24Z</time>
      </trkpt>
      <trkpt lat="47.8166150" lon="9.0479830">
        <ele>23.2</ele>
        <time>2022-06-08T08:35:28Z</time>
      </trkpt>
      <trkpt lat="47.8165330" lon="9.0483210">
        <ele>24.8</ele>
        <time>2022-06-08T08:35:32Z</time>
      </trkpt>
      <trkpt lat="47.8164550" lon="9.0486560">
        <ele>24.6</ele>
        <time>2022-06-08T08:35:36Z</time>
      </trkpt>
      <trkpt lat="47.8163700" lon="9.0489860">
        <ele>23.0</ele>
        <time>2022-06-08T08:35:40Z</time>
      </trkpt>
      <trkpt lat="47.8162760" lon="9.0493650">
        <ele>21.0</ele>
        <time>2022-06-08T08:35:44Z</time>
      </trkpt>
      <trkpt lat="47.8161910" lon="9.0497480">
        <ele>20.0</ele>
        <time>2022-06-08T08:35:48Z</time>
      </trkpt>
      <trkpt lat="47.8162080" lon="9.0500580">
        <ele>22.0</ele>
        <time>2022-06-08T08:35:52Z</time>
      </trkpt>
      <trkpt lat="47.8162030" lon="9.0502950">
        <ele>23.4</ele>
        <time>2022-06-08T08:35:56Z</time>
      </trkpt>
      <trkpt lat="47.8161130" lon="9.0505050">
        <ele>22.4</ele>
        <time>2022-06-08T08:36:00Z</time>
      </trkpt>
      <trkpt lat="47.8160230" lon="9.0507080">
        <ele>23.2</ele>
        <time>2022-06-08T08:36:04Z</time>
      </trkpt>
      <trkpt lat="47.8159800" lon="9.0509850">
        <ele>22.8</ele>
        <time>2022-06-08T08:36:08Z</time>
      </trkpt>
      <trkpt lat="47.8159280" lon="9.0513160">
        <ele>21.6</ele>
        <time>2022-06-08T08:36:12Z</time>
      </trkpt>
      <trkpt lat="47.8158850" lon="9.0516350">
        <ele>21.2</ele>
        <time>2022-06-08T08:36:16Z</time>
      </trkpt>
      <trkpt lat="47.8158430" lon="9.0519510">
        <ele>21.6</ele>
        <time>2022-06-08T08:36:20Z</time>
      </trkpt>
      <trkpt lat="47.8157950" lon="9.0522660">
        <ele>21.0</ele>
        <time>2022-06-08T08:36:24Z</time>
      </trkpt>
      <trkpt lat="47.8157560" lon="9.0525550">
        <ele>21.4</ele>
        <time>2022-06-08T08:36:28Z</time>
      </trkpt>
      <trkpt lat="47.8157430" lon="9.0528150">
        <ele>21.4</ele>
        <time>2022-06-08T08:36:32Z</time>
      </trkpt>
      <trkpt lat="47.8158080" lon="9.0530430">
        <ele>21.2</ele>
        <time>2022-06-08T08:36:36Z</time>
      </trkpt>
      <trkpt lat="47.8157760" lon="9.0533080">
        <ele>21.4</ele>
        <time>2022-06-08T08:36:40Z</time>
      </trkpt>
      <trkpt lat="47.8157400" lon="9.0535830">
        <ele>21.0</ele>
        <time>2022-06-08T08:36:44Z</time>
      </trkpt>
      <trkpt lat="47.8156910" lon="9.0538610">
        <ele>21.2</ele>
        <time>2022-06-08T08:36:48Z</time>
      </trkpt>
      <trkpt lat="47.8155710" lon="9.0540710">
        <ele>20.4</ele>
        <time>2022-06-08T08:36:52Z</time>
      </trkpt>
      <trkpt lat="47.8155280" lon="9.0543250">
        <ele>21.6</ele>
        <time>2022-06-08T08:36:56Z</time>
      </trkpt>
      <trkpt lat="47.8154810" lon="9.0545760">
        <ele>21.6</ele>
        <time>2022-06-08T08:37:00Z</time>
      </trkpt>
      <trkpt lat="47.8154260" lon="9.0548250">
        <ele>21.6</ele>
        <time>2022-06-08T08:37:04Z</time>
      </trkpt>
      <trkpt lat="47.8153930" lon="9.0549830">
        <ele>21.4</ele>
        <time>2022-06-08T08:37:08Z</time>
      </trkpt>
      <trkpt lat="47.8153960" lon="9.0549900">
        <ele>21.8</ele>
        <time>2022-06-08T08:37:12Z</time>
      </trkpt>
      <trkpt lat="47.8153780" lon="9.0549660">
        <ele>21.6</ele>
        <time>2022-06-08T08:37:16Z</time>
      </trkpt>
      <trkpt lat="47.8153450" lon="9.0548980">
        <ele>21.0</ele>
        <time>2022-06-08T08:37:20Z</time>
      </trkpt>
      <trkpt lat="47.8152580" lon="9.0548100">
        <ele>21.2</ele>
        <time>2022-06-08T08:37:24Z</time>
      </trkpt>
      <trkpt lat="47.8151010" lon="9.0547380">
        <ele>21.4</ele>
        <time>2022-06-08T08:37:28Z</time>
      </trkpt>
      <trkpt lat="47.8149200" lon="9.0547360">
        <ele>19.8</ele>
        <time>2022-06-08T08:37:32Z</time>
      </trkpt>
      <trkpt lat="47.8148760" lon="9.0549700">
        <ele>21.2</ele>
        <time>2022-06-08T08:37:36Z</time>
      </trkpt>
      <trkpt lat="47.8150110" lon="9.0551300">
        <ele>20.4</ele>
        <time>2022-06-08T08:37:40Z</time>
      </trkpt>
      <trkpt lat="47.8151110" lon="9.0553280">
        <ele>21.2</ele>
        <time>2022-06-08T08:37:44Z</time>
      </trkpt>
      <trkpt lat="47.8151230" lon="9.0555800">
        <ele>21.0</ele>
        <time>2022-06-08T08:37:48Z</time>
      </trkpt>
      <trkpt lat="47.8151410" lon="9.0558080">
        <ele>20.8</ele>
        <time>2022-06-08T08:37:52Z</time>
      </trkpt>
      <trkpt lat="47.8151900" lon="9.0560680">
        <ele>20.4</ele>
        <time>2022-06-08T08:37:56Z</time>
      </trkpt>
      <trkpt lat="47.8152300" lon="9.0563350">
        <ele>21.2</ele>
        <time>2022-06-08T08:38:00Z</time>
      </trkpt>
      <trkpt lat="47.8152500" lon="9.0566310">
        <ele>20.6</ele>
        <time>2022-06-08T08:38:04Z</time>
      </trkpt>
      <trkpt lat="47.8152710" lon="9.0569500">
        <ele>19.8</ele>
        <time>2022-06-08T08:38:08Z</time>
      </trkpt>
      <trkpt lat="47.8152950" lon="9.0572730">
        <ele>19.8</ele>
        <time>2022-06-08T08:38:12Z</time>
      </trkpt>
      <trkpt lat="47.8153150" lon="9.0575980">
        <ele>19.8</ele>
        <time>2022-06-08T08:38:16Z</time>
      </trkpt>
      <trkpt lat="47.8153350" lon="9.0579200">
        <ele>19.8</ele>
        <time>2022-06-08T08:38:20Z</time>
      </trkpt>
      <trkpt lat="47.8153560" lon="9.0582330">
        <ele>20.0</ele>
        <time>2022-06-08T08:38:24Z</time>
      </trkpt>
      <trkpt lat="47.8153610" lon="9.0585410">
        <ele>19.6</ele>
        <time>2022-06-08T08:38:28Z</time>
      </trkpt>
      <trkpt lat="47.8154000" lon="9.0588330">
        <ele>20.2</ele>
        <time>2022-06-08T08:38:32Z</time>
      </trkpt>
      <trkpt lat="47.8154280" lon="9.0590380">
        <ele>20.0</ele>
        <time>2022-06-08T08:38:36Z</time>
      </trkpt>
      <trkpt lat="47.8155160" lon="9.0590730">
        <ele>20.0</ele>
        <time>2022-06-08T08:38:40Z</time>
      </trkpt>
      <trkpt lat="47.8156350" lon="9.0591410">
        <ele>20.6</ele>
        <time>2022-06-08T08:38:44Z</time>
      </trkpt>
      <trkpt lat="47.8156660" lon="9.0593080">
        <ele>20.4</ele>
        <time>2022-06-08T08:38:48Z</time>
      </trkpt>
      <trkpt lat="47.8156900" lon="9.0595060">
        <ele>20.6</ele>
        <time>2022-06-08T08:38:52Z</time>
      </trkpt>
      <trkpt lat="47.8156930" lon="9.0597410">
        <ele>21.4</ele>
        <time>2022-06-08T08:38:56Z</time>
      </trkpt>
      <trkpt lat="47.8156800" lon="9.0600050">
        <ele>21.6</ele>
        <time>2022-06-08T08:39:00Z</time>
      </trkpt>
      <trkpt lat="47.8156680" lon="9.0602730">
        <ele>22.6</ele>
        <time>2022-06-08T08:39:04Z</time>
      </trkpt>
      <trkpt lat="47.8156410" lon="9.0605280">
        <ele>23.0</ele>
        <time>2022-06-08T08:39:08Z</time>
      </trkpt>
      <trkpt lat="47.8156030" lon="9.0607750">
        <ele>23.0</ele>
        <time>2022-06-08T08:39:12Z</time>
      </trkpt>
      <trkpt lat="47.8155660" lon="9.0610180">
        <ele>23.4</ele>
        <time>2022-06-08T08:39:16Z</time>
      </trkpt>
      <trkpt lat="47.8155300" lon="9.0612450">
        <ele>23.8</ele>
        <time>2022-06-08T08:39:20Z</time>
      </trkpt>
      <trkpt lat="47.8154860" lon="9.0614600">
        <ele>23.8</ele>
        <time>2022-06-08T08:39:24Z</time>
      </trkpt>
      <trkpt lat="47.8154380" lon="9.0616880">
        <ele>24.8</ele>
        <time>2022-06-08T08:39:28Z</time>
      </trkpt>
      <trkpt lat="47.8153710" lon="9.0619110">
        <ele>24.8</ele>
        <time>2022-06-08T08:39:32Z</time>
      </trkpt>
      <trkpt lat="47.8152950" lon="9.0621350">
        <ele>25.4</ele>
        <time>2022-06-08T08:39:36Z</time>
      </trkpt>
      <trkpt lat="47.8152060" lon="9.0623510">
        <ele>25.4</ele>
        <time>2022-06-08T08:39:40Z</time>
      </trkpt>
      <trkpt lat="47.8151000" lon="9.0625560">
        <ele>25.0</ele>
        <time>2022-06-08T08:39:44Z</time>
      </trkpt>
      <trkpt lat="47.8149810" lon="9.0627610">
        <ele>24.8</ele>
        <time>2022-06-08T08:39:48Z</time>
      </trkpt>
      <trkpt lat="47.8148580" lon="9.0629700">
        <ele>25.4</ele>
        <time>2022-06-08T08:39:52Z</time>
      </trkpt>
      <trkpt lat="47.8147330" lon="9.0631860">
        <ele>25.0</ele>
        <time>2022-06-08T08:39:56Z</time>
      </trkpt>
      <trkpt lat="47.8146050" lon="9.0634050">
        <ele>24.8</ele>
        <time>2022-06-08T08:40:00Z</time>
      </trkpt>
      <trkpt lat="47.8144660" lon="9.0636350">
        <ele>24.6</ele>
        <time>2022-06-08T08:40:04Z</time>
      </trkpt>
      <trkpt lat="47.8143300" lon="9.0638710">
        <ele>25.6</ele>
        <time>2022-06-08T08:40:08Z</time>
      </trkpt>
      <trkpt lat="47.8141910" lon="9.0641030">
        <ele>25.4</ele>
        <time>2022-06-08T08:40:12Z</time>
      </trkpt>
      <trkpt lat="47.8140510" lon="9.0643410">
        <ele>25.4</ele>
        <time>2022-06-08T08:40:16Z</time>
      </trkpt>
      <trkpt lat="47.8139150" lon="9.0645810">
        <ele>25.4</ele>
        <time>2022-06-08T08:40:20Z</time>
      </trkpt>
      <trkpt lat="47.8137730" lon="9.0648160">
        <ele>25.4</ele>
        <time>2022-06-08T08:40:24Z</time>
      </trkpt>
      <trkpt lat="47.8136260" lon="9.0650480">
        <ele>25.2</ele>
        <time>2022-06-08T08:40:28Z</time>
      </trkpt>
      <trkpt lat="47.8134760" lon="9.0652780">
        <ele>25.0</ele>
        <time>2022-06-08T08:40:32Z</time>
      </trkpt>
      <trkpt lat="47.8133250" lon="9.0655100">
        <ele>25.0</ele>
        <time>2022-06-08T08:40:36Z</time>
      </trkpt>
      <trkpt lat="47.8131650" lon="9.0657180">
        <ele>25.4</ele>
        <time>2022-06-08T08:40:40Z</time>
      </trkpt>
      <trkpt lat="47.8130030" lon="9.0659100">
        <ele>25.4</ele>
        <time>2022-06-08T08:40:44Z</time>
      </trkpt>
      <trkpt lat="47.8128380" lon="9.0660900">
        <ele>25.4</ele>
        <time>2022-06-08T08:40:48Z</time>
      </trkpt>
      <trkpt lat="47.8126750" lon="9.0662700">
        <ele>25.2</ele>
        <time>2022-06-08T08:40:52Z</time>
      </trkpt>
      <trkpt lat="47.8125080" lon="9.0664360">
        <ele>25.8</ele>
        <time>2022-06-08T08:40:56Z</time>
      </trkpt>
      <trkpt lat="47.8123410" lon="9.0665950">
        <ele>25.8</ele>
        <time>2022-06-08T08:41:00Z</time>
      </trkpt>
      <trkpt lat="47.8121700" lon="9.0667380">
        <ele>25.2</ele>
        <time>2022-06-08T08:41:04Z</time>
      </trkpt>
      <trkpt lat="47.8119950" lon="9.0668810">
        <ele>26.4</ele>
        <time>2022-06-08T08:41:08Z</time>
      </trkpt>
      <trkpt lat="47.8118130" lon="9.0670210">
        <ele>26.2</ele>
        <time>2022-06-08T08:41:12Z</time>
      </trkpt>
      <trkpt lat="47.8116250" lon="9.0671650">
        <ele>25.6</ele>
        <time>2022-06-08T08:41:16Z</time>
      </trkpt>
      <trkpt lat="47.8114210" lon="9.0673160">
        <ele>25.4</ele>
        <time>2022-06-08T08:41:20Z</time>
      </trkpt>
      <trkpt lat="47.8112250" lon="9.0674630">
        <ele>26.8</ele>
        <time>2022-06-08T08:41:24Z</time>
      </trkpt>
      <trkpt lat="47.8110280" lon="9.0676050">
        <ele>26.8</ele>
        <time>2022-06-08T08:41:28Z</time>
      </trkpt>
      <trkpt lat="47.8108260" lon="9.0677460">
        <ele>27.0</ele>
        <time>2022-06-08T08:41:32Z</time>
      </trkpt>
      <trkpt lat="47.8106200" lon="9.0678930">
        <ele>26.4</ele>
        <time>2022-06-08T08:41:36Z</time>
      </trkpt>
      <trkpt lat="47.8104200" lon="9.0680380">
        <ele>26.4</ele>
        <time>2022-06-08T08:41:40Z</time>
      </trkpt>
      <trkpt lat="47.8102180" lon="9.0681880">
        <ele>26.8</ele>
        <time>2022-06-08T08:41:44Z</time>
      </trkpt>
      <trkpt lat="47.8100180" lon="9.0683460">
        <ele>26.8</ele>
        <time>2022-06-08T08:41:48Z</time>
      </trkpt>
      <trkpt lat="47.8098230" lon="9.0685060">
        <ele>26.8</ele>
        <time>2022-06-08T08:41:52Z</time>
      </trkpt>
      <trkpt lat="47.8096330" lon="9.0686850">
        <ele>26.6</ele>
        <time>2022-06-08T08:41:56Z</time>
      </trkpt>
      <trkpt lat="47.8094460" lon="9.0688630">
        <ele>26.2</ele>
        <time>2022-06-08T08:42:00Z</time>
      </trkpt>
      <trkpt lat="47.8092630" lon="9.0690550">
        <ele>26.0</ele>
        <time>2022-06-08T08:42:04Z</time>
      </trkpt>
      <trkpt lat="47.8090810" lon="9.0692600">
        <ele>25.4</ele>
        <time>2022-06-08T08:42:08Z</time>
      </trkpt>
      <trkpt lat="47.8089010" lon="9.0694660">
        <ele>26.2</ele>
        <time>2022-06-08T08:42:12Z</time>
      </trkpt>
      <trkpt lat="47.8087110" lon="9.0697030">
        <ele>24.2</ele>
        <time>2022-06-08T08:42:16Z</time>
      </trkpt>
      <trkpt lat="47.8085400" lon="9.0699880">
        <ele>22.4</ele>
        <time>2022-06-08T08:42:20Z</time>
      </trkpt>
      <trkpt lat="47.8084450" lon="9.0702750">
        <ele>22.4</ele>
        <time>2022-06-08T08:42:24Z</time>
      </trkpt>
      <trkpt lat="47.8083360" lon="9.0704980">
        <ele>22.8</ele>
        <time>2022-06-08T08:42:28Z</time>
      </trkpt>
      <trkpt lat="47.8082280" lon="9.0706830">
        <ele>24.0</ele>
        <time>2022-06-08T08:42:32Z</time>
      </trkpt>
      <trkpt lat="47.8081210" lon="9.0708750">
        <ele>24.4</ele>
        <time>2022-06-08T08:42:36Z</time>
      </trkpt>
      <trkpt lat="47.8080000" lon="9.0710980">
        <ele>24.6</ele>
        <time>2022-06-08T08:42:40Z</time>
      </trkpt>
      <trkpt lat="47.8078700" lon="9.0713230">
        <ele>24.2</ele>
        <time>2022-06-08T08:42:44Z</time>
      </trkpt>
      <trkpt lat="47.8077380" lon="9.0715450">
        <ele>24.6</ele>
        <time>2022-06-08T08:42:48Z</time>
      </trkpt>
      <trkpt lat="47.8076100" lon="9.0717560">
        <ele>26.0</ele>
        <time>2022-06-08T08:42:52Z</time>
      </trkpt>
      <trkpt lat="47.8074800" lon="9.0719660">
        <ele>26.4</ele>
        <time>2022-06-08T08:42:56Z</time>
      </trkpt>
      <trkpt lat="47.8073460" lon="9.0721810">
        <ele>26.0</ele>
        <time>2022-06-08T08:43:00Z</time>
      </trkpt>
      <trkpt lat="47.8072160" lon="9.0723950">
        <ele>26.2</ele>
        <time>2022-06-08T08:43:04Z</time>
      </trkpt>
      <trkpt lat="47.8071010" lon="9.0726100">
        <ele>26.8</ele>
        <time>2022-06-08T08:43:08Z</time>
      </trkpt>
      <trkpt lat="47.8069930" lon="9.0728330">
        <ele>26.8</ele>
        <time>2022-06-08T08:43:12Z</time>
      </trkpt>
      <trkpt lat="47.8068960" lon="9.0730830">
        <ele>27.6</ele>
        <time>2022-06-08T08:43:16Z</time>
      </trkpt>
      <trkpt lat="47.8068030" lon="9.0733550">
        <ele>26.8</ele>
        <time>2022-06-08T08:43:20Z</time>
      </trkpt>
      <trkpt lat="47.8067150" lon="9.0736510">
        <ele>25.4</ele>
        <time>2022-06-08T08:43:24Z</time>
      </trkpt>
      <trkpt lat="47.8066150" lon="9.0739750">
        <ele>25.6</ele>
        <time>2022-06-08T08:43:28Z</time>
      </trkpt>
      <trkpt lat="47.8065030" lon="9.0743030">
        <ele>24.0</ele>
        <time>2022-06-08T08:43:32Z</time>
      </trkpt>
      <trkpt lat="47.8063960" lon="9.0746200">
        <ele>23.4</ele>
        <time>2022-06-08T08:43:36Z</time>
      </trkpt>
      <trkpt lat="47.8062750" lon="9.0749150">
        <ele>24.4</ele>
        <time>2022-06-08T08:43:40Z</time>
      </trkpt>
      <trkpt lat="47.8061410" lon="9.0751730">
        <ele>24.0</ele>
        <time>2022-06-08T08:43:44Z</time>
      </trkpt>
      <trkpt lat="47.8059910" lon="9.0754010">
        <ele>25.0</ele>
        <time>2022-06-08T08:43:48Z</time>
      </trkpt>
      <trkpt lat="47.8058300" lon="9.0756130">
        <ele>24.6</ele>
        <time>2022-06-08T08:43:52Z</time>
      </trkpt>
      <trkpt lat="47.8056510" lon="9.0758050">
        <ele>24.8</ele>
        <time>2022-06-08T08:43:56Z</time>
      </trkpt>
      <trkpt lat="47.8054660" lon="9.0759750">
        <ele>25.2</ele>
        <time>2022-06-08T08:44:00Z</time>
      </trkpt>
      <trkpt lat="47.8052850" lon="9.0761580">
        <ele>24.0</ele>
        <time>2022-06-08T08:44:04Z</time>
      </trkpt>
      <trkpt lat="47.8051060" lon="9.0763250">
        <ele>22.8</ele>
        <time>2022-06-08T08:44:08Z</time>
      </trkpt>
      <trkpt lat="47.8049360" lon="9.0764880">
        <ele>22.4</ele>
        <time>2022-06-08T08:44:12Z</time>
      </trkpt>
      <trkpt lat="47.8047560" lon="9.0766850">
        <ele>22.4</ele>
        <time>2022-06-08T08:44:16Z</time>
      </trkpt>
      <trkpt lat="47.8045860" lon="9.0769250">
        <ele>22.4</ele>
        <time>2022-06-08T08:44:20Z</time>
      </trkpt>
      <trkpt lat="47.8044400" lon="9.0771800">
        <ele>22.0</ele>
        <time>2022-06-08T08:44:24Z</time>
      </trkpt>
      <trkpt lat="47.8042980" lon="9.0774510">
        <ele>23.2</ele>
        <time>2022-06-08T08:44:28Z</time>
      </trkpt>
      <trkpt lat="47.8041660" lon="9.0777300">
        <ele>22.4</ele>
        <time>2022-06-08T08:44:32Z</time>
      </trkpt>
      <trkpt lat="47.8040530" lon="9.0780050">
        <ele>22.0</ele>
        <time>2022-06-08T08:44:36Z</time>
      </trkpt>
      <trkpt lat="47.8039610" lon="9.0782850">
        <ele>23.0</ele>
        <time>2022-06-08T08:44:40Z</time>
      </trkpt>
      <trkpt lat="47.8038530" lon="9.0785380">
        <ele>23.2</ele>
        <time>2022-06-08T08:44:44Z</time>
      </trkpt>
      <trkpt lat="47.8037480" lon="9.0787930">
        <ele>23.4</ele>
        <time>2022-06-08T08:44:48Z</time>
      </trkpt>
      <trkpt lat="47.8036150" lon="9.0790200">
        <ele>24.6</ele>
        <time>2022-06-08T08:44:52Z</time>
      </trkpt>
      <trkpt lat="47.8034830" lon="9.0792530">
        <ele>24.6</ele>
        <time>2022-06-08T08:44:56Z</time>
      </trkpt>
      <trkpt lat="47.8033460" lon="9.0794810">
        <ele>24.2</ele>
        <time>2022-06-08T08:45:00Z</time>
      </trkpt>
      <trkpt lat="47.8031760" lon="9.0796710">
        <ele>24.6</ele>
        <time>2022-06-08T08:45:04Z</time>
      </trkpt>
      <trkpt lat="47.8030200" lon="9.0798760">
        <ele>22.4</ele>
        <time>2022-06-08T08:45:08Z</time>
      </trkpt>
      <trkpt lat="47.8029230" lon="9.0800750">
        <ele>24.2</ele>
        <time>2022-06-08T08:45:12Z</time>
      </trkpt>
      <trkpt lat="47.8028230" lon="9.0802650">
        <ele>23.4</ele>
        <time>2022-06-08T08:45:16Z</time>
      </trkpt>
      <trkpt lat="47.8027210" lon="9.0804710">
        <ele>24.0</ele>
        <time>2022-06-08T08:45:20Z</time>
      </trkpt>
      <trkpt lat="47.8026150" lon="9.0806760">
        <ele>24.2</ele>
        <time>2022-06-08T08:45:24Z</time>
      </trkpt>
      <trkpt lat="47.8025060" lon="9.0808930">
        <ele>25.4</ele>
        <time>2022-06-08T08:45:28Z</time>
      </trkpt>
      <trkpt lat="47.8023980" lon="9.0811060">
        <ele>24.8</ele>
        <time>2022-06-08T08:45:32Z</time>
      </trkpt>
      <trkpt lat="47.8022950" lon="9.0813280">
        <ele>24.8</ele>
        <time>2022-06-08T08:45:36Z</time>
      </trkpt>
      <trkpt lat="47.8021700" lon="9.0815380">
        <ele>24.4</ele>
        <time>2022-06-08T08:45:40Z</time>
      </trkpt>
      <trkpt lat="47.8020500" lon="9.0817580">
        <ele>24.0</ele>
        <time>2022-06-08T08:45:44Z</time>
      </trkpt>
      <trkpt lat="47.8019210" lon="9.0819950">
        <ele>24.2</ele>
        <time>2022-06-08T08:45:48Z</time>
      </trkpt>
      <trkpt lat="47.8017950" lon="9.0822280">
        <ele>23.6</ele>
        <time>2022-06-08T08:45:52Z</time>
      </trkpt>
      <trkpt lat="47.8016710" lon="9.0824610">
        <ele>24.2</ele>
        <time>2022-06-08T08:45:56Z</time>
      </trkpt>
      <trkpt lat="47.8015480" lon="9.0826910">
        <ele>24.2</ele>
        <time>2022-06-08T08:46:00Z</time>
      </trkpt>
      <trkpt lat="47.8014260" lon="9.0829230">
        <ele>24.2</ele>
        <time>2022-06-08T08:46:04Z</time>
      </trkpt>
      <trkpt lat="47.8013100" lon="9.0831600">
        <ele>23.4</ele>
        <time>2022-06-08T08:46:08Z</time>
      </trkpt>
      <trkpt lat="47.8011810" lon="9.0833860">
        <ele>24.0</ele>
        <time>2022-06-08T08:46:12Z</time>
      </trkpt>
      <trkpt lat="47.8010610" lon="9.0836200">
        <ele>23.6</ele>
        <time>2022-06-08T08:46:16Z</time>
      </trkpt>
      <trkpt lat="47.8009450" lon="9.0838600">
        <ele>23.6</ele>
        <time>2022-06-08T08:46:20Z</time>
      </trkpt>
      <trkpt lat="47.8008460" lon="9.0841430">
        <ele>22.0</ele>
        <time>2022-06-08T08:46:24Z</time>
      </trkpt>
      <trkpt lat="47.8007780" lon="9.0844460">
        <ele>22.2</ele>
        <time>2022-06-08T08:46:28Z</time>
      </trkpt>
      <trkpt lat="47.8007060" lon="9.0847480">
        <ele>22.4</ele>
        <time>2022-06-08T08:46:32Z</time>
      </trkpt>
      <trkpt lat="47.8006280" lon="9.0850350">
        <ele>22.8</ele>
        <time>2022-06-08T08:46:36Z</time>
      </trkpt>
      <trkpt lat="47.8005360" lon="9.0853030">
        <ele>23.4</ele>
        <time>2022-06-08T08:46:40Z</time>
      </trkpt>
      <trkpt lat="47.8004310" lon="9.0855580">
        <ele>23.4</ele>
        <time>2022-06-08T08:46:44Z</time>
      </trkpt>
      <trkpt lat="47.8003100" lon="9.0857930">
        <ele>22.8</ele>
        <time>2022-06-08T08:46:48Z</time>
      </trkpt>
      <trkpt lat="47.8001760" lon="9.0860280">
        <ele>22.8</ele>
        <time>2022-06-08T08:46:52Z</time>
      </trkpt>
      <trkpt lat="47.8000300" lon="9.0862500">
        <ele>23.4</ele>
        <time>2022-06-08T08:46:56Z</time>
      </trkpt>
      <trkpt lat="47.7998730" lon="9.0864550">
        <ele>23.0</ele>
        <time>2022-06-08T08:47:00Z</time>
      </trkpt>
      <trkpt lat="47.7997050" lon="9.0866330">
        <ele>24.0</ele>
        <time>2022-06-08T08:47:04Z</time>
      </trkpt>
      <trkpt lat="47.7995360" lon="9.0868230">
        <ele>23.6</ele>
        <time>2022-06-08T08:47:08Z</time>
      </trkpt>
      <trkpt lat="47.7994160" lon="9.0870460">
        <ele>24.0</ele>
        <time>2022-06-08T08:47:12Z</time>
      </trkpt>
      <trkpt lat="47.7993260" lon="9.0872010">
        <ele>25.4</ele>
        <time>2022-06-08T08:47:16Z</time>
      </trkpt>
      <trkpt lat="47.7992410" lon="9.0873050">
        <ele>27.0</ele>
        <time>2022-06-08T08:47:20Z</time>
      </trkpt>
      <trkpt lat="47.7991430" lon="9.0874050">
        <ele>27.4</ele>
        <time>2022-06-08T08:47:24Z</time>
      </trkpt>
      <trkpt lat="47.7990210" lon="9.0875600">
        <ele>27.0</ele>
        <time>2022-06-08T08:47:28Z</time>
      </trkpt>
      <trkpt lat="47.7988860" lon="9.0877350">
        <ele>26.6</ele>
        <time>2022-06-08T08:47:32Z</time>
      </trkpt>
      <trkpt lat="47.7987550" lon="9.0879260">
        <ele>26.6</ele>
        <time>2022-06-08T08:47:36Z</time>
      </trkpt>
      <trkpt lat="47.7986230" lon="9.0881400">
        <ele>26.8</ele>
        <time>2022-06-08T08:47:40Z</time>
      </trkpt>
      <trkpt lat="47.7985000" lon="9.0883610">
        <ele>27.2</ele>
        <time>2022-06-08T08:47:44Z</time>
      </trkpt>
      <trkpt lat="47.7983860" lon="9.0885930">
        <ele>26.8</ele>
        <time>2022-06-08T08:47:48Z</time>
      </trkpt>
      <trkpt lat="47.7982750" lon="9.0888150">
        <ele>27.2</ele>
        <time>2022-06-08T08:47:52Z</time>
      </trkpt>
      <trkpt lat="47.7981900" lon="9.0890610">
        <ele>27.8</ele>
        <time>2022-06-08T08:47:56Z</time>
      </trkpt>
      <trkpt lat="47.7981200" lon="9.0892930">
        <ele>27.6</ele>
        <time>2022-06-08T08:48:00Z</time>
      </trkpt>
      <trkpt lat="47.7980500" lon="9.0894960">
        <ele>27.8</ele>
        <time>2022-06-08T08:48:04Z</time>
      </trkpt>
      <trkpt lat="47.7979910" lon="9.0897130">
        <ele>28.2</ele>
        <time>2022-06-08T08:48:08Z</time>
      </trkpt>
      <trkpt lat="47.7979500" lon="9.0899160">
        <ele>28.0</ele>
        <time>2022-06-08T08:48:12Z</time>
      </trkpt>
      <trkpt lat="47.7978980" lon="9.0901160">
        <ele>27.8</ele>
        <time>2022-06-08T08:48:16Z</time>
      </trkpt>
      <trkpt lat="47.7977950" lon="9.0902630">
        <ele>26.8</ele>
        <time>2022-06-08T08:48:20Z</time>
      </trkpt>
      <trkpt lat="47.7976410" lon="9.0903930">
        <ele>24.2</ele>
        <time>2022-06-08T08:48:24Z</time>
      </trkpt>
      <trkpt lat="47.7975500" lon="9.0906660">
        <ele>25.0</ele>
        <time>2022-06-08T08:48:28Z</time>
      </trkpt>
      <trkpt lat="47.7974650" lon="9.0909360">
        <ele>25.0</ele>
        <time>2022-06-08T08:48:32Z</time>
      </trkpt>
      <trkpt lat="47.7974010" lon="9.0912180">
        <ele>24.0</ele>
        <time>2022-06-08T08:48:36Z</time>
      </trkpt>
      <trkpt lat="47.7973530" lon="9.0914930">
        <ele>25.4</ele>
        <time>2022-06-08T08:48:40Z</time>
      </trkpt>
      <trkpt lat="47.7973160" lon="9.0917350">
        <ele>24.6</ele>
        <time>2022-06-08T08:48:44Z</time>
      </trkpt>
      <trkpt lat="47.7972710" lon="9.0920050">
        <ele>24.4</ele>
        <time>2022-06-08T08:48:48Z</time>
      </trkpt>
      <trkpt lat="47.7972280" lon="9.0922710">
        <ele>25.0</ele>
        <time>2022-06-08T08:48:52Z</time>
      </trkpt>
      <trkpt lat="47.7971950" lon="9.0925260">
        <ele>25.4</ele>
        <time>2022-06-08T08:48:56Z</time>
      </trkpt>
      <trkpt lat="47.7971160" lon="9.0927680">
        <ele>25.0</ele>
        <time>2022-06-08T08:49:00Z</time>
      </trkpt>
      <trkpt lat="47.7970110" lon="9.0929930">
        <ele>25.0</ele>
        <time>2022-06-08T08:49:04Z</time>
      </trkpt>
      <trkpt lat="47.7968980" lon="9.0932330">
        <ele>24.8</ele>
        <time>2022-06-08T08:49:08Z</time>
      </trkpt>
      <trkpt lat="47.7967800" lon="9.0934780">
        <ele>24.6</ele>
        <time>2022-06-08T08:49:12Z</time>
      </trkpt>
      <trkpt lat="47.7966560" lon="9.0937310">
        <ele>24.2</ele>
        <time>2022-06-08T08:49:16Z</time>
      </trkpt>
      <trkpt lat="47.7965380" lon="9.0939930">
        <ele>24.6</ele>
        <time>2022-06-08T08:49:20Z</time>
      </trkpt>
      <trkpt lat="47.7964210" lon="9.0942480">
        <ele>24.2</ele>
        <time>2022-06-08T08:49:24Z</time>
      </trkpt>
      <trkpt lat="47.7963050" lon="9.0944930">
        <ele>24.0</ele>
        <time>2022-06-08T08:49:28Z</time>
      </trkpt>
      <trkpt lat="47.7961930" lon="9.0947460">
        <ele>22.8</ele>
        <time>2022-06-08T08:49:32Z</time>
      </trkpt>
      <trkpt lat="47.7960860" lon="9.0950000">
        <ele>22.8</ele>
        <time>2022-06-08T08:49:36Z</time>
      </trkpt>
      <trkpt lat="47.7960100" lon="9.0952810">
        <ele>23.2</ele>
        <time>2022-06-08T08:49:40Z</time>
      </trkpt>
      <trkpt lat="47.7959480" lon="9.0955550">
        <ele>22.8</ele>
        <time>2022-06-08T08:49:44Z</time>
      </trkpt>
      <trkpt lat="47.7958800" lon="9.0958050">
        <ele>23.0</ele>
        <time>2022-06-08T08:49:48Z</time>
      </trkpt>
      <trkpt lat="47.7958000" lon="9.0960010">
        <ele>23.0</ele>
        <time>2022-06-08T08:49:52Z</time>
      </trkpt>
      <trkpt lat="47.7957050" lon="9.0961380">
        <ele>22.4</ele>
        <time>2022-06-08T08:49:56Z</time>
      </trkpt>
      <trkpt lat="47.7956250" lon="9.0962650">
        <ele>22.8</ele>
        <time>2022-06-08T08:50:00Z</time>
      </trkpt>
      <trkpt lat="47.7955650" lon="9.0963960">
        <ele>22.0</ele>
        <time>2022-06-08T08:50:04Z</time>
      </trkpt>
      <trkpt lat="47.7955280" lon="9.0964400">
        <ele>22.0</ele>
        <time>2022-06-08T08:50:08Z</time>
      </trkpt>
      <trkpt lat="47.7954880" lon="9.0964300">
        <ele>22.2</ele>
        <time>2022-06-08T08:50:12Z</time>
      </trkpt>
      <trkpt lat="47.7954860" lon="9.0963110">
        <ele>22.4</ele>
        <time>2022-06-08T08:50:16Z</time>
      </trkpt>
      <trkpt lat="47.7954500" lon="9.0961660">
        <ele>22.2</ele>
        <time>2022-06-08T08:50:20Z</time>
      </trkpt>
      <trkpt lat="47.7953880" lon="9.0960500">
        <ele>22.4</ele>
        <time>2022-06-08T08:50:24Z</time>
      </trkpt>
      <trkpt lat="47.7953030" lon="9.0959650">
        <ele>22.2</ele>
        <time>2022-06-08T08:50:28Z</time>
      </trkpt>
      <trkpt lat="47.7951750" lon="9.0960350">
        <ele>21.2</ele>
        <time>2022-06-08T08:50:32Z</time>
      </trkpt>
      <trkpt lat="47.7950650" lon="9.0962210">
        <ele>21.0</ele>
        <time>2022-06-08T08:50:36Z</time>
      </trkpt>
      <trkpt lat="47.7949880" lon="9.0964500">
        <ele>21.2</ele>
        <time>2022-06-08T08:50:40Z</time>
      </trkpt>
      <trkpt lat="47.7949130" lon="9.0966250">
        <ele>21.2</ele>
        <time>2022-06-08T08:50:44Z</time>
      </trkpt>
      <trkpt lat="47.7947760" lon="9.0965510">
        <ele>21.0</ele>
        <time>2022-06-08T08:50:48Z</time>
      </trkpt>
      <trkpt lat="47.7946880" lon="9.0967360">
        <ele>20.4</ele>
        <time>2022-06-08T08:50:52Z</time>
      </trkpt>
      <trkpt lat="47.7946610" lon="9.0969560">
        <ele>20.6</ele>
        <time>2022-06-08T08:50:56Z</time>
      </trkpt>
      <trkpt lat="47.7947210" lon="9.0971680">
        <ele>20.8</ele>
        <time>2022-06-08T08:51:00Z</time>
      </trkpt>
      <trkpt lat="47.7948050" lon="9.0972950">
        <ele>21.4</ele>
        <time>2022-06-08T08:51:04Z</time>
      </trkpt>
      <trkpt lat="47.7948900" lon="9.0974200">
        <ele>21.6</ele>
        <time>2022-06-08T08:51:08Z</time>
      </trkpt>
      <trkpt lat="47.7948710" lon="9.0976400">
        <ele>21.4</ele>
        <time>2022-06-08T08:51:12Z</time>
      </trkpt>
      <trkpt lat="47.7948530" lon="9.0978680">
        <ele>21.6</ele>
        <time>2022-06-08T08:51:16Z</time>
      </trkpt>
      <trkpt lat="47.7948500" lon="9.0980700">
        <ele>21.6</ele>
        <time>2022-06-08T08:51:20Z</time>
      </trkpt>
      <trkpt lat="47.7948380" lon="9.0982700">
        <ele>21.4</ele>
        <time>2022-06-08T08:51:24Z</time>
      </trkpt>
      <trkpt lat="47.7948230" lon="9.0985000">
        <ele>21.2</ele>
        <time>2022-06-08T08:51:28Z</time>
      </trkpt>
      <trkpt lat="47.7948080" lon="9.0987480">
        <ele>22.0</ele>
        <time>2022-06-08T08:51:32Z</time>
      </trkpt>
      <trkpt lat="47.7947880" lon="9.0989910">
        <ele>21.6</ele>
        <time>2022-06-08T08:51:36Z</time>
      </trkpt>
      <trkpt lat="47.7947510" lon="9.0991160">
        <ele>21.4</ele>
        <time>2022-06-08T08:51:40Z</time>
      </trkpt>
      <trkpt lat="47.7946980" lon="9.0991130">
        <ele>21.4</ele>
        <time>2022-06-08T08:51:44Z</time>
      </trkpt>
      <trkpt lat="47.7946980" lon="9.0991130">
        <ele>20.8</ele>
        <time>2022-06-08T08:51:48Z</time>
      </trkpt>
      <trkpt lat="47.7946980" lon="9.0991130">
        <ele>21.0</ele>
        <time>2022-06-08T08:51:52Z</time>
      </trkpt>
      <trkpt lat="47.7946980" lon="9.0991330">
        <ele>21.6</ele>
        <time>2022-06-08T08:51:56Z</time>
      </trkpt>
      <trkpt lat="47.7947210" lon="9.0991350">
        <ele>21.4</ele>
        <time>2022-06-08T08:52:00Z</time>
      </trkpt>
      <trkpt lat="47.7947730" lon="9.0990900">
        <ele>21.4</ele>
        <time>2022-06-08T08:52:04Z</time>
      </trkpt>
      <trkpt lat="47.7947860" lon="9.0989410">
        <ele>21.6</ele>
        <time>2022-06-08T08:52:08Z</time>
      </trkpt>
      <trkpt lat="47.7947980" lon="9.0987680">
        <ele>21.8</ele>
        <time>2022-06-08T08:52:12Z</time>
      </trkpt>
      <trkpt lat="47.7948100" lon="9.0985860">
        <ele>21.4</ele>
        <time>2022-06-08T08:52:16Z</time>
      </trkpt>
      <trkpt lat="47.7948200" lon="9.0984730">
        <ele>22.0</ele>
        <time>2022-06-08T08:52:20Z</time>
      </trkpt>
      <trkpt lat="47.7948200" lon="9.0984730">
        <ele>21.6</ele>
        <time>2022-06-08T08:52:24Z</time>
      </trkpt>
      <trkpt lat="47.7948250" lon="9.0984480">
        <ele>21.6</ele>
        <time>2022-06-08T08:52:28Z</time>
      </trkpt>
      <trkpt lat="47.7948380" lon="9.0983210">
        <ele>21.8</ele>
        <time>2022-06-08T08:52:32Z</time>
      </trkpt>
      <trkpt lat="47.7948430" lon="9.0980980">
        <ele>21.8</ele>
        <time>2022-06-08T08:52:36Z</time>
      </trkpt>
      <trkpt lat="47.7948630" lon="9.0978680">
        <ele>21.4</ele>
        <time>2022-06-08T08:52:40Z</time>
      </trkpt>
      <trkpt lat="47.7948880" lon="9.0976210">
        <ele>21.6</ele>
        <time>2022-06-08T08:52:44Z</time>
      </trkpt>
      <trkpt lat="47.7949060" lon="9.0974030">
        <ele>21.8</ele>
        <time>2022-06-08T08:52:48Z</time>
      </trkpt>
      <trkpt lat="47.7949000" lon="9.0972750">
        <ele>21.8</ele>
        <time>2022-06-08T08:52:52Z</time>
      </trkpt>
      <trkpt lat="47.7948950" lon="9.0970900">
        <ele>21.8</ele>
        <time>2022-06-08T08:52:56Z</time>
      </trkpt>
      <trkpt lat="47.7949280" lon="9.0968730">
        <ele>21.2</ele>
        <time>2022-06-08T08:53:00Z</time>
      </trkpt>
      <trkpt lat="47.7950030" lon="9.0967030">
        <ele>21.2</ele>
        <time>2022-06-08T08:53:04Z</time>
      </trkpt>
      <trkpt lat="47.7951050" lon="9.0964880">
        <ele>21.8</ele>
        <time>2022-06-08T08:53:08Z</time>
      </trkpt>
      <trkpt lat="47.7951580" lon="9.0962460">
        <ele>21.4</ele>
        <time>2022-06-08T08:53:12Z</time>
      </trkpt>
      <trkpt lat="47.7952110" lon="9.0960330">
        <ele>21.4</ele>
        <time>2022-06-08T08:53:16Z</time>
      </trkpt>
      <trkpt lat="47.7953060" lon="9.0959460">
        <ele>21.8</ele>
        <time>2022-06-08T08:53:20Z</time>
      </trkpt>
      <trkpt lat="47.7953960" lon="9.0960760">
        <ele>22.0</ele>
        <time>2022-06-08T08:53:24Z</time>
      </trkpt>
      <trkpt lat="47.7954680" lon="9.0962280">
        <ele>21.6</ele>
        <time>2022-06-08T08:53:28Z</time>
      </trkpt>
      <trkpt lat="47.7955230" lon="9.0963880">
        <ele>22.0</ele>
        <time>2022-06-08T08:53:32Z</time>
      </trkpt>
      <trkpt lat="47.7955450" lon="9.0964950">
        <ele>22.0</ele>
        <time>2022-06-08T08:53:36Z</time>
      </trkpt>
      <trkpt lat="47.7955730" lon="9.0965280">
        <ele>22.0</ele>
        <time>2022-06-08T08:53:40Z</time>
      </trkpt>
      <trkpt lat="47.7955830" lon="9.0965550">
        <ele>21.8</ele>
        <time>2022-06-08T08:53:44Z</time>
      </trkpt>
      <trkpt lat="47.7955830" lon="9.0965550">
        <ele>21.8</ele>
        <time>2022-06-08T08:53:48Z</time>
      </trkpt>
      <trkpt lat="47.7955830" lon="9.0965550">
        <ele>22.0</ele>
        <time>2022-06-08T08:53:52Z</time>
      </trkpt>
      <trkpt lat="47.7955830" lon="9.0965550">
        <ele>22.0</ele>
        <time>2022-06-08T08:53:56Z</time>
      </trkpt>
      <trkpt lat="47.7955830" lon="9.0965550">
        <ele>21.8</ele>
        <time>2022-06-08T08:54:00Z</time>
      </trkpt>
      <trkpt lat="47.7955830" lon="9.0965550">
        <ele>21.8</ele>
        <time>2022-06-08T08:54:04Z</time>
      </trkpt>
      <trkpt lat="47.7955830" lon="9.0965550">
        <ele>21.8</ele>
        <time>2022-06-08T08:54:08Z</time>
      </trkpt>
      <trkpt lat="47.7955830" lon="9.0965550">
        <ele>22.0</ele>
        <time>2022-06-08T08:54:12Z</time>
      </trkpt>
      <trkpt lat="47.7955830" lon="9.0965550">
        <ele>22.0</ele>
        <time>2022-06-08T08:54:16Z</time>
      </trkpt>
      <trkpt lat="47.7955830" lon="9.0965550">
        <ele>22.0</ele>
        <time>2022-06-08T08:54:20Z</time>
      </trkpt>
      <trkpt lat="47.7955830" lon="9.0965550">
        <ele>21.6</ele>
        <time>2022-06-08T08:54:24Z</time>
      </trkpt>
      <trkpt lat="47.7955830" lon="9.0965550">
        <ele>21.6</ele>
        <time>2022-06-08T08:54:28Z</time>
      </trkpt>
      <trkpt lat="47.7955830" lon="9.0965550">
        <ele>21.8</ele>
        <time>2022-06-08T08:54:32Z</time>
      </trkpt>
      <trkpt lat="47.7955830" lon="9.0965550">
        <ele>22.0</ele>
        <time>2022-06-08T08:54:36Z</time>
      </trkpt>
      <trkpt lat="47.7955830" lon="9.0965550">
        <ele>22.0</ele>
        <time>2022-06-08T08:54:40Z</time>
      </trkpt>
      <trkpt lat="47.7955830" lon="9.0965550">
        <ele>22.0</ele>
        <time>2022-06-08T08:54:44Z</time>
      </trkpt>
      <trkpt lat="47.7955830" lon="9.0965550">
        <ele>21.8</ele>
        <time>2022-06-08T08:54:48Z</time>
      </trkpt>
      <trkpt lat="47.7955830" lon="9.0965550">
        <ele>21.8</ele>
        <time>2022-06-08T08:54:52Z</time>
      </trkpt>
      <trkpt lat="47.7955830" lon="9.0965550">
        <ele>21.8</ele>
        <time>2022-06-08T08:54:56Z</time>
      </trkpt>
      <trkpt lat="47.7955830" lon="9.0965550">
        <ele>21.6</ele>
        <time>2022-06-08T08:55:00Z</time>
      </trkpt>
      <trkpt lat="47.7955830" lon="9.0965550">
        <ele>21.4</ele>
        <time>2022-06-08T08:55:04Z</time>
      </trkpt>
      <trkpt lat="47.7955830" lon="9.0965550">
        <ele>21.6</ele>
        <time>2022-06-08T08:55:08Z</time>
      </trkpt>
      <trkpt lat="47.7955830" lon="9.0965550">
        <ele>21.6</ele>
        <time>2022-06-08T08:55:12Z</time>
      </trkpt>
      <trkpt lat="47.7955830" lon="9.0965550">
        <ele>21.6</ele>
        <time>2022-06-08T08:55:16Z</time>
      </trkpt>
      <trkpt lat="47.7955830" lon="9.0965550">
        <ele>22.0</ele>
        <time>2022-06-08T08:55:20Z</time>
      </trkpt>
      <trkpt lat="47.7955830" lon="9.0965550">
        <ele>21.6</ele>
        <time>2022-06-08T08:55:24Z</time>
      </trkpt>
      <trkpt lat="47.7955830" lon="9.0965550">
        <ele>21.6</ele>
        <time>2022-06-08T08:55:28Z</time>
      </trkpt>
      <trkpt lat="47.7955830" lon="9.0965550">
        <ele>21.4</ele>
        <time>2022-06-08T08:55:32Z</time>
      </trkpt>
      <trkpt lat="47.7955830" lon="9.0965550">
        <ele>21.4</ele>
        <time>2022-06-08T08:55:36Z</time>
      </trkpt>
      <trkpt lat="47.7955830" lon="9.0965550">
        <ele>21.4</ele>
        <time>2022-06-08T08:55:40Z</time>
      </trkpt>
      <trkpt lat="47.7955830" lon="9.0965550">
        <ele>21.6</ele>
        <time>2022-06-08T08:55:44Z</time>
      </trkpt>
      <trkpt lat="47.7955830" lon="9.0965550">
        <ele>21.8</ele>
        <time>2022-06-08T08:55:48Z</time>
      </trkpt>
      <trkpt lat="47.7955830" lon="9.0965550">
        <ele>21.4</ele>
        <time>2022-06-08T08:55:52Z</time>
      </trkpt>
      <trkpt lat="47.7955830" lon="9.0965550">
        <ele>21.4</ele>
        <time>2022-06-08T08:55:56Z</time>
      </trkpt>
      <trkpt lat="47.7955830" lon="9.0965550">
        <ele>21.6</ele>
        <time>2022-06-08T08:56:00Z</time>
      </trkpt>
      <trkpt lat="47.7955830" lon="9.0965550">
        <ele>21.6</ele>
        <time>2022-06-08T08:56:04Z</time>
      </trkpt>
      <trkpt lat="47.7955830" lon="9.0965550">
        <ele>21.4</ele>
        <time>2022-06-08T08:56:08Z</time>
      </trkpt>
      <trkpt lat="47.7955830" lon="9.0965550">
        <ele>21.6</ele>
        <time>2022-06-08T08:56:12Z</time>
      </trkpt>
      <trkpt lat="47.7955830" lon="9.0965550">
        <ele>21.4</ele>
        <time>2022-06-08T08:56:16Z</time>
      </trkpt>
      <trkpt lat="47.7955830" lon="9.0965550">
        <ele>21.6</ele>
        <time>2022-06-08T08:56:20Z</time>
      </trkpt>
      <trkpt lat="47.7955830" lon="9.0965550">
        <ele>21.4</ele>
        <time>2022-06-08T08:56:24Z</time>
      </trkpt>
      <trkpt lat="47.7955830" lon="9.0965550">
        <ele>21.8</ele>
        <time>2022-06-08T08:56:28Z</time>
      </trkpt>
      <trkpt lat="47.7955830" lon="9.0965550">
        <ele>21.2</ele>
        <time>2022-06-08T08:56:32Z</time>
      </trkpt>
      <trkpt lat="47.7955830" lon="9.0965550">
        <ele>21.0</ele>
        <time>2022-06-08T08:56:36Z</time>
      </trkpt>
      <trkpt lat="47.7955830" lon="9.0965550">
        <ele>21.2</ele>
        <time>2022-06-08T08:56:40Z</time>
      </trkpt>
      <trkpt lat="47.7955830" lon="9.0965550">
        <ele>21.4</ele>
        <time>2022-06-08T08:56:44Z</time>
      </trkpt>
      <trkpt lat="47.7955830" lon="9.0965550">
        <ele>21.4</ele>
        <time>2022-06-08T08:56:48Z</time>
      </trkpt>
      <trkpt lat="47.7955830" lon="9.0965550">
        <ele>21.6</ele>
        <time>2022-06-08T08:56:52Z</time>
      </trkpt>
      <trkpt lat="47.7955830" lon="9.0965550">
        <ele>21.2</ele>
        <time>2022-06-08T08:56:56Z</time>
      </trkpt>
      <trkpt lat="47.7955830" lon="9.0965550">
        <ele>21.4</ele>
        <time>2022-06-08T08:57:00Z</time>
      </trkpt>
      <trkpt lat="47.7955830" lon="9.0965550">
        <ele>21.6</ele>
        <time>2022-06-08T08:57:04Z</time>
      </trkpt>
      <trkpt lat="47.7955830" lon="9.0965550">
        <ele>21.8</ele>
        <time>2022-06-08T08:57:08Z</time>
      </trkpt>
      <trkpt lat="47.7955830" lon="9.0965550">
        <ele>21.8</ele>
        <time>2022-06-08T08:57:12Z</time>
      </trkpt>
      <trkpt lat="47.7955830" lon="9.0965550">
        <ele>21.6</ele>
        <time>2022-06-08T08:57:16Z</time>
      </trkpt>
      <trkpt lat="47.7955830" lon="9.0965550">
        <ele>21.4</ele>
        <time>2022-06-08T08:57:20Z</time>
      </trkpt>
      <trkpt lat="47.7955830" lon="9.0965550">
        <ele>20.8</ele>
        <time>2022-06-08T08:57:24Z</time>
      </trkpt>
      <trkpt lat="47.7955830" lon="9.0965550">
        <ele>21.2</ele>
        <time>2022-06-08T08:57:28Z</time>
      </trkpt>
      <trkpt lat="47.7955830" lon="9.0965550">
        <ele>21.4</ele>
        <time>2022-06-08T08:57:32Z</time>
      </trkpt>
      <trkpt lat="47.7955830" lon="9.0965550">
        <ele>21.4</ele>
        <time>2022-06-08T08:57:36Z</time>
      </trkpt>
      <trkpt lat="47.7955830" lon="9.0965550">
        <ele>21.4</ele>
        <time>2022-06-08T08:57:40Z</time>
      </trkpt>
      <trkpt lat="47.7955830" lon="9.0965550">
        <ele>21.4</ele>
        <time>2022-06-08T08:57:44Z</time>
      </trkpt>
      <trkpt lat="47.7955830" lon="9.0965550">
        <ele>21.6</ele>
        <time>2022-06-08T08:57:48Z</time>
      </trkpt>
      <trkpt lat="47.7955060" lon="9.0966450">
        <ele>21.6</ele>
        <time>2022-06-08T08:57:52Z</time>
      </trkpt>
      <trkpt lat="47.7954700" lon="9.0966250">
        <ele>21.4</ele>
        <time>2022-06-08T08:57:56Z</time>
      </trkpt>
      <trkpt lat="47.7954610" lon="9.0965510">
        <ele>21.8</ele>
        <time>2022-06-08T08:58:00Z</time>
      </trkpt>
      <trkpt lat="47.7954610" lon="9.0965510">
        <ele>21.4</ele>
        <time>2022-06-08T08:58:04Z</time>
      </trkpt>
      <trkpt lat="47.7954850" lon="9.0964660">
        <ele>21.2</ele>
        <time>2022-06-08T08:58:08Z</time>
      </trkpt>
      <trkpt lat="47.7954650" lon="9.0963710">
        <ele>21.4</ele>
        <time>2022-06-08T08:58:12Z</time>
      </trkpt>
      <trkpt lat="47.7954500" lon="9.0962180">
        <ele>21.0</ele>
        <time>2022-06-08T08:58:16Z</time>
      </trkpt>
      <trkpt lat="47.7953980" lon="9.0960850">
        <ele>20.8</ele>
        <time>2022-06-08T08:58:20Z</time>
      </trkpt>
      <trkpt lat="47.7953280" lon="9.0959950">
        <ele>21.0</ele>
        <time>2022-06-08T08:58:24Z</time>
      </trkpt>
      <trkpt lat="47.7952360" lon="9.0959050">
        <ele>20.4</ele>
        <time>2022-06-08T08:58:28Z</time>
      </trkpt>
      <trkpt lat="47.7952530" lon="9.0957850">
        <ele>20.4</ele>
        <time>2022-06-08T08:58:32Z</time>
      </trkpt>
      <trkpt lat="47.7951910" lon="9.0957530">
        <ele>20.0</ele>
        <time>2022-06-08T08:58:36Z</time>
      </trkpt>
      <trkpt lat="47.7951210" lon="9.0958330">
        <ele>19.8</ele>
        <time>2022-06-08T08:58:40Z</time>
      </trkpt>
      <trkpt lat="47.7951210" lon="9.0958330">
        <ele>20.0</ele>
        <time>2022-06-08T08:58:44Z</time>
      </trkpt>
      <trkpt lat="47.7951010" lon="9.0959200">
        <ele>19.8</ele>
        <time>2022-06-08T08:58:48Z</time>
      </trkpt>
      <trkpt lat="47.7951130" lon="9.0959730">
        <ele>20.0</ele>
        <time>2022-06-08T08:58:52Z</time>
      </trkpt>
      <trkpt lat="47.7951130" lon="9.0959730">
        <ele>20.2</ele>
        <time>2022-06-08T08:58:56Z</time>
      </trkpt>
      <trkpt lat="47.7951130" lon="9.0959730">
        <ele>20.2</ele>
        <time>2022-06-08T08:59:00Z</time>
      </trkpt>
      <trkpt lat="47.7951130" lon="9.0959730">
        <ele>20.0</ele>
        <time>2022-06-08T08:59:04Z</time>
      </trkpt>
      <trkpt lat="47.7951130" lon="9.0959730">
        <ele>20.2</ele>
        <time>2022-06-08T08:59:08Z</time>
      </trkpt>
      <trkpt lat="47.7951130" lon="9.0959730">
        <ele>20.4</ele>
        <time>2022-06-08T08:59:12Z</time>
      </trkpt>
      <trkpt lat="47.7951130" lon="9.0959730">
        <ele>19.8</ele>
        <time>2022-06-08T08:59:16Z</time>
      </trkpt>
      <trkpt lat="47.7951130" lon="9.0959730">
        <ele>20.0</ele>
        <time>2022-06-08T08:59:20Z</time>
      </trkpt>
      <trkpt lat="47.7951130" lon="9.0959730">
        <ele>19.8</ele>
        <time>2022-06-08T08:59:24Z</time>
      </trkpt>
      <trkpt lat="47.7951130" lon="9.0959730">
        <ele>20.0</ele>
        <time>2022-06-08T08:59:28Z</time>
      </trkpt>
      <trkpt lat="47.7951130" lon="9.0959730">
        <ele>20.4</ele>
        <time>2022-06-08T08:59:32Z</time>
      </trkpt>
      <trkpt lat="47.7951130" lon="9.0959730">
        <ele>20.0</ele>
        <time>2022-06-08T08:59:36Z</time>
      </trkpt>
      <trkpt lat="47.7951130" lon="9.0959730">
        <ele>20.4</ele>
        <time>2022-06-08T08:59:40Z</time>
      </trkpt>
      <trkpt lat="47.7951130" lon="9.0959730">
        <ele>20.2</ele>
        <time>2022-06-08T08:59:44Z</time>
      </trkpt>
      <trkpt lat="47.7951130" lon="9.0959730">
        <ele>20.2</ele>
        <time>2022-06-08T08:59:48Z</time>
      </trkpt>
      <trkpt lat="47.7951130" lon="9.0959730">
        <ele>20.4</ele>
        <time>2022-06-08T08:59:52Z</time>
      </trkpt>
      <trkpt lat="47.7951130" lon="9.0959730">
        <ele>20.4</ele>
        <time>2022-06-08T08:59:56Z</time>
      </trkpt>
      <trkpt lat="47.7951130" lon="9.0959730">
        <ele>20.0</ele>
        <time>2022-06-08T09:00:00Z</time>
      </trkpt>
      <trkpt lat="47.7951130" lon="9.0959730">
        <ele>20.0</ele>
        <time>2022-06-08T09:00:04Z</time>
      </trkpt>
      <trkpt lat="47.7951130" lon="9.0959730">
        <ele>20.4</ele>
        <time>2022-06-08T09:00:08Z</time>
      </trkpt>
      <trkpt lat="47.7951130" lon="9.0959730">
        <ele>20.0</ele>
        <time>2022-06-08T09:00:12Z</time>
      </trkpt>
      <trkpt lat="47.7951130" lon="9.0959730">
        <ele>20.6</ele>
        <time>2022-06-08T09:00:16Z</time>
      </trkpt>
      <trkpt lat="47.7951130" lon="9.0959730">
        <ele>20.2</ele>
        <time>2022-06-08T09:00:20Z</time>
      </trkpt>
      <trkpt lat="47.7951130" lon="9.0959730">
        <ele>20.2</ele>
        <time>2022-06-08T09:00:24Z</time>
      </trkpt>
      <trkpt lat="47.7951130" lon="9.0959730">
        <ele>20.0</ele>
        <time>2022-06-08T09:00:28Z</time>
      </trkpt>
      <trkpt lat="47.7951130" lon="9.0959730">
        <ele>20.2</ele>
        <time>2022-06-08T09:00:32Z</time>
      </trkpt>
      <trkpt lat="47.7951130" lon="9.0959730">
        <ele>20.0</ele>
        <time>2022-06-08T09:00:36Z</time>
      </trkpt>
      <trkpt lat="47.7951130" lon="9.0959730">
        <ele>20.2</ele>
        <time>2022-06-08T09:00:40Z</time>
      </trkpt>
      <trkpt lat="47.7951130" lon="9.0959730">
        <ele>20.2</ele>
        <time>2022-06-08T09:00:44Z</time>
      </trkpt>
      <trkpt lat="47.7951130" lon="9.0959730">
        <ele>20.0</ele>
        <time>2022-06-08T09:00:48Z</time>
      </trkpt>
      <trkpt lat="47.7951130" lon="9.0959730">
        <ele>20.6</ele>
        <time>2022-06-08T09:00:52Z</time>
      </trkpt>
      <trkpt lat="47.7951130" lon="9.0959730">
        <ele>20.0</ele>
        <time>2022-06-08T09:00:56Z</time>
      </trkpt>
      <trkpt lat="47.7951130" lon="9.0959730">
        <ele>20.2</ele>
        <time>2022-06-08T09:01:00Z</time>
      </trkpt>
      <trkpt lat="47.7951130" lon="9.0959730">
        <ele>20.0</ele>
        <time>2022-06-08T09:01:04Z</time>
      </trkpt>
      <trkpt lat="47.7951130" lon="9.0959730">
        <ele>20.2</ele>
        <time>2022-06-08T09:01:08Z</time>
      </trkpt>
      <trkpt lat="47.7951130" lon="9.0959730">
        <ele>20.0</ele>
        <time>2022-06-08T09:01:12Z</time>
      </trkpt>
      <trkpt lat="47.7951130" lon="9.0959730">
        <ele>20.0</ele>
        <time>2022-06-08T09:01:16Z</time>
      </trkpt>
      <trkpt lat="47.7951130" lon="9.0959730">
        <ele>20.6</ele>
        <time>2022-06-08T09:01:20Z</time>
      </trkpt>
      <trkpt lat="47.7951130" lon="9.0959730">
        <ele>20.4</ele>
        <time>2022-06-08T09:01:24Z</time>
      </trkpt>
      <trkpt lat="47.7951130" lon="9.0959730">
        <ele>20.2</ele>
        <time>2022-06-08T09:01:28Z</time>
      </trkpt>
      <trkpt lat="47.7951130" lon="9.0959730">
        <ele>20.6</ele>
        <time>2022-06-08T09:01:32Z</time>
      </trkpt>
      <trkpt lat="47.7951130" lon="9.0959730">
        <ele>20.2</ele>
        <time>2022-06-08T09:01:36Z</time>
      </trkpt>
      <trkpt lat="47.7951130" lon="9.0959730">
        <ele>20.4</ele>
        <time>2022-06-08T09:01:40Z</time>
      </trkpt>
      <trkpt lat="47.7951130" lon="9.0959730">
        <ele>20.4</ele>
        <time>2022-06-08T09:01:44Z</time>
      </trkpt>
      <trkpt lat="47.7951130" lon="9.0959730">
        <ele>20.6</ele>
        <time>2022-06-08T09:01:48Z</time>
      </trkpt>
      <trkpt lat="47.7951130" lon="9.0959730">
        <ele>19.8</ele>
        <time>2022-06-08T09:01:52Z</time>
      </trkpt>
      <trkpt lat="47.7951130" lon="9.0959730">
        <ele>20.0</ele>
        <time>2022-06-08T09:01:56Z</time>
      </trkpt>
      <trkpt lat="47.7951130" lon="9.0959730">
        <ele>20.0</ele>
        <time>2022-06-08T09:02:00Z</time>
      </trkpt>
      <trkpt lat="47.7951130" lon="9.0959730">
        <ele>20.2</ele>
        <time>2022-06-08T09:02:04Z</time>
      </trkpt>
      <trkpt lat="47.7951130" lon="9.0959730">
        <ele>21.0</ele>
        <time>2022-06-08T09:02:08Z</time>
      </trkpt>
      <trkpt lat="47.7951130" lon="9.0959730">
        <ele>20.4</ele>
        <time>2022-06-08T09:02:12Z</time>
      </trkpt>
      <trkpt lat="47.7951130" lon="9.0959730">
        <ele>20.4</ele>
        <time>2022-06-08T09:02:16Z</time>
      </trkpt>
      <trkpt lat="47.7951130" lon="9.0959730">
        <ele>20.6</ele>
        <time>2022-06-08T09:02:20Z</time>
      </trkpt>
      <trkpt lat="47.7951130" lon="9.0959730">
        <ele>20.6</ele>
        <time>2022-06-08T09:02:24Z</time>
      </trkpt>
      <trkpt lat="47.7951130" lon="9.0959730">
        <ele>20.6</ele>
        <time>2022-06-08T09:02:28Z</time>
      </trkpt>
      <trkpt lat="47.7951130" lon="9.0959730">
        <ele>20.8</ele>
        <time>2022-06-08T09:02:32Z</time>
      </trkpt>
      <trkpt lat="47.7951130" lon="9.0959730">
        <ele>20.4</ele>
        <time>2022-06-08T09:02:36Z</time>
      </trkpt>
      <trkpt lat="47.7951130" lon="9.0959730">
        <ele>20.6</ele>
        <time>2022-06-08T09:02:40Z</time>
      </trkpt>
      <trkpt lat="47.7951130" lon="9.0959730">
        <ele>20.6</ele>
        <time>2022-06-08T09:02:44Z</time>
      </trkpt>
      <trkpt lat="47.7951130" lon="9.0959730">
        <ele>20.4</ele>
        <time>2022-06-08T09:02:48Z</time>
      </trkpt>
      <trkpt lat="47.7951130" lon="9.0959730">
        <ele>20.4</ele>
        <time>2022-06-08T09:02:52Z</time>
      </trkpt>
      <trkpt lat="47.7951130" lon="9.0959730">
        <ele>20.2</ele>
        <time>2022-06-08T09:02:56Z</time>
      </trkpt>
      <trkpt lat="47.7951130" lon="9.0959730">
        <ele>20.6</ele>
        <time>2022-06-08T09:03:00Z</time>
      </trkpt>
      <trkpt lat="47.7951130" lon="9.0959730">
        <ele>20.6</ele>
        <time>2022-06-08T09:03:04Z</time>
      </trkpt>
      <trkpt lat="47.7951130" lon="9.0959730">
        <ele>20.6</ele>
        <time>2022-06-08T09:03:08Z</time>
      </trkpt>
      <trkpt lat="47.7951130" lon="9.0959730">
        <ele>20.6</ele>
        <time>2022-06-08T09:03:12Z</time>
      </trkpt>
      <trkpt lat="47.7951130" lon="9.0959730">
        <ele>20.8</ele>
        <time>2022-06-08T09:03:16Z</time>
      </trkpt>
      <trkpt lat="47.7951130" lon="9.0959730">
        <ele>20.6</ele>
        <time>2022-06-08T09:03:20Z</time>
      </trkpt>
      <trkpt lat="47.7951130" lon="9.0959730">
        <ele>20.8</ele>
        <time>2022-06-08T09:03:24Z</time>
      </trkpt>
      <trkpt lat="47.7951130" lon="9.0959730">
        <ele>21.0</ele>
        <time>2022-06-08T09:03:28Z</time>
      </trkpt>
      <trkpt lat="47.7951130" lon="9.0959730">
        <ele>21.0</ele>
        <time>2022-06-08T09:03:32Z</time>
      </trkpt>
      <trkpt lat="47.7951130" lon="9.0959730">
        <ele>20.8</ele>
        <time>2022-06-08T09:03:36Z</time>
      </trkpt>
      <trkpt lat="47.7951130" lon="9.0959730">
        <ele>20.6</ele>
        <time>2022-06-08T09:03:40Z</time>
      </trkpt>
      <trkpt lat="47.7951130" lon="9.0959730">
        <ele>20.8</ele>
        <time>2022-06-08T09:03:44Z</time>
      </trkpt>
      <trkpt lat="47.7951130" lon="9.0959730">
        <ele>20.8</ele>
        <time>2022-06-08T09:03:48Z</time>
      </trkpt>
      <trkpt lat="47.7951130" lon="9.0959730">
        <ele>20.8</ele>
        <time>2022-06-08T09:03:52Z</time>
      </trkpt>
      <trkpt lat="47.7951130" lon="9.0959730">
        <ele>20.4</ele>
        <time>2022-06-08T09:03:56Z</time>
      </trkpt>
      <trkpt lat="47.7951130" lon="9.0959730">
        <ele>20.8</ele>
        <time>2022-06-08T09:04:00Z</time>
      </trkpt>
      <trkpt lat="47.7951130" lon="9.0959730">
        <ele>21.0</ele>
        <time>2022-06-08T09:04:04Z</time>
      </trkpt>
      <trkpt lat="47.7951130" lon="9.0959730">
        <ele>20.8</ele>
        <time>2022-06-08T09:04:08Z</time>
      </trkpt>
      <trkpt lat="47.7951130" lon="9.0959730">
        <ele>20.8</ele>
        <time>2022-06-08T09:04:12Z</time>
      </trkpt>
      <trkpt lat="47.7951130" lon="9.0959730">
        <ele>21.0</ele>
        <time>2022-06-08T09:04:16Z</time>
      </trkpt>
      <trkpt lat="47.7951130" lon="9.0959730">
        <ele>20.6</ele>
        <time>2022-06-08T09:04:20Z</time>
      </trkpt>
      <trkpt lat="47.7951130" lon="9.0959730">
        <ele>20.6</ele>
        <time>2022-06-08T09:04:24Z</time>
      </trkpt>
      <trkpt lat="47.7951130" lon="9.0959730">
        <ele>20.8</ele>
        <time>2022-06-08T09:04:28Z</time>
      </trkpt>
      <trkpt lat="47.7951130" lon="9.0959730">
        <ele>21.0</ele>
        <time>2022-06-08T09:04:32Z</time>
      </trkpt>
      <trkpt lat="47.7951130" lon="9.0959730">
        <ele>20.8</ele>
        <time>2022-06-08T09:04:36Z</time>
      </trkpt>
      <trkpt lat="47.7951130" lon="9.0959730">
        <ele>20.8</ele>
        <time>2022-06-08T09:04:40Z</time>
      </trkpt>
      <trkpt lat="47.7951130" lon="9.0959730">
        <ele>20.8</ele>
        <time>2022-06-08T09:04:44Z</time>
      </trkpt>
      <trkpt lat="47.7951130" lon="9.0959730">
        <ele>21.0</ele>
        <time>2022-06-08T09:04:48Z</time>
      </trkpt>
      <trkpt lat="47.7951130" lon="9.0959730">
        <ele>21.0</ele>
        <time>2022-06-08T09:04:52Z</time>
      </trkpt>
      <trkpt lat="47.7951130" lon="9.0959730">
        <ele>20.6</ele>
        <time>2022-06-08T09:04:56Z</time>
      </trkpt>
      <trkpt lat="47.7951130" lon="9.0959730">
        <ele>20.6</ele>
        <time>2022-06-08T09:05:00Z</time>
      </trkpt>
      <trkpt lat="47.7951130" lon="9.0959730">
        <ele>20.6</ele>
        <time>2022-06-08T09:05:04Z</time>
      </trkpt>
      <trkpt lat="47.7951130" lon="9.0959730">
        <ele>20.8</ele>
        <time>2022-06-08T09:05:08Z</time>
      </trkpt>
      <trkpt lat="47.7951130" lon="9.0959730">
        <ele>21.0</ele>
        <time>2022-06-08T09:05:12Z</time>
      </trkpt>
      <trkpt lat="47.7951130" lon="9.0959730">
        <ele>20.6</ele>
        <time>2022-06-08T09:05:16Z</time>
      </trkpt>
      <trkpt lat="47.7951130" lon="9.0959730">
        <ele>21.0</ele>
        <time>2022-06-08T09:05:20Z</time>
      </trkpt>
      <trkpt lat="47.7951130" lon="9.0959730">
        <ele>21.0</ele>
        <time>2022-06-08T09:05:24Z</time>
      </trkpt>
      <trkpt lat="47.7951130" lon="9.0959730">
        <ele>21.0</ele>
        <time>2022-06-08T09:05:28Z</time>
      </trkpt>
      <trkpt lat="47.7951130" lon="9.0959730">
        <ele>21.0</ele>
        <time>2022-06-08T09:05:32Z</time>
      </trkpt>
      <trkpt lat="47.7951130" lon="9.0959730">
        <ele>20.4</ele>
        <time>2022-06-08T09:05:36Z</time>
      </trkpt>
      <trkpt lat="47.7951130" lon="9.0959730">
        <ele>20.6</ele>
        <time>2022-06-08T09:05:40Z</time>
      </trkpt>
      <trkpt lat="47.7951130" lon="9.0959730">
        <ele>21.0</ele>
        <time>2022-06-08T09:05:44Z</time>
      </trkpt>
      <trkpt lat="47.7951130" lon="9.0959730">
        <ele>21.2</ele>
        <time>2022-06-08T09:05:48Z</time>
      </trkpt>
      <trkpt lat="47.7951130" lon="9.0959730">
        <ele>21.0</ele>
        <time>2022-06-08T09:05:52Z</time>
      </trkpt>
      <trkpt lat="47.7951130" lon="9.0959730">
        <ele>21.4</ele>
        <time>2022-06-08T09:05:56Z</time>
      </trkpt>
      <trkpt lat="47.7951130" lon="9.0959730">
        <ele>21.0</ele>
        <time>2022-06-08T09:06:00Z</time>
      </trkpt>
      <trkpt lat="47.7951130" lon="9.0959730">
        <ele>21.2</ele>
        <time>2022-06-08T09:06:04Z</time>
      </trkpt>
      <trkpt lat="47.7951130" lon="9.0959730">
        <ele>21.2</ele>
        <time>2022-06-08T09:06:08Z</time>
      </trkpt>
      <trkpt lat="47.7951130" lon="9.0959730">
        <ele>20.8</ele>
        <time>2022-06-08T09:06:12Z</time>
      </trkpt>
      <trkpt lat="47.7951130" lon="9.0959730">
        <ele>21.0</ele>
        <time>2022-06-08T09:06:16Z</time>
      </trkpt>
      <trkpt lat="47.7951130" lon="9.0959730">
        <ele>21.4</ele>
        <time>2022-06-08T09:06:20Z</time>
      </trkpt>
      <trkpt lat="47.7951130" lon="9.0959730">
        <ele>20.8</ele>
        <time>2022-06-08T09:06:24Z</time>
      </trkpt>
      <trkpt lat="47.7951130" lon="9.0959730">
        <ele>20.6</ele>
        <time>2022-06-08T09:06:28Z</time>
      </trkpt>
      <trkpt lat="47.7951130" lon="9.0959730">
        <ele>21.2</ele>
        <time>2022-06-08T09:06:32Z</time>
      </trkpt>
      <trkpt lat="47.7951130" lon="9.0959730">
        <ele>21.2</ele>
        <time>2022-06-08T09:06:36Z</time>
      </trkpt>
      <trkpt lat="47.7951130" lon="9.0959730">
        <ele>21.0</ele>
        <time>2022-06-08T09:06:40Z</time>
      </trkpt>
      <trkpt lat="47.7951130" lon="9.0959730">
        <ele>20.6</ele>
        <time>2022-06-08T09:06:44Z</time>
      </trkpt>
      <trkpt lat="47.7951130" lon="9.0959730">
        <ele>21.0</ele>
        <time>2022-06-08T09:06:48Z</time>
      </trkpt>
      <trkpt lat="47.7951130" lon="9.0959730">
        <ele>21.2</ele>
        <time>2022-06-08T09:06:52Z</time>
      </trkpt>
      <trkpt lat="47.7951130" lon="9.0959730">
        <ele>21.4</ele>
        <time>2022-06-08T09:06:56Z</time>
      </trkpt>
      <trkpt lat="47.7951130" lon="9.0959730">
        <ele>21.0</ele>
        <time>2022-06-08T09:07:00Z</time>
      </trkpt>
      <trkpt lat="47.7951130" lon="9.0959730">
        <ele>21.6</ele>
        <time>2022-06-08T09:07:04Z</time>
      </trkpt>
      <trkpt lat="47.7951130" lon="9.0959730">
        <ele>21.2</ele>
        <time>2022-06-08T09:07:08Z</time>
      </trkpt>
      <trkpt lat="47.7951130" lon="9.0959730">
        <ele>21.0</ele>
        <time>2022-06-08T09:07:12Z</time>
      </trkpt>
      <trkpt lat="47.7951130" lon="9.0959730">
        <ele>21.2</ele>
        <time>2022-06-08T09:07:16Z</time>
      </trkpt>
      <trkpt lat="47.7951130" lon="9.0959730">
        <ele>21.2</ele>
        <time>2022-06-08T09:07:20Z</time>
      </trkpt>
      <trkpt lat="47.7951130" lon="9.0959730">
        <ele>21.2</ele>
        <time>2022-06-08T09:07:24Z</time>
      </trkpt>
      <trkpt lat="47.7951130" lon="9.0959730">
        <ele>21.2</ele>
        <time>2022-06-08T09:07:28Z</time>
      </trkpt>
      <trkpt lat="47.7951130" lon="9.0959730">
        <ele>21.2</ele>
        <time>2022-06-08T09:07:32Z</time>
      </trkpt>
      <trkpt lat="47.7951130" lon="9.0959730">
        <ele>21.4</ele>
        <time>2022-06-08T09:07:36Z</time>
      </trkpt>
      <trkpt lat="47.7951130" lon="9.0959730">
        <ele>21.4</ele>
        <time>2022-06-08T09:07:40Z</time>
      </trkpt>
      <trkpt lat="47.7951130" lon="9.0959730">
        <ele>21.2</ele>
        <time>2022-06-08T09:07:44Z</time>
      </trkpt>
      <trkpt lat="47.7951130" lon="9.0959730">
        <ele>21.4</ele>
        <time>2022-06-08T09:07:48Z</time>
      </trkpt>
      <trkpt lat="47.7951130" lon="9.0959730">
        <ele>21.2</ele>
        <time>2022-06-08T09:07:52Z</time>
      </trkpt>
      <trkpt lat="47.7951130" lon="9.0959730">
        <ele>21.4</ele>
        <time>2022-06-08T09:07:56Z</time>
      </trkpt>
      <trkpt lat="47.7951130" lon="9.0959730">
        <ele>21.2</ele>
        <time>2022-06-08T09:08:00Z</time>
      </trkpt>
      <trkpt lat="47.7951130" lon="9.0959730">
        <ele>21.2</ele>
        <time>2022-06-08T09:08:04Z</time>
      </trkpt>
      <trkpt lat="47.7951130" lon="9.0959730">
        <ele>21.4</ele>
        <time>2022-06-08T09:08:08Z</time>
      </trkpt>
      <trkpt lat="47.7951130" lon="9.0959730">
        <ele>21.8</ele>
        <time>2022-06-08T09:08:12Z</time>
      </trkpt>
      <trkpt lat="47.7951130" lon="9.0959730">
        <ele>21.8</ele>
        <time>2022-06-08T09:08:16Z</time>
      </trkpt>
      <trkpt lat="47.7951130" lon="9.0959730">
        <ele>21.6</ele>
        <time>2022-06-08T09:08:20Z</time>
      </trkpt>
      <trkpt lat="47.7951130" lon="9.0959730">
        <ele>21.6</ele>
        <time>2022-06-08T09:08:24Z</time>
      </trkpt>
      <trkpt lat="47.7951130" lon="9.0959730">
        <ele>21.4</ele>
        <time>2022-06-08T09:08:28Z</time>
      </trkpt>
      <trkpt lat="47.7951130" lon="9.0959730">
        <ele>21.4</ele>
        <time>2022-06-08T09:08:32Z</time>
      </trkpt>
      <trkpt lat="47.7951130" lon="9.0959730">
        <ele>21.4</ele>
        <time>2022-06-08T09:08:36Z</time>
      </trkpt>
      <trkpt lat="47.7951130" lon="9.0959730">
        <ele>21.8</ele>
        <time>2022-06-08T09:08:40Z</time>
      </trkpt>
      <trkpt lat="47.7951130" lon="9.0959730">
        <ele>21.4</ele>
        <time>2022-06-08T09:08:44Z</time>
      </trkpt>
      <trkpt lat="47.7951130" lon="9.0959730">
        <ele>21.4</ele>
        <time>2022-06-08T09:08:48Z</time>
      </trkpt>
      <trkpt lat="47.7951130" lon="9.0959730">
        <ele>21.4</ele>
        <time>2022-06-08T09:08:52Z</time>
      </trkpt>
      <trkpt lat="47.7951130" lon="9.0959730">
        <ele>21.4</ele>
        <time>2022-06-08T09:08:56Z</time>
      </trkpt>
      <trkpt lat="47.7951130" lon="9.0959730">
        <ele>21.8</ele>
        <time>2022-06-08T09:09:00Z</time>
      </trkpt>
      <trkpt lat="47.7951130" lon="9.0959730">
        <ele>21.4</ele>
        <time>2022-06-08T09:09:04Z</time>
      </trkpt>
      <trkpt lat="47.7951130" lon="9.0959730">
        <ele>21.4</ele>
        <time>2022-06-08T09:09:08Z</time>
      </trkpt>
      <trkpt lat="47.7951130" lon="9.0959730">
        <ele>21.4</ele>
        <time>2022-06-08T09:09:12Z</time>
      </trkpt>
      <trkpt lat="47.7951130" lon="9.0959730">
        <ele>21.4</ele>
        <time>2022-06-08T09:09:16Z</time>
      </trkpt>
      <trkpt lat="47.7951130" lon="9.0959730">
        <ele>21.6</ele>
        <time>2022-06-08T09:09:20Z</time>
      </trkpt>
      <trkpt lat="47.7951130" lon="9.0959730">
        <ele>21.6</ele>
        <time>2022-06-08T09:09:24Z</time>
      </trkpt>
      <trkpt lat="47.7951130" lon="9.0959730">
        <ele>21.6</ele>
        <time>2022-06-08T09:09:28Z</time>
      </trkpt>
      <trkpt lat="47.7951130" lon="9.0959730">
        <ele>21.4</ele>
        <time>2022-06-08T09:09:32Z</time>
      </trkpt>
      <trkpt lat="47.7951130" lon="9.0959730">
        <ele>21.6</ele>
        <time>2022-06-08T09:09:36Z</time>
      </trkpt>
      <trkpt lat="47.7951130" lon="9.0959730">
        <ele>21.4</ele>
        <time>2022-06-08T09:09:40Z</time>
      </trkpt>
      <trkpt lat="47.7951130" lon="9.0959730">
        <ele>21.6</ele>
        <time>2022-06-08T09:09:44Z</time>
      </trkpt>
      <trkpt lat="47.7951130" lon="9.0959730">
        <ele>21.6</ele>
        <time>2022-06-08T09:09:48Z</time>
      </trkpt>
      <trkpt lat="47.7951130" lon="9.0959730">
        <ele>21.6</ele>
        <time>2022-06-08T09:09:52Z</time>
      </trkpt>
      <trkpt lat="47.7951130" lon="9.0959730">
        <ele>21.4</ele>
        <time>2022-06-08T09:09:56Z</time>
      </trkpt>
      <trkpt lat="47.7951130" lon="9.0959730">
        <ele>21.4</ele>
        <time>2022-06-08T09:10:00Z</time>
      </trkpt>
      <trkpt lat="47.7951130" lon="9.0959730">
        <ele>21.6</ele>
        <time>2022-06-08T09:10:04Z</time>
      </trkpt>
      <trkpt lat="47.7951130" lon="9.0959730">
        <ele>21.6</ele>
        <time>2022-06-08T09:10:08Z</time>
      </trkpt>
      <trkpt lat="47.7951130" lon="9.0959730">
        <ele>21.4</ele>
        <time>2022-06-08T09:10:12Z</time>
      </trkpt>
      <trkpt lat="47.7951130" lon="9.0959730">
        <ele>21.4</ele>
        <time>2022-06-08T09:10:16Z</time>
      </trkpt>
      <trkpt lat="47.7951130" lon="9.0959730">
        <ele>21.4</ele>
        <time>2022-06-08T09:10:20Z</time>
      </trkpt>
      <trkpt lat="47.7951130" lon="9.0959730">
        <ele>21.2</ele>
        <time>2022-06-08T09:10:24Z</time>
      </trkpt>
      <trkpt lat="47.7951130" lon="9.0959730">
        <ele>21.6</ele>
        <time>2022-06-08T09:10:28Z</time>
      </trkpt>
      <trkpt lat="47.7951130" lon="9.0959730">
        <ele>21.6</ele>
        <time>2022-06-08T09:10:32Z</time>
      </trkpt>
      <trkpt lat="47.7951130" lon="9.0959730">
        <ele>21.4</ele>
        <time>2022-06-08T09:10:36Z</time>
      </trkpt>
      <trkpt lat="47.7951130" lon="9.0959730">
        <ele>21.2</ele>
        <time>2022-06-08T09:10:40Z</time>
      </trkpt>
      <trkpt lat="47.7951130" lon="9.0959730">
        <ele>21.6</ele>
        <time>2022-06-08T09:10:44Z</time>
      </trkpt>
      <trkpt lat="47.7951130" lon="9.0959730">
        <ele>21.4</ele>
        <time>2022-06-08T09:10:48Z</time>
      </trkpt>
      <trkpt lat="47.7951130" lon="9.0959730">
        <ele>21.4</ele>
        <time>2022-06-08T09:10:52Z</time>
      </trkpt>
      <trkpt lat="47.7951130" lon="9.0959730">
        <ele>21.6</ele>
        <time>2022-06-08T09:10:56Z</time>
      </trkpt>
      <trkpt lat="47.7951130" lon="9.0959730">
        <ele>21.6</ele>
        <time>2022-06-08T09:11:00Z</time>
      </trkpt>
      <trkpt lat="47.7951130" lon="9.0959730">
        <ele>21.4</ele>
        <time>2022-06-08T09:11:04Z</time>
      </trkpt>
      <trkpt lat="47.7951130" lon="9.0959730">
        <ele>21.4</ele>
        <time>2022-06-08T09:11:08Z</time>
      </trkpt>
      <trkpt lat="47.7951130" lon="9.0959730">
        <ele>21.4</ele>
        <time>2022-06-08T09:11:12Z</time>
      </trkpt>
      <trkpt lat="47.7951130" lon="9.0959730">
        <ele>21.2</ele>
        <time>2022-06-08T09:11:16Z</time>
      </trkpt>
      <trkpt lat="47.7951130" lon="9.0959730">
        <ele>21.2</ele>
        <time>2022-06-08T09:11:20Z</time>
      </trkpt>
      <trkpt lat="47.7951130" lon="9.0959730">
        <ele>21.6</ele>
        <time>2022-06-08T09:11:24Z</time>
      </trkpt>
      <trkpt lat="47.7951130" lon="9.0959730">
        <ele>21.0</ele>
        <time>2022-06-08T09:11:28Z</time>
      </trkpt>
      <trkpt lat="47.7951130" lon="9.0959730">
        <ele>21.4</ele>
        <time>2022-06-08T09:11:32Z</time>
      </trkpt>
      <trkpt lat="47.7951130" lon="9.0959730">
        <ele>21.4</ele>
        <time>2022-06-08T09:11:36Z</time>
      </trkpt>
      <trkpt lat="47.7951130" lon="9.0959730">
        <ele>21.2</ele>
        <time>2022-06-08T09:11:40Z</time>
      </trkpt>
      <trkpt lat="47.7951130" lon="9.0959730">
        <ele>21.4</ele>
        <time>2022-06-08T09:11:44Z</time>
      </trkpt>
      <trkpt lat="47.7951130" lon="9.0959730">
        <ele>21.4</ele>
        <time>2022-06-08T09:11:48Z</time>
      </trkpt>
      <trkpt lat="47.7951130" lon="9.0959730">
        <ele>21.4</ele>
        <time>2022-06-08T09:11:52Z</time>
      </trkpt>
      <trkpt lat="47.7951130" lon="9.0959730">
        <ele>21.4</ele>
        <time>2022-06-08T09:11:56Z</time>
      </trkpt>
      <trkpt lat="47.7951130" lon="9.0959730">
        <ele>21.4</ele>
        <time>2022-06-08T09:12:00Z</time>
      </trkpt>
      <trkpt lat="47.7951130" lon="9.0959730">
        <ele>21.4</ele>
        <time>2022-06-08T09:12:04Z</time>
      </trkpt>
      <trkpt lat="47.7951130" lon="9.0959730">
        <ele>21.6</ele>
        <time>2022-06-08T09:12:08Z</time>
      </trkpt>
      <trkpt lat="47.7951130" lon="9.0959730">
        <ele>21.4</ele>
        <time>2022-06-08T09:12:12Z</time>
      </trkpt>
      <trkpt lat="47.7951130" lon="9.0959730">
        <ele>21.2</ele>
        <time>2022-06-08T09:12:16Z</time>
      </trkpt>
      <trkpt lat="47.7951130" lon="9.0959730">
        <ele>21.4</ele>
        <time>2022-06-08T09:12:20Z</time>
      </trkpt>
      <trkpt lat="47.7951130" lon="9.0959730">
        <ele>21.4</ele>
        <time>2022-06-08T09:12:24Z</time>
      </trkpt>
      <trkpt lat="47.7951130" lon="9.0959730">
        <ele>21.4</ele>
        <time>2022-06-08T09:12:28Z</time>
      </trkpt>
      <trkpt lat="47.7951130" lon="9.0959730">
        <ele>21.0</ele>
        <time>2022-06-08T09:12:32Z</time>
      </trkpt>
      <trkpt lat="47.7951130" lon="9.0959730">
        <ele>21.0</ele>
        <time>2022-06-08T09:12:36Z</time>
      </trkpt>
      <trkpt lat="47.7951130" lon="9.0959730">
        <ele>21.6</ele>
        <time>2022-06-08T09:12:40Z</time>
      </trkpt>
      <trkpt lat="47.7951130" lon="9.0959730">
        <ele>21.4</ele>
        <time>2022-06-08T09:12:44Z</time>
      </trkpt>
      <trkpt lat="47.7951130" lon="9.0959730">
        <ele>20.8</ele>
        <time>2022-06-08T09:12:48Z</time>
      </trkpt>
      <trkpt lat="47.7951130" lon="9.0959730">
        <ele>21.0</ele>
        <time>2022-06-08T09:12:52Z</time>
      </trkpt>
      <trkpt lat="47.7951130" lon="9.0959730">
        <ele>21.4</ele>
        <time>2022-06-08T09:12:56Z</time>
      </trkpt>
      <trkpt lat="47.7951130" lon="9.0959730">
        <ele>21.4</ele>
        <time>2022-06-08T09:13:00Z</time>
      </trkpt>
      <trkpt lat="47.7951130" lon="9.0959730">
        <ele>21.0</ele>
        <time>2022-06-08T09:13:04Z</time>
      </trkpt>
      <trkpt lat="47.7951130" lon="9.0959730">
        <ele>21.4</ele>
        <time>2022-06-08T09:13:08Z</time>
      </trkpt>
      <trkpt lat="47.7951130" lon="9.0959730">
        <ele>21.4</ele>
        <time>2022-06-08T09:13:12Z</time>
      </trkpt>
      <trkpt lat="47.7951130" lon="9.0959730">
        <ele>21.8</ele>
        <time>2022-06-08T09:13:16Z</time>
      </trkpt>
      <trkpt lat="47.7951130" lon="9.0959730">
        <ele>21.4</ele>
        <time>2022-06-08T09:13:20Z</time>
      </trkpt>
      <trkpt lat="47.7951130" lon="9.0959730">
        <ele>21.2</ele>
        <time>2022-06-08T09:13:24Z</time>
      </trkpt>
      <trkpt lat="47.7951130" lon="9.0959730">
        <ele>21.6</ele>
        <time>2022-06-08T09:13:28Z</time>
      </trkpt>
      <trkpt lat="47.7951130" lon="9.0959730">
        <ele>21.4</ele>
        <time>2022-06-08T09:13:32Z</time>
      </trkpt>
      <trkpt lat="47.7951130" lon="9.0959730">
        <ele>21.4</ele>
        <time>2022-06-08T09:13:36Z</time>
      </trkpt>
      <trkpt lat="47.7951130" lon="9.0959730">
        <ele>21.2</ele>
        <time>2022-06-08T09:13:40Z</time>
      </trkpt>
      <trkpt lat="47.7951130" lon="9.0959730">
        <ele>21.4</ele>
        <time>2022-06-08T09:13:44Z</time>
      </trkpt>
      <trkpt lat="47.7951130" lon="9.0959730">
        <ele>21.4</ele>
        <time>2022-06-08T09:13:48Z</time>
      </trkpt>
      <trkpt lat="47.7951130" lon="9.0959730">
        <ele>21.8</ele>
        <time>2022-06-08T09:13:52Z</time>
      </trkpt>
      <trkpt lat="47.7951130" lon="9.0959730">
        <ele>22.0</ele>
        <time>2022-06-08T09:13:56Z</time>
      </trkpt>
      <trkpt lat="47.7951130" lon="9.0959730">
        <ele>21.4</ele>
        <time>2022-06-08T09:14:00Z</time>
      </trkpt>
      <trkpt lat="47.7951130" lon="9.0959730">
        <ele>21.2</ele>
        <time>2022-06-08T09:14:04Z</time>
      </trkpt>
      <trkpt lat="47.7951130" lon="9.0959730">
        <ele>21.6</ele>
        <time>2022-06-08T09:14:08Z</time>
      </trkpt>
      <trkpt lat="47.7951130" lon="9.0959730">
        <ele>21.4</ele>
        <time>2022-06-08T09:14:12Z</time>
      </trkpt>
      <trkpt lat="47.7951130" lon="9.0959730">
        <ele>21.2</ele>
        <time>2022-06-08T09:14:16Z</time>
      </trkpt>
      <trkpt lat="47.7951130" lon="9.0959730">
        <ele>21.4</ele>
        <time>2022-06-08T09:14:20Z</time>
      </trkpt>
      <trkpt lat="47.7951130" lon="9.0959730">
        <ele>21.6</ele>
        <time>2022-06-08T09:14:24Z</time>
      </trkpt>
      <trkpt lat="47.7951130" lon="9.0959730">
        <ele>21.6</ele>
        <time>2022-06-08T09:14:28Z</time>
      </trkpt>
      <trkpt lat="47.7951130" lon="9.0959730">
        <ele>21.4</ele>
        <time>2022-06-08T09:14:32Z</time>
      </trkpt>
      <trkpt lat="47.7951130" lon="9.0959730">
        <ele>21.2</ele>
        <time>2022-06-08T09:14:36Z</time>
      </trkpt>
      <trkpt lat="47.7951130" lon="9.0959730">
        <ele>21.4</ele>
        <time>2022-06-08T09:14:40Z</time>
      </trkpt>
      <trkpt lat="47.7951130" lon="9.0959730">
        <ele>21.4</ele>
        <time>2022-06-08T09:14:44Z</time>
      </trkpt>
      <trkpt lat="47.7951130" lon="9.0959730">
        <ele>21.6</ele>
        <time>2022-06-08T09:14:48Z</time>
      </trkpt>
      <trkpt lat="47.7951130" lon="9.0959730">
        <ele>21.8</ele>
        <time>2022-06-08T09:14:52Z</time>
      </trkpt>
      <trkpt lat="47.7951130" lon="9.0959730">
        <ele>21.8</ele>
        <time>2022-06-08T09:14:56Z</time>
      </trkpt>
      <trkpt lat="47.7951130" lon="9.0959730">
        <ele>21.6</ele>
        <time>2022-06-08T09:15:00Z</time>
      </trkpt>
      <trkpt lat="47.7951130" lon="9.0959730">
        <ele>21.4</ele>
        <time>2022-06-08T09:15:04Z</time>
      </trkpt>
      <trkpt lat="47.7951130" lon="9.0959730">
        <ele>21.4</ele>
        <time>2022-06-08T09:15:08Z</time>
      </trkpt>
      <trkpt lat="47.7951130" lon="9.0959730">
        <ele>21.8</ele>
        <time>2022-06-08T09:15:12Z</time>
      </trkpt>
      <trkpt lat="47.7951130" lon="9.0959730">
        <ele>21.8</ele>
        <time>2022-06-08T09:15:16Z</time>
      </trkpt>
      <trkpt lat="47.7951130" lon="9.0959730">
        <ele>21.8</ele>
        <time>2022-06-08T09:15:20Z</time>
      </trkpt>
      <trkpt lat="47.7951130" lon="9.0959730">
        <ele>21.6</ele>
        <time>2022-06-08T09:15:24Z</time>
      </trkpt>
      <trkpt lat="47.7951130" lon="9.0959730">
        <ele>21.4</ele>
        <time>2022-06-08T09:15:28Z</time>
      </trkpt>
      <trkpt lat="47.7951130" lon="9.0959730">
        <ele>22.2</ele>
        <time>2022-06-08T09:15:32Z</time>
      </trkpt>
      <trkpt lat="47.7951130" lon="9.0959730">
        <ele>21.6</ele>
        <time>2022-06-08T09:15:36Z</time>
      </trkpt>
      <trkpt lat="47.7951130" lon="9.0959730">
        <ele>21.8</ele>
        <time>2022-06-08T09:15:40Z</time>
      </trkpt>
      <trkpt lat="47.7951130" lon="9.0959730">
        <ele>21.6</ele>
        <time>2022-06-08T09:15:44Z</time>
      </trkpt>
      <trkpt lat="47.7951130" lon="9.0959730">
        <ele>22.0</ele>
        <time>2022-06-08T09:15:48Z</time>
      </trkpt>
      <trkpt lat="47.7951130" lon="9.0959730">
        <ele>21.8</ele>
        <time>2022-06-08T09:15:52Z</time>
      </trkpt>
      <trkpt lat="47.7951130" lon="9.0959730">
        <ele>21.8</ele>
        <time>2022-06-08T09:15:56Z</time>
      </trkpt>
      <trkpt lat="47.7951130" lon="9.0959730">
        <ele>22.0</ele>
        <time>2022-06-08T09:16:00Z</time>
      </trkpt>
      <trkpt lat="47.7951130" lon="9.0959730">
        <ele>22.0</ele>
        <time>2022-06-08T09:16:04Z</time>
      </trkpt>
      <trkpt lat="47.7951130" lon="9.0959730">
        <ele>21.4</ele>
        <time>2022-06-08T09:16:08Z</time>
      </trkpt>
      <trkpt lat="47.7951130" lon="9.0959730">
        <ele>21.6</ele>
        <time>2022-06-08T09:16:12Z</time>
      </trkpt>
      <trkpt lat="47.7951130" lon="9.0959730">
        <ele>21.4</ele>
        <time>2022-06-08T09:16:16Z</time>
      </trkpt>
      <trkpt lat="47.7951130" lon="9.0959730">
        <ele>21.8</ele>
        <time>2022-06-08T09:16:20Z</time>
      </trkpt>
      <trkpt lat="47.7951130" lon="9.0959730">
        <ele>21.8</ele>
        <time>2022-06-08T09:16:24Z</time>
      </trkpt>
      <trkpt lat="47.7951130" lon="9.0959730">
        <ele>22.0</ele>
        <time>2022-06-08T09:16:28Z</time>
      </trkpt>
      <trkpt lat="47.7951130" lon="9.0959730">
        <ele>21.6</ele>
        <time>2022-06-08T09:16:32Z</time>
      </trkpt>
      <trkpt lat="47.7951130" lon="9.0959730">
        <ele>21.8</ele>
        <time>2022-06-08T09:16:36Z</time>
      </trkpt>
      <trkpt lat="47.7951130" lon="9.0959730">
        <ele>21.6</ele>
        <time>2022-06-08T09:16:40Z</time>
      </trkpt>
      <trkpt lat="47.7951130" lon="9.0959730">
        <ele>21.6</ele>
        <time>2022-06-08T09:16:44Z</time>
      </trkpt>
      <trkpt lat="47.7951130" lon="9.0959730">
        <ele>22.2</ele>
        <time>2022-06-08T09:16:48Z</time>
      </trkpt>
      <trkpt lat="47.7951130" lon="9.0959730">
        <ele>22.2</ele>
        <time>2022-06-08T09:16:52Z</time>
      </trkpt>
      <trkpt lat="47.7951130" lon="9.0959730">
        <ele>22.0</ele>
        <time>2022-06-08T09:16:56Z</time>
      </trkpt>
      <trkpt lat="47.7951130" lon="9.0959730">
        <ele>22.2</ele>
        <time>2022-06-08T09:17:00Z</time>
      </trkpt>
      <trkpt lat="47.7951130" lon="9.0959730">
        <ele>22.4</ele>
        <time>2022-06-08T09:17:04Z</time>
      </trkpt>
      <trkpt lat="47.7951130" lon="9.0959730">
        <ele>22.0</ele>
        <time>2022-06-08T09:17:08Z</time>
      </trkpt>
      <trkpt lat="47.7951130" lon="9.0959730">
        <ele>22.0</ele>
        <time>2022-06-08T09:17:12Z</time>
      </trkpt>
      <trkpt lat="47.7951130" lon="9.0959730">
        <ele>22.0</ele>
        <time>2022-06-08T09:17:16Z</time>
      </trkpt>
      <trkpt lat="47.7951130" lon="9.0959730">
        <ele>21.6</ele>
        <time>2022-06-08T09:17:20Z</time>
      </trkpt>
      <trkpt lat="47.7951130" lon="9.0959730">
        <ele>22.0</ele>
        <time>2022-06-08T09:17:24Z</time>
      </trkpt>
      <trkpt lat="47.7951130" lon="9.0959730">
        <ele>22.6</ele>
        <time>2022-06-08T09:17:28Z</time>
      </trkpt>
      <trkpt lat="47.7951130" lon="9.0959730">
        <ele>22.4</ele>
        <time>2022-06-08T09:17:32Z</time>
      </trkpt>
      <trkpt lat="47.7951130" lon="9.0959730">
        <ele>22.6</ele>
        <time>2022-06-08T09:17:36Z</time>
      </trkpt>
      <trkpt lat="47.7951130" lon="9.0959730">
        <ele>22.4</ele>
        <time>2022-06-08T09:17:40Z</time>
      </trkpt>
      <trkpt lat="47.7951130" lon="9.0959730">
        <ele>23.0</ele>
        <time>2022-06-08T09:17:44Z</time>
      </trkpt>
      <trkpt lat="47.7951130" lon="9.0959730">
        <ele>22.8</ele>
        <time>2022-06-08T09:17:48Z</time>
      </trkpt>
      <trkpt lat="47.7951130" lon="9.0959730">
        <ele>22.6</ele>
        <time>2022-06-08T09:17:52Z</time>
      </trkpt>
      <trkpt lat="47.7951130" lon="9.0959730">
        <ele>22.8</ele>
        <time>2022-06-08T09:17:56Z</time>
      </trkpt>
      <trkpt lat="47.7951130" lon="9.0959730">
        <ele>22.8</ele>
        <time>2022-06-08T09:18:00Z</time>
      </trkpt>
      <trkpt lat="47.7951130" lon="9.0959730">
        <ele>23.0</ele>
        <time>2022-06-08T09:18:04Z</time>
      </trkpt>
      <trkpt lat="47.7951130" lon="9.0959730">
        <ele>22.8</ele>
        <time>2022-06-08T09:18:08Z</time>
      </trkpt>
      <trkpt lat="47.7951130" lon="9.0959730">
        <ele>22.8</ele>
        <time>2022-06-08T09:18:12Z</time>
      </trkpt>
      <trkpt lat="47.7951130" lon="9.0959730">
        <ele>22.8</ele>
        <time>2022-06-08T09:18:16Z</time>
      </trkpt>
      <trkpt lat="47.7951130" lon="9.0959730">
        <ele>22.8</ele>
        <time>2022-06-08T09:18:20Z</time>
      </trkpt>
      <trkpt lat="47.7951130" lon="9.0959730">
        <ele>22.6</ele>
        <time>2022-06-08T09:18:24Z</time>
      </trkpt>
      <trkpt lat="47.7951130" lon="9.0959730">
        <ele>22.8</ele>
        <time>2022-06-08T09:18:28Z</time>
      </trkpt>
      <trkpt lat="47.7951130" lon="9.0959730">
        <ele>22.8</ele>
        <time>2022-06-08T09:18:32Z</time>
      </trkpt>
      <trkpt lat="47.7951130" lon="9.0959730">
        <ele>22.8</ele>
        <time>2022-06-08T09:18:36Z</time>
      </trkpt>
      <trkpt lat="47.7951130" lon="9.0959730">
        <ele>22.8</ele>
        <time>2022-06-08T09:18:40Z</time>
      </trkpt>
      <trkpt lat="47.7951130" lon="9.0959730">
        <ele>22.6</ele>
        <time>2022-06-08T09:18:44Z</time>
      </trkpt>
      <trkpt lat="47.7951130" lon="9.0959730">
        <ele>22.2</ele>
        <time>2022-06-08T09:18:48Z</time>
      </trkpt>
      <trkpt lat="47.7951130" lon="9.0959730">
        <ele>22.8</ele>
        <time>2022-06-08T09:18:52Z</time>
      </trkpt>
      <trkpt lat="47.7951130" lon="9.0959730">
        <ele>22.8</ele>
        <time>2022-06-08T09:18:56Z</time>
      </trkpt>
      <trkpt lat="47.7951130" lon="9.0959730">
        <ele>23.0</ele>
        <time>2022-06-08T09:19:00Z</time>
      </trkpt>
      <trkpt lat="47.7951130" lon="9.0959730">
        <ele>23.0</ele>
        <time>2022-06-08T09:19:04Z</time>
      </trkpt>
      <trkpt lat="47.7951130" lon="9.0959730">
        <ele>23.0</ele>
        <time>2022-06-08T09:19:08Z</time>
      </trkpt>
      <trkpt lat="47.7951130" lon="9.0959730">
        <ele>23.2</ele>
        <time>2022-06-08T09:19:12Z</time>
      </trkpt>
      <trkpt lat="47.7951130" lon="9.0959730">
        <ele>22.8</ele>
        <time>2022-06-08T09:19:16Z</time>
      </trkpt>
      <trkpt lat="47.7951130" lon="9.0959730">
        <ele>23.0</ele>
        <time>2022-06-08T09:19:20Z</time>
      </trkpt>
      <trkpt lat="47.7951130" lon="9.0959730">
        <ele>23.0</ele>
        <time>2022-06-08T09:19:24Z</time>
      </trkpt>
      <trkpt lat="47.7951130" lon="9.0959730">
        <ele>23.2</ele>
        <time>2022-06-08T09:19:28Z</time>
      </trkpt>
      <trkpt lat="47.7951130" lon="9.0959730">
        <ele>23.2</ele>
        <time>2022-06-08T09:19:32Z</time>
      </trkpt>
      <trkpt lat="47.7951130" lon="9.0959730">
        <ele>23.0</ele>
        <time>2022-06-08T09:19:36Z</time>
      </trkpt>
      <trkpt lat="47.7951130" lon="9.0959730">
        <ele>22.8</ele>
        <time>2022-06-08T09:19:40Z</time>
      </trkpt>
      <trkpt lat="47.7951130" lon="9.0959730">
        <ele>22.8</ele>
        <time>2022-06-08T09:19:44Z</time>
      </trkpt>
      <trkpt lat="47.7951130" lon="9.0959730">
        <ele>22.8</ele>
        <time>2022-06-08T09:19:48Z</time>
      </trkpt>
      <trkpt lat="47.7951130" lon="9.0959730">
        <ele>22.8</ele>
        <time>2022-06-08T09:19:52Z</time>
      </trkpt>
      <trkpt lat="47.7951130" lon="9.0959730">
        <ele>23.2</ele>
        <time>2022-06-08T09:19:56Z</time>
      </trkpt>
      <trkpt lat="47.7951130" lon="9.0959730">
        <ele>23.0</ele>
        <time>2022-06-08T09:20:00Z</time>
      </trkpt>
      <trkpt lat="47.7951130" lon="9.0959730">
        <ele>23.4</ele>
        <time>2022-06-08T09:20:04Z</time>
      </trkpt>
      <trkpt lat="47.7951130" lon="9.0959730">
        <ele>22.6</ele>
        <time>2022-06-08T09:20:08Z</time>
      </trkpt>
      <trkpt lat="47.7951130" lon="9.0959730">
        <ele>22.8</ele>
        <time>2022-06-08T09:20:12Z</time>
      </trkpt>
      <trkpt lat="47.7951130" lon="9.0959730">
        <ele>22.8</ele>
        <time>2022-06-08T09:20:16Z</time>
      </trkpt>
      <trkpt lat="47.7951130" lon="9.0959730">
        <ele>23.2</ele>
        <time>2022-06-08T09:20:20Z</time>
      </trkpt>
      <trkpt lat="47.7951130" lon="9.0959730">
        <ele>22.8</ele>
        <time>2022-06-08T09:20:24Z</time>
      </trkpt>
      <trkpt lat="47.7951130" lon="9.0959730">
        <ele>23.2</ele>
        <time>2022-06-08T09:20:28Z</time>
      </trkpt>
      <trkpt lat="47.7951130" lon="9.0959730">
        <ele>23.0</ele>
        <time>2022-06-08T09:20:32Z</time>
      </trkpt>
      <trkpt lat="47.7951130" lon="9.0959730">
        <ele>23.2</ele>
        <time>2022-06-08T09:20:36Z</time>
      </trkpt>
      <trkpt lat="47.7951130" lon="9.0959730">
        <ele>23.4</ele>
        <time>2022-06-08T09:20:40Z</time>
      </trkpt>
      <trkpt lat="47.7951130" lon="9.0959730">
        <ele>23.2</ele>
        <time>2022-06-08T09:20:44Z</time>
      </trkpt>
      <trkpt lat="47.7951130" lon="9.0959730">
        <ele>23.4</ele>
        <time>2022-06-08T09:20:48Z</time>
      </trkpt>
      <trkpt lat="47.7951130" lon="9.0959730">
        <ele>23.2</ele>
        <time>2022-06-08T09:20:52Z</time>
      </trkpt>
      <trkpt lat="47.7951130" lon="9.0959730">
        <ele>23.4</ele>
        <time>2022-06-08T09:20:56Z</time>
      </trkpt>
      <trkpt lat="47.7951130" lon="9.0959730">
        <ele>23.4</ele>
        <time>2022-06-08T09:21:00Z</time>
      </trkpt>
      <trkpt lat="47.7951130" lon="9.0959730">
        <ele>23.4</ele>
        <time>2022-06-08T09:21:04Z</time>
      </trkpt>
      <trkpt lat="47.7951130" lon="9.0959730">
        <ele>23.0</ele>
        <time>2022-06-08T09:21:08Z</time>
      </trkpt>
      <trkpt lat="47.7951130" lon="9.0959730">
        <ele>23.4</ele>
        <time>2022-06-08T09:21:12Z</time>
      </trkpt>
      <trkpt lat="47.7951130" lon="9.0959730">
        <ele>23.2</ele>
        <time>2022-06-08T09:21:16Z</time>
      </trkpt>
      <trkpt lat="47.7951130" lon="9.0959730">
        <ele>23.2</ele>
        <time>2022-06-08T09:21:20Z</time>
      </trkpt>
      <trkpt lat="47.7951130" lon="9.0959730">
        <ele>23.6</ele>
        <time>2022-06-08T09:21:24Z</time>
      </trkpt>
      <trkpt lat="47.7951130" lon="9.0959730">
        <ele>23.8</ele>
        <time>2022-06-08T09:21:28Z</time>
      </trkpt>
      <trkpt lat="47.7951130" lon="9.0959730">
        <ele>23.4</ele>
        <time>2022-06-08T09:21:32Z</time>
      </trkpt>
      <trkpt lat="47.7951130" lon="9.0959730">
        <ele>23.6</ele>
        <time>2022-06-08T09:21:36Z</time>
      </trkpt>
      <trkpt lat="47.7951130" lon="9.0959730">
        <ele>23.4</ele>
        <time>2022-06-08T09:21:40Z</time>
      </trkpt>
      <trkpt lat="47.7951130" lon="9.0959730">
        <ele>23.8</ele>
        <time>2022-06-08T09:21:44Z</time>
      </trkpt>
      <trkpt lat="47.7951130" lon="9.0959730">
        <ele>23.6</ele>
        <time>2022-06-08T09:21:48Z</time>
      </trkpt>
      <trkpt lat="47.7951130" lon="9.0959730">
        <ele>23.2</ele>
        <time>2022-06-08T09:21:52Z</time>
      </trkpt>
      <trkpt lat="47.7951130" lon="9.0959730">
        <ele>23.4</ele>
        <time>2022-06-08T09:21:56Z</time>
      </trkpt>
      <trkpt lat="47.7951130" lon="9.0959730">
        <ele>23.0</ele>
        <time>2022-06-08T09:22:00Z</time>
      </trkpt>
      <trkpt lat="47.7951130" lon="9.0959730">
        <ele>23.4</ele>
        <time>2022-06-08T09:22:04Z</time>
      </trkpt>
      <trkpt lat="47.7951130" lon="9.0959730">
        <ele>23.4</ele>
        <time>2022-06-08T09:22:08Z</time>
      </trkpt>
      <trkpt lat="47.7951130" lon="9.0959730">
        <ele>23.6</ele>
        <time>2022-06-08T09:22:12Z</time>
      </trkpt>
      <trkpt lat="47.7951130" lon="9.0959730">
        <ele>23.4</ele>
        <time>2022-06-08T09:22:16Z</time>
      </trkpt>
      <trkpt lat="47.7951130" lon="9.0959730">
        <ele>23.6</ele>
        <time>2022-06-08T09:22:20Z</time>
      </trkpt>
      <trkpt lat="47.7951130" lon="9.0959730">
        <ele>23.6</ele>
        <time>2022-06-08T09:22:24Z</time>
      </trkpt>
      <trkpt lat="47.7951130" lon="9.0959730">
        <ele>24.0</ele>
        <time>2022-06-08T09:22:28Z</time>
      </trkpt>
      <trkpt lat="47.7951130" lon="9.0959730">
        <ele>23.4</ele>
        <time>2022-06-08T09:22:32Z</time>
      </trkpt>
      <trkpt lat="47.7951130" lon="9.0959730">
        <ele>23.6</ele>
        <time>2022-06-08T09:22:36Z</time>
      </trkpt>
      <trkpt lat="47.7951130" lon="9.0959730">
        <ele>23.6</ele>
        <time>2022-06-08T09:22:40Z</time>
      </trkpt>
      <trkpt lat="47.7951130" lon="9.0959730">
        <ele>23.4</ele>
        <time>2022-06-08T09:22:44Z</time>
      </trkpt>
      <trkpt lat="47.7951130" lon="9.0959730">
        <ele>23.8</ele>
        <time>2022-06-08T09:22:48Z</time>
      </trkpt>
      <trkpt lat="47.7951130" lon="9.0959730">
        <ele>24.0</ele>
        <time>2022-06-08T09:22:52Z</time>
      </trkpt>
      <trkpt lat="47.7951130" lon="9.0959730">
        <ele>23.6</ele>
        <time>2022-06-08T09:22:56Z</time>
      </trkpt>
      <trkpt lat="47.7951130" lon="9.0959730">
        <ele>24.0</ele>
        <time>2022-06-08T09:23:00Z</time>
      </trkpt>
      <trkpt lat="47.7951130" lon="9.0959730">
        <ele>24.0</ele>
        <time>2022-06-08T09:23:04Z</time>
      </trkpt>
      <trkpt lat="47.7951130" lon="9.0959730">
        <ele>23.6</ele>
        <time>2022-06-08T09:23:08Z</time>
      </trkpt>
      <trkpt lat="47.7951130" lon="9.0959730">
        <ele>23.6</ele>
        <time>2022-06-08T09:23:12Z</time>
      </trkpt>
      <trkpt lat="47.7951130" lon="9.0959730">
        <ele>24.0</ele>
        <time>2022-06-08T09:23:16Z</time>
      </trkpt>
      <trkpt lat="47.7951130" lon="9.0959730">
        <ele>24.0</ele>
        <time>2022-06-08T09:23:20Z</time>
      </trkpt>
      <trkpt lat="47.7951130" lon="9.0959730">
        <ele>23.8</ele>
        <time>2022-06-08T09:23:24Z</time>
      </trkpt>
      <trkpt lat="47.7951130" lon="9.0959730">
        <ele>24.0</ele>
        <time>2022-06-08T09:23:28Z</time>
      </trkpt>
      <trkpt lat="47.7951130" lon="9.0959730">
        <ele>23.6</ele>
        <time>2022-06-08T09:23:32Z</time>
      </trkpt>
      <trkpt lat="47.7951130" lon="9.0959730">
        <ele>24.0</ele>
        <time>2022-06-08T09:23:36Z</time>
      </trkpt>
      <trkpt lat="47.7951130" lon="9.0959730">
        <ele>24.0</ele>
        <time>2022-06-08T09:23:40Z</time>
      </trkpt>
      <trkpt lat="47.7951130" lon="9.0959730">
        <ele>24.2</ele>
        <time>2022-06-08T09:23:44Z</time>
      </trkpt>
      <trkpt lat="47.7951130" lon="9.0959730">
        <ele>24.0</ele>
        <time>2022-06-08T09:23:48Z</time>
      </trkpt>
      <trkpt lat="47.7951130" lon="9.0959730">
        <ele>23.8</ele>
        <time>2022-06-08T09:23:52Z</time>
      </trkpt>
      <trkpt lat="47.7951130" lon="9.0959730">
        <ele>24.2</ele>
        <time>2022-06-08T09:23:56Z</time>
      </trkpt>
      <trkpt lat="47.7951130" lon="9.0959730">
        <ele>24.0</ele>
        <time>2022-06-08T09:24:00Z</time>
      </trkpt>
      <trkpt lat="47.7951130" lon="9.0959730">
        <ele>23.8</ele>
        <time>2022-06-08T09:24:04Z</time>
      </trkpt>
      <trkpt lat="47.7951130" lon="9.0959730">
        <ele>23.4</ele>
        <time>2022-06-08T09:24:08Z</time>
      </trkpt>
      <trkpt lat="47.7951130" lon="9.0959730">
        <ele>23.8</ele>
        <time>2022-06-08T09:24:12Z</time>
      </trkpt>
      <trkpt lat="47.7951130" lon="9.0959730">
        <ele>23.6</ele>
        <time>2022-06-08T09:24:16Z</time>
      </trkpt>
      <trkpt lat="47.7951130" lon="9.0959730">
        <ele>23.8</ele>
        <time>2022-06-08T09:24:20Z</time>
      </trkpt>
      <trkpt lat="47.7951130" lon="9.0959730">
        <ele>24.2</ele>
        <time>2022-06-08T09:24:24Z</time>
      </trkpt>
      <trkpt lat="47.7951130" lon="9.0959730">
        <ele>24.0</ele>
        <time>2022-06-08T09:24:28Z</time>
      </trkpt>
      <trkpt lat="47.7951130" lon="9.0959730">
        <ele>23.8</ele>
        <time>2022-06-08T09:24:32Z</time>
      </trkpt>
      <trkpt lat="47.7951130" lon="9.0959730">
        <ele>24.2</ele>
        <time>2022-06-08T09:24:36Z</time>
      </trkpt>
      <trkpt lat="47.7951130" lon="9.0959730">
        <ele>24.0</ele>
        <time>2022-06-08T09:24:40Z</time>
      </trkpt>
      <trkpt lat="47.7951130" lon="9.0959730">
        <ele>24.0</ele>
        <time>2022-06-08T09:24:44Z</time>
      </trkpt>
      <trkpt lat="47.7951130" lon="9.0959730">
        <ele>24.4</ele>
        <time>2022-06-08T09:24:48Z</time>
      </trkpt>
      <trkpt lat="47.7951130" lon="9.0959730">
        <ele>24.2</ele>
        <time>2022-06-08T09:24:52Z</time>
      </trkpt>
      <trkpt lat="47.7951130" lon="9.0959730">
        <ele>24.0</ele>
        <time>2022-06-08T09:24:56Z</time>
      </trkpt>
      <trkpt lat="47.7951130" lon="9.0959730">
        <ele>24.4</ele>
        <time>2022-06-08T09:25:00Z</time>
      </trkpt>
      <trkpt lat="47.7951130" lon="9.0959730">
        <ele>24.0</ele>
        <time>2022-06-08T09:25:04Z</time>
      </trkpt>
      <trkpt lat="47.7951130" lon="9.0959730">
        <ele>24.0</ele>
        <time>2022-06-08T09:25:08Z</time>
      </trkpt>
      <trkpt lat="47.7951130" lon="9.0959730">
        <ele>24.4</ele>
        <time>2022-06-08T09:25:12Z</time>
      </trkpt>
      <trkpt lat="47.7951130" lon="9.0959730">
        <ele>24.2</ele>
        <time>2022-06-08T09:25:16Z</time>
      </trkpt>
      <trkpt lat="47.7951130" lon="9.0959730">
        <ele>24.4</ele>
        <time>2022-06-08T09:25:20Z</time>
      </trkpt>
      <trkpt lat="47.7951130" lon="9.0959730">
        <ele>24.4</ele>
        <time>2022-06-08T09:25:24Z</time>
      </trkpt>
      <trkpt lat="47.7951130" lon="9.0959730">
        <ele>24.0</ele>
        <time>2022-06-08T09:25:28Z</time>
      </trkpt>
      <trkpt lat="47.7951130" lon="9.0959730">
        <ele>24.6</ele>
        <time>2022-06-08T09:25:32Z</time>
      </trkpt>
      <trkpt lat="47.7951130" lon="9.0959730">
        <ele>24.0</ele>
        <time>2022-06-08T09:25:36Z</time>
      </trkpt>
      <trkpt lat="47.7951130" lon="9.0959730">
        <ele>24.2</ele>
        <time>2022-06-08T09:25:40Z</time>
      </trkpt>
      <trkpt lat="47.7951130" lon="9.0959730">
        <ele>24.6</ele>
        <time>2022-06-08T09:25:44Z</time>
      </trkpt>
      <trkpt lat="47.7951130" lon="9.0959730">
        <ele>24.2</ele>
        <time>2022-06-08T09:25:48Z</time>
      </trkpt>
      <trkpt lat="47.7951130" lon="9.0959730">
        <ele>24.8</ele>
        <time>2022-06-08T09:25:52Z</time>
      </trkpt>
      <trkpt lat="47.7951130" lon="9.0959730">
        <ele>24.6</ele>
        <time>2022-06-08T09:25:56Z</time>
      </trkpt>
      <trkpt lat="47.7951130" lon="9.0959730">
        <ele>24.2</ele>
        <time>2022-06-08T09:26:00Z</time>
      </trkpt>
      <trkpt lat="47.7951130" lon="9.0959730">
        <ele>23.6</ele>
        <time>2022-06-08T09:26:04Z</time>
      </trkpt>
      <trkpt lat="47.7951130" lon="9.0959730">
        <ele>23.8</ele>
        <time>2022-06-08T09:26:08Z</time>
      </trkpt>
      <trkpt lat="47.7951130" lon="9.0959730">
        <ele>24.2</ele>
        <time>2022-06-08T09:26:12Z</time>
      </trkpt>
      <trkpt lat="47.7951130" lon="9.0959730">
        <ele>24.2</ele>
        <time>2022-06-08T09:26:16Z</time>
      </trkpt>
      <trkpt lat="47.7951130" lon="9.0959730">
        <ele>24.0</ele>
        <time>2022-06-08T09:26:20Z</time>
      </trkpt>
      <trkpt lat="47.7951130" lon="9.0959730">
        <ele>24.4</ele>
        <time>2022-06-08T09:26:24Z</time>
      </trkpt>
      <trkpt lat="47.7951400" lon="9.0959650">
        <ele>24.0</ele>
        <time>2022-06-08T09:26:28Z</time>
      </trkpt>
      <trkpt lat="47.7951530" lon="9.0959260">
        <ele>24.0</ele>
        <time>2022-06-08T09:26:32Z</time>
      </trkpt>
      <trkpt lat="47.7951530" lon="9.0959260">
        <ele>24.4</ele>
        <time>2022-06-08T09:26:36Z</time>
      </trkpt>
      <trkpt lat="47.7951530" lon="9.0959260">
        <ele>24.2</ele>
        <time>2022-06-08T09:26:40Z</time>
      </trkpt>
      <trkpt lat="47.7951530" lon="9.0959260">
        <ele>24.2</ele>
        <time>2022-06-08T09:26:44Z</time>
      </trkpt>
      <trkpt lat="47.7951530" lon="9.0959260">
        <ele>24.0</ele>
        <time>2022-06-08T09:26:48Z</time>
      </trkpt>
      <trkpt lat="47.7951530" lon="9.0959260">
        <ele>24.4</ele>
        <time>2022-06-08T09:26:52Z</time>
      </trkpt>
      <trkpt lat="47.7951530" lon="9.0959260">
        <ele>24.6</ele>
        <time>2022-06-08T09:26:56Z</time>
      </trkpt>
      <trkpt lat="47.7951530" lon="9.0959260">
        <ele>24.8</ele>
        <time>2022-06-08T09:27:00Z</time>
      </trkpt>
      <trkpt lat="47.7951530" lon="9.0959260">
        <ele>24.8</ele>
        <time>2022-06-08T09:27:04Z</time>
      </trkpt>
      <trkpt lat="47.7951530" lon="9.0959260">
        <ele>24.4</ele>
        <time>2022-06-08T09:27:08Z</time>
      </trkpt>
      <trkpt lat="47.7951530" lon="9.0959260">
        <ele>24.6</ele>
        <time>2022-06-08T09:27:12Z</time>
      </trkpt>
      <trkpt lat="47.7951530" lon="9.0959260">
        <ele>24.4</ele>
        <time>2022-06-08T09:27:16Z</time>
      </trkpt>
      <trkpt lat="47.7951530" lon="9.0959260">
        <ele>24.8</ele>
        <time>2022-06-08T09:27:20Z</time>
      </trkpt>
      <trkpt lat="47.7951530" lon="9.0959260">
        <ele>24.2</ele>
        <time>2022-06-08T09:27:24Z</time>
      </trkpt>
      <trkpt lat="47.7951530" lon="9.0959260">
        <ele>24.6</ele>
        <time>2022-06-08T09:27:28Z</time>
      </trkpt>
      <trkpt lat="47.7951530" lon="9.0959260">
        <ele>24.8</ele>
        <time>2022-06-08T09:27:32Z</time>
      </trkpt>
      <trkpt lat="47.7951530" lon="9.0959260">
        <ele>24.6</ele>
        <time>2022-06-08T09:27:36Z</time>
      </trkpt>
      <trkpt lat="47.7951530" lon="9.0959260">
        <ele>24.8</ele>
        <time>2022-06-08T09:27:40Z</time>
      </trkpt>
      <trkpt lat="47.7951530" lon="9.0959260">
        <ele>25.0</ele>
        <time>2022-06-08T09:27:44Z</time>
      </trkpt>
      <trkpt lat="47.7951530" lon="9.0959260">
        <ele>24.2</ele>
        <time>2022-06-08T09:27:48Z</time>
      </trkpt>
      <trkpt lat="47.7951530" lon="9.0959260">
        <ele>25.0</ele>
        <time>2022-06-08T09:27:52Z</time>
      </trkpt>
      <trkpt lat="47.7951530" lon="9.0959260">
        <ele>24.8</ele>
        <time>2022-06-08T09:27:56Z</time>
      </trkpt>
      <trkpt lat="47.7951530" lon="9.0959260">
        <ele>24.8</ele>
        <time>2022-06-08T09:28:00Z</time>
      </trkpt>
      <trkpt lat="47.7951530" lon="9.0959260">
        <ele>24.2</ele>
        <time>2022-06-08T09:28:04Z</time>
      </trkpt>
      <trkpt lat="47.7951530" lon="9.0959260">
        <ele>24.4</ele>
        <time>2022-06-08T09:28:08Z</time>
      </trkpt>
      <trkpt lat="47.7951530" lon="9.0959260">
        <ele>24.0</ele>
        <time>2022-06-08T09:28:12Z</time>
      </trkpt>
      <trkpt lat="47.7951960" lon="9.0959330">
        <ele>24.6</ele>
        <time>2022-06-08T09:28:16Z</time>
      </trkpt>
      <trkpt lat="47.7951960" lon="9.0959330">
        <ele>24.4</ele>
        <time>2022-06-08T09:28:20Z</time>
      </trkpt>
      <trkpt lat="47.7951960" lon="9.0959330">
        <ele>24.8</ele>
        <time>2022-06-08T09:28:24Z</time>
      </trkpt>
      <trkpt lat="47.7951960" lon="9.0959330">
        <ele>24.4</ele>
        <time>2022-06-08T09:28:28Z</time>
      </trkpt>
      <trkpt lat="47.7951960" lon="9.0959330">
        <ele>24.0</ele>
        <time>2022-06-08T09:28:32Z</time>
      </trkpt>
      <trkpt lat="47.7951960" lon="9.0959330">
        <ele>24.2</ele>
        <time>2022-06-08T09:28:36Z</time>
      </trkpt>
      <trkpt lat="47.7951960" lon="9.0959330">
        <ele>24.6</ele>
        <time>2022-06-08T09:28:40Z</time>
      </trkpt>
      <trkpt lat="47.7951960" lon="9.0959330">
        <ele>24.6</ele>
        <time>2022-06-08T09:28:44Z</time>
      </trkpt>
      <trkpt lat="47.7951950" lon="9.0959150">
        <ele>24.6</ele>
        <time>2022-06-08T09:28:48Z</time>
      </trkpt>
      <trkpt lat="47.7952460" lon="9.0959080">
        <ele>24.8</ele>
        <time>2022-06-08T09:28:52Z</time>
      </trkpt>
      <trkpt lat="47.7953180" lon="9.0959780">
        <ele>25.2</ele>
        <time>2022-06-08T09:28:56Z</time>
      </trkpt>
      <trkpt lat="47.7953810" lon="9.0960660">
        <ele>24.8</ele>
        <time>2022-06-08T09:29:00Z</time>
      </trkpt>
      <trkpt lat="47.7954380" lon="9.0962260">
        <ele>26.2</ele>
        <time>2022-06-08T09:29:04Z</time>
      </trkpt>
      <trkpt lat="47.7953750" lon="9.0963950">
        <ele>25.8</ele>
        <time>2022-06-08T09:29:08Z</time>
      </trkpt>
      <trkpt lat="47.7952810" lon="9.0965430">
        <ele>26.0</ele>
        <time>2022-06-08T09:29:12Z</time>
      </trkpt>
      <trkpt lat="47.7952080" lon="9.0967230">
        <ele>26.2</ele>
        <time>2022-06-08T09:29:16Z</time>
      </trkpt>
      <trkpt lat="47.7951480" lon="9.0969310">
        <ele>25.6</ele>
        <time>2022-06-08T09:29:20Z</time>
      </trkpt>
      <trkpt lat="47.7950860" lon="9.0971480">
        <ele>26.2</ele>
        <time>2022-06-08T09:29:24Z</time>
      </trkpt>
      <trkpt lat="47.7950330" lon="9.0973730">
        <ele>25.0</ele>
        <time>2022-06-08T09:29:28Z</time>
      </trkpt>
      <trkpt lat="47.7949830" lon="9.0976110">
        <ele>25.6</ele>
        <time>2022-06-08T09:29:32Z</time>
      </trkpt>
      <trkpt lat="47.7949480" lon="9.0978560">
        <ele>24.8</ele>
        <time>2022-06-08T09:29:36Z</time>
      </trkpt>
      <trkpt lat="47.7949150" lon="9.0981030">
        <ele>25.4</ele>
        <time>2022-06-08T09:29:40Z</time>
      </trkpt>
      <trkpt lat="47.7948960" lon="9.0983450">
        <ele>26.0</ele>
        <time>2022-06-08T09:29:44Z</time>
      </trkpt>
      <trkpt lat="47.7948860" lon="9.0985700">
        <ele>24.8</ele>
        <time>2022-06-08T09:29:48Z</time>
      </trkpt>
      <trkpt lat="47.7948780" lon="9.0987730">
        <ele>25.8</ele>
        <time>2022-06-08T09:29:52Z</time>
      </trkpt>
      <trkpt lat="47.7948660" lon="9.0989800">
        <ele>25.0</ele>
        <time>2022-06-08T09:29:56Z</time>
      </trkpt>
      <trkpt lat="47.7948530" lon="9.0992030">
        <ele>25.4</ele>
        <time>2022-06-08T09:30:00Z</time>
      </trkpt>
      <trkpt lat="47.7948410" lon="9.0994200">
        <ele>25.4</ele>
        <time>2022-06-08T09:30:04Z</time>
      </trkpt>
      <trkpt lat="47.7948200" lon="9.0996400">
        <ele>25.2</ele>
        <time>2022-06-08T09:30:08Z</time>
      </trkpt>
      <trkpt lat="47.7947900" lon="9.0998660">
        <ele>25.6</ele>
        <time>2022-06-08T09:30:12Z</time>
      </trkpt>
      <trkpt lat="47.7947530" lon="9.1000760">
        <ele>25.6</ele>
        <time>2022-06-08T09:30:16Z</time>
      </trkpt>
      <trkpt lat="47.7947050" lon="9.1003030">
        <ele>26.2</ele>
        <time>2022-06-08T09:30:20Z</time>
      </trkpt>
      <trkpt lat="47.7946430" lon="9.1005360">
        <ele>26.2</ele>
        <time>2022-06-08T09:30:24Z</time>
      </trkpt>
      <trkpt lat="47.7945830" lon="9.1007750">
        <ele>25.8</ele>
        <time>2022-06-08T09:30:28Z</time>
      </trkpt>
      <trkpt lat="47.7945230" lon="9.1010050">
        <ele>26.0</ele>
        <time>2022-06-08T09:30:32Z</time>
      </trkpt>
      <trkpt lat="47.7944610" lon="9.1012360">
        <ele>26.0</ele>
        <time>2022-06-08T09:30:36Z</time>
      </trkpt>
      <trkpt lat="47.7944060" lon="9.1014750">
        <ele>26.2</ele>
        <time>2022-06-08T09:30:40Z</time>
      </trkpt>
      <trkpt lat="47.7943650" lon="9.1017230">
        <ele>26.2</ele>
        <time>2022-06-08T09:30:44Z</time>
      </trkpt>
      <trkpt lat="47.7943100" lon="9.1019830">
        <ele>26.4</ele>
        <time>2022-06-08T09:30:48Z</time>
      </trkpt>
      <trkpt lat="47.7942450" lon="9.1022530">
        <ele>26.6</ele>
        <time>2022-06-08T09:30:52Z</time>
      </trkpt>
      <trkpt lat="47.7941800" lon="9.1025250">
        <ele>26.6</ele>
        <time>2022-06-08T09:30:56Z</time>
      </trkpt>
      <trkpt lat="47.7940880" lon="9.1027900">
        <ele>26.6</ele>
        <time>2022-06-08T09:31:00Z</time>
      </trkpt>
      <trkpt lat="47.7939980" lon="9.1030600">
        <ele>26.6</ele>
        <time>2022-06-08T09:31:04Z</time>
      </trkpt>
      <trkpt lat="47.7939260" lon="9.1033330">
        <ele>25.8</ele>
        <time>2022-06-08T09:31:08Z</time>
      </trkpt>
      <trkpt lat="47.7938560" lon="9.1035980">
        <ele>26.2</ele>
        <time>2022-06-08T09:31:12Z</time>
      </trkpt>
      <trkpt lat="47.7937880" lon="9.1038660">
        <ele>26.6</ele>
        <time>2022-06-08T09:31:16Z</time>
      </trkpt>
      <trkpt lat="47.7937180" lon="9.1041300">
        <ele>26.4</ele>
        <time>2022-06-08T09:31:20Z</time>
      </trkpt>
      <trkpt lat="47.7936480" lon="9.1043860">
        <ele>26.6</ele>
        <time>2022-06-08T09:31:24Z</time>
      </trkpt>
      <trkpt lat="47.7935710" lon="9.1046310">
        <ele>26.2</ele>
        <time>2022-06-08T09:31:28Z</time>
      </trkpt>
      <trkpt lat="47.7934910" lon="9.1048750">
        <ele>26.2</ele>
        <time>2022-06-08T09:31:32Z</time>
      </trkpt>
      <trkpt lat="47.7934110" lon="9.1051110">
        <ele>26.8</ele>
        <time>2022-06-08T09:31:36Z</time>
      </trkpt>
      <trkpt lat="47.7933210" lon="9.1053360">
        <ele>26.4</ele>
        <time>2022-06-08T09:31:40Z</time>
      </trkpt>
      <trkpt lat="47.7932280" lon="9.1055680">
        <ele>27.0</ele>
        <time>2022-06-08T09:31:44Z</time>
      </trkpt>
      <trkpt lat="47.7931230" lon="9.1058050">
        <ele>26.4</ele>
        <time>2022-06-08T09:31:48Z</time>
      </trkpt>
      <trkpt lat="47.7930100" lon="9.1060510">
        <ele>26.4</ele>
        <time>2022-06-08T09:31:52Z</time>
      </trkpt>
      <trkpt lat="47.7928950" lon="9.1062980">
        <ele>26.6</ele>
        <time>2022-06-08T09:31:56Z</time>
      </trkpt>
      <trkpt lat="47.7927780" lon="9.1065450">
        <ele>26.8</ele>
        <time>2022-06-08T09:32:00Z</time>
      </trkpt>
      <trkpt lat="47.7926710" lon="9.1067950">
        <ele>26.6</ele>
        <time>2022-06-08T09:32:04Z</time>
      </trkpt>
      <trkpt lat="47.7925580" lon="9.1070380">
        <ele>26.8</ele>
        <time>2022-06-08T09:32:08Z</time>
      </trkpt>
      <trkpt lat="47.7924510" lon="9.1072810">
        <ele>27.0</ele>
        <time>2022-06-08T09:32:12Z</time>
      </trkpt>
      <trkpt lat="47.7923410" lon="9.1075200">
        <ele>26.8</ele>
        <time>2022-06-08T09:32:16Z</time>
      </trkpt>
      <trkpt lat="47.7922310" lon="9.1077600">
        <ele>26.8</ele>
        <time>2022-06-08T09:32:20Z</time>
      </trkpt>
      <trkpt lat="47.7921260" lon="9.1080030">
        <ele>27.0</ele>
        <time>2022-06-08T09:32:24Z</time>
      </trkpt>
      <trkpt lat="47.7920100" lon="9.1082400">
        <ele>26.6</ele>
        <time>2022-06-08T09:32:28Z</time>
      </trkpt>
      <trkpt lat="47.7918960" lon="9.1084810">
        <ele>26.6</ele>
        <time>2022-06-08T09:32:32Z</time>
      </trkpt>
      <trkpt lat="47.7917830" lon="9.1087230">
        <ele>26.4</ele>
        <time>2022-06-08T09:32:36Z</time>
      </trkpt>
      <trkpt lat="47.7916710" lon="9.1089660">
        <ele>26.8</ele>
        <time>2022-06-08T09:32:40Z</time>
      </trkpt>
      <trkpt lat="47.7915560" lon="9.1092060">
        <ele>26.6</ele>
        <time>2022-06-08T09:32:44Z</time>
      </trkpt>
      <trkpt lat="47.7914410" lon="9.1094380">
        <ele>26.8</ele>
        <time>2022-06-08T09:32:48Z</time>
      </trkpt>
      <trkpt lat="47.7913230" lon="9.1096410">
        <ele>27.4</ele>
        <time>2022-06-08T09:32:52Z</time>
      </trkpt>
      <trkpt lat="47.7912280" lon="9.1098250">
        <ele>27.4</ele>
        <time>2022-06-08T09:32:56Z</time>
      </trkpt>
      <trkpt lat="47.7912100" lon="9.1100450">
        <ele>26.8</ele>
        <time>2022-06-08T09:33:00Z</time>
      </trkpt>
      <trkpt lat="47.7911480" lon="9.1102780">
        <ele>28.2</ele>
        <time>2022-06-08T09:33:04Z</time>
      </trkpt>
      <trkpt lat="47.7910800" lon="9.1104910">
        <ele>28.2</ele>
        <time>2022-06-08T09:33:08Z</time>
      </trkpt>
      <trkpt lat="47.7910080" lon="9.1107030">
        <ele>28.8</ele>
        <time>2022-06-08T09:33:12Z</time>
      </trkpt>
      <trkpt lat="47.7909380" lon="9.1109130">
        <ele>29.2</ele>
        <time>2022-06-08T09:33:16Z</time>
      </trkpt>
      <trkpt lat="47.7908750" lon="9.1111150">
        <ele>29.4</ele>
        <time>2022-06-08T09:33:20Z</time>
      </trkpt>
      <trkpt lat="47.7908100" lon="9.1113050">
        <ele>30.2</ele>
        <time>2022-06-08T09:33:24Z</time>
      </trkpt>
      <trkpt lat="47.7907350" lon="9.1114850">
        <ele>31.0</ele>
        <time>2022-06-08T09:33:28Z</time>
      </trkpt>
      <trkpt lat="47.7906560" lon="9.1116360">
        <ele>31.8</ele>
        <time>2022-06-08T09:33:32Z</time>
      </trkpt>
      <trkpt lat="47.7905680" lon="9.1117910">
        <ele>32.8</ele>
        <time>2022-06-08T09:33:36Z</time>
      </trkpt>
      <trkpt lat="47.7904900" lon="9.1119360">
        <ele>33.2</ele>
        <time>2022-06-08T09:33:40Z</time>
      </trkpt>
      <trkpt lat="47.7904230" lon="9.1121000">
        <ele>33.4</ele>
        <time>2022-06-08T09:33:44Z</time>
      </trkpt>
      <trkpt lat="47.7903650" lon="9.1122700">
        <ele>33.8</ele>
        <time>2022-06-08T09:33:48Z</time>
      </trkpt>
      <trkpt lat="47.7903110" lon="9.1124510">
        <ele>33.6</ele>
        <time>2022-06-08T09:33:52Z</time>
      </trkpt>
      <trkpt lat="47.7902600" lon="9.1126410">
        <ele>34.4</ele>
        <time>2022-06-08T09:33:56Z</time>
      </trkpt>
      <trkpt lat="47.7902060" lon="9.1128160">
        <ele>35.2</ele>
        <time>2022-06-08T09:34:00Z</time>
      </trkpt>
      <trkpt lat="47.7901600" lon="9.1129930">
        <ele>35.6</ele>
        <time>2022-06-08T09:34:04Z</time>
      </trkpt>
      <trkpt lat="47.7901200" lon="9.1131750">
        <ele>35.0</ele>
        <time>2022-06-08T09:34:08Z</time>
      </trkpt>
      <trkpt lat="47.7899880" lon="9.1133160">
        <ele>34.4</ele>
        <time>2022-06-08T09:34:12Z</time>
      </trkpt>
      <trkpt lat="47.7898310" lon="9.1134910">
        <ele>33.6</ele>
        <time>2022-06-08T09:34:16Z</time>
      </trkpt>
      <trkpt lat="47.7896580" lon="9.1137000">
        <ele>33.0</ele>
        <time>2022-06-08T09:34:20Z</time>
      </trkpt>
      <trkpt lat="47.7894760" lon="9.1139350">
        <ele>32.2</ele>
        <time>2022-06-08T09:34:24Z</time>
      </trkpt>
      <trkpt lat="47.7892960" lon="9.1142030">
        <ele>31.4</ele>
        <time>2022-06-08T09:34:28Z</time>
      </trkpt>
      <trkpt lat="47.7891030" lon="9.1144810">
        <ele>29.6</ele>
        <time>2022-06-08T09:34:32Z</time>
      </trkpt>
      <trkpt lat="47.7888980" lon="9.1146550">
        <ele>28.2</ele>
        <time>2022-06-08T09:34:36Z</time>
      </trkpt>
      <trkpt lat="47.7886580" lon="9.1146530">
        <ele>27.2</ele>
        <time>2022-06-08T09:34:40Z</time>
      </trkpt>
      <trkpt lat="47.7884260" lon="9.1145930">
        <ele>27.4</ele>
        <time>2022-06-08T09:34:44Z</time>
      </trkpt>
      <trkpt lat="47.7882180" lon="9.1146460">
        <ele>26.6</ele>
        <time>2022-06-08T09:34:48Z</time>
      </trkpt>
      <trkpt lat="47.7880880" lon="9.1149030">
        <ele>26.2</ele>
        <time>2022-06-08T09:34:52Z</time>
      </trkpt>
      <trkpt lat="47.7879760" lon="9.1151580">
        <ele>26.4</ele>
        <time>2022-06-08T09:34:56Z</time>
      </trkpt>
      <trkpt lat="47.7878780" lon="9.1153830">
        <ele>26.8</ele>
        <time>2022-06-08T09:35:00Z</time>
      </trkpt>
      <trkpt lat="47.7877910" lon="9.1155780">
        <ele>26.8</ele>
        <time>2022-06-08T09:35:04Z</time>
      </trkpt>
      <trkpt lat="47.7877000" lon="9.1158010">
        <ele>27.0</ele>
        <time>2022-06-08T09:35:08Z</time>
      </trkpt>
      <trkpt lat="47.7876000" lon="9.1160350">
        <ele>26.8</ele>
        <time>2022-06-08T09:35:12Z</time>
      </trkpt>
      <trkpt lat="47.7875000" lon="9.1162680">
        <ele>26.6</ele>
        <time>2022-06-08T09:35:16Z</time>
      </trkpt>
      <trkpt lat="47.7874030" lon="9.1164950">
        <ele>27.2</ele>
        <time>2022-06-08T09:35:20Z</time>
      </trkpt>
      <trkpt lat="47.7873100" lon="9.1167310">
        <ele>26.8</ele>
        <time>2022-06-08T09:35:24Z</time>
      </trkpt>
      <trkpt lat="47.7872130" lon="9.1169660">
        <ele>27.0</ele>
        <time>2022-06-08T09:35:28Z</time>
      </trkpt>
      <trkpt lat="47.7871180" lon="9.1171950">
        <ele>26.8</ele>
        <time>2022-06-08T09:35:32Z</time>
      </trkpt>
      <trkpt lat="47.7870250" lon="9.1174200">
        <ele>27.2</ele>
        <time>2022-06-08T09:35:36Z</time>
      </trkpt>
      <trkpt lat="47.7869330" lon="9.1176380">
        <ele>27.2</ele>
        <time>2022-06-08T09:35:40Z</time>
      </trkpt>
      <trkpt lat="47.7868430" lon="9.1178630">
        <ele>26.4</ele>
        <time>2022-06-08T09:35:44Z</time>
      </trkpt>
      <trkpt lat="47.7867450" lon="9.1181100">
        <ele>26.2</ele>
        <time>2022-06-08T09:35:48Z</time>
      </trkpt>
      <trkpt lat="47.7866360" lon="9.1183710">
        <ele>26.0</ele>
        <time>2022-06-08T09:35:52Z</time>
      </trkpt>
      <trkpt lat="47.7865180" lon="9.1186180">
        <ele>26.0</ele>
        <time>2022-06-08T09:35:56Z</time>
      </trkpt>
      <trkpt lat="47.7864030" lon="9.1188480">
        <ele>26.6</ele>
        <time>2022-06-08T09:36:00Z</time>
      </trkpt>
      <trkpt lat="47.7863010" lon="9.1190710">
        <ele>26.6</ele>
        <time>2022-06-08T09:36:04Z</time>
      </trkpt>
      <trkpt lat="47.7862010" lon="9.1192800">
        <ele>27.4</ele>
        <time>2022-06-08T09:36:08Z</time>
      </trkpt>
      <trkpt lat="47.7861110" lon="9.1194510">
        <ele>27.6</ele>
        <time>2022-06-08T09:36:12Z</time>
      </trkpt>
      <trkpt lat="47.7859700" lon="9.1195110">
        <ele>27.4</ele>
        <time>2022-06-08T09:36:16Z</time>
      </trkpt>
      <trkpt lat="47.7858330" lon="9.1196210">
        <ele>26.8</ele>
        <time>2022-06-08T09:36:20Z</time>
      </trkpt>
      <trkpt lat="47.7856710" lon="9.1198030">
        <ele>23.6</ele>
        <time>2022-06-08T09:36:24Z</time>
      </trkpt>
      <trkpt lat="47.7854780" lon="9.1198380">
        <ele>24.0</ele>
        <time>2022-06-08T09:36:28Z</time>
      </trkpt>
      <trkpt lat="47.7852810" lon="9.1198510">
        <ele>25.8</ele>
        <time>2022-06-08T09:36:32Z</time>
      </trkpt>
      <trkpt lat="47.7851510" lon="9.1199310">
        <ele>26.8</ele>
        <time>2022-06-08T09:36:36Z</time>
      </trkpt>
      <trkpt lat="47.7850430" lon="9.1200550">
        <ele>28.2</ele>
        <time>2022-06-08T09:36:40Z</time>
      </trkpt>
      <trkpt lat="47.7849680" lon="9.1202000">
        <ele>28.6</ele>
        <time>2022-06-08T09:36:44Z</time>
      </trkpt>
      <trkpt lat="47.7849180" lon="9.1203750">
        <ele>28.6</ele>
        <time>2022-06-08T09:36:48Z</time>
      </trkpt>
      <trkpt lat="47.7848300" lon="9.1205310">
        <ele>28.2</ele>
        <time>2022-06-08T09:36:52Z</time>
      </trkpt>
      <trkpt lat="47.7847310" lon="9.1206380">
        <ele>28.8</ele>
        <time>2022-06-08T09:36:56Z</time>
      </trkpt>
      <trkpt lat="47.7846350" lon="9.1207680">
        <ele>28.2</ele>
        <time>2022-06-08T09:37:00Z</time>
      </trkpt>
      <trkpt lat="47.7845350" lon="9.1209780">
        <ele>28.0</ele>
        <time>2022-06-08T09:37:04Z</time>
      </trkpt>
      <trkpt lat="47.7844380" lon="9.1212080">
        <ele>27.4</ele>
        <time>2022-06-08T09:37:08Z</time>
      </trkpt>
      <trkpt lat="47.7843330" lon="9.1214430">
        <ele>27.2</ele>
        <time>2022-06-08T09:37:12Z</time>
      </trkpt>
      <trkpt lat="47.7842130" lon="9.1216800">
        <ele>27.0</ele>
        <time>2022-06-08T09:37:16Z</time>
      </trkpt>
      <trkpt lat="47.7840960" lon="9.1219280">
        <ele>26.8</ele>
        <time>2022-06-08T09:37:20Z</time>
      </trkpt>
      <trkpt lat="47.7839860" lon="9.1221750">
        <ele>26.6</ele>
        <time>2022-06-08T09:37:24Z</time>
      </trkpt>
      <trkpt lat="47.7838800" lon="9.1224300">
        <ele>27.0</ele>
        <time>2022-06-08T09:37:28Z</time>
      </trkpt>
      <trkpt lat="47.7837760" lon="9.1226930">
        <ele>27.2</ele>
        <time>2022-06-08T09:37:32Z</time>
      </trkpt>
      <trkpt lat="47.7836700" lon="9.1229510">
        <ele>26.4</ele>
        <time>2022-06-08T09:37:36Z</time>
      </trkpt>
      <trkpt lat="47.7835750" lon="9.1232030">
        <ele>26.2</ele>
        <time>2022-06-08T09:37:40Z</time>
      </trkpt>
      <trkpt lat="47.7834710" lon="9.1234550">
        <ele>26.4</ele>
        <time>2022-06-08T09:37:44Z</time>
      </trkpt>
      <trkpt lat="47.7833660" lon="9.1237060">
        <ele>26.6</ele>
        <time>2022-06-08T09:37:48Z</time>
      </trkpt>
      <trkpt lat="47.7832580" lon="9.1239530">
        <ele>26.4</ele>
        <time>2022-06-08T09:37:52Z</time>
      </trkpt>
      <trkpt lat="47.7831500" lon="9.1241930">
        <ele>26.4</ele>
        <time>2022-06-08T09:37:56Z</time>
      </trkpt>
      <trkpt lat="47.7830310" lon="9.1244330">
        <ele>26.0</ele>
        <time>2022-06-08T09:38:00Z</time>
      </trkpt>
      <trkpt lat="47.7829110" lon="9.1246650">
        <ele>26.0</ele>
        <time>2022-06-08T09:38:04Z</time>
      </trkpt>
      <trkpt lat="47.7827830" lon="9.1248980">
        <ele>26.0</ele>
        <time>2022-06-08T09:38:08Z</time>
      </trkpt>
      <trkpt lat="47.7826660" lon="9.1251310">
        <ele>26.0</ele>
        <time>2022-06-08T09:38:12Z</time>
      </trkpt>
      <trkpt lat="47.7825310" lon="9.1253400">
        <ele>26.0</ele>
        <time>2022-06-08T09:38:16Z</time>
      </trkpt>
      <trkpt lat="47.7823980" lon="9.1255380">
        <ele>25.4</ele>
        <time>2022-06-08T09:38:20Z</time>
      </trkpt>
      <trkpt lat="47.7822450" lon="9.1257330">
        <ele>25.4</ele>
        <time>2022-06-08T09:38:24Z</time>
      </trkpt>
      <trkpt lat="47.7821050" lon="9.1259260">
        <ele>26.0</ele>
        <time>2022-06-08T09:38:28Z</time>
      </trkpt>
      <trkpt lat="47.7819660" lon="9.1261250">
        <ele>26.0</ele>
        <time>2022-06-08T09:38:32Z</time>
      </trkpt>
      <trkpt lat="47.7818230" lon="9.1263160">
        <ele>25.8</ele>
        <time>2022-06-08T09:38:36Z</time>
      </trkpt>
      <trkpt lat="47.7816730" lon="9.1264960">
        <ele>26.2</ele>
        <time>2022-06-08T09:38:40Z</time>
      </trkpt>
      <trkpt lat="47.7815210" lon="9.1266750">
        <ele>26.2</ele>
        <time>2022-06-08T09:38:44Z</time>
      </trkpt>
      <trkpt lat="47.7813800" lon="9.1268510">
        <ele>26.2</ele>
        <time>2022-06-08T09:38:48Z</time>
      </trkpt>
      <trkpt lat="47.7812460" lon="9.1270350">
        <ele>26.2</ele>
        <time>2022-06-08T09:38:52Z</time>
      </trkpt>
      <trkpt lat="47.7811110" lon="9.1272060">
        <ele>26.6</ele>
        <time>2022-06-08T09:38:56Z</time>
      </trkpt>
      <trkpt lat="47.7809780" lon="9.1273800">
        <ele>26.2</ele>
        <time>2022-06-08T09:39:00Z</time>
      </trkpt>
      <trkpt lat="47.7808450" lon="9.1275500">
        <ele>26.2</ele>
        <time>2022-06-08T09:39:04Z</time>
      </trkpt>
      <trkpt lat="47.7807060" lon="9.1277260">
        <ele>26.6</ele>
        <time>2022-06-08T09:39:08Z</time>
      </trkpt>
      <trkpt lat="47.7805650" lon="9.1278830">
        <ele>27.2</ele>
        <time>2022-06-08T09:39:12Z</time>
      </trkpt>
      <trkpt lat="47.7804310" lon="9.1280330">
        <ele>27.6</ele>
        <time>2022-06-08T09:39:16Z</time>
      </trkpt>
      <trkpt lat="47.7803030" lon="9.1281710">
        <ele>28.6</ele>
        <time>2022-06-08T09:39:20Z</time>
      </trkpt>
      <trkpt lat="47.7801800" lon="9.1282930">
        <ele>29.0</ele>
        <time>2022-06-08T09:39:24Z</time>
      </trkpt>
      <trkpt lat="47.7800510" lon="9.1284080">
        <ele>29.2</ele>
        <time>2022-06-08T09:39:28Z</time>
      </trkpt>
      <trkpt lat="47.7799150" lon="9.1285160">
        <ele>29.6</ele>
        <time>2022-06-08T09:39:32Z</time>
      </trkpt>
      <trkpt lat="47.7797650" lon="9.1286260">
        <ele>28.8</ele>
        <time>2022-06-08T09:39:36Z</time>
      </trkpt>
      <trkpt lat="47.7796030" lon="9.1287510">
        <ele>29.4</ele>
        <time>2022-06-08T09:39:40Z</time>
      </trkpt>
      <trkpt lat="47.7794450" lon="9.1288700">
        <ele>29.4</ele>
        <time>2022-06-08T09:39:44Z</time>
      </trkpt>
      <trkpt lat="47.7792810" lon="9.1289900">
        <ele>28.8</ele>
        <time>2022-06-08T09:39:48Z</time>
      </trkpt>
      <trkpt lat="47.7791110" lon="9.1291060">
        <ele>28.4</ele>
        <time>2022-06-08T09:39:52Z</time>
      </trkpt>
      <trkpt lat="47.7789400" lon="9.1292110">
        <ele>29.2</ele>
        <time>2022-06-08T09:39:56Z</time>
      </trkpt>
      <trkpt lat="47.7787630" lon="9.1293200">
        <ele>29.6</ele>
        <time>2022-06-08T09:40:00Z</time>
      </trkpt>
      <trkpt lat="47.7785800" lon="9.1294250">
        <ele>28.8</ele>
        <time>2022-06-08T09:40:04Z</time>
      </trkpt>
      <trkpt lat="47.7783830" lon="9.1295330">
        <ele>27.4</ele>
        <time>2022-06-08T09:40:08Z</time>
      </trkpt>
      <trkpt lat="47.7781860" lon="9.1296430">
        <ele>28.0</ele>
        <time>2022-06-08T09:40:12Z</time>
      </trkpt>
      <trkpt lat="47.7779850" lon="9.1297580">
        <ele>27.4</ele>
        <time>2022-06-08T09:40:16Z</time>
      </trkpt>
      <trkpt lat="47.7777800" lon="9.1298880">
        <ele>26.8</ele>
        <time>2022-06-08T09:40:20Z</time>
      </trkpt>
      <trkpt lat="47.7775680" lon="9.1300230">
        <ele>27.4</ele>
        <time>2022-06-08T09:40:24Z</time>
      </trkpt>
      <trkpt lat="47.7773550" lon="9.1301650">
        <ele>27.0</ele>
        <time>2022-06-08T09:40:28Z</time>
      </trkpt>
      <trkpt lat="47.7771430" lon="9.1302980">
        <ele>26.2</ele>
        <time>2022-06-08T09:40:32Z</time>
      </trkpt>
      <trkpt lat="47.7769380" lon="9.1304480">
        <ele>26.0</ele>
        <time>2022-06-08T09:40:36Z</time>
      </trkpt>
      <trkpt lat="47.7767360" lon="9.1306010">
        <ele>27.4</ele>
        <time>2022-06-08T09:40:40Z</time>
      </trkpt>
      <trkpt lat="47.7765380" lon="9.1307660">
        <ele>27.2</ele>
        <time>2022-06-08T09:40:44Z</time>
      </trkpt>
      <trkpt lat="47.7763450" lon="9.1309360">
        <ele>26.8</ele>
        <time>2022-06-08T09:40:48Z</time>
      </trkpt>
      <trkpt lat="47.7761610" lon="9.1311180">
        <ele>27.2</ele>
        <time>2022-06-08T09:40:52Z</time>
      </trkpt>
      <trkpt lat="47.7759900" lon="9.1313010">
        <ele>26.0</ele>
        <time>2022-06-08T09:40:56Z</time>
      </trkpt>
      <trkpt lat="47.7758100" lon="9.1314630">
        <ele>27.0</ele>
        <time>2022-06-08T09:41:00Z</time>
      </trkpt>
      <trkpt lat="47.7756580" lon="9.1316650">
        <ele>26.8</ele>
        <time>2022-06-08T09:41:04Z</time>
      </trkpt>
      <trkpt lat="47.7754860" lon="9.1318380">
        <ele>26.8</ele>
        <time>2022-06-08T09:41:08Z</time>
      </trkpt>
      <trkpt lat="47.7752980" lon="9.1319980">
        <ele>27.4</ele>
        <time>2022-06-08T09:41:12Z</time>
      </trkpt>
      <trkpt lat="47.7751380" lon="9.1321660">
        <ele>26.2</ele>
        <time>2022-06-08T09:41:16Z</time>
      </trkpt>
      <trkpt lat="47.7749360" lon="9.1323130">
        <ele>26.0</ele>
        <time>2022-06-08T09:41:20Z</time>
      </trkpt>
      <trkpt lat="47.7747680" lon="9.1324750">
        <ele>26.2</ele>
        <time>2022-06-08T09:41:24Z</time>
      </trkpt>
      <trkpt lat="47.7745930" lon="9.1326350">
        <ele>25.0</ele>
        <time>2022-06-08T09:41:28Z</time>
      </trkpt>
      <trkpt lat="47.7744210" lon="9.1328010">
        <ele>25.2</ele>
        <time>2022-06-08T09:41:32Z</time>
      </trkpt>
      <trkpt lat="47.7742500" lon="9.1329530">
        <ele>26.2</ele>
        <time>2022-06-08T09:41:36Z</time>
      </trkpt>
      <trkpt lat="47.7740860" lon="9.1331060">
        <ele>25.8</ele>
        <time>2022-06-08T09:41:40Z</time>
      </trkpt>
      <trkpt lat="47.7739330" lon="9.1332650">
        <ele>26.0</ele>
        <time>2022-06-08T09:41:44Z</time>
      </trkpt>
      <trkpt lat="47.7737810" lon="9.1334280">
        <ele>26.2</ele>
        <time>2022-06-08T09:41:48Z</time>
      </trkpt>
      <trkpt lat="47.7736230" lon="9.1336060">
        <ele>26.6</ele>
        <time>2022-06-08T09:41:52Z</time>
      </trkpt>
      <trkpt lat="47.7734860" lon="9.1337750">
        <ele>26.6</ele>
        <time>2022-06-08T09:41:56Z</time>
      </trkpt>
      <trkpt lat="47.7733560" lon="9.1339480">
        <ele>26.8</ele>
        <time>2022-06-08T09:42:00Z</time>
      </trkpt>
      <trkpt lat="47.7732280" lon="9.1341210">
        <ele>27.2</ele>
        <time>2022-06-08T09:42:04Z</time>
      </trkpt>
      <trkpt lat="47.7731050" lon="9.1343250">
        <ele>27.0</ele>
        <time>2022-06-08T09:42:08Z</time>
      </trkpt>
      <trkpt lat="47.7729680" lon="9.1345230">
        <ele>27.2</ele>
        <time>2022-06-08T09:42:12Z</time>
      </trkpt>
      <trkpt lat="47.7728360" lon="9.1347260">
        <ele>27.0</ele>
        <time>2022-06-08T09:42:16Z</time>
      </trkpt>
      <trkpt lat="47.7727130" lon="9.1349360">
        <ele>27.2</ele>
        <time>2022-06-08T09:42:20Z</time>
      </trkpt>
      <trkpt lat="47.7725860" lon="9.1351410">
        <ele>27.2</ele>
        <time>2022-06-08T09:42:24Z</time>
      </trkpt>
      <trkpt lat="47.7724750" lon="9.1353700">
        <ele>27.2</ele>
        <time>2022-06-08T09:42:28Z</time>
      </trkpt>
      <trkpt lat="47.7723350" lon="9.1355910">
        <ele>26.8</ele>
        <time>2022-06-08T09:42:32Z</time>
      </trkpt>
      <trkpt lat="47.7722330" lon="9.1358280">
        <ele>27.2</ele>
        <time>2022-06-08T09:42:36Z</time>
      </trkpt>
      <trkpt lat="47.7721080" lon="9.1360630">
        <ele>26.6</ele>
        <time>2022-06-08T09:42:40Z</time>
      </trkpt>
      <trkpt lat="47.7719950" lon="9.1363180">
        <ele>26.8</ele>
        <time>2022-06-08T09:42:44Z</time>
      </trkpt>
      <trkpt lat="47.7718880" lon="9.1365810">
        <ele>26.6</ele>
        <time>2022-06-08T09:42:48Z</time>
      </trkpt>
      <trkpt lat="47.7717930" lon="9.1368300">
        <ele>27.2</ele>
        <time>2022-06-08T09:42:52Z</time>
      </trkpt>
      <trkpt lat="47.7716810" lon="9.1370650">
        <ele>26.0</ele>
        <time>2022-06-08T09:42:56Z</time>
      </trkpt>
      <trkpt lat="47.7715680" lon="9.1373060">
        <ele>26.4</ele>
        <time>2022-06-08T09:43:00Z</time>
      </trkpt>
      <trkpt lat="47.7714710" lon="9.1375530">
        <ele>26.2</ele>
        <time>2022-06-08T09:43:04Z</time>
      </trkpt>
      <trkpt lat="47.7713850" lon="9.1377810">
        <ele>26.4</ele>
        <time>2022-06-08T09:43:08Z</time>
      </trkpt>
      <trkpt lat="47.7712800" lon="9.1379380">
        <ele>26.4</ele>
        <time>2022-06-08T09:43:12Z</time>
      </trkpt>
      <trkpt lat="47.7712130" lon="9.1380250">
        <ele>26.2</ele>
        <time>2022-06-08T09:43:16Z</time>
      </trkpt>
      <trkpt lat="47.7712130" lon="9.1380250">
        <ele>26.4</ele>
        <time>2022-06-08T09:43:20Z</time>
      </trkpt>
      <trkpt lat="47.7712130" lon="9.1380250">
        <ele>26.2</ele>
        <time>2022-06-08T09:43:24Z</time>
      </trkpt>
      <trkpt lat="47.7712130" lon="9.1380250">
        <ele>26.2</ele>
        <time>2022-06-08T09:43:28Z</time>
      </trkpt>
      <trkpt lat="47.7712130" lon="9.1380250">
        <ele>26.8</ele>
        <time>2022-06-08T09:43:32Z</time>
      </trkpt>
      <trkpt lat="47.7712130" lon="9.1380250">
        <ele>26.6</ele>
        <time>2022-06-08T09:43:36Z</time>
      </trkpt>
      <trkpt lat="47.7712130" lon="9.1380250">
        <ele>26.8</ele>
        <time>2022-06-08T09:43:40Z</time>
      </trkpt>
      <trkpt lat="47.7712130" lon="9.1380250">
        <ele>25.8</ele>
        <time>2022-06-08T09:43:44Z</time>
      </trkpt>
      <trkpt lat="47.7712130" lon="9.1380250">
        <ele>26.4</ele>
        <time>2022-06-08T09:43:48Z</time>
      </trkpt>
      <trkpt lat="47.7712100" lon="9.1380550">
        <ele>26.0</ele>
        <time>2022-06-08T09:43:52Z</time>
      </trkpt>
      <trkpt lat="47.7712100" lon="9.1380550">
        <ele>26.0</ele>
        <time>2022-06-08T09:43:56Z</time>
      </trkpt>
      <trkpt lat="47.7711730" lon="9.1380660">
        <ele>25.8</ele>
        <time>2022-06-08T09:44:00Z</time>
      </trkpt>
      <trkpt lat="47.7710810" lon="9.1380910">
        <ele>25.8</ele>
        <time>2022-06-08T09:44:04Z</time>
      </trkpt>
      <trkpt lat="47.7709410" lon="9.1381350">
        <ele>25.2</ele>
        <time>2022-06-08T09:44:08Z</time>
      </trkpt>
      <trkpt lat="47.7708180" lon="9.1383050">
        <ele>25.6</ele>
        <time>2022-06-08T09:44:12Z</time>
      </trkpt>
      <trkpt lat="47.7707210" lon="9.1385110">
        <ele>25.6</ele>
        <time>2022-06-08T09:44:16Z</time>
      </trkpt>
      <trkpt lat="47.7706250" lon="9.1387550">
        <ele>26.4</ele>
        <time>2022-06-08T09:44:20Z</time>
      </trkpt>
      <trkpt lat="47.7705180" lon="9.1390210">
        <ele>25.8</ele>
        <time>2022-06-08T09:44:24Z</time>
      </trkpt>
      <trkpt lat="47.7704110" lon="9.1392960">
        <ele>25.6</ele>
        <time>2022-06-08T09:44:28Z</time>
      </trkpt>
      <trkpt lat="47.7703110" lon="9.1395710">
        <ele>26.0</ele>
        <time>2022-06-08T09:44:32Z</time>
      </trkpt>
      <trkpt lat="47.7702410" lon="9.1398730">
        <ele>26.0</ele>
        <time>2022-06-08T09:44:36Z</time>
      </trkpt>
      <trkpt lat="47.7701830" lon="9.1401810">
        <ele>25.8</ele>
        <time>2022-06-08T09:44:40Z</time>
      </trkpt>
      <trkpt lat="47.7701250" lon="9.1404860">
        <ele>26.0</ele>
        <time>2022-06-08T09:44:44Z</time>
      </trkpt>
      <trkpt lat="47.7700610" lon="9.1407880">
        <ele>26.2</ele>
        <time>2022-06-08T09:44:48Z</time>
      </trkpt>
      <trkpt lat="47.7700000" lon="9.1410900">
        <ele>26.4</ele>
        <time>2022-06-08T09:44:52Z</time>
      </trkpt>
      <trkpt lat="47.7699350" lon="9.1413880">
        <ele>25.8</ele>
        <time>2022-06-08T09:44:56Z</time>
      </trkpt>
      <trkpt lat="47.7698810" lon="9.1416910">
        <ele>26.4</ele>
        <time>2022-06-08T09:45:00Z</time>
      </trkpt>
      <trkpt lat="47.7698210" lon="9.1419930">
        <ele>26.2</ele>
        <time>2022-06-08T09:45:04Z</time>
      </trkpt>
      <trkpt lat="47.7697580" lon="9.1422910">
        <ele>25.8</ele>
        <time>2022-06-08T09:45:08Z</time>
      </trkpt>
      <trkpt lat="47.7696980" lon="9.1425980">
        <ele>26.4</ele>
        <time>2022-06-08T09:45:12Z</time>
      </trkpt>
      <trkpt lat="47.7696400" lon="9.1429030">
        <ele>26.2</ele>
        <time>2022-06-08T09:45:16Z</time>
      </trkpt>
      <trkpt lat="47.7695780" lon="9.1432060">
        <ele>26.2</ele>
        <time>2022-06-08T09:45:20Z</time>
      </trkpt>
      <trkpt lat="47.7695200" lon="9.1435030">
        <ele>26.2</ele>
        <time>2022-06-08T09:45:24Z</time>
      </trkpt>
      <trkpt lat="47.7694600" lon="9.1437960">
        <ele>26.6</ele>
        <time>2022-06-08T09:45:28Z</time>
      </trkpt>
      <trkpt lat="47.7694010" lon="9.1440830">
        <ele>26.8</ele>
        <time>2022-06-08T09:45:32Z</time>
      </trkpt>
      <trkpt lat="47.7693160" lon="9.1443600">
        <ele>26.8</ele>
        <time>2022-06-08T09:45:36Z</time>
      </trkpt>
      <trkpt lat="47.7691580" lon="9.1445560">
        <ele>27.0</ele>
        <time>2022-06-08T09:45:40Z</time>
      </trkpt>
      <trkpt lat="47.7690110" lon="9.1447580">
        <ele>26.6</ele>
        <time>2022-06-08T09:45:44Z</time>
      </trkpt>
      <trkpt lat="47.7689600" lon="9.1450410">
        <ele>26.4</ele>
        <time>2022-06-08T09:45:48Z</time>
      </trkpt>
      <trkpt lat="47.7689530" lon="9.1453360">
        <ele>26.8</ele>
        <time>2022-06-08T09:45:52Z</time>
      </trkpt>
      <trkpt lat="47.7689530" lon="9.1456410">
        <ele>27.2</ele>
        <time>2022-06-08T09:45:56Z</time>
      </trkpt>
      <trkpt lat="47.7689180" lon="9.1459460">
        <ele>27.2</ele>
        <time>2022-06-08T09:46:00Z</time>
      </trkpt>
      <trkpt lat="47.7689380" lon="9.1462700">
        <ele>26.8</ele>
        <time>2022-06-08T09:46:04Z</time>
      </trkpt>
      <trkpt lat="47.7689680" lon="9.1465730">
        <ele>26.8</ele>
        <time>2022-06-08T09:46:08Z</time>
      </trkpt>
      <trkpt lat="47.7689800" lon="9.1468980">
        <ele>26.4</ele>
        <time>2022-06-08T09:46:12Z</time>
      </trkpt>
      <trkpt lat="47.7689860" lon="9.1472450">
        <ele>27.0</ele>
        <time>2022-06-08T09:46:16Z</time>
      </trkpt>
      <trkpt lat="47.7690100" lon="9.1475850">
        <ele>26.8</ele>
        <time>2022-06-08T09:46:20Z</time>
      </trkpt>
      <trkpt lat="47.7690300" lon="9.1479280">
        <ele>26.4</ele>
        <time>2022-06-08T09:46:24Z</time>
      </trkpt>
      <trkpt lat="47.7690530" lon="9.1482760">
        <ele>26.0</ele>
        <time>2022-06-08T09:46:28Z</time>
      </trkpt>
      <trkpt lat="47.7690660" lon="9.1486050">
        <ele>26.0</ele>
        <time>2022-06-08T09:46:32Z</time>
      </trkpt>
      <trkpt lat="47.7690900" lon="9.1489180">
        <ele>25.8</ele>
        <time>2022-06-08T09:46:36Z</time>
      </trkpt>
      <trkpt lat="47.7691010" lon="9.1492280">
        <ele>25.4</ele>
        <time>2022-06-08T09:46:40Z</time>
      </trkpt>
      <trkpt lat="47.7691110" lon="9.1495360">
        <ele>25.4</ele>
        <time>2022-06-08T09:46:44Z</time>
      </trkpt>
      <trkpt lat="47.7690910" lon="9.1498430">
        <ele>25.4</ele>
        <time>2022-06-08T09:46:48Z</time>
      </trkpt>
      <trkpt lat="47.7690810" lon="9.1501480">
        <ele>26.4</ele>
        <time>2022-06-08T09:46:52Z</time>
      </trkpt>
      <trkpt lat="47.7690430" lon="9.1504500">
        <ele>26.0</ele>
        <time>2022-06-08T09:46:56Z</time>
      </trkpt>
      <trkpt lat="47.7689850" lon="9.1507310">
        <ele>26.0</ele>
        <time>2022-06-08T09:47:00Z</time>
      </trkpt>
      <trkpt lat="47.7689410" lon="9.1510030">
        <ele>26.0</ele>
        <time>2022-06-08T09:47:04Z</time>
      </trkpt>
      <trkpt lat="47.7688880" lon="9.1512860">
        <ele>25.4</ele>
        <time>2022-06-08T09:47:08Z</time>
      </trkpt>
      <trkpt lat="47.7688430" lon="9.1515530">
        <ele>26.2</ele>
        <time>2022-06-08T09:47:12Z</time>
      </trkpt>
      <trkpt lat="47.7687930" lon="9.1518250">
        <ele>25.8</ele>
        <time>2022-06-08T09:47:16Z</time>
      </trkpt>
      <trkpt lat="47.7687160" lon="9.1520910">
        <ele>26.4</ele>
        <time>2022-06-08T09:47:20Z</time>
      </trkpt>
      <trkpt lat="47.7686480" lon="9.1523600">
        <ele>26.8</ele>
        <time>2022-06-08T09:47:24Z</time>
      </trkpt>
      <trkpt lat="47.7686010" lon="9.1526410">
        <ele>26.2</ele>
        <time>2022-06-08T09:47:28Z</time>
      </trkpt>
      <trkpt lat="47.7685760" lon="9.1529300">
        <ele>25.8</ele>
        <time>2022-06-08T09:47:32Z</time>
      </trkpt>
      <trkpt lat="47.7685580" lon="9.1532110">
        <ele>26.2</ele>
        <time>2022-06-08T09:47:36Z</time>
      </trkpt>
      <trkpt lat="47.7685550" lon="9.1535030">
        <ele>25.8</ele>
        <time>2022-06-08T09:47:40Z</time>
      </trkpt>
      <trkpt lat="47.7685380" lon="9.1538010">
        <ele>26.6</ele>
        <time>2022-06-08T09:47:44Z</time>
      </trkpt>
      <trkpt lat="47.7685280" lon="9.1540960">
        <ele>26.4</ele>
        <time>2022-06-08T09:47:48Z</time>
      </trkpt>
      <trkpt lat="47.7684860" lon="9.1544010">
        <ele>25.6</ele>
        <time>2022-06-08T09:47:52Z</time>
      </trkpt>
      <trkpt lat="47.7684380" lon="9.1547060">
        <ele>25.8</ele>
        <time>2022-06-08T09:47:56Z</time>
      </trkpt>
      <trkpt lat="47.7683500" lon="9.1549780">
        <ele>25.6</ele>
        <time>2022-06-08T09:48:00Z</time>
      </trkpt>
      <trkpt lat="47.7682730" lon="9.1552430">
        <ele>25.4</ele>
        <time>2022-06-08T09:48:04Z</time>
      </trkpt>
      <trkpt lat="47.7681960" lon="9.1554950">
        <ele>24.8</ele>
        <time>2022-06-08T09:48:08Z</time>
      </trkpt>
      <trkpt lat="47.7681200" lon="9.1557730">
        <ele>25.2</ele>
        <time>2022-06-08T09:48:12Z</time>
      </trkpt>
      <trkpt lat="47.7680350" lon="9.1560310">
        <ele>26.0</ele>
        <time>2022-06-08T09:48:16Z</time>
      </trkpt>
      <trkpt lat="47.7679330" lon="9.1562750">
        <ele>24.8</ele>
        <time>2022-06-08T09:48:20Z</time>
      </trkpt>
      <trkpt lat="47.7677450" lon="9.1564980">
        <ele>25.4</ele>
        <time>2022-06-08T09:48:24Z</time>
      </trkpt>
      <trkpt lat="47.7676480" lon="9.1567400">
        <ele>25.2</ele>
        <time>2022-06-08T09:48:28Z</time>
      </trkpt>
      <trkpt lat="47.7675510" lon="9.1569880">
        <ele>24.6</ele>
        <time>2022-06-08T09:48:32Z</time>
      </trkpt>
      <trkpt lat="47.7673880" lon="9.1572100">
        <ele>25.0</ele>
        <time>2022-06-08T09:48:36Z</time>
      </trkpt>
      <trkpt lat="47.7672510" lon="9.1574650">
        <ele>24.8</ele>
        <time>2022-06-08T09:48:40Z</time>
      </trkpt>
      <trkpt lat="47.7671030" lon="9.1576980">
        <ele>25.0</ele>
        <time>2022-06-08T09:48:44Z</time>
      </trkpt>
      <trkpt lat="47.7669650" lon="9.1579280">
        <ele>25.4</ele>
        <time>2022-06-08T09:48:48Z</time>
      </trkpt>
      <trkpt lat="47.7668930" lon="9.1582160">
        <ele>24.4</ele>
        <time>2022-06-08T09:48:52Z</time>
      </trkpt>
      <trkpt lat="47.7667860" lon="9.1584760">
        <ele>25.4</ele>
        <time>2022-06-08T09:48:56Z</time>
      </trkpt>
      <trkpt lat="47.7666580" lon="9.1587030">
        <ele>24.6</ele>
        <time>2022-06-08T09:49:00Z</time>
      </trkpt>
      <trkpt lat="47.7665610" lon="9.1589530">
        <ele>25.0</ele>
        <time>2022-06-08T09:49:04Z</time>
      </trkpt>
      <trkpt lat="47.7664760" lon="9.1591380">
        <ele>25.2</ele>
        <time>2022-06-08T09:49:08Z</time>
      </trkpt>
      <trkpt lat="47.7664010" lon="9.1593380">
        <ele>24.4</ele>
        <time>2022-06-08T09:49:12Z</time>
      </trkpt>
      <trkpt lat="47.7663630" lon="9.1595500">
        <ele>25.0</ele>
        <time>2022-06-08T09:49:16Z</time>
      </trkpt>
      <trkpt lat="47.7663180" lon="9.1597910">
        <ele>25.4</ele>
        <time>2022-06-08T09:49:20Z</time>
      </trkpt>
      <trkpt lat="47.7662450" lon="9.1600130">
        <ele>25.6</ele>
        <time>2022-06-08T09:49:24Z</time>
      </trkpt>
      <trkpt lat="47.7661530" lon="9.1602410">
        <ele>25.4</ele>
        <time>2022-06-08T09:49:28Z</time>
      </trkpt>
      <trkpt lat="47.7660400" lon="9.1604150">
        <ele>25.6</ele>
        <time>2022-06-08T09:49:32Z</time>
      </trkpt>
      <trkpt lat="47.7660000" lon="9.1605810">
        <ele>25.8</ele>
        <time>2022-06-08T09:49:36Z</time>
      </trkpt>
      <trkpt lat="47.7659680" lon="9.1607800">
        <ele>25.2</ele>
        <time>2022-06-08T09:49:40Z</time>
      </trkpt>
      <trkpt lat="47.7659250" lon="9.1609860">
        <ele>25.6</ele>
        <time>2022-06-08T09:49:44Z</time>
      </trkpt>
      <trkpt lat="47.7659030" lon="9.1611880">
        <ele>25.0</ele>
        <time>2022-06-08T09:49:48Z</time>
      </trkpt>
      <trkpt lat="47.7658230" lon="9.1614060">
        <ele>24.8</ele>
        <time>2022-06-08T09:49:52Z</time>
      </trkpt>
      <trkpt lat="47.7656900" lon="9.1615650">
        <ele>25.2</ele>
        <time>2022-06-08T09:49:56Z</time>
      </trkpt>
      <trkpt lat="47.7656000" lon="9.1618060">
        <ele>25.6</ele>
        <time>2022-06-08T09:50:00Z</time>
      </trkpt>
      <trkpt lat="47.7655100" lon="9.1620480">
        <ele>25.2</ele>
        <time>2022-06-08T09:50:04Z</time>
      </trkpt>
      <trkpt lat="47.7654150" lon="9.1623150">
        <ele>25.8</ele>
        <time>2022-06-08T09:50:08Z</time>
      </trkpt>
      <trkpt lat="47.7654750" lon="9.1625880">
        <ele>25.4</ele>
        <time>2022-06-08T09:50:12Z</time>
      </trkpt>
      <trkpt lat="47.7655980" lon="9.1627660">
        <ele>26.8</ele>
        <time>2022-06-08T09:50:16Z</time>
      </trkpt>
      <trkpt lat="47.7656950" lon="9.1629700">
        <ele>27.0</ele>
        <time>2022-06-08T09:50:20Z</time>
      </trkpt>
      <trkpt lat="47.7657010" lon="9.1631910">
        <ele>27.6</ele>
        <time>2022-06-08T09:50:24Z</time>
      </trkpt>
      <trkpt lat="47.7656010" lon="9.1633430">
        <ele>28.0</ele>
        <time>2022-06-08T09:50:28Z</time>
      </trkpt>
      <trkpt lat="47.7654780" lon="9.1634030">
        <ele>27.4</ele>
        <time>2022-06-08T09:50:32Z</time>
      </trkpt>
      <trkpt lat="47.7653480" lon="9.1633450">
        <ele>27.0</ele>
        <time>2022-06-08T09:50:36Z</time>
      </trkpt>
      <trkpt lat="47.7652150" lon="9.1632130">
        <ele>27.2</ele>
        <time>2022-06-08T09:50:40Z</time>
      </trkpt>
      <trkpt lat="47.7650710" lon="9.1630810">
        <ele>27.4</ele>
        <time>2022-06-08T09:50:44Z</time>
      </trkpt>
      <trkpt lat="47.7649150" lon="9.1629600">
        <ele>26.2</ele>
        <time>2022-06-08T09:50:48Z</time>
      </trkpt>
      <trkpt lat="47.7647530" lon="9.1628580">
        <ele>25.8</ele>
        <time>2022-06-08T09:50:52Z</time>
      </trkpt>
      <trkpt lat="47.7645580" lon="9.1627960">
        <ele>26.0</ele>
        <time>2022-06-08T09:50:56Z</time>
      </trkpt>
      <trkpt lat="47.7644060" lon="9.1629260">
        <ele>26.2</ele>
        <time>2022-06-08T09:51:00Z</time>
      </trkpt>
      <trkpt lat="47.7643260" lon="9.1631650">
        <ele>25.8</ele>
        <time>2022-06-08T09:51:04Z</time>
      </trkpt>
      <trkpt lat="47.7642680" lon="9.1633950">
        <ele>25.4</ele>
        <time>2022-06-08T09:51:08Z</time>
      </trkpt>
      <trkpt lat="47.7641980" lon="9.1636300">
        <ele>25.6</ele>
        <time>2022-06-08T09:51:12Z</time>
      </trkpt>
      <trkpt lat="47.7641450" lon="9.1638430">
        <ele>25.2</ele>
        <time>2022-06-08T09:51:16Z</time>
      </trkpt>
      <trkpt lat="47.7640810" lon="9.1640680">
        <ele>25.4</ele>
        <time>2022-06-08T09:51:20Z</time>
      </trkpt>
      <trkpt lat="47.7640250" lon="9.1642830">
        <ele>25.8</ele>
        <time>2022-06-08T09:51:24Z</time>
      </trkpt>
      <trkpt lat="47.7639400" lon="9.1644800">
        <ele>25.4</ele>
        <time>2022-06-08T09:51:28Z</time>
      </trkpt>
      <trkpt lat="47.7638660" lon="9.1646980">
        <ele>24.8</ele>
        <time>2022-06-08T09:51:32Z</time>
      </trkpt>
      <trkpt lat="47.7637680" lon="9.1649110">
        <ele>25.6</ele>
        <time>2022-06-08T09:51:36Z</time>
      </trkpt>
      <trkpt lat="47.7636850" lon="9.1651330">
        <ele>25.4</ele>
        <time>2022-06-08T09:51:40Z</time>
      </trkpt>
      <trkpt lat="47.7636100" lon="9.1653110">
        <ele>25.2</ele>
        <time>2022-06-08T09:51:44Z</time>
      </trkpt>
      <trkpt lat="47.7635280" lon="9.1654780">
        <ele>25.0</ele>
        <time>2022-06-08T09:51:48Z</time>
      </trkpt>
      <trkpt lat="47.7634580" lon="9.1656380">
        <ele>24.8</ele>
        <time>2022-06-08T09:51:52Z</time>
      </trkpt>
      <trkpt lat="47.7633800" lon="9.1658310">
        <ele>25.0</ele>
        <time>2022-06-08T09:51:56Z</time>
      </trkpt>
      <trkpt lat="47.7632960" lon="9.1660250">
        <ele>25.2</ele>
        <time>2022-06-08T09:52:00Z</time>
      </trkpt>
      <trkpt lat="47.7632160" lon="9.1662460">
        <ele>25.2</ele>
        <time>2022-06-08T09:52:04Z</time>
      </trkpt>
      <trkpt lat="47.7631180" lon="9.1664530">
        <ele>24.8</ele>
        <time>2022-06-08T09:52:08Z</time>
      </trkpt>
      <trkpt lat="47.7630310" lon="9.1666510">
        <ele>24.6</ele>
        <time>2022-06-08T09:52:12Z</time>
      </trkpt>
      <trkpt lat="47.7629310" lon="9.1668530">
        <ele>24.4</ele>
        <time>2022-06-08T09:52:16Z</time>
      </trkpt>
      <trkpt lat="47.7628400" lon="9.1670480">
        <ele>24.8</ele>
        <time>2022-06-08T09:52:20Z</time>
      </trkpt>
      <trkpt lat="47.7627630" lon="9.1672280">
        <ele>24.8</ele>
        <time>2022-06-08T09:52:24Z</time>
      </trkpt>
      <trkpt lat="47.7626850" lon="9.1674150">
        <ele>24.8</ele>
        <time>2022-06-08T09:52:28Z</time>
      </trkpt>
      <trkpt lat="47.7625910" lon="9.1675980">
        <ele>24.8</ele>
        <time>2022-06-08T09:52:32Z</time>
      </trkpt>
      <trkpt lat="47.7625030" lon="9.1678010">
        <ele>24.8</ele>
        <time>2022-06-08T09:52:36Z</time>
      </trkpt>
      <trkpt lat="47.7624050" lon="9.1679930">
        <ele>24.8</ele>
        <time>2022-06-08T09:52:40Z</time>
      </trkpt>
      <trkpt lat="47.7623250" lon="9.1681780">
        <ele>24.2</ele>
        <time>2022-06-08T09:52:44Z</time>
      </trkpt>
      <trkpt lat="47.7622310" lon="9.1683550">
        <ele>24.8</ele>
        <time>2022-06-08T09:52:48Z</time>
      </trkpt>
      <trkpt lat="47.7621900" lon="9.1685350">
        <ele>25.2</ele>
        <time>2022-06-08T09:52:52Z</time>
      </trkpt>
      <trkpt lat="47.7622780" lon="9.1687230">
        <ele>25.8</ele>
        <time>2022-06-08T09:52:56Z</time>
      </trkpt>
      <trkpt lat="47.7623810" lon="9.1688860">
        <ele>26.2</ele>
        <time>2022-06-08T09:53:00Z</time>
      </trkpt>
      <trkpt lat="47.7624630" lon="9.1690500">
        <ele>26.6</ele>
        <time>2022-06-08T09:53:04Z</time>
      </trkpt>
      <trkpt lat="47.7625550" lon="9.1691910">
        <ele>28.4</ele>
        <time>2022-06-08T09:53:08Z</time>
      </trkpt>
      <trkpt lat="47.7626080" lon="9.1693200">
        <ele>29.2</ele>
        <time>2022-06-08T09:53:12Z</time>
      </trkpt>
      <trkpt lat="47.7626080" lon="9.1694560">
        <ele>30.4</ele>
        <time>2022-06-08T09:53:16Z</time>
      </trkpt>
      <trkpt lat="47.7625760" lon="9.1696000">
        <ele>30.4</ele>
        <time>2022-06-08T09:53:20Z</time>
      </trkpt>
      <trkpt lat="47.7625180" lon="9.1697610">
        <ele>29.8</ele>
        <time>2022-06-08T09:53:24Z</time>
      </trkpt>
      <trkpt lat="47.7624280" lon="9.1699360">
        <ele>30.0</ele>
        <time>2022-06-08T09:53:28Z</time>
      </trkpt>
      <trkpt lat="47.7623200" lon="9.1701080">
        <ele>29.2</ele>
        <time>2022-06-08T09:53:32Z</time>
      </trkpt>
      <trkpt lat="47.7622230" lon="9.1702830">
        <ele>29.4</ele>
        <time>2022-06-08T09:53:36Z</time>
      </trkpt>
      <trkpt lat="47.7621180" lon="9.1704680">
        <ele>29.2</ele>
        <time>2022-06-08T09:53:40Z</time>
      </trkpt>
      <trkpt lat="47.7619980" lon="9.1706500">
        <ele>29.0</ele>
        <time>2022-06-08T09:53:44Z</time>
      </trkpt>
      <trkpt lat="47.7618430" lon="9.1708630">
        <ele>28.2</ele>
        <time>2022-06-08T09:53:48Z</time>
      </trkpt>
      <trkpt lat="47.7616950" lon="9.1710850">
        <ele>27.2</ele>
        <time>2022-06-08T09:53:52Z</time>
      </trkpt>
      <trkpt lat="47.7615500" lon="9.1712980">
        <ele>27.2</ele>
        <time>2022-06-08T09:53:56Z</time>
      </trkpt>
      <trkpt lat="47.7614030" lon="9.1715100">
        <ele>26.8</ele>
        <time>2022-06-08T09:54:00Z</time>
      </trkpt>
      <trkpt lat="47.7612730" lon="9.1716950">
        <ele>26.2</ele>
        <time>2022-06-08T09:54:04Z</time>
      </trkpt>
      <trkpt lat="47.7611580" lon="9.1718860">
        <ele>27.4</ele>
        <time>2022-06-08T09:54:08Z</time>
      </trkpt>
      <trkpt lat="47.7610460" lon="9.1720980">
        <ele>26.8</ele>
        <time>2022-06-08T09:54:12Z</time>
      </trkpt>
      <trkpt lat="47.7609360" lon="9.1722960">
        <ele>26.8</ele>
        <time>2022-06-08T09:54:16Z</time>
      </trkpt>
      <trkpt lat="47.7608200" lon="9.1725050">
        <ele>26.8</ele>
        <time>2022-06-08T09:54:20Z</time>
      </trkpt>
      <trkpt lat="47.7607150" lon="9.1727130">
        <ele>26.6</ele>
        <time>2022-06-08T09:54:24Z</time>
      </trkpt>
      <trkpt lat="47.7606100" lon="9.1729350">
        <ele>26.6</ele>
        <time>2022-06-08T09:54:28Z</time>
      </trkpt>
      <trkpt lat="47.7604960" lon="9.1731680">
        <ele>26.4</ele>
        <time>2022-06-08T09:54:32Z</time>
      </trkpt>
      <trkpt lat="47.7604010" lon="9.1734080">
        <ele>26.6</ele>
        <time>2022-06-08T09:54:36Z</time>
      </trkpt>
      <trkpt lat="47.7603150" lon="9.1736380">
        <ele>26.4</ele>
        <time>2022-06-08T09:54:40Z</time>
      </trkpt>
      <trkpt lat="47.7602180" lon="9.1738800">
        <ele>25.6</ele>
        <time>2022-06-08T09:54:44Z</time>
      </trkpt>
      <trkpt lat="47.7601360" lon="9.1741330">
        <ele>26.2</ele>
        <time>2022-06-08T09:54:48Z</time>
      </trkpt>
      <trkpt lat="47.7600780" lon="9.1743900">
        <ele>27.6</ele>
        <time>2022-06-08T09:54:52Z</time>
      </trkpt>
      <trkpt lat="47.7600380" lon="9.1746030">
        <ele>28.2</ele>
        <time>2022-06-08T09:54:56Z</time>
      </trkpt>
      <trkpt lat="47.7599380" lon="9.1748180">
        <ele>27.8</ele>
        <time>2022-06-08T09:55:00Z</time>
      </trkpt>
      <trkpt lat="47.7598300" lon="9.1750580">
        <ele>27.2</ele>
        <time>2022-06-08T09:55:04Z</time>
      </trkpt>
      <trkpt lat="47.7597700" lon="9.1753280">
        <ele>27.4</ele>
        <time>2022-06-08T09:55:08Z</time>
      </trkpt>
      <trkpt lat="47.7597280" lon="9.1755780">
        <ele>28.0</ele>
        <time>2022-06-08T09:55:12Z</time>
      </trkpt>
      <trkpt lat="47.7596710" lon="9.1758130">
        <ele>28.2</ele>
        <time>2022-06-08T09:55:16Z</time>
      </trkpt>
      <trkpt lat="47.7596160" lon="9.1760330">
        <ele>28.8</ele>
        <time>2022-06-08T09:55:20Z</time>
      </trkpt>
      <trkpt lat="47.7595600" lon="9.1762350">
        <ele>28.8</ele>
        <time>2022-06-08T09:55:24Z</time>
      </trkpt>
      <trkpt lat="47.7594900" lon="9.1765030">
        <ele>28.2</ele>
        <time>2022-06-08T09:55:28Z</time>
      </trkpt>
      <trkpt lat="47.7594160" lon="9.1767680">
        <ele>29.0</ele>
        <time>2022-06-08T09:55:32Z</time>
      </trkpt>
      <trkpt lat="47.7593580" lon="9.1770060">
        <ele>29.2</ele>
        <time>2022-06-08T09:55:36Z</time>
      </trkpt>
      <trkpt lat="47.7592810" lon="9.1772460">
        <ele>28.8</ele>
        <time>2022-06-08T09:55:40Z</time>
      </trkpt>
      <trkpt lat="47.7591980" lon="9.1775030">
        <ele>28.4</ele>
        <time>2022-06-08T09:55:44Z</time>
      </trkpt>
      <trkpt lat="47.7590980" lon="9.1778150">
        <ele>25.6</ele>
        <time>2022-06-08T09:55:48Z</time>
      </trkpt>
      <trkpt lat="47.7590050" lon="9.1780960">
        <ele>26.8</ele>
        <time>2022-06-08T09:55:52Z</time>
      </trkpt>
      <trkpt lat="47.7589300" lon="9.1783580">
        <ele>27.2</ele>
        <time>2022-06-08T09:55:56Z</time>
      </trkpt>
      <trkpt lat="47.7588580" lon="9.1786160">
        <ele>27.0</ele>
        <time>2022-06-08T09:56:00Z</time>
      </trkpt>
      <trkpt lat="47.7587950" lon="9.1788710">
        <ele>26.8</ele>
        <time>2022-06-08T09:56:04Z</time>
      </trkpt>
      <trkpt lat="47.7587280" lon="9.1791380">
        <ele>26.8</ele>
        <time>2022-06-08T09:56:08Z</time>
      </trkpt>
      <trkpt lat="47.7586580" lon="9.1793960">
        <ele>27.0</ele>
        <time>2022-06-08T09:56:12Z</time>
      </trkpt>
      <trkpt lat="47.7586010" lon="9.1796230">
        <ele>27.0</ele>
        <time>2022-06-08T09:56:16Z</time>
      </trkpt>
      <trkpt lat="47.7585380" lon="9.1798900">
        <ele>26.8</ele>
        <time>2022-06-08T09:56:20Z</time>
      </trkpt>
      <trkpt lat="47.7584700" lon="9.1801250">
        <ele>26.8</ele>
        <time>2022-06-08T09:56:24Z</time>
      </trkpt>
      <trkpt lat="47.7583860" lon="9.1804080">
        <ele>27.0</ele>
        <time>2022-06-08T09:56:28Z</time>
      </trkpt>
      <trkpt lat="47.7583250" lon="9.1806660">
        <ele>26.8</ele>
        <time>2022-06-08T09:56:32Z</time>
      </trkpt>
      <trkpt lat="47.7582780" lon="9.1808380">
        <ele>27.4</ele>
        <time>2022-06-08T09:56:36Z</time>
      </trkpt>
      <trkpt lat="47.7582330" lon="9.1809780">
        <ele>27.4</ele>
        <time>2022-06-08T09:56:40Z</time>
      </trkpt>
      <trkpt lat="47.7581800" lon="9.1811410">
        <ele>27.8</ele>
        <time>2022-06-08T09:56:44Z</time>
      </trkpt>
      <trkpt lat="47.7581100" lon="9.1813130">
        <ele>28.2</ele>
        <time>2022-06-08T09:56:48Z</time>
      </trkpt>
      <trkpt lat="47.7580650" lon="9.1815630">
        <ele>27.2</ele>
        <time>2022-06-08T09:56:52Z</time>
      </trkpt>
      <trkpt lat="47.7580030" lon="9.1818550">
        <ele>26.4</ele>
        <time>2022-06-08T09:56:56Z</time>
      </trkpt>
      <trkpt lat="47.7579230" lon="9.1820980">
        <ele>26.6</ele>
        <time>2022-06-08T09:57:00Z</time>
      </trkpt>
      <trkpt lat="47.7578630" lon="9.1822880">
        <ele>27.0</ele>
        <time>2022-06-08T09:57:04Z</time>
      </trkpt>
      <trkpt lat="47.7578050" lon="9.1825060">
        <ele>27.2</ele>
        <time>2022-06-08T09:57:08Z</time>
      </trkpt>
      <trkpt lat="47.7577100" lon="9.1827350">
        <ele>27.2</ele>
        <time>2022-06-08T09:57:12Z</time>
      </trkpt>
      <trkpt lat="47.7576280" lon="9.1829480">
        <ele>27.4</ele>
        <time>2022-06-08T09:57:16Z</time>
      </trkpt>
      <trkpt lat="47.7575530" lon="9.1831710">
        <ele>28.0</ele>
        <time>2022-06-08T09:57:20Z</time>
      </trkpt>
      <trkpt lat="47.7574160" lon="9.1833960">
        <ele>27.4</ele>
        <time>2022-06-08T09:57:24Z</time>
      </trkpt>
      <trkpt lat="47.7572850" lon="9.1835850">
        <ele>27.4</ele>
        <time>2022-06-08T09:57:28Z</time>
      </trkpt>
      <trkpt lat="47.7571680" lon="9.1837600">
        <ele>27.6</ele>
        <time>2022-06-08T09:57:32Z</time>
      </trkpt>
      <trkpt lat="47.7570610" lon="9.1839210">
        <ele>28.2</ele>
        <time>2022-06-08T09:57:36Z</time>
      </trkpt>
      <trkpt lat="47.7569550" lon="9.1841050">
        <ele>28.2</ele>
        <time>2022-06-08T09:57:40Z</time>
      </trkpt>
      <trkpt lat="47.7568380" lon="9.1842860">
        <ele>28.0</ele>
        <time>2022-06-08T09:57:44Z</time>
      </trkpt>
      <trkpt lat="47.7567060" lon="9.1844700">
        <ele>27.4</ele>
        <time>2022-06-08T09:57:48Z</time>
      </trkpt>
      <trkpt lat="47.7565810" lon="9.1846900">
        <ele>27.0</ele>
        <time>2022-06-08T09:57:52Z</time>
      </trkpt>
      <trkpt lat="47.7564460" lon="9.1848860">
        <ele>26.8</ele>
        <time>2022-06-08T09:57:56Z</time>
      </trkpt>
      <trkpt lat="47.7563130" lon="9.1850830">
        <ele>26.8</ele>
        <time>2022-06-08T09:58:00Z</time>
      </trkpt>
      <trkpt lat="47.7561850" lon="9.1852980">
        <ele>26.6</ele>
        <time>2022-06-08T09:58:04Z</time>
      </trkpt>
      <trkpt lat="47.7560560" lon="9.1855200">
        <ele>26.8</ele>
        <time>2022-06-08T09:58:08Z</time>
      </trkpt>
      <trkpt lat="47.7559300" lon="9.1857350">
        <ele>26.2</ele>
        <time>2022-06-08T09:58:12Z</time>
      </trkpt>
      <trkpt lat="47.7558110" lon="9.1859480">
        <ele>26.4</ele>
        <time>2022-06-08T09:58:16Z</time>
      </trkpt>
      <trkpt lat="47.7556960" lon="9.1861100">
        <ele>26.6</ele>
        <time>2022-06-08T09:58:20Z</time>
      </trkpt>
      <trkpt lat="47.7555930" lon="9.1862550">
        <ele>26.6</ele>
        <time>2022-06-08T09:58:24Z</time>
      </trkpt>
      <trkpt lat="47.7554380" lon="9.1864010">
        <ele>25.8</ele>
        <time>2022-06-08T09:58:28Z</time>
      </trkpt>
      <trkpt lat="47.7552460" lon="9.1865360">
        <ele>26.8</ele>
        <time>2022-06-08T09:58:32Z</time>
      </trkpt>
      <trkpt lat="47.7550550" lon="9.1866660">
        <ele>26.2</ele>
        <time>2022-06-08T09:58:36Z</time>
      </trkpt>
      <trkpt lat="47.7548710" lon="9.1868060">
        <ele>27.0</ele>
        <time>2022-06-08T09:58:40Z</time>
      </trkpt>
      <trkpt lat="47.7547000" lon="9.1869410">
        <ele>27.0</ele>
        <time>2022-06-08T09:58:44Z</time>
      </trkpt>
      <trkpt lat="47.7545110" lon="9.1870660">
        <ele>25.8</ele>
        <time>2022-06-08T09:58:48Z</time>
      </trkpt>
      <trkpt lat="47.7543700" lon="9.1872560">
        <ele>26.0</ele>
        <time>2022-06-08T09:58:52Z</time>
      </trkpt>
      <trkpt lat="47.7542310" lon="9.1874280">
        <ele>25.8</ele>
        <time>2022-06-08T09:58:56Z</time>
      </trkpt>
      <trkpt lat="47.7541010" lon="9.1876080">
        <ele>25.8</ele>
        <time>2022-06-08T09:59:00Z</time>
      </trkpt>
      <trkpt lat="47.7539750" lon="9.1878150">
        <ele>25.8</ele>
        <time>2022-06-08T09:59:04Z</time>
      </trkpt>
      <trkpt lat="47.7538580" lon="9.1880350">
        <ele>25.8</ele>
        <time>2022-06-08T09:59:08Z</time>
      </trkpt>
      <trkpt lat="47.7537580" lon="9.1882530">
        <ele>26.0</ele>
        <time>2022-06-08T09:59:12Z</time>
      </trkpt>
      <trkpt lat="47.7536860" lon="9.1884850">
        <ele>26.2</ele>
        <time>2022-06-08T09:59:16Z</time>
      </trkpt>
      <trkpt lat="47.7536330" lon="9.1887130">
        <ele>26.8</ele>
        <time>2022-06-08T09:59:20Z</time>
      </trkpt>
      <trkpt lat="47.7535700" lon="9.1889210">
        <ele>26.4</ele>
        <time>2022-06-08T09:59:24Z</time>
      </trkpt>
      <trkpt lat="47.7535210" lon="9.1891460">
        <ele>26.2</ele>
        <time>2022-06-08T09:59:28Z</time>
      </trkpt>
      <trkpt lat="47.7534750" lon="9.1893830">
        <ele>26.6</ele>
        <time>2022-06-08T09:59:32Z</time>
      </trkpt>
      <trkpt lat="47.7534510" lon="9.1895760">
        <ele>26.8</ele>
        <time>2022-06-08T09:59:36Z</time>
      </trkpt>
      <trkpt lat="47.7533900" lon="9.1897650">
        <ele>26.8</ele>
        <time>2022-06-08T09:59:40Z</time>
      </trkpt>
      <trkpt lat="47.7533130" lon="9.1899650">
        <ele>26.4</ele>
        <time>2022-06-08T09:59:44Z</time>
      </trkpt>
      <trkpt lat="47.7532400" lon="9.1901710">
        <ele>26.6</ele>
        <time>2022-06-08T09:59:48Z</time>
      </trkpt>
      <trkpt lat="47.7531810" lon="9.1903810">
        <ele>26.8</ele>
        <time>2022-06-08T09:59:52Z</time>
      </trkpt>
      <trkpt lat="47.7531180" lon="9.1906050">
        <ele>27.0</ele>
        <time>2022-06-08T09:59:56Z</time>
      </trkpt>
      <trkpt lat="47.7530710" lon="9.1908460">
        <ele>27.4</ele>
        <time>2022-06-08T10:00:00Z</time>
      </trkpt>
      <trkpt lat="47.7530180" lon="9.1911050">
        <ele>27.6</ele>
        <time>2022-06-08T10:00:04Z</time>
      </trkpt>
      <trkpt lat="47.7529850" lon="9.1913600">
        <ele>28.2</ele>
        <time>2022-06-08T10:00:08Z</time>
      </trkpt>
      <trkpt lat="47.7529730" lon="9.1916210">
        <ele>28.0</ele>
        <time>2022-06-08T10:00:12Z</time>
      </trkpt>
      <trkpt lat="47.7529450" lon="9.1918700">
        <ele>29.0</ele>
        <time>2022-06-08T10:00:16Z</time>
      </trkpt>
      <trkpt lat="47.7528950" lon="9.1921010">
        <ele>28.2</ele>
        <time>2022-06-08T10:00:20Z</time>
      </trkpt>
      <trkpt lat="47.7528350" lon="9.1923280">
        <ele>28.2</ele>
        <time>2022-06-08T10:00:24Z</time>
      </trkpt>
      <trkpt lat="47.7527810" lon="9.1925680">
        <ele>27.4</ele>
        <time>2022-06-08T10:00:28Z</time>
      </trkpt>
      <trkpt lat="47.7527160" lon="9.1928250">
        <ele>26.6</ele>
        <time>2022-06-08T10:00:32Z</time>
      </trkpt>
      <trkpt lat="47.7526730" lon="9.1931000">
        <ele>27.4</ele>
        <time>2022-06-08T10:00:36Z</time>
      </trkpt>
      <trkpt lat="47.7526410" lon="9.1933680">
        <ele>27.6</ele>
        <time>2022-06-08T10:00:40Z</time>
      </trkpt>
      <trkpt lat="47.7526560" lon="9.1935810">
        <ele>28.4</ele>
        <time>2022-06-08T10:00:44Z</time>
      </trkpt>
      <trkpt lat="47.7525680" lon="9.1937000">
        <ele>27.4</ele>
        <time>2022-06-08T10:00:48Z</time>
      </trkpt>
      <trkpt lat="47.7523660" lon="9.1935850">
        <ele>27.0</ele>
        <time>2022-06-08T10:00:52Z</time>
      </trkpt>
      <trkpt lat="47.7521710" lon="9.1934680">
        <ele>26.2</ele>
        <time>2022-06-08T10:00:56Z</time>
      </trkpt>
      <trkpt lat="47.7519850" lon="9.1933480">
        <ele>26.2</ele>
        <time>2022-06-08T10:01:00Z</time>
      </trkpt>
      <trkpt lat="47.7518160" lon="9.1932400">
        <ele>26.8</ele>
        <time>2022-06-08T10:01:04Z</time>
      </trkpt>
      <trkpt lat="47.7516600" lon="9.1931650">
        <ele>26.2</ele>
        <time>2022-06-08T10:01:08Z</time>
      </trkpt>
      <trkpt lat="47.7515030" lon="9.1932110">
        <ele>26.2</ele>
        <time>2022-06-08T10:01:12Z</time>
      </trkpt>
      <trkpt lat="47.7514130" lon="9.1934300">
        <ele>25.8</ele>
        <time>2022-06-08T10:01:16Z</time>
      </trkpt>
      <trkpt lat="47.7514530" lon="9.1937160">
        <ele>26.2</ele>
        <time>2022-06-08T10:01:20Z</time>
      </trkpt>
      <trkpt lat="47.7514750" lon="9.1940130">
        <ele>25.0</ele>
        <time>2022-06-08T10:01:24Z</time>
      </trkpt>
      <trkpt lat="47.7514560" lon="9.1942980">
        <ele>25.8</ele>
        <time>2022-06-08T10:01:28Z</time>
      </trkpt>
      <trkpt lat="47.7514250" lon="9.1945480">
        <ele>25.4</ele>
        <time>2022-06-08T10:01:32Z</time>
      </trkpt>
      <trkpt lat="47.7513800" lon="9.1948230">
        <ele>25.6</ele>
        <time>2022-06-08T10:01:36Z</time>
      </trkpt>
      <trkpt lat="47.7513760" lon="9.1951050">
        <ele>25.8</ele>
        <time>2022-06-08T10:01:40Z</time>
      </trkpt>
      <trkpt lat="47.7513530" lon="9.1953980">
        <ele>26.2</ele>
        <time>2022-06-08T10:01:44Z</time>
      </trkpt>
      <trkpt lat="47.7513400" lon="9.1956600">
        <ele>26.4</ele>
        <time>2022-06-08T10:01:48Z</time>
      </trkpt>
      <trkpt lat="47.7513100" lon="9.1958860">
        <ele>26.6</ele>
        <time>2022-06-08T10:01:52Z</time>
      </trkpt>
      <trkpt lat="47.7512600" lon="9.1961310">
        <ele>26.2</ele>
        <time>2022-06-08T10:01:56Z</time>
      </trkpt>
      <trkpt lat="47.7512050" lon="9.1963560">
        <ele>26.2</ele>
        <time>2022-06-08T10:02:00Z</time>
      </trkpt>
      <trkpt lat="47.7511860" lon="9.1965550">
        <ele>26.6</ele>
        <time>2022-06-08T10:02:04Z</time>
      </trkpt>
      <trkpt lat="47.7512710" lon="9.1966730">
        <ele>27.0</ele>
        <time>2022-06-08T10:02:08Z</time>
      </trkpt>
      <trkpt lat="47.7513900" lon="9.1968030">
        <ele>27.4</ele>
        <time>2022-06-08T10:02:12Z</time>
      </trkpt>
      <trkpt lat="47.7514950" lon="9.1969450">
        <ele>27.8</ele>
        <time>2022-06-08T10:02:16Z</time>
      </trkpt>
      <trkpt lat="47.7515500" lon="9.1970750">
        <ele>28.4</ele>
        <time>2022-06-08T10:02:20Z</time>
      </trkpt>
      <trkpt lat="47.7515100" lon="9.1972000">
        <ele>28.6</ele>
        <time>2022-06-08T10:02:24Z</time>
      </trkpt>
      <trkpt lat="47.7514480" lon="9.1973500">
        <ele>28.4</ele>
        <time>2022-06-08T10:02:28Z</time>
      </trkpt>
      <trkpt lat="47.7514480" lon="9.1973500">
        <ele>28.4</ele>
        <time>2022-06-08T10:02:32Z</time>
      </trkpt>
      <trkpt lat="47.7514200" lon="9.1974180">
        <ele>28.6</ele>
        <time>2022-06-08T10:02:36Z</time>
      </trkpt>
      <trkpt lat="47.7513900" lon="9.1974780">
        <ele>28.4</ele>
        <time>2022-06-08T10:02:40Z</time>
      </trkpt>
      <trkpt lat="47.7513850" lon="9.1975210">
        <ele>28.6</ele>
        <time>2022-06-08T10:02:44Z</time>
      </trkpt>
      <trkpt lat="47.7513480" lon="9.1976300">
        <ele>28.8</ele>
        <time>2022-06-08T10:02:48Z</time>
      </trkpt>
      <trkpt lat="47.7512960" lon="9.1977800">
        <ele>28.4</ele>
        <time>2022-06-08T10:02:52Z</time>
      </trkpt>
      <trkpt lat="47.7512350" lon="9.1979480">
        <ele>28.2</ele>
        <time>2022-06-08T10:02:56Z</time>
      </trkpt>
      <trkpt lat="47.7511610" lon="9.1981250">
        <ele>28.2</ele>
        <time>2022-06-08T10:03:00Z</time>
      </trkpt>
      <trkpt lat="47.7510930" lon="9.1983030">
        <ele>28.6</ele>
        <time>2022-06-08T10:03:04Z</time>
      </trkpt>
      <trkpt lat="47.7510310" lon="9.1985510">
        <ele>29.4</ele>
        <time>2022-06-08T10:03:08Z</time>
      </trkpt>
      <trkpt lat="47.7509710" lon="9.1987780">
        <ele>29.4</ele>
        <time>2022-06-08T10:03:12Z</time>
      </trkpt>
      <trkpt lat="47.7508930" lon="9.1990180">
        <ele>29.4</ele>
        <time>2022-06-08T10:03:16Z</time>
      </trkpt>
      <trkpt lat="47.7508830" lon="9.1992510">
        <ele>29.6</ele>
        <time>2022-06-08T10:03:20Z</time>
      </trkpt>
      <trkpt lat="47.7508080" lon="9.1993480">
        <ele>30.0</ele>
        <time>2022-06-08T10:03:24Z</time>
      </trkpt>
      <trkpt lat="47.7507280" lon="9.1994660">
        <ele>29.6</ele>
        <time>2022-06-08T10:03:28Z</time>
      </trkpt>
      <trkpt lat="47.7506530" lon="9.1996900">
        <ele>29.6</ele>
        <time>2022-06-08T10:03:32Z</time>
      </trkpt>
      <trkpt lat="47.7506180" lon="9.1999180">
        <ele>30.4</ele>
        <time>2022-06-08T10:03:36Z</time>
      </trkpt>
      <trkpt lat="47.7505750" lon="9.2001380">
        <ele>30.8</ele>
        <time>2022-06-08T10:03:40Z</time>
      </trkpt>
      <trkpt lat="47.7505310" lon="9.2003310">
        <ele>30.8</ele>
        <time>2022-06-08T10:03:44Z</time>
      </trkpt>
      <trkpt lat="47.7504780" lon="9.2005060">
        <ele>30.8</ele>
        <time>2022-06-08T10:03:48Z</time>
      </trkpt>
      <trkpt lat="47.7504150" lon="9.2006860">
        <ele>31.0</ele>
        <time>2022-06-08T10:03:52Z</time>
      </trkpt>
      <trkpt lat="47.7503410" lon="9.2008710">
        <ele>31.0</ele>
        <time>2022-06-08T10:03:56Z</time>
      </trkpt>
      <trkpt lat="47.7502480" lon="9.2010550">
        <ele>31.6</ele>
        <time>2022-06-08T10:04:00Z</time>
      </trkpt>
      <trkpt lat="47.7501530" lon="9.2012150">
        <ele>32.2</ele>
        <time>2022-06-08T10:04:04Z</time>
      </trkpt>
      <trkpt lat="47.7500650" lon="9.2013900">
        <ele>31.6</ele>
        <time>2022-06-08T10:04:08Z</time>
      </trkpt>
      <trkpt lat="47.7499700" lon="9.2015660">
        <ele>32.2</ele>
        <time>2022-06-08T10:04:12Z</time>
      </trkpt>
      <trkpt lat="47.7498850" lon="9.2017480">
        <ele>32.0</ele>
        <time>2022-06-08T10:04:16Z</time>
      </trkpt>
      <trkpt lat="47.7498050" lon="9.2019080">
        <ele>33.0</ele>
        <time>2022-06-08T10:04:20Z</time>
      </trkpt>
      <trkpt lat="47.7497110" lon="9.2020330">
        <ele>32.8</ele>
        <time>2022-06-08T10:04:24Z</time>
      </trkpt>
      <trkpt lat="47.7496310" lon="9.2021800">
        <ele>33.2</ele>
        <time>2022-06-08T10:04:28Z</time>
      </trkpt>
      <trkpt lat="47.7495400" lon="9.2023400">
        <ele>32.8</ele>
        <time>2022-06-08T10:04:32Z</time>
      </trkpt>
      <trkpt lat="47.7494530" lon="9.2025250">
        <ele>32.6</ele>
        <time>2022-06-08T10:04:36Z</time>
      </trkpt>
      <trkpt lat="47.7493750" lon="9.2027310">
        <ele>33.0</ele>
        <time>2022-06-08T10:04:40Z</time>
      </trkpt>
      <trkpt lat="47.7493030" lon="9.2029600">
        <ele>32.2</ele>
        <time>2022-06-08T10:04:44Z</time>
      </trkpt>
      <trkpt lat="47.7492360" lon="9.2032010">
        <ele>32.0</ele>
        <time>2022-06-08T10:04:48Z</time>
      </trkpt>
      <trkpt lat="47.7491650" lon="9.2034410">
        <ele>32.4</ele>
        <time>2022-06-08T10:04:52Z</time>
      </trkpt>
      <trkpt lat="47.7490860" lon="9.2036910">
        <ele>32.4</ele>
        <time>2022-06-08T10:04:56Z</time>
      </trkpt>
      <trkpt lat="47.7490130" lon="9.2039500">
        <ele>32.4</ele>
        <time>2022-06-08T10:05:00Z</time>
      </trkpt>
      <trkpt lat="47.7489460" lon="9.2042030">
        <ele>32.4</ele>
        <time>2022-06-08T10:05:04Z</time>
      </trkpt>
      <trkpt lat="47.7488850" lon="9.2044460">
        <ele>32.0</ele>
        <time>2022-06-08T10:05:08Z</time>
      </trkpt>
      <trkpt lat="47.7488360" lon="9.2047010">
        <ele>32.2</ele>
        <time>2022-06-08T10:05:12Z</time>
      </trkpt>
      <trkpt lat="47.7488010" lon="9.2049610">
        <ele>32.2</ele>
        <time>2022-06-08T10:05:16Z</time>
      </trkpt>
      <trkpt lat="47.7487600" lon="9.2052330">
        <ele>31.4</ele>
        <time>2022-06-08T10:05:20Z</time>
      </trkpt>
      <trkpt lat="47.7487250" lon="9.2054960">
        <ele>31.8</ele>
        <time>2022-06-08T10:05:24Z</time>
      </trkpt>
      <trkpt lat="47.7486960" lon="9.2057780">
        <ele>32.2</ele>
        <time>2022-06-08T10:05:28Z</time>
      </trkpt>
      <trkpt lat="47.7486650" lon="9.2060600">
        <ele>32.8</ele>
        <time>2022-06-08T10:05:32Z</time>
      </trkpt>
      <trkpt lat="47.7486300" lon="9.2063400">
        <ele>32.2</ele>
        <time>2022-06-08T10:05:36Z</time>
      </trkpt>
      <trkpt lat="47.7485810" lon="9.2066210">
        <ele>32.0</ele>
        <time>2022-06-08T10:05:40Z</time>
      </trkpt>
      <trkpt lat="47.7485400" lon="9.2069130">
        <ele>31.6</ele>
        <time>2022-06-08T10:05:44Z</time>
      </trkpt>
      <trkpt lat="47.7485050" lon="9.2072000">
        <ele>31.2</ele>
        <time>2022-06-08T10:05:48Z</time>
      </trkpt>
      <trkpt lat="47.7484680" lon="9.2074750">
        <ele>32.2</ele>
        <time>2022-06-08T10:05:52Z</time>
      </trkpt>
      <trkpt lat="47.7484110" lon="9.2077450">
        <ele>32.4</ele>
        <time>2022-06-08T10:05:56Z</time>
      </trkpt>
      <trkpt lat="47.7483430" lon="9.2080250">
        <ele>32.0</ele>
        <time>2022-06-08T10:06:00Z</time>
      </trkpt>
      <trkpt lat="47.7482300" lon="9.2083200">
        <ele>30.4</ele>
        <time>2022-06-08T10:06:04Z</time>
      </trkpt>
      <trkpt lat="47.7481160" lon="9.2085980">
        <ele>31.2</ele>
        <time>2022-06-08T10:06:08Z</time>
      </trkpt>
      <trkpt lat="47.7480400" lon="9.2088530">
        <ele>31.4</ele>
        <time>2022-06-08T10:06:12Z</time>
      </trkpt>
      <trkpt lat="47.7479680" lon="9.2091080">
        <ele>31.6</ele>
        <time>2022-06-08T10:06:16Z</time>
      </trkpt>
      <trkpt lat="47.7478800" lon="9.2093700">
        <ele>31.4</ele>
        <time>2022-06-08T10:06:20Z</time>
      </trkpt>
      <trkpt lat="47.7477950" lon="9.2096380">
        <ele>31.0</ele>
        <time>2022-06-08T10:06:24Z</time>
      </trkpt>
      <trkpt lat="47.7477030" lon="9.2099010">
        <ele>30.6</ele>
        <time>2022-06-08T10:06:28Z</time>
      </trkpt>
      <trkpt lat="47.7475980" lon="9.2101900">
        <ele>30.4</ele>
        <time>2022-06-08T10:06:32Z</time>
      </trkpt>
      <trkpt lat="47.7475030" lon="9.2104750">
        <ele>30.4</ele>
        <time>2022-06-08T10:06:36Z</time>
      </trkpt>
      <trkpt lat="47.7474130" lon="9.2107610">
        <ele>30.2</ele>
        <time>2022-06-08T10:06:40Z</time>
      </trkpt>
      <trkpt lat="47.7473160" lon="9.2110350">
        <ele>30.6</ele>
        <time>2022-06-08T10:06:44Z</time>
      </trkpt>
      <trkpt lat="47.7472230" lon="9.2113150">
        <ele>30.0</ele>
        <time>2022-06-08T10:06:48Z</time>
      </trkpt>
      <trkpt lat="47.7471330" lon="9.2115950">
        <ele>29.6</ele>
        <time>2022-06-08T10:06:52Z</time>
      </trkpt>
      <trkpt lat="47.7470430" lon="9.2118610">
        <ele>30.2</ele>
        <time>2022-06-08T10:06:56Z</time>
      </trkpt>
      <trkpt lat="47.7469510" lon="9.2121400">
        <ele>29.6</ele>
        <time>2022-06-08T10:07:00Z</time>
      </trkpt>
      <trkpt lat="47.7468560" lon="9.2124160">
        <ele>29.8</ele>
        <time>2022-06-08T10:07:04Z</time>
      </trkpt>
      <trkpt lat="47.7467650" lon="9.2127000">
        <ele>30.2</ele>
        <time>2022-06-08T10:07:08Z</time>
      </trkpt>
      <trkpt lat="47.7466680" lon="9.2129860">
        <ele>29.4</ele>
        <time>2022-06-08T10:07:12Z</time>
      </trkpt>
      <trkpt lat="47.7465750" lon="9.2132680">
        <ele>29.6</ele>
        <time>2022-06-08T10:07:16Z</time>
      </trkpt>
      <trkpt lat="47.7464860" lon="9.2135350">
        <ele>29.6</ele>
        <time>2022-06-08T10:07:20Z</time>
      </trkpt>
      <trkpt lat="47.7463980" lon="9.2137650">
        <ele>30.6</ele>
        <time>2022-06-08T10:07:24Z</time>
      </trkpt>
      <trkpt lat="47.7462880" lon="9.2140160">
        <ele>30.2</ele>
        <time>2022-06-08T10:07:28Z</time>
      </trkpt>
      <trkpt lat="47.7461700" lon="9.2142880">
        <ele>30.0</ele>
        <time>2022-06-08T10:07:32Z</time>
      </trkpt>
      <trkpt lat="47.7460530" lon="9.2145910">
        <ele>28.6</ele>
        <time>2022-06-08T10:07:36Z</time>
      </trkpt>
      <trkpt lat="47.7459180" lon="9.2149300">
        <ele>27.8</ele>
        <time>2022-06-08T10:07:40Z</time>
      </trkpt>
      <trkpt lat="47.7457630" lon="9.2152650">
        <ele>26.2</ele>
        <time>2022-06-08T10:07:44Z</time>
      </trkpt>
      <trkpt lat="47.7456250" lon="9.2155860">
        <ele>27.4</ele>
        <time>2022-06-08T10:07:48Z</time>
      </trkpt>
      <trkpt lat="47.7454980" lon="9.2158930">
        <ele>27.2</ele>
        <time>2022-06-08T10:07:52Z</time>
      </trkpt>
      <trkpt lat="47.7453680" lon="9.2161780">
        <ele>27.2</ele>
        <time>2022-06-08T10:07:56Z</time>
      </trkpt>
      <trkpt lat="47.7452400" lon="9.2164480">
        <ele>27.0</ele>
        <time>2022-06-08T10:08:00Z</time>
      </trkpt>
      <trkpt lat="47.7451180" lon="9.2167250">
        <ele>27.2</ele>
        <time>2022-06-08T10:08:04Z</time>
      </trkpt>
      <trkpt lat="47.7450060" lon="9.2170010">
        <ele>27.2</ele>
        <time>2022-06-08T10:08:08Z</time>
      </trkpt>
      <trkpt lat="47.7448850" lon="9.2172560">
        <ele>27.4</ele>
        <time>2022-06-08T10:08:12Z</time>
      </trkpt>
      <trkpt lat="47.7447780" lon="9.2174980">
        <ele>27.2</ele>
        <time>2022-06-08T10:08:16Z</time>
      </trkpt>
      <trkpt lat="47.7446860" lon="9.2177200">
        <ele>27.0</ele>
        <time>2022-06-08T10:08:20Z</time>
      </trkpt>
      <trkpt lat="47.7446130" lon="9.2179050">
        <ele>27.0</ele>
        <time>2022-06-08T10:08:24Z</time>
      </trkpt>
      <trkpt lat="47.7445750" lon="9.2180710">
        <ele>27.4</ele>
        <time>2022-06-08T10:08:28Z</time>
      </trkpt>
      <trkpt lat="47.7445900" lon="9.2182380">
        <ele>27.6</ele>
        <time>2022-06-08T10:08:32Z</time>
      </trkpt>
      <trkpt lat="47.7445400" lon="9.2182610">
        <ele>27.8</ele>
        <time>2022-06-08T10:08:36Z</time>
      </trkpt>
      <trkpt lat="47.7445400" lon="9.2182610">
        <ele>27.6</ele>
        <time>2022-06-08T10:08:40Z</time>
      </trkpt>
      <trkpt lat="47.7445400" lon="9.2182610">
        <ele>27.6</ele>
        <time>2022-06-08T10:08:44Z</time>
      </trkpt>
      <trkpt lat="47.7445400" lon="9.2182610">
        <ele>28.2</ele>
        <time>2022-06-08T10:08:48Z</time>
      </trkpt>
      <trkpt lat="47.7445400" lon="9.2182610">
        <ele>27.6</ele>
        <time>2022-06-08T10:08:52Z</time>
      </trkpt>
      <trkpt lat="47.7445400" lon="9.2182610">
        <ele>27.8</ele>
        <time>2022-06-08T10:08:56Z</time>
      </trkpt>
      <trkpt lat="47.7445400" lon="9.2182610">
        <ele>27.4</ele>
        <time>2022-06-08T10:09:00Z</time>
      </trkpt>
      <trkpt lat="47.7445400" lon="9.2182610">
        <ele>27.6</ele>
        <time>2022-06-08T10:09:04Z</time>
      </trkpt>
      <trkpt lat="47.7445400" lon="9.2182610">
        <ele>28.0</ele>
        <time>2022-06-08T10:09:08Z</time>
      </trkpt>
      <trkpt lat="47.7445400" lon="9.2182610">
        <ele>27.8</ele>
        <time>2022-06-08T10:09:12Z</time>
      </trkpt>
      <trkpt lat="47.7445400" lon="9.2182610">
        <ele>27.6</ele>
        <time>2022-06-08T10:09:16Z</time>
      </trkpt>
      <trkpt lat="47.7445400" lon="9.2182610">
        <ele>27.6</ele>
        <time>2022-06-08T10:09:20Z</time>
      </trkpt>
      <trkpt lat="47.7445400" lon="9.2182610">
        <ele>27.8</ele>
        <time>2022-06-08T10:09:24Z</time>
      </trkpt>
      <trkpt lat="47.7445400" lon="9.2182610">
        <ele>28.0</ele>
        <time>2022-06-08T10:09:28Z</time>
      </trkpt>
      <trkpt lat="47.7445400" lon="9.2182610">
        <ele>27.6</ele>
        <time>2022-06-08T10:09:32Z</time>
      </trkpt>
      <trkpt lat="47.7445450" lon="9.2182660">
        <ele>27.4</ele>
        <time>2022-06-08T10:09:36Z</time>
      </trkpt>
      <trkpt lat="47.7445260" lon="9.2182500">
        <ele>27.4</ele>
        <time>2022-06-08T10:09:40Z</time>
      </trkpt>
      <trkpt lat="47.7445260" lon="9.2182500">
        <ele>27.6</ele>
        <time>2022-06-08T10:09:44Z</time>
      </trkpt>
      <trkpt lat="47.7445260" lon="9.2182500">
        <ele>27.6</ele>
        <time>2022-06-08T10:09:48Z</time>
      </trkpt>
      <trkpt lat="47.7445260" lon="9.2182500">
        <ele>27.4</ele>
        <time>2022-06-08T10:09:52Z</time>
      </trkpt>
      <trkpt lat="47.7445260" lon="9.2182500">
        <ele>27.4</ele>
        <time>2022-06-08T10:09:56Z</time>
      </trkpt>
      <trkpt lat="47.7445260" lon="9.2182500">
        <ele>27.6</ele>
        <time>2022-06-08T10:10:00Z</time>
      </trkpt>
      <trkpt lat="47.7445260" lon="9.2182500">
        <ele>27.6</ele>
        <time>2022-06-08T10:10:04Z</time>
      </trkpt>
      <trkpt lat="47.7445260" lon="9.2182500">
        <ele>27.6</ele>
        <time>2022-06-08T10:10:08Z</time>
      </trkpt>
      <trkpt lat="47.7445260" lon="9.2182500">
        <ele>27.4</ele>
        <time>2022-06-08T10:10:12Z</time>
      </trkpt>
      <trkpt lat="47.7445260" lon="9.2182500">
        <ele>28.2</ele>
        <time>2022-06-08T10:10:16Z</time>
      </trkpt>
      <trkpt lat="47.7445260" lon="9.2182500">
        <ele>27.8</ele>
        <time>2022-06-08T10:10:20Z</time>
      </trkpt>
      <trkpt lat="47.7444850" lon="9.2182730">
        <ele>27.8</ele>
        <time>2022-06-08T10:10:24Z</time>
      </trkpt>
      <trkpt lat="47.7445000" lon="9.2182930">
        <ele>28.0</ele>
        <time>2022-06-08T10:10:28Z</time>
      </trkpt>
      <trkpt lat="47.7445260" lon="9.2182730">
        <ele>28.2</ele>
        <time>2022-06-08T10:10:32Z</time>
      </trkpt>
      <trkpt lat="47.7445260" lon="9.2182730">
        <ele>27.8</ele>
        <time>2022-06-08T10:10:36Z</time>
      </trkpt>
      <trkpt lat="47.7445260" lon="9.2182730">
        <ele>28.0</ele>
        <time>2022-06-08T10:10:40Z</time>
      </trkpt>
      <trkpt lat="47.7445260" lon="9.2182730">
        <ele>28.4</ele>
        <time>2022-06-08T10:10:44Z</time>
      </trkpt>
      <trkpt lat="47.7445260" lon="9.2182730">
        <ele>28.4</ele>
        <time>2022-06-08T10:10:48Z</time>
      </trkpt>
      <trkpt lat="47.7445260" lon="9.2182730">
        <ele>28.2</ele>
        <time>2022-06-08T10:10:52Z</time>
      </trkpt>
      <trkpt lat="47.7445260" lon="9.2182730">
        <ele>28.2</ele>
        <time>2022-06-08T10:10:56Z</time>
      </trkpt>
      <trkpt lat="47.7445260" lon="9.2182730">
        <ele>28.2</ele>
        <time>2022-06-08T10:11:00Z</time>
      </trkpt>
      <trkpt lat="47.7445260" lon="9.2182730">
        <ele>28.0</ele>
        <time>2022-06-08T10:11:04Z</time>
      </trkpt>
      <trkpt lat="47.7445610" lon="9.2182760">
        <ele>28.2</ele>
        <time>2022-06-08T10:11:08Z</time>
      </trkpt>
      <trkpt lat="47.7445610" lon="9.2182760">
        <ele>28.2</ele>
        <time>2022-06-08T10:11:12Z</time>
      </trkpt>
      <trkpt lat="47.7445610" lon="9.2182760">
        <ele>27.8</ele>
        <time>2022-06-08T10:11:16Z</time>
      </trkpt>
      <trkpt lat="47.7445610" lon="9.2182760">
        <ele>28.6</ele>
        <time>2022-06-08T10:11:20Z</time>
      </trkpt>
      <trkpt lat="47.7445610" lon="9.2182760">
        <ele>28.2</ele>
        <time>2022-06-08T10:11:24Z</time>
      </trkpt>
      <trkpt lat="47.7445610" lon="9.2182760">
        <ele>28.4</ele>
        <time>2022-06-08T10:11:28Z</time>
      </trkpt>
      <trkpt lat="47.7445610" lon="9.2182760">
        <ele>28.2</ele>
        <time>2022-06-08T10:11:32Z</time>
      </trkpt>
      <trkpt lat="47.7445610" lon="9.2182760">
        <ele>28.4</ele>
        <time>2022-06-08T10:11:36Z</time>
      </trkpt>
      <trkpt lat="47.7445610" lon="9.2182760">
        <ele>28.2</ele>
        <time>2022-06-08T10:11:40Z</time>
      </trkpt>
      <trkpt lat="47.7445610" lon="9.2182760">
        <ele>28.4</ele>
        <time>2022-06-08T10:11:44Z</time>
      </trkpt>
      <trkpt lat="47.7445610" lon="9.2182760">
        <ele>28.4</ele>
        <time>2022-06-08T10:11:48Z</time>
      </trkpt>
      <trkpt lat="47.7445610" lon="9.2182760">
        <ele>28.4</ele>
        <time>2022-06-08T10:11:52Z</time>
      </trkpt>
      <trkpt lat="47.7445610" lon="9.2182760">
        <ele>28.4</ele>
        <time>2022-06-08T10:11:56Z</time>
      </trkpt>
      <trkpt lat="47.7445610" lon="9.2182760">
        <ele>27.8</ele>
        <time>2022-06-08T10:12:00Z</time>
      </trkpt>
      <trkpt lat="47.7445610" lon="9.2182760">
        <ele>28.4</ele>
        <time>2022-06-08T10:12:04Z</time>
      </trkpt>
      <trkpt lat="47.7445610" lon="9.2182760">
        <ele>28.4</ele>
        <time>2022-06-08T10:12:08Z</time>
      </trkpt>
      <trkpt lat="47.7445610" lon="9.2182760">
        <ele>27.8</ele>
        <time>2022-06-08T10:12:12Z</time>
      </trkpt>
      <trkpt lat="47.7445610" lon="9.2182760">
        <ele>27.8</ele>
        <time>2022-06-08T10:12:16Z</time>
      </trkpt>
      <trkpt lat="47.7445610" lon="9.2182760">
        <ele>28.2</ele>
        <time>2022-06-08T10:12:20Z</time>
      </trkpt>
      <trkpt lat="47.7445610" lon="9.2182760">
        <ele>28.2</ele>
        <time>2022-06-08T10:12:24Z</time>
      </trkpt>
      <trkpt lat="47.7445610" lon="9.2182760">
        <ele>28.4</ele>
        <time>2022-06-08T10:12:28Z</time>
      </trkpt>
      <trkpt lat="47.7445610" lon="9.2182760">
        <ele>28.2</ele>
        <time>2022-06-08T10:12:32Z</time>
      </trkpt>
      <trkpt lat="47.7445610" lon="9.2182760">
        <ele>28.0</ele>
        <time>2022-06-08T10:12:36Z</time>
      </trkpt>
      <trkpt lat="47.7445610" lon="9.2182760">
        <ele>28.2</ele>
        <time>2022-06-08T10:12:40Z</time>
      </trkpt>
      <trkpt lat="47.7445610" lon="9.2182760">
        <ele>27.8</ele>
        <time>2022-06-08T10:12:44Z</time>
      </trkpt>
      <trkpt lat="47.7445610" lon="9.2182760">
        <ele>28.6</ele>
        <time>2022-06-08T10:12:48Z</time>
      </trkpt>
      <trkpt lat="47.7445610" lon="9.2182760">
        <ele>28.2</ele>
        <time>2022-06-08T10:12:52Z</time>
      </trkpt>
      <trkpt lat="47.7445610" lon="9.2182760">
        <ele>28.0</ele>
        <time>2022-06-08T10:12:56Z</time>
      </trkpt>
      <trkpt lat="47.7445610" lon="9.2182760">
        <ele>28.2</ele>
        <time>2022-06-08T10:13:00Z</time>
      </trkpt>
      <trkpt lat="47.7445610" lon="9.2182760">
        <ele>28.0</ele>
        <time>2022-06-08T10:13:04Z</time>
      </trkpt>
      <trkpt lat="47.7445610" lon="9.2182760">
        <ele>28.2</ele>
        <time>2022-06-08T10:13:08Z</time>
      </trkpt>
      <trkpt lat="47.7445610" lon="9.2182760">
        <ele>28.2</ele>
        <time>2022-06-08T10:13:12Z</time>
      </trkpt>
      <trkpt lat="47.7445610" lon="9.2182760">
        <ele>28.2</ele>
        <time>2022-06-08T10:13:16Z</time>
      </trkpt>
      <trkpt lat="47.7445610" lon="9.2182760">
        <ele>28.6</ele>
        <time>2022-06-08T10:13:20Z</time>
      </trkpt>
      <trkpt lat="47.7445610" lon="9.2182760">
        <ele>28.4</ele>
        <time>2022-06-08T10:13:24Z</time>
      </trkpt>
      <trkpt lat="47.7445610" lon="9.2182760">
        <ele>28.0</ele>
        <time>2022-06-08T10:13:28Z</time>
      </trkpt>
      <trkpt lat="47.7445610" lon="9.2182760">
        <ele>28.2</ele>
        <time>2022-06-08T10:13:32Z</time>
      </trkpt>
      <trkpt lat="47.7445610" lon="9.2182760">
        <ele>28.2</ele>
        <time>2022-06-08T10:13:36Z</time>
      </trkpt>
      <trkpt lat="47.7445610" lon="9.2182760">
        <ele>28.4</ele>
        <time>2022-06-08T10:13:40Z</time>
      </trkpt>
      <trkpt lat="47.7445610" lon="9.2182760">
        <ele>28.2</ele>
        <time>2022-06-08T10:13:44Z</time>
      </trkpt>
      <trkpt lat="47.7445610" lon="9.2182760">
        <ele>28.6</ele>
        <time>2022-06-08T10:13:48Z</time>
      </trkpt>
      <trkpt lat="47.7445610" lon="9.2182760">
        <ele>28.4</ele>
        <time>2022-06-08T10:13:52Z</time>
      </trkpt>
      <trkpt lat="47.7445610" lon="9.2182760">
        <ele>28.6</ele>
        <time>2022-06-08T10:13:56Z</time>
      </trkpt>
      <trkpt lat="47.7445610" lon="9.2182760">
        <ele>28.8</ele>
        <time>2022-06-08T10:14:00Z</time>
      </trkpt>
      <trkpt lat="47.7445610" lon="9.2182760">
        <ele>28.4</ele>
        <time>2022-06-08T10:14:04Z</time>
      </trkpt>
      <trkpt lat="47.7445610" lon="9.2182760">
        <ele>28.2</ele>
        <time>2022-06-08T10:14:08Z</time>
      </trkpt>
      <trkpt lat="47.7445610" lon="9.2182760">
        <ele>28.2</ele>
        <time>2022-06-08T10:14:12Z</time>
      </trkpt>
      <trkpt lat="47.7445610" lon="9.2182760">
        <ele>28.8</ele>
        <time>2022-06-08T10:14:16Z</time>
      </trkpt>
      <trkpt lat="47.7445610" lon="9.2182760">
        <ele>28.8</ele>
        <time>2022-06-08T10:14:20Z</time>
      </trkpt>
      <trkpt lat="47.7445610" lon="9.2182760">
        <ele>28.6</ele>
        <time>2022-06-08T10:14:24Z</time>
      </trkpt>
      <trkpt lat="47.7445610" lon="9.2182760">
        <ele>28.8</ele>
        <time>2022-06-08T10:14:28Z</time>
      </trkpt>
      <trkpt lat="47.7445610" lon="9.2182760">
        <ele>28.6</ele>
        <time>2022-06-08T10:14:32Z</time>
      </trkpt>
      <trkpt lat="47.7445610" lon="9.2182760">
        <ele>28.8</ele>
        <time>2022-06-08T10:14:36Z</time>
      </trkpt>
      <trkpt lat="47.7445610" lon="9.2182760">
        <ele>28.8</ele>
        <time>2022-06-08T10:14:40Z</time>
      </trkpt>
      <trkpt lat="47.7445610" lon="9.2182760">
        <ele>29.0</ele>
        <time>2022-06-08T10:14:44Z</time>
      </trkpt>
      <trkpt lat="47.7445610" lon="9.2182760">
        <ele>29.0</ele>
        <time>2022-06-08T10:14:48Z</time>
      </trkpt>
      <trkpt lat="47.7445610" lon="9.2182760">
        <ele>29.2</ele>
        <time>2022-06-08T10:14:52Z</time>
      </trkpt>
      <trkpt lat="47.7445610" lon="9.2182760">
        <ele>28.8</ele>
        <time>2022-06-08T10:14:56Z</time>
      </trkpt>
      <trkpt lat="47.7445610" lon="9.2182760">
        <ele>28.8</ele>
        <time>2022-06-08T10:15:00Z</time>
      </trkpt>
      <trkpt lat="47.7445610" lon="9.2182760">
        <ele>29.2</ele>
        <time>2022-06-08T10:15:04Z</time>
      </trkpt>
      <trkpt lat="47.7445610" lon="9.2182760">
        <ele>28.8</ele>
        <time>2022-06-08T10:15:08Z</time>
      </trkpt>
      <trkpt lat="47.7445610" lon="9.2182760">
        <ele>29.2</ele>
        <time>2022-06-08T10:15:12Z</time>
      </trkpt>
      <trkpt lat="47.7445610" lon="9.2182760">
        <ele>28.8</ele>
        <time>2022-06-08T10:15:16Z</time>
      </trkpt>
      <trkpt lat="47.7445610" lon="9.2182760">
        <ele>28.8</ele>
        <time>2022-06-08T10:15:20Z</time>
      </trkpt>
      <trkpt lat="47.7445610" lon="9.2182760">
        <ele>28.4</ele>
        <time>2022-06-08T10:15:24Z</time>
      </trkpt>
      <trkpt lat="47.7445610" lon="9.2182760">
        <ele>28.4</ele>
        <time>2022-06-08T10:15:28Z</time>
      </trkpt>
      <trkpt lat="47.7445610" lon="9.2182760">
        <ele>28.2</ele>
        <time>2022-06-08T10:15:32Z</time>
      </trkpt>
      <trkpt lat="47.7445610" lon="9.2182760">
        <ele>28.2</ele>
        <time>2022-06-08T10:15:36Z</time>
      </trkpt>
      <trkpt lat="47.7445610" lon="9.2182760">
        <ele>28.6</ele>
        <time>2022-06-08T10:15:40Z</time>
      </trkpt>
      <trkpt lat="47.7445830" lon="9.2182700">
        <ele>28.6</ele>
        <time>2022-06-08T10:15:44Z</time>
      </trkpt>
      <trkpt lat="47.7445830" lon="9.2182700">
        <ele>28.6</ele>
        <time>2022-06-08T10:15:48Z</time>
      </trkpt>
      <trkpt lat="47.7445830" lon="9.2182700">
        <ele>29.2</ele>
        <time>2022-06-08T10:15:52Z</time>
      </trkpt>
      <trkpt lat="47.7445830" lon="9.2182700">
        <ele>28.8</ele>
        <time>2022-06-08T10:15:56Z</time>
      </trkpt>
      <trkpt lat="47.7445830" lon="9.2182700">
        <ele>28.8</ele>
        <time>2022-06-08T10:16:00Z</time>
      </trkpt>
      <trkpt lat="47.7445830" lon="9.2182700">
        <ele>28.6</ele>
        <time>2022-06-08T10:16:04Z</time>
      </trkpt>
      <trkpt lat="47.7445830" lon="9.2182900">
        <ele>28.8</ele>
        <time>2022-06-08T10:16:08Z</time>
      </trkpt>
      <trkpt lat="47.7445760" lon="9.2183400">
        <ele>29.2</ele>
        <time>2022-06-08T10:16:12Z</time>
      </trkpt>
      <trkpt lat="47.7445680" lon="9.2184200">
        <ele>29.4</ele>
        <time>2022-06-08T10:16:16Z</time>
      </trkpt>
      <trkpt lat="47.7445500" lon="9.2185300">
        <ele>30.0</ele>
        <time>2022-06-08T10:16:20Z</time>
      </trkpt>
      <trkpt lat="47.7445350" lon="9.2186430">
        <ele>29.8</ele>
        <time>2022-06-08T10:16:24Z</time>
      </trkpt>
      <trkpt lat="47.7445280" lon="9.2187360">
        <ele>31.4</ele>
        <time>2022-06-08T10:16:28Z</time>
      </trkpt>
      <trkpt lat="47.7445350" lon="9.2188550">
        <ele>32.2</ele>
        <time>2022-06-08T10:16:32Z</time>
      </trkpt>
      <trkpt lat="47.7445510" lon="9.2189780">
        <ele>33.0</ele>
        <time>2022-06-08T10:16:36Z</time>
      </trkpt>
      <trkpt lat="47.7445600" lon="9.2191060">
        <ele>33.6</ele>
        <time>2022-06-08T10:16:40Z</time>
      </trkpt>
      <trkpt lat="47.7445210" lon="9.2192280">
        <ele>34.2</ele>
        <time>2022-06-08T10:16:44Z</time>
      </trkpt>
      <trkpt lat="47.7444960" lon="9.2193480">
        <ele>34.8</ele>
        <time>2022-06-08T10:16:48Z</time>
      </trkpt>
      <trkpt lat="47.7444530" lon="9.2194530">
        <ele>35.0</ele>
        <time>2022-06-08T10:16:52Z</time>
      </trkpt>
      <trkpt lat="47.7443950" lon="9.2195630">
        <ele>35.6</ele>
        <time>2022-06-08T10:16:56Z</time>
      </trkpt>
      <trkpt lat="47.7443360" lon="9.2196880">
        <ele>35.2</ele>
        <time>2022-06-08T10:17:00Z</time>
      </trkpt>
      <trkpt lat="47.7442480" lon="9.2198330">
        <ele>34.8</ele>
        <time>2022-06-08T10:17:04Z</time>
      </trkpt>
      <trkpt lat="47.7441300" lon="9.2199510">
        <ele>34.8</ele>
        <time>2022-06-08T10:17:08Z</time>
      </trkpt>
      <trkpt lat="47.7439960" lon="9.2200460">
        <ele>34.8</ele>
        <time>2022-06-08T10:17:12Z</time>
      </trkpt>
      <trkpt lat="47.7438450" lon="9.2201700">
        <ele>34.2</ele>
        <time>2022-06-08T10:17:16Z</time>
      </trkpt>
      <trkpt lat="47.7437110" lon="9.2202860">
        <ele>33.4</ele>
        <time>2022-06-08T10:17:20Z</time>
      </trkpt>
      <trkpt lat="47.7436250" lon="9.2203850">
        <ele>32.8</ele>
        <time>2022-06-08T10:17:24Z</time>
      </trkpt>
      <trkpt lat="47.7436250" lon="9.2203850">
        <ele>32.4</ele>
        <time>2022-06-08T10:17:28Z</time>
      </trkpt>
      <trkpt lat="47.7436250" lon="9.2203850">
        <ele>32.8</ele>
        <time>2022-06-08T10:17:32Z</time>
      </trkpt>
      <trkpt lat="47.7436250" lon="9.2203850">
        <ele>33.0</ele>
        <time>2022-06-08T10:17:36Z</time>
      </trkpt>
      <trkpt lat="47.7436250" lon="9.2203850">
        <ele>33.0</ele>
        <time>2022-06-08T10:17:40Z</time>
      </trkpt>
      <trkpt lat="47.7436250" lon="9.2203850">
        <ele>33.0</ele>
        <time>2022-06-08T10:17:44Z</time>
      </trkpt>
      <trkpt lat="47.7435960" lon="9.2204430">
        <ele>33.0</ele>
        <time>2022-06-08T10:17:48Z</time>
      </trkpt>
      <trkpt lat="47.7435900" lon="9.2205110">
        <ele>33.0</ele>
        <time>2022-06-08T10:17:52Z</time>
      </trkpt>
      <trkpt lat="47.7435550" lon="9.2206150">
        <ele>33.0</ele>
        <time>2022-06-08T10:17:56Z</time>
      </trkpt>
      <trkpt lat="47.7435200" lon="9.2207410">
        <ele>33.8</ele>
        <time>2022-06-08T10:18:00Z</time>
      </trkpt>
      <trkpt lat="47.7434830" lon="9.2208710">
        <ele>33.8</ele>
        <time>2022-06-08T10:18:04Z</time>
      </trkpt>
      <trkpt lat="47.7434460" lon="9.2210100">
        <ele>34.4</ele>
        <time>2022-06-08T10:18:08Z</time>
      </trkpt>
      <trkpt lat="47.7434060" lon="9.2211480">
        <ele>34.8</ele>
        <time>2022-06-08T10:18:12Z</time>
      </trkpt>
      <trkpt lat="47.7433730" lon="9.2212450">
        <ele>35.2</ele>
        <time>2022-06-08T10:18:16Z</time>
      </trkpt>
      <trkpt lat="47.7433730" lon="9.2212450">
        <ele>35.2</ele>
        <time>2022-06-08T10:18:20Z</time>
      </trkpt>
      <trkpt lat="47.7433730" lon="9.2212450">
        <ele>35.4</ele>
        <time>2022-06-08T10:18:24Z</time>
      </trkpt>
      <trkpt lat="47.7433730" lon="9.2212450">
        <ele>35.2</ele>
        <time>2022-06-08T10:18:28Z</time>
      </trkpt>
      <trkpt lat="47.7433730" lon="9.2212450">
        <ele>35.2</ele>
        <time>2022-06-08T10:18:32Z</time>
      </trkpt>
      <trkpt lat="47.7433730" lon="9.2212450">
        <ele>35.4</ele>
        <time>2022-06-08T10:18:36Z</time>
      </trkpt>
      <trkpt lat="47.7433730" lon="9.2212450">
        <ele>35.6</ele>
        <time>2022-06-08T10:18:40Z</time>
      </trkpt>
      <trkpt lat="47.7433730" lon="9.2212450">
        <ele>35.6</ele>
        <time>2022-06-08T10:18:44Z</time>
      </trkpt>
      <trkpt lat="47.7433730" lon="9.2212450">
        <ele>35.6</ele>
        <time>2022-06-08T10:18:48Z</time>
      </trkpt>
      <trkpt lat="47.7433730" lon="9.2212450">
        <ele>35.6</ele>
        <time>2022-06-08T10:18:52Z</time>
      </trkpt>
      <trkpt lat="47.7433730" lon="9.2212450">
        <ele>35.2</ele>
        <time>2022-06-08T10:18:56Z</time>
      </trkpt>
      <trkpt lat="47.7433730" lon="9.2212450">
        <ele>35.4</ele>
        <time>2022-06-08T10:19:00Z</time>
      </trkpt>
      <trkpt lat="47.7433730" lon="9.2212450">
        <ele>36.0</ele>
        <time>2022-06-08T10:19:04Z</time>
      </trkpt>
      <trkpt lat="47.7433730" lon="9.2212450">
        <ele>35.4</ele>
        <time>2022-06-08T10:19:08Z</time>
      </trkpt>
      <trkpt lat="47.7433730" lon="9.2212450">
        <ele>35.6</ele>
        <time>2022-06-08T10:19:12Z</time>
      </trkpt>
      <trkpt lat="47.7433730" lon="9.2212450">
        <ele>35.6</ele>
        <time>2022-06-08T10:19:16Z</time>
      </trkpt>
      <trkpt lat="47.7433730" lon="9.2212450">
        <ele>35.6</ele>
        <time>2022-06-08T10:19:20Z</time>
      </trkpt>
      <trkpt lat="47.7433700" lon="9.2212830">
        <ele>36.0</ele>
        <time>2022-06-08T10:19:24Z</time>
      </trkpt>
      <trkpt lat="47.7433480" lon="9.2213600">
        <ele>36.0</ele>
        <time>2022-06-08T10:19:28Z</time>
      </trkpt>
      <trkpt lat="47.7433180" lon="9.2215200">
        <ele>36.4</ele>
        <time>2022-06-08T10:19:32Z</time>
      </trkpt>
      <trkpt lat="47.7433000" lon="9.2217050">
        <ele>36.6</ele>
        <time>2022-06-08T10:19:36Z</time>
      </trkpt>
      <trkpt lat="47.7432260" lon="9.2218650">
        <ele>36.6</ele>
        <time>2022-06-08T10:19:40Z</time>
      </trkpt>
      <trkpt lat="47.7431400" lon="9.2220380">
        <ele>36.6</ele>
        <time>2022-06-08T10:19:44Z</time>
      </trkpt>
      <trkpt lat="47.7430630" lon="9.2222510">
        <ele>36.6</ele>
        <time>2022-06-08T10:19:48Z</time>
      </trkpt>
      <trkpt lat="47.7429760" lon="9.2224680">
        <ele>36.4</ele>
        <time>2022-06-08T10:19:52Z</time>
      </trkpt>
      <trkpt lat="47.7428850" lon="9.2226930">
        <ele>36.4</ele>
        <time>2022-06-08T10:19:56Z</time>
      </trkpt>
      <trkpt lat="47.7427980" lon="9.2229200">
        <ele>36.6</ele>
        <time>2022-06-08T10:20:00Z</time>
      </trkpt>
      <trkpt lat="47.7427080" lon="9.2231380">
        <ele>36.2</ele>
        <time>2022-06-08T10:20:04Z</time>
      </trkpt>
      <trkpt lat="47.7426010" lon="9.2233710">
        <ele>36.4</ele>
        <time>2022-06-08T10:20:08Z</time>
      </trkpt>
      <trkpt lat="47.7425010" lon="9.2236280">
        <ele>36.4</ele>
        <time>2022-06-08T10:20:12Z</time>
      </trkpt>
      <trkpt lat="47.7424010" lon="9.2238880">
        <ele>35.8</ele>
        <time>2022-06-08T10:20:16Z</time>
      </trkpt>
      <trkpt lat="47.7422980" lon="9.2241350">
        <ele>36.0</ele>
        <time>2022-06-08T10:20:20Z</time>
      </trkpt>
      <trkpt lat="47.7422060" lon="9.2243630">
        <ele>36.0</ele>
        <time>2022-06-08T10:20:24Z</time>
      </trkpt>
      <trkpt lat="47.7421260" lon="9.2245710">
        <ele>35.8</ele>
        <time>2022-06-08T10:20:28Z</time>
      </trkpt>
      <trkpt lat="47.7420500" lon="9.2247610">
        <ele>36.2</ele>
        <time>2022-06-08T10:20:32Z</time>
      </trkpt>
      <trkpt lat="47.7419660" lon="9.2249530">
        <ele>36.4</ele>
        <time>2022-06-08T10:20:36Z</time>
      </trkpt>
      <trkpt lat="47.7418700" lon="9.2251780">
        <ele>36.2</ele>
        <time>2022-06-08T10:20:40Z</time>
      </trkpt>
      <trkpt lat="47.7417710" lon="9.2254160">
        <ele>36.2</ele>
        <time>2022-06-08T10:20:44Z</time>
      </trkpt>
      <trkpt lat="47.7416730" lon="9.2256810">
        <ele>35.8</ele>
        <time>2022-06-08T10:20:48Z</time>
      </trkpt>
      <trkpt lat="47.7415630" lon="9.2259450">
        <ele>35.2</ele>
        <time>2022-06-08T10:20:52Z</time>
      </trkpt>
      <trkpt lat="47.7414550" lon="9.2262180">
        <ele>35.4</ele>
        <time>2022-06-08T10:20:56Z</time>
      </trkpt>
      <trkpt lat="47.7413430" lon="9.2264880">
        <ele>33.8</ele>
        <time>2022-06-08T10:21:00Z</time>
      </trkpt>
      <trkpt lat="47.7412230" lon="9.2267730">
        <ele>34.6</ele>
        <time>2022-06-08T10:21:04Z</time>
      </trkpt>
      <trkpt lat="47.7411110" lon="9.2270550">
        <ele>34.4</ele>
        <time>2022-06-08T10:21:08Z</time>
      </trkpt>
      <trkpt lat="47.7410050" lon="9.2273250">
        <ele>34.0</ele>
        <time>2022-06-08T10:21:12Z</time>
      </trkpt>
      <trkpt lat="47.7409000" lon="9.2276030">
        <ele>34.0</ele>
        <time>2022-06-08T10:21:16Z</time>
      </trkpt>
      <trkpt lat="47.7408030" lon="9.2278680">
        <ele>34.4</ele>
        <time>2022-06-08T10:21:20Z</time>
      </trkpt>
      <trkpt lat="47.7407030" lon="9.2281330">
        <ele>33.6</ele>
        <time>2022-06-08T10:21:24Z</time>
      </trkpt>
      <trkpt lat="47.7405880" lon="9.2283930">
        <ele>34.2</ele>
        <time>2022-06-08T10:21:28Z</time>
      </trkpt>
      <trkpt lat="47.7404910" lon="9.2285980">
        <ele>34.2</ele>
        <time>2022-06-08T10:21:32Z</time>
      </trkpt>
      <trkpt lat="47.7404080" lon="9.2287860">
        <ele>34.2</ele>
        <time>2022-06-08T10:21:36Z</time>
      </trkpt>
      <trkpt lat="47.7402810" lon="9.2289280">
        <ele>33.8</ele>
        <time>2022-06-08T10:21:40Z</time>
      </trkpt>
      <trkpt lat="47.7401110" lon="9.2288530">
        <ele>33.6</ele>
        <time>2022-06-08T10:21:44Z</time>
      </trkpt>
      <trkpt lat="47.7399250" lon="9.2287500">
        <ele>33.4</ele>
        <time>2022-06-08T10:21:48Z</time>
      </trkpt>
      <trkpt lat="47.7397260" lon="9.2286480">
        <ele>33.0</ele>
        <time>2022-06-08T10:21:52Z</time>
      </trkpt>
      <trkpt lat="47.7395200" lon="9.2285500">
        <ele>31.4</ele>
        <time>2022-06-08T10:21:56Z</time>
      </trkpt>
      <trkpt lat="47.7393180" lon="9.2284460">
        <ele>31.6</ele>
        <time>2022-06-08T10:22:00Z</time>
      </trkpt>
      <trkpt lat="47.7391210" lon="9.2283050">
        <ele>31.6</ele>
        <time>2022-06-08T10:22:04Z</time>
      </trkpt>
      <trkpt lat="47.7389250" lon="9.2281730">
        <ele>30.8</ele>
        <time>2022-06-08T10:22:08Z</time>
      </trkpt>
      <trkpt lat="47.7387410" lon="9.2279900">
        <ele>30.0</ele>
        <time>2022-06-08T10:22:12Z</time>
      </trkpt>
      <trkpt lat="47.7385750" lon="9.2277630">
        <ele>30.8</ele>
        <time>2022-06-08T10:22:16Z</time>
      </trkpt>
      <trkpt lat="47.7384350" lon="9.2275110">
        <ele>29.6</ele>
        <time>2022-06-08T10:22:20Z</time>
      </trkpt>
      <trkpt lat="47.7383000" lon="9.2272650">
        <ele>29.8</ele>
        <time>2022-06-08T10:22:24Z</time>
      </trkpt>
      <trkpt lat="47.7381600" lon="9.2271030">
        <ele>30.2</ele>
        <time>2022-06-08T10:22:28Z</time>
      </trkpt>
      <trkpt lat="47.7379650" lon="9.2271650">
        <ele>29.6</ele>
        <time>2022-06-08T10:22:32Z</time>
      </trkpt>
      <trkpt lat="47.7377730" lon="9.2272310">
        <ele>29.6</ele>
        <time>2022-06-08T10:22:36Z</time>
      </trkpt>
      <trkpt lat="47.7375810" lon="9.2272860">
        <ele>30.2</ele>
        <time>2022-06-08T10:22:40Z</time>
      </trkpt>
      <trkpt lat="47.7373980" lon="9.2273530">
        <ele>30.6</ele>
        <time>2022-06-08T10:22:44Z</time>
      </trkpt>
      <trkpt lat="47.7372150" lon="9.2274000">
        <ele>30.8</ele>
        <time>2022-06-08T10:22:48Z</time>
      </trkpt>
      <trkpt lat="47.7370280" lon="9.2274400">
        <ele>30.4</ele>
        <time>2022-06-08T10:22:52Z</time>
      </trkpt>
      <trkpt lat="47.7368500" lon="9.2274680">
        <ele>30.2</ele>
        <time>2022-06-08T10:22:56Z</time>
      </trkpt>
      <trkpt lat="47.7366700" lon="9.2274860">
        <ele>30.4</ele>
        <time>2022-06-08T10:23:00Z</time>
      </trkpt>
      <trkpt lat="47.7364860" lon="9.2275030">
        <ele>30.0</ele>
        <time>2022-06-08T10:23:04Z</time>
      </trkpt>
      <trkpt lat="47.7362980" lon="9.2275230">
        <ele>29.8</ele>
        <time>2022-06-08T10:23:08Z</time>
      </trkpt>
      <trkpt lat="47.7361180" lon="9.2275630">
        <ele>30.2</ele>
        <time>2022-06-08T10:23:12Z</time>
      </trkpt>
      <trkpt lat="47.7359560" lon="9.2276200">
        <ele>29.8</ele>
        <time>2022-06-08T10:23:16Z</time>
      </trkpt>
      <trkpt lat="47.7358250" lon="9.2277160">
        <ele>30.4</ele>
        <time>2022-06-08T10:23:20Z</time>
      </trkpt>
      <trkpt lat="47.7357250" lon="9.2278810">
        <ele>30.2</ele>
        <time>2022-06-08T10:23:24Z</time>
      </trkpt>
      <trkpt lat="47.7356060" lon="9.2280350">
        <ele>30.6</ele>
        <time>2022-06-08T10:23:28Z</time>
      </trkpt>
      <trkpt lat="47.7354530" lon="9.2281200">
        <ele>31.2</ele>
        <time>2022-06-08T10:23:32Z</time>
      </trkpt>
      <trkpt lat="47.7352950" lon="9.2281710">
        <ele>30.8</ele>
        <time>2022-06-08T10:23:36Z</time>
      </trkpt>
      <trkpt lat="47.7351280" lon="9.2282360">
        <ele>30.2</ele>
        <time>2022-06-08T10:23:40Z</time>
      </trkpt>
      <trkpt lat="47.7349710" lon="9.2282780">
        <ele>31.6</ele>
        <time>2022-06-08T10:23:44Z</time>
      </trkpt>
      <trkpt lat="47.7348330" lon="9.2283400">
        <ele>30.4</ele>
        <time>2022-06-08T10:23:48Z</time>
      </trkpt>
      <trkpt lat="47.7348010" lon="9.2284830">
        <ele>29.8</ele>
        <time>2022-06-08T10:23:52Z</time>
      </trkpt>
      <trkpt lat="47.7348460" lon="9.2286830">
        <ele>30.2</ele>
        <time>2022-06-08T10:23:56Z</time>
      </trkpt>
      <trkpt lat="47.7348930" lon="9.2289000">
        <ele>30.4</ele>
        <time>2022-06-08T10:24:00Z</time>
      </trkpt>
      <trkpt lat="47.7347930" lon="9.2290150">
        <ele>30.0</ele>
        <time>2022-06-08T10:24:04Z</time>
      </trkpt>
      <trkpt lat="47.7346510" lon="9.2290810">
        <ele>29.8</ele>
        <time>2022-06-08T10:24:08Z</time>
      </trkpt>
      <trkpt lat="47.7344980" lon="9.2291480">
        <ele>30.2</ele>
        <time>2022-06-08T10:24:12Z</time>
      </trkpt>
      <trkpt lat="47.7343380" lon="9.2292300">
        <ele>30.4</ele>
        <time>2022-06-08T10:24:16Z</time>
      </trkpt>
      <trkpt lat="47.7341680" lon="9.2293010">
        <ele>30.6</ele>
        <time>2022-06-08T10:24:20Z</time>
      </trkpt>
      <trkpt lat="47.7339950" lon="9.2293810">
        <ele>30.2</ele>
        <time>2022-06-08T10:24:24Z</time>
      </trkpt>
      <trkpt lat="47.7338210" lon="9.2294950">
        <ele>30.2</ele>
        <time>2022-06-08T10:24:28Z</time>
      </trkpt>
      <trkpt lat="47.7336480" lon="9.2296250">
        <ele>30.2</ele>
        <time>2022-06-08T10:24:32Z</time>
      </trkpt>
      <trkpt lat="47.7334800" lon="9.2297660">
        <ele>30.0</ele>
        <time>2022-06-08T10:24:36Z</time>
      </trkpt>
      <trkpt lat="47.7333200" lon="9.2299110">
        <ele>29.8</ele>
        <time>2022-06-08T10:24:40Z</time>
      </trkpt>
      <trkpt lat="47.7331610" lon="9.2300600">
        <ele>29.6</ele>
        <time>2022-06-08T10:24:44Z</time>
      </trkpt>
      <trkpt lat="47.7330180" lon="9.2302230">
        <ele>29.2</ele>
        <time>2022-06-08T10:24:48Z</time>
      </trkpt>
      <trkpt lat="47.7328780" lon="9.2303930">
        <ele>29.4</ele>
        <time>2022-06-08T10:24:52Z</time>
      </trkpt>
      <trkpt lat="47.7327230" lon="9.2305610">
        <ele>29.6</ele>
        <time>2022-06-08T10:24:56Z</time>
      </trkpt>
      <trkpt lat="47.7325430" lon="9.2306760">
        <ele>29.0</ele>
        <time>2022-06-08T10:25:00Z</time>
      </trkpt>
      <trkpt lat="47.7323830" lon="9.2307860">
        <ele>29.2</ele>
        <time>2022-06-08T10:25:04Z</time>
      </trkpt>
      <trkpt lat="47.7322300" lon="9.2309030">
        <ele>29.2</ele>
        <time>2022-06-08T10:25:08Z</time>
      </trkpt>
      <trkpt lat="47.7320780" lon="9.2310580">
        <ele>29.4</ele>
        <time>2022-06-08T10:25:12Z</time>
      </trkpt>
      <trkpt lat="47.7319260" lon="9.2312160">
        <ele>29.4</ele>
        <time>2022-06-08T10:25:16Z</time>
      </trkpt>
      <trkpt lat="47.7317910" lon="9.2313800">
        <ele>29.2</ele>
        <time>2022-06-08T10:25:20Z</time>
      </trkpt>
      <trkpt lat="47.7316560" lon="9.2315300">
        <ele>29.6</ele>
        <time>2022-06-08T10:25:24Z</time>
      </trkpt>
      <trkpt lat="47.7315280" lon="9.2316510">
        <ele>30.0</ele>
        <time>2022-06-08T10:25:28Z</time>
      </trkpt>
      <trkpt lat="47.7313910" lon="9.2317250">
        <ele>30.0</ele>
        <time>2022-06-08T10:25:32Z</time>
      </trkpt>
      <trkpt lat="47.7312330" lon="9.2317230">
        <ele>28.8</ele>
        <time>2022-06-08T10:25:36Z</time>
      </trkpt>
      <trkpt lat="47.7310550" lon="9.2317080">
        <ele>28.8</ele>
        <time>2022-06-08T10:25:40Z</time>
      </trkpt>
      <trkpt lat="47.7308660" lon="9.2317110">
        <ele>28.8</ele>
        <time>2022-06-08T10:25:44Z</time>
      </trkpt>
      <trkpt lat="47.7306900" lon="9.2316960">
        <ele>29.8</ele>
        <time>2022-06-08T10:25:48Z</time>
      </trkpt>
      <trkpt lat="47.7305410" lon="9.2317100">
        <ele>29.8</ele>
        <time>2022-06-08T10:25:52Z</time>
      </trkpt>
      <trkpt lat="47.7303550" lon="9.2317300">
        <ele>29.2</ele>
        <time>2022-06-08T10:25:56Z</time>
      </trkpt>
      <trkpt lat="47.7301550" lon="9.2317710">
        <ele>30.0</ele>
        <time>2022-06-08T10:26:00Z</time>
      </trkpt>
      <trkpt lat="47.7299860" lon="9.2318210">
        <ele>30.4</ele>
        <time>2022-06-08T10:26:04Z</time>
      </trkpt>
      <trkpt lat="47.7298130" lon="9.2318650">
        <ele>30.0</ele>
        <time>2022-06-08T10:26:08Z</time>
      </trkpt>
      <trkpt lat="47.7296310" lon="9.2318800">
        <ele>30.0</ele>
        <time>2022-06-08T10:26:12Z</time>
      </trkpt>
      <trkpt lat="47.7294530" lon="9.2318710">
        <ele>30.2</ele>
        <time>2022-06-08T10:26:16Z</time>
      </trkpt>
      <trkpt lat="47.7292830" lon="9.2318610">
        <ele>30.2</ele>
        <time>2022-06-08T10:26:20Z</time>
      </trkpt>
      <trkpt lat="47.7291150" lon="9.2318680">
        <ele>30.2</ele>
        <time>2022-06-08T10:26:24Z</time>
      </trkpt>
      <trkpt lat="47.7289450" lon="9.2319200">
        <ele>30.2</ele>
        <time>2022-06-08T10:26:28Z</time>
      </trkpt>
      <trkpt lat="47.7287930" lon="9.2320060">
        <ele>30.2</ele>
        <time>2022-06-08T10:26:32Z</time>
      </trkpt>
      <trkpt lat="47.7286700" lon="9.2320730">
        <ele>30.4</ele>
        <time>2022-06-08T10:26:36Z</time>
      </trkpt>
      <trkpt lat="47.7285650" lon="9.2321330">
        <ele>30.8</ele>
        <time>2022-06-08T10:26:40Z</time>
      </trkpt>
      <trkpt lat="47.7284650" lon="9.2322010">
        <ele>31.0</ele>
        <time>2022-06-08T10:26:44Z</time>
      </trkpt>
      <trkpt lat="47.7283300" lon="9.2322960">
        <ele>31.6</ele>
        <time>2022-06-08T10:26:48Z</time>
      </trkpt>
      <trkpt lat="47.7282080" lon="9.2323500">
        <ele>31.0</ele>
        <time>2022-06-08T10:26:52Z</time>
      </trkpt>
      <trkpt lat="47.7280860" lon="9.2322630">
        <ele>29.8</ele>
        <time>2022-06-08T10:26:56Z</time>
      </trkpt>
      <trkpt lat="47.7279650" lon="9.2320980">
        <ele>30.8</ele>
        <time>2022-06-08T10:27:00Z</time>
      </trkpt>
      <trkpt lat="47.7278530" lon="9.2319210">
        <ele>31.2</ele>
        <time>2022-06-08T10:27:04Z</time>
      </trkpt>
      <trkpt lat="47.7277430" lon="9.2317610">
        <ele>31.2</ele>
        <time>2022-06-08T10:27:08Z</time>
      </trkpt>
      <trkpt lat="47.7276450" lon="9.2315710">
        <ele>30.6</ele>
        <time>2022-06-08T10:27:12Z</time>
      </trkpt>
      <trkpt lat="47.7275700" lon="9.2313510">
        <ele>31.0</ele>
        <time>2022-06-08T10:27:16Z</time>
      </trkpt>
      <trkpt lat="47.7275080" lon="9.2311260">
        <ele>31.2</ele>
        <time>2022-06-08T10:27:20Z</time>
      </trkpt>
      <trkpt lat="47.7274200" lon="9.2309280">
        <ele>30.8</ele>
        <time>2022-06-08T10:27:24Z</time>
      </trkpt>
      <trkpt lat="47.7273110" lon="9.2307510">
        <ele>30.6</ele>
        <time>2022-06-08T10:27:28Z</time>
      </trkpt>
      <trkpt lat="47.7271980" lon="9.2305950">
        <ele>29.4</ele>
        <time>2022-06-08T10:27:32Z</time>
      </trkpt>
      <trkpt lat="47.7270800" lon="9.2304400">
        <ele>30.0</ele>
        <time>2022-06-08T10:27:36Z</time>
      </trkpt>
      <trkpt lat="47.7269560" lon="9.2302760">
        <ele>29.2</ele>
        <time>2022-06-08T10:27:40Z</time>
      </trkpt>
      <trkpt lat="47.7268330" lon="9.2301060">
        <ele>28.6</ele>
        <time>2022-06-08T10:27:44Z</time>
      </trkpt>
      <trkpt lat="47.7267080" lon="9.2299380">
        <ele>29.2</ele>
        <time>2022-06-08T10:27:48Z</time>
      </trkpt>
      <trkpt lat="47.7265810" lon="9.2297900">
        <ele>29.4</ele>
        <time>2022-06-08T10:27:52Z</time>
      </trkpt>
      <trkpt lat="47.7264480" lon="9.2296400">
        <ele>28.8</ele>
        <time>2022-06-08T10:27:56Z</time>
      </trkpt>
      <trkpt lat="47.7262810" lon="9.2295650">
        <ele>29.0</ele>
        <time>2022-06-08T10:28:00Z</time>
      </trkpt>
      <trkpt lat="47.7261080" lon="9.2295110">
        <ele>28.6</ele>
        <time>2022-06-08T10:28:04Z</time>
      </trkpt>
      <trkpt lat="47.7259260" lon="9.2294750">
        <ele>28.8</ele>
        <time>2022-06-08T10:28:08Z</time>
      </trkpt>
      <trkpt lat="47.7257480" lon="9.2294330">
        <ele>29.2</ele>
        <time>2022-06-08T10:28:12Z</time>
      </trkpt>
      <trkpt lat="47.7255750" lon="9.2294000">
        <ele>28.8</ele>
        <time>2022-06-08T10:28:16Z</time>
      </trkpt>
      <trkpt lat="47.7253960" lon="9.2294010">
        <ele>28.8</ele>
        <time>2022-06-08T10:28:20Z</time>
      </trkpt>
      <trkpt lat="47.7252230" lon="9.2294080">
        <ele>29.6</ele>
        <time>2022-06-08T10:28:24Z</time>
      </trkpt>
      <trkpt lat="47.7250650" lon="9.2294150">
        <ele>29.6</ele>
        <time>2022-06-08T10:28:28Z</time>
      </trkpt>
      <trkpt lat="47.7248960" lon="9.2294260">
        <ele>29.4</ele>
        <time>2022-06-08T10:28:32Z</time>
      </trkpt>
      <trkpt lat="47.7247200" lon="9.2294510">
        <ele>29.6</ele>
        <time>2022-06-08T10:28:36Z</time>
      </trkpt>
      <trkpt lat="47.7245410" lon="9.2294930">
        <ele>29.6</ele>
        <time>2022-06-08T10:28:40Z</time>
      </trkpt>
      <trkpt lat="47.7243730" lon="9.2295400">
        <ele>29.6</ele>
        <time>2022-06-08T10:28:44Z</time>
      </trkpt>
      <trkpt lat="47.7242110" lon="9.2295580">
        <ele>29.0</ele>
        <time>2022-06-08T10:28:48Z</time>
      </trkpt>
      <trkpt lat="47.7240610" lon="9.2294680">
        <ele>30.0</ele>
        <time>2022-06-08T10:28:52Z</time>
      </trkpt>
      <trkpt lat="47.7239050" lon="9.2294900">
        <ele>29.6</ele>
        <time>2022-06-08T10:28:56Z</time>
      </trkpt>
      <trkpt lat="47.7237480" lon="9.2295400">
        <ele>29.6</ele>
        <time>2022-06-08T10:29:00Z</time>
      </trkpt>
      <trkpt lat="47.7235860" lon="9.2296030">
        <ele>29.6</ele>
        <time>2022-06-08T10:29:04Z</time>
      </trkpt>
      <trkpt lat="47.7234210" lon="9.2296930">
        <ele>29.8</ele>
        <time>2022-06-08T10:29:08Z</time>
      </trkpt>
      <trkpt lat="47.7232630" lon="9.2297910">
        <ele>29.6</ele>
        <time>2022-06-08T10:29:12Z</time>
      </trkpt>
      <trkpt lat="47.7231110" lon="9.2298860">
        <ele>28.8</ele>
        <time>2022-06-08T10:29:16Z</time>
      </trkpt>
      <trkpt lat="47.7229660" lon="9.2299650">
        <ele>29.2</ele>
        <time>2022-06-08T10:29:20Z</time>
      </trkpt>
      <trkpt lat="47.7228200" lon="9.2300650">
        <ele>30.4</ele>
        <time>2022-06-08T10:29:24Z</time>
      </trkpt>
      <trkpt lat="47.7226550" lon="9.2300850">
        <ele>30.4</ele>
        <time>2022-06-08T10:29:28Z</time>
      </trkpt>
      <trkpt lat="47.7224860" lon="9.2300680">
        <ele>30.0</ele>
        <time>2022-06-08T10:29:32Z</time>
      </trkpt>
      <trkpt lat="47.7223230" lon="9.2300660">
        <ele>30.0</ele>
        <time>2022-06-08T10:29:36Z</time>
      </trkpt>
      <trkpt lat="47.7221460" lon="9.2300930">
        <ele>30.2</ele>
        <time>2022-06-08T10:29:40Z</time>
      </trkpt>
      <trkpt lat="47.7219710" lon="9.2301660">
        <ele>30.6</ele>
        <time>2022-06-08T10:29:44Z</time>
      </trkpt>
      <trkpt lat="47.7217980" lon="9.2302480">
        <ele>30.8</ele>
        <time>2022-06-08T10:29:48Z</time>
      </trkpt>
      <trkpt lat="47.7216330" lon="9.2303280">
        <ele>30.4</ele>
        <time>2022-06-08T10:29:52Z</time>
      </trkpt>
      <trkpt lat="47.7214760" lon="9.2304060">
        <ele>30.4</ele>
        <time>2022-06-08T10:29:56Z</time>
      </trkpt>
      <trkpt lat="47.7213030" lon="9.2304700">
        <ele>30.2</ele>
        <time>2022-06-08T10:30:00Z</time>
      </trkpt>
      <trkpt lat="47.7211360" lon="9.2305510">
        <ele>30.0</ele>
        <time>2022-06-08T10:30:04Z</time>
      </trkpt>
      <trkpt lat="47.7209700" lon="9.2306300">
        <ele>30.2</ele>
        <time>2022-06-08T10:30:08Z</time>
      </trkpt>
      <trkpt lat="47.7208030" lon="9.2307030">
        <ele>30.4</ele>
        <time>2022-06-08T10:30:12Z</time>
      </trkpt>
      <trkpt lat="47.7206280" lon="9.2307800">
        <ele>30.4</ele>
        <time>2022-06-08T10:30:16Z</time>
      </trkpt>
      <trkpt lat="47.7204550" lon="9.2308660">
        <ele>30.2</ele>
        <time>2022-06-08T10:30:20Z</time>
      </trkpt>
      <trkpt lat="47.7202980" lon="9.2309580">
        <ele>30.8</ele>
        <time>2022-06-08T10:30:24Z</time>
      </trkpt>
      <trkpt lat="47.7201230" lon="9.2310310">
        <ele>30.4</ele>
        <time>2022-06-08T10:30:28Z</time>
      </trkpt>
      <trkpt lat="47.7199600" lon="9.2311500">
        <ele>30.6</ele>
        <time>2022-06-08T10:30:32Z</time>
      </trkpt>
      <trkpt lat="47.7198630" lon="9.2313410">
        <ele>31.4</ele>
        <time>2022-06-08T10:30:36Z</time>
      </trkpt>
      <trkpt lat="47.7198060" lon="9.2315730">
        <ele>31.2</ele>
        <time>2022-06-08T10:30:40Z</time>
      </trkpt>
      <trkpt lat="47.7196450" lon="9.2316480">
        <ele>31.0</ele>
        <time>2022-06-08T10:30:44Z</time>
      </trkpt>
      <trkpt lat="47.7194780" lon="9.2317060">
        <ele>31.0</ele>
        <time>2022-06-08T10:30:48Z</time>
      </trkpt>
      <trkpt lat="47.7193160" lon="9.2317860">
        <ele>31.2</ele>
        <time>2022-06-08T10:30:52Z</time>
      </trkpt>
      <trkpt lat="47.7191550" lon="9.2318780">
        <ele>31.8</ele>
        <time>2022-06-08T10:30:56Z</time>
      </trkpt>
      <trkpt lat="47.7190010" lon="9.2319860">
        <ele>32.0</ele>
        <time>2022-06-08T10:31:00Z</time>
      </trkpt>
      <trkpt lat="47.7188480" lon="9.2321180">
        <ele>32.0</ele>
        <time>2022-06-08T10:31:04Z</time>
      </trkpt>
      <trkpt lat="47.7186900" lon="9.2322680">
        <ele>31.0</ele>
        <time>2022-06-08T10:31:08Z</time>
      </trkpt>
      <trkpt lat="47.7185280" lon="9.2324250">
        <ele>31.4</ele>
        <time>2022-06-08T10:31:12Z</time>
      </trkpt>
      <trkpt lat="47.7183660" lon="9.2325910">
        <ele>31.6</ele>
        <time>2022-06-08T10:31:16Z</time>
      </trkpt>
      <trkpt lat="47.7181980" lon="9.2327560">
        <ele>30.8</ele>
        <time>2022-06-08T10:31:20Z</time>
      </trkpt>
      <trkpt lat="47.7180300" lon="9.2329210">
        <ele>31.6</ele>
        <time>2022-06-08T10:31:24Z</time>
      </trkpt>
      <trkpt lat="47.7178700" lon="9.2330910">
        <ele>31.6</ele>
        <time>2022-06-08T10:31:28Z</time>
      </trkpt>
      <trkpt lat="47.7177100" lon="9.2332550">
        <ele>30.8</ele>
        <time>2022-06-08T10:31:32Z</time>
      </trkpt>
      <trkpt lat="47.7175360" lon="9.2334150">
        <ele>30.8</ele>
        <time>2022-06-08T10:31:36Z</time>
      </trkpt>
      <trkpt lat="47.7173800" lon="9.2335800">
        <ele>30.6</ele>
        <time>2022-06-08T10:31:40Z</time>
      </trkpt>
      <trkpt lat="47.7172200" lon="9.2337500">
        <ele>30.6</ele>
        <time>2022-06-08T10:31:44Z</time>
      </trkpt>
      <trkpt lat="47.7170630" lon="9.2339260">
        <ele>31.0</ele>
        <time>2022-06-08T10:31:48Z</time>
      </trkpt>
      <trkpt lat="47.7169160" lon="9.2341210">
        <ele>30.2</ele>
        <time>2022-06-08T10:31:52Z</time>
      </trkpt>
      <trkpt lat="47.7167730" lon="9.2343280">
        <ele>30.8</ele>
        <time>2022-06-08T10:31:56Z</time>
      </trkpt>
      <trkpt lat="47.7166410" lon="9.2345450">
        <ele>30.8</ele>
        <time>2022-06-08T10:32:00Z</time>
      </trkpt>
      <trkpt lat="47.7165150" lon="9.2347680">
        <ele>30.2</ele>
        <time>2022-06-08T10:32:04Z</time>
      </trkpt>
      <trkpt lat="47.7163810" lon="9.2349960">
        <ele>30.0</ele>
        <time>2022-06-08T10:32:08Z</time>
      </trkpt>
      <trkpt lat="47.7162550" lon="9.2352060">
        <ele>30.2</ele>
        <time>2022-06-08T10:32:12Z</time>
      </trkpt>
      <trkpt lat="47.7161150" lon="9.2354330">
        <ele>30.8</ele>
        <time>2022-06-08T10:32:16Z</time>
      </trkpt>
      <trkpt lat="47.7159750" lon="9.2356560">
        <ele>30.4</ele>
        <time>2022-06-08T10:32:20Z</time>
      </trkpt>
      <trkpt lat="47.7158330" lon="9.2358680">
        <ele>30.6</ele>
        <time>2022-06-08T10:32:24Z</time>
      </trkpt>
      <trkpt lat="47.7156900" lon="9.2360800">
        <ele>30.0</ele>
        <time>2022-06-08T10:32:28Z</time>
      </trkpt>
      <trkpt lat="47.7155480" lon="9.2362860">
        <ele>30.4</ele>
        <time>2022-06-08T10:32:32Z</time>
      </trkpt>
      <trkpt lat="47.7154050" lon="9.2364880">
        <ele>31.0</ele>
        <time>2022-06-08T10:32:36Z</time>
      </trkpt>
      <trkpt lat="47.7152510" lon="9.2366780">
        <ele>30.8</ele>
        <time>2022-06-08T10:32:40Z</time>
      </trkpt>
      <trkpt lat="47.7151000" lon="9.2368600">
        <ele>31.6</ele>
        <time>2022-06-08T10:32:44Z</time>
      </trkpt>
      <trkpt lat="47.7149480" lon="9.2370330">
        <ele>31.4</ele>
        <time>2022-06-08T10:32:48Z</time>
      </trkpt>
      <trkpt lat="47.7147950" lon="9.2371950">
        <ele>31.4</ele>
        <time>2022-06-08T10:32:52Z</time>
      </trkpt>
      <trkpt lat="47.7146330" lon="9.2373580">
        <ele>32.4</ele>
        <time>2022-06-08T10:32:56Z</time>
      </trkpt>
      <trkpt lat="47.7144910" lon="9.2375080">
        <ele>32.6</ele>
        <time>2022-06-08T10:33:00Z</time>
      </trkpt>
      <trkpt lat="47.7143480" lon="9.2376610">
        <ele>32.8</ele>
        <time>2022-06-08T10:33:04Z</time>
      </trkpt>
      <trkpt lat="47.7142000" lon="9.2378060">
        <ele>33.0</ele>
        <time>2022-06-08T10:33:08Z</time>
      </trkpt>
      <trkpt lat="47.7140480" lon="9.2379460">
        <ele>33.6</ele>
        <time>2022-06-08T10:33:12Z</time>
      </trkpt>
      <trkpt lat="47.7138960" lon="9.2380830">
        <ele>33.6</ele>
        <time>2022-06-08T10:33:16Z</time>
      </trkpt>
      <trkpt lat="47.7137400" lon="9.2382110">
        <ele>33.8</ele>
        <time>2022-06-08T10:33:20Z</time>
      </trkpt>
      <trkpt lat="47.7135900" lon="9.2383400">
        <ele>34.2</ele>
        <time>2022-06-08T10:33:24Z</time>
      </trkpt>
      <trkpt lat="47.7134410" lon="9.2384600">
        <ele>35.0</ele>
        <time>2022-06-08T10:33:28Z</time>
      </trkpt>
      <trkpt lat="47.7132960" lon="9.2385850">
        <ele>34.2</ele>
        <time>2022-06-08T10:33:32Z</time>
      </trkpt>
      <trkpt lat="47.7131460" lon="9.2387160">
        <ele>34.8</ele>
        <time>2022-06-08T10:33:36Z</time>
      </trkpt>
      <trkpt lat="47.7129930" lon="9.2388380">
        <ele>34.6</ele>
        <time>2022-06-08T10:33:40Z</time>
      </trkpt>
      <trkpt lat="47.7128450" lon="9.2389650">
        <ele>35.2</ele>
        <time>2022-06-08T10:33:44Z</time>
      </trkpt>
      <trkpt lat="47.7126960" lon="9.2390930">
        <ele>35.4</ele>
        <time>2022-06-08T10:33:48Z</time>
      </trkpt>
      <trkpt lat="47.7125510" lon="9.2392150">
        <ele>35.6</ele>
        <time>2022-06-08T10:33:52Z</time>
      </trkpt>
      <trkpt lat="47.7124160" lon="9.2393250">
        <ele>36.2</ele>
        <time>2022-06-08T10:33:56Z</time>
      </trkpt>
      <trkpt lat="47.7122700" lon="9.2394430">
        <ele>36.4</ele>
        <time>2022-06-08T10:34:00Z</time>
      </trkpt>
      <trkpt lat="47.7121250" lon="9.2395680">
        <ele>36.4</ele>
        <time>2022-06-08T10:34:04Z</time>
      </trkpt>
      <trkpt lat="47.7119850" lon="9.2397000">
        <ele>36.0</ele>
        <time>2022-06-08T10:34:08Z</time>
      </trkpt>
      <trkpt lat="47.7118410" lon="9.2398200">
        <ele>36.6</ele>
        <time>2022-06-08T10:34:12Z</time>
      </trkpt>
      <trkpt lat="47.7116800" lon="9.2399550">
        <ele>36.8</ele>
        <time>2022-06-08T10:34:16Z</time>
      </trkpt>
      <trkpt lat="47.7115280" lon="9.2401010">
        <ele>37.4</ele>
        <time>2022-06-08T10:34:20Z</time>
      </trkpt>
      <trkpt lat="47.7113760" lon="9.2402350">
        <ele>37.2</ele>
        <time>2022-06-08T10:34:24Z</time>
      </trkpt>
      <trkpt lat="47.7112330" lon="9.2403610">
        <ele>37.2</ele>
        <time>2022-06-08T10:34:28Z</time>
      </trkpt>
      <trkpt lat="47.7111030" lon="9.2404830">
        <ele>37.0</ele>
        <time>2022-06-08T10:34:32Z</time>
      </trkpt>
      <trkpt lat="47.7109660" lon="9.2406510">
        <ele>37.0</ele>
        <time>2022-06-08T10:34:36Z</time>
      </trkpt>
      <trkpt lat="47.7107980" lon="9.2408110">
        <ele>36.6</ele>
        <time>2022-06-08T10:34:40Z</time>
      </trkpt>
      <trkpt lat="47.7106280" lon="9.2410010">
        <ele>36.4</ele>
        <time>2022-06-08T10:34:44Z</time>
      </trkpt>
      <trkpt lat="47.7104600" lon="9.2411660">
        <ele>36.2</ele>
        <time>2022-06-08T10:34:48Z</time>
      </trkpt>
      <trkpt lat="47.7102960" lon="9.2413410">
        <ele>36.0</ele>
        <time>2022-06-08T10:34:52Z</time>
      </trkpt>
      <trkpt lat="47.7101210" lon="9.2415130">
        <ele>36.2</ele>
        <time>2022-06-08T10:34:56Z</time>
      </trkpt>
      <trkpt lat="47.7099530" lon="9.2416930">
        <ele>35.8</ele>
        <time>2022-06-08T10:35:00Z</time>
      </trkpt>
      <trkpt lat="47.7097750" lon="9.2418650">
        <ele>35.8</ele>
        <time>2022-06-08T10:35:04Z</time>
      </trkpt>
      <trkpt lat="47.7096010" lon="9.2420430">
        <ele>35.6</ele>
        <time>2022-06-08T10:35:08Z</time>
      </trkpt>
      <trkpt lat="47.7094360" lon="9.2422130">
        <ele>33.8</ele>
        <time>2022-06-08T10:35:12Z</time>
      </trkpt>
      <trkpt lat="47.7092700" lon="9.2423700">
        <ele>34.4</ele>
        <time>2022-06-08T10:35:16Z</time>
      </trkpt>
      <trkpt lat="47.7091000" lon="9.2425380">
        <ele>33.6</ele>
        <time>2022-06-08T10:35:20Z</time>
      </trkpt>
      <trkpt lat="47.7089430" lon="9.2427110">
        <ele>33.8</ele>
        <time>2022-06-08T10:35:24Z</time>
      </trkpt>
      <trkpt lat="47.7087810" lon="9.2428780">
        <ele>34.2</ele>
        <time>2022-06-08T10:35:28Z</time>
      </trkpt>
      <trkpt lat="47.7086200" lon="9.2430510">
        <ele>33.8</ele>
        <time>2022-06-08T10:35:32Z</time>
      </trkpt>
      <trkpt lat="47.7084560" lon="9.2432380">
        <ele>33.8</ele>
        <time>2022-06-08T10:35:36Z</time>
      </trkpt>
      <trkpt lat="47.7082930" lon="9.2434230">
        <ele>33.0</ele>
        <time>2022-06-08T10:35:40Z</time>
      </trkpt>
      <trkpt lat="47.7081350" lon="9.2436130">
        <ele>32.8</ele>
        <time>2022-06-08T10:35:44Z</time>
      </trkpt>
      <trkpt lat="47.7079810" lon="9.2437980">
        <ele>32.2</ele>
        <time>2022-06-08T10:35:48Z</time>
      </trkpt>
      <trkpt lat="47.7078300" lon="9.2439960">
        <ele>33.0</ele>
        <time>2022-06-08T10:35:52Z</time>
      </trkpt>
      <trkpt lat="47.7076760" lon="9.2441950">
        <ele>31.6</ele>
        <time>2022-06-08T10:35:56Z</time>
      </trkpt>
      <trkpt lat="47.7075310" lon="9.2443950">
        <ele>32.2</ele>
        <time>2022-06-08T10:36:00Z</time>
      </trkpt>
      <trkpt lat="47.7073880" lon="9.2445960">
        <ele>32.8</ele>
        <time>2022-06-08T10:36:04Z</time>
      </trkpt>
      <trkpt lat="47.7072460" lon="9.2447910">
        <ele>32.4</ele>
        <time>2022-06-08T10:36:08Z</time>
      </trkpt>
      <trkpt lat="47.7071110" lon="9.2449960">
        <ele>32.4</ele>
        <time>2022-06-08T10:36:12Z</time>
      </trkpt>
      <trkpt lat="47.7069710" lon="9.2451980">
        <ele>32.2</ele>
        <time>2022-06-08T10:36:16Z</time>
      </trkpt>
      <trkpt lat="47.7068250" lon="9.2454030">
        <ele>32.2</ele>
        <time>2022-06-08T10:36:20Z</time>
      </trkpt>
      <trkpt lat="47.7066860" lon="9.2456180">
        <ele>32.4</ele>
        <time>2022-06-08T10:36:24Z</time>
      </trkpt>
      <trkpt lat="47.7065480" lon="9.2458250">
        <ele>32.0</ele>
        <time>2022-06-08T10:36:28Z</time>
      </trkpt>
      <trkpt lat="47.7064180" lon="9.2460380">
        <ele>32.2</ele>
        <time>2022-06-08T10:36:32Z</time>
      </trkpt>
      <trkpt lat="47.7062730" lon="9.2462460">
        <ele>32.2</ele>
        <time>2022-06-08T10:36:36Z</time>
      </trkpt>
      <trkpt lat="47.7061460" lon="9.2464330">
        <ele>32.2</ele>
        <time>2022-06-08T10:36:40Z</time>
      </trkpt>
      <trkpt lat="47.7060150" lon="9.2466230">
        <ele>32.2</ele>
        <time>2022-06-08T10:36:44Z</time>
      </trkpt>
      <trkpt lat="47.7058860" lon="9.2468150">
        <ele>31.8</ele>
        <time>2022-06-08T10:36:48Z</time>
      </trkpt>
      <trkpt lat="47.7057550" lon="9.2470130">
        <ele>32.0</ele>
        <time>2022-06-08T10:36:52Z</time>
      </trkpt>
      <trkpt lat="47.7056230" lon="9.2472080">
        <ele>31.8</ele>
        <time>2022-06-08T10:36:56Z</time>
      </trkpt>
      <trkpt lat="47.7055000" lon="9.2473950">
        <ele>32.2</ele>
        <time>2022-06-08T10:37:00Z</time>
      </trkpt>
      <trkpt lat="47.7053700" lon="9.2475950">
        <ele>32.4</ele>
        <time>2022-06-08T10:37:04Z</time>
      </trkpt>
      <trkpt lat="47.7052410" lon="9.2477860">
        <ele>32.6</ele>
        <time>2022-06-08T10:37:08Z</time>
      </trkpt>
      <trkpt lat="47.7051130" lon="9.2479680">
        <ele>33.0</ele>
        <time>2022-06-08T10:37:12Z</time>
      </trkpt>
      <trkpt lat="47.7049900" lon="9.2481510">
        <ele>32.8</ele>
        <time>2022-06-08T10:37:16Z</time>
      </trkpt>
      <trkpt lat="47.7048650" lon="9.2483500">
        <ele>31.6</ele>
        <time>2022-06-08T10:37:20Z</time>
      </trkpt>
      <trkpt lat="47.7047330" lon="9.2485450">
        <ele>32.2</ele>
        <time>2022-06-08T10:37:24Z</time>
      </trkpt>
      <trkpt lat="47.7045950" lon="9.2487380">
        <ele>32.2</ele>
        <time>2022-06-08T10:37:28Z</time>
      </trkpt>
      <trkpt lat="47.7044710" lon="9.2489360">
        <ele>32.8</ele>
        <time>2022-06-08T10:37:32Z</time>
      </trkpt>
      <trkpt lat="47.7043360" lon="9.2491350">
        <ele>32.2</ele>
        <time>2022-06-08T10:37:36Z</time>
      </trkpt>
      <trkpt lat="47.7042030" lon="9.2493360">
        <ele>33.0</ele>
        <time>2022-06-08T10:37:40Z</time>
      </trkpt>
      <trkpt lat="47.7040660" lon="9.2495330">
        <ele>32.6</ele>
        <time>2022-06-08T10:37:44Z</time>
      </trkpt>
      <trkpt lat="47.7039360" lon="9.2497360">
        <ele>32.8</ele>
        <time>2022-06-08T10:37:48Z</time>
      </trkpt>
      <trkpt lat="47.7038030" lon="9.2499400">
        <ele>33.0</ele>
        <time>2022-06-08T10:37:52Z</time>
      </trkpt>
      <trkpt lat="47.7036750" lon="9.2501410">
        <ele>32.4</ele>
        <time>2022-06-08T10:37:56Z</time>
      </trkpt>
      <trkpt lat="47.7035510" lon="9.2503460">
        <ele>32.4</ele>
        <time>2022-06-08T10:38:00Z</time>
      </trkpt>
      <trkpt lat="47.7034180" lon="9.2505580">
        <ele>33.0</ele>
        <time>2022-06-08T10:38:04Z</time>
      </trkpt>
      <trkpt lat="47.7032850" lon="9.2507730">
        <ele>32.6</ele>
        <time>2022-06-08T10:38:08Z</time>
      </trkpt>
      <trkpt lat="47.7031510" lon="9.2509780">
        <ele>32.6</ele>
        <time>2022-06-08T10:38:12Z</time>
      </trkpt>
      <trkpt lat="47.7030210" lon="9.2511860">
        <ele>33.0</ele>
        <time>2022-06-08T10:38:16Z</time>
      </trkpt>
      <trkpt lat="47.7028980" lon="9.2513730">
        <ele>32.6</ele>
        <time>2022-06-08T10:38:20Z</time>
      </trkpt>
      <trkpt lat="47.7027680" lon="9.2515760">
        <ele>32.4</ele>
        <time>2022-06-08T10:38:24Z</time>
      </trkpt>
      <trkpt lat="47.7026330" lon="9.2517860">
        <ele>33.0</ele>
        <time>2022-06-08T10:38:28Z</time>
      </trkpt>
      <trkpt lat="47.7024980" lon="9.2520050">
        <ele>33.0</ele>
        <time>2022-06-08T10:38:32Z</time>
      </trkpt>
      <trkpt lat="47.7023650" lon="9.2522050">
        <ele>33.2</ele>
        <time>2022-06-08T10:38:36Z</time>
      </trkpt>
      <trkpt lat="47.7022330" lon="9.2524130">
        <ele>33.6</ele>
        <time>2022-06-08T10:38:40Z</time>
      </trkpt>
      <trkpt lat="47.7021050" lon="9.2526080">
        <ele>32.4</ele>
        <time>2022-06-08T10:38:44Z</time>
      </trkpt>
      <trkpt lat="47.7019850" lon="9.2528050">
        <ele>32.6</ele>
        <time>2022-06-08T10:38:48Z</time>
      </trkpt>
      <trkpt lat="47.7018600" lon="9.2530010">
        <ele>33.0</ele>
        <time>2022-06-08T10:38:52Z</time>
      </trkpt>
      <trkpt lat="47.7017280" lon="9.2532010">
        <ele>33.2</ele>
        <time>2022-06-08T10:38:56Z</time>
      </trkpt>
      <trkpt lat="47.7016050" lon="9.2534010">
        <ele>33.0</ele>
        <time>2022-06-08T10:39:00Z</time>
      </trkpt>
      <trkpt lat="47.7014760" lon="9.2536010">
        <ele>33.0</ele>
        <time>2022-06-08T10:39:04Z</time>
      </trkpt>
      <trkpt lat="47.7013460" lon="9.2538180">
        <ele>32.2</ele>
        <time>2022-06-08T10:39:08Z</time>
      </trkpt>
      <trkpt lat="47.7012200" lon="9.2540180">
        <ele>32.2</ele>
        <time>2022-06-08T10:39:12Z</time>
      </trkpt>
      <trkpt lat="47.7011010" lon="9.2542130">
        <ele>32.4</ele>
        <time>2022-06-08T10:39:16Z</time>
      </trkpt>
      <trkpt lat="47.7009780" lon="9.2544050">
        <ele>32.6</ele>
        <time>2022-06-08T10:39:20Z</time>
      </trkpt>
      <trkpt lat="47.7008480" lon="9.2546050">
        <ele>32.8</ele>
        <time>2022-06-08T10:39:24Z</time>
      </trkpt>
      <trkpt lat="47.7007160" lon="9.2548130">
        <ele>32.0</ele>
        <time>2022-06-08T10:39:28Z</time>
      </trkpt>
      <trkpt lat="47.7005830" lon="9.2550280">
        <ele>32.2</ele>
        <time>2022-06-08T10:39:32Z</time>
      </trkpt>
      <trkpt lat="47.7004480" lon="9.2552430">
        <ele>32.2</ele>
        <time>2022-06-08T10:39:36Z</time>
      </trkpt>
      <trkpt lat="47.7003150" lon="9.2554580">
        <ele>32.4</ele>
        <time>2022-06-08T10:39:40Z</time>
      </trkpt>
      <trkpt lat="47.7001850" lon="9.2556580">
        <ele>31.6</ele>
        <time>2022-06-08T10:39:44Z</time>
      </trkpt>
      <trkpt lat="47.7000610" lon="9.2558660">
        <ele>31.8</ele>
        <time>2022-06-08T10:39:48Z</time>
      </trkpt>
      <trkpt lat="47.6999360" lon="9.2560730">
        <ele>31.6</ele>
        <time>2022-06-08T10:39:52Z</time>
      </trkpt>
      <trkpt lat="47.6997880" lon="9.2562850">
        <ele>32.2</ele>
        <time>2022-06-08T10:39:56Z</time>
      </trkpt>
      <trkpt lat="47.6996530" lon="9.2564860">
        <ele>32.4</ele>
        <time>2022-06-08T10:40:00Z</time>
      </trkpt>
      <trkpt lat="47.6995250" lon="9.2567030">
        <ele>32.0</ele>
        <time>2022-06-08T10:40:04Z</time>
      </trkpt>
      <trkpt lat="47.6993960" lon="9.2569150">
        <ele>32.0</ele>
        <time>2022-06-08T10:40:08Z</time>
      </trkpt>
      <trkpt lat="47.6992830" lon="9.2571200">
        <ele>32.2</ele>
        <time>2022-06-08T10:40:12Z</time>
      </trkpt>
      <trkpt lat="47.6991630" lon="9.2573330">
        <ele>32.0</ele>
        <time>2022-06-08T10:40:16Z</time>
      </trkpt>
      <trkpt lat="47.6990380" lon="9.2575530">
        <ele>32.2</ele>
        <time>2022-06-08T10:40:20Z</time>
      </trkpt>
      <trkpt lat="47.6989100" lon="9.2577800">
        <ele>31.6</ele>
        <time>2022-06-08T10:40:24Z</time>
      </trkpt>
      <trkpt lat="47.6987880" lon="9.2579860">
        <ele>31.8</ele>
        <time>2022-06-08T10:40:28Z</time>
      </trkpt>
      <trkpt lat="47.6986780" lon="9.2581810">
        <ele>31.8</ele>
        <time>2022-06-08T10:40:32Z</time>
      </trkpt>
      <trkpt lat="47.6985750" lon="9.2583780">
        <ele>32.0</ele>
        <time>2022-06-08T10:40:36Z</time>
      </trkpt>
      <trkpt lat="47.6984730" lon="9.2585900">
        <ele>32.2</ele>
        <time>2022-06-08T10:40:40Z</time>
      </trkpt>
      <trkpt lat="47.6983660" lon="9.2588080">
        <ele>31.8</ele>
        <time>2022-06-08T10:40:44Z</time>
      </trkpt>
      <trkpt lat="47.6982560" lon="9.2590300">
        <ele>31.8</ele>
        <time>2022-06-08T10:40:48Z</time>
      </trkpt>
      <trkpt lat="47.6981650" lon="9.2592150">
        <ele>32.0</ele>
        <time>2022-06-08T10:40:52Z</time>
      </trkpt>
      <trkpt lat="47.6980960" lon="9.2593730">
        <ele>32.2</ele>
        <time>2022-06-08T10:40:56Z</time>
      </trkpt>
      <trkpt lat="47.6980180" lon="9.2595460">
        <ele>32.0</ele>
        <time>2022-06-08T10:41:00Z</time>
      </trkpt>
      <trkpt lat="47.6979230" lon="9.2597780">
        <ele>31.6</ele>
        <time>2022-06-08T10:41:04Z</time>
      </trkpt>
      <trkpt lat="47.6978150" lon="9.2600550">
        <ele>31.8</ele>
        <time>2022-06-08T10:41:08Z</time>
      </trkpt>
      <trkpt lat="47.6977060" lon="9.2603450">
        <ele>32.2</ele>
        <time>2022-06-08T10:41:12Z</time>
      </trkpt>
      <trkpt lat="47.6976060" lon="9.2606100">
        <ele>32.0</ele>
        <time>2022-06-08T10:41:16Z</time>
      </trkpt>
      <trkpt lat="47.6975060" lon="9.2608710">
        <ele>32.2</ele>
        <time>2022-06-08T10:41:20Z</time>
      </trkpt>
      <trkpt lat="47.6974150" lon="9.2611210">
        <ele>32.0</ele>
        <time>2022-06-08T10:41:24Z</time>
      </trkpt>
      <trkpt lat="47.6973130" lon="9.2613650">
        <ele>32.4</ele>
        <time>2022-06-08T10:41:28Z</time>
      </trkpt>
      <trkpt lat="47.6972060" lon="9.2615900">
        <ele>32.2</ele>
        <time>2022-06-08T10:41:32Z</time>
      </trkpt>
      <trkpt lat="47.6970950" lon="9.2618160">
        <ele>32.6</ele>
        <time>2022-06-08T10:41:36Z</time>
      </trkpt>
      <trkpt lat="47.6969880" lon="9.2620380">
        <ele>31.8</ele>
        <time>2022-06-08T10:41:40Z</time>
      </trkpt>
      <trkpt lat="47.6968800" lon="9.2622650">
        <ele>32.2</ele>
        <time>2022-06-08T10:41:44Z</time>
      </trkpt>
      <trkpt lat="47.6967750" lon="9.2624960">
        <ele>31.8</ele>
        <time>2022-06-08T10:41:48Z</time>
      </trkpt>
      <trkpt lat="47.6966680" lon="9.2627210">
        <ele>31.6</ele>
        <time>2022-06-08T10:41:52Z</time>
      </trkpt>
      <trkpt lat="47.6965610" lon="9.2629600">
        <ele>32.0</ele>
        <time>2022-06-08T10:41:56Z</time>
      </trkpt>
      <trkpt lat="47.6964460" lon="9.2631950">
        <ele>31.6</ele>
        <time>2022-06-08T10:42:00Z</time>
      </trkpt>
      <trkpt lat="47.6963300" lon="9.2634280">
        <ele>31.6</ele>
        <time>2022-06-08T10:42:04Z</time>
      </trkpt>
      <trkpt lat="47.6962130" lon="9.2636360">
        <ele>32.2</ele>
        <time>2022-06-08T10:42:08Z</time>
      </trkpt>
      <trkpt lat="47.6960950" lon="9.2637850">
        <ele>31.8</ele>
        <time>2022-06-08T10:42:12Z</time>
      </trkpt>
      <trkpt lat="47.6959410" lon="9.2639810">
        <ele>31.6</ele>
        <time>2022-06-08T10:42:16Z</time>
      </trkpt>
      <trkpt lat="47.6957880" lon="9.2641850">
        <ele>32.6</ele>
        <time>2022-06-08T10:42:20Z</time>
      </trkpt>
      <trkpt lat="47.6956500" lon="9.2643560">
        <ele>32.2</ele>
        <time>2022-06-08T10:42:24Z</time>
      </trkpt>
      <trkpt lat="47.6955050" lon="9.2645250">
        <ele>31.6</ele>
        <time>2022-06-08T10:42:28Z</time>
      </trkpt>
      <trkpt lat="47.6953580" lon="9.2646810">
        <ele>31.8</ele>
        <time>2022-06-08T10:42:32Z</time>
      </trkpt>
      <trkpt lat="47.6952200" lon="9.2648280">
        <ele>32.2</ele>
        <time>2022-06-08T10:42:36Z</time>
      </trkpt>
      <trkpt lat="47.6950860" lon="9.2649900">
        <ele>32.2</ele>
        <time>2022-06-08T10:42:40Z</time>
      </trkpt>
      <trkpt lat="47.6949510" lon="9.2651310">
        <ele>32.2</ele>
        <time>2022-06-08T10:42:44Z</time>
      </trkpt>
      <trkpt lat="47.6948350" lon="9.2653110">
        <ele>32.4</ele>
        <time>2022-06-08T10:42:48Z</time>
      </trkpt>
      <trkpt lat="47.6947160" lon="9.2654900">
        <ele>32.4</ele>
        <time>2022-06-08T10:42:52Z</time>
      </trkpt>
      <trkpt lat="47.6945960" lon="9.2656660">
        <ele>32.0</ele>
        <time>2022-06-08T10:42:56Z</time>
      </trkpt>
      <trkpt lat="47.6944810" lon="9.2658530">
        <ele>32.2</ele>
        <time>2022-06-08T10:43:00Z</time>
      </trkpt>
      <trkpt lat="47.6943800" lon="9.2660160">
        <ele>32.0</ele>
        <time>2022-06-08T10:43:04Z</time>
      </trkpt>
      <trkpt lat="47.6942950" lon="9.2661550">
        <ele>32.0</ele>
        <time>2022-06-08T10:43:08Z</time>
      </trkpt>
      <trkpt lat="47.6941600" lon="9.2662210">
        <ele>31.0</ele>
        <time>2022-06-08T10:43:12Z</time>
      </trkpt>
      <trkpt lat="47.6940560" lon="9.2663410">
        <ele>31.6</ele>
        <time>2022-06-08T10:43:16Z</time>
      </trkpt>
      <trkpt lat="47.6940310" lon="9.2665410">
        <ele>31.6</ele>
        <time>2022-06-08T10:43:20Z</time>
      </trkpt>
      <trkpt lat="47.6940180" lon="9.2667860">
        <ele>31.6</ele>
        <time>2022-06-08T10:43:24Z</time>
      </trkpt>
      <trkpt lat="47.6940110" lon="9.2670310">
        <ele>31.8</ele>
        <time>2022-06-08T10:43:28Z</time>
      </trkpt>
      <trkpt lat="47.6940050" lon="9.2672460">
        <ele>32.4</ele>
        <time>2022-06-08T10:43:32Z</time>
      </trkpt>
      <trkpt lat="47.6939950" lon="9.2674300">
        <ele>32.2</ele>
        <time>2022-06-08T10:43:36Z</time>
      </trkpt>
      <trkpt lat="47.6939560" lon="9.2676250">
        <ele>32.2</ele>
        <time>2022-06-08T10:43:40Z</time>
      </trkpt>
      <trkpt lat="47.6939410" lon="9.2678430">
        <ele>32.8</ele>
        <time>2022-06-08T10:43:44Z</time>
      </trkpt>
      <trkpt lat="47.6939130" lon="9.2680560">
        <ele>33.6</ele>
        <time>2022-06-08T10:43:48Z</time>
      </trkpt>
      <trkpt lat="47.6939250" lon="9.2682530">
        <ele>33.2</ele>
        <time>2022-06-08T10:43:52Z</time>
      </trkpt>
      <trkpt lat="47.6939450" lon="9.2684310">
        <ele>34.2</ele>
        <time>2022-06-08T10:43:56Z</time>
      </trkpt>
      <trkpt lat="47.6939680" lon="9.2686030">
        <ele>34.2</ele>
        <time>2022-06-08T10:44:00Z</time>
      </trkpt>
      <trkpt lat="47.6939310" lon="9.2688280">
        <ele>33.2</ele>
        <time>2022-06-08T10:44:04Z</time>
      </trkpt>
      <trkpt lat="47.6938510" lon="9.2690260">
        <ele>32.6</ele>
        <time>2022-06-08T10:44:08Z</time>
      </trkpt>
      <trkpt lat="47.6937380" lon="9.2691300">
        <ele>32.0</ele>
        <time>2022-06-08T10:44:12Z</time>
      </trkpt>
      <trkpt lat="47.6936600" lon="9.2691560">
        <ele>31.4</ele>
        <time>2022-06-08T10:44:16Z</time>
      </trkpt>
      <trkpt lat="47.6936250" lon="9.2692010">
        <ele>32.0</ele>
        <time>2022-06-08T10:44:20Z</time>
      </trkpt>
      <trkpt lat="47.6936250" lon="9.2692010">
        <ele>31.6</ele>
        <time>2022-06-08T10:44:24Z</time>
      </trkpt>
      <trkpt lat="47.6936250" lon="9.2692010">
        <ele>32.0</ele>
        <time>2022-06-08T10:44:28Z</time>
      </trkpt>
      <trkpt lat="47.6936250" lon="9.2692010">
        <ele>31.8</ele>
        <time>2022-06-08T10:44:32Z</time>
      </trkpt>
      <trkpt lat="47.6936250" lon="9.2692010">
        <ele>32.0</ele>
        <time>2022-06-08T10:44:36Z</time>
      </trkpt>
      <trkpt lat="47.6936250" lon="9.2692010">
        <ele>32.0</ele>
        <time>2022-06-08T10:44:40Z</time>
      </trkpt>
      <trkpt lat="47.6936250" lon="9.2692010">
        <ele>32.2</ele>
        <time>2022-06-08T10:44:44Z</time>
      </trkpt>
      <trkpt lat="47.6936250" lon="9.2692010">
        <ele>31.6</ele>
        <time>2022-06-08T10:44:48Z</time>
      </trkpt>
      <trkpt lat="47.6936250" lon="9.2692010">
        <ele>32.0</ele>
        <time>2022-06-08T10:44:52Z</time>
      </trkpt>
      <trkpt lat="47.6936980" lon="9.2692000">
        <ele>32.0</ele>
        <time>2022-06-08T10:44:56Z</time>
      </trkpt>
      <trkpt lat="47.6936210" lon="9.2693600">
        <ele>32.2</ele>
        <time>2022-06-08T10:45:00Z</time>
      </trkpt>
      <trkpt lat="47.6935350" lon="9.2695380">
        <ele>31.0</ele>
        <time>2022-06-08T10:45:04Z</time>
      </trkpt>
      <trkpt lat="47.6934630" lon="9.2696960">
        <ele>31.2</ele>
        <time>2022-06-08T10:45:08Z</time>
      </trkpt>
      <trkpt lat="47.6934060" lon="9.2698700">
        <ele>31.0</ele>
        <time>2022-06-08T10:45:12Z</time>
      </trkpt>
      <trkpt lat="47.6933650" lon="9.2700000">
        <ele>31.0</ele>
        <time>2022-06-08T10:45:16Z</time>
      </trkpt>
      <trkpt lat="47.6933160" lon="9.2700980">
        <ele>31.0</ele>
        <time>2022-06-08T10:45:20Z</time>
      </trkpt>
      <trkpt lat="47.6932710" lon="9.2702460">
        <ele>30.8</ele>
        <time>2022-06-08T10:45:24Z</time>
      </trkpt>
      <trkpt lat="47.6932250" lon="9.2703750">
        <ele>31.0</ele>
        <time>2022-06-08T10:45:28Z</time>
      </trkpt>
      <trkpt lat="47.6931960" lon="9.2704380">
        <ele>31.2</ele>
        <time>2022-06-08T10:45:32Z</time>
      </trkpt>
      <trkpt lat="47.6931830" lon="9.2704980">
        <ele>30.6</ele>
        <time>2022-06-08T10:45:36Z</time>
      </trkpt>
      <trkpt lat="47.6931580" lon="9.2705530">
        <ele>30.4</ele>
        <time>2022-06-08T10:45:40Z</time>
      </trkpt>
      <trkpt lat="47.6931360" lon="9.2706300">
        <ele>30.8</ele>
        <time>2022-06-08T10:45:44Z</time>
      </trkpt>
      <trkpt lat="47.6930810" lon="9.2707530">
        <ele>30.8</ele>
        <time>2022-06-08T10:45:48Z</time>
      </trkpt>
      <trkpt lat="47.6930310" lon="9.2708780">
        <ele>30.4</ele>
        <time>2022-06-08T10:45:52Z</time>
      </trkpt>
      <trkpt lat="47.6929760" lon="9.2710080">
        <ele>30.6</ele>
        <time>2022-06-08T10:45:56Z</time>
      </trkpt>
      <trkpt lat="47.6929350" lon="9.2711330">
        <ele>30.2</ele>
        <time>2022-06-08T10:46:00Z</time>
      </trkpt>
      <trkpt lat="47.6928660" lon="9.2712700">
        <ele>30.6</ele>
        <time>2022-06-08T10:46:04Z</time>
      </trkpt>
      <trkpt lat="47.6928010" lon="9.2714710">
        <ele>31.4</ele>
        <time>2022-06-08T10:46:08Z</time>
      </trkpt>
      <trkpt lat="47.6927280" lon="9.2716850">
        <ele>31.0</ele>
        <time>2022-06-08T10:46:12Z</time>
      </trkpt>
      <trkpt lat="47.6926760" lon="9.2718800">
        <ele>31.0</ele>
        <time>2022-06-08T10:46:16Z</time>
      </trkpt>
      <trkpt lat="47.6926300" lon="9.2720310">
        <ele>31.0</ele>
        <time>2022-06-08T10:46:20Z</time>
      </trkpt>
      <trkpt lat="47.6925710" lon="9.2722110">
        <ele>31.2</ele>
        <time>2022-06-08T10:46:24Z</time>
      </trkpt>
      <trkpt lat="47.6925380" lon="9.2724200">
        <ele>32.2</ele>
        <time>2022-06-08T10:46:28Z</time>
      </trkpt>
      <trkpt lat="47.6925000" lon="9.2726430">
        <ele>32.0</ele>
        <time>2022-06-08T10:46:32Z</time>
      </trkpt>
      <trkpt lat="47.6924600" lon="9.2728450">
        <ele>32.4</ele>
        <time>2022-06-08T10:46:36Z</time>
      </trkpt>
      <trkpt lat="47.6923980" lon="9.2730560">
        <ele>32.4</ele>
        <time>2022-06-08T10:46:40Z</time>
      </trkpt>
      <trkpt lat="47.6923280" lon="9.2732800">
        <ele>32.2</ele>
        <time>2022-06-08T10:46:44Z</time>
      </trkpt>
      <trkpt lat="47.6922630" lon="9.2735230">
        <ele>32.8</ele>
        <time>2022-06-08T10:46:48Z</time>
      </trkpt>
      <trkpt lat="47.6922060" lon="9.2737860">
        <ele>32.2</ele>
        <time>2022-06-08T10:46:52Z</time>
      </trkpt>
      <trkpt lat="47.6921510" lon="9.2740500">
        <ele>32.0</ele>
        <time>2022-06-08T10:46:56Z</time>
      </trkpt>
      <trkpt lat="47.6921050" lon="9.2742930">
        <ele>32.2</ele>
        <time>2022-06-08T10:47:00Z</time>
      </trkpt>
      <trkpt lat="47.6920510" lon="9.2745310">
        <ele>32.4</ele>
        <time>2022-06-08T10:47:04Z</time>
      </trkpt>
      <trkpt lat="47.6919780" lon="9.2747680">
        <ele>31.8</ele>
        <time>2022-06-08T10:47:08Z</time>
      </trkpt>
      <trkpt lat="47.6918710" lon="9.2750050">
        <ele>32.2</ele>
        <time>2022-06-08T10:47:12Z</time>
      </trkpt>
      <trkpt lat="47.6917610" lon="9.2752500">
        <ele>32.4</ele>
        <time>2022-06-08T10:47:16Z</time>
      </trkpt>
      <trkpt lat="47.6916450" lon="9.2755000">
        <ele>32.2</ele>
        <time>2022-06-08T10:47:20Z</time>
      </trkpt>
      <trkpt lat="47.6915260" lon="9.2757360">
        <ele>32.2</ele>
        <time>2022-06-08T10:47:24Z</time>
      </trkpt>
      <trkpt lat="47.6914050" lon="9.2759860">
        <ele>32.0</ele>
        <time>2022-06-08T10:47:28Z</time>
      </trkpt>
      <trkpt lat="47.6913160" lon="9.2762380">
        <ele>32.6</ele>
        <time>2022-06-08T10:47:32Z</time>
      </trkpt>
      <trkpt lat="47.6912160" lon="9.2764810">
        <ele>32.6</ele>
        <time>2022-06-08T10:47:36Z</time>
      </trkpt>
      <trkpt lat="47.6911150" lon="9.2767080">
        <ele>32.4</ele>
        <time>2022-06-08T10:47:40Z</time>
      </trkpt>
      <trkpt lat="47.6910030" lon="9.2769530">
        <ele>31.6</ele>
        <time>2022-06-08T10:47:44Z</time>
      </trkpt>
      <trkpt lat="47.6908860" lon="9.2771860">
        <ele>32.4</ele>
        <time>2022-06-08T10:47:48Z</time>
      </trkpt>
      <trkpt lat="47.6907580" lon="9.2774010">
        <ele>32.0</ele>
        <time>2022-06-08T10:47:52Z</time>
      </trkpt>
      <trkpt lat="47.6906330" lon="9.2776230">
        <ele>32.2</ele>
        <time>2022-06-08T10:47:56Z</time>
      </trkpt>
      <trkpt lat="47.6905100" lon="9.2778500">
        <ele>32.8</ele>
        <time>2022-06-08T10:48:00Z</time>
      </trkpt>
      <trkpt lat="47.6903780" lon="9.2780700">
        <ele>32.0</ele>
        <time>2022-06-08T10:48:04Z</time>
      </trkpt>
      <trkpt lat="47.6902500" lon="9.2782950">
        <ele>33.0</ele>
        <time>2022-06-08T10:48:08Z</time>
      </trkpt>
      <trkpt lat="47.6901310" lon="9.2785280">
        <ele>33.2</ele>
        <time>2022-06-08T10:48:12Z</time>
      </trkpt>
      <trkpt lat="47.6900300" lon="9.2787760">
        <ele>33.6</ele>
        <time>2022-06-08T10:48:16Z</time>
      </trkpt>
      <trkpt lat="47.6899450" lon="9.2790200">
        <ele>32.8</ele>
        <time>2022-06-08T10:48:20Z</time>
      </trkpt>
      <trkpt lat="47.6898680" lon="9.2792510">
        <ele>32.8</ele>
        <time>2022-06-08T10:48:24Z</time>
      </trkpt>
      <trkpt lat="47.6898010" lon="9.2794450">
        <ele>34.0</ele>
        <time>2022-06-08T10:48:28Z</time>
      </trkpt>
      <trkpt lat="47.6897130" lon="9.2796230">
        <ele>33.6</ele>
        <time>2022-06-08T10:48:32Z</time>
      </trkpt>
      <trkpt lat="47.6896260" lon="9.2797650">
        <ele>33.2</ele>
        <time>2022-06-08T10:48:36Z</time>
      </trkpt>
      <trkpt lat="47.6895360" lon="9.2798880">
        <ele>33.6</ele>
        <time>2022-06-08T10:48:40Z</time>
      </trkpt>
      <trkpt lat="47.6894630" lon="9.2800280">
        <ele>33.6</ele>
        <time>2022-06-08T10:48:44Z</time>
      </trkpt>
      <trkpt lat="47.6894100" lon="9.2801660">
        <ele>33.2</ele>
        <time>2022-06-08T10:48:48Z</time>
      </trkpt>
      <trkpt lat="47.6893630" lon="9.2802480">
        <ele>33.4</ele>
        <time>2022-06-08T10:48:52Z</time>
      </trkpt>
      <trkpt lat="47.6893630" lon="9.2802480">
        <ele>33.2</ele>
        <time>2022-06-08T10:48:56Z</time>
      </trkpt>
      <trkpt lat="47.6893630" lon="9.2802480">
        <ele>33.6</ele>
        <time>2022-06-08T10:49:00Z</time>
      </trkpt>
      <trkpt lat="47.6893630" lon="9.2802480">
        <ele>33.0</ele>
        <time>2022-06-08T10:49:04Z</time>
      </trkpt>
      <trkpt lat="47.6893630" lon="9.2802480">
        <ele>33.2</ele>
        <time>2022-06-08T10:49:08Z</time>
      </trkpt>
      <trkpt lat="47.6893630" lon="9.2802480">
        <ele>33.4</ele>
        <time>2022-06-08T10:49:12Z</time>
      </trkpt>
      <trkpt lat="47.6893630" lon="9.2802480">
        <ele>33.2</ele>
        <time>2022-06-08T10:49:16Z</time>
      </trkpt>
      <trkpt lat="47.6893630" lon="9.2802480">
        <ele>33.0</ele>
        <time>2022-06-08T10:49:20Z</time>
      </trkpt>
      <trkpt lat="47.6893630" lon="9.2802480">
        <ele>33.6</ele>
        <time>2022-06-08T10:49:24Z</time>
      </trkpt>
      <trkpt lat="47.6893630" lon="9.2802480">
        <ele>33.6</ele>
        <time>2022-06-08T10:49:28Z</time>
      </trkpt>
      <trkpt lat="47.6893630" lon="9.2802480">
        <ele>33.4</ele>
        <time>2022-06-08T10:49:32Z</time>
      </trkpt>
      <trkpt lat="47.6893630" lon="9.2802480">
        <ele>33.4</ele>
        <time>2022-06-08T10:49:36Z</time>
      </trkpt>
      <trkpt lat="47.6893630" lon="9.2802480">
        <ele>33.2</ele>
        <time>2022-06-08T10:49:40Z</time>
      </trkpt>
      <trkpt lat="47.6893630" lon="9.2802480">
        <ele>33.0</ele>
        <time>2022-06-08T10:49:44Z</time>
      </trkpt>
      <trkpt lat="47.6893580" lon="9.2802000">
        <ele>33.2</ele>
        <time>2022-06-08T10:49:48Z</time>
      </trkpt>
      <trkpt lat="47.6892910" lon="9.2802680">
        <ele>33.4</ele>
        <time>2022-06-08T10:49:52Z</time>
      </trkpt>
      <trkpt lat="47.6891860" lon="9.2804010">
        <ele>32.4</ele>
        <time>2022-06-08T10:49:56Z</time>
      </trkpt>
      <trkpt lat="47.6890560" lon="9.2805610">
        <ele>32.2</ele>
        <time>2022-06-08T10:50:00Z</time>
      </trkpt>
      <trkpt lat="47.6889100" lon="9.2807050">
        <ele>32.6</ele>
        <time>2022-06-08T10:50:04Z</time>
      </trkpt>
      <trkpt lat="47.6887630" lon="9.2808450">
        <ele>32.6</ele>
        <time>2022-06-08T10:50:08Z</time>
      </trkpt>
      <trkpt lat="47.6886180" lon="9.2809900">
        <ele>32.8</ele>
        <time>2022-06-08T10:50:12Z</time>
      </trkpt>
      <trkpt lat="47.6884800" lon="9.2811610">
        <ele>32.4</ele>
        <time>2022-06-08T10:50:16Z</time>
      </trkpt>
      <trkpt lat="47.6883580" lon="9.2813460">
        <ele>32.4</ele>
        <time>2022-06-08T10:50:20Z</time>
      </trkpt>
      <trkpt lat="47.6882360" lon="9.2815410">
        <ele>32.4</ele>
        <time>2022-06-08T10:50:24Z</time>
      </trkpt>
      <trkpt lat="47.6881110" lon="9.2817300">
        <ele>33.0</ele>
        <time>2022-06-08T10:50:28Z</time>
      </trkpt>
      <trkpt lat="47.6880210" lon="9.2819480">
        <ele>32.8</ele>
        <time>2022-06-08T10:50:32Z</time>
      </trkpt>
      <trkpt lat="47.6879600" lon="9.2821630">
        <ele>32.6</ele>
        <time>2022-06-08T10:50:36Z</time>
      </trkpt>
      <trkpt lat="47.6879330" lon="9.2823950">
        <ele>33.0</ele>
        <time>2022-06-08T10:50:40Z</time>
      </trkpt>
      <trkpt lat="47.6878930" lon="9.2826280">
        <ele>33.0</ele>
        <time>2022-06-08T10:50:44Z</time>
      </trkpt>
      <trkpt lat="47.6878300" lon="9.2828430">
        <ele>33.2</ele>
        <time>2022-06-08T10:50:48Z</time>
      </trkpt>
      <trkpt lat="47.6877450" lon="9.2830400">
        <ele>33.2</ele>
        <time>2022-06-08T10:50:52Z</time>
      </trkpt>
      <trkpt lat="47.6876560" lon="9.2832350">
        <ele>33.6</ele>
        <time>2022-06-08T10:50:56Z</time>
      </trkpt>
      <trkpt lat="47.6875660" lon="9.2834300">
        <ele>33.6</ele>
        <time>2022-06-08T10:51:00Z</time>
      </trkpt>
      <trkpt lat="47.6874750" lon="9.2836230">
        <ele>33.6</ele>
        <time>2022-06-08T10:51:04Z</time>
      </trkpt>
      <trkpt lat="47.6873780" lon="9.2838080">
        <ele>34.2</ele>
        <time>2022-06-08T10:51:08Z</time>
      </trkpt>
      <trkpt lat="47.6872730" lon="9.2839900">
        <ele>33.8</ele>
        <time>2022-06-08T10:51:12Z</time>
      </trkpt>
      <trkpt lat="47.6871660" lon="9.2841610">
        <ele>35.0</ele>
        <time>2022-06-08T10:51:16Z</time>
      </trkpt>
      <trkpt lat="47.6870300" lon="9.2842960">
        <ele>35.0</ele>
        <time>2022-06-08T10:51:20Z</time>
      </trkpt>
      <trkpt lat="47.6868930" lon="9.2844260">
        <ele>34.8</ele>
        <time>2022-06-08T10:51:24Z</time>
      </trkpt>
      <trkpt lat="47.6867500" lon="9.2845600">
        <ele>35.2</ele>
        <time>2022-06-08T10:51:28Z</time>
      </trkpt>
      <trkpt lat="47.6866030" lon="9.2847030">
        <ele>35.2</ele>
        <time>2022-06-08T10:51:32Z</time>
      </trkpt>
      <trkpt lat="47.6864680" lon="9.2848710">
        <ele>35.0</ele>
        <time>2022-06-08T10:51:36Z</time>
      </trkpt>
      <trkpt lat="47.6863380" lon="9.2850600">
        <ele>35.0</ele>
        <time>2022-06-08T10:51:40Z</time>
      </trkpt>
      <trkpt lat="47.6862060" lon="9.2852580">
        <ele>34.4</ele>
        <time>2022-06-08T10:51:44Z</time>
      </trkpt>
      <trkpt lat="47.6860810" lon="9.2854450">
        <ele>34.2</ele>
        <time>2022-06-08T10:51:48Z</time>
      </trkpt>
      <trkpt lat="47.6859480" lon="9.2856530">
        <ele>33.8</ele>
        <time>2022-06-08T10:51:52Z</time>
      </trkpt>
      <trkpt lat="47.6858230" lon="9.2858630">
        <ele>33.6</ele>
        <time>2022-06-08T10:51:56Z</time>
      </trkpt>
      <trkpt lat="47.6856960" lon="9.2860650">
        <ele>33.6</ele>
        <time>2022-06-08T10:52:00Z</time>
      </trkpt>
      <trkpt lat="47.6855550" lon="9.2862380">
        <ele>33.0</ele>
        <time>2022-06-08T10:52:04Z</time>
      </trkpt>
      <trkpt lat="47.6854030" lon="9.2863950">
        <ele>33.0</ele>
        <time>2022-06-08T10:52:08Z</time>
      </trkpt>
      <trkpt lat="47.6852560" lon="9.2865500">
        <ele>33.0</ele>
        <time>2022-06-08T10:52:12Z</time>
      </trkpt>
      <trkpt lat="47.6851410" lon="9.2867210">
        <ele>32.2</ele>
        <time>2022-06-08T10:52:16Z</time>
      </trkpt>
      <trkpt lat="47.6850460" lon="9.2869010">
        <ele>32.8</ele>
        <time>2022-06-08T10:52:20Z</time>
      </trkpt>
      <trkpt lat="47.6849450" lon="9.2870800">
        <ele>32.4</ele>
        <time>2022-06-08T10:52:24Z</time>
      </trkpt>
      <trkpt lat="47.6848450" lon="9.2872480">
        <ele>32.6</ele>
        <time>2022-06-08T10:52:28Z</time>
      </trkpt>
      <trkpt lat="47.6847980" lon="9.2873510">
        <ele>32.6</ele>
        <time>2022-06-08T10:52:32Z</time>
      </trkpt>
      <trkpt lat="47.6847980" lon="9.2873510">
        <ele>32.8</ele>
        <time>2022-06-08T10:52:36Z</time>
      </trkpt>
      <trkpt lat="47.6847980" lon="9.2873510">
        <ele>33.0</ele>
        <time>2022-06-08T10:52:40Z</time>
      </trkpt>
      <trkpt lat="47.6847980" lon="9.2873510">
        <ele>32.8</ele>
        <time>2022-06-08T10:52:44Z</time>
      </trkpt>
      <trkpt lat="47.6847980" lon="9.2873510">
        <ele>32.4</ele>
        <time>2022-06-08T10:52:48Z</time>
      </trkpt>
      <trkpt lat="47.6847980" lon="9.2873510">
        <ele>33.0</ele>
        <time>2022-06-08T10:52:52Z</time>
      </trkpt>
      <trkpt lat="47.6847960" lon="9.2873880">
        <ele>33.0</ele>
        <time>2022-06-08T10:52:56Z</time>
      </trkpt>
      <trkpt lat="47.6847810" lon="9.2875130">
        <ele>32.8</ele>
        <time>2022-06-08T10:53:00Z</time>
      </trkpt>
      <trkpt lat="47.6847800" lon="9.2876960">
        <ele>32.4</ele>
        <time>2022-06-08T10:53:04Z</time>
      </trkpt>
      <trkpt lat="47.6847880" lon="9.2879230">
        <ele>33.0</ele>
        <time>2022-06-08T10:53:08Z</time>
      </trkpt>
      <trkpt lat="47.6847330" lon="9.2881500">
        <ele>33.6</ele>
        <time>2022-06-08T10:53:12Z</time>
      </trkpt>
      <trkpt lat="47.6846250" lon="9.2883300">
        <ele>33.4</ele>
        <time>2022-06-08T10:53:16Z</time>
      </trkpt>
      <trkpt lat="47.6845050" lon="9.2884930">
        <ele>34.6</ele>
        <time>2022-06-08T10:53:20Z</time>
      </trkpt>
      <trkpt lat="47.6843830" lon="9.2886560">
        <ele>33.4</ele>
        <time>2022-06-08T10:53:24Z</time>
      </trkpt>
      <trkpt lat="47.6842600" lon="9.2888110">
        <ele>33.6</ele>
        <time>2022-06-08T10:53:28Z</time>
      </trkpt>
      <trkpt lat="47.6841230" lon="9.2889260">
        <ele>34.8</ele>
        <time>2022-06-08T10:53:32Z</time>
      </trkpt>
      <trkpt lat="47.6839650" lon="9.2889510">
        <ele>33.2</ele>
        <time>2022-06-08T10:53:36Z</time>
      </trkpt>
      <trkpt lat="47.6838010" lon="9.2890280">
        <ele>33.0</ele>
        <time>2022-06-08T10:53:40Z</time>
      </trkpt>
      <trkpt lat="47.6836660" lon="9.2892200">
        <ele>33.8</ele>
        <time>2022-06-08T10:53:44Z</time>
      </trkpt>
      <trkpt lat="47.6835500" lon="9.2894380">
        <ele>33.6</ele>
        <time>2022-06-08T10:53:48Z</time>
      </trkpt>
      <trkpt lat="47.6834300" lon="9.2896360">
        <ele>33.8</ele>
        <time>2022-06-08T10:53:52Z</time>
      </trkpt>
      <trkpt lat="47.6833100" lon="9.2898310">
        <ele>33.8</ele>
        <time>2022-06-08T10:53:56Z</time>
      </trkpt>
      <trkpt lat="47.6831850" lon="9.2900160">
        <ele>34.4</ele>
        <time>2022-06-08T10:54:00Z</time>
      </trkpt>
      <trkpt lat="47.6830660" lon="9.2902130">
        <ele>34.2</ele>
        <time>2022-06-08T10:54:04Z</time>
      </trkpt>
      <trkpt lat="47.6829450" lon="9.2904260">
        <ele>33.8</ele>
        <time>2022-06-08T10:54:08Z</time>
      </trkpt>
      <trkpt lat="47.6828150" lon="9.2906410">
        <ele>34.2</ele>
        <time>2022-06-08T10:54:12Z</time>
      </trkpt>
      <trkpt lat="47.6826800" lon="9.2908350">
        <ele>33.8</ele>
        <time>2022-06-08T10:54:16Z</time>
      </trkpt>
      <trkpt lat="47.6825310" lon="9.2910100">
        <ele>33.8</ele>
        <time>2022-06-08T10:54:20Z</time>
      </trkpt>
      <trkpt lat="47.6824100" lon="9.2912430">
        <ele>33.2</ele>
        <time>2022-06-08T10:54:24Z</time>
      </trkpt>
      <trkpt lat="47.6822980" lon="9.2915010">
        <ele>33.6</ele>
        <time>2022-06-08T10:54:28Z</time>
      </trkpt>
      <trkpt lat="47.6821910" lon="9.2917760">
        <ele>33.8</ele>
        <time>2022-06-08T10:54:32Z</time>
      </trkpt>
      <trkpt lat="47.6820860" lon="9.2920430">
        <ele>34.2</ele>
        <time>2022-06-08T10:54:36Z</time>
      </trkpt>
      <trkpt lat="47.6820030" lon="9.2923060">
        <ele>33.8</ele>
        <time>2022-06-08T10:54:40Z</time>
      </trkpt>
      <trkpt lat="47.6819300" lon="9.2925610">
        <ele>34.6</ele>
        <time>2022-06-08T10:54:44Z</time>
      </trkpt>
      <trkpt lat="47.6818430" lon="9.2928260">
        <ele>34.8</ele>
        <time>2022-06-08T10:54:48Z</time>
      </trkpt>
      <trkpt lat="47.6817560" lon="9.2930910">
        <ele>34.0</ele>
        <time>2022-06-08T10:54:52Z</time>
      </trkpt>
      <trkpt lat="47.6816730" lon="9.2933450">
        <ele>35.2</ele>
        <time>2022-06-08T10:54:56Z</time>
      </trkpt>
      <trkpt lat="47.6816000" lon="9.2935860">
        <ele>35.6</ele>
        <time>2022-06-08T10:55:00Z</time>
      </trkpt>
      <trkpt lat="47.6815410" lon="9.2938260">
        <ele>35.6</ele>
        <time>2022-06-08T10:55:04Z</time>
      </trkpt>
      <trkpt lat="47.6815000" lon="9.2940430">
        <ele>35.6</ele>
        <time>2022-06-08T10:55:08Z</time>
      </trkpt>
      <trkpt lat="47.6814450" lon="9.2942510">
        <ele>35.8</ele>
        <time>2022-06-08T10:55:12Z</time>
      </trkpt>
      <trkpt lat="47.6813960" lon="9.2944400">
        <ele>35.6</ele>
        <time>2022-06-08T10:55:16Z</time>
      </trkpt>
      <trkpt lat="47.6813500" lon="9.2946500">
        <ele>35.6</ele>
        <time>2022-06-08T10:55:20Z</time>
      </trkpt>
      <trkpt lat="47.6812710" lon="9.2949280">
        <ele>35.6</ele>
        <time>2022-06-08T10:55:24Z</time>
      </trkpt>
      <trkpt lat="47.6811880" lon="9.2951750">
        <ele>35.4</ele>
        <time>2022-06-08T10:55:28Z</time>
      </trkpt>
      <trkpt lat="47.6811100" lon="9.2954250">
        <ele>35.0</ele>
        <time>2022-06-08T10:55:32Z</time>
      </trkpt>
      <trkpt lat="47.6810350" lon="9.2957030">
        <ele>35.4</ele>
        <time>2022-06-08T10:55:36Z</time>
      </trkpt>
      <trkpt lat="47.6809650" lon="9.2959560">
        <ele>35.6</ele>
        <time>2022-06-08T10:55:40Z</time>
      </trkpt>
      <trkpt lat="47.6809000" lon="9.2961850">
        <ele>35.6</ele>
        <time>2022-06-08T10:55:44Z</time>
      </trkpt>
      <trkpt lat="47.6807880" lon="9.2964150">
        <ele>35.6</ele>
        <time>2022-06-08T10:55:48Z</time>
      </trkpt>
      <trkpt lat="47.6806830" lon="9.2966460">
        <ele>35.8</ele>
        <time>2022-06-08T10:55:52Z</time>
      </trkpt>
      <trkpt lat="47.6805550" lon="9.2968930">
        <ele>35.4</ele>
        <time>2022-06-08T10:55:56Z</time>
      </trkpt>
      <trkpt lat="47.6804350" lon="9.2970880">
        <ele>35.4</ele>
        <time>2022-06-08T10:56:00Z</time>
      </trkpt>
      <trkpt lat="47.6803010" lon="9.2973230">
        <ele>35.6</ele>
        <time>2022-06-08T10:56:04Z</time>
      </trkpt>
      <trkpt lat="47.6801600" lon="9.2976100">
        <ele>35.4</ele>
        <time>2022-06-08T10:56:08Z</time>
      </trkpt>
      <trkpt lat="47.6800180" lon="9.2978460">
        <ele>35.4</ele>
        <time>2022-06-08T10:56:12Z</time>
      </trkpt>
      <trkpt lat="47.6798850" lon="9.2980800">
        <ele>34.8</ele>
        <time>2022-06-08T10:56:16Z</time>
      </trkpt>
      <trkpt lat="47.6797650" lon="9.2983580">
        <ele>34.6</ele>
        <time>2022-06-08T10:56:20Z</time>
      </trkpt>
      <trkpt lat="47.6796600" lon="9.2986380">
        <ele>34.6</ele>
        <time>2022-06-08T10:56:24Z</time>
      </trkpt>
      <trkpt lat="47.6795650" lon="9.2989610">
        <ele>34.4</ele>
        <time>2022-06-08T10:56:28Z</time>
      </trkpt>
      <trkpt lat="47.6794800" lon="9.2992200">
        <ele>35.0</ele>
        <time>2022-06-08T10:56:32Z</time>
      </trkpt>
      <trkpt lat="47.6794110" lon="9.2994600">
        <ele>34.4</ele>
        <time>2022-06-08T10:56:36Z</time>
      </trkpt>
      <trkpt lat="47.6793300" lon="9.2997050">
        <ele>35.0</ele>
        <time>2022-06-08T10:56:40Z</time>
      </trkpt>
      <trkpt lat="47.6792500" lon="9.2999430">
        <ele>35.2</ele>
        <time>2022-06-08T10:56:44Z</time>
      </trkpt>
      <trkpt lat="47.6791660" lon="9.3001810">
        <ele>35.6</ele>
        <time>2022-06-08T10:56:48Z</time>
      </trkpt>
      <trkpt lat="47.6790710" lon="9.3004700">
        <ele>34.6</ele>
        <time>2022-06-08T10:56:52Z</time>
      </trkpt>
      <trkpt lat="47.6789750" lon="9.3007050">
        <ele>34.4</ele>
        <time>2022-06-08T10:56:56Z</time>
      </trkpt>
      <trkpt lat="47.6788950" lon="9.3008830">
        <ele>34.2</ele>
        <time>2022-06-08T10:57:00Z</time>
      </trkpt>
      <trkpt lat="47.6788150" lon="9.3010580">
        <ele>34.2</ele>
        <time>2022-06-08T10:57:04Z</time>
      </trkpt>
      <trkpt lat="47.6787310" lon="9.3012800">
        <ele>34.2</ele>
        <time>2022-06-08T10:57:08Z</time>
      </trkpt>
      <trkpt lat="47.6786450" lon="9.3015530">
        <ele>33.6</ele>
        <time>2022-06-08T10:57:12Z</time>
      </trkpt>
      <trkpt lat="47.6785500" lon="9.3018150">
        <ele>34.2</ele>
        <time>2022-06-08T10:57:16Z</time>
      </trkpt>
      <trkpt lat="47.6784530" lon="9.3020760">
        <ele>34.2</ele>
        <time>2022-06-08T10:57:20Z</time>
      </trkpt>
      <trkpt lat="47.6783530" lon="9.3023230">
        <ele>34.4</ele>
        <time>2022-06-08T10:57:24Z</time>
      </trkpt>
      <trkpt lat="47.6782560" lon="9.3025930">
        <ele>34.2</ele>
        <time>2022-06-08T10:57:28Z</time>
      </trkpt>
      <trkpt lat="47.6781500" lon="9.3028500">
        <ele>34.4</ele>
        <time>2022-06-08T10:57:32Z</time>
      </trkpt>
      <trkpt lat="47.6780280" lon="9.3030600">
        <ele>34.4</ele>
        <time>2022-06-08T10:57:36Z</time>
      </trkpt>
      <trkpt lat="47.6779030" lon="9.3032230">
        <ele>34.4</ele>
        <time>2022-06-08T10:57:40Z</time>
      </trkpt>
      <trkpt lat="47.6777760" lon="9.3034080">
        <ele>34.6</ele>
        <time>2022-06-08T10:57:44Z</time>
      </trkpt>
      <trkpt lat="47.6776480" lon="9.3035980">
        <ele>33.8</ele>
        <time>2022-06-08T10:57:48Z</time>
      </trkpt>
      <trkpt lat="47.6775210" lon="9.3037810">
        <ele>33.6</ele>
        <time>2022-06-08T10:57:52Z</time>
      </trkpt>
      <trkpt lat="47.6774210" lon="9.3040130">
        <ele>33.6</ele>
        <time>2022-06-08T10:57:56Z</time>
      </trkpt>
      <trkpt lat="47.6773510" lon="9.3043000">
        <ele>34.0</ele>
        <time>2022-06-08T10:58:00Z</time>
      </trkpt>
      <trkpt lat="47.6772830" lon="9.3046010">
        <ele>33.8</ele>
        <time>2022-06-08T10:58:04Z</time>
      </trkpt>
      <trkpt lat="47.6772150" lon="9.3049130">
        <ele>34.2</ele>
        <time>2022-06-08T10:58:08Z</time>
      </trkpt>
      <trkpt lat="47.6771330" lon="9.3052250">
        <ele>34.2</ele>
        <time>2022-06-08T10:58:12Z</time>
      </trkpt>
      <trkpt lat="47.6770480" lon="9.3055200">
        <ele>34.2</ele>
        <time>2022-06-08T10:58:16Z</time>
      </trkpt>
      <trkpt lat="47.6769700" lon="9.3058250">
        <ele>34.0</ele>
        <time>2022-06-08T10:58:20Z</time>
      </trkpt>
      <trkpt lat="47.6768800" lon="9.3061230">
        <ele>34.2</ele>
        <time>2022-06-08T10:58:24Z</time>
      </trkpt>
      <trkpt lat="47.6767780" lon="9.3064080">
        <ele>34.0</ele>
        <time>2022-06-08T10:58:28Z</time>
      </trkpt>
      <trkpt lat="47.6766750" lon="9.3066680">
        <ele>34.4</ele>
        <time>2022-06-08T10:58:32Z</time>
      </trkpt>
      <trkpt lat="47.6765510" lon="9.3069080">
        <ele>34.0</ele>
        <time>2022-06-08T10:58:36Z</time>
      </trkpt>
      <trkpt lat="47.6764210" lon="9.3071280">
        <ele>34.6</ele>
        <time>2022-06-08T10:58:40Z</time>
      </trkpt>
      <trkpt lat="47.6762860" lon="9.3073480">
        <ele>34.4</ele>
        <time>2022-06-08T10:58:44Z</time>
      </trkpt>
      <trkpt lat="47.6761460" lon="9.3075580">
        <ele>34.0</ele>
        <time>2022-06-08T10:58:48Z</time>
      </trkpt>
      <trkpt lat="47.6760000" lon="9.3077630">
        <ele>33.6</ele>
        <time>2022-06-08T10:58:52Z</time>
      </trkpt>
      <trkpt lat="47.6758660" lon="9.3079700">
        <ele>34.4</ele>
        <time>2022-06-08T10:58:56Z</time>
      </trkpt>
      <trkpt lat="47.6757360" lon="9.3081810">
        <ele>34.6</ele>
        <time>2022-06-08T10:59:00Z</time>
      </trkpt>
      <trkpt lat="47.6756130" lon="9.3083800">
        <ele>34.4</ele>
        <time>2022-06-08T10:59:04Z</time>
      </trkpt>
      <trkpt lat="47.6754830" lon="9.3085660">
        <ele>33.6</ele>
        <time>2022-06-08T10:59:08Z</time>
      </trkpt>
      <trkpt lat="47.6753730" lon="9.3087710">
        <ele>33.8</ele>
        <time>2022-06-08T10:59:12Z</time>
      </trkpt>
      <trkpt lat="47.6752600" lon="9.3089550">
        <ele>34.2</ele>
        <time>2022-06-08T10:59:16Z</time>
      </trkpt>
      <trkpt lat="47.6751430" lon="9.3091710">
        <ele>34.4</ele>
        <time>2022-06-08T10:59:20Z</time>
      </trkpt>
      <trkpt lat="47.6750260" lon="9.3094000">
        <ele>34.2</ele>
        <time>2022-06-08T10:59:24Z</time>
      </trkpt>
      <trkpt lat="47.6749080" lon="9.3096200">
        <ele>33.6</ele>
        <time>2022-06-08T10:59:28Z</time>
      </trkpt>
      <trkpt lat="47.6748000" lon="9.3098430">
        <ele>33.8</ele>
        <time>2022-06-08T10:59:32Z</time>
      </trkpt>
      <trkpt lat="47.6746980" lon="9.3100730">
        <ele>33.8</ele>
        <time>2022-06-08T10:59:36Z</time>
      </trkpt>
      <trkpt lat="47.6745950" lon="9.3103150">
        <ele>34.4</ele>
        <time>2022-06-08T10:59:40Z</time>
      </trkpt>
      <trkpt lat="47.6744950" lon="9.3105530">
        <ele>34.4</ele>
        <time>2022-06-08T10:59:44Z</time>
      </trkpt>
      <trkpt lat="47.6743910" lon="9.3107850">
        <ele>33.6</ele>
        <time>2022-06-08T10:59:48Z</time>
      </trkpt>
      <trkpt lat="47.6742880" lon="9.3110210">
        <ele>33.4</ele>
        <time>2022-06-08T10:59:52Z</time>
      </trkpt>
      <trkpt lat="47.6742000" lon="9.3112760">
        <ele>33.4</ele>
        <time>2022-06-08T10:59:56Z</time>
      </trkpt>
      <trkpt lat="47.6741200" lon="9.3115380">
        <ele>33.6</ele>
        <time>2022-06-08T11:00:00Z</time>
      </trkpt>
      <trkpt lat="47.6740460" lon="9.3117960">
        <ele>33.0</ele>
        <time>2022-06-08T11:00:04Z</time>
      </trkpt>
      <trkpt lat="47.6739700" lon="9.3120500">
        <ele>33.6</ele>
        <time>2022-06-08T11:00:08Z</time>
      </trkpt>
      <trkpt lat="47.6739010" lon="9.3123030">
        <ele>33.4</ele>
        <time>2022-06-08T11:00:12Z</time>
      </trkpt>
      <trkpt lat="47.6738330" lon="9.3125380">
        <ele>33.6</ele>
        <time>2022-06-08T11:00:16Z</time>
      </trkpt>
      <trkpt lat="47.6737680" lon="9.3127830">
        <ele>33.4</ele>
        <time>2022-06-08T11:00:20Z</time>
      </trkpt>
      <trkpt lat="47.6737660" lon="9.3130500">
        <ele>33.0</ele>
        <time>2022-06-08T11:00:24Z</time>
      </trkpt>
      <trkpt lat="47.6738010" lon="9.3133250">
        <ele>32.2</ele>
        <time>2022-06-08T11:00:28Z</time>
      </trkpt>
      <trkpt lat="47.6738460" lon="9.3135950">
        <ele>32.6</ele>
        <time>2022-06-08T11:00:32Z</time>
      </trkpt>
      <trkpt lat="47.6739110" lon="9.3138610">
        <ele>32.2</ele>
        <time>2022-06-08T11:00:36Z</time>
      </trkpt>
      <trkpt lat="47.6739710" lon="9.3141010">
        <ele>32.4</ele>
        <time>2022-06-08T11:00:40Z</time>
      </trkpt>
      <trkpt lat="47.6740550" lon="9.3143510">
        <ele>32.8</ele>
        <time>2022-06-08T11:00:44Z</time>
      </trkpt>
      <trkpt lat="47.6741400" lon="9.3145950">
        <ele>32.8</ele>
        <time>2022-06-08T11:00:48Z</time>
      </trkpt>
      <trkpt lat="47.6741830" lon="9.3148500">
        <ele>31.8</ele>
        <time>2022-06-08T11:00:52Z</time>
      </trkpt>
      <trkpt lat="47.6741930" lon="9.3151330">
        <ele>32.0</ele>
        <time>2022-06-08T11:00:56Z</time>
      </trkpt>
      <trkpt lat="47.6742010" lon="9.3154050">
        <ele>32.8</ele>
        <time>2022-06-08T11:01:00Z</time>
      </trkpt>
      <trkpt lat="47.6741510" lon="9.3156750">
        <ele>33.0</ele>
        <time>2022-06-08T11:01:04Z</time>
      </trkpt>
      <trkpt lat="47.6740760" lon="9.3159330">
        <ele>32.6</ele>
        <time>2022-06-08T11:01:08Z</time>
      </trkpt>
      <trkpt lat="47.6740130" lon="9.3161830">
        <ele>32.2</ele>
        <time>2022-06-08T11:01:12Z</time>
      </trkpt>
      <trkpt lat="47.6739480" lon="9.3164400">
        <ele>33.6</ele>
        <time>2022-06-08T11:01:16Z</time>
      </trkpt>
      <trkpt lat="47.6739310" lon="9.3167150">
        <ele>32.8</ele>
        <time>2022-06-08T11:01:20Z</time>
      </trkpt>
      <trkpt lat="47.6739000" lon="9.3169980">
        <ele>32.8</ele>
        <time>2022-06-08T11:01:24Z</time>
      </trkpt>
      <trkpt lat="47.6738600" lon="9.3172680">
        <ele>32.8</ele>
        <time>2022-06-08T11:01:28Z</time>
      </trkpt>
      <trkpt lat="47.6738580" lon="9.3175260">
        <ele>33.6</ele>
        <time>2022-06-08T11:01:32Z</time>
      </trkpt>
      <trkpt lat="47.6739660" lon="9.3176280">
        <ele>33.6</ele>
        <time>2022-06-08T11:01:36Z</time>
      </trkpt>
      <trkpt lat="47.6741060" lon="9.3176730">
        <ele>33.6</ele>
        <time>2022-06-08T11:01:40Z</time>
      </trkpt>
      <trkpt lat="47.6742630" lon="9.3177610">
        <ele>34.4</ele>
        <time>2022-06-08T11:01:44Z</time>
      </trkpt>
      <trkpt lat="47.6744080" lon="9.3178610">
        <ele>35.6</ele>
        <time>2022-06-08T11:01:48Z</time>
      </trkpt>
      <trkpt lat="47.6745400" lon="9.3179510">
        <ele>36.4</ele>
        <time>2022-06-08T11:01:52Z</time>
      </trkpt>
      <trkpt lat="47.6746600" lon="9.3180630">
        <ele>37.4</ele>
        <time>2022-06-08T11:01:56Z</time>
      </trkpt>
      <trkpt lat="47.6747560" lon="9.3181510">
        <ele>38.2</ele>
        <time>2022-06-08T11:02:00Z</time>
      </trkpt>
      <trkpt lat="47.6748350" lon="9.3182480">
        <ele>38.4</ele>
        <time>2022-06-08T11:02:04Z</time>
      </trkpt>
      <trkpt lat="47.6748100" lon="9.3183700">
        <ele>39.2</ele>
        <time>2022-06-08T11:02:08Z</time>
      </trkpt>
      <trkpt lat="47.6747060" lon="9.3185000">
        <ele>39.2</ele>
        <time>2022-06-08T11:02:12Z</time>
      </trkpt>
      <trkpt lat="47.6746400" lon="9.3186600">
        <ele>39.4</ele>
        <time>2022-06-08T11:02:16Z</time>
      </trkpt>
      <trkpt lat="47.6745900" lon="9.3188450">
        <ele>40.2</ele>
        <time>2022-06-08T11:02:20Z</time>
      </trkpt>
      <trkpt lat="47.6745460" lon="9.3190430">
        <ele>40.4</ele>
        <time>2022-06-08T11:02:24Z</time>
      </trkpt>
      <trkpt lat="47.6745130" lon="9.3192430">
        <ele>39.8</ele>
        <time>2022-06-08T11:02:28Z</time>
      </trkpt>
      <trkpt lat="47.6744810" lon="9.3194610">
        <ele>39.8</ele>
        <time>2022-06-08T11:02:32Z</time>
      </trkpt>
      <trkpt lat="47.6744380" lon="9.3196860">
        <ele>38.6</ele>
        <time>2022-06-08T11:02:36Z</time>
      </trkpt>
      <trkpt lat="47.6744080" lon="9.3199430">
        <ele>38.6</ele>
        <time>2022-06-08T11:02:40Z</time>
      </trkpt>
      <trkpt lat="47.6743850" lon="9.3202050">
        <ele>39.0</ele>
        <time>2022-06-08T11:02:44Z</time>
      </trkpt>
      <trkpt lat="47.6743710" lon="9.3204510">
        <ele>39.0</ele>
        <time>2022-06-08T11:02:48Z</time>
      </trkpt>
      <trkpt lat="47.6743500" lon="9.3207010">
        <ele>39.0</ele>
        <time>2022-06-08T11:02:52Z</time>
      </trkpt>
      <trkpt lat="47.6743480" lon="9.3209580">
        <ele>39.4</ele>
        <time>2022-06-08T11:02:56Z</time>
      </trkpt>
      <trkpt lat="47.6743260" lon="9.3212180">
        <ele>39.0</ele>
        <time>2022-06-08T11:03:00Z</time>
      </trkpt>
      <trkpt lat="47.6743000" lon="9.3214750">
        <ele>39.0</ele>
        <time>2022-06-08T11:03:04Z</time>
      </trkpt>
      <trkpt lat="47.6742580" lon="9.3217250">
        <ele>40.2</ele>
        <time>2022-06-08T11:03:08Z</time>
      </trkpt>
      <trkpt lat="47.6742110" lon="9.3219710">
        <ele>40.0</ele>
        <time>2022-06-08T11:03:12Z</time>
      </trkpt>
      <trkpt lat="47.6741600" lon="9.3222110">
        <ele>40.2</ele>
        <time>2022-06-08T11:03:16Z</time>
      </trkpt>
      <trkpt lat="47.6741080" lon="9.3224480">
        <ele>40.6</ele>
        <time>2022-06-08T11:03:20Z</time>
      </trkpt>
      <trkpt lat="47.6740650" lon="9.3227000">
        <ele>40.2</ele>
        <time>2022-06-08T11:03:24Z</time>
      </trkpt>
      <trkpt lat="47.6740100" lon="9.3229430">
        <ele>40.2</ele>
        <time>2022-06-08T11:03:28Z</time>
      </trkpt>
      <trkpt lat="47.6739510" lon="9.3231910">
        <ele>40.6</ele>
        <time>2022-06-08T11:03:32Z</time>
      </trkpt>
      <trkpt lat="47.6738980" lon="9.3234550">
        <ele>40.2</ele>
        <time>2022-06-08T11:03:36Z</time>
      </trkpt>
      <trkpt lat="47.6738460" lon="9.3236880">
        <ele>39.6</ele>
        <time>2022-06-08T11:03:40Z</time>
      </trkpt>
      <trkpt lat="47.6738230" lon="9.3238150">
        <ele>39.8</ele>
        <time>2022-06-08T11:03:44Z</time>
      </trkpt>
      <trkpt lat="47.6737700" lon="9.3240100">
        <ele>39.8</ele>
        <time>2022-06-08T11:03:48Z</time>
      </trkpt>
      <trkpt lat="47.6736900" lon="9.3242350">
        <ele>39.6</ele>
        <time>2022-06-08T11:03:52Z</time>
      </trkpt>
      <trkpt lat="47.6735860" lon="9.3244650">
        <ele>40.4</ele>
        <time>2022-06-08T11:03:56Z</time>
      </trkpt>
      <trkpt lat="47.6734700" lon="9.3246700">
        <ele>39.8</ele>
        <time>2022-06-08T11:04:00Z</time>
      </trkpt>
      <trkpt lat="47.6733500" lon="9.3248800">
        <ele>39.8</ele>
        <time>2022-06-08T11:04:04Z</time>
      </trkpt>
      <trkpt lat="47.6732330" lon="9.3251060">
        <ele>39.0</ele>
        <time>2022-06-08T11:04:08Z</time>
      </trkpt>
      <trkpt lat="47.6731180" lon="9.3253460">
        <ele>39.8</ele>
        <time>2022-06-08T11:04:12Z</time>
      </trkpt>
      <trkpt lat="47.6730000" lon="9.3255750">
        <ele>39.8</ele>
        <time>2022-06-08T11:04:16Z</time>
      </trkpt>
      <trkpt lat="47.6728880" lon="9.3258060">
        <ele>39.4</ele>
        <time>2022-06-08T11:04:20Z</time>
      </trkpt>
      <trkpt lat="47.6727700" lon="9.3260210">
        <ele>39.8</ele>
        <time>2022-06-08T11:04:24Z</time>
      </trkpt>
      <trkpt lat="47.6726380" lon="9.3262150">
        <ele>39.8</ele>
        <time>2022-06-08T11:04:28Z</time>
      </trkpt>
      <trkpt lat="47.6724950" lon="9.3263980">
        <ele>39.8</ele>
        <time>2022-06-08T11:04:32Z</time>
      </trkpt>
      <trkpt lat="47.6723530" lon="9.3265930">
        <ele>39.8</ele>
        <time>2022-06-08T11:04:36Z</time>
      </trkpt>
      <trkpt lat="47.6722130" lon="9.3267810">
        <ele>39.8</ele>
        <time>2022-06-08T11:04:40Z</time>
      </trkpt>
      <trkpt lat="47.6720600" lon="9.3269580">
        <ele>40.0</ele>
        <time>2022-06-08T11:04:44Z</time>
      </trkpt>
      <trkpt lat="47.6719180" lon="9.3271400">
        <ele>39.2</ele>
        <time>2022-06-08T11:04:48Z</time>
      </trkpt>
      <trkpt lat="47.6718100" lon="9.3273480">
        <ele>38.4</ele>
        <time>2022-06-08T11:04:52Z</time>
      </trkpt>
      <trkpt lat="47.6716980" lon="9.3275380">
        <ele>39.2</ele>
        <time>2022-06-08T11:04:56Z</time>
      </trkpt>
      <trkpt lat="47.6715860" lon="9.3277530">
        <ele>38.8</ele>
        <time>2022-06-08T11:05:00Z</time>
      </trkpt>
      <trkpt lat="47.6714780" lon="9.3279800">
        <ele>39.0</ele>
        <time>2022-06-08T11:05:04Z</time>
      </trkpt>
      <trkpt lat="47.6713700" lon="9.3282100">
        <ele>38.8</ele>
        <time>2022-06-08T11:05:08Z</time>
      </trkpt>
      <trkpt lat="47.6712930" lon="9.3284650">
        <ele>38.8</ele>
        <time>2022-06-08T11:05:12Z</time>
      </trkpt>
      <trkpt lat="47.6713810" lon="9.3286410">
        <ele>40.2</ele>
        <time>2022-06-08T11:05:16Z</time>
      </trkpt>
      <trkpt lat="47.6714480" lon="9.3287360">
        <ele>40.4</ele>
        <time>2022-06-08T11:05:20Z</time>
      </trkpt>
      <trkpt lat="47.6715010" lon="9.3288150">
        <ele>42.4</ele>
        <time>2022-06-08T11:05:24Z</time>
      </trkpt>
      <trkpt lat="47.6715410" lon="9.3288780">
        <ele>43.6</ele>
        <time>2022-06-08T11:05:28Z</time>
      </trkpt>
      <trkpt lat="47.6715710" lon="9.3289210">
        <ele>44.6</ele>
        <time>2022-06-08T11:05:32Z</time>
      </trkpt>
      <trkpt lat="47.6716160" lon="9.3289880">
        <ele>45.6</ele>
        <time>2022-06-08T11:05:36Z</time>
      </trkpt>
      <trkpt lat="47.6716280" lon="9.3290780">
        <ele>46.0</ele>
        <time>2022-06-08T11:05:40Z</time>
      </trkpt>
      <trkpt lat="47.6715700" lon="9.3291900">
        <ele>46.4</ele>
        <time>2022-06-08T11:05:44Z</time>
      </trkpt>
      <trkpt lat="47.6714880" lon="9.3293010">
        <ele>45.6</ele>
        <time>2022-06-08T11:05:48Z</time>
      </trkpt>
      <trkpt lat="47.6713900" lon="9.3294410">
        <ele>45.2</ele>
        <time>2022-06-08T11:05:52Z</time>
      </trkpt>
      <trkpt lat="47.6713050" lon="9.3296580">
        <ele>45.2</ele>
        <time>2022-06-08T11:05:56Z</time>
      </trkpt>
      <trkpt lat="47.6711880" lon="9.3298680">
        <ele>44.6</ele>
        <time>2022-06-08T11:06:00Z</time>
      </trkpt>
      <trkpt lat="47.6711010" lon="9.3300630">
        <ele>45.0</ele>
        <time>2022-06-08T11:06:04Z</time>
      </trkpt>
      <trkpt lat="47.6709960" lon="9.3302260">
        <ele>44.8</ele>
        <time>2022-06-08T11:06:08Z</time>
      </trkpt>
      <trkpt lat="47.6708780" lon="9.3304110">
        <ele>44.8</ele>
        <time>2022-06-08T11:06:12Z</time>
      </trkpt>
      <trkpt lat="47.6707730" lon="9.3306200">
        <ele>45.4</ele>
        <time>2022-06-08T11:06:16Z</time>
      </trkpt>
      <trkpt lat="47.6706830" lon="9.3307980">
        <ele>45.2</ele>
        <time>2022-06-08T11:06:20Z</time>
      </trkpt>
      <trkpt lat="47.6705650" lon="9.3310400">
        <ele>45.4</ele>
        <time>2022-06-08T11:06:24Z</time>
      </trkpt>
      <trkpt lat="47.6704230" lon="9.3313810">
        <ele>45.4</ele>
        <time>2022-06-08T11:06:28Z</time>
      </trkpt>
      <trkpt lat="47.6703260" lon="9.3316260">
        <ele>46.0</ele>
        <time>2022-06-08T11:06:32Z</time>
      </trkpt>
      <trkpt lat="47.6702200" lon="9.3318550">
        <ele>45.2</ele>
        <time>2022-06-08T11:06:36Z</time>
      </trkpt>
      <trkpt lat="47.6701330" lon="9.3320800">
        <ele>45.4</ele>
        <time>2022-06-08T11:06:40Z</time>
      </trkpt>
      <trkpt lat="47.6700330" lon="9.3323350">
        <ele>45.2</ele>
        <time>2022-06-08T11:06:44Z</time>
      </trkpt>
      <trkpt lat="47.6699160" lon="9.3326030">
        <ele>45.8</ele>
        <time>2022-06-08T11:06:48Z</time>
      </trkpt>
      <trkpt lat="47.6697980" lon="9.3328680">
        <ele>45.8</ele>
        <time>2022-06-08T11:06:52Z</time>
      </trkpt>
      <trkpt lat="47.6697010" lon="9.3331080">
        <ele>46.0</ele>
        <time>2022-06-08T11:06:56Z</time>
      </trkpt>
      <trkpt lat="47.6696080" lon="9.3333710">
        <ele>46.6</ele>
        <time>2022-06-08T11:07:00Z</time>
      </trkpt>
      <trkpt lat="47.6695180" lon="9.3336610">
        <ele>45.2</ele>
        <time>2022-06-08T11:07:04Z</time>
      </trkpt>
      <trkpt lat="47.6694330" lon="9.3339480">
        <ele>45.2</ele>
        <time>2022-06-08T11:07:08Z</time>
      </trkpt>
      <trkpt lat="47.6693450" lon="9.3342500">
        <ele>46.6</ele>
        <time>2022-06-08T11:07:12Z</time>
      </trkpt>
      <trkpt lat="47.6692430" lon="9.3345080">
        <ele>47.0</ele>
        <time>2022-06-08T11:07:16Z</time>
      </trkpt>
      <trkpt lat="47.6691650" lon="9.3347850">
        <ele>47.2</ele>
        <time>2022-06-08T11:07:20Z</time>
      </trkpt>
      <trkpt lat="47.6690950" lon="9.3350580">
        <ele>49.0</ele>
        <time>2022-06-08T11:07:24Z</time>
      </trkpt>
      <trkpt lat="47.6690260" lon="9.3353010">
        <ele>49.0</ele>
        <time>2022-06-08T11:07:28Z</time>
      </trkpt>
      <trkpt lat="47.6689650" lon="9.3355430">
        <ele>50.0</ele>
        <time>2022-06-08T11:07:32Z</time>
      </trkpt>
      <trkpt lat="47.6689010" lon="9.3357780">
        <ele>49.8</ele>
        <time>2022-06-08T11:07:36Z</time>
      </trkpt>
      <trkpt lat="47.6688410" lon="9.3360210">
        <ele>50.0</ele>
        <time>2022-06-08T11:07:40Z</time>
      </trkpt>
      <trkpt lat="47.6687760" lon="9.3362830">
        <ele>50.8</ele>
        <time>2022-06-08T11:07:44Z</time>
      </trkpt>
      <trkpt lat="47.6687130" lon="9.3365450">
        <ele>50.2</ele>
        <time>2022-06-08T11:07:48Z</time>
      </trkpt>
      <trkpt lat="47.6686460" lon="9.3368060">
        <ele>51.4</ele>
        <time>2022-06-08T11:07:52Z</time>
      </trkpt>
      <trkpt lat="47.6685850" lon="9.3370650">
        <ele>52.2</ele>
        <time>2022-06-08T11:07:56Z</time>
      </trkpt>
      <trkpt lat="47.6685260" lon="9.3373200">
        <ele>51.8</ele>
        <time>2022-06-08T11:08:00Z</time>
      </trkpt>
      <trkpt lat="47.6684650" lon="9.3375660">
        <ele>52.0</ele>
        <time>2022-06-08T11:08:04Z</time>
      </trkpt>
      <trkpt lat="47.6684050" lon="9.3378210">
        <ele>52.6</ele>
        <time>2022-06-08T11:08:08Z</time>
      </trkpt>
      <trkpt lat="47.6683510" lon="9.3380660">
        <ele>53.6</ele>
        <time>2022-06-08T11:08:12Z</time>
      </trkpt>
      <trkpt lat="47.6683030" lon="9.3383130">
        <ele>54.2</ele>
        <time>2022-06-08T11:08:16Z</time>
      </trkpt>
      <trkpt lat="47.6682600" lon="9.3385580">
        <ele>55.2</ele>
        <time>2022-06-08T11:08:20Z</time>
      </trkpt>
      <trkpt lat="47.6682080" lon="9.3388010">
        <ele>56.2</ele>
        <time>2022-06-08T11:08:24Z</time>
      </trkpt>
      <trkpt lat="47.6681430" lon="9.3390350">
        <ele>56.6</ele>
        <time>2022-06-08T11:08:28Z</time>
      </trkpt>
      <trkpt lat="47.6680750" lon="9.3392510">
        <ele>56.8</ele>
        <time>2022-06-08T11:08:32Z</time>
      </trkpt>
      <trkpt lat="47.6680160" lon="9.3394610">
        <ele>57.2</ele>
        <time>2022-06-08T11:08:36Z</time>
      </trkpt>
      <trkpt lat="47.6679350" lon="9.3396630">
        <ele>57.2</ele>
        <time>2022-06-08T11:08:40Z</time>
      </trkpt>
      <trkpt lat="47.6678560" lon="9.3398800">
        <ele>56.6</ele>
        <time>2022-06-08T11:08:44Z</time>
      </trkpt>
      <trkpt lat="47.6678960" lon="9.3401850">
        <ele>56.6</ele>
        <time>2022-06-08T11:08:48Z</time>
      </trkpt>
      <trkpt lat="47.6678210" lon="9.3405030">
        <ele>55.2</ele>
        <time>2022-06-08T11:08:52Z</time>
      </trkpt>
      <trkpt lat="47.6676980" lon="9.3407810">
        <ele>56.0</ele>
        <time>2022-06-08T11:08:56Z</time>
      </trkpt>
      <trkpt lat="47.6675830" lon="9.3410280">
        <ele>56.6</ele>
        <time>2022-06-08T11:09:00Z</time>
      </trkpt>
      <trkpt lat="47.6675000" lon="9.3412850">
        <ele>57.8</ele>
        <time>2022-06-08T11:09:04Z</time>
      </trkpt>
      <trkpt lat="47.6674200" lon="9.3415230">
        <ele>57.2</ele>
        <time>2022-06-08T11:09:08Z</time>
      </trkpt>
      <trkpt lat="47.6673400" lon="9.3417610">
        <ele>57.6</ele>
        <time>2022-06-08T11:09:12Z</time>
      </trkpt>
      <trkpt lat="47.6672630" lon="9.3420150">
        <ele>57.2</ele>
        <time>2022-06-08T11:09:16Z</time>
      </trkpt>
      <trkpt lat="47.6671910" lon="9.3423580">
        <ele>55.8</ele>
        <time>2022-06-08T11:09:20Z</time>
      </trkpt>
      <trkpt lat="47.6670550" lon="9.3428010">
        <ele>50.8</ele>
        <time>2022-06-08T11:09:24Z</time>
      </trkpt>
      <trkpt lat="47.6668960" lon="9.3432630">
        <ele>51.6</ele>
        <time>2022-06-08T11:09:28Z</time>
      </trkpt>
      <trkpt lat="47.6667150" lon="9.3435130">
        <ele>49.6</ele>
        <time>2022-06-08T11:09:32Z</time>
      </trkpt>
      <trkpt lat="47.6665710" lon="9.3436500">
        <ele>48.2</ele>
        <time>2022-06-08T11:09:36Z</time>
      </trkpt>
      <trkpt lat="47.6666000" lon="9.3439680">
        <ele>47.8</ele>
        <time>2022-06-08T11:09:40Z</time>
      </trkpt>
      <trkpt lat="47.6665150" lon="9.3442910">
        <ele>48.0</ele>
        <time>2022-06-08T11:09:44Z</time>
      </trkpt>
      <trkpt lat="47.6664060" lon="9.3445610">
        <ele>48.8</ele>
        <time>2022-06-08T11:09:48Z</time>
      </trkpt>
      <trkpt lat="47.6663550" lon="9.3448160">
        <ele>49.2</ele>
        <time>2022-06-08T11:09:52Z</time>
      </trkpt>
      <trkpt lat="47.6663010" lon="9.3450910">
        <ele>50.0</ele>
        <time>2022-06-08T11:09:56Z</time>
      </trkpt>
      <trkpt lat="47.6662010" lon="9.3453630">
        <ele>50.8</ele>
        <time>2022-06-08T11:10:00Z</time>
      </trkpt>
      <trkpt lat="47.6661380" lon="9.3456450">
        <ele>51.0</ele>
        <time>2022-06-08T11:10:04Z</time>
      </trkpt>
      <trkpt lat="47.6660750" lon="9.3459280">
        <ele>51.0</ele>
        <time>2022-06-08T11:10:08Z</time>
      </trkpt>
      <trkpt lat="47.6660210" lon="9.3461980">
        <ele>52.2</ele>
        <time>2022-06-08T11:10:12Z</time>
      </trkpt>
      <trkpt lat="47.6659700" lon="9.3464610">
        <ele>52.0</ele>
        <time>2022-06-08T11:10:16Z</time>
      </trkpt>
      <trkpt lat="47.6659250" lon="9.3467300">
        <ele>51.6</ele>
        <time>2022-06-08T11:10:20Z</time>
      </trkpt>
      <trkpt lat="47.6658750" lon="9.3469930">
        <ele>51.6</ele>
        <time>2022-06-08T11:10:24Z</time>
      </trkpt>
      <trkpt lat="47.6658280" lon="9.3472900">
        <ele>51.2</ele>
        <time>2022-06-08T11:10:28Z</time>
      </trkpt>
      <trkpt lat="47.6657800" lon="9.3475910">
        <ele>51.2</ele>
        <time>2022-06-08T11:10:32Z</time>
      </trkpt>
      <trkpt lat="47.6657350" lon="9.3478810">
        <ele>50.6</ele>
        <time>2022-06-08T11:10:36Z</time>
      </trkpt>
      <trkpt lat="47.6656950" lon="9.3481600">
        <ele>50.2</ele>
        <time>2022-06-08T11:10:40Z</time>
      </trkpt>
      <trkpt lat="47.6656480" lon="9.3484560">
        <ele>50.8</ele>
        <time>2022-06-08T11:10:44Z</time>
      </trkpt>
      <trkpt lat="47.6656030" lon="9.3487630">
        <ele>50.2</ele>
        <time>2022-06-08T11:10:48Z</time>
      </trkpt>
      <trkpt lat="47.6655700" lon="9.3490960">
        <ele>50.2</ele>
        <time>2022-06-08T11:10:52Z</time>
      </trkpt>
      <trkpt lat="47.6655250" lon="9.3494250">
        <ele>50.8</ele>
        <time>2022-06-08T11:10:56Z</time>
      </trkpt>
      <trkpt lat="47.6654960" lon="9.3497430">
        <ele>50.2</ele>
        <time>2022-06-08T11:11:00Z</time>
      </trkpt>
      <trkpt lat="47.6654580" lon="9.3500480">
        <ele>50.6</ele>
        <time>2022-06-08T11:11:04Z</time>
      </trkpt>
      <trkpt lat="47.6654180" lon="9.3503550">
        <ele>50.8</ele>
        <time>2022-06-08T11:11:08Z</time>
      </trkpt>
      <trkpt lat="47.6653800" lon="9.3506800">
        <ele>50.2</ele>
        <time>2022-06-08T11:11:12Z</time>
      </trkpt>
      <trkpt lat="47.6653400" lon="9.3510060">
        <ele>50.2</ele>
        <time>2022-06-08T11:11:16Z</time>
      </trkpt>
      <trkpt lat="47.6652980" lon="9.3512960">
        <ele>51.0</ele>
        <time>2022-06-08T11:11:20Z</time>
      </trkpt>
      <trkpt lat="47.6652700" lon="9.3515810">
        <ele>50.4</ele>
        <time>2022-06-08T11:11:24Z</time>
      </trkpt>
      <trkpt lat="47.6652480" lon="9.3518880">
        <ele>51.0</ele>
        <time>2022-06-08T11:11:28Z</time>
      </trkpt>
      <trkpt lat="47.6652200" lon="9.3522110">
        <ele>50.0</ele>
        <time>2022-06-08T11:11:32Z</time>
      </trkpt>
      <trkpt lat="47.6651830" lon="9.3525180">
        <ele>50.8</ele>
        <time>2022-06-08T11:11:36Z</time>
      </trkpt>
      <trkpt lat="47.6651510" lon="9.3528000">
        <ele>51.0</ele>
        <time>2022-06-08T11:11:40Z</time>
      </trkpt>
      <trkpt lat="47.6651250" lon="9.3530680">
        <ele>51.2</ele>
        <time>2022-06-08T11:11:44Z</time>
      </trkpt>
      <trkpt lat="47.6650900" lon="9.3533500">
        <ele>51.2</ele>
        <time>2022-06-08T11:11:48Z</time>
      </trkpt>
      <trkpt lat="47.6650680" lon="9.3536450">
        <ele>51.4</ele>
        <time>2022-06-08T11:11:52Z</time>
      </trkpt>
      <trkpt lat="47.6650550" lon="9.3539500">
        <ele>51.0</ele>
        <time>2022-06-08T11:11:56Z</time>
      </trkpt>
      <trkpt lat="47.6650430" lon="9.3542660">
        <ele>50.2</ele>
        <time>2022-06-08T11:12:00Z</time>
      </trkpt>
      <trkpt lat="47.6650430" lon="9.3545830">
        <ele>50.2</ele>
        <time>2022-06-08T11:12:04Z</time>
      </trkpt>
      <trkpt lat="47.6650430" lon="9.3548910">
        <ele>50.0</ele>
        <time>2022-06-08T11:12:08Z</time>
      </trkpt>
      <trkpt lat="47.6650430" lon="9.3551960">
        <ele>49.8</ele>
        <time>2022-06-08T11:12:12Z</time>
      </trkpt>
      <trkpt lat="47.6650530" lon="9.3554960">
        <ele>49.4</ele>
        <time>2022-06-08T11:12:16Z</time>
      </trkpt>
      <trkpt lat="47.6650800" lon="9.3558250">
        <ele>48.6</ele>
        <time>2022-06-08T11:12:20Z</time>
      </trkpt>
      <trkpt lat="47.6651150" lon="9.3562110">
        <ele>47.6</ele>
        <time>2022-06-08T11:12:24Z</time>
      </trkpt>
      <trkpt lat="47.6651560" lon="9.3566400">
        <ele>46.0</ele>
        <time>2022-06-08T11:12:28Z</time>
      </trkpt>
      <trkpt lat="47.6651510" lon="9.3570380">
        <ele>47.4</ele>
        <time>2022-06-08T11:12:32Z</time>
      </trkpt>
      <trkpt lat="47.6651180" lon="9.3573750">
        <ele>48.0</ele>
        <time>2022-06-08T11:12:36Z</time>
      </trkpt>
      <trkpt lat="47.6650930" lon="9.3576750">
        <ele>47.6</ele>
        <time>2022-06-08T11:12:40Z</time>
      </trkpt>
      <trkpt lat="47.6650450" lon="9.3579980">
        <ele>47.2</ele>
        <time>2022-06-08T11:12:44Z</time>
      </trkpt>
      <trkpt lat="47.6650960" lon="9.3583330">
        <ele>46.2</ele>
        <time>2022-06-08T11:12:48Z</time>
      </trkpt>
      <trkpt lat="47.6652160" lon="9.3586500">
        <ele>46.6</ele>
        <time>2022-06-08T11:12:52Z</time>
      </trkpt>
      <trkpt lat="47.6653480" lon="9.3589660">
        <ele>46.2</ele>
        <time>2022-06-08T11:12:56Z</time>
      </trkpt>
      <trkpt lat="47.6654710" lon="9.3592760">
        <ele>46.0</ele>
        <time>2022-06-08T11:13:00Z</time>
      </trkpt>
      <trkpt lat="47.6655630" lon="9.3595950">
        <ele>45.4</ele>
        <time>2022-06-08T11:13:04Z</time>
      </trkpt>
      <trkpt lat="47.6656150" lon="9.3599250">
        <ele>45.2</ele>
        <time>2022-06-08T11:13:08Z</time>
      </trkpt>
      <trkpt lat="47.6656400" lon="9.3602650">
        <ele>46.0</ele>
        <time>2022-06-08T11:13:12Z</time>
      </trkpt>
      <trkpt lat="47.6656330" lon="9.3606160">
        <ele>45.4</ele>
        <time>2022-06-08T11:13:16Z</time>
      </trkpt>
      <trkpt lat="47.6656010" lon="9.3609730">
        <ele>45.0</ele>
        <time>2022-06-08T11:13:20Z</time>
      </trkpt>
      <trkpt lat="47.6655380" lon="9.3613250">
        <ele>44.2</ele>
        <time>2022-06-08T11:13:24Z</time>
      </trkpt>
      <trkpt lat="47.6654680" lon="9.3616800">
        <ele>44.4</ele>
        <time>2022-06-08T11:13:28Z</time>
      </trkpt>
      <trkpt lat="47.6654000" lon="9.3620160">
        <ele>43.4</ele>
        <time>2022-06-08T11:13:32Z</time>
      </trkpt>
      <trkpt lat="47.6653460" lon="9.3623300">
        <ele>43.8</ele>
        <time>2022-06-08T11:13:36Z</time>
      </trkpt>
      <trkpt lat="47.6653230" lon="9.3626280">
        <ele>44.2</ele>
        <time>2022-06-08T11:13:40Z</time>
      </trkpt>
      <trkpt lat="47.6653250" lon="9.3629260">
        <ele>44.4</ele>
        <time>2022-06-08T11:13:44Z</time>
      </trkpt>
      <trkpt lat="47.6653260" lon="9.3632250">
        <ele>44.2</ele>
        <time>2022-06-08T11:13:48Z</time>
      </trkpt>
      <trkpt lat="47.6653200" lon="9.3635210">
        <ele>43.8</ele>
        <time>2022-06-08T11:13:52Z</time>
      </trkpt>
      <trkpt lat="47.6653130" lon="9.3637880">
        <ele>43.2</ele>
        <time>2022-06-08T11:13:56Z</time>
      </trkpt>
      <trkpt lat="47.6652910" lon="9.3639160">
        <ele>43.0</ele>
        <time>2022-06-08T11:14:00Z</time>
      </trkpt>
      <trkpt lat="47.6652910" lon="9.3639160">
        <ele>43.2</ele>
        <time>2022-06-08T11:14:04Z</time>
      </trkpt>
      <trkpt lat="47.6652910" lon="9.3639160">
        <ele>43.2</ele>
        <time>2022-06-08T11:14:08Z</time>
      </trkpt>
      <trkpt lat="47.6652910" lon="9.3639160">
        <ele>43.0</ele>
        <time>2022-06-08T11:14:12Z</time>
      </trkpt>
      <trkpt lat="47.6652980" lon="9.3639630">
        <ele>42.8</ele>
        <time>2022-06-08T11:14:16Z</time>
      </trkpt>
      <trkpt lat="47.6653310" lon="9.3640580">
        <ele>42.6</ele>
        <time>2022-06-08T11:14:20Z</time>
      </trkpt>
      <trkpt lat="47.6654080" lon="9.3641510">
        <ele>42.4</ele>
        <time>2022-06-08T11:14:24Z</time>
      </trkpt>
      <trkpt lat="47.6654080" lon="9.3641510">
        <ele>41.6</ele>
        <time>2022-06-08T11:14:28Z</time>
      </trkpt>
      <trkpt lat="47.6654080" lon="9.3641510">
        <ele>42.6</ele>
        <time>2022-06-08T11:14:32Z</time>
      </trkpt>
      <trkpt lat="47.6654160" lon="9.3642060">
        <ele>42.4</ele>
        <time>2022-06-08T11:14:36Z</time>
      </trkpt>
      <trkpt lat="47.6653750" lon="9.3642700">
        <ele>42.4</ele>
        <time>2022-06-08T11:14:40Z</time>
      </trkpt>
      <trkpt lat="47.6653480" lon="9.3643730">
        <ele>41.4</ele>
        <time>2022-06-08T11:14:44Z</time>
      </trkpt>
      <trkpt lat="47.6653430" lon="9.3646030">
        <ele>41.4</ele>
        <time>2022-06-08T11:14:48Z</time>
      </trkpt>
      <trkpt lat="47.6653580" lon="9.3649000">
        <ele>39.4</ele>
        <time>2022-06-08T11:14:52Z</time>
      </trkpt>
      <trkpt lat="47.6654110" lon="9.3652200">
        <ele>39.0</ele>
        <time>2022-06-08T11:14:56Z</time>
      </trkpt>
      <trkpt lat="47.6654550" lon="9.3655680">
        <ele>37.4</ele>
        <time>2022-06-08T11:15:00Z</time>
      </trkpt>
      <trkpt lat="47.6654860" lon="9.3659410">
        <ele>37.8</ele>
        <time>2022-06-08T11:15:04Z</time>
      </trkpt>
      <trkpt lat="47.6655660" lon="9.3662780">
        <ele>38.4</ele>
        <time>2022-06-08T11:15:08Z</time>
      </trkpt>
      <trkpt lat="47.6656260" lon="9.3666260">
        <ele>39.0</ele>
        <time>2022-06-08T11:15:12Z</time>
      </trkpt>
      <trkpt lat="47.6656960" lon="9.3669360">
        <ele>39.2</ele>
        <time>2022-06-08T11:15:16Z</time>
      </trkpt>
      <trkpt lat="47.6657600" lon="9.3672500">
        <ele>38.6</ele>
        <time>2022-06-08T11:15:20Z</time>
      </trkpt>
      <trkpt lat="47.6658130" lon="9.3675780">
        <ele>38.8</ele>
        <time>2022-06-08T11:15:24Z</time>
      </trkpt>
      <trkpt lat="47.6658480" lon="9.3678900">
        <ele>38.6</ele>
        <time>2022-06-08T11:15:28Z</time>
      </trkpt>
      <trkpt lat="47.6659000" lon="9.3682030">
        <ele>37.8</ele>
        <time>2022-06-08T11:15:32Z</time>
      </trkpt>
      <trkpt lat="47.6659550" lon="9.3685210">
        <ele>38.2</ele>
        <time>2022-06-08T11:15:36Z</time>
      </trkpt>
      <trkpt lat="47.6660250" lon="9.3688310">
        <ele>38.2</ele>
        <time>2022-06-08T11:15:40Z</time>
      </trkpt>
      <trkpt lat="47.6661080" lon="9.3691360">
        <ele>37.6</ele>
        <time>2022-06-08T11:15:44Z</time>
      </trkpt>
      <trkpt lat="47.6662060" lon="9.3694360">
        <ele>37.0</ele>
        <time>2022-06-08T11:15:48Z</time>
      </trkpt>
      <trkpt lat="47.6662830" lon="9.3697400">
        <ele>38.2</ele>
        <time>2022-06-08T11:15:52Z</time>
      </trkpt>
      <trkpt lat="47.6663600" lon="9.3700330">
        <ele>37.4</ele>
        <time>2022-06-08T11:15:56Z</time>
      </trkpt>
      <trkpt lat="47.6664210" lon="9.3703230">
        <ele>38.6</ele>
        <time>2022-06-08T11:16:00Z</time>
      </trkpt>
      <trkpt lat="47.6664680" lon="9.3706130">
        <ele>37.8</ele>
        <time>2022-06-08T11:16:04Z</time>
      </trkpt>
      <trkpt lat="47.6665260" lon="9.3709230">
        <ele>37.0</ele>
        <time>2022-06-08T11:16:08Z</time>
      </trkpt>
      <trkpt lat="47.6665910" lon="9.3712280">
        <ele>38.0</ele>
        <time>2022-06-08T11:16:12Z</time>
      </trkpt>
      <trkpt lat="47.6666030" lon="9.3715530">
        <ele>37.0</ele>
        <time>2022-06-08T11:16:16Z</time>
      </trkpt>
      <trkpt lat="47.6666180" lon="9.3718650">
        <ele>37.6</ele>
        <time>2022-06-08T11:16:20Z</time>
      </trkpt>
      <trkpt lat="47.6666710" lon="9.3721510">
        <ele>38.2</ele>
        <time>2022-06-08T11:16:24Z</time>
      </trkpt>
      <trkpt lat="47.6667460" lon="9.3724200">
        <ele>39.4</ele>
        <time>2022-06-08T11:16:28Z</time>
      </trkpt>
      <trkpt lat="47.6668160" lon="9.3726730">
        <ele>40.8</ele>
        <time>2022-06-08T11:16:32Z</time>
      </trkpt>
      <trkpt lat="47.6668780" lon="9.3729200">
        <ele>41.8</ele>
        <time>2022-06-08T11:16:36Z</time>
      </trkpt>
      <trkpt lat="47.6669100" lon="9.3731730">
        <ele>42.2</ele>
        <time>2022-06-08T11:16:40Z</time>
      </trkpt>
      <trkpt lat="47.6669180" lon="9.3734250">
        <ele>42.4</ele>
        <time>2022-06-08T11:16:44Z</time>
      </trkpt>
      <trkpt lat="47.6668960" lon="9.3736680">
        <ele>42.6</ele>
        <time>2022-06-08T11:16:48Z</time>
      </trkpt>
      <trkpt lat="47.6668560" lon="9.3739180">
        <ele>42.8</ele>
        <time>2022-06-08T11:16:52Z</time>
      </trkpt>
      <trkpt lat="47.6668360" lon="9.3741680">
        <ele>42.2</ele>
        <time>2022-06-08T11:16:56Z</time>
      </trkpt>
      <trkpt lat="47.6668100" lon="9.3744400">
        <ele>41.4</ele>
        <time>2022-06-08T11:17:00Z</time>
      </trkpt>
      <trkpt lat="47.6667780" lon="9.3747260">
        <ele>41.0</ele>
        <time>2022-06-08T11:17:04Z</time>
      </trkpt>
      <trkpt lat="47.6667450" lon="9.3750300">
        <ele>41.4</ele>
        <time>2022-06-08T11:17:08Z</time>
      </trkpt>
      <trkpt lat="47.6667180" lon="9.3753380">
        <ele>40.2</ele>
        <time>2022-06-08T11:17:12Z</time>
      </trkpt>
      <trkpt lat="47.6667000" lon="9.3756430">
        <ele>40.8</ele>
        <time>2022-06-08T11:17:16Z</time>
      </trkpt>
      <trkpt lat="47.6666810" lon="9.3759500">
        <ele>40.8</ele>
        <time>2022-06-08T11:17:20Z</time>
      </trkpt>
      <trkpt lat="47.6666550" lon="9.3762560">
        <ele>40.6</ele>
        <time>2022-06-08T11:17:24Z</time>
      </trkpt>
      <trkpt lat="47.6666800" lon="9.3765730">
        <ele>40.4</ele>
        <time>2022-06-08T11:17:28Z</time>
      </trkpt>
      <trkpt lat="47.6667000" lon="9.3768980">
        <ele>40.8</ele>
        <time>2022-06-08T11:17:32Z</time>
      </trkpt>
      <trkpt lat="47.6667180" lon="9.3772300">
        <ele>40.4</ele>
        <time>2022-06-08T11:17:36Z</time>
      </trkpt>
      <trkpt lat="47.6667250" lon="9.3775480">
        <ele>41.0</ele>
        <time>2022-06-08T11:17:40Z</time>
      </trkpt>
      <trkpt lat="47.6667580" lon="9.3778610">
        <ele>40.8</ele>
        <time>2022-06-08T11:17:44Z</time>
      </trkpt>
      <trkpt lat="47.6667650" lon="9.3781650">
        <ele>40.2</ele>
        <time>2022-06-08T11:17:48Z</time>
      </trkpt>
      <trkpt lat="47.6667710" lon="9.3784660">
        <ele>41.2</ele>
        <time>2022-06-08T11:17:52Z</time>
      </trkpt>
      <trkpt lat="47.6668250" lon="9.3787360">
        <ele>42.4</ele>
        <time>2022-06-08T11:17:56Z</time>
      </trkpt>
      <trkpt lat="47.6668650" lon="9.3790380">
        <ele>41.6</ele>
        <time>2022-06-08T11:18:00Z</time>
      </trkpt>
      <trkpt lat="47.6669200" lon="9.3793210">
        <ele>41.6</ele>
        <time>2022-06-08T11:18:04Z</time>
      </trkpt>
      <trkpt lat="47.6669600" lon="9.3796000">
        <ele>42.0</ele>
        <time>2022-06-08T11:18:08Z</time>
      </trkpt>
      <trkpt lat="47.6669850" lon="9.3799030">
        <ele>42.4</ele>
        <time>2022-06-08T11:18:12Z</time>
      </trkpt>
      <trkpt lat="47.6670010" lon="9.3802000">
        <ele>42.0</ele>
        <time>2022-06-08T11:18:16Z</time>
      </trkpt>
      <trkpt lat="47.6670160" lon="9.3805080">
        <ele>41.6</ele>
        <time>2022-06-08T11:18:20Z</time>
      </trkpt>
      <trkpt lat="47.6670410" lon="9.3808150">
        <ele>41.8</ele>
        <time>2022-06-08T11:18:24Z</time>
      </trkpt>
      <trkpt lat="47.6670880" lon="9.3811150">
        <ele>42.0</ele>
        <time>2022-06-08T11:18:28Z</time>
      </trkpt>
      <trkpt lat="47.6671250" lon="9.3814150">
        <ele>42.2</ele>
        <time>2022-06-08T11:18:32Z</time>
      </trkpt>
      <trkpt lat="47.6671610" lon="9.3817430">
        <ele>42.4</ele>
        <time>2022-06-08T11:18:36Z</time>
      </trkpt>
      <trkpt lat="47.6671950" lon="9.3820660">
        <ele>41.4</ele>
        <time>2022-06-08T11:18:40Z</time>
      </trkpt>
      <trkpt lat="47.6671960" lon="9.3823730">
        <ele>41.2</ele>
        <time>2022-06-08T11:18:44Z</time>
      </trkpt>
      <trkpt lat="47.6672310" lon="9.3827180">
        <ele>41.8</ele>
        <time>2022-06-08T11:18:48Z</time>
      </trkpt>
      <trkpt lat="47.6672900" lon="9.3830460">
        <ele>41.8</ele>
        <time>2022-06-08T11:18:52Z</time>
      </trkpt>
      <trkpt lat="47.6673610" lon="9.3833360">
        <ele>42.4</ele>
        <time>2022-06-08T11:18:56Z</time>
      </trkpt>
      <trkpt lat="47.6674410" lon="9.3834650">
        <ele>42.4</ele>
        <time>2022-06-08T11:19:00Z</time>
      </trkpt>
      <trkpt lat="47.6674700" lon="9.3836210">
        <ele>41.6</ele>
        <time>2022-06-08T11:19:04Z</time>
      </trkpt>
      <trkpt lat="47.6675500" lon="9.3837960">
        <ele>40.8</ele>
        <time>2022-06-08T11:19:08Z</time>
      </trkpt>
      <trkpt lat="47.6677010" lon="9.3837250">
        <ele>40.6</ele>
        <time>2022-06-08T11:19:12Z</time>
      </trkpt>
      <trkpt lat="47.6678500" lon="9.3836180">
        <ele>41.6</ele>
        <time>2022-06-08T11:19:16Z</time>
      </trkpt>
      <trkpt lat="47.6679900" lon="9.3837060">
        <ele>41.4</ele>
        <time>2022-06-08T11:19:20Z</time>
      </trkpt>
      <trkpt lat="47.6681030" lon="9.3839660">
        <ele>41.6</ele>
        <time>2022-06-08T11:19:24Z</time>
      </trkpt>
      <trkpt lat="47.6682300" lon="9.3842360">
        <ele>40.4</ele>
        <time>2022-06-08T11:19:28Z</time>
      </trkpt>
      <trkpt lat="47.6683610" lon="9.3845060">
        <ele>40.4</ele>
        <time>2022-06-08T11:19:32Z</time>
      </trkpt>
      <trkpt lat="47.6685200" lon="9.3848080">
        <ele>39.0</ele>
        <time>2022-06-08T11:19:36Z</time>
      </trkpt>
      <trkpt lat="47.6686960" lon="9.3851260">
        <ele>38.6</ele>
        <time>2022-06-08T11:19:40Z</time>
      </trkpt>
      <trkpt lat="47.6689030" lon="9.3854280">
        <ele>38.0</ele>
        <time>2022-06-08T11:19:44Z</time>
      </trkpt>
      <trkpt lat="47.6690960" lon="9.3857230">
        <ele>37.2</ele>
        <time>2022-06-08T11:19:48Z</time>
      </trkpt>
      <trkpt lat="47.6692760" lon="9.3860180">
        <ele>38.0</ele>
        <time>2022-06-08T11:19:52Z</time>
      </trkpt>
      <trkpt lat="47.6694550" lon="9.3863200">
        <ele>36.8</ele>
        <time>2022-06-08T11:19:56Z</time>
      </trkpt>
      <trkpt lat="47.6696250" lon="9.3866330">
        <ele>36.0</ele>
        <time>2022-06-08T11:20:00Z</time>
      </trkpt>
      <trkpt lat="47.6697960" lon="9.3869480">
        <ele>37.6</ele>
        <time>2022-06-08T11:20:04Z</time>
      </trkpt>
      <trkpt lat="47.6699500" lon="9.3872600">
        <ele>37.2</ele>
        <time>2022-06-08T11:20:08Z</time>
      </trkpt>
      <trkpt lat="47.6700830" lon="9.3875700">
        <ele>37.2</ele>
        <time>2022-06-08T11:20:12Z</time>
      </trkpt>
      <trkpt lat="47.6702100" lon="9.3878730">
        <ele>37.4</ele>
        <time>2022-06-08T11:20:16Z</time>
      </trkpt>
      <trkpt lat="47.6703160" lon="9.3881610">
        <ele>38.0</ele>
        <time>2022-06-08T11:20:20Z</time>
      </trkpt>
      <trkpt lat="47.6704200" lon="9.3884510">
        <ele>38.2</ele>
        <time>2022-06-08T11:20:24Z</time>
      </trkpt>
      <trkpt lat="47.6705110" lon="9.3887660">
        <ele>38.6</ele>
        <time>2022-06-08T11:20:28Z</time>
      </trkpt>
      <trkpt lat="47.6705960" lon="9.3890960">
        <ele>38.0</ele>
        <time>2022-06-08T11:20:32Z</time>
      </trkpt>
      <trkpt lat="47.6706930" lon="9.3894210">
        <ele>37.0</ele>
        <time>2022-06-08T11:20:36Z</time>
      </trkpt>
      <trkpt lat="47.6707950" lon="9.3897360">
        <ele>37.0</ele>
        <time>2022-06-08T11:20:40Z</time>
      </trkpt>
      <trkpt lat="47.6708680" lon="9.3900580">
        <ele>37.0</ele>
        <time>2022-06-08T11:20:44Z</time>
      </trkpt>
      <trkpt lat="47.6709610" lon="9.3903830">
        <ele>37.6</ele>
        <time>2022-06-08T11:20:48Z</time>
      </trkpt>
      <trkpt lat="47.6710480" lon="9.3907180">
        <ele>37.6</ele>
        <time>2022-06-08T11:20:52Z</time>
      </trkpt>
      <trkpt lat="47.6711550" lon="9.3910530">
        <ele>35.8</ele>
        <time>2022-06-08T11:20:56Z</time>
      </trkpt>
      <trkpt lat="47.6712610" lon="9.3913960">
        <ele>36.4</ele>
        <time>2022-06-08T11:21:00Z</time>
      </trkpt>
      <trkpt lat="47.6713800" lon="9.3917160">
        <ele>37.4</ele>
        <time>2022-06-08T11:21:04Z</time>
      </trkpt>
      <trkpt lat="47.6714710" lon="9.3920380">
        <ele>37.4</ele>
        <time>2022-06-08T11:21:08Z</time>
      </trkpt>
      <trkpt lat="47.6715580" lon="9.3923600">
        <ele>37.6</ele>
        <time>2022-06-08T11:21:12Z</time>
      </trkpt>
      <trkpt lat="47.6716430" lon="9.3926760">
        <ele>37.2</ele>
        <time>2022-06-08T11:21:16Z</time>
      </trkpt>
      <trkpt lat="47.6717280" lon="9.3929750">
        <ele>37.6</ele>
        <time>2022-06-08T11:21:20Z</time>
      </trkpt>
      <trkpt lat="47.6717880" lon="9.3932960">
        <ele>37.2</ele>
        <time>2022-06-08T11:21:24Z</time>
      </trkpt>
      <trkpt lat="47.6718360" lon="9.3936130">
        <ele>38.4</ele>
        <time>2022-06-08T11:21:28Z</time>
      </trkpt>
      <trkpt lat="47.6718710" lon="9.3939400">
        <ele>37.4</ele>
        <time>2022-06-08T11:21:32Z</time>
      </trkpt>
      <trkpt lat="47.6718960" lon="9.3942630">
        <ele>36.6</ele>
        <time>2022-06-08T11:21:36Z</time>
      </trkpt>
      <trkpt lat="47.6719080" lon="9.3945880">
        <ele>37.6</ele>
        <time>2022-06-08T11:21:40Z</time>
      </trkpt>
      <trkpt lat="47.6719080" lon="9.3949060">
        <ele>37.0</ele>
        <time>2022-06-08T11:21:44Z</time>
      </trkpt>
      <trkpt lat="47.6718960" lon="9.3952250">
        <ele>37.6</ele>
        <time>2022-06-08T11:21:48Z</time>
      </trkpt>
      <trkpt lat="47.6718800" lon="9.3954760">
        <ele>37.6</ele>
        <time>2022-06-08T11:21:52Z</time>
      </trkpt>
      <trkpt lat="47.6718550" lon="9.3957250">
        <ele>38.0</ele>
        <time>2022-06-08T11:21:56Z</time>
      </trkpt>
      <trkpt lat="47.6717780" lon="9.3959760">
        <ele>37.6</ele>
        <time>2022-06-08T11:22:00Z</time>
      </trkpt>
      <trkpt lat="47.6717230" lon="9.3962680">
        <ele>37.2</ele>
        <time>2022-06-08T11:22:04Z</time>
      </trkpt>
      <trkpt lat="47.6716660" lon="9.3965580">
        <ele>37.4</ele>
        <time>2022-06-08T11:22:08Z</time>
      </trkpt>
      <trkpt lat="47.6716030" lon="9.3968500">
        <ele>37.6</ele>
        <time>2022-06-08T11:22:12Z</time>
      </trkpt>
      <trkpt lat="47.6715260" lon="9.3971430">
        <ele>37.8</ele>
        <time>2022-06-08T11:22:16Z</time>
      </trkpt>
      <trkpt lat="47.6714350" lon="9.3974450">
        <ele>38.2</ele>
        <time>2022-06-08T11:22:20Z</time>
      </trkpt>
      <trkpt lat="47.6713360" lon="9.3977310">
        <ele>36.8</ele>
        <time>2022-06-08T11:22:24Z</time>
      </trkpt>
      <trkpt lat="47.6712280" lon="9.3980130">
        <ele>36.6</ele>
        <time>2022-06-08T11:22:28Z</time>
      </trkpt>
      <trkpt lat="47.6711050" lon="9.3983010">
        <ele>37.6</ele>
        <time>2022-06-08T11:22:32Z</time>
      </trkpt>
      <trkpt lat="47.6709860" lon="9.3985850">
        <ele>37.8</ele>
        <time>2022-06-08T11:22:36Z</time>
      </trkpt>
      <trkpt lat="47.6708730" lon="9.3988710">
        <ele>37.2</ele>
        <time>2022-06-08T11:22:40Z</time>
      </trkpt>
      <trkpt lat="47.6707700" lon="9.3991730">
        <ele>37.8</ele>
        <time>2022-06-08T11:22:44Z</time>
      </trkpt>
      <trkpt lat="47.6706760" lon="9.3994810">
        <ele>37.8</ele>
        <time>2022-06-08T11:22:48Z</time>
      </trkpt>
      <trkpt lat="47.6705800" lon="9.3997880">
        <ele>38.4</ele>
        <time>2022-06-08T11:22:52Z</time>
      </trkpt>
      <trkpt lat="47.6704860" lon="9.4000910">
        <ele>37.2</ele>
        <time>2022-06-08T11:22:56Z</time>
      </trkpt>
      <trkpt lat="47.6703850" lon="9.4004080">
        <ele>37.6</ele>
        <time>2022-06-08T11:23:00Z</time>
      </trkpt>
      <trkpt lat="47.6702880" lon="9.4007330">
        <ele>36.8</ele>
        <time>2022-06-08T11:23:04Z</time>
      </trkpt>
      <trkpt lat="47.6701930" lon="9.4010610">
        <ele>36.6</ele>
        <time>2022-06-08T11:23:08Z</time>
      </trkpt>
      <trkpt lat="47.6701000" lon="9.4013900">
        <ele>36.8</ele>
        <time>2022-06-08T11:23:12Z</time>
      </trkpt>
      <trkpt lat="47.6700060" lon="9.4017080">
        <ele>36.8</ele>
        <time>2022-06-08T11:23:16Z</time>
      </trkpt>
      <trkpt lat="47.6699230" lon="9.4020180">
        <ele>36.8</ele>
        <time>2022-06-08T11:23:20Z</time>
      </trkpt>
      <trkpt lat="47.6698380" lon="9.4023260">
        <ele>37.0</ele>
        <time>2022-06-08T11:23:24Z</time>
      </trkpt>
      <trkpt lat="47.6697650" lon="9.4026500">
        <ele>36.2</ele>
        <time>2022-06-08T11:23:28Z</time>
      </trkpt>
      <trkpt lat="47.6697180" lon="9.4029910">
        <ele>36.6</ele>
        <time>2022-06-08T11:23:32Z</time>
      </trkpt>
      <trkpt lat="47.6696830" lon="9.4033180">
        <ele>36.4</ele>
        <time>2022-06-08T11:23:36Z</time>
      </trkpt>
      <trkpt lat="47.6696700" lon="9.4036430">
        <ele>36.2</ele>
        <time>2022-06-08T11:23:40Z</time>
      </trkpt>
      <trkpt lat="47.6696880" lon="9.4039760">
        <ele>35.6</ele>
        <time>2022-06-08T11:23:44Z</time>
      </trkpt>
      <trkpt lat="47.6697330" lon="9.4043160">
        <ele>36.4</ele>
        <time>2022-06-08T11:23:48Z</time>
      </trkpt>
      <trkpt lat="47.6697950" lon="9.4046330">
        <ele>36.4</ele>
        <time>2022-06-08T11:23:52Z</time>
      </trkpt>
      <trkpt lat="47.6698660" lon="9.4049430">
        <ele>36.4</ele>
        <time>2022-06-08T11:23:56Z</time>
      </trkpt>
      <trkpt lat="47.6699480" lon="9.4052330">
        <ele>36.4</ele>
        <time>2022-06-08T11:24:00Z</time>
      </trkpt>
      <trkpt lat="47.6700280" lon="9.4055350">
        <ele>36.6</ele>
        <time>2022-06-08T11:24:04Z</time>
      </trkpt>
      <trkpt lat="47.6701000" lon="9.4058360">
        <ele>37.0</ele>
        <time>2022-06-08T11:24:08Z</time>
      </trkpt>
      <trkpt lat="47.6701680" lon="9.4061360">
        <ele>36.6</ele>
        <time>2022-06-08T11:24:12Z</time>
      </trkpt>
      <trkpt lat="47.6702050" lon="9.4064430">
        <ele>36.4</ele>
        <time>2022-06-08T11:24:16Z</time>
      </trkpt>
      <trkpt lat="47.6702030" lon="9.4067530">
        <ele>37.0</ele>
        <time>2022-06-08T11:24:20Z</time>
      </trkpt>
      <trkpt lat="47.6702080" lon="9.4070630">
        <ele>37.0</ele>
        <time>2022-06-08T11:24:24Z</time>
      </trkpt>
      <trkpt lat="47.6702250" lon="9.4073750">
        <ele>36.0</ele>
        <time>2022-06-08T11:24:28Z</time>
      </trkpt>
      <trkpt lat="47.6702000" lon="9.4077060">
        <ele>36.6</ele>
        <time>2022-06-08T11:24:32Z</time>
      </trkpt>
      <trkpt lat="47.6701580" lon="9.4080030">
        <ele>36.6</ele>
        <time>2022-06-08T11:24:36Z</time>
      </trkpt>
      <trkpt lat="47.6701200" lon="9.4082850">
        <ele>36.4</ele>
        <time>2022-06-08T11:24:40Z</time>
      </trkpt>
      <trkpt lat="47.6700830" lon="9.4085900">
        <ele>36.4</ele>
        <time>2022-06-08T11:24:44Z</time>
      </trkpt>
      <trkpt lat="47.6700600" lon="9.4089130">
        <ele>36.0</ele>
        <time>2022-06-08T11:24:48Z</time>
      </trkpt>
      <trkpt lat="47.6700560" lon="9.4092310">
        <ele>37.0</ele>
        <time>2022-06-08T11:24:52Z</time>
      </trkpt>
      <trkpt lat="47.6700510" lon="9.4095080">
        <ele>37.6</ele>
        <time>2022-06-08T11:24:56Z</time>
      </trkpt>
      <trkpt lat="47.6700500" lon="9.4097710">
        <ele>38.4</ele>
        <time>2022-06-08T11:25:00Z</time>
      </trkpt>
      <trkpt lat="47.6700410" lon="9.4100330">
        <ele>39.6</ele>
        <time>2022-06-08T11:25:04Z</time>
      </trkpt>
      <trkpt lat="47.6700410" lon="9.4102850">
        <ele>39.8</ele>
        <time>2022-06-08T11:25:08Z</time>
      </trkpt>
      <trkpt lat="47.6700480" lon="9.4105310">
        <ele>40.8</ele>
        <time>2022-06-08T11:25:12Z</time>
      </trkpt>
      <trkpt lat="47.6700810" lon="9.4107750">
        <ele>41.4</ele>
        <time>2022-06-08T11:25:16Z</time>
      </trkpt>
      <trkpt lat="47.6701260" lon="9.4110110">
        <ele>42.2</ele>
        <time>2022-06-08T11:25:20Z</time>
      </trkpt>
      <trkpt lat="47.6701860" lon="9.4112480">
        <ele>42.2</ele>
        <time>2022-06-08T11:25:24Z</time>
      </trkpt>
      <trkpt lat="47.6702510" lon="9.4114850">
        <ele>42.2</ele>
        <time>2022-06-08T11:25:28Z</time>
      </trkpt>
      <trkpt lat="47.6703110" lon="9.4117150">
        <ele>42.4</ele>
        <time>2022-06-08T11:25:32Z</time>
      </trkpt>
      <trkpt lat="47.6703460" lon="9.4119510">
        <ele>42.8</ele>
        <time>2022-06-08T11:25:36Z</time>
      </trkpt>
      <trkpt lat="47.6703580" lon="9.4121960">
        <ele>43.4</ele>
        <time>2022-06-08T11:25:40Z</time>
      </trkpt>
      <trkpt lat="47.6703480" lon="9.4124330">
        <ele>43.6</ele>
        <time>2022-06-08T11:25:44Z</time>
      </trkpt>
      <trkpt lat="47.6703210" lon="9.4126730">
        <ele>43.8</ele>
        <time>2022-06-08T11:25:48Z</time>
      </trkpt>
      <trkpt lat="47.6702650" lon="9.4129300">
        <ele>44.0</ele>
        <time>2022-06-08T11:25:52Z</time>
      </trkpt>
      <trkpt lat="47.6701900" lon="9.4131730">
        <ele>43.8</ele>
        <time>2022-06-08T11:25:56Z</time>
      </trkpt>
      <trkpt lat="47.6701080" lon="9.4134130">
        <ele>44.0</ele>
        <time>2022-06-08T11:26:00Z</time>
      </trkpt>
      <trkpt lat="47.6700260" lon="9.4136530">
        <ele>43.4</ele>
        <time>2022-06-08T11:26:04Z</time>
      </trkpt>
      <trkpt lat="47.6699360" lon="9.4138910">
        <ele>43.8</ele>
        <time>2022-06-08T11:26:08Z</time>
      </trkpt>
      <trkpt lat="47.6698530" lon="9.4141360">
        <ele>43.4</ele>
        <time>2022-06-08T11:26:12Z</time>
      </trkpt>
      <trkpt lat="47.6697730" lon="9.4143810">
        <ele>43.8</ele>
        <time>2022-06-08T11:26:16Z</time>
      </trkpt>
      <trkpt lat="47.6697080" lon="9.4146400">
        <ele>43.6</ele>
        <time>2022-06-08T11:26:20Z</time>
      </trkpt>
      <trkpt lat="47.6696430" lon="9.4148960">
        <ele>43.6</ele>
        <time>2022-06-08T11:26:24Z</time>
      </trkpt>
      <trkpt lat="47.6695710" lon="9.4151380">
        <ele>43.2</ele>
        <time>2022-06-08T11:26:28Z</time>
      </trkpt>
      <trkpt lat="47.6695310" lon="9.4153750">
        <ele>42.6</ele>
        <time>2022-06-08T11:26:32Z</time>
      </trkpt>
      <trkpt lat="47.6695030" lon="9.4156360">
        <ele>43.4</ele>
        <time>2022-06-08T11:26:36Z</time>
      </trkpt>
      <trkpt lat="47.6694560" lon="9.4159160">
        <ele>43.0</ele>
        <time>2022-06-08T11:26:40Z</time>
      </trkpt>
      <trkpt lat="47.6694100" lon="9.4161780">
        <ele>43.0</ele>
        <time>2022-06-08T11:26:44Z</time>
      </trkpt>
      <trkpt lat="47.6693630" lon="9.4164210">
        <ele>43.6</ele>
        <time>2022-06-08T11:26:48Z</time>
      </trkpt>
      <trkpt lat="47.6693380" lon="9.4165910">
        <ele>42.8</ele>
        <time>2022-06-08T11:26:52Z</time>
      </trkpt>
      <trkpt lat="47.6693000" lon="9.4168200">
        <ele>43.4</ele>
        <time>2022-06-08T11:26:56Z</time>
      </trkpt>
      <trkpt lat="47.6692450" lon="9.4170950">
        <ele>43.2</ele>
        <time>2022-06-08T11:27:00Z</time>
      </trkpt>
      <trkpt lat="47.6691930" lon="9.4173630">
        <ele>43.4</ele>
        <time>2022-06-08T11:27:04Z</time>
      </trkpt>
      <trkpt lat="47.6691280" lon="9.4176450">
        <ele>43.2</ele>
        <time>2022-06-08T11:27:08Z</time>
      </trkpt>
      <trkpt lat="47.6690730" lon="9.4179200">
        <ele>43.8</ele>
        <time>2022-06-08T11:27:12Z</time>
      </trkpt>
      <trkpt lat="47.6689900" lon="9.4181550">
        <ele>43.8</ele>
        <time>2022-06-08T11:27:16Z</time>
      </trkpt>
      <trkpt lat="47.6689530" lon="9.4184150">
        <ele>44.2</ele>
        <time>2022-06-08T11:27:20Z</time>
      </trkpt>
      <trkpt lat="47.6689300" lon="9.4186730">
        <ele>44.0</ele>
        <time>2022-06-08T11:27:24Z</time>
      </trkpt>
      <trkpt lat="47.6688910" lon="9.4189380">
        <ele>44.2</ele>
        <time>2022-06-08T11:27:28Z</time>
      </trkpt>
      <trkpt lat="47.6688550" lon="9.4192300">
        <ele>44.4</ele>
        <time>2022-06-08T11:27:32Z</time>
      </trkpt>
      <trkpt lat="47.6688130" lon="9.4195110">
        <ele>43.6</ele>
        <time>2022-06-08T11:27:36Z</time>
      </trkpt>
      <trkpt lat="47.6687550" lon="9.4198150">
        <ele>44.4</ele>
        <time>2022-06-08T11:27:40Z</time>
      </trkpt>
      <trkpt lat="47.6687060" lon="9.4201010">
        <ele>44.2</ele>
        <time>2022-06-08T11:27:44Z</time>
      </trkpt>
      <trkpt lat="47.6686510" lon="9.4203800">
        <ele>44.4</ele>
        <time>2022-06-08T11:27:48Z</time>
      </trkpt>
      <trkpt lat="47.6685810" lon="9.4206380">
        <ele>45.0</ele>
        <time>2022-06-08T11:27:52Z</time>
      </trkpt>
      <trkpt lat="47.6684850" lon="9.4208960">
        <ele>45.2</ele>
        <time>2022-06-08T11:27:56Z</time>
      </trkpt>
      <trkpt lat="47.6684410" lon="9.4211900">
        <ele>45.0</ele>
        <time>2022-06-08T11:28:00Z</time>
      </trkpt>
      <trkpt lat="47.6683550" lon="9.4214750">
        <ele>45.4</ele>
        <time>2022-06-08T11:28:04Z</time>
      </trkpt>
      <trkpt lat="47.6682650" lon="9.4217250">
        <ele>45.0</ele>
        <time>2022-06-08T11:28:08Z</time>
      </trkpt>
      <trkpt lat="47.6681530" lon="9.4219700">
        <ele>46.4</ele>
        <time>2022-06-08T11:28:12Z</time>
      </trkpt>
      <trkpt lat="47.6680810" lon="9.4222100">
        <ele>46.4</ele>
        <time>2022-06-08T11:28:16Z</time>
      </trkpt>
      <trkpt lat="47.6679830" lon="9.4224260">
        <ele>46.6</ele>
        <time>2022-06-08T11:28:20Z</time>
      </trkpt>
      <trkpt lat="47.6678830" lon="9.4226550">
        <ele>46.6</ele>
        <time>2022-06-08T11:28:24Z</time>
      </trkpt>
      <trkpt lat="47.6677710" lon="9.4228760">
        <ele>47.2</ele>
        <time>2022-06-08T11:28:28Z</time>
      </trkpt>
      <trkpt lat="47.6676550" lon="9.4231110">
        <ele>47.2</ele>
        <time>2022-06-08T11:28:32Z</time>
      </trkpt>
      <trkpt lat="47.6675200" lon="9.4233380">
        <ele>47.2</ele>
        <time>2022-06-08T11:28:36Z</time>
      </trkpt>
      <trkpt lat="47.6673830" lon="9.4235650">
        <ele>46.8</ele>
        <time>2022-06-08T11:28:40Z</time>
      </trkpt>
      <trkpt lat="47.6672380" lon="9.4237860">
        <ele>47.0</ele>
        <time>2022-06-08T11:28:44Z</time>
      </trkpt>
      <trkpt lat="47.6670780" lon="9.4239960">
        <ele>46.6</ele>
        <time>2022-06-08T11:28:48Z</time>
      </trkpt>
      <trkpt lat="47.6669100" lon="9.4242250">
        <ele>46.6</ele>
        <time>2022-06-08T11:28:52Z</time>
      </trkpt>
      <trkpt lat="47.6667300" lon="9.4244230">
        <ele>46.6</ele>
        <time>2022-06-08T11:28:56Z</time>
      </trkpt>
      <trkpt lat="47.6665530" lon="9.4246310">
        <ele>46.0</ele>
        <time>2022-06-08T11:29:00Z</time>
      </trkpt>
      <trkpt lat="47.6663860" lon="9.4248330">
        <ele>47.2</ele>
        <time>2022-06-08T11:29:04Z</time>
      </trkpt>
      <trkpt lat="47.6662200" lon="9.4250280">
        <ele>47.2</ele>
        <time>2022-06-08T11:29:08Z</time>
      </trkpt>
      <trkpt lat="47.6660560" lon="9.4252100">
        <ele>47.2</ele>
        <time>2022-06-08T11:29:12Z</time>
      </trkpt>
      <trkpt lat="47.6658980" lon="9.4253950">
        <ele>48.4</ele>
        <time>2022-06-08T11:29:16Z</time>
      </trkpt>
      <trkpt lat="47.6657380" lon="9.4255630">
        <ele>48.2</ele>
        <time>2022-06-08T11:29:20Z</time>
      </trkpt>
      <trkpt lat="47.6655930" lon="9.4257580">
        <ele>48.6</ele>
        <time>2022-06-08T11:29:24Z</time>
      </trkpt>
      <trkpt lat="47.6654810" lon="9.4260060">
        <ele>49.8</ele>
        <time>2022-06-08T11:29:28Z</time>
      </trkpt>
      <trkpt lat="47.6653900" lon="9.4262680">
        <ele>51.2</ele>
        <time>2022-06-08T11:29:32Z</time>
      </trkpt>
      <trkpt lat="47.6652760" lon="9.4264930">
        <ele>51.8</ele>
        <time>2022-06-08T11:29:36Z</time>
      </trkpt>
      <trkpt lat="47.6651660" lon="9.4267300">
        <ele>52.4</ele>
        <time>2022-06-08T11:29:40Z</time>
      </trkpt>
      <trkpt lat="47.6650610" lon="9.4269710">
        <ele>53.4</ele>
        <time>2022-06-08T11:29:44Z</time>
      </trkpt>
      <trkpt lat="47.6649600" lon="9.4272130">
        <ele>53.6</ele>
        <time>2022-06-08T11:29:48Z</time>
      </trkpt>
      <trkpt lat="47.6648800" lon="9.4274350">
        <ele>54.0</ele>
        <time>2022-06-08T11:29:52Z</time>
      </trkpt>
      <trkpt lat="47.6648000" lon="9.4276560">
        <ele>55.0</ele>
        <time>2022-06-08T11:29:56Z</time>
      </trkpt>
      <trkpt lat="47.6647200" lon="9.4278830">
        <ele>54.8</ele>
        <time>2022-06-08T11:30:00Z</time>
      </trkpt>
      <trkpt lat="47.6646480" lon="9.4281310">
        <ele>55.2</ele>
        <time>2022-06-08T11:30:04Z</time>
      </trkpt>
      <trkpt lat="47.6645800" lon="9.4283860">
        <ele>56.0</ele>
        <time>2022-06-08T11:30:08Z</time>
      </trkpt>
      <trkpt lat="47.6645130" lon="9.4286500">
        <ele>56.6</ele>
        <time>2022-06-08T11:30:12Z</time>
      </trkpt>
      <trkpt lat="47.6644550" lon="9.4289130">
        <ele>56.0</ele>
        <time>2022-06-08T11:30:16Z</time>
      </trkpt>
      <trkpt lat="47.6644030" lon="9.4291660">
        <ele>56.4</ele>
        <time>2022-06-08T11:30:20Z</time>
      </trkpt>
      <trkpt lat="47.6643530" lon="9.4294160">
        <ele>56.4</ele>
        <time>2022-06-08T11:30:24Z</time>
      </trkpt>
      <trkpt lat="47.6642980" lon="9.4296680">
        <ele>56.4</ele>
        <time>2022-06-08T11:30:28Z</time>
      </trkpt>
      <trkpt lat="47.6642160" lon="9.4299080">
        <ele>56.8</ele>
        <time>2022-06-08T11:30:32Z</time>
      </trkpt>
      <trkpt lat="47.6641280" lon="9.4301700">
        <ele>55.6</ele>
        <time>2022-06-08T11:30:36Z</time>
      </trkpt>
      <trkpt lat="47.6640530" lon="9.4304410">
        <ele>56.0</ele>
        <time>2022-06-08T11:30:40Z</time>
      </trkpt>
      <trkpt lat="47.6639650" lon="9.4306930">
        <ele>55.6</ele>
        <time>2022-06-08T11:30:44Z</time>
      </trkpt>
      <trkpt lat="47.6638610" lon="9.4309580">
        <ele>55.0</ele>
        <time>2022-06-08T11:30:48Z</time>
      </trkpt>
      <trkpt lat="47.6637530" lon="9.4312110">
        <ele>55.4</ele>
        <time>2022-06-08T11:30:52Z</time>
      </trkpt>
      <trkpt lat="47.6636280" lon="9.4314610">
        <ele>55.4</ele>
        <time>2022-06-08T11:30:56Z</time>
      </trkpt>
      <trkpt lat="47.6634960" lon="9.4317110">
        <ele>55.6</ele>
        <time>2022-06-08T11:31:00Z</time>
      </trkpt>
      <trkpt lat="47.6633600" lon="9.4319460">
        <ele>54.2</ele>
        <time>2022-06-08T11:31:04Z</time>
      </trkpt>
      <trkpt lat="47.6632180" lon="9.4321580">
        <ele>54.2</ele>
        <time>2022-06-08T11:31:08Z</time>
      </trkpt>
      <trkpt lat="47.6630650" lon="9.4323560">
        <ele>53.6</ele>
        <time>2022-06-08T11:31:12Z</time>
      </trkpt>
      <trkpt lat="47.6628980" lon="9.4325550">
        <ele>53.4</ele>
        <time>2022-06-08T11:31:16Z</time>
      </trkpt>
      <trkpt lat="47.6627210" lon="9.4327350">
        <ele>53.6</ele>
        <time>2022-06-08T11:31:20Z</time>
      </trkpt>
      <trkpt lat="47.6625510" lon="9.4329060">
        <ele>52.8</ele>
        <time>2022-06-08T11:31:24Z</time>
      </trkpt>
      <trkpt lat="47.6623830" lon="9.4330610">
        <ele>52.0</ele>
        <time>2022-06-08T11:31:28Z</time>
      </trkpt>
      <trkpt lat="47.6622000" lon="9.4332210">
        <ele>52.6</ele>
        <time>2022-06-08T11:31:32Z</time>
      </trkpt>
      <trkpt lat="47.6620100" lon="9.4333860">
        <ele>52.2</ele>
        <time>2022-06-08T11:31:36Z</time>
      </trkpt>
      <trkpt lat="47.6618310" lon="9.4335700">
        <ele>52.0</ele>
        <time>2022-06-08T11:31:40Z</time>
      </trkpt>
      <trkpt lat="47.6616480" lon="9.4337480">
        <ele>50.8</ele>
        <time>2022-06-08T11:31:44Z</time>
      </trkpt>
      <trkpt lat="47.6614680" lon="9.4339280">
        <ele>51.8</ele>
        <time>2022-06-08T11:31:48Z</time>
      </trkpt>
      <trkpt lat="47.6613010" lon="9.4341000">
        <ele>50.8</ele>
        <time>2022-06-08T11:31:52Z</time>
      </trkpt>
      <trkpt lat="47.6611460" lon="9.4342680">
        <ele>50.0</ele>
        <time>2022-06-08T11:31:56Z</time>
      </trkpt>
      <trkpt lat="47.6609630" lon="9.4344500">
        <ele>49.6</ele>
        <time>2022-06-08T11:32:00Z</time>
      </trkpt>
      <trkpt lat="47.6607930" lon="9.4346280">
        <ele>49.6</ele>
        <time>2022-06-08T11:32:04Z</time>
      </trkpt>
      <trkpt lat="47.6605980" lon="9.4348480">
        <ele>49.8</ele>
        <time>2022-06-08T11:32:08Z</time>
      </trkpt>
      <trkpt lat="47.6604150" lon="9.4350750">
        <ele>49.2</ele>
        <time>2022-06-08T11:32:12Z</time>
      </trkpt>
      <trkpt lat="47.6602260" lon="9.4353380">
        <ele>48.2</ele>
        <time>2022-06-08T11:32:16Z</time>
      </trkpt>
      <trkpt lat="47.6600680" lon="9.4355860">
        <ele>49.2</ele>
        <time>2022-06-08T11:32:20Z</time>
      </trkpt>
      <trkpt lat="47.6599100" lon="9.4358450">
        <ele>48.6</ele>
        <time>2022-06-08T11:32:24Z</time>
      </trkpt>
      <trkpt lat="47.6597660" lon="9.4360980">
        <ele>48.0</ele>
        <time>2022-06-08T11:32:28Z</time>
      </trkpt>
      <trkpt lat="47.6596350" lon="9.4363660">
        <ele>48.6</ele>
        <time>2022-06-08T11:32:32Z</time>
      </trkpt>
      <trkpt lat="47.6595180" lon="9.4366610">
        <ele>47.2</ele>
        <time>2022-06-08T11:32:36Z</time>
      </trkpt>
      <trkpt lat="47.6594230" lon="9.4369450">
        <ele>47.4</ele>
        <time>2022-06-08T11:32:40Z</time>
      </trkpt>
      <trkpt lat="47.6593310" lon="9.4372360">
        <ele>48.0</ele>
        <time>2022-06-08T11:32:44Z</time>
      </trkpt>
      <trkpt lat="47.6592450" lon="9.4375350">
        <ele>46.8</ele>
        <time>2022-06-08T11:32:48Z</time>
      </trkpt>
      <trkpt lat="47.6591900" lon="9.4378230">
        <ele>47.6</ele>
        <time>2022-06-08T11:32:52Z</time>
      </trkpt>
      <trkpt lat="47.6591200" lon="9.4381060">
        <ele>47.0</ele>
        <time>2022-06-08T11:32:56Z</time>
      </trkpt>
      <trkpt lat="47.6590610" lon="9.4383930">
        <ele>47.8</ele>
        <time>2022-06-08T11:33:00Z</time>
      </trkpt>
      <trkpt lat="47.6590050" lon="9.4387100">
        <ele>47.6</ele>
        <time>2022-06-08T11:33:04Z</time>
      </trkpt>
      <trkpt lat="47.6589850" lon="9.4390360">
        <ele>47.6</ele>
        <time>2022-06-08T11:33:08Z</time>
      </trkpt>
      <trkpt lat="47.6589610" lon="9.4393280">
        <ele>47.6</ele>
        <time>2022-06-08T11:33:12Z</time>
      </trkpt>
      <trkpt lat="47.6589500" lon="9.4396480">
        <ele>48.2</ele>
        <time>2022-06-08T11:33:16Z</time>
      </trkpt>
      <trkpt lat="47.6589310" lon="9.4399310">
        <ele>48.2</ele>
        <time>2022-06-08T11:33:20Z</time>
      </trkpt>
      <trkpt lat="47.6589060" lon="9.4402630">
        <ele>48.2</ele>
        <time>2022-06-08T11:33:24Z</time>
      </trkpt>
      <trkpt lat="47.6588830" lon="9.4405830">
        <ele>47.8</ele>
        <time>2022-06-08T11:33:28Z</time>
      </trkpt>
      <trkpt lat="47.6588680" lon="9.4408700">
        <ele>48.4</ele>
        <time>2022-06-08T11:33:32Z</time>
      </trkpt>
      <trkpt lat="47.6588460" lon="9.4411660">
        <ele>47.4</ele>
        <time>2022-06-08T11:33:36Z</time>
      </trkpt>
      <trkpt lat="47.6588580" lon="9.4414880">
        <ele>47.0</ele>
        <time>2022-06-08T11:33:40Z</time>
      </trkpt>
      <trkpt lat="47.6588600" lon="9.4418080">
        <ele>45.2</ele>
        <time>2022-06-08T11:33:44Z</time>
      </trkpt>
      <trkpt lat="47.6588350" lon="9.4422280">
        <ele>43.8</ele>
        <time>2022-06-08T11:33:48Z</time>
      </trkpt>
      <trkpt lat="47.6588430" lon="9.4426630">
        <ele>45.2</ele>
        <time>2022-06-08T11:33:52Z</time>
      </trkpt>
      <trkpt lat="47.6588560" lon="9.4429880">
        <ele>44.8</ele>
        <time>2022-06-08T11:33:56Z</time>
      </trkpt>
      <trkpt lat="47.6588510" lon="9.4432900">
        <ele>44.8</ele>
        <time>2022-06-08T11:34:00Z</time>
      </trkpt>
      <trkpt lat="47.6588360" lon="9.4435910">
        <ele>45.6</ele>
        <time>2022-06-08T11:34:04Z</time>
      </trkpt>
      <trkpt lat="47.6588260" lon="9.4438860">
        <ele>45.4</ele>
        <time>2022-06-08T11:34:08Z</time>
      </trkpt>
      <trkpt lat="47.6588160" lon="9.4441630">
        <ele>46.4</ele>
        <time>2022-06-08T11:34:12Z</time>
      </trkpt>
      <trkpt lat="47.6587850" lon="9.4444380">
        <ele>45.6</ele>
        <time>2022-06-08T11:34:16Z</time>
      </trkpt>
      <trkpt lat="47.6587850" lon="9.4447260">
        <ele>46.2</ele>
        <time>2022-06-08T11:34:20Z</time>
      </trkpt>
      <trkpt lat="47.6587900" lon="9.4450110">
        <ele>46.6</ele>
        <time>2022-06-08T11:34:24Z</time>
      </trkpt>
      <trkpt lat="47.6587700" lon="9.4453010">
        <ele>47.6</ele>
        <time>2022-06-08T11:34:28Z</time>
      </trkpt>
      <trkpt lat="47.6587430" lon="9.4455710">
        <ele>47.6</ele>
        <time>2022-06-08T11:34:32Z</time>
      </trkpt>
      <trkpt lat="47.6587110" lon="9.4458460">
        <ele>48.6</ele>
        <time>2022-06-08T11:34:36Z</time>
      </trkpt>
      <trkpt lat="47.6586600" lon="9.4461200">
        <ele>48.6</ele>
        <time>2022-06-08T11:34:40Z</time>
      </trkpt>
      <trkpt lat="47.6585830" lon="9.4463760">
        <ele>48.4</ele>
        <time>2022-06-08T11:34:44Z</time>
      </trkpt>
      <trkpt lat="47.6585260" lon="9.4466550">
        <ele>48.2</ele>
        <time>2022-06-08T11:34:48Z</time>
      </trkpt>
      <trkpt lat="47.6584950" lon="9.4468980">
        <ele>48.4</ele>
        <time>2022-06-08T11:34:52Z</time>
      </trkpt>
      <trkpt lat="47.6584530" lon="9.4470780">
        <ele>48.2</ele>
        <time>2022-06-08T11:34:56Z</time>
      </trkpt>
      <trkpt lat="47.6583360" lon="9.4470380">
        <ele>47.8</ele>
        <time>2022-06-08T11:35:00Z</time>
      </trkpt>
      <trkpt lat="47.6582580" lon="9.4472050">
        <ele>47.6</ele>
        <time>2022-06-08T11:35:04Z</time>
      </trkpt>
      <trkpt lat="47.6582310" lon="9.4474400">
        <ele>47.4</ele>
        <time>2022-06-08T11:35:08Z</time>
      </trkpt>
      <trkpt lat="47.6582050" lon="9.4476550">
        <ele>48.4</ele>
        <time>2022-06-08T11:35:12Z</time>
      </trkpt>
      <trkpt lat="47.6581600" lon="9.4478730">
        <ele>48.4</ele>
        <time>2022-06-08T11:35:16Z</time>
      </trkpt>
      <trkpt lat="47.6581180" lon="9.4481030">
        <ele>48.6</ele>
        <time>2022-06-08T11:35:20Z</time>
      </trkpt>
      <trkpt lat="47.6580810" lon="9.4483400">
        <ele>48.0</ele>
        <time>2022-06-08T11:35:24Z</time>
      </trkpt>
      <trkpt lat="47.6580430" lon="9.4485850">
        <ele>48.4</ele>
        <time>2022-06-08T11:35:28Z</time>
      </trkpt>
      <trkpt lat="47.6579960" lon="9.4488200">
        <ele>47.8</ele>
        <time>2022-06-08T11:35:32Z</time>
      </trkpt>
      <trkpt lat="47.6579430" lon="9.4490760">
        <ele>47.6</ele>
        <time>2022-06-08T11:35:36Z</time>
      </trkpt>
      <trkpt lat="47.6578710" lon="9.4493580">
        <ele>47.4</ele>
        <time>2022-06-08T11:35:40Z</time>
      </trkpt>
      <trkpt lat="47.6578060" lon="9.4496310">
        <ele>46.8</ele>
        <time>2022-06-08T11:35:44Z</time>
      </trkpt>
      <trkpt lat="47.6577400" lon="9.4499480">
        <ele>47.0</ele>
        <time>2022-06-08T11:35:48Z</time>
      </trkpt>
      <trkpt lat="47.6576580" lon="9.4502660">
        <ele>47.4</ele>
        <time>2022-06-08T11:35:52Z</time>
      </trkpt>
      <trkpt lat="47.6575610" lon="9.4505680">
        <ele>47.6</ele>
        <time>2022-06-08T11:35:56Z</time>
      </trkpt>
      <trkpt lat="47.6574660" lon="9.4508550">
        <ele>46.6</ele>
        <time>2022-06-08T11:36:00Z</time>
      </trkpt>
      <trkpt lat="47.6573750" lon="9.4511300">
        <ele>47.4</ele>
        <time>2022-06-08T11:36:04Z</time>
      </trkpt>
      <trkpt lat="47.6572850" lon="9.4514150">
        <ele>46.4</ele>
        <time>2022-06-08T11:36:08Z</time>
      </trkpt>
      <trkpt lat="47.6571930" lon="9.4516810">
        <ele>47.8</ele>
        <time>2022-06-08T11:36:12Z</time>
      </trkpt>
      <trkpt lat="47.6571000" lon="9.4519610">
        <ele>47.6</ele>
        <time>2022-06-08T11:36:16Z</time>
      </trkpt>
      <trkpt lat="47.6570050" lon="9.4522130">
        <ele>47.4</ele>
        <time>2022-06-08T11:36:20Z</time>
      </trkpt>
      <trkpt lat="47.6569150" lon="9.4524800">
        <ele>47.4</ele>
        <time>2022-06-08T11:36:24Z</time>
      </trkpt>
      <trkpt lat="47.6567880" lon="9.4527510">
        <ele>47.2</ele>
        <time>2022-06-08T11:36:28Z</time>
      </trkpt>
      <trkpt lat="47.6566700" lon="9.4530150">
        <ele>47.2</ele>
        <time>2022-06-08T11:36:32Z</time>
      </trkpt>
      <trkpt lat="47.6565530" lon="9.4532730">
        <ele>47.4</ele>
        <time>2022-06-08T11:36:36Z</time>
      </trkpt>
      <trkpt lat="47.6564310" lon="9.4535500">
        <ele>46.6</ele>
        <time>2022-06-08T11:36:40Z</time>
      </trkpt>
      <trkpt lat="47.6563030" lon="9.4538280">
        <ele>46.0</ele>
        <time>2022-06-08T11:36:44Z</time>
      </trkpt>
      <trkpt lat="47.6562050" lon="9.4540950">
        <ele>46.6</ele>
        <time>2022-06-08T11:36:48Z</time>
      </trkpt>
      <trkpt lat="47.6560880" lon="9.4543150">
        <ele>45.8</ele>
        <time>2022-06-08T11:36:52Z</time>
      </trkpt>
      <trkpt lat="47.6559610" lon="9.4545280">
        <ele>45.4</ele>
        <time>2022-06-08T11:36:56Z</time>
      </trkpt>
      <trkpt lat="47.6558100" lon="9.4547910">
        <ele>45.2</ele>
        <time>2022-06-08T11:37:00Z</time>
      </trkpt>
      <trkpt lat="47.6556760" lon="9.4551060">
        <ele>44.2</ele>
        <time>2022-06-08T11:37:04Z</time>
      </trkpt>
      <trkpt lat="47.6555260" lon="9.4554400">
        <ele>44.2</ele>
        <time>2022-06-08T11:37:08Z</time>
      </trkpt>
      <trkpt lat="47.6554160" lon="9.4557150">
        <ele>43.2</ele>
        <time>2022-06-08T11:37:12Z</time>
      </trkpt>
      <trkpt lat="47.6552830" lon="9.4559930">
        <ele>42.2</ele>
        <time>2022-06-08T11:37:16Z</time>
      </trkpt>
      <trkpt lat="47.6551480" lon="9.4562650">
        <ele>42.8</ele>
        <time>2022-06-08T11:37:20Z</time>
      </trkpt>
      <trkpt lat="47.6550010" lon="9.4565710">
        <ele>43.6</ele>
        <time>2022-06-08T11:37:24Z</time>
      </trkpt>
      <trkpt lat="47.6548680" lon="9.4568580">
        <ele>43.8</ele>
        <time>2022-06-08T11:37:28Z</time>
      </trkpt>
      <trkpt lat="47.6547400" lon="9.4571280">
        <ele>44.8</ele>
        <time>2022-06-08T11:37:32Z</time>
      </trkpt>
      <trkpt lat="47.6546150" lon="9.4573630">
        <ele>45.0</ele>
        <time>2022-06-08T11:37:36Z</time>
      </trkpt>
      <trkpt lat="47.6545110" lon="9.4575680">
        <ele>45.4</ele>
        <time>2022-06-08T11:37:40Z</time>
      </trkpt>
      <trkpt lat="47.6544060" lon="9.4577430">
        <ele>46.0</ele>
        <time>2022-06-08T11:37:44Z</time>
      </trkpt>
      <trkpt lat="47.6543050" lon="9.4579630">
        <ele>45.2</ele>
        <time>2022-06-08T11:37:48Z</time>
      </trkpt>
      <trkpt lat="47.6541950" lon="9.4581800">
        <ele>45.4</ele>
        <time>2022-06-08T11:37:52Z</time>
      </trkpt>
      <trkpt lat="47.6540950" lon="9.4583980">
        <ele>45.6</ele>
        <time>2022-06-08T11:37:56Z</time>
      </trkpt>
      <trkpt lat="47.6539850" lon="9.4586060">
        <ele>45.4</ele>
        <time>2022-06-08T11:38:00Z</time>
      </trkpt>
      <trkpt lat="47.6538700" lon="9.4588160">
        <ele>45.4</ele>
        <time>2022-06-08T11:38:04Z</time>
      </trkpt>
      <trkpt lat="47.6537600" lon="9.4590460">
        <ele>45.8</ele>
        <time>2022-06-08T11:38:08Z</time>
      </trkpt>
      <trkpt lat="47.6536410" lon="9.4592780">
        <ele>45.2</ele>
        <time>2022-06-08T11:38:12Z</time>
      </trkpt>
      <trkpt lat="47.6535150" lon="9.4595080">
        <ele>46.4</ele>
        <time>2022-06-08T11:38:16Z</time>
      </trkpt>
      <trkpt lat="47.6533850" lon="9.4597360">
        <ele>45.6</ele>
        <time>2022-06-08T11:38:20Z</time>
      </trkpt>
      <trkpt lat="47.6532660" lon="9.4599660">
        <ele>46.4</ele>
        <time>2022-06-08T11:38:24Z</time>
      </trkpt>
      <trkpt lat="47.6531430" lon="9.4602080">
        <ele>46.6</ele>
        <time>2022-06-08T11:38:28Z</time>
      </trkpt>
      <trkpt lat="47.6530480" lon="9.4604580">
        <ele>46.4</ele>
        <time>2022-06-08T11:38:32Z</time>
      </trkpt>
      <trkpt lat="47.6529660" lon="9.4607000">
        <ele>46.6</ele>
        <time>2022-06-08T11:38:36Z</time>
      </trkpt>
      <trkpt lat="47.6528960" lon="9.4608900">
        <ele>46.8</ele>
        <time>2022-06-08T11:38:40Z</time>
      </trkpt>
      <trkpt lat="47.6528080" lon="9.4611000">
        <ele>47.4</ele>
        <time>2022-06-08T11:38:44Z</time>
      </trkpt>
      <trkpt lat="47.6527400" lon="9.4613560">
        <ele>47.8</ele>
        <time>2022-06-08T11:38:48Z</time>
      </trkpt>
      <trkpt lat="47.6526660" lon="9.4616130">
        <ele>48.4</ele>
        <time>2022-06-08T11:38:52Z</time>
      </trkpt>
      <trkpt lat="47.6525980" lon="9.4618700">
        <ele>48.8</ele>
        <time>2022-06-08T11:38:56Z</time>
      </trkpt>
      <trkpt lat="47.6525510" lon="9.4621160">
        <ele>49.2</ele>
        <time>2022-06-08T11:39:00Z</time>
      </trkpt>
      <trkpt lat="47.6525200" lon="9.4623700">
        <ele>49.2</ele>
        <time>2022-06-08T11:39:04Z</time>
      </trkpt>
      <trkpt lat="47.6524750" lon="9.4626260">
        <ele>49.4</ele>
        <time>2022-06-08T11:39:08Z</time>
      </trkpt>
      <trkpt lat="47.6524580" lon="9.4629000">
        <ele>49.8</ele>
        <time>2022-06-08T11:39:12Z</time>
      </trkpt>
      <trkpt lat="47.6524680" lon="9.4631650">
        <ele>49.4</ele>
        <time>2022-06-08T11:39:16Z</time>
      </trkpt>
      <trkpt lat="47.6524960" lon="9.4633900">
        <ele>49.6</ele>
        <time>2022-06-08T11:39:20Z</time>
      </trkpt>
      <trkpt lat="47.6525030" lon="9.4635950">
        <ele>50.0</ele>
        <time>2022-06-08T11:39:24Z</time>
      </trkpt>
      <trkpt lat="47.6525230" lon="9.4638150">
        <ele>50.2</ele>
        <time>2022-06-08T11:39:28Z</time>
      </trkpt>
      <trkpt lat="47.6525330" lon="9.4640280">
        <ele>51.0</ele>
        <time>2022-06-08T11:39:32Z</time>
      </trkpt>
      <trkpt lat="47.6525630" lon="9.4642160">
        <ele>52.0</ele>
        <time>2022-06-08T11:39:36Z</time>
      </trkpt>
      <trkpt lat="47.6525060" lon="9.4644110">
        <ele>51.6</ele>
        <time>2022-06-08T11:39:40Z</time>
      </trkpt>
      <trkpt lat="47.6524480" lon="9.4646310">
        <ele>52.4</ele>
        <time>2022-06-08T11:39:44Z</time>
      </trkpt>
      <trkpt lat="47.6524450" lon="9.4648250">
        <ele>52.2</ele>
        <time>2022-06-08T11:39:48Z</time>
      </trkpt>
      <trkpt lat="47.6524700" lon="9.4650350">
        <ele>51.8</ele>
        <time>2022-06-08T11:39:52Z</time>
      </trkpt>
      <trkpt lat="47.6524560" lon="9.4652830">
        <ele>51.8</ele>
        <time>2022-06-08T11:39:56Z</time>
      </trkpt>
      <trkpt lat="47.6524510" lon="9.4655180">
        <ele>51.2</ele>
        <time>2022-06-08T11:40:00Z</time>
      </trkpt>
      <trkpt lat="47.6524600" lon="9.4657450">
        <ele>51.0</ele>
        <time>2022-06-08T11:40:04Z</time>
      </trkpt>
      <trkpt lat="47.6524730" lon="9.4659500">
        <ele>50.4</ele>
        <time>2022-06-08T11:40:08Z</time>
      </trkpt>
      <trkpt lat="47.6524980" lon="9.4661330">
        <ele>50.6</ele>
        <time>2022-06-08T11:40:12Z</time>
      </trkpt>
      <trkpt lat="47.6524830" lon="9.4663080">
        <ele>49.4</ele>
        <time>2022-06-08T11:40:16Z</time>
      </trkpt>
      <trkpt lat="47.6524280" lon="9.4665730">
        <ele>48.4</ele>
        <time>2022-06-08T11:40:20Z</time>
      </trkpt>
      <trkpt lat="47.6524150" lon="9.4669100">
        <ele>47.2</ele>
        <time>2022-06-08T11:40:24Z</time>
      </trkpt>
      <trkpt lat="47.6524030" lon="9.4672860">
        <ele>46.6</ele>
        <time>2022-06-08T11:40:28Z</time>
      </trkpt>
      <trkpt lat="47.6523930" lon="9.4677080">
        <ele>44.0</ele>
        <time>2022-06-08T11:40:32Z</time>
      </trkpt>
      <trkpt lat="47.6523700" lon="9.4681360">
        <ele>44.2</ele>
        <time>2022-06-08T11:40:36Z</time>
      </trkpt>
      <trkpt lat="47.6523500" lon="9.4685400">
        <ele>43.2</ele>
        <time>2022-06-08T11:40:40Z</time>
      </trkpt>
      <trkpt lat="47.6523230" lon="9.4689180">
        <ele>42.6</ele>
        <time>2022-06-08T11:40:44Z</time>
      </trkpt>
      <trkpt lat="47.6523380" lon="9.4691180">
        <ele>42.4</ele>
        <time>2022-06-08T11:40:48Z</time>
      </trkpt>
      <trkpt lat="47.6523380" lon="9.4691180">
        <ele>43.2</ele>
        <time>2022-06-08T11:40:52Z</time>
      </trkpt>
      <trkpt lat="47.6523380" lon="9.4691180">
        <ele>42.8</ele>
        <time>2022-06-08T11:40:56Z</time>
      </trkpt>
      <trkpt lat="47.6523380" lon="9.4691180">
        <ele>43.2</ele>
        <time>2022-06-08T11:41:00Z</time>
      </trkpt>
      <trkpt lat="47.6523380" lon="9.4691180">
        <ele>42.8</ele>
        <time>2022-06-08T11:41:04Z</time>
      </trkpt>
      <trkpt lat="47.6523380" lon="9.4691180">
        <ele>42.8</ele>
        <time>2022-06-08T11:41:08Z</time>
      </trkpt>
      <trkpt lat="47.6523380" lon="9.4691180">
        <ele>42.4</ele>
        <time>2022-06-08T11:41:12Z</time>
      </trkpt>
      <trkpt lat="47.6523380" lon="9.4691180">
        <ele>42.6</ele>
        <time>2022-06-08T11:41:16Z</time>
      </trkpt>
      <trkpt lat="47.6523380" lon="9.4691180">
        <ele>42.0</ele>
        <time>2022-06-08T11:41:20Z</time>
      </trkpt>
      <trkpt lat="47.6523380" lon="9.4691180">
        <ele>42.4</ele>
        <time>2022-06-08T11:41:24Z</time>
      </trkpt>
      <trkpt lat="47.6523550" lon="9.4692430">
        <ele>42.4</ele>
        <time>2022-06-08T11:41:28Z</time>
      </trkpt>
      <trkpt lat="47.6523410" lon="9.4693550">
        <ele>42.4</ele>
        <time>2022-06-08T11:41:32Z</time>
      </trkpt>
      <trkpt lat="47.6523210" lon="9.4695580">
        <ele>42.4</ele>
        <time>2022-06-08T11:41:36Z</time>
      </trkpt>
      <trkpt lat="47.6523080" lon="9.4698310">
        <ele>42.4</ele>
        <time>2022-06-08T11:41:40Z</time>
      </trkpt>
      <trkpt lat="47.6522580" lon="9.4701510">
        <ele>42.2</ele>
        <time>2022-06-08T11:41:44Z</time>
      </trkpt>
      <trkpt lat="47.6522310" lon="9.4704580">
        <ele>42.4</ele>
        <time>2022-06-08T11:41:48Z</time>
      </trkpt>
      <trkpt lat="47.6522110" lon="9.4707480">
        <ele>41.8</ele>
        <time>2022-06-08T11:41:52Z</time>
      </trkpt>
      <trkpt lat="47.6521960" lon="9.4710380">
        <ele>42.4</ele>
        <time>2022-06-08T11:41:56Z</time>
      </trkpt>
      <trkpt lat="47.6521800" lon="9.4713130">
        <ele>42.2</ele>
        <time>2022-06-08T11:42:00Z</time>
      </trkpt>
      <trkpt lat="47.6521510" lon="9.4715980">
        <ele>42.4</ele>
        <time>2022-06-08T11:42:04Z</time>
      </trkpt>
      <trkpt lat="47.6521360" lon="9.4718860">
        <ele>42.4</ele>
        <time>2022-06-08T11:42:08Z</time>
      </trkpt>
      <trkpt lat="47.6521260" lon="9.4721730">
        <ele>42.6</ele>
        <time>2022-06-08T11:42:12Z</time>
      </trkpt>
      <trkpt lat="47.6521100" lon="9.4724580">
        <ele>43.0</ele>
        <time>2022-06-08T11:42:16Z</time>
      </trkpt>
      <trkpt lat="47.6520900" lon="9.4727350">
        <ele>43.4</ele>
        <time>2022-06-08T11:42:20Z</time>
      </trkpt>
      <trkpt lat="47.6520680" lon="9.4730100">
        <ele>42.8</ele>
        <time>2022-06-08T11:42:24Z</time>
      </trkpt>
      <trkpt lat="47.6520510" lon="9.4732750">
        <ele>43.2</ele>
        <time>2022-06-08T11:42:28Z</time>
      </trkpt>
      <trkpt lat="47.6520360" lon="9.4735410">
        <ele>43.2</ele>
        <time>2022-06-08T11:42:32Z</time>
      </trkpt>
      <trkpt lat="47.6520260" lon="9.4738110">
        <ele>43.4</ele>
        <time>2022-06-08T11:42:36Z</time>
      </trkpt>
      <trkpt lat="47.6520100" lon="9.4740810">
        <ele>43.0</ele>
        <time>2022-06-08T11:42:40Z</time>
      </trkpt>
      <trkpt lat="47.6519950" lon="9.4743530">
        <ele>43.4</ele>
        <time>2022-06-08T11:42:44Z</time>
      </trkpt>
      <trkpt lat="47.6519850" lon="9.4746230">
        <ele>43.0</ele>
        <time>2022-06-08T11:42:48Z</time>
      </trkpt>
      <trkpt lat="47.6519800" lon="9.4749100">
        <ele>43.2</ele>
        <time>2022-06-08T11:42:52Z</time>
      </trkpt>
      <trkpt lat="47.6519610" lon="9.4752030">
        <ele>43.4</ele>
        <time>2022-06-08T11:42:56Z</time>
      </trkpt>
      <trkpt lat="47.6519560" lon="9.4754580">
        <ele>42.6</ele>
        <time>2022-06-08T11:43:00Z</time>
      </trkpt>
      <trkpt lat="47.6519410" lon="9.4757110">
        <ele>42.8</ele>
        <time>2022-06-08T11:43:04Z</time>
      </trkpt>
      <trkpt lat="47.6519300" lon="9.4759780">
        <ele>42.6</ele>
        <time>2022-06-08T11:43:08Z</time>
      </trkpt>
      <trkpt lat="47.6519200" lon="9.4762650">
        <ele>42.4</ele>
        <time>2022-06-08T11:43:12Z</time>
      </trkpt>
      <trkpt lat="47.6519010" lon="9.4765630">
        <ele>42.2</ele>
        <time>2022-06-08T11:43:16Z</time>
      </trkpt>
      <trkpt lat="47.6519010" lon="9.4768400">
        <ele>42.2</ele>
        <time>2022-06-08T11:43:20Z</time>
      </trkpt>
      <trkpt lat="47.6518950" lon="9.4771400">
        <ele>42.2</ele>
        <time>2022-06-08T11:43:24Z</time>
      </trkpt>
      <trkpt lat="47.6519150" lon="9.4774280">
        <ele>42.2</ele>
        <time>2022-06-08T11:43:28Z</time>
      </trkpt>
      <trkpt lat="47.6519000" lon="9.4776480">
        <ele>42.4</ele>
        <time>2022-06-08T11:43:32Z</time>
      </trkpt>
      <trkpt lat="47.6518910" lon="9.4778630">
        <ele>42.2</ele>
        <time>2022-06-08T11:43:36Z</time>
      </trkpt>
      <trkpt lat="47.6518810" lon="9.4781250">
        <ele>42.0</ele>
        <time>2022-06-08T11:43:40Z</time>
      </trkpt>
      <trkpt lat="47.6519060" lon="9.4783910">
        <ele>41.6</ele>
        <time>2022-06-08T11:43:44Z</time>
      </trkpt>
      <trkpt lat="47.6518910" lon="9.4786600">
        <ele>41.8</ele>
        <time>2022-06-08T11:43:48Z</time>
      </trkpt>
      <trkpt lat="47.6518650" lon="9.4789400">
        <ele>42.2</ele>
        <time>2022-06-08T11:43:52Z</time>
      </trkpt>
      <trkpt lat="47.6518460" lon="9.4792380">
        <ele>42.4</ele>
        <time>2022-06-08T11:43:56Z</time>
      </trkpt>
      <trkpt lat="47.6518410" lon="9.4795310">
        <ele>42.2</ele>
        <time>2022-06-08T11:44:00Z</time>
      </trkpt>
      <trkpt lat="47.6518410" lon="9.4798050">
        <ele>42.2</ele>
        <time>2022-06-08T11:44:04Z</time>
      </trkpt>
      <trkpt lat="47.6518610" lon="9.4800780">
        <ele>42.2</ele>
        <time>2022-06-08T11:44:08Z</time>
      </trkpt>
      <trkpt lat="47.6518700" lon="9.4803700">
        <ele>41.6</ele>
        <time>2022-06-08T11:44:12Z</time>
      </trkpt>
      <trkpt lat="47.6518460" lon="9.4806350">
        <ele>42.4</ele>
        <time>2022-06-08T11:44:16Z</time>
      </trkpt>
      <trkpt lat="47.6518060" lon="9.4808800">
        <ele>42.2</ele>
        <time>2022-06-08T11:44:20Z</time>
      </trkpt>
      <trkpt lat="47.6517860" lon="9.4811160">
        <ele>41.2</ele>
        <time>2022-06-08T11:44:24Z</time>
      </trkpt>
      <trkpt lat="47.6516950" lon="9.4812150">
        <ele>41.2</ele>
        <time>2022-06-08T11:44:28Z</time>
      </trkpt>
      <trkpt lat="47.6517180" lon="9.4814030">
        <ele>40.4</ele>
        <time>2022-06-08T11:44:32Z</time>
      </trkpt>
      <trkpt lat="47.6517750" lon="9.4815610">
        <ele>40.4</ele>
        <time>2022-06-08T11:44:36Z</time>
      </trkpt>
      <trkpt lat="47.6518630" lon="9.4817410">
        <ele>39.0</ele>
        <time>2022-06-08T11:44:40Z</time>
      </trkpt>
      <trkpt lat="47.6519160" lon="9.4819650">
        <ele>38.8</ele>
        <time>2022-06-08T11:44:44Z</time>
      </trkpt>
      <trkpt lat="47.6519850" lon="9.4822380">
        <ele>39.2</ele>
        <time>2022-06-08T11:44:48Z</time>
      </trkpt>
      <trkpt lat="47.6520430" lon="9.4824860">
        <ele>39.8</ele>
        <time>2022-06-08T11:44:52Z</time>
      </trkpt>
      <trkpt lat="47.6520610" lon="9.4827300">
        <ele>39.6</ele>
        <time>2022-06-08T11:44:56Z</time>
      </trkpt>
      <trkpt lat="47.6520780" lon="9.4829200">
        <ele>39.0</ele>
        <time>2022-06-08T11:45:00Z</time>
      </trkpt>
      <trkpt lat="47.6521600" lon="9.4830060">
        <ele>39.6</ele>
        <time>2022-06-08T11:45:04Z</time>
      </trkpt>
      <trkpt lat="47.6522650" lon="9.4830430">
        <ele>39.6</ele>
        <time>2022-06-08T11:45:08Z</time>
      </trkpt>
      <trkpt lat="47.6523680" lon="9.4830750">
        <ele>40.4</ele>
        <time>2022-06-08T11:45:12Z</time>
      </trkpt>
      <trkpt lat="47.6524860" lon="9.4831780">
        <ele>40.4</ele>
        <time>2022-06-08T11:45:16Z</time>
      </trkpt>
      <trkpt lat="47.6526010" lon="9.4833330">
        <ele>41.2</ele>
        <time>2022-06-08T11:45:20Z</time>
      </trkpt>
      <trkpt lat="47.6526100" lon="9.4835910">
        <ele>41.0</ele>
        <time>2022-06-08T11:45:24Z</time>
      </trkpt>
      <trkpt lat="47.6526100" lon="9.4838750">
        <ele>40.6</ele>
        <time>2022-06-08T11:45:28Z</time>
      </trkpt>
      <trkpt lat="47.6526130" lon="9.4841850">
        <ele>40.6</ele>
        <time>2022-06-08T11:45:32Z</time>
      </trkpt>
      <trkpt lat="47.6526110" lon="9.4845030">
        <ele>40.0</ele>
        <time>2022-06-08T11:45:36Z</time>
      </trkpt>
      <trkpt lat="47.6525950" lon="9.4848360">
        <ele>39.0</ele>
        <time>2022-06-08T11:45:40Z</time>
      </trkpt>
      <trkpt lat="47.6525830" lon="9.4851730">
        <ele>39.8</ele>
        <time>2022-06-08T11:45:44Z</time>
      </trkpt>
      <trkpt lat="47.6525730" lon="9.4855030">
        <ele>38.8</ele>
        <time>2022-06-08T11:45:48Z</time>
      </trkpt>
      <trkpt lat="47.6525680" lon="9.4858350">
        <ele>38.8</ele>
        <time>2022-06-08T11:45:52Z</time>
      </trkpt>
      <trkpt lat="47.6525660" lon="9.4861650">
        <ele>38.6</ele>
        <time>2022-06-08T11:45:56Z</time>
      </trkpt>
      <trkpt lat="47.6525630" lon="9.4865000">
        <ele>39.0</ele>
        <time>2022-06-08T11:46:00Z</time>
      </trkpt>
      <trkpt lat="47.6525550" lon="9.4868330">
        <ele>39.0</ele>
        <time>2022-06-08T11:46:04Z</time>
      </trkpt>
      <trkpt lat="47.6525610" lon="9.4871810">
        <ele>38.2</ele>
        <time>2022-06-08T11:46:08Z</time>
      </trkpt>
      <trkpt lat="47.6525680" lon="9.4875150">
        <ele>37.8</ele>
        <time>2022-06-08T11:46:12Z</time>
      </trkpt>
      <trkpt lat="47.6525680" lon="9.4878250">
        <ele>38.2</ele>
        <time>2022-06-08T11:46:16Z</time>
      </trkpt>
      <trkpt lat="47.6525760" lon="9.4881230">
        <ele>37.8</ele>
        <time>2022-06-08T11:46:20Z</time>
      </trkpt>
      <trkpt lat="47.6525760" lon="9.4884130">
        <ele>38.4</ele>
        <time>2022-06-08T11:46:24Z</time>
      </trkpt>
      <trkpt lat="47.6525750" lon="9.4886960">
        <ele>38.2</ele>
        <time>2022-06-08T11:46:28Z</time>
      </trkpt>
      <trkpt lat="47.6525700" lon="9.4889960">
        <ele>38.4</ele>
        <time>2022-06-08T11:46:32Z</time>
      </trkpt>
      <trkpt lat="47.6525460" lon="9.4893080">
        <ele>39.4</ele>
        <time>2022-06-08T11:46:36Z</time>
      </trkpt>
      <trkpt lat="47.6525330" lon="9.4896130">
        <ele>39.0</ele>
        <time>2022-06-08T11:46:40Z</time>
      </trkpt>
      <trkpt lat="47.6525160" lon="9.4899050">
        <ele>38.6</ele>
        <time>2022-06-08T11:46:44Z</time>
      </trkpt>
      <trkpt lat="47.6525250" lon="9.4901880">
        <ele>38.6</ele>
        <time>2022-06-08T11:46:48Z</time>
      </trkpt>
      <trkpt lat="47.6525010" lon="9.4905010">
        <ele>38.8</ele>
        <time>2022-06-08T11:46:52Z</time>
      </trkpt>
      <trkpt lat="47.6524680" lon="9.4907600">
        <ele>38.4</ele>
        <time>2022-06-08T11:46:56Z</time>
      </trkpt>
      <trkpt lat="47.6524630" lon="9.4909950">
        <ele>38.6</ele>
        <time>2022-06-08T11:47:00Z</time>
      </trkpt>
      <trkpt lat="47.6525200" lon="9.4909480">
        <ele>38.6</ele>
        <time>2022-06-08T11:47:04Z</time>
      </trkpt>
      <trkpt lat="47.6525300" lon="9.4907780">
        <ele>38.4</ele>
        <time>2022-06-08T11:47:08Z</time>
      </trkpt>
      <trkpt lat="47.6525530" lon="9.4905880">
        <ele>38.4</ele>
        <time>2022-06-08T11:47:12Z</time>
      </trkpt>
      <trkpt lat="47.6525630" lon="9.4903960">
        <ele>38.6</ele>
        <time>2022-06-08T11:47:16Z</time>
      </trkpt>
      <trkpt lat="47.6526030" lon="9.4902550">
        <ele>38.2</ele>
        <time>2022-06-08T11:47:20Z</time>
      </trkpt>
      <trkpt lat="47.6526810" lon="9.4901960">
        <ele>39.0</ele>
        <time>2022-06-08T11:47:24Z</time>
      </trkpt>
      <trkpt lat="47.6527580" lon="9.4901530">
        <ele>38.8</ele>
        <time>2022-06-08T11:47:28Z</time>
      </trkpt>
      <trkpt lat="47.6528430" lon="9.4901160">
        <ele>38.6</ele>
        <time>2022-06-08T11:47:32Z</time>
      </trkpt>
      <trkpt lat="47.6529560" lon="9.4901160">
        <ele>39.2</ele>
        <time>2022-06-08T11:47:36Z</time>
      </trkpt>
      <trkpt lat="47.6530730" lon="9.4900860">
        <ele>39.4</ele>
        <time>2022-06-08T11:47:40Z</time>
      </trkpt>
      <trkpt lat="47.6531810" lon="9.4900860">
        <ele>39.0</ele>
        <time>2022-06-08T11:47:44Z</time>
      </trkpt>
      <trkpt lat="47.6532800" lon="9.4900450">
        <ele>39.2</ele>
        <time>2022-06-08T11:47:48Z</time>
      </trkpt>
      <trkpt lat="47.6533760" lon="9.4900360">
        <ele>39.4</ele>
        <time>2022-06-08T11:47:52Z</time>
      </trkpt>
      <trkpt lat="47.6534510" lon="9.4900160">
        <ele>39.4</ele>
        <time>2022-06-08T11:47:56Z</time>
      </trkpt>
      <trkpt lat="47.6535110" lon="9.4899960">
        <ele>39.4</ele>
        <time>2022-06-08T11:48:00Z</time>
      </trkpt>
      <trkpt lat="47.6535110" lon="9.4899960">
        <ele>39.2</ele>
        <time>2022-06-08T11:48:04Z</time>
      </trkpt>
      <trkpt lat="47.6535550" lon="9.4899830">
        <ele>39.6</ele>
        <time>2022-06-08T11:48:08Z</time>
      </trkpt>
      <trkpt lat="47.6535550" lon="9.4899830">
        <ele>39.4</ele>
        <time>2022-06-08T11:48:12Z</time>
      </trkpt>
      <trkpt lat="47.6535550" lon="9.4899830">
        <ele>39.4</ele>
        <time>2022-06-08T11:48:16Z</time>
      </trkpt>
      <trkpt lat="47.6535460" lon="9.4900260">
        <ele>39.6</ele>
        <time>2022-06-08T11:48:20Z</time>
      </trkpt>
      <trkpt lat="47.6535460" lon="9.4900260">
        <ele>39.2</ele>
        <time>2022-06-08T11:48:24Z</time>
      </trkpt>
      <trkpt lat="47.6535380" lon="9.4900280">
        <ele>39.0</ele>
        <time>2022-06-08T11:48:28Z</time>
      </trkpt>
      <trkpt lat="47.6534710" lon="9.4900260">
        <ele>38.8</ele>
        <time>2022-06-08T11:48:32Z</time>
      </trkpt>
      <trkpt lat="47.6533630" lon="9.4900380">
        <ele>39.6</ele>
        <time>2022-06-08T11:48:36Z</time>
      </trkpt>
      <trkpt lat="47.6532480" lon="9.4900380">
        <ele>39.8</ele>
        <time>2022-06-08T11:48:40Z</time>
      </trkpt>
      <trkpt lat="47.6531350" lon="9.4900880">
        <ele>39.6</ele>
        <time>2022-06-08T11:48:44Z</time>
      </trkpt>
      <trkpt lat="47.6530260" lon="9.4901150">
        <ele>39.0</ele>
        <time>2022-06-08T11:48:48Z</time>
      </trkpt>
      <trkpt lat="47.6529350" lon="9.4901300">
        <ele>39.4</ele>
        <time>2022-06-08T11:48:52Z</time>
      </trkpt>
      <trkpt lat="47.6528410" lon="9.4901450">
        <ele>39.0</ele>
        <time>2022-06-08T11:48:56Z</time>
      </trkpt>
      <trkpt lat="47.6527410" lon="9.4901560">
        <ele>39.0</ele>
        <time>2022-06-08T11:49:00Z</time>
      </trkpt>
      <trkpt lat="47.6526580" lon="9.4901810">
        <ele>39.2</ele>
        <time>2022-06-08T11:49:04Z</time>
      </trkpt>
      <trkpt lat="47.6526080" lon="9.4901650">
        <ele>39.0</ele>
        <time>2022-06-08T11:49:08Z</time>
      </trkpt>
      <trkpt lat="47.6525880" lon="9.4901850">
        <ele>39.0</ele>
        <time>2022-06-08T11:49:12Z</time>
      </trkpt>
      <trkpt lat="47.6525860" lon="9.4903030">
        <ele>39.2</ele>
        <time>2022-06-08T11:49:16Z</time>
      </trkpt>
      <trkpt lat="47.6525760" lon="9.4904780">
        <ele>39.2</ele>
        <time>2022-06-08T11:49:20Z</time>
      </trkpt>
      <trkpt lat="47.6525550" lon="9.4906510">
        <ele>39.0</ele>
        <time>2022-06-08T11:49:24Z</time>
      </trkpt>
      <trkpt lat="47.6525510" lon="9.4907930">
        <ele>38.8</ele>
        <time>2022-06-08T11:49:28Z</time>
      </trkpt>
      <trkpt lat="47.6526050" lon="9.4908250">
        <ele>39.0</ele>
        <time>2022-06-08T11:49:32Z</time>
      </trkpt>
      <trkpt lat="47.6526510" lon="9.4908260">
        <ele>39.2</ele>
        <time>2022-06-08T11:49:36Z</time>
      </trkpt>
      <trkpt lat="47.6526860" lon="9.4909060">
        <ele>39.6</ele>
        <time>2022-06-08T11:49:40Z</time>
      </trkpt>
      <trkpt lat="47.6527150" lon="9.4909510">
        <ele>39.2</ele>
        <time>2022-06-08T11:49:44Z</time>
      </trkpt>
      <trkpt lat="47.6526980" lon="9.4909460">
        <ele>39.0</ele>
        <time>2022-06-08T11:49:48Z</time>
      </trkpt>
      <trkpt lat="47.6526860" lon="9.4908700">
        <ele>38.4</ele>
        <time>2022-06-08T11:49:52Z</time>
      </trkpt>
      <trkpt lat="47.6525910" lon="9.4908410">
        <ele>39.0</ele>
        <time>2022-06-08T11:49:56Z</time>
      </trkpt>
      <trkpt lat="47.6525410" lon="9.4909030">
        <ele>38.8</ele>
        <time>2022-06-08T11:50:00Z</time>
      </trkpt>
      <trkpt lat="47.6525400" lon="9.4910210">
        <ele>38.4</ele>
        <time>2022-06-08T11:50:04Z</time>
      </trkpt>
      <trkpt lat="47.6525900" lon="9.4910710">
        <ele>38.4</ele>
        <time>2022-06-08T11:50:08Z</time>
      </trkpt>
      <trkpt lat="47.6526510" lon="9.4911160">
        <ele>39.0</ele>
        <time>2022-06-08T11:50:12Z</time>
      </trkpt>
      <trkpt lat="47.6526510" lon="9.4911160">
        <ele>39.0</ele>
        <time>2022-06-08T11:50:16Z</time>
      </trkpt>
      <trkpt lat="47.6526510" lon="9.4911160">
        <ele>39.0</ele>
        <time>2022-06-08T11:50:20Z</time>
      </trkpt>
      <trkpt lat="47.6526510" lon="9.4911160">
        <ele>38.8</ele>
        <time>2022-06-08T11:50:24Z</time>
      </trkpt>
      <trkpt lat="47.6526510" lon="9.4911160">
        <ele>38.6</ele>
        <time>2022-06-08T11:50:28Z</time>
      </trkpt>
      <trkpt lat="47.6526510" lon="9.4911160">
        <ele>38.8</ele>
        <time>2022-06-08T11:50:32Z</time>
      </trkpt>
      <trkpt lat="47.6526510" lon="9.4911160">
        <ele>39.0</ele>
        <time>2022-06-08T11:50:36Z</time>
      </trkpt>
      <trkpt lat="47.6526510" lon="9.4911160">
        <ele>39.0</ele>
        <time>2022-06-08T11:50:40Z</time>
      </trkpt>
      <trkpt lat="47.6526510" lon="9.4911160">
        <ele>38.8</ele>
        <time>2022-06-08T11:50:44Z</time>
      </trkpt>
      <trkpt lat="47.6526510" lon="9.4911160">
        <ele>38.6</ele>
        <time>2022-06-08T11:50:48Z</time>
      </trkpt>
      <trkpt lat="47.6526510" lon="9.4911160">
        <ele>38.4</ele>
        <time>2022-06-08T11:50:52Z</time>
      </trkpt>
      <trkpt lat="47.6526510" lon="9.4911160">
        <ele>38.4</ele>
        <time>2022-06-08T11:50:56Z</time>
      </trkpt>
      <trkpt lat="47.6526510" lon="9.4911160">
        <ele>38.4</ele>
        <time>2022-06-08T11:51:00Z</time>
      </trkpt>
      <trkpt lat="47.6526510" lon="9.4911160">
        <ele>38.4</ele>
        <time>2022-06-08T11:51:04Z</time>
      </trkpt>
      <trkpt lat="47.6526510" lon="9.4911160">
        <ele>38.4</ele>
        <time>2022-06-08T11:51:08Z</time>
      </trkpt>
      <trkpt lat="47.6526510" lon="9.4911160">
        <ele>38.2</ele>
        <time>2022-06-08T11:51:12Z</time>
      </trkpt>
      <trkpt lat="47.6526510" lon="9.4911160">
        <ele>38.6</ele>
        <time>2022-06-08T11:51:16Z</time>
      </trkpt>
      <trkpt lat="47.6526510" lon="9.4911160">
        <ele>38.8</ele>
        <time>2022-06-08T11:51:20Z</time>
      </trkpt>
      <trkpt lat="47.6526510" lon="9.4911160">
        <ele>38.2</ele>
        <time>2022-06-08T11:51:24Z</time>
      </trkpt>
      <trkpt lat="47.6526510" lon="9.4911160">
        <ele>38.4</ele>
        <time>2022-06-08T11:51:28Z</time>
      </trkpt>
      <trkpt lat="47.6526510" lon="9.4911160">
        <ele>38.4</ele>
        <time>2022-06-08T11:51:32Z</time>
      </trkpt>
      <trkpt lat="47.6527350" lon="9.4912330">
        <ele>37.8</ele>
        <time>2022-06-08T11:51:36Z</time>
      </trkpt>
      <trkpt lat="47.6527160" lon="9.4911900">
        <ele>38.8</ele>
        <time>2022-06-08T11:51:40Z</time>
      </trkpt>
      <trkpt lat="47.6526380" lon="9.4911380">
        <ele>37.4</ele>
        <time>2022-06-08T11:51:44Z</time>
      </trkpt>
      <trkpt lat="47.6525500" lon="9.4911180">
        <ele>37.4</ele>
        <time>2022-06-08T11:51:48Z</time>
      </trkpt>
      <trkpt lat="47.6525010" lon="9.4912060">
        <ele>38.4</ele>
        <time>2022-06-08T11:51:52Z</time>
      </trkpt>
      <trkpt lat="47.6524430" lon="9.4913500">
        <ele>37.6</ele>
        <time>2022-06-08T11:51:56Z</time>
      </trkpt>
      <trkpt lat="47.6523830" lon="9.4915250">
        <ele>38.0</ele>
        <time>2022-06-08T11:52:00Z</time>
      </trkpt>
      <trkpt lat="47.6523030" lon="9.4917030">
        <ele>37.6</ele>
        <time>2022-06-08T11:52:04Z</time>
      </trkpt>
      <trkpt lat="47.6522510" lon="9.4918900">
        <ele>37.8</ele>
        <time>2022-06-08T11:52:08Z</time>
      </trkpt>
      <trkpt lat="47.6523230" lon="9.4919580">
        <ele>37.8</ele>
        <time>2022-06-08T11:52:12Z</time>
      </trkpt>
      <trkpt lat="47.6524280" lon="9.4919200">
        <ele>38.4</ele>
        <time>2022-06-08T11:52:16Z</time>
      </trkpt>
      <trkpt lat="47.6525330" lon="9.4918880">
        <ele>38.8</ele>
        <time>2022-06-08T11:52:20Z</time>
      </trkpt>
      <trkpt lat="47.6526180" lon="9.4918660">
        <ele>38.2</ele>
        <time>2022-06-08T11:52:24Z</time>
      </trkpt>
      <trkpt lat="47.6527180" lon="9.4918480">
        <ele>38.8</ele>
        <time>2022-06-08T11:52:28Z</time>
      </trkpt>
      <trkpt lat="47.6528150" lon="9.4917960">
        <ele>38.8</ele>
        <time>2022-06-08T11:52:32Z</time>
      </trkpt>
      <trkpt lat="47.6528650" lon="9.4917010">
        <ele>38.6</ele>
        <time>2022-06-08T11:52:36Z</time>
      </trkpt>
      <trkpt lat="47.6528610" lon="9.4915750">
        <ele>38.2</ele>
        <time>2022-06-08T11:52:40Z</time>
      </trkpt>
      <trkpt lat="47.6528950" lon="9.4914880">
        <ele>39.0</ele>
        <time>2022-06-08T11:52:44Z</time>
      </trkpt>
      <trkpt lat="47.6529780" lon="9.4913310">
        <ele>1.4</ele>
        <time>2022-06-09T05:09:46Z</time>
      </trkpt>
      <trkpt lat="47.6529780" lon="9.4913310">
        <ele>1.4</ele>
        <time>2022-06-09T05:09:50Z</time>
      </trkpt>
      <trkpt lat="47.6529780" lon="9.4913310">
        <ele>0.8</ele>
        <time>2022-06-09T05:09:54Z</time>
      </trkpt>
      <trkpt lat="47.6529780" lon="9.4913310">
        <ele>0.8</ele>
        <time>2022-06-09T05:09:58Z</time>
      </trkpt>
      <trkpt lat="47.6529780" lon="9.4913310">
        <ele>0.8</ele>
        <time>2022-06-09T05:10:02Z</time>
      </trkpt>
      <trkpt lat="47.6529780" lon="9.4913310">
        <ele>0.8</ele>
        <time>2022-06-09T05:10:06Z</time>
      </trkpt>
      <trkpt lat="47.6529780" lon="9.4913310">
        <ele>0.8</ele>
        <time>2022-06-09T05:10:10Z</time>
      </trkpt>
      <trkpt lat="47.6529780" lon="9.4913310">
        <ele>0.8</ele>
        <time>2022-06-09T05:10:14Z</time>
      </trkpt>
      <trkpt lat="47.6529780" lon="9.4913310">
        <ele>0.6</ele>
        <time>2022-06-09T05:10:18Z</time>
      </trkpt>
      <trkpt lat="47.6529780" lon="9.4913310">
        <ele>0.6</ele>
        <time>2022-06-09T05:10:22Z</time>
      </trkpt>
      <trkpt lat="47.6529780" lon="9.4913310">
        <ele>0.6</ele>
        <time>2022-06-09T05:10:26Z</time>
      </trkpt>
      <trkpt lat="47.6529780" lon="9.4913310">
        <ele>1.2</ele>
        <time>2022-06-09T05:10:30Z</time>
      </trkpt>
      <trkpt lat="47.6529780" lon="9.4913310">
        <ele>0.8</ele>
        <time>2022-06-09T05:10:34Z</time>
      </trkpt>
      <trkpt lat="47.6529780" lon="9.4913310">
        <ele>0.6</ele>
        <time>2022-06-09T05:10:38Z</time>
      </trkpt>
      <trkpt lat="47.6529780" lon="9.4913310">
        <ele>0.8</ele>
        <time>2022-06-09T05:10:42Z</time>
      </trkpt>
      <trkpt lat="47.6529780" lon="9.4913310">
        <ele>0.8</ele>
        <time>2022-06-09T05:10:46Z</time>
      </trkpt>
      <trkpt lat="47.6529780" lon="9.4913310">
        <ele>0.6</ele>
        <time>2022-06-09T05:10:50Z</time>
      </trkpt>
      <trkpt lat="47.6529780" lon="9.4913310">
        <ele>0.6</ele>
        <time>2022-06-09T05:10:54Z</time>
      </trkpt>
      <trkpt lat="47.6529780" lon="9.4913310">
        <ele>0.6</ele>
        <time>2022-06-09T05:10:58Z</time>
      </trkpt>
      <trkpt lat="47.6529780" lon="9.4913310">
        <ele>0.6</ele>
        <time>2022-06-09T05:11:02Z</time>
      </trkpt>
      <trkpt lat="47.6529780" lon="9.4913310">
        <ele>0.6</ele>
        <time>2022-06-09T05:11:06Z</time>
      </trkpt>
      <trkpt lat="47.6529250" lon="9.4913800">
        <ele>0.4</ele>
        <time>2022-06-09T05:11:10Z</time>
      </trkpt>
      <trkpt lat="47.6529310" lon="9.4914660">
        <ele>0.8</ele>
        <time>2022-06-09T05:11:14Z</time>
      </trkpt>
      <trkpt lat="47.6529000" lon="9.4915880">
        <ele>0.4</ele>
        <time>2022-06-09T05:11:18Z</time>
      </trkpt>
      <trkpt lat="47.6528830" lon="9.4917330">
        <ele>0.4</ele>
        <time>2022-06-09T05:11:22Z</time>
      </trkpt>
      <trkpt lat="47.6528460" lon="9.4918360">
        <ele>-0.2</ele>
        <time>2022-06-09T05:11:26Z</time>
      </trkpt>
      <trkpt lat="47.6527610" lon="9.4918810">
        <ele>0.2</ele>
        <time>2022-06-09T05:11:30Z</time>
      </trkpt>
      <trkpt lat="47.6526460" lon="9.4919080">
        <ele>-0.2</ele>
        <time>2022-06-09T05:11:34Z</time>
      </trkpt>
      <trkpt lat="47.6525130" lon="9.4919300">
        <ele>0.0</ele>
        <time>2022-06-09T05:11:38Z</time>
      </trkpt>
      <trkpt lat="47.6523850" lon="9.4919880">
        <ele>-0.2</ele>
        <time>2022-06-09T05:11:42Z</time>
      </trkpt>
      <trkpt lat="47.6522710" lon="9.4920280">
        <ele>-0.4</ele>
        <time>2022-06-09T05:11:46Z</time>
      </trkpt>
      <trkpt lat="47.6522060" lon="9.4920280">
        <ele>0.0</ele>
        <time>2022-06-09T05:11:50Z</time>
      </trkpt>
      <trkpt lat="47.6521730" lon="9.4920830">
        <ele>-0.6</ele>
        <time>2022-06-09T05:11:54Z</time>
      </trkpt>
      <trkpt lat="47.6521730" lon="9.4920830">
        <ele>-0.2</ele>
        <time>2022-06-09T05:11:58Z</time>
      </trkpt>
      <trkpt lat="47.6521730" lon="9.4920830">
        <ele>-0.2</ele>
        <time>2022-06-09T05:12:02Z</time>
      </trkpt>
      <trkpt lat="47.6521730" lon="9.4920830">
        <ele>0.0</ele>
        <time>2022-06-09T05:12:06Z</time>
      </trkpt>
      <trkpt lat="47.6521730" lon="9.4920830">
        <ele>0.0</ele>
        <time>2022-06-09T05:12:10Z</time>
      </trkpt>
      <trkpt lat="47.6521730" lon="9.4920830">
        <ele>-0.2</ele>
        <time>2022-06-09T05:12:14Z</time>
      </trkpt>
      <trkpt lat="47.6521730" lon="9.4920830">
        <ele>0.2</ele>
        <time>2022-06-09T05:12:18Z</time>
      </trkpt>
      <trkpt lat="47.6521730" lon="9.4920830">
        <ele>0.0</ele>
        <time>2022-06-09T05:12:22Z</time>
      </trkpt>
      <trkpt lat="47.6520930" lon="9.4919980">
        <ele>0.2</ele>
        <time>2022-06-09T05:12:26Z</time>
      </trkpt>
      <trkpt lat="47.6520250" lon="9.4920460">
        <ele>0.2</ele>
        <time>2022-06-09T05:12:30Z</time>
      </trkpt>
      <trkpt lat="47.6519200" lon="9.4921600">
        <ele>0.4</ele>
        <time>2022-06-09T05:12:34Z</time>
      </trkpt>
      <trkpt lat="47.6518250" lon="9.4923100">
        <ele>0.0</ele>
        <time>2022-06-09T05:12:38Z</time>
      </trkpt>
      <trkpt lat="47.6517300" lon="9.4924410">
        <ele>0.0</ele>
        <time>2022-06-09T05:12:42Z</time>
      </trkpt>
      <trkpt lat="47.6516330" lon="9.4926210">
        <ele>-0.6</ele>
        <time>2022-06-09T05:12:46Z</time>
      </trkpt>
      <trkpt lat="47.6515330" lon="9.4928030">
        <ele>0.0</ele>
        <time>2022-06-09T05:12:50Z</time>
      </trkpt>
      <trkpt lat="47.6514250" lon="9.4929880">
        <ele>-0.2</ele>
        <time>2022-06-09T05:12:54Z</time>
      </trkpt>
      <trkpt lat="47.6513400" lon="9.4931730">
        <ele>0.0</ele>
        <time>2022-06-09T05:12:58Z</time>
      </trkpt>
      <trkpt lat="47.6512450" lon="9.4933780">
        <ele>-0.6</ele>
        <time>2022-06-09T05:13:02Z</time>
      </trkpt>
      <trkpt lat="47.6511480" lon="9.4936000">
        <ele>-0.8</ele>
        <time>2022-06-09T05:13:06Z</time>
      </trkpt>
      <trkpt lat="47.6510680" lon="9.4938450">
        <ele>-0.6</ele>
        <time>2022-06-09T05:13:10Z</time>
      </trkpt>
      <trkpt lat="47.6509850" lon="9.4940860">
        <ele>-0.2</ele>
        <time>2022-06-09T05:13:14Z</time>
      </trkpt>
      <trkpt lat="47.6509060" lon="9.4943500">
        <ele>0.0</ele>
        <time>2022-06-09T05:13:18Z</time>
      </trkpt>
      <trkpt lat="47.6508260" lon="9.4946050">
        <ele>0.0</ele>
        <time>2022-06-09T05:13:22Z</time>
      </trkpt>
      <trkpt lat="47.6507500" lon="9.4948530">
        <ele>-0.2</ele>
        <time>2022-06-09T05:13:26Z</time>
      </trkpt>
      <trkpt lat="47.6506780" lon="9.4950900">
        <ele>0.2</ele>
        <time>2022-06-09T05:13:30Z</time>
      </trkpt>
      <trkpt lat="47.6505980" lon="9.4953210">
        <ele>0.4</ele>
        <time>2022-06-09T05:13:34Z</time>
      </trkpt>
      <trkpt lat="47.6505200" lon="9.4955500">
        <ele>0.6</ele>
        <time>2022-06-09T05:13:38Z</time>
      </trkpt>
      <trkpt lat="47.6504450" lon="9.4957760">
        <ele>1.2</ele>
        <time>2022-06-09T05:13:42Z</time>
      </trkpt>
      <trkpt lat="47.6503680" lon="9.4960180">
        <ele>0.4</ele>
        <time>2022-06-09T05:13:46Z</time>
      </trkpt>
      <trkpt lat="47.6502830" lon="9.4962850">
        <ele>0.8</ele>
        <time>2022-06-09T05:13:50Z</time>
      </trkpt>
      <trkpt lat="47.6502060" lon="9.4965460">
        <ele>0.4</ele>
        <time>2022-06-09T05:13:54Z</time>
      </trkpt>
      <trkpt lat="47.6501300" lon="9.4967900">
        <ele>0.6</ele>
        <time>2022-06-09T05:13:58Z</time>
      </trkpt>
      <trkpt lat="47.6500400" lon="9.4970080">
        <ele>0.6</ele>
        <time>2022-06-09T05:14:02Z</time>
      </trkpt>
      <trkpt lat="47.6499480" lon="9.4971950">
        <ele>0.6</ele>
        <time>2022-06-09T05:14:06Z</time>
      </trkpt>
      <trkpt lat="47.6499230" lon="9.4974250">
        <ele>0.6</ele>
        <time>2022-06-09T05:14:10Z</time>
      </trkpt>
      <trkpt lat="47.6498530" lon="9.4976350">
        <ele>0.8</ele>
        <time>2022-06-09T05:14:14Z</time>
      </trkpt>
      <trkpt lat="47.6497850" lon="9.4977980">
        <ele>0.8</ele>
        <time>2022-06-09T05:14:18Z</time>
      </trkpt>
      <trkpt lat="47.6497660" lon="9.4978900">
        <ele>1.0</ele>
        <time>2022-06-09T05:14:22Z</time>
      </trkpt>
      <trkpt lat="47.6498000" lon="9.4977630">
        <ele>1.2</ele>
        <time>2022-06-09T05:14:26Z</time>
      </trkpt>
      <trkpt lat="47.6498160" lon="9.4976130">
        <ele>1.0</ele>
        <time>2022-06-09T05:14:30Z</time>
      </trkpt>
      <trkpt lat="47.6497010" lon="9.4975960">
        <ele>0.4</ele>
        <time>2022-06-09T05:14:34Z</time>
      </trkpt>
      <trkpt lat="47.6496310" lon="9.4978050">
        <ele>0.6</ele>
        <time>2022-06-09T05:14:38Z</time>
      </trkpt>
      <trkpt lat="47.6495900" lon="9.4980500">
        <ele>0.6</ele>
        <time>2022-06-09T05:14:42Z</time>
      </trkpt>
      <trkpt lat="47.6495210" lon="9.4982780">
        <ele>1.2</ele>
        <time>2022-06-09T05:14:46Z</time>
      </trkpt>
      <trkpt lat="47.6494560" lon="9.4984980">
        <ele>1.4</ele>
        <time>2022-06-09T05:14:50Z</time>
      </trkpt>
      <trkpt lat="47.6493750" lon="9.4987100">
        <ele>1.8</ele>
        <time>2022-06-09T05:14:54Z</time>
      </trkpt>
      <trkpt lat="47.6492900" lon="9.4989200">
        <ele>1.8</ele>
        <time>2022-06-09T05:14:58Z</time>
      </trkpt>
      <trkpt lat="47.6492150" lon="9.4991210">
        <ele>2.0</ele>
        <time>2022-06-09T05:15:02Z</time>
      </trkpt>
      <trkpt lat="47.6491380" lon="9.4993600">
        <ele>2.0</ele>
        <time>2022-06-09T05:15:06Z</time>
      </trkpt>
      <trkpt lat="47.6490680" lon="9.4995900">
        <ele>2.4</ele>
        <time>2022-06-09T05:15:10Z</time>
      </trkpt>
      <trkpt lat="47.6490000" lon="9.4998400">
        <ele>2.8</ele>
        <time>2022-06-09T05:15:14Z</time>
      </trkpt>
      <trkpt lat="47.6489250" lon="9.5000710">
        <ele>2.8</ele>
        <time>2022-06-09T05:15:18Z</time>
      </trkpt>
      <trkpt lat="47.6488480" lon="9.5003330">
        <ele>2.6</ele>
        <time>2022-06-09T05:15:22Z</time>
      </trkpt>
      <trkpt lat="47.6487750" lon="9.5005760">
        <ele>2.6</ele>
        <time>2022-06-09T05:15:26Z</time>
      </trkpt>
      <trkpt lat="47.6487000" lon="9.5008580">
        <ele>2.8</ele>
        <time>2022-06-09T05:15:30Z</time>
      </trkpt>
      <trkpt lat="47.6486200" lon="9.5011330">
        <ele>2.6</ele>
        <time>2022-06-09T05:15:34Z</time>
      </trkpt>
      <trkpt lat="47.6485500" lon="9.5014230">
        <ele>2.2</ele>
        <time>2022-06-09T05:15:38Z</time>
      </trkpt>
      <trkpt lat="47.6484680" lon="9.5016910">
        <ele>1.8</ele>
        <time>2022-06-09T05:15:42Z</time>
      </trkpt>
      <trkpt lat="47.6483980" lon="9.5019580">
        <ele>2.0</ele>
        <time>2022-06-09T05:15:46Z</time>
      </trkpt>
      <trkpt lat="47.6482950" lon="9.5022030">
        <ele>1.8</ele>
        <time>2022-06-09T05:15:50Z</time>
      </trkpt>
      <trkpt lat="47.6481880" lon="9.5024280">
        <ele>1.6</ele>
        <time>2022-06-09T05:15:54Z</time>
      </trkpt>
      <trkpt lat="47.6481400" lon="9.5026650">
        <ele>1.2</ele>
        <time>2022-06-09T05:15:58Z</time>
      </trkpt>
      <trkpt lat="47.6481160" lon="9.5029030">
        <ele>1.0</ele>
        <time>2022-06-09T05:16:02Z</time>
      </trkpt>
      <trkpt lat="47.6479880" lon="9.5030780">
        <ele>1.2</ele>
        <time>2022-06-09T05:16:06Z</time>
      </trkpt>
      <trkpt lat="47.6478150" lon="9.5032030">
        <ele>1.0</ele>
        <time>2022-06-09T05:16:10Z</time>
      </trkpt>
      <trkpt lat="47.6476350" lon="9.5033360">
        <ele>0.8</ele>
        <time>2022-06-09T05:16:14Z</time>
      </trkpt>
      <trkpt lat="47.6474550" lon="9.5034650">
        <ele>0.8</ele>
        <time>2022-06-09T05:16:18Z</time>
      </trkpt>
      <trkpt lat="47.6472610" lon="9.5035780">
        <ele>0.4</ele>
        <time>2022-06-09T05:16:22Z</time>
      </trkpt>
      <trkpt lat="47.6470630" lon="9.5036280">
        <ele>-0.8</ele>
        <time>2022-06-09T05:16:26Z</time>
      </trkpt>
      <trkpt lat="47.6469150" lon="9.5036900">
        <ele>-0.4</ele>
        <time>2022-06-09T05:16:30Z</time>
      </trkpt>
      <trkpt lat="47.6467730" lon="9.5038450">
        <ele>0.2</ele>
        <time>2022-06-09T05:16:34Z</time>
      </trkpt>
      <trkpt lat="47.6466380" lon="9.5040200">
        <ele>0.0</ele>
        <time>2022-06-09T05:16:38Z</time>
      </trkpt>
      <trkpt lat="47.6464960" lon="9.5042260">
        <ele>0.2</ele>
        <time>2022-06-09T05:16:42Z</time>
      </trkpt>
      <trkpt lat="47.6463660" lon="9.5044360">
        <ele>0.2</ele>
        <time>2022-06-09T05:16:46Z</time>
      </trkpt>
      <trkpt lat="47.6462180" lon="9.5046010">
        <ele>0.2</ele>
        <time>2022-06-09T05:16:50Z</time>
      </trkpt>
      <trkpt lat="47.6460810" lon="9.5047800">
        <ele>0.6</ele>
        <time>2022-06-09T05:16:54Z</time>
      </trkpt>
      <trkpt lat="47.6459530" lon="9.5049630">
        <ele>0.6</ele>
        <time>2022-06-09T05:16:58Z</time>
      </trkpt>
      <trkpt lat="47.6458230" lon="9.5051500">
        <ele>0.6</ele>
        <time>2022-06-09T05:17:02Z</time>
      </trkpt>
      <trkpt lat="47.6456930" lon="9.5053330">
        <ele>0.4</ele>
        <time>2022-06-09T05:17:06Z</time>
      </trkpt>
      <trkpt lat="47.6455630" lon="9.5055100">
        <ele>0.8</ele>
        <time>2022-06-09T05:17:10Z</time>
      </trkpt>
      <trkpt lat="47.6454310" lon="9.5056860">
        <ele>0.6</ele>
        <time>2022-06-09T05:17:14Z</time>
      </trkpt>
      <trkpt lat="47.6453100" lon="9.5058660">
        <ele>0.8</ele>
        <time>2022-06-09T05:17:18Z</time>
      </trkpt>
      <trkpt lat="47.6451780" lon="9.5060310">
        <ele>0.6</ele>
        <time>2022-06-09T05:17:22Z</time>
      </trkpt>
      <trkpt lat="47.6450480" lon="9.5062110">
        <ele>0.8</ele>
        <time>2022-06-09T05:17:26Z</time>
      </trkpt>
      <trkpt lat="47.6449150" lon="9.5064060">
        <ele>0.6</ele>
        <time>2022-06-09T05:17:30Z</time>
      </trkpt>
      <trkpt lat="47.6447850" lon="9.5065880">
        <ele>0.6</ele>
        <time>2022-06-09T05:17:34Z</time>
      </trkpt>
      <trkpt lat="47.6446500" lon="9.5067580">
        <ele>0.6</ele>
        <time>2022-06-09T05:17:38Z</time>
      </trkpt>
      <trkpt lat="47.6445260" lon="9.5069180">
        <ele>0.0</ele>
        <time>2022-06-09T05:17:42Z</time>
      </trkpt>
      <trkpt lat="47.6444060" lon="9.5070930">
        <ele>0.6</ele>
        <time>2022-06-09T05:17:46Z</time>
      </trkpt>
      <trkpt lat="47.6442900" lon="9.5072630">
        <ele>0.6</ele>
        <time>2022-06-09T05:17:50Z</time>
      </trkpt>
      <trkpt lat="47.6441700" lon="9.5074300">
        <ele>0.8</ele>
        <time>2022-06-09T05:17:54Z</time>
      </trkpt>
      <trkpt lat="47.6440380" lon="9.5075850">
        <ele>0.2</ele>
        <time>2022-06-09T05:17:58Z</time>
      </trkpt>
      <trkpt lat="47.6439000" lon="9.5077830">
        <ele>0.2</ele>
        <time>2022-06-09T05:18:02Z</time>
      </trkpt>
      <trkpt lat="47.6437680" lon="9.5079710">
        <ele>0.2</ele>
        <time>2022-06-09T05:18:06Z</time>
      </trkpt>
      <trkpt lat="47.6436330" lon="9.5081410">
        <ele>0.2</ele>
        <time>2022-06-09T05:18:10Z</time>
      </trkpt>
      <trkpt lat="47.6435000" lon="9.5083510">
        <ele>0.0</ele>
        <time>2022-06-09T05:18:14Z</time>
      </trkpt>
      <trkpt lat="47.6433630" lon="9.5085200">
        <ele>0.4</ele>
        <time>2022-06-09T05:18:18Z</time>
      </trkpt>
      <trkpt lat="47.6432350" lon="9.5086980">
        <ele>0.4</ele>
        <time>2022-06-09T05:18:22Z</time>
      </trkpt>
      <trkpt lat="47.6431010" lon="9.5088930">
        <ele>0.6</ele>
        <time>2022-06-09T05:18:26Z</time>
      </trkpt>
      <trkpt lat="47.6429660" lon="9.5090950">
        <ele>0.4</ele>
        <time>2022-06-09T05:18:30Z</time>
      </trkpt>
      <trkpt lat="47.6428260" lon="9.5092930">
        <ele>0.2</ele>
        <time>2022-06-09T05:18:34Z</time>
      </trkpt>
      <trkpt lat="47.6426880" lon="9.5094860">
        <ele>0.4</ele>
        <time>2022-06-09T05:18:38Z</time>
      </trkpt>
      <trkpt lat="47.6425460" lon="9.5096700">
        <ele>0.6</ele>
        <time>2022-06-09T05:18:42Z</time>
      </trkpt>
      <trkpt lat="47.6424100" lon="9.5098600">
        <ele>0.4</ele>
        <time>2022-06-09T05:18:46Z</time>
      </trkpt>
      <trkpt lat="47.6422780" lon="9.5100530">
        <ele>0.0</ele>
        <time>2022-06-09T05:18:50Z</time>
      </trkpt>
      <trkpt lat="47.6421400" lon="9.5102460">
        <ele>0.4</ele>
        <time>2022-06-09T05:18:54Z</time>
      </trkpt>
      <trkpt lat="47.6420050" lon="9.5104410">
        <ele>0.4</ele>
        <time>2022-06-09T05:18:58Z</time>
      </trkpt>
      <trkpt lat="47.6418600" lon="9.5106180">
        <ele>0.2</ele>
        <time>2022-06-09T05:19:02Z</time>
      </trkpt>
      <trkpt lat="47.6417310" lon="9.5108280">
        <ele>0.0</ele>
        <time>2022-06-09T05:19:06Z</time>
      </trkpt>
      <trkpt lat="47.6415910" lon="9.5110200">
        <ele>-0.2</ele>
        <time>2022-06-09T05:19:10Z</time>
      </trkpt>
      <trkpt lat="47.6414560" lon="9.5112300">
        <ele>-0.2</ele>
        <time>2022-06-09T05:19:14Z</time>
      </trkpt>
      <trkpt lat="47.6413150" lon="9.5114350">
        <ele>0.2</ele>
        <time>2022-06-09T05:19:18Z</time>
      </trkpt>
      <trkpt lat="47.6411750" lon="9.5116330">
        <ele>0.0</ele>
        <time>2022-06-09T05:19:22Z</time>
      </trkpt>
      <trkpt lat="47.6410380" lon="9.5118160">
        <ele>0.4</ele>
        <time>2022-06-09T05:19:26Z</time>
      </trkpt>
      <trkpt lat="47.6408980" lon="9.5120010">
        <ele>0.2</ele>
        <time>2022-06-09T05:19:30Z</time>
      </trkpt>
      <trkpt lat="47.6407600" lon="9.5121910">
        <ele>0.8</ele>
        <time>2022-06-09T05:19:34Z</time>
      </trkpt>
      <trkpt lat="47.6406200" lon="9.5123760">
        <ele>0.6</ele>
        <time>2022-06-09T05:19:38Z</time>
      </trkpt>
      <trkpt lat="47.6404850" lon="9.5125710">
        <ele>1.0</ele>
        <time>2022-06-09T05:19:42Z</time>
      </trkpt>
      <trkpt lat="47.6403500" lon="9.5127700">
        <ele>0.6</ele>
        <time>2022-06-09T05:19:46Z</time>
      </trkpt>
      <trkpt lat="47.6402160" lon="9.5129780">
        <ele>0.8</ele>
        <time>2022-06-09T05:19:50Z</time>
      </trkpt>
      <trkpt lat="47.6400760" lon="9.5131730">
        <ele>1.2</ele>
        <time>2022-06-09T05:19:54Z</time>
      </trkpt>
      <trkpt lat="47.6399310" lon="9.5133530">
        <ele>1.0</ele>
        <time>2022-06-09T05:19:58Z</time>
      </trkpt>
      <trkpt lat="47.6397860" lon="9.5135280">
        <ele>1.0</ele>
        <time>2022-06-09T05:20:02Z</time>
      </trkpt>
      <trkpt lat="47.6396680" lon="9.5137080">
        <ele>1.0</ele>
        <time>2022-06-09T05:20:06Z</time>
      </trkpt>
      <trkpt lat="47.6395730" lon="9.5139100">
        <ele>1.2</ele>
        <time>2022-06-09T05:20:10Z</time>
      </trkpt>
      <trkpt lat="47.6394700" lon="9.5141430">
        <ele>1.0</ele>
        <time>2022-06-09T05:20:14Z</time>
      </trkpt>
      <trkpt lat="47.6393400" lon="9.5143480">
        <ele>0.6</ele>
        <time>2022-06-09T05:20:18Z</time>
      </trkpt>
      <trkpt lat="47.6392010" lon="9.5145400">
        <ele>0.6</ele>
        <time>2022-06-09T05:20:22Z</time>
      </trkpt>
      <trkpt lat="47.6390550" lon="9.5147410">
        <ele>0.6</ele>
        <time>2022-06-09T05:20:26Z</time>
      </trkpt>
      <trkpt lat="47.6389060" lon="9.5149450">
        <ele>0.6</ele>
        <time>2022-06-09T05:20:30Z</time>
      </trkpt>
      <trkpt lat="47.6387630" lon="9.5151510">
        <ele>1.2</ele>
        <time>2022-06-09T05:20:34Z</time>
      </trkpt>
      <trkpt lat="47.6386010" lon="9.5153230">
        <ele>0.6</ele>
        <time>2022-06-09T05:20:38Z</time>
      </trkpt>
      <trkpt lat="47.6384450" lon="9.5155160">
        <ele>0.8</ele>
        <time>2022-06-09T05:20:42Z</time>
      </trkpt>
      <trkpt lat="47.6382930" lon="9.5157130">
        <ele>0.2</ele>
        <time>2022-06-09T05:20:46Z</time>
      </trkpt>
      <trkpt lat="47.6381430" lon="9.5159180">
        <ele>1.2</ele>
        <time>2022-06-09T05:20:50Z</time>
      </trkpt>
      <trkpt lat="47.6379930" lon="9.5161130">
        <ele>0.8</ele>
        <time>2022-06-09T05:20:54Z</time>
      </trkpt>
      <trkpt lat="47.6378500" lon="9.5163200">
        <ele>1.2</ele>
        <time>2022-06-09T05:20:58Z</time>
      </trkpt>
      <trkpt lat="47.6377110" lon="9.5165060">
        <ele>0.8</ele>
        <time>2022-06-09T05:21:02Z</time>
      </trkpt>
      <trkpt lat="47.6375730" lon="9.5167030">
        <ele>0.6</ele>
        <time>2022-06-09T05:21:06Z</time>
      </trkpt>
      <trkpt lat="47.6374380" lon="9.5169080">
        <ele>0.8</ele>
        <time>2022-06-09T05:21:10Z</time>
      </trkpt>
      <trkpt lat="47.6372960" lon="9.5171060">
        <ele>0.6</ele>
        <time>2022-06-09T05:21:14Z</time>
      </trkpt>
      <trkpt lat="47.6371550" lon="9.5173200">
        <ele>0.8</ele>
        <time>2022-06-09T05:21:18Z</time>
      </trkpt>
      <trkpt lat="47.6370100" lon="9.5175310">
        <ele>0.6</ele>
        <time>2022-06-09T05:21:22Z</time>
      </trkpt>
      <trkpt lat="47.6368600" lon="9.5177310">
        <ele>1.2</ele>
        <time>2022-06-09T05:21:26Z</time>
      </trkpt>
      <trkpt lat="47.6367180" lon="9.5179300">
        <ele>1.2</ele>
        <time>2022-06-09T05:21:30Z</time>
      </trkpt>
      <trkpt lat="47.6365730" lon="9.5181310">
        <ele>1.0</ele>
        <time>2022-06-09T05:21:34Z</time>
      </trkpt>
      <trkpt lat="47.6364260" lon="9.5183350">
        <ele>1.0</ele>
        <time>2022-06-09T05:21:38Z</time>
      </trkpt>
      <trkpt lat="47.6362780" lon="9.5185280">
        <ele>0.8</ele>
        <time>2022-06-09T05:21:42Z</time>
      </trkpt>
      <trkpt lat="47.6361300" lon="9.5187300">
        <ele>1.2</ele>
        <time>2022-06-09T05:21:46Z</time>
      </trkpt>
      <trkpt lat="47.6359680" lon="9.5189350">
        <ele>0.6</ele>
        <time>2022-06-09T05:21:50Z</time>
      </trkpt>
      <trkpt lat="47.6358110" lon="9.5191310">
        <ele>1.2</ele>
        <time>2022-06-09T05:21:54Z</time>
      </trkpt>
      <trkpt lat="47.6356550" lon="9.5193230">
        <ele>1.2</ele>
        <time>2022-06-09T05:21:58Z</time>
      </trkpt>
      <trkpt lat="47.6355000" lon="9.5195250">
        <ele>0.8</ele>
        <time>2022-06-09T05:22:02Z</time>
      </trkpt>
      <trkpt lat="47.6353400" lon="9.5197180">
        <ele>0.4</ele>
        <time>2022-06-09T05:22:06Z</time>
      </trkpt>
      <trkpt lat="47.6351700" lon="9.5198980">
        <ele>0.0</ele>
        <time>2022-06-09T05:22:10Z</time>
      </trkpt>
      <trkpt lat="47.6350060" lon="9.5200950">
        <ele>0.4</ele>
        <time>2022-06-09T05:22:14Z</time>
      </trkpt>
      <trkpt lat="47.6348430" lon="9.5202800">
        <ele>0.0</ele>
        <time>2022-06-09T05:22:18Z</time>
      </trkpt>
      <trkpt lat="47.6346810" lon="9.5204700">
        <ele>0.2</ele>
        <time>2022-06-09T05:22:22Z</time>
      </trkpt>
      <trkpt lat="47.6345200" lon="9.5206510">
        <ele>0.0</ele>
        <time>2022-06-09T05:22:26Z</time>
      </trkpt>
      <trkpt lat="47.6343550" lon="9.5208230">
        <ele>-0.4</ele>
        <time>2022-06-09T05:22:30Z</time>
      </trkpt>
      <trkpt lat="47.6341860" lon="9.5209960">
        <ele>-0.6</ele>
        <time>2022-06-09T05:22:34Z</time>
      </trkpt>
      <trkpt lat="47.6340150" lon="9.5211710">
        <ele>-0.6</ele>
        <time>2022-06-09T05:22:38Z</time>
      </trkpt>
      <trkpt lat="47.6338400" lon="9.5213500">
        <ele>-0.6</ele>
        <time>2022-06-09T05:22:42Z</time>
      </trkpt>
      <trkpt lat="47.6336650" lon="9.5215260">
        <ele>-1.2</ele>
        <time>2022-06-09T05:22:46Z</time>
      </trkpt>
      <trkpt lat="47.6334910" lon="9.5216950">
        <ele>-1.0</ele>
        <time>2022-06-09T05:22:50Z</time>
      </trkpt>
      <trkpt lat="47.6333250" lon="9.5218600">
        <ele>-1.4</ele>
        <time>2022-06-09T05:22:54Z</time>
      </trkpt>
      <trkpt lat="47.6331600" lon="9.5220110">
        <ele>-1.4</ele>
        <time>2022-06-09T05:22:58Z</time>
      </trkpt>
      <trkpt lat="47.6330050" lon="9.5221580">
        <ele>-1.2</ele>
        <time>2022-06-09T05:23:02Z</time>
      </trkpt>
      <trkpt lat="47.6328380" lon="9.5223130">
        <ele>-1.4</ele>
        <time>2022-06-09T05:23:06Z</time>
      </trkpt>
      <trkpt lat="47.6326660" lon="9.5224650">
        <ele>-1.8</ele>
        <time>2022-06-09T05:23:10Z</time>
      </trkpt>
      <trkpt lat="47.6325000" lon="9.5226200">
        <ele>-1.4</ele>
        <time>2022-06-09T05:23:14Z</time>
      </trkpt>
      <trkpt lat="47.6323310" lon="9.5227610">
        <ele>-0.8</ele>
        <time>2022-06-09T05:23:18Z</time>
      </trkpt>
      <trkpt lat="47.6321810" lon="9.5228750">
        <ele>-0.8</ele>
        <time>2022-06-09T05:23:22Z</time>
      </trkpt>
      <trkpt lat="47.6320700" lon="9.5229750">
        <ele>0.0</ele>
        <time>2022-06-09T05:23:26Z</time>
      </trkpt>
      <trkpt lat="47.6319550" lon="9.5230900">
        <ele>-0.4</ele>
        <time>2022-06-09T05:23:30Z</time>
      </trkpt>
      <trkpt lat="47.6317880" lon="9.5232280">
        <ele>-0.4</ele>
        <time>2022-06-09T05:23:34Z</time>
      </trkpt>
      <trkpt lat="47.6316160" lon="9.5233930">
        <ele>-1.0</ele>
        <time>2022-06-09T05:23:38Z</time>
      </trkpt>
      <trkpt lat="47.6314550" lon="9.5235300">
        <ele>-1.2</ele>
        <time>2022-06-09T05:23:42Z</time>
      </trkpt>
      <trkpt lat="47.6312930" lon="9.5236680">
        <ele>-0.8</ele>
        <time>2022-06-09T05:23:46Z</time>
      </trkpt>
      <trkpt lat="47.6311300" lon="9.5238200">
        <ele>-0.8</ele>
        <time>2022-06-09T05:23:50Z</time>
      </trkpt>
      <trkpt lat="47.6309610" lon="9.5239680">
        <ele>-0.8</ele>
        <time>2022-06-09T05:23:54Z</time>
      </trkpt>
      <trkpt lat="47.6307960" lon="9.5241210">
        <ele>-0.6</ele>
        <time>2022-06-09T05:23:58Z</time>
      </trkpt>
      <trkpt lat="47.6306380" lon="9.5242830">
        <ele>-0.4</ele>
        <time>2022-06-09T05:24:02Z</time>
      </trkpt>
      <trkpt lat="47.6304800" lon="9.5244300">
        <ele>-0.8</ele>
        <time>2022-06-09T05:24:06Z</time>
      </trkpt>
      <trkpt lat="47.6303160" lon="9.5245850">
        <ele>-0.4</ele>
        <time>2022-06-09T05:24:10Z</time>
      </trkpt>
      <trkpt lat="47.6301450" lon="9.5247450">
        <ele>-0.8</ele>
        <time>2022-06-09T05:24:14Z</time>
      </trkpt>
      <trkpt lat="47.6299830" lon="9.5248910">
        <ele>-0.8</ele>
        <time>2022-06-09T05:24:18Z</time>
      </trkpt>
      <trkpt lat="47.6298080" lon="9.5250310">
        <ele>-0.4</ele>
        <time>2022-06-09T05:24:22Z</time>
      </trkpt>
      <trkpt lat="47.6296180" lon="9.5251060">
        <ele>-0.4</ele>
        <time>2022-06-09T05:24:26Z</time>
      </trkpt>
      <trkpt lat="47.6294260" lon="9.5251900">
        <ele>-0.2</ele>
        <time>2022-06-09T05:24:30Z</time>
      </trkpt>
      <trkpt lat="47.6292330" lon="9.5252660">
        <ele>-0.4</ele>
        <time>2022-06-09T05:24:34Z</time>
      </trkpt>
      <trkpt lat="47.6290350" lon="9.5253380">
        <ele>-0.6</ele>
        <time>2022-06-09T05:24:38Z</time>
      </trkpt>
      <trkpt lat="47.6288450" lon="9.5254100">
        <ele>-0.4</ele>
        <time>2022-06-09T05:24:42Z</time>
      </trkpt>
      <trkpt lat="47.6286560" lon="9.5254710">
        <ele>-0.4</ele>
        <time>2022-06-09T05:24:46Z</time>
      </trkpt>
      <trkpt lat="47.6284950" lon="9.5256100">
        <ele>-0.6</ele>
        <time>2022-06-09T05:24:50Z</time>
      </trkpt>
      <trkpt lat="47.6285080" lon="9.5258860">
        <ele>-0.6</ele>
        <time>2022-06-09T05:24:54Z</time>
      </trkpt>
      <trkpt lat="47.6285230" lon="9.5261700">
        <ele>-0.2</ele>
        <time>2022-06-09T05:24:58Z</time>
      </trkpt>
      <trkpt lat="47.6283800" lon="9.5263280">
        <ele>-0.2</ele>
        <time>2022-06-09T05:25:02Z</time>
      </trkpt>
      <trkpt lat="47.6281930" lon="9.5263700">
        <ele>0.0</ele>
        <time>2022-06-09T05:25:06Z</time>
      </trkpt>
      <trkpt lat="47.6280050" lon="9.5264230">
        <ele>0.0</ele>
        <time>2022-06-09T05:25:10Z</time>
      </trkpt>
      <trkpt lat="47.6278130" lon="9.5264900">
        <ele>-0.2</ele>
        <time>2022-06-09T05:25:14Z</time>
      </trkpt>
      <trkpt lat="47.6276250" lon="9.5265610">
        <ele>-0.2</ele>
        <time>2022-06-09T05:25:18Z</time>
      </trkpt>
      <trkpt lat="47.6274360" lon="9.5266380">
        <ele>-0.6</ele>
        <time>2022-06-09T05:25:22Z</time>
      </trkpt>
      <trkpt lat="47.6272510" lon="9.5267150">
        <ele>-0.4</ele>
        <time>2022-06-09T05:25:26Z</time>
      </trkpt>
      <trkpt lat="47.6270630" lon="9.5267930">
        <ele>-0.4</ele>
        <time>2022-06-09T05:25:30Z</time>
      </trkpt>
      <trkpt lat="47.6268960" lon="9.5268800">
        <ele>-0.4</ele>
        <time>2022-06-09T05:25:34Z</time>
      </trkpt>
      <trkpt lat="47.6267530" lon="9.5269510">
        <ele>-0.6</ele>
        <time>2022-06-09T05:25:38Z</time>
      </trkpt>
      <trkpt lat="47.6267650" lon="9.5271480">
        <ele>-0.8</ele>
        <time>2022-06-09T05:25:42Z</time>
      </trkpt>
      <trkpt lat="47.6268600" lon="9.5273930">
        <ele>-0.4</ele>
        <time>2022-06-09T05:25:46Z</time>
      </trkpt>
      <trkpt lat="47.6269560" lon="9.5276280">
        <ele>0.0</ele>
        <time>2022-06-09T05:25:50Z</time>
      </trkpt>
      <trkpt lat="47.6268950" lon="9.5278400">
        <ele>0.0</ele>
        <time>2022-06-09T05:25:54Z</time>
      </trkpt>
      <trkpt lat="47.6267510" lon="9.5279980">
        <ele>-0.2</ele>
        <time>2022-06-09T05:25:58Z</time>
      </trkpt>
      <trkpt lat="47.6266110" lon="9.5281330">
        <ele>-0.8</ele>
        <time>2022-06-09T05:26:02Z</time>
      </trkpt>
      <trkpt lat="47.6264730" lon="9.5282610">
        <ele>-0.8</ele>
        <time>2022-06-09T05:26:06Z</time>
      </trkpt>
      <trkpt lat="47.6263150" lon="9.5284030">
        <ele>-0.6</ele>
        <time>2022-06-09T05:26:10Z</time>
      </trkpt>
      <trkpt lat="47.6261460" lon="9.5285550">
        <ele>-0.8</ele>
        <time>2022-06-09T05:26:14Z</time>
      </trkpt>
      <trkpt lat="47.6259730" lon="9.5287000">
        <ele>-1.6</ele>
        <time>2022-06-09T05:26:18Z</time>
      </trkpt>
      <trkpt lat="47.6258100" lon="9.5288480">
        <ele>-1.8</ele>
        <time>2022-06-09T05:26:22Z</time>
      </trkpt>
      <trkpt lat="47.6256500" lon="9.5290060">
        <ele>-1.4</ele>
        <time>2022-06-09T05:26:26Z</time>
      </trkpt>
      <trkpt lat="47.6254960" lon="9.5291410">
        <ele>-1.6</ele>
        <time>2022-06-09T05:26:30Z</time>
      </trkpt>
      <trkpt lat="47.6253360" lon="9.5292850">
        <ele>-1.6</ele>
        <time>2022-06-09T05:26:34Z</time>
      </trkpt>
      <trkpt lat="47.6251660" lon="9.5294400">
        <ele>-2.0</ele>
        <time>2022-06-09T05:26:38Z</time>
      </trkpt>
      <trkpt lat="47.6250050" lon="9.5296000">
        <ele>-1.6</ele>
        <time>2022-06-09T05:26:42Z</time>
      </trkpt>
      <trkpt lat="47.6248430" lon="9.5297450">
        <ele>-1.6</ele>
        <time>2022-06-09T05:26:46Z</time>
      </trkpt>
      <trkpt lat="47.6246830" lon="9.5299100">
        <ele>-1.4</ele>
        <time>2022-06-09T05:26:50Z</time>
      </trkpt>
      <trkpt lat="47.6245230" lon="9.5300550">
        <ele>-1.8</ele>
        <time>2022-06-09T05:26:54Z</time>
      </trkpt>
      <trkpt lat="47.6243680" lon="9.5302000">
        <ele>-1.0</ele>
        <time>2022-06-09T05:26:58Z</time>
      </trkpt>
      <trkpt lat="47.6241850" lon="9.5303410">
        <ele>-1.0</ele>
        <time>2022-06-09T05:27:02Z</time>
      </trkpt>
      <trkpt lat="47.6240380" lon="9.5304830">
        <ele>-0.8</ele>
        <time>2022-06-09T05:27:06Z</time>
      </trkpt>
      <trkpt lat="47.6238960" lon="9.5306130">
        <ele>-1.4</ele>
        <time>2022-06-09T05:27:10Z</time>
      </trkpt>
      <trkpt lat="47.6237200" lon="9.5307780">
        <ele>-2.4</ele>
        <time>2022-06-09T05:27:14Z</time>
      </trkpt>
      <trkpt lat="47.6235330" lon="9.5309650">
        <ele>-2.8</ele>
        <time>2022-06-09T05:27:18Z</time>
      </trkpt>
      <trkpt lat="47.6233510" lon="9.5311350">
        <ele>-3.0</ele>
        <time>2022-06-09T05:27:22Z</time>
      </trkpt>
      <trkpt lat="47.6231800" lon="9.5312880">
        <ele>-2.8</ele>
        <time>2022-06-09T05:27:26Z</time>
      </trkpt>
      <trkpt lat="47.6229930" lon="9.5314260">
        <ele>-2.8</ele>
        <time>2022-06-09T05:27:30Z</time>
      </trkpt>
      <trkpt lat="47.6228160" lon="9.5315660">
        <ele>-2.6</ele>
        <time>2022-06-09T05:27:34Z</time>
      </trkpt>
      <trkpt lat="47.6226430" lon="9.5317100">
        <ele>-2.4</ele>
        <time>2022-06-09T05:27:38Z</time>
      </trkpt>
      <trkpt lat="47.6224580" lon="9.5318160">
        <ele>-2.8</ele>
        <time>2022-06-09T05:27:42Z</time>
      </trkpt>
      <trkpt lat="47.6222730" lon="9.5319100">
        <ele>-2.4</ele>
        <time>2022-06-09T05:27:46Z</time>
      </trkpt>
      <trkpt lat="47.6220930" lon="9.5320100">
        <ele>-2.4</ele>
        <time>2022-06-09T05:27:50Z</time>
      </trkpt>
      <trkpt lat="47.6219130" lon="9.5320900">
        <ele>-2.6</ele>
        <time>2022-06-09T05:27:54Z</time>
      </trkpt>
      <trkpt lat="47.6217360" lon="9.5321700">
        <ele>-0.8</ele>
        <time>2022-06-09T05:27:58Z</time>
      </trkpt>
      <trkpt lat="47.6215560" lon="9.5322350">
        <ele>-2.0</ele>
        <time>2022-06-09T05:28:02Z</time>
      </trkpt>
      <trkpt lat="47.6213760" lon="9.5322950">
        <ele>-1.8</ele>
        <time>2022-06-09T05:28:06Z</time>
      </trkpt>
      <trkpt lat="47.6212060" lon="9.5323480">
        <ele>-2.4</ele>
        <time>2022-06-09T05:28:10Z</time>
      </trkpt>
      <trkpt lat="47.6210430" lon="9.5324000">
        <ele>-2.8</ele>
        <time>2022-06-09T05:28:14Z</time>
      </trkpt>
      <trkpt lat="47.6208700" lon="9.5324330">
        <ele>-3.4</ele>
        <time>2022-06-09T05:28:18Z</time>
      </trkpt>
      <trkpt lat="47.6206950" lon="9.5324960">
        <ele>-2.4</ele>
        <time>2022-06-09T05:28:22Z</time>
      </trkpt>
      <trkpt lat="47.6205230" lon="9.5325410">
        <ele>-1.8</ele>
        <time>2022-06-09T05:28:26Z</time>
      </trkpt>
      <trkpt lat="47.6203610" lon="9.5325530">
        <ele>-0.6</ele>
        <time>2022-06-09T05:28:30Z</time>
      </trkpt>
      <trkpt lat="47.6202260" lon="9.5325180">
        <ele>0.0</ele>
        <time>2022-06-09T05:28:34Z</time>
      </trkpt>
      <trkpt lat="47.6201160" lon="9.5323510">
        <ele>-0.6</ele>
        <time>2022-06-09T05:28:38Z</time>
      </trkpt>
      <trkpt lat="47.6200060" lon="9.5321430">
        <ele>-0.8</ele>
        <time>2022-06-09T05:28:42Z</time>
      </trkpt>
      <trkpt lat="47.6199080" lon="9.5319080">
        <ele>-0.8</ele>
        <time>2022-06-09T05:28:46Z</time>
      </trkpt>
      <trkpt lat="47.6198600" lon="9.5316380">
        <ele>-0.8</ele>
        <time>2022-06-09T05:28:50Z</time>
      </trkpt>
      <trkpt lat="47.6198280" lon="9.5313750">
        <ele>-0.8</ele>
        <time>2022-06-09T05:28:54Z</time>
      </trkpt>
      <trkpt lat="47.6198180" lon="9.5311050">
        <ele>-0.8</ele>
        <time>2022-06-09T05:28:58Z</time>
      </trkpt>
      <trkpt lat="47.6198150" lon="9.5308250">
        <ele>0.0</ele>
        <time>2022-06-09T05:29:02Z</time>
      </trkpt>
      <trkpt lat="47.6198250" lon="9.5305380">
        <ele>-0.6</ele>
        <time>2022-06-09T05:29:06Z</time>
      </trkpt>
      <trkpt lat="47.6198160" lon="9.5302600">
        <ele>-0.4</ele>
        <time>2022-06-09T05:29:10Z</time>
      </trkpt>
      <trkpt lat="47.6197560" lon="9.5300210">
        <ele>-0.2</ele>
        <time>2022-06-09T05:29:14Z</time>
      </trkpt>
      <trkpt lat="47.6195900" lon="9.5299500">
        <ele>-0.8</ele>
        <time>2022-06-09T05:29:18Z</time>
      </trkpt>
      <trkpt lat="47.6194660" lon="9.5300530">
        <ele>-0.8</ele>
        <time>2022-06-09T05:29:22Z</time>
      </trkpt>
      <trkpt lat="47.6193400" lon="9.5301910">
        <ele>-0.6</ele>
        <time>2022-06-09T05:29:26Z</time>
      </trkpt>
      <trkpt lat="47.6191750" lon="9.5303450">
        <ele>-0.8</ele>
        <time>2022-06-09T05:29:30Z</time>
      </trkpt>
      <trkpt lat="47.6189910" lon="9.5305100">
        <ele>-0.6</ele>
        <time>2022-06-09T05:29:34Z</time>
      </trkpt>
      <trkpt lat="47.6188000" lon="9.5305830">
        <ele>-0.8</ele>
        <time>2022-06-09T05:29:38Z</time>
      </trkpt>
      <trkpt lat="47.6185960" lon="9.5306160">
        <ele>-0.4</ele>
        <time>2022-06-09T05:29:42Z</time>
      </trkpt>
      <trkpt lat="47.6184530" lon="9.5306830">
        <ele>-0.4</ele>
        <time>2022-06-09T05:29:46Z</time>
      </trkpt>
      <trkpt lat="47.6182380" lon="9.5307880">
        <ele>-0.6</ele>
        <time>2022-06-09T05:29:50Z</time>
      </trkpt>
      <trkpt lat="47.6180460" lon="9.5309100">
        <ele>-0.6</ele>
        <time>2022-06-09T05:29:54Z</time>
      </trkpt>
      <trkpt lat="47.6178710" lon="9.5310130">
        <ele>-0.2</ele>
        <time>2022-06-09T05:29:58Z</time>
      </trkpt>
      <trkpt lat="47.6176960" lon="9.5310880">
        <ele>-0.6</ele>
        <time>2022-06-09T05:30:02Z</time>
      </trkpt>
      <trkpt lat="47.6175200" lon="9.5310710">
        <ele>-0.4</ele>
        <time>2022-06-09T05:30:06Z</time>
      </trkpt>
      <trkpt lat="47.6173450" lon="9.5310400">
        <ele>-0.4</ele>
        <time>2022-06-09T05:30:10Z</time>
      </trkpt>
      <trkpt lat="47.6171680" lon="9.5310110">
        <ele>-0.4</ele>
        <time>2022-06-09T05:30:14Z</time>
      </trkpt>
      <trkpt lat="47.6169880" lon="9.5309630">
        <ele>-0.4</ele>
        <time>2022-06-09T05:30:18Z</time>
      </trkpt>
      <trkpt lat="47.6168110" lon="9.5309230">
        <ele>0.0</ele>
        <time>2022-06-09T05:30:22Z</time>
      </trkpt>
      <trkpt lat="47.6166350" lon="9.5308850">
        <ele>-0.2</ele>
        <time>2022-06-09T05:30:26Z</time>
      </trkpt>
      <trkpt lat="47.6164610" lon="9.5308280">
        <ele>0.0</ele>
        <time>2022-06-09T05:30:30Z</time>
      </trkpt>
      <trkpt lat="47.6162810" lon="9.5307630">
        <ele>-0.4</ele>
        <time>2022-06-09T05:30:34Z</time>
      </trkpt>
      <trkpt lat="47.6161000" lon="9.5307250">
        <ele>-0.4</ele>
        <time>2022-06-09T05:30:38Z</time>
      </trkpt>
      <trkpt lat="47.6159160" lon="9.5306710">
        <ele>-0.2</ele>
        <time>2022-06-09T05:30:42Z</time>
      </trkpt>
      <trkpt lat="47.6157400" lon="9.5306130">
        <ele>-0.8</ele>
        <time>2022-06-09T05:30:46Z</time>
      </trkpt>
      <trkpt lat="47.6155580" lon="9.5305810">
        <ele>-0.8</ele>
        <time>2022-06-09T05:30:50Z</time>
      </trkpt>
      <trkpt lat="47.6153600" lon="9.5305750">
        <ele>-0.6</ele>
        <time>2022-06-09T05:30:54Z</time>
      </trkpt>
      <trkpt lat="47.6151630" lon="9.5305830">
        <ele>-0.2</ele>
        <time>2022-06-09T05:30:58Z</time>
      </trkpt>
      <trkpt lat="47.6149550" lon="9.5305860">
        <ele>-0.2</ele>
        <time>2022-06-09T05:31:02Z</time>
      </trkpt>
      <trkpt lat="47.6147530" lon="9.5306280">
        <ele>-0.4</ele>
        <time>2022-06-09T05:31:06Z</time>
      </trkpt>
      <trkpt lat="47.6145550" lon="9.5306830">
        <ele>-0.6</ele>
        <time>2022-06-09T05:31:10Z</time>
      </trkpt>
      <trkpt lat="47.6143630" lon="9.5307400">
        <ele>-0.6</ele>
        <time>2022-06-09T05:31:14Z</time>
      </trkpt>
      <trkpt lat="47.6141750" lon="9.5307900">
        <ele>-0.2</ele>
        <time>2022-06-09T05:31:18Z</time>
      </trkpt>
      <trkpt lat="47.6139800" lon="9.5308410">
        <ele>-0.4</ele>
        <time>2022-06-09T05:31:22Z</time>
      </trkpt>
      <trkpt lat="47.6137850" lon="9.5308950">
        <ele>-0.6</ele>
        <time>2022-06-09T05:31:26Z</time>
      </trkpt>
      <trkpt lat="47.6135950" lon="9.5309480">
        <ele>-0.2</ele>
        <time>2022-06-09T05:31:30Z</time>
      </trkpt>
      <trkpt lat="47.6134130" lon="9.5309910">
        <ele>-0.8</ele>
        <time>2022-06-09T05:31:34Z</time>
      </trkpt>
      <trkpt lat="47.6132400" lon="9.5308700">
        <ele>-0.4</ele>
        <time>2022-06-09T05:31:38Z</time>
      </trkpt>
      <trkpt lat="47.6131010" lon="9.5306550">
        <ele>-0.4</ele>
        <time>2022-06-09T05:31:42Z</time>
      </trkpt>
      <trkpt lat="47.6129760" lon="9.5304130">
        <ele>-0.4</ele>
        <time>2022-06-09T05:31:46Z</time>
      </trkpt>
      <trkpt lat="47.6128780" lon="9.5301410">
        <ele>0.0</ele>
        <time>2022-06-09T05:31:50Z</time>
      </trkpt>
      <trkpt lat="47.6128030" lon="9.5298600">
        <ele>0.0</ele>
        <time>2022-06-09T05:31:54Z</time>
      </trkpt>
      <trkpt lat="47.6127400" lon="9.5295900">
        <ele>0.0</ele>
        <time>2022-06-09T05:31:58Z</time>
      </trkpt>
      <trkpt lat="47.6126960" lon="9.5293280">
        <ele>-0.2</ele>
        <time>2022-06-09T05:32:02Z</time>
      </trkpt>
      <trkpt lat="47.6126750" lon="9.5291150">
        <ele>0.0</ele>
        <time>2022-06-09T05:32:06Z</time>
      </trkpt>
      <trkpt lat="47.6126710" lon="9.5289860">
        <ele>-0.8</ele>
        <time>2022-06-09T05:32:10Z</time>
      </trkpt>
      <trkpt lat="47.6126710" lon="9.5289860">
        <ele>-0.8</ele>
        <time>2022-06-09T05:32:14Z</time>
      </trkpt>
      <trkpt lat="47.6126710" lon="9.5289860">
        <ele>-0.8</ele>
        <time>2022-06-09T05:32:18Z</time>
      </trkpt>
      <trkpt lat="47.6126710" lon="9.5289860">
        <ele>-0.6</ele>
        <time>2022-06-09T05:32:22Z</time>
      </trkpt>
      <trkpt lat="47.6126710" lon="9.5289860">
        <ele>-0.6</ele>
        <time>2022-06-09T05:32:26Z</time>
      </trkpt>
      <trkpt lat="47.6126710" lon="9.5289860">
        <ele>-0.6</ele>
        <time>2022-06-09T05:32:30Z</time>
      </trkpt>
      <trkpt lat="47.6126710" lon="9.5289860">
        <ele>-0.8</ele>
        <time>2022-06-09T05:32:34Z</time>
      </trkpt>
      <trkpt lat="47.6126710" lon="9.5289860">
        <ele>-0.6</ele>
        <time>2022-06-09T05:32:38Z</time>
      </trkpt>
      <trkpt lat="47.6126710" lon="9.5289860">
        <ele>-0.8</ele>
        <time>2022-06-09T05:32:42Z</time>
      </trkpt>
      <trkpt lat="47.6126710" lon="9.5289860">
        <ele>-0.8</ele>
        <time>2022-06-09T05:32:46Z</time>
      </trkpt>
      <trkpt lat="47.6126710" lon="9.5289860">
        <ele>-1.2</ele>
        <time>2022-06-09T05:32:50Z</time>
      </trkpt>
      <trkpt lat="47.6126710" lon="9.5289860">
        <ele>-1.0</ele>
        <time>2022-06-09T05:32:54Z</time>
      </trkpt>
      <trkpt lat="47.6126130" lon="9.5289400">
        <ele>-1.0</ele>
        <time>2022-06-09T05:32:58Z</time>
      </trkpt>
      <trkpt lat="47.6125460" lon="9.5289580">
        <ele>-0.8</ele>
        <time>2022-06-09T05:33:02Z</time>
      </trkpt>
      <trkpt lat="47.6124210" lon="9.5289800">
        <ele>-1.4</ele>
        <time>2022-06-09T05:33:06Z</time>
      </trkpt>
      <trkpt lat="47.6122750" lon="9.5289960">
        <ele>-1.0</ele>
        <time>2022-06-09T05:33:10Z</time>
      </trkpt>
      <trkpt lat="47.6121250" lon="9.5290010">
        <ele>-0.8</ele>
        <time>2022-06-09T05:33:14Z</time>
      </trkpt>
      <trkpt lat="47.6119300" lon="9.5290300">
        <ele>-1.0</ele>
        <time>2022-06-09T05:33:18Z</time>
      </trkpt>
      <trkpt lat="47.6117280" lon="9.5290630">
        <ele>-1.0</ele>
        <time>2022-06-09T05:33:22Z</time>
      </trkpt>
      <trkpt lat="47.6115430" lon="9.5291050">
        <ele>-1.4</ele>
        <time>2022-06-09T05:33:26Z</time>
      </trkpt>
      <trkpt lat="47.6113560" lon="9.5291510">
        <ele>-1.0</ele>
        <time>2022-06-09T05:33:30Z</time>
      </trkpt>
      <trkpt lat="47.6111900" lon="9.5291960">
        <ele>-0.8</ele>
        <time>2022-06-09T05:33:34Z</time>
      </trkpt>
      <trkpt lat="47.6110280" lon="9.5292380">
        <ele>-1.2</ele>
        <time>2022-06-09T05:33:38Z</time>
      </trkpt>
      <trkpt lat="47.6108630" lon="9.5292750">
        <ele>-1.2</ele>
        <time>2022-06-09T05:33:42Z</time>
      </trkpt>
      <trkpt lat="47.6106980" lon="9.5293180">
        <ele>-1.4</ele>
        <time>2022-06-09T05:33:46Z</time>
      </trkpt>
      <trkpt lat="47.6105210" lon="9.5293650">
        <ele>-1.2</ele>
        <time>2022-06-09T05:33:50Z</time>
      </trkpt>
      <trkpt lat="47.6103360" lon="9.5294330">
        <ele>-1.2</ele>
        <time>2022-06-09T05:33:54Z</time>
      </trkpt>
      <trkpt lat="47.6101410" lon="9.5294980">
        <ele>-0.8</ele>
        <time>2022-06-09T05:33:58Z</time>
      </trkpt>
      <trkpt lat="47.6099630" lon="9.5295610">
        <ele>-1.0</ele>
        <time>2022-06-09T05:34:02Z</time>
      </trkpt>
      <trkpt lat="47.6097830" lon="9.5296280">
        <ele>-1.2</ele>
        <time>2022-06-09T05:34:06Z</time>
      </trkpt>
      <trkpt lat="47.6096100" lon="9.5296930">
        <ele>-1.2</ele>
        <time>2022-06-09T05:34:10Z</time>
      </trkpt>
      <trkpt lat="47.6094330" lon="9.5297500">
        <ele>-1.2</ele>
        <time>2022-06-09T05:34:14Z</time>
      </trkpt>
      <trkpt lat="47.6092510" lon="9.5298060">
        <ele>-1.4</ele>
        <time>2022-06-09T05:34:18Z</time>
      </trkpt>
      <trkpt lat="47.6090700" lon="9.5298660">
        <ele>-1.6</ele>
        <time>2022-06-09T05:34:22Z</time>
      </trkpt>
      <trkpt lat="47.6088910" lon="9.5299230">
        <ele>-1.6</ele>
        <time>2022-06-09T05:34:26Z</time>
      </trkpt>
      <trkpt lat="47.6087080" lon="9.5299680">
        <ele>-1.4</ele>
        <time>2022-06-09T05:34:30Z</time>
      </trkpt>
      <trkpt lat="47.6085280" lon="9.5299300">
        <ele>-1.4</ele>
        <time>2022-06-09T05:34:34Z</time>
      </trkpt>
      <trkpt lat="47.6083660" lon="9.5298360">
        <ele>-1.2</ele>
        <time>2022-06-09T05:34:38Z</time>
      </trkpt>
      <trkpt lat="47.6082300" lon="9.5297150">
        <ele>-1.4</ele>
        <time>2022-06-09T05:34:42Z</time>
      </trkpt>
      <trkpt lat="47.6080900" lon="9.5296080">
        <ele>-1.2</ele>
        <time>2022-06-09T05:34:46Z</time>
      </trkpt>
      <trkpt lat="47.6079280" lon="9.5295610">
        <ele>-1.2</ele>
        <time>2022-06-09T05:34:50Z</time>
      </trkpt>
      <trkpt lat="47.6077580" lon="9.5295110">
        <ele>-0.8</ele>
        <time>2022-06-09T05:34:54Z</time>
      </trkpt>
      <trkpt lat="47.6075760" lon="9.5294860">
        <ele>-1.2</ele>
        <time>2022-06-09T05:34:58Z</time>
      </trkpt>
      <trkpt lat="47.6073900" lon="9.5294880">
        <ele>-1.4</ele>
        <time>2022-06-09T05:35:02Z</time>
      </trkpt>
      <trkpt lat="47.6071980" lon="9.5295280">
        <ele>-1.6</ele>
        <time>2022-06-09T05:35:06Z</time>
      </trkpt>
      <trkpt lat="47.6070160" lon="9.5295730">
        <ele>-1.2</ele>
        <time>2022-06-09T05:35:10Z</time>
      </trkpt>
      <trkpt lat="47.6068310" lon="9.5296030">
        <ele>-1.6</ele>
        <time>2022-06-09T05:35:14Z</time>
      </trkpt>
      <trkpt lat="47.6066480" lon="9.5296280">
        <ele>-1.4</ele>
        <time>2022-06-09T05:35:18Z</time>
      </trkpt>
      <trkpt lat="47.6064700" lon="9.5296480">
        <ele>-1.6</ele>
        <time>2022-06-09T05:35:22Z</time>
      </trkpt>
      <trkpt lat="47.6062800" lon="9.5296750">
        <ele>-1.4</ele>
        <time>2022-06-09T05:35:26Z</time>
      </trkpt>
      <trkpt lat="47.6061050" lon="9.5296850">
        <ele>-1.6</ele>
        <time>2022-06-09T05:35:30Z</time>
      </trkpt>
      <trkpt lat="47.6059310" lon="9.5296860">
        <ele>-1.8</ele>
        <time>2022-06-09T05:35:34Z</time>
      </trkpt>
      <trkpt lat="47.6057730" lon="9.5297160">
        <ele>-1.4</ele>
        <time>2022-06-09T05:35:38Z</time>
      </trkpt>
      <trkpt lat="47.6056310" lon="9.5298000">
        <ele>-0.8</ele>
        <time>2022-06-09T05:35:42Z</time>
      </trkpt>
      <trkpt lat="47.6055060" lon="9.5299230">
        <ele>-0.6</ele>
        <time>2022-06-09T05:35:46Z</time>
      </trkpt>
      <trkpt lat="47.6053650" lon="9.5300150">
        <ele>-0.8</ele>
        <time>2022-06-09T05:35:50Z</time>
      </trkpt>
      <trkpt lat="47.6052130" lon="9.5300400">
        <ele>-0.6</ele>
        <time>2022-06-09T05:35:54Z</time>
      </trkpt>
      <trkpt lat="47.6050680" lon="9.5300150">
        <ele>-0.6</ele>
        <time>2022-06-09T05:35:58Z</time>
      </trkpt>
      <trkpt lat="47.6049130" lon="9.5299880">
        <ele>0.2</ele>
        <time>2022-06-09T05:36:02Z</time>
      </trkpt>
      <trkpt lat="47.6047610" lon="9.5299660">
        <ele>-1.2</ele>
        <time>2022-06-09T05:36:06Z</time>
      </trkpt>
      <trkpt lat="47.6046080" lon="9.5299310">
        <ele>-0.8</ele>
        <time>2022-06-09T05:36:10Z</time>
      </trkpt>
      <trkpt lat="47.6044360" lon="9.5299150">
        <ele>-0.8</ele>
        <time>2022-06-09T05:36:14Z</time>
      </trkpt>
      <trkpt lat="47.6042650" lon="9.5298860">
        <ele>-0.6</ele>
        <time>2022-06-09T05:36:18Z</time>
      </trkpt>
      <trkpt lat="47.6040810" lon="9.5298510">
        <ele>-0.2</ele>
        <time>2022-06-09T05:36:22Z</time>
      </trkpt>
      <trkpt lat="47.6039000" lon="9.5298360">
        <ele>-0.8</ele>
        <time>2022-06-09T05:36:26Z</time>
      </trkpt>
      <trkpt lat="47.6037160" lon="9.5298830">
        <ele>-1.6</ele>
        <time>2022-06-09T05:36:30Z</time>
      </trkpt>
      <trkpt lat="47.6035330" lon="9.5299350">
        <ele>-1.4</ele>
        <time>2022-06-09T05:36:34Z</time>
      </trkpt>
      <trkpt lat="47.6033560" lon="9.5300210">
        <ele>-2.0</ele>
        <time>2022-06-09T05:36:38Z</time>
      </trkpt>
      <trkpt lat="47.6031960" lon="9.5301510">
        <ele>-2.2</ele>
        <time>2022-06-09T05:36:42Z</time>
      </trkpt>
      <trkpt lat="47.6030550" lon="9.5303110">
        <ele>-2.6</ele>
        <time>2022-06-09T05:36:46Z</time>
      </trkpt>
      <trkpt lat="47.6029300" lon="9.5305230">
        <ele>-2.0</ele>
        <time>2022-06-09T05:36:50Z</time>
      </trkpt>
      <trkpt lat="47.6028410" lon="9.5307460">
        <ele>-2.4</ele>
        <time>2022-06-09T05:36:54Z</time>
      </trkpt>
      <trkpt lat="47.6027750" lon="9.5309930">
        <ele>-2.2</ele>
        <time>2022-06-09T05:36:58Z</time>
      </trkpt>
      <trkpt lat="47.6027410" lon="9.5312760">
        <ele>-3.0</ele>
        <time>2022-06-09T05:37:02Z</time>
      </trkpt>
      <trkpt lat="47.6027380" lon="9.5315750">
        <ele>-3.0</ele>
        <time>2022-06-09T05:37:06Z</time>
      </trkpt>
      <trkpt lat="47.6027260" lon="9.5318600">
        <ele>-3.4</ele>
        <time>2022-06-09T05:37:10Z</time>
      </trkpt>
      <trkpt lat="47.6026600" lon="9.5321350">
        <ele>-2.8</ele>
        <time>2022-06-09T05:37:14Z</time>
      </trkpt>
      <trkpt lat="47.6025430" lon="9.5323830">
        <ele>-3.4</ele>
        <time>2022-06-09T05:37:18Z</time>
      </trkpt>
      <trkpt lat="47.6024250" lon="9.5326300">
        <ele>-3.0</ele>
        <time>2022-06-09T05:37:22Z</time>
      </trkpt>
      <trkpt lat="47.6022810" lon="9.5328550">
        <ele>-2.8</ele>
        <time>2022-06-09T05:37:26Z</time>
      </trkpt>
      <trkpt lat="47.6021460" lon="9.5330780">
        <ele>-2.4</ele>
        <time>2022-06-09T05:37:30Z</time>
      </trkpt>
      <trkpt lat="47.6020230" lon="9.5333050">
        <ele>-3.0</ele>
        <time>2022-06-09T05:37:34Z</time>
      </trkpt>
      <trkpt lat="47.6018830" lon="9.5335180">
        <ele>-2.8</ele>
        <time>2022-06-09T05:37:38Z</time>
      </trkpt>
      <trkpt lat="47.6017330" lon="9.5337180">
        <ele>-2.6</ele>
        <time>2022-06-09T05:37:42Z</time>
      </trkpt>
      <trkpt lat="47.6015680" lon="9.5338830">
        <ele>-1.4</ele>
        <time>2022-06-09T05:37:46Z</time>
      </trkpt>
      <trkpt lat="47.6014000" lon="9.5340400">
        <ele>-2.0</ele>
        <time>2022-06-09T05:37:50Z</time>
      </trkpt>
      <trkpt lat="47.6012260" lon="9.5341830">
        <ele>-2.2</ele>
        <time>2022-06-09T05:37:54Z</time>
      </trkpt>
      <trkpt lat="47.6010510" lon="9.5342910">
        <ele>-2.4</ele>
        <time>2022-06-09T05:37:58Z</time>
      </trkpt>
      <trkpt lat="47.6008680" lon="9.5343780">
        <ele>-3.2</ele>
        <time>2022-06-09T05:38:02Z</time>
      </trkpt>
      <trkpt lat="47.6006830" lon="9.5344850">
        <ele>-2.2</ele>
        <time>2022-06-09T05:38:06Z</time>
      </trkpt>
      <trkpt lat="47.6005030" lon="9.5345980">
        <ele>-2.8</ele>
        <time>2022-06-09T05:38:10Z</time>
      </trkpt>
      <trkpt lat="47.6003200" lon="9.5347110">
        <ele>-3.4</ele>
        <time>2022-06-09T05:38:14Z</time>
      </trkpt>
      <trkpt lat="47.6001430" lon="9.5348550">
        <ele>-2.4</ele>
        <time>2022-06-09T05:38:18Z</time>
      </trkpt>
      <trkpt lat="47.5999760" lon="9.5350110">
        <ele>-3.0</ele>
        <time>2022-06-09T05:38:22Z</time>
      </trkpt>
      <trkpt lat="47.5998300" lon="9.5352050">
        <ele>-3.8</ele>
        <time>2022-06-09T05:38:26Z</time>
      </trkpt>
      <trkpt lat="47.5997130" lon="9.5354360">
        <ele>-3.4</ele>
        <time>2022-06-09T05:38:30Z</time>
      </trkpt>
      <trkpt lat="47.5996000" lon="9.5356900">
        <ele>-2.8</ele>
        <time>2022-06-09T05:38:34Z</time>
      </trkpt>
      <trkpt lat="47.5994610" lon="9.5359210">
        <ele>-2.8</ele>
        <time>2022-06-09T05:38:38Z</time>
      </trkpt>
      <trkpt lat="47.5993200" lon="9.5361310">
        <ele>-3.4</ele>
        <time>2022-06-09T05:38:42Z</time>
      </trkpt>
      <trkpt lat="47.5991750" lon="9.5363180">
        <ele>-3.0</ele>
        <time>2022-06-09T05:38:46Z</time>
      </trkpt>
      <trkpt lat="47.5990430" lon="9.5365010">
        <ele>-3.4</ele>
        <time>2022-06-09T05:38:50Z</time>
      </trkpt>
      <trkpt lat="47.5989100" lon="9.5366650">
        <ele>-3.0</ele>
        <time>2022-06-09T05:38:54Z</time>
      </trkpt>
      <trkpt lat="47.5987780" lon="9.5368000">
        <ele>-2.0</ele>
        <time>2022-06-09T05:38:58Z</time>
      </trkpt>
      <trkpt lat="47.5986510" lon="9.5369800">
        <ele>-2.0</ele>
        <time>2022-06-09T05:39:02Z</time>
      </trkpt>
      <trkpt lat="47.5985160" lon="9.5371460">
        <ele>-2.8</ele>
        <time>2022-06-09T05:39:06Z</time>
      </trkpt>
      <trkpt lat="47.5983850" lon="9.5373200">
        <ele>-2.0</ele>
        <time>2022-06-09T05:39:10Z</time>
      </trkpt>
      <trkpt lat="47.5982580" lon="9.5374850">
        <ele>-1.8</ele>
        <time>2022-06-09T05:39:14Z</time>
      </trkpt>
      <trkpt lat="47.5981460" lon="9.5376550">
        <ele>-2.0</ele>
        <time>2022-06-09T05:39:18Z</time>
      </trkpt>
      <trkpt lat="47.5980300" lon="9.5377600">
        <ele>-1.6</ele>
        <time>2022-06-09T05:39:22Z</time>
      </trkpt>
      <trkpt lat="47.5979360" lon="9.5376410">
        <ele>-1.0</ele>
        <time>2022-06-09T05:39:26Z</time>
      </trkpt>
      <trkpt lat="47.5978610" lon="9.5375060">
        <ele>-1.8</ele>
        <time>2022-06-09T05:39:30Z</time>
      </trkpt>
      <trkpt lat="47.5977830" lon="9.5373510">
        <ele>-2.0</ele>
        <time>2022-06-09T05:39:34Z</time>
      </trkpt>
      <trkpt lat="47.5976700" lon="9.5371980">
        <ele>-2.0</ele>
        <time>2022-06-09T05:39:38Z</time>
      </trkpt>
      <trkpt lat="47.5975780" lon="9.5370480">
        <ele>-1.2</ele>
        <time>2022-06-09T05:39:42Z</time>
      </trkpt>
      <trkpt lat="47.5975080" lon="9.5369110">
        <ele>-2.0</ele>
        <time>2022-06-09T05:39:46Z</time>
      </trkpt>
      <trkpt lat="47.5975080" lon="9.5369110">
        <ele>-2.0</ele>
        <time>2022-06-09T05:39:50Z</time>
      </trkpt>
      <trkpt lat="47.5975080" lon="9.5369110">
        <ele>-1.6</ele>
        <time>2022-06-09T05:39:54Z</time>
      </trkpt>
      <trkpt lat="47.5975080" lon="9.5369110">
        <ele>-2.0</ele>
        <time>2022-06-09T05:39:58Z</time>
      </trkpt>
      <trkpt lat="47.5975080" lon="9.5369110">
        <ele>-1.8</ele>
        <time>2022-06-09T05:40:02Z</time>
      </trkpt>
      <trkpt lat="47.5975080" lon="9.5369110">
        <ele>-1.4</ele>
        <time>2022-06-09T05:40:06Z</time>
      </trkpt>
      <trkpt lat="47.5975080" lon="9.5369110">
        <ele>-1.6</ele>
        <time>2022-06-09T05:40:10Z</time>
      </trkpt>
      <trkpt lat="47.5975080" lon="9.5369110">
        <ele>-2.0</ele>
        <time>2022-06-09T05:40:14Z</time>
      </trkpt>
      <trkpt lat="47.5975080" lon="9.5369110">
        <ele>-1.6</ele>
        <time>2022-06-09T05:40:18Z</time>
      </trkpt>
      <trkpt lat="47.5975080" lon="9.5369110">
        <ele>-2.0</ele>
        <time>2022-06-09T05:40:22Z</time>
      </trkpt>
      <trkpt lat="47.5975080" lon="9.5369110">
        <ele>-1.4</ele>
        <time>2022-06-09T05:40:26Z</time>
      </trkpt>
      <trkpt lat="47.5975080" lon="9.5369110">
        <ele>-1.2</ele>
        <time>2022-06-09T05:40:30Z</time>
      </trkpt>
      <trkpt lat="47.5975080" lon="9.5369110">
        <ele>-2.0</ele>
        <time>2022-06-09T05:40:34Z</time>
      </trkpt>
      <trkpt lat="47.5975080" lon="9.5369110">
        <ele>-1.6</ele>
        <time>2022-06-09T05:40:38Z</time>
      </trkpt>
      <trkpt lat="47.5974250" lon="9.5368010">
        <ele>-2.2</ele>
        <time>2022-06-09T05:40:42Z</time>
      </trkpt>
      <trkpt lat="47.5974250" lon="9.5368010">
        <ele>-1.8</ele>
        <time>2022-06-09T05:40:46Z</time>
      </trkpt>
      <trkpt lat="47.5974250" lon="9.5368010">
        <ele>-1.6</ele>
        <time>2022-06-09T05:40:50Z</time>
      </trkpt>
      <trkpt lat="47.5974250" lon="9.5368010">
        <ele>-1.6</ele>
        <time>2022-06-09T05:40:54Z</time>
      </trkpt>
      <trkpt lat="47.5974250" lon="9.5368010">
        <ele>-1.8</ele>
        <time>2022-06-09T05:40:58Z</time>
      </trkpt>
      <trkpt lat="47.5974250" lon="9.5368010">
        <ele>-1.4</ele>
        <time>2022-06-09T05:41:02Z</time>
      </trkpt>
      <trkpt lat="47.5974250" lon="9.5368010">
        <ele>-1.8</ele>
        <time>2022-06-09T05:41:06Z</time>
      </trkpt>
      <trkpt lat="47.5974250" lon="9.5368010">
        <ele>-1.8</ele>
        <time>2022-06-09T05:41:10Z</time>
      </trkpt>
      <trkpt lat="47.5974250" lon="9.5368010">
        <ele>-1.8</ele>
        <time>2022-06-09T05:41:14Z</time>
      </trkpt>
      <trkpt lat="47.5974250" lon="9.5368010">
        <ele>-1.6</ele>
        <time>2022-06-09T05:41:18Z</time>
      </trkpt>
      <trkpt lat="47.5974250" lon="9.5368010">
        <ele>-1.6</ele>
        <time>2022-06-09T05:41:22Z</time>
      </trkpt>
      <trkpt lat="47.5974250" lon="9.5368010">
        <ele>-1.6</ele>
        <time>2022-06-09T05:41:26Z</time>
      </trkpt>
      <trkpt lat="47.5974250" lon="9.5368010">
        <ele>-1.6</ele>
        <time>2022-06-09T05:41:30Z</time>
      </trkpt>
      <trkpt lat="47.5974250" lon="9.5368010">
        <ele>-1.4</ele>
        <time>2022-06-09T05:41:34Z</time>
      </trkpt>
      <trkpt lat="47.5974250" lon="9.5368010">
        <ele>-1.4</ele>
        <time>2022-06-09T05:41:38Z</time>
      </trkpt>
      <trkpt lat="47.5974250" lon="9.5368010">
        <ele>-2.0</ele>
        <time>2022-06-09T05:41:42Z</time>
      </trkpt>
      <trkpt lat="47.5974250" lon="9.5368010">
        <ele>-2.0</ele>
        <time>2022-06-09T05:41:46Z</time>
      </trkpt>
      <trkpt lat="47.5974250" lon="9.5368010">
        <ele>-1.4</ele>
        <time>2022-06-09T05:41:50Z</time>
      </trkpt>
      <trkpt lat="47.5974250" lon="9.5368010">
        <ele>-2.0</ele>
        <time>2022-06-09T05:41:54Z</time>
      </trkpt>
      <trkpt lat="47.5973910" lon="9.5367330">
        <ele>-1.8</ele>
        <time>2022-06-09T05:41:58Z</time>
      </trkpt>
      <trkpt lat="47.5974300" lon="9.5367730">
        <ele>-1.8</ele>
        <time>2022-06-09T05:42:02Z</time>
      </trkpt>
      <trkpt lat="47.5974300" lon="9.5367730">
        <ele>-2.0</ele>
        <time>2022-06-09T05:42:06Z</time>
      </trkpt>
      <trkpt lat="47.5974300" lon="9.5367730">
        <ele>-1.8</ele>
        <time>2022-06-09T05:42:10Z</time>
      </trkpt>
      <trkpt lat="47.5974300" lon="9.5367730">
        <ele>-2.2</ele>
        <time>2022-06-09T05:42:14Z</time>
      </trkpt>
      <trkpt lat="47.5974560" lon="9.5368010">
        <ele>-2.0</ele>
        <time>2022-06-09T05:42:18Z</time>
      </trkpt>
      <trkpt lat="47.5974560" lon="9.5368010">
        <ele>-1.6</ele>
        <time>2022-06-09T05:42:22Z</time>
      </trkpt>
      <trkpt lat="47.5974560" lon="9.5368010">
        <ele>-1.8</ele>
        <time>2022-06-09T05:42:26Z</time>
      </trkpt>
      <trkpt lat="47.5974560" lon="9.5368010">
        <ele>-1.6</ele>
        <time>2022-06-09T05:42:30Z</time>
      </trkpt>
      <trkpt lat="47.5974560" lon="9.5368010">
        <ele>-1.8</ele>
        <time>2022-06-09T05:42:34Z</time>
      </trkpt>
      <trkpt lat="47.5974560" lon="9.5368010">
        <ele>-2.0</ele>
        <time>2022-06-09T05:42:38Z</time>
      </trkpt>
      <trkpt lat="47.5974560" lon="9.5368010">
        <ele>-2.0</ele>
        <time>2022-06-09T05:42:42Z</time>
      </trkpt>
      <trkpt lat="47.5974560" lon="9.5368010">
        <ele>-1.8</ele>
        <time>2022-06-09T05:42:46Z</time>
      </trkpt>
      <trkpt lat="47.5974560" lon="9.5368010">
        <ele>-2.0</ele>
        <time>2022-06-09T05:42:50Z</time>
      </trkpt>
      <trkpt lat="47.5974560" lon="9.5368010">
        <ele>-1.6</ele>
        <time>2022-06-09T05:42:54Z</time>
      </trkpt>
      <trkpt lat="47.5974560" lon="9.5368010">
        <ele>-2.0</ele>
        <time>2022-06-09T05:42:58Z</time>
      </trkpt>
      <trkpt lat="47.5974560" lon="9.5368010">
        <ele>-1.8</ele>
        <time>2022-06-09T05:43:02Z</time>
      </trkpt>
      <trkpt lat="47.5974560" lon="9.5368010">
        <ele>-1.6</ele>
        <time>2022-06-09T05:43:06Z</time>
      </trkpt>
      <trkpt lat="47.5974560" lon="9.5368010">
        <ele>-2.0</ele>
        <time>2022-06-09T05:43:10Z</time>
      </trkpt>
      <trkpt lat="47.5974580" lon="9.5368480">
        <ele>-1.8</ele>
        <time>2022-06-09T05:43:14Z</time>
      </trkpt>
      <trkpt lat="47.5975050" lon="9.5369310">
        <ele>-2.0</ele>
        <time>2022-06-09T05:43:18Z</time>
      </trkpt>
      <trkpt lat="47.5975950" lon="9.5370850">
        <ele>-1.6</ele>
        <time>2022-06-09T05:43:22Z</time>
      </trkpt>
      <trkpt lat="47.5976950" lon="9.5372600">
        <ele>-2.4</ele>
        <time>2022-06-09T05:43:26Z</time>
      </trkpt>
      <trkpt lat="47.5978160" lon="9.5374480">
        <ele>-2.0</ele>
        <time>2022-06-09T05:43:30Z</time>
      </trkpt>
      <trkpt lat="47.5979580" lon="9.5376650">
        <ele>-1.6</ele>
        <time>2022-06-09T05:43:34Z</time>
      </trkpt>
      <trkpt lat="47.5979410" lon="9.5378930">
        <ele>-2.2</ele>
        <time>2022-06-09T05:43:38Z</time>
      </trkpt>
      <trkpt lat="47.5978650" lon="9.5381410">
        <ele>-2.6</ele>
        <time>2022-06-09T05:43:42Z</time>
      </trkpt>
      <trkpt lat="47.5978000" lon="9.5383080">
        <ele>-2.2</ele>
        <time>2022-06-09T05:43:46Z</time>
      </trkpt>
      <trkpt lat="47.5976810" lon="9.5384600">
        <ele>-2.8</ele>
        <time>2022-06-09T05:43:50Z</time>
      </trkpt>
      <trkpt lat="47.5975450" lon="9.5386450">
        <ele>-2.8</ele>
        <time>2022-06-09T05:43:54Z</time>
      </trkpt>
      <trkpt lat="47.5974030" lon="9.5388460">
        <ele>-2.8</ele>
        <time>2022-06-09T05:43:58Z</time>
      </trkpt>
      <trkpt lat="47.5972800" lon="9.5390600">
        <ele>-3.2</ele>
        <time>2022-06-09T05:44:02Z</time>
      </trkpt>
      <trkpt lat="47.5971600" lon="9.5392710">
        <ele>-2.6</ele>
        <time>2022-06-09T05:44:06Z</time>
      </trkpt>
      <trkpt lat="47.5970250" lon="9.5394210">
        <ele>-3.4</ele>
        <time>2022-06-09T05:44:10Z</time>
      </trkpt>
      <trkpt lat="47.5968460" lon="9.5394710">
        <ele>-2.6</ele>
        <time>2022-06-09T05:44:14Z</time>
      </trkpt>
      <trkpt lat="47.5967000" lon="9.5396530">
        <ele>-2.8</ele>
        <time>2022-06-09T05:44:18Z</time>
      </trkpt>
      <trkpt lat="47.5966030" lon="9.5399030">
        <ele>-3.4</ele>
        <time>2022-06-09T05:44:22Z</time>
      </trkpt>
      <trkpt lat="47.5964850" lon="9.5401300">
        <ele>-3.4</ele>
        <time>2022-06-09T05:44:26Z</time>
      </trkpt>
      <trkpt lat="47.5963550" lon="9.5403430">
        <ele>-3.8</ele>
        <time>2022-06-09T05:44:30Z</time>
      </trkpt>
      <trkpt lat="47.5962060" lon="9.5405100">
        <ele>-4.0</ele>
        <time>2022-06-09T05:44:34Z</time>
      </trkpt>
      <trkpt lat="47.5961130" lon="9.5407510">
        <ele>-4.2</ele>
        <time>2022-06-09T05:44:38Z</time>
      </trkpt>
      <trkpt lat="47.5960530" lon="9.5409650">
        <ele>-4.4</ele>
        <time>2022-06-09T05:44:42Z</time>
      </trkpt>
      <trkpt lat="47.5960210" lon="9.5411680">
        <ele>-4.0</ele>
        <time>2022-06-09T05:44:46Z</time>
      </trkpt>
      <trkpt lat="47.5960380" lon="9.5414230">
        <ele>-3.6</ele>
        <time>2022-06-09T05:44:50Z</time>
      </trkpt>
      <trkpt lat="47.5960330" lon="9.5416950">
        <ele>-3.6</ele>
        <time>2022-06-09T05:44:54Z</time>
      </trkpt>
      <trkpt lat="47.5959710" lon="9.5419650">
        <ele>-4.0</ele>
        <time>2022-06-09T05:44:58Z</time>
      </trkpt>
      <trkpt lat="47.5958810" lon="9.5422280">
        <ele>-4.0</ele>
        <time>2022-06-09T05:45:02Z</time>
      </trkpt>
      <trkpt lat="47.5957980" lon="9.5424980">
        <ele>-4.2</ele>
        <time>2022-06-09T05:45:06Z</time>
      </trkpt>
      <trkpt lat="47.5957130" lon="9.5427680">
        <ele>-4.0</ele>
        <time>2022-06-09T05:45:10Z</time>
      </trkpt>
      <trkpt lat="47.5956130" lon="9.5430180">
        <ele>-4.0</ele>
        <time>2022-06-09T05:45:14Z</time>
      </trkpt>
      <trkpt lat="47.5954950" lon="9.5432560">
        <ele>-3.8</ele>
        <time>2022-06-09T05:45:18Z</time>
      </trkpt>
      <trkpt lat="47.5953530" lon="9.5434750">
        <ele>-3.4</ele>
        <time>2022-06-09T05:45:22Z</time>
      </trkpt>
      <trkpt lat="47.5952200" lon="9.5436780">
        <ele>-2.8</ele>
        <time>2022-06-09T05:45:26Z</time>
      </trkpt>
      <trkpt lat="47.5950700" lon="9.5438460">
        <ele>-3.6</ele>
        <time>2022-06-09T05:45:30Z</time>
      </trkpt>
      <trkpt lat="47.5949030" lon="9.5439850">
        <ele>-2.2</ele>
        <time>2022-06-09T05:45:34Z</time>
      </trkpt>
      <trkpt lat="47.5947360" lon="9.5441360">
        <ele>-4.0</ele>
        <time>2022-06-09T05:45:38Z</time>
      </trkpt>
      <trkpt lat="47.5945660" lon="9.5442550">
        <ele>-2.2</ele>
        <time>2022-06-09T05:45:42Z</time>
      </trkpt>
      <trkpt lat="47.5944000" lon="9.5443710">
        <ele>-3.0</ele>
        <time>2022-06-09T05:45:46Z</time>
      </trkpt>
      <trkpt lat="47.5942280" lon="9.5444750">
        <ele>-3.8</ele>
        <time>2022-06-09T05:45:50Z</time>
      </trkpt>
      <trkpt lat="47.5940560" lon="9.5445950">
        <ele>-3.4</ele>
        <time>2022-06-09T05:45:54Z</time>
      </trkpt>
      <trkpt lat="47.5938730" lon="9.5446800">
        <ele>-3.8</ele>
        <time>2022-06-09T05:45:58Z</time>
      </trkpt>
      <trkpt lat="47.5936880" lon="9.5447710">
        <ele>-2.6</ele>
        <time>2022-06-09T05:46:02Z</time>
      </trkpt>
      <trkpt lat="47.5935050" lon="9.5448460">
        <ele>-2.2</ele>
        <time>2022-06-09T05:46:06Z</time>
      </trkpt>
      <trkpt lat="47.5933180" lon="9.5448980">
        <ele>-3.4</ele>
        <time>2022-06-09T05:46:10Z</time>
      </trkpt>
      <trkpt lat="47.5931460" lon="9.5449910">
        <ele>-3.2</ele>
        <time>2022-06-09T05:46:14Z</time>
      </trkpt>
      <trkpt lat="47.5930250" lon="9.5451880">
        <ele>-3.4</ele>
        <time>2022-06-09T05:46:18Z</time>
      </trkpt>
      <trkpt lat="47.5929100" lon="9.5454110">
        <ele>-3.0</ele>
        <time>2022-06-09T05:46:22Z</time>
      </trkpt>
      <trkpt lat="47.5927980" lon="9.5456350">
        <ele>-3.6</ele>
        <time>2022-06-09T05:46:26Z</time>
      </trkpt>
      <trkpt lat="47.5927230" lon="9.5458850">
        <ele>-3.8</ele>
        <time>2022-06-09T05:46:30Z</time>
      </trkpt>
      <trkpt lat="47.5926780" lon="9.5461380">
        <ele>-3.6</ele>
        <time>2022-06-09T05:46:34Z</time>
      </trkpt>
      <trkpt lat="47.5926850" lon="9.5463860">
        <ele>-3.4</ele>
        <time>2022-06-09T05:46:38Z</time>
      </trkpt>
      <trkpt lat="47.5927380" lon="9.5466330">
        <ele>-3.6</ele>
        <time>2022-06-09T05:46:42Z</time>
      </trkpt>
      <trkpt lat="47.5927960" lon="9.5468880">
        <ele>-2.8</ele>
        <time>2022-06-09T05:46:46Z</time>
      </trkpt>
      <trkpt lat="47.5928000" lon="9.5471660">
        <ele>-3.4</ele>
        <time>2022-06-09T05:46:50Z</time>
      </trkpt>
      <trkpt lat="47.5927650" lon="9.5474480">
        <ele>-3.0</ele>
        <time>2022-06-09T05:46:54Z</time>
      </trkpt>
      <trkpt lat="47.5927250" lon="9.5477110">
        <ele>-2.8</ele>
        <time>2022-06-09T05:46:58Z</time>
      </trkpt>
      <trkpt lat="47.5926760" lon="9.5479480">
        <ele>-3.6</ele>
        <time>2022-06-09T05:47:02Z</time>
      </trkpt>
      <trkpt lat="47.5926300" lon="9.5481860">
        <ele>-3.6</ele>
        <time>2022-06-09T05:47:06Z</time>
      </trkpt>
      <trkpt lat="47.5925830" lon="9.5484410">
        <ele>-3.4</ele>
        <time>2022-06-09T05:47:10Z</time>
      </trkpt>
      <trkpt lat="47.5925780" lon="9.5487050">
        <ele>-3.4</ele>
        <time>2022-06-09T05:47:14Z</time>
      </trkpt>
      <trkpt lat="47.5926060" lon="9.5489600">
        <ele>-3.2</ele>
        <time>2022-06-09T05:47:18Z</time>
      </trkpt>
      <trkpt lat="47.5926960" lon="9.5492000">
        <ele>-3.0</ele>
        <time>2022-06-09T05:47:22Z</time>
      </trkpt>
      <trkpt lat="47.5927750" lon="9.5494330">
        <ele>-3.2</ele>
        <time>2022-06-09T05:47:26Z</time>
      </trkpt>
      <trkpt lat="47.5928600" lon="9.5496580">
        <ele>-3.0</ele>
        <time>2022-06-09T05:47:30Z</time>
      </trkpt>
      <trkpt lat="47.5929400" lon="9.5498810">
        <ele>-2.6</ele>
        <time>2022-06-09T05:47:34Z</time>
      </trkpt>
      <trkpt lat="47.5930230" lon="9.5500830">
        <ele>-2.6</ele>
        <time>2022-06-09T05:47:38Z</time>
      </trkpt>
      <trkpt lat="47.5931060" lon="9.5502860">
        <ele>-2.0</ele>
        <time>2022-06-09T05:47:42Z</time>
      </trkpt>
      <trkpt lat="47.5931910" lon="9.5504880">
        <ele>-1.4</ele>
        <time>2022-06-09T05:47:46Z</time>
      </trkpt>
      <trkpt lat="47.5932700" lon="9.5506930">
        <ele>-1.4</ele>
        <time>2022-06-09T05:47:50Z</time>
      </trkpt>
      <trkpt lat="47.5933600" lon="9.5508900">
        <ele>-1.4</ele>
        <time>2022-06-09T05:47:54Z</time>
      </trkpt>
      <trkpt lat="47.5934500" lon="9.5510960">
        <ele>-1.4</ele>
        <time>2022-06-09T05:47:58Z</time>
      </trkpt>
      <trkpt lat="47.5935330" lon="9.5513250">
        <ele>-1.4</ele>
        <time>2022-06-09T05:48:02Z</time>
      </trkpt>
      <trkpt lat="47.5936260" lon="9.5515500">
        <ele>-1.6</ele>
        <time>2022-06-09T05:48:06Z</time>
      </trkpt>
      <trkpt lat="47.5937060" lon="9.5517910">
        <ele>-1.8</ele>
        <time>2022-06-09T05:48:10Z</time>
      </trkpt>
      <trkpt lat="47.5937860" lon="9.5520410">
        <ele>-1.8</ele>
        <time>2022-06-09T05:48:14Z</time>
      </trkpt>
      <trkpt lat="47.5938710" lon="9.5522880">
        <ele>-1.8</ele>
        <time>2022-06-09T05:48:18Z</time>
      </trkpt>
      <trkpt lat="47.5939710" lon="9.5525310">
        <ele>-1.8</ele>
        <time>2022-06-09T05:48:22Z</time>
      </trkpt>
      <trkpt lat="47.5940710" lon="9.5527880">
        <ele>-1.4</ele>
        <time>2022-06-09T05:48:26Z</time>
      </trkpt>
      <trkpt lat="47.5941830" lon="9.5530400">
        <ele>-1.4</ele>
        <time>2022-06-09T05:48:30Z</time>
      </trkpt>
      <trkpt lat="47.5943250" lon="9.5532600">
        <ele>-1.6</ele>
        <time>2022-06-09T05:48:34Z</time>
      </trkpt>
      <trkpt lat="47.5944630" lon="9.5534800">
        <ele>-1.4</ele>
        <time>2022-06-09T05:48:38Z</time>
      </trkpt>
      <trkpt lat="47.5945930" lon="9.5537010">
        <ele>-1.4</ele>
        <time>2022-06-09T05:48:42Z</time>
      </trkpt>
      <trkpt lat="47.5947430" lon="9.5539100">
        <ele>-0.8</ele>
        <time>2022-06-09T05:48:46Z</time>
      </trkpt>
      <trkpt lat="47.5949000" lon="9.5541080">
        <ele>-1.0</ele>
        <time>2022-06-09T05:48:50Z</time>
      </trkpt>
      <trkpt lat="47.5950560" lon="9.5543010">
        <ele>-0.6</ele>
        <time>2022-06-09T05:48:54Z</time>
      </trkpt>
      <trkpt lat="47.5951980" lon="9.5545230">
        <ele>-0.6</ele>
        <time>2022-06-09T05:48:58Z</time>
      </trkpt>
      <trkpt lat="47.5953130" lon="9.5547530">
        <ele>-0.6</ele>
        <time>2022-06-09T05:49:02Z</time>
      </trkpt>
      <trkpt lat="47.5954100" lon="9.5549910">
        <ele>-0.4</ele>
        <time>2022-06-09T05:49:06Z</time>
      </trkpt>
      <trkpt lat="47.5955180" lon="9.5552160">
        <ele>-0.4</ele>
        <time>2022-06-09T05:49:10Z</time>
      </trkpt>
      <trkpt lat="47.5956360" lon="9.5554350">
        <ele>0.0</ele>
        <time>2022-06-09T05:49:14Z</time>
      </trkpt>
      <trkpt lat="47.5957580" lon="9.5556300">
        <ele>-0.8</ele>
        <time>2022-06-09T05:49:18Z</time>
      </trkpt>
      <trkpt lat="47.5958750" lon="9.5558060">
        <ele>-0.4</ele>
        <time>2022-06-09T05:49:22Z</time>
      </trkpt>
      <trkpt lat="47.5959980" lon="9.5559760">
        <ele>-0.2</ele>
        <time>2022-06-09T05:49:26Z</time>
      </trkpt>
      <trkpt lat="47.5961530" lon="9.5561450">
        <ele>0.0</ele>
        <time>2022-06-09T05:49:30Z</time>
      </trkpt>
      <trkpt lat="47.5963050" lon="9.5563360">
        <ele>-0.4</ele>
        <time>2022-06-09T05:49:34Z</time>
      </trkpt>
      <trkpt lat="47.5964500" lon="9.5565300">
        <ele>-0.4</ele>
        <time>2022-06-09T05:49:38Z</time>
      </trkpt>
      <trkpt lat="47.5965900" lon="9.5567310">
        <ele>-0.4</ele>
        <time>2022-06-09T05:49:42Z</time>
      </trkpt>
      <trkpt lat="47.5967230" lon="9.5569260">
        <ele>0.2</ele>
        <time>2022-06-09T05:49:46Z</time>
      </trkpt>
      <trkpt lat="47.5968430" lon="9.5571060">
        <ele>0.0</ele>
        <time>2022-06-09T05:49:50Z</time>
      </trkpt>
      <trkpt lat="47.5968980" lon="9.5573110">
        <ele>0.0</ele>
        <time>2022-06-09T05:49:54Z</time>
      </trkpt>
      <trkpt lat="47.5968830" lon="9.5575680">
        <ele>0.2</ele>
        <time>2022-06-09T05:49:58Z</time>
      </trkpt>
      <trkpt lat="47.5968780" lon="9.5578600">
        <ele>0.4</ele>
        <time>2022-06-09T05:50:02Z</time>
      </trkpt>
      <trkpt lat="47.5968600" lon="9.5581430">
        <ele>0.0</ele>
        <time>2022-06-09T05:50:06Z</time>
      </trkpt>
      <trkpt lat="47.5968330" lon="9.5584300">
        <ele>0.4</ele>
        <time>2022-06-09T05:50:10Z</time>
      </trkpt>
      <trkpt lat="47.5968130" lon="9.5587230">
        <ele>0.8</ele>
        <time>2022-06-09T05:50:14Z</time>
      </trkpt>
      <trkpt lat="47.5967780" lon="9.5590050">
        <ele>0.8</ele>
        <time>2022-06-09T05:50:18Z</time>
      </trkpt>
      <trkpt lat="47.5967300" lon="9.5592910">
        <ele>1.2</ele>
        <time>2022-06-09T05:50:22Z</time>
      </trkpt>
      <trkpt lat="47.5966710" lon="9.5595700">
        <ele>1.4</ele>
        <time>2022-06-09T05:50:26Z</time>
      </trkpt>
      <trkpt lat="47.5966060" lon="9.5598450">
        <ele>1.6</ele>
        <time>2022-06-09T05:50:30Z</time>
      </trkpt>
      <trkpt lat="47.5965260" lon="9.5601260">
        <ele>2.0</ele>
        <time>2022-06-09T05:50:34Z</time>
      </trkpt>
      <trkpt lat="47.5964430" lon="9.5604130">
        <ele>1.8</ele>
        <time>2022-06-09T05:50:38Z</time>
      </trkpt>
      <trkpt lat="47.5963450" lon="9.5607030">
        <ele>2.4</ele>
        <time>2022-06-09T05:50:42Z</time>
      </trkpt>
      <trkpt lat="47.5962480" lon="9.5609800">
        <ele>2.4</ele>
        <time>2022-06-09T05:50:46Z</time>
      </trkpt>
      <trkpt lat="47.5961550" lon="9.5612580">
        <ele>3.4</ele>
        <time>2022-06-09T05:50:50Z</time>
      </trkpt>
      <trkpt lat="47.5960580" lon="9.5615360">
        <ele>3.6</ele>
        <time>2022-06-09T05:50:54Z</time>
      </trkpt>
      <trkpt lat="47.5959610" lon="9.5618160">
        <ele>3.4</ele>
        <time>2022-06-09T05:50:58Z</time>
      </trkpt>
      <trkpt lat="47.5958680" lon="9.5621060">
        <ele>2.8</ele>
        <time>2022-06-09T05:51:02Z</time>
      </trkpt>
      <trkpt lat="47.5957810" lon="9.5624050">
        <ele>3.0</ele>
        <time>2022-06-09T05:51:06Z</time>
      </trkpt>
      <trkpt lat="47.5957060" lon="9.5627100">
        <ele>2.8</ele>
        <time>2022-06-09T05:51:10Z</time>
      </trkpt>
      <trkpt lat="47.5956350" lon="9.5629960">
        <ele>2.0</ele>
        <time>2022-06-09T05:51:14Z</time>
      </trkpt>
      <trkpt lat="47.5955680" lon="9.5632710">
        <ele>2.0</ele>
        <time>2022-06-09T05:51:18Z</time>
      </trkpt>
      <trkpt lat="47.5954960" lon="9.5635410">
        <ele>2.0</ele>
        <time>2022-06-09T05:51:22Z</time>
      </trkpt>
      <trkpt lat="47.5954380" lon="9.5638460">
        <ele>1.4</ele>
        <time>2022-06-09T05:51:26Z</time>
      </trkpt>
      <trkpt lat="47.5953730" lon="9.5641730">
        <ele>1.2</ele>
        <time>2022-06-09T05:51:30Z</time>
      </trkpt>
      <trkpt lat="47.5953110" lon="9.5645180">
        <ele>0.8</ele>
        <time>2022-06-09T05:51:34Z</time>
      </trkpt>
      <trkpt lat="47.5952560" lon="9.5648830">
        <ele>0.6</ele>
        <time>2022-06-09T05:51:38Z</time>
      </trkpt>
      <trkpt lat="47.5952050" lon="9.5652460">
        <ele>0.0</ele>
        <time>2022-06-09T05:51:42Z</time>
      </trkpt>
      <trkpt lat="47.5951610" lon="9.5656110">
        <ele>0.0</ele>
        <time>2022-06-09T05:51:46Z</time>
      </trkpt>
      <trkpt lat="47.5951260" lon="9.5659700">
        <ele>0.2</ele>
        <time>2022-06-09T05:51:50Z</time>
      </trkpt>
      <trkpt lat="47.5950960" lon="9.5663250">
        <ele>0.2</ele>
        <time>2022-06-09T05:51:54Z</time>
      </trkpt>
      <trkpt lat="47.5950760" lon="9.5666760">
        <ele>0.6</ele>
        <time>2022-06-09T05:51:58Z</time>
      </trkpt>
      <trkpt lat="47.5950610" lon="9.5670260">
        <ele>0.6</ele>
        <time>2022-06-09T05:52:02Z</time>
      </trkpt>
      <trkpt lat="47.5950450" lon="9.5673780">
        <ele>0.8</ele>
        <time>2022-06-09T05:52:06Z</time>
      </trkpt>
      <trkpt lat="47.5950260" lon="9.5677280">
        <ele>1.0</ele>
        <time>2022-06-09T05:52:10Z</time>
      </trkpt>
      <trkpt lat="47.5950250" lon="9.5680500">
        <ele>1.2</ele>
        <time>2022-06-09T05:52:14Z</time>
      </trkpt>
      <trkpt lat="47.5949830" lon="9.5683160">
        <ele>0.8</ele>
        <time>2022-06-09T05:52:18Z</time>
      </trkpt>
      <trkpt lat="47.5947930" lon="9.5684150">
        <ele>0.6</ele>
        <time>2022-06-09T05:52:22Z</time>
      </trkpt>
      <trkpt lat="47.5945930" lon="9.5685130">
        <ele>1.0</ele>
        <time>2022-06-09T05:52:26Z</time>
      </trkpt>
      <trkpt lat="47.5943910" lon="9.5686030">
        <ele>1.2</ele>
        <time>2022-06-09T05:52:30Z</time>
      </trkpt>
      <trkpt lat="47.5941850" lon="9.5686750">
        <ele>1.4</ele>
        <time>2022-06-09T05:52:34Z</time>
      </trkpt>
      <trkpt lat="47.5939950" lon="9.5688060">
        <ele>0.2</ele>
        <time>2022-06-09T05:52:38Z</time>
      </trkpt>
      <trkpt lat="47.5938210" lon="9.5689850">
        <ele>0.2</ele>
        <time>2022-06-09T05:52:42Z</time>
      </trkpt>
      <trkpt lat="47.5936360" lon="9.5691100">
        <ele>0.4</ele>
        <time>2022-06-09T05:52:46Z</time>
      </trkpt>
      <trkpt lat="47.5934330" lon="9.5690160">
        <ele>0.6</ele>
        <time>2022-06-09T05:52:50Z</time>
      </trkpt>
      <trkpt lat="47.5932430" lon="9.5688600">
        <ele>0.4</ele>
        <time>2022-06-09T05:52:54Z</time>
      </trkpt>
      <trkpt lat="47.5930600" lon="9.5687000">
        <ele>0.0</ele>
        <time>2022-06-09T05:52:58Z</time>
      </trkpt>
      <trkpt lat="47.5928700" lon="9.5685400">
        <ele>0.0</ele>
        <time>2022-06-09T05:53:02Z</time>
      </trkpt>
      <trkpt lat="47.5926710" lon="9.5683910">
        <ele>0.2</ele>
        <time>2022-06-09T05:53:06Z</time>
      </trkpt>
      <trkpt lat="47.5924730" lon="9.5682580">
        <ele>0.0</ele>
        <time>2022-06-09T05:53:10Z</time>
      </trkpt>
      <trkpt lat="47.5922900" lon="9.5681080">
        <ele>0.6</ele>
        <time>2022-06-09T05:53:14Z</time>
      </trkpt>
      <trkpt lat="47.5922160" lon="9.5678350">
        <ele>0.6</ele>
        <time>2022-06-09T05:53:18Z</time>
      </trkpt>
      <trkpt lat="47.5921400" lon="9.5675460">
        <ele>0.4</ele>
        <time>2022-06-09T05:53:22Z</time>
      </trkpt>
      <trkpt lat="47.5919860" lon="9.5673450">
        <ele>-0.8</ele>
        <time>2022-06-09T05:53:26Z</time>
      </trkpt>
      <trkpt lat="47.5917910" lon="9.5672050">
        <ele>-0.6</ele>
        <time>2022-06-09T05:53:30Z</time>
      </trkpt>
      <trkpt lat="47.5916010" lon="9.5670600">
        <ele>-0.6</ele>
        <time>2022-06-09T05:53:34Z</time>
      </trkpt>
      <trkpt lat="47.5914060" lon="9.5669360">
        <ele>-0.8</ele>
        <time>2022-06-09T05:53:38Z</time>
      </trkpt>
      <trkpt lat="47.5912000" lon="9.5668100">
        <ele>-0.8</ele>
        <time>2022-06-09T05:53:42Z</time>
      </trkpt>
      <trkpt lat="47.5909930" lon="9.5666830">
        <ele>-1.2</ele>
        <time>2022-06-09T05:53:46Z</time>
      </trkpt>
      <trkpt lat="47.5908000" lon="9.5665700">
        <ele>-1.0</ele>
        <time>2022-06-09T05:53:50Z</time>
      </trkpt>
      <trkpt lat="47.5906060" lon="9.5665210">
        <ele>-1.6</ele>
        <time>2022-06-09T05:53:54Z</time>
      </trkpt>
      <trkpt lat="47.5903950" lon="9.5665350">
        <ele>-2.2</ele>
        <time>2022-06-09T05:53:58Z</time>
      </trkpt>
      <trkpt lat="47.5901700" lon="9.5665450">
        <ele>-3.2</ele>
        <time>2022-06-09T05:54:02Z</time>
      </trkpt>
      <trkpt lat="47.5899350" lon="9.5665600">
        <ele>-2.8</ele>
        <time>2022-06-09T05:54:06Z</time>
      </trkpt>
      <trkpt lat="47.5896960" lon="9.5666330">
        <ele>-3.0</ele>
        <time>2022-06-09T05:54:10Z</time>
      </trkpt>
      <trkpt lat="47.5894810" lon="9.5667850">
        <ele>-2.8</ele>
        <time>2022-06-09T05:54:14Z</time>
      </trkpt>
      <trkpt lat="47.5892980" lon="9.5669600">
        <ele>-3.0</ele>
        <time>2022-06-09T05:54:18Z</time>
      </trkpt>
      <trkpt lat="47.5892300" lon="9.5672050">
        <ele>-4.4</ele>
        <time>2022-06-09T05:54:22Z</time>
      </trkpt>
      <trkpt lat="47.5893210" lon="9.5674600">
        <ele>-4.2</ele>
        <time>2022-06-09T05:54:26Z</time>
      </trkpt>
      <trkpt lat="47.5893510" lon="9.5676930">
        <ele>-4.0</ele>
        <time>2022-06-09T05:54:30Z</time>
      </trkpt>
      <trkpt lat="47.5892100" lon="9.5677850">
        <ele>-3.4</ele>
        <time>2022-06-09T05:54:34Z</time>
      </trkpt>
      <trkpt lat="47.5891330" lon="9.5679030">
        <ele>-3.4</ele>
        <time>2022-06-09T05:54:38Z</time>
      </trkpt>
      <trkpt lat="47.5891560" lon="9.5679650">
        <ele>-3.4</ele>
        <time>2022-06-09T05:54:42Z</time>
      </trkpt>
      <trkpt lat="47.5891350" lon="9.5679160">
        <ele>-3.4</ele>
        <time>2022-06-09T05:54:46Z</time>
      </trkpt>
      <trkpt lat="47.5892130" lon="9.5678210">
        <ele>-3.4</ele>
        <time>2022-06-09T05:54:50Z</time>
      </trkpt>
      <trkpt lat="47.5893510" lon="9.5677780">
        <ele>-3.2</ele>
        <time>2022-06-09T05:54:54Z</time>
      </trkpt>
      <trkpt lat="47.5893410" lon="9.5675560">
        <ele>-3.2</ele>
        <time>2022-06-09T05:54:58Z</time>
      </trkpt>
      <trkpt lat="47.5893080" lon="9.5673680">
        <ele>-3.4</ele>
        <time>2022-06-09T05:55:02Z</time>
      </trkpt>
      <trkpt lat="47.5892030" lon="9.5672650">
        <ele>-3.4</ele>
        <time>2022-06-09T05:55:06Z</time>
      </trkpt>
      <trkpt lat="47.5891260" lon="9.5674310">
        <ele>-3.8</ele>
        <time>2022-06-09T05:55:10Z</time>
      </trkpt>
      <trkpt lat="47.5890710" lon="9.5676280">
        <ele>-3.8</ele>
        <time>2022-06-09T05:55:14Z</time>
      </trkpt>
      <trkpt lat="47.5890760" lon="9.5677900">
        <ele>-3.8</ele>
        <time>2022-06-09T05:55:18Z</time>
      </trkpt>
      <trkpt lat="47.5891100" lon="9.5679850">
        <ele>-3.8</ele>
        <time>2022-06-09T05:55:22Z</time>
      </trkpt>
      <trkpt lat="47.5891850" lon="9.5682060">
        <ele>-3.0</ele>
        <time>2022-06-09T05:55:26Z</time>
      </trkpt>
      <trkpt lat="47.5892280" lon="9.5684610">
        <ele>-3.0</ele>
        <time>2022-06-09T05:55:30Z</time>
      </trkpt>
      <trkpt lat="47.5893230" lon="9.5687000">
        <ele>-2.8</ele>
        <time>2022-06-09T05:55:34Z</time>
      </trkpt>
      <trkpt lat="47.5893700" lon="9.5690110">
        <ele>-3.2</ele>
        <time>2022-06-09T05:55:38Z</time>
      </trkpt>
      <trkpt lat="47.5893460" lon="9.5693150">
        <ele>-2.8</ele>
        <time>2022-06-09T05:55:42Z</time>
      </trkpt>
      <trkpt lat="47.5893150" lon="9.5696160">
        <ele>-2.4</ele>
        <time>2022-06-09T05:55:46Z</time>
      </trkpt>
      <trkpt lat="47.5892780" lon="9.5699050">
        <ele>-2.8</ele>
        <time>2022-06-09T05:55:50Z</time>
      </trkpt>
      <trkpt lat="47.5892300" lon="9.5701930">
        <ele>-3.2</ele>
        <time>2022-06-09T05:55:54Z</time>
      </trkpt>
      <trkpt lat="47.5891860" lon="9.5704980">
        <ele>-3.4</ele>
        <time>2022-06-09T05:55:58Z</time>
      </trkpt>
      <trkpt lat="47.5891380" lon="9.5708130">
        <ele>-3.6</ele>
        <time>2022-06-09T05:56:02Z</time>
      </trkpt>
      <trkpt lat="47.5891010" lon="9.5711180">
        <ele>-3.4</ele>
        <time>2022-06-09T05:56:06Z</time>
      </trkpt>
      <trkpt lat="47.5890660" lon="9.5714210">
        <ele>-2.8</ele>
        <time>2022-06-09T05:56:10Z</time>
      </trkpt>
      <trkpt lat="47.5890210" lon="9.5717160">
        <ele>-2.8</ele>
        <time>2022-06-09T05:56:14Z</time>
      </trkpt>
      <trkpt lat="47.5889660" lon="9.5719930">
        <ele>-3.2</ele>
        <time>2022-06-09T05:56:18Z</time>
      </trkpt>
      <trkpt lat="47.5888760" lon="9.5722630">
        <ele>-3.2</ele>
        <time>2022-06-09T05:56:22Z</time>
      </trkpt>
      <trkpt lat="47.5887760" lon="9.5725380">
        <ele>-3.4</ele>
        <time>2022-06-09T05:56:26Z</time>
      </trkpt>
      <trkpt lat="47.5887430" lon="9.5728330">
        <ele>-4.0</ele>
        <time>2022-06-09T05:56:30Z</time>
      </trkpt>
      <trkpt lat="47.5888730" lon="9.5730730">
        <ele>-3.4</ele>
        <time>2022-06-09T05:56:34Z</time>
      </trkpt>
      <trkpt lat="47.5890210" lon="9.5732930">
        <ele>-3.6</ele>
        <time>2022-06-09T05:56:38Z</time>
      </trkpt>
      <trkpt lat="47.5891650" lon="9.5735210">
        <ele>-3.4</ele>
        <time>2022-06-09T05:56:42Z</time>
      </trkpt>
      <trkpt lat="47.5892950" lon="9.5737510">
        <ele>-3.4</ele>
        <time>2022-06-09T05:56:46Z</time>
      </trkpt>
      <trkpt lat="47.5894310" lon="9.5739700">
        <ele>-3.8</ele>
        <time>2022-06-09T05:56:50Z</time>
      </trkpt>
      <trkpt lat="47.5895680" lon="9.5741860">
        <ele>-3.6</ele>
        <time>2022-06-09T05:56:54Z</time>
      </trkpt>
      <trkpt lat="47.5897060" lon="9.5744080">
        <ele>-4.0</ele>
        <time>2022-06-09T05:56:58Z</time>
      </trkpt>
      <trkpt lat="47.5898000" lon="9.5746710">
        <ele>-4.0</ele>
        <time>2022-06-09T05:57:02Z</time>
      </trkpt>
      <trkpt lat="47.5899130" lon="9.5749310">
        <ele>-4.0</ele>
        <time>2022-06-09T05:57:06Z</time>
      </trkpt>
      <trkpt lat="47.5900180" lon="9.5751630">
        <ele>-3.4</ele>
        <time>2022-06-09T05:57:10Z</time>
      </trkpt>
      <trkpt lat="47.5900650" lon="9.5754450">
        <ele>-3.6</ele>
        <time>2022-06-09T05:57:14Z</time>
      </trkpt>
      <trkpt lat="47.5899810" lon="9.5756900">
        <ele>-3.6</ele>
        <time>2022-06-09T05:57:18Z</time>
      </trkpt>
      <trkpt lat="47.5898250" lon="9.5758810">
        <ele>-3.6</ele>
        <time>2022-06-09T05:57:22Z</time>
      </trkpt>
      <trkpt lat="47.5896660" lon="9.5760660">
        <ele>-3.6</ele>
        <time>2022-06-09T05:57:26Z</time>
      </trkpt>
      <trkpt lat="47.5895210" lon="9.5762210">
        <ele>-3.6</ele>
        <time>2022-06-09T05:57:30Z</time>
      </trkpt>
      <trkpt lat="47.5894250" lon="9.5764360">
        <ele>-3.2</ele>
        <time>2022-06-09T05:57:34Z</time>
      </trkpt>
      <trkpt lat="47.5893760" lon="9.5767150">
        <ele>-3.6</ele>
        <time>2022-06-09T05:57:38Z</time>
      </trkpt>
      <trkpt lat="47.5893310" lon="9.5769900">
        <ele>-3.2</ele>
        <time>2022-06-09T05:57:42Z</time>
      </trkpt>
      <trkpt lat="47.5892950" lon="9.5772730">
        <ele>-3.2</ele>
        <time>2022-06-09T05:57:46Z</time>
      </trkpt>
      <trkpt lat="47.5892650" lon="9.5775750">
        <ele>-3.6</ele>
        <time>2022-06-09T05:57:50Z</time>
      </trkpt>
      <trkpt lat="47.5892200" lon="9.5778860">
        <ele>-3.6</ele>
        <time>2022-06-09T05:57:54Z</time>
      </trkpt>
      <trkpt lat="47.5891830" lon="9.5782050">
        <ele>-3.4</ele>
        <time>2022-06-09T05:57:58Z</time>
      </trkpt>
      <trkpt lat="47.5891400" lon="9.5785160">
        <ele>-4.0</ele>
        <time>2022-06-09T05:58:02Z</time>
      </trkpt>
      <trkpt lat="47.5890950" lon="9.5788380">
        <ele>-4.0</ele>
        <time>2022-06-09T05:58:06Z</time>
      </trkpt>
      <trkpt lat="47.5890600" lon="9.5791650">
        <ele>-3.6</ele>
        <time>2022-06-09T05:58:10Z</time>
      </trkpt>
      <trkpt lat="47.5890160" lon="9.5794910">
        <ele>-4.0</ele>
        <time>2022-06-09T05:58:14Z</time>
      </trkpt>
      <trkpt lat="47.5889750" lon="9.5798180">
        <ele>-4.0</ele>
        <time>2022-06-09T05:58:18Z</time>
      </trkpt>
      <trkpt lat="47.5889450" lon="9.5801480">
        <ele>-4.8</ele>
        <time>2022-06-09T05:58:22Z</time>
      </trkpt>
      <trkpt lat="47.5889250" lon="9.5804930">
        <ele>-4.8</ele>
        <time>2022-06-09T05:58:26Z</time>
      </trkpt>
      <trkpt lat="47.5888680" lon="9.5808000">
        <ele>-4.8</ele>
        <time>2022-06-09T05:58:30Z</time>
      </trkpt>
      <trkpt lat="47.5888110" lon="9.5811150">
        <ele>-4.4</ele>
        <time>2022-06-09T05:58:34Z</time>
      </trkpt>
      <trkpt lat="47.5888080" lon="9.5814400">
        <ele>-3.4</ele>
        <time>2022-06-09T05:58:38Z</time>
      </trkpt>
      <trkpt lat="47.5887900" lon="9.5818000">
        <ele>-4.0</ele>
        <time>2022-06-09T05:58:42Z</time>
      </trkpt>
      <trkpt lat="47.5888460" lon="9.5821360">
        <ele>-4.4</ele>
        <time>2022-06-09T05:58:46Z</time>
      </trkpt>
      <trkpt lat="47.5889080" lon="9.5824760">
        <ele>-3.8</ele>
        <time>2022-06-09T05:58:50Z</time>
      </trkpt>
      <trkpt lat="47.5889110" lon="9.5828510">
        <ele>-4.2</ele>
        <time>2022-06-09T05:58:54Z</time>
      </trkpt>
      <trkpt lat="47.5888700" lon="9.5832230">
        <ele>-4.8</ele>
        <time>2022-06-09T05:58:58Z</time>
      </trkpt>
      <trkpt lat="47.5888430" lon="9.5835700">
        <ele>-4.6</ele>
        <time>2022-06-09T05:59:02Z</time>
      </trkpt>
      <trkpt lat="47.5888010" lon="9.5839150">
        <ele>-4.8</ele>
        <time>2022-06-09T05:59:06Z</time>
      </trkpt>
      <trkpt lat="47.5887660" lon="9.5842350">
        <ele>-4.8</ele>
        <time>2022-06-09T05:59:10Z</time>
      </trkpt>
      <trkpt lat="47.5887260" lon="9.5845680">
        <ele>-4.6</ele>
        <time>2022-06-09T05:59:14Z</time>
      </trkpt>
      <trkpt lat="47.5887500" lon="9.5848760">
        <ele>-5.2</ele>
        <time>2022-06-09T05:59:18Z</time>
      </trkpt>
      <trkpt lat="47.5887350" lon="9.5851910">
        <ele>-5.4</ele>
        <time>2022-06-09T05:59:22Z</time>
      </trkpt>
      <trkpt lat="47.5887430" lon="9.5855200">
        <ele>-5.4</ele>
        <time>2022-06-09T05:59:26Z</time>
      </trkpt>
      <trkpt lat="47.5887460" lon="9.5858460">
        <ele>-5.2</ele>
        <time>2022-06-09T05:59:30Z</time>
      </trkpt>
      <trkpt lat="47.5887510" lon="9.5861580">
        <ele>-5.6</ele>
        <time>2022-06-09T05:59:34Z</time>
      </trkpt>
      <trkpt lat="47.5887560" lon="9.5864510">
        <ele>-5.2</ele>
        <time>2022-06-09T05:59:38Z</time>
      </trkpt>
      <trkpt lat="47.5887500" lon="9.5867610">
        <ele>-5.0</ele>
        <time>2022-06-09T05:59:42Z</time>
      </trkpt>
      <trkpt lat="47.5887300" lon="9.5870880">
        <ele>-4.8</ele>
        <time>2022-06-09T05:59:46Z</time>
      </trkpt>
      <trkpt lat="47.5887100" lon="9.5874200">
        <ele>-5.2</ele>
        <time>2022-06-09T05:59:50Z</time>
      </trkpt>
      <trkpt lat="47.5887000" lon="9.5877410">
        <ele>-5.2</ele>
        <time>2022-06-09T05:59:54Z</time>
      </trkpt>
      <trkpt lat="47.5886930" lon="9.5880560">
        <ele>-5.2</ele>
        <time>2022-06-09T05:59:58Z</time>
      </trkpt>
      <trkpt lat="47.5886860" lon="9.5883610">
        <ele>-4.8</ele>
        <time>2022-06-09T06:00:02Z</time>
      </trkpt>
      <trkpt lat="47.5886850" lon="9.5886610">
        <ele>-4.8</ele>
        <time>2022-06-09T06:00:06Z</time>
      </trkpt>
      <trkpt lat="47.5886950" lon="9.5889560">
        <ele>-5.0</ele>
        <time>2022-06-09T06:00:10Z</time>
      </trkpt>
      <trkpt lat="47.5887360" lon="9.5892580">
        <ele>-5.0</ele>
        <time>2022-06-09T06:00:14Z</time>
      </trkpt>
      <trkpt lat="47.5887730" lon="9.5895560">
        <ele>-4.6</ele>
        <time>2022-06-09T06:00:18Z</time>
      </trkpt>
      <trkpt lat="47.5888230" lon="9.5898460">
        <ele>-4.4</ele>
        <time>2022-06-09T06:00:22Z</time>
      </trkpt>
      <trkpt lat="47.5888630" lon="9.5901250">
        <ele>-4.8</ele>
        <time>2022-06-09T06:00:26Z</time>
      </trkpt>
      <trkpt lat="47.5889130" lon="9.5903980">
        <ele>-4.8</ele>
        <time>2022-06-09T06:00:30Z</time>
      </trkpt>
      <trkpt lat="47.5889910" lon="9.5906800">
        <ele>-5.0</ele>
        <time>2022-06-09T06:00:34Z</time>
      </trkpt>
      <trkpt lat="47.5890460" lon="9.5909710">
        <ele>-5.2</ele>
        <time>2022-06-09T06:00:38Z</time>
      </trkpt>
      <trkpt lat="47.5890810" lon="9.5912860">
        <ele>-5.0</ele>
        <time>2022-06-09T06:00:42Z</time>
      </trkpt>
      <trkpt lat="47.5890900" lon="9.5916030">
        <ele>-5.0</ele>
        <time>2022-06-09T06:00:46Z</time>
      </trkpt>
      <trkpt lat="47.5890910" lon="9.5919260">
        <ele>-5.6</ele>
        <time>2022-06-09T06:00:50Z</time>
      </trkpt>
      <trkpt lat="47.5890960" lon="9.5922530">
        <ele>-5.4</ele>
        <time>2022-06-09T06:00:54Z</time>
      </trkpt>
      <trkpt lat="47.5891050" lon="9.5925880">
        <ele>-6.0</ele>
        <time>2022-06-09T06:00:58Z</time>
      </trkpt>
      <trkpt lat="47.5891100" lon="9.5929250">
        <ele>-5.6</ele>
        <time>2022-06-09T06:01:02Z</time>
      </trkpt>
      <trkpt lat="47.5891150" lon="9.5932580">
        <ele>-5.4</ele>
        <time>2022-06-09T06:01:06Z</time>
      </trkpt>
      <trkpt lat="47.5891150" lon="9.5932580">
        <ele>-6.0</ele>
        <time>2022-06-09T06:01:10Z</time>
      </trkpt>
      <trkpt lat="47.5891350" lon="9.5936560">
        <ele>-6.0</ele>
        <time>2022-06-09T06:01:14Z</time>
      </trkpt>
      <trkpt lat="47.5891350" lon="9.5939500">
        <ele>-5.4</ele>
        <time>2022-06-09T06:01:18Z</time>
      </trkpt>
      <trkpt lat="47.5891260" lon="9.5942450">
        <ele>-5.6</ele>
        <time>2022-06-09T06:01:22Z</time>
      </trkpt>
      <trkpt lat="47.5890910" lon="9.5945400">
        <ele>-5.4</ele>
        <time>2022-06-09T06:01:26Z</time>
      </trkpt>
      <trkpt lat="47.5890430" lon="9.5948410">
        <ele>-6.0</ele>
        <time>2022-06-09T06:01:30Z</time>
      </trkpt>
      <trkpt lat="47.5889810" lon="9.5951410">
        <ele>-5.6</ele>
        <time>2022-06-09T06:01:34Z</time>
      </trkpt>
      <trkpt lat="47.5889180" lon="9.5954310">
        <ele>-5.4</ele>
        <time>2022-06-09T06:01:38Z</time>
      </trkpt>
      <trkpt lat="47.5888600" lon="9.5957280">
        <ele>-5.2</ele>
        <time>2022-06-09T06:01:42Z</time>
      </trkpt>
      <trkpt lat="47.5887930" lon="9.5960300">
        <ele>-5.0</ele>
        <time>2022-06-09T06:01:46Z</time>
      </trkpt>
      <trkpt lat="47.5887200" lon="9.5963380">
        <ele>-4.8</ele>
        <time>2022-06-09T06:01:50Z</time>
      </trkpt>
      <trkpt lat="47.5886300" lon="9.5966250">
        <ele>-5.0</ele>
        <time>2022-06-09T06:01:54Z</time>
      </trkpt>
      <trkpt lat="47.5885430" lon="9.5969110">
        <ele>-4.8</ele>
        <time>2022-06-09T06:01:58Z</time>
      </trkpt>
      <trkpt lat="47.5884550" lon="9.5971950">
        <ele>-4.4</ele>
        <time>2022-06-09T06:02:02Z</time>
      </trkpt>
      <trkpt lat="47.5883560" lon="9.5974730">
        <ele>-4.8</ele>
        <time>2022-06-09T06:02:06Z</time>
      </trkpt>
      <trkpt lat="47.5882550" lon="9.5977410">
        <ele>-4.6</ele>
        <time>2022-06-09T06:02:10Z</time>
      </trkpt>
      <trkpt lat="47.5881360" lon="9.5979930">
        <ele>-4.4</ele>
        <time>2022-06-09T06:02:14Z</time>
      </trkpt>
      <trkpt lat="47.5879950" lon="9.5982230">
        <ele>-4.6</ele>
        <time>2022-06-09T06:02:18Z</time>
      </trkpt>
      <trkpt lat="47.5879260" lon="9.5984960">
        <ele>-4.8</ele>
        <time>2022-06-09T06:02:22Z</time>
      </trkpt>
      <trkpt lat="47.5879980" lon="9.5987560">
        <ele>-4.4</ele>
        <time>2022-06-09T06:02:26Z</time>
      </trkpt>
      <trkpt lat="47.5881310" lon="9.5989300">
        <ele>-4.4</ele>
        <time>2022-06-09T06:02:30Z</time>
      </trkpt>
      <trkpt lat="47.5882400" lon="9.5991000">
        <ele>-4.0</ele>
        <time>2022-06-09T06:02:34Z</time>
      </trkpt>
      <trkpt lat="47.5882710" lon="9.5993080">
        <ele>-4.2</ele>
        <time>2022-06-09T06:02:38Z</time>
      </trkpt>
      <trkpt lat="47.5881300" lon="9.5994360">
        <ele>-4.0</ele>
        <time>2022-06-09T06:02:42Z</time>
      </trkpt>
      <trkpt lat="47.5879650" lon="9.5995610">
        <ele>-4.0</ele>
        <time>2022-06-09T06:02:46Z</time>
      </trkpt>
      <trkpt lat="47.5878100" lon="9.5997260">
        <ele>-4.2</ele>
        <time>2022-06-09T06:02:50Z</time>
      </trkpt>
      <trkpt lat="47.5877150" lon="9.5999850">
        <ele>-4.2</ele>
        <time>2022-06-09T06:02:54Z</time>
      </trkpt>
      <trkpt lat="47.5875980" lon="9.6002300">
        <ele>-4.6</ele>
        <time>2022-06-09T06:02:58Z</time>
      </trkpt>
      <trkpt lat="47.5874550" lon="9.6004480">
        <ele>-4.6</ele>
        <time>2022-06-09T06:03:02Z</time>
      </trkpt>
      <trkpt lat="47.5873010" lon="9.6006560">
        <ele>-4.2</ele>
        <time>2022-06-09T06:03:06Z</time>
      </trkpt>
      <trkpt lat="47.5871480" lon="9.6008660">
        <ele>-4.0</ele>
        <time>2022-06-09T06:03:10Z</time>
      </trkpt>
      <trkpt lat="47.5869980" lon="9.6010630">
        <ele>-4.8</ele>
        <time>2022-06-09T06:03:14Z</time>
      </trkpt>
      <trkpt lat="47.5868460" lon="9.6012610">
        <ele>-4.6</ele>
        <time>2022-06-09T06:03:18Z</time>
      </trkpt>
      <trkpt lat="47.5867410" lon="9.6014980">
        <ele>-3.8</ele>
        <time>2022-06-09T06:03:22Z</time>
      </trkpt>
      <trkpt lat="47.5867110" lon="9.6017730">
        <ele>-3.6</ele>
        <time>2022-06-09T06:03:26Z</time>
      </trkpt>
      <trkpt lat="47.5866660" lon="9.6020530">
        <ele>-2.8</ele>
        <time>2022-06-09T06:03:30Z</time>
      </trkpt>
      <trkpt lat="47.5866210" lon="9.6023310">
        <ele>-2.2</ele>
        <time>2022-06-09T06:03:34Z</time>
      </trkpt>
      <trkpt lat="47.5865350" lon="9.6025580">
        <ele>-1.6</ele>
        <time>2022-06-09T06:03:38Z</time>
      </trkpt>
      <trkpt lat="47.5864410" lon="9.6027460">
        <ele>-1.2</ele>
        <time>2022-06-09T06:03:42Z</time>
      </trkpt>
      <trkpt lat="47.5863330" lon="9.6028960">
        <ele>0.0</ele>
        <time>2022-06-09T06:03:46Z</time>
      </trkpt>
      <trkpt lat="47.5862180" lon="9.6030630">
        <ele>0.4</ele>
        <time>2022-06-09T06:03:50Z</time>
      </trkpt>
      <trkpt lat="47.5860960" lon="9.6032130">
        <ele>0.8</ele>
        <time>2022-06-09T06:03:54Z</time>
      </trkpt>
      <trkpt lat="47.5859580" lon="9.6033580">
        <ele>0.8</ele>
        <time>2022-06-09T06:03:58Z</time>
      </trkpt>
      <trkpt lat="47.5858150" lon="9.6035010">
        <ele>0.8</ele>
        <time>2022-06-09T06:04:02Z</time>
      </trkpt>
      <trkpt lat="47.5856660" lon="9.6036280">
        <ele>1.0</ele>
        <time>2022-06-09T06:04:06Z</time>
      </trkpt>
      <trkpt lat="47.5855200" lon="9.6037480">
        <ele>1.0</ele>
        <time>2022-06-09T06:04:10Z</time>
      </trkpt>
      <trkpt lat="47.5853600" lon="9.6038500">
        <ele>1.2</ele>
        <time>2022-06-09T06:04:14Z</time>
      </trkpt>
      <trkpt lat="47.5851860" lon="9.6039410">
        <ele>1.4</ele>
        <time>2022-06-09T06:04:18Z</time>
      </trkpt>
      <trkpt lat="47.5850050" lon="9.6040180">
        <ele>1.2</ele>
        <time>2022-06-09T06:04:22Z</time>
      </trkpt>
      <trkpt lat="47.5848210" lon="9.6041030">
        <ele>1.2</ele>
        <time>2022-06-09T06:04:26Z</time>
      </trkpt>
      <trkpt lat="47.5846360" lon="9.6041930">
        <ele>1.0</ele>
        <time>2022-06-09T06:04:30Z</time>
      </trkpt>
      <trkpt lat="47.5844450" lon="9.6042830">
        <ele>1.2</ele>
        <time>2022-06-09T06:04:34Z</time>
      </trkpt>
      <trkpt lat="47.5842510" lon="9.6043800">
        <ele>1.0</ele>
        <time>2022-06-09T06:04:38Z</time>
      </trkpt>
      <trkpt lat="47.5840610" lon="9.6044710">
        <ele>1.2</ele>
        <time>2022-06-09T06:04:42Z</time>
      </trkpt>
      <trkpt lat="47.5838760" lon="9.6045600">
        <ele>1.4</ele>
        <time>2022-06-09T06:04:46Z</time>
      </trkpt>
      <trkpt lat="47.5836900" lon="9.6046610">
        <ele>2.0</ele>
        <time>2022-06-09T06:04:50Z</time>
      </trkpt>
      <trkpt lat="47.5835000" lon="9.6047580">
        <ele>1.8</ele>
        <time>2022-06-09T06:04:54Z</time>
      </trkpt>
      <trkpt lat="47.5833160" lon="9.6048550">
        <ele>1.6</ele>
        <time>2022-06-09T06:04:58Z</time>
      </trkpt>
      <trkpt lat="47.5831260" lon="9.6049500">
        <ele>1.6</ele>
        <time>2022-06-09T06:05:02Z</time>
      </trkpt>
      <trkpt lat="47.5829360" lon="9.6050480">
        <ele>2.0</ele>
        <time>2022-06-09T06:05:06Z</time>
      </trkpt>
      <trkpt lat="47.5827400" lon="9.6051530">
        <ele>2.0</ele>
        <time>2022-06-09T06:05:10Z</time>
      </trkpt>
      <trkpt lat="47.5825450" lon="9.6052560">
        <ele>2.0</ele>
        <time>2022-06-09T06:05:14Z</time>
      </trkpt>
      <trkpt lat="47.5823500" lon="9.6053310">
        <ele>2.0</ele>
        <time>2022-06-09T06:05:18Z</time>
      </trkpt>
      <trkpt lat="47.5821560" lon="9.6053910">
        <ele>2.2</ele>
        <time>2022-06-09T06:05:22Z</time>
      </trkpt>
      <trkpt lat="47.5819700" lon="9.6054500">
        <ele>2.6</ele>
        <time>2022-06-09T06:05:26Z</time>
      </trkpt>
      <trkpt lat="47.5817680" lon="9.6054860">
        <ele>2.0</ele>
        <time>2022-06-09T06:05:30Z</time>
      </trkpt>
      <trkpt lat="47.5815610" lon="9.6055280">
        <ele>2.4</ele>
        <time>2022-06-09T06:05:34Z</time>
      </trkpt>
      <trkpt lat="47.5813560" lon="9.6055730">
        <ele>2.2</ele>
        <time>2022-06-09T06:05:38Z</time>
      </trkpt>
      <trkpt lat="47.5811500" lon="9.6056110">
        <ele>2.0</ele>
        <time>2022-06-09T06:05:42Z</time>
      </trkpt>
      <trkpt lat="47.5809500" lon="9.6056460">
        <ele>1.4</ele>
        <time>2022-06-09T06:05:46Z</time>
      </trkpt>
      <trkpt lat="47.5807500" lon="9.6056800">
        <ele>1.0</ele>
        <time>2022-06-09T06:05:50Z</time>
      </trkpt>
      <trkpt lat="47.5805500" lon="9.6056730">
        <ele>0.6</ele>
        <time>2022-06-09T06:05:54Z</time>
      </trkpt>
      <trkpt lat="47.5803260" lon="9.6056980">
        <ele>0.2</ele>
        <time>2022-06-09T06:05:58Z</time>
      </trkpt>
      <trkpt lat="47.5800960" lon="9.6057360">
        <ele>0.0</ele>
        <time>2022-06-09T06:06:02Z</time>
      </trkpt>
      <trkpt lat="47.5798830" lon="9.6057480">
        <ele>-0.2</ele>
        <time>2022-06-09T06:06:06Z</time>
      </trkpt>
      <trkpt lat="47.5796760" lon="9.6057610">
        <ele>0.2</ele>
        <time>2022-06-09T06:06:10Z</time>
      </trkpt>
      <trkpt lat="47.5794850" lon="9.6058210">
        <ele>0.0</ele>
        <time>2022-06-09T06:06:14Z</time>
      </trkpt>
      <trkpt lat="47.5793010" lon="9.6059410">
        <ele>0.0</ele>
        <time>2022-06-09T06:06:18Z</time>
      </trkpt>
      <trkpt lat="47.5791310" lon="9.6060850">
        <ele>-0.2</ele>
        <time>2022-06-09T06:06:22Z</time>
      </trkpt>
      <trkpt lat="47.5789710" lon="9.6062280">
        <ele>0.4</ele>
        <time>2022-06-09T06:06:26Z</time>
      </trkpt>
      <trkpt lat="47.5788230" lon="9.6063610">
        <ele>0.2</ele>
        <time>2022-06-09T06:06:30Z</time>
      </trkpt>
      <trkpt lat="47.5786530" lon="9.6064880">
        <ele>0.6</ele>
        <time>2022-06-09T06:06:34Z</time>
      </trkpt>
      <trkpt lat="47.5784830" lon="9.6066180">
        <ele>0.0</ele>
        <time>2022-06-09T06:06:38Z</time>
      </trkpt>
      <trkpt lat="47.5783180" lon="9.6067680">
        <ele>0.2</ele>
        <time>2022-06-09T06:06:42Z</time>
      </trkpt>
      <trkpt lat="47.5781680" lon="9.6069410">
        <ele>0.6</ele>
        <time>2022-06-09T06:06:46Z</time>
      </trkpt>
      <trkpt lat="47.5780180" lon="9.6071230">
        <ele>1.2</ele>
        <time>2022-06-09T06:06:50Z</time>
      </trkpt>
      <trkpt lat="47.5778730" lon="9.6073150">
        <ele>0.8</ele>
        <time>2022-06-09T06:06:54Z</time>
      </trkpt>
      <trkpt lat="47.5777330" lon="9.6075080">
        <ele>1.0</ele>
        <time>2022-06-09T06:06:58Z</time>
      </trkpt>
      <trkpt lat="47.5775910" lon="9.6077000">
        <ele>0.6</ele>
        <time>2022-06-09T06:07:02Z</time>
      </trkpt>
      <trkpt lat="47.5774480" lon="9.6079010">
        <ele>0.6</ele>
        <time>2022-06-09T06:07:06Z</time>
      </trkpt>
      <trkpt lat="47.5773080" lon="9.6080880">
        <ele>1.0</ele>
        <time>2022-06-09T06:07:10Z</time>
      </trkpt>
      <trkpt lat="47.5771580" lon="9.6082550">
        <ele>0.6</ele>
        <time>2022-06-09T06:07:14Z</time>
      </trkpt>
      <trkpt lat="47.5770050" lon="9.6084160">
        <ele>1.2</ele>
        <time>2022-06-09T06:07:18Z</time>
      </trkpt>
      <trkpt lat="47.5768750" lon="9.6085900">
        <ele>1.0</ele>
        <time>2022-06-09T06:07:22Z</time>
      </trkpt>
      <trkpt lat="47.5767860" lon="9.6088000">
        <ele>0.6</ele>
        <time>2022-06-09T06:07:26Z</time>
      </trkpt>
      <trkpt lat="47.5768250" lon="9.6090030">
        <ele>1.6</ele>
        <time>2022-06-09T06:07:30Z</time>
      </trkpt>
      <trkpt lat="47.5767530" lon="9.6090960">
        <ele>2.0</ele>
        <time>2022-06-09T06:07:34Z</time>
      </trkpt>
      <trkpt lat="47.5766780" lon="9.6092080">
        <ele>1.8</ele>
        <time>2022-06-09T06:07:38Z</time>
      </trkpt>
      <trkpt lat="47.5765850" lon="9.6093280">
        <ele>2.0</ele>
        <time>2022-06-09T06:07:42Z</time>
      </trkpt>
      <trkpt lat="47.5764930" lon="9.6095230">
        <ele>1.4</ele>
        <time>2022-06-09T06:07:46Z</time>
      </trkpt>
      <trkpt lat="47.5763500" lon="9.6096360">
        <ele>1.0</ele>
        <time>2022-06-09T06:07:50Z</time>
      </trkpt>
      <trkpt lat="47.5761850" lon="9.6097230">
        <ele>1.2</ele>
        <time>2022-06-09T06:07:54Z</time>
      </trkpt>
      <trkpt lat="47.5760030" lon="9.6097880">
        <ele>1.0</ele>
        <time>2022-06-09T06:07:58Z</time>
      </trkpt>
      <trkpt lat="47.5758200" lon="9.6098710">
        <ele>1.2</ele>
        <time>2022-06-09T06:08:02Z</time>
      </trkpt>
      <trkpt lat="47.5756350" lon="9.6099630">
        <ele>0.6</ele>
        <time>2022-06-09T06:08:06Z</time>
      </trkpt>
      <trkpt lat="47.5754550" lon="9.6100380">
        <ele>1.2</ele>
        <time>2022-06-09T06:08:10Z</time>
      </trkpt>
      <trkpt lat="47.5752860" lon="9.6101150">
        <ele>1.0</ele>
        <time>2022-06-09T06:08:14Z</time>
      </trkpt>
      <trkpt lat="47.5751080" lon="9.6101830">
        <ele>1.2</ele>
        <time>2022-06-09T06:08:18Z</time>
      </trkpt>
      <trkpt lat="47.5749250" lon="9.6102310">
        <ele>1.0</ele>
        <time>2022-06-09T06:08:22Z</time>
      </trkpt>
      <trkpt lat="47.5747410" lon="9.6102100">
        <ele>1.4</ele>
        <time>2022-06-09T06:08:26Z</time>
      </trkpt>
      <trkpt lat="47.5745610" lon="9.6101530">
        <ele>2.0</ele>
        <time>2022-06-09T06:08:30Z</time>
      </trkpt>
      <trkpt lat="47.5743900" lon="9.6101410">
        <ele>1.2</ele>
        <time>2022-06-09T06:08:34Z</time>
      </trkpt>
      <trkpt lat="47.5742280" lon="9.6102430">
        <ele>1.0</ele>
        <time>2022-06-09T06:08:38Z</time>
      </trkpt>
      <trkpt lat="47.5740810" lon="9.6103610">
        <ele>0.8</ele>
        <time>2022-06-09T06:08:42Z</time>
      </trkpt>
      <trkpt lat="47.5739110" lon="9.6104860">
        <ele>1.0</ele>
        <time>2022-06-09T06:08:46Z</time>
      </trkpt>
      <trkpt lat="47.5737280" lon="9.6105400">
        <ele>1.4</ele>
        <time>2022-06-09T06:08:50Z</time>
      </trkpt>
      <trkpt lat="47.5735480" lon="9.6105900">
        <ele>1.2</ele>
        <time>2022-06-09T06:08:54Z</time>
      </trkpt>
      <trkpt lat="47.5733700" lon="9.6106480">
        <ele>1.0</ele>
        <time>2022-06-09T06:08:58Z</time>
      </trkpt>
      <trkpt lat="47.5732200" lon="9.6107880">
        <ele>2.0</ele>
        <time>2022-06-09T06:09:02Z</time>
      </trkpt>
      <trkpt lat="47.5731410" lon="9.6110230">
        <ele>1.4</ele>
        <time>2022-06-09T06:09:06Z</time>
      </trkpt>
      <trkpt lat="47.5730600" lon="9.6112600">
        <ele>0.6</ele>
        <time>2022-06-09T06:09:10Z</time>
      </trkpt>
      <trkpt lat="47.5729730" lon="9.6115010">
        <ele>0.6</ele>
        <time>2022-06-09T06:09:14Z</time>
      </trkpt>
      <trkpt lat="47.5728630" lon="9.6117430">
        <ele>1.2</ele>
        <time>2022-06-09T06:09:18Z</time>
      </trkpt>
      <trkpt lat="47.5727530" lon="9.6119950">
        <ele>0.6</ele>
        <time>2022-06-09T06:09:22Z</time>
      </trkpt>
      <trkpt lat="47.5726630" lon="9.6122460">
        <ele>2.6</ele>
        <time>2022-06-09T06:09:26Z</time>
      </trkpt>
      <trkpt lat="47.5725750" lon="9.6125080">
        <ele>1.8</ele>
        <time>2022-06-09T06:09:30Z</time>
      </trkpt>
      <trkpt lat="47.5724910" lon="9.6127750">
        <ele>1.6</ele>
        <time>2022-06-09T06:09:34Z</time>
      </trkpt>
      <trkpt lat="47.5724010" lon="9.6130430">
        <ele>2.4</ele>
        <time>2022-06-09T06:09:38Z</time>
      </trkpt>
      <trkpt lat="47.5722760" lon="9.6133060">
        <ele>1.6</ele>
        <time>2022-06-09T06:09:42Z</time>
      </trkpt>
      <trkpt lat="47.5721530" lon="9.6135580">
        <ele>1.6</ele>
        <time>2022-06-09T06:09:46Z</time>
      </trkpt>
      <trkpt lat="47.5720410" lon="9.6138010">
        <ele>2.0</ele>
        <time>2022-06-09T06:09:50Z</time>
      </trkpt>
      <trkpt lat="47.5719530" lon="9.6140660">
        <ele>2.2</ele>
        <time>2022-06-09T06:09:54Z</time>
      </trkpt>
      <trkpt lat="47.5719110" lon="9.6143560">
        <ele>2.6</ele>
        <time>2022-06-09T06:09:58Z</time>
      </trkpt>
      <trkpt lat="47.5718780" lon="9.6146600">
        <ele>2.6</ele>
        <time>2022-06-09T06:10:02Z</time>
      </trkpt>
      <trkpt lat="47.5718660" lon="9.6149660">
        <ele>2.6</ele>
        <time>2022-06-09T06:10:06Z</time>
      </trkpt>
      <trkpt lat="47.5718760" lon="9.6152750">
        <ele>2.2</ele>
        <time>2022-06-09T06:10:10Z</time>
      </trkpt>
      <trkpt lat="47.5719380" lon="9.6155530">
        <ele>2.2</ele>
        <time>2022-06-09T06:10:14Z</time>
      </trkpt>
      <trkpt lat="47.5720050" lon="9.6158260">
        <ele>2.2</ele>
        <time>2022-06-09T06:10:18Z</time>
      </trkpt>
      <trkpt lat="47.5720750" lon="9.6160960">
        <ele>1.8</ele>
        <time>2022-06-09T06:10:22Z</time>
      </trkpt>
      <trkpt lat="47.5721310" lon="9.6163730">
        <ele>2.8</ele>
        <time>2022-06-09T06:10:26Z</time>
      </trkpt>
      <trkpt lat="47.5721280" lon="9.6166700">
        <ele>2.4</ele>
        <time>2022-06-09T06:10:30Z</time>
      </trkpt>
      <trkpt lat="47.5721010" lon="9.6169810">
        <ele>2.4</ele>
        <time>2022-06-09T06:10:34Z</time>
      </trkpt>
      <trkpt lat="47.5720780" lon="9.6172880">
        <ele>2.6</ele>
        <time>2022-06-09T06:10:38Z</time>
      </trkpt>
      <trkpt lat="47.5720610" lon="9.6176080">
        <ele>1.4</ele>
        <time>2022-06-09T06:10:42Z</time>
      </trkpt>
      <trkpt lat="47.5720400" lon="9.6179360">
        <ele>1.6</ele>
        <time>2022-06-09T06:10:46Z</time>
      </trkpt>
      <trkpt lat="47.5720080" lon="9.6182800">
        <ele>1.4</ele>
        <time>2022-06-09T06:10:50Z</time>
      </trkpt>
      <trkpt lat="47.5719600" lon="9.6186400">
        <ele>1.2</ele>
        <time>2022-06-09T06:10:54Z</time>
      </trkpt>
      <trkpt lat="47.5719310" lon="9.6190000">
        <ele>0.6</ele>
        <time>2022-06-09T06:10:58Z</time>
      </trkpt>
      <trkpt lat="47.5719100" lon="9.6193550">
        <ele>1.2</ele>
        <time>2022-06-09T06:11:02Z</time>
      </trkpt>
      <trkpt lat="47.5718900" lon="9.6197080">
        <ele>0.8</ele>
        <time>2022-06-09T06:11:06Z</time>
      </trkpt>
      <trkpt lat="47.5718730" lon="9.6200780">
        <ele>1.0</ele>
        <time>2022-06-09T06:11:10Z</time>
      </trkpt>
      <trkpt lat="47.5718700" lon="9.6204530">
        <ele>0.2</ele>
        <time>2022-06-09T06:11:14Z</time>
      </trkpt>
      <trkpt lat="47.5718430" lon="9.6208210">
        <ele>0.6</ele>
        <time>2022-06-09T06:11:18Z</time>
      </trkpt>
      <trkpt lat="47.5717910" lon="9.6211660">
        <ele>0.6</ele>
        <time>2022-06-09T06:11:22Z</time>
      </trkpt>
      <trkpt lat="47.5717330" lon="9.6214910">
        <ele>0.8</ele>
        <time>2022-06-09T06:11:26Z</time>
      </trkpt>
      <trkpt lat="47.5717030" lon="9.6218230">
        <ele>0.6</ele>
        <time>2022-06-09T06:11:30Z</time>
      </trkpt>
      <trkpt lat="47.5716650" lon="9.6221480">
        <ele>1.0</ele>
        <time>2022-06-09T06:11:34Z</time>
      </trkpt>
      <trkpt lat="47.5716450" lon="9.6224680">
        <ele>1.0</ele>
        <time>2022-06-09T06:11:38Z</time>
      </trkpt>
      <trkpt lat="47.5716080" lon="9.6227750">
        <ele>1.2</ele>
        <time>2022-06-09T06:11:42Z</time>
      </trkpt>
      <trkpt lat="47.5715460" lon="9.6230710">
        <ele>1.2</ele>
        <time>2022-06-09T06:11:46Z</time>
      </trkpt>
      <trkpt lat="47.5714910" lon="9.6233580">
        <ele>1.2</ele>
        <time>2022-06-09T06:11:50Z</time>
      </trkpt>
      <trkpt lat="47.5714710" lon="9.6236250">
        <ele>0.6</ele>
        <time>2022-06-09T06:11:54Z</time>
      </trkpt>
      <trkpt lat="47.5714610" lon="9.6239360">
        <ele>-0.8</ele>
        <time>2022-06-09T06:11:58Z</time>
      </trkpt>
      <trkpt lat="47.5714180" lon="9.6242860">
        <ele>-1.2</ele>
        <time>2022-06-09T06:12:02Z</time>
      </trkpt>
      <trkpt lat="47.5713710" lon="9.6246600">
        <ele>-1.8</ele>
        <time>2022-06-09T06:12:06Z</time>
      </trkpt>
      <trkpt lat="47.5713410" lon="9.6250260">
        <ele>-3.0</ele>
        <time>2022-06-09T06:12:10Z</time>
      </trkpt>
      <trkpt lat="47.5713110" lon="9.6254060">
        <ele>-4.2</ele>
        <time>2022-06-09T06:12:14Z</time>
      </trkpt>
      <trkpt lat="47.5712030" lon="9.6257530">
        <ele>-5.6</ele>
        <time>2022-06-09T06:12:18Z</time>
      </trkpt>
      <trkpt lat="47.5711000" lon="9.6261200">
        <ele>-6.0</ele>
        <time>2022-06-09T06:12:22Z</time>
      </trkpt>
      <trkpt lat="47.5711910" lon="9.6264410">
        <ele>-6.2</ele>
        <time>2022-06-09T06:12:26Z</time>
      </trkpt>
      <trkpt lat="47.5713230" lon="9.6266980">
        <ele>-6.4</ele>
        <time>2022-06-09T06:12:30Z</time>
      </trkpt>
      <trkpt lat="47.5714110" lon="9.6268650">
        <ele>-6.6</ele>
        <time>2022-06-09T06:12:34Z</time>
      </trkpt>
      <trkpt lat="47.5715110" lon="9.6270650">
        <ele>-6.8</ele>
        <time>2022-06-09T06:12:38Z</time>
      </trkpt>
      <trkpt lat="47.5716250" lon="9.6272760">
        <ele>-6.0</ele>
        <time>2022-06-09T06:12:42Z</time>
      </trkpt>
      <trkpt lat="47.5717280" lon="9.6275280">
        <ele>-6.4</ele>
        <time>2022-06-09T06:12:46Z</time>
      </trkpt>
      <trkpt lat="47.5718080" lon="9.6278000">
        <ele>-6.0</ele>
        <time>2022-06-09T06:12:50Z</time>
      </trkpt>
      <trkpt lat="47.5718280" lon="9.6280660">
        <ele>-6.0</ele>
        <time>2022-06-09T06:12:54Z</time>
      </trkpt>
      <trkpt lat="47.5718230" lon="9.6283200">
        <ele>-6.6</ele>
        <time>2022-06-09T06:12:58Z</time>
      </trkpt>
      <trkpt lat="47.5717750" lon="9.6285760">
        <ele>-6.2</ele>
        <time>2022-06-09T06:13:02Z</time>
      </trkpt>
      <trkpt lat="47.5716960" lon="9.6288160">
        <ele>-6.0</ele>
        <time>2022-06-09T06:13:06Z</time>
      </trkpt>
      <trkpt lat="47.5716530" lon="9.6290600">
        <ele>-6.0</ele>
        <time>2022-06-09T06:13:10Z</time>
      </trkpt>
      <trkpt lat="47.5715800" lon="9.6292980">
        <ele>-6.0</ele>
        <time>2022-06-09T06:13:14Z</time>
      </trkpt>
      <trkpt lat="47.5715200" lon="9.6295050">
        <ele>-5.6</ele>
        <time>2022-06-09T06:13:18Z</time>
      </trkpt>
      <trkpt lat="47.5714360" lon="9.6296980">
        <ele>-5.8</ele>
        <time>2022-06-09T06:13:22Z</time>
      </trkpt>
      <trkpt lat="47.5713350" lon="9.6299080">
        <ele>-5.8</ele>
        <time>2022-06-09T06:13:26Z</time>
      </trkpt>
      <trkpt lat="47.5712430" lon="9.6301530">
        <ele>-6.6</ele>
        <time>2022-06-09T06:13:30Z</time>
      </trkpt>
      <trkpt lat="47.5711350" lon="9.6304000">
        <ele>-6.2</ele>
        <time>2022-06-09T06:13:34Z</time>
      </trkpt>
      <trkpt lat="47.5710150" lon="9.6306250">
        <ele>-6.4</ele>
        <time>2022-06-09T06:13:38Z</time>
      </trkpt>
      <trkpt lat="47.5708810" lon="9.6308180">
        <ele>-7.4</ele>
        <time>2022-06-09T06:13:42Z</time>
      </trkpt>
      <trkpt lat="47.5707360" lon="9.6310210">
        <ele>-7.2</ele>
        <time>2022-06-09T06:13:46Z</time>
      </trkpt>
      <trkpt lat="47.5705750" lon="9.6312000">
        <ele>-7.4</ele>
        <time>2022-06-09T06:13:50Z</time>
      </trkpt>
      <trkpt lat="47.5704280" lon="9.6313550">
        <ele>-7.2</ele>
        <time>2022-06-09T06:13:54Z</time>
      </trkpt>
      <trkpt lat="47.5702960" lon="9.6315050">
        <ele>-6.8</ele>
        <time>2022-06-09T06:13:58Z</time>
      </trkpt>
      <trkpt lat="47.5701550" lon="9.6316180">
        <ele>-6.8</ele>
        <time>2022-06-09T06:14:02Z</time>
      </trkpt>
      <trkpt lat="47.5700050" lon="9.6316830">
        <ele>-6.8</ele>
        <time>2022-06-09T06:14:06Z</time>
      </trkpt>
      <trkpt lat="47.5698500" lon="9.6317330">
        <ele>-6.4</ele>
        <time>2022-06-09T06:14:10Z</time>
      </trkpt>
      <trkpt lat="47.5696860" lon="9.6317030">
        <ele>-6.8</ele>
        <time>2022-06-09T06:14:14Z</time>
      </trkpt>
      <trkpt lat="47.5695330" lon="9.6316150">
        <ele>-6.8</ele>
        <time>2022-06-09T06:14:18Z</time>
      </trkpt>
      <trkpt lat="47.5693850" lon="9.6315110">
        <ele>-6.0</ele>
        <time>2022-06-09T06:14:22Z</time>
      </trkpt>
      <trkpt lat="47.5692210" lon="9.6314030">
        <ele>-5.8</ele>
        <time>2022-06-09T06:14:26Z</time>
      </trkpt>
      <trkpt lat="47.5690680" lon="9.6313450">
        <ele>-6.8</ele>
        <time>2022-06-09T06:14:30Z</time>
      </trkpt>
      <trkpt lat="47.5689050" lon="9.6312860">
        <ele>-7.0</ele>
        <time>2022-06-09T06:14:34Z</time>
      </trkpt>
      <trkpt lat="47.5687600" lon="9.6312180">
        <ele>-2.0</ele>
        <time>2022-06-09T06:14:38Z</time>
      </trkpt>
      <trkpt lat="47.5686230" lon="9.6312610">
        <ele>-5.4</ele>
        <time>2022-06-09T06:14:42Z</time>
      </trkpt>
      <trkpt lat="47.5685380" lon="9.6314650">
        <ele>-4.6</ele>
        <time>2022-06-09T06:14:46Z</time>
      </trkpt>
      <trkpt lat="47.5684850" lon="9.6316980">
        <ele>-4.4</ele>
        <time>2022-06-09T06:14:50Z</time>
      </trkpt>
      <trkpt lat="47.5684110" lon="9.6319110">
        <ele>-4.2</ele>
        <time>2022-06-09T06:14:54Z</time>
      </trkpt>
      <trkpt lat="47.5683450" lon="9.6321400">
        <ele>-3.6</ele>
        <time>2022-06-09T06:14:58Z</time>
      </trkpt>
      <trkpt lat="47.5682930" lon="9.6323630">
        <ele>-3.2</ele>
        <time>2022-06-09T06:15:02Z</time>
      </trkpt>
      <trkpt lat="47.5682660" lon="9.6325780">
        <ele>-2.8</ele>
        <time>2022-06-09T06:15:06Z</time>
      </trkpt>
      <trkpt lat="47.5682530" lon="9.6328000">
        <ele>-2.6</ele>
        <time>2022-06-09T06:15:10Z</time>
      </trkpt>
      <trkpt lat="47.5682480" lon="9.6330210">
        <ele>-3.4</ele>
        <time>2022-06-09T06:15:14Z</time>
      </trkpt>
      <trkpt lat="47.5682760" lon="9.6332410">
        <ele>-3.6</ele>
        <time>2022-06-09T06:15:18Z</time>
      </trkpt>
      <trkpt lat="47.5683260" lon="9.6334830">
        <ele>-3.6</ele>
        <time>2022-06-09T06:15:22Z</time>
      </trkpt>
      <trkpt lat="47.5683630" lon="9.6337500">
        <ele>-4.2</ele>
        <time>2022-06-09T06:15:26Z</time>
      </trkpt>
      <trkpt lat="47.5683610" lon="9.6340300">
        <ele>-3.6</ele>
        <time>2022-06-09T06:15:30Z</time>
      </trkpt>
      <trkpt lat="47.5683600" lon="9.6343080">
        <ele>-4.4</ele>
        <time>2022-06-09T06:15:34Z</time>
      </trkpt>
      <trkpt lat="47.5683880" lon="9.6345960">
        <ele>-4.4</ele>
        <time>2022-06-09T06:15:38Z</time>
      </trkpt>
      <trkpt lat="47.5684610" lon="9.6348780">
        <ele>-4.8</ele>
        <time>2022-06-09T06:15:42Z</time>
      </trkpt>
      <trkpt lat="47.5685610" lon="9.6351260">
        <ele>-5.4</ele>
        <time>2022-06-09T06:15:46Z</time>
      </trkpt>
      <trkpt lat="47.5686730" lon="9.6353410">
        <ele>-4.8</ele>
        <time>2022-06-09T06:15:50Z</time>
      </trkpt>
      <trkpt lat="47.5688050" lon="9.6355530">
        <ele>-4.4</ele>
        <time>2022-06-09T06:15:54Z</time>
      </trkpt>
      <trkpt lat="47.5689230" lon="9.6358180">
        <ele>-3.4</ele>
        <time>2022-06-09T06:15:58Z</time>
      </trkpt>
      <trkpt lat="47.5690830" lon="9.6361000">
        <ele>-2.6</ele>
        <time>2022-06-09T06:16:02Z</time>
      </trkpt>
      <trkpt lat="47.5692150" lon="9.6362980">
        <ele>-2.4</ele>
        <time>2022-06-09T06:16:06Z</time>
      </trkpt>
      <trkpt lat="47.5693500" lon="9.6364800">
        <ele>-2.0</ele>
        <time>2022-06-09T06:16:10Z</time>
      </trkpt>
      <trkpt lat="47.5694850" lon="9.6366480">
        <ele>-1.8</ele>
        <time>2022-06-09T06:16:14Z</time>
      </trkpt>
      <trkpt lat="47.5696110" lon="9.6368230">
        <ele>-1.4</ele>
        <time>2022-06-09T06:16:18Z</time>
      </trkpt>
      <trkpt lat="47.5697310" lon="9.6369950">
        <ele>-1.6</ele>
        <time>2022-06-09T06:16:22Z</time>
      </trkpt>
      <trkpt lat="47.5698560" lon="9.6371650">
        <ele>-1.6</ele>
        <time>2022-06-09T06:16:26Z</time>
      </trkpt>
      <trkpt lat="47.5699710" lon="9.6373360">
        <ele>-1.6</ele>
        <time>2022-06-09T06:16:30Z</time>
      </trkpt>
      <trkpt lat="47.5700200" lon="9.6375830">
        <ele>-1.8</ele>
        <time>2022-06-09T06:16:34Z</time>
      </trkpt>
      <trkpt lat="47.5700150" lon="9.6378350">
        <ele>-1.8</ele>
        <time>2022-06-09T06:16:38Z</time>
      </trkpt>
      <trkpt lat="47.5700660" lon="9.6380760">
        <ele>-1.6</ele>
        <time>2022-06-09T06:16:42Z</time>
      </trkpt>
      <trkpt lat="47.5701260" lon="9.6383160">
        <ele>-2.0</ele>
        <time>2022-06-09T06:16:46Z</time>
      </trkpt>
      <trkpt lat="47.5700600" lon="9.6384680">
        <ele>-3.0</ele>
        <time>2022-06-09T06:16:50Z</time>
      </trkpt>
      <trkpt lat="47.5699200" lon="9.6385210">
        <ele>-3.8</ele>
        <time>2022-06-09T06:16:54Z</time>
      </trkpt>
      <trkpt lat="47.5697650" lon="9.6385500">
        <ele>-4.2</ele>
        <time>2022-06-09T06:16:58Z</time>
      </trkpt>
      <trkpt lat="47.5695800" lon="9.6385280">
        <ele>-4.6</ele>
        <time>2022-06-09T06:17:02Z</time>
      </trkpt>
      <trkpt lat="47.5693760" lon="9.6384510">
        <ele>-4.8</ele>
        <time>2022-06-09T06:17:06Z</time>
      </trkpt>
      <trkpt lat="47.5691700" lon="9.6384650">
        <ele>-5.0</ele>
        <time>2022-06-09T06:17:10Z</time>
      </trkpt>
      <trkpt lat="47.5689800" lon="9.6386210">
        <ele>-5.4</ele>
        <time>2022-06-09T06:17:14Z</time>
      </trkpt>
      <trkpt lat="47.5688680" lon="9.6388800">
        <ele>-5.2</ele>
        <time>2022-06-09T06:17:18Z</time>
      </trkpt>
      <trkpt lat="47.5688210" lon="9.6391610">
        <ele>-5.4</ele>
        <time>2022-06-09T06:17:22Z</time>
      </trkpt>
      <trkpt lat="47.5688050" lon="9.6394480">
        <ele>-5.0</ele>
        <time>2022-06-09T06:17:26Z</time>
      </trkpt>
      <trkpt lat="47.5687700" lon="9.6397300">
        <ele>-4.8</ele>
        <time>2022-06-09T06:17:30Z</time>
      </trkpt>
      <trkpt lat="47.5687300" lon="9.6400180">
        <ele>-4.8</ele>
        <time>2022-06-09T06:17:34Z</time>
      </trkpt>
      <trkpt lat="47.5686900" lon="9.6402950">
        <ele>-4.8</ele>
        <time>2022-06-09T06:17:38Z</time>
      </trkpt>
      <trkpt lat="47.5686380" lon="9.6405610">
        <ele>-4.2</ele>
        <time>2022-06-09T06:17:42Z</time>
      </trkpt>
      <trkpt lat="47.5686000" lon="9.6408150">
        <ele>-3.4</ele>
        <time>2022-06-09T06:17:46Z</time>
      </trkpt>
      <trkpt lat="47.5685730" lon="9.6410500">
        <ele>-3.4</ele>
        <time>2022-06-09T06:17:50Z</time>
      </trkpt>
      <trkpt lat="47.5685510" lon="9.6412760">
        <ele>-3.2</ele>
        <time>2022-06-09T06:17:54Z</time>
      </trkpt>
      <trkpt lat="47.5684810" lon="9.6414660">
        <ele>-3.0</ele>
        <time>2022-06-09T06:17:58Z</time>
      </trkpt>
      <trkpt lat="47.5683280" lon="9.6414800">
        <ele>-3.0</ele>
        <time>2022-06-09T06:18:02Z</time>
      </trkpt>
      <trkpt lat="47.5681530" lon="9.6414950">
        <ele>-2.8</ele>
        <time>2022-06-09T06:18:06Z</time>
      </trkpt>
      <trkpt lat="47.5679900" lon="9.6415150">
        <ele>-2.0</ele>
        <time>2022-06-09T06:18:10Z</time>
      </trkpt>
      <trkpt lat="47.5678250" lon="9.6415450">
        <ele>-1.6</ele>
        <time>2022-06-09T06:18:14Z</time>
      </trkpt>
      <trkpt lat="47.5676560" lon="9.6415580">
        <ele>-2.2</ele>
        <time>2022-06-09T06:18:18Z</time>
      </trkpt>
      <trkpt lat="47.5674850" lon="9.6415750">
        <ele>-1.4</ele>
        <time>2022-06-09T06:18:22Z</time>
      </trkpt>
      <trkpt lat="47.5673110" lon="9.6416000">
        <ele>-1.2</ele>
        <time>2022-06-09T06:18:26Z</time>
      </trkpt>
      <trkpt lat="47.5671380" lon="9.6416330">
        <ele>-0.8</ele>
        <time>2022-06-09T06:18:30Z</time>
      </trkpt>
      <trkpt lat="47.5669680" lon="9.6416860">
        <ele>-0.8</ele>
        <time>2022-06-09T06:18:34Z</time>
      </trkpt>
      <trkpt lat="47.5668010" lon="9.6417660">
        <ele>-0.6</ele>
        <time>2022-06-09T06:18:38Z</time>
      </trkpt>
      <trkpt lat="47.5666430" lon="9.6418910">
        <ele>-0.6</ele>
        <time>2022-06-09T06:18:42Z</time>
      </trkpt>
      <trkpt lat="47.5665000" lon="9.6420410">
        <ele>-0.6</ele>
        <time>2022-06-09T06:18:46Z</time>
      </trkpt>
      <trkpt lat="47.5663810" lon="9.6422330">
        <ele>-0.2</ele>
        <time>2022-06-09T06:18:50Z</time>
      </trkpt>
      <trkpt lat="47.5662830" lon="9.6424350">
        <ele>-0.4</ele>
        <time>2022-06-09T06:18:54Z</time>
      </trkpt>
      <trkpt lat="47.5661950" lon="9.6426480">
        <ele>0.0</ele>
        <time>2022-06-09T06:18:58Z</time>
      </trkpt>
      <trkpt lat="47.5661110" lon="9.6428960">
        <ele>0.6</ele>
        <time>2022-06-09T06:19:02Z</time>
      </trkpt>
      <trkpt lat="47.5660160" lon="9.6431310">
        <ele>1.4</ele>
        <time>2022-06-09T06:19:06Z</time>
      </trkpt>
      <trkpt lat="47.5659060" lon="9.6433250">
        <ele>1.6</ele>
        <time>2022-06-09T06:19:10Z</time>
      </trkpt>
      <trkpt lat="47.5657510" lon="9.6435010">
        <ele>1.6</ele>
        <time>2022-06-09T06:19:14Z</time>
      </trkpt>
      <trkpt lat="47.5656110" lon="9.6436900">
        <ele>2.4</ele>
        <time>2022-06-09T06:19:18Z</time>
      </trkpt>
      <trkpt lat="47.5654680" lon="9.6438650">
        <ele>2.8</ele>
        <time>2022-06-09T06:19:22Z</time>
      </trkpt>
      <trkpt lat="47.5653300" lon="9.6440550">
        <ele>3.0</ele>
        <time>2022-06-09T06:19:26Z</time>
      </trkpt>
      <trkpt lat="47.5652000" lon="9.6442480">
        <ele>3.6</ele>
        <time>2022-06-09T06:19:30Z</time>
      </trkpt>
      <trkpt lat="47.5650710" lon="9.6444050">
        <ele>3.0</ele>
        <time>2022-06-09T06:19:34Z</time>
      </trkpt>
      <trkpt lat="47.5649100" lon="9.6445710">
        <ele>2.2</ele>
        <time>2022-06-09T06:19:38Z</time>
      </trkpt>
      <trkpt lat="47.5647200" lon="9.6447860">
        <ele>0.8</ele>
        <time>2022-06-09T06:19:42Z</time>
      </trkpt>
      <trkpt lat="47.5645160" lon="9.6450460">
        <ele>0.0</ele>
        <time>2022-06-09T06:19:46Z</time>
      </trkpt>
      <trkpt lat="47.5642980" lon="9.6452810">
        <ele>-0.6</ele>
        <time>2022-06-09T06:19:50Z</time>
      </trkpt>
      <trkpt lat="47.5640680" lon="9.6454660">
        <ele>-0.8</ele>
        <time>2022-06-09T06:19:54Z</time>
      </trkpt>
      <trkpt lat="47.5638400" lon="9.6456180">
        <ele>-2.0</ele>
        <time>2022-06-09T06:19:58Z</time>
      </trkpt>
      <trkpt lat="47.5636380" lon="9.6457650">
        <ele>-1.8</ele>
        <time>2022-06-09T06:20:02Z</time>
      </trkpt>
      <trkpt lat="47.5634330" lon="9.6459030">
        <ele>-1.4</ele>
        <time>2022-06-09T06:20:06Z</time>
      </trkpt>
      <trkpt lat="47.5632400" lon="9.6460450">
        <ele>-0.4</ele>
        <time>2022-06-09T06:20:10Z</time>
      </trkpt>
      <trkpt lat="47.5630660" lon="9.6462050">
        <ele>-0.2</ele>
        <time>2022-06-09T06:20:14Z</time>
      </trkpt>
      <trkpt lat="47.5629250" lon="9.6463850">
        <ele>-0.4</ele>
        <time>2022-06-09T06:20:18Z</time>
      </trkpt>
      <trkpt lat="47.5627860" lon="9.6465630">
        <ele>0.4</ele>
        <time>2022-06-09T06:20:22Z</time>
      </trkpt>
      <trkpt lat="47.5626400" lon="9.6467260">
        <ele>1.2</ele>
        <time>2022-06-09T06:20:26Z</time>
      </trkpt>
      <trkpt lat="47.5624960" lon="9.6469010">
        <ele>1.2</ele>
        <time>2022-06-09T06:20:30Z</time>
      </trkpt>
      <trkpt lat="47.5623600" lon="9.6470860">
        <ele>1.8</ele>
        <time>2022-06-09T06:20:34Z</time>
      </trkpt>
      <trkpt lat="47.5622300" lon="9.6472750">
        <ele>2.0</ele>
        <time>2022-06-09T06:20:38Z</time>
      </trkpt>
      <trkpt lat="47.5621030" lon="9.6474700">
        <ele>1.6</ele>
        <time>2022-06-09T06:20:42Z</time>
      </trkpt>
      <trkpt lat="47.5620060" lon="9.6476850">
        <ele>1.8</ele>
        <time>2022-06-09T06:20:46Z</time>
      </trkpt>
      <trkpt lat="47.5619450" lon="9.6479260">
        <ele>2.6</ele>
        <time>2022-06-09T06:20:50Z</time>
      </trkpt>
      <trkpt lat="47.5619060" lon="9.6481680">
        <ele>3.2</ele>
        <time>2022-06-09T06:20:54Z</time>
      </trkpt>
      <trkpt lat="47.5618760" lon="9.6484010">
        <ele>4.0</ele>
        <time>2022-06-09T06:20:58Z</time>
      </trkpt>
      <trkpt lat="47.5618500" lon="9.6486480">
        <ele>4.6</ele>
        <time>2022-06-09T06:21:02Z</time>
      </trkpt>
      <trkpt lat="47.5618150" lon="9.6488750">
        <ele>4.6</ele>
        <time>2022-06-09T06:21:06Z</time>
      </trkpt>
      <trkpt lat="47.5617780" lon="9.6491030">
        <ele>5.2</ele>
        <time>2022-06-09T06:21:10Z</time>
      </trkpt>
      <trkpt lat="47.5617580" lon="9.6493350">
        <ele>6.0</ele>
        <time>2022-06-09T06:21:14Z</time>
      </trkpt>
      <trkpt lat="47.5617410" lon="9.6495410">
        <ele>6.8</ele>
        <time>2022-06-09T06:21:18Z</time>
      </trkpt>
      <trkpt lat="47.5617060" lon="9.6497630">
        <ele>7.0</ele>
        <time>2022-06-09T06:21:22Z</time>
      </trkpt>
      <trkpt lat="47.5616560" lon="9.6499660">
        <ele>7.4</ele>
        <time>2022-06-09T06:21:26Z</time>
      </trkpt>
      <trkpt lat="47.5616100" lon="9.6501460">
        <ele>8.0</ele>
        <time>2022-06-09T06:21:30Z</time>
      </trkpt>
      <trkpt lat="47.5615860" lon="9.6503360">
        <ele>8.2</ele>
        <time>2022-06-09T06:21:34Z</time>
      </trkpt>
      <trkpt lat="47.5615480" lon="9.6505230">
        <ele>8.0</ele>
        <time>2022-06-09T06:21:38Z</time>
      </trkpt>
      <trkpt lat="47.5615150" lon="9.6507260">
        <ele>8.4</ele>
        <time>2022-06-09T06:21:42Z</time>
      </trkpt>
      <trkpt lat="47.5614910" lon="9.6509260">
        <ele>9.6</ele>
        <time>2022-06-09T06:21:46Z</time>
      </trkpt>
      <trkpt lat="47.5614700" lon="9.6511450">
        <ele>9.4</ele>
        <time>2022-06-09T06:21:50Z</time>
      </trkpt>
      <trkpt lat="47.5614430" lon="9.6513730">
        <ele>10.2</ele>
        <time>2022-06-09T06:21:54Z</time>
      </trkpt>
      <trkpt lat="47.5614050" lon="9.6516030">
        <ele>10.2</ele>
        <time>2022-06-09T06:21:58Z</time>
      </trkpt>
      <trkpt lat="47.5613480" lon="9.6518250">
        <ele>10.0</ele>
        <time>2022-06-09T06:22:02Z</time>
      </trkpt>
      <trkpt lat="47.5612610" lon="9.6520330">
        <ele>10.2</ele>
        <time>2022-06-09T06:22:06Z</time>
      </trkpt>
      <trkpt lat="47.5611310" lon="9.6521950">
        <ele>11.0</ele>
        <time>2022-06-09T06:22:10Z</time>
      </trkpt>
      <trkpt lat="47.5610010" lon="9.6523480">
        <ele>11.2</ele>
        <time>2022-06-09T06:22:14Z</time>
      </trkpt>
      <trkpt lat="47.5608630" lon="9.6524960">
        <ele>11.6</ele>
        <time>2022-06-09T06:22:18Z</time>
      </trkpt>
      <trkpt lat="47.5607410" lon="9.6526600">
        <ele>11.8</ele>
        <time>2022-06-09T06:22:22Z</time>
      </trkpt>
      <trkpt lat="47.5606210" lon="9.6528030">
        <ele>11.6</ele>
        <time>2022-06-09T06:22:26Z</time>
      </trkpt>
      <trkpt lat="47.5604860" lon="9.6529300">
        <ele>10.6</ele>
        <time>2022-06-09T06:22:30Z</time>
      </trkpt>
      <trkpt lat="47.5603130" lon="9.6531000">
        <ele>8.6</ele>
        <time>2022-06-09T06:22:34Z</time>
      </trkpt>
      <trkpt lat="47.5600760" lon="9.6533250">
        <ele>6.0</ele>
        <time>2022-06-09T06:22:38Z</time>
      </trkpt>
      <trkpt lat="47.5598610" lon="9.6535710">
        <ele>5.8</ele>
        <time>2022-06-09T06:22:42Z</time>
      </trkpt>
      <trkpt lat="47.5596930" lon="9.6538200">
        <ele>5.8</ele>
        <time>2022-06-09T06:22:46Z</time>
      </trkpt>
      <trkpt lat="47.5596000" lon="9.6541050">
        <ele>6.0</ele>
        <time>2022-06-09T06:22:50Z</time>
      </trkpt>
      <trkpt lat="47.5595480" lon="9.6544060">
        <ele>6.6</ele>
        <time>2022-06-09T06:22:54Z</time>
      </trkpt>
      <trkpt lat="47.5595330" lon="9.6546980">
        <ele>6.6</ele>
        <time>2022-06-09T06:22:58Z</time>
      </trkpt>
      <trkpt lat="47.5595600" lon="9.6549700">
        <ele>6.8</ele>
        <time>2022-06-09T06:23:02Z</time>
      </trkpt>
      <trkpt lat="47.5596310" lon="9.6552110">
        <ele>7.0</ele>
        <time>2022-06-09T06:23:06Z</time>
      </trkpt>
      <trkpt lat="47.5597180" lon="9.6554410">
        <ele>7.6</ele>
        <time>2022-06-09T06:23:10Z</time>
      </trkpt>
      <trkpt lat="47.5597800" lon="9.6556600">
        <ele>8.0</ele>
        <time>2022-06-09T06:23:14Z</time>
      </trkpt>
      <trkpt lat="47.5598430" lon="9.6558700">
        <ele>8.6</ele>
        <time>2022-06-09T06:23:18Z</time>
      </trkpt>
      <trkpt lat="47.5599100" lon="9.6560880">
        <ele>8.6</ele>
        <time>2022-06-09T06:23:22Z</time>
      </trkpt>
      <trkpt lat="47.5599660" lon="9.6563210">
        <ele>9.0</ele>
        <time>2022-06-09T06:23:26Z</time>
      </trkpt>
      <trkpt lat="47.5600000" lon="9.6565310">
        <ele>10.0</ele>
        <time>2022-06-09T06:23:30Z</time>
      </trkpt>
      <trkpt lat="47.5600300" lon="9.6567260">
        <ele>10.4</ele>
        <time>2022-06-09T06:23:34Z</time>
      </trkpt>
      <trkpt lat="47.5600480" lon="9.6569380">
        <ele>10.4</ele>
        <time>2022-06-09T06:23:38Z</time>
      </trkpt>
      <trkpt lat="47.5600660" lon="9.6571550">
        <ele>10.8</ele>
        <time>2022-06-09T06:23:42Z</time>
      </trkpt>
      <trkpt lat="47.5600950" lon="9.6573800">
        <ele>11.0</ele>
        <time>2022-06-09T06:23:46Z</time>
      </trkpt>
      <trkpt lat="47.5601160" lon="9.6576210">
        <ele>10.8</ele>
        <time>2022-06-09T06:23:50Z</time>
      </trkpt>
      <trkpt lat="47.5601310" lon="9.6578650">
        <ele>11.4</ele>
        <time>2022-06-09T06:23:54Z</time>
      </trkpt>
      <trkpt lat="47.5601480" lon="9.6581050">
        <ele>11.8</ele>
        <time>2022-06-09T06:23:58Z</time>
      </trkpt>
      <trkpt lat="47.5601710" lon="9.6583480">
        <ele>12.2</ele>
        <time>2022-06-09T06:24:02Z</time>
      </trkpt>
      <trkpt lat="47.5602000" lon="9.6585960">
        <ele>12.6</ele>
        <time>2022-06-09T06:24:06Z</time>
      </trkpt>
      <trkpt lat="47.5602450" lon="9.6588480">
        <ele>12.8</ele>
        <time>2022-06-09T06:24:10Z</time>
      </trkpt>
      <trkpt lat="47.5603110" lon="9.6591150">
        <ele>11.8</ele>
        <time>2022-06-09T06:24:14Z</time>
      </trkpt>
      <trkpt lat="47.5603780" lon="9.6593860">
        <ele>11.4</ele>
        <time>2022-06-09T06:24:18Z</time>
      </trkpt>
      <trkpt lat="47.5604460" lon="9.6596650">
        <ele>10.8</ele>
        <time>2022-06-09T06:24:22Z</time>
      </trkpt>
      <trkpt lat="47.5605050" lon="9.6599600">
        <ele>10.6</ele>
        <time>2022-06-09T06:24:26Z</time>
      </trkpt>
      <trkpt lat="47.5605600" lon="9.6602630">
        <ele>10.0</ele>
        <time>2022-06-09T06:24:30Z</time>
      </trkpt>
      <trkpt lat="47.5606160" lon="9.6605710">
        <ele>10.0</ele>
        <time>2022-06-09T06:24:34Z</time>
      </trkpt>
      <trkpt lat="47.5606550" lon="9.6608900">
        <ele>9.4</ele>
        <time>2022-06-09T06:24:38Z</time>
      </trkpt>
      <trkpt lat="47.5606710" lon="9.6612110">
        <ele>10.0</ele>
        <time>2022-06-09T06:24:42Z</time>
      </trkpt>
      <trkpt lat="47.5606530" lon="9.6615230">
        <ele>10.0</ele>
        <time>2022-06-09T06:24:46Z</time>
      </trkpt>
      <trkpt lat="47.5605980" lon="9.6618100">
        <ele>10.2</ele>
        <time>2022-06-09T06:24:50Z</time>
      </trkpt>
      <trkpt lat="47.5605430" lon="9.6620910">
        <ele>10.4</ele>
        <time>2022-06-09T06:24:54Z</time>
      </trkpt>
      <trkpt lat="47.5604760" lon="9.6623610">
        <ele>10.0</ele>
        <time>2022-06-09T06:24:58Z</time>
      </trkpt>
      <trkpt lat="47.5604310" lon="9.6626430">
        <ele>10.4</ele>
        <time>2022-06-09T06:25:02Z</time>
      </trkpt>
      <trkpt lat="47.5603760" lon="9.6629280">
        <ele>10.2</ele>
        <time>2022-06-09T06:25:06Z</time>
      </trkpt>
      <trkpt lat="47.5603160" lon="9.6631950">
        <ele>9.6</ele>
        <time>2022-06-09T06:25:10Z</time>
      </trkpt>
      <trkpt lat="47.5602410" lon="9.6634700">
        <ele>10.0</ele>
        <time>2022-06-09T06:25:14Z</time>
      </trkpt>
      <trkpt lat="47.5601750" lon="9.6637430">
        <ele>10.0</ele>
        <time>2022-06-09T06:25:18Z</time>
      </trkpt>
      <trkpt lat="47.5601100" lon="9.6640280">
        <ele>9.6</ele>
        <time>2022-06-09T06:25:22Z</time>
      </trkpt>
      <trkpt lat="47.5600460" lon="9.6643150">
        <ele>10.2</ele>
        <time>2022-06-09T06:25:26Z</time>
      </trkpt>
      <trkpt lat="47.5599850" lon="9.6646060">
        <ele>9.2</ele>
        <time>2022-06-09T06:25:30Z</time>
      </trkpt>
      <trkpt lat="47.5599480" lon="9.6649060">
        <ele>8.8</ele>
        <time>2022-06-09T06:25:34Z</time>
      </trkpt>
      <trkpt lat="47.5598800" lon="9.6652250">
        <ele>8.2</ele>
        <time>2022-06-09T06:25:38Z</time>
      </trkpt>
      <trkpt lat="47.5598550" lon="9.6655700">
        <ele>6.8</ele>
        <time>2022-06-09T06:25:42Z</time>
      </trkpt>
      <trkpt lat="47.5598150" lon="9.6659600">
        <ele>6.0</ele>
        <time>2022-06-09T06:25:46Z</time>
      </trkpt>
      <trkpt lat="47.5598480" lon="9.6663830">
        <ele>4.2</ele>
        <time>2022-06-09T06:25:50Z</time>
      </trkpt>
      <trkpt lat="47.5599110" lon="9.6668100">
        <ele>3.8</ele>
        <time>2022-06-09T06:25:54Z</time>
      </trkpt>
      <trkpt lat="47.5599800" lon="9.6672410">
        <ele>2.6</ele>
        <time>2022-06-09T06:25:58Z</time>
      </trkpt>
      <trkpt lat="47.5600580" lon="9.6676660">
        <ele>1.8</ele>
        <time>2022-06-09T06:26:02Z</time>
      </trkpt>
      <trkpt lat="47.5601430" lon="9.6680960">
        <ele>0.6</ele>
        <time>2022-06-09T06:26:06Z</time>
      </trkpt>
      <trkpt lat="47.5601650" lon="9.6685300">
        <ele>0.2</ele>
        <time>2022-06-09T06:26:10Z</time>
      </trkpt>
      <trkpt lat="47.5601160" lon="9.6689330">
        <ele>0.6</ele>
        <time>2022-06-09T06:26:14Z</time>
      </trkpt>
      <trkpt lat="47.5600350" lon="9.6693280">
        <ele>0.4</ele>
        <time>2022-06-09T06:26:18Z</time>
      </trkpt>
      <trkpt lat="47.5599260" lon="9.6697050">
        <ele>1.2</ele>
        <time>2022-06-09T06:26:22Z</time>
      </trkpt>
      <trkpt lat="47.5598110" lon="9.6700230">
        <ele>1.0</ele>
        <time>2022-06-09T06:26:26Z</time>
      </trkpt>
      <trkpt lat="47.5596800" lon="9.6703530">
        <ele>0.6</ele>
        <time>2022-06-09T06:26:30Z</time>
      </trkpt>
      <trkpt lat="47.5595550" lon="9.6706710">
        <ele>0.8</ele>
        <time>2022-06-09T06:26:34Z</time>
      </trkpt>
      <trkpt lat="47.5594660" lon="9.6709910">
        <ele>0.8</ele>
        <time>2022-06-09T06:26:38Z</time>
      </trkpt>
      <trkpt lat="47.5593680" lon="9.6713310">
        <ele>0.6</ele>
        <time>2022-06-09T06:26:42Z</time>
      </trkpt>
      <trkpt lat="47.5592680" lon="9.6716700">
        <ele>0.6</ele>
        <time>2022-06-09T06:26:46Z</time>
      </trkpt>
      <trkpt lat="47.5591730" lon="9.6720160">
        <ele>0.0</ele>
        <time>2022-06-09T06:26:50Z</time>
      </trkpt>
      <trkpt lat="47.5590650" lon="9.6723730">
        <ele>-0.2</ele>
        <time>2022-06-09T06:26:54Z</time>
      </trkpt>
      <trkpt lat="47.5589860" lon="9.6727450">
        <ele>-0.8</ele>
        <time>2022-06-09T06:26:58Z</time>
      </trkpt>
      <trkpt lat="47.5589330" lon="9.6730960">
        <ele>-1.0</ele>
        <time>2022-06-09T06:27:02Z</time>
      </trkpt>
      <trkpt lat="47.5588730" lon="9.6734580">
        <ele>-1.8</ele>
        <time>2022-06-09T06:27:06Z</time>
      </trkpt>
      <trkpt lat="47.5588310" lon="9.6738230">
        <ele>-2.0</ele>
        <time>2022-06-09T06:27:10Z</time>
      </trkpt>
      <trkpt lat="47.5587780" lon="9.6741700">
        <ele>-2.8</ele>
        <time>2022-06-09T06:27:14Z</time>
      </trkpt>
      <trkpt lat="47.5586860" lon="9.6745330">
        <ele>-3.0</ele>
        <time>2022-06-09T06:27:18Z</time>
      </trkpt>
      <trkpt lat="47.5586110" lon="9.6748980">
        <ele>-5.0</ele>
        <time>2022-06-09T06:27:22Z</time>
      </trkpt>
      <trkpt lat="47.5585580" lon="9.6753080">
        <ele>-6.4</ele>
        <time>2022-06-09T06:27:26Z</time>
      </trkpt>
      <trkpt lat="47.5585160" lon="9.6757530">
        <ele>-7.2</ele>
        <time>2022-06-09T06:27:30Z</time>
      </trkpt>
      <trkpt lat="47.5585030" lon="9.6761030">
        <ele>-7.4</ele>
        <time>2022-06-09T06:27:34Z</time>
      </trkpt>
      <trkpt lat="47.5584510" lon="9.6762510">
        <ele>-7.2</ele>
        <time>2022-06-09T06:27:38Z</time>
      </trkpt>
      <trkpt lat="47.5584230" lon="9.6763660">
        <ele>-7.4</ele>
        <time>2022-06-09T06:27:42Z</time>
      </trkpt>
      <trkpt lat="47.5584150" lon="9.6765650">
        <ele>-6.6</ele>
        <time>2022-06-09T06:27:46Z</time>
      </trkpt>
      <trkpt lat="47.5583960" lon="9.6768400">
        <ele>-7.0</ele>
        <time>2022-06-09T06:27:50Z</time>
      </trkpt>
      <trkpt lat="47.5583730" lon="9.6771630">
        <ele>-7.2</ele>
        <time>2022-06-09T06:27:54Z</time>
      </trkpt>
      <trkpt lat="47.5583650" lon="9.6774830">
        <ele>-7.2</ele>
        <time>2022-06-09T06:27:58Z</time>
      </trkpt>
      <trkpt lat="47.5583430" lon="9.6778010">
        <ele>-7.6</ele>
        <time>2022-06-09T06:28:02Z</time>
      </trkpt>
      <trkpt lat="47.5583180" lon="9.6781260">
        <ele>-8.0</ele>
        <time>2022-06-09T06:28:06Z</time>
      </trkpt>
      <trkpt lat="47.5583110" lon="9.6784610">
        <ele>-7.6</ele>
        <time>2022-06-09T06:28:10Z</time>
      </trkpt>
      <trkpt lat="47.5582810" lon="9.6787700">
        <ele>-7.6</ele>
        <time>2022-06-09T06:28:14Z</time>
      </trkpt>
      <trkpt lat="47.5582380" lon="9.6790210">
        <ele>-7.8</ele>
        <time>2022-06-09T06:28:18Z</time>
      </trkpt>
      <trkpt lat="47.5581100" lon="9.6791250">
        <ele>-7.6</ele>
        <time>2022-06-09T06:28:22Z</time>
      </trkpt>
      <trkpt lat="47.5579530" lon="9.6791430">
        <ele>-7.4</ele>
        <time>2022-06-09T06:28:26Z</time>
      </trkpt>
      <trkpt lat="47.5577850" lon="9.6791910">
        <ele>-7.6</ele>
        <time>2022-06-09T06:28:30Z</time>
      </trkpt>
      <trkpt lat="47.5576050" lon="9.6792350">
        <ele>-7.6</ele>
        <time>2022-06-09T06:28:34Z</time>
      </trkpt>
      <trkpt lat="47.5574310" lon="9.6792800">
        <ele>-7.6</ele>
        <time>2022-06-09T06:28:38Z</time>
      </trkpt>
      <trkpt lat="47.5572880" lon="9.6793360">
        <ele>-7.4</ele>
        <time>2022-06-09T06:28:42Z</time>
      </trkpt>
      <trkpt lat="47.5571530" lon="9.6793800">
        <ele>-8.0</ele>
        <time>2022-06-09T06:28:46Z</time>
      </trkpt>
      <trkpt lat="47.5569230" lon="9.6794310">
        <ele>-8.0</ele>
        <time>2022-06-09T06:28:50Z</time>
      </trkpt>
      <trkpt lat="47.5567760" lon="9.6795280">
        <ele>-7.6</ele>
        <time>2022-06-09T06:28:54Z</time>
      </trkpt>
      <trkpt lat="47.5566180" lon="9.6796410">
        <ele>-7.0</ele>
        <time>2022-06-09T06:28:58Z</time>
      </trkpt>
      <trkpt lat="47.5564910" lon="9.6797160">
        <ele>-5.4</ele>
        <time>2022-06-09T06:29:02Z</time>
      </trkpt>
      <trkpt lat="47.5563310" lon="9.6798280">
        <ele>-4.2</ele>
        <time>2022-06-09T06:29:06Z</time>
      </trkpt>
      <trkpt lat="47.5561630" lon="9.6799680">
        <ele>-6.2</ele>
        <time>2022-06-09T06:29:10Z</time>
      </trkpt>
      <trkpt lat="47.5559750" lon="9.6800600">
        <ele>-8.0</ele>
        <time>2022-06-09T06:29:14Z</time>
      </trkpt>
      <trkpt lat="47.5558030" lon="9.6801630">
        <ele>-7.2</ele>
        <time>2022-06-09T06:29:18Z</time>
      </trkpt>
      <trkpt lat="47.5556380" lon="9.6803050">
        <ele>-3.4</ele>
        <time>2022-06-09T06:29:22Z</time>
      </trkpt>
      <trkpt lat="47.5554580" lon="9.6803750">
        <ele>-6.0</ele>
        <time>2022-06-09T06:29:26Z</time>
      </trkpt>
      <trkpt lat="47.5552800" lon="9.6803930">
        <ele>-6.8</ele>
        <time>2022-06-09T06:29:30Z</time>
      </trkpt>
      <trkpt lat="47.5550980" lon="9.6804010">
        <ele>-6.4</ele>
        <time>2022-06-09T06:29:34Z</time>
      </trkpt>
      <trkpt lat="47.5549410" lon="9.6804260">
        <ele>-6.2</ele>
        <time>2022-06-09T06:29:38Z</time>
      </trkpt>
      <trkpt lat="47.5547650" lon="9.6804750">
        <ele>-6.2</ele>
        <time>2022-06-09T06:29:42Z</time>
      </trkpt>
      <trkpt lat="47.5546060" lon="9.6805460">
        <ele>-6.6</ele>
        <time>2022-06-09T06:29:46Z</time>
      </trkpt>
      <trkpt lat="47.5544530" lon="9.6805930">
        <ele>-6.8</ele>
        <time>2022-06-09T06:29:50Z</time>
      </trkpt>
      <trkpt lat="47.5543000" lon="9.6807030">
        <ele>-7.0</ele>
        <time>2022-06-09T06:29:54Z</time>
      </trkpt>
      <trkpt lat="47.5541350" lon="9.6808480">
        <ele>-7.0</ele>
        <time>2022-06-09T06:29:58Z</time>
      </trkpt>
      <trkpt lat="47.5539410" lon="9.6810150">
        <ele>-7.4</ele>
        <time>2022-06-09T06:30:02Z</time>
      </trkpt>
      <trkpt lat="47.5537660" lon="9.6811460">
        <ele>-8.8</ele>
        <time>2022-06-09T06:30:06Z</time>
      </trkpt>
      <trkpt lat="47.5536080" lon="9.6813030">
        <ele>-7.4</ele>
        <time>2022-06-09T06:30:10Z</time>
      </trkpt>
      <trkpt lat="47.5534660" lon="9.6814880">
        <ele>-6.8</ele>
        <time>2022-06-09T06:30:14Z</time>
      </trkpt>
      <trkpt lat="47.5533580" lon="9.6816600">
        <ele>-6.8</ele>
        <time>2022-06-09T06:30:18Z</time>
      </trkpt>
      <trkpt lat="47.5532650" lon="9.6818760">
        <ele>-5.4</ele>
        <time>2022-06-09T06:30:22Z</time>
      </trkpt>
      <trkpt lat="47.5531480" lon="9.6821080">
        <ele>-5.6</ele>
        <time>2022-06-09T06:30:26Z</time>
      </trkpt>
      <trkpt lat="47.5530350" lon="9.6822930">
        <ele>-5.8</ele>
        <time>2022-06-09T06:30:30Z</time>
      </trkpt>
      <trkpt lat="47.5529460" lon="9.6824400">
        <ele>-5.0</ele>
        <time>2022-06-09T06:30:34Z</time>
      </trkpt>
      <trkpt lat="47.5528580" lon="9.6825150">
        <ele>-3.0</ele>
        <time>2022-06-09T06:30:38Z</time>
      </trkpt>
      <trkpt lat="47.5528230" lon="9.6825630">
        <ele>-4.4</ele>
        <time>2022-06-09T06:30:42Z</time>
      </trkpt>
      <trkpt lat="47.5528230" lon="9.6825630">
        <ele>-3.2</ele>
        <time>2022-06-09T06:30:46Z</time>
      </trkpt>
      <trkpt lat="47.5528230" lon="9.6825630">
        <ele>1.6</ele>
        <time>2022-06-09T06:30:50Z</time>
      </trkpt>
      <trkpt lat="47.5528230" lon="9.6825630">
        <ele>-1.2</ele>
        <time>2022-06-09T06:30:54Z</time>
      </trkpt>
      <trkpt lat="47.5528230" lon="9.6825630">
        <ele>-2.8</ele>
        <time>2022-06-09T06:30:58Z</time>
      </trkpt>
      <trkpt lat="47.5528230" lon="9.6825630">
        <ele>-2.0</ele>
        <time>2022-06-09T06:31:02Z</time>
      </trkpt>
      <trkpt lat="47.5528230" lon="9.6825630">
        <ele>-2.8</ele>
        <time>2022-06-09T06:31:06Z</time>
      </trkpt>
      <trkpt lat="47.5528230" lon="9.6825630">
        <ele>-1.8</ele>
        <time>2022-06-09T06:31:10Z</time>
      </trkpt>
      <trkpt lat="47.5528230" lon="9.6825630">
        <ele>-2.2</ele>
        <time>2022-06-09T06:31:14Z</time>
      </trkpt>
      <trkpt lat="47.5528230" lon="9.6825630">
        <ele>-3.4</ele>
        <time>2022-06-09T06:31:18Z</time>
      </trkpt>
      <trkpt lat="47.5528230" lon="9.6825630">
        <ele>-2.8</ele>
        <time>2022-06-09T06:31:22Z</time>
      </trkpt>
      <trkpt lat="47.5528230" lon="9.6825630">
        <ele>-2.4</ele>
        <time>2022-06-09T06:31:26Z</time>
      </trkpt>
      <trkpt lat="47.5528230" lon="9.6825630">
        <ele>-1.4</ele>
        <time>2022-06-09T06:31:30Z</time>
      </trkpt>
      <trkpt lat="47.5528230" lon="9.6825630">
        <ele>-3.4</ele>
        <time>2022-06-09T06:31:34Z</time>
      </trkpt>
      <trkpt lat="47.5528230" lon="9.6825630">
        <ele>-1.0</ele>
        <time>2022-06-09T06:31:38Z</time>
      </trkpt>
      <trkpt lat="47.5528230" lon="9.6825630">
        <ele>-0.4</ele>
        <time>2022-06-09T06:31:42Z</time>
      </trkpt>
      <trkpt lat="47.5528230" lon="9.6825630">
        <ele>-2.4</ele>
        <time>2022-06-09T06:31:46Z</time>
      </trkpt>
      <trkpt lat="47.5528230" lon="9.6825630">
        <ele>-1.8</ele>
        <time>2022-06-09T06:31:50Z</time>
      </trkpt>
      <trkpt lat="47.5528230" lon="9.6825630">
        <ele>-2.0</ele>
        <time>2022-06-09T06:31:54Z</time>
      </trkpt>
      <trkpt lat="47.5528230" lon="9.6825630">
        <ele>-1.6</ele>
        <time>2022-06-09T06:31:58Z</time>
      </trkpt>
      <trkpt lat="47.5528230" lon="9.6825630">
        <ele>1.8</ele>
        <time>2022-06-09T06:32:02Z</time>
      </trkpt>
      <trkpt lat="47.5528230" lon="9.6825630">
        <ele>-3.8</ele>
        <time>2022-06-09T06:32:06Z</time>
      </trkpt>
      <trkpt lat="47.5528230" lon="9.6825630">
        <ele>2.4</ele>
        <time>2022-06-09T06:32:10Z</time>
      </trkpt>
      <trkpt lat="47.5528230" lon="9.6825630">
        <ele>-0.8</ele>
        <time>2022-06-09T06:32:14Z</time>
      </trkpt>
      <trkpt lat="47.5528230" lon="9.6825630">
        <ele>-0.8</ele>
        <time>2022-06-09T06:32:18Z</time>
      </trkpt>
      <trkpt lat="47.5528230" lon="9.6825630">
        <ele>-1.4</ele>
        <time>2022-06-09T06:32:22Z</time>
      </trkpt>
      <trkpt lat="47.5528230" lon="9.6825630">
        <ele>-1.4</ele>
        <time>2022-06-09T06:32:26Z</time>
      </trkpt>
      <trkpt lat="47.5528230" lon="9.6825630">
        <ele>-1.2</ele>
        <time>2022-06-09T06:32:30Z</time>
      </trkpt>
      <trkpt lat="47.5528230" lon="9.6825630">
        <ele>-0.8</ele>
        <time>2022-06-09T06:32:34Z</time>
      </trkpt>
      <trkpt lat="47.5528230" lon="9.6825630">
        <ele>-1.8</ele>
        <time>2022-06-09T06:32:38Z</time>
      </trkpt>
      <trkpt lat="47.5528230" lon="9.6825630">
        <ele>0.8</ele>
        <time>2022-06-09T06:32:42Z</time>
      </trkpt>
      <trkpt lat="47.5528230" lon="9.6825630">
        <ele>-1.4</ele>
        <time>2022-06-09T06:32:46Z</time>
      </trkpt>
      <trkpt lat="47.5528230" lon="9.6825630">
        <ele>0.6</ele>
        <time>2022-06-09T06:32:50Z</time>
      </trkpt>
      <trkpt lat="47.5528230" lon="9.6825630">
        <ele>-2.8</ele>
        <time>2022-06-09T06:32:54Z</time>
      </trkpt>
      <trkpt lat="47.5528230" lon="9.6825630">
        <ele>-0.8</ele>
        <time>2022-06-09T06:32:58Z</time>
      </trkpt>
      <trkpt lat="47.5528230" lon="9.6825630">
        <ele>0.0</ele>
        <time>2022-06-09T06:33:02Z</time>
      </trkpt>
      <trkpt lat="47.5528230" lon="9.6825630">
        <ele>-0.4</ele>
        <time>2022-06-09T06:33:06Z</time>
      </trkpt>
      <trkpt lat="47.5527250" lon="9.6827100">
        <ele>-5.0</ele>
        <time>2022-06-09T06:33:10Z</time>
      </trkpt>
      <trkpt lat="47.5527310" lon="9.6827250">
        <ele>-1.4</ele>
        <time>2022-06-09T06:33:14Z</time>
      </trkpt>
      <trkpt lat="47.5527410" lon="9.6828030">
        <ele>-3.4</ele>
        <time>2022-06-09T06:33:18Z</time>
      </trkpt>
      <trkpt lat="47.5526680" lon="9.6829060">
        <ele>-3.4</ele>
        <time>2022-06-09T06:33:22Z</time>
      </trkpt>
      <trkpt lat="47.5526080" lon="9.6830130">
        <ele>-5.2</ele>
        <time>2022-06-09T06:33:26Z</time>
      </trkpt>
      <trkpt lat="47.5524830" lon="9.6829680">
        <ele>-6.0</ele>
        <time>2022-06-09T06:33:30Z</time>
      </trkpt>
      <trkpt lat="47.5523610" lon="9.6828550">
        <ele>-8.2</ele>
        <time>2022-06-09T06:33:34Z</time>
      </trkpt>
      <trkpt lat="47.5522260" lon="9.6827460">
        <ele>-9.0</ele>
        <time>2022-06-09T06:33:38Z</time>
      </trkpt>
      <trkpt lat="47.5520610" lon="9.6826480">
        <ele>-6.4</ele>
        <time>2022-06-09T06:33:42Z</time>
      </trkpt>
      <trkpt lat="47.5518730" lon="9.6825810">
        <ele>-5.2</ele>
        <time>2022-06-09T06:33:46Z</time>
      </trkpt>
      <trkpt lat="47.5516760" lon="9.6825310">
        <ele>-6.2</ele>
        <time>2022-06-09T06:33:50Z</time>
      </trkpt>
      <trkpt lat="47.5514760" lon="9.6824530">
        <ele>-5.8</ele>
        <time>2022-06-09T06:33:54Z</time>
      </trkpt>
      <trkpt lat="47.5512800" lon="9.6823760">
        <ele>-7.2</ele>
        <time>2022-06-09T06:33:58Z</time>
      </trkpt>
      <trkpt lat="47.5510850" lon="9.6823050">
        <ele>-7.4</ele>
        <time>2022-06-09T06:34:02Z</time>
      </trkpt>
      <trkpt lat="47.5509050" lon="9.6822230">
        <ele>-5.4</ele>
        <time>2022-06-09T06:34:06Z</time>
      </trkpt>
      <trkpt lat="47.5507210" lon="9.6821500">
        <ele>-7.2</ele>
        <time>2022-06-09T06:34:10Z</time>
      </trkpt>
      <trkpt lat="47.5505330" lon="9.6820880">
        <ele>-5.8</ele>
        <time>2022-06-09T06:34:14Z</time>
      </trkpt>
      <trkpt lat="47.5503460" lon="9.6820080">
        <ele>-6.2</ele>
        <time>2022-06-09T06:34:18Z</time>
      </trkpt>
      <trkpt lat="47.5501610" lon="9.6819400">
        <ele>-6.8</ele>
        <time>2022-06-09T06:34:22Z</time>
      </trkpt>
      <trkpt lat="47.5499850" lon="9.6818600">
        <ele>-6.4</ele>
        <time>2022-06-09T06:34:26Z</time>
      </trkpt>
      <trkpt lat="47.5498080" lon="9.6817930">
        <ele>-6.6</ele>
        <time>2022-06-09T06:34:30Z</time>
      </trkpt>
      <trkpt lat="47.5496350" lon="9.6817200">
        <ele>-6.4</ele>
        <time>2022-06-09T06:34:34Z</time>
      </trkpt>
      <trkpt lat="47.5494630" lon="9.6816480">
        <ele>-6.8</ele>
        <time>2022-06-09T06:34:38Z</time>
      </trkpt>
      <trkpt lat="47.5493050" lon="9.6815930">
        <ele>-5.0</ele>
        <time>2022-06-09T06:34:42Z</time>
      </trkpt>
      <trkpt lat="47.5491500" lon="9.6815160">
        <ele>-7.4</ele>
        <time>2022-06-09T06:34:46Z</time>
      </trkpt>
      <trkpt lat="47.5489960" lon="9.6814430">
        <ele>-6.2</ele>
        <time>2022-06-09T06:34:50Z</time>
      </trkpt>
      <trkpt lat="47.5488330" lon="9.6813230">
        <ele>-6.8</ele>
        <time>2022-06-09T06:34:54Z</time>
      </trkpt>
      <trkpt lat="47.5486660" lon="9.6812250">
        <ele>-7.2</ele>
        <time>2022-06-09T06:34:58Z</time>
      </trkpt>
      <trkpt lat="47.5485100" lon="9.6811730">
        <ele>-8.2</ele>
        <time>2022-06-09T06:35:02Z</time>
      </trkpt>
      <trkpt lat="47.5483230" lon="9.6811330">
        <ele>-8.4</ele>
        <time>2022-06-09T06:35:06Z</time>
      </trkpt>
      <trkpt lat="47.5481250" lon="9.6810900">
        <ele>-7.4</ele>
        <time>2022-06-09T06:35:10Z</time>
      </trkpt>
      <trkpt lat="47.5479610" lon="9.6810380">
        <ele>-6.6</ele>
        <time>2022-06-09T06:35:14Z</time>
      </trkpt>
      <trkpt lat="47.5478510" lon="9.6810380">
        <ele>-6.6</ele>
        <time>2022-06-09T06:35:18Z</time>
      </trkpt>
      <trkpt lat="47.5477310" lon="9.6810380">
        <ele>-6.6</ele>
        <time>2022-06-09T06:35:22Z</time>
      </trkpt>
      <trkpt lat="47.5475730" lon="9.6810610">
        <ele>-7.4</ele>
        <time>2022-06-09T06:35:26Z</time>
      </trkpt>
      <trkpt lat="47.5474080" lon="9.6811050">
        <ele>-7.4</ele>
        <time>2022-06-09T06:35:30Z</time>
      </trkpt>
      <trkpt lat="47.5472480" lon="9.6810950">
        <ele>-8.0</ele>
        <time>2022-06-09T06:35:34Z</time>
      </trkpt>
      <trkpt lat="47.5471000" lon="9.6811010">
        <ele>-7.0</ele>
        <time>2022-06-09T06:35:38Z</time>
      </trkpt>
      <trkpt lat="47.5469480" lon="9.6811060">
        <ele>-5.2</ele>
        <time>2022-06-09T06:35:42Z</time>
      </trkpt>
      <trkpt lat="47.5467950" lon="9.6811360">
        <ele>-5.2</ele>
        <time>2022-06-09T06:35:46Z</time>
      </trkpt>
      <trkpt lat="47.5466430" lon="9.6811360">
        <ele>-5.0</ele>
        <time>2022-06-09T06:35:50Z</time>
      </trkpt>
      <trkpt lat="47.5464960" lon="9.6810310">
        <ele>-6.0</ele>
        <time>2022-06-09T06:35:54Z</time>
      </trkpt>
      <trkpt lat="47.5463630" lon="9.6809900">
        <ele>-5.4</ele>
        <time>2022-06-09T06:35:58Z</time>
      </trkpt>
      <trkpt lat="47.5462230" lon="9.6810730">
        <ele>-5.8</ele>
        <time>2022-06-09T06:36:02Z</time>
      </trkpt>
      <trkpt lat="47.5460780" lon="9.6811810">
        <ele>-5.6</ele>
        <time>2022-06-09T06:36:06Z</time>
      </trkpt>
      <trkpt lat="47.5459110" lon="9.6813180">
        <ele>-6.4</ele>
        <time>2022-06-09T06:36:10Z</time>
      </trkpt>
      <trkpt lat="47.5457430" lon="9.6814060">
        <ele>-6.6</ele>
        <time>2022-06-09T06:36:14Z</time>
      </trkpt>
      <trkpt lat="47.5456010" lon="9.6813660">
        <ele>-6.8</ele>
        <time>2022-06-09T06:36:18Z</time>
      </trkpt>
      <trkpt lat="47.5454430" lon="9.6812650">
        <ele>-7.2</ele>
        <time>2022-06-09T06:36:22Z</time>
      </trkpt>
      <trkpt lat="47.5452610" lon="9.6812400">
        <ele>-7.4</ele>
        <time>2022-06-09T06:36:26Z</time>
      </trkpt>
      <trkpt lat="47.5450760" lon="9.6812410">
        <ele>-6.6</ele>
        <time>2022-06-09T06:36:30Z</time>
      </trkpt>
      <trkpt lat="47.5448830" lon="9.6812710">
        <ele>-6.8</ele>
        <time>2022-06-09T06:36:34Z</time>
      </trkpt>
      <trkpt lat="47.5447010" lon="9.6813560">
        <ele>-6.4</ele>
        <time>2022-06-09T06:36:38Z</time>
      </trkpt>
      <trkpt lat="47.5445380" lon="9.6814230">
        <ele>-6.0</ele>
        <time>2022-06-09T06:36:42Z</time>
      </trkpt>
      <trkpt lat="47.5443700" lon="9.6814830">
        <ele>-6.0</ele>
        <time>2022-06-09T06:36:46Z</time>
      </trkpt>
      <trkpt lat="47.5442380" lon="9.6815930">
        <ele>-6.4</ele>
        <time>2022-06-09T06:36:50Z</time>
      </trkpt>
      <trkpt lat="47.5441530" lon="9.6817480">
        <ele>-6.6</ele>
        <time>2022-06-09T06:36:54Z</time>
      </trkpt>
      <trkpt lat="47.5441050" lon="9.6818660">
        <ele>-6.4</ele>
        <time>2022-06-09T06:36:58Z</time>
      </trkpt>
      <trkpt lat="47.5440250" lon="9.6820010">
        <ele>-7.2</ele>
        <time>2022-06-09T06:37:02Z</time>
      </trkpt>
      <trkpt lat="47.5439810" lon="9.6821330">
        <ele>-7.0</ele>
        <time>2022-06-09T06:37:06Z</time>
      </trkpt>
      <trkpt lat="47.5439610" lon="9.6822050">
        <ele>-6.2</ele>
        <time>2022-06-09T06:37:10Z</time>
      </trkpt>
      <trkpt lat="47.5439610" lon="9.6822050">
        <ele>-6.6</ele>
        <time>2022-06-09T06:37:14Z</time>
      </trkpt>
      <trkpt lat="47.5439610" lon="9.6822050">
        <ele>-5.8</ele>
        <time>2022-06-09T06:37:18Z</time>
      </trkpt>
      <trkpt lat="47.5439610" lon="9.6822050">
        <ele>-6.8</ele>
        <time>2022-06-09T06:37:22Z</time>
      </trkpt>
      <trkpt lat="47.5439610" lon="9.6822050">
        <ele>-6.6</ele>
        <time>2022-06-09T06:37:26Z</time>
      </trkpt>
      <trkpt lat="47.5439610" lon="9.6822050">
        <ele>-6.2</ele>
        <time>2022-06-09T06:37:30Z</time>
      </trkpt>
      <trkpt lat="47.5439610" lon="9.6822050">
        <ele>-6.4</ele>
        <time>2022-06-09T06:37:34Z</time>
      </trkpt>
      <trkpt lat="47.5439610" lon="9.6822050">
        <ele>-6.4</ele>
        <time>2022-06-09T06:37:38Z</time>
      </trkpt>
      <trkpt lat="47.5439610" lon="9.6822050">
        <ele>-6.8</ele>
        <time>2022-06-09T06:37:42Z</time>
      </trkpt>
      <trkpt lat="47.5439610" lon="9.6822050">
        <ele>-6.0</ele>
        <time>2022-06-09T06:37:46Z</time>
      </trkpt>
      <trkpt lat="47.5439610" lon="9.6822050">
        <ele>-6.8</ele>
        <time>2022-06-09T06:37:50Z</time>
      </trkpt>
      <trkpt lat="47.5439610" lon="9.6822050">
        <ele>-6.4</ele>
        <time>2022-06-09T06:37:54Z</time>
      </trkpt>
      <trkpt lat="47.5439610" lon="9.6822050">
        <ele>-6.4</ele>
        <time>2022-06-09T06:37:58Z</time>
      </trkpt>
      <trkpt lat="47.5439610" lon="9.6822050">
        <ele>-6.6</ele>
        <time>2022-06-09T06:38:02Z</time>
      </trkpt>
      <trkpt lat="47.5439610" lon="9.6822050">
        <ele>-6.8</ele>
        <time>2022-06-09T06:38:06Z</time>
      </trkpt>
      <trkpt lat="47.5439610" lon="9.6822050">
        <ele>-7.2</ele>
        <time>2022-06-09T06:38:10Z</time>
      </trkpt>
      <trkpt lat="47.5439610" lon="9.6822050">
        <ele>-6.8</ele>
        <time>2022-06-09T06:38:14Z</time>
      </trkpt>
      <trkpt lat="47.5439280" lon="9.6822450">
        <ele>-6.8</ele>
        <time>2022-06-09T06:38:18Z</time>
      </trkpt>
      <trkpt lat="47.5439580" lon="9.6822400">
        <ele>-7.0</ele>
        <time>2022-06-09T06:38:22Z</time>
      </trkpt>
      <trkpt lat="47.5439950" lon="9.6822430">
        <ele>-7.2</ele>
        <time>2022-06-09T06:38:26Z</time>
      </trkpt>
      <trkpt lat="47.5440380" lon="9.6823700">
        <ele>-7.6</ele>
        <time>2022-06-09T06:38:30Z</time>
      </trkpt>
      <trkpt lat="47.5440960" lon="9.6825080">
        <ele>-7.8</ele>
        <time>2022-06-09T06:38:34Z</time>
      </trkpt>
      <trkpt lat="47.5441610" lon="9.6826480">
        <ele>-7.8</ele>
        <time>2022-06-09T06:38:38Z</time>
      </trkpt>
      <trkpt lat="47.5442100" lon="9.6827850">
        <ele>-7.8</ele>
        <time>2022-06-09T06:38:42Z</time>
      </trkpt>
      <trkpt lat="47.5442610" lon="9.6829110">
        <ele>-7.6</ele>
        <time>2022-06-09T06:38:46Z</time>
      </trkpt>
      <trkpt lat="47.5443130" lon="9.6830280">
        <ele>-8.2</ele>
        <time>2022-06-09T06:38:50Z</time>
      </trkpt>
      <trkpt lat="47.5443630" lon="9.6831150">
        <ele>-8.0</ele>
        <time>2022-06-09T06:38:54Z</time>
      </trkpt>
      <trkpt lat="47.5443630" lon="9.6831150">
        <ele>-8.4</ele>
        <time>2022-06-09T06:38:58Z</time>
      </trkpt>
      <trkpt lat="47.5443630" lon="9.6831150">
        <ele>-9.0</ele>
        <time>2022-06-09T06:39:02Z</time>
      </trkpt>
      <trkpt lat="47.5443630" lon="9.6831150">
        <ele>-9.0</ele>
        <time>2022-06-09T06:39:06Z</time>
      </trkpt>
      <trkpt lat="47.5443630" lon="9.6831150">
        <ele>-8.8</ele>
        <time>2022-06-09T06:39:10Z</time>
      </trkpt>
      <trkpt lat="47.5443530" lon="9.6831630">
        <ele>-8.8</ele>
        <time>2022-06-09T06:39:14Z</time>
      </trkpt>
      <trkpt lat="47.5443530" lon="9.6831630">
        <ele>-8.6</ele>
        <time>2022-06-09T06:39:18Z</time>
      </trkpt>
      <trkpt lat="47.5443530" lon="9.6831630">
        <ele>-8.4</ele>
        <time>2022-06-09T06:39:22Z</time>
      </trkpt>
      <trkpt lat="47.5443530" lon="9.6831630">
        <ele>-7.0</ele>
        <time>2022-06-09T06:39:26Z</time>
      </trkpt>
      <trkpt lat="47.5443560" lon="9.6831450">
        <ele>-8.0</ele>
        <time>2022-06-09T06:39:30Z</time>
      </trkpt>
      <trkpt lat="47.5443560" lon="9.6831450">
        <ele>-8.0</ele>
        <time>2022-06-09T06:39:34Z</time>
      </trkpt>
      <trkpt lat="47.5443560" lon="9.6831450">
        <ele>-8.6</ele>
        <time>2022-06-09T06:39:38Z</time>
      </trkpt>
      <trkpt lat="47.5443560" lon="9.6831450">
        <ele>-8.4</ele>
        <time>2022-06-09T06:39:42Z</time>
      </trkpt>
      <trkpt lat="47.5443380" lon="9.6831480">
        <ele>-8.6</ele>
        <time>2022-06-09T06:39:46Z</time>
      </trkpt>
      <trkpt lat="47.5443230" lon="9.6831410">
        <ele>-8.4</ele>
        <time>2022-06-09T06:39:50Z</time>
      </trkpt>
      <trkpt lat="47.5443230" lon="9.6831410">
        <ele>-8.4</ele>
        <time>2022-06-09T06:39:54Z</time>
      </trkpt>
      <trkpt lat="47.5443230" lon="9.6831410">
        <ele>-8.4</ele>
        <time>2022-06-09T06:39:58Z</time>
      </trkpt>
      <trkpt lat="47.5443230" lon="9.6831410">
        <ele>-8.8</ele>
        <time>2022-06-09T06:40:02Z</time>
      </trkpt>
      <trkpt lat="47.5443230" lon="9.6831410">
        <ele>-8.8</ele>
        <time>2022-06-09T06:40:06Z</time>
      </trkpt>
      <trkpt lat="47.5443450" lon="9.6831450">
        <ele>-8.8</ele>
        <time>2022-06-09T06:40:10Z</time>
      </trkpt>
      <trkpt lat="47.5443850" lon="9.6831960">
        <ele>-8.8</ele>
        <time>2022-06-09T06:40:14Z</time>
      </trkpt>
      <trkpt lat="47.5444580" lon="9.6832260">
        <ele>-9.0</ele>
        <time>2022-06-09T06:40:18Z</time>
      </trkpt>
      <trkpt lat="47.5445300" lon="9.6832760">
        <ele>-8.4</ele>
        <time>2022-06-09T06:40:22Z</time>
      </trkpt>
      <trkpt lat="47.5445560" lon="9.6832230">
        <ele>-8.6</ele>
        <time>2022-06-09T06:40:26Z</time>
      </trkpt>
      <trkpt lat="47.5445510" lon="9.6832900">
        <ele>-8.2</ele>
        <time>2022-06-09T06:40:30Z</time>
      </trkpt>
      <trkpt lat="47.5445080" lon="9.6833480">
        <ele>-8.4</ele>
        <time>2022-06-09T06:40:34Z</time>
      </trkpt>
      <trkpt lat="47.5445150" lon="9.6832900">
        <ele>-8.4</ele>
        <time>2022-06-09T06:40:38Z</time>
      </trkpt>
      <trkpt lat="47.5445150" lon="9.6832900">
        <ele>-8.4</ele>
        <time>2022-06-09T06:40:42Z</time>
      </trkpt>
      <trkpt lat="47.5445280" lon="9.6832830">
        <ele>-8.2</ele>
        <time>2022-06-09T06:40:46Z</time>
      </trkpt>
      <trkpt lat="47.5445280" lon="9.6833660">
        <ele>-8.0</ele>
        <time>2022-06-09T06:40:50Z</time>
      </trkpt>
      <trkpt lat="47.5445600" lon="9.6835160">
        <ele>-8.6</ele>
        <time>2022-06-09T06:40:54Z</time>
      </trkpt>
      <trkpt lat="47.5445860" lon="9.6836980">
        <ele>-8.8</ele>
        <time>2022-06-09T06:40:58Z</time>
      </trkpt>
      <trkpt lat="47.5446310" lon="9.6838450">
        <ele>-9.2</ele>
        <time>2022-06-09T06:41:02Z</time>
      </trkpt>
      <trkpt lat="47.5446550" lon="9.6839860">
        <ele>-9.8</ele>
        <time>2022-06-09T06:41:06Z</time>
      </trkpt>
      <trkpt lat="47.5446850" lon="9.6841280">
        <ele>-10.0</ele>
        <time>2022-06-09T06:41:10Z</time>
      </trkpt>
      <trkpt lat="47.5447150" lon="9.6842730">
        <ele>-9.6</ele>
        <time>2022-06-09T06:41:14Z</time>
      </trkpt>
      <trkpt lat="47.5446860" lon="9.6844250">
        <ele>-10.0</ele>
        <time>2022-06-09T06:41:18Z</time>
      </trkpt>
      <trkpt lat="47.5446710" lon="9.6845910">
        <ele>-9.4</ele>
        <time>2022-06-09T06:41:22Z</time>
      </trkpt>
      <trkpt lat="47.5446460" lon="9.6846660">
        <ele>-9.4</ele>
        <time>2022-06-09T06:41:26Z</time>
      </trkpt>
      <trkpt lat="47.5446460" lon="9.6846660">
        <ele>-9.4</ele>
        <time>2022-06-09T06:41:30Z</time>
      </trkpt>
      <trkpt lat="47.5446460" lon="9.6846660">
        <ele>-9.6</ele>
        <time>2022-06-09T06:41:34Z</time>
      </trkpt>
      <trkpt lat="47.5446460" lon="9.6846660">
        <ele>-9.4</ele>
        <time>2022-06-09T06:41:38Z</time>
      </trkpt>
      <trkpt lat="47.5446460" lon="9.6846660">
        <ele>-8.6</ele>
        <time>2022-06-09T06:41:42Z</time>
      </trkpt>
      <trkpt lat="47.5446400" lon="9.6846830">
        <ele>-9.4</ele>
        <time>2022-06-09T06:41:46Z</time>
      </trkpt>
      <trkpt lat="47.5446500" lon="9.6847460">
        <ele>-9.4</ele>
        <time>2022-06-09T06:41:50Z</time>
      </trkpt>
      <trkpt lat="47.5446500" lon="9.6848280">
        <ele>-9.4</ele>
        <time>2022-06-09T06:41:54Z</time>
      </trkpt>
      <trkpt lat="47.5446350" lon="9.6849580">
        <ele>-9.4</ele>
        <time>2022-06-09T06:41:58Z</time>
      </trkpt>
      <trkpt lat="47.5446930" lon="9.6851210">
        <ele>-9.0</ele>
        <time>2022-06-09T06:42:02Z</time>
      </trkpt>
      <trkpt lat="47.5448360" lon="9.6852060">
        <ele>-8.6</ele>
        <time>2022-06-09T06:42:06Z</time>
      </trkpt>
      <trkpt lat="47.5449780" lon="9.6852280">
        <ele>-8.8</ele>
        <time>2022-06-09T06:42:10Z</time>
      </trkpt>
      <trkpt lat="47.5450330" lon="9.6854050">
        <ele>-8.6</ele>
        <time>2022-06-09T06:42:14Z</time>
      </trkpt>
      <trkpt lat="47.5450030" lon="9.6855960">
        <ele>-8.4</ele>
        <time>2022-06-09T06:42:18Z</time>
      </trkpt>
      <trkpt lat="47.5450060" lon="9.6858080">
        <ele>-8.2</ele>
        <time>2022-06-09T06:42:22Z</time>
      </trkpt>
      <trkpt lat="47.5450910" lon="9.6859050">
        <ele>-8.8</ele>
        <time>2022-06-09T06:42:26Z</time>
      </trkpt>
      <trkpt lat="47.5451610" lon="9.6859350">
        <ele>-8.8</ele>
        <time>2022-06-09T06:42:30Z</time>
      </trkpt>
      <trkpt lat="47.5452530" lon="9.6859700">
        <ele>-8.8</ele>
        <time>2022-06-09T06:42:34Z</time>
      </trkpt>
      <trkpt lat="47.5453100" lon="9.6859680">
        <ele>-9.2</ele>
        <time>2022-06-09T06:42:38Z</time>
      </trkpt>
      <trkpt lat="47.5454100" lon="9.6859860">
        <ele>-8.8</ele>
        <time>2022-06-09T06:42:42Z</time>
      </trkpt>
      <trkpt lat="47.5455430" lon="9.6860200">
        <ele>-8.0</ele>
        <time>2022-06-09T06:42:46Z</time>
      </trkpt>
      <trkpt lat="47.5456280" lon="9.6862400">
        <ele>-8.0</ele>
        <time>2022-06-09T06:42:50Z</time>
      </trkpt>
      <trkpt lat="47.5457150" lon="9.6864350">
        <ele>-8.2</ele>
        <time>2022-06-09T06:42:54Z</time>
      </trkpt>
      <trkpt lat="47.5457980" lon="9.6866550">
        <ele>-8.6</ele>
        <time>2022-06-09T06:42:58Z</time>
      </trkpt>
      <trkpt lat="47.5458950" lon="9.6868760">
        <ele>-8.8</ele>
        <time>2022-06-09T06:43:02Z</time>
      </trkpt>
      <trkpt lat="47.5459650" lon="9.6871200">
        <ele>-8.6</ele>
        <time>2022-06-09T06:43:06Z</time>
      </trkpt>
      <trkpt lat="47.5460350" lon="9.6873380">
        <ele>-8.8</ele>
        <time>2022-06-09T06:43:10Z</time>
      </trkpt>
      <trkpt lat="47.5460880" lon="9.6875510">
        <ele>-8.8</ele>
        <time>2022-06-09T06:43:14Z</time>
      </trkpt>
      <trkpt lat="47.5461430" lon="9.6877630">
        <ele>-8.8</ele>
        <time>2022-06-09T06:43:18Z</time>
      </trkpt>
      <trkpt lat="47.5461950" lon="9.6879710">
        <ele>-8.8</ele>
        <time>2022-06-09T06:43:22Z</time>
      </trkpt>
      <trkpt lat="47.5462600" lon="9.6881730">
        <ele>-7.8</ele>
        <time>2022-06-09T06:43:26Z</time>
      </trkpt>
      <trkpt lat="47.5464000" lon="9.6883110">
        <ele>-8.6</ele>
        <time>2022-06-09T06:43:30Z</time>
      </trkpt>
      <trkpt lat="47.5465630" lon="9.6883680">
        <ele>-8.2</ele>
        <time>2022-06-09T06:43:34Z</time>
      </trkpt>
      <trkpt lat="47.5467550" lon="9.6883630">
        <ele>-8.6</ele>
        <time>2022-06-09T06:43:38Z</time>
      </trkpt>
      <trkpt lat="47.5469060" lon="9.6884180">
        <ele>-9.0</ele>
        <time>2022-06-09T06:43:42Z</time>
      </trkpt>
      <trkpt lat="47.5470430" lon="9.6885580">
        <ele>-8.8</ele>
        <time>2022-06-09T06:43:46Z</time>
      </trkpt>
      <trkpt lat="47.5471950" lon="9.6886260">
        <ele>-8.2</ele>
        <time>2022-06-09T06:43:50Z</time>
      </trkpt>
      <trkpt lat="47.5473280" lon="9.6887280">
        <ele>-8.2</ele>
        <time>2022-06-09T06:43:54Z</time>
      </trkpt>
      <trkpt lat="47.5474700" lon="9.6888010">
        <ele>-8.2</ele>
        <time>2022-06-09T06:43:58Z</time>
      </trkpt>
      <trkpt lat="47.5476380" lon="9.6887450">
        <ele>-8.2</ele>
        <time>2022-06-09T06:44:02Z</time>
      </trkpt>
      <trkpt lat="47.5477560" lon="9.6888400">
        <ele>-8.0</ele>
        <time>2022-06-09T06:44:06Z</time>
      </trkpt>
      <trkpt lat="47.5478250" lon="9.6890610">
        <ele>-8.6</ele>
        <time>2022-06-09T06:44:10Z</time>
      </trkpt>
      <trkpt lat="47.5478510" lon="9.6892580">
        <ele>-8.2</ele>
        <time>2022-06-09T06:44:14Z</time>
      </trkpt>
      <trkpt lat="47.5479460" lon="9.6893530">
        <ele>-8.0</ele>
        <time>2022-06-09T06:44:18Z</time>
      </trkpt>
      <trkpt lat="47.5480350" lon="9.6894810">
        <ele>-8.0</ele>
        <time>2022-06-09T06:44:22Z</time>
      </trkpt>
      <trkpt lat="47.5481580" lon="9.6895480">
        <ele>-8.0</ele>
        <time>2022-06-09T06:44:26Z</time>
      </trkpt>
      <trkpt lat="47.5482750" lon="9.6896150">
        <ele>-7.6</ele>
        <time>2022-06-09T06:44:30Z</time>
      </trkpt>
      <trkpt lat="47.5483810" lon="9.6897350">
        <ele>-7.6</ele>
        <time>2022-06-09T06:44:34Z</time>
      </trkpt>
      <trkpt lat="47.5485160" lon="9.6898880">
        <ele>-7.4</ele>
        <time>2022-06-09T06:44:38Z</time>
      </trkpt>
      <trkpt lat="47.5486600" lon="9.6901280">
        <ele>-7.0</ele>
        <time>2022-06-09T06:44:42Z</time>
      </trkpt>
      <trkpt lat="47.5488330" lon="9.6903350">
        <ele>-6.8</ele>
        <time>2022-06-09T06:44:46Z</time>
      </trkpt>
      <trkpt lat="47.5490010" lon="9.6905630">
        <ele>-7.4</ele>
        <time>2022-06-09T06:44:50Z</time>
      </trkpt>
      <trkpt lat="47.5491450" lon="9.6907680">
        <ele>-7.0</ele>
        <time>2022-06-09T06:44:54Z</time>
      </trkpt>
      <trkpt lat="47.5492980" lon="9.6909600">
        <ele>-6.8</ele>
        <time>2022-06-09T06:44:58Z</time>
      </trkpt>
      <trkpt lat="47.5494460" lon="9.6911510">
        <ele>-6.8</ele>
        <time>2022-06-09T06:45:02Z</time>
      </trkpt>
      <trkpt lat="47.5495950" lon="9.6913480">
        <ele>-7.2</ele>
        <time>2022-06-09T06:45:06Z</time>
      </trkpt>
      <trkpt lat="47.5497530" lon="9.6915430">
        <ele>-7.2</ele>
        <time>2022-06-09T06:45:10Z</time>
      </trkpt>
      <trkpt lat="47.5498980" lon="9.6917400">
        <ele>-8.0</ele>
        <time>2022-06-09T06:45:14Z</time>
      </trkpt>
      <trkpt lat="47.5500480" lon="9.6919380">
        <ele>-7.0</ele>
        <time>2022-06-09T06:45:18Z</time>
      </trkpt>
      <trkpt lat="47.5501460" lon="9.6921700">
        <ele>-8.2</ele>
        <time>2022-06-09T06:45:22Z</time>
      </trkpt>
      <trkpt lat="47.5502480" lon="9.6923950">
        <ele>-7.6</ele>
        <time>2022-06-09T06:45:26Z</time>
      </trkpt>
      <trkpt lat="47.5503730" lon="9.6926160">
        <ele>-8.2</ele>
        <time>2022-06-09T06:45:30Z</time>
      </trkpt>
      <trkpt lat="47.5504380" lon="9.6929130">
        <ele>-7.6</ele>
        <time>2022-06-09T06:45:34Z</time>
      </trkpt>
      <trkpt lat="47.5505380" lon="9.6932660">
        <ele>-8.0</ele>
        <time>2022-06-09T06:45:38Z</time>
      </trkpt>
      <trkpt lat="47.5506210" lon="9.6935610">
        <ele>-7.6</ele>
        <time>2022-06-09T06:45:42Z</time>
      </trkpt>
      <trkpt lat="47.5507150" lon="9.6938310">
        <ele>-8.0</ele>
        <time>2022-06-09T06:45:46Z</time>
      </trkpt>
      <trkpt lat="47.5508680" lon="9.6940450">
        <ele>-8.2</ele>
        <time>2022-06-09T06:45:50Z</time>
      </trkpt>
      <trkpt lat="47.5510400" lon="9.6942360">
        <ele>-8.2</ele>
        <time>2022-06-09T06:45:54Z</time>
      </trkpt>
      <trkpt lat="47.5511800" lon="9.6944810">
        <ele>-8.6</ele>
        <time>2022-06-09T06:45:58Z</time>
      </trkpt>
      <trkpt lat="47.5512810" lon="9.6947660">
        <ele>-8.8</ele>
        <time>2022-06-09T06:46:02Z</time>
      </trkpt>
      <trkpt lat="47.5513530" lon="9.6950780">
        <ele>-9.2</ele>
        <time>2022-06-09T06:46:06Z</time>
      </trkpt>
      <trkpt lat="47.5513980" lon="9.6953860">
        <ele>-9.6</ele>
        <time>2022-06-09T06:46:10Z</time>
      </trkpt>
      <trkpt lat="47.5514150" lon="9.6956910">
        <ele>-9.2</ele>
        <time>2022-06-09T06:46:14Z</time>
      </trkpt>
      <trkpt lat="47.5514450" lon="9.6960060">
        <ele>-9.2</ele>
        <time>2022-06-09T06:46:18Z</time>
      </trkpt>
      <trkpt lat="47.5514780" lon="9.6962880">
        <ele>-9.0</ele>
        <time>2022-06-09T06:46:22Z</time>
      </trkpt>
      <trkpt lat="47.5515850" lon="9.6965030">
        <ele>-8.6</ele>
        <time>2022-06-09T06:46:26Z</time>
      </trkpt>
      <trkpt lat="47.5517300" lon="9.6966430">
        <ele>-9.2</ele>
        <time>2022-06-09T06:46:30Z</time>
      </trkpt>
      <trkpt lat="47.5518530" lon="9.6968310">
        <ele>-8.4</ele>
        <time>2022-06-09T06:46:34Z</time>
      </trkpt>
      <trkpt lat="47.5518800" lon="9.6971160">
        <ele>-8.6</ele>
        <time>2022-06-09T06:46:38Z</time>
      </trkpt>
      <trkpt lat="47.5518750" lon="9.6974380">
        <ele>-8.8</ele>
        <time>2022-06-09T06:46:42Z</time>
      </trkpt>
      <trkpt lat="47.5518560" lon="9.6977550">
        <ele>-8.8</ele>
        <time>2022-06-09T06:46:46Z</time>
      </trkpt>
      <trkpt lat="47.5518400" lon="9.6980750">
        <ele>-9.2</ele>
        <time>2022-06-09T06:46:50Z</time>
      </trkpt>
      <trkpt lat="47.5518180" lon="9.6983960">
        <ele>-9.4</ele>
        <time>2022-06-09T06:46:54Z</time>
      </trkpt>
      <trkpt lat="47.5518000" lon="9.6987250">
        <ele>-9.0</ele>
        <time>2022-06-09T06:46:58Z</time>
      </trkpt>
      <trkpt lat="47.5517680" lon="9.6990300">
        <ele>-9.0</ele>
        <time>2022-06-09T06:47:02Z</time>
      </trkpt>
      <trkpt lat="47.5517350" lon="9.6993300">
        <ele>-9.0</ele>
        <time>2022-06-09T06:47:06Z</time>
      </trkpt>
      <trkpt lat="47.5517360" lon="9.6996380">
        <ele>-9.4</ele>
        <time>2022-06-09T06:47:10Z</time>
      </trkpt>
      <trkpt lat="47.5517350" lon="9.6999530">
        <ele>-9.6</ele>
        <time>2022-06-09T06:47:14Z</time>
      </trkpt>
      <trkpt lat="47.5517350" lon="9.7002680">
        <ele>-10.4</ele>
        <time>2022-06-09T06:47:18Z</time>
      </trkpt>
      <trkpt lat="47.5517130" lon="9.7005800">
        <ele>-10.0</ele>
        <time>2022-06-09T06:47:22Z</time>
      </trkpt>
      <trkpt lat="47.5516700" lon="9.7008830">
        <ele>-8.8</ele>
        <time>2022-06-09T06:47:26Z</time>
      </trkpt>
      <trkpt lat="47.5515930" lon="9.7011800">
        <ele>-9.4</ele>
        <time>2022-06-09T06:47:30Z</time>
      </trkpt>
      <trkpt lat="47.5515260" lon="9.7014660">
        <ele>-9.4</ele>
        <time>2022-06-09T06:47:34Z</time>
      </trkpt>
      <trkpt lat="47.5514550" lon="9.7017430">
        <ele>-9.0</ele>
        <time>2022-06-09T06:47:38Z</time>
      </trkpt>
      <trkpt lat="47.5513760" lon="9.7020100">
        <ele>-9.2</ele>
        <time>2022-06-09T06:47:42Z</time>
      </trkpt>
      <trkpt lat="47.5513030" lon="9.7022660">
        <ele>-9.0</ele>
        <time>2022-06-09T06:47:46Z</time>
      </trkpt>
      <trkpt lat="47.5512530" lon="9.7025360">
        <ele>-9.0</ele>
        <time>2022-06-09T06:47:50Z</time>
      </trkpt>
      <trkpt lat="47.5512430" lon="9.7028260">
        <ele>-9.0</ele>
        <time>2022-06-09T06:47:54Z</time>
      </trkpt>
      <trkpt lat="47.5512360" lon="9.7031080">
        <ele>-9.4</ele>
        <time>2022-06-09T06:47:58Z</time>
      </trkpt>
      <trkpt lat="47.5512160" lon="9.7033960">
        <ele>-9.4</ele>
        <time>2022-06-09T06:48:02Z</time>
      </trkpt>
      <trkpt lat="47.5512110" lon="9.7036980">
        <ele>-8.8</ele>
        <time>2022-06-09T06:48:06Z</time>
      </trkpt>
      <trkpt lat="47.5511950" lon="9.7039980">
        <ele>-9.2</ele>
        <time>2022-06-09T06:48:10Z</time>
      </trkpt>
      <trkpt lat="47.5511950" lon="9.7043050">
        <ele>-8.8</ele>
        <time>2022-06-09T06:48:14Z</time>
      </trkpt>
      <trkpt lat="47.5511850" lon="9.7046060">
        <ele>-8.8</ele>
        <time>2022-06-09T06:48:18Z</time>
      </trkpt>
      <trkpt lat="47.5511780" lon="9.7049080">
        <ele>-9.4</ele>
        <time>2022-06-09T06:48:22Z</time>
      </trkpt>
      <trkpt lat="47.5511600" lon="9.7052110">
        <ele>-9.4</ele>
        <time>2022-06-09T06:48:26Z</time>
      </trkpt>
      <trkpt lat="47.5511550" lon="9.7055260">
        <ele>-9.2</ele>
        <time>2022-06-09T06:48:30Z</time>
      </trkpt>
      <trkpt lat="47.5511450" lon="9.7058410">
        <ele>-9.2</ele>
        <time>2022-06-09T06:48:34Z</time>
      </trkpt>
      <trkpt lat="47.5511360" lon="9.7061550">
        <ele>-9.2</ele>
        <time>2022-06-09T06:48:38Z</time>
      </trkpt>
      <trkpt lat="47.5511330" lon="9.7064600">
        <ele>-9.4</ele>
        <time>2022-06-09T06:48:42Z</time>
      </trkpt>
      <trkpt lat="47.5511110" lon="9.7067650">
        <ele>-9.0</ele>
        <time>2022-06-09T06:48:46Z</time>
      </trkpt>
      <trkpt lat="47.5510700" lon="9.7070650">
        <ele>-8.8</ele>
        <time>2022-06-09T06:48:50Z</time>
      </trkpt>
      <trkpt lat="47.5510200" lon="9.7073680">
        <ele>-9.4</ele>
        <time>2022-06-09T06:48:54Z</time>
      </trkpt>
      <trkpt lat="47.5509810" lon="9.7076730">
        <ele>-9.4</ele>
        <time>2022-06-09T06:48:58Z</time>
      </trkpt>
      <trkpt lat="47.5509660" lon="9.7079810">
        <ele>-9.4</ele>
        <time>2022-06-09T06:49:02Z</time>
      </trkpt>
      <trkpt lat="47.5509600" lon="9.7082880">
        <ele>-9.2</ele>
        <time>2022-06-09T06:49:06Z</time>
      </trkpt>
      <trkpt lat="47.5509480" lon="9.7085930">
        <ele>-9.2</ele>
        <time>2022-06-09T06:49:10Z</time>
      </trkpt>
      <trkpt lat="47.5509500" lon="9.7088980">
        <ele>-9.8</ele>
        <time>2022-06-09T06:49:14Z</time>
      </trkpt>
      <trkpt lat="47.5509750" lon="9.7092000">
        <ele>-9.0</ele>
        <time>2022-06-09T06:49:18Z</time>
      </trkpt>
      <trkpt lat="47.5510350" lon="9.7094950">
        <ele>-9.4</ele>
        <time>2022-06-09T06:49:22Z</time>
      </trkpt>
      <trkpt lat="47.5510900" lon="9.7097780">
        <ele>-9.6</ele>
        <time>2022-06-09T06:49:26Z</time>
      </trkpt>
      <trkpt lat="47.5511250" lon="9.7100910">
        <ele>-9.2</ele>
        <time>2022-06-09T06:49:30Z</time>
      </trkpt>
      <trkpt lat="47.5511380" lon="9.7104200">
        <ele>-9.0</ele>
        <time>2022-06-09T06:49:34Z</time>
      </trkpt>
      <trkpt lat="47.5511210" lon="9.7107400">
        <ele>-9.2</ele>
        <time>2022-06-09T06:49:38Z</time>
      </trkpt>
      <trkpt lat="47.5510830" lon="9.7110400">
        <ele>-9.0</ele>
        <time>2022-06-09T06:49:42Z</time>
      </trkpt>
      <trkpt lat="47.5510800" lon="9.7113510">
        <ele>-9.8</ele>
        <time>2022-06-09T06:49:46Z</time>
      </trkpt>
      <trkpt lat="47.5510430" lon="9.7116610">
        <ele>-9.6</ele>
        <time>2022-06-09T06:49:50Z</time>
      </trkpt>
      <trkpt lat="47.5510160" lon="9.7119650">
        <ele>-9.4</ele>
        <time>2022-06-09T06:49:54Z</time>
      </trkpt>
      <trkpt lat="47.5509730" lon="9.7122600">
        <ele>-9.2</ele>
        <time>2022-06-09T06:49:58Z</time>
      </trkpt>
      <trkpt lat="47.5509380" lon="9.7125460">
        <ele>-10.0</ele>
        <time>2022-06-09T06:50:02Z</time>
      </trkpt>
      <trkpt lat="47.5509000" lon="9.7128150">
        <ele>-9.6</ele>
        <time>2022-06-09T06:50:06Z</time>
      </trkpt>
      <trkpt lat="47.5508700" lon="9.7130250">
        <ele>-10.0</ele>
        <time>2022-06-09T06:50:10Z</time>
      </trkpt>
      <trkpt lat="47.5508800" lon="9.7132560">
        <ele>-8.8</ele>
        <time>2022-06-09T06:50:14Z</time>
      </trkpt>
      <trkpt lat="47.5509110" lon="9.7134860">
        <ele>-8.2</ele>
        <time>2022-06-09T06:50:18Z</time>
      </trkpt>
      <trkpt lat="47.5509510" lon="9.7137330">
        <ele>-9.0</ele>
        <time>2022-06-09T06:50:22Z</time>
      </trkpt>
      <trkpt lat="47.5509800" lon="9.7138550">
        <ele>-9.2</ele>
        <time>2022-06-09T06:50:26Z</time>
      </trkpt>
      <trkpt lat="47.5509810" lon="9.7138600">
        <ele>-9.2</ele>
        <time>2022-06-09T06:50:30Z</time>
      </trkpt>
      <trkpt lat="47.5509810" lon="9.7138600">
        <ele>-9.2</ele>
        <time>2022-06-09T06:50:34Z</time>
      </trkpt>
      <trkpt lat="47.5509810" lon="9.7138600">
        <ele>-9.2</ele>
        <time>2022-06-09T06:50:38Z</time>
      </trkpt>
      <trkpt lat="47.5509810" lon="9.7138600">
        <ele>-9.0</ele>
        <time>2022-06-09T06:50:42Z</time>
      </trkpt>
      <trkpt lat="47.5509810" lon="9.7138600">
        <ele>-9.4</ele>
        <time>2022-06-09T06:50:46Z</time>
      </trkpt>
      <trkpt lat="47.5509810" lon="9.7138600">
        <ele>-9.4</ele>
        <time>2022-06-09T06:50:50Z</time>
      </trkpt>
      <trkpt lat="47.5509810" lon="9.7138600">
        <ele>-9.4</ele>
        <time>2022-06-09T06:50:54Z</time>
      </trkpt>
      <trkpt lat="47.5509810" lon="9.7138600">
        <ele>-9.4</ele>
        <time>2022-06-09T06:50:58Z</time>
      </trkpt>
      <trkpt lat="47.5509810" lon="9.7138600">
        <ele>-9.2</ele>
        <time>2022-06-09T06:51:02Z</time>
      </trkpt>
      <trkpt lat="47.5509810" lon="9.7138600">
        <ele>-9.6</ele>
        <time>2022-06-09T06:51:06Z</time>
      </trkpt>
      <trkpt lat="47.5509810" lon="9.7138600">
        <ele>-9.4</ele>
        <time>2022-06-09T06:51:10Z</time>
      </trkpt>
      <trkpt lat="47.5509810" lon="9.7138600">
        <ele>-9.4</ele>
        <time>2022-06-09T06:51:14Z</time>
      </trkpt>
      <trkpt lat="47.5509810" lon="9.7138600">
        <ele>-9.6</ele>
        <time>2022-06-09T06:51:18Z</time>
      </trkpt>
      <trkpt lat="47.5509810" lon="9.7138600">
        <ele>-9.4</ele>
        <time>2022-06-09T06:51:22Z</time>
      </trkpt>
      <trkpt lat="47.5509810" lon="9.7138600">
        <ele>-9.4</ele>
        <time>2022-06-09T06:51:26Z</time>
      </trkpt>
      <trkpt lat="47.5509810" lon="9.7138600">
        <ele>-9.4</ele>
        <time>2022-06-09T06:51:30Z</time>
      </trkpt>
      <trkpt lat="47.5509810" lon="9.7138600">
        <ele>-9.4</ele>
        <time>2022-06-09T06:51:34Z</time>
      </trkpt>
      <trkpt lat="47.5509810" lon="9.7138600">
        <ele>-9.2</ele>
        <time>2022-06-09T06:51:38Z</time>
      </trkpt>
      <trkpt lat="47.5509760" lon="9.7138550">
        <ele>-9.4</ele>
        <time>2022-06-09T06:51:42Z</time>
      </trkpt>
      <trkpt lat="47.5509810" lon="9.7138700">
        <ele>-9.4</ele>
        <time>2022-06-09T06:51:46Z</time>
      </trkpt>
      <trkpt lat="47.5509750" lon="9.7138860">
        <ele>-9.0</ele>
        <time>2022-06-09T06:51:50Z</time>
      </trkpt>
      <trkpt lat="47.5509850" lon="9.7138810">
        <ele>-9.6</ele>
        <time>2022-06-09T06:51:54Z</time>
      </trkpt>
      <trkpt lat="47.5509850" lon="9.7138810">
        <ele>-9.4</ele>
        <time>2022-06-09T06:51:58Z</time>
      </trkpt>
      <trkpt lat="47.5509830" lon="9.7138700">
        <ele>-8.8</ele>
        <time>2022-06-09T06:52:02Z</time>
      </trkpt>
      <trkpt lat="47.5509460" lon="9.7139230">
        <ele>-8.4</ele>
        <time>2022-06-09T06:52:06Z</time>
      </trkpt>
      <trkpt lat="47.5509280" lon="9.7139610">
        <ele>-8.2</ele>
        <time>2022-06-09T06:52:10Z</time>
      </trkpt>
      <trkpt lat="47.5508900" lon="9.7140200">
        <ele>-8.6</ele>
        <time>2022-06-09T06:52:14Z</time>
      </trkpt>
      <trkpt lat="47.5508480" lon="9.7141250">
        <ele>-8.2</ele>
        <time>2022-06-09T06:52:18Z</time>
      </trkpt>
      <trkpt lat="47.5508480" lon="9.7141250">
        <ele>-8.2</ele>
        <time>2022-06-09T06:52:22Z</time>
      </trkpt>
      <trkpt lat="47.5508480" lon="9.7141250">
        <ele>-8.2</ele>
        <time>2022-06-09T06:52:26Z</time>
      </trkpt>
      <trkpt lat="47.5508480" lon="9.7141250">
        <ele>-8.0</ele>
        <time>2022-06-09T06:52:30Z</time>
      </trkpt>
      <trkpt lat="47.5508160" lon="9.7141760">
        <ele>-8.6</ele>
        <time>2022-06-09T06:52:34Z</time>
      </trkpt>
      <trkpt lat="47.5507330" lon="9.7141780">
        <ele>-8.8</ele>
        <time>2022-06-09T06:52:38Z</time>
      </trkpt>
      <trkpt lat="47.5505930" lon="9.7141680">
        <ele>-9.4</ele>
        <time>2022-06-09T06:52:42Z</time>
      </trkpt>
      <trkpt lat="47.5504510" lon="9.7142310">
        <ele>-9.6</ele>
        <time>2022-06-09T06:52:46Z</time>
      </trkpt>
      <trkpt lat="47.5502800" lon="9.7144530">
        <ele>-10.8</ele>
        <time>2022-06-09T06:52:50Z</time>
      </trkpt>
      <trkpt lat="47.5501630" lon="9.7147600">
        <ele>-10.8</ele>
        <time>2022-06-09T06:52:54Z</time>
      </trkpt>
      <trkpt lat="47.5500660" lon="9.7150650">
        <ele>-10.8</ele>
        <time>2022-06-09T06:52:58Z</time>
      </trkpt>
      <trkpt lat="47.5499730" lon="9.7153530">
        <ele>-11.2</ele>
        <time>2022-06-09T06:53:02Z</time>
      </trkpt>
      <trkpt lat="47.5498930" lon="9.7156260">
        <ele>-11.2</ele>
        <time>2022-06-09T06:53:06Z</time>
      </trkpt>
      <trkpt lat="47.5498050" lon="9.7159010">
        <ele>-11.0</ele>
        <time>2022-06-09T06:53:10Z</time>
      </trkpt>
      <trkpt lat="47.5497050" lon="9.7161660">
        <ele>-11.0</ele>
        <time>2022-06-09T06:53:14Z</time>
      </trkpt>
      <trkpt lat="47.5496230" lon="9.7164160">
        <ele>-10.8</ele>
        <time>2022-06-09T06:53:18Z</time>
      </trkpt>
      <trkpt lat="47.5495410" lon="9.7166980">
        <ele>-10.6</ele>
        <time>2022-06-09T06:53:22Z</time>
      </trkpt>
      <trkpt lat="47.5494600" lon="9.7169600">
        <ele>-10.2</ele>
        <time>2022-06-09T06:53:26Z</time>
      </trkpt>
      <trkpt lat="47.5493510" lon="9.7172150">
        <ele>-10.4</ele>
        <time>2022-06-09T06:53:30Z</time>
      </trkpt>
      <trkpt lat="47.5492430" lon="9.7174600">
        <ele>-10.2</ele>
        <time>2022-06-09T06:53:34Z</time>
      </trkpt>
      <trkpt lat="47.5491200" lon="9.7176880">
        <ele>-9.8</ele>
        <time>2022-06-09T06:53:38Z</time>
      </trkpt>
      <trkpt lat="47.5489860" lon="9.7179160">
        <ele>-10.0</ele>
        <time>2022-06-09T06:53:42Z</time>
      </trkpt>
      <trkpt lat="47.5488660" lon="9.7181480">
        <ele>-10.0</ele>
        <time>2022-06-09T06:53:46Z</time>
      </trkpt>
      <trkpt lat="47.5487380" lon="9.7183960">
        <ele>-10.0</ele>
        <time>2022-06-09T06:53:50Z</time>
      </trkpt>
      <trkpt lat="47.5485900" lon="9.7186180">
        <ele>-9.6</ele>
        <time>2022-06-09T06:53:54Z</time>
      </trkpt>
      <trkpt lat="47.5484250" lon="9.7188230">
        <ele>-9.4</ele>
        <time>2022-06-09T06:53:58Z</time>
      </trkpt>
      <trkpt lat="47.5482660" lon="9.7190280">
        <ele>-10.0</ele>
        <time>2022-06-09T06:54:02Z</time>
      </trkpt>
      <trkpt lat="47.5481080" lon="9.7192400">
        <ele>-9.6</ele>
        <time>2022-06-09T06:54:06Z</time>
      </trkpt>
      <trkpt lat="47.5479480" lon="9.7194410">
        <ele>-10.0</ele>
        <time>2022-06-09T06:54:10Z</time>
      </trkpt>
      <trkpt lat="47.5477810" lon="9.7196430">
        <ele>-11.0</ele>
        <time>2022-06-09T06:54:14Z</time>
      </trkpt>
      <trkpt lat="47.5476200" lon="9.7198380">
        <ele>-10.8</ele>
        <time>2022-06-09T06:54:18Z</time>
      </trkpt>
      <trkpt lat="47.5474730" lon="9.7200450">
        <ele>-10.2</ele>
        <time>2022-06-09T06:54:22Z</time>
      </trkpt>
      <trkpt lat="47.5473100" lon="9.7202200">
        <ele>-10.6</ele>
        <time>2022-06-09T06:54:26Z</time>
      </trkpt>
      <trkpt lat="47.5471560" lon="9.7203960">
        <ele>-11.2</ele>
        <time>2022-06-09T06:54:30Z</time>
      </trkpt>
      <trkpt lat="47.5470000" lon="9.7205630">
        <ele>-10.8</ele>
        <time>2022-06-09T06:54:34Z</time>
      </trkpt>
      <trkpt lat="47.5468750" lon="9.7206960">
        <ele>-10.2</ele>
        <time>2022-06-09T06:54:38Z</time>
      </trkpt>
      <trkpt lat="47.5467510" lon="9.7208550">
        <ele>-10.0</ele>
        <time>2022-06-09T06:54:42Z</time>
      </trkpt>
      <trkpt lat="47.5465780" lon="9.7210450">
        <ele>-10.0</ele>
        <time>2022-06-09T06:54:46Z</time>
      </trkpt>
      <trkpt lat="47.5464330" lon="9.7212130">
        <ele>-9.4</ele>
        <time>2022-06-09T06:54:50Z</time>
      </trkpt>
      <trkpt lat="47.5463100" lon="9.7213960">
        <ele>-9.6</ele>
        <time>2022-06-09T06:54:54Z</time>
      </trkpt>
      <trkpt lat="47.5461680" lon="9.7215700">
        <ele>-9.2</ele>
        <time>2022-06-09T06:54:58Z</time>
      </trkpt>
      <trkpt lat="47.5460430" lon="9.7217150">
        <ele>-9.4</ele>
        <time>2022-06-09T06:55:02Z</time>
      </trkpt>
      <trkpt lat="47.5459330" lon="9.7218410">
        <ele>-9.2</ele>
        <time>2022-06-09T06:55:06Z</time>
      </trkpt>
      <trkpt lat="47.5457510" lon="9.7220680">
        <ele>-9.4</ele>
        <time>2022-06-09T06:55:10Z</time>
      </trkpt>
      <trkpt lat="47.5455900" lon="9.7222880">
        <ele>-10.0</ele>
        <time>2022-06-09T06:55:14Z</time>
      </trkpt>
      <trkpt lat="47.5454410" lon="9.7225530">
        <ele>-10.0</ele>
        <time>2022-06-09T06:55:18Z</time>
      </trkpt>
      <trkpt lat="47.5452960" lon="9.7227850">
        <ele>-10.6</ele>
        <time>2022-06-09T06:55:22Z</time>
      </trkpt>
      <trkpt lat="47.5451480" lon="9.7230080">
        <ele>-10.4</ele>
        <time>2022-06-09T06:55:26Z</time>
      </trkpt>
      <trkpt lat="47.5449850" lon="9.7232250">
        <ele>-10.6</ele>
        <time>2022-06-09T06:55:30Z</time>
      </trkpt>
      <trkpt lat="47.5448260" lon="9.7233950">
        <ele>-10.6</ele>
        <time>2022-06-09T06:55:34Z</time>
      </trkpt>
      <trkpt lat="47.5446860" lon="9.7235380">
        <ele>-10.4</ele>
        <time>2022-06-09T06:55:38Z</time>
      </trkpt>
      <trkpt lat="47.5445610" lon="9.7237560">
        <ele>-10.2</ele>
        <time>2022-06-09T06:55:42Z</time>
      </trkpt>
      <trkpt lat="47.5444760" lon="9.7239330">
        <ele>-10.6</ele>
        <time>2022-06-09T06:55:46Z</time>
      </trkpt>
      <trkpt lat="47.5443810" lon="9.7241310">
        <ele>-10.2</ele>
        <time>2022-06-09T06:55:50Z</time>
      </trkpt>
      <trkpt lat="47.5442300" lon="9.7243480">
        <ele>-10.0</ele>
        <time>2022-06-09T06:55:54Z</time>
      </trkpt>
      <trkpt lat="47.5441100" lon="9.7245480">
        <ele>-10.4</ele>
        <time>2022-06-09T06:55:58Z</time>
      </trkpt>
      <trkpt lat="47.5440200" lon="9.7247750">
        <ele>-10.0</ele>
        <time>2022-06-09T06:56:02Z</time>
      </trkpt>
      <trkpt lat="47.5438260" lon="9.7250280">
        <ele>-10.0</ele>
        <time>2022-06-09T06:56:06Z</time>
      </trkpt>
      <trkpt lat="47.5436810" lon="9.7252430">
        <ele>-9.6</ele>
        <time>2022-06-09T06:56:10Z</time>
      </trkpt>
      <trkpt lat="47.5435360" lon="9.7254800">
        <ele>-10.2</ele>
        <time>2022-06-09T06:56:14Z</time>
      </trkpt>
      <trkpt lat="47.5434000" lon="9.7256960">
        <ele>-10.0</ele>
        <time>2022-06-09T06:56:18Z</time>
      </trkpt>
      <trkpt lat="47.5432830" lon="9.7259110">
        <ele>-10.4</ele>
        <time>2022-06-09T06:56:22Z</time>
      </trkpt>
      <trkpt lat="47.5431500" lon="9.7261360">
        <ele>-10.8</ele>
        <time>2022-06-09T06:56:26Z</time>
      </trkpt>
      <trkpt lat="47.5430210" lon="9.7263610">
        <ele>-10.2</ele>
        <time>2022-06-09T06:56:30Z</time>
      </trkpt>
      <trkpt lat="47.5429150" lon="9.7265600">
        <ele>-10.2</ele>
        <time>2022-06-09T06:56:34Z</time>
      </trkpt>
      <trkpt lat="47.5428150" lon="9.7267430">
        <ele>-10.0</ele>
        <time>2022-06-09T06:56:38Z</time>
      </trkpt>
      <trkpt lat="47.5427060" lon="9.7269400">
        <ele>-9.8</ele>
        <time>2022-06-09T06:56:42Z</time>
      </trkpt>
      <trkpt lat="47.5426050" lon="9.7271330">
        <ele>-9.6</ele>
        <time>2022-06-09T06:56:46Z</time>
      </trkpt>
      <trkpt lat="47.5425250" lon="9.7273160">
        <ele>-10.2</ele>
        <time>2022-06-09T06:56:50Z</time>
      </trkpt>
      <trkpt lat="47.5424110" lon="9.7274860">
        <ele>-9.6</ele>
        <time>2022-06-09T06:56:54Z</time>
      </trkpt>
      <trkpt lat="47.5422450" lon="9.7277060">
        <ele>-9.2</ele>
        <time>2022-06-09T06:56:58Z</time>
      </trkpt>
      <trkpt lat="47.5420850" lon="9.7279080">
        <ele>-10.0</ele>
        <time>2022-06-09T06:57:02Z</time>
      </trkpt>
      <trkpt lat="47.5420010" lon="9.7281360">
        <ele>-10.2</ele>
        <time>2022-06-09T06:57:06Z</time>
      </trkpt>
      <trkpt lat="47.5419400" lon="9.7282700">
        <ele>-9.6</ele>
        <time>2022-06-09T06:57:10Z</time>
      </trkpt>
      <trkpt lat="47.5419410" lon="9.7283280">
        <ele>-9.2</ele>
        <time>2022-06-09T06:57:14Z</time>
      </trkpt>
      <trkpt lat="47.5419480" lon="9.7282260">
        <ele>-9.8</ele>
        <time>2022-06-09T06:57:18Z</time>
      </trkpt>
      <trkpt lat="47.5419610" lon="9.7280960">
        <ele>-10.8</ele>
        <time>2022-06-09T06:57:22Z</time>
      </trkpt>
      <trkpt lat="47.5418160" lon="9.7281680">
        <ele>-11.2</ele>
        <time>2022-06-09T06:57:26Z</time>
      </trkpt>
      <trkpt lat="47.5416410" lon="9.7283100">
        <ele>-11.2</ele>
        <time>2022-06-09T06:57:30Z</time>
      </trkpt>
      <trkpt lat="47.5414850" lon="9.7284230">
        <ele>-11.4</ele>
        <time>2022-06-09T06:57:34Z</time>
      </trkpt>
      <trkpt lat="47.5413250" lon="9.7285280">
        <ele>-11.2</ele>
        <time>2022-06-09T06:57:38Z</time>
      </trkpt>
      <trkpt lat="47.5411380" lon="9.7286750">
        <ele>-11.4</ele>
        <time>2022-06-09T06:57:42Z</time>
      </trkpt>
      <trkpt lat="47.5409580" lon="9.7288250">
        <ele>-11.2</ele>
        <time>2022-06-09T06:57:46Z</time>
      </trkpt>
      <trkpt lat="47.5407830" lon="9.7289600">
        <ele>-11.2</ele>
        <time>2022-06-09T06:57:50Z</time>
      </trkpt>
      <trkpt lat="47.5406150" lon="9.7290950">
        <ele>-11.8</ele>
        <time>2022-06-09T06:57:54Z</time>
      </trkpt>
      <trkpt lat="47.5404400" lon="9.7292300">
        <ele>-12.2</ele>
        <time>2022-06-09T06:57:58Z</time>
      </trkpt>
      <trkpt lat="47.5402660" lon="9.7293680">
        <ele>-12.4</ele>
        <time>2022-06-09T06:58:02Z</time>
      </trkpt>
      <trkpt lat="47.5400980" lon="9.7295150">
        <ele>-11.8</ele>
        <time>2022-06-09T06:58:06Z</time>
      </trkpt>
      <trkpt lat="47.5399330" lon="9.7296550">
        <ele>-11.8</ele>
        <time>2022-06-09T06:58:10Z</time>
      </trkpt>
      <trkpt lat="47.5397550" lon="9.7297930">
        <ele>-11.8</ele>
        <time>2022-06-09T06:58:14Z</time>
      </trkpt>
      <trkpt lat="47.5395910" lon="9.7299280">
        <ele>-12.0</ele>
        <time>2022-06-09T06:58:18Z</time>
      </trkpt>
      <trkpt lat="47.5394210" lon="9.7300600">
        <ele>-12.0</ele>
        <time>2022-06-09T06:58:22Z</time>
      </trkpt>
      <trkpt lat="47.5392580" lon="9.7301860">
        <ele>-11.6</ele>
        <time>2022-06-09T06:58:26Z</time>
      </trkpt>
      <trkpt lat="47.5390980" lon="9.7303130">
        <ele>-12.0</ele>
        <time>2022-06-09T06:58:30Z</time>
      </trkpt>
      <trkpt lat="47.5389460" lon="9.7303810">
        <ele>-12.0</ele>
        <time>2022-06-09T06:58:34Z</time>
      </trkpt>
      <trkpt lat="47.5387750" lon="9.7305200">
        <ele>-11.6</ele>
        <time>2022-06-09T06:58:38Z</time>
      </trkpt>
      <trkpt lat="47.5386100" lon="9.7306710">
        <ele>-12.0</ele>
        <time>2022-06-09T06:58:42Z</time>
      </trkpt>
      <trkpt lat="47.5384330" lon="9.7308000">
        <ele>-12.0</ele>
        <time>2022-06-09T06:58:46Z</time>
      </trkpt>
      <trkpt lat="47.5382380" lon="9.7309230">
        <ele>-12.2</ele>
        <time>2022-06-09T06:58:50Z</time>
      </trkpt>
      <trkpt lat="47.5380330" lon="9.7310710">
        <ele>-11.4</ele>
        <time>2022-06-09T06:58:54Z</time>
      </trkpt>
      <trkpt lat="47.5379000" lon="9.7311730">
        <ele>-11.8</ele>
        <time>2022-06-09T06:58:58Z</time>
      </trkpt>
      <trkpt lat="47.5377360" lon="9.7312860">
        <ele>-12.0</ele>
        <time>2022-06-09T06:59:02Z</time>
      </trkpt>
      <trkpt lat="47.5375910" lon="9.7314600">
        <ele>-12.0</ele>
        <time>2022-06-09T06:59:06Z</time>
      </trkpt>
      <trkpt lat="47.5374300" lon="9.7316310">
        <ele>-12.4</ele>
        <time>2022-06-09T06:59:10Z</time>
      </trkpt>
      <trkpt lat="47.5372430" lon="9.7317780">
        <ele>-12.6</ele>
        <time>2022-06-09T06:59:14Z</time>
      </trkpt>
      <trkpt lat="47.5370600" lon="9.7319510">
        <ele>-12.8</ele>
        <time>2022-06-09T06:59:18Z</time>
      </trkpt>
      <trkpt lat="47.5368830" lon="9.7321250">
        <ele>-12.8</ele>
        <time>2022-06-09T06:59:22Z</time>
      </trkpt>
      <trkpt lat="47.5367250" lon="9.7322910">
        <ele>-12.2</ele>
        <time>2022-06-09T06:59:26Z</time>
      </trkpt>
      <trkpt lat="47.5365630" lon="9.7324460">
        <ele>-13.4</ele>
        <time>2022-06-09T06:59:30Z</time>
      </trkpt>
      <trkpt lat="47.5364160" lon="9.7326130">
        <ele>-13.4</ele>
        <time>2022-06-09T06:59:34Z</time>
      </trkpt>
      <trkpt lat="47.5362580" lon="9.7327900">
        <ele>-13.6</ele>
        <time>2022-06-09T06:59:38Z</time>
      </trkpt>
      <trkpt lat="47.5360910" lon="9.7329610">
        <ele>-13.4</ele>
        <time>2022-06-09T06:59:42Z</time>
      </trkpt>
      <trkpt lat="47.5359300" lon="9.7331550">
        <ele>-13.4</ele>
        <time>2022-06-09T06:59:46Z</time>
      </trkpt>
      <trkpt lat="47.5357730" lon="9.7333380">
        <ele>-13.2</ele>
        <time>2022-06-09T06:59:50Z</time>
      </trkpt>
      <trkpt lat="47.5356130" lon="9.7335180">
        <ele>-13.4</ele>
        <time>2022-06-09T06:59:54Z</time>
      </trkpt>
      <trkpt lat="47.5354700" lon="9.7336850">
        <ele>-13.6</ele>
        <time>2022-06-09T06:59:58Z</time>
      </trkpt>
      <trkpt lat="47.5353450" lon="9.7338300">
        <ele>-13.6</ele>
        <time>2022-06-09T07:00:02Z</time>
      </trkpt>
      <trkpt lat="47.5352380" lon="9.7339460">
        <ele>-13.2</ele>
        <time>2022-06-09T07:00:06Z</time>
      </trkpt>
      <trkpt lat="47.5351160" lon="9.7340880">
        <ele>-12.6</ele>
        <time>2022-06-09T07:00:10Z</time>
      </trkpt>
      <trkpt lat="47.5350800" lon="9.7343060">
        <ele>-12.2</ele>
        <time>2022-06-09T07:00:14Z</time>
      </trkpt>
      <trkpt lat="47.5350580" lon="9.7345330">
        <ele>-11.8</ele>
        <time>2022-06-09T07:00:18Z</time>
      </trkpt>
      <trkpt lat="47.5350460" lon="9.7347450">
        <ele>-12.0</ele>
        <time>2022-06-09T07:00:22Z</time>
      </trkpt>
      <trkpt lat="47.5350150" lon="9.7349380">
        <ele>-11.8</ele>
        <time>2022-06-09T07:00:26Z</time>
      </trkpt>
      <trkpt lat="47.5349160" lon="9.7350830">
        <ele>-12.0</ele>
        <time>2022-06-09T07:00:30Z</time>
      </trkpt>
      <trkpt lat="47.5348010" lon="9.7352460">
        <ele>-11.6</ele>
        <time>2022-06-09T07:00:34Z</time>
      </trkpt>
      <trkpt lat="47.5346800" lon="9.7354230">
        <ele>-11.8</ele>
        <time>2022-06-09T07:00:38Z</time>
      </trkpt>
      <trkpt lat="47.5345610" lon="9.7355810">
        <ele>-11.6</ele>
        <time>2022-06-09T07:00:42Z</time>
      </trkpt>
      <trkpt lat="47.5344330" lon="9.7357350">
        <ele>-11.2</ele>
        <time>2022-06-09T07:00:46Z</time>
      </trkpt>
      <trkpt lat="47.5343130" lon="9.7359150">
        <ele>-11.2</ele>
        <time>2022-06-09T07:00:50Z</time>
      </trkpt>
      <trkpt lat="47.5341960" lon="9.7360710">
        <ele>-11.4</ele>
        <time>2022-06-09T07:00:54Z</time>
      </trkpt>
      <trkpt lat="47.5340750" lon="9.7362630">
        <ele>-10.8</ele>
        <time>2022-06-09T07:00:58Z</time>
      </trkpt>
      <trkpt lat="47.5339360" lon="9.7364730">
        <ele>-10.8</ele>
        <time>2022-06-09T07:01:02Z</time>
      </trkpt>
      <trkpt lat="47.5337930" lon="9.7366660">
        <ele>-10.6</ele>
        <time>2022-06-09T07:01:06Z</time>
      </trkpt>
      <trkpt lat="47.5336430" lon="9.7368680">
        <ele>-11.0</ele>
        <time>2022-06-09T07:01:10Z</time>
      </trkpt>
      <trkpt lat="47.5335010" lon="9.7370780">
        <ele>-10.4</ele>
        <time>2022-06-09T07:01:14Z</time>
      </trkpt>
      <trkpt lat="47.5333650" lon="9.7372880">
        <ele>-10.6</ele>
        <time>2022-06-09T07:01:18Z</time>
      </trkpt>
      <trkpt lat="47.5332200" lon="9.7374960">
        <ele>-10.8</ele>
        <time>2022-06-09T07:01:22Z</time>
      </trkpt>
      <trkpt lat="47.5330610" lon="9.7377250">
        <ele>-11.2</ele>
        <time>2022-06-09T07:01:26Z</time>
      </trkpt>
      <trkpt lat="47.5329030" lon="9.7379500">
        <ele>-11.2</ele>
        <time>2022-06-09T07:01:30Z</time>
      </trkpt>
      <trkpt lat="47.5327350" lon="9.7381730">
        <ele>-11.4</ele>
        <time>2022-06-09T07:01:34Z</time>
      </trkpt>
      <trkpt lat="47.5325780" lon="9.7383910">
        <ele>-11.2</ele>
        <time>2022-06-09T07:01:38Z</time>
      </trkpt>
      <trkpt lat="47.5324260" lon="9.7386030">
        <ele>-10.8</ele>
        <time>2022-06-09T07:01:42Z</time>
      </trkpt>
      <trkpt lat="47.5322830" lon="9.7388150">
        <ele>-11.0</ele>
        <time>2022-06-09T07:01:46Z</time>
      </trkpt>
      <trkpt lat="47.5321260" lon="9.7390310">
        <ele>-10.6</ele>
        <time>2022-06-09T07:01:50Z</time>
      </trkpt>
      <trkpt lat="47.5319660" lon="9.7392350">
        <ele>-10.6</ele>
        <time>2022-06-09T07:01:54Z</time>
      </trkpt>
      <trkpt lat="47.5318110" lon="9.7394530">
        <ele>-11.0</ele>
        <time>2022-06-09T07:01:58Z</time>
      </trkpt>
      <trkpt lat="47.5316500" lon="9.7396600">
        <ele>-11.2</ele>
        <time>2022-06-09T07:02:02Z</time>
      </trkpt>
      <trkpt lat="47.5314900" lon="9.7398650">
        <ele>-11.0</ele>
        <time>2022-06-09T07:02:06Z</time>
      </trkpt>
      <trkpt lat="47.5313200" lon="9.7400710">
        <ele>-11.2</ele>
        <time>2022-06-09T07:02:10Z</time>
      </trkpt>
      <trkpt lat="47.5311480" lon="9.7402550">
        <ele>-11.2</ele>
        <time>2022-06-09T07:02:14Z</time>
      </trkpt>
      <trkpt lat="47.5309680" lon="9.7404280">
        <ele>-11.8</ele>
        <time>2022-06-09T07:02:18Z</time>
      </trkpt>
      <trkpt lat="47.5307900" lon="9.7406280">
        <ele>-11.8</ele>
        <time>2022-06-09T07:02:22Z</time>
      </trkpt>
      <trkpt lat="47.5306110" lon="9.7408560">
        <ele>-11.6</ele>
        <time>2022-06-09T07:02:26Z</time>
      </trkpt>
      <trkpt lat="47.5304430" lon="9.7410630">
        <ele>-11.6</ele>
        <time>2022-06-09T07:02:30Z</time>
      </trkpt>
      <trkpt lat="47.5302800" lon="9.7412460">
        <ele>-11.6</ele>
        <time>2022-06-09T07:02:34Z</time>
      </trkpt>
      <trkpt lat="47.5301100" lon="9.7414350">
        <ele>-11.0</ele>
        <time>2022-06-09T07:02:38Z</time>
      </trkpt>
      <trkpt lat="47.5299410" lon="9.7416350">
        <ele>-13.2</ele>
        <time>2022-06-09T07:02:42Z</time>
      </trkpt>
      <trkpt lat="47.5297600" lon="9.7418350">
        <ele>-12.8</ele>
        <time>2022-06-09T07:02:46Z</time>
      </trkpt>
      <trkpt lat="47.5295810" lon="9.7420500">
        <ele>-14.0</ele>
        <time>2022-06-09T07:02:50Z</time>
      </trkpt>
      <trkpt lat="47.5294080" lon="9.7422530">
        <ele>-13.8</ele>
        <time>2022-06-09T07:02:54Z</time>
      </trkpt>
      <trkpt lat="47.5292530" lon="9.7424310">
        <ele>-13.2</ele>
        <time>2022-06-09T07:02:58Z</time>
      </trkpt>
      <trkpt lat="47.5290750" lon="9.7426460">
        <ele>-13.6</ele>
        <time>2022-06-09T07:03:02Z</time>
      </trkpt>
      <trkpt lat="47.5288960" lon="9.7428550">
        <ele>-13.4</ele>
        <time>2022-06-09T07:03:06Z</time>
      </trkpt>
      <trkpt lat="47.5286910" lon="9.7429400">
        <ele>-13.6</ele>
        <time>2022-06-09T07:03:10Z</time>
      </trkpt>
      <trkpt lat="47.5284780" lon="9.7429600">
        <ele>-13.8</ele>
        <time>2022-06-09T07:03:14Z</time>
      </trkpt>
      <trkpt lat="47.5282730" lon="9.7429830">
        <ele>-14.6</ele>
        <time>2022-06-09T07:03:18Z</time>
      </trkpt>
      <trkpt lat="47.5280710" lon="9.7430010">
        <ele>-14.0</ele>
        <time>2022-06-09T07:03:22Z</time>
      </trkpt>
      <trkpt lat="47.5278700" lon="9.7430230">
        <ele>-13.8</ele>
        <time>2022-06-09T07:03:26Z</time>
      </trkpt>
      <trkpt lat="47.5276700" lon="9.7430460">
        <ele>-15.0</ele>
        <time>2022-06-09T07:03:30Z</time>
      </trkpt>
      <trkpt lat="47.5274830" lon="9.7430700">
        <ele>-14.0</ele>
        <time>2022-06-09T07:03:34Z</time>
      </trkpt>
      <trkpt lat="47.5273010" lon="9.7431400">
        <ele>-14.2</ele>
        <time>2022-06-09T07:03:38Z</time>
      </trkpt>
      <trkpt lat="47.5271280" lon="9.7432580">
        <ele>-14.2</ele>
        <time>2022-06-09T07:03:42Z</time>
      </trkpt>
      <trkpt lat="47.5269610" lon="9.7434230">
        <ele>-14.6</ele>
        <time>2022-06-09T07:03:46Z</time>
      </trkpt>
      <trkpt lat="47.5268250" lon="9.7436400">
        <ele>-15.0</ele>
        <time>2022-06-09T07:03:50Z</time>
      </trkpt>
      <trkpt lat="47.5267080" lon="9.7438960">
        <ele>-14.6</ele>
        <time>2022-06-09T07:03:54Z</time>
      </trkpt>
      <trkpt lat="47.5266230" lon="9.7441830">
        <ele>-15.0</ele>
        <time>2022-06-09T07:03:58Z</time>
      </trkpt>
      <trkpt lat="47.5265650" lon="9.7444980">
        <ele>-15.0</ele>
        <time>2022-06-09T07:04:02Z</time>
      </trkpt>
      <trkpt lat="47.5265230" lon="9.7448200">
        <ele>-14.2</ele>
        <time>2022-06-09T07:04:06Z</time>
      </trkpt>
      <trkpt lat="47.5264780" lon="9.7451330">
        <ele>-14.2</ele>
        <time>2022-06-09T07:04:10Z</time>
      </trkpt>
      <trkpt lat="47.5264280" lon="9.7454460">
        <ele>-13.2</ele>
        <time>2022-06-09T07:04:14Z</time>
      </trkpt>
      <trkpt lat="47.5263810" lon="9.7457650">
        <ele>-13.0</ele>
        <time>2022-06-09T07:04:18Z</time>
      </trkpt>
      <trkpt lat="47.5263150" lon="9.7460700">
        <ele>-13.4</ele>
        <time>2022-06-09T07:04:22Z</time>
      </trkpt>
      <trkpt lat="47.5261910" lon="9.7463160">
        <ele>-13.4</ele>
        <time>2022-06-09T07:04:26Z</time>
      </trkpt>
      <trkpt lat="47.5260350" lon="9.7464980">
        <ele>-13.4</ele>
        <time>2022-06-09T07:04:30Z</time>
      </trkpt>
      <trkpt lat="47.5258910" lon="9.7466980">
        <ele>-12.6</ele>
        <time>2022-06-09T07:04:34Z</time>
      </trkpt>
      <trkpt lat="47.5257310" lon="9.7468880">
        <ele>-12.8</ele>
        <time>2022-06-09T07:04:38Z</time>
      </trkpt>
      <trkpt lat="47.5255630" lon="9.7470880">
        <ele>-13.8</ele>
        <time>2022-06-09T07:04:42Z</time>
      </trkpt>
      <trkpt lat="47.5253930" lon="9.7472930">
        <ele>-12.8</ele>
        <time>2022-06-09T07:04:46Z</time>
      </trkpt>
      <trkpt lat="47.5252200" lon="9.7474980">
        <ele>-13.4</ele>
        <time>2022-06-09T07:04:50Z</time>
      </trkpt>
      <trkpt lat="47.5250510" lon="9.7477130">
        <ele>-13.4</ele>
        <time>2022-06-09T07:04:54Z</time>
      </trkpt>
      <trkpt lat="47.5248880" lon="9.7479180">
        <ele>-13.6</ele>
        <time>2022-06-09T07:04:58Z</time>
      </trkpt>
      <trkpt lat="47.5247250" lon="9.7481100">
        <ele>-13.2</ele>
        <time>2022-06-09T07:05:02Z</time>
      </trkpt>
      <trkpt lat="47.5245660" lon="9.7482980">
        <ele>-12.6</ele>
        <time>2022-06-09T07:05:06Z</time>
      </trkpt>
      <trkpt lat="47.5244110" lon="9.7484860">
        <ele>-13.4</ele>
        <time>2022-06-09T07:05:10Z</time>
      </trkpt>
      <trkpt lat="47.5242560" lon="9.7486730">
        <ele>-12.6</ele>
        <time>2022-06-09T07:05:14Z</time>
      </trkpt>
      <trkpt lat="47.5240980" lon="9.7488650">
        <ele>-12.8</ele>
        <time>2022-06-09T07:05:18Z</time>
      </trkpt>
      <trkpt lat="47.5239400" lon="9.7490450">
        <ele>-12.4</ele>
        <time>2022-06-09T07:05:22Z</time>
      </trkpt>
      <trkpt lat="47.5237810" lon="9.7492300">
        <ele>-12.6</ele>
        <time>2022-06-09T07:05:26Z</time>
      </trkpt>
      <trkpt lat="47.5236280" lon="9.7494230">
        <ele>-12.8</ele>
        <time>2022-06-09T07:05:30Z</time>
      </trkpt>
      <trkpt lat="47.5234650" lon="9.7496160">
        <ele>-13.0</ele>
        <time>2022-06-09T07:05:34Z</time>
      </trkpt>
      <trkpt lat="47.5232960" lon="9.7498130">
        <ele>-13.6</ele>
        <time>2022-06-09T07:05:38Z</time>
      </trkpt>
      <trkpt lat="47.5231200" lon="9.7500180">
        <ele>-13.6</ele>
        <time>2022-06-09T07:05:42Z</time>
      </trkpt>
      <trkpt lat="47.5229550" lon="9.7502200">
        <ele>-14.2</ele>
        <time>2022-06-09T07:05:46Z</time>
      </trkpt>
      <trkpt lat="47.5227830" lon="9.7504180">
        <ele>-14.2</ele>
        <time>2022-06-09T07:05:50Z</time>
      </trkpt>
      <trkpt lat="47.5226060" lon="9.7506200">
        <ele>-12.8</ele>
        <time>2022-06-09T07:05:54Z</time>
      </trkpt>
      <trkpt lat="47.5224200" lon="9.7508200">
        <ele>-14.4</ele>
        <time>2022-06-09T07:05:58Z</time>
      </trkpt>
      <trkpt lat="47.5222360" lon="9.7509930">
        <ele>-14.2</ele>
        <time>2022-06-09T07:06:02Z</time>
      </trkpt>
      <trkpt lat="47.5220450" lon="9.7511630">
        <ele>-14.2</ele>
        <time>2022-06-09T07:06:06Z</time>
      </trkpt>
      <trkpt lat="47.5218550" lon="9.7513210">
        <ele>-14.4</ele>
        <time>2022-06-09T07:06:10Z</time>
      </trkpt>
      <trkpt lat="47.5216660" lon="9.7514610">
        <ele>-14.6</ele>
        <time>2022-06-09T07:06:14Z</time>
      </trkpt>
      <trkpt lat="47.5214710" lon="9.7515930">
        <ele>-14.6</ele>
        <time>2022-06-09T07:06:18Z</time>
      </trkpt>
      <trkpt lat="47.5212810" lon="9.7517180">
        <ele>-14.4</ele>
        <time>2022-06-09T07:06:22Z</time>
      </trkpt>
      <trkpt lat="47.5210750" lon="9.7518350">
        <ele>-13.8</ele>
        <time>2022-06-09T07:06:26Z</time>
      </trkpt>
      <trkpt lat="47.5208710" lon="9.7519360">
        <ele>-14.4</ele>
        <time>2022-06-09T07:06:30Z</time>
      </trkpt>
      <trkpt lat="47.5206660" lon="9.7520310">
        <ele>-14.6</ele>
        <time>2022-06-09T07:06:34Z</time>
      </trkpt>
      <trkpt lat="47.5204580" lon="9.7521150">
        <ele>-14.2</ele>
        <time>2022-06-09T07:06:38Z</time>
      </trkpt>
      <trkpt lat="47.5202560" lon="9.7521910">
        <ele>-14.4</ele>
        <time>2022-06-09T07:06:42Z</time>
      </trkpt>
      <trkpt lat="47.5200530" lon="9.7522630">
        <ele>-14.6</ele>
        <time>2022-06-09T07:06:46Z</time>
      </trkpt>
      <trkpt lat="47.5198630" lon="9.7523310">
        <ele>-14.8</ele>
        <time>2022-06-09T07:06:50Z</time>
      </trkpt>
      <trkpt lat="47.5196800" lon="9.7523950">
        <ele>-14.6</ele>
        <time>2022-06-09T07:06:54Z</time>
      </trkpt>
      <trkpt lat="47.5194860" lon="9.7524650">
        <ele>-14.8</ele>
        <time>2022-06-09T07:06:58Z</time>
      </trkpt>
      <trkpt lat="47.5192950" lon="9.7525300">
        <ele>-14.6</ele>
        <time>2022-06-09T07:07:02Z</time>
      </trkpt>
      <trkpt lat="47.5191050" lon="9.7525960">
        <ele>-14.6</ele>
        <time>2022-06-09T07:07:06Z</time>
      </trkpt>
      <trkpt lat="47.5189130" lon="9.7526830">
        <ele>-14.6</ele>
        <time>2022-06-09T07:07:10Z</time>
      </trkpt>
      <trkpt lat="47.5187230" lon="9.7527750">
        <ele>-14.8</ele>
        <time>2022-06-09T07:07:14Z</time>
      </trkpt>
      <trkpt lat="47.5185310" lon="9.7528760">
        <ele>-14.4</ele>
        <time>2022-06-09T07:07:18Z</time>
      </trkpt>
      <trkpt lat="47.5183410" lon="9.7529760">
        <ele>-14.0</ele>
        <time>2022-06-09T07:07:22Z</time>
      </trkpt>
      <trkpt lat="47.5181460" lon="9.7530780">
        <ele>-14.2</ele>
        <time>2022-06-09T07:07:26Z</time>
      </trkpt>
      <trkpt lat="47.5179480" lon="9.7531810">
        <ele>-13.6</ele>
        <time>2022-06-09T07:07:30Z</time>
      </trkpt>
      <trkpt lat="47.5177660" lon="9.7532610">
        <ele>-13.8</ele>
        <time>2022-06-09T07:07:34Z</time>
      </trkpt>
      <trkpt lat="47.5175730" lon="9.7533480">
        <ele>-14.0</ele>
        <time>2022-06-09T07:07:38Z</time>
      </trkpt>
      <trkpt lat="47.5173650" lon="9.7534310">
        <ele>-14.2</ele>
        <time>2022-06-09T07:07:42Z</time>
      </trkpt>
      <trkpt lat="47.5171430" lon="9.7535160">
        <ele>-14.4</ele>
        <time>2022-06-09T07:07:46Z</time>
      </trkpt>
      <trkpt lat="47.5169260" lon="9.7536030">
        <ele>-13.8</ele>
        <time>2022-06-09T07:07:50Z</time>
      </trkpt>
      <trkpt lat="47.5167310" lon="9.7536900">
        <ele>-14.0</ele>
        <time>2022-06-09T07:07:54Z</time>
      </trkpt>
      <trkpt lat="47.5165350" lon="9.7537600">
        <ele>-14.4</ele>
        <time>2022-06-09T07:07:58Z</time>
      </trkpt>
      <trkpt lat="47.5163400" lon="9.7538200">
        <ele>-14.2</ele>
        <time>2022-06-09T07:08:02Z</time>
      </trkpt>
      <trkpt lat="47.5161310" lon="9.7538660">
        <ele>-14.2</ele>
        <time>2022-06-09T07:08:06Z</time>
      </trkpt>
      <trkpt lat="47.5159380" lon="9.7539050">
        <ele>-14.6</ele>
        <time>2022-06-09T07:08:10Z</time>
      </trkpt>
      <trkpt lat="47.5157330" lon="9.7539330">
        <ele>-14.2</ele>
        <time>2022-06-09T07:08:14Z</time>
      </trkpt>
      <trkpt lat="47.5155260" lon="9.7539330">
        <ele>-14.2</ele>
        <time>2022-06-09T07:08:18Z</time>
      </trkpt>
      <trkpt lat="47.5153160" lon="9.7539260">
        <ele>-14.0</ele>
        <time>2022-06-09T07:08:22Z</time>
      </trkpt>
      <trkpt lat="47.5151180" lon="9.7539360">
        <ele>-14.0</ele>
        <time>2022-06-09T07:08:26Z</time>
      </trkpt>
      <trkpt lat="47.5149230" lon="9.7539180">
        <ele>-14.2</ele>
        <time>2022-06-09T07:08:30Z</time>
      </trkpt>
      <trkpt lat="47.5147280" lon="9.7538730">
        <ele>-14.2</ele>
        <time>2022-06-09T07:08:34Z</time>
      </trkpt>
      <trkpt lat="47.5145360" lon="9.7538060">
        <ele>-14.0</ele>
        <time>2022-06-09T07:08:38Z</time>
      </trkpt>
      <trkpt lat="47.5143410" lon="9.7537430">
        <ele>-14.4</ele>
        <time>2022-06-09T07:08:42Z</time>
      </trkpt>
      <trkpt lat="47.5141450" lon="9.7536780">
        <ele>-14.4</ele>
        <time>2022-06-09T07:08:46Z</time>
      </trkpt>
      <trkpt lat="47.5139480" lon="9.7536110">
        <ele>-14.4</ele>
        <time>2022-06-09T07:08:50Z</time>
      </trkpt>
      <trkpt lat="47.5137580" lon="9.7535600">
        <ele>-14.4</ele>
        <time>2022-06-09T07:08:54Z</time>
      </trkpt>
      <trkpt lat="47.5135650" lon="9.7534900">
        <ele>-14.8</ele>
        <time>2022-06-09T07:08:58Z</time>
      </trkpt>
      <trkpt lat="47.5133710" lon="9.7534200">
        <ele>-14.4</ele>
        <time>2022-06-09T07:09:02Z</time>
      </trkpt>
      <trkpt lat="47.5131800" lon="9.7533480">
        <ele>-14.6</ele>
        <time>2022-06-09T07:09:06Z</time>
      </trkpt>
      <trkpt lat="47.5129880" lon="9.7532750">
        <ele>-14.4</ele>
        <time>2022-06-09T07:09:10Z</time>
      </trkpt>
      <trkpt lat="47.5127910" lon="9.7532130">
        <ele>-14.8</ele>
        <time>2022-06-09T07:09:14Z</time>
      </trkpt>
      <trkpt lat="47.5125950" lon="9.7531510">
        <ele>-14.8</ele>
        <time>2022-06-09T07:09:18Z</time>
      </trkpt>
      <trkpt lat="47.5124080" lon="9.7530750">
        <ele>-14.8</ele>
        <time>2022-06-09T07:09:22Z</time>
      </trkpt>
      <trkpt lat="47.5122180" lon="9.7530060">
        <ele>-14.8</ele>
        <time>2022-06-09T07:09:26Z</time>
      </trkpt>
      <trkpt lat="47.5120330" lon="9.7529200">
        <ele>-14.0</ele>
        <time>2022-06-09T07:09:30Z</time>
      </trkpt>
      <trkpt lat="47.5118430" lon="9.7528230">
        <ele>-14.0</ele>
        <time>2022-06-09T07:09:34Z</time>
      </trkpt>
      <trkpt lat="47.5116500" lon="9.7527400">
        <ele>-13.6</ele>
        <time>2022-06-09T07:09:38Z</time>
      </trkpt>
      <trkpt lat="47.5114580" lon="9.7526530">
        <ele>-14.0</ele>
        <time>2022-06-09T07:09:42Z</time>
      </trkpt>
      <trkpt lat="47.5112630" lon="9.7525730">
        <ele>-14.2</ele>
        <time>2022-06-09T07:09:46Z</time>
      </trkpt>
      <trkpt lat="47.5110760" lon="9.7524810">
        <ele>-14.2</ele>
        <time>2022-06-09T07:09:50Z</time>
      </trkpt>
      <trkpt lat="47.5108780" lon="9.7523980">
        <ele>-14.0</ele>
        <time>2022-06-09T07:09:54Z</time>
      </trkpt>
      <trkpt lat="47.5106850" lon="9.7523060">
        <ele>-14.4</ele>
        <time>2022-06-09T07:09:58Z</time>
      </trkpt>
      <trkpt lat="47.5104910" lon="9.7522030">
        <ele>-14.4</ele>
        <time>2022-06-09T07:10:02Z</time>
      </trkpt>
      <trkpt lat="47.5102950" lon="9.7521060">
        <ele>-14.4</ele>
        <time>2022-06-09T07:10:06Z</time>
      </trkpt>
      <trkpt lat="47.5100980" lon="9.7520210">
        <ele>-14.6</ele>
        <time>2022-06-09T07:10:10Z</time>
      </trkpt>
      <trkpt lat="47.5099050" lon="9.7519330">
        <ele>-14.4</ele>
        <time>2022-06-09T07:10:14Z</time>
      </trkpt>
      <trkpt lat="47.5097100" lon="9.7518330">
        <ele>-14.0</ele>
        <time>2022-06-09T07:10:18Z</time>
      </trkpt>
      <trkpt lat="47.5095130" lon="9.7517360">
        <ele>-14.2</ele>
        <time>2022-06-09T07:10:22Z</time>
      </trkpt>
      <trkpt lat="47.5093200" lon="9.7516260">
        <ele>-14.2</ele>
        <time>2022-06-09T07:10:26Z</time>
      </trkpt>
      <trkpt lat="47.5091280" lon="9.7515080">
        <ele>-14.0</ele>
        <time>2022-06-09T07:10:30Z</time>
      </trkpt>
      <trkpt lat="47.5089430" lon="9.7513850">
        <ele>-14.0</ele>
        <time>2022-06-09T07:10:34Z</time>
      </trkpt>
      <trkpt lat="47.5087600" lon="9.7512510">
        <ele>-13.8</ele>
        <time>2022-06-09T07:10:38Z</time>
      </trkpt>
      <trkpt lat="47.5085730" lon="9.7511150">
        <ele>-14.0</ele>
        <time>2022-06-09T07:10:42Z</time>
      </trkpt>
      <trkpt lat="47.5083950" lon="9.7509630">
        <ele>-14.0</ele>
        <time>2022-06-09T07:10:46Z</time>
      </trkpt>
      <trkpt lat="47.5082200" lon="9.7508000">
        <ele>-14.0</ele>
        <time>2022-06-09T07:10:50Z</time>
      </trkpt>
      <trkpt lat="47.5080560" lon="9.7506300">
        <ele>-15.4</ele>
        <time>2022-06-09T07:10:54Z</time>
      </trkpt>
      <trkpt lat="47.5078750" lon="9.7504530">
        <ele>-14.2</ele>
        <time>2022-06-09T07:10:58Z</time>
      </trkpt>
      <trkpt lat="47.5077110" lon="9.7502860">
        <ele>-14.6</ele>
        <time>2022-06-09T07:11:02Z</time>
      </trkpt>
      <trkpt lat="47.5075480" lon="9.7501330">
        <ele>-14.2</ele>
        <time>2022-06-09T07:11:06Z</time>
      </trkpt>
      <trkpt lat="47.5073950" lon="9.7499580">
        <ele>-14.2</ele>
        <time>2022-06-09T07:11:10Z</time>
      </trkpt>
      <trkpt lat="47.5072360" lon="9.7497880">
        <ele>-14.0</ele>
        <time>2022-06-09T07:11:14Z</time>
      </trkpt>
      <trkpt lat="47.5070830" lon="9.7496050">
        <ele>-14.0</ele>
        <time>2022-06-09T07:11:18Z</time>
      </trkpt>
      <trkpt lat="47.5069400" lon="9.7494050">
        <ele>-13.8</ele>
        <time>2022-06-09T07:11:22Z</time>
      </trkpt>
      <trkpt lat="47.5068030" lon="9.7492010">
        <ele>-14.0</ele>
        <time>2022-06-09T07:11:26Z</time>
      </trkpt>
      <trkpt lat="47.5066760" lon="9.7489950">
        <ele>-13.8</ele>
        <time>2022-06-09T07:11:30Z</time>
      </trkpt>
      <trkpt lat="47.5065480" lon="9.7487860">
        <ele>-13.8</ele>
        <time>2022-06-09T07:11:34Z</time>
      </trkpt>
      <trkpt lat="47.5064200" lon="9.7485910">
        <ele>-14.0</ele>
        <time>2022-06-09T07:11:38Z</time>
      </trkpt>
      <trkpt lat="47.5062980" lon="9.7483850">
        <ele>-14.0</ele>
        <time>2022-06-09T07:11:42Z</time>
      </trkpt>
      <trkpt lat="47.5061850" lon="9.7481800">
        <ele>-13.6</ele>
        <time>2022-06-09T07:11:46Z</time>
      </trkpt>
      <trkpt lat="47.5061310" lon="9.7479810">
        <ele>-14.0</ele>
        <time>2022-06-09T07:11:50Z</time>
      </trkpt>
      <trkpt lat="47.5060610" lon="9.7478200">
        <ele>-13.8</ele>
        <time>2022-06-09T07:11:54Z</time>
      </trkpt>
      <trkpt lat="47.5059050" lon="9.7476380">
        <ele>-14.0</ele>
        <time>2022-06-09T07:11:58Z</time>
      </trkpt>
      <trkpt lat="47.5057950" lon="9.7474480">
        <ele>-14.0</ele>
        <time>2022-06-09T07:12:02Z</time>
      </trkpt>
      <trkpt lat="47.5057360" lon="9.7472750">
        <ele>-13.8</ele>
        <time>2022-06-09T07:12:06Z</time>
      </trkpt>
      <trkpt lat="47.5056430" lon="9.7470560">
        <ele>-14.0</ele>
        <time>2022-06-09T07:12:10Z</time>
      </trkpt>
      <trkpt lat="47.5055210" lon="9.7468400">
        <ele>-14.0</ele>
        <time>2022-06-09T07:12:14Z</time>
      </trkpt>
      <trkpt lat="47.5054280" lon="9.7466160">
        <ele>-14.0</ele>
        <time>2022-06-09T07:12:18Z</time>
      </trkpt>
      <trkpt lat="47.5053850" lon="9.7464330">
        <ele>-14.0</ele>
        <time>2022-06-09T07:12:22Z</time>
      </trkpt>
      <trkpt lat="47.5052300" lon="9.7462230">
        <ele>-14.0</ele>
        <time>2022-06-09T07:12:26Z</time>
      </trkpt>
      <trkpt lat="47.5051550" lon="9.7460430">
        <ele>-14.0</ele>
        <time>2022-06-09T07:12:30Z</time>
      </trkpt>
      <trkpt lat="47.5050860" lon="9.7459800">
        <ele>-14.0</ele>
        <time>2022-06-09T07:12:34Z</time>
      </trkpt>
      <trkpt lat="47.5050860" lon="9.7459800">
        <ele>-14.4</ele>
        <time>2022-06-09T07:12:38Z</time>
      </trkpt>
      <trkpt lat="47.5050860" lon="9.7459800">
        <ele>-14.0</ele>
        <time>2022-06-09T07:12:42Z</time>
      </trkpt>
      <trkpt lat="47.5050860" lon="9.7459800">
        <ele>-14.2</ele>
        <time>2022-06-09T07:12:46Z</time>
      </trkpt>
      <trkpt lat="47.5050860" lon="9.7459800">
        <ele>-14.0</ele>
        <time>2022-06-09T07:12:50Z</time>
      </trkpt>
      <trkpt lat="47.5050860" lon="9.7459800">
        <ele>-13.8</ele>
        <time>2022-06-09T07:12:54Z</time>
      </trkpt>
      <trkpt lat="47.5050860" lon="9.7459800">
        <ele>-14.2</ele>
        <time>2022-06-09T07:12:58Z</time>
      </trkpt>
      <trkpt lat="47.5050860" lon="9.7459800">
        <ele>-14.0</ele>
        <time>2022-06-09T07:13:02Z</time>
      </trkpt>
      <trkpt lat="47.5050860" lon="9.7459800">
        <ele>-14.6</ele>
        <time>2022-06-09T07:13:06Z</time>
      </trkpt>
      <trkpt lat="47.5050860" lon="9.7459800">
        <ele>-14.0</ele>
        <time>2022-06-09T07:13:10Z</time>
      </trkpt>
      <trkpt lat="47.5050860" lon="9.7459800">
        <ele>-14.0</ele>
        <time>2022-06-09T07:13:14Z</time>
      </trkpt>
      <trkpt lat="47.5050860" lon="9.7459800">
        <ele>-14.0</ele>
        <time>2022-06-09T07:13:18Z</time>
      </trkpt>
      <trkpt lat="47.5050860" lon="9.7459800">
        <ele>-14.4</ele>
        <time>2022-06-09T07:13:22Z</time>
      </trkpt>
      <trkpt lat="47.5050860" lon="9.7459800">
        <ele>-14.4</ele>
        <time>2022-06-09T07:13:26Z</time>
      </trkpt>
      <trkpt lat="47.5050860" lon="9.7459800">
        <ele>-14.0</ele>
        <time>2022-06-09T07:13:30Z</time>
      </trkpt>
      <trkpt lat="47.5050860" lon="9.7459800">
        <ele>-14.2</ele>
        <time>2022-06-09T07:13:34Z</time>
      </trkpt>
      <trkpt lat="47.5050860" lon="9.7459800">
        <ele>-14.2</ele>
        <time>2022-06-09T07:13:38Z</time>
      </trkpt>
      <trkpt lat="47.5050860" lon="9.7459800">
        <ele>-14.0</ele>
        <time>2022-06-09T07:13:42Z</time>
      </trkpt>
      <trkpt lat="47.5050630" lon="9.7459530">
        <ele>-14.0</ele>
        <time>2022-06-09T07:13:46Z</time>
      </trkpt>
      <trkpt lat="47.5050180" lon="9.7459680">
        <ele>-13.6</ele>
        <time>2022-06-09T07:13:50Z</time>
      </trkpt>
      <trkpt lat="47.5049550" lon="9.7460130">
        <ele>-13.4</ele>
        <time>2022-06-09T07:13:54Z</time>
      </trkpt>
      <trkpt lat="47.5048800" lon="9.7460510">
        <ele>-13.8</ele>
        <time>2022-06-09T07:13:58Z</time>
      </trkpt>
      <trkpt lat="47.5048560" lon="9.7460330">
        <ele>-13.8</ele>
        <time>2022-06-09T07:14:02Z</time>
      </trkpt>
      <trkpt lat="47.5048560" lon="9.7460330">
        <ele>-13.8</ele>
        <time>2022-06-09T07:14:06Z</time>
      </trkpt>
      <trkpt lat="47.5048560" lon="9.7460330">
        <ele>-13.8</ele>
        <time>2022-06-09T07:14:10Z</time>
      </trkpt>
      <trkpt lat="47.5048560" lon="9.7460330">
        <ele>-14.0</ele>
        <time>2022-06-09T07:14:14Z</time>
      </trkpt>
      <trkpt lat="47.5048560" lon="9.7460330">
        <ele>-13.8</ele>
        <time>2022-06-09T07:14:18Z</time>
      </trkpt>
      <trkpt lat="47.5048560" lon="9.7460330">
        <ele>-13.4</ele>
        <time>2022-06-09T07:14:22Z</time>
      </trkpt>
      <trkpt lat="47.5048560" lon="9.7460330">
        <ele>-13.8</ele>
        <time>2022-06-09T07:14:26Z</time>
      </trkpt>
      <trkpt lat="47.5048560" lon="9.7460330">
        <ele>-13.6</ele>
        <time>2022-06-09T07:14:30Z</time>
      </trkpt>
      <trkpt lat="47.5048560" lon="9.7460330">
        <ele>-13.6</ele>
        <time>2022-06-09T07:14:34Z</time>
      </trkpt>
      <trkpt lat="47.5048560" lon="9.7460330">
        <ele>-13.6</ele>
        <time>2022-06-09T07:14:38Z</time>
      </trkpt>
      <trkpt lat="47.5048560" lon="9.7460330">
        <ele>-13.6</ele>
        <time>2022-06-09T07:14:42Z</time>
      </trkpt>
      <trkpt lat="47.5048560" lon="9.7460330">
        <ele>-14.0</ele>
        <time>2022-06-09T07:14:46Z</time>
      </trkpt>
      <trkpt lat="47.5048560" lon="9.7460330">
        <ele>-13.8</ele>
        <time>2022-06-09T07:14:50Z</time>
      </trkpt>
      <trkpt lat="47.5048200" lon="9.7460410">
        <ele>-14.0</ele>
        <time>2022-06-09T07:14:54Z</time>
      </trkpt>
      <trkpt lat="47.5048100" lon="9.7459880">
        <ele>-13.8</ele>
        <time>2022-06-09T07:14:58Z</time>
      </trkpt>
      <trkpt lat="47.5048100" lon="9.7459880">
        <ele>-13.8</ele>
        <time>2022-06-09T07:15:02Z</time>
      </trkpt>
      <trkpt lat="47.5047860" lon="9.7459730">
        <ele>-14.0</ele>
        <time>2022-06-09T07:15:06Z</time>
      </trkpt>
      <trkpt lat="47.5047180" lon="9.7460110">
        <ele>-14.0</ele>
        <time>2022-06-09T07:15:10Z</time>
      </trkpt>
      <trkpt lat="47.5046700" lon="9.7461650">
        <ele>-14.0</ele>
        <time>2022-06-09T07:15:14Z</time>
      </trkpt>
      <trkpt lat="47.5045860" lon="9.7462610">
        <ele>-14.4</ele>
        <time>2022-06-09T07:15:18Z</time>
      </trkpt>
      <trkpt lat="47.5044680" lon="9.7463330">
        <ele>-14.2</ele>
        <time>2022-06-09T07:15:22Z</time>
      </trkpt>
      <trkpt lat="47.5044080" lon="9.7463750">
        <ele>-14.2</ele>
        <time>2022-06-09T07:15:26Z</time>
      </trkpt>
      <trkpt lat="47.5042860" lon="9.7464580">
        <ele>-14.2</ele>
        <time>2022-06-09T07:15:30Z</time>
      </trkpt>
      <trkpt lat="47.5041710" lon="9.7464930">
        <ele>-14.0</ele>
        <time>2022-06-09T07:15:34Z</time>
      </trkpt>
      <trkpt lat="47.5040480" lon="9.7465510">
        <ele>-14.0</ele>
        <time>2022-06-09T07:15:38Z</time>
      </trkpt>
      <trkpt lat="47.5039330" lon="9.7465880">
        <ele>-13.6</ele>
        <time>2022-06-09T07:15:42Z</time>
      </trkpt>
      <trkpt lat="47.5038410" lon="9.7466030">
        <ele>-13.6</ele>
        <time>2022-06-09T07:15:46Z</time>
      </trkpt>
      <trkpt lat="47.5037310" lon="9.7466460">
        <ele>-13.6</ele>
        <time>2022-06-09T07:15:50Z</time>
      </trkpt>
      <trkpt lat="47.5036200" lon="9.7467000">
        <ele>-13.4</ele>
        <time>2022-06-09T07:15:54Z</time>
      </trkpt>
      <trkpt lat="47.5035150" lon="9.7467450">
        <ele>-13.4</ele>
        <time>2022-06-09T07:15:58Z</time>
      </trkpt>
      <trkpt lat="47.5034480" lon="9.7467980">
        <ele>-12.6</ele>
        <time>2022-06-09T07:16:02Z</time>
      </trkpt>
      <trkpt lat="47.5033930" lon="9.7468050">
        <ele>-12.6</ele>
        <time>2022-06-09T07:16:06Z</time>
      </trkpt>
      <trkpt lat="47.5033930" lon="9.7468050">
        <ele>-12.6</ele>
        <time>2022-06-09T07:16:10Z</time>
      </trkpt>
      <trkpt lat="47.5033580" lon="9.7468080">
        <ele>-13.0</ele>
        <time>2022-06-09T07:16:14Z</time>
      </trkpt>
      <trkpt lat="47.5033550" lon="9.7468180">
        <ele>-12.8</ele>
        <time>2022-06-09T07:16:18Z</time>
      </trkpt>
      <trkpt lat="47.5033550" lon="9.7468180">
        <ele>-12.8</ele>
        <time>2022-06-09T07:16:22Z</time>
      </trkpt>
      <trkpt lat="47.5033550" lon="9.7468180">
        <ele>-13.2</ele>
        <time>2022-06-09T07:16:26Z</time>
      </trkpt>
      <trkpt lat="47.5032700" lon="9.7468210">
        <ele>-13.0</ele>
        <time>2022-06-09T07:16:30Z</time>
      </trkpt>
      <trkpt lat="47.5032700" lon="9.7468210">
        <ele>-12.6</ele>
        <time>2022-06-09T07:16:34Z</time>
      </trkpt>
      <trkpt lat="47.5032500" lon="9.7468360">
        <ele>-12.6</ele>
        <time>2022-06-09T07:16:38Z</time>
      </trkpt>
      <trkpt lat="47.5032600" lon="9.7468410">
        <ele>-12.8</ele>
        <time>2022-06-09T07:16:42Z</time>
      </trkpt>
      <trkpt lat="47.5032930" lon="9.7468610">
        <ele>-13.0</ele>
        <time>2022-06-09T07:16:46Z</time>
      </trkpt>
      <trkpt lat="47.5032930" lon="9.7468610">
        <ele>-13.2</ele>
        <time>2022-06-09T07:16:50Z</time>
      </trkpt>
      <trkpt lat="47.5032810" lon="9.7468400">
        <ele>-12.6</ele>
        <time>2022-06-09T07:16:54Z</time>
      </trkpt>
      <trkpt lat="47.5032410" lon="9.7468780">
        <ele>-12.2</ele>
        <time>2022-06-09T07:16:58Z</time>
      </trkpt>
      <trkpt lat="47.5031660" lon="9.7469380">
        <ele>-11.6</ele>
        <time>2022-06-09T07:17:02Z</time>
      </trkpt>
      <trkpt lat="47.5031580" lon="9.7470300">
        <ele>-11.2</ele>
        <time>2022-06-09T07:17:06Z</time>
      </trkpt>
      <trkpt lat="47.5030660" lon="9.7470830">
        <ele>-11.0</ele>
        <time>2022-06-09T07:17:10Z</time>
      </trkpt>
      <trkpt lat="47.5029960" lon="9.7471350">
        <ele>-11.0</ele>
        <time>2022-06-09T07:17:14Z</time>
      </trkpt>
      <trkpt lat="47.5029080" lon="9.7471400">
        <ele>-11.2</ele>
        <time>2022-06-09T07:17:18Z</time>
      </trkpt>
      <trkpt lat="47.5029310" lon="9.7470730">
        <ele>-11.2</ele>
        <time>2022-06-09T07:17:22Z</time>
      </trkpt>
      <trkpt lat="47.5029310" lon="9.7470730">
        <ele>-11.0</ele>
        <time>2022-06-09T07:17:26Z</time>
      </trkpt>
      <trkpt lat="47.5029310" lon="9.7470730">
        <ele>-11.2</ele>
        <time>2022-06-09T07:17:30Z</time>
      </trkpt>
      <trkpt lat="47.5029030" lon="9.7470310">
        <ele>-11.4</ele>
        <time>2022-06-09T07:17:34Z</time>
      </trkpt>
      <trkpt lat="47.5029750" lon="9.7469880">
        <ele>-11.4</ele>
        <time>2022-06-09T07:17:38Z</time>
      </trkpt>
      <trkpt lat="47.5030800" lon="9.7469030">
        <ele>-12.0</ele>
        <time>2022-06-09T07:17:42Z</time>
      </trkpt>
      <trkpt lat="47.5032030" lon="9.7468200">
        <ele>-12.6</ele>
        <time>2022-06-09T07:17:46Z</time>
      </trkpt>
      <trkpt lat="47.5033680" lon="9.7467230">
        <ele>-12.6</ele>
        <time>2022-06-09T07:17:50Z</time>
      </trkpt>
      <trkpt lat="47.5035460" lon="9.7466230">
        <ele>-13.2</ele>
        <time>2022-06-09T07:17:54Z</time>
      </trkpt>
      <trkpt lat="47.5037260" lon="9.7465610">
        <ele>-13.4</ele>
        <time>2022-06-09T07:17:58Z</time>
      </trkpt>
      <trkpt lat="47.5038210" lon="9.7465930">
        <ele>-13.4</ele>
        <time>2022-06-09T07:18:02Z</time>
      </trkpt>
      <trkpt lat="47.5038660" lon="9.7465930">
        <ele>-13.8</ele>
        <time>2022-06-09T07:18:06Z</time>
      </trkpt>
      <trkpt lat="47.5039660" lon="9.7465310">
        <ele>-13.4</ele>
        <time>2022-06-09T07:18:10Z</time>
      </trkpt>
      <trkpt lat="47.5041110" lon="9.7464560">
        <ele>-13.2</ele>
        <time>2022-06-09T07:18:14Z</time>
      </trkpt>
      <trkpt lat="47.5042360" lon="9.7463730">
        <ele>-13.8</ele>
        <time>2022-06-09T07:18:18Z</time>
      </trkpt>
      <trkpt lat="47.5043060" lon="9.7463300">
        <ele>-14.4</ele>
        <time>2022-06-09T07:18:22Z</time>
      </trkpt>
      <trkpt lat="47.5043350" lon="9.7462930">
        <ele>-14.0</ele>
        <time>2022-06-09T07:18:26Z</time>
      </trkpt>
      <trkpt lat="47.5043400" lon="9.7462610">
        <ele>-14.4</ele>
        <time>2022-06-09T07:18:30Z</time>
      </trkpt>
      <trkpt lat="47.5043400" lon="9.7462380">
        <ele>-14.2</ele>
        <time>2022-06-09T07:18:34Z</time>
      </trkpt>
      <trkpt lat="47.5043550" lon="9.7462100">
        <ele>-14.4</ele>
        <time>2022-06-09T07:18:38Z</time>
      </trkpt>
      <trkpt lat="47.5043810" lon="9.7462080">
        <ele>-14.2</ele>
        <time>2022-06-09T07:18:42Z</time>
      </trkpt>
      <trkpt lat="47.5043600" lon="9.7462530">
        <ele>-14.2</ele>
        <time>2022-06-09T07:18:46Z</time>
      </trkpt>
      <trkpt lat="47.5043600" lon="9.7462530">
        <ele>-14.2</ele>
        <time>2022-06-09T07:18:50Z</time>
      </trkpt>
      <trkpt lat="47.5043600" lon="9.7462530">
        <ele>-14.4</ele>
        <time>2022-06-09T07:18:54Z</time>
      </trkpt>
      <trkpt lat="47.5044030" lon="9.7462910">
        <ele>-14.0</ele>
        <time>2022-06-09T07:18:58Z</time>
      </trkpt>
      <trkpt lat="47.5044560" lon="9.7462800">
        <ele>-14.4</ele>
        <time>2022-06-09T07:19:02Z</time>
      </trkpt>
      <trkpt lat="47.5044560" lon="9.7462800">
        <ele>-14.4</ele>
        <time>2022-06-09T07:19:06Z</time>
      </trkpt>
      <trkpt lat="47.5044560" lon="9.7462800">
        <ele>-14.0</ele>
        <time>2022-06-09T07:19:10Z</time>
      </trkpt>
      <trkpt lat="47.5044560" lon="9.7462800">
        <ele>-14.4</ele>
        <time>2022-06-09T07:19:14Z</time>
      </trkpt>
      <trkpt lat="47.5044560" lon="9.7462800">
        <ele>-14.2</ele>
        <time>2022-06-09T07:19:18Z</time>
      </trkpt>
      <trkpt lat="47.5044560" lon="9.7462800">
        <ele>-14.6</ele>
        <time>2022-06-09T07:19:22Z</time>
      </trkpt>
      <trkpt lat="47.5044560" lon="9.7462800">
        <ele>-14.4</ele>
        <time>2022-06-09T07:19:26Z</time>
      </trkpt>
      <trkpt lat="47.5044560" lon="9.7462800">
        <ele>-14.6</ele>
        <time>2022-06-09T07:19:30Z</time>
      </trkpt>
      <trkpt lat="47.5044560" lon="9.7462800">
        <ele>-14.6</ele>
        <time>2022-06-09T07:19:34Z</time>
      </trkpt>
      <trkpt lat="47.5044560" lon="9.7462800">
        <ele>-14.2</ele>
        <time>2022-06-09T07:19:38Z</time>
      </trkpt>
      <trkpt lat="47.5044560" lon="9.7462800">
        <ele>-14.2</ele>
        <time>2022-06-09T07:19:42Z</time>
      </trkpt>
      <trkpt lat="47.5044550" lon="9.7463750">
        <ele>-14.6</ele>
        <time>2022-06-09T07:19:46Z</time>
      </trkpt>
      <trkpt lat="47.5044550" lon="9.7463750">
        <ele>-14.8</ele>
        <time>2022-06-09T07:19:50Z</time>
      </trkpt>
      <trkpt lat="47.5044550" lon="9.7463750">
        <ele>-14.6</ele>
        <time>2022-06-09T07:19:54Z</time>
      </trkpt>
      <trkpt lat="47.5044550" lon="9.7463750">
        <ele>-14.8</ele>
        <time>2022-06-09T07:19:58Z</time>
      </trkpt>
      <trkpt lat="47.5044550" lon="9.7463750">
        <ele>-14.6</ele>
        <time>2022-06-09T07:20:02Z</time>
      </trkpt>
      <trkpt lat="47.5044550" lon="9.7463750">
        <ele>-14.8</ele>
        <time>2022-06-09T07:20:06Z</time>
      </trkpt>
      <trkpt lat="47.5044550" lon="9.7463750">
        <ele>-14.6</ele>
        <time>2022-06-09T07:20:10Z</time>
      </trkpt>
      <trkpt lat="47.5044550" lon="9.7463750">
        <ele>-14.8</ele>
        <time>2022-06-09T07:20:14Z</time>
      </trkpt>
      <trkpt lat="47.5044550" lon="9.7463750">
        <ele>-14.4</ele>
        <time>2022-06-09T07:20:18Z</time>
      </trkpt>
      <trkpt lat="47.5044550" lon="9.7463750">
        <ele>-14.6</ele>
        <time>2022-06-09T07:20:22Z</time>
      </trkpt>
      <trkpt lat="47.5044550" lon="9.7463750">
        <ele>-14.6</ele>
        <time>2022-06-09T07:20:26Z</time>
      </trkpt>
      <trkpt lat="47.5044550" lon="9.7463750">
        <ele>-15.2</ele>
        <time>2022-06-09T07:20:30Z</time>
      </trkpt>
      <trkpt lat="47.5044550" lon="9.7463750">
        <ele>-15.2</ele>
        <time>2022-06-09T07:20:34Z</time>
      </trkpt>
      <trkpt lat="47.5044550" lon="9.7463750">
        <ele>-15.2</ele>
        <time>2022-06-09T07:20:38Z</time>
      </trkpt>
      <trkpt lat="47.5044550" lon="9.7463750">
        <ele>-14.8</ele>
        <time>2022-06-09T07:20:42Z</time>
      </trkpt>
      <trkpt lat="47.5044550" lon="9.7463750">
        <ele>-14.6</ele>
        <time>2022-06-09T07:20:46Z</time>
      </trkpt>
      <trkpt lat="47.5044550" lon="9.7463750">
        <ele>-14.6</ele>
        <time>2022-06-09T07:20:50Z</time>
      </trkpt>
      <trkpt lat="47.5044550" lon="9.7463750">
        <ele>-14.8</ele>
        <time>2022-06-09T07:20:54Z</time>
      </trkpt>
      <trkpt lat="47.5044550" lon="9.7463750">
        <ele>-14.6</ele>
        <time>2022-06-09T07:20:58Z</time>
      </trkpt>
      <trkpt lat="47.5044550" lon="9.7463750">
        <ele>-14.4</ele>
        <time>2022-06-09T07:21:02Z</time>
      </trkpt>
      <trkpt lat="47.5044880" lon="9.7464260">
        <ele>-14.6</ele>
        <time>2022-06-09T07:21:06Z</time>
      </trkpt>
      <trkpt lat="47.5044880" lon="9.7464260">
        <ele>-14.6</ele>
        <time>2022-06-09T07:21:10Z</time>
      </trkpt>
      <trkpt lat="47.5044880" lon="9.7464260">
        <ele>-14.6</ele>
        <time>2022-06-09T07:21:14Z</time>
      </trkpt>
      <trkpt lat="47.5044880" lon="9.7464260">
        <ele>-14.6</ele>
        <time>2022-06-09T07:21:18Z</time>
      </trkpt>
      <trkpt lat="47.5044880" lon="9.7464260">
        <ele>-14.4</ele>
        <time>2022-06-09T07:21:22Z</time>
      </trkpt>
      <trkpt lat="47.5044880" lon="9.7464260">
        <ele>-14.2</ele>
        <time>2022-06-09T07:21:26Z</time>
      </trkpt>
      <trkpt lat="47.5044880" lon="9.7464260">
        <ele>-14.8</ele>
        <time>2022-06-09T07:21:30Z</time>
      </trkpt>
      <trkpt lat="47.5044880" lon="9.7464260">
        <ele>-15.2</ele>
        <time>2022-06-09T07:21:34Z</time>
      </trkpt>
      <trkpt lat="47.5044880" lon="9.7464260">
        <ele>-15.2</ele>
        <time>2022-06-09T07:21:38Z</time>
      </trkpt>
      <trkpt lat="47.5044880" lon="9.7464260">
        <ele>-15.2</ele>
        <time>2022-06-09T07:21:42Z</time>
      </trkpt>
      <trkpt lat="47.5044880" lon="9.7464260">
        <ele>-14.8</ele>
        <time>2022-06-09T07:21:46Z</time>
      </trkpt>
      <trkpt lat="47.5044880" lon="9.7464260">
        <ele>-14.4</ele>
        <time>2022-06-09T07:21:50Z</time>
      </trkpt>
      <trkpt lat="47.5044880" lon="9.7464260">
        <ele>-15.0</ele>
        <time>2022-06-09T07:21:54Z</time>
      </trkpt>
      <trkpt lat="47.5044880" lon="9.7464260">
        <ele>-14.4</ele>
        <time>2022-06-09T07:21:58Z</time>
      </trkpt>
      <trkpt lat="47.5044880" lon="9.7464260">
        <ele>-15.2</ele>
        <time>2022-06-09T07:22:02Z</time>
      </trkpt>
      <trkpt lat="47.5044880" lon="9.7464260">
        <ele>-15.0</ele>
        <time>2022-06-09T07:22:06Z</time>
      </trkpt>
      <trkpt lat="47.5044880" lon="9.7464260">
        <ele>-14.6</ele>
        <time>2022-06-09T07:22:10Z</time>
      </trkpt>
      <trkpt lat="47.5044880" lon="9.7464260">
        <ele>-15.2</ele>
        <time>2022-06-09T07:22:14Z</time>
      </trkpt>
      <trkpt lat="47.5044880" lon="9.7464260">
        <ele>-14.6</ele>
        <time>2022-06-09T07:22:18Z</time>
      </trkpt>
      <trkpt lat="47.5044880" lon="9.7464260">
        <ele>-15.2</ele>
        <time>2022-06-09T07:22:22Z</time>
      </trkpt>
      <trkpt lat="47.5044880" lon="9.7464260">
        <ele>-15.0</ele>
        <time>2022-06-09T07:22:26Z</time>
      </trkpt>
      <trkpt lat="47.5044880" lon="9.7464260">
        <ele>-15.0</ele>
        <time>2022-06-09T07:22:30Z</time>
      </trkpt>
      <trkpt lat="47.5044880" lon="9.7464260">
        <ele>-14.6</ele>
        <time>2022-06-09T07:22:34Z</time>
      </trkpt>
      <trkpt lat="47.5044880" lon="9.7464260">
        <ele>-14.8</ele>
        <time>2022-06-09T07:22:38Z</time>
      </trkpt>
      <trkpt lat="47.5044880" lon="9.7464260">
        <ele>-15.0</ele>
        <time>2022-06-09T07:22:42Z</time>
      </trkpt>
      <trkpt lat="47.5044880" lon="9.7464260">
        <ele>-14.8</ele>
        <time>2022-06-09T07:22:46Z</time>
      </trkpt>
      <trkpt lat="47.5044880" lon="9.7464260">
        <ele>-14.8</ele>
        <time>2022-06-09T07:22:50Z</time>
      </trkpt>
      <trkpt lat="47.5044880" lon="9.7464260">
        <ele>-14.8</ele>
        <time>2022-06-09T07:22:54Z</time>
      </trkpt>
      <trkpt lat="47.5044880" lon="9.7464260">
        <ele>-15.0</ele>
        <time>2022-06-09T07:22:58Z</time>
      </trkpt>
      <trkpt lat="47.5044880" lon="9.7464260">
        <ele>-14.8</ele>
        <time>2022-06-09T07:23:02Z</time>
      </trkpt>
      <trkpt lat="47.5044880" lon="9.7464260">
        <ele>-14.8</ele>
        <time>2022-06-09T07:23:06Z</time>
      </trkpt>
      <trkpt lat="47.5044880" lon="9.7464260">
        <ele>-15.2</ele>
        <time>2022-06-09T07:23:10Z</time>
      </trkpt>
      <trkpt lat="47.5044880" lon="9.7464260">
        <ele>-14.8</ele>
        <time>2022-06-09T07:23:14Z</time>
      </trkpt>
      <trkpt lat="47.5044880" lon="9.7464260">
        <ele>-15.2</ele>
        <time>2022-06-09T07:23:18Z</time>
      </trkpt>
      <trkpt lat="47.5044880" lon="9.7464260">
        <ele>-15.0</ele>
        <time>2022-06-09T07:23:22Z</time>
      </trkpt>
      <trkpt lat="47.5044880" lon="9.7464260">
        <ele>-15.6</ele>
        <time>2022-06-09T07:23:26Z</time>
      </trkpt>
      <trkpt lat="47.5044880" lon="9.7464260">
        <ele>-15.2</ele>
        <time>2022-06-09T07:23:30Z</time>
      </trkpt>
      <trkpt lat="47.5044880" lon="9.7464260">
        <ele>-15.2</ele>
        <time>2022-06-09T07:23:34Z</time>
      </trkpt>
      <trkpt lat="47.5044880" lon="9.7464260">
        <ele>-15.4</ele>
        <time>2022-06-09T07:23:38Z</time>
      </trkpt>
      <trkpt lat="47.5044880" lon="9.7464260">
        <ele>-15.2</ele>
        <time>2022-06-09T07:23:42Z</time>
      </trkpt>
      <trkpt lat="47.5044880" lon="9.7464260">
        <ele>-15.2</ele>
        <time>2022-06-09T07:23:46Z</time>
      </trkpt>
      <trkpt lat="47.5044880" lon="9.7464260">
        <ele>-15.2</ele>
        <time>2022-06-09T07:23:50Z</time>
      </trkpt>
      <trkpt lat="47.5044880" lon="9.7464260">
        <ele>-15.2</ele>
        <time>2022-06-09T07:23:54Z</time>
      </trkpt>
      <trkpt lat="47.5044880" lon="9.7464260">
        <ele>-15.2</ele>
        <time>2022-06-09T07:23:58Z</time>
      </trkpt>
      <trkpt lat="47.5044880" lon="9.7464260">
        <ele>-15.0</ele>
        <time>2022-06-09T07:24:02Z</time>
      </trkpt>
      <trkpt lat="47.5044880" lon="9.7464260">
        <ele>-15.0</ele>
        <time>2022-06-09T07:24:06Z</time>
      </trkpt>
      <trkpt lat="47.5044880" lon="9.7464260">
        <ele>-14.8</ele>
        <time>2022-06-09T07:24:10Z</time>
      </trkpt>
      <trkpt lat="47.5044880" lon="9.7464260">
        <ele>-15.4</ele>
        <time>2022-06-09T07:24:14Z</time>
      </trkpt>
      <trkpt lat="47.5044880" lon="9.7464260">
        <ele>-15.2</ele>
        <time>2022-06-09T07:24:18Z</time>
      </trkpt>
      <trkpt lat="47.5044880" lon="9.7464260">
        <ele>-15.0</ele>
        <time>2022-06-09T07:24:22Z</time>
      </trkpt>
      <trkpt lat="47.5044880" lon="9.7464260">
        <ele>-15.2</ele>
        <time>2022-06-09T07:24:26Z</time>
      </trkpt>
      <trkpt lat="47.5044880" lon="9.7464260">
        <ele>-15.4</ele>
        <time>2022-06-09T07:24:30Z</time>
      </trkpt>
      <trkpt lat="47.5044880" lon="9.7464260">
        <ele>-15.0</ele>
        <time>2022-06-09T07:24:34Z</time>
      </trkpt>
      <trkpt lat="47.5044880" lon="9.7464260">
        <ele>-15.0</ele>
        <time>2022-06-09T07:24:38Z</time>
      </trkpt>
      <trkpt lat="47.5044880" lon="9.7464260">
        <ele>-14.8</ele>
        <time>2022-06-09T07:24:42Z</time>
      </trkpt>
      <trkpt lat="47.5044880" lon="9.7464260">
        <ele>-14.8</ele>
        <time>2022-06-09T07:24:46Z</time>
      </trkpt>
      <trkpt lat="47.5044880" lon="9.7464260">
        <ele>-15.0</ele>
        <time>2022-06-09T07:24:50Z</time>
      </trkpt>
      <trkpt lat="47.5044880" lon="9.7464260">
        <ele>-15.2</ele>
        <time>2022-06-09T07:24:54Z</time>
      </trkpt>
      <trkpt lat="47.5044880" lon="9.7464260">
        <ele>-15.0</ele>
        <time>2022-06-09T07:24:58Z</time>
      </trkpt>
      <trkpt lat="47.5045760" lon="9.7462800">
        <ele>-15.4</ele>
        <time>2022-06-09T07:25:02Z</time>
      </trkpt>
      <trkpt lat="47.5045760" lon="9.7462800">
        <ele>-15.0</ele>
        <time>2022-06-09T07:25:06Z</time>
      </trkpt>
      <trkpt lat="47.5045760" lon="9.7462800">
        <ele>-15.0</ele>
        <time>2022-06-09T07:25:10Z</time>
      </trkpt>
      <trkpt lat="47.5045760" lon="9.7462800">
        <ele>-15.2</ele>
        <time>2022-06-09T07:25:14Z</time>
      </trkpt>
      <trkpt lat="47.5045880" lon="9.7462530">
        <ele>-15.6</ele>
        <time>2022-06-09T07:25:18Z</time>
      </trkpt>
      <trkpt lat="47.5046080" lon="9.7462380">
        <ele>-15.6</ele>
        <time>2022-06-09T07:25:22Z</time>
      </trkpt>
      <trkpt lat="47.5046080" lon="9.7462380">
        <ele>-15.4</ele>
        <time>2022-06-09T07:25:26Z</time>
      </trkpt>
      <trkpt lat="47.5046080" lon="9.7462380">
        <ele>-15.6</ele>
        <time>2022-06-09T07:25:30Z</time>
      </trkpt>
      <trkpt lat="47.5046080" lon="9.7462380">
        <ele>-15.4</ele>
        <time>2022-06-09T07:25:34Z</time>
      </trkpt>
      <trkpt lat="47.5046080" lon="9.7462380">
        <ele>-15.2</ele>
        <time>2022-06-09T07:25:38Z</time>
      </trkpt>
      <trkpt lat="47.5046080" lon="9.7462380">
        <ele>-15.2</ele>
        <time>2022-06-09T07:25:42Z</time>
      </trkpt>
      <trkpt lat="47.5046080" lon="9.7462380">
        <ele>-15.0</ele>
        <time>2022-06-09T07:25:46Z</time>
      </trkpt>
      <trkpt lat="47.5046580" lon="9.7462700">
        <ele>-15.4</ele>
        <time>2022-06-09T07:25:50Z</time>
      </trkpt>
      <trkpt lat="47.5047600" lon="9.7461360">
        <ele>-15.2</ele>
        <time>2022-06-09T07:25:54Z</time>
      </trkpt>
      <trkpt lat="47.5047600" lon="9.7461360">
        <ele>-15.2</ele>
        <time>2022-06-09T07:25:58Z</time>
      </trkpt>
      <trkpt lat="47.5047600" lon="9.7461360">
        <ele>-15.4</ele>
        <time>2022-06-09T07:26:02Z</time>
      </trkpt>
      <trkpt lat="47.5047600" lon="9.7461360">
        <ele>-15.8</ele>
        <time>2022-06-09T07:26:06Z</time>
      </trkpt>
      <trkpt lat="47.5047600" lon="9.7461360">
        <ele>-16.0</ele>
        <time>2022-06-09T07:26:10Z</time>
      </trkpt>
      <trkpt lat="47.5047600" lon="9.7461360">
        <ele>-15.4</ele>
        <time>2022-06-09T07:26:14Z</time>
      </trkpt>
      <trkpt lat="47.5047600" lon="9.7461360">
        <ele>-15.6</ele>
        <time>2022-06-09T07:26:18Z</time>
      </trkpt>
      <trkpt lat="47.5047600" lon="9.7461360">
        <ele>-15.6</ele>
        <time>2022-06-09T07:26:22Z</time>
      </trkpt>
      <trkpt lat="47.5047600" lon="9.7461360">
        <ele>-15.4</ele>
        <time>2022-06-09T07:26:26Z</time>
      </trkpt>
      <trkpt lat="47.5047600" lon="9.7461360">
        <ele>-15.6</ele>
        <time>2022-06-09T07:26:30Z</time>
      </trkpt>
      <trkpt lat="47.5047600" lon="9.7461360">
        <ele>-15.4</ele>
        <time>2022-06-09T07:26:34Z</time>
      </trkpt>
      <trkpt lat="47.5047600" lon="9.7461360">
        <ele>-15.4</ele>
        <time>2022-06-09T07:26:38Z</time>
      </trkpt>
      <trkpt lat="47.5047600" lon="9.7461360">
        <ele>-15.6</ele>
        <time>2022-06-09T07:26:42Z</time>
      </trkpt>
      <trkpt lat="47.5047600" lon="9.7461360">
        <ele>-15.6</ele>
        <time>2022-06-09T07:26:46Z</time>
      </trkpt>
      <trkpt lat="47.5047600" lon="9.7461360">
        <ele>-15.4</ele>
        <time>2022-06-09T07:26:50Z</time>
      </trkpt>
      <trkpt lat="47.5047600" lon="9.7461360">
        <ele>-15.4</ele>
        <time>2022-06-09T07:26:54Z</time>
      </trkpt>
      <trkpt lat="47.5047600" lon="9.7461360">
        <ele>-15.8</ele>
        <time>2022-06-09T07:26:58Z</time>
      </trkpt>
      <trkpt lat="47.5047600" lon="9.7461360">
        <ele>-15.6</ele>
        <time>2022-06-09T07:27:02Z</time>
      </trkpt>
      <trkpt lat="47.5047600" lon="9.7461360">
        <ele>-15.8</ele>
        <time>2022-06-09T07:27:06Z</time>
      </trkpt>
      <trkpt lat="47.5047600" lon="9.7461360">
        <ele>-15.8</ele>
        <time>2022-06-09T07:27:10Z</time>
      </trkpt>
      <trkpt lat="47.5046750" lon="9.7461030">
        <ele>-15.4</ele>
        <time>2022-06-09T07:27:14Z</time>
      </trkpt>
      <trkpt lat="47.5047310" lon="9.7460460">
        <ele>-15.4</ele>
        <time>2022-06-09T07:27:18Z</time>
      </trkpt>
      <trkpt lat="47.5047800" lon="9.7459550">
        <ele>-15.2</ele>
        <time>2022-06-09T07:27:22Z</time>
      </trkpt>
      <trkpt lat="47.5047530" lon="9.7457710">
        <ele>-15.6</ele>
        <time>2022-06-09T07:27:26Z</time>
      </trkpt>
      <trkpt lat="47.5046950" lon="9.7455730">
        <ele>-15.6</ele>
        <time>2022-06-09T07:27:30Z</time>
      </trkpt>
      <trkpt lat="47.5046150" lon="9.7453730">
        <ele>-15.4</ele>
        <time>2022-06-09T07:27:34Z</time>
      </trkpt>
      <trkpt lat="47.5045210" lon="9.7451630">
        <ele>-15.4</ele>
        <time>2022-06-09T07:27:38Z</time>
      </trkpt>
      <trkpt lat="47.5044310" lon="9.7449460">
        <ele>-15.4</ele>
        <time>2022-06-09T07:27:42Z</time>
      </trkpt>
      <trkpt lat="47.5043310" lon="9.7447210">
        <ele>-15.4</ele>
        <time>2022-06-09T07:27:46Z</time>
      </trkpt>
      <trkpt lat="47.5042350" lon="9.7444950">
        <ele>-15.4</ele>
        <time>2022-06-09T07:27:50Z</time>
      </trkpt>
      <trkpt lat="47.5041350" lon="9.7442650">
        <ele>-15.2</ele>
        <time>2022-06-09T07:27:54Z</time>
      </trkpt>
      <trkpt lat="47.5040350" lon="9.7440160">
        <ele>-15.4</ele>
        <time>2022-06-09T07:27:58Z</time>
      </trkpt>
      <trkpt lat="47.5039280" lon="9.7437650">
        <ele>-15.2</ele>
        <time>2022-06-09T07:28:02Z</time>
      </trkpt>
      <trkpt lat="47.5038410" lon="9.7434860">
        <ele>-15.4</ele>
        <time>2022-06-09T07:28:06Z</time>
      </trkpt>
      <trkpt lat="47.5037650" lon="9.7432200">
        <ele>-15.4</ele>
        <time>2022-06-09T07:28:10Z</time>
      </trkpt>
      <trkpt lat="47.5036900" lon="9.7429660">
        <ele>-15.4</ele>
        <time>2022-06-09T07:28:14Z</time>
      </trkpt>
      <trkpt lat="47.5036150" lon="9.7427060">
        <ele>-15.4</ele>
        <time>2022-06-09T07:28:18Z</time>
      </trkpt>
      <trkpt lat="47.5035330" lon="9.7424500">
        <ele>-15.2</ele>
        <time>2022-06-09T07:28:22Z</time>
      </trkpt>
      <trkpt lat="47.5034550" lon="9.7421980">
        <ele>-15.2</ele>
        <time>2022-06-09T07:28:26Z</time>
      </trkpt>
      <trkpt lat="47.5033830" lon="9.7419580">
        <ele>-15.6</ele>
        <time>2022-06-09T07:28:30Z</time>
      </trkpt>
      <trkpt lat="47.5033380" lon="9.7418050">
        <ele>-15.8</ele>
        <time>2022-06-09T07:28:34Z</time>
      </trkpt>
      <trkpt lat="47.5033380" lon="9.7418050">
        <ele>-16.2</ele>
        <time>2022-06-09T07:28:38Z</time>
      </trkpt>
      <trkpt lat="47.5033200" lon="9.7417660">
        <ele>-15.6</ele>
        <time>2022-06-09T07:28:42Z</time>
      </trkpt>
      <trkpt lat="47.5032960" lon="9.7416850">
        <ele>-15.4</ele>
        <time>2022-06-09T07:28:46Z</time>
      </trkpt>
      <trkpt lat="47.5032510" lon="9.7415110">
        <ele>-16.0</ele>
        <time>2022-06-09T07:28:50Z</time>
      </trkpt>
      <trkpt lat="47.5031830" lon="9.7412950">
        <ele>-15.4</ele>
        <time>2022-06-09T07:28:54Z</time>
      </trkpt>
      <trkpt lat="47.5030910" lon="9.7410730">
        <ele>-15.2</ele>
        <time>2022-06-09T07:28:58Z</time>
      </trkpt>
      <trkpt lat="47.5029360" lon="9.7409100">
        <ele>-15.0</ele>
        <time>2022-06-09T07:29:02Z</time>
      </trkpt>
      <trkpt lat="47.5027450" lon="9.7408710">
        <ele>-15.2</ele>
        <time>2022-06-09T07:29:06Z</time>
      </trkpt>
      <trkpt lat="47.5025480" lon="9.7408800">
        <ele>-14.6</ele>
        <time>2022-06-09T07:29:10Z</time>
      </trkpt>
      <trkpt lat="47.5023560" lon="9.7408630">
        <ele>-15.2</ele>
        <time>2022-06-09T07:29:14Z</time>
      </trkpt>
      <trkpt lat="47.5022650" lon="9.7406730">
        <ele>-15.2</ele>
        <time>2022-06-09T07:29:18Z</time>
      </trkpt>
      <trkpt lat="47.5022480" lon="9.7404200">
        <ele>-15.2</ele>
        <time>2022-06-09T07:29:22Z</time>
      </trkpt>
      <trkpt lat="47.5022530" lon="9.7401960">
        <ele>-14.6</ele>
        <time>2022-06-09T07:29:26Z</time>
      </trkpt>
      <trkpt lat="47.5022330" lon="9.7399710">
        <ele>-14.4</ele>
        <time>2022-06-09T07:29:30Z</time>
      </trkpt>
      <trkpt lat="47.5022210" lon="9.7397200">
        <ele>-14.8</ele>
        <time>2022-06-09T07:29:34Z</time>
      </trkpt>
      <trkpt lat="47.5022430" lon="9.7394700">
        <ele>-14.8</ele>
        <time>2022-06-09T07:29:38Z</time>
      </trkpt>
      <trkpt lat="47.5022400" lon="9.7391860">
        <ele>-14.0</ele>
        <time>2022-06-09T07:29:42Z</time>
      </trkpt>
      <trkpt lat="47.5022180" lon="9.7388960">
        <ele>-14.4</ele>
        <time>2022-06-09T07:29:46Z</time>
      </trkpt>
      <trkpt lat="47.5022010" lon="9.7386380">
        <ele>-14.6</ele>
        <time>2022-06-09T07:29:50Z</time>
      </trkpt>
      <trkpt lat="47.5021900" lon="9.7383880">
        <ele>-14.6</ele>
        <time>2022-06-09T07:29:54Z</time>
      </trkpt>
      <trkpt lat="47.5021630" lon="9.7381800">
        <ele>-15.2</ele>
        <time>2022-06-09T07:29:58Z</time>
      </trkpt>
      <trkpt lat="47.5021480" lon="9.7379800">
        <ele>-15.0</ele>
        <time>2022-06-09T07:30:02Z</time>
      </trkpt>
      <trkpt lat="47.5021150" lon="9.7377830">
        <ele>-15.2</ele>
        <time>2022-06-09T07:30:06Z</time>
      </trkpt>
      <trkpt lat="47.5020910" lon="9.7375800">
        <ele>-14.8</ele>
        <time>2022-06-09T07:30:10Z</time>
      </trkpt>
      <trkpt lat="47.5020700" lon="9.7373750">
        <ele>-15.4</ele>
        <time>2022-06-09T07:30:14Z</time>
      </trkpt>
      <trkpt lat="47.5020050" lon="9.7372230">
        <ele>-15.0</ele>
        <time>2022-06-09T07:30:18Z</time>
      </trkpt>
      <trkpt lat="47.5019480" lon="9.7370810">
        <ele>-14.2</ele>
        <time>2022-06-09T07:30:22Z</time>
      </trkpt>
      <trkpt lat="47.5019100" lon="9.7369160">
        <ele>-15.2</ele>
        <time>2022-06-09T07:30:26Z</time>
      </trkpt>
      <trkpt lat="47.5018980" lon="9.7367180">
        <ele>-14.8</ele>
        <time>2022-06-09T07:30:30Z</time>
      </trkpt>
      <trkpt lat="47.5018530" lon="9.7364930">
        <ele>-14.6</ele>
        <time>2022-06-09T07:30:34Z</time>
      </trkpt>
      <trkpt lat="47.5017710" lon="9.7363150">
        <ele>-14.6</ele>
        <time>2022-06-09T07:30:38Z</time>
      </trkpt>
      <trkpt lat="47.5016410" lon="9.7362980">
        <ele>-14.2</ele>
        <time>2022-06-09T07:30:42Z</time>
      </trkpt>
      <trkpt lat="47.5015930" lon="9.7363310">
        <ele>-14.4</ele>
        <time>2022-06-09T07:30:46Z</time>
      </trkpt>
      <trkpt lat="47.5015930" lon="9.7363310">
        <ele>-14.4</ele>
        <time>2022-06-09T07:30:50Z</time>
      </trkpt>
      <trkpt lat="47.5015930" lon="9.7363310">
        <ele>-14.4</ele>
        <time>2022-06-09T07:30:54Z</time>
      </trkpt>
      <trkpt lat="47.5015930" lon="9.7363310">
        <ele>-14.2</ele>
        <time>2022-06-09T07:30:58Z</time>
      </trkpt>
      <trkpt lat="47.5015930" lon="9.7363310">
        <ele>-14.4</ele>
        <time>2022-06-09T07:31:02Z</time>
      </trkpt>
      <trkpt lat="47.5015930" lon="9.7363310">
        <ele>-14.4</ele>
        <time>2022-06-09T07:31:06Z</time>
      </trkpt>
      <trkpt lat="47.5015930" lon="9.7363310">
        <ele>-14.2</ele>
        <time>2022-06-09T07:31:10Z</time>
      </trkpt>
      <trkpt lat="47.5015930" lon="9.7363310">
        <ele>-14.2</ele>
        <time>2022-06-09T07:31:14Z</time>
      </trkpt>
      <trkpt lat="47.5015930" lon="9.7363310">
        <ele>-14.2</ele>
        <time>2022-06-09T07:31:18Z</time>
      </trkpt>
      <trkpt lat="47.5015930" lon="9.7363310">
        <ele>-14.6</ele>
        <time>2022-06-09T07:31:22Z</time>
      </trkpt>
      <trkpt lat="47.5015930" lon="9.7363310">
        <ele>-14.6</ele>
        <time>2022-06-09T07:31:26Z</time>
      </trkpt>
      <trkpt lat="47.5015930" lon="9.7363310">
        <ele>-14.2</ele>
        <time>2022-06-09T07:31:30Z</time>
      </trkpt>
      <trkpt lat="47.5015800" lon="9.7363530">
        <ele>-14.4</ele>
        <time>2022-06-09T07:31:34Z</time>
      </trkpt>
      <trkpt lat="47.5015130" lon="9.7364080">
        <ele>-14.6</ele>
        <time>2022-06-09T07:31:38Z</time>
      </trkpt>
      <trkpt lat="47.5014000" lon="9.7364430">
        <ele>-14.8</ele>
        <time>2022-06-09T07:31:42Z</time>
      </trkpt>
      <trkpt lat="47.5013330" lon="9.7365600">
        <ele>-14.6</ele>
        <time>2022-06-09T07:31:46Z</time>
      </trkpt>
      <trkpt lat="47.5013400" lon="9.7367280">
        <ele>-13.2</ele>
        <time>2022-06-09T07:31:50Z</time>
      </trkpt>
      <trkpt lat="47.5013860" lon="9.7368510">
        <ele>-11.8</ele>
        <time>2022-06-09T07:31:54Z</time>
      </trkpt>
      <trkpt lat="47.5014600" lon="9.7369250">
        <ele>-11.0</ele>
        <time>2022-06-09T07:31:58Z</time>
      </trkpt>
      <trkpt lat="47.5014750" lon="9.7370210">
        <ele>-10.6</ele>
        <time>2022-06-09T07:32:02Z</time>
      </trkpt>
      <trkpt lat="47.5015410" lon="9.7370600">
        <ele>-10.0</ele>
        <time>2022-06-09T07:32:06Z</time>
      </trkpt>
      <trkpt lat="47.5016300" lon="9.7370530">
        <ele>-9.2</ele>
        <time>2022-06-09T07:32:10Z</time>
      </trkpt>
      <trkpt lat="47.5017210" lon="9.7370460">
        <ele>-9.0</ele>
        <time>2022-06-09T07:32:14Z</time>
      </trkpt>
      <trkpt lat="47.5018150" lon="9.7370450">
        <ele>-8.0</ele>
        <time>2022-06-09T07:32:18Z</time>
      </trkpt>
      <trkpt lat="47.5019250" lon="9.7370380">
        <ele>-7.4</ele>
        <time>2022-06-09T07:32:22Z</time>
      </trkpt>
      <trkpt lat="47.5020380" lon="9.7370080">
        <ele>-7.2</ele>
        <time>2022-06-09T07:32:26Z</time>
      </trkpt>
      <trkpt lat="47.5021710" lon="9.7369880">
        <ele>-6.4</ele>
        <time>2022-06-09T07:32:30Z</time>
      </trkpt>
      <trkpt lat="47.5023130" lon="9.7369680">
        <ele>-6.8</ele>
        <time>2022-06-09T07:32:34Z</time>
      </trkpt>
      <trkpt lat="47.5024700" lon="9.7369630">
        <ele>-7.2</ele>
        <time>2022-06-09T07:32:38Z</time>
      </trkpt>
      <trkpt lat="47.5026310" lon="9.7369460">
        <ele>-8.0</ele>
        <time>2022-06-09T07:32:42Z</time>
      </trkpt>
      <trkpt lat="47.5027860" lon="9.7369010">
        <ele>-8.8</ele>
        <time>2022-06-09T07:32:46Z</time>
      </trkpt>
      <trkpt lat="47.5029600" lon="9.7367250">
        <ele>-10.4</ele>
        <time>2022-06-09T07:32:50Z</time>
      </trkpt>
      <trkpt lat="47.5030660" lon="9.7364160">
        <ele>-11.8</ele>
        <time>2022-06-09T07:32:54Z</time>
      </trkpt>
      <trkpt lat="47.5030810" lon="9.7360510">
        <ele>-13.6</ele>
        <time>2022-06-09T07:32:58Z</time>
      </trkpt>
      <trkpt lat="47.5030400" lon="9.7356730">
        <ele>-14.6</ele>
        <time>2022-06-09T07:33:02Z</time>
      </trkpt>
      <trkpt lat="47.5029680" lon="9.7353110">
        <ele>-15.8</ele>
        <time>2022-06-09T07:33:06Z</time>
      </trkpt>
      <trkpt lat="47.5029300" lon="9.7349600">
        <ele>-15.4</ele>
        <time>2022-06-09T07:33:10Z</time>
      </trkpt>
      <trkpt lat="47.5029360" lon="9.7346210">
        <ele>-15.6</ele>
        <time>2022-06-09T07:33:14Z</time>
      </trkpt>
      <trkpt lat="47.5029130" lon="9.7343160">
        <ele>-15.6</ele>
        <time>2022-06-09T07:33:18Z</time>
      </trkpt>
      <trkpt lat="47.5029050" lon="9.7340350">
        <ele>-15.0</ele>
        <time>2022-06-09T07:33:22Z</time>
      </trkpt>
      <trkpt lat="47.5029000" lon="9.7337460">
        <ele>-15.0</ele>
        <time>2022-06-09T07:33:26Z</time>
      </trkpt>
      <trkpt lat="47.5029050" lon="9.7334780">
        <ele>-15.0</ele>
        <time>2022-06-09T07:33:30Z</time>
      </trkpt>
      <trkpt lat="47.5029450" lon="9.7331880">
        <ele>-14.8</ele>
        <time>2022-06-09T07:33:34Z</time>
      </trkpt>
      <trkpt lat="47.5029630" lon="9.7328960">
        <ele>-15.8</ele>
        <time>2022-06-09T07:33:38Z</time>
      </trkpt>
      <trkpt lat="47.5029800" lon="9.7326100">
        <ele>-15.4</ele>
        <time>2022-06-09T07:33:42Z</time>
      </trkpt>
      <trkpt lat="47.5029910" lon="9.7323130">
        <ele>-15.6</ele>
        <time>2022-06-09T07:33:46Z</time>
      </trkpt>
      <trkpt lat="47.5029780" lon="9.7320230">
        <ele>-15.2</ele>
        <time>2022-06-09T07:33:50Z</time>
      </trkpt>
      <trkpt lat="47.5029430" lon="9.7317380">
        <ele>-15.2</ele>
        <time>2022-06-09T07:33:54Z</time>
      </trkpt>
      <trkpt lat="47.5028950" lon="9.7314550">
        <ele>-15.4</ele>
        <time>2022-06-09T07:33:58Z</time>
      </trkpt>
      <trkpt lat="47.5028500" lon="9.7311710">
        <ele>-15.4</ele>
        <time>2022-06-09T07:34:02Z</time>
      </trkpt>
      <trkpt lat="47.5028000" lon="9.7309010">
        <ele>-15.4</ele>
        <time>2022-06-09T07:34:06Z</time>
      </trkpt>
      <trkpt lat="47.5027550" lon="9.7306330">
        <ele>-15.0</ele>
        <time>2022-06-09T07:34:10Z</time>
      </trkpt>
      <trkpt lat="47.5027230" lon="9.7303610">
        <ele>-15.0</ele>
        <time>2022-06-09T07:34:14Z</time>
      </trkpt>
      <trkpt lat="47.5027000" lon="9.7301060">
        <ele>-14.8</ele>
        <time>2022-06-09T07:34:18Z</time>
      </trkpt>
      <trkpt lat="47.5026900" lon="9.7298350">
        <ele>-15.0</ele>
        <time>2022-06-09T07:34:22Z</time>
      </trkpt>
      <trkpt lat="47.5026960" lon="9.7295580">
        <ele>-15.2</ele>
        <time>2022-06-09T07:34:26Z</time>
      </trkpt>
      <trkpt lat="47.5027100" lon="9.7292800">
        <ele>-14.8</ele>
        <time>2022-06-09T07:34:30Z</time>
      </trkpt>
      <trkpt lat="47.5027200" lon="9.7289930">
        <ele>-14.6</ele>
        <time>2022-06-09T07:34:34Z</time>
      </trkpt>
      <trkpt lat="47.5027130" lon="9.7286980">
        <ele>-14.6</ele>
        <time>2022-06-09T07:34:38Z</time>
      </trkpt>
      <trkpt lat="47.5027210" lon="9.7284080">
        <ele>-14.4</ele>
        <time>2022-06-09T07:34:42Z</time>
      </trkpt>
      <trkpt lat="47.5027310" lon="9.7281180">
        <ele>-14.8</ele>
        <time>2022-06-09T07:34:46Z</time>
      </trkpt>
      <trkpt lat="47.5027360" lon="9.7278210">
        <ele>-14.6</ele>
        <time>2022-06-09T07:34:50Z</time>
      </trkpt>
      <trkpt lat="47.5027510" lon="9.7275230">
        <ele>-14.8</ele>
        <time>2022-06-09T07:34:54Z</time>
      </trkpt>
      <trkpt lat="47.5027430" lon="9.7272280">
        <ele>-15.0</ele>
        <time>2022-06-09T07:34:58Z</time>
      </trkpt>
      <trkpt lat="47.5027860" lon="9.7269410">
        <ele>-14.6</ele>
        <time>2022-06-09T07:35:02Z</time>
      </trkpt>
      <trkpt lat="47.5027630" lon="9.7266230">
        <ele>-14.8</ele>
        <time>2022-06-09T07:35:06Z</time>
      </trkpt>
      <trkpt lat="47.5027710" lon="9.7263150">
        <ele>-16.0</ele>
        <time>2022-06-09T07:35:10Z</time>
      </trkpt>
      <trkpt lat="47.5028330" lon="9.7260280">
        <ele>-15.4</ele>
        <time>2022-06-09T07:35:14Z</time>
      </trkpt>
      <trkpt lat="47.5028900" lon="9.7257410">
        <ele>-15.2</ele>
        <time>2022-06-09T07:35:18Z</time>
      </trkpt>
      <trkpt lat="47.5029410" lon="9.7254480">
        <ele>-15.8</ele>
        <time>2022-06-09T07:35:22Z</time>
      </trkpt>
      <trkpt lat="47.5029950" lon="9.7251550">
        <ele>-14.8</ele>
        <time>2022-06-09T07:35:26Z</time>
      </trkpt>
      <trkpt lat="47.5030460" lon="9.7248610">
        <ele>-15.6</ele>
        <time>2022-06-09T07:35:30Z</time>
      </trkpt>
      <trkpt lat="47.5031030" lon="9.7245660">
        <ele>-15.4</ele>
        <time>2022-06-09T07:35:34Z</time>
      </trkpt>
      <trkpt lat="47.5031280" lon="9.7242650">
        <ele>-15.2</ele>
        <time>2022-06-09T07:35:38Z</time>
      </trkpt>
      <trkpt lat="47.5031060" lon="9.7239530">
        <ele>-15.0</ele>
        <time>2022-06-09T07:35:42Z</time>
      </trkpt>
      <trkpt lat="47.5030410" lon="9.7236500">
        <ele>-15.0</ele>
        <time>2022-06-09T07:35:46Z</time>
      </trkpt>
      <trkpt lat="47.5029750" lon="9.7233630">
        <ele>-15.0</ele>
        <time>2022-06-09T07:35:50Z</time>
      </trkpt>
      <trkpt lat="47.5029160" lon="9.7230630">
        <ele>-14.6</ele>
        <time>2022-06-09T07:35:54Z</time>
      </trkpt>
      <trkpt lat="47.5028480" lon="9.7227700">
        <ele>-14.8</ele>
        <time>2022-06-09T07:35:58Z</time>
      </trkpt>
      <trkpt lat="47.5027850" lon="9.7224780">
        <ele>-14.6</ele>
        <time>2022-06-09T07:36:02Z</time>
      </trkpt>
      <trkpt lat="47.5027300" lon="9.7221780">
        <ele>-14.6</ele>
        <time>2022-06-09T07:36:06Z</time>
      </trkpt>
      <trkpt lat="47.5026880" lon="9.7218710">
        <ele>-14.6</ele>
        <time>2022-06-09T07:36:10Z</time>
      </trkpt>
      <trkpt lat="47.5026630" lon="9.7215650">
        <ele>-14.4</ele>
        <time>2022-06-09T07:36:14Z</time>
      </trkpt>
      <trkpt lat="47.5026400" lon="9.7212660">
        <ele>-14.6</ele>
        <time>2022-06-09T07:36:18Z</time>
      </trkpt>
      <trkpt lat="47.5026310" lon="9.7209600">
        <ele>-14.6</ele>
        <time>2022-06-09T07:36:22Z</time>
      </trkpt>
      <trkpt lat="47.5026410" lon="9.7206510">
        <ele>-14.6</ele>
        <time>2022-06-09T07:36:26Z</time>
      </trkpt>
      <trkpt lat="47.5026500" lon="9.7203550">
        <ele>-15.0</ele>
        <time>2022-06-09T07:36:30Z</time>
      </trkpt>
      <trkpt lat="47.5026650" lon="9.7200580">
        <ele>-14.6</ele>
        <time>2022-06-09T07:36:34Z</time>
      </trkpt>
      <trkpt lat="47.5026760" lon="9.7197610">
        <ele>-14.2</ele>
        <time>2022-06-09T07:36:38Z</time>
      </trkpt>
      <trkpt lat="47.5026850" lon="9.7194630">
        <ele>-13.8</ele>
        <time>2022-06-09T07:36:42Z</time>
      </trkpt>
      <trkpt lat="47.5026910" lon="9.7191880">
        <ele>-14.4</ele>
        <time>2022-06-09T07:36:46Z</time>
      </trkpt>
      <trkpt lat="47.5026930" lon="9.7189330">
        <ele>-14.0</ele>
        <time>2022-06-09T07:36:50Z</time>
      </trkpt>
      <trkpt lat="47.5026400" lon="9.7186600">
        <ele>-14.4</ele>
        <time>2022-06-09T07:36:54Z</time>
      </trkpt>
      <trkpt lat="47.5025980" lon="9.7183830">
        <ele>-14.2</ele>
        <time>2022-06-09T07:36:58Z</time>
      </trkpt>
      <trkpt lat="47.5025560" lon="9.7180900">
        <ele>-14.8</ele>
        <time>2022-06-09T07:37:02Z</time>
      </trkpt>
      <trkpt lat="47.5025100" lon="9.7177930">
        <ele>-14.0</ele>
        <time>2022-06-09T07:37:06Z</time>
      </trkpt>
      <trkpt lat="47.5024700" lon="9.7175110">
        <ele>-14.0</ele>
        <time>2022-06-09T07:37:10Z</time>
      </trkpt>
      <trkpt lat="47.5024200" lon="9.7172400">
        <ele>-13.6</ele>
        <time>2022-06-09T07:37:14Z</time>
      </trkpt>
      <trkpt lat="47.5023780" lon="9.7169550">
        <ele>-14.2</ele>
        <time>2022-06-09T07:37:18Z</time>
      </trkpt>
      <trkpt lat="47.5023450" lon="9.7166880">
        <ele>-13.8</ele>
        <time>2022-06-09T07:37:22Z</time>
      </trkpt>
      <trkpt lat="47.5023500" lon="9.7164780">
        <ele>-14.2</ele>
        <time>2022-06-09T07:37:26Z</time>
      </trkpt>
      <trkpt lat="47.5024260" lon="9.7162760">
        <ele>-14.6</ele>
        <time>2022-06-09T07:37:30Z</time>
      </trkpt>
      <trkpt lat="47.5025350" lon="9.7160760">
        <ele>-14.6</ele>
        <time>2022-06-09T07:37:34Z</time>
      </trkpt>
      <trkpt lat="47.5026560" lon="9.7158630">
        <ele>-15.4</ele>
        <time>2022-06-09T07:37:38Z</time>
      </trkpt>
      <trkpt lat="47.5027800" lon="9.7156430">
        <ele>-14.6</ele>
        <time>2022-06-09T07:37:42Z</time>
      </trkpt>
      <trkpt lat="47.5029000" lon="9.7154360">
        <ele>-14.8</ele>
        <time>2022-06-09T07:37:46Z</time>
      </trkpt>
      <trkpt lat="47.5030160" lon="9.7152900">
        <ele>-14.8</ele>
        <time>2022-06-09T07:37:50Z</time>
      </trkpt>
      <trkpt lat="47.5030960" lon="9.7152480">
        <ele>-14.6</ele>
        <time>2022-06-09T07:37:54Z</time>
      </trkpt>
      <trkpt lat="47.5030530" lon="9.7152150">
        <ele>-14.6</ele>
        <time>2022-06-09T07:37:58Z</time>
      </trkpt>
      <trkpt lat="47.5029960" lon="9.7152010">
        <ele>-14.8</ele>
        <time>2022-06-09T07:38:02Z</time>
      </trkpt>
      <trkpt lat="47.5029050" lon="9.7151930">
        <ele>-14.0</ele>
        <time>2022-06-09T07:38:06Z</time>
      </trkpt>
      <trkpt lat="47.5028210" lon="9.7150450">
        <ele>-14.2</ele>
        <time>2022-06-09T07:38:10Z</time>
      </trkpt>
      <trkpt lat="47.5028080" lon="9.7149210">
        <ele>-14.6</ele>
        <time>2022-06-09T07:38:14Z</time>
      </trkpt>
      <trkpt lat="47.5028080" lon="9.7149210">
        <ele>-14.8</ele>
        <time>2022-06-09T07:38:18Z</time>
      </trkpt>
      <trkpt lat="47.5028080" lon="9.7149210">
        <ele>-15.0</ele>
        <time>2022-06-09T07:38:22Z</time>
      </trkpt>
      <trkpt lat="47.5028350" lon="9.7148760">
        <ele>-14.6</ele>
        <time>2022-06-09T07:38:26Z</time>
      </trkpt>
      <trkpt lat="47.5028350" lon="9.7148760">
        <ele>-15.0</ele>
        <time>2022-06-09T07:38:30Z</time>
      </trkpt>
      <trkpt lat="47.5028350" lon="9.7148760">
        <ele>-14.6</ele>
        <time>2022-06-09T07:38:34Z</time>
      </trkpt>
      <trkpt lat="47.5028350" lon="9.7148760">
        <ele>-14.6</ele>
        <time>2022-06-09T07:38:38Z</time>
      </trkpt>
      <trkpt lat="47.5028350" lon="9.7148760">
        <ele>-15.0</ele>
        <time>2022-06-09T07:38:42Z</time>
      </trkpt>
      <trkpt lat="47.5028350" lon="9.7148760">
        <ele>-15.2</ele>
        <time>2022-06-09T07:38:46Z</time>
      </trkpt>
      <trkpt lat="47.5028350" lon="9.7148760">
        <ele>-14.8</ele>
        <time>2022-06-09T07:38:50Z</time>
      </trkpt>
      <trkpt lat="47.5028350" lon="9.7148760">
        <ele>-14.8</ele>
        <time>2022-06-09T07:38:54Z</time>
      </trkpt>
      <trkpt lat="47.5028350" lon="9.7148760">
        <ele>-14.6</ele>
        <time>2022-06-09T07:38:58Z</time>
      </trkpt>
      <trkpt lat="47.5028350" lon="9.7148760">
        <ele>-14.6</ele>
        <time>2022-06-09T07:39:02Z</time>
      </trkpt>
      <trkpt lat="47.5028350" lon="9.7148760">
        <ele>-14.6</ele>
        <time>2022-06-09T07:39:06Z</time>
      </trkpt>
      <trkpt lat="47.5028350" lon="9.7148760">
        <ele>-14.6</ele>
        <time>2022-06-09T07:39:10Z</time>
      </trkpt>
      <trkpt lat="47.5028350" lon="9.7148760">
        <ele>-14.6</ele>
        <time>2022-06-09T07:39:14Z</time>
      </trkpt>
      <trkpt lat="47.5028350" lon="9.7148760">
        <ele>-14.8</ele>
        <time>2022-06-09T07:39:18Z</time>
      </trkpt>
      <trkpt lat="47.5028350" lon="9.7148760">
        <ele>-14.6</ele>
        <time>2022-06-09T07:39:22Z</time>
      </trkpt>
      <trkpt lat="47.5028350" lon="9.7148760">
        <ele>-14.6</ele>
        <time>2022-06-09T07:39:26Z</time>
      </trkpt>
      <trkpt lat="47.5028350" lon="9.7148760">
        <ele>-15.0</ele>
        <time>2022-06-09T07:39:30Z</time>
      </trkpt>
      <trkpt lat="47.5028350" lon="9.7148760">
        <ele>-14.6</ele>
        <time>2022-06-09T07:39:34Z</time>
      </trkpt>
      <trkpt lat="47.5028350" lon="9.7148760">
        <ele>-14.8</ele>
        <time>2022-06-09T07:39:38Z</time>
      </trkpt>
      <trkpt lat="47.5028350" lon="9.7148760">
        <ele>-14.6</ele>
        <time>2022-06-09T07:39:42Z</time>
      </trkpt>
      <trkpt lat="47.5028350" lon="9.7148760">
        <ele>-14.4</ele>
        <time>2022-06-09T07:39:46Z</time>
      </trkpt>
      <trkpt lat="47.5028350" lon="9.7148760">
        <ele>-14.8</ele>
        <time>2022-06-09T07:39:50Z</time>
      </trkpt>
      <trkpt lat="47.5028350" lon="9.7148760">
        <ele>-15.0</ele>
        <time>2022-06-09T07:39:54Z</time>
      </trkpt>
      <trkpt lat="47.5028350" lon="9.7148760">
        <ele>-14.6</ele>
        <time>2022-06-09T07:39:58Z</time>
      </trkpt>
      <trkpt lat="47.5028350" lon="9.7148760">
        <ele>-15.0</ele>
        <time>2022-06-09T07:40:02Z</time>
      </trkpt>
      <trkpt lat="47.5028350" lon="9.7148760">
        <ele>-14.8</ele>
        <time>2022-06-09T07:40:06Z</time>
      </trkpt>
      <trkpt lat="47.5028350" lon="9.7148760">
        <ele>-15.0</ele>
        <time>2022-06-09T07:40:10Z</time>
      </trkpt>
      <trkpt lat="47.5028350" lon="9.7148760">
        <ele>-15.4</ele>
        <time>2022-06-09T07:40:14Z</time>
      </trkpt>
      <trkpt lat="47.5028350" lon="9.7148760">
        <ele>-15.0</ele>
        <time>2022-06-09T07:40:18Z</time>
      </trkpt>
      <trkpt lat="47.5028350" lon="9.7148760">
        <ele>-15.0</ele>
        <time>2022-06-09T07:40:22Z</time>
      </trkpt>
      <trkpt lat="47.5028350" lon="9.7148760">
        <ele>-15.0</ele>
        <time>2022-06-09T07:40:26Z</time>
      </trkpt>
      <trkpt lat="47.5028350" lon="9.7148760">
        <ele>-15.2</ele>
        <time>2022-06-09T07:40:30Z</time>
      </trkpt>
      <trkpt lat="47.5028350" lon="9.7148760">
        <ele>-15.4</ele>
        <time>2022-06-09T07:40:34Z</time>
      </trkpt>
      <trkpt lat="47.5028350" lon="9.7148760">
        <ele>-15.4</ele>
        <time>2022-06-09T07:40:38Z</time>
      </trkpt>
      <trkpt lat="47.5028350" lon="9.7148760">
        <ele>-15.2</ele>
        <time>2022-06-09T07:40:42Z</time>
      </trkpt>
      <trkpt lat="47.5028350" lon="9.7148760">
        <ele>-15.4</ele>
        <time>2022-06-09T07:40:46Z</time>
      </trkpt>
      <trkpt lat="47.5028350" lon="9.7148760">
        <ele>-15.4</ele>
        <time>2022-06-09T07:40:50Z</time>
      </trkpt>
      <trkpt lat="47.5028350" lon="9.7148760">
        <ele>-15.6</ele>
        <time>2022-06-09T07:40:54Z</time>
      </trkpt>
      <trkpt lat="47.5028350" lon="9.7148760">
        <ele>-15.4</ele>
        <time>2022-06-09T07:40:58Z</time>
      </trkpt>
      <trkpt lat="47.5028350" lon="9.7148760">
        <ele>-15.4</ele>
        <time>2022-06-09T07:41:02Z</time>
      </trkpt>
      <trkpt lat="47.5028350" lon="9.7148760">
        <ele>-15.8</ele>
        <time>2022-06-09T07:41:06Z</time>
      </trkpt>
      <trkpt lat="47.5028350" lon="9.7148760">
        <ele>-15.4</ele>
        <time>2022-06-09T07:41:10Z</time>
      </trkpt>
      <trkpt lat="47.5028350" lon="9.7148760">
        <ele>-15.0</ele>
        <time>2022-06-09T07:41:14Z</time>
      </trkpt>
      <trkpt lat="47.5028350" lon="9.7148760">
        <ele>-15.6</ele>
        <time>2022-06-09T07:41:18Z</time>
      </trkpt>
      <trkpt lat="47.5028350" lon="9.7148760">
        <ele>-15.4</ele>
        <time>2022-06-09T07:41:22Z</time>
      </trkpt>
      <trkpt lat="47.5028350" lon="9.7148760">
        <ele>-15.6</ele>
        <time>2022-06-09T07:41:26Z</time>
      </trkpt>
      <trkpt lat="47.5028350" lon="9.7148760">
        <ele>-15.2</ele>
        <time>2022-06-09T07:41:30Z</time>
      </trkpt>
      <trkpt lat="47.5028350" lon="9.7148760">
        <ele>-15.0</ele>
        <time>2022-06-09T07:41:34Z</time>
      </trkpt>
      <trkpt lat="47.5028350" lon="9.7148760">
        <ele>-15.4</ele>
        <time>2022-06-09T07:41:38Z</time>
      </trkpt>
      <trkpt lat="47.5028350" lon="9.7148760">
        <ele>-15.2</ele>
        <time>2022-06-09T07:41:42Z</time>
      </trkpt>
      <trkpt lat="47.5028350" lon="9.7148760">
        <ele>-15.2</ele>
        <time>2022-06-09T07:41:46Z</time>
      </trkpt>
      <trkpt lat="47.5028350" lon="9.7148760">
        <ele>-15.2</ele>
        <time>2022-06-09T07:41:50Z</time>
      </trkpt>
      <trkpt lat="47.5028350" lon="9.7148760">
        <ele>-15.4</ele>
        <time>2022-06-09T07:41:54Z</time>
      </trkpt>
      <trkpt lat="47.5028350" lon="9.7148760">
        <ele>-15.8</ele>
        <time>2022-06-09T07:41:58Z</time>
      </trkpt>
      <trkpt lat="47.5028350" lon="9.7148760">
        <ele>-15.6</ele>
        <time>2022-06-09T07:42:02Z</time>
      </trkpt>
      <trkpt lat="47.5028350" lon="9.7148760">
        <ele>-15.4</ele>
        <time>2022-06-09T07:42:06Z</time>
      </trkpt>
      <trkpt lat="47.5028350" lon="9.7148760">
        <ele>-15.6</ele>
        <time>2022-06-09T07:42:10Z</time>
      </trkpt>
      <trkpt lat="47.5028350" lon="9.7148760">
        <ele>-15.8</ele>
        <time>2022-06-09T07:42:14Z</time>
      </trkpt>
      <trkpt lat="47.5028350" lon="9.7148760">
        <ele>-15.6</ele>
        <time>2022-06-09T07:42:18Z</time>
      </trkpt>
      <trkpt lat="47.5028350" lon="9.7148760">
        <ele>-15.8</ele>
        <time>2022-06-09T07:42:22Z</time>
      </trkpt>
      <trkpt lat="47.5028460" lon="9.7149110">
        <ele>-15.8</ele>
        <time>2022-06-09T07:42:26Z</time>
      </trkpt>
      <trkpt lat="47.5028300" lon="9.7149180">
        <ele>-15.8</ele>
        <time>2022-06-09T07:42:30Z</time>
      </trkpt>
      <trkpt lat="47.5028200" lon="9.7149210">
        <ele>-15.4</ele>
        <time>2022-06-09T07:42:34Z</time>
      </trkpt>
      <trkpt lat="47.5027700" lon="9.7149110">
        <ele>-15.4</ele>
        <time>2022-06-09T07:42:38Z</time>
      </trkpt>
      <trkpt lat="47.5027000" lon="9.7147860">
        <ele>-15.6</ele>
        <time>2022-06-09T07:42:42Z</time>
      </trkpt>
      <trkpt lat="47.5026130" lon="9.7146030">
        <ele>-15.6</ele>
        <time>2022-06-09T07:42:46Z</time>
      </trkpt>
      <trkpt lat="47.5025310" lon="9.7144050">
        <ele>-15.6</ele>
        <time>2022-06-09T07:42:50Z</time>
      </trkpt>
      <trkpt lat="47.5024550" lon="9.7142050">
        <ele>-15.4</ele>
        <time>2022-06-09T07:42:54Z</time>
      </trkpt>
      <trkpt lat="47.5023730" lon="9.7140060">
        <ele>-15.2</ele>
        <time>2022-06-09T07:42:58Z</time>
      </trkpt>
      <trkpt lat="47.5023000" lon="9.7137860">
        <ele>-15.6</ele>
        <time>2022-06-09T07:43:02Z</time>
      </trkpt>
      <trkpt lat="47.5022830" lon="9.7135500">
        <ele>-15.6</ele>
        <time>2022-06-09T07:43:06Z</time>
      </trkpt>
      <trkpt lat="47.5022630" lon="9.7133200">
        <ele>-15.2</ele>
        <time>2022-06-09T07:43:10Z</time>
      </trkpt>
      <trkpt lat="47.5021210" lon="9.7132330">
        <ele>-15.2</ele>
        <time>2022-06-09T07:43:14Z</time>
      </trkpt>
      <trkpt lat="47.5019510" lon="9.7131960">
        <ele>-14.6</ele>
        <time>2022-06-09T07:43:18Z</time>
      </trkpt>
      <trkpt lat="47.5017960" lon="9.7131730">
        <ele>-14.0</ele>
        <time>2022-06-09T07:43:22Z</time>
      </trkpt>
      <trkpt lat="47.5017050" lon="9.7130010">
        <ele>-15.0</ele>
        <time>2022-06-09T07:43:26Z</time>
      </trkpt>
      <trkpt lat="47.5017100" lon="9.7127300">
        <ele>-15.0</ele>
        <time>2022-06-09T07:43:30Z</time>
      </trkpt>
      <trkpt lat="47.5017150" lon="9.7124530">
        <ele>-14.8</ele>
        <time>2022-06-09T07:43:34Z</time>
      </trkpt>
      <trkpt lat="47.5017160" lon="9.7121750">
        <ele>-15.6</ele>
        <time>2022-06-09T07:43:38Z</time>
      </trkpt>
      <trkpt lat="47.5017110" lon="9.7118860">
        <ele>-15.2</ele>
        <time>2022-06-09T07:43:42Z</time>
      </trkpt>
      <trkpt lat="47.5017110" lon="9.7115980">
        <ele>-15.4</ele>
        <time>2022-06-09T07:43:46Z</time>
      </trkpt>
      <trkpt lat="47.5017060" lon="9.7113130">
        <ele>-15.0</ele>
        <time>2022-06-09T07:43:50Z</time>
      </trkpt>
      <trkpt lat="47.5017060" lon="9.7110230">
        <ele>-15.2</ele>
        <time>2022-06-09T07:43:54Z</time>
      </trkpt>
      <trkpt lat="47.5017030" lon="9.7107410">
        <ele>-15.4</ele>
        <time>2022-06-09T07:43:58Z</time>
      </trkpt>
      <trkpt lat="47.5017010" lon="9.7104660">
        <ele>-15.2</ele>
        <time>2022-06-09T07:44:02Z</time>
      </trkpt>
      <trkpt lat="47.5016980" lon="9.7102310">
        <ele>-14.6</ele>
        <time>2022-06-09T07:44:06Z</time>
      </trkpt>
      <trkpt lat="47.5016580" lon="9.7100460">
        <ele>-15.4</ele>
        <time>2022-06-09T07:44:10Z</time>
      </trkpt>
      <trkpt lat="47.5015550" lon="9.7098410">
        <ele>-15.2</ele>
        <time>2022-06-09T07:44:14Z</time>
      </trkpt>
      <trkpt lat="47.5014510" lon="9.7096280">
        <ele>-15.2</ele>
        <time>2022-06-09T07:44:18Z</time>
      </trkpt>
      <trkpt lat="47.5013500" lon="9.7094160">
        <ele>-14.8</ele>
        <time>2022-06-09T07:44:22Z</time>
      </trkpt>
      <trkpt lat="47.5012380" lon="9.7092010">
        <ele>-14.6</ele>
        <time>2022-06-09T07:44:26Z</time>
      </trkpt>
      <trkpt lat="47.5011300" lon="9.7089830">
        <ele>-14.6</ele>
        <time>2022-06-09T07:44:30Z</time>
      </trkpt>
      <trkpt lat="47.5010280" lon="9.7087580">
        <ele>-14.8</ele>
        <time>2022-06-09T07:44:34Z</time>
      </trkpt>
      <trkpt lat="47.5009410" lon="9.7085160">
        <ele>-14.4</ele>
        <time>2022-06-09T07:44:38Z</time>
      </trkpt>
      <trkpt lat="47.5009280" lon="9.7082250">
        <ele>-14.4</ele>
        <time>2022-06-09T07:44:42Z</time>
      </trkpt>
      <trkpt lat="47.5009880" lon="9.7079380">
        <ele>-15.2</ele>
        <time>2022-06-09T07:44:46Z</time>
      </trkpt>
      <trkpt lat="47.5009910" lon="9.7076410">
        <ele>-14.8</ele>
        <time>2022-06-09T07:44:50Z</time>
      </trkpt>
      <trkpt lat="47.5008980" lon="9.7073850">
        <ele>-14.0</ele>
        <time>2022-06-09T07:44:54Z</time>
      </trkpt>
      <trkpt lat="47.5007860" lon="9.7071400">
        <ele>-14.6</ele>
        <time>2022-06-09T07:44:58Z</time>
      </trkpt>
      <trkpt lat="47.5006780" lon="9.7069080">
        <ele>-14.6</ele>
        <time>2022-06-09T07:45:02Z</time>
      </trkpt>
      <trkpt lat="47.5005750" lon="9.7066710">
        <ele>-14.6</ele>
        <time>2022-06-09T07:45:06Z</time>
      </trkpt>
      <trkpt lat="47.5004610" lon="9.7064260">
        <ele>-14.4</ele>
        <time>2022-06-09T07:45:10Z</time>
      </trkpt>
      <trkpt lat="47.5003460" lon="9.7061760">
        <ele>-14.8</ele>
        <time>2022-06-09T07:45:14Z</time>
      </trkpt>
      <trkpt lat="47.5002350" lon="9.7059250">
        <ele>-14.6</ele>
        <time>2022-06-09T07:45:18Z</time>
      </trkpt>
      <trkpt lat="47.5001280" lon="9.7056680">
        <ele>-15.0</ele>
        <time>2022-06-09T07:45:22Z</time>
      </trkpt>
      <trkpt lat="47.5000880" lon="9.7053860">
        <ele>-14.4</ele>
        <time>2022-06-09T07:45:26Z</time>
      </trkpt>
      <trkpt lat="47.5001630" lon="9.7051130">
        <ele>-14.8</ele>
        <time>2022-06-09T07:45:30Z</time>
      </trkpt>
      <trkpt lat="47.5003330" lon="9.7049500">
        <ele>-15.2</ele>
        <time>2022-06-09T07:45:34Z</time>
      </trkpt>
      <trkpt lat="47.5005100" lon="9.7048550">
        <ele>-15.0</ele>
        <time>2022-06-09T07:45:38Z</time>
      </trkpt>
      <trkpt lat="47.5005460" lon="9.7046160">
        <ele>-14.4</ele>
        <time>2022-06-09T07:45:42Z</time>
      </trkpt>
      <trkpt lat="47.5004410" lon="9.7043850">
        <ele>-14.2</ele>
        <time>2022-06-09T07:45:46Z</time>
      </trkpt>
      <trkpt lat="47.5003380" lon="9.7041360">
        <ele>-14.6</ele>
        <time>2022-06-09T07:45:50Z</time>
      </trkpt>
      <trkpt lat="47.5002250" lon="9.7038900">
        <ele>-14.8</ele>
        <time>2022-06-09T07:45:54Z</time>
      </trkpt>
      <trkpt lat="47.5000880" lon="9.7036880">
        <ele>-14.8</ele>
        <time>2022-06-09T07:45:58Z</time>
      </trkpt>
      <trkpt lat="47.4999450" lon="9.7035280">
        <ele>-15.4</ele>
        <time>2022-06-09T07:46:02Z</time>
      </trkpt>
      <trkpt lat="47.4998000" lon="9.7033550">
        <ele>-15.0</ele>
        <time>2022-06-09T07:46:06Z</time>
      </trkpt>
      <trkpt lat="47.4996310" lon="9.7031360">
        <ele>-14.8</ele>
        <time>2022-06-09T07:46:10Z</time>
      </trkpt>
      <trkpt lat="47.4994960" lon="9.7029130">
        <ele>-14.8</ele>
        <time>2022-06-09T07:46:14Z</time>
      </trkpt>
      <trkpt lat="47.4993730" lon="9.7027210">
        <ele>-13.6</ele>
        <time>2022-06-09T07:46:18Z</time>
      </trkpt>
      <trkpt lat="47.4992660" lon="9.7025550">
        <ele>-13.6</ele>
        <time>2022-06-09T07:46:22Z</time>
      </trkpt>
      <trkpt lat="47.4991910" lon="9.7024000">
        <ele>-12.8</ele>
        <time>2022-06-09T07:46:26Z</time>
      </trkpt>
      <trkpt lat="47.4991450" lon="9.7022750">
        <ele>-13.0</ele>
        <time>2022-06-09T07:46:30Z</time>
      </trkpt>
      <trkpt lat="47.4991450" lon="9.7022750">
        <ele>-13.2</ele>
        <time>2022-06-09T07:46:34Z</time>
      </trkpt>
      <trkpt lat="47.4991210" lon="9.7022600">
        <ele>-12.8</ele>
        <time>2022-06-09T07:46:38Z</time>
      </trkpt>
      <trkpt lat="47.4991210" lon="9.7022600">
        <ele>-13.2</ele>
        <time>2022-06-09T07:46:42Z</time>
      </trkpt>
      <trkpt lat="47.4991210" lon="9.7022600">
        <ele>-13.2</ele>
        <time>2022-06-09T07:46:46Z</time>
      </trkpt>
      <trkpt lat="47.4991210" lon="9.7022600">
        <ele>-13.4</ele>
        <time>2022-06-09T07:46:50Z</time>
      </trkpt>
      <trkpt lat="47.4991210" lon="9.7022600">
        <ele>-13.6</ele>
        <time>2022-06-09T07:46:54Z</time>
      </trkpt>
      <trkpt lat="47.4990700" lon="9.7022200">
        <ele>-12.6</ele>
        <time>2022-06-09T07:46:58Z</time>
      </trkpt>
      <trkpt lat="47.4990100" lon="9.7021550">
        <ele>-12.8</ele>
        <time>2022-06-09T07:47:02Z</time>
      </trkpt>
      <trkpt lat="47.4989310" lon="9.7020360">
        <ele>-12.6</ele>
        <time>2022-06-09T07:47:06Z</time>
      </trkpt>
      <trkpt lat="47.4988260" lon="9.7018810">
        <ele>-13.0</ele>
        <time>2022-06-09T07:47:10Z</time>
      </trkpt>
      <trkpt lat="47.4987210" lon="9.7016960">
        <ele>-13.0</ele>
        <time>2022-06-09T07:47:14Z</time>
      </trkpt>
      <trkpt lat="47.4986060" lon="9.7014930">
        <ele>-12.4</ele>
        <time>2022-06-09T07:47:18Z</time>
      </trkpt>
      <trkpt lat="47.4984810" lon="9.7012950">
        <ele>-12.0</ele>
        <time>2022-06-09T07:47:22Z</time>
      </trkpt>
      <trkpt lat="47.4983550" lon="9.7010930">
        <ele>-12.8</ele>
        <time>2022-06-09T07:47:26Z</time>
      </trkpt>
      <trkpt lat="47.4982380" lon="9.7008950">
        <ele>-12.6</ele>
        <time>2022-06-09T07:47:30Z</time>
      </trkpt>
      <trkpt lat="47.4980830" lon="9.7007910">
        <ele>-13.0</ele>
        <time>2022-06-09T07:47:34Z</time>
      </trkpt>
      <trkpt lat="47.4978950" lon="9.7007500">
        <ele>-13.6</ele>
        <time>2022-06-09T07:47:38Z</time>
      </trkpt>
      <trkpt lat="47.4976850" lon="9.7007610">
        <ele>-13.8</ele>
        <time>2022-06-09T07:47:42Z</time>
      </trkpt>
      <trkpt lat="47.4974800" lon="9.7007750">
        <ele>-13.8</ele>
        <time>2022-06-09T07:47:46Z</time>
      </trkpt>
      <trkpt lat="47.4972900" lon="9.7007730">
        <ele>-14.0</ele>
        <time>2022-06-09T07:47:50Z</time>
      </trkpt>
      <trkpt lat="47.4971130" lon="9.7007350">
        <ele>-14.0</ele>
        <time>2022-06-09T07:47:54Z</time>
      </trkpt>
      <trkpt lat="47.4969330" lon="9.7006110">
        <ele>-14.2</ele>
        <time>2022-06-09T07:47:58Z</time>
      </trkpt>
      <trkpt lat="47.4967650" lon="9.7004330">
        <ele>-14.0</ele>
        <time>2022-06-09T07:48:02Z</time>
      </trkpt>
      <trkpt lat="47.4966180" lon="9.7002130">
        <ele>-13.6</ele>
        <time>2022-06-09T07:48:06Z</time>
      </trkpt>
      <trkpt lat="47.4964810" lon="9.7000050">
        <ele>-13.4</ele>
        <time>2022-06-09T07:48:10Z</time>
      </trkpt>
      <trkpt lat="47.4963550" lon="9.6997760">
        <ele>-13.0</ele>
        <time>2022-06-09T07:48:14Z</time>
      </trkpt>
      <trkpt lat="47.4962360" lon="9.6995550">
        <ele>-13.2</ele>
        <time>2022-06-09T07:48:18Z</time>
      </trkpt>
      <trkpt lat="47.4961280" lon="9.6993560">
        <ele>-12.8</ele>
        <time>2022-06-09T07:48:22Z</time>
      </trkpt>
      <trkpt lat="47.4960280" lon="9.6991900">
        <ele>-12.8</ele>
        <time>2022-06-09T07:48:26Z</time>
      </trkpt>
      <trkpt lat="47.4958780" lon="9.6991910">
        <ele>-12.8</ele>
        <time>2022-06-09T07:48:30Z</time>
      </trkpt>
      <trkpt lat="47.4957280" lon="9.6992880">
        <ele>-12.8</ele>
        <time>2022-06-09T07:48:34Z</time>
      </trkpt>
      <trkpt lat="47.4955960" lon="9.6994450">
        <ele>-13.6</ele>
        <time>2022-06-09T07:48:38Z</time>
      </trkpt>
      <trkpt lat="47.4954850" lon="9.6996410">
        <ele>-13.4</ele>
        <time>2022-06-09T07:48:42Z</time>
      </trkpt>
      <trkpt lat="47.4953660" lon="9.6998150">
        <ele>-13.0</ele>
        <time>2022-06-09T07:48:46Z</time>
      </trkpt>
      <trkpt lat="47.4952650" lon="9.6999610">
        <ele>-13.2</ele>
        <time>2022-06-09T07:48:50Z</time>
      </trkpt>
      <trkpt lat="47.4951380" lon="9.7000850">
        <ele>-12.6</ele>
        <time>2022-06-09T07:48:54Z</time>
      </trkpt>
      <trkpt lat="47.4949610" lon="9.6999310">
        <ele>-13.4</ele>
        <time>2022-06-09T07:48:58Z</time>
      </trkpt>
      <trkpt lat="47.4947710" lon="9.6997280">
        <ele>-14.6</ele>
        <time>2022-06-09T07:49:02Z</time>
      </trkpt>
      <trkpt lat="47.4945810" lon="9.6995250">
        <ele>-14.2</ele>
        <time>2022-06-09T07:49:06Z</time>
      </trkpt>
      <trkpt lat="47.4944060" lon="9.6993110">
        <ele>-15.4</ele>
        <time>2022-06-09T07:49:10Z</time>
      </trkpt>
      <trkpt lat="47.4942630" lon="9.6991160">
        <ele>-15.4</ele>
        <time>2022-06-09T07:49:14Z</time>
      </trkpt>
      <trkpt lat="47.4942210" lon="9.6990630">
        <ele>-15.8</ele>
        <time>2022-06-09T07:49:18Z</time>
      </trkpt>
      <trkpt lat="47.4941450" lon="9.6989830">
        <ele>-16.0</ele>
        <time>2022-06-09T07:49:22Z</time>
      </trkpt>
      <trkpt lat="47.4939930" lon="9.6988500">
        <ele>-15.8</ele>
        <time>2022-06-09T07:49:26Z</time>
      </trkpt>
      <trkpt lat="47.4938200" lon="9.6986880">
        <ele>-16.4</ele>
        <time>2022-06-09T07:49:30Z</time>
      </trkpt>
      <trkpt lat="47.4936360" lon="9.6985450">
        <ele>-16.8</ele>
        <time>2022-06-09T07:49:34Z</time>
      </trkpt>
      <trkpt lat="47.4934550" lon="9.6984060">
        <ele>-16.4</ele>
        <time>2022-06-09T07:49:38Z</time>
      </trkpt>
      <trkpt lat="47.4933660" lon="9.6982610">
        <ele>-17.0</ele>
        <time>2022-06-09T07:49:42Z</time>
      </trkpt>
      <trkpt lat="47.4933660" lon="9.6982610">
        <ele>-16.6</ele>
        <time>2022-06-09T07:49:46Z</time>
      </trkpt>
      <trkpt lat="47.4933560" lon="9.6982280">
        <ele>-16.4</ele>
        <time>2022-06-09T07:49:50Z</time>
      </trkpt>
      <trkpt lat="47.4933560" lon="9.6982280">
        <ele>-16.4</ele>
        <time>2022-06-09T07:49:54Z</time>
      </trkpt>
      <trkpt lat="47.4933330" lon="9.6982360">
        <ele>-16.6</ele>
        <time>2022-06-09T07:49:58Z</time>
      </trkpt>
      <trkpt lat="47.4933250" lon="9.6982500">
        <ele>-16.8</ele>
        <time>2022-06-09T07:50:02Z</time>
      </trkpt>
      <trkpt lat="47.4932480" lon="9.6982130">
        <ele>-17.4</ele>
        <time>2022-06-09T07:50:06Z</time>
      </trkpt>
      <trkpt lat="47.4931230" lon="9.6981000">
        <ele>-16.8</ele>
        <time>2022-06-09T07:50:10Z</time>
      </trkpt>
      <trkpt lat="47.4929630" lon="9.6979550">
        <ele>-16.4</ele>
        <time>2022-06-09T07:50:14Z</time>
      </trkpt>
      <trkpt lat="47.4928010" lon="9.6978030">
        <ele>-17.0</ele>
        <time>2022-06-09T07:50:18Z</time>
      </trkpt>
      <trkpt lat="47.4926460" lon="9.6976610">
        <ele>-17.2</ele>
        <time>2022-06-09T07:50:22Z</time>
      </trkpt>
      <trkpt lat="47.4924710" lon="9.6975260">
        <ele>-17.0</ele>
        <time>2022-06-09T07:50:26Z</time>
      </trkpt>
      <trkpt lat="47.4923000" lon="9.6973750">
        <ele>-17.2</ele>
        <time>2022-06-09T07:50:30Z</time>
      </trkpt>
      <trkpt lat="47.4922060" lon="9.6971350">
        <ele>-17.6</ele>
        <time>2022-06-09T07:50:34Z</time>
      </trkpt>
      <trkpt lat="47.4922030" lon="9.6968480">
        <ele>-17.8</ele>
        <time>2022-06-09T07:50:38Z</time>
      </trkpt>
      <trkpt lat="47.4922000" lon="9.6965410">
        <ele>-18.0</ele>
        <time>2022-06-09T07:50:42Z</time>
      </trkpt>
      <trkpt lat="47.4921850" lon="9.6962310">
        <ele>-18.0</ele>
        <time>2022-06-09T07:50:46Z</time>
      </trkpt>
      <trkpt lat="47.4921760" lon="9.6959400">
        <ele>-18.2</ele>
        <time>2022-06-09T07:50:50Z</time>
      </trkpt>
      <trkpt lat="47.4921560" lon="9.6956500">
        <ele>-18.6</ele>
        <time>2022-06-09T07:50:54Z</time>
      </trkpt>
      <trkpt lat="47.4921110" lon="9.6953600">
        <ele>-18.4</ele>
        <time>2022-06-09T07:50:58Z</time>
      </trkpt>
      <trkpt lat="47.4920460" lon="9.6950810">
        <ele>-18.4</ele>
        <time>2022-06-09T07:51:02Z</time>
      </trkpt>
      <trkpt lat="47.4919460" lon="9.6948150">
        <ele>-18.2</ele>
        <time>2022-06-09T07:51:06Z</time>
      </trkpt>
      <trkpt lat="47.4918510" lon="9.6945480">
        <ele>-19.2</ele>
        <time>2022-06-09T07:51:10Z</time>
      </trkpt>
      <trkpt lat="47.4917730" lon="9.6942600">
        <ele>-18.6</ele>
        <time>2022-06-09T07:51:14Z</time>
      </trkpt>
      <trkpt lat="47.4916960" lon="9.6939810">
        <ele>-19.0</ele>
        <time>2022-06-09T07:51:18Z</time>
      </trkpt>
      <trkpt lat="47.4916010" lon="9.6937060">
        <ele>-18.6</ele>
        <time>2022-06-09T07:51:22Z</time>
      </trkpt>
      <trkpt lat="47.4915250" lon="9.6934210">
        <ele>-18.6</ele>
        <time>2022-06-09T07:51:26Z</time>
      </trkpt>
      <trkpt lat="47.4913810" lon="9.6932810">
        <ele>-18.0</ele>
        <time>2022-06-09T07:51:30Z</time>
      </trkpt>
      <trkpt lat="47.4911800" lon="9.6932610">
        <ele>-18.6</ele>
        <time>2022-06-09T07:51:34Z</time>
      </trkpt>
      <trkpt lat="47.4909830" lon="9.6932180">
        <ele>-18.6</ele>
        <time>2022-06-09T07:51:38Z</time>
      </trkpt>
      <trkpt lat="47.4907880" lon="9.6931980">
        <ele>-18.4</ele>
        <time>2022-06-09T07:51:42Z</time>
      </trkpt>
      <trkpt lat="47.4905850" lon="9.6932160">
        <ele>-19.2</ele>
        <time>2022-06-09T07:51:46Z</time>
      </trkpt>
      <trkpt lat="47.4903830" lon="9.6932800">
        <ele>-19.2</ele>
        <time>2022-06-09T07:51:50Z</time>
      </trkpt>
      <trkpt lat="47.4902000" lon="9.6932980">
        <ele>-19.2</ele>
        <time>2022-06-09T07:51:54Z</time>
      </trkpt>
      <trkpt lat="47.4901230" lon="9.6931080">
        <ele>-18.8</ele>
        <time>2022-06-09T07:51:58Z</time>
      </trkpt>
      <trkpt lat="47.4901130" lon="9.6928310">
        <ele>-18.8</ele>
        <time>2022-06-09T07:52:02Z</time>
      </trkpt>
      <trkpt lat="47.4901150" lon="9.6925530">
        <ele>-18.4</ele>
        <time>2022-06-09T07:52:06Z</time>
      </trkpt>
      <trkpt lat="47.4901130" lon="9.6922900">
        <ele>-18.6</ele>
        <time>2022-06-09T07:52:10Z</time>
      </trkpt>
      <trkpt lat="47.4901480" lon="9.6920380">
        <ele>-19.0</ele>
        <time>2022-06-09T07:52:14Z</time>
      </trkpt>
      <trkpt lat="47.4901980" lon="9.6917650">
        <ele>-19.4</ele>
        <time>2022-06-09T07:52:18Z</time>
      </trkpt>
      <trkpt lat="47.4902110" lon="9.6914730">
        <ele>-18.8</ele>
        <time>2022-06-09T07:52:22Z</time>
      </trkpt>
      <trkpt lat="47.4901480" lon="9.6911830">
        <ele>-19.8</ele>
        <time>2022-06-09T07:52:26Z</time>
      </trkpt>
      <trkpt lat="47.4900480" lon="9.6909160">
        <ele>-19.6</ele>
        <time>2022-06-09T07:52:30Z</time>
      </trkpt>
      <trkpt lat="47.4899210" lon="9.6906430">
        <ele>-18.8</ele>
        <time>2022-06-09T07:52:34Z</time>
      </trkpt>
      <trkpt lat="47.4898010" lon="9.6904230">
        <ele>-19.0</ele>
        <time>2022-06-09T07:52:38Z</time>
      </trkpt>
      <trkpt lat="47.4896100" lon="9.6902700">
        <ele>-18.8</ele>
        <time>2022-06-09T07:52:42Z</time>
      </trkpt>
      <trkpt lat="47.4894200" lon="9.6901610">
        <ele>-18.8</ele>
        <time>2022-06-09T07:52:46Z</time>
      </trkpt>
      <trkpt lat="47.4892630" lon="9.6900310">
        <ele>-18.8</ele>
        <time>2022-06-09T07:52:50Z</time>
      </trkpt>
      <trkpt lat="47.4891330" lon="9.6898530">
        <ele>-19.0</ele>
        <time>2022-06-09T07:52:54Z</time>
      </trkpt>
      <trkpt lat="47.4890260" lon="9.6896460">
        <ele>-19.2</ele>
        <time>2022-06-09T07:52:58Z</time>
      </trkpt>
      <trkpt lat="47.4889380" lon="9.6893950">
        <ele>-19.4</ele>
        <time>2022-06-09T07:53:02Z</time>
      </trkpt>
      <trkpt lat="47.4888350" lon="9.6891500">
        <ele>-19.6</ele>
        <time>2022-06-09T07:53:06Z</time>
      </trkpt>
      <trkpt lat="47.4887250" lon="9.6889010">
        <ele>-20.0</ele>
        <time>2022-06-09T07:53:10Z</time>
      </trkpt>
      <trkpt lat="47.4886050" lon="9.6886730">
        <ele>-19.8</ele>
        <time>2022-06-09T07:53:14Z</time>
      </trkpt>
      <trkpt lat="47.4883860" lon="9.6885160">
        <ele>-20.0</ele>
        <time>2022-06-09T07:53:18Z</time>
      </trkpt>
      <trkpt lat="47.4881630" lon="9.6883930">
        <ele>-19.8</ele>
        <time>2022-06-09T07:53:22Z</time>
      </trkpt>
      <trkpt lat="47.4879530" lon="9.6882710">
        <ele>-19.8</ele>
        <time>2022-06-09T07:53:26Z</time>
      </trkpt>
      <trkpt lat="47.4877460" lon="9.6881900">
        <ele>-20.8</ele>
        <time>2022-06-09T07:53:30Z</time>
      </trkpt>
      <trkpt lat="47.4875310" lon="9.6881030">
        <ele>-20.0</ele>
        <time>2022-06-09T07:53:34Z</time>
      </trkpt>
      <trkpt lat="47.4873230" lon="9.6880230">
        <ele>-19.4</ele>
        <time>2022-06-09T07:53:38Z</time>
      </trkpt>
      <trkpt lat="47.4871180" lon="9.6879530">
        <ele>-20.0</ele>
        <time>2022-06-09T07:53:42Z</time>
      </trkpt>
      <trkpt lat="47.4869200" lon="9.6878980">
        <ele>-19.8</ele>
        <time>2022-06-09T07:53:46Z</time>
      </trkpt>
      <trkpt lat="47.4867110" lon="9.6878460">
        <ele>-19.6</ele>
        <time>2022-06-09T07:53:50Z</time>
      </trkpt>
      <trkpt lat="47.4865110" lon="9.6877780">
        <ele>-19.8</ele>
        <time>2022-06-09T07:53:54Z</time>
      </trkpt>
      <trkpt lat="47.4863080" lon="9.6877250">
        <ele>-19.8</ele>
        <time>2022-06-09T07:53:58Z</time>
      </trkpt>
      <trkpt lat="47.4860980" lon="9.6876650">
        <ele>-20.2</ele>
        <time>2022-06-09T07:54:02Z</time>
      </trkpt>
      <trkpt lat="47.4858810" lon="9.6876030">
        <ele>-20.2</ele>
        <time>2022-06-09T07:54:06Z</time>
      </trkpt>
      <trkpt lat="47.4856630" lon="9.6875430">
        <ele>-20.0</ele>
        <time>2022-06-09T07:54:10Z</time>
      </trkpt>
      <trkpt lat="47.4854480" lon="9.6874760">
        <ele>-19.6</ele>
        <time>2022-06-09T07:54:14Z</time>
      </trkpt>
      <trkpt lat="47.4852450" lon="9.6873950">
        <ele>-19.4</ele>
        <time>2022-06-09T07:54:18Z</time>
      </trkpt>
      <trkpt lat="47.4850560" lon="9.6873030">
        <ele>-19.8</ele>
        <time>2022-06-09T07:54:22Z</time>
      </trkpt>
      <trkpt lat="47.4848700" lon="9.6871800">
        <ele>-19.4</ele>
        <time>2022-06-09T07:54:26Z</time>
      </trkpt>
      <trkpt lat="47.4846750" lon="9.6870400">
        <ele>-20.0</ele>
        <time>2022-06-09T07:54:30Z</time>
      </trkpt>
      <trkpt lat="47.4844860" lon="9.6868900">
        <ele>-20.4</ele>
        <time>2022-06-09T07:54:34Z</time>
      </trkpt>
      <trkpt lat="47.4842980" lon="9.6867430">
        <ele>-20.0</ele>
        <time>2022-06-09T07:54:38Z</time>
      </trkpt>
      <trkpt lat="47.4841180" lon="9.6866260">
        <ele>-19.6</ele>
        <time>2022-06-09T07:54:42Z</time>
      </trkpt>
      <trkpt lat="47.4839660" lon="9.6865860">
        <ele>-20.0</ele>
        <time>2022-06-09T07:54:46Z</time>
      </trkpt>
      <trkpt lat="47.4839660" lon="9.6865860">
        <ele>-20.2</ele>
        <time>2022-06-09T07:54:50Z</time>
      </trkpt>
      <trkpt lat="47.4839660" lon="9.6865860">
        <ele>-20.4</ele>
        <time>2022-06-09T07:54:54Z</time>
      </trkpt>
      <trkpt lat="47.4839660" lon="9.6865860">
        <ele>-20.2</ele>
        <time>2022-06-09T07:54:58Z</time>
      </trkpt>
      <trkpt lat="47.4839660" lon="9.6865860">
        <ele>-20.0</ele>
        <time>2022-06-09T07:55:02Z</time>
      </trkpt>
      <trkpt lat="47.4839400" lon="9.6865180">
        <ele>-20.6</ele>
        <time>2022-06-09T07:55:06Z</time>
      </trkpt>
      <trkpt lat="47.4839400" lon="9.6865180">
        <ele>-20.4</ele>
        <time>2022-06-09T07:55:10Z</time>
      </trkpt>
      <trkpt lat="47.4839400" lon="9.6865180">
        <ele>-20.4</ele>
        <time>2022-06-09T07:55:14Z</time>
      </trkpt>
      <trkpt lat="47.4839110" lon="9.6864650">
        <ele>-20.6</ele>
        <time>2022-06-09T07:55:18Z</time>
      </trkpt>
      <trkpt lat="47.4839300" lon="9.6864600">
        <ele>-20.6</ele>
        <time>2022-06-09T07:55:22Z</time>
      </trkpt>
      <trkpt lat="47.4839300" lon="9.6864600">
        <ele>-20.6</ele>
        <time>2022-06-09T07:55:26Z</time>
      </trkpt>
      <trkpt lat="47.4839450" lon="9.6864330">
        <ele>-20.6</ele>
        <time>2022-06-09T07:55:30Z</time>
      </trkpt>
      <trkpt lat="47.4839450" lon="9.6864330">
        <ele>-20.6</ele>
        <time>2022-06-09T07:55:34Z</time>
      </trkpt>
      <trkpt lat="47.4839450" lon="9.6864330">
        <ele>-20.8</ele>
        <time>2022-06-09T07:55:38Z</time>
      </trkpt>
      <trkpt lat="47.4839450" lon="9.6864330">
        <ele>-20.4</ele>
        <time>2022-06-09T07:55:42Z</time>
      </trkpt>
      <trkpt lat="47.4839450" lon="9.6864330">
        <ele>-20.6</ele>
        <time>2022-06-09T07:55:46Z</time>
      </trkpt>
      <trkpt lat="47.4839450" lon="9.6864330">
        <ele>-20.8</ele>
        <time>2022-06-09T07:55:50Z</time>
      </trkpt>
      <trkpt lat="47.4839450" lon="9.6864330">
        <ele>-20.4</ele>
        <time>2022-06-09T07:55:54Z</time>
      </trkpt>
      <trkpt lat="47.4839450" lon="9.6864330">
        <ele>-20.4</ele>
        <time>2022-06-09T07:55:58Z</time>
      </trkpt>
      <trkpt lat="47.4839450" lon="9.6864330">
        <ele>-20.6</ele>
        <time>2022-06-09T07:56:02Z</time>
      </trkpt>
      <trkpt lat="47.4839310" lon="9.6863800">
        <ele>-20.6</ele>
        <time>2022-06-09T07:56:06Z</time>
      </trkpt>
      <trkpt lat="47.4839310" lon="9.6863800">
        <ele>-20.6</ele>
        <time>2022-06-09T07:56:10Z</time>
      </trkpt>
      <trkpt lat="47.4839310" lon="9.6863800">
        <ele>-20.4</ele>
        <time>2022-06-09T07:56:14Z</time>
      </trkpt>
      <trkpt lat="47.4839310" lon="9.6863800">
        <ele>-20.6</ele>
        <time>2022-06-09T07:56:18Z</time>
      </trkpt>
      <trkpt lat="47.4839310" lon="9.6863800">
        <ele>-20.6</ele>
        <time>2022-06-09T07:56:22Z</time>
      </trkpt>
      <trkpt lat="47.4839310" lon="9.6863800">
        <ele>-20.6</ele>
        <time>2022-06-09T07:56:26Z</time>
      </trkpt>
      <trkpt lat="47.4839310" lon="9.6863800">
        <ele>-20.6</ele>
        <time>2022-06-09T07:56:30Z</time>
      </trkpt>
      <trkpt lat="47.4839310" lon="9.6863800">
        <ele>-20.6</ele>
        <time>2022-06-09T07:56:34Z</time>
      </trkpt>
      <trkpt lat="47.4839310" lon="9.6863800">
        <ele>-20.8</ele>
        <time>2022-06-09T07:56:38Z</time>
      </trkpt>
      <trkpt lat="47.4839310" lon="9.6863800">
        <ele>-21.0</ele>
        <time>2022-06-09T07:56:42Z</time>
      </trkpt>
      <trkpt lat="47.4839310" lon="9.6863800">
        <ele>-20.6</ele>
        <time>2022-06-09T07:56:46Z</time>
      </trkpt>
      <trkpt lat="47.4839310" lon="9.6863800">
        <ele>-20.6</ele>
        <time>2022-06-09T07:56:50Z</time>
      </trkpt>
      <trkpt lat="47.4839310" lon="9.6863800">
        <ele>-21.0</ele>
        <time>2022-06-09T07:56:54Z</time>
      </trkpt>
      <trkpt lat="47.4839310" lon="9.6863800">
        <ele>-21.0</ele>
        <time>2022-06-09T07:56:58Z</time>
      </trkpt>
      <trkpt lat="47.4839310" lon="9.6863800">
        <ele>-20.8</ele>
        <time>2022-06-09T07:57:02Z</time>
      </trkpt>
      <trkpt lat="47.4839310" lon="9.6863800">
        <ele>-20.8</ele>
        <time>2022-06-09T07:57:06Z</time>
      </trkpt>
      <trkpt lat="47.4839310" lon="9.6863800">
        <ele>-20.6</ele>
        <time>2022-06-09T07:57:10Z</time>
      </trkpt>
      <trkpt lat="47.4838850" lon="9.6863350">
        <ele>-20.6</ele>
        <time>2022-06-09T07:57:14Z</time>
      </trkpt>
      <trkpt lat="47.4838850" lon="9.6863350">
        <ele>-20.8</ele>
        <time>2022-06-09T07:57:18Z</time>
      </trkpt>
      <trkpt lat="47.4838850" lon="9.6863350">
        <ele>-21.0</ele>
        <time>2022-06-09T07:57:22Z</time>
      </trkpt>
      <trkpt lat="47.4838850" lon="9.6863350">
        <ele>-21.0</ele>
        <time>2022-06-09T07:57:26Z</time>
      </trkpt>
      <trkpt lat="47.4838960" lon="9.6863280">
        <ele>-20.8</ele>
        <time>2022-06-09T07:57:30Z</time>
      </trkpt>
      <trkpt lat="47.4838960" lon="9.6863280">
        <ele>-21.0</ele>
        <time>2022-06-09T07:57:34Z</time>
      </trkpt>
      <trkpt lat="47.4838960" lon="9.6863280">
        <ele>-20.8</ele>
        <time>2022-06-09T07:57:38Z</time>
      </trkpt>
      <trkpt lat="47.4838960" lon="9.6863280">
        <ele>-21.0</ele>
        <time>2022-06-09T07:57:42Z</time>
      </trkpt>
      <trkpt lat="47.4838960" lon="9.6863280">
        <ele>-21.0</ele>
        <time>2022-06-09T07:57:46Z</time>
      </trkpt>
      <trkpt lat="47.4838960" lon="9.6863280">
        <ele>-21.0</ele>
        <time>2022-06-09T07:57:50Z</time>
      </trkpt>
      <trkpt lat="47.4838960" lon="9.6863280">
        <ele>-21.2</ele>
        <time>2022-06-09T07:57:54Z</time>
      </trkpt>
      <trkpt lat="47.4838960" lon="9.6863280">
        <ele>-21.0</ele>
        <time>2022-06-09T07:57:58Z</time>
      </trkpt>
      <trkpt lat="47.4838960" lon="9.6863280">
        <ele>-21.4</ele>
        <time>2022-06-09T07:58:02Z</time>
      </trkpt>
      <trkpt lat="47.4838960" lon="9.6863280">
        <ele>-21.0</ele>
        <time>2022-06-09T07:58:06Z</time>
      </trkpt>
      <trkpt lat="47.4838960" lon="9.6863280">
        <ele>-20.8</ele>
        <time>2022-06-09T07:58:10Z</time>
      </trkpt>
      <trkpt lat="47.4838960" lon="9.6863280">
        <ele>-21.2</ele>
        <time>2022-06-09T07:58:14Z</time>
      </trkpt>
      <trkpt lat="47.4838960" lon="9.6863280">
        <ele>-20.8</ele>
        <time>2022-06-09T07:58:18Z</time>
      </trkpt>
      <trkpt lat="47.4838960" lon="9.6863280">
        <ele>-21.2</ele>
        <time>2022-06-09T07:58:22Z</time>
      </trkpt>
      <trkpt lat="47.4838960" lon="9.6863280">
        <ele>-21.0</ele>
        <time>2022-06-09T07:58:26Z</time>
      </trkpt>
      <trkpt lat="47.4838960" lon="9.6863280">
        <ele>-21.0</ele>
        <time>2022-06-09T07:58:30Z</time>
      </trkpt>
      <trkpt lat="47.4838960" lon="9.6863280">
        <ele>-21.0</ele>
        <time>2022-06-09T07:58:34Z</time>
      </trkpt>
      <trkpt lat="47.4838960" lon="9.6863280">
        <ele>-21.2</ele>
        <time>2022-06-09T07:58:38Z</time>
      </trkpt>
      <trkpt lat="47.4838960" lon="9.6863280">
        <ele>-21.2</ele>
        <time>2022-06-09T07:58:42Z</time>
      </trkpt>
      <trkpt lat="47.4838960" lon="9.6863280">
        <ele>-20.8</ele>
        <time>2022-06-09T07:58:46Z</time>
      </trkpt>
      <trkpt lat="47.4838960" lon="9.6863280">
        <ele>-21.0</ele>
        <time>2022-06-09T07:58:50Z</time>
      </trkpt>
      <trkpt lat="47.4838960" lon="9.6863280">
        <ele>-21.0</ele>
        <time>2022-06-09T07:58:54Z</time>
      </trkpt>
      <trkpt lat="47.4838960" lon="9.6863280">
        <ele>-21.2</ele>
        <time>2022-06-09T07:58:58Z</time>
      </trkpt>
      <trkpt lat="47.4838960" lon="9.6863280">
        <ele>-21.2</ele>
        <time>2022-06-09T07:59:02Z</time>
      </trkpt>
      <trkpt lat="47.4838960" lon="9.6863280">
        <ele>-20.6</ele>
        <time>2022-06-09T07:59:06Z</time>
      </trkpt>
      <trkpt lat="47.4838960" lon="9.6863280">
        <ele>-21.0</ele>
        <time>2022-06-09T07:59:10Z</time>
      </trkpt>
      <trkpt lat="47.4838960" lon="9.6863280">
        <ele>-20.8</ele>
        <time>2022-06-09T07:59:14Z</time>
      </trkpt>
      <trkpt lat="47.4838960" lon="9.6863280">
        <ele>-20.6</ele>
        <time>2022-06-09T07:59:18Z</time>
      </trkpt>
      <trkpt lat="47.4838960" lon="9.6863280">
        <ele>-20.8</ele>
        <time>2022-06-09T07:59:22Z</time>
      </trkpt>
      <trkpt lat="47.4838960" lon="9.6863280">
        <ele>-20.6</ele>
        <time>2022-06-09T07:59:26Z</time>
      </trkpt>
      <trkpt lat="47.4838960" lon="9.6863280">
        <ele>-20.6</ele>
        <time>2022-06-09T07:59:30Z</time>
      </trkpt>
      <trkpt lat="47.4838960" lon="9.6863280">
        <ele>-20.8</ele>
        <time>2022-06-09T07:59:34Z</time>
      </trkpt>
      <trkpt lat="47.4838960" lon="9.6863280">
        <ele>-20.8</ele>
        <time>2022-06-09T07:59:38Z</time>
      </trkpt>
      <trkpt lat="47.4838960" lon="9.6863280">
        <ele>-20.8</ele>
        <time>2022-06-09T07:59:42Z</time>
      </trkpt>
      <trkpt lat="47.4838960" lon="9.6863280">
        <ele>-21.0</ele>
        <time>2022-06-09T07:59:46Z</time>
      </trkpt>
      <trkpt lat="47.4838960" lon="9.6863280">
        <ele>-20.8</ele>
        <time>2022-06-09T07:59:50Z</time>
      </trkpt>
      <trkpt lat="47.4838960" lon="9.6863280">
        <ele>-21.0</ele>
        <time>2022-06-09T07:59:54Z</time>
      </trkpt>
      <trkpt lat="47.4838960" lon="9.6863280">
        <ele>-21.2</ele>
        <time>2022-06-09T07:59:58Z</time>
      </trkpt>
      <trkpt lat="47.4838960" lon="9.6863280">
        <ele>-20.8</ele>
        <time>2022-06-09T08:00:02Z</time>
      </trkpt>
      <trkpt lat="47.4838960" lon="9.6863280">
        <ele>-20.6</ele>
        <time>2022-06-09T08:00:06Z</time>
      </trkpt>
      <trkpt lat="47.4838960" lon="9.6863280">
        <ele>-21.0</ele>
        <time>2022-06-09T08:00:10Z</time>
      </trkpt>
      <trkpt lat="47.4838960" lon="9.6863280">
        <ele>-21.0</ele>
        <time>2022-06-09T08:00:14Z</time>
      </trkpt>
      <trkpt lat="47.4838960" lon="9.6863280">
        <ele>-21.0</ele>
        <time>2022-06-09T08:00:18Z</time>
      </trkpt>
      <trkpt lat="47.4838960" lon="9.6863280">
        <ele>-20.4</ele>
        <time>2022-06-09T08:00:22Z</time>
      </trkpt>
      <trkpt lat="47.4838960" lon="9.6863280">
        <ele>-20.8</ele>
        <time>2022-06-09T08:00:26Z</time>
      </trkpt>
      <trkpt lat="47.4838960" lon="9.6863280">
        <ele>-20.8</ele>
        <time>2022-06-09T08:00:30Z</time>
      </trkpt>
      <trkpt lat="47.4838960" lon="9.6863280">
        <ele>-21.0</ele>
        <time>2022-06-09T08:00:34Z</time>
      </trkpt>
      <trkpt lat="47.4838960" lon="9.6863280">
        <ele>-21.2</ele>
        <time>2022-06-09T08:00:38Z</time>
      </trkpt>
      <trkpt lat="47.4838960" lon="9.6863280">
        <ele>-21.0</ele>
        <time>2022-06-09T08:00:42Z</time>
      </trkpt>
      <trkpt lat="47.4838960" lon="9.6863280">
        <ele>-21.0</ele>
        <time>2022-06-09T08:00:46Z</time>
      </trkpt>
      <trkpt lat="47.4838960" lon="9.6863280">
        <ele>-21.2</ele>
        <time>2022-06-09T08:00:50Z</time>
      </trkpt>
      <trkpt lat="47.4838960" lon="9.6863280">
        <ele>-21.4</ele>
        <time>2022-06-09T08:00:54Z</time>
      </trkpt>
      <trkpt lat="47.4838960" lon="9.6863280">
        <ele>-21.2</ele>
        <time>2022-06-09T08:00:58Z</time>
      </trkpt>
      <trkpt lat="47.4838960" lon="9.6863280">
        <ele>-21.2</ele>
        <time>2022-06-09T08:01:02Z</time>
      </trkpt>
      <trkpt lat="47.4839280" lon="9.6863550">
        <ele>-20.8</ele>
        <time>2022-06-09T08:01:06Z</time>
      </trkpt>
      <trkpt lat="47.4839410" lon="9.6863600">
        <ele>-21.0</ele>
        <time>2022-06-09T08:01:10Z</time>
      </trkpt>
      <trkpt lat="47.4838110" lon="9.6863100">
        <ele>-21.6</ele>
        <time>2022-06-09T08:01:14Z</time>
      </trkpt>
      <trkpt lat="47.4836360" lon="9.6861900">
        <ele>-21.6</ele>
        <time>2022-06-09T08:01:18Z</time>
      </trkpt>
      <trkpt lat="47.4834760" lon="9.6860360">
        <ele>-21.2</ele>
        <time>2022-06-09T08:01:22Z</time>
      </trkpt>
      <trkpt lat="47.4833230" lon="9.6858730">
        <ele>-21.4</ele>
        <time>2022-06-09T08:01:26Z</time>
      </trkpt>
      <trkpt lat="47.4831710" lon="9.6857100">
        <ele>-21.8</ele>
        <time>2022-06-09T08:01:30Z</time>
      </trkpt>
      <trkpt lat="47.4830200" lon="9.6855360">
        <ele>-21.6</ele>
        <time>2022-06-09T08:01:34Z</time>
      </trkpt>
      <trkpt lat="47.4828660" lon="9.6853510">
        <ele>-21.4</ele>
        <time>2022-06-09T08:01:38Z</time>
      </trkpt>
      <trkpt lat="47.4827130" lon="9.6851630">
        <ele>-21.6</ele>
        <time>2022-06-09T08:01:42Z</time>
      </trkpt>
      <trkpt lat="47.4825600" lon="9.6849700">
        <ele>-21.6</ele>
        <time>2022-06-09T08:01:46Z</time>
      </trkpt>
      <trkpt lat="47.4824060" lon="9.6847710">
        <ele>-21.4</ele>
        <time>2022-06-09T08:01:50Z</time>
      </trkpt>
      <trkpt lat="47.4822550" lon="9.6845680">
        <ele>-21.8</ele>
        <time>2022-06-09T08:01:54Z</time>
      </trkpt>
      <trkpt lat="47.4821010" lon="9.6843600">
        <ele>-21.4</ele>
        <time>2022-06-09T08:01:58Z</time>
      </trkpt>
      <trkpt lat="47.4819480" lon="9.6841380">
        <ele>-21.6</ele>
        <time>2022-06-09T08:02:02Z</time>
      </trkpt>
      <trkpt lat="47.4817900" lon="9.6839310">
        <ele>-21.0</ele>
        <time>2022-06-09T08:02:06Z</time>
      </trkpt>
      <trkpt lat="47.4816360" lon="9.6837200">
        <ele>-21.2</ele>
        <time>2022-06-09T08:02:10Z</time>
      </trkpt>
      <trkpt lat="47.4814780" lon="9.6835100">
        <ele>-21.4</ele>
        <time>2022-06-09T08:02:14Z</time>
      </trkpt>
      <trkpt lat="47.4813250" lon="9.6832980">
        <ele>-20.8</ele>
        <time>2022-06-09T08:02:18Z</time>
      </trkpt>
      <trkpt lat="47.4811660" lon="9.6830810">
        <ele>-21.0</ele>
        <time>2022-06-09T08:02:22Z</time>
      </trkpt>
      <trkpt lat="47.4810050" lon="9.6828610">
        <ele>-21.0</ele>
        <time>2022-06-09T08:02:26Z</time>
      </trkpt>
      <trkpt lat="47.4808460" lon="9.6826410">
        <ele>-21.0</ele>
        <time>2022-06-09T08:02:30Z</time>
      </trkpt>
      <trkpt lat="47.4806850" lon="9.6824250">
        <ele>-20.6</ele>
        <time>2022-06-09T08:02:34Z</time>
      </trkpt>
      <trkpt lat="47.4805300" lon="9.6822010">
        <ele>-21.0</ele>
        <time>2022-06-09T08:02:38Z</time>
      </trkpt>
      <trkpt lat="47.4803760" lon="9.6819930">
        <ele>-21.0</ele>
        <time>2022-06-09T08:02:42Z</time>
      </trkpt>
      <trkpt lat="47.4802280" lon="9.6817930">
        <ele>-20.6</ele>
        <time>2022-06-09T08:02:46Z</time>
      </trkpt>
      <trkpt lat="47.4800730" lon="9.6816160">
        <ele>-20.6</ele>
        <time>2022-06-09T08:02:50Z</time>
      </trkpt>
      <trkpt lat="47.4799160" lon="9.6814260">
        <ele>-21.2</ele>
        <time>2022-06-09T08:02:54Z</time>
      </trkpt>
      <trkpt lat="47.4797510" lon="9.6812280">
        <ele>-20.8</ele>
        <time>2022-06-09T08:02:58Z</time>
      </trkpt>
      <trkpt lat="47.4795900" lon="9.6810210">
        <ele>-20.8</ele>
        <time>2022-06-09T08:03:02Z</time>
      </trkpt>
      <trkpt lat="47.4794250" lon="9.6808210">
        <ele>-21.0</ele>
        <time>2022-06-09T08:03:06Z</time>
      </trkpt>
      <trkpt lat="47.4792600" lon="9.6806060">
        <ele>-20.8</ele>
        <time>2022-06-09T08:03:10Z</time>
      </trkpt>
      <trkpt lat="47.4790980" lon="9.6803930">
        <ele>-20.8</ele>
        <time>2022-06-09T08:03:14Z</time>
      </trkpt>
      <trkpt lat="47.4789330" lon="9.6801850">
        <ele>-21.2</ele>
        <time>2022-06-09T08:03:18Z</time>
      </trkpt>
      <trkpt lat="47.4787700" lon="9.6799780">
        <ele>-21.0</ele>
        <time>2022-06-09T08:03:22Z</time>
      </trkpt>
      <trkpt lat="47.4786100" lon="9.6797630">
        <ele>-21.4</ele>
        <time>2022-06-09T08:03:26Z</time>
      </trkpt>
      <trkpt lat="47.4784480" lon="9.6795510">
        <ele>-21.2</ele>
        <time>2022-06-09T08:03:30Z</time>
      </trkpt>
      <trkpt lat="47.4782850" lon="9.6793450">
        <ele>-21.6</ele>
        <time>2022-06-09T08:03:34Z</time>
      </trkpt>
      <trkpt lat="47.4781400" lon="9.6791480">
        <ele>-21.2</ele>
        <time>2022-06-09T08:03:38Z</time>
      </trkpt>
      <trkpt lat="47.4779960" lon="9.6789560">
        <ele>-21.2</ele>
        <time>2022-06-09T08:03:42Z</time>
      </trkpt>
      <trkpt lat="47.4778550" lon="9.6787480">
        <ele>-21.6</ele>
        <time>2022-06-09T08:03:46Z</time>
      </trkpt>
      <trkpt lat="47.4777260" lon="9.6785160">
        <ele>-20.8</ele>
        <time>2022-06-09T08:03:50Z</time>
      </trkpt>
      <trkpt lat="47.4776780" lon="9.6782300">
        <ele>-21.2</ele>
        <time>2022-06-09T08:03:54Z</time>
      </trkpt>
      <trkpt lat="47.4776610" lon="9.6779260">
        <ele>-21.0</ele>
        <time>2022-06-09T08:03:58Z</time>
      </trkpt>
      <trkpt lat="47.4776530" lon="9.6776110">
        <ele>-21.2</ele>
        <time>2022-06-09T08:04:02Z</time>
      </trkpt>
      <trkpt lat="47.4776630" lon="9.6772930">
        <ele>-20.8</ele>
        <time>2022-06-09T08:04:06Z</time>
      </trkpt>
      <trkpt lat="47.4776760" lon="9.6769830">
        <ele>-21.0</ele>
        <time>2022-06-09T08:04:10Z</time>
      </trkpt>
      <trkpt lat="47.4776860" lon="9.6766750">
        <ele>-20.4</ele>
        <time>2022-06-09T08:04:14Z</time>
      </trkpt>
      <trkpt lat="47.4777010" lon="9.6763710">
        <ele>-20.0</ele>
        <time>2022-06-09T08:04:18Z</time>
      </trkpt>
      <trkpt lat="47.4777100" lon="9.6760910">
        <ele>-19.6</ele>
        <time>2022-06-09T08:04:22Z</time>
      </trkpt>
      <trkpt lat="47.4777200" lon="9.6758200">
        <ele>-19.2</ele>
        <time>2022-06-09T08:04:26Z</time>
      </trkpt>
      <trkpt lat="47.4777280" lon="9.6755910">
        <ele>-19.0</ele>
        <time>2022-06-09T08:04:30Z</time>
      </trkpt>
      <trkpt lat="47.4777430" lon="9.6754680">
        <ele>-18.8</ele>
        <time>2022-06-09T08:04:34Z</time>
      </trkpt>
      <trkpt lat="47.4777430" lon="9.6754680">
        <ele>-19.0</ele>
        <time>2022-06-09T08:04:38Z</time>
      </trkpt>
      <trkpt lat="47.4777480" lon="9.6754110">
        <ele>-19.0</ele>
        <time>2022-06-09T08:04:42Z</time>
      </trkpt>
      <trkpt lat="47.4777510" lon="9.6752960">
        <ele>-18.6</ele>
        <time>2022-06-09T08:04:46Z</time>
      </trkpt>
      <trkpt lat="47.4777560" lon="9.6751080">
        <ele>-18.2</ele>
        <time>2022-06-09T08:04:50Z</time>
      </trkpt>
      <trkpt lat="47.4777600" lon="9.6748660">
        <ele>-17.8</ele>
        <time>2022-06-09T08:04:54Z</time>
      </trkpt>
      <trkpt lat="47.4777580" lon="9.6746350">
        <ele>-17.8</ele>
        <time>2022-06-09T08:04:58Z</time>
      </trkpt>
      <trkpt lat="47.4777660" lon="9.6743910">
        <ele>-18.0</ele>
        <time>2022-06-09T08:05:02Z</time>
      </trkpt>
      <trkpt lat="47.4777710" lon="9.6741400">
        <ele>-17.4</ele>
        <time>2022-06-09T08:05:06Z</time>
      </trkpt>
      <trkpt lat="47.4777830" lon="9.6738760">
        <ele>-17.6</ele>
        <time>2022-06-09T08:05:10Z</time>
      </trkpt>
      <trkpt lat="47.4777830" lon="9.6736300">
        <ele>-17.2</ele>
        <time>2022-06-09T08:05:14Z</time>
      </trkpt>
      <trkpt lat="47.4777900" lon="9.6733810">
        <ele>-17.6</ele>
        <time>2022-06-09T08:05:18Z</time>
      </trkpt>
      <trkpt lat="47.4778000" lon="9.6731200">
        <ele>-18.0</ele>
        <time>2022-06-09T08:05:22Z</time>
      </trkpt>
      <trkpt lat="47.4778630" lon="9.6728530">
        <ele>-18.0</ele>
        <time>2022-06-09T08:05:26Z</time>
      </trkpt>
      <trkpt lat="47.4778760" lon="9.6725610">
        <ele>-17.6</ele>
        <time>2022-06-09T08:05:30Z</time>
      </trkpt>
      <trkpt lat="47.4778760" lon="9.6722800">
        <ele>-17.8</ele>
        <time>2022-06-09T08:05:34Z</time>
      </trkpt>
      <trkpt lat="47.4778830" lon="9.6720150">
        <ele>-17.6</ele>
        <time>2022-06-09T08:05:38Z</time>
      </trkpt>
      <trkpt lat="47.4778850" lon="9.6717580">
        <ele>-18.4</ele>
        <time>2022-06-09T08:05:42Z</time>
      </trkpt>
      <trkpt lat="47.4779360" lon="9.6715380">
        <ele>-17.8</ele>
        <time>2022-06-09T08:05:46Z</time>
      </trkpt>
      <trkpt lat="47.4779500" lon="9.6713160">
        <ele>-16.6</ele>
        <time>2022-06-09T08:05:50Z</time>
      </trkpt>
      <trkpt lat="47.4778500" lon="9.6711610">
        <ele>-16.2</ele>
        <time>2022-06-09T08:05:54Z</time>
      </trkpt>
      <trkpt lat="47.4778130" lon="9.6709650">
        <ele>-16.0</ele>
        <time>2022-06-09T08:05:58Z</time>
      </trkpt>
      <trkpt lat="47.4778230" lon="9.6707260">
        <ele>-15.6</ele>
        <time>2022-06-09T08:06:02Z</time>
      </trkpt>
      <trkpt lat="47.4778280" lon="9.6704760">
        <ele>-15.0</ele>
        <time>2022-06-09T08:06:06Z</time>
      </trkpt>
      <trkpt lat="47.4778400" lon="9.6702130">
        <ele>-14.4</ele>
        <time>2022-06-09T08:06:10Z</time>
      </trkpt>
      <trkpt lat="47.4778450" lon="9.6699400">
        <ele>-14.4</ele>
        <time>2022-06-09T08:06:14Z</time>
      </trkpt>
      <trkpt lat="47.4778510" lon="9.6696610">
        <ele>-14.2</ele>
        <time>2022-06-09T08:06:18Z</time>
      </trkpt>
      <trkpt lat="47.4778600" lon="9.6693780">
        <ele>-14.0</ele>
        <time>2022-06-09T08:06:22Z</time>
      </trkpt>
      <trkpt lat="47.4778630" lon="9.6690930">
        <ele>-15.0</ele>
        <time>2022-06-09T08:06:26Z</time>
      </trkpt>
      <trkpt lat="47.4778710" lon="9.6687950">
        <ele>-15.4</ele>
        <time>2022-06-09T08:06:30Z</time>
      </trkpt>
      <trkpt lat="47.4778780" lon="9.6684850">
        <ele>-15.0</ele>
        <time>2022-06-09T08:06:34Z</time>
      </trkpt>
      <trkpt lat="47.4778860" lon="9.6681660">
        <ele>-15.4</ele>
        <time>2022-06-09T08:06:38Z</time>
      </trkpt>
      <trkpt lat="47.4778960" lon="9.6678600">
        <ele>-16.0</ele>
        <time>2022-06-09T08:06:42Z</time>
      </trkpt>
      <trkpt lat="47.4779250" lon="9.6676560">
        <ele>-17.2</ele>
        <time>2022-06-09T08:06:46Z</time>
      </trkpt>
      <trkpt lat="47.4779560" lon="9.6674430">
        <ele>-17.2</ele>
        <time>2022-06-09T08:06:50Z</time>
      </trkpt>
      <trkpt lat="47.4779230" lon="9.6672230">
        <ele>-17.2</ele>
        <time>2022-06-09T08:06:54Z</time>
      </trkpt>
      <trkpt lat="47.4779260" lon="9.6669250">
        <ele>-17.8</ele>
        <time>2022-06-09T08:06:58Z</time>
      </trkpt>
      <trkpt lat="47.4779780" lon="9.6665930">
        <ele>-18.6</ele>
        <time>2022-06-09T08:07:02Z</time>
      </trkpt>
      <trkpt lat="47.4780910" lon="9.6662480">
        <ele>-18.8</ele>
        <time>2022-06-09T08:07:06Z</time>
      </trkpt>
      <trkpt lat="47.4781780" lon="9.6658730">
        <ele>-19.0</ele>
        <time>2022-06-09T08:07:10Z</time>
      </trkpt>
      <trkpt lat="47.4782600" lon="9.6654860">
        <ele>-19.4</ele>
        <time>2022-06-09T08:07:14Z</time>
      </trkpt>
      <trkpt lat="47.4783410" lon="9.6650960">
        <ele>-20.0</ele>
        <time>2022-06-09T08:07:18Z</time>
      </trkpt>
      <trkpt lat="47.4783980" lon="9.6647010">
        <ele>-20.0</ele>
        <time>2022-06-09T08:07:22Z</time>
      </trkpt>
      <trkpt lat="47.4784100" lon="9.6643260">
        <ele>-20.0</ele>
        <time>2022-06-09T08:07:26Z</time>
      </trkpt>
      <trkpt lat="47.4783860" lon="9.6639830">
        <ele>-20.2</ele>
        <time>2022-06-09T08:07:30Z</time>
      </trkpt>
      <trkpt lat="47.4785150" lon="9.6638150">
        <ele>-20.2</ele>
        <time>2022-06-09T08:07:34Z</time>
      </trkpt>
      <trkpt lat="47.4787160" lon="9.6638660">
        <ele>-20.0</ele>
        <time>2022-06-09T08:07:38Z</time>
      </trkpt>
      <trkpt lat="47.4789310" lon="9.6639230">
        <ele>-20.0</ele>
        <time>2022-06-09T08:07:42Z</time>
      </trkpt>
      <trkpt lat="47.4791460" lon="9.6639750">
        <ele>-19.6</ele>
        <time>2022-06-09T08:07:46Z</time>
      </trkpt>
      <trkpt lat="47.4793630" lon="9.6640150">
        <ele>-20.2</ele>
        <time>2022-06-09T08:07:50Z</time>
      </trkpt>
      <trkpt lat="47.4795800" lon="9.6640060">
        <ele>-20.0</ele>
        <time>2022-06-09T08:07:54Z</time>
      </trkpt>
      <trkpt lat="47.4797980" lon="9.6640100">
        <ele>-19.6</ele>
        <time>2022-06-09T08:07:58Z</time>
      </trkpt>
      <trkpt lat="47.4800080" lon="9.6639230">
        <ele>-20.0</ele>
        <time>2022-06-09T08:08:02Z</time>
      </trkpt>
      <trkpt lat="47.4801730" lon="9.6637050">
        <ele>-21.2</ele>
        <time>2022-06-09T08:08:06Z</time>
      </trkpt>
      <trkpt lat="47.4803200" lon="9.6634480">
        <ele>-20.4</ele>
        <time>2022-06-09T08:08:10Z</time>
      </trkpt>
      <trkpt lat="47.4805110" lon="9.6632500">
        <ele>-20.2</ele>
        <time>2022-06-09T08:08:14Z</time>
      </trkpt>
      <trkpt lat="47.4807310" lon="9.6631710">
        <ele>-20.4</ele>
        <time>2022-06-09T08:08:18Z</time>
      </trkpt>
      <trkpt lat="47.4809660" lon="9.6632230">
        <ele>-20.8</ele>
        <time>2022-06-09T08:08:22Z</time>
      </trkpt>
      <trkpt lat="47.4812030" lon="9.6632210">
        <ele>-20.4</ele>
        <time>2022-06-09T08:08:26Z</time>
      </trkpt>
      <trkpt lat="47.4814160" lon="9.6631600">
        <ele>-20.4</ele>
        <time>2022-06-09T08:08:30Z</time>
      </trkpt>
      <trkpt lat="47.4815960" lon="9.6629880">
        <ele>-20.8</ele>
        <time>2022-06-09T08:08:34Z</time>
      </trkpt>
      <trkpt lat="47.4817250" lon="9.6627100">
        <ele>-20.2</ele>
        <time>2022-06-09T08:08:38Z</time>
      </trkpt>
      <trkpt lat="47.4818410" lon="9.6624160">
        <ele>-20.4</ele>
        <time>2022-06-09T08:08:42Z</time>
      </trkpt>
      <trkpt lat="47.4819510" lon="9.6621260">
        <ele>-20.0</ele>
        <time>2022-06-09T08:08:46Z</time>
      </trkpt>
      <trkpt lat="47.4820560" lon="9.6618230">
        <ele>-20.0</ele>
        <time>2022-06-09T08:08:50Z</time>
      </trkpt>
      <trkpt lat="47.4821610" lon="9.6615410">
        <ele>-20.2</ele>
        <time>2022-06-09T08:08:54Z</time>
      </trkpt>
      <trkpt lat="47.4822650" lon="9.6612700">
        <ele>-19.6</ele>
        <time>2022-06-09T08:08:58Z</time>
      </trkpt>
      <trkpt lat="47.4823680" lon="9.6609930">
        <ele>-20.4</ele>
        <time>2022-06-09T08:09:02Z</time>
      </trkpt>
      <trkpt lat="47.4824750" lon="9.6607180">
        <ele>-20.2</ele>
        <time>2022-06-09T08:09:06Z</time>
      </trkpt>
      <trkpt lat="47.4825710" lon="9.6604310">
        <ele>-21.2</ele>
        <time>2022-06-09T08:09:10Z</time>
      </trkpt>
      <trkpt lat="47.4826800" lon="9.6601500">
        <ele>-21.2</ele>
        <time>2022-06-09T08:09:14Z</time>
      </trkpt>
      <trkpt lat="47.4827830" lon="9.6598810">
        <ele>-21.8</ele>
        <time>2022-06-09T08:09:18Z</time>
      </trkpt>
      <trkpt lat="47.4828800" lon="9.6596200">
        <ele>-22.2</ele>
        <time>2022-06-09T08:09:22Z</time>
      </trkpt>
      <trkpt lat="47.4829630" lon="9.6593300">
        <ele>-21.8</ele>
        <time>2022-06-09T08:09:26Z</time>
      </trkpt>
      <trkpt lat="47.4830810" lon="9.6590480">
        <ele>-22.0</ele>
        <time>2022-06-09T08:09:30Z</time>
      </trkpt>
      <trkpt lat="47.4832500" lon="9.6588180">
        <ele>-22.0</ele>
        <time>2022-06-09T08:09:34Z</time>
      </trkpt>
      <trkpt lat="47.4834250" lon="9.6586030">
        <ele>-21.8</ele>
        <time>2022-06-09T08:09:38Z</time>
      </trkpt>
      <trkpt lat="47.4836010" lon="9.6583910">
        <ele>-22.2</ele>
        <time>2022-06-09T08:09:42Z</time>
      </trkpt>
      <trkpt lat="47.4837830" lon="9.6581750">
        <ele>-21.4</ele>
        <time>2022-06-09T08:09:46Z</time>
      </trkpt>
      <trkpt lat="47.4839710" lon="9.6579750">
        <ele>-21.8</ele>
        <time>2022-06-09T08:09:50Z</time>
      </trkpt>
      <trkpt lat="47.4841700" lon="9.6577860">
        <ele>-22.0</ele>
        <time>2022-06-09T08:09:54Z</time>
      </trkpt>
      <trkpt lat="47.4843700" lon="9.6576260">
        <ele>-22.0</ele>
        <time>2022-06-09T08:09:58Z</time>
      </trkpt>
      <trkpt lat="47.4845700" lon="9.6574380">
        <ele>-21.8</ele>
        <time>2022-06-09T08:10:02Z</time>
      </trkpt>
      <trkpt lat="47.4847600" lon="9.6572230">
        <ele>-22.2</ele>
        <time>2022-06-09T08:10:06Z</time>
      </trkpt>
      <trkpt lat="47.4849450" lon="9.6570000">
        <ele>-21.8</ele>
        <time>2022-06-09T08:10:10Z</time>
      </trkpt>
      <trkpt lat="47.4851280" lon="9.6567730">
        <ele>-21.8</ele>
        <time>2022-06-09T08:10:14Z</time>
      </trkpt>
      <trkpt lat="47.4853130" lon="9.6565530">
        <ele>-22.2</ele>
        <time>2022-06-09T08:10:18Z</time>
      </trkpt>
      <trkpt lat="47.4855010" lon="9.6563380">
        <ele>-22.2</ele>
        <time>2022-06-09T08:10:22Z</time>
      </trkpt>
      <trkpt lat="47.4856850" lon="9.6561230">
        <ele>-22.4</ele>
        <time>2022-06-09T08:10:26Z</time>
      </trkpt>
      <trkpt lat="47.4858800" lon="9.6559310">
        <ele>-22.4</ele>
        <time>2022-06-09T08:10:30Z</time>
      </trkpt>
      <trkpt lat="47.4860450" lon="9.6557050">
        <ele>-22.4</ele>
        <time>2022-06-09T08:10:34Z</time>
      </trkpt>
      <trkpt lat="47.4861600" lon="9.6554430">
        <ele>-22.2</ele>
        <time>2022-06-09T08:10:38Z</time>
      </trkpt>
      <trkpt lat="47.4862630" lon="9.6551910">
        <ele>-22.0</ele>
        <time>2022-06-09T08:10:42Z</time>
      </trkpt>
      <trkpt lat="47.4863860" lon="9.6549750">
        <ele>-21.6</ele>
        <time>2022-06-09T08:10:46Z</time>
      </trkpt>
      <trkpt lat="47.4864600" lon="9.6547630">
        <ele>-21.4</ele>
        <time>2022-06-09T08:10:50Z</time>
      </trkpt>
      <trkpt lat="47.4864600" lon="9.6545200">
        <ele>-22.4</ele>
        <time>2022-06-09T08:10:54Z</time>
      </trkpt>
      <trkpt lat="47.4864500" lon="9.6542410">
        <ele>-22.2</ele>
        <time>2022-06-09T08:10:58Z</time>
      </trkpt>
      <trkpt lat="47.4864450" lon="9.6539680">
        <ele>-22.2</ele>
        <time>2022-06-09T08:11:02Z</time>
      </trkpt>
      <trkpt lat="47.4864400" lon="9.6536930">
        <ele>-22.8</ele>
        <time>2022-06-09T08:11:06Z</time>
      </trkpt>
      <trkpt lat="47.4864330" lon="9.6534100">
        <ele>-22.4</ele>
        <time>2022-06-09T08:11:10Z</time>
      </trkpt>
      <trkpt lat="47.4864210" lon="9.6531250">
        <ele>-22.2</ele>
        <time>2022-06-09T08:11:14Z</time>
      </trkpt>
      <trkpt lat="47.4864110" lon="9.6528400">
        <ele>-22.0</ele>
        <time>2022-06-09T08:11:18Z</time>
      </trkpt>
      <trkpt lat="47.4864050" lon="9.6525630">
        <ele>-22.4</ele>
        <time>2022-06-09T08:11:22Z</time>
      </trkpt>
      <trkpt lat="47.4863960" lon="9.6522830">
        <ele>-21.8</ele>
        <time>2022-06-09T08:11:26Z</time>
      </trkpt>
      <trkpt lat="47.4863880" lon="9.6520060">
        <ele>-22.0</ele>
        <time>2022-06-09T08:11:30Z</time>
      </trkpt>
      <trkpt lat="47.4863760" lon="9.6517260">
        <ele>-22.4</ele>
        <time>2022-06-09T08:11:34Z</time>
      </trkpt>
      <trkpt lat="47.4863660" lon="9.6514510">
        <ele>-22.4</ele>
        <time>2022-06-09T08:11:38Z</time>
      </trkpt>
      <trkpt lat="47.4863600" lon="9.6511730">
        <ele>-22.4</ele>
        <time>2022-06-09T08:11:42Z</time>
      </trkpt>
      <trkpt lat="47.4863530" lon="9.6508910">
        <ele>-22.4</ele>
        <time>2022-06-09T08:11:46Z</time>
      </trkpt>
      <trkpt lat="47.4863430" lon="9.6506080">
        <ele>-22.6</ele>
        <time>2022-06-09T08:11:50Z</time>
      </trkpt>
      <trkpt lat="47.4863360" lon="9.6503210">
        <ele>-22.6</ele>
        <time>2022-06-09T08:11:54Z</time>
      </trkpt>
      <trkpt lat="47.4863430" lon="9.6500280">
        <ele>-22.8</ele>
        <time>2022-06-09T08:11:58Z</time>
      </trkpt>
      <trkpt lat="47.4863580" lon="9.6497330">
        <ele>-22.6</ele>
        <time>2022-06-09T08:12:02Z</time>
      </trkpt>
      <trkpt lat="47.4863880" lon="9.6494460">
        <ele>-22.6</ele>
        <time>2022-06-09T08:12:06Z</time>
      </trkpt>
      <trkpt lat="47.4864300" lon="9.6491480">
        <ele>-23.0</ele>
        <time>2022-06-09T08:12:10Z</time>
      </trkpt>
      <trkpt lat="47.4864850" lon="9.6488530">
        <ele>-23.2</ele>
        <time>2022-06-09T08:12:14Z</time>
      </trkpt>
      <trkpt lat="47.4865530" lon="9.6485610">
        <ele>-23.0</ele>
        <time>2022-06-09T08:12:18Z</time>
      </trkpt>
      <trkpt lat="47.4866350" lon="9.6482730">
        <ele>-22.8</ele>
        <time>2022-06-09T08:12:22Z</time>
      </trkpt>
      <trkpt lat="47.4867330" lon="9.6479880">
        <ele>-22.4</ele>
        <time>2022-06-09T08:12:26Z</time>
      </trkpt>
      <trkpt lat="47.4868430" lon="9.6477160">
        <ele>-22.2</ele>
        <time>2022-06-09T08:12:30Z</time>
      </trkpt>
      <trkpt lat="47.4869650" lon="9.6474530">
        <ele>-22.6</ele>
        <time>2022-06-09T08:12:34Z</time>
      </trkpt>
      <trkpt lat="47.4870960" lon="9.6472010">
        <ele>-22.6</ele>
        <time>2022-06-09T08:12:38Z</time>
      </trkpt>
      <trkpt lat="47.4872380" lon="9.6469630">
        <ele>-22.8</ele>
        <time>2022-06-09T08:12:42Z</time>
      </trkpt>
      <trkpt lat="47.4873910" lon="9.6467450">
        <ele>-22.6</ele>
        <time>2022-06-09T08:12:46Z</time>
      </trkpt>
      <trkpt lat="47.4875580" lon="9.6465410">
        <ele>-23.0</ele>
        <time>2022-06-09T08:12:50Z</time>
      </trkpt>
      <trkpt lat="47.4877250" lon="9.6463460">
        <ele>-22.6</ele>
        <time>2022-06-09T08:12:54Z</time>
      </trkpt>
      <trkpt lat="47.4878910" lon="9.6461550">
        <ele>-22.4</ele>
        <time>2022-06-09T08:12:58Z</time>
      </trkpt>
      <trkpt lat="47.4880580" lon="9.6459610">
        <ele>-22.8</ele>
        <time>2022-06-09T08:13:02Z</time>
      </trkpt>
      <trkpt lat="47.4882230" lon="9.6457650">
        <ele>-23.2</ele>
        <time>2022-06-09T08:13:06Z</time>
      </trkpt>
      <trkpt lat="47.4883880" lon="9.6455680">
        <ele>-22.8</ele>
        <time>2022-06-09T08:13:10Z</time>
      </trkpt>
      <trkpt lat="47.4885580" lon="9.6453750">
        <ele>-22.6</ele>
        <time>2022-06-09T08:13:14Z</time>
      </trkpt>
      <trkpt lat="47.4887260" lon="9.6451800">
        <ele>-22.4</ele>
        <time>2022-06-09T08:13:18Z</time>
      </trkpt>
      <trkpt lat="47.4888930" lon="9.6449830">
        <ele>-22.6</ele>
        <time>2022-06-09T08:13:22Z</time>
      </trkpt>
      <trkpt lat="47.4890610" lon="9.6447880">
        <ele>-22.4</ele>
        <time>2022-06-09T08:13:26Z</time>
      </trkpt>
      <trkpt lat="47.4892280" lon="9.6445960">
        <ele>-22.6</ele>
        <time>2022-06-09T08:13:30Z</time>
      </trkpt>
      <trkpt lat="47.4893950" lon="9.6444060">
        <ele>-22.6</ele>
        <time>2022-06-09T08:13:34Z</time>
      </trkpt>
      <trkpt lat="47.4895580" lon="9.6442150">
        <ele>-22.4</ele>
        <time>2022-06-09T08:13:38Z</time>
      </trkpt>
      <trkpt lat="47.4897200" lon="9.6440250">
        <ele>-22.0</ele>
        <time>2022-06-09T08:13:42Z</time>
      </trkpt>
      <trkpt lat="47.4898780" lon="9.6438360">
        <ele>-22.0</ele>
        <time>2022-06-09T08:13:46Z</time>
      </trkpt>
      <trkpt lat="47.4900380" lon="9.6436430">
        <ele>-22.4</ele>
        <time>2022-06-09T08:13:50Z</time>
      </trkpt>
      <trkpt lat="47.4901910" lon="9.6434460">
        <ele>-22.6</ele>
        <time>2022-06-09T08:13:54Z</time>
      </trkpt>
      <trkpt lat="47.4903380" lon="9.6432450">
        <ele>-22.2</ele>
        <time>2022-06-09T08:13:58Z</time>
      </trkpt>
      <trkpt lat="47.4904800" lon="9.6430380">
        <ele>-22.8</ele>
        <time>2022-06-09T08:14:02Z</time>
      </trkpt>
      <trkpt lat="47.4906200" lon="9.6428360">
        <ele>-22.4</ele>
        <time>2022-06-09T08:14:06Z</time>
      </trkpt>
      <trkpt lat="47.4907550" lon="9.6426310">
        <ele>-22.0</ele>
        <time>2022-06-09T08:14:10Z</time>
      </trkpt>
      <trkpt lat="47.4908930" lon="9.6424160">
        <ele>-21.8</ele>
        <time>2022-06-09T08:14:14Z</time>
      </trkpt>
      <trkpt lat="47.4910400" lon="9.6422060">
        <ele>-22.0</ele>
        <time>2022-06-09T08:14:18Z</time>
      </trkpt>
      <trkpt lat="47.4911860" lon="9.6419880">
        <ele>-22.2</ele>
        <time>2022-06-09T08:14:22Z</time>
      </trkpt>
      <trkpt lat="47.4913260" lon="9.6417650">
        <ele>-22.6</ele>
        <time>2022-06-09T08:14:26Z</time>
      </trkpt>
      <trkpt lat="47.4914730" lon="9.6415450">
        <ele>-22.0</ele>
        <time>2022-06-09T08:14:30Z</time>
      </trkpt>
      <trkpt lat="47.4916110" lon="9.6413310">
        <ele>-22.2</ele>
        <time>2022-06-09T08:14:34Z</time>
      </trkpt>
      <trkpt lat="47.4917460" lon="9.6411280">
        <ele>-22.2</ele>
        <time>2022-06-09T08:14:38Z</time>
      </trkpt>
      <trkpt lat="47.4918730" lon="9.6409430">
        <ele>-22.2</ele>
        <time>2022-06-09T08:14:42Z</time>
      </trkpt>
      <trkpt lat="47.4919680" lon="9.6407550">
        <ele>-23.0</ele>
        <time>2022-06-09T08:14:46Z</time>
      </trkpt>
      <trkpt lat="47.4920500" lon="9.6404980">
        <ele>-23.4</ele>
        <time>2022-06-09T08:14:50Z</time>
      </trkpt>
      <trkpt lat="47.4922180" lon="9.6402660">
        <ele>-23.2</ele>
        <time>2022-06-09T08:14:54Z</time>
      </trkpt>
      <trkpt lat="47.4923880" lon="9.6400410">
        <ele>-27.2</ele>
        <time>2022-06-09T08:14:58Z</time>
      </trkpt>
      <trkpt lat="47.4925530" lon="9.6398130">
        <ele>-23.8</ele>
        <time>2022-06-09T08:15:02Z</time>
      </trkpt>
      <trkpt lat="47.4927230" lon="9.6395880">
        <ele>-23.8</ele>
        <time>2022-06-09T08:15:06Z</time>
      </trkpt>
      <trkpt lat="47.4928800" lon="9.6393730">
        <ele>-23.6</ele>
        <time>2022-06-09T08:15:10Z</time>
      </trkpt>
      <trkpt lat="47.4930430" lon="9.6391700">
        <ele>-23.4</ele>
        <time>2022-06-09T08:15:14Z</time>
      </trkpt>
      <trkpt lat="47.4932030" lon="9.6389580">
        <ele>-23.8</ele>
        <time>2022-06-09T08:15:18Z</time>
      </trkpt>
      <trkpt lat="47.4933580" lon="9.6387460">
        <ele>-23.8</ele>
        <time>2022-06-09T08:15:22Z</time>
      </trkpt>
      <trkpt lat="47.4935160" lon="9.6385310">
        <ele>-23.6</ele>
        <time>2022-06-09T08:15:26Z</time>
      </trkpt>
      <trkpt lat="47.4936760" lon="9.6383210">
        <ele>-24.0</ele>
        <time>2022-06-09T08:15:30Z</time>
      </trkpt>
      <trkpt lat="47.4938280" lon="9.6381060">
        <ele>-23.2</ele>
        <time>2022-06-09T08:15:34Z</time>
      </trkpt>
      <trkpt lat="47.4939880" lon="9.6379080">
        <ele>-23.0</ele>
        <time>2022-06-09T08:15:38Z</time>
      </trkpt>
      <trkpt lat="47.4941430" lon="9.6377110">
        <ele>-23.8</ele>
        <time>2022-06-09T08:15:42Z</time>
      </trkpt>
      <trkpt lat="47.4943210" lon="9.6375380">
        <ele>-23.2</ele>
        <time>2022-06-09T08:15:46Z</time>
      </trkpt>
      <trkpt lat="47.4945260" lon="9.6374350">
        <ele>-23.8</ele>
        <time>2022-06-09T08:15:50Z</time>
      </trkpt>
      <trkpt lat="47.4947450" lon="9.6373860">
        <ele>-23.8</ele>
        <time>2022-06-09T08:15:54Z</time>
      </trkpt>
      <trkpt lat="47.4949630" lon="9.6373460">
        <ele>-24.2</ele>
        <time>2022-06-09T08:15:58Z</time>
      </trkpt>
      <trkpt lat="47.4951730" lon="9.6373160">
        <ele>-23.8</ele>
        <time>2022-06-09T08:16:02Z</time>
      </trkpt>
      <trkpt lat="47.4953810" lon="9.6372830">
        <ele>-24.4</ele>
        <time>2022-06-09T08:16:06Z</time>
      </trkpt>
      <trkpt lat="47.4955900" lon="9.6372480">
        <ele>-23.8</ele>
        <time>2022-06-09T08:16:10Z</time>
      </trkpt>
      <trkpt lat="47.4957960" lon="9.6371960">
        <ele>-23.8</ele>
        <time>2022-06-09T08:16:14Z</time>
      </trkpt>
      <trkpt lat="47.4960000" lon="9.6371360">
        <ele>-23.8</ele>
        <time>2022-06-09T08:16:18Z</time>
      </trkpt>
      <trkpt lat="47.4962100" lon="9.6370730">
        <ele>-23.8</ele>
        <time>2022-06-09T08:16:22Z</time>
      </trkpt>
      <trkpt lat="47.4964180" lon="9.6370080">
        <ele>-23.6</ele>
        <time>2022-06-09T08:16:26Z</time>
      </trkpt>
      <trkpt lat="47.4966230" lon="9.6369180">
        <ele>-23.6</ele>
        <time>2022-06-09T08:16:30Z</time>
      </trkpt>
      <trkpt lat="47.4968180" lon="9.6368430">
        <ele>-23.6</ele>
        <time>2022-06-09T08:16:34Z</time>
      </trkpt>
      <trkpt lat="47.4970100" lon="9.6367410">
        <ele>-23.8</ele>
        <time>2022-06-09T08:16:38Z</time>
      </trkpt>
      <trkpt lat="47.4971960" lon="9.6365880">
        <ele>-23.0</ele>
        <time>2022-06-09T08:16:42Z</time>
      </trkpt>
      <trkpt lat="47.4973630" lon="9.6363960">
        <ele>-23.8</ele>
        <time>2022-06-09T08:16:46Z</time>
      </trkpt>
      <trkpt lat="47.4974930" lon="9.6361460">
        <ele>-23.4</ele>
        <time>2022-06-09T08:16:50Z</time>
      </trkpt>
      <trkpt lat="47.4975830" lon="9.6358600">
        <ele>-23.8</ele>
        <time>2022-06-09T08:16:54Z</time>
      </trkpt>
      <trkpt lat="47.4976530" lon="9.6355680">
        <ele>-23.8</ele>
        <time>2022-06-09T08:16:58Z</time>
      </trkpt>
      <trkpt lat="47.4977210" lon="9.6352760">
        <ele>-23.8</ele>
        <time>2022-06-09T08:17:02Z</time>
      </trkpt>
      <trkpt lat="47.4977930" lon="9.6349910">
        <ele>-24.4</ele>
        <time>2022-06-09T08:17:06Z</time>
      </trkpt>
      <trkpt lat="47.4978600" lon="9.6347000">
        <ele>-24.4</ele>
        <time>2022-06-09T08:17:10Z</time>
      </trkpt>
      <trkpt lat="47.4979310" lon="9.6344100">
        <ele>-24.2</ele>
        <time>2022-06-09T08:17:14Z</time>
      </trkpt>
      <trkpt lat="47.4979960" lon="9.6341230">
        <ele>-24.6</ele>
        <time>2022-06-09T08:17:18Z</time>
      </trkpt>
      <trkpt lat="47.4980650" lon="9.6338460">
        <ele>-24.4</ele>
        <time>2022-06-09T08:17:22Z</time>
      </trkpt>
      <trkpt lat="47.4981300" lon="9.6335850">
        <ele>-24.4</ele>
        <time>2022-06-09T08:17:26Z</time>
      </trkpt>
      <trkpt lat="47.4982010" lon="9.6334650">
        <ele>-23.0</ele>
        <time>2022-06-09T08:17:30Z</time>
      </trkpt>
      <trkpt lat="47.4982330" lon="9.6335410">
        <ele>-23.2</ele>
        <time>2022-06-09T08:17:34Z</time>
      </trkpt>
      <trkpt lat="47.4982930" lon="9.6334880">
        <ele>-23.2</ele>
        <time>2022-06-09T08:17:38Z</time>
      </trkpt>
      <trkpt lat="47.4983380" lon="9.6332750">
        <ele>-23.2</ele>
        <time>2022-06-09T08:17:42Z</time>
      </trkpt>
      <trkpt lat="47.4983580" lon="9.6330410">
        <ele>-23.6</ele>
        <time>2022-06-09T08:17:46Z</time>
      </trkpt>
      <trkpt lat="47.4983600" lon="9.6328080">
        <ele>-23.8</ele>
        <time>2022-06-09T08:17:50Z</time>
      </trkpt>
      <trkpt lat="47.4983430" lon="9.6325700">
        <ele>-23.2</ele>
        <time>2022-06-09T08:17:54Z</time>
      </trkpt>
      <trkpt lat="47.4983080" lon="9.6323310">
        <ele>-23.6</ele>
        <time>2022-06-09T08:17:58Z</time>
      </trkpt>
      <trkpt lat="47.4982560" lon="9.6321080">
        <ele>-22.8</ele>
        <time>2022-06-09T08:18:02Z</time>
      </trkpt>
      <trkpt lat="47.4981860" lon="9.6318900">
        <ele>-23.2</ele>
        <time>2022-06-09T08:18:06Z</time>
      </trkpt>
      <trkpt lat="47.4980960" lon="9.6316780">
        <ele>-23.0</ele>
        <time>2022-06-09T08:18:10Z</time>
      </trkpt>
      <trkpt lat="47.4979950" lon="9.6314650">
        <ele>-22.8</ele>
        <time>2022-06-09T08:18:14Z</time>
      </trkpt>
      <trkpt lat="47.4978930" lon="9.6312580">
        <ele>-22.4</ele>
        <time>2022-06-09T08:18:18Z</time>
      </trkpt>
      <trkpt lat="47.4977950" lon="9.6310480">
        <ele>-22.8</ele>
        <time>2022-06-09T08:18:22Z</time>
      </trkpt>
      <trkpt lat="47.4976860" lon="9.6308510">
        <ele>-22.6</ele>
        <time>2022-06-09T08:18:26Z</time>
      </trkpt>
      <trkpt lat="47.4975850" lon="9.6306530">
        <ele>-22.4</ele>
        <time>2022-06-09T08:18:30Z</time>
      </trkpt>
      <trkpt lat="47.4974830" lon="9.6304560">
        <ele>-22.2</ele>
        <time>2022-06-09T08:18:34Z</time>
      </trkpt>
      <trkpt lat="47.4973600" lon="9.6302550">
        <ele>-22.6</ele>
        <time>2022-06-09T08:18:38Z</time>
      </trkpt>
      <trkpt lat="47.4972380" lon="9.6300380">
        <ele>-22.8</ele>
        <time>2022-06-09T08:18:42Z</time>
      </trkpt>
      <trkpt lat="47.4971110" lon="9.6298150">
        <ele>-22.4</ele>
        <time>2022-06-09T08:18:46Z</time>
      </trkpt>
      <trkpt lat="47.4969800" lon="9.6295980">
        <ele>-23.8</ele>
        <time>2022-06-09T08:18:50Z</time>
      </trkpt>
      <trkpt lat="47.4968500" lon="9.6293830">
        <ele>-23.2</ele>
        <time>2022-06-09T08:18:54Z</time>
      </trkpt>
      <trkpt lat="47.4967130" lon="9.6291700">
        <ele>-23.0</ele>
        <time>2022-06-09T08:18:58Z</time>
      </trkpt>
      <trkpt lat="47.4965800" lon="9.6289460">
        <ele>-23.8</ele>
        <time>2022-06-09T08:19:02Z</time>
      </trkpt>
      <trkpt lat="47.4964460" lon="9.6287230">
        <ele>-22.6</ele>
        <time>2022-06-09T08:19:06Z</time>
      </trkpt>
      <trkpt lat="47.4963080" lon="9.6284910">
        <ele>-23.2</ele>
        <time>2022-06-09T08:19:10Z</time>
      </trkpt>
      <trkpt lat="47.4961650" lon="9.6282550">
        <ele>-23.0</ele>
        <time>2022-06-09T08:19:14Z</time>
      </trkpt>
      <trkpt lat="47.4960210" lon="9.6280380">
        <ele>-22.4</ele>
        <time>2022-06-09T08:19:18Z</time>
      </trkpt>
      <trkpt lat="47.4958880" lon="9.6278210">
        <ele>-23.8</ele>
        <time>2022-06-09T08:19:22Z</time>
      </trkpt>
      <trkpt lat="47.4957780" lon="9.6276460">
        <ele>-23.8</ele>
        <time>2022-06-09T08:19:26Z</time>
      </trkpt>
      <trkpt lat="47.4956880" lon="9.6275030">
        <ele>-23.8</ele>
        <time>2022-06-09T08:19:30Z</time>
      </trkpt>
      <trkpt lat="47.4955910" lon="9.6272900">
        <ele>-23.2</ele>
        <time>2022-06-09T08:19:34Z</time>
      </trkpt>
      <trkpt lat="47.4954650" lon="9.6270660">
        <ele>-23.0</ele>
        <time>2022-06-09T08:19:38Z</time>
      </trkpt>
      <trkpt lat="47.4953430" lon="9.6268280">
        <ele>-23.2</ele>
        <time>2022-06-09T08:19:42Z</time>
      </trkpt>
      <trkpt lat="47.4952130" lon="9.6265810">
        <ele>-23.8</ele>
        <time>2022-06-09T08:19:46Z</time>
      </trkpt>
      <trkpt lat="47.4950780" lon="9.6263250">
        <ele>-23.6</ele>
        <time>2022-06-09T08:19:50Z</time>
      </trkpt>
      <trkpt lat="47.4949480" lon="9.6260700">
        <ele>-23.8</ele>
        <time>2022-06-09T08:19:54Z</time>
      </trkpt>
      <trkpt lat="47.4948160" lon="9.6258150">
        <ele>-23.8</ele>
        <time>2022-06-09T08:19:58Z</time>
      </trkpt>
      <trkpt lat="47.4946860" lon="9.6255660">
        <ele>-24.0</ele>
        <time>2022-06-09T08:20:02Z</time>
      </trkpt>
      <trkpt lat="47.4945600" lon="9.6253160">
        <ele>-23.8</ele>
        <time>2022-06-09T08:20:06Z</time>
      </trkpt>
      <trkpt lat="47.4944310" lon="9.6250700">
        <ele>-23.8</ele>
        <time>2022-06-09T08:20:10Z</time>
      </trkpt>
      <trkpt lat="47.4943050" lon="9.6248160">
        <ele>-23.8</ele>
        <time>2022-06-09T08:20:14Z</time>
      </trkpt>
      <trkpt lat="47.4941700" lon="9.6245680">
        <ele>-23.6</ele>
        <time>2022-06-09T08:20:18Z</time>
      </trkpt>
      <trkpt lat="47.4940350" lon="9.6243210">
        <ele>-23.8</ele>
        <time>2022-06-09T08:20:22Z</time>
      </trkpt>
      <trkpt lat="47.4939080" lon="9.6240750">
        <ele>-23.6</ele>
        <time>2022-06-09T08:20:26Z</time>
      </trkpt>
      <trkpt lat="47.4937880" lon="9.6238260">
        <ele>-23.2</ele>
        <time>2022-06-09T08:20:30Z</time>
      </trkpt>
      <trkpt lat="47.4936660" lon="9.6235800">
        <ele>-23.4</ele>
        <time>2022-06-09T08:20:34Z</time>
      </trkpt>
      <trkpt lat="47.4935410" lon="9.6233360">
        <ele>-22.8</ele>
        <time>2022-06-09T08:20:38Z</time>
      </trkpt>
      <trkpt lat="47.4934160" lon="9.6230850">
        <ele>-23.6</ele>
        <time>2022-06-09T08:20:42Z</time>
      </trkpt>
      <trkpt lat="47.4933150" lon="9.6228160">
        <ele>-23.2</ele>
        <time>2022-06-09T08:20:46Z</time>
      </trkpt>
      <trkpt lat="47.4932130" lon="9.6225650">
        <ele>-24.0</ele>
        <time>2022-06-09T08:20:50Z</time>
      </trkpt>
      <trkpt lat="47.4931400" lon="9.6223080">
        <ele>-22.8</ele>
        <time>2022-06-09T08:20:54Z</time>
      </trkpt>
      <trkpt lat="47.4930510" lon="9.6220460">
        <ele>-23.0</ele>
        <time>2022-06-09T08:20:58Z</time>
      </trkpt>
      <trkpt lat="47.4929750" lon="9.6217700">
        <ele>-23.0</ele>
        <time>2022-06-09T08:21:02Z</time>
      </trkpt>
      <trkpt lat="47.4928660" lon="9.6214950">
        <ele>-23.4</ele>
        <time>2022-06-09T08:21:06Z</time>
      </trkpt>
      <trkpt lat="47.4927500" lon="9.6212350">
        <ele>-22.8</ele>
        <time>2022-06-09T08:21:10Z</time>
      </trkpt>
      <trkpt lat="47.4926480" lon="9.6209750">
        <ele>-23.0</ele>
        <time>2022-06-09T08:21:14Z</time>
      </trkpt>
      <trkpt lat="47.4925510" lon="9.6207110">
        <ele>-22.6</ele>
        <time>2022-06-09T08:21:18Z</time>
      </trkpt>
      <trkpt lat="47.4924680" lon="9.6204350">
        <ele>-22.8</ele>
        <time>2022-06-09T08:21:22Z</time>
      </trkpt>
      <trkpt lat="47.4923860" lon="9.6201730">
        <ele>-22.6</ele>
        <time>2022-06-09T08:21:26Z</time>
      </trkpt>
      <trkpt lat="47.4923200" lon="9.6199480">
        <ele>-22.4</ele>
        <time>2022-06-09T08:21:30Z</time>
      </trkpt>
      <trkpt lat="47.4922410" lon="9.6197180">
        <ele>-21.6</ele>
        <time>2022-06-09T08:21:34Z</time>
      </trkpt>
      <trkpt lat="47.4921510" lon="9.6194550">
        <ele>-22.6</ele>
        <time>2022-06-09T08:21:38Z</time>
      </trkpt>
      <trkpt lat="47.4920600" lon="9.6191860">
        <ele>-22.6</ele>
        <time>2022-06-09T08:21:42Z</time>
      </trkpt>
      <trkpt lat="47.4919700" lon="9.6189200">
        <ele>-21.8</ele>
        <time>2022-06-09T08:21:46Z</time>
      </trkpt>
      <trkpt lat="47.4918780" lon="9.6186530">
        <ele>-22.6</ele>
        <time>2022-06-09T08:21:50Z</time>
      </trkpt>
      <trkpt lat="47.4917850" lon="9.6183880">
        <ele>-23.2</ele>
        <time>2022-06-09T08:21:54Z</time>
      </trkpt>
      <trkpt lat="47.4916950" lon="9.6181210">
        <ele>-22.8</ele>
        <time>2022-06-09T08:21:58Z</time>
      </trkpt>
      <trkpt lat="47.4916030" lon="9.6178560">
        <ele>-23.4</ele>
        <time>2022-06-09T08:22:02Z</time>
      </trkpt>
      <trkpt lat="47.4915300" lon="9.6175800">
        <ele>-22.6</ele>
        <time>2022-06-09T08:22:06Z</time>
      </trkpt>
      <trkpt lat="47.4914660" lon="9.6172960">
        <ele>-22.6</ele>
        <time>2022-06-09T08:22:10Z</time>
      </trkpt>
      <trkpt lat="47.4914030" lon="9.6170060">
        <ele>-23.0</ele>
        <time>2022-06-09T08:22:14Z</time>
      </trkpt>
      <trkpt lat="47.4913410" lon="9.6167110">
        <ele>-23.0</ele>
        <time>2022-06-09T08:22:18Z</time>
      </trkpt>
      <trkpt lat="47.4912780" lon="9.6164160">
        <ele>-22.8</ele>
        <time>2022-06-09T08:22:22Z</time>
      </trkpt>
      <trkpt lat="47.4912160" lon="9.6161300">
        <ele>-23.0</ele>
        <time>2022-06-09T08:22:26Z</time>
      </trkpt>
      <trkpt lat="47.4911730" lon="9.6158510">
        <ele>-22.4</ele>
        <time>2022-06-09T08:22:30Z</time>
      </trkpt>
      <trkpt lat="47.4911000" lon="9.6155800">
        <ele>-22.0</ele>
        <time>2022-06-09T08:22:34Z</time>
      </trkpt>
      <trkpt lat="47.4910350" lon="9.6152830">
        <ele>-23.2</ele>
        <time>2022-06-09T08:22:38Z</time>
      </trkpt>
      <trkpt lat="47.4909710" lon="9.6149850">
        <ele>-22.8</ele>
        <time>2022-06-09T08:22:42Z</time>
      </trkpt>
      <trkpt lat="47.4909100" lon="9.6146950">
        <ele>-23.8</ele>
        <time>2022-06-09T08:22:46Z</time>
      </trkpt>
      <trkpt lat="47.4908550" lon="9.6144410">
        <ele>-23.6</ele>
        <time>2022-06-09T08:22:50Z</time>
      </trkpt>
      <trkpt lat="47.4908000" lon="9.6141780">
        <ele>-23.6</ele>
        <time>2022-06-09T08:22:54Z</time>
      </trkpt>
      <trkpt lat="47.4907410" lon="9.6139100">
        <ele>-24.2</ele>
        <time>2022-06-09T08:22:58Z</time>
      </trkpt>
      <trkpt lat="47.4906810" lon="9.6136250">
        <ele>-23.2</ele>
        <time>2022-06-09T08:23:02Z</time>
      </trkpt>
      <trkpt lat="47.4906030" lon="9.6133480">
        <ele>-23.6</ele>
        <time>2022-06-09T08:23:06Z</time>
      </trkpt>
      <trkpt lat="47.4905080" lon="9.6130880">
        <ele>-23.6</ele>
        <time>2022-06-09T08:23:10Z</time>
      </trkpt>
      <trkpt lat="47.4904050" lon="9.6128730">
        <ele>-23.2</ele>
        <time>2022-06-09T08:23:14Z</time>
      </trkpt>
      <trkpt lat="47.4902730" lon="9.6127030">
        <ele>-23.0</ele>
        <time>2022-06-09T08:23:18Z</time>
      </trkpt>
      <trkpt lat="47.4901610" lon="9.6125530">
        <ele>-21.8</ele>
        <time>2022-06-09T08:23:22Z</time>
      </trkpt>
      <trkpt lat="47.4900380" lon="9.6124000">
        <ele>-23.0</ele>
        <time>2022-06-09T08:23:26Z</time>
      </trkpt>
      <trkpt lat="47.4898810" lon="9.6122450">
        <ele>-23.0</ele>
        <time>2022-06-09T08:23:30Z</time>
      </trkpt>
      <trkpt lat="47.4897210" lon="9.6120900">
        <ele>-22.6</ele>
        <time>2022-06-09T08:23:34Z</time>
      </trkpt>
      <trkpt lat="47.4895560" lon="9.6119310">
        <ele>-22.6</ele>
        <time>2022-06-09T08:23:38Z</time>
      </trkpt>
      <trkpt lat="47.4893910" lon="9.6117680">
        <ele>-22.2</ele>
        <time>2022-06-09T08:23:42Z</time>
      </trkpt>
      <trkpt lat="47.4892330" lon="9.6116100">
        <ele>-22.8</ele>
        <time>2022-06-09T08:23:46Z</time>
      </trkpt>
      <trkpt lat="47.4890880" lon="9.6114660">
        <ele>-22.6</ele>
        <time>2022-06-09T08:23:50Z</time>
      </trkpt>
      <trkpt lat="47.4889410" lon="9.6113180">
        <ele>-22.0</ele>
        <time>2022-06-09T08:23:54Z</time>
      </trkpt>
      <trkpt lat="47.4887860" lon="9.6111680">
        <ele>-22.2</ele>
        <time>2022-06-09T08:23:58Z</time>
      </trkpt>
      <trkpt lat="47.4886260" lon="9.6110200">
        <ele>-22.0</ele>
        <time>2022-06-09T08:24:02Z</time>
      </trkpt>
      <trkpt lat="47.4884680" lon="9.6108650">
        <ele>-22.6</ele>
        <time>2022-06-09T08:24:06Z</time>
      </trkpt>
      <trkpt lat="47.4883110" lon="9.6107110">
        <ele>-22.2</ele>
        <time>2022-06-09T08:24:10Z</time>
      </trkpt>
      <trkpt lat="47.4881610" lon="9.6105310">
        <ele>-21.8</ele>
        <time>2022-06-09T08:24:14Z</time>
      </trkpt>
      <trkpt lat="47.4880350" lon="9.6103230">
        <ele>-22.4</ele>
        <time>2022-06-09T08:24:18Z</time>
      </trkpt>
      <trkpt lat="47.4879160" lon="9.6100900">
        <ele>-22.0</ele>
        <time>2022-06-09T08:24:22Z</time>
      </trkpt>
      <trkpt lat="47.4878380" lon="9.6098360">
        <ele>-21.8</ele>
        <time>2022-06-09T08:24:26Z</time>
      </trkpt>
      <trkpt lat="47.4877800" lon="9.6095630">
        <ele>-22.0</ele>
        <time>2022-06-09T08:24:30Z</time>
      </trkpt>
      <trkpt lat="47.4877400" lon="9.6092750">
        <ele>-22.6</ele>
        <time>2022-06-09T08:24:34Z</time>
      </trkpt>
      <trkpt lat="47.4877100" lon="9.6089700">
        <ele>-22.0</ele>
        <time>2022-06-09T08:24:38Z</time>
      </trkpt>
      <trkpt lat="47.4876760" lon="9.6086560">
        <ele>-22.4</ele>
        <time>2022-06-09T08:24:42Z</time>
      </trkpt>
      <trkpt lat="47.4876500" lon="9.6083430">
        <ele>-23.2</ele>
        <time>2022-06-09T08:24:46Z</time>
      </trkpt>
      <trkpt lat="47.4876210" lon="9.6080500">
        <ele>-22.8</ele>
        <time>2022-06-09T08:24:50Z</time>
      </trkpt>
      <trkpt lat="47.4875910" lon="9.6077700">
        <ele>-22.6</ele>
        <time>2022-06-09T08:24:54Z</time>
      </trkpt>
      <trkpt lat="47.4875630" lon="9.6074930">
        <ele>-22.6</ele>
        <time>2022-06-09T08:24:58Z</time>
      </trkpt>
      <trkpt lat="47.4875330" lon="9.6072110">
        <ele>-22.8</ele>
        <time>2022-06-09T08:25:02Z</time>
      </trkpt>
      <trkpt lat="47.4875100" lon="9.6069410">
        <ele>-22.4</ele>
        <time>2022-06-09T08:25:06Z</time>
      </trkpt>
      <trkpt lat="47.4874780" lon="9.6066510">
        <ele>-22.0</ele>
        <time>2022-06-09T08:25:10Z</time>
      </trkpt>
      <trkpt lat="47.4874460" lon="9.6063660">
        <ele>-22.6</ele>
        <time>2022-06-09T08:25:14Z</time>
      </trkpt>
      <trkpt lat="47.4874150" lon="9.6060680">
        <ele>-21.8</ele>
        <time>2022-06-09T08:25:18Z</time>
      </trkpt>
      <trkpt lat="47.4873830" lon="9.6057760">
        <ele>-21.4</ele>
        <time>2022-06-09T08:25:22Z</time>
      </trkpt>
      <trkpt lat="47.4873530" lon="9.6054760">
        <ele>-21.8</ele>
        <time>2022-06-09T08:25:26Z</time>
      </trkpt>
      <trkpt lat="47.4873460" lon="9.6051830">
        <ele>-22.0</ele>
        <time>2022-06-09T08:25:30Z</time>
      </trkpt>
      <trkpt lat="47.4873260" lon="9.6048830">
        <ele>-22.0</ele>
        <time>2022-06-09T08:25:34Z</time>
      </trkpt>
      <trkpt lat="47.4873210" lon="9.6045710">
        <ele>-21.8</ele>
        <time>2022-06-09T08:25:38Z</time>
      </trkpt>
      <trkpt lat="47.4873300" lon="9.6042560">
        <ele>-22.4</ele>
        <time>2022-06-09T08:25:42Z</time>
      </trkpt>
      <trkpt lat="47.4873280" lon="9.6039410">
        <ele>-22.8</ele>
        <time>2022-06-09T08:25:46Z</time>
      </trkpt>
      <trkpt lat="47.4873330" lon="9.6036250">
        <ele>-22.2</ele>
        <time>2022-06-09T08:25:50Z</time>
      </trkpt>
      <trkpt lat="47.4873410" lon="9.6033110">
        <ele>-22.6</ele>
        <time>2022-06-09T08:25:54Z</time>
      </trkpt>
      <trkpt lat="47.4873500" lon="9.6029950">
        <ele>-22.2</ele>
        <time>2022-06-09T08:25:58Z</time>
      </trkpt>
      <trkpt lat="47.4873580" lon="9.6026830">
        <ele>-22.2</ele>
        <time>2022-06-09T08:26:02Z</time>
      </trkpt>
      <trkpt lat="47.4873680" lon="9.6023810">
        <ele>-23.2</ele>
        <time>2022-06-09T08:26:06Z</time>
      </trkpt>
      <trkpt lat="47.4873880" lon="9.6020980">
        <ele>-22.6</ele>
        <time>2022-06-09T08:26:10Z</time>
      </trkpt>
      <trkpt lat="47.4874050" lon="9.6018000">
        <ele>-22.6</ele>
        <time>2022-06-09T08:26:14Z</time>
      </trkpt>
      <trkpt lat="47.4874210" lon="9.6015050">
        <ele>-22.6</ele>
        <time>2022-06-09T08:26:18Z</time>
      </trkpt>
      <trkpt lat="47.4874430" lon="9.6012200">
        <ele>-22.0</ele>
        <time>2022-06-09T08:26:22Z</time>
      </trkpt>
      <trkpt lat="47.4874650" lon="9.6009360">
        <ele>-22.4</ele>
        <time>2022-06-09T08:26:26Z</time>
      </trkpt>
      <trkpt lat="47.4874910" lon="9.6006830">
        <ele>-23.0</ele>
        <time>2022-06-09T08:26:30Z</time>
      </trkpt>
      <trkpt lat="47.4875100" lon="9.6004280">
        <ele>-22.2</ele>
        <time>2022-06-09T08:26:34Z</time>
      </trkpt>
      <trkpt lat="47.4875280" lon="9.6001680">
        <ele>-22.8</ele>
        <time>2022-06-09T08:26:38Z</time>
      </trkpt>
      <trkpt lat="47.4875360" lon="9.5998900">
        <ele>-22.8</ele>
        <time>2022-06-09T08:26:42Z</time>
      </trkpt>
      <trkpt lat="47.4875650" lon="9.5996210">
        <ele>-22.8</ele>
        <time>2022-06-09T08:26:46Z</time>
      </trkpt>
      <trkpt lat="47.4875860" lon="9.5993550">
        <ele>-23.0</ele>
        <time>2022-06-09T08:26:50Z</time>
      </trkpt>
      <trkpt lat="47.4876150" lon="9.5990880">
        <ele>-23.2</ele>
        <time>2022-06-09T08:26:54Z</time>
      </trkpt>
      <trkpt lat="47.4876350" lon="9.5988110">
        <ele>-22.6</ele>
        <time>2022-06-09T08:26:58Z</time>
      </trkpt>
      <trkpt lat="47.4876560" lon="9.5985230">
        <ele>-23.2</ele>
        <time>2022-06-09T08:27:02Z</time>
      </trkpt>
      <trkpt lat="47.4876680" lon="9.5982330">
        <ele>-22.6</ele>
        <time>2022-06-09T08:27:06Z</time>
      </trkpt>
      <trkpt lat="47.4876710" lon="9.5979350">
        <ele>-22.8</ele>
        <time>2022-06-09T08:27:10Z</time>
      </trkpt>
      <trkpt lat="47.4876650" lon="9.5976250">
        <ele>-22.8</ele>
        <time>2022-06-09T08:27:14Z</time>
      </trkpt>
      <trkpt lat="47.4876610" lon="9.5973180">
        <ele>-23.0</ele>
        <time>2022-06-09T08:27:18Z</time>
      </trkpt>
      <trkpt lat="47.4876630" lon="9.5970130">
        <ele>-23.2</ele>
        <time>2022-06-09T08:27:22Z</time>
      </trkpt>
      <trkpt lat="47.4876610" lon="9.5966950">
        <ele>-22.6</ele>
        <time>2022-06-09T08:27:26Z</time>
      </trkpt>
      <trkpt lat="47.4876550" lon="9.5963760">
        <ele>-22.8</ele>
        <time>2022-06-09T08:27:30Z</time>
      </trkpt>
      <trkpt lat="47.4876550" lon="9.5960510">
        <ele>-23.0</ele>
        <time>2022-06-09T08:27:34Z</time>
      </trkpt>
      <trkpt lat="47.4876510" lon="9.5957230">
        <ele>-23.8</ele>
        <time>2022-06-09T08:27:38Z</time>
      </trkpt>
      <trkpt lat="47.4876480" lon="9.5953860">
        <ele>-22.4</ele>
        <time>2022-06-09T08:27:42Z</time>
      </trkpt>
      <trkpt lat="47.4876450" lon="9.5950510">
        <ele>-23.8</ele>
        <time>2022-06-09T08:27:46Z</time>
      </trkpt>
      <trkpt lat="47.4876430" lon="9.5947250">
        <ele>-23.6</ele>
        <time>2022-06-09T08:27:50Z</time>
      </trkpt>
      <trkpt lat="47.4876450" lon="9.5943900">
        <ele>-23.2</ele>
        <time>2022-06-09T08:27:54Z</time>
      </trkpt>
      <trkpt lat="47.4876410" lon="9.5940530">
        <ele>-23.2</ele>
        <time>2022-06-09T08:27:58Z</time>
      </trkpt>
      <trkpt lat="47.4876380" lon="9.5937180">
        <ele>-22.6</ele>
        <time>2022-06-09T08:28:02Z</time>
      </trkpt>
      <trkpt lat="47.4876360" lon="9.5933850">
        <ele>-23.2</ele>
        <time>2022-06-09T08:28:06Z</time>
      </trkpt>
      <trkpt lat="47.4876450" lon="9.5930630">
        <ele>-23.6</ele>
        <time>2022-06-09T08:28:10Z</time>
      </trkpt>
      <trkpt lat="47.4876450" lon="9.5927510">
        <ele>-23.0</ele>
        <time>2022-06-09T08:28:14Z</time>
      </trkpt>
      <trkpt lat="47.4876310" lon="9.5924310">
        <ele>-23.0</ele>
        <time>2022-06-09T08:28:18Z</time>
      </trkpt>
      <trkpt lat="47.4876250" lon="9.5921110">
        <ele>-23.8</ele>
        <time>2022-06-09T08:28:22Z</time>
      </trkpt>
      <trkpt lat="47.4876230" lon="9.5917810">
        <ele>-22.8</ele>
        <time>2022-06-09T08:28:26Z</time>
      </trkpt>
      <trkpt lat="47.4876200" lon="9.5914450">
        <ele>-23.8</ele>
        <time>2022-06-09T08:28:30Z</time>
      </trkpt>
      <trkpt lat="47.4876160" lon="9.5911110">
        <ele>-23.0</ele>
        <time>2022-06-09T08:28:34Z</time>
      </trkpt>
      <trkpt lat="47.4876150" lon="9.5907780">
        <ele>-23.2</ele>
        <time>2022-06-09T08:28:38Z</time>
      </trkpt>
      <trkpt lat="47.4876080" lon="9.5904560">
        <ele>-23.2</ele>
        <time>2022-06-09T08:28:42Z</time>
      </trkpt>
      <trkpt lat="47.4876080" lon="9.5901280">
        <ele>-23.0</ele>
        <time>2022-06-09T08:28:46Z</time>
      </trkpt>
      <trkpt lat="47.4876050" lon="9.5898100">
        <ele>-23.6</ele>
        <time>2022-06-09T08:28:50Z</time>
      </trkpt>
      <trkpt lat="47.4875810" lon="9.5895060">
        <ele>-22.0</ele>
        <time>2022-06-09T08:28:54Z</time>
      </trkpt>
      <trkpt lat="47.4876050" lon="9.5892280">
        <ele>-23.2</ele>
        <time>2022-06-09T08:28:58Z</time>
      </trkpt>
      <trkpt lat="47.4876130" lon="9.5889260">
        <ele>-23.2</ele>
        <time>2022-06-09T08:29:02Z</time>
      </trkpt>
      <trkpt lat="47.4876030" lon="9.5886010">
        <ele>-23.2</ele>
        <time>2022-06-09T08:29:06Z</time>
      </trkpt>
      <trkpt lat="47.4876010" lon="9.5882760">
        <ele>-23.6</ele>
        <time>2022-06-09T08:29:10Z</time>
      </trkpt>
      <trkpt lat="47.4875960" lon="9.5879450">
        <ele>-22.4</ele>
        <time>2022-06-09T08:29:14Z</time>
      </trkpt>
      <trkpt lat="47.4875930" lon="9.5876080">
        <ele>-23.0</ele>
        <time>2022-06-09T08:29:18Z</time>
      </trkpt>
      <trkpt lat="47.4875910" lon="9.5872730">
        <ele>-23.2</ele>
        <time>2022-06-09T08:29:22Z</time>
      </trkpt>
      <trkpt lat="47.4875960" lon="9.5869410">
        <ele>-23.4</ele>
        <time>2022-06-09T08:29:26Z</time>
      </trkpt>
      <trkpt lat="47.4876110" lon="9.5866150">
        <ele>-22.8</ele>
        <time>2022-06-09T08:29:30Z</time>
      </trkpt>
      <trkpt lat="47.4876480" lon="9.5863010">
        <ele>-23.2</ele>
        <time>2022-06-09T08:29:34Z</time>
      </trkpt>
      <trkpt lat="47.4876880" lon="9.5859710">
        <ele>-23.6</ele>
        <time>2022-06-09T08:29:38Z</time>
      </trkpt>
      <trkpt lat="47.4877350" lon="9.5856530">
        <ele>-23.2</ele>
        <time>2022-06-09T08:29:42Z</time>
      </trkpt>
      <trkpt lat="47.4877730" lon="9.5853530">
        <ele>-23.2</ele>
        <time>2022-06-09T08:29:46Z</time>
      </trkpt>
      <trkpt lat="47.4877780" lon="9.5850800">
        <ele>-23.6</ele>
        <time>2022-06-09T08:29:50Z</time>
      </trkpt>
      <trkpt lat="47.4876310" lon="9.5848510">
        <ele>-23.8</ele>
        <time>2022-06-09T08:29:54Z</time>
      </trkpt>
      <trkpt lat="47.4874650" lon="9.5846000">
        <ele>-23.8</ele>
        <time>2022-06-09T08:29:58Z</time>
      </trkpt>
      <trkpt lat="47.4873000" lon="9.5843310">
        <ele>-24.4</ele>
        <time>2022-06-09T08:30:02Z</time>
      </trkpt>
      <trkpt lat="47.4871380" lon="9.5840850">
        <ele>-23.8</ele>
        <time>2022-06-09T08:30:06Z</time>
      </trkpt>
      <trkpt lat="47.4869780" lon="9.5838600">
        <ele>-25.0</ele>
        <time>2022-06-09T08:30:10Z</time>
      </trkpt>
      <trkpt lat="47.4867960" lon="9.5836780">
        <ele>-23.8</ele>
        <time>2022-06-09T08:30:14Z</time>
      </trkpt>
      <trkpt lat="47.4865500" lon="9.5834980">
        <ele>-23.6</ele>
        <time>2022-06-09T08:30:18Z</time>
      </trkpt>
      <trkpt lat="47.4863430" lon="9.5833960">
        <ele>-23.8</ele>
        <time>2022-06-09T08:30:22Z</time>
      </trkpt>
      <trkpt lat="47.4861330" lon="9.5833010">
        <ele>-23.6</ele>
        <time>2022-06-09T08:30:26Z</time>
      </trkpt>
      <trkpt lat="47.4859230" lon="9.5832300">
        <ele>-24.4</ele>
        <time>2022-06-09T08:30:30Z</time>
      </trkpt>
      <trkpt lat="47.4857030" lon="9.5831900">
        <ele>-24.0</ele>
        <time>2022-06-09T08:30:34Z</time>
      </trkpt>
      <trkpt lat="47.4854810" lon="9.5832110">
        <ele>-24.2</ele>
        <time>2022-06-09T08:30:38Z</time>
      </trkpt>
      <trkpt lat="47.4852660" lon="9.5832750">
        <ele>-24.8</ele>
        <time>2022-06-09T08:30:42Z</time>
      </trkpt>
      <trkpt lat="47.4850500" lon="9.5833200">
        <ele>-24.6</ele>
        <time>2022-06-09T08:30:46Z</time>
      </trkpt>
      <trkpt lat="47.4848550" lon="9.5833350">
        <ele>-24.2</ele>
        <time>2022-06-09T08:30:50Z</time>
      </trkpt>
      <trkpt lat="47.4846850" lon="9.5833400">
        <ele>-25.4</ele>
        <time>2022-06-09T08:30:54Z</time>
      </trkpt>
      <trkpt lat="47.4845280" lon="9.5833680">
        <ele>-24.4</ele>
        <time>2022-06-09T08:30:58Z</time>
      </trkpt>
      <trkpt lat="47.4843880" lon="9.5833750">
        <ele>-24.0</ele>
        <time>2022-06-09T08:31:02Z</time>
      </trkpt>
      <trkpt lat="47.4842610" lon="9.5833380">
        <ele>-24.4</ele>
        <time>2022-06-09T08:31:06Z</time>
      </trkpt>
      <trkpt lat="47.4841360" lon="9.5832980">
        <ele>-24.0</ele>
        <time>2022-06-09T08:31:10Z</time>
      </trkpt>
      <trkpt lat="47.4840330" lon="9.5832610">
        <ele>-24.0</ele>
        <time>2022-06-09T08:31:14Z</time>
      </trkpt>
      <trkpt lat="47.4839160" lon="9.5832500">
        <ele>-24.4</ele>
        <time>2022-06-09T08:31:18Z</time>
      </trkpt>
      <trkpt lat="47.4838010" lon="9.5832500">
        <ele>-24.6</ele>
        <time>2022-06-09T08:31:22Z</time>
      </trkpt>
      <trkpt lat="47.4836660" lon="9.5832680">
        <ele>-24.4</ele>
        <time>2022-06-09T08:31:26Z</time>
      </trkpt>
      <trkpt lat="47.4835480" lon="9.5832860">
        <ele>-24.4</ele>
        <time>2022-06-09T08:31:30Z</time>
      </trkpt>
      <trkpt lat="47.4834260" lon="9.5832730">
        <ele>-24.2</ele>
        <time>2022-06-09T08:31:34Z</time>
      </trkpt>
      <trkpt lat="47.4833000" lon="9.5831750">
        <ele>-24.0</ele>
        <time>2022-06-09T08:31:38Z</time>
      </trkpt>
      <trkpt lat="47.4832060" lon="9.5830700">
        <ele>-24.4</ele>
        <time>2022-06-09T08:31:42Z</time>
      </trkpt>
      <trkpt lat="47.4831310" lon="9.5829850">
        <ele>-24.4</ele>
        <time>2022-06-09T08:31:46Z</time>
      </trkpt>
      <trkpt lat="47.4830530" lon="9.5828900">
        <ele>-24.0</ele>
        <time>2022-06-09T08:31:50Z</time>
      </trkpt>
      <trkpt lat="47.4829660" lon="9.5828080">
        <ele>-23.2</ele>
        <time>2022-06-09T08:31:54Z</time>
      </trkpt>
      <trkpt lat="47.4828960" lon="9.5828650">
        <ele>-23.6</ele>
        <time>2022-06-09T08:31:58Z</time>
      </trkpt>
      <trkpt lat="47.4828410" lon="9.5829350">
        <ele>-23.8</ele>
        <time>2022-06-09T08:32:02Z</time>
      </trkpt>
      <trkpt lat="47.4827750" lon="9.5830250">
        <ele>-23.8</ele>
        <time>2022-06-09T08:32:06Z</time>
      </trkpt>
      <trkpt lat="47.4826930" lon="9.5831110">
        <ele>-24.0</ele>
        <time>2022-06-09T08:32:10Z</time>
      </trkpt>
      <trkpt lat="47.4826200" lon="9.5832110">
        <ele>-23.0</ele>
        <time>2022-06-09T08:32:14Z</time>
      </trkpt>
      <trkpt lat="47.4825500" lon="9.5832880">
        <ele>-23.2</ele>
        <time>2022-06-09T08:32:18Z</time>
      </trkpt>
      <trkpt lat="47.4824850" lon="9.5833600">
        <ele>-23.8</ele>
        <time>2022-06-09T08:32:22Z</time>
      </trkpt>
      <trkpt lat="47.4824850" lon="9.5833600">
        <ele>-23.8</ele>
        <time>2022-06-09T08:32:26Z</time>
      </trkpt>
      <trkpt lat="47.4824850" lon="9.5833600">
        <ele>-23.8</ele>
        <time>2022-06-09T08:32:30Z</time>
      </trkpt>
      <trkpt lat="47.4824850" lon="9.5833600">
        <ele>-23.8</ele>
        <time>2022-06-09T08:32:34Z</time>
      </trkpt>
      <trkpt lat="47.4824850" lon="9.5833600">
        <ele>-23.8</ele>
        <time>2022-06-09T08:32:38Z</time>
      </trkpt>
      <trkpt lat="47.4824850" lon="9.5833600">
        <ele>-23.8</ele>
        <time>2022-06-09T08:32:42Z</time>
      </trkpt>
      <trkpt lat="47.4824850" lon="9.5833600">
        <ele>-23.8</ele>
        <time>2022-06-09T08:32:46Z</time>
      </trkpt>
      <trkpt lat="47.4824850" lon="9.5833600">
        <ele>-23.8</ele>
        <time>2022-06-09T08:32:50Z</time>
      </trkpt>
      <trkpt lat="47.4824850" lon="9.5833600">
        <ele>-23.8</ele>
        <time>2022-06-09T08:32:54Z</time>
      </trkpt>
      <trkpt lat="47.4824850" lon="9.5833600">
        <ele>-24.2</ele>
        <time>2022-06-09T08:32:58Z</time>
      </trkpt>
      <trkpt lat="47.4824300" lon="9.5834110">
        <ele>-24.2</ele>
        <time>2022-06-09T08:33:02Z</time>
      </trkpt>
      <trkpt lat="47.4823600" lon="9.5834800">
        <ele>-25.0</ele>
        <time>2022-06-09T08:33:06Z</time>
      </trkpt>
      <trkpt lat="47.4822300" lon="9.5836000">
        <ele>-24.4</ele>
        <time>2022-06-09T08:33:10Z</time>
      </trkpt>
      <trkpt lat="47.4820810" lon="9.5837560">
        <ele>-24.4</ele>
        <time>2022-06-09T08:33:14Z</time>
      </trkpt>
      <trkpt lat="47.4819080" lon="9.5839160">
        <ele>-24.2</ele>
        <time>2022-06-09T08:33:18Z</time>
      </trkpt>
      <trkpt lat="47.4817380" lon="9.5840760">
        <ele>-24.2</ele>
        <time>2022-06-09T08:33:22Z</time>
      </trkpt>
      <trkpt lat="47.4815680" lon="9.5842330">
        <ele>-24.2</ele>
        <time>2022-06-09T08:33:26Z</time>
      </trkpt>
      <trkpt lat="47.4813980" lon="9.5843860">
        <ele>-24.4</ele>
        <time>2022-06-09T08:33:30Z</time>
      </trkpt>
      <trkpt lat="47.4812110" lon="9.5845150">
        <ele>-24.4</ele>
        <time>2022-06-09T08:33:34Z</time>
      </trkpt>
      <trkpt lat="47.4810260" lon="9.5846400">
        <ele>-24.2</ele>
        <time>2022-06-09T08:33:38Z</time>
      </trkpt>
      <trkpt lat="47.4808450" lon="9.5847750">
        <ele>-24.6</ele>
        <time>2022-06-09T08:33:42Z</time>
      </trkpt>
      <trkpt lat="47.4806630" lon="9.5849050">
        <ele>-24.4</ele>
        <time>2022-06-09T08:33:46Z</time>
      </trkpt>
      <trkpt lat="47.4804750" lon="9.5850280">
        <ele>-24.6</ele>
        <time>2022-06-09T08:33:50Z</time>
      </trkpt>
      <trkpt lat="47.4802830" lon="9.5851380">
        <ele>-23.8</ele>
        <time>2022-06-09T08:33:54Z</time>
      </trkpt>
      <trkpt lat="47.4800880" lon="9.5852400">
        <ele>-24.6</ele>
        <time>2022-06-09T08:33:58Z</time>
      </trkpt>
      <trkpt lat="47.4798930" lon="9.5853650">
        <ele>-24.4</ele>
        <time>2022-06-09T08:34:02Z</time>
      </trkpt>
      <trkpt lat="47.4797010" lon="9.5855000">
        <ele>-24.4</ele>
        <time>2022-06-09T08:34:06Z</time>
      </trkpt>
      <trkpt lat="47.4795230" lon="9.5856350">
        <ele>-25.0</ele>
        <time>2022-06-09T08:34:10Z</time>
      </trkpt>
      <trkpt lat="47.4793430" lon="9.5857700">
        <ele>-24.6</ele>
        <time>2022-06-09T08:34:14Z</time>
      </trkpt>
      <trkpt lat="47.4791610" lon="9.5859110">
        <ele>-25.0</ele>
        <time>2022-06-09T08:34:18Z</time>
      </trkpt>
      <trkpt lat="47.4789800" lon="9.5860580">
        <ele>-24.6</ele>
        <time>2022-06-09T08:34:22Z</time>
      </trkpt>
      <trkpt lat="47.4787880" lon="9.5861950">
        <ele>-25.0</ele>
        <time>2022-06-09T08:34:26Z</time>
      </trkpt>
      <trkpt lat="47.4785960" lon="9.5863430">
        <ele>-25.0</ele>
        <time>2022-06-09T08:34:30Z</time>
      </trkpt>
      <trkpt lat="47.4784050" lon="9.5864850">
        <ele>-25.2</ele>
        <time>2022-06-09T08:34:34Z</time>
      </trkpt>
      <trkpt lat="47.4782130" lon="9.5866260">
        <ele>-24.4</ele>
        <time>2022-06-09T08:34:38Z</time>
      </trkpt>
      <trkpt lat="47.4780210" lon="9.5867700">
        <ele>-25.6</ele>
        <time>2022-06-09T08:34:42Z</time>
      </trkpt>
      <trkpt lat="47.4778280" lon="9.5869150">
        <ele>-25.0</ele>
        <time>2022-06-09T08:34:46Z</time>
      </trkpt>
      <trkpt lat="47.4776400" lon="9.5870580">
        <ele>-24.6</ele>
        <time>2022-06-09T08:34:50Z</time>
      </trkpt>
      <trkpt lat="47.4774550" lon="9.5871980">
        <ele>-24.4</ele>
        <time>2022-06-09T08:34:54Z</time>
      </trkpt>
      <trkpt lat="47.4772660" lon="9.5873360">
        <ele>-24.4</ele>
        <time>2022-06-09T08:34:58Z</time>
      </trkpt>
      <trkpt lat="47.4770780" lon="9.5874760">
        <ele>-25.6</ele>
        <time>2022-06-09T08:35:02Z</time>
      </trkpt>
      <trkpt lat="47.4768930" lon="9.5876280">
        <ele>-25.2</ele>
        <time>2022-06-09T08:35:06Z</time>
      </trkpt>
      <trkpt lat="47.4766960" lon="9.5877700">
        <ele>-25.0</ele>
        <time>2022-06-09T08:35:10Z</time>
      </trkpt>
      <trkpt lat="47.4764930" lon="9.5879130">
        <ele>-25.6</ele>
        <time>2022-06-09T08:35:14Z</time>
      </trkpt>
      <trkpt lat="47.4762930" lon="9.5880550">
        <ele>-25.4</ele>
        <time>2022-06-09T08:35:18Z</time>
      </trkpt>
      <trkpt lat="47.4760860" lon="9.5882060">
        <ele>-25.2</ele>
        <time>2022-06-09T08:35:22Z</time>
      </trkpt>
      <trkpt lat="47.4758750" lon="9.5883280">
        <ele>-25.2</ele>
        <time>2022-06-09T08:35:26Z</time>
      </trkpt>
      <trkpt lat="47.4756600" lon="9.5884130">
        <ele>-25.4</ele>
        <time>2022-06-09T08:35:30Z</time>
      </trkpt>
      <trkpt lat="47.4754550" lon="9.5885110">
        <ele>-25.0</ele>
        <time>2022-06-09T08:35:34Z</time>
      </trkpt>
      <trkpt lat="47.4752510" lon="9.5886010">
        <ele>-25.0</ele>
        <time>2022-06-09T08:35:38Z</time>
      </trkpt>
      <trkpt lat="47.4750510" lon="9.5886830">
        <ele>-25.0</ele>
        <time>2022-06-09T08:35:42Z</time>
      </trkpt>
      <trkpt lat="47.4748460" lon="9.5887550">
        <ele>-25.2</ele>
        <time>2022-06-09T08:35:46Z</time>
      </trkpt>
      <trkpt lat="47.4746430" lon="9.5888030">
        <ele>-25.2</ele>
        <time>2022-06-09T08:35:50Z</time>
      </trkpt>
      <trkpt lat="47.4744410" lon="9.5888480">
        <ele>-25.0</ele>
        <time>2022-06-09T08:35:54Z</time>
      </trkpt>
      <trkpt lat="47.4742400" lon="9.5888980">
        <ele>-24.6</ele>
        <time>2022-06-09T08:35:58Z</time>
      </trkpt>
      <trkpt lat="47.4740410" lon="9.5889630">
        <ele>-25.0</ele>
        <time>2022-06-09T08:36:02Z</time>
      </trkpt>
      <trkpt lat="47.4738460" lon="9.5890530">
        <ele>-25.2</ele>
        <time>2022-06-09T08:36:06Z</time>
      </trkpt>
      <trkpt lat="47.4736530" lon="9.5891450">
        <ele>-24.4</ele>
        <time>2022-06-09T08:36:10Z</time>
      </trkpt>
      <trkpt lat="47.4734500" lon="9.5892260">
        <ele>-24.8</ele>
        <time>2022-06-09T08:36:14Z</time>
      </trkpt>
      <trkpt lat="47.4732460" lon="9.5893260">
        <ele>-25.2</ele>
        <time>2022-06-09T08:36:18Z</time>
      </trkpt>
      <trkpt lat="47.4730510" lon="9.5894280">
        <ele>-24.6</ele>
        <time>2022-06-09T08:36:22Z</time>
      </trkpt>
      <trkpt lat="47.4728600" lon="9.5895480">
        <ele>-24.6</ele>
        <time>2022-06-09T08:36:26Z</time>
      </trkpt>
      <trkpt lat="47.4726660" lon="9.5896800">
        <ele>-24.8</ele>
        <time>2022-06-09T08:36:30Z</time>
      </trkpt>
      <trkpt lat="47.4724680" lon="9.5898030">
        <ele>-24.6</ele>
        <time>2022-06-09T08:36:34Z</time>
      </trkpt>
      <trkpt lat="47.4722710" lon="9.5899210">
        <ele>-24.6</ele>
        <time>2022-06-09T08:36:38Z</time>
      </trkpt>
      <trkpt lat="47.4720750" lon="9.5900310">
        <ele>-25.0</ele>
        <time>2022-06-09T08:36:42Z</time>
      </trkpt>
      <trkpt lat="47.4718900" lon="9.5901380">
        <ele>-24.6</ele>
        <time>2022-06-09T08:36:46Z</time>
      </trkpt>
      <trkpt lat="47.4717000" lon="9.5902430">
        <ele>-25.0</ele>
        <time>2022-06-09T08:36:50Z</time>
      </trkpt>
      <trkpt lat="47.4715060" lon="9.5903550">
        <ele>-25.2</ele>
        <time>2022-06-09T08:36:54Z</time>
      </trkpt>
      <trkpt lat="47.4713100" lon="9.5904680">
        <ele>-25.0</ele>
        <time>2022-06-09T08:36:58Z</time>
      </trkpt>
      <trkpt lat="47.4711110" lon="9.5905800">
        <ele>-24.6</ele>
        <time>2022-06-09T08:37:02Z</time>
      </trkpt>
      <trkpt lat="47.4709130" lon="9.5906880">
        <ele>-25.2</ele>
        <time>2022-06-09T08:37:06Z</time>
      </trkpt>
      <trkpt lat="47.4707110" lon="9.5908080">
        <ele>-24.4</ele>
        <time>2022-06-09T08:37:10Z</time>
      </trkpt>
      <trkpt lat="47.4705200" lon="9.5909580">
        <ele>-24.6</ele>
        <time>2022-06-09T08:37:14Z</time>
      </trkpt>
      <trkpt lat="47.4703300" lon="9.5911130">
        <ele>-25.0</ele>
        <time>2022-06-09T08:37:18Z</time>
      </trkpt>
      <trkpt lat="47.4701360" lon="9.5912560">
        <ele>-24.8</ele>
        <time>2022-06-09T08:37:22Z</time>
      </trkpt>
      <trkpt lat="47.4699430" lon="9.5913930">
        <ele>-24.6</ele>
        <time>2022-06-09T08:37:26Z</time>
      </trkpt>
      <trkpt lat="47.4697450" lon="9.5915250">
        <ele>-24.6</ele>
        <time>2022-06-09T08:37:30Z</time>
      </trkpt>
      <trkpt lat="47.4695500" lon="9.5916480">
        <ele>-24.6</ele>
        <time>2022-06-09T08:37:34Z</time>
      </trkpt>
      <trkpt lat="47.4693580" lon="9.5917800">
        <ele>-24.2</ele>
        <time>2022-06-09T08:37:38Z</time>
      </trkpt>
      <trkpt lat="47.4691630" lon="9.5919100">
        <ele>-25.0</ele>
        <time>2022-06-09T08:37:42Z</time>
      </trkpt>
      <trkpt lat="47.4689730" lon="9.5920380">
        <ele>-24.6</ele>
        <time>2022-06-09T08:37:46Z</time>
      </trkpt>
      <trkpt lat="47.4687810" lon="9.5921660">
        <ele>-24.6</ele>
        <time>2022-06-09T08:37:50Z</time>
      </trkpt>
      <trkpt lat="47.4686060" lon="9.5922930">
        <ele>-25.0</ele>
        <time>2022-06-09T08:37:54Z</time>
      </trkpt>
      <trkpt lat="47.4684410" lon="9.5924400">
        <ele>-25.0</ele>
        <time>2022-06-09T08:37:58Z</time>
      </trkpt>
      <trkpt lat="47.4682730" lon="9.5926010">
        <ele>-25.0</ele>
        <time>2022-06-09T08:38:02Z</time>
      </trkpt>
      <trkpt lat="47.4680830" lon="9.5927250">
        <ele>-25.0</ele>
        <time>2022-06-09T08:38:06Z</time>
      </trkpt>
      <trkpt lat="47.4678850" lon="9.5928410">
        <ele>-25.2</ele>
        <time>2022-06-09T08:38:10Z</time>
      </trkpt>
      <trkpt lat="47.4676850" lon="9.5929580">
        <ele>-25.2</ele>
        <time>2022-06-09T08:38:14Z</time>
      </trkpt>
      <trkpt lat="47.4674860" lon="9.5930760">
        <ele>-24.2</ele>
        <time>2022-06-09T08:38:18Z</time>
      </trkpt>
      <trkpt lat="47.4672980" lon="9.5931930">
        <ele>-25.2</ele>
        <time>2022-06-09T08:38:22Z</time>
      </trkpt>
      <trkpt lat="47.4671080" lon="9.5933010">
        <ele>-25.2</ele>
        <time>2022-06-09T08:38:26Z</time>
      </trkpt>
      <trkpt lat="47.4669280" lon="9.5934230">
        <ele>-24.4</ele>
        <time>2022-06-09T08:38:30Z</time>
      </trkpt>
      <trkpt lat="47.4667760" lon="9.5936010">
        <ele>-25.0</ele>
        <time>2022-06-09T08:38:34Z</time>
      </trkpt>
      <trkpt lat="47.4666150" lon="9.5937650">
        <ele>-24.4</ele>
        <time>2022-06-09T08:38:38Z</time>
      </trkpt>
      <trkpt lat="47.4664430" lon="9.5939280">
        <ele>-24.6</ele>
        <time>2022-06-09T08:38:42Z</time>
      </trkpt>
      <trkpt lat="47.4662860" lon="9.5940580">
        <ele>-25.2</ele>
        <time>2022-06-09T08:38:46Z</time>
      </trkpt>
      <trkpt lat="47.4661130" lon="9.5942080">
        <ele>-24.6</ele>
        <time>2022-06-09T08:38:50Z</time>
      </trkpt>
      <trkpt lat="47.4659230" lon="9.5943710">
        <ele>-24.6</ele>
        <time>2022-06-09T08:38:54Z</time>
      </trkpt>
      <trkpt lat="47.4657330" lon="9.5945160">
        <ele>-24.6</ele>
        <time>2022-06-09T08:38:58Z</time>
      </trkpt>
      <trkpt lat="47.4655350" lon="9.5946680">
        <ele>-24.8</ele>
        <time>2022-06-09T08:39:02Z</time>
      </trkpt>
      <trkpt lat="47.4653460" lon="9.5948210">
        <ele>-24.6</ele>
        <time>2022-06-09T08:39:06Z</time>
      </trkpt>
      <trkpt lat="47.4651680" lon="9.5949560">
        <ele>-24.4</ele>
        <time>2022-06-09T08:39:10Z</time>
      </trkpt>
      <trkpt lat="47.4650230" lon="9.5950800">
        <ele>-24.6</ele>
        <time>2022-06-09T08:39:14Z</time>
      </trkpt>
      <trkpt lat="47.4649130" lon="9.5951810">
        <ele>-25.2</ele>
        <time>2022-06-09T08:39:18Z</time>
      </trkpt>
      <trkpt lat="47.4648010" lon="9.5952650">
        <ele>-25.4</ele>
        <time>2022-06-09T08:39:22Z</time>
      </trkpt>
      <trkpt lat="47.4647250" lon="9.5953480">
        <ele>-24.8</ele>
        <time>2022-06-09T08:39:26Z</time>
      </trkpt>
      <trkpt lat="47.4647150" lon="9.5953880">
        <ele>-25.0</ele>
        <time>2022-06-09T08:39:30Z</time>
      </trkpt>
      <trkpt lat="47.4647800" lon="9.5953260">
        <ele>-25.2</ele>
        <time>2022-06-09T08:39:34Z</time>
      </trkpt>
      <trkpt lat="47.4647900" lon="9.5951500">
        <ele>-24.6</ele>
        <time>2022-06-09T08:39:38Z</time>
      </trkpt>
      <trkpt lat="47.4647980" lon="9.5949410">
        <ele>-24.4</ele>
        <time>2022-06-09T08:39:42Z</time>
      </trkpt>
      <trkpt lat="47.4647910" lon="9.5947050">
        <ele>-24.4</ele>
        <time>2022-06-09T08:39:46Z</time>
      </trkpt>
      <trkpt lat="47.4647400" lon="9.5944650">
        <ele>-24.2</ele>
        <time>2022-06-09T08:39:50Z</time>
      </trkpt>
      <trkpt lat="47.4647110" lon="9.5942630">
        <ele>-25.0</ele>
        <time>2022-06-09T08:39:54Z</time>
      </trkpt>
      <trkpt lat="47.4646710" lon="9.5941060">
        <ele>-25.0</ele>
        <time>2022-06-09T08:39:58Z</time>
      </trkpt>
      <trkpt lat="47.4646200" lon="9.5939610">
        <ele>-25.2</ele>
        <time>2022-06-09T08:40:02Z</time>
      </trkpt>
      <trkpt lat="47.4646000" lon="9.5938180">
        <ele>-25.8</ele>
        <time>2022-06-09T08:40:06Z</time>
      </trkpt>
      <trkpt lat="47.4646380" lon="9.5936030">
        <ele>-25.8</ele>
        <time>2022-06-09T08:40:10Z</time>
      </trkpt>
      <trkpt lat="47.4647910" lon="9.5934330">
        <ele>-25.8</ele>
        <time>2022-06-09T08:40:14Z</time>
      </trkpt>
      <trkpt lat="47.4649810" lon="9.5932780">
        <ele>-25.8</ele>
        <time>2022-06-09T08:40:18Z</time>
      </trkpt>
      <trkpt lat="47.4651800" lon="9.5931250">
        <ele>-25.6</ele>
        <time>2022-06-09T08:40:22Z</time>
      </trkpt>
      <trkpt lat="47.4653630" lon="9.5929800">
        <ele>-25.8</ele>
        <time>2022-06-09T08:40:26Z</time>
      </trkpt>
      <trkpt lat="47.4655460" lon="9.5928410">
        <ele>-25.0</ele>
        <time>2022-06-09T08:40:30Z</time>
      </trkpt>
      <trkpt lat="47.4657350" lon="9.5927100">
        <ele>-26.0</ele>
        <time>2022-06-09T08:40:34Z</time>
      </trkpt>
      <trkpt lat="47.4659250" lon="9.5925680">
        <ele>-26.0</ele>
        <time>2022-06-09T08:40:38Z</time>
      </trkpt>
      <trkpt lat="47.4661160" lon="9.5924250">
        <ele>-26.0</ele>
        <time>2022-06-09T08:40:42Z</time>
      </trkpt>
      <trkpt lat="47.4663160" lon="9.5922830">
        <ele>-26.6</ele>
        <time>2022-06-09T08:40:46Z</time>
      </trkpt>
      <trkpt lat="47.4665210" lon="9.5921380">
        <ele>-25.8</ele>
        <time>2022-06-09T08:40:50Z</time>
      </trkpt>
      <trkpt lat="47.4667330" lon="9.5919910">
        <ele>-26.6</ele>
        <time>2022-06-09T08:40:54Z</time>
      </trkpt>
      <trkpt lat="47.4669450" lon="9.5918360">
        <ele>-27.2</ele>
        <time>2022-06-09T08:40:58Z</time>
      </trkpt>
      <trkpt lat="47.4671560" lon="9.5916850">
        <ele>-27.8</ele>
        <time>2022-06-09T08:41:02Z</time>
      </trkpt>
      <trkpt lat="47.4673660" lon="9.5915330">
        <ele>-27.4</ele>
        <time>2022-06-09T08:41:06Z</time>
      </trkpt>
      <trkpt lat="47.4675760" lon="9.5913900">
        <ele>-27.2</ele>
        <time>2022-06-09T08:41:10Z</time>
      </trkpt>
      <trkpt lat="47.4677810" lon="9.5912500">
        <ele>-27.0</ele>
        <time>2022-06-09T08:41:14Z</time>
      </trkpt>
      <trkpt lat="47.4679900" lon="9.5911150">
        <ele>-26.8</ele>
        <time>2022-06-09T08:41:18Z</time>
      </trkpt>
      <trkpt lat="47.4681960" lon="9.5909780">
        <ele>-26.8</ele>
        <time>2022-06-09T08:41:22Z</time>
      </trkpt>
      <trkpt lat="47.4683810" lon="9.5908560">
        <ele>-27.6</ele>
        <time>2022-06-09T08:41:26Z</time>
      </trkpt>
      <trkpt lat="47.4685960" lon="9.5907180">
        <ele>-27.4</ele>
        <time>2022-06-09T08:41:30Z</time>
      </trkpt>
      <trkpt lat="47.4688050" lon="9.5905860">
        <ele>-27.0</ele>
        <time>2022-06-09T08:41:34Z</time>
      </trkpt>
      <trkpt lat="47.4690100" lon="9.5904530">
        <ele>-27.4</ele>
        <time>2022-06-09T08:41:38Z</time>
      </trkpt>
      <trkpt lat="47.4692160" lon="9.5903250">
        <ele>-27.0</ele>
        <time>2022-06-09T08:41:42Z</time>
      </trkpt>
      <trkpt lat="47.4694230" lon="9.5902030">
        <ele>-26.8</ele>
        <time>2022-06-09T08:41:46Z</time>
      </trkpt>
      <trkpt lat="47.4696380" lon="9.5900700">
        <ele>-27.4</ele>
        <time>2022-06-09T08:41:50Z</time>
      </trkpt>
      <trkpt lat="47.4698530" lon="9.5899360">
        <ele>-27.2</ele>
        <time>2022-06-09T08:41:54Z</time>
      </trkpt>
      <trkpt lat="47.4700680" lon="9.5898180">
        <ele>-27.2</ele>
        <time>2022-06-09T08:41:58Z</time>
      </trkpt>
      <trkpt lat="47.4702730" lon="9.5896980">
        <ele>-27.0</ele>
        <time>2022-06-09T08:42:02Z</time>
      </trkpt>
      <trkpt lat="47.4704700" lon="9.5895500">
        <ele>-26.4</ele>
        <time>2022-06-09T08:42:06Z</time>
      </trkpt>
      <trkpt lat="47.4706550" lon="9.5893930">
        <ele>-26.4</ele>
        <time>2022-06-09T08:42:10Z</time>
      </trkpt>
      <trkpt lat="47.4708380" lon="9.5892800">
        <ele>-27.0</ele>
        <time>2022-06-09T08:42:14Z</time>
      </trkpt>
      <trkpt lat="47.4710600" lon="9.5892450">
        <ele>-27.6</ele>
        <time>2022-06-09T08:42:18Z</time>
      </trkpt>
      <trkpt lat="47.4712850" lon="9.5891210">
        <ele>-27.0</ele>
        <time>2022-06-09T08:42:22Z</time>
      </trkpt>
      <trkpt lat="47.4714950" lon="9.5889850">
        <ele>-27.6</ele>
        <time>2022-06-09T08:42:26Z</time>
      </trkpt>
      <trkpt lat="47.4717080" lon="9.5888810">
        <ele>-28.4</ele>
        <time>2022-06-09T08:42:30Z</time>
      </trkpt>
      <trkpt lat="47.4719180" lon="9.5887700">
        <ele>-27.4</ele>
        <time>2022-06-09T08:42:34Z</time>
      </trkpt>
      <trkpt lat="47.4721160" lon="9.5886430">
        <ele>-27.4</ele>
        <time>2022-06-09T08:42:38Z</time>
      </trkpt>
      <trkpt lat="47.4723060" lon="9.5885200">
        <ele>-27.4</ele>
        <time>2022-06-09T08:42:42Z</time>
      </trkpt>
      <trkpt lat="47.4724750" lon="9.5883980">
        <ele>-27.6</ele>
        <time>2022-06-09T08:42:46Z</time>
      </trkpt>
      <trkpt lat="47.4726310" lon="9.5882960">
        <ele>-28.2</ele>
        <time>2022-06-09T08:42:50Z</time>
      </trkpt>
      <trkpt lat="47.4727630" lon="9.5882160">
        <ele>-27.8</ele>
        <time>2022-06-09T08:42:54Z</time>
      </trkpt>
      <trkpt lat="47.4728430" lon="9.5881610">
        <ele>-28.0</ele>
        <time>2022-06-09T08:42:58Z</time>
      </trkpt>
      <trkpt lat="47.4729400" lon="9.5881150">
        <ele>-28.4</ele>
        <time>2022-06-09T08:43:02Z</time>
      </trkpt>
      <trkpt lat="47.4730610" lon="9.5880460">
        <ele>-28.4</ele>
        <time>2022-06-09T08:43:06Z</time>
      </trkpt>
      <trkpt lat="47.4731810" lon="9.5879960">
        <ele>-27.8</ele>
        <time>2022-06-09T08:43:10Z</time>
      </trkpt>
      <trkpt lat="47.4733160" lon="9.5879350">
        <ele>-28.0</ele>
        <time>2022-06-09T08:43:14Z</time>
      </trkpt>
      <trkpt lat="47.4734460" lon="9.5878250">
        <ele>-27.2</ele>
        <time>2022-06-09T08:43:18Z</time>
      </trkpt>
      <trkpt lat="47.4736050" lon="9.5877180">
        <ele>-27.0</ele>
        <time>2022-06-09T08:43:22Z</time>
      </trkpt>
      <trkpt lat="47.4737200" lon="9.5876250">
        <ele>-26.6</ele>
        <time>2022-06-09T08:43:26Z</time>
      </trkpt>
      <trkpt lat="47.4738400" lon="9.5875750">
        <ele>-27.6</ele>
        <time>2022-06-09T08:43:30Z</time>
      </trkpt>
      <trkpt lat="47.4740130" lon="9.5874860">
        <ele>-27.8</ele>
        <time>2022-06-09T08:43:34Z</time>
      </trkpt>
      <trkpt lat="47.4741980" lon="9.5873810">
        <ele>-27.4</ele>
        <time>2022-06-09T08:43:38Z</time>
      </trkpt>
      <trkpt lat="47.4743800" lon="9.5872700">
        <ele>-28.2</ele>
        <time>2022-06-09T08:43:42Z</time>
      </trkpt>
      <trkpt lat="47.4745100" lon="9.5871850">
        <ele>-27.4</ele>
        <time>2022-06-09T08:43:46Z</time>
      </trkpt>
      <trkpt lat="47.4746280" lon="9.5871060">
        <ele>-27.2</ele>
        <time>2022-06-09T08:43:50Z</time>
      </trkpt>
      <trkpt lat="47.4747260" lon="9.5870250">
        <ele>-27.0</ele>
        <time>2022-06-09T08:43:54Z</time>
      </trkpt>
      <trkpt lat="47.4748150" lon="9.5869400">
        <ele>-27.2</ele>
        <time>2022-06-09T08:43:58Z</time>
      </trkpt>
      <trkpt lat="47.4749210" lon="9.5868510">
        <ele>-26.8</ele>
        <time>2022-06-09T08:44:02Z</time>
      </trkpt>
      <trkpt lat="47.4750560" lon="9.5867680">
        <ele>-27.2</ele>
        <time>2022-06-09T08:44:06Z</time>
      </trkpt>
      <trkpt lat="47.4752310" lon="9.5866760">
        <ele>-27.4</ele>
        <time>2022-06-09T08:44:10Z</time>
      </trkpt>
      <trkpt lat="47.4754280" lon="9.5865660">
        <ele>-27.8</ele>
        <time>2022-06-09T08:44:14Z</time>
      </trkpt>
      <trkpt lat="47.4756300" lon="9.5864450">
        <ele>-27.2</ele>
        <time>2022-06-09T08:44:18Z</time>
      </trkpt>
      <trkpt lat="47.4758350" lon="9.5863180">
        <ele>-27.8</ele>
        <time>2022-06-09T08:44:22Z</time>
      </trkpt>
      <trkpt lat="47.4760430" lon="9.5861950">
        <ele>-27.6</ele>
        <time>2022-06-09T08:44:26Z</time>
      </trkpt>
      <trkpt lat="47.4762330" lon="9.5860780">
        <ele>-27.0</ele>
        <time>2022-06-09T08:44:30Z</time>
      </trkpt>
      <trkpt lat="47.4763660" lon="9.5859960">
        <ele>-27.6</ele>
        <time>2022-06-09T08:44:34Z</time>
      </trkpt>
      <trkpt lat="47.4765380" lon="9.5859050">
        <ele>-27.2</ele>
        <time>2022-06-09T08:44:38Z</time>
      </trkpt>
      <trkpt lat="47.4767200" lon="9.5857860">
        <ele>-26.4</ele>
        <time>2022-06-09T08:44:42Z</time>
      </trkpt>
      <trkpt lat="47.4769050" lon="9.5856680">
        <ele>-26.0</ele>
        <time>2022-06-09T08:44:46Z</time>
      </trkpt>
      <trkpt lat="47.4770910" lon="9.5855450">
        <ele>-26.6</ele>
        <time>2022-06-09T08:44:50Z</time>
      </trkpt>
      <trkpt lat="47.4772780" lon="9.5854060">
        <ele>-26.4</ele>
        <time>2022-06-09T08:44:54Z</time>
      </trkpt>
      <trkpt lat="47.4774660" lon="9.5852630">
        <ele>-26.4</ele>
        <time>2022-06-09T08:44:58Z</time>
      </trkpt>
      <trkpt lat="47.4776500" lon="9.5851030">
        <ele>-26.4</ele>
        <time>2022-06-09T08:45:02Z</time>
      </trkpt>
      <trkpt lat="47.4778360" lon="9.5849410">
        <ele>-26.4</ele>
        <time>2022-06-09T08:45:06Z</time>
      </trkpt>
      <trkpt lat="47.4780200" lon="9.5847660">
        <ele>-26.4</ele>
        <time>2022-06-09T08:45:10Z</time>
      </trkpt>
      <trkpt lat="47.4781960" lon="9.5845750">
        <ele>-26.4</ele>
        <time>2022-06-09T08:45:14Z</time>
      </trkpt>
      <trkpt lat="47.4783660" lon="9.5843830">
        <ele>-26.6</ele>
        <time>2022-06-09T08:45:18Z</time>
      </trkpt>
      <trkpt lat="47.4785280" lon="9.5841780">
        <ele>-26.2</ele>
        <time>2022-06-09T08:45:22Z</time>
      </trkpt>
      <trkpt lat="47.4786880" lon="9.5839930">
        <ele>-26.4</ele>
        <time>2022-06-09T08:45:26Z</time>
      </trkpt>
      <trkpt lat="47.4788450" lon="9.5837750">
        <ele>-25.8</ele>
        <time>2022-06-09T08:45:30Z</time>
      </trkpt>
      <trkpt lat="47.4789900" lon="9.5835400">
        <ele>-25.6</ele>
        <time>2022-06-09T08:45:34Z</time>
      </trkpt>
      <trkpt lat="47.4791200" lon="9.5833100">
        <ele>-24.8</ele>
        <time>2022-06-09T08:45:38Z</time>
      </trkpt>
      <trkpt lat="47.4792530" lon="9.5830900">
        <ele>-26.0</ele>
        <time>2022-06-09T08:45:42Z</time>
      </trkpt>
      <trkpt lat="47.4794000" lon="9.5828210">
        <ele>-25.4</ele>
        <time>2022-06-09T08:45:46Z</time>
      </trkpt>
      <trkpt lat="47.4795380" lon="9.5825450">
        <ele>-25.8</ele>
        <time>2022-06-09T08:45:50Z</time>
      </trkpt>
      <trkpt lat="47.4796950" lon="9.5822710">
        <ele>-25.8</ele>
        <time>2022-06-09T08:45:54Z</time>
      </trkpt>
      <trkpt lat="47.4799010" lon="9.5820580">
        <ele>-26.0</ele>
        <time>2022-06-09T08:45:58Z</time>
      </trkpt>
      <trkpt lat="47.4801110" lon="9.5818680">
        <ele>-26.2</ele>
        <time>2022-06-09T08:46:02Z</time>
      </trkpt>
      <trkpt lat="47.4803080" lon="9.5816580">
        <ele>-25.8</ele>
        <time>2022-06-09T08:46:06Z</time>
      </trkpt>
      <trkpt lat="47.4804950" lon="9.5814300">
        <ele>-26.2</ele>
        <time>2022-06-09T08:46:10Z</time>
      </trkpt>
      <trkpt lat="47.4807230" lon="9.5811450">
        <ele>-26.0</ele>
        <time>2022-06-09T08:46:14Z</time>
      </trkpt>
      <trkpt lat="47.4809030" lon="9.5809300">
        <ele>-26.2</ele>
        <time>2022-06-09T08:46:18Z</time>
      </trkpt>
      <trkpt lat="47.4810680" lon="9.5806880">
        <ele>-25.6</ele>
        <time>2022-06-09T08:46:22Z</time>
      </trkpt>
      <trkpt lat="47.4811900" lon="9.5804650">
        <ele>-25.8</ele>
        <time>2022-06-09T08:46:26Z</time>
      </trkpt>
      <trkpt lat="47.4812430" lon="9.5802380">
        <ele>-24.6</ele>
        <time>2022-06-09T08:46:30Z</time>
      </trkpt>
      <trkpt lat="47.4813360" lon="9.5801880">
        <ele>-25.2</ele>
        <time>2022-06-09T08:46:34Z</time>
      </trkpt>
      <trkpt lat="47.4814760" lon="9.5802310">
        <ele>-25.2</ele>
        <time>2022-06-09T08:46:38Z</time>
      </trkpt>
      <trkpt lat="47.4816660" lon="9.5802700">
        <ele>-24.6</ele>
        <time>2022-06-09T08:46:42Z</time>
      </trkpt>
      <trkpt lat="47.4818480" lon="9.5803000">
        <ele>-24.2</ele>
        <time>2022-06-09T08:46:46Z</time>
      </trkpt>
      <trkpt lat="47.4820260" lon="9.5802150">
        <ele>-25.2</ele>
        <time>2022-06-09T08:46:50Z</time>
      </trkpt>
      <trkpt lat="47.4822010" lon="9.5800800">
        <ele>-25.0</ele>
        <time>2022-06-09T08:46:54Z</time>
      </trkpt>
      <trkpt lat="47.4823930" lon="9.5799430">
        <ele>-24.8</ele>
        <time>2022-06-09T08:46:58Z</time>
      </trkpt>
      <trkpt lat="47.4825910" lon="9.5797980">
        <ele>-25.0</ele>
        <time>2022-06-09T08:47:02Z</time>
      </trkpt>
      <trkpt lat="47.4827900" lon="9.5796550">
        <ele>-25.2</ele>
        <time>2022-06-09T08:47:06Z</time>
      </trkpt>
      <trkpt lat="47.4829830" lon="9.5794880">
        <ele>-24.4</ele>
        <time>2022-06-09T08:47:10Z</time>
      </trkpt>
      <trkpt lat="47.4831680" lon="9.5793150">
        <ele>-24.4</ele>
        <time>2022-06-09T08:47:14Z</time>
      </trkpt>
      <trkpt lat="47.4833410" lon="9.5791110">
        <ele>-24.8</ele>
        <time>2022-06-09T08:47:18Z</time>
      </trkpt>
      <trkpt lat="47.4835180" lon="9.5788650">
        <ele>-25.0</ele>
        <time>2022-06-09T08:47:22Z</time>
      </trkpt>
      <trkpt lat="47.4836950" lon="9.5786280">
        <ele>-24.6</ele>
        <time>2022-06-09T08:47:26Z</time>
      </trkpt>
      <trkpt lat="47.4838760" lon="9.5783950">
        <ele>-25.2</ele>
        <time>2022-06-09T08:47:30Z</time>
      </trkpt>
      <trkpt lat="47.4840410" lon="9.5782150">
        <ele>-24.6</ele>
        <time>2022-06-09T08:47:34Z</time>
      </trkpt>
      <trkpt lat="47.4842110" lon="9.5779910">
        <ele>-24.8</ele>
        <time>2022-06-09T08:47:38Z</time>
      </trkpt>
      <trkpt lat="47.4843160" lon="9.5778410">
        <ele>-24.2</ele>
        <time>2022-06-09T08:47:42Z</time>
      </trkpt>
      <trkpt lat="47.4843960" lon="9.5777030">
        <ele>-24.6</ele>
        <time>2022-06-09T08:47:46Z</time>
      </trkpt>
      <trkpt lat="47.4844980" lon="9.5775310">
        <ele>-25.0</ele>
        <time>2022-06-09T08:47:50Z</time>
      </trkpt>
      <trkpt lat="47.4845860" lon="9.5773400">
        <ele>-24.6</ele>
        <time>2022-06-09T08:47:54Z</time>
      </trkpt>
      <trkpt lat="47.4847080" lon="9.5771150">
        <ele>-24.4</ele>
        <time>2022-06-09T08:47:58Z</time>
      </trkpt>
      <trkpt lat="47.4848330" lon="9.5768760">
        <ele>-24.2</ele>
        <time>2022-06-09T08:48:02Z</time>
      </trkpt>
      <trkpt lat="47.4849280" lon="9.5766710">
        <ele>-24.2</ele>
        <time>2022-06-09T08:48:06Z</time>
      </trkpt>
      <trkpt lat="47.4850300" lon="9.5764680">
        <ele>-24.6</ele>
        <time>2022-06-09T08:48:10Z</time>
      </trkpt>
      <trkpt lat="47.4851000" lon="9.5762980">
        <ele>-24.4</ele>
        <time>2022-06-09T08:48:14Z</time>
      </trkpt>
      <trkpt lat="47.4851960" lon="9.5761010">
        <ele>-24.4</ele>
        <time>2022-06-09T08:48:18Z</time>
      </trkpt>
      <trkpt lat="47.4853600" lon="9.5758380">
        <ele>-24.2</ele>
        <time>2022-06-09T08:48:22Z</time>
      </trkpt>
      <trkpt lat="47.4854850" lon="9.5756160">
        <ele>-25.0</ele>
        <time>2022-06-09T08:48:26Z</time>
      </trkpt>
      <trkpt lat="47.4856060" lon="9.5753130">
        <ele>-23.8</ele>
        <time>2022-06-09T08:48:30Z</time>
      </trkpt>
      <trkpt lat="47.4857660" lon="9.5749800">
        <ele>-24.6</ele>
        <time>2022-06-09T08:48:34Z</time>
      </trkpt>
      <trkpt lat="47.4858860" lon="9.5747080">
        <ele>-23.6</ele>
        <time>2022-06-09T08:48:38Z</time>
      </trkpt>
      <trkpt lat="47.4859960" lon="9.5744600">
        <ele>-23.8</ele>
        <time>2022-06-09T08:48:42Z</time>
      </trkpt>
      <trkpt lat="47.4860860" lon="9.5742150">
        <ele>-24.6</ele>
        <time>2022-06-09T08:48:46Z</time>
      </trkpt>
      <trkpt lat="47.4861850" lon="9.5739580">
        <ele>-23.8</ele>
        <time>2022-06-09T08:48:50Z</time>
      </trkpt>
      <trkpt lat="47.4863160" lon="9.5736980">
        <ele>-23.8</ele>
        <time>2022-06-09T08:48:54Z</time>
      </trkpt>
      <trkpt lat="47.4864010" lon="9.5734800">
        <ele>-23.8</ele>
        <time>2022-06-09T08:48:58Z</time>
      </trkpt>
      <trkpt lat="47.4865400" lon="9.5731900">
        <ele>-24.0</ele>
        <time>2022-06-09T08:49:02Z</time>
      </trkpt>
      <trkpt lat="47.4866600" lon="9.5729450">
        <ele>-23.8</ele>
        <time>2022-06-09T08:49:06Z</time>
      </trkpt>
      <trkpt lat="47.4867900" lon="9.5726730">
        <ele>-24.4</ele>
        <time>2022-06-09T08:49:10Z</time>
      </trkpt>
      <trkpt lat="47.4869180" lon="9.5724410">
        <ele>-23.6</ele>
        <time>2022-06-09T08:49:14Z</time>
      </trkpt>
      <trkpt lat="47.4870610" lon="9.5722080">
        <ele>-24.4</ele>
        <time>2022-06-09T08:49:18Z</time>
      </trkpt>
      <trkpt lat="47.4871900" lon="9.5719650">
        <ele>-24.2</ele>
        <time>2022-06-09T08:49:22Z</time>
      </trkpt>
      <trkpt lat="47.4873050" lon="9.5717350">
        <ele>-24.4</ele>
        <time>2022-06-09T08:49:26Z</time>
      </trkpt>
      <trkpt lat="47.4874550" lon="9.5714850">
        <ele>-24.6</ele>
        <time>2022-06-09T08:49:30Z</time>
      </trkpt>
      <trkpt lat="47.4875930" lon="9.5712310">
        <ele>-25.0</ele>
        <time>2022-06-09T08:49:34Z</time>
      </trkpt>
      <trkpt lat="47.4877380" lon="9.5710080">
        <ele>-25.4</ele>
        <time>2022-06-09T08:49:38Z</time>
      </trkpt>
      <trkpt lat="47.4878660" lon="9.5707730">
        <ele>-25.4</ele>
        <time>2022-06-09T08:49:42Z</time>
      </trkpt>
      <trkpt lat="47.4879710" lon="9.5704980">
        <ele>-24.6</ele>
        <time>2022-06-09T08:49:46Z</time>
      </trkpt>
      <trkpt lat="47.4881010" lon="9.5702380">
        <ele>-25.0</ele>
        <time>2022-06-09T08:49:50Z</time>
      </trkpt>
      <trkpt lat="47.4882510" lon="9.5699550">
        <ele>-24.4</ele>
        <time>2022-06-09T08:49:54Z</time>
      </trkpt>
      <trkpt lat="47.4883800" lon="9.5697060">
        <ele>-24.8</ele>
        <time>2022-06-09T08:49:58Z</time>
      </trkpt>
      <trkpt lat="47.4884960" lon="9.5694260">
        <ele>-25.0</ele>
        <time>2022-06-09T08:50:02Z</time>
      </trkpt>
      <trkpt lat="47.4886030" lon="9.5691450">
        <ele>-24.8</ele>
        <time>2022-06-09T08:50:06Z</time>
      </trkpt>
      <trkpt lat="47.4887300" lon="9.5689030">
        <ele>-24.6</ele>
        <time>2022-06-09T08:50:10Z</time>
      </trkpt>
      <trkpt lat="47.4888730" lon="9.5686730">
        <ele>-24.6</ele>
        <time>2022-06-09T08:50:14Z</time>
      </trkpt>
      <trkpt lat="47.4889900" lon="9.5684160">
        <ele>-25.2</ele>
        <time>2022-06-09T08:50:18Z</time>
      </trkpt>
      <trkpt lat="47.4891060" lon="9.5681330">
        <ele>-24.6</ele>
        <time>2022-06-09T08:50:22Z</time>
      </trkpt>
      <trkpt lat="47.4892350" lon="9.5678580">
        <ele>-24.4</ele>
        <time>2022-06-09T08:50:26Z</time>
      </trkpt>
      <trkpt lat="47.4893630" lon="9.5676030">
        <ele>-24.6</ele>
        <time>2022-06-09T08:50:30Z</time>
      </trkpt>
      <trkpt lat="47.4895150" lon="9.5673700">
        <ele>-24.4</ele>
        <time>2022-06-09T08:50:34Z</time>
      </trkpt>
      <trkpt lat="47.4896730" lon="9.5671350">
        <ele>-25.0</ele>
        <time>2022-06-09T08:50:38Z</time>
      </trkpt>
      <trkpt lat="47.4898360" lon="9.5669130">
        <ele>-25.0</ele>
        <time>2022-06-09T08:50:42Z</time>
      </trkpt>
      <trkpt lat="47.4900080" lon="9.5667110">
        <ele>-24.6</ele>
        <time>2022-06-09T08:50:46Z</time>
      </trkpt>
      <trkpt lat="47.4901830" lon="9.5665060">
        <ele>-25.0</ele>
        <time>2022-06-09T08:50:50Z</time>
      </trkpt>
      <trkpt lat="47.4903480" lon="9.5663030">
        <ele>-25.4</ele>
        <time>2022-06-09T08:50:54Z</time>
      </trkpt>
      <trkpt lat="47.4905180" lon="9.5661050">
        <ele>-25.2</ele>
        <time>2022-06-09T08:50:58Z</time>
      </trkpt>
      <trkpt lat="47.4907100" lon="9.5659310">
        <ele>-25.2</ele>
        <time>2022-06-09T08:51:02Z</time>
      </trkpt>
      <trkpt lat="47.4909010" lon="9.5657360">
        <ele>-25.2</ele>
        <time>2022-06-09T08:51:06Z</time>
      </trkpt>
      <trkpt lat="47.4910860" lon="9.5655350">
        <ele>-25.6</ele>
        <time>2022-06-09T08:51:10Z</time>
      </trkpt>
      <trkpt lat="47.4912610" lon="9.5653410">
        <ele>-25.4</ele>
        <time>2022-06-09T08:51:14Z</time>
      </trkpt>
      <trkpt lat="47.4914300" lon="9.5651580">
        <ele>-25.6</ele>
        <time>2022-06-09T08:51:18Z</time>
      </trkpt>
      <trkpt lat="47.4915810" lon="9.5649680">
        <ele>-25.2</ele>
        <time>2022-06-09T08:51:22Z</time>
      </trkpt>
      <trkpt lat="47.4917200" lon="9.5648000">
        <ele>-25.2</ele>
        <time>2022-06-09T08:51:26Z</time>
      </trkpt>
      <trkpt lat="47.4918580" lon="9.5646650">
        <ele>-25.4</ele>
        <time>2022-06-09T08:51:30Z</time>
      </trkpt>
      <trkpt lat="47.4920130" lon="9.5645180">
        <ele>-25.4</ele>
        <time>2022-06-09T08:51:34Z</time>
      </trkpt>
      <trkpt lat="47.4921810" lon="9.5643460">
        <ele>-25.8</ele>
        <time>2022-06-09T08:51:38Z</time>
      </trkpt>
      <trkpt lat="47.4923600" lon="9.5641830">
        <ele>-25.8</ele>
        <time>2022-06-09T08:51:42Z</time>
      </trkpt>
      <trkpt lat="47.4925010" lon="9.5639980">
        <ele>-25.4</ele>
        <time>2022-06-09T08:51:46Z</time>
      </trkpt>
      <trkpt lat="47.4924050" lon="9.5637750">
        <ele>-24.8</ele>
        <time>2022-06-09T08:51:50Z</time>
      </trkpt>
      <trkpt lat="47.4922410" lon="9.5635910">
        <ele>-24.2</ele>
        <time>2022-06-09T08:51:54Z</time>
      </trkpt>
      <trkpt lat="47.4920510" lon="9.5634510">
        <ele>-24.8</ele>
        <time>2022-06-09T08:51:58Z</time>
      </trkpt>
      <trkpt lat="47.4918550" lon="9.5633160">
        <ele>-24.6</ele>
        <time>2022-06-09T08:52:02Z</time>
      </trkpt>
      <trkpt lat="47.4916610" lon="9.5631560">
        <ele>-25.0</ele>
        <time>2022-06-09T08:52:06Z</time>
      </trkpt>
      <trkpt lat="47.4914710" lon="9.5630050">
        <ele>-25.4</ele>
        <time>2022-06-09T08:52:10Z</time>
      </trkpt>
      <trkpt lat="47.4912860" lon="9.5628360">
        <ele>-25.2</ele>
        <time>2022-06-09T08:52:14Z</time>
      </trkpt>
      <trkpt lat="47.4911060" lon="9.5626810">
        <ele>-24.8</ele>
        <time>2022-06-09T08:52:18Z</time>
      </trkpt>
      <trkpt lat="47.4909350" lon="9.5625200">
        <ele>-24.8</ele>
        <time>2022-06-09T08:52:22Z</time>
      </trkpt>
      <trkpt lat="47.4908030" lon="9.5622900">
        <ele>-25.0</ele>
        <time>2022-06-09T08:52:26Z</time>
      </trkpt>
      <trkpt lat="47.4907310" lon="9.5620060">
        <ele>-25.8</ele>
        <time>2022-06-09T08:52:30Z</time>
      </trkpt>
      <trkpt lat="47.4906630" lon="9.5616980">
        <ele>-25.6</ele>
        <time>2022-06-09T08:52:34Z</time>
      </trkpt>
      <trkpt lat="47.4905950" lon="9.5613960">
        <ele>-26.0</ele>
        <time>2022-06-09T08:52:38Z</time>
      </trkpt>
      <trkpt lat="47.4905160" lon="9.5611050">
        <ele>-25.2</ele>
        <time>2022-06-09T08:52:42Z</time>
      </trkpt>
      <trkpt lat="47.4904260" lon="9.5608180">
        <ele>-25.8</ele>
        <time>2022-06-09T08:52:46Z</time>
      </trkpt>
      <trkpt lat="47.4903260" lon="9.5605450">
        <ele>-25.6</ele>
        <time>2022-06-09T08:52:50Z</time>
      </trkpt>
      <trkpt lat="47.4902210" lon="9.5602750">
        <ele>-25.4</ele>
        <time>2022-06-09T08:52:54Z</time>
      </trkpt>
      <trkpt lat="47.4901230" lon="9.5599980">
        <ele>-25.4</ele>
        <time>2022-06-09T08:52:58Z</time>
      </trkpt>
      <trkpt lat="47.4900700" lon="9.5596930">
        <ele>-25.6</ele>
        <time>2022-06-09T08:53:02Z</time>
      </trkpt>
      <trkpt lat="47.4900910" lon="9.5593800">
        <ele>-26.0</ele>
        <time>2022-06-09T08:53:06Z</time>
      </trkpt>
      <trkpt lat="47.4901600" lon="9.5590800">
        <ele>-26.0</ele>
        <time>2022-06-09T08:53:10Z</time>
      </trkpt>
      <trkpt lat="47.4902150" lon="9.5587710">
        <ele>-25.8</ele>
        <time>2022-06-09T08:53:14Z</time>
      </trkpt>
      <trkpt lat="47.4902350" lon="9.5584610">
        <ele>-26.0</ele>
        <time>2022-06-09T08:53:18Z</time>
      </trkpt>
      <trkpt lat="47.4902330" lon="9.5581450">
        <ele>-26.4</ele>
        <time>2022-06-09T08:53:22Z</time>
      </trkpt>
      <trkpt lat="47.4902200" lon="9.5578310">
        <ele>-26.0</ele>
        <time>2022-06-09T08:53:26Z</time>
      </trkpt>
      <trkpt lat="47.4902080" lon="9.5575400">
        <ele>-26.6</ele>
        <time>2022-06-09T08:53:30Z</time>
      </trkpt>
      <trkpt lat="47.4902010" lon="9.5572480">
        <ele>-26.6</ele>
        <time>2022-06-09T08:53:34Z</time>
      </trkpt>
      <trkpt lat="47.4901930" lon="9.5569800">
        <ele>-26.4</ele>
        <time>2022-06-09T08:53:38Z</time>
      </trkpt>
      <trkpt lat="47.4901850" lon="9.5567110">
        <ele>-26.4</ele>
        <time>2022-06-09T08:53:42Z</time>
      </trkpt>
      <trkpt lat="47.4901960" lon="9.5564200">
        <ele>-26.2</ele>
        <time>2022-06-09T08:53:46Z</time>
      </trkpt>
      <trkpt lat="47.4901930" lon="9.5561150">
        <ele>-26.2</ele>
        <time>2022-06-09T08:53:50Z</time>
      </trkpt>
      <trkpt lat="47.4902160" lon="9.5558150">
        <ele>-26.2</ele>
        <time>2022-06-09T08:53:54Z</time>
      </trkpt>
      <trkpt lat="47.4902410" lon="9.5555010">
        <ele>-27.0</ele>
        <time>2022-06-09T08:53:58Z</time>
      </trkpt>
      <trkpt lat="47.4902650" lon="9.5551930">
        <ele>-26.2</ele>
        <time>2022-06-09T08:54:02Z</time>
      </trkpt>
      <trkpt lat="47.4902460" lon="9.5548880">
        <ele>-26.6</ele>
        <time>2022-06-09T08:54:06Z</time>
      </trkpt>
      <trkpt lat="47.4901650" lon="9.5546000">
        <ele>-27.2</ele>
        <time>2022-06-09T08:54:10Z</time>
      </trkpt>
      <trkpt lat="47.4900780" lon="9.5543400">
        <ele>-27.0</ele>
        <time>2022-06-09T08:54:14Z</time>
      </trkpt>
      <trkpt lat="47.4900030" lon="9.5541110">
        <ele>-25.8</ele>
        <time>2022-06-09T08:54:18Z</time>
      </trkpt>
      <trkpt lat="47.4900500" lon="9.5538550">
        <ele>-26.6</ele>
        <time>2022-06-09T08:54:22Z</time>
      </trkpt>
      <trkpt lat="47.4901480" lon="9.5535900">
        <ele>-26.6</ele>
        <time>2022-06-09T08:54:26Z</time>
      </trkpt>
      <trkpt lat="47.4902430" lon="9.5533230">
        <ele>-27.2</ele>
        <time>2022-06-09T08:54:30Z</time>
      </trkpt>
      <trkpt lat="47.4903280" lon="9.5530480">
        <ele>-26.6</ele>
        <time>2022-06-09T08:54:34Z</time>
      </trkpt>
      <trkpt lat="47.4903910" lon="9.5527750">
        <ele>-27.8</ele>
        <time>2022-06-09T08:54:38Z</time>
      </trkpt>
      <trkpt lat="47.4904200" lon="9.5525080">
        <ele>-27.4</ele>
        <time>2022-06-09T08:54:42Z</time>
      </trkpt>
      <trkpt lat="47.4904110" lon="9.5522360">
        <ele>-27.2</ele>
        <time>2022-06-09T08:54:46Z</time>
      </trkpt>
      <trkpt lat="47.4903800" lon="9.5519500">
        <ele>-27.2</ele>
        <time>2022-06-09T08:54:50Z</time>
      </trkpt>
      <trkpt lat="47.4903010" lon="9.5516910">
        <ele>-27.2</ele>
        <time>2022-06-09T08:54:54Z</time>
      </trkpt>
      <trkpt lat="47.4902310" lon="9.5515580">
        <ele>-28.0</ele>
        <time>2022-06-09T08:54:58Z</time>
      </trkpt>
      <trkpt lat="47.4901650" lon="9.5514110">
        <ele>-27.2</ele>
        <time>2022-06-09T08:55:02Z</time>
      </trkpt>
      <trkpt lat="47.4900450" lon="9.5512550">
        <ele>-27.6</ele>
        <time>2022-06-09T08:55:06Z</time>
      </trkpt>
      <trkpt lat="47.4898930" lon="9.5511660">
        <ele>-27.8</ele>
        <time>2022-06-09T08:55:10Z</time>
      </trkpt>
      <trkpt lat="47.4897300" lon="9.5511860">
        <ele>-28.4</ele>
        <time>2022-06-09T08:55:14Z</time>
      </trkpt>
      <trkpt lat="47.4895530" lon="9.5511860">
        <ele>-28.4</ele>
        <time>2022-06-09T08:55:18Z</time>
      </trkpt>
      <trkpt lat="47.4893680" lon="9.5512030">
        <ele>-27.8</ele>
        <time>2022-06-09T08:55:22Z</time>
      </trkpt>
      <trkpt lat="47.4891850" lon="9.5512210">
        <ele>-27.8</ele>
        <time>2022-06-09T08:55:26Z</time>
      </trkpt>
      <trkpt lat="47.4889960" lon="9.5512200">
        <ele>-28.2</ele>
        <time>2022-06-09T08:55:30Z</time>
      </trkpt>
      <trkpt lat="47.4888100" lon="9.5511950">
        <ele>-28.0</ele>
        <time>2022-06-09T08:55:34Z</time>
      </trkpt>
      <trkpt lat="47.4886230" lon="9.5511380">
        <ele>-28.0</ele>
        <time>2022-06-09T08:55:38Z</time>
      </trkpt>
      <trkpt lat="47.4884330" lon="9.5510800">
        <ele>-27.8</ele>
        <time>2022-06-09T08:55:42Z</time>
      </trkpt>
      <trkpt lat="47.4882630" lon="9.5509630">
        <ele>-28.2</ele>
        <time>2022-06-09T08:55:46Z</time>
      </trkpt>
      <trkpt lat="47.4880710" lon="9.5508550">
        <ele>-28.4</ele>
        <time>2022-06-09T08:55:50Z</time>
      </trkpt>
      <trkpt lat="47.4878930" lon="9.5507230">
        <ele>-28.8</ele>
        <time>2022-06-09T08:55:54Z</time>
      </trkpt>
      <trkpt lat="47.4877300" lon="9.5505760">
        <ele>-29.0</ele>
        <time>2022-06-09T08:55:58Z</time>
      </trkpt>
      <trkpt lat="47.4875710" lon="9.5504110">
        <ele>-29.0</ele>
        <time>2022-06-09T08:56:02Z</time>
      </trkpt>
      <trkpt lat="47.4874030" lon="9.5502460">
        <ele>-29.2</ele>
        <time>2022-06-09T08:56:06Z</time>
      </trkpt>
      <trkpt lat="47.4872400" lon="9.5500830">
        <ele>-29.2</ele>
        <time>2022-06-09T08:56:10Z</time>
      </trkpt>
      <trkpt lat="47.4870800" lon="9.5499180">
        <ele>-29.8</ele>
        <time>2022-06-09T08:56:14Z</time>
      </trkpt>
      <trkpt lat="47.4869230" lon="9.5497560">
        <ele>-29.8</ele>
        <time>2022-06-09T08:56:18Z</time>
      </trkpt>
      <trkpt lat="47.4867730" lon="9.5495850">
        <ele>-30.2</ele>
        <time>2022-06-09T08:56:22Z</time>
      </trkpt>
      <trkpt lat="47.4866160" lon="9.5494350">
        <ele>-30.0</ele>
        <time>2022-06-09T08:56:26Z</time>
      </trkpt>
      <trkpt lat="47.4865350" lon="9.5492260">
        <ele>-30.0</ele>
        <time>2022-06-09T08:56:30Z</time>
      </trkpt>
      <trkpt lat="47.4866260" lon="9.5489860">
        <ele>-30.0</ele>
        <time>2022-06-09T08:56:34Z</time>
      </trkpt>
      <trkpt lat="47.4867030" lon="9.5487030">
        <ele>-30.4</ele>
        <time>2022-06-09T08:56:38Z</time>
      </trkpt>
      <trkpt lat="47.4867730" lon="9.5484480">
        <ele>-30.8</ele>
        <time>2022-06-09T08:56:42Z</time>
      </trkpt>
      <trkpt lat="47.4868330" lon="9.5482210">
        <ele>-30.8</ele>
        <time>2022-06-09T08:56:46Z</time>
      </trkpt>
      <trkpt lat="47.4869050" lon="9.5479600">
        <ele>-30.6</ele>
        <time>2022-06-09T08:56:50Z</time>
      </trkpt>
      <trkpt lat="47.4869810" lon="9.5476900">
        <ele>-31.2</ele>
        <time>2022-06-09T08:56:54Z</time>
      </trkpt>
      <trkpt lat="47.4870630" lon="9.5474150">
        <ele>-31.6</ele>
        <time>2022-06-09T08:56:58Z</time>
      </trkpt>
      <trkpt lat="47.4871160" lon="9.5471230">
        <ele>-31.6</ele>
        <time>2022-06-09T08:57:02Z</time>
      </trkpt>
      <trkpt lat="47.4871530" lon="9.5468330">
        <ele>-31.8</ele>
        <time>2022-06-09T08:57:06Z</time>
      </trkpt>
      <trkpt lat="47.4871060" lon="9.5465710">
        <ele>-33.2</ele>
        <time>2022-06-09T08:57:10Z</time>
      </trkpt>
      <trkpt lat="47.4870050" lon="9.5464130">
        <ele>-35.6</ele>
        <time>2022-06-09T08:57:14Z</time>
      </trkpt>
      <trkpt lat="47.4870050" lon="9.5464130">
        <ele>-31.2</ele>
        <time>2022-06-09T08:57:18Z</time>
      </trkpt>
      <trkpt lat="47.4870050" lon="9.5464130">
        <ele>-32.0</ele>
        <time>2022-06-09T08:57:22Z</time>
      </trkpt>
      <trkpt lat="47.4870050" lon="9.5464130">
        <ele>-32.8</ele>
        <time>2022-06-09T08:57:26Z</time>
      </trkpt>
      <trkpt lat="47.4870050" lon="9.5464130">
        <ele>-32.6</ele>
        <time>2022-06-09T08:57:30Z</time>
      </trkpt>
      <trkpt lat="47.4870050" lon="9.5464130">
        <ele>-33.2</ele>
        <time>2022-06-09T08:57:34Z</time>
      </trkpt>
      <trkpt lat="47.4870050" lon="9.5464130">
        <ele>-34.2</ele>
        <time>2022-06-09T08:57:38Z</time>
      </trkpt>
      <trkpt lat="47.4870050" lon="9.5464130">
        <ele>-34.8</ele>
        <time>2022-06-09T08:57:42Z</time>
      </trkpt>
      <trkpt lat="47.4870050" lon="9.5464130">
        <ele>-35.4</ele>
        <time>2022-06-09T08:57:46Z</time>
      </trkpt>
      <trkpt lat="47.4870050" lon="9.5464130">
        <ele>-36.4</ele>
        <time>2022-06-09T08:57:50Z</time>
      </trkpt>
      <trkpt lat="47.4870050" lon="9.5464130">
        <ele>-37.8</ele>
        <time>2022-06-09T08:57:54Z</time>
      </trkpt>
      <trkpt lat="47.4870050" lon="9.5464130">
        <ele>-39.2</ele>
        <time>2022-06-09T08:57:58Z</time>
      </trkpt>
      <trkpt lat="47.4870050" lon="9.5464130">
        <ele>-40.4</ele>
        <time>2022-06-09T08:58:02Z</time>
      </trkpt>
      <trkpt lat="47.4870050" lon="9.5464130">
        <ele>-42.0</ele>
        <time>2022-06-09T08:58:06Z</time>
      </trkpt>
      <trkpt lat="47.4870050" lon="9.5464130">
        <ele>-43.4</ele>
        <time>2022-06-09T08:58:10Z</time>
      </trkpt>
      <trkpt lat="47.4870050" lon="9.5464130">
        <ele>-45.8</ele>
        <time>2022-06-09T08:58:14Z</time>
      </trkpt>
      <trkpt lat="47.4870050" lon="9.5464130">
        <ele>-47.8</ele>
        <time>2022-06-09T08:58:18Z</time>
      </trkpt>
      <trkpt lat="47.4870050" lon="9.5464130">
        <ele>-28.6</ele>
        <time>2022-06-09T08:58:22Z</time>
      </trkpt>
      <trkpt lat="47.4870050" lon="9.5464130">
        <ele>-25.8</ele>
        <time>2022-06-09T08:58:26Z</time>
      </trkpt>
      <trkpt lat="47.4870050" lon="9.5464130">
        <ele>-28.4</ele>
        <time>2022-06-09T08:58:30Z</time>
      </trkpt>
      <trkpt lat="47.4869760" lon="9.5463530">
        <ele>-30.4</ele>
        <time>2022-06-09T08:58:34Z</time>
      </trkpt>
      <trkpt lat="47.4869250" lon="9.5463080">
        <ele>-32.4</ele>
        <time>2022-06-09T08:58:38Z</time>
      </trkpt>
      <trkpt lat="47.4868700" lon="9.5462130">
        <ele>-34.0</ele>
        <time>2022-06-09T08:58:42Z</time>
      </trkpt>
      <trkpt lat="47.4867950" lon="9.5461030">
        <ele>-35.0</ele>
        <time>2022-06-09T08:58:46Z</time>
      </trkpt>
      <trkpt lat="47.4867200" lon="9.5459850">
        <ele>-36.0</ele>
        <time>2022-06-09T08:58:50Z</time>
      </trkpt>
      <trkpt lat="47.4866280" lon="9.5458850">
        <ele>-37.4</ele>
        <time>2022-06-09T08:58:54Z</time>
      </trkpt>
      <trkpt lat="47.4865400" lon="9.5457800">
        <ele>-38.6</ele>
        <time>2022-06-09T08:58:58Z</time>
      </trkpt>
      <trkpt lat="47.4865050" lon="9.5456330">
        <ele>-40.0</ele>
        <time>2022-06-09T08:59:02Z</time>
      </trkpt>
      <trkpt lat="47.4864500" lon="9.5455160">
        <ele>-41.4</ele>
        <time>2022-06-09T08:59:06Z</time>
      </trkpt>
      <trkpt lat="47.4863400" lon="9.5454530">
        <ele>-42.2</ele>
        <time>2022-06-09T08:59:10Z</time>
      </trkpt>
      <trkpt lat="47.4862160" lon="9.5453800">
        <ele>-43.8</ele>
        <time>2022-06-09T08:59:14Z</time>
      </trkpt>
      <trkpt lat="47.4860900" lon="9.5452850">
        <ele>-45.4</ele>
        <time>2022-06-09T08:59:18Z</time>
      </trkpt>
      <trkpt lat="47.4860130" lon="9.5451000">
        <ele>-45.8</ele>
        <time>2022-06-09T08:59:22Z</time>
      </trkpt>
      <trkpt lat="47.4859680" lon="9.5448780">
        <ele>-45.4</ele>
        <time>2022-06-09T08:59:26Z</time>
      </trkpt>
      <trkpt lat="47.4859260" lon="9.5446510">
        <ele>-22.4</ele>
        <time>2022-06-09T08:59:30Z</time>
      </trkpt>
      <trkpt lat="47.4858910" lon="9.5444130">
        <ele>-26.2</ele>
        <time>2022-06-09T08:59:34Z</time>
      </trkpt>
      <trkpt lat="47.4857960" lon="9.5442580">
        <ele>-27.4</ele>
        <time>2022-06-09T08:59:38Z</time>
      </trkpt>
      <trkpt lat="47.4856460" lon="9.5442200">
        <ele>-28.2</ele>
        <time>2022-06-09T08:59:42Z</time>
      </trkpt>
      <trkpt lat="47.4855100" lon="9.5440800">
        <ele>-30.2</ele>
        <time>2022-06-09T08:59:46Z</time>
      </trkpt>
      <trkpt lat="47.4853630" lon="9.5439410">
        <ele>-31.4</ele>
        <time>2022-06-09T08:59:50Z</time>
      </trkpt>
      <trkpt lat="47.4852150" lon="9.5437850">
        <ele>-32.6</ele>
        <time>2022-06-09T08:59:54Z</time>
      </trkpt>
      <trkpt lat="47.4850580" lon="9.5436210">
        <ele>-33.6</ele>
        <time>2022-06-09T08:59:58Z</time>
      </trkpt>
      <trkpt lat="47.4848900" lon="9.5434960">
        <ele>-34.6</ele>
        <time>2022-06-09T09:00:02Z</time>
      </trkpt>
      <trkpt lat="47.4847060" lon="9.5435410">
        <ele>-35.6</ele>
        <time>2022-06-09T09:00:06Z</time>
      </trkpt>
      <trkpt lat="47.4845280" lon="9.5435710">
        <ele>-37.4</ele>
        <time>2022-06-09T09:00:10Z</time>
      </trkpt>
      <trkpt lat="47.4843730" lon="9.5436160">
        <ele>-38.4</ele>
        <time>2022-06-09T09:00:14Z</time>
      </trkpt>
      <trkpt lat="47.4842780" lon="9.5434710">
        <ele>-38.2</ele>
        <time>2022-06-09T09:00:18Z</time>
      </trkpt>
      <trkpt lat="47.4841860" lon="9.5433660">
        <ele>-39.0</ele>
        <time>2022-06-09T09:00:22Z</time>
      </trkpt>
      <trkpt lat="47.4840860" lon="9.5434360">
        <ele>-40.2</ele>
        <time>2022-06-09T09:00:26Z</time>
      </trkpt>
      <trkpt lat="47.4840860" lon="9.5434360">
        <ele>-40.2</ele>
        <time>2022-06-09T09:00:30Z</time>
      </trkpt>
      <trkpt lat="47.4840860" lon="9.5434360">
        <ele>-41.6</ele>
        <time>2022-06-09T09:00:34Z</time>
      </trkpt>
      <trkpt lat="47.4840380" lon="9.5434650">
        <ele>-43.4</ele>
        <time>2022-06-09T09:00:38Z</time>
      </trkpt>
      <trkpt lat="47.4839780" lon="9.5434810">
        <ele>-44.8</ele>
        <time>2022-06-09T09:00:42Z</time>
      </trkpt>
      <trkpt lat="47.4839210" lon="9.5435130">
        <ele>-45.8</ele>
        <time>2022-06-09T09:00:46Z</time>
      </trkpt>
      <trkpt lat="47.4839210" lon="9.5435130">
        <ele>-24.6</ele>
        <time>2022-06-09T09:00:50Z</time>
      </trkpt>
      <trkpt lat="47.4839160" lon="9.5435260">
        <ele>-28.2</ele>
        <time>2022-06-09T09:00:54Z</time>
      </trkpt>
      <trkpt lat="47.4839130" lon="9.5435650">
        <ele>-29.8</ele>
        <time>2022-06-09T09:00:58Z</time>
      </trkpt>
      <trkpt lat="47.4838750" lon="9.5436060">
        <ele>-31.2</ele>
        <time>2022-06-09T09:01:02Z</time>
      </trkpt>
      <trkpt lat="47.4838250" lon="9.5436850">
        <ele>-33.2</ele>
        <time>2022-06-09T09:01:06Z</time>
      </trkpt>
      <trkpt lat="47.4837050" lon="9.5437460">
        <ele>-34.8</ele>
        <time>2022-06-09T09:01:10Z</time>
      </trkpt>
      <trkpt lat="47.4835460" lon="9.5438460">
        <ele>-35.6</ele>
        <time>2022-06-09T09:01:14Z</time>
      </trkpt>
      <trkpt lat="47.4833610" lon="9.5439000">
        <ele>-36.8</ele>
        <time>2022-06-09T09:01:18Z</time>
      </trkpt>
      <trkpt lat="47.4831710" lon="9.5439680">
        <ele>-37.8</ele>
        <time>2022-06-09T09:01:22Z</time>
      </trkpt>
      <trkpt lat="47.4829810" lon="9.5440130">
        <ele>-38.6</ele>
        <time>2022-06-09T09:01:26Z</time>
      </trkpt>
      <trkpt lat="47.4828010" lon="9.5440580">
        <ele>-39.4</ele>
        <time>2022-06-09T09:01:30Z</time>
      </trkpt>
      <trkpt lat="47.4826260" lon="9.5441210">
        <ele>-39.4</ele>
        <time>2022-06-09T09:01:34Z</time>
      </trkpt>
      <trkpt lat="47.4825360" lon="9.5439730">
        <ele>-39.4</ele>
        <time>2022-06-09T09:01:38Z</time>
      </trkpt>
      <trkpt lat="47.4825030" lon="9.5437200">
        <ele>-39.4</ele>
        <time>2022-06-09T09:01:42Z</time>
      </trkpt>
      <trkpt lat="47.4824600" lon="9.5434380">
        <ele>-40.8</ele>
        <time>2022-06-09T09:01:46Z</time>
      </trkpt>
      <trkpt lat="47.4824110" lon="9.5431500">
        <ele>-42.0</ele>
        <time>2022-06-09T09:01:50Z</time>
      </trkpt>
      <trkpt lat="47.4823710" lon="9.5428560">
        <ele>-43.4</ele>
        <time>2022-06-09T09:01:54Z</time>
      </trkpt>
      <trkpt lat="47.4823180" lon="9.5425650">
        <ele>-23.8</ele>
        <time>2022-06-09T09:01:58Z</time>
      </trkpt>
      <trkpt lat="47.4822660" lon="9.5422680">
        <ele>-25.8</ele>
        <time>2022-06-09T09:02:02Z</time>
      </trkpt>
      <trkpt lat="47.4822310" lon="9.5420100">
        <ele>-27.8</ele>
        <time>2022-06-09T09:02:06Z</time>
      </trkpt>
      <trkpt lat="47.4821650" lon="9.5419000">
        <ele>-28.0</ele>
        <time>2022-06-09T09:02:10Z</time>
      </trkpt>
      <trkpt lat="47.4820730" lon="9.5419350">
        <ele>-29.4</ele>
        <time>2022-06-09T09:02:14Z</time>
      </trkpt>
      <trkpt lat="47.4820300" lon="9.5417230">
        <ele>-31.4</ele>
        <time>2022-06-09T09:02:18Z</time>
      </trkpt>
      <trkpt lat="47.4819660" lon="9.5414480">
        <ele>-32.4</ele>
        <time>2022-06-09T09:02:22Z</time>
      </trkpt>
      <trkpt lat="47.4819060" lon="9.5411550">
        <ele>-33.8</ele>
        <time>2022-06-09T09:02:26Z</time>
      </trkpt>
      <trkpt lat="47.4818380" lon="9.5408680">
        <ele>-34.8</ele>
        <time>2022-06-09T09:02:30Z</time>
      </trkpt>
      <trkpt lat="47.4817750" lon="9.5405760">
        <ele>-36.4</ele>
        <time>2022-06-09T09:02:34Z</time>
      </trkpt>
      <trkpt lat="47.4817110" lon="9.5402930">
        <ele>-38.0</ele>
        <time>2022-06-09T09:02:38Z</time>
      </trkpt>
      <trkpt lat="47.4816500" lon="9.5400160">
        <ele>-39.0</ele>
        <time>2022-06-09T09:02:42Z</time>
      </trkpt>
      <trkpt lat="47.4815930" lon="9.5397400">
        <ele>-40.0</ele>
        <time>2022-06-09T09:02:46Z</time>
      </trkpt>
      <trkpt lat="47.4815230" lon="9.5394580">
        <ele>-19.8</ele>
        <time>2022-06-09T09:02:50Z</time>
      </trkpt>
      <trkpt lat="47.4814480" lon="9.5391730">
        <ele>-22.4</ele>
        <time>2022-06-09T09:02:54Z</time>
      </trkpt>
      <trkpt lat="47.4813780" lon="9.5389030">
        <ele>-22.8</ele>
        <time>2022-06-09T09:02:58Z</time>
      </trkpt>
      <trkpt lat="47.4813160" lon="9.5386280">
        <ele>-23.6</ele>
        <time>2022-06-09T09:03:02Z</time>
      </trkpt>
      <trkpt lat="47.4812580" lon="9.5383850">
        <ele>-24.6</ele>
        <time>2022-06-09T09:03:06Z</time>
      </trkpt>
      <trkpt lat="47.4812110" lon="9.5381600">
        <ele>-26.4</ele>
        <time>2022-06-09T09:03:10Z</time>
      </trkpt>
      <trkpt lat="47.4811660" lon="9.5379230">
        <ele>-27.4</ele>
        <time>2022-06-09T09:03:14Z</time>
      </trkpt>
      <trkpt lat="47.4811130" lon="9.5376660">
        <ele>-27.2</ele>
        <time>2022-06-09T09:03:18Z</time>
      </trkpt>
      <trkpt lat="47.4810350" lon="9.5373830">
        <ele>-26.4</ele>
        <time>2022-06-09T09:03:22Z</time>
      </trkpt>
      <trkpt lat="47.4809410" lon="9.5371860">
        <ele>-25.6</ele>
        <time>2022-06-09T09:03:26Z</time>
      </trkpt>
      <trkpt lat="47.4809160" lon="9.5369680">
        <ele>-25.8</ele>
        <time>2022-06-09T09:03:30Z</time>
      </trkpt>
      <trkpt lat="47.4808710" lon="9.5367330">
        <ele>-26.2</ele>
        <time>2022-06-09T09:03:34Z</time>
      </trkpt>
      <trkpt lat="47.4808230" lon="9.5364910">
        <ele>-27.6</ele>
        <time>2022-06-09T09:03:38Z</time>
      </trkpt>
      <trkpt lat="47.4807600" lon="9.5362480">
        <ele>-28.8</ele>
        <time>2022-06-09T09:03:42Z</time>
      </trkpt>
      <trkpt lat="47.4806960" lon="9.5359960">
        <ele>-29.8</ele>
        <time>2022-06-09T09:03:46Z</time>
      </trkpt>
      <trkpt lat="47.4806200" lon="9.5357430">
        <ele>-29.2</ele>
        <time>2022-06-09T09:03:50Z</time>
      </trkpt>
      <trkpt lat="47.4805210" lon="9.5355050">
        <ele>-28.6</ele>
        <time>2022-06-09T09:03:54Z</time>
      </trkpt>
      <trkpt lat="47.4804060" lon="9.5352830">
        <ele>-27.8</ele>
        <time>2022-06-09T09:03:58Z</time>
      </trkpt>
      <trkpt lat="47.4802960" lon="9.5350480">
        <ele>-28.0</ele>
        <time>2022-06-09T09:04:02Z</time>
      </trkpt>
      <trkpt lat="47.4802150" lon="9.5347830">
        <ele>-30.0</ele>
        <time>2022-06-09T09:04:06Z</time>
      </trkpt>
      <trkpt lat="47.4801410" lon="9.5345060">
        <ele>-29.6</ele>
        <time>2022-06-09T09:04:10Z</time>
      </trkpt>
      <trkpt lat="47.4800850" lon="9.5342250">
        <ele>-30.0</ele>
        <time>2022-06-09T09:04:14Z</time>
      </trkpt>
      <trkpt lat="47.4800250" lon="9.5339450">
        <ele>-31.6</ele>
        <time>2022-06-09T09:04:18Z</time>
      </trkpt>
      <trkpt lat="47.4799900" lon="9.5336510">
        <ele>-31.4</ele>
        <time>2022-06-09T09:04:22Z</time>
      </trkpt>
      <trkpt lat="47.4799850" lon="9.5333530">
        <ele>-30.8</ele>
        <time>2022-06-09T09:04:26Z</time>
      </trkpt>
      <trkpt lat="47.4799460" lon="9.5330760">
        <ele>-31.6</ele>
        <time>2022-06-09T09:04:30Z</time>
      </trkpt>
      <trkpt lat="47.4798910" lon="9.5327680">
        <ele>-33.2</ele>
        <time>2022-06-09T09:04:34Z</time>
      </trkpt>
      <trkpt lat="47.4798210" lon="9.5324850">
        <ele>-35.6</ele>
        <time>2022-06-09T09:04:38Z</time>
      </trkpt>
      <trkpt lat="47.4797530" lon="9.5322180">
        <ele>-36.2</ele>
        <time>2022-06-09T09:04:42Z</time>
      </trkpt>
      <trkpt lat="47.4796950" lon="9.5319480">
        <ele>-36.0</ele>
        <time>2022-06-09T09:04:46Z</time>
      </trkpt>
      <trkpt lat="47.4797050" lon="9.5316280">
        <ele>-35.6</ele>
        <time>2022-06-09T09:04:50Z</time>
      </trkpt>
      <trkpt lat="47.4796610" lon="9.5312580">
        <ele>-35.0</ele>
        <time>2022-06-09T09:04:54Z</time>
      </trkpt>
      <trkpt lat="47.4795910" lon="9.5309000">
        <ele>-33.2</ele>
        <time>2022-06-09T09:04:58Z</time>
      </trkpt>
      <trkpt lat="47.4795460" lon="9.5305510">
        <ele>-32.6</ele>
        <time>2022-06-09T09:05:02Z</time>
      </trkpt>
      <trkpt lat="47.4795150" lon="9.5302180">
        <ele>-31.0</ele>
        <time>2022-06-09T09:05:06Z</time>
      </trkpt>
      <trkpt lat="47.4794950" lon="9.5298860">
        <ele>-30.0</ele>
        <time>2022-06-09T09:05:10Z</time>
      </trkpt>
      <trkpt lat="47.4794780" lon="9.5295680">
        <ele>-29.2</ele>
        <time>2022-06-09T09:05:14Z</time>
      </trkpt>
      <trkpt lat="47.4794680" lon="9.5292480">
        <ele>-28.2</ele>
        <time>2022-06-09T09:05:18Z</time>
      </trkpt>
      <trkpt lat="47.4794630" lon="9.5289150">
        <ele>-27.2</ele>
        <time>2022-06-09T09:05:22Z</time>
      </trkpt>
      <trkpt lat="47.4794380" lon="9.5285580">
        <ele>-26.0</ele>
        <time>2022-06-09T09:05:26Z</time>
      </trkpt>
      <trkpt lat="47.4794380" lon="9.5281980">
        <ele>-25.6</ele>
        <time>2022-06-09T09:05:30Z</time>
      </trkpt>
      <trkpt lat="47.4794310" lon="9.5278560">
        <ele>-24.4</ele>
        <time>2022-06-09T09:05:34Z</time>
      </trkpt>
      <trkpt lat="47.4793780" lon="9.5275280">
        <ele>-24.4</ele>
        <time>2022-06-09T09:05:38Z</time>
      </trkpt>
      <trkpt lat="47.4792980" lon="9.5272260">
        <ele>-23.4</ele>
        <time>2022-06-09T09:05:42Z</time>
      </trkpt>
      <trkpt lat="47.4792050" lon="9.5269560">
        <ele>-22.6</ele>
        <time>2022-06-09T09:05:46Z</time>
      </trkpt>
      <trkpt lat="47.4792250" lon="9.5267210">
        <ele>-22.2</ele>
        <time>2022-06-09T09:05:50Z</time>
      </trkpt>
      <trkpt lat="47.4792860" lon="9.5267150">
        <ele>-22.2</ele>
        <time>2022-06-09T09:05:54Z</time>
      </trkpt>
      <trkpt lat="47.4793360" lon="9.5269110">
        <ele>-22.4</ele>
        <time>2022-06-09T09:05:58Z</time>
      </trkpt>
      <trkpt lat="47.4793530" lon="9.5272180">
        <ele>-22.8</ele>
        <time>2022-06-09T09:06:02Z</time>
      </trkpt>
      <trkpt lat="47.4794560" lon="9.5274710">
        <ele>-23.8</ele>
        <time>2022-06-09T09:06:06Z</time>
      </trkpt>
      <trkpt lat="47.4795400" lon="9.5276550">
        <ele>-25.0</ele>
        <time>2022-06-09T09:06:10Z</time>
      </trkpt>
      <trkpt lat="47.4795800" lon="9.5277260">
        <ele>-25.8</ele>
        <time>2022-06-09T09:06:14Z</time>
      </trkpt>
      <trkpt lat="47.4796180" lon="9.5277900">
        <ele>-25.4</ele>
        <time>2022-06-09T09:06:18Z</time>
      </trkpt>
      <trkpt lat="47.4796700" lon="9.5276410">
        <ele>-26.0</ele>
        <time>2022-06-09T09:06:22Z</time>
      </trkpt>
      <trkpt lat="47.4796760" lon="9.5274260">
        <ele>-26.2</ele>
        <time>2022-06-09T09:06:26Z</time>
      </trkpt>
      <trkpt lat="47.4796700" lon="9.5271860">
        <ele>-25.8</ele>
        <time>2022-06-09T09:06:30Z</time>
      </trkpt>
      <trkpt lat="47.4797550" lon="9.5270110">
        <ele>-25.4</ele>
        <time>2022-06-09T09:06:34Z</time>
      </trkpt>
      <trkpt lat="47.4797860" lon="9.5268550">
        <ele>-25.8</ele>
        <time>2022-06-09T09:06:38Z</time>
      </trkpt>
      <trkpt lat="47.4797910" lon="9.5266400">
        <ele>-25.2</ele>
        <time>2022-06-09T09:06:42Z</time>
      </trkpt>
      <trkpt lat="47.4797800" lon="9.5263730">
        <ele>-26.4</ele>
        <time>2022-06-09T09:06:46Z</time>
      </trkpt>
      <trkpt lat="47.4797210" lon="9.5261380">
        <ele>-26.0</ele>
        <time>2022-06-09T09:06:50Z</time>
      </trkpt>
      <trkpt lat="47.4797310" lon="9.5259030">
        <ele>-25.2</ele>
        <time>2022-06-09T09:06:54Z</time>
      </trkpt>
      <trkpt lat="47.4797560" lon="9.5257280">
        <ele>-24.6</ele>
        <time>2022-06-09T09:06:58Z</time>
      </trkpt>
      <trkpt lat="47.4797630" lon="9.5256080">
        <ele>-25.4</ele>
        <time>2022-06-09T09:07:02Z</time>
      </trkpt>
      <trkpt lat="47.4797710" lon="9.5255160">
        <ele>-25.4</ele>
        <time>2022-06-09T09:07:06Z</time>
      </trkpt>
      <trkpt lat="47.4797780" lon="9.5254630">
        <ele>-26.4</ele>
        <time>2022-06-09T09:07:10Z</time>
      </trkpt>
      <trkpt lat="47.4797380" lon="9.5254300">
        <ele>-27.8</ele>
        <time>2022-06-09T09:07:14Z</time>
      </trkpt>
      <trkpt lat="47.4796930" lon="9.5254980">
        <ele>-28.4</ele>
        <time>2022-06-09T09:07:18Z</time>
      </trkpt>
      <trkpt lat="47.4796730" lon="9.5254000">
        <ele>-28.2</ele>
        <time>2022-06-09T09:07:22Z</time>
      </trkpt>
      <trkpt lat="47.4796850" lon="9.5252450">
        <ele>-28.0</ele>
        <time>2022-06-09T09:07:26Z</time>
      </trkpt>
      <trkpt lat="47.4796960" lon="9.5251200">
        <ele>-27.6</ele>
        <time>2022-06-09T09:07:30Z</time>
      </trkpt>
      <trkpt lat="47.4797080" lon="9.5249880">
        <ele>-28.4</ele>
        <time>2022-06-09T09:07:34Z</time>
      </trkpt>
      <trkpt lat="47.4797200" lon="9.5248310">
        <ele>-28.4</ele>
        <time>2022-06-09T09:07:38Z</time>
      </trkpt>
      <trkpt lat="47.4797330" lon="9.5246710">
        <ele>-27.8</ele>
        <time>2022-06-09T09:07:42Z</time>
      </trkpt>
      <trkpt lat="47.4797450" lon="9.5245130">
        <ele>-28.0</ele>
        <time>2022-06-09T09:07:46Z</time>
      </trkpt>
      <trkpt lat="47.4797550" lon="9.5243750">
        <ele>-28.2</ele>
        <time>2022-06-09T09:07:50Z</time>
      </trkpt>
      <trkpt lat="47.4797480" lon="9.5242530">
        <ele>-29.6</ele>
        <time>2022-06-09T09:07:54Z</time>
      </trkpt>
      <trkpt lat="47.4797060" lon="9.5241700">
        <ele>-30.2</ele>
        <time>2022-06-09T09:07:58Z</time>
      </trkpt>
      <trkpt lat="47.4797100" lon="9.5240560">
        <ele>-30.2</ele>
        <time>2022-06-09T09:08:02Z</time>
      </trkpt>
      <trkpt lat="47.4797100" lon="9.5240560">
        <ele>-30.6</ele>
        <time>2022-06-09T09:08:06Z</time>
      </trkpt>
      <trkpt lat="47.4797100" lon="9.5240560">
        <ele>-30.4</ele>
        <time>2022-06-09T09:08:10Z</time>
      </trkpt>
      <trkpt lat="47.4797130" lon="9.5239750">
        <ele>-31.0</ele>
        <time>2022-06-09T09:08:14Z</time>
      </trkpt>
      <trkpt lat="47.4797230" lon="9.5238750">
        <ele>-32.0</ele>
        <time>2022-06-09T09:08:18Z</time>
      </trkpt>
      <trkpt lat="47.4797210" lon="9.5237350">
        <ele>-31.8</ele>
        <time>2022-06-09T09:08:22Z</time>
      </trkpt>
      <trkpt lat="47.4797180" lon="9.5235600">
        <ele>-31.8</ele>
        <time>2022-06-09T09:08:26Z</time>
      </trkpt>
      <trkpt lat="47.4797130" lon="9.5233810">
        <ele>-32.0</ele>
        <time>2022-06-09T09:08:30Z</time>
      </trkpt>
      <trkpt lat="47.4797030" lon="9.5232200">
        <ele>-31.4</ele>
        <time>2022-06-09T09:08:34Z</time>
      </trkpt>
      <trkpt lat="47.4796880" lon="9.5230700">
        <ele>-31.2</ele>
        <time>2022-06-09T09:08:38Z</time>
      </trkpt>
      <trkpt lat="47.4796360" lon="9.5229500">
        <ele>-31.6</ele>
        <time>2022-06-09T09:08:42Z</time>
      </trkpt>
      <trkpt lat="47.4795430" lon="9.5228560">
        <ele>-31.6</ele>
        <time>2022-06-09T09:08:46Z</time>
      </trkpt>
      <trkpt lat="47.4794480" lon="9.5227600">
        <ele>-12.6</ele>
        <time>2022-06-09T09:08:50Z</time>
      </trkpt>
      <trkpt lat="47.4793460" lon="9.5226600">
        <ele>-14.4</ele>
        <time>2022-06-09T09:08:54Z</time>
      </trkpt>
      <trkpt lat="47.4792500" lon="9.5225660">
        <ele>-16.0</ele>
        <time>2022-06-09T09:08:58Z</time>
      </trkpt>
      <trkpt lat="47.4791630" lon="9.5224710">
        <ele>-15.4</ele>
        <time>2022-06-09T09:09:02Z</time>
      </trkpt>
      <trkpt lat="47.4790810" lon="9.5223860">
        <ele>-15.2</ele>
        <time>2022-06-09T09:09:06Z</time>
      </trkpt>
      <trkpt lat="47.4789910" lon="9.5223010">
        <ele>-16.0</ele>
        <time>2022-06-09T09:09:10Z</time>
      </trkpt>
      <trkpt lat="47.4789050" lon="9.5222130">
        <ele>-16.6</ele>
        <time>2022-06-09T09:09:14Z</time>
      </trkpt>
      <trkpt lat="47.4788950" lon="9.5220360">
        <ele>-16.0</ele>
        <time>2022-06-09T09:09:18Z</time>
      </trkpt>
      <trkpt lat="47.4789150" lon="9.5218750">
        <ele>-17.4</ele>
        <time>2022-06-09T09:09:22Z</time>
      </trkpt>
      <trkpt lat="47.4788860" lon="9.5217000">
        <ele>-19.0</ele>
        <time>2022-06-09T09:09:26Z</time>
      </trkpt>
      <trkpt lat="47.4788480" lon="9.5215300">
        <ele>-20.8</ele>
        <time>2022-06-09T09:09:30Z</time>
      </trkpt>
      <trkpt lat="47.4788100" lon="9.5213460">
        <ele>-22.6</ele>
        <time>2022-06-09T09:09:34Z</time>
      </trkpt>
      <trkpt lat="47.4787660" lon="9.5211410">
        <ele>-24.2</ele>
        <time>2022-06-09T09:09:38Z</time>
      </trkpt>
      <trkpt lat="47.4787350" lon="9.5209260">
        <ele>-25.4</ele>
        <time>2022-06-09T09:09:42Z</time>
      </trkpt>
      <trkpt lat="47.4786980" lon="9.5207200">
        <ele>-27.4</ele>
        <time>2022-06-09T09:09:46Z</time>
      </trkpt>
      <trkpt lat="47.4786600" lon="9.5205010">
        <ele>-27.8</ele>
        <time>2022-06-09T09:09:50Z</time>
      </trkpt>
      <trkpt lat="47.4786180" lon="9.5202810">
        <ele>-8.8</ele>
        <time>2022-06-09T09:09:54Z</time>
      </trkpt>
      <trkpt lat="47.4785700" lon="9.5200630">
        <ele>-9.8</ele>
        <time>2022-06-09T09:09:58Z</time>
      </trkpt>
      <trkpt lat="47.4785380" lon="9.5198430">
        <ele>-11.6</ele>
        <time>2022-06-09T09:10:02Z</time>
      </trkpt>
      <trkpt lat="47.4785010" lon="9.5196010">
        <ele>-11.4</ele>
        <time>2022-06-09T09:10:06Z</time>
      </trkpt>
      <trkpt lat="47.4784660" lon="9.5193700">
        <ele>-12.4</ele>
        <time>2022-06-09T09:10:10Z</time>
      </trkpt>
      <trkpt lat="47.4784280" lon="9.5191300">
        <ele>-13.6</ele>
        <time>2022-06-09T09:10:14Z</time>
      </trkpt>
      <trkpt lat="47.4783850" lon="9.5188800">
        <ele>-15.2</ele>
        <time>2022-06-09T09:10:18Z</time>
      </trkpt>
      <trkpt lat="47.4783480" lon="9.5186450">
        <ele>-16.6</ele>
        <time>2022-06-09T09:10:22Z</time>
      </trkpt>
      <trkpt lat="47.4783130" lon="9.5184260">
        <ele>-16.4</ele>
        <time>2022-06-09T09:10:26Z</time>
      </trkpt>
      <trkpt lat="47.4782860" lon="9.5182180">
        <ele>-16.6</ele>
        <time>2022-06-09T09:10:30Z</time>
      </trkpt>
      <trkpt lat="47.4782330" lon="9.5179450">
        <ele>-17.6</ele>
        <time>2022-06-09T09:10:34Z</time>
      </trkpt>
      <trkpt lat="47.4781900" lon="9.5176910">
        <ele>-19.0</ele>
        <time>2022-06-09T09:10:38Z</time>
      </trkpt>
      <trkpt lat="47.4781500" lon="9.5174380">
        <ele>-21.4</ele>
        <time>2022-06-09T09:10:42Z</time>
      </trkpt>
      <trkpt lat="47.4781180" lon="9.5171950">
        <ele>-22.6</ele>
        <time>2022-06-09T09:10:46Z</time>
      </trkpt>
      <trkpt lat="47.4780780" lon="9.5169810">
        <ele>-23.0</ele>
        <time>2022-06-09T09:10:50Z</time>
      </trkpt>
      <trkpt lat="47.4780430" lon="9.5167780">
        <ele>-23.0</ele>
        <time>2022-06-09T09:10:54Z</time>
      </trkpt>
      <trkpt lat="47.4780160" lon="9.5166110">
        <ele>-23.6</ele>
        <time>2022-06-09T09:10:58Z</time>
      </trkpt>
      <trkpt lat="47.4780160" lon="9.5166110">
        <ele>-24.4</ele>
        <time>2022-06-09T09:11:02Z</time>
      </trkpt>
      <trkpt lat="47.4780160" lon="9.5166110">
        <ele>-25.2</ele>
        <time>2022-06-09T09:11:06Z</time>
      </trkpt>
      <trkpt lat="47.4780160" lon="9.5166110">
        <ele>-26.0</ele>
        <time>2022-06-09T09:11:10Z</time>
      </trkpt>
      <trkpt lat="47.4780160" lon="9.5166110">
        <ele>-27.2</ele>
        <time>2022-06-09T09:11:14Z</time>
      </trkpt>
      <trkpt lat="47.4780110" lon="9.5165410">
        <ele>-4.0</ele>
        <time>2022-06-09T09:11:18Z</time>
      </trkpt>
      <trkpt lat="47.4780310" lon="9.5164700">
        <ele>-8.0</ele>
        <time>2022-06-09T09:11:22Z</time>
      </trkpt>
      <trkpt lat="47.4781230" lon="9.5164230">
        <ele>-9.2</ele>
        <time>2022-06-09T09:11:26Z</time>
      </trkpt>
      <trkpt lat="47.4782700" lon="9.5163450">
        <ele>-10.4</ele>
        <time>2022-06-09T09:11:30Z</time>
      </trkpt>
      <trkpt lat="47.4784780" lon="9.5162600">
        <ele>-11.4</ele>
        <time>2022-06-09T09:11:34Z</time>
      </trkpt>
      <trkpt lat="47.4787180" lon="9.5161650">
        <ele>-11.2</ele>
        <time>2022-06-09T09:11:38Z</time>
      </trkpt>
      <trkpt lat="47.4789100" lon="9.5160060">
        <ele>-12.4</ele>
        <time>2022-06-09T09:11:42Z</time>
      </trkpt>
      <trkpt lat="47.4789560" lon="9.5156630">
        <ele>-13.6</ele>
        <time>2022-06-09T09:11:46Z</time>
      </trkpt>
      <trkpt lat="47.4789300" lon="9.5152550">
        <ele>-15.2</ele>
        <time>2022-06-09T09:11:50Z</time>
      </trkpt>
      <trkpt lat="47.4788500" lon="9.5149510">
        <ele>-16.4</ele>
        <time>2022-06-09T09:11:54Z</time>
      </trkpt>
      <trkpt lat="47.4788260" lon="9.5146200">
        <ele>-16.2</ele>
        <time>2022-06-09T09:11:58Z</time>
      </trkpt>
      <trkpt lat="47.4788000" lon="9.5142780">
        <ele>-17.2</ele>
        <time>2022-06-09T09:12:02Z</time>
      </trkpt>
      <trkpt lat="47.4787730" lon="9.5139430">
        <ele>-18.0</ele>
        <time>2022-06-09T09:12:06Z</time>
      </trkpt>
      <trkpt lat="47.4787410" lon="9.5136050">
        <ele>-18.4</ele>
        <time>2022-06-09T09:12:10Z</time>
      </trkpt>
      <trkpt lat="47.4787110" lon="9.5132730">
        <ele>-18.8</ele>
        <time>2022-06-09T09:12:14Z</time>
      </trkpt>
      <trkpt lat="47.4786900" lon="9.5129460">
        <ele>-18.0</ele>
        <time>2022-06-09T09:12:18Z</time>
      </trkpt>
      <trkpt lat="47.4786630" lon="9.5126330">
        <ele>-18.2</ele>
        <time>2022-06-09T09:12:22Z</time>
      </trkpt>
      <trkpt lat="47.4786360" lon="9.5123230">
        <ele>-18.0</ele>
        <time>2022-06-09T09:12:26Z</time>
      </trkpt>
      <trkpt lat="47.4786080" lon="9.5120280">
        <ele>-17.2</ele>
        <time>2022-06-09T09:12:30Z</time>
      </trkpt>
      <trkpt lat="47.4785980" lon="9.5117160">
        <ele>-18.0</ele>
        <time>2022-06-09T09:12:34Z</time>
      </trkpt>
      <trkpt lat="47.4785910" lon="9.5114060">
        <ele>-17.4</ele>
        <time>2022-06-09T09:12:38Z</time>
      </trkpt>
      <trkpt lat="47.4785730" lon="9.5110930">
        <ele>-17.6</ele>
        <time>2022-06-09T09:12:42Z</time>
      </trkpt>
      <trkpt lat="47.4785350" lon="9.5107750">
        <ele>-17.2</ele>
        <time>2022-06-09T09:12:46Z</time>
      </trkpt>
      <trkpt lat="47.4785080" lon="9.5104400">
        <ele>-17.4</ele>
        <time>2022-06-09T09:12:50Z</time>
      </trkpt>
      <trkpt lat="47.4784810" lon="9.5101110">
        <ele>-18.0</ele>
        <time>2022-06-09T09:12:54Z</time>
      </trkpt>
      <trkpt lat="47.4784530" lon="9.5097960">
        <ele>-18.0</ele>
        <time>2022-06-09T09:12:58Z</time>
      </trkpt>
      <trkpt lat="47.4784310" lon="9.5094780">
        <ele>-18.4</ele>
        <time>2022-06-09T09:13:02Z</time>
      </trkpt>
      <trkpt lat="47.4784030" lon="9.5091500">
        <ele>-19.0</ele>
        <time>2022-06-09T09:13:06Z</time>
      </trkpt>
      <trkpt lat="47.4783830" lon="9.5088200">
        <ele>-19.2</ele>
        <time>2022-06-09T09:13:10Z</time>
      </trkpt>
      <trkpt lat="47.4783560" lon="9.5085010">
        <ele>-19.0</ele>
        <time>2022-06-09T09:13:14Z</time>
      </trkpt>
      <trkpt lat="47.4783350" lon="9.5082060">
        <ele>-19.2</ele>
        <time>2022-06-09T09:13:18Z</time>
      </trkpt>
      <trkpt lat="47.4783210" lon="9.5079230">
        <ele>-19.0</ele>
        <time>2022-06-09T09:13:22Z</time>
      </trkpt>
      <trkpt lat="47.4784250" lon="9.5077450">
        <ele>-19.4</ele>
        <time>2022-06-09T09:13:26Z</time>
      </trkpt>
      <trkpt lat="47.4785850" lon="9.5077160">
        <ele>-20.0</ele>
        <time>2022-06-09T09:13:30Z</time>
      </trkpt>
      <trkpt lat="47.4787400" lon="9.5077000">
        <ele>-21.8</ele>
        <time>2022-06-09T09:13:34Z</time>
      </trkpt>
      <trkpt lat="47.4788830" lon="9.5076980">
        <ele>-21.8</ele>
        <time>2022-06-09T09:13:38Z</time>
      </trkpt>
      <trkpt lat="47.4790210" lon="9.5076660">
        <ele>-21.6</ele>
        <time>2022-06-09T09:13:42Z</time>
      </trkpt>
      <trkpt lat="47.4791400" lon="9.5077760">
        <ele>-21.4</ele>
        <time>2022-06-09T09:13:46Z</time>
      </trkpt>
      <trkpt lat="47.4792560" lon="9.5078230">
        <ele>-21.2</ele>
        <time>2022-06-09T09:13:50Z</time>
      </trkpt>
      <trkpt lat="47.4793300" lon="9.5077860">
        <ele>-20.8</ele>
        <time>2022-06-09T09:13:54Z</time>
      </trkpt>
      <trkpt lat="47.4793300" lon="9.5077860">
        <ele>-20.4</ele>
        <time>2022-06-09T09:13:58Z</time>
      </trkpt>
      <trkpt lat="47.4793300" lon="9.5077860">
        <ele>-20.6</ele>
        <time>2022-06-09T09:14:02Z</time>
      </trkpt>
      <trkpt lat="47.4793300" lon="9.5077860">
        <ele>-20.2</ele>
        <time>2022-06-09T09:14:06Z</time>
      </trkpt>
      <trkpt lat="47.4793300" lon="9.5077860">
        <ele>-19.8</ele>
        <time>2022-06-09T09:14:10Z</time>
      </trkpt>
      <trkpt lat="47.4793300" lon="9.5077860">
        <ele>-20.0</ele>
        <time>2022-06-09T09:14:14Z</time>
      </trkpt>
      <trkpt lat="47.4793300" lon="9.5077860">
        <ele>-19.8</ele>
        <time>2022-06-09T09:14:18Z</time>
      </trkpt>
      <trkpt lat="47.4793300" lon="9.5077860">
        <ele>-19.4</ele>
        <time>2022-06-09T09:14:22Z</time>
      </trkpt>
      <trkpt lat="47.4793300" lon="9.5077860">
        <ele>-19.6</ele>
        <time>2022-06-09T09:14:26Z</time>
      </trkpt>
      <trkpt lat="47.4793510" lon="9.5077780">
        <ele>-20.4</ele>
        <time>2022-06-09T09:14:30Z</time>
      </trkpt>
      <trkpt lat="47.4793510" lon="9.5077780">
        <ele>-20.0</ele>
        <time>2022-06-09T09:14:34Z</time>
      </trkpt>
      <trkpt lat="47.4793510" lon="9.5077780">
        <ele>-20.0</ele>
        <time>2022-06-09T09:14:38Z</time>
      </trkpt>
      <trkpt lat="47.4793510" lon="9.5077780">
        <ele>-19.8</ele>
        <time>2022-06-09T09:14:42Z</time>
      </trkpt>
      <trkpt lat="47.4793510" lon="9.5077780">
        <ele>-19.2</ele>
        <time>2022-06-09T09:14:46Z</time>
      </trkpt>
      <trkpt lat="47.4793510" lon="9.5077780">
        <ele>-18.8</ele>
        <time>2022-06-09T09:14:50Z</time>
      </trkpt>
      <trkpt lat="47.4793510" lon="9.5077780">
        <ele>-18.8</ele>
        <time>2022-06-09T09:14:54Z</time>
      </trkpt>
      <trkpt lat="47.4793510" lon="9.5077780">
        <ele>-18.0</ele>
        <time>2022-06-09T09:14:58Z</time>
      </trkpt>
      <trkpt lat="47.4793510" lon="9.5077780">
        <ele>-18.0</ele>
        <time>2022-06-09T09:15:02Z</time>
      </trkpt>
      <trkpt lat="47.4793510" lon="9.5077780">
        <ele>-17.6</ele>
        <time>2022-06-09T09:15:06Z</time>
      </trkpt>
      <trkpt lat="47.4793510" lon="9.5077780">
        <ele>-17.4</ele>
        <time>2022-06-09T09:15:10Z</time>
      </trkpt>
      <trkpt lat="47.4793510" lon="9.5077780">
        <ele>-17.0</ele>
        <time>2022-06-09T09:15:14Z</time>
      </trkpt>
      <trkpt lat="47.4793510" lon="9.5077780">
        <ele>-16.6</ele>
        <time>2022-06-09T09:15:18Z</time>
      </trkpt>
      <trkpt lat="47.4793510" lon="9.5077780">
        <ele>-16.4</ele>
        <time>2022-06-09T09:15:22Z</time>
      </trkpt>
      <trkpt lat="47.4793510" lon="9.5077780">
        <ele>-15.6</ele>
        <time>2022-06-09T09:15:26Z</time>
      </trkpt>
      <trkpt lat="47.4793510" lon="9.5077780">
        <ele>-15.2</ele>
        <time>2022-06-09T09:15:30Z</time>
      </trkpt>
      <trkpt lat="47.4793510" lon="9.5077780">
        <ele>-14.8</ele>
        <time>2022-06-09T09:15:34Z</time>
      </trkpt>
      <trkpt lat="47.4793510" lon="9.5077780">
        <ele>-14.8</ele>
        <time>2022-06-09T09:15:38Z</time>
      </trkpt>
      <trkpt lat="47.4793510" lon="9.5077780">
        <ele>-14.0</ele>
        <time>2022-06-09T09:15:42Z</time>
      </trkpt>
      <trkpt lat="47.4793510" lon="9.5077780">
        <ele>-14.2</ele>
        <time>2022-06-09T09:15:46Z</time>
      </trkpt>
      <trkpt lat="47.4793510" lon="9.5077780">
        <ele>-13.4</ele>
        <time>2022-06-09T09:15:50Z</time>
      </trkpt>
      <trkpt lat="47.4793510" lon="9.5077780">
        <ele>-13.4</ele>
        <time>2022-06-09T09:15:54Z</time>
      </trkpt>
      <trkpt lat="47.4793500" lon="9.5077750">
        <ele>-15.2</ele>
        <time>2022-06-09T09:15:58Z</time>
      </trkpt>
      <trkpt lat="47.4793350" lon="9.5077250">
        <ele>-15.4</ele>
        <time>2022-06-09T09:16:02Z</time>
      </trkpt>
      <trkpt lat="47.4792980" lon="9.5077780">
        <ele>-14.8</ele>
        <time>2022-06-09T09:16:06Z</time>
      </trkpt>
      <trkpt lat="47.4792360" lon="9.5078410">
        <ele>-14.6</ele>
        <time>2022-06-09T09:16:10Z</time>
      </trkpt>
      <trkpt lat="47.4791650" lon="9.5077810">
        <ele>-14.4</ele>
        <time>2022-06-09T09:16:14Z</time>
      </trkpt>
      <trkpt lat="47.4791150" lon="9.5076580">
        <ele>-13.6</ele>
        <time>2022-06-09T09:16:18Z</time>
      </trkpt>
      <trkpt lat="47.4790780" lon="9.5075060">
        <ele>-13.6</ele>
        <time>2022-06-09T09:16:22Z</time>
      </trkpt>
      <trkpt lat="47.4790600" lon="9.5073460">
        <ele>-13.6</ele>
        <time>2022-06-09T09:16:26Z</time>
      </trkpt>
      <trkpt lat="47.4790480" lon="9.5071780">
        <ele>-12.4</ele>
        <time>2022-06-09T09:16:30Z</time>
      </trkpt>
      <trkpt lat="47.4790300" lon="9.5070030">
        <ele>-12.6</ele>
        <time>2022-06-09T09:16:34Z</time>
      </trkpt>
      <trkpt lat="47.4790060" lon="9.5068080">
        <ele>-12.0</ele>
        <time>2022-06-09T09:16:38Z</time>
      </trkpt>
      <trkpt lat="47.4789860" lon="9.5066000">
        <ele>-12.8</ele>
        <time>2022-06-09T09:16:42Z</time>
      </trkpt>
      <trkpt lat="47.4789750" lon="9.5063800">
        <ele>-12.6</ele>
        <time>2022-06-09T09:16:46Z</time>
      </trkpt>
      <trkpt lat="47.4789530" lon="9.5061680">
        <ele>-12.4</ele>
        <time>2022-06-09T09:16:50Z</time>
      </trkpt>
      <trkpt lat="47.4789300" lon="9.5059500">
        <ele>-12.0</ele>
        <time>2022-06-09T09:16:54Z</time>
      </trkpt>
      <trkpt lat="47.4789000" lon="9.5057430">
        <ele>-11.8</ele>
        <time>2022-06-09T09:16:58Z</time>
      </trkpt>
      <trkpt lat="47.4788750" lon="9.5055300">
        <ele>-11.2</ele>
        <time>2022-06-09T09:17:02Z</time>
      </trkpt>
      <trkpt lat="47.4788300" lon="9.5053110">
        <ele>-11.0</ele>
        <time>2022-06-09T09:17:06Z</time>
      </trkpt>
      <trkpt lat="47.4787810" lon="9.5050800">
        <ele>-10.4</ele>
        <time>2022-06-09T09:17:10Z</time>
      </trkpt>
      <trkpt lat="47.4787150" lon="9.5048610">
        <ele>-10.4</ele>
        <time>2022-06-09T09:17:14Z</time>
      </trkpt>
      <trkpt lat="47.4786280" lon="9.5046650">
        <ele>-10.2</ele>
        <time>2022-06-09T09:17:18Z</time>
      </trkpt>
      <trkpt lat="47.4785110" lon="9.5045350">
        <ele>-9.4</ele>
        <time>2022-06-09T09:17:22Z</time>
      </trkpt>
      <trkpt lat="47.4784450" lon="9.5043430">
        <ele>-10.0</ele>
        <time>2022-06-09T09:17:26Z</time>
      </trkpt>
      <trkpt lat="47.4783960" lon="9.5041350">
        <ele>-9.0</ele>
        <time>2022-06-09T09:17:30Z</time>
      </trkpt>
      <trkpt lat="47.4783950" lon="9.5039050">
        <ele>-8.6</ele>
        <time>2022-06-09T09:17:34Z</time>
      </trkpt>
      <trkpt lat="47.4783800" lon="9.5036800">
        <ele>-8.4</ele>
        <time>2022-06-09T09:17:38Z</time>
      </trkpt>
      <trkpt lat="47.4783510" lon="9.5034730">
        <ele>-8.0</ele>
        <time>2022-06-09T09:17:42Z</time>
      </trkpt>
      <trkpt lat="47.4783600" lon="9.5033610">
        <ele>-7.4</ele>
        <time>2022-06-09T09:17:46Z</time>
      </trkpt>
      <trkpt lat="47.4783600" lon="9.5033610">
        <ele>-6.8</ele>
        <time>2022-06-09T09:17:50Z</time>
      </trkpt>
      <trkpt lat="47.4783600" lon="9.5033610">
        <ele>-6.8</ele>
        <time>2022-06-09T09:17:54Z</time>
      </trkpt>
      <trkpt lat="47.4783600" lon="9.5033610">
        <ele>-6.6</ele>
        <time>2022-06-09T09:17:58Z</time>
      </trkpt>
      <trkpt lat="47.4783600" lon="9.5033610">
        <ele>-7.0</ele>
        <time>2022-06-09T09:18:02Z</time>
      </trkpt>
      <trkpt lat="47.4783600" lon="9.5033610">
        <ele>-7.2</ele>
        <time>2022-06-09T09:18:06Z</time>
      </trkpt>
      <trkpt lat="47.4783600" lon="9.5033610">
        <ele>-7.0</ele>
        <time>2022-06-09T09:18:10Z</time>
      </trkpt>
      <trkpt lat="47.4783600" lon="9.5033610">
        <ele>-7.0</ele>
        <time>2022-06-09T09:18:14Z</time>
      </trkpt>
      <trkpt lat="47.4783600" lon="9.5033610">
        <ele>-7.2</ele>
        <time>2022-06-09T09:18:18Z</time>
      </trkpt>
      <trkpt lat="47.4783600" lon="9.5033610">
        <ele>-7.4</ele>
        <time>2022-06-09T09:18:22Z</time>
      </trkpt>
      <trkpt lat="47.4783600" lon="9.5033610">
        <ele>-7.0</ele>
        <time>2022-06-09T09:18:26Z</time>
      </trkpt>
      <trkpt lat="47.4783600" lon="9.5033610">
        <ele>-7.0</ele>
        <time>2022-06-09T09:18:30Z</time>
      </trkpt>
      <trkpt lat="47.4783580" lon="9.5033250">
        <ele>-7.4</ele>
        <time>2022-06-09T09:18:34Z</time>
      </trkpt>
      <trkpt lat="47.4783580" lon="9.5033250">
        <ele>-7.4</ele>
        <time>2022-06-09T09:18:38Z</time>
      </trkpt>
      <trkpt lat="47.4783580" lon="9.5033080">
        <ele>-7.4</ele>
        <time>2022-06-09T09:18:42Z</time>
      </trkpt>
      <trkpt lat="47.4783550" lon="9.5032160">
        <ele>-7.4</ele>
        <time>2022-06-09T09:18:46Z</time>
      </trkpt>
      <trkpt lat="47.4783510" lon="9.5030800">
        <ele>-7.6</ele>
        <time>2022-06-09T09:18:50Z</time>
      </trkpt>
      <trkpt lat="47.4783460" lon="9.5029430">
        <ele>-9.4</ele>
        <time>2022-06-09T09:18:54Z</time>
      </trkpt>
      <trkpt lat="47.4783450" lon="9.5028080">
        <ele>-9.4</ele>
        <time>2022-06-09T09:18:58Z</time>
      </trkpt>
      <trkpt lat="47.4783380" lon="9.5026830">
        <ele>-9.4</ele>
        <time>2022-06-09T09:19:02Z</time>
      </trkpt>
      <trkpt lat="47.4783250" lon="9.5025280">
        <ele>-9.2</ele>
        <time>2022-06-09T09:19:06Z</time>
      </trkpt>
      <trkpt lat="47.4783050" lon="9.5023760">
        <ele>-9.0</ele>
        <time>2022-06-09T09:19:10Z</time>
      </trkpt>
      <trkpt lat="47.4781960" lon="9.5022610">
        <ele>-9.2</ele>
        <time>2022-06-09T09:19:14Z</time>
      </trkpt>
      <trkpt lat="47.4780950" lon="9.5022680">
        <ele>-8.6</ele>
        <time>2022-06-09T09:19:18Z</time>
      </trkpt>
      <trkpt lat="47.4780350" lon="9.5022310">
        <ele>-9.0</ele>
        <time>2022-06-09T09:19:22Z</time>
      </trkpt>
      <trkpt lat="47.4780110" lon="9.5020960">
        <ele>-9.4</ele>
        <time>2022-06-09T09:19:26Z</time>
      </trkpt>
      <trkpt lat="47.4779910" lon="9.5019210">
        <ele>-9.6</ele>
        <time>2022-06-09T09:19:30Z</time>
      </trkpt>
      <trkpt lat="47.4779630" lon="9.5017330">
        <ele>-9.8</ele>
        <time>2022-06-09T09:19:34Z</time>
      </trkpt>
      <trkpt lat="47.4779360" lon="9.5015260">
        <ele>-9.8</ele>
        <time>2022-06-09T09:19:38Z</time>
      </trkpt>
      <trkpt lat="47.4779200" lon="9.5013160">
        <ele>-9.8</ele>
        <time>2022-06-09T09:19:42Z</time>
      </trkpt>
      <trkpt lat="47.4779150" lon="9.5010850">
        <ele>-9.4</ele>
        <time>2022-06-09T09:19:46Z</time>
      </trkpt>
      <trkpt lat="47.4778960" lon="9.5008400">
        <ele>-9.4</ele>
        <time>2022-06-09T09:19:50Z</time>
      </trkpt>
      <trkpt lat="47.4778760" lon="9.5005880">
        <ele>-8.8</ele>
        <time>2022-06-09T09:19:54Z</time>
      </trkpt>
      <trkpt lat="47.4778600" lon="9.5003480">
        <ele>-8.0</ele>
        <time>2022-06-09T09:19:58Z</time>
      </trkpt>
      <trkpt lat="47.4778350" lon="9.5000900">
        <ele>-7.4</ele>
        <time>2022-06-09T09:20:02Z</time>
      </trkpt>
      <trkpt lat="47.4778200" lon="9.4998200">
        <ele>-6.8</ele>
        <time>2022-06-09T09:20:06Z</time>
      </trkpt>
      <trkpt lat="47.4777930" lon="9.4995710">
        <ele>-6.0</ele>
        <time>2022-06-09T09:20:10Z</time>
      </trkpt>
      <trkpt lat="47.4777700" lon="9.4993310">
        <ele>-6.0</ele>
        <time>2022-06-09T09:20:14Z</time>
      </trkpt>
      <trkpt lat="47.4777810" lon="9.4990730">
        <ele>-6.0</ele>
        <time>2022-06-09T09:20:18Z</time>
      </trkpt>
      <trkpt lat="47.4777980" lon="9.4988300">
        <ele>-6.2</ele>
        <time>2022-06-09T09:20:22Z</time>
      </trkpt>
      <trkpt lat="47.4777500" lon="9.4986300">
        <ele>-5.8</ele>
        <time>2022-06-09T09:20:26Z</time>
      </trkpt>
      <trkpt lat="47.4777600" lon="9.4983980">
        <ele>-5.4</ele>
        <time>2022-06-09T09:20:30Z</time>
      </trkpt>
      <trkpt lat="47.4777880" lon="9.4981700">
        <ele>-4.4</ele>
        <time>2022-06-09T09:20:34Z</time>
      </trkpt>
      <trkpt lat="47.4778530" lon="9.4979310">
        <ele>-3.8</ele>
        <time>2022-06-09T09:20:38Z</time>
      </trkpt>
      <trkpt lat="47.4779030" lon="9.4976980">
        <ele>-2.8</ele>
        <time>2022-06-09T09:20:42Z</time>
      </trkpt>
      <trkpt lat="47.4779810" lon="9.4974500">
        <ele>-2.4</ele>
        <time>2022-06-09T09:20:46Z</time>
      </trkpt>
      <trkpt lat="47.4780530" lon="9.4971910">
        <ele>-1.6</ele>
        <time>2022-06-09T09:20:50Z</time>
      </trkpt>
      <trkpt lat="47.4781310" lon="9.4969250">
        <ele>-1.0</ele>
        <time>2022-06-09T09:20:54Z</time>
      </trkpt>
      <trkpt lat="47.4782000" lon="9.4966580">
        <ele>-0.2</ele>
        <time>2022-06-09T09:20:58Z</time>
      </trkpt>
      <trkpt lat="47.4782650" lon="9.4963850">
        <ele>0.2</ele>
        <time>2022-06-09T09:21:02Z</time>
      </trkpt>
      <trkpt lat="47.4783310" lon="9.4961150">
        <ele>1.0</ele>
        <time>2022-06-09T09:21:06Z</time>
      </trkpt>
      <trkpt lat="47.4783580" lon="9.4958610">
        <ele>2.2</ele>
        <time>2022-06-09T09:21:10Z</time>
      </trkpt>
      <trkpt lat="47.4783960" lon="9.4955950">
        <ele>3.0</ele>
        <time>2022-06-09T09:21:14Z</time>
      </trkpt>
      <trkpt lat="47.4784460" lon="9.4952960">
        <ele>-21.4</ele>
        <time>2022-06-09T09:21:18Z</time>
      </trkpt>
      <trkpt lat="47.4785080" lon="9.4950010">
        <ele>-19.8</ele>
        <time>2022-06-09T09:21:22Z</time>
      </trkpt>
      <trkpt lat="47.4785560" lon="9.4947380">
        <ele>-18.4</ele>
        <time>2022-06-09T09:21:26Z</time>
      </trkpt>
      <trkpt lat="47.4785930" lon="9.4945030">
        <ele>-18.0</ele>
        <time>2022-06-09T09:21:30Z</time>
      </trkpt>
      <trkpt lat="47.4786200" lon="9.4942480">
        <ele>-17.4</ele>
        <time>2022-06-09T09:21:34Z</time>
      </trkpt>
      <trkpt lat="47.4786330" lon="9.4939980">
        <ele>-16.8</ele>
        <time>2022-06-09T09:21:38Z</time>
      </trkpt>
      <trkpt lat="47.4786450" lon="9.4937460">
        <ele>-16.4</ele>
        <time>2022-06-09T09:21:42Z</time>
      </trkpt>
      <trkpt lat="47.4786780" lon="9.4935010">
        <ele>-16.0</ele>
        <time>2022-06-09T09:21:46Z</time>
      </trkpt>
      <trkpt lat="47.4787230" lon="9.4932710">
        <ele>-15.6</ele>
        <time>2022-06-09T09:21:50Z</time>
      </trkpt>
      <trkpt lat="47.4787700" lon="9.4930600">
        <ele>-16.0</ele>
        <time>2022-06-09T09:21:54Z</time>
      </trkpt>
      <trkpt lat="47.4787780" lon="9.4928860">
        <ele>-16.0</ele>
        <time>2022-06-09T09:21:58Z</time>
      </trkpt>
      <trkpt lat="47.4787850" lon="9.4927510">
        <ele>-16.0</ele>
        <time>2022-06-09T09:22:02Z</time>
      </trkpt>
      <trkpt lat="47.4786980" lon="9.4927230">
        <ele>-15.6</ele>
        <time>2022-06-09T09:22:06Z</time>
      </trkpt>
      <trkpt lat="47.4786110" lon="9.4926850">
        <ele>-15.6</ele>
        <time>2022-06-09T09:22:10Z</time>
      </trkpt>
      <trkpt lat="47.4786110" lon="9.4926850">
        <ele>-15.4</ele>
        <time>2022-06-09T09:22:14Z</time>
      </trkpt>
      <trkpt lat="47.4786110" lon="9.4926850">
        <ele>-14.6</ele>
        <time>2022-06-09T09:22:18Z</time>
      </trkpt>
      <trkpt lat="47.4786110" lon="9.4926850">
        <ele>-14.6</ele>
        <time>2022-06-09T09:22:22Z</time>
      </trkpt>
      <trkpt lat="47.4786110" lon="9.4926850">
        <ele>-14.4</ele>
        <time>2022-06-09T09:22:26Z</time>
      </trkpt>
      <trkpt lat="47.4785800" lon="9.4926910">
        <ele>-14.6</ele>
        <time>2022-06-09T09:22:30Z</time>
      </trkpt>
      <trkpt lat="47.4785800" lon="9.4926910">
        <ele>-14.2</ele>
        <time>2022-06-09T09:22:34Z</time>
      </trkpt>
      <trkpt lat="47.4785750" lon="9.4926880">
        <ele>-14.2</ele>
        <time>2022-06-09T09:22:38Z</time>
      </trkpt>
      <trkpt lat="47.4785250" lon="9.4926260">
        <ele>-13.8</ele>
        <time>2022-06-09T09:22:42Z</time>
      </trkpt>
      <trkpt lat="47.4784510" lon="9.4925200">
        <ele>-14.0</ele>
        <time>2022-06-09T09:22:46Z</time>
      </trkpt>
      <trkpt lat="47.4784150" lon="9.4924330">
        <ele>-13.6</ele>
        <time>2022-06-09T09:22:50Z</time>
      </trkpt>
      <trkpt lat="47.4783760" lon="9.4923830">
        <ele>-13.4</ele>
        <time>2022-06-09T09:22:54Z</time>
      </trkpt>
      <trkpt lat="47.4783160" lon="9.4923480">
        <ele>-13.4</ele>
        <time>2022-06-09T09:22:58Z</time>
      </trkpt>
      <trkpt lat="47.4783580" lon="9.4922550">
        <ele>-13.4</ele>
        <time>2022-06-09T09:23:02Z</time>
      </trkpt>
      <trkpt lat="47.4784400" lon="9.4920760">
        <ele>-13.4</ele>
        <time>2022-06-09T09:23:06Z</time>
      </trkpt>
      <trkpt lat="47.4784900" lon="9.4918860">
        <ele>-13.4</ele>
        <time>2022-06-09T09:23:10Z</time>
      </trkpt>
      <trkpt lat="47.4785150" lon="9.4918230">
        <ele>-13.2</ele>
        <time>2022-06-09T09:23:14Z</time>
      </trkpt>
      <trkpt lat="47.4785430" lon="9.4918050">
        <ele>-13.0</ele>
        <time>2022-06-09T09:23:18Z</time>
      </trkpt>
      <trkpt lat="47.4785860" lon="9.4916500">
        <ele>-12.6</ele>
        <time>2022-06-09T09:23:22Z</time>
      </trkpt>
      <trkpt lat="47.4786310" lon="9.4914900">
        <ele>-13.0</ele>
        <time>2022-06-09T09:23:26Z</time>
      </trkpt>
      <trkpt lat="47.4787160" lon="9.4913150">
        <ele>-12.8</ele>
        <time>2022-06-09T09:23:30Z</time>
      </trkpt>
      <trkpt lat="47.4787960" lon="9.4911200">
        <ele>-12.4</ele>
        <time>2022-06-09T09:23:34Z</time>
      </trkpt>
      <trkpt lat="47.4788850" lon="9.4909700">
        <ele>-12.0</ele>
        <time>2022-06-09T09:23:38Z</time>
      </trkpt>
      <trkpt lat="47.4789000" lon="9.4908060">
        <ele>-12.0</ele>
        <time>2022-06-09T09:23:42Z</time>
      </trkpt>
      <trkpt lat="47.4788710" lon="9.4906480">
        <ele>-11.8</ele>
        <time>2022-06-09T09:23:46Z</time>
      </trkpt>
      <trkpt lat="47.4789060" lon="9.4905080">
        <ele>-12.0</ele>
        <time>2022-06-09T09:23:50Z</time>
      </trkpt>
      <trkpt lat="47.4789660" lon="9.4903200">
        <ele>-12.6</ele>
        <time>2022-06-09T09:23:54Z</time>
      </trkpt>
      <trkpt lat="47.4789950" lon="9.4901260">
        <ele>-12.8</ele>
        <time>2022-06-09T09:23:58Z</time>
      </trkpt>
      <trkpt lat="47.4790160" lon="9.4899330">
        <ele>-12.8</ele>
        <time>2022-06-09T09:24:02Z</time>
      </trkpt>
      <trkpt lat="47.4790330" lon="9.4897500">
        <ele>-12.8</ele>
        <time>2022-06-09T09:24:06Z</time>
      </trkpt>
      <trkpt lat="47.4790330" lon="9.4895600">
        <ele>-13.0</ele>
        <time>2022-06-09T09:24:10Z</time>
      </trkpt>
      <trkpt lat="47.4790660" lon="9.4893730">
        <ele>-12.6</ele>
        <time>2022-06-09T09:24:14Z</time>
      </trkpt>
      <trkpt lat="47.4791260" lon="9.4891850">
        <ele>-13.0</ele>
        <time>2022-06-09T09:24:18Z</time>
      </trkpt>
      <trkpt lat="47.4791960" lon="9.4890130">
        <ele>-13.2</ele>
        <time>2022-06-09T09:24:22Z</time>
      </trkpt>
      <trkpt lat="47.4792380" lon="9.4888200">
        <ele>-13.6</ele>
        <time>2022-06-09T09:24:26Z</time>
      </trkpt>
      <trkpt lat="47.4792780" lon="9.4885880">
        <ele>-13.4</ele>
        <time>2022-06-09T09:24:30Z</time>
      </trkpt>
      <trkpt lat="47.4793410" lon="9.4883510">
        <ele>-13.2</ele>
        <time>2022-06-09T09:24:34Z</time>
      </trkpt>
      <trkpt lat="47.4794100" lon="9.4881260">
        <ele>-12.6</ele>
        <time>2022-06-09T09:24:38Z</time>
      </trkpt>
      <trkpt lat="47.4794610" lon="9.4878660">
        <ele>-12.4</ele>
        <time>2022-06-09T09:24:42Z</time>
      </trkpt>
      <trkpt lat="47.4794950" lon="9.4875800">
        <ele>-13.0</ele>
        <time>2022-06-09T09:24:46Z</time>
      </trkpt>
      <trkpt lat="47.4795460" lon="9.4873010">
        <ele>-12.6</ele>
        <time>2022-06-09T09:24:50Z</time>
      </trkpt>
      <trkpt lat="47.4795660" lon="9.4870130">
        <ele>-12.6</ele>
        <time>2022-06-09T09:24:54Z</time>
      </trkpt>
      <trkpt lat="47.4796010" lon="9.4867400">
        <ele>-12.6</ele>
        <time>2022-06-09T09:24:58Z</time>
      </trkpt>
      <trkpt lat="47.4796410" lon="9.4864650">
        <ele>-12.6</ele>
        <time>2022-06-09T09:25:02Z</time>
      </trkpt>
      <trkpt lat="47.4796910" lon="9.4861910">
        <ele>-12.6</ele>
        <time>2022-06-09T09:25:06Z</time>
      </trkpt>
      <trkpt lat="47.4797480" lon="9.4859150">
        <ele>-12.6</ele>
        <time>2022-06-09T09:25:10Z</time>
      </trkpt>
      <trkpt lat="47.4797960" lon="9.4856600">
        <ele>-12.4</ele>
        <time>2022-06-09T09:25:14Z</time>
      </trkpt>
      <trkpt lat="47.4798480" lon="9.4854080">
        <ele>-11.8</ele>
        <time>2022-06-09T09:25:18Z</time>
      </trkpt>
      <trkpt lat="47.4798980" lon="9.4851850">
        <ele>-12.8</ele>
        <time>2022-06-09T09:25:22Z</time>
      </trkpt>
      <trkpt lat="47.4799560" lon="9.4849560">
        <ele>-13.0</ele>
        <time>2022-06-09T09:25:26Z</time>
      </trkpt>
      <trkpt lat="47.4800210" lon="9.4847060">
        <ele>-13.4</ele>
        <time>2022-06-09T09:25:30Z</time>
      </trkpt>
      <trkpt lat="47.4800860" lon="9.4844500">
        <ele>-13.4</ele>
        <time>2022-06-09T09:25:34Z</time>
      </trkpt>
      <trkpt lat="47.4801510" lon="9.4841810">
        <ele>-14.0</ele>
        <time>2022-06-09T09:25:38Z</time>
      </trkpt>
      <trkpt lat="47.4802210" lon="9.4839160">
        <ele>-14.0</ele>
        <time>2022-06-09T09:25:42Z</time>
      </trkpt>
      <trkpt lat="47.4802900" lon="9.4836500">
        <ele>-14.2</ele>
        <time>2022-06-09T09:25:46Z</time>
      </trkpt>
      <trkpt lat="47.4803610" lon="9.4833850">
        <ele>-14.6</ele>
        <time>2022-06-09T09:25:50Z</time>
      </trkpt>
      <trkpt lat="47.4804450" lon="9.4831300">
        <ele>-14.4</ele>
        <time>2022-06-09T09:25:54Z</time>
      </trkpt>
      <trkpt lat="47.4805200" lon="9.4828730">
        <ele>-15.4</ele>
        <time>2022-06-09T09:25:58Z</time>
      </trkpt>
      <trkpt lat="47.4805980" lon="9.4826430">
        <ele>-15.4</ele>
        <time>2022-06-09T09:26:02Z</time>
      </trkpt>
      <trkpt lat="47.4806750" lon="9.4824250">
        <ele>-15.8</ele>
        <time>2022-06-09T09:26:06Z</time>
      </trkpt>
      <trkpt lat="47.4807580" lon="9.4821860">
        <ele>-16.6</ele>
        <time>2022-06-09T09:26:10Z</time>
      </trkpt>
      <trkpt lat="47.4808510" lon="9.4819460">
        <ele>-16.8</ele>
        <time>2022-06-09T09:26:14Z</time>
      </trkpt>
      <trkpt lat="47.4809460" lon="9.4816950">
        <ele>-16.6</ele>
        <time>2022-06-09T09:26:18Z</time>
      </trkpt>
      <trkpt lat="47.4810510" lon="9.4814460">
        <ele>-17.0</ele>
        <time>2022-06-09T09:26:22Z</time>
      </trkpt>
      <trkpt lat="47.4811660" lon="9.4812010">
        <ele>-17.2</ele>
        <time>2022-06-09T09:26:26Z</time>
      </trkpt>
      <trkpt lat="47.4812810" lon="9.4809500">
        <ele>-17.4</ele>
        <time>2022-06-09T09:26:30Z</time>
      </trkpt>
      <trkpt lat="47.4814060" lon="9.4807010">
        <ele>-17.8</ele>
        <time>2022-06-09T09:26:34Z</time>
      </trkpt>
      <trkpt lat="47.4815400" lon="9.4804630">
        <ele>-18.0</ele>
        <time>2022-06-09T09:26:38Z</time>
      </trkpt>
      <trkpt lat="47.4816800" lon="9.4802330">
        <ele>-17.8</ele>
        <time>2022-06-09T09:26:42Z</time>
      </trkpt>
      <trkpt lat="47.4818210" lon="9.4800100">
        <ele>-18.2</ele>
        <time>2022-06-09T09:26:46Z</time>
      </trkpt>
      <trkpt lat="47.4819700" lon="9.4798000">
        <ele>-18.6</ele>
        <time>2022-06-09T09:26:50Z</time>
      </trkpt>
      <trkpt lat="47.4821230" lon="9.4796010">
        <ele>-19.0</ele>
        <time>2022-06-09T09:26:54Z</time>
      </trkpt>
      <trkpt lat="47.4822750" lon="9.4794030">
        <ele>-18.6</ele>
        <time>2022-06-09T09:26:58Z</time>
      </trkpt>
      <trkpt lat="47.4824260" lon="9.4792030">
        <ele>-19.0</ele>
        <time>2022-06-09T09:27:02Z</time>
      </trkpt>
      <trkpt lat="47.4825780" lon="9.4790130">
        <ele>-19.0</ele>
        <time>2022-06-09T09:27:06Z</time>
      </trkpt>
      <trkpt lat="47.4827300" lon="9.4788380">
        <ele>-19.6</ele>
        <time>2022-06-09T09:27:10Z</time>
      </trkpt>
      <trkpt lat="47.4828760" lon="9.4786680">
        <ele>-19.8</ele>
        <time>2022-06-09T09:27:14Z</time>
      </trkpt>
      <trkpt lat="47.4830210" lon="9.4784950">
        <ele>-20.2</ele>
        <time>2022-06-09T09:27:18Z</time>
      </trkpt>
      <trkpt lat="47.4831650" lon="9.4783260">
        <ele>-20.8</ele>
        <time>2022-06-09T09:27:22Z</time>
      </trkpt>
      <trkpt lat="47.4833200" lon="9.4781560">
        <ele>-22.0</ele>
        <time>2022-06-09T09:27:26Z</time>
      </trkpt>
      <trkpt lat="47.4834760" lon="9.4780100">
        <ele>-22.2</ele>
        <time>2022-06-09T09:27:30Z</time>
      </trkpt>
      <trkpt lat="47.4836080" lon="9.4778650">
        <ele>-21.2</ele>
        <time>2022-06-09T09:27:34Z</time>
      </trkpt>
      <trkpt lat="47.4837460" lon="9.4777280">
        <ele>-21.2</ele>
        <time>2022-06-09T09:27:38Z</time>
      </trkpt>
      <trkpt lat="47.4838930" lon="9.4775960">
        <ele>-20.8</ele>
        <time>2022-06-09T09:27:42Z</time>
      </trkpt>
      <trkpt lat="47.4840460" lon="9.4774410">
        <ele>-20.6</ele>
        <time>2022-06-09T09:27:46Z</time>
      </trkpt>
      <trkpt lat="47.4841950" lon="9.4772850">
        <ele>-20.8</ele>
        <time>2022-06-09T09:27:50Z</time>
      </trkpt>
      <trkpt lat="47.4843500" lon="9.4771430">
        <ele>-21.2</ele>
        <time>2022-06-09T09:27:54Z</time>
      </trkpt>
      <trkpt lat="47.4845100" lon="9.4770130">
        <ele>-21.4</ele>
        <time>2022-06-09T09:27:58Z</time>
      </trkpt>
      <trkpt lat="47.4846660" lon="9.4768950">
        <ele>-21.6</ele>
        <time>2022-06-09T09:28:02Z</time>
      </trkpt>
      <trkpt lat="47.4848310" lon="9.4768680">
        <ele>-21.6</ele>
        <time>2022-06-09T09:28:06Z</time>
      </trkpt>
      <trkpt lat="47.4850080" lon="9.4768660">
        <ele>-21.8</ele>
        <time>2022-06-09T09:28:10Z</time>
      </trkpt>
      <trkpt lat="47.4851860" lon="9.4768530">
        <ele>-21.4</ele>
        <time>2022-06-09T09:28:14Z</time>
      </trkpt>
      <trkpt lat="47.4853730" lon="9.4768430">
        <ele>-22.0</ele>
        <time>2022-06-09T09:28:18Z</time>
      </trkpt>
      <trkpt lat="47.4855550" lon="9.4767980">
        <ele>-22.8</ele>
        <time>2022-06-09T09:28:22Z</time>
      </trkpt>
      <trkpt lat="47.4857330" lon="9.4767550">
        <ele>-23.2</ele>
        <time>2022-06-09T09:28:26Z</time>
      </trkpt>
      <trkpt lat="47.4858950" lon="9.4766410">
        <ele>-23.8</ele>
        <time>2022-06-09T09:28:30Z</time>
      </trkpt>
      <trkpt lat="47.4860530" lon="9.4764910">
        <ele>-24.2</ele>
        <time>2022-06-09T09:28:34Z</time>
      </trkpt>
      <trkpt lat="47.4862080" lon="9.4763500">
        <ele>-23.8</ele>
        <time>2022-06-09T09:28:38Z</time>
      </trkpt>
      <trkpt lat="47.4863530" lon="9.4762200">
        <ele>-23.8</ele>
        <time>2022-06-09T09:28:42Z</time>
      </trkpt>
      <trkpt lat="47.4865060" lon="9.4760800">
        <ele>-23.8</ele>
        <time>2022-06-09T09:28:46Z</time>
      </trkpt>
      <trkpt lat="47.4866660" lon="9.4759230">
        <ele>-23.2</ele>
        <time>2022-06-09T09:28:50Z</time>
      </trkpt>
      <trkpt lat="47.4868310" lon="9.4757580">
        <ele>-22.8</ele>
        <time>2022-06-09T09:28:54Z</time>
      </trkpt>
      <trkpt lat="47.4870000" lon="9.4755830">
        <ele>-23.2</ele>
        <time>2022-06-09T09:28:58Z</time>
      </trkpt>
      <trkpt lat="47.4871700" lon="9.4754100">
        <ele>-22.8</ele>
        <time>2022-06-09T09:29:02Z</time>
      </trkpt>
      <trkpt lat="47.4873330" lon="9.4752260">
        <ele>-22.8</ele>
        <time>2022-06-09T09:29:06Z</time>
      </trkpt>
      <trkpt lat="47.4874950" lon="9.4750350">
        <ele>-23.2</ele>
        <time>2022-06-09T09:29:10Z</time>
      </trkpt>
      <trkpt lat="47.4876610" lon="9.4748700">
        <ele>-23.8</ele>
        <time>2022-06-09T09:29:14Z</time>
      </trkpt>
      <trkpt lat="47.4878260" lon="9.4747050">
        <ele>-23.4</ele>
        <time>2022-06-09T09:29:18Z</time>
      </trkpt>
      <trkpt lat="47.4879900" lon="9.4745430">
        <ele>-23.6</ele>
        <time>2022-06-09T09:29:22Z</time>
      </trkpt>
      <trkpt lat="47.4881510" lon="9.4744000">
        <ele>-23.2</ele>
        <time>2022-06-09T09:29:26Z</time>
      </trkpt>
      <trkpt lat="47.4883100" lon="9.4742630">
        <ele>-22.4</ele>
        <time>2022-06-09T09:29:30Z</time>
      </trkpt>
      <trkpt lat="47.4884700" lon="9.4741180">
        <ele>-22.6</ele>
        <time>2022-06-09T09:29:34Z</time>
      </trkpt>
      <trkpt lat="47.4886330" lon="9.4739780">
        <ele>-22.0</ele>
        <time>2022-06-09T09:29:38Z</time>
      </trkpt>
      <trkpt lat="47.4888000" lon="9.4738110">
        <ele>-22.0</ele>
        <time>2022-06-09T09:29:42Z</time>
      </trkpt>
      <trkpt lat="47.4889860" lon="9.4736560">
        <ele>-22.0</ele>
        <time>2022-06-09T09:29:46Z</time>
      </trkpt>
      <trkpt lat="47.4891860" lon="9.4735000">
        <ele>-21.8</ele>
        <time>2022-06-09T09:29:50Z</time>
      </trkpt>
      <trkpt lat="47.4893980" lon="9.4733360">
        <ele>-21.4</ele>
        <time>2022-06-09T09:29:54Z</time>
      </trkpt>
      <trkpt lat="47.4896080" lon="9.4731450">
        <ele>-21.0</ele>
        <time>2022-06-09T09:29:58Z</time>
      </trkpt>
      <trkpt lat="47.4898110" lon="9.4729730">
        <ele>-20.6</ele>
        <time>2022-06-09T09:30:02Z</time>
      </trkpt>
      <trkpt lat="47.4900060" lon="9.4728010">
        <ele>-20.6</ele>
        <time>2022-06-09T09:30:06Z</time>
      </trkpt>
      <trkpt lat="47.4902060" lon="9.4726080">
        <ele>-20.6</ele>
        <time>2022-06-09T09:30:10Z</time>
      </trkpt>
      <trkpt lat="47.4904100" lon="9.4724200">
        <ele>-19.8</ele>
        <time>2022-06-09T09:30:14Z</time>
      </trkpt>
      <trkpt lat="47.4906130" lon="9.4722480">
        <ele>-20.0</ele>
        <time>2022-06-09T09:30:18Z</time>
      </trkpt>
      <trkpt lat="47.4908160" lon="9.4720800">
        <ele>-20.2</ele>
        <time>2022-06-09T09:30:22Z</time>
      </trkpt>
      <trkpt lat="47.4910150" lon="9.4719110">
        <ele>-20.4</ele>
        <time>2022-06-09T09:30:26Z</time>
      </trkpt>
      <trkpt lat="47.4912160" lon="9.4717250">
        <ele>-20.8</ele>
        <time>2022-06-09T09:30:30Z</time>
      </trkpt>
      <trkpt lat="47.4914130" lon="9.4715510">
        <ele>-20.6</ele>
        <time>2022-06-09T09:30:34Z</time>
      </trkpt>
      <trkpt lat="47.4916080" lon="9.4713710">
        <ele>-21.0</ele>
        <time>2022-06-09T09:30:38Z</time>
      </trkpt>
      <trkpt lat="47.4918110" lon="9.4712060">
        <ele>-21.2</ele>
        <time>2022-06-09T09:30:42Z</time>
      </trkpt>
      <trkpt lat="47.4920130" lon="9.4710330">
        <ele>-21.0</ele>
        <time>2022-06-09T09:30:46Z</time>
      </trkpt>
      <trkpt lat="47.4922130" lon="9.4708510">
        <ele>-21.2</ele>
        <time>2022-06-09T09:30:50Z</time>
      </trkpt>
      <trkpt lat="47.4924050" lon="9.4706700">
        <ele>-21.6</ele>
        <time>2022-06-09T09:30:54Z</time>
      </trkpt>
      <trkpt lat="47.4925910" lon="9.4705050">
        <ele>-21.4</ele>
        <time>2022-06-09T09:30:58Z</time>
      </trkpt>
      <trkpt lat="47.4927730" lon="9.4703410">
        <ele>-22.4</ele>
        <time>2022-06-09T09:31:02Z</time>
      </trkpt>
      <trkpt lat="47.4929480" lon="9.4701560">
        <ele>-22.6</ele>
        <time>2022-06-09T09:31:06Z</time>
      </trkpt>
      <trkpt lat="47.4931150" lon="9.4699410">
        <ele>-22.6</ele>
        <time>2022-06-09T09:31:10Z</time>
      </trkpt>
      <trkpt lat="47.4932830" lon="9.4697310">
        <ele>-22.8</ele>
        <time>2022-06-09T09:31:14Z</time>
      </trkpt>
      <trkpt lat="47.4934480" lon="9.4695280">
        <ele>-22.8</ele>
        <time>2022-06-09T09:31:18Z</time>
      </trkpt>
      <trkpt lat="47.4936060" lon="9.4693110">
        <ele>-22.2</ele>
        <time>2022-06-09T09:31:22Z</time>
      </trkpt>
      <trkpt lat="47.4937550" lon="9.4690680">
        <ele>-22.2</ele>
        <time>2022-06-09T09:31:26Z</time>
      </trkpt>
      <trkpt lat="47.4939200" lon="9.4688280">
        <ele>-22.0</ele>
        <time>2022-06-09T09:31:30Z</time>
      </trkpt>
      <trkpt lat="47.4940810" lon="9.4686060">
        <ele>-21.6</ele>
        <time>2022-06-09T09:31:34Z</time>
      </trkpt>
      <trkpt lat="47.4942480" lon="9.4683980">
        <ele>-21.8</ele>
        <time>2022-06-09T09:31:38Z</time>
      </trkpt>
      <trkpt lat="47.4944050" lon="9.4681900">
        <ele>-21.0</ele>
        <time>2022-06-09T09:31:42Z</time>
      </trkpt>
      <trkpt lat="47.4945580" lon="9.4679660">
        <ele>-20.8</ele>
        <time>2022-06-09T09:31:46Z</time>
      </trkpt>
      <trkpt lat="47.4946850" lon="9.4677130">
        <ele>-20.6</ele>
        <time>2022-06-09T09:31:50Z</time>
      </trkpt>
      <trkpt lat="47.4947880" lon="9.4674350">
        <ele>-20.6</ele>
        <time>2022-06-09T09:31:54Z</time>
      </trkpt>
      <trkpt lat="47.4948680" lon="9.4671410">
        <ele>-20.6</ele>
        <time>2022-06-09T09:31:58Z</time>
      </trkpt>
      <trkpt lat="47.4949530" lon="9.4668400">
        <ele>-20.6</ele>
        <time>2022-06-09T09:32:02Z</time>
      </trkpt>
      <trkpt lat="47.4950330" lon="9.4665410">
        <ele>-20.0</ele>
        <time>2022-06-09T09:32:06Z</time>
      </trkpt>
      <trkpt lat="47.4951080" lon="9.4662350">
        <ele>-19.2</ele>
        <time>2022-06-09T09:32:10Z</time>
      </trkpt>
      <trkpt lat="47.4951830" lon="9.4659360">
        <ele>-18.8</ele>
        <time>2022-06-09T09:32:14Z</time>
      </trkpt>
      <trkpt lat="47.4952610" lon="9.4656410">
        <ele>-18.8</ele>
        <time>2022-06-09T09:32:18Z</time>
      </trkpt>
      <trkpt lat="47.4953430" lon="9.4653480">
        <ele>-18.6</ele>
        <time>2022-06-09T09:32:22Z</time>
      </trkpt>
      <trkpt lat="47.4954200" lon="9.4650830">
        <ele>-18.8</ele>
        <time>2022-06-09T09:32:26Z</time>
      </trkpt>
      <trkpt lat="47.4954880" lon="9.4648150">
        <ele>-18.0</ele>
        <time>2022-06-09T09:32:30Z</time>
      </trkpt>
      <trkpt lat="47.4955450" lon="9.4645400">
        <ele>-18.0</ele>
        <time>2022-06-09T09:32:34Z</time>
      </trkpt>
      <trkpt lat="47.4956130" lon="9.4642650">
        <ele>-18.4</ele>
        <time>2022-06-09T09:32:38Z</time>
      </trkpt>
      <trkpt lat="47.4956750" lon="9.4639710">
        <ele>-18.0</ele>
        <time>2022-06-09T09:32:42Z</time>
      </trkpt>
      <trkpt lat="47.4957260" lon="9.4636850">
        <ele>-18.0</ele>
        <time>2022-06-09T09:32:46Z</time>
      </trkpt>
      <trkpt lat="47.4957900" lon="9.4634300">
        <ele>-18.0</ele>
        <time>2022-06-09T09:32:50Z</time>
      </trkpt>
      <trkpt lat="47.4958280" lon="9.4631760">
        <ele>-17.8</ele>
        <time>2022-06-09T09:32:54Z</time>
      </trkpt>
      <trkpt lat="47.4958630" lon="9.4629530">
        <ele>-18.0</ele>
        <time>2022-06-09T09:32:58Z</time>
      </trkpt>
      <trkpt lat="47.4958910" lon="9.4627510">
        <ele>-17.4</ele>
        <time>2022-06-09T09:33:02Z</time>
      </trkpt>
      <trkpt lat="47.4959230" lon="9.4626480">
        <ele>-17.8</ele>
        <time>2022-06-09T09:33:06Z</time>
      </trkpt>
      <trkpt lat="47.4959230" lon="9.4626480">
        <ele>-17.6</ele>
        <time>2022-06-09T09:33:10Z</time>
      </trkpt>
      <trkpt lat="47.4959280" lon="9.4626110">
        <ele>-17.2</ele>
        <time>2022-06-09T09:33:14Z</time>
      </trkpt>
      <trkpt lat="47.4959280" lon="9.4626110">
        <ele>-17.4</ele>
        <time>2022-06-09T09:33:18Z</time>
      </trkpt>
      <trkpt lat="47.4959280" lon="9.4626110">
        <ele>-17.6</ele>
        <time>2022-06-09T09:33:22Z</time>
      </trkpt>
      <trkpt lat="47.4959280" lon="9.4626110">
        <ele>-17.6</ele>
        <time>2022-06-09T09:33:26Z</time>
      </trkpt>
      <trkpt lat="47.4959030" lon="9.4625530">
        <ele>-18.4</ele>
        <time>2022-06-09T09:33:30Z</time>
      </trkpt>
      <trkpt lat="47.4958930" lon="9.4625780">
        <ele>-19.0</ele>
        <time>2022-06-09T09:33:34Z</time>
      </trkpt>
      <trkpt lat="47.4958930" lon="9.4625880">
        <ele>-19.2</ele>
        <time>2022-06-09T09:33:38Z</time>
      </trkpt>
      <trkpt lat="47.4958930" lon="9.4625880">
        <ele>-18.0</ele>
        <time>2022-06-09T09:33:42Z</time>
      </trkpt>
      <trkpt lat="47.4958930" lon="9.4625880">
        <ele>-18.4</ele>
        <time>2022-06-09T09:33:46Z</time>
      </trkpt>
      <trkpt lat="47.4958930" lon="9.4625880">
        <ele>-18.6</ele>
        <time>2022-06-09T09:33:50Z</time>
      </trkpt>
      <trkpt lat="47.4958930" lon="9.4625880">
        <ele>-19.0</ele>
        <time>2022-06-09T09:33:54Z</time>
      </trkpt>
      <trkpt lat="47.4958930" lon="9.4625880">
        <ele>-19.0</ele>
        <time>2022-06-09T09:33:58Z</time>
      </trkpt>
      <trkpt lat="47.4958930" lon="9.4625880">
        <ele>-19.0</ele>
        <time>2022-06-09T09:34:02Z</time>
      </trkpt>
      <trkpt lat="47.4958930" lon="9.4625880">
        <ele>-19.4</ele>
        <time>2022-06-09T09:34:06Z</time>
      </trkpt>
      <trkpt lat="47.4958930" lon="9.4625880">
        <ele>-19.4</ele>
        <time>2022-06-09T09:34:10Z</time>
      </trkpt>
      <trkpt lat="47.4958930" lon="9.4625880">
        <ele>-19.0</ele>
        <time>2022-06-09T09:34:14Z</time>
      </trkpt>
      <trkpt lat="47.4958930" lon="9.4625880">
        <ele>-19.6</ele>
        <time>2022-06-09T09:34:18Z</time>
      </trkpt>
      <trkpt lat="47.4958930" lon="9.4625880">
        <ele>-19.6</ele>
        <time>2022-06-09T09:34:22Z</time>
      </trkpt>
      <trkpt lat="47.4958930" lon="9.4625880">
        <ele>-19.6</ele>
        <time>2022-06-09T09:34:26Z</time>
      </trkpt>
      <trkpt lat="47.4958930" lon="9.4625880">
        <ele>-20.0</ele>
        <time>2022-06-09T09:34:30Z</time>
      </trkpt>
      <trkpt lat="47.4958930" lon="9.4625880">
        <ele>-20.0</ele>
        <time>2022-06-09T09:34:34Z</time>
      </trkpt>
      <trkpt lat="47.4958930" lon="9.4625880">
        <ele>-19.4</ele>
        <time>2022-06-09T09:34:38Z</time>
      </trkpt>
      <trkpt lat="47.4958930" lon="9.4625880">
        <ele>-20.0</ele>
        <time>2022-06-09T09:34:42Z</time>
      </trkpt>
      <trkpt lat="47.4958930" lon="9.4625880">
        <ele>-20.2</ele>
        <time>2022-06-09T09:34:46Z</time>
      </trkpt>
      <trkpt lat="47.4958930" lon="9.4625880">
        <ele>-20.2</ele>
        <time>2022-06-09T09:34:50Z</time>
      </trkpt>
      <trkpt lat="47.4958930" lon="9.4625880">
        <ele>-19.8</ele>
        <time>2022-06-09T09:34:54Z</time>
      </trkpt>
      <trkpt lat="47.4958930" lon="9.4625880">
        <ele>-20.4</ele>
        <time>2022-06-09T09:34:58Z</time>
      </trkpt>
      <trkpt lat="47.4958930" lon="9.4625880">
        <ele>-20.2</ele>
        <time>2022-06-09T09:35:02Z</time>
      </trkpt>
      <trkpt lat="47.4958930" lon="9.4625880">
        <ele>-20.4</ele>
        <time>2022-06-09T09:35:06Z</time>
      </trkpt>
      <trkpt lat="47.4958930" lon="9.4625880">
        <ele>-20.0</ele>
        <time>2022-06-09T09:35:10Z</time>
      </trkpt>
      <trkpt lat="47.4958930" lon="9.4625880">
        <ele>-20.4</ele>
        <time>2022-06-09T09:35:14Z</time>
      </trkpt>
      <trkpt lat="47.4958930" lon="9.4625880">
        <ele>-20.0</ele>
        <time>2022-06-09T09:35:18Z</time>
      </trkpt>
      <trkpt lat="47.4958930" lon="9.4625880">
        <ele>-20.2</ele>
        <time>2022-06-09T09:35:22Z</time>
      </trkpt>
      <trkpt lat="47.4958930" lon="9.4625880">
        <ele>-20.4</ele>
        <time>2022-06-09T09:35:26Z</time>
      </trkpt>
      <trkpt lat="47.4958930" lon="9.4625880">
        <ele>-19.6</ele>
        <time>2022-06-09T09:35:30Z</time>
      </trkpt>
      <trkpt lat="47.4958930" lon="9.4625880">
        <ele>-19.8</ele>
        <time>2022-06-09T09:35:34Z</time>
      </trkpt>
      <trkpt lat="47.4958930" lon="9.4625880">
        <ele>-19.8</ele>
        <time>2022-06-09T09:35:38Z</time>
      </trkpt>
      <trkpt lat="47.4958930" lon="9.4625880">
        <ele>-20.0</ele>
        <time>2022-06-09T09:35:42Z</time>
      </trkpt>
      <trkpt lat="47.4958930" lon="9.4625880">
        <ele>-20.0</ele>
        <time>2022-06-09T09:35:46Z</time>
      </trkpt>
      <trkpt lat="47.4958930" lon="9.4625880">
        <ele>-19.8</ele>
        <time>2022-06-09T09:35:50Z</time>
      </trkpt>
      <trkpt lat="47.4958930" lon="9.4625880">
        <ele>-20.0</ele>
        <time>2022-06-09T09:35:54Z</time>
      </trkpt>
      <trkpt lat="47.4958930" lon="9.4625880">
        <ele>-19.4</ele>
        <time>2022-06-09T09:35:58Z</time>
      </trkpt>
      <trkpt lat="47.4958930" lon="9.4625880">
        <ele>-19.2</ele>
        <time>2022-06-09T09:36:02Z</time>
      </trkpt>
      <trkpt lat="47.4958930" lon="9.4625880">
        <ele>-19.4</ele>
        <time>2022-06-09T09:36:06Z</time>
      </trkpt>
      <trkpt lat="47.4958930" lon="9.4625880">
        <ele>-19.6</ele>
        <time>2022-06-09T09:36:10Z</time>
      </trkpt>
      <trkpt lat="47.4958930" lon="9.4625880">
        <ele>-19.2</ele>
        <time>2022-06-09T09:36:14Z</time>
      </trkpt>
      <trkpt lat="47.4958930" lon="9.4625880">
        <ele>-19.2</ele>
        <time>2022-06-09T09:36:18Z</time>
      </trkpt>
      <trkpt lat="47.4958930" lon="9.4625880">
        <ele>-19.0</ele>
        <time>2022-06-09T09:36:22Z</time>
      </trkpt>
      <trkpt lat="47.4958930" lon="9.4625880">
        <ele>-19.2</ele>
        <time>2022-06-09T09:36:26Z</time>
      </trkpt>
      <trkpt lat="47.4958930" lon="9.4625880">
        <ele>-18.8</ele>
        <time>2022-06-09T09:36:30Z</time>
      </trkpt>
      <trkpt lat="47.4958930" lon="9.4625880">
        <ele>-18.6</ele>
        <time>2022-06-09T09:36:34Z</time>
      </trkpt>
      <trkpt lat="47.4958930" lon="9.4625880">
        <ele>-18.4</ele>
        <time>2022-06-09T09:36:38Z</time>
      </trkpt>
      <trkpt lat="47.4958930" lon="9.4625880">
        <ele>-18.2</ele>
        <time>2022-06-09T09:36:42Z</time>
      </trkpt>
      <trkpt lat="47.4958930" lon="9.4625880">
        <ele>-18.4</ele>
        <time>2022-06-09T09:36:46Z</time>
      </trkpt>
      <trkpt lat="47.4958930" lon="9.4625880">
        <ele>-18.2</ele>
        <time>2022-06-09T09:36:50Z</time>
      </trkpt>
      <trkpt lat="47.4958930" lon="9.4625880">
        <ele>-18.0</ele>
        <time>2022-06-09T09:36:54Z</time>
      </trkpt>
      <trkpt lat="47.4958930" lon="9.4625880">
        <ele>-17.8</ele>
        <time>2022-06-09T09:36:58Z</time>
      </trkpt>
      <trkpt lat="47.4958930" lon="9.4625880">
        <ele>-17.4</ele>
        <time>2022-06-09T09:37:02Z</time>
      </trkpt>
      <trkpt lat="47.4958930" lon="9.4625880">
        <ele>-17.2</ele>
        <time>2022-06-09T09:37:06Z</time>
      </trkpt>
      <trkpt lat="47.4958930" lon="9.4625880">
        <ele>-17.2</ele>
        <time>2022-06-09T09:37:10Z</time>
      </trkpt>
      <trkpt lat="47.4958930" lon="9.4625880">
        <ele>-17.4</ele>
        <time>2022-06-09T09:37:14Z</time>
      </trkpt>
      <trkpt lat="47.4958930" lon="9.4625880">
        <ele>-17.4</ele>
        <time>2022-06-09T09:37:18Z</time>
      </trkpt>
      <trkpt lat="47.4958930" lon="9.4625880">
        <ele>-17.2</ele>
        <time>2022-06-09T09:37:22Z</time>
      </trkpt>
      <trkpt lat="47.4958930" lon="9.4625880">
        <ele>-17.0</ele>
        <time>2022-06-09T09:37:26Z</time>
      </trkpt>
      <trkpt lat="47.4958930" lon="9.4625880">
        <ele>-16.8</ele>
        <time>2022-06-09T09:37:30Z</time>
      </trkpt>
      <trkpt lat="47.4958930" lon="9.4625880">
        <ele>-16.6</ele>
        <time>2022-06-09T09:37:34Z</time>
      </trkpt>
      <trkpt lat="47.4958930" lon="9.4625880">
        <ele>-16.8</ele>
        <time>2022-06-09T09:37:38Z</time>
      </trkpt>
      <trkpt lat="47.4958930" lon="9.4625880">
        <ele>-16.4</ele>
        <time>2022-06-09T09:37:42Z</time>
      </trkpt>
      <trkpt lat="47.4958930" lon="9.4625880">
        <ele>-16.6</ele>
        <time>2022-06-09T09:37:46Z</time>
      </trkpt>
      <trkpt lat="47.4958930" lon="9.4625880">
        <ele>-16.2</ele>
        <time>2022-06-09T09:37:50Z</time>
      </trkpt>
      <trkpt lat="47.4958930" lon="9.4625880">
        <ele>-16.6</ele>
        <time>2022-06-09T09:37:54Z</time>
      </trkpt>
      <trkpt lat="47.4958930" lon="9.4625880">
        <ele>-16.0</ele>
        <time>2022-06-09T09:37:58Z</time>
      </trkpt>
      <trkpt lat="47.4958930" lon="9.4625880">
        <ele>-15.4</ele>
        <time>2022-06-09T09:38:02Z</time>
      </trkpt>
      <trkpt lat="47.4958160" lon="9.4624330">
        <ele>-15.6</ele>
        <time>2022-06-09T09:38:06Z</time>
      </trkpt>
      <trkpt lat="47.4958160" lon="9.4624330">
        <ele>-15.4</ele>
        <time>2022-06-09T09:38:10Z</time>
      </trkpt>
      <trkpt lat="47.4958160" lon="9.4624330">
        <ele>-15.0</ele>
        <time>2022-06-09T09:38:14Z</time>
      </trkpt>
      <trkpt lat="47.4958160" lon="9.4624330">
        <ele>-15.4</ele>
        <time>2022-06-09T09:38:18Z</time>
      </trkpt>
      <trkpt lat="47.4958160" lon="9.4624330">
        <ele>-15.0</ele>
        <time>2022-06-09T09:38:22Z</time>
      </trkpt>
      <trkpt lat="47.4958160" lon="9.4624330">
        <ele>-15.2</ele>
        <time>2022-06-09T09:38:26Z</time>
      </trkpt>
      <trkpt lat="47.4958160" lon="9.4624330">
        <ele>-15.0</ele>
        <time>2022-06-09T09:38:30Z</time>
      </trkpt>
      <trkpt lat="47.4958160" lon="9.4624330">
        <ele>-14.8</ele>
        <time>2022-06-09T09:38:34Z</time>
      </trkpt>
      <trkpt lat="47.4958160" lon="9.4624330">
        <ele>-14.6</ele>
        <time>2022-06-09T09:38:38Z</time>
      </trkpt>
      <trkpt lat="47.4958160" lon="9.4624330">
        <ele>-14.6</ele>
        <time>2022-06-09T09:38:42Z</time>
      </trkpt>
      <trkpt lat="47.4958160" lon="9.4624330">
        <ele>-15.0</ele>
        <time>2022-06-09T09:38:46Z</time>
      </trkpt>
      <trkpt lat="47.4958160" lon="9.4624330">
        <ele>-14.6</ele>
        <time>2022-06-09T09:38:50Z</time>
      </trkpt>
      <trkpt lat="47.4958160" lon="9.4624330">
        <ele>-14.8</ele>
        <time>2022-06-09T09:38:54Z</time>
      </trkpt>
      <trkpt lat="47.4958160" lon="9.4624330">
        <ele>-14.2</ele>
        <time>2022-06-09T09:38:58Z</time>
      </trkpt>
      <trkpt lat="47.4958160" lon="9.4624330">
        <ele>-14.6</ele>
        <time>2022-06-09T09:39:02Z</time>
      </trkpt>
      <trkpt lat="47.4958160" lon="9.4624330">
        <ele>-14.4</ele>
        <time>2022-06-09T09:39:06Z</time>
      </trkpt>
      <trkpt lat="47.4958160" lon="9.4624330">
        <ele>-14.2</ele>
        <time>2022-06-09T09:39:10Z</time>
      </trkpt>
      <trkpt lat="47.4958160" lon="9.4624330">
        <ele>-13.8</ele>
        <time>2022-06-09T09:39:14Z</time>
      </trkpt>
      <trkpt lat="47.4958160" lon="9.4624330">
        <ele>-13.6</ele>
        <time>2022-06-09T09:39:18Z</time>
      </trkpt>
      <trkpt lat="47.4958160" lon="9.4624330">
        <ele>-13.8</ele>
        <time>2022-06-09T09:39:22Z</time>
      </trkpt>
      <trkpt lat="47.4958160" lon="9.4624330">
        <ele>-13.8</ele>
        <time>2022-06-09T09:39:26Z</time>
      </trkpt>
      <trkpt lat="47.4958160" lon="9.4624330">
        <ele>-13.4</ele>
        <time>2022-06-09T09:39:30Z</time>
      </trkpt>
      <trkpt lat="47.4958160" lon="9.4624330">
        <ele>-13.4</ele>
        <time>2022-06-09T09:39:34Z</time>
      </trkpt>
      <trkpt lat="47.4958160" lon="9.4624330">
        <ele>-13.6</ele>
        <time>2022-06-09T09:39:38Z</time>
      </trkpt>
      <trkpt lat="47.4958160" lon="9.4624330">
        <ele>-13.4</ele>
        <time>2022-06-09T09:39:42Z</time>
      </trkpt>
      <trkpt lat="47.4958160" lon="9.4624330">
        <ele>-13.4</ele>
        <time>2022-06-09T09:39:46Z</time>
      </trkpt>
      <trkpt lat="47.4958160" lon="9.4624330">
        <ele>-13.2</ele>
        <time>2022-06-09T09:39:50Z</time>
      </trkpt>
      <trkpt lat="47.4958160" lon="9.4624330">
        <ele>-13.4</ele>
        <time>2022-06-09T09:39:54Z</time>
      </trkpt>
      <trkpt lat="47.4958160" lon="9.4624330">
        <ele>-13.2</ele>
        <time>2022-06-09T09:39:58Z</time>
      </trkpt>
      <trkpt lat="47.4958160" lon="9.4624330">
        <ele>-12.8</ele>
        <time>2022-06-09T09:40:02Z</time>
      </trkpt>
      <trkpt lat="47.4958160" lon="9.4624330">
        <ele>-13.0</ele>
        <time>2022-06-09T09:40:06Z</time>
      </trkpt>
      <trkpt lat="47.4958160" lon="9.4624330">
        <ele>-13.2</ele>
        <time>2022-06-09T09:40:10Z</time>
      </trkpt>
      <trkpt lat="47.4958160" lon="9.4624330">
        <ele>-12.8</ele>
        <time>2022-06-09T09:40:14Z</time>
      </trkpt>
      <trkpt lat="47.4958160" lon="9.4624330">
        <ele>-12.8</ele>
        <time>2022-06-09T09:40:18Z</time>
      </trkpt>
      <trkpt lat="47.4958160" lon="9.4624330">
        <ele>-12.6</ele>
        <time>2022-06-09T09:40:22Z</time>
      </trkpt>
      <trkpt lat="47.4958160" lon="9.4624330">
        <ele>-13.0</ele>
        <time>2022-06-09T09:40:26Z</time>
      </trkpt>
      <trkpt lat="47.4958160" lon="9.4624330">
        <ele>-13.0</ele>
        <time>2022-06-09T09:40:30Z</time>
      </trkpt>
      <trkpt lat="47.4958160" lon="9.4624330">
        <ele>-13.0</ele>
        <time>2022-06-09T09:40:34Z</time>
      </trkpt>
      <trkpt lat="47.4958160" lon="9.4624330">
        <ele>-12.6</ele>
        <time>2022-06-09T09:40:38Z</time>
      </trkpt>
      <trkpt lat="47.4958160" lon="9.4624330">
        <ele>-12.6</ele>
        <time>2022-06-09T09:40:42Z</time>
      </trkpt>
      <trkpt lat="47.4958160" lon="9.4624330">
        <ele>-12.8</ele>
        <time>2022-06-09T09:40:46Z</time>
      </trkpt>
      <trkpt lat="47.4958160" lon="9.4624330">
        <ele>-12.6</ele>
        <time>2022-06-09T09:40:50Z</time>
      </trkpt>
      <trkpt lat="47.4958160" lon="9.4624330">
        <ele>-12.6</ele>
        <time>2022-06-09T09:40:54Z</time>
      </trkpt>
      <trkpt lat="47.4958160" lon="9.4624330">
        <ele>-12.0</ele>
        <time>2022-06-09T09:40:58Z</time>
      </trkpt>
      <trkpt lat="47.4958160" lon="9.4624330">
        <ele>-12.6</ele>
        <time>2022-06-09T09:41:02Z</time>
      </trkpt>
      <trkpt lat="47.4958160" lon="9.4624330">
        <ele>-12.0</ele>
        <time>2022-06-09T09:41:06Z</time>
      </trkpt>
      <trkpt lat="47.4958160" lon="9.4624330">
        <ele>-12.0</ele>
        <time>2022-06-09T09:41:10Z</time>
      </trkpt>
      <trkpt lat="47.4958160" lon="9.4624330">
        <ele>-12.0</ele>
        <time>2022-06-09T09:41:14Z</time>
      </trkpt>
      <trkpt lat="47.4958160" lon="9.4624330">
        <ele>-11.8</ele>
        <time>2022-06-09T09:41:18Z</time>
      </trkpt>
      <trkpt lat="47.4958160" lon="9.4624330">
        <ele>-11.2</ele>
        <time>2022-06-09T09:41:22Z</time>
      </trkpt>
      <trkpt lat="47.4958160" lon="9.4624330">
        <ele>-11.0</ele>
        <time>2022-06-09T09:41:26Z</time>
      </trkpt>
      <trkpt lat="47.4958160" lon="9.4624330">
        <ele>-11.2</ele>
        <time>2022-06-09T09:41:30Z</time>
      </trkpt>
      <trkpt lat="47.4958160" lon="9.4624330">
        <ele>-11.2</ele>
        <time>2022-06-09T09:41:34Z</time>
      </trkpt>
      <trkpt lat="47.4958160" lon="9.4624330">
        <ele>-11.2</ele>
        <time>2022-06-09T09:41:38Z</time>
      </trkpt>
      <trkpt lat="47.4958160" lon="9.4624330">
        <ele>-11.2</ele>
        <time>2022-06-09T09:41:42Z</time>
      </trkpt>
      <trkpt lat="47.4958160" lon="9.4624330">
        <ele>-11.0</ele>
        <time>2022-06-09T09:41:46Z</time>
      </trkpt>
      <trkpt lat="47.4958160" lon="9.4624330">
        <ele>-10.6</ele>
        <time>2022-06-09T09:41:50Z</time>
      </trkpt>
      <trkpt lat="47.4958160" lon="9.4624330">
        <ele>-10.8</ele>
        <time>2022-06-09T09:41:54Z</time>
      </trkpt>
      <trkpt lat="47.4958160" lon="9.4624330">
        <ele>-10.6</ele>
        <time>2022-06-09T09:41:58Z</time>
      </trkpt>
      <trkpt lat="47.4958160" lon="9.4624330">
        <ele>-10.6</ele>
        <time>2022-06-09T09:42:02Z</time>
      </trkpt>
      <trkpt lat="47.4958160" lon="9.4624330">
        <ele>-10.0</ele>
        <time>2022-06-09T09:42:06Z</time>
      </trkpt>
      <trkpt lat="47.4958160" lon="9.4624330">
        <ele>-10.0</ele>
        <time>2022-06-09T09:42:10Z</time>
      </trkpt>
      <trkpt lat="47.4958160" lon="9.4624330">
        <ele>-9.8</ele>
        <time>2022-06-09T09:42:14Z</time>
      </trkpt>
      <trkpt lat="47.4958160" lon="9.4624330">
        <ele>-10.0</ele>
        <time>2022-06-09T09:42:18Z</time>
      </trkpt>
      <trkpt lat="47.4958160" lon="9.4624330">
        <ele>-9.6</ele>
        <time>2022-06-09T09:42:22Z</time>
      </trkpt>
      <trkpt lat="47.4958160" lon="9.4624330">
        <ele>-10.2</ele>
        <time>2022-06-09T09:42:26Z</time>
      </trkpt>
      <trkpt lat="47.4958160" lon="9.4624330">
        <ele>-9.8</ele>
        <time>2022-06-09T09:42:30Z</time>
      </trkpt>
      <trkpt lat="47.4958160" lon="9.4624330">
        <ele>-8.8</ele>
        <time>2022-06-09T09:42:34Z</time>
      </trkpt>
      <trkpt lat="47.4958160" lon="9.4624330">
        <ele>-8.4</ele>
        <time>2022-06-09T09:42:38Z</time>
      </trkpt>
      <trkpt lat="47.4958160" lon="9.4624330">
        <ele>-8.8</ele>
        <time>2022-06-09T09:42:42Z</time>
      </trkpt>
      <trkpt lat="47.4958160" lon="9.4624330">
        <ele>-8.2</ele>
        <time>2022-06-09T09:42:46Z</time>
      </trkpt>
      <trkpt lat="47.4958160" lon="9.4624330">
        <ele>-8.2</ele>
        <time>2022-06-09T09:42:50Z</time>
      </trkpt>
      <trkpt lat="47.4958160" lon="9.4624330">
        <ele>-8.4</ele>
        <time>2022-06-09T09:42:54Z</time>
      </trkpt>
      <trkpt lat="47.4958160" lon="9.4624330">
        <ele>-7.8</ele>
        <time>2022-06-09T09:42:58Z</time>
      </trkpt>
      <trkpt lat="47.4958160" lon="9.4624330">
        <ele>-7.6</ele>
        <time>2022-06-09T09:43:02Z</time>
      </trkpt>
      <trkpt lat="47.4958160" lon="9.4624330">
        <ele>-7.4</ele>
        <time>2022-06-09T09:43:06Z</time>
      </trkpt>
      <trkpt lat="47.4958160" lon="9.4624330">
        <ele>-7.8</ele>
        <time>2022-06-09T09:43:10Z</time>
      </trkpt>
      <trkpt lat="47.4958160" lon="9.4624330">
        <ele>-7.4</ele>
        <time>2022-06-09T09:43:14Z</time>
      </trkpt>
      <trkpt lat="47.4958160" lon="9.4624330">
        <ele>-7.4</ele>
        <time>2022-06-09T09:43:18Z</time>
      </trkpt>
      <trkpt lat="47.4958160" lon="9.4624330">
        <ele>-7.2</ele>
        <time>2022-06-09T09:43:22Z</time>
      </trkpt>
      <trkpt lat="47.4958160" lon="9.4624330">
        <ele>-7.0</ele>
        <time>2022-06-09T09:43:26Z</time>
      </trkpt>
      <trkpt lat="47.4958160" lon="9.4624330">
        <ele>-6.8</ele>
        <time>2022-06-09T09:43:30Z</time>
      </trkpt>
      <trkpt lat="47.4958160" lon="9.4624330">
        <ele>-7.0</ele>
        <time>2022-06-09T09:43:34Z</time>
      </trkpt>
      <trkpt lat="47.4958160" lon="9.4624330">
        <ele>-6.8</ele>
        <time>2022-06-09T09:43:38Z</time>
      </trkpt>
      <trkpt lat="47.4958160" lon="9.4624330">
        <ele>-6.4</ele>
        <time>2022-06-09T09:43:42Z</time>
      </trkpt>
      <trkpt lat="47.4958160" lon="9.4624330">
        <ele>-6.8</ele>
        <time>2022-06-09T09:43:46Z</time>
      </trkpt>
      <trkpt lat="47.4958160" lon="9.4624330">
        <ele>-6.0</ele>
        <time>2022-06-09T09:43:50Z</time>
      </trkpt>
      <trkpt lat="47.4958160" lon="9.4624330">
        <ele>-6.4</ele>
        <time>2022-06-09T09:43:54Z</time>
      </trkpt>
      <trkpt lat="47.4958160" lon="9.4624330">
        <ele>-6.2</ele>
        <time>2022-06-09T09:43:58Z</time>
      </trkpt>
      <trkpt lat="47.4958160" lon="9.4624330">
        <ele>-5.8</ele>
        <time>2022-06-09T09:44:02Z</time>
      </trkpt>
      <trkpt lat="47.4958160" lon="9.4624330">
        <ele>-5.6</ele>
        <time>2022-06-09T09:44:06Z</time>
      </trkpt>
      <trkpt lat="47.4958160" lon="9.4624330">
        <ele>-6.0</ele>
        <time>2022-06-09T09:44:10Z</time>
      </trkpt>
      <trkpt lat="47.4958160" lon="9.4624330">
        <ele>-5.4</ele>
        <time>2022-06-09T09:44:14Z</time>
      </trkpt>
      <trkpt lat="47.4958160" lon="9.4624330">
        <ele>-5.0</ele>
        <time>2022-06-09T09:44:18Z</time>
      </trkpt>
      <trkpt lat="47.4958160" lon="9.4624330">
        <ele>-4.8</ele>
        <time>2022-06-09T09:44:22Z</time>
      </trkpt>
      <trkpt lat="47.4958160" lon="9.4624330">
        <ele>-4.8</ele>
        <time>2022-06-09T09:44:26Z</time>
      </trkpt>
      <trkpt lat="47.4958160" lon="9.4624330">
        <ele>-4.4</ele>
        <time>2022-06-09T09:44:30Z</time>
      </trkpt>
      <trkpt lat="47.4958160" lon="9.4624330">
        <ele>-4.4</ele>
        <time>2022-06-09T09:44:34Z</time>
      </trkpt>
      <trkpt lat="47.4958160" lon="9.4624330">
        <ele>-4.4</ele>
        <time>2022-06-09T09:44:38Z</time>
      </trkpt>
      <trkpt lat="47.4958160" lon="9.4624330">
        <ele>-4.0</ele>
        <time>2022-06-09T09:44:42Z</time>
      </trkpt>
      <trkpt lat="47.4958160" lon="9.4624330">
        <ele>-4.2</ele>
        <time>2022-06-09T09:44:46Z</time>
      </trkpt>
      <trkpt lat="47.4958160" lon="9.4624330">
        <ele>-4.0</ele>
        <time>2022-06-09T09:44:50Z</time>
      </trkpt>
      <trkpt lat="47.4958160" lon="9.4624330">
        <ele>-3.4</ele>
        <time>2022-06-09T09:44:54Z</time>
      </trkpt>
      <trkpt lat="47.4958160" lon="9.4624330">
        <ele>-3.4</ele>
        <time>2022-06-09T09:44:58Z</time>
      </trkpt>
      <trkpt lat="47.4958160" lon="9.4624330">
        <ele>-3.0</ele>
        <time>2022-06-09T09:45:02Z</time>
      </trkpt>
      <trkpt lat="47.4958160" lon="9.4624330">
        <ele>-2.8</ele>
        <time>2022-06-09T09:45:06Z</time>
      </trkpt>
      <trkpt lat="47.4958160" lon="9.4624330">
        <ele>-2.4</ele>
        <time>2022-06-09T09:45:10Z</time>
      </trkpt>
      <trkpt lat="47.4958160" lon="9.4624330">
        <ele>-1.8</ele>
        <time>2022-06-09T09:45:14Z</time>
      </trkpt>
      <trkpt lat="47.4958160" lon="9.4624330">
        <ele>-1.4</ele>
        <time>2022-06-09T09:45:18Z</time>
      </trkpt>
      <trkpt lat="47.4958160" lon="9.4624330">
        <ele>-1.8</ele>
        <time>2022-06-09T09:45:22Z</time>
      </trkpt>
      <trkpt lat="47.4958160" lon="9.4624330">
        <ele>-1.4</ele>
        <time>2022-06-09T09:45:26Z</time>
      </trkpt>
      <trkpt lat="47.4958160" lon="9.4624330">
        <ele>-1.4</ele>
        <time>2022-06-09T09:45:30Z</time>
      </trkpt>
      <trkpt lat="47.4958160" lon="9.4624330">
        <ele>-1.2</ele>
        <time>2022-06-09T09:45:34Z</time>
      </trkpt>
      <trkpt lat="47.4958160" lon="9.4624330">
        <ele>-1.2</ele>
        <time>2022-06-09T09:45:38Z</time>
      </trkpt>
      <trkpt lat="47.4958160" lon="9.4624330">
        <ele>-1.0</ele>
        <time>2022-06-09T09:45:42Z</time>
      </trkpt>
      <trkpt lat="47.4958160" lon="9.4624330">
        <ele>-24.6</ele>
        <time>2022-06-09T09:45:46Z</time>
      </trkpt>
      <trkpt lat="47.4958160" lon="9.4624330">
        <ele>-25.0</ele>
        <time>2022-06-09T09:45:50Z</time>
      </trkpt>
      <trkpt lat="47.4958160" lon="9.4624330">
        <ele>-24.6</ele>
        <time>2022-06-09T09:45:54Z</time>
      </trkpt>
      <trkpt lat="47.4958160" lon="9.4624330">
        <ele>-24.6</ele>
        <time>2022-06-09T09:45:58Z</time>
      </trkpt>
      <trkpt lat="47.4958160" lon="9.4624330">
        <ele>-24.6</ele>
        <time>2022-06-09T09:46:02Z</time>
      </trkpt>
      <trkpt lat="47.4958160" lon="9.4624330">
        <ele>-24.4</ele>
        <time>2022-06-09T09:46:06Z</time>
      </trkpt>
      <trkpt lat="47.4958160" lon="9.4624330">
        <ele>-24.4</ele>
        <time>2022-06-09T09:46:10Z</time>
      </trkpt>
      <trkpt lat="47.4958160" lon="9.4624330">
        <ele>-24.6</ele>
        <time>2022-06-09T09:46:14Z</time>
      </trkpt>
      <trkpt lat="47.4958160" lon="9.4624330">
        <ele>-24.8</ele>
        <time>2022-06-09T09:46:18Z</time>
      </trkpt>
      <trkpt lat="47.4958160" lon="9.4624330">
        <ele>-24.6</ele>
        <time>2022-06-09T09:46:22Z</time>
      </trkpt>
      <trkpt lat="47.4958160" lon="9.4624330">
        <ele>-24.6</ele>
        <time>2022-06-09T09:46:26Z</time>
      </trkpt>
      <trkpt lat="47.4958160" lon="9.4624330">
        <ele>-25.2</ele>
        <time>2022-06-09T09:46:30Z</time>
      </trkpt>
      <trkpt lat="47.4958160" lon="9.4624330">
        <ele>-24.6</ele>
        <time>2022-06-09T09:46:34Z</time>
      </trkpt>
      <trkpt lat="47.4958160" lon="9.4624330">
        <ele>-24.8</ele>
        <time>2022-06-09T09:46:38Z</time>
      </trkpt>
      <trkpt lat="47.4958160" lon="9.4624330">
        <ele>-25.2</ele>
        <time>2022-06-09T09:46:42Z</time>
      </trkpt>
      <trkpt lat="47.4958160" lon="9.4624330">
        <ele>-25.0</ele>
        <time>2022-06-09T09:46:46Z</time>
      </trkpt>
      <trkpt lat="47.4958160" lon="9.4624330">
        <ele>-25.0</ele>
        <time>2022-06-09T09:46:50Z</time>
      </trkpt>
      <trkpt lat="47.4958160" lon="9.4624330">
        <ele>-25.2</ele>
        <time>2022-06-09T09:46:54Z</time>
      </trkpt>
      <trkpt lat="47.4958160" lon="9.4624330">
        <ele>-25.2</ele>
        <time>2022-06-09T09:46:58Z</time>
      </trkpt>
      <trkpt lat="47.4958160" lon="9.4624330">
        <ele>-25.0</ele>
        <time>2022-06-09T09:47:02Z</time>
      </trkpt>
      <trkpt lat="47.4958160" lon="9.4624330">
        <ele>-25.2</ele>
        <time>2022-06-09T09:47:06Z</time>
      </trkpt>
      <trkpt lat="47.4958160" lon="9.4624330">
        <ele>-25.0</ele>
        <time>2022-06-09T09:47:10Z</time>
      </trkpt>
      <trkpt lat="47.4958160" lon="9.4624330">
        <ele>-24.8</ele>
        <time>2022-06-09T09:47:14Z</time>
      </trkpt>
      <trkpt lat="47.4958160" lon="9.4624330">
        <ele>-25.2</ele>
        <time>2022-06-09T09:47:18Z</time>
      </trkpt>
      <trkpt lat="47.4958160" lon="9.4624330">
        <ele>-25.2</ele>
        <time>2022-06-09T09:47:22Z</time>
      </trkpt>
      <trkpt lat="47.4958160" lon="9.4624330">
        <ele>-25.2</ele>
        <time>2022-06-09T09:47:26Z</time>
      </trkpt>
      <trkpt lat="47.4958160" lon="9.4624330">
        <ele>-25.2</ele>
        <time>2022-06-09T09:47:30Z</time>
      </trkpt>
      <trkpt lat="47.4958160" lon="9.4624330">
        <ele>-25.2</ele>
        <time>2022-06-09T09:47:34Z</time>
      </trkpt>
      <trkpt lat="47.4958160" lon="9.4624330">
        <ele>-25.4</ele>
        <time>2022-06-09T09:47:38Z</time>
      </trkpt>
      <trkpt lat="47.4958160" lon="9.4624330">
        <ele>-25.0</ele>
        <time>2022-06-09T09:47:42Z</time>
      </trkpt>
      <trkpt lat="47.4958160" lon="9.4624330">
        <ele>-25.2</ele>
        <time>2022-06-09T09:47:46Z</time>
      </trkpt>
      <trkpt lat="47.4958160" lon="9.4624330">
        <ele>-25.0</ele>
        <time>2022-06-09T09:47:50Z</time>
      </trkpt>
      <trkpt lat="47.4958160" lon="9.4624330">
        <ele>-25.2</ele>
        <time>2022-06-09T09:47:54Z</time>
      </trkpt>
      <trkpt lat="47.4958160" lon="9.4624330">
        <ele>-25.2</ele>
        <time>2022-06-09T09:47:58Z</time>
      </trkpt>
      <trkpt lat="47.4958160" lon="9.4624330">
        <ele>-25.4</ele>
        <time>2022-06-09T09:48:02Z</time>
      </trkpt>
      <trkpt lat="47.4958160" lon="9.4624330">
        <ele>-25.2</ele>
        <time>2022-06-09T09:48:06Z</time>
      </trkpt>
      <trkpt lat="47.4958160" lon="9.4624330">
        <ele>-25.2</ele>
        <time>2022-06-09T09:48:10Z</time>
      </trkpt>
      <trkpt lat="47.4958160" lon="9.4624330">
        <ele>-25.4</ele>
        <time>2022-06-09T09:48:14Z</time>
      </trkpt>
      <trkpt lat="47.4958160" lon="9.4624330">
        <ele>-25.4</ele>
        <time>2022-06-09T09:48:18Z</time>
      </trkpt>
      <trkpt lat="47.4958160" lon="9.4624330">
        <ele>-25.6</ele>
        <time>2022-06-09T09:48:22Z</time>
      </trkpt>
      <trkpt lat="47.4958160" lon="9.4624330">
        <ele>-25.4</ele>
        <time>2022-06-09T09:48:26Z</time>
      </trkpt>
      <trkpt lat="47.4958160" lon="9.4624330">
        <ele>-25.8</ele>
        <time>2022-06-09T09:48:30Z</time>
      </trkpt>
      <trkpt lat="47.4958160" lon="9.4624330">
        <ele>-25.2</ele>
        <time>2022-06-09T09:48:34Z</time>
      </trkpt>
      <trkpt lat="47.4958160" lon="9.4624330">
        <ele>-25.4</ele>
        <time>2022-06-09T09:48:38Z</time>
      </trkpt>
      <trkpt lat="47.4958160" lon="9.4624330">
        <ele>-25.2</ele>
        <time>2022-06-09T09:48:42Z</time>
      </trkpt>
      <trkpt lat="47.4958160" lon="9.4624330">
        <ele>-25.2</ele>
        <time>2022-06-09T09:48:46Z</time>
      </trkpt>
      <trkpt lat="47.4958160" lon="9.4624330">
        <ele>-25.6</ele>
        <time>2022-06-09T09:48:50Z</time>
      </trkpt>
      <trkpt lat="47.4958160" lon="9.4624330">
        <ele>-25.4</ele>
        <time>2022-06-09T09:48:54Z</time>
      </trkpt>
      <trkpt lat="47.4958160" lon="9.4624330">
        <ele>-25.4</ele>
        <time>2022-06-09T09:48:58Z</time>
      </trkpt>
      <trkpt lat="47.4958160" lon="9.4624330">
        <ele>-25.2</ele>
        <time>2022-06-09T09:49:02Z</time>
      </trkpt>
      <trkpt lat="47.4958160" lon="9.4624330">
        <ele>-25.6</ele>
        <time>2022-06-09T09:49:06Z</time>
      </trkpt>
      <trkpt lat="47.4958160" lon="9.4624330">
        <ele>-25.8</ele>
        <time>2022-06-09T09:49:10Z</time>
      </trkpt>
      <trkpt lat="47.4958160" lon="9.4624330">
        <ele>-25.8</ele>
        <time>2022-06-09T09:49:14Z</time>
      </trkpt>
      <trkpt lat="47.4958160" lon="9.4624330">
        <ele>-25.8</ele>
        <time>2022-06-09T09:49:18Z</time>
      </trkpt>
      <trkpt lat="47.4958160" lon="9.4624330">
        <ele>-25.6</ele>
        <time>2022-06-09T09:49:22Z</time>
      </trkpt>
      <trkpt lat="47.4958160" lon="9.4624330">
        <ele>-25.4</ele>
        <time>2022-06-09T09:49:26Z</time>
      </trkpt>
      <trkpt lat="47.4958160" lon="9.4624330">
        <ele>-25.4</ele>
        <time>2022-06-09T09:49:30Z</time>
      </trkpt>
      <trkpt lat="47.4958160" lon="9.4624330">
        <ele>-25.4</ele>
        <time>2022-06-09T09:49:34Z</time>
      </trkpt>
      <trkpt lat="47.4958160" lon="9.4624330">
        <ele>-26.0</ele>
        <time>2022-06-09T09:49:38Z</time>
      </trkpt>
      <trkpt lat="47.4958160" lon="9.4624330">
        <ele>-25.4</ele>
        <time>2022-06-09T09:49:42Z</time>
      </trkpt>
      <trkpt lat="47.4958160" lon="9.4624330">
        <ele>-25.8</ele>
        <time>2022-06-09T09:49:46Z</time>
      </trkpt>
      <trkpt lat="47.4958160" lon="9.4624330">
        <ele>-25.4</ele>
        <time>2022-06-09T09:49:50Z</time>
      </trkpt>
      <trkpt lat="47.4958160" lon="9.4624330">
        <ele>-25.8</ele>
        <time>2022-06-09T09:49:54Z</time>
      </trkpt>
      <trkpt lat="47.4958160" lon="9.4624330">
        <ele>-25.8</ele>
        <time>2022-06-09T09:49:58Z</time>
      </trkpt>
      <trkpt lat="47.4958160" lon="9.4624330">
        <ele>-25.4</ele>
        <time>2022-06-09T09:50:02Z</time>
      </trkpt>
      <trkpt lat="47.4958160" lon="9.4624330">
        <ele>-25.6</ele>
        <time>2022-06-09T09:50:06Z</time>
      </trkpt>
      <trkpt lat="47.4958160" lon="9.4624330">
        <ele>-25.8</ele>
        <time>2022-06-09T09:50:10Z</time>
      </trkpt>
      <trkpt lat="47.4958160" lon="9.4624330">
        <ele>-25.8</ele>
        <time>2022-06-09T09:50:14Z</time>
      </trkpt>
      <trkpt lat="47.4958160" lon="9.4624330">
        <ele>-26.0</ele>
        <time>2022-06-09T09:50:18Z</time>
      </trkpt>
      <trkpt lat="47.4958160" lon="9.4624330">
        <ele>-26.0</ele>
        <time>2022-06-09T09:50:22Z</time>
      </trkpt>
      <trkpt lat="47.4958160" lon="9.4624330">
        <ele>-26.0</ele>
        <time>2022-06-09T09:50:26Z</time>
      </trkpt>
      <trkpt lat="47.4958160" lon="9.4624330">
        <ele>-26.0</ele>
        <time>2022-06-09T09:50:30Z</time>
      </trkpt>
      <trkpt lat="47.4958160" lon="9.4624330">
        <ele>-26.2</ele>
        <time>2022-06-09T09:50:34Z</time>
      </trkpt>
      <trkpt lat="47.4958160" lon="9.4624330">
        <ele>-25.8</ele>
        <time>2022-06-09T09:50:38Z</time>
      </trkpt>
      <trkpt lat="47.4958160" lon="9.4624330">
        <ele>-25.8</ele>
        <time>2022-06-09T09:50:42Z</time>
      </trkpt>
      <trkpt lat="47.4958160" lon="9.4624330">
        <ele>-25.6</ele>
        <time>2022-06-09T09:50:46Z</time>
      </trkpt>
      <trkpt lat="47.4958160" lon="9.4624330">
        <ele>-26.2</ele>
        <time>2022-06-09T09:50:50Z</time>
      </trkpt>
      <trkpt lat="47.4958160" lon="9.4624330">
        <ele>-26.4</ele>
        <time>2022-06-09T09:50:54Z</time>
      </trkpt>
      <trkpt lat="47.4958160" lon="9.4624330">
        <ele>-26.2</ele>
        <time>2022-06-09T09:50:58Z</time>
      </trkpt>
      <trkpt lat="47.4958160" lon="9.4624330">
        <ele>-25.8</ele>
        <time>2022-06-09T09:51:02Z</time>
      </trkpt>
      <trkpt lat="47.4958160" lon="9.4624330">
        <ele>-26.2</ele>
        <time>2022-06-09T09:51:06Z</time>
      </trkpt>
      <trkpt lat="47.4958160" lon="9.4624330">
        <ele>-25.8</ele>
        <time>2022-06-09T09:51:10Z</time>
      </trkpt>
      <trkpt lat="47.4958160" lon="9.4624330">
        <ele>-25.6</ele>
        <time>2022-06-09T09:51:14Z</time>
      </trkpt>
      <trkpt lat="47.4958160" lon="9.4624330">
        <ele>-25.8</ele>
        <time>2022-06-09T09:51:18Z</time>
      </trkpt>
      <trkpt lat="47.4958160" lon="9.4624330">
        <ele>-26.0</ele>
        <time>2022-06-09T09:51:22Z</time>
      </trkpt>
      <trkpt lat="47.4958160" lon="9.4624330">
        <ele>-25.8</ele>
        <time>2022-06-09T09:51:26Z</time>
      </trkpt>
      <trkpt lat="47.4958160" lon="9.4624330">
        <ele>-26.0</ele>
        <time>2022-06-09T09:51:30Z</time>
      </trkpt>
      <trkpt lat="47.4958160" lon="9.4624330">
        <ele>-26.4</ele>
        <time>2022-06-09T09:51:34Z</time>
      </trkpt>
      <trkpt lat="47.4958160" lon="9.4624330">
        <ele>-26.2</ele>
        <time>2022-06-09T09:51:38Z</time>
      </trkpt>
      <trkpt lat="47.4958160" lon="9.4624330">
        <ele>-26.0</ele>
        <time>2022-06-09T09:51:42Z</time>
      </trkpt>
      <trkpt lat="47.4958160" lon="9.4624330">
        <ele>-26.4</ele>
        <time>2022-06-09T09:51:46Z</time>
      </trkpt>
      <trkpt lat="47.4958160" lon="9.4624330">
        <ele>-26.0</ele>
        <time>2022-06-09T09:51:50Z</time>
      </trkpt>
      <trkpt lat="47.4958160" lon="9.4624330">
        <ele>-26.0</ele>
        <time>2022-06-09T09:51:54Z</time>
      </trkpt>
      <trkpt lat="47.4958160" lon="9.4624330">
        <ele>-26.0</ele>
        <time>2022-06-09T09:51:58Z</time>
      </trkpt>
      <trkpt lat="47.4958160" lon="9.4624330">
        <ele>-26.2</ele>
        <time>2022-06-09T09:52:02Z</time>
      </trkpt>
      <trkpt lat="47.4958160" lon="9.4624330">
        <ele>-26.0</ele>
        <time>2022-06-09T09:52:06Z</time>
      </trkpt>
      <trkpt lat="47.4958160" lon="9.4624330">
        <ele>-26.2</ele>
        <time>2022-06-09T09:52:10Z</time>
      </trkpt>
      <trkpt lat="47.4958160" lon="9.4624330">
        <ele>-26.0</ele>
        <time>2022-06-09T09:52:14Z</time>
      </trkpt>
      <trkpt lat="47.4958160" lon="9.4624330">
        <ele>-26.2</ele>
        <time>2022-06-09T09:52:18Z</time>
      </trkpt>
      <trkpt lat="47.4958160" lon="9.4624330">
        <ele>-26.4</ele>
        <time>2022-06-09T09:52:22Z</time>
      </trkpt>
      <trkpt lat="47.4958160" lon="9.4624330">
        <ele>-26.4</ele>
        <time>2022-06-09T09:52:26Z</time>
      </trkpt>
      <trkpt lat="47.4958160" lon="9.4624330">
        <ele>-26.0</ele>
        <time>2022-06-09T09:52:30Z</time>
      </trkpt>
      <trkpt lat="47.4958160" lon="9.4624330">
        <ele>-26.4</ele>
        <time>2022-06-09T09:52:34Z</time>
      </trkpt>
      <trkpt lat="47.4958160" lon="9.4624330">
        <ele>-26.2</ele>
        <time>2022-06-09T09:52:38Z</time>
      </trkpt>
      <trkpt lat="47.4958160" lon="9.4624330">
        <ele>-26.0</ele>
        <time>2022-06-09T09:52:42Z</time>
      </trkpt>
      <trkpt lat="47.4958160" lon="9.4624330">
        <ele>-25.8</ele>
        <time>2022-06-09T09:52:46Z</time>
      </trkpt>
      <trkpt lat="47.4958160" lon="9.4624330">
        <ele>-26.2</ele>
        <time>2022-06-09T09:52:50Z</time>
      </trkpt>
      <trkpt lat="47.4958160" lon="9.4624330">
        <ele>-26.0</ele>
        <time>2022-06-09T09:52:54Z</time>
      </trkpt>
      <trkpt lat="47.4958160" lon="9.4624330">
        <ele>-26.0</ele>
        <time>2022-06-09T09:52:58Z</time>
      </trkpt>
      <trkpt lat="47.4958160" lon="9.4624330">
        <ele>-25.8</ele>
        <time>2022-06-09T09:53:02Z</time>
      </trkpt>
      <trkpt lat="47.4958160" lon="9.4624330">
        <ele>-26.0</ele>
        <time>2022-06-09T09:53:06Z</time>
      </trkpt>
      <trkpt lat="47.4958160" lon="9.4624330">
        <ele>-26.2</ele>
        <time>2022-06-09T09:53:10Z</time>
      </trkpt>
      <trkpt lat="47.4958160" lon="9.4624330">
        <ele>-26.2</ele>
        <time>2022-06-09T09:53:14Z</time>
      </trkpt>
      <trkpt lat="47.4958160" lon="9.4624330">
        <ele>-26.2</ele>
        <time>2022-06-09T09:53:18Z</time>
      </trkpt>
      <trkpt lat="47.4958160" lon="9.4624330">
        <ele>-25.8</ele>
        <time>2022-06-09T09:53:22Z</time>
      </trkpt>
      <trkpt lat="47.4958160" lon="9.4624330">
        <ele>-26.4</ele>
        <time>2022-06-09T09:53:26Z</time>
      </trkpt>
      <trkpt lat="47.4958160" lon="9.4624330">
        <ele>-26.2</ele>
        <time>2022-06-09T09:53:30Z</time>
      </trkpt>
      <trkpt lat="47.4958160" lon="9.4624330">
        <ele>-26.0</ele>
        <time>2022-06-09T09:53:34Z</time>
      </trkpt>
      <trkpt lat="47.4958160" lon="9.4624330">
        <ele>-25.8</ele>
        <time>2022-06-09T09:53:38Z</time>
      </trkpt>
      <trkpt lat="47.4958160" lon="9.4624330">
        <ele>-25.8</ele>
        <time>2022-06-09T09:53:42Z</time>
      </trkpt>
      <trkpt lat="47.4958160" lon="9.4624330">
        <ele>-26.4</ele>
        <time>2022-06-09T09:53:46Z</time>
      </trkpt>
      <trkpt lat="47.4958160" lon="9.4624330">
        <ele>-26.6</ele>
        <time>2022-06-09T09:53:50Z</time>
      </trkpt>
      <trkpt lat="47.4958160" lon="9.4624330">
        <ele>-26.8</ele>
        <time>2022-06-09T09:53:54Z</time>
      </trkpt>
      <trkpt lat="47.4958160" lon="9.4624330">
        <ele>-26.4</ele>
        <time>2022-06-09T09:53:58Z</time>
      </trkpt>
      <trkpt lat="47.4958160" lon="9.4624330">
        <ele>-26.4</ele>
        <time>2022-06-09T09:54:02Z</time>
      </trkpt>
      <trkpt lat="47.4958160" lon="9.4624330">
        <ele>-26.4</ele>
        <time>2022-06-09T09:54:06Z</time>
      </trkpt>
      <trkpt lat="47.4958160" lon="9.4624330">
        <ele>-26.4</ele>
        <time>2022-06-09T09:54:10Z</time>
      </trkpt>
      <trkpt lat="47.4958160" lon="9.4624330">
        <ele>-26.2</ele>
        <time>2022-06-09T09:54:14Z</time>
      </trkpt>
      <trkpt lat="47.4958160" lon="9.4624330">
        <ele>-26.4</ele>
        <time>2022-06-09T09:54:18Z</time>
      </trkpt>
      <trkpt lat="47.4958160" lon="9.4624330">
        <ele>-26.4</ele>
        <time>2022-06-09T09:54:22Z</time>
      </trkpt>
      <trkpt lat="47.4958160" lon="9.4624330">
        <ele>-26.2</ele>
        <time>2022-06-09T09:54:26Z</time>
      </trkpt>
      <trkpt lat="47.4958160" lon="9.4624330">
        <ele>-26.4</ele>
        <time>2022-06-09T09:54:30Z</time>
      </trkpt>
      <trkpt lat="47.4958160" lon="9.4624330">
        <ele>-26.2</ele>
        <time>2022-06-09T09:54:34Z</time>
      </trkpt>
      <trkpt lat="47.4958160" lon="9.4624330">
        <ele>-26.2</ele>
        <time>2022-06-09T09:54:38Z</time>
      </trkpt>
      <trkpt lat="47.4958160" lon="9.4624330">
        <ele>-26.4</ele>
        <time>2022-06-09T09:54:42Z</time>
      </trkpt>
      <trkpt lat="47.4958160" lon="9.4624330">
        <ele>-26.4</ele>
        <time>2022-06-09T09:54:46Z</time>
      </trkpt>
      <trkpt lat="47.4958160" lon="9.4624330">
        <ele>-26.0</ele>
        <time>2022-06-09T09:54:50Z</time>
      </trkpt>
      <trkpt lat="47.4958160" lon="9.4624330">
        <ele>-26.8</ele>
        <time>2022-06-09T09:54:54Z</time>
      </trkpt>
      <trkpt lat="47.4958160" lon="9.4624330">
        <ele>-26.4</ele>
        <time>2022-06-09T09:54:58Z</time>
      </trkpt>
      <trkpt lat="47.4958160" lon="9.4624330">
        <ele>-26.2</ele>
        <time>2022-06-09T09:55:02Z</time>
      </trkpt>
      <trkpt lat="47.4958160" lon="9.4624330">
        <ele>-26.2</ele>
        <time>2022-06-09T09:55:06Z</time>
      </trkpt>
      <trkpt lat="47.4958160" lon="9.4624330">
        <ele>-26.0</ele>
        <time>2022-06-09T09:55:10Z</time>
      </trkpt>
      <trkpt lat="47.4958160" lon="9.4624330">
        <ele>-26.4</ele>
        <time>2022-06-09T09:55:14Z</time>
      </trkpt>
      <trkpt lat="47.4958160" lon="9.4624330">
        <ele>-26.0</ele>
        <time>2022-06-09T09:55:18Z</time>
      </trkpt>
      <trkpt lat="47.4958160" lon="9.4624330">
        <ele>-26.0</ele>
        <time>2022-06-09T09:55:22Z</time>
      </trkpt>
      <trkpt lat="47.4958160" lon="9.4624330">
        <ele>-26.0</ele>
        <time>2022-06-09T09:55:26Z</time>
      </trkpt>
      <trkpt lat="47.4958160" lon="9.4624330">
        <ele>-26.0</ele>
        <time>2022-06-09T09:55:30Z</time>
      </trkpt>
      <trkpt lat="47.4958160" lon="9.4624330">
        <ele>-26.2</ele>
        <time>2022-06-09T09:55:34Z</time>
      </trkpt>
      <trkpt lat="47.4958160" lon="9.4624330">
        <ele>-26.0</ele>
        <time>2022-06-09T09:55:38Z</time>
      </trkpt>
      <trkpt lat="47.4958160" lon="9.4624330">
        <ele>-26.0</ele>
        <time>2022-06-09T09:55:42Z</time>
      </trkpt>
      <trkpt lat="47.4958160" lon="9.4624330">
        <ele>-26.0</ele>
        <time>2022-06-09T09:55:46Z</time>
      </trkpt>
      <trkpt lat="47.4958160" lon="9.4624330">
        <ele>-26.2</ele>
        <time>2022-06-09T09:55:50Z</time>
      </trkpt>
      <trkpt lat="47.4958160" lon="9.4624330">
        <ele>-26.2</ele>
        <time>2022-06-09T09:55:54Z</time>
      </trkpt>
      <trkpt lat="47.4958160" lon="9.4624330">
        <ele>-26.0</ele>
        <time>2022-06-09T09:55:58Z</time>
      </trkpt>
      <trkpt lat="47.4958160" lon="9.4624330">
        <ele>-26.0</ele>
        <time>2022-06-09T09:56:02Z</time>
      </trkpt>
      <trkpt lat="47.4958160" lon="9.4624330">
        <ele>-26.2</ele>
        <time>2022-06-09T09:56:06Z</time>
      </trkpt>
      <trkpt lat="47.4958160" lon="9.4624330">
        <ele>-26.0</ele>
        <time>2022-06-09T09:56:10Z</time>
      </trkpt>
      <trkpt lat="47.4958160" lon="9.4624330">
        <ele>-25.8</ele>
        <time>2022-06-09T09:56:14Z</time>
      </trkpt>
      <trkpt lat="47.4958160" lon="9.4624330">
        <ele>-25.8</ele>
        <time>2022-06-09T09:56:18Z</time>
      </trkpt>
      <trkpt lat="47.4958160" lon="9.4624330">
        <ele>-26.2</ele>
        <time>2022-06-09T09:56:22Z</time>
      </trkpt>
      <trkpt lat="47.4958160" lon="9.4624330">
        <ele>-26.0</ele>
        <time>2022-06-09T09:56:26Z</time>
      </trkpt>
      <trkpt lat="47.4958160" lon="9.4624330">
        <ele>-26.4</ele>
        <time>2022-06-09T09:56:30Z</time>
      </trkpt>
      <trkpt lat="47.4958160" lon="9.4624330">
        <ele>-25.8</ele>
        <time>2022-06-09T09:56:34Z</time>
      </trkpt>
      <trkpt lat="47.4958160" lon="9.4624330">
        <ele>-25.8</ele>
        <time>2022-06-09T09:56:38Z</time>
      </trkpt>
      <trkpt lat="47.4958160" lon="9.4624330">
        <ele>-26.4</ele>
        <time>2022-06-09T09:56:42Z</time>
      </trkpt>
      <trkpt lat="47.4958160" lon="9.4624330">
        <ele>-26.0</ele>
        <time>2022-06-09T09:56:46Z</time>
      </trkpt>
      <trkpt lat="47.4958160" lon="9.4624330">
        <ele>-25.8</ele>
        <time>2022-06-09T09:56:50Z</time>
      </trkpt>
      <trkpt lat="47.4958160" lon="9.4624330">
        <ele>-25.8</ele>
        <time>2022-06-09T09:56:54Z</time>
      </trkpt>
      <trkpt lat="47.4958160" lon="9.4624330">
        <ele>-25.8</ele>
        <time>2022-06-09T09:56:58Z</time>
      </trkpt>
      <trkpt lat="47.4958160" lon="9.4624330">
        <ele>-25.8</ele>
        <time>2022-06-09T09:57:02Z</time>
      </trkpt>
      <trkpt lat="47.4958160" lon="9.4624330">
        <ele>-25.8</ele>
        <time>2022-06-09T09:57:06Z</time>
      </trkpt>
      <trkpt lat="47.4958160" lon="9.4624330">
        <ele>-25.8</ele>
        <time>2022-06-09T09:57:10Z</time>
      </trkpt>
      <trkpt lat="47.4958160" lon="9.4624330">
        <ele>-25.8</ele>
        <time>2022-06-09T09:57:14Z</time>
      </trkpt>
      <trkpt lat="47.4958160" lon="9.4624330">
        <ele>-26.0</ele>
        <time>2022-06-09T09:57:18Z</time>
      </trkpt>
      <trkpt lat="47.4958160" lon="9.4624330">
        <ele>-26.2</ele>
        <time>2022-06-09T09:57:22Z</time>
      </trkpt>
      <trkpt lat="47.4958160" lon="9.4624330">
        <ele>-25.6</ele>
        <time>2022-06-09T09:57:26Z</time>
      </trkpt>
      <trkpt lat="47.4958160" lon="9.4624330">
        <ele>-25.8</ele>
        <time>2022-06-09T09:57:30Z</time>
      </trkpt>
      <trkpt lat="47.4958160" lon="9.4624330">
        <ele>-25.6</ele>
        <time>2022-06-09T09:57:34Z</time>
      </trkpt>
      <trkpt lat="47.4958160" lon="9.4624330">
        <ele>-25.8</ele>
        <time>2022-06-09T09:57:38Z</time>
      </trkpt>
      <trkpt lat="47.4958160" lon="9.4624330">
        <ele>-25.8</ele>
        <time>2022-06-09T09:57:42Z</time>
      </trkpt>
      <trkpt lat="47.4958160" lon="9.4624330">
        <ele>-25.8</ele>
        <time>2022-06-09T09:57:46Z</time>
      </trkpt>
      <trkpt lat="47.4958160" lon="9.4624330">
        <ele>-25.8</ele>
        <time>2022-06-09T09:57:50Z</time>
      </trkpt>
      <trkpt lat="47.4958160" lon="9.4624330">
        <ele>-25.8</ele>
        <time>2022-06-09T09:57:54Z</time>
      </trkpt>
      <trkpt lat="47.4958160" lon="9.4624330">
        <ele>-25.8</ele>
        <time>2022-06-09T09:57:58Z</time>
      </trkpt>
      <trkpt lat="47.4958160" lon="9.4624330">
        <ele>-25.6</ele>
        <time>2022-06-09T09:58:02Z</time>
      </trkpt>
      <trkpt lat="47.4958160" lon="9.4624330">
        <ele>-25.8</ele>
        <time>2022-06-09T09:58:06Z</time>
      </trkpt>
      <trkpt lat="47.4958160" lon="9.4624330">
        <ele>-26.2</ele>
        <time>2022-06-09T09:58:10Z</time>
      </trkpt>
      <trkpt lat="47.4958160" lon="9.4624330">
        <ele>-25.6</ele>
        <time>2022-06-09T09:58:14Z</time>
      </trkpt>
      <trkpt lat="47.4958160" lon="9.4624330">
        <ele>-25.8</ele>
        <time>2022-06-09T09:58:18Z</time>
      </trkpt>
      <trkpt lat="47.4958160" lon="9.4624330">
        <ele>-25.6</ele>
        <time>2022-06-09T09:58:22Z</time>
      </trkpt>
      <trkpt lat="47.4958160" lon="9.4624330">
        <ele>-25.8</ele>
        <time>2022-06-09T09:58:26Z</time>
      </trkpt>
      <trkpt lat="47.4958160" lon="9.4624330">
        <ele>-25.8</ele>
        <time>2022-06-09T09:58:30Z</time>
      </trkpt>
      <trkpt lat="47.4958160" lon="9.4624330">
        <ele>-25.6</ele>
        <time>2022-06-09T09:58:34Z</time>
      </trkpt>
      <trkpt lat="47.4958160" lon="9.4624330">
        <ele>-25.8</ele>
        <time>2022-06-09T09:58:38Z</time>
      </trkpt>
      <trkpt lat="47.4958160" lon="9.4624330">
        <ele>-25.8</ele>
        <time>2022-06-09T09:58:42Z</time>
      </trkpt>
      <trkpt lat="47.4958160" lon="9.4624330">
        <ele>-25.4</ele>
        <time>2022-06-09T09:58:46Z</time>
      </trkpt>
      <trkpt lat="47.4958160" lon="9.4624330">
        <ele>-25.8</ele>
        <time>2022-06-09T09:58:50Z</time>
      </trkpt>
      <trkpt lat="47.4958160" lon="9.4624330">
        <ele>-25.8</ele>
        <time>2022-06-09T09:58:54Z</time>
      </trkpt>
      <trkpt lat="47.4958160" lon="9.4624330">
        <ele>-25.6</ele>
        <time>2022-06-09T09:58:58Z</time>
      </trkpt>
      <trkpt lat="47.4958160" lon="9.4624330">
        <ele>-25.8</ele>
        <time>2022-06-09T09:59:02Z</time>
      </trkpt>
      <trkpt lat="47.4958160" lon="9.4624330">
        <ele>-25.8</ele>
        <time>2022-06-09T09:59:06Z</time>
      </trkpt>
      <trkpt lat="47.4958160" lon="9.4624330">
        <ele>-25.8</ele>
        <time>2022-06-09T09:59:10Z</time>
      </trkpt>
      <trkpt lat="47.4958160" lon="9.4624330">
        <ele>-25.6</ele>
        <time>2022-06-09T09:59:14Z</time>
      </trkpt>
      <trkpt lat="47.4958160" lon="9.4624330">
        <ele>-25.8</ele>
        <time>2022-06-09T09:59:18Z</time>
      </trkpt>
      <trkpt lat="47.4958160" lon="9.4624330">
        <ele>-25.8</ele>
        <time>2022-06-09T09:59:22Z</time>
      </trkpt>
      <trkpt lat="47.4958160" lon="9.4624330">
        <ele>-25.6</ele>
        <time>2022-06-09T09:59:26Z</time>
      </trkpt>
      <trkpt lat="47.4958160" lon="9.4624330">
        <ele>-25.8</ele>
        <time>2022-06-09T09:59:30Z</time>
      </trkpt>
      <trkpt lat="47.4958160" lon="9.4624330">
        <ele>-25.8</ele>
        <time>2022-06-09T09:59:34Z</time>
      </trkpt>
      <trkpt lat="47.4958160" lon="9.4624330">
        <ele>-25.8</ele>
        <time>2022-06-09T09:59:38Z</time>
      </trkpt>
      <trkpt lat="47.4958160" lon="9.4624330">
        <ele>-25.6</ele>
        <time>2022-06-09T09:59:42Z</time>
      </trkpt>
      <trkpt lat="47.4958160" lon="9.4624330">
        <ele>-26.2</ele>
        <time>2022-06-09T09:59:46Z</time>
      </trkpt>
      <trkpt lat="47.4958160" lon="9.4624330">
        <ele>-25.8</ele>
        <time>2022-06-09T09:59:50Z</time>
      </trkpt>
      <trkpt lat="47.4958160" lon="9.4624330">
        <ele>-25.8</ele>
        <time>2022-06-09T09:59:54Z</time>
      </trkpt>
      <trkpt lat="47.4958160" lon="9.4624330">
        <ele>-26.0</ele>
        <time>2022-06-09T09:59:58Z</time>
      </trkpt>
      <trkpt lat="47.4958160" lon="9.4624330">
        <ele>-26.2</ele>
        <time>2022-06-09T10:00:02Z</time>
      </trkpt>
      <trkpt lat="47.4958160" lon="9.4624330">
        <ele>-26.2</ele>
        <time>2022-06-09T10:00:06Z</time>
      </trkpt>
      <trkpt lat="47.4958160" lon="9.4624330">
        <ele>-25.8</ele>
        <time>2022-06-09T10:00:10Z</time>
      </trkpt>
      <trkpt lat="47.4958160" lon="9.4624330">
        <ele>-26.2</ele>
        <time>2022-06-09T10:00:14Z</time>
      </trkpt>
      <trkpt lat="47.4958160" lon="9.4624330">
        <ele>-26.4</ele>
        <time>2022-06-09T10:00:18Z</time>
      </trkpt>
      <trkpt lat="47.4958160" lon="9.4624330">
        <ele>-26.4</ele>
        <time>2022-06-09T10:00:22Z</time>
      </trkpt>
      <trkpt lat="47.4958160" lon="9.4624330">
        <ele>-26.4</ele>
        <time>2022-06-09T10:00:26Z</time>
      </trkpt>
      <trkpt lat="47.4958160" lon="9.4624330">
        <ele>-26.2</ele>
        <time>2022-06-09T10:00:30Z</time>
      </trkpt>
      <trkpt lat="47.4958160" lon="9.4624330">
        <ele>-26.4</ele>
        <time>2022-06-09T10:00:34Z</time>
      </trkpt>
      <trkpt lat="47.4958160" lon="9.4624330">
        <ele>-26.2</ele>
        <time>2022-06-09T10:00:38Z</time>
      </trkpt>
      <trkpt lat="47.4958160" lon="9.4624330">
        <ele>-25.8</ele>
        <time>2022-06-09T10:00:42Z</time>
      </trkpt>
      <trkpt lat="47.4958160" lon="9.4624330">
        <ele>-26.4</ele>
        <time>2022-06-09T10:00:46Z</time>
      </trkpt>
      <trkpt lat="47.4958160" lon="9.4624330">
        <ele>-26.4</ele>
        <time>2022-06-09T10:00:50Z</time>
      </trkpt>
      <trkpt lat="47.4958160" lon="9.4624330">
        <ele>-26.4</ele>
        <time>2022-06-09T10:00:54Z</time>
      </trkpt>
      <trkpt lat="47.4958160" lon="9.4624330">
        <ele>-26.4</ele>
        <time>2022-06-09T10:00:58Z</time>
      </trkpt>
      <trkpt lat="47.4958160" lon="9.4624330">
        <ele>-26.4</ele>
        <time>2022-06-09T10:01:02Z</time>
      </trkpt>
      <trkpt lat="47.4958160" lon="9.4624330">
        <ele>-26.4</ele>
        <time>2022-06-09T10:01:06Z</time>
      </trkpt>
      <trkpt lat="47.4958160" lon="9.4624330">
        <ele>-26.4</ele>
        <time>2022-06-09T10:01:10Z</time>
      </trkpt>
      <trkpt lat="47.4958160" lon="9.4624330">
        <ele>-26.4</ele>
        <time>2022-06-09T10:01:14Z</time>
      </trkpt>
      <trkpt lat="47.4958160" lon="9.4624330">
        <ele>-26.4</ele>
        <time>2022-06-09T10:01:18Z</time>
      </trkpt>
      <trkpt lat="47.4958160" lon="9.4624330">
        <ele>-26.4</ele>
        <time>2022-06-09T10:01:22Z</time>
      </trkpt>
      <trkpt lat="47.4958160" lon="9.4624330">
        <ele>-26.6</ele>
        <time>2022-06-09T10:01:26Z</time>
      </trkpt>
      <trkpt lat="47.4958160" lon="9.4624330">
        <ele>-27.0</ele>
        <time>2022-06-09T10:01:30Z</time>
      </trkpt>
      <trkpt lat="47.4958160" lon="9.4624330">
        <ele>-26.8</ele>
        <time>2022-06-09T10:01:34Z</time>
      </trkpt>
      <trkpt lat="47.4958160" lon="9.4624330">
        <ele>-26.8</ele>
        <time>2022-06-09T10:01:38Z</time>
      </trkpt>
      <trkpt lat="47.4958160" lon="9.4624330">
        <ele>-26.8</ele>
        <time>2022-06-09T10:01:42Z</time>
      </trkpt>
      <trkpt lat="47.4958160" lon="9.4624330">
        <ele>-27.0</ele>
        <time>2022-06-09T10:01:46Z</time>
      </trkpt>
      <trkpt lat="47.4958160" lon="9.4624330">
        <ele>-27.0</ele>
        <time>2022-06-09T10:01:50Z</time>
      </trkpt>
      <trkpt lat="47.4958160" lon="9.4624330">
        <ele>-26.8</ele>
        <time>2022-06-09T10:01:54Z</time>
      </trkpt>
      <trkpt lat="47.4958160" lon="9.4624330">
        <ele>-27.0</ele>
        <time>2022-06-09T10:01:58Z</time>
      </trkpt>
      <trkpt lat="47.4958160" lon="9.4624330">
        <ele>-26.8</ele>
        <time>2022-06-09T10:02:02Z</time>
      </trkpt>
      <trkpt lat="47.4958160" lon="9.4624330">
        <ele>-27.0</ele>
        <time>2022-06-09T10:02:06Z</time>
      </trkpt>
      <trkpt lat="47.4958160" lon="9.4624330">
        <ele>-27.2</ele>
        <time>2022-06-09T10:02:10Z</time>
      </trkpt>
      <trkpt lat="47.4958160" lon="9.4624330">
        <ele>-26.6</ele>
        <time>2022-06-09T10:02:14Z</time>
      </trkpt>
      <trkpt lat="47.4958160" lon="9.4624330">
        <ele>-27.0</ele>
        <time>2022-06-09T10:02:18Z</time>
      </trkpt>
      <trkpt lat="47.4958160" lon="9.4624330">
        <ele>-27.2</ele>
        <time>2022-06-09T10:02:22Z</time>
      </trkpt>
      <trkpt lat="47.4958160" lon="9.4624330">
        <ele>-27.0</ele>
        <time>2022-06-09T10:02:26Z</time>
      </trkpt>
      <trkpt lat="47.4958160" lon="9.4624330">
        <ele>-27.2</ele>
        <time>2022-06-09T10:02:30Z</time>
      </trkpt>
      <trkpt lat="47.4958160" lon="9.4624330">
        <ele>-27.2</ele>
        <time>2022-06-09T10:02:34Z</time>
      </trkpt>
      <trkpt lat="47.4958160" lon="9.4624330">
        <ele>-27.2</ele>
        <time>2022-06-09T10:02:38Z</time>
      </trkpt>
      <trkpt lat="47.4958160" lon="9.4624330">
        <ele>-27.0</ele>
        <time>2022-06-09T10:02:42Z</time>
      </trkpt>
      <trkpt lat="47.4958160" lon="9.4624330">
        <ele>-27.2</ele>
        <time>2022-06-09T10:02:46Z</time>
      </trkpt>
      <trkpt lat="47.4958160" lon="9.4624330">
        <ele>-27.0</ele>
        <time>2022-06-09T10:02:50Z</time>
      </trkpt>
      <trkpt lat="47.4958160" lon="9.4624330">
        <ele>-27.4</ele>
        <time>2022-06-09T10:02:54Z</time>
      </trkpt>
      <trkpt lat="47.4958160" lon="9.4624330">
        <ele>-27.2</ele>
        <time>2022-06-09T10:02:58Z</time>
      </trkpt>
      <trkpt lat="47.4958160" lon="9.4624330">
        <ele>-27.2</ele>
        <time>2022-06-09T10:03:02Z</time>
      </trkpt>
      <trkpt lat="47.4958160" lon="9.4624330">
        <ele>-27.0</ele>
        <time>2022-06-09T10:03:06Z</time>
      </trkpt>
      <trkpt lat="47.4958160" lon="9.4624330">
        <ele>-27.2</ele>
        <time>2022-06-09T10:03:10Z</time>
      </trkpt>
      <trkpt lat="47.4958160" lon="9.4624330">
        <ele>-27.4</ele>
        <time>2022-06-09T10:03:14Z</time>
      </trkpt>
      <trkpt lat="47.4958160" lon="9.4624330">
        <ele>-27.2</ele>
        <time>2022-06-09T10:03:18Z</time>
      </trkpt>
      <trkpt lat="47.4958160" lon="9.4624330">
        <ele>-27.4</ele>
        <time>2022-06-09T10:03:22Z</time>
      </trkpt>
      <trkpt lat="47.4958160" lon="9.4624330">
        <ele>-27.2</ele>
        <time>2022-06-09T10:03:26Z</time>
      </trkpt>
      <trkpt lat="47.4958160" lon="9.4624330">
        <ele>-27.4</ele>
        <time>2022-06-09T10:03:30Z</time>
      </trkpt>
      <trkpt lat="47.4958160" lon="9.4624330">
        <ele>-27.2</ele>
        <time>2022-06-09T10:03:34Z</time>
      </trkpt>
      <trkpt lat="47.4958160" lon="9.4624330">
        <ele>-27.0</ele>
        <time>2022-06-09T10:03:38Z</time>
      </trkpt>
      <trkpt lat="47.4958160" lon="9.4624330">
        <ele>-27.2</ele>
        <time>2022-06-09T10:03:42Z</time>
      </trkpt>
      <trkpt lat="47.4958160" lon="9.4624330">
        <ele>-27.2</ele>
        <time>2022-06-09T10:03:46Z</time>
      </trkpt>
      <trkpt lat="47.4958160" lon="9.4624330">
        <ele>-27.2</ele>
        <time>2022-06-09T10:03:50Z</time>
      </trkpt>
      <trkpt lat="47.4958160" lon="9.4624330">
        <ele>-27.4</ele>
        <time>2022-06-09T10:03:54Z</time>
      </trkpt>
      <trkpt lat="47.4958160" lon="9.4624330">
        <ele>-27.6</ele>
        <time>2022-06-09T10:03:58Z</time>
      </trkpt>
      <trkpt lat="47.4958160" lon="9.4624330">
        <ele>-27.8</ele>
        <time>2022-06-09T10:04:02Z</time>
      </trkpt>
      <trkpt lat="47.4958160" lon="9.4624330">
        <ele>-27.4</ele>
        <time>2022-06-09T10:04:06Z</time>
      </trkpt>
      <trkpt lat="47.4958160" lon="9.4624330">
        <ele>-27.6</ele>
        <time>2022-06-09T10:04:10Z</time>
      </trkpt>
      <trkpt lat="47.4958160" lon="9.4624330">
        <ele>-27.4</ele>
        <time>2022-06-09T10:04:14Z</time>
      </trkpt>
      <trkpt lat="47.4958160" lon="9.4624330">
        <ele>-27.8</ele>
        <time>2022-06-09T10:04:18Z</time>
      </trkpt>
      <trkpt lat="47.4958160" lon="9.4624330">
        <ele>-27.8</ele>
        <time>2022-06-09T10:04:22Z</time>
      </trkpt>
      <trkpt lat="47.4958160" lon="9.4624330">
        <ele>-27.4</ele>
        <time>2022-06-09T10:04:26Z</time>
      </trkpt>
      <trkpt lat="47.4958160" lon="9.4624330">
        <ele>-27.6</ele>
        <time>2022-06-09T10:04:30Z</time>
      </trkpt>
      <trkpt lat="47.4958160" lon="9.4624330">
        <ele>-27.2</ele>
        <time>2022-06-09T10:04:34Z</time>
      </trkpt>
      <trkpt lat="47.4958160" lon="9.4624330">
        <ele>-27.4</ele>
        <time>2022-06-09T10:04:38Z</time>
      </trkpt>
      <trkpt lat="47.4958160" lon="9.4624330">
        <ele>-27.8</ele>
        <time>2022-06-09T10:04:42Z</time>
      </trkpt>
      <trkpt lat="47.4958160" lon="9.4624330">
        <ele>-27.8</ele>
        <time>2022-06-09T10:04:46Z</time>
      </trkpt>
      <trkpt lat="47.4958160" lon="9.4624330">
        <ele>-27.8</ele>
        <time>2022-06-09T10:04:50Z</time>
      </trkpt>
      <trkpt lat="47.4958160" lon="9.4624330">
        <ele>-27.8</ele>
        <time>2022-06-09T10:04:54Z</time>
      </trkpt>
      <trkpt lat="47.4958160" lon="9.4624330">
        <ele>-27.8</ele>
        <time>2022-06-09T10:04:58Z</time>
      </trkpt>
      <trkpt lat="47.4958160" lon="9.4624330">
        <ele>-27.8</ele>
        <time>2022-06-09T10:05:02Z</time>
      </trkpt>
      <trkpt lat="47.4958160" lon="9.4624330">
        <ele>-28.0</ele>
        <time>2022-06-09T10:05:06Z</time>
      </trkpt>
      <trkpt lat="47.4958160" lon="9.4624330">
        <ele>-27.8</ele>
        <time>2022-06-09T10:05:10Z</time>
      </trkpt>
      <trkpt lat="47.4958160" lon="9.4624330">
        <ele>-27.8</ele>
        <time>2022-06-09T10:05:14Z</time>
      </trkpt>
      <trkpt lat="47.4958160" lon="9.4624330">
        <ele>-27.6</ele>
        <time>2022-06-09T10:05:18Z</time>
      </trkpt>
      <trkpt lat="47.4958160" lon="9.4624330">
        <ele>-27.8</ele>
        <time>2022-06-09T10:05:22Z</time>
      </trkpt>
      <trkpt lat="47.4958160" lon="9.4624330">
        <ele>-27.8</ele>
        <time>2022-06-09T10:05:26Z</time>
      </trkpt>
      <trkpt lat="47.4958160" lon="9.4624330">
        <ele>-27.2</ele>
        <time>2022-06-09T10:05:30Z</time>
      </trkpt>
      <trkpt lat="47.4958160" lon="9.4624330">
        <ele>-27.8</ele>
        <time>2022-06-09T10:05:34Z</time>
      </trkpt>
      <trkpt lat="47.4958160" lon="9.4624330">
        <ele>-27.8</ele>
        <time>2022-06-09T10:05:38Z</time>
      </trkpt>
      <trkpt lat="47.4958160" lon="9.4624330">
        <ele>-27.8</ele>
        <time>2022-06-09T10:05:42Z</time>
      </trkpt>
      <trkpt lat="47.4958160" lon="9.4624330">
        <ele>-27.4</ele>
        <time>2022-06-09T10:05:46Z</time>
      </trkpt>
      <trkpt lat="47.4958160" lon="9.4624330">
        <ele>-27.8</ele>
        <time>2022-06-09T10:05:50Z</time>
      </trkpt>
      <trkpt lat="47.4958160" lon="9.4624330">
        <ele>-27.6</ele>
        <time>2022-06-09T10:05:54Z</time>
      </trkpt>
      <trkpt lat="47.4958160" lon="9.4624330">
        <ele>-28.2</ele>
        <time>2022-06-09T10:05:58Z</time>
      </trkpt>
      <trkpt lat="47.4958160" lon="9.4624330">
        <ele>-27.6</ele>
        <time>2022-06-09T10:06:02Z</time>
      </trkpt>
      <trkpt lat="47.4958160" lon="9.4624330">
        <ele>-27.4</ele>
        <time>2022-06-09T10:06:06Z</time>
      </trkpt>
      <trkpt lat="47.4958160" lon="9.4624330">
        <ele>-27.8</ele>
        <time>2022-06-09T10:06:10Z</time>
      </trkpt>
      <trkpt lat="47.4958160" lon="9.4624330">
        <ele>-27.6</ele>
        <time>2022-06-09T10:06:14Z</time>
      </trkpt>
      <trkpt lat="47.4958160" lon="9.4624330">
        <ele>-27.8</ele>
        <time>2022-06-09T10:06:18Z</time>
      </trkpt>
      <trkpt lat="47.4958160" lon="9.4624330">
        <ele>-27.8</ele>
        <time>2022-06-09T10:06:22Z</time>
      </trkpt>
      <trkpt lat="47.4958160" lon="9.4624330">
        <ele>-28.0</ele>
        <time>2022-06-09T10:06:26Z</time>
      </trkpt>
      <trkpt lat="47.4958160" lon="9.4624330">
        <ele>-27.8</ele>
        <time>2022-06-09T10:06:30Z</time>
      </trkpt>
      <trkpt lat="47.4958160" lon="9.4624330">
        <ele>-28.0</ele>
        <time>2022-06-09T10:06:34Z</time>
      </trkpt>
      <trkpt lat="47.4958160" lon="9.4624330">
        <ele>-28.0</ele>
        <time>2022-06-09T10:06:38Z</time>
      </trkpt>
      <trkpt lat="47.4958160" lon="9.4624330">
        <ele>-27.8</ele>
        <time>2022-06-09T10:06:42Z</time>
      </trkpt>
      <trkpt lat="47.4958160" lon="9.4624330">
        <ele>-27.8</ele>
        <time>2022-06-09T10:06:46Z</time>
      </trkpt>
      <trkpt lat="47.4958160" lon="9.4624330">
        <ele>-28.0</ele>
        <time>2022-06-09T10:06:50Z</time>
      </trkpt>
      <trkpt lat="47.4958160" lon="9.4624330">
        <ele>-28.2</ele>
        <time>2022-06-09T10:06:54Z</time>
      </trkpt>
      <trkpt lat="47.4958160" lon="9.4624330">
        <ele>-27.8</ele>
        <time>2022-06-09T10:06:58Z</time>
      </trkpt>
      <trkpt lat="47.4958160" lon="9.4624330">
        <ele>-28.0</ele>
        <time>2022-06-09T10:07:02Z</time>
      </trkpt>
      <trkpt lat="47.4958160" lon="9.4624330">
        <ele>-27.8</ele>
        <time>2022-06-09T10:07:06Z</time>
      </trkpt>
      <trkpt lat="47.4958160" lon="9.4624330">
        <ele>-27.8</ele>
        <time>2022-06-09T10:07:10Z</time>
      </trkpt>
      <trkpt lat="47.4958160" lon="9.4624330">
        <ele>-27.8</ele>
        <time>2022-06-09T10:07:14Z</time>
      </trkpt>
      <trkpt lat="47.4958160" lon="9.4624330">
        <ele>-27.4</ele>
        <time>2022-06-09T10:07:18Z</time>
      </trkpt>
      <trkpt lat="47.4958160" lon="9.4624330">
        <ele>-28.2</ele>
        <time>2022-06-09T10:07:22Z</time>
      </trkpt>
      <trkpt lat="47.4958160" lon="9.4624330">
        <ele>-28.2</ele>
        <time>2022-06-09T10:07:26Z</time>
      </trkpt>
      <trkpt lat="47.4958160" lon="9.4624330">
        <ele>-28.0</ele>
        <time>2022-06-09T10:07:30Z</time>
      </trkpt>
      <trkpt lat="47.4958160" lon="9.4624330">
        <ele>-27.8</ele>
        <time>2022-06-09T10:07:34Z</time>
      </trkpt>
      <trkpt lat="47.4958160" lon="9.4624330">
        <ele>-28.0</ele>
        <time>2022-06-09T10:07:38Z</time>
      </trkpt>
      <trkpt lat="47.4958160" lon="9.4624330">
        <ele>-27.8</ele>
        <time>2022-06-09T10:07:42Z</time>
      </trkpt>
      <trkpt lat="47.4958160" lon="9.4624330">
        <ele>-28.2</ele>
        <time>2022-06-09T10:07:46Z</time>
      </trkpt>
      <trkpt lat="47.4958160" lon="9.4624330">
        <ele>-27.8</ele>
        <time>2022-06-09T10:07:50Z</time>
      </trkpt>
      <trkpt lat="47.4958160" lon="9.4624330">
        <ele>-27.8</ele>
        <time>2022-06-09T10:07:54Z</time>
      </trkpt>
      <trkpt lat="47.4958160" lon="9.4624330">
        <ele>-28.0</ele>
        <time>2022-06-09T10:07:58Z</time>
      </trkpt>
      <trkpt lat="47.4958160" lon="9.4624330">
        <ele>-28.2</ele>
        <time>2022-06-09T10:08:02Z</time>
      </trkpt>
      <trkpt lat="47.4958160" lon="9.4624330">
        <ele>-27.6</ele>
        <time>2022-06-09T10:08:06Z</time>
      </trkpt>
      <trkpt lat="47.4958160" lon="9.4624330">
        <ele>-28.0</ele>
        <time>2022-06-09T10:08:10Z</time>
      </trkpt>
      <trkpt lat="47.4958160" lon="9.4624330">
        <ele>-27.8</ele>
        <time>2022-06-09T10:08:14Z</time>
      </trkpt>
      <trkpt lat="47.4958160" lon="9.4624330">
        <ele>-27.8</ele>
        <time>2022-06-09T10:08:18Z</time>
      </trkpt>
      <trkpt lat="47.4958160" lon="9.4624330">
        <ele>-27.8</ele>
        <time>2022-06-09T10:08:22Z</time>
      </trkpt>
      <trkpt lat="47.4958160" lon="9.4624330">
        <ele>-27.8</ele>
        <time>2022-06-09T10:08:26Z</time>
      </trkpt>
      <trkpt lat="47.4958160" lon="9.4624330">
        <ele>-28.0</ele>
        <time>2022-06-09T10:08:30Z</time>
      </trkpt>
      <trkpt lat="47.4958160" lon="9.4624330">
        <ele>-28.0</ele>
        <time>2022-06-09T10:08:34Z</time>
      </trkpt>
      <trkpt lat="47.4958160" lon="9.4624330">
        <ele>-28.2</ele>
        <time>2022-06-09T10:08:38Z</time>
      </trkpt>
      <trkpt lat="47.4958160" lon="9.4624330">
        <ele>-28.2</ele>
        <time>2022-06-09T10:08:42Z</time>
      </trkpt>
      <trkpt lat="47.4958160" lon="9.4624330">
        <ele>-28.2</ele>
        <time>2022-06-09T10:08:46Z</time>
      </trkpt>
      <trkpt lat="47.4958160" lon="9.4624330">
        <ele>-27.6</ele>
        <time>2022-06-09T10:08:50Z</time>
      </trkpt>
      <trkpt lat="47.4958160" lon="9.4624330">
        <ele>-27.6</ele>
        <time>2022-06-09T10:08:54Z</time>
      </trkpt>
      <trkpt lat="47.4958160" lon="9.4624330">
        <ele>-28.0</ele>
        <time>2022-06-09T10:08:58Z</time>
      </trkpt>
      <trkpt lat="47.4958160" lon="9.4624330">
        <ele>-27.8</ele>
        <time>2022-06-09T10:09:02Z</time>
      </trkpt>
      <trkpt lat="47.4958160" lon="9.4624330">
        <ele>-27.6</ele>
        <time>2022-06-09T10:09:06Z</time>
      </trkpt>
      <trkpt lat="47.4958160" lon="9.4624330">
        <ele>-27.6</ele>
        <time>2022-06-09T10:09:10Z</time>
      </trkpt>
      <trkpt lat="47.4958160" lon="9.4624330">
        <ele>-27.8</ele>
        <time>2022-06-09T10:09:14Z</time>
      </trkpt>
      <trkpt lat="47.4958160" lon="9.4624330">
        <ele>-27.6</ele>
        <time>2022-06-09T10:09:18Z</time>
      </trkpt>
      <trkpt lat="47.4958160" lon="9.4624330">
        <ele>-27.8</ele>
        <time>2022-06-09T10:09:22Z</time>
      </trkpt>
      <trkpt lat="47.4958160" lon="9.4624330">
        <ele>-27.8</ele>
        <time>2022-06-09T10:09:26Z</time>
      </trkpt>
      <trkpt lat="47.4958160" lon="9.4624330">
        <ele>-27.6</ele>
        <time>2022-06-09T10:09:30Z</time>
      </trkpt>
      <trkpt lat="47.4958160" lon="9.4624330">
        <ele>-27.8</ele>
        <time>2022-06-09T10:09:34Z</time>
      </trkpt>
      <trkpt lat="47.4958160" lon="9.4624330">
        <ele>-27.4</ele>
        <time>2022-06-09T10:09:38Z</time>
      </trkpt>
      <trkpt lat="47.4958160" lon="9.4624330">
        <ele>-27.4</ele>
        <time>2022-06-09T10:09:42Z</time>
      </trkpt>
      <trkpt lat="47.4958160" lon="9.4624330">
        <ele>-27.6</ele>
        <time>2022-06-09T10:09:46Z</time>
      </trkpt>
      <trkpt lat="47.4958160" lon="9.4624330">
        <ele>-27.8</ele>
        <time>2022-06-09T10:09:50Z</time>
      </trkpt>
      <trkpt lat="47.4958160" lon="9.4624330">
        <ele>-27.8</ele>
        <time>2022-06-09T10:09:54Z</time>
      </trkpt>
      <trkpt lat="47.4958160" lon="9.4624330">
        <ele>-27.8</ele>
        <time>2022-06-09T10:09:58Z</time>
      </trkpt>
      <trkpt lat="47.4958160" lon="9.4624330">
        <ele>-27.4</ele>
        <time>2022-06-09T10:10:02Z</time>
      </trkpt>
      <trkpt lat="47.4958160" lon="9.4624330">
        <ele>-27.6</ele>
        <time>2022-06-09T10:10:06Z</time>
      </trkpt>
      <trkpt lat="47.4958160" lon="9.4624330">
        <ele>-27.8</ele>
        <time>2022-06-09T10:10:10Z</time>
      </trkpt>
      <trkpt lat="47.4958160" lon="9.4624330">
        <ele>-27.8</ele>
        <time>2022-06-09T10:10:14Z</time>
      </trkpt>
      <trkpt lat="47.4958160" lon="9.4624330">
        <ele>-27.6</ele>
        <time>2022-06-09T10:10:18Z</time>
      </trkpt>
      <trkpt lat="47.4958160" lon="9.4624330">
        <ele>-27.8</ele>
        <time>2022-06-09T10:10:22Z</time>
      </trkpt>
      <trkpt lat="47.4958160" lon="9.4624330">
        <ele>-27.6</ele>
        <time>2022-06-09T10:10:26Z</time>
      </trkpt>
      <trkpt lat="47.4958160" lon="9.4624330">
        <ele>-27.4</ele>
        <time>2022-06-09T10:10:30Z</time>
      </trkpt>
      <trkpt lat="47.4958160" lon="9.4624330">
        <ele>-27.8</ele>
        <time>2022-06-09T10:10:34Z</time>
      </trkpt>
      <trkpt lat="47.4958160" lon="9.4624330">
        <ele>-28.0</ele>
        <time>2022-06-09T10:10:38Z</time>
      </trkpt>
      <trkpt lat="47.4958160" lon="9.4624330">
        <ele>-27.8</ele>
        <time>2022-06-09T10:10:42Z</time>
      </trkpt>
      <trkpt lat="47.4958160" lon="9.4624330">
        <ele>-27.8</ele>
        <time>2022-06-09T10:10:46Z</time>
      </trkpt>
      <trkpt lat="47.4958160" lon="9.4624330">
        <ele>-27.8</ele>
        <time>2022-06-09T10:10:50Z</time>
      </trkpt>
      <trkpt lat="47.4958160" lon="9.4624330">
        <ele>-27.6</ele>
        <time>2022-06-09T10:10:54Z</time>
      </trkpt>
      <trkpt lat="47.4958160" lon="9.4624330">
        <ele>-27.8</ele>
        <time>2022-06-09T10:10:58Z</time>
      </trkpt>
      <trkpt lat="47.4958160" lon="9.4624330">
        <ele>-28.0</ele>
        <time>2022-06-09T10:11:02Z</time>
      </trkpt>
      <trkpt lat="47.4958160" lon="9.4624330">
        <ele>-27.6</ele>
        <time>2022-06-09T10:11:06Z</time>
      </trkpt>
      <trkpt lat="47.4958160" lon="9.4624330">
        <ele>-28.0</ele>
        <time>2022-06-09T10:11:10Z</time>
      </trkpt>
      <trkpt lat="47.4958160" lon="9.4624330">
        <ele>-28.4</ele>
        <time>2022-06-09T10:11:14Z</time>
      </trkpt>
      <trkpt lat="47.4958160" lon="9.4624330">
        <ele>-27.6</ele>
        <time>2022-06-09T10:11:18Z</time>
      </trkpt>
      <trkpt lat="47.4958160" lon="9.4624330">
        <ele>-28.2</ele>
        <time>2022-06-09T10:11:22Z</time>
      </trkpt>
      <trkpt lat="47.4958160" lon="9.4624330">
        <ele>-28.0</ele>
        <time>2022-06-09T10:11:26Z</time>
      </trkpt>
      <trkpt lat="47.4958160" lon="9.4624330">
        <ele>-28.2</ele>
        <time>2022-06-09T10:11:30Z</time>
      </trkpt>
      <trkpt lat="47.4958160" lon="9.4624330">
        <ele>-28.2</ele>
        <time>2022-06-09T10:11:34Z</time>
      </trkpt>
      <trkpt lat="47.4958160" lon="9.4624330">
        <ele>-28.2</ele>
        <time>2022-06-09T10:11:38Z</time>
      </trkpt>
      <trkpt lat="47.4958160" lon="9.4624330">
        <ele>-28.4</ele>
        <time>2022-06-09T10:11:42Z</time>
      </trkpt>
      <trkpt lat="47.4958160" lon="9.4624330">
        <ele>-28.4</ele>
        <time>2022-06-09T10:11:46Z</time>
      </trkpt>
      <trkpt lat="47.4958160" lon="9.4624330">
        <ele>-28.4</ele>
        <time>2022-06-09T10:11:50Z</time>
      </trkpt>
      <trkpt lat="47.4958160" lon="9.4624330">
        <ele>-28.4</ele>
        <time>2022-06-09T10:11:54Z</time>
      </trkpt>
      <trkpt lat="47.4958160" lon="9.4624330">
        <ele>-29.0</ele>
        <time>2022-06-09T10:11:58Z</time>
      </trkpt>
      <trkpt lat="47.4958160" lon="9.4624330">
        <ele>-28.2</ele>
        <time>2022-06-09T10:12:02Z</time>
      </trkpt>
      <trkpt lat="47.4958160" lon="9.4624330">
        <ele>-28.6</ele>
        <time>2022-06-09T10:12:06Z</time>
      </trkpt>
      <trkpt lat="47.4958160" lon="9.4624330">
        <ele>-28.4</ele>
        <time>2022-06-09T10:12:10Z</time>
      </trkpt>
      <trkpt lat="47.4958160" lon="9.4624330">
        <ele>-28.4</ele>
        <time>2022-06-09T10:12:14Z</time>
      </trkpt>
      <trkpt lat="47.4958160" lon="9.4624330">
        <ele>-28.4</ele>
        <time>2022-06-09T10:12:18Z</time>
      </trkpt>
      <trkpt lat="47.4958160" lon="9.4624330">
        <ele>-28.4</ele>
        <time>2022-06-09T10:12:22Z</time>
      </trkpt>
      <trkpt lat="47.4958160" lon="9.4624330">
        <ele>-28.8</ele>
        <time>2022-06-09T10:12:26Z</time>
      </trkpt>
      <trkpt lat="47.4958160" lon="9.4624330">
        <ele>-28.4</ele>
        <time>2022-06-09T10:12:30Z</time>
      </trkpt>
      <trkpt lat="47.4958160" lon="9.4624330">
        <ele>-28.4</ele>
        <time>2022-06-09T10:12:34Z</time>
      </trkpt>
      <trkpt lat="47.4958160" lon="9.4624330">
        <ele>-28.8</ele>
        <time>2022-06-09T10:12:38Z</time>
      </trkpt>
      <trkpt lat="47.4958160" lon="9.4624330">
        <ele>-28.4</ele>
        <time>2022-06-09T10:12:42Z</time>
      </trkpt>
      <trkpt lat="47.4958160" lon="9.4624330">
        <ele>-28.6</ele>
        <time>2022-06-09T10:12:46Z</time>
      </trkpt>
      <trkpt lat="47.4958160" lon="9.4624330">
        <ele>-28.6</ele>
        <time>2022-06-09T10:12:50Z</time>
      </trkpt>
      <trkpt lat="47.4958160" lon="9.4624330">
        <ele>-29.0</ele>
        <time>2022-06-09T10:12:54Z</time>
      </trkpt>
      <trkpt lat="47.4958160" lon="9.4624330">
        <ele>-28.8</ele>
        <time>2022-06-09T10:12:58Z</time>
      </trkpt>
      <trkpt lat="47.4958160" lon="9.4624330">
        <ele>-28.4</ele>
        <time>2022-06-09T10:13:02Z</time>
      </trkpt>
      <trkpt lat="47.4958160" lon="9.4624330">
        <ele>-28.8</ele>
        <time>2022-06-09T10:13:06Z</time>
      </trkpt>
      <trkpt lat="47.4958160" lon="9.4624330">
        <ele>-29.2</ele>
        <time>2022-06-09T10:13:10Z</time>
      </trkpt>
      <trkpt lat="47.4958160" lon="9.4624330">
        <ele>-28.8</ele>
        <time>2022-06-09T10:13:14Z</time>
      </trkpt>
      <trkpt lat="47.4958160" lon="9.4624330">
        <ele>-28.0</ele>
        <time>2022-06-09T10:13:18Z</time>
      </trkpt>
      <trkpt lat="47.4958160" lon="9.4624330">
        <ele>-28.6</ele>
        <time>2022-06-09T10:13:22Z</time>
      </trkpt>
      <trkpt lat="47.4958160" lon="9.4624330">
        <ele>-28.8</ele>
        <time>2022-06-09T10:13:26Z</time>
      </trkpt>
      <trkpt lat="47.4958160" lon="9.4624330">
        <ele>-28.6</ele>
        <time>2022-06-09T10:13:30Z</time>
      </trkpt>
      <trkpt lat="47.4958160" lon="9.4624330">
        <ele>-28.4</ele>
        <time>2022-06-09T10:13:34Z</time>
      </trkpt>
      <trkpt lat="47.4958160" lon="9.4624330">
        <ele>-28.4</ele>
        <time>2022-06-09T10:13:38Z</time>
      </trkpt>
      <trkpt lat="47.4958160" lon="9.4624330">
        <ele>-29.0</ele>
        <time>2022-06-09T10:13:42Z</time>
      </trkpt>
      <trkpt lat="47.4958160" lon="9.4624330">
        <ele>-28.4</ele>
        <time>2022-06-09T10:13:46Z</time>
      </trkpt>
      <trkpt lat="47.4958160" lon="9.4624330">
        <ele>-29.0</ele>
        <time>2022-06-09T10:13:50Z</time>
      </trkpt>
      <trkpt lat="47.4958160" lon="9.4624330">
        <ele>-28.8</ele>
        <time>2022-06-09T10:13:54Z</time>
      </trkpt>
      <trkpt lat="47.4958160" lon="9.4624330">
        <ele>-28.6</ele>
        <time>2022-06-09T10:13:58Z</time>
      </trkpt>
      <trkpt lat="47.4958160" lon="9.4624330">
        <ele>-28.8</ele>
        <time>2022-06-09T10:14:02Z</time>
      </trkpt>
      <trkpt lat="47.4958160" lon="9.4624330">
        <ele>-28.4</ele>
        <time>2022-06-09T10:14:06Z</time>
      </trkpt>
      <trkpt lat="47.4958160" lon="9.4624330">
        <ele>-28.6</ele>
        <time>2022-06-09T10:14:10Z</time>
      </trkpt>
      <trkpt lat="47.4958160" lon="9.4624330">
        <ele>-28.8</ele>
        <time>2022-06-09T10:14:14Z</time>
      </trkpt>
      <trkpt lat="47.4958160" lon="9.4624330">
        <ele>-28.6</ele>
        <time>2022-06-09T10:14:18Z</time>
      </trkpt>
      <trkpt lat="47.4958160" lon="9.4624330">
        <ele>-28.8</ele>
        <time>2022-06-09T10:14:22Z</time>
      </trkpt>
      <trkpt lat="47.4958160" lon="9.4624330">
        <ele>-28.6</ele>
        <time>2022-06-09T10:14:26Z</time>
      </trkpt>
      <trkpt lat="47.4958160" lon="9.4624330">
        <ele>-28.4</ele>
        <time>2022-06-09T10:14:30Z</time>
      </trkpt>
      <trkpt lat="47.4958160" lon="9.4624330">
        <ele>-29.0</ele>
        <time>2022-06-09T10:14:34Z</time>
      </trkpt>
      <trkpt lat="47.4958160" lon="9.4624330">
        <ele>-28.4</ele>
        <time>2022-06-09T10:14:38Z</time>
      </trkpt>
      <trkpt lat="47.4958160" lon="9.4624330">
        <ele>-28.4</ele>
        <time>2022-06-09T10:14:42Z</time>
      </trkpt>
      <trkpt lat="47.4958160" lon="9.4624330">
        <ele>-28.4</ele>
        <time>2022-06-09T10:14:46Z</time>
      </trkpt>
      <trkpt lat="47.4958160" lon="9.4624330">
        <ele>-28.6</ele>
        <time>2022-06-09T10:14:50Z</time>
      </trkpt>
      <trkpt lat="47.4958160" lon="9.4624330">
        <ele>-28.6</ele>
        <time>2022-06-09T10:14:54Z</time>
      </trkpt>
      <trkpt lat="47.4958160" lon="9.4624330">
        <ele>-28.8</ele>
        <time>2022-06-09T10:14:58Z</time>
      </trkpt>
      <trkpt lat="47.4958160" lon="9.4624330">
        <ele>-28.4</ele>
        <time>2022-06-09T10:15:02Z</time>
      </trkpt>
      <trkpt lat="47.4958160" lon="9.4624330">
        <ele>-28.8</ele>
        <time>2022-06-09T10:15:06Z</time>
      </trkpt>
      <trkpt lat="47.4958160" lon="9.4624330">
        <ele>-28.4</ele>
        <time>2022-06-09T10:15:10Z</time>
      </trkpt>
      <trkpt lat="47.4958160" lon="9.4624330">
        <ele>-28.4</ele>
        <time>2022-06-09T10:15:14Z</time>
      </trkpt>
      <trkpt lat="47.4958160" lon="9.4624330">
        <ele>-28.8</ele>
        <time>2022-06-09T10:15:18Z</time>
      </trkpt>
      <trkpt lat="47.4958160" lon="9.4624330">
        <ele>-28.6</ele>
        <time>2022-06-09T10:15:22Z</time>
      </trkpt>
      <trkpt lat="47.4958160" lon="9.4624330">
        <ele>-28.4</ele>
        <time>2022-06-09T10:15:26Z</time>
      </trkpt>
      <trkpt lat="47.4958160" lon="9.4624330">
        <ele>-28.4</ele>
        <time>2022-06-09T10:15:30Z</time>
      </trkpt>
      <trkpt lat="47.4958160" lon="9.4624330">
        <ele>-28.6</ele>
        <time>2022-06-09T10:15:34Z</time>
      </trkpt>
      <trkpt lat="47.4958160" lon="9.4624330">
        <ele>-28.4</ele>
        <time>2022-06-09T10:15:38Z</time>
      </trkpt>
      <trkpt lat="47.4958160" lon="9.4624330">
        <ele>-28.4</ele>
        <time>2022-06-09T10:15:42Z</time>
      </trkpt>
      <trkpt lat="47.4958160" lon="9.4624330">
        <ele>-28.0</ele>
        <time>2022-06-09T10:15:46Z</time>
      </trkpt>
      <trkpt lat="47.4958160" lon="9.4624330">
        <ele>-28.4</ele>
        <time>2022-06-09T10:15:50Z</time>
      </trkpt>
      <trkpt lat="47.4957300" lon="9.4623610">
        <ele>-28.4</ele>
        <time>2022-06-09T10:15:54Z</time>
      </trkpt>
      <trkpt lat="47.4957300" lon="9.4623610">
        <ele>-28.2</ele>
        <time>2022-06-09T10:15:58Z</time>
      </trkpt>
      <trkpt lat="47.4957310" lon="9.4623660">
        <ele>-28.4</ele>
        <time>2022-06-09T10:16:02Z</time>
      </trkpt>
      <trkpt lat="47.4957310" lon="9.4623660">
        <ele>-28.4</ele>
        <time>2022-06-09T10:16:06Z</time>
      </trkpt>
      <trkpt lat="47.4957310" lon="9.4623660">
        <ele>-28.4</ele>
        <time>2022-06-09T10:16:10Z</time>
      </trkpt>
      <trkpt lat="47.4957310" lon="9.4623660">
        <ele>-28.4</ele>
        <time>2022-06-09T10:16:14Z</time>
      </trkpt>
      <trkpt lat="47.4957310" lon="9.4623660">
        <ele>-28.0</ele>
        <time>2022-06-09T10:16:18Z</time>
      </trkpt>
      <trkpt lat="47.4957310" lon="9.4623660">
        <ele>-28.2</ele>
        <time>2022-06-09T10:16:22Z</time>
      </trkpt>
      <trkpt lat="47.4957310" lon="9.4623660">
        <ele>-28.0</ele>
        <time>2022-06-09T10:16:26Z</time>
      </trkpt>
      <trkpt lat="47.4957310" lon="9.4623660">
        <ele>-27.6</ele>
        <time>2022-06-09T10:16:30Z</time>
      </trkpt>
      <trkpt lat="47.4957310" lon="9.4623660">
        <ele>-28.0</ele>
        <time>2022-06-09T10:16:34Z</time>
      </trkpt>
      <trkpt lat="47.4957310" lon="9.4623660">
        <ele>-28.0</ele>
        <time>2022-06-09T10:16:38Z</time>
      </trkpt>
      <trkpt lat="47.4957310" lon="9.4623660">
        <ele>-28.2</ele>
        <time>2022-06-09T10:16:42Z</time>
      </trkpt>
      <trkpt lat="47.4957310" lon="9.4623660">
        <ele>-28.4</ele>
        <time>2022-06-09T10:16:46Z</time>
      </trkpt>
      <trkpt lat="47.4957310" lon="9.4623660">
        <ele>-28.2</ele>
        <time>2022-06-09T10:16:50Z</time>
      </trkpt>
      <trkpt lat="47.4957310" lon="9.4623660">
        <ele>-28.4</ele>
        <time>2022-06-09T10:16:54Z</time>
      </trkpt>
      <trkpt lat="47.4957310" lon="9.4623660">
        <ele>-28.0</ele>
        <time>2022-06-09T10:16:58Z</time>
      </trkpt>
      <trkpt lat="47.4957310" lon="9.4623660">
        <ele>-28.0</ele>
        <time>2022-06-09T10:17:02Z</time>
      </trkpt>
      <trkpt lat="47.4957310" lon="9.4623660">
        <ele>-27.8</ele>
        <time>2022-06-09T10:17:06Z</time>
      </trkpt>
      <trkpt lat="47.4957310" lon="9.4623660">
        <ele>-27.8</ele>
        <time>2022-06-09T10:17:10Z</time>
      </trkpt>
      <trkpt lat="47.4957310" lon="9.4623660">
        <ele>-28.0</ele>
        <time>2022-06-09T10:17:14Z</time>
      </trkpt>
      <trkpt lat="47.4957310" lon="9.4623660">
        <ele>-27.8</ele>
        <time>2022-06-09T10:17:18Z</time>
      </trkpt>
      <trkpt lat="47.4957310" lon="9.4623660">
        <ele>-27.8</ele>
        <time>2022-06-09T10:17:22Z</time>
      </trkpt>
      <trkpt lat="47.4957310" lon="9.4623660">
        <ele>-27.2</ele>
        <time>2022-06-09T10:17:26Z</time>
      </trkpt>
      <trkpt lat="47.4957310" lon="9.4623660">
        <ele>-27.6</ele>
        <time>2022-06-09T10:17:30Z</time>
      </trkpt>
      <trkpt lat="47.4957310" lon="9.4623660">
        <ele>-27.8</ele>
        <time>2022-06-09T10:17:34Z</time>
      </trkpt>
      <trkpt lat="47.4957310" lon="9.4623660">
        <ele>-27.8</ele>
        <time>2022-06-09T10:17:38Z</time>
      </trkpt>
      <trkpt lat="47.4957310" lon="9.4623660">
        <ele>-27.6</ele>
        <time>2022-06-09T10:17:42Z</time>
      </trkpt>
      <trkpt lat="47.4958660" lon="9.4625560">
        <ele>-27.6</ele>
        <time>2022-06-09T10:17:46Z</time>
      </trkpt>
      <trkpt lat="47.4958650" lon="9.4625430">
        <ele>-27.8</ele>
        <time>2022-06-09T10:17:50Z</time>
      </trkpt>
      <trkpt lat="47.4958980" lon="9.4624730">
        <ele>-28.0</ele>
        <time>2022-06-09T10:17:54Z</time>
      </trkpt>
      <trkpt lat="47.4959300" lon="9.4623530">
        <ele>-27.6</ele>
        <time>2022-06-09T10:17:58Z</time>
      </trkpt>
      <trkpt lat="47.4959580" lon="9.4621900">
        <ele>-27.2</ele>
        <time>2022-06-09T10:18:02Z</time>
      </trkpt>
      <trkpt lat="47.4960160" lon="9.4620030">
        <ele>-27.0</ele>
        <time>2022-06-09T10:18:06Z</time>
      </trkpt>
      <trkpt lat="47.4960750" lon="9.4618150">
        <ele>-27.2</ele>
        <time>2022-06-09T10:18:10Z</time>
      </trkpt>
      <trkpt lat="47.4961310" lon="9.4616450">
        <ele>-27.2</ele>
        <time>2022-06-09T10:18:14Z</time>
      </trkpt>
      <trkpt lat="47.4961950" lon="9.4614600">
        <ele>-26.6</ele>
        <time>2022-06-09T10:18:18Z</time>
      </trkpt>
      <trkpt lat="47.4962780" lon="9.4612510">
        <ele>-26.6</ele>
        <time>2022-06-09T10:18:22Z</time>
      </trkpt>
      <trkpt lat="47.4963450" lon="9.4610110">
        <ele>-26.8</ele>
        <time>2022-06-09T10:18:26Z</time>
      </trkpt>
      <trkpt lat="47.4963930" lon="9.4607430">
        <ele>-26.6</ele>
        <time>2022-06-09T10:18:30Z</time>
      </trkpt>
      <trkpt lat="47.4964530" lon="9.4604900">
        <ele>-27.2</ele>
        <time>2022-06-09T10:18:34Z</time>
      </trkpt>
      <trkpt lat="47.4965180" lon="9.4602260">
        <ele>-26.6</ele>
        <time>2022-06-09T10:18:38Z</time>
      </trkpt>
      <trkpt lat="47.4965810" lon="9.4599650">
        <ele>-26.2</ele>
        <time>2022-06-09T10:18:42Z</time>
      </trkpt>
      <trkpt lat="47.4966400" lon="9.4597080">
        <ele>-26.6</ele>
        <time>2022-06-09T10:18:46Z</time>
      </trkpt>
      <trkpt lat="47.4967100" lon="9.4594810">
        <ele>-26.4</ele>
        <time>2022-06-09T10:18:50Z</time>
      </trkpt>
      <trkpt lat="47.4968610" lon="9.4594730">
        <ele>-26.6</ele>
        <time>2022-06-09T10:18:54Z</time>
      </trkpt>
      <trkpt lat="47.4970410" lon="9.4595400">
        <ele>-27.6</ele>
        <time>2022-06-09T10:18:58Z</time>
      </trkpt>
      <trkpt lat="47.4971410" lon="9.4593780">
        <ele>-27.8</ele>
        <time>2022-06-09T10:19:02Z</time>
      </trkpt>
      <trkpt lat="47.4972110" lon="9.4591380">
        <ele>-27.6</ele>
        <time>2022-06-09T10:19:06Z</time>
      </trkpt>
      <trkpt lat="47.4972860" lon="9.4589130">
        <ele>-27.8</ele>
        <time>2022-06-09T10:19:10Z</time>
      </trkpt>
      <trkpt lat="47.4973400" lon="9.4587630">
        <ele>-27.8</ele>
        <time>2022-06-09T10:19:14Z</time>
      </trkpt>
      <trkpt lat="47.4973400" lon="9.4587630">
        <ele>-27.6</ele>
        <time>2022-06-09T10:19:18Z</time>
      </trkpt>
      <trkpt lat="47.4973400" lon="9.4587630">
        <ele>-28.0</ele>
        <time>2022-06-09T10:19:22Z</time>
      </trkpt>
      <trkpt lat="47.4973400" lon="9.4587630">
        <ele>-27.6</ele>
        <time>2022-06-09T10:19:26Z</time>
      </trkpt>
      <trkpt lat="47.4973400" lon="9.4587630">
        <ele>-28.0</ele>
        <time>2022-06-09T10:19:30Z</time>
      </trkpt>
      <trkpt lat="47.4973400" lon="9.4587630">
        <ele>-27.6</ele>
        <time>2022-06-09T10:19:34Z</time>
      </trkpt>
      <trkpt lat="47.4973400" lon="9.4587630">
        <ele>-27.8</ele>
        <time>2022-06-09T10:19:38Z</time>
      </trkpt>
      <trkpt lat="47.4973400" lon="9.4587630">
        <ele>-27.8</ele>
        <time>2022-06-09T10:19:42Z</time>
      </trkpt>
      <trkpt lat="47.4973400" lon="9.4587630">
        <ele>-27.8</ele>
        <time>2022-06-09T10:19:46Z</time>
      </trkpt>
      <trkpt lat="47.4973400" lon="9.4587630">
        <ele>-28.0</ele>
        <time>2022-06-09T10:19:50Z</time>
      </trkpt>
      <trkpt lat="47.4973400" lon="9.4587630">
        <ele>-28.0</ele>
        <time>2022-06-09T10:19:54Z</time>
      </trkpt>
      <trkpt lat="47.4973400" lon="9.4587630">
        <ele>-28.0</ele>
        <time>2022-06-09T10:19:58Z</time>
      </trkpt>
      <trkpt lat="47.4973400" lon="9.4587630">
        <ele>-27.4</ele>
        <time>2022-06-09T10:20:02Z</time>
      </trkpt>
      <trkpt lat="47.4973460" lon="9.4587510">
        <ele>-27.8</ele>
        <time>2022-06-09T10:20:06Z</time>
      </trkpt>
      <trkpt lat="47.4973630" lon="9.4586650">
        <ele>-28.0</ele>
        <time>2022-06-09T10:20:10Z</time>
      </trkpt>
      <trkpt lat="47.4974080" lon="9.4585110">
        <ele>-27.6</ele>
        <time>2022-06-09T10:20:14Z</time>
      </trkpt>
      <trkpt lat="47.4974810" lon="9.4582960">
        <ele>-27.8</ele>
        <time>2022-06-09T10:20:18Z</time>
      </trkpt>
      <trkpt lat="47.4975680" lon="9.4580550">
        <ele>-27.8</ele>
        <time>2022-06-09T10:20:22Z</time>
      </trkpt>
      <trkpt lat="47.4976700" lon="9.4578080">
        <ele>-28.2</ele>
        <time>2022-06-09T10:20:26Z</time>
      </trkpt>
      <trkpt lat="47.4978010" lon="9.4575810">
        <ele>-28.2</ele>
        <time>2022-06-09T10:20:30Z</time>
      </trkpt>
      <trkpt lat="47.4979300" lon="9.4573410">
        <ele>-28.0</ele>
        <time>2022-06-09T10:20:34Z</time>
      </trkpt>
      <trkpt lat="47.4980380" lon="9.4570650">
        <ele>-27.4</ele>
        <time>2022-06-09T10:20:38Z</time>
      </trkpt>
      <trkpt lat="47.4981300" lon="9.4567780">
        <ele>-27.6</ele>
        <time>2022-06-09T10:20:42Z</time>
      </trkpt>
      <trkpt lat="47.4982500" lon="9.4565130">
        <ele>-28.0</ele>
        <time>2022-06-09T10:20:46Z</time>
      </trkpt>
      <trkpt lat="47.4983500" lon="9.4562310">
        <ele>-27.8</ele>
        <time>2022-06-09T10:20:50Z</time>
      </trkpt>
      <trkpt lat="47.4984630" lon="9.4559610">
        <ele>-28.0</ele>
        <time>2022-06-09T10:20:54Z</time>
      </trkpt>
      <trkpt lat="47.4985550" lon="9.4556950">
        <ele>-28.0</ele>
        <time>2022-06-09T10:20:58Z</time>
      </trkpt>
      <trkpt lat="47.4986530" lon="9.4554250">
        <ele>-28.2</ele>
        <time>2022-06-09T10:21:02Z</time>
      </trkpt>
      <trkpt lat="47.4987430" lon="9.4551650">
        <ele>-28.2</ele>
        <time>2022-06-09T10:21:06Z</time>
      </trkpt>
      <trkpt lat="47.4988360" lon="9.4549260">
        <ele>-28.4</ele>
        <time>2022-06-09T10:21:10Z</time>
      </trkpt>
      <trkpt lat="47.4989350" lon="9.4547000">
        <ele>-28.2</ele>
        <time>2022-06-09T10:21:14Z</time>
      </trkpt>
      <trkpt lat="47.4989580" lon="9.4545350">
        <ele>-28.8</ele>
        <time>2022-06-09T10:21:18Z</time>
      </trkpt>
      <trkpt lat="47.4989010" lon="9.4544250">
        <ele>-28.4</ele>
        <time>2022-06-09T10:21:22Z</time>
      </trkpt>
      <trkpt lat="47.4989310" lon="9.4542000">
        <ele>-28.6</ele>
        <time>2022-06-09T10:21:26Z</time>
      </trkpt>
      <trkpt lat="47.4989680" lon="9.4539330">
        <ele>-28.4</ele>
        <time>2022-06-09T10:21:30Z</time>
      </trkpt>
      <trkpt lat="47.4990050" lon="9.4536500">
        <ele>-29.0</ele>
        <time>2022-06-09T10:21:34Z</time>
      </trkpt>
      <trkpt lat="47.4990280" lon="9.4533730">
        <ele>-28.8</ele>
        <time>2022-06-09T10:21:38Z</time>
      </trkpt>
      <trkpt lat="47.4990380" lon="9.4530950">
        <ele>-28.4</ele>
        <time>2022-06-09T10:21:42Z</time>
      </trkpt>
      <trkpt lat="47.4990060" lon="9.4528200">
        <ele>-28.6</ele>
        <time>2022-06-09T10:21:46Z</time>
      </trkpt>
      <trkpt lat="47.4989630" lon="9.4525350">
        <ele>-28.6</ele>
        <time>2022-06-09T10:21:50Z</time>
      </trkpt>
      <trkpt lat="47.4990110" lon="9.4522450">
        <ele>-28.4</ele>
        <time>2022-06-09T10:21:54Z</time>
      </trkpt>
      <trkpt lat="47.4990800" lon="9.4519610">
        <ele>-28.8</ele>
        <time>2022-06-09T10:21:58Z</time>
      </trkpt>
      <trkpt lat="47.4991880" lon="9.4517050">
        <ele>-28.4</ele>
        <time>2022-06-09T10:22:02Z</time>
      </trkpt>
      <trkpt lat="47.4993130" lon="9.4514680">
        <ele>-28.6</ele>
        <time>2022-06-09T10:22:06Z</time>
      </trkpt>
      <trkpt lat="47.4994260" lon="9.4512360">
        <ele>-28.4</ele>
        <time>2022-06-09T10:22:10Z</time>
      </trkpt>
      <trkpt lat="47.4995560" lon="9.4509980">
        <ele>-28.4</ele>
        <time>2022-06-09T10:22:14Z</time>
      </trkpt>
      <trkpt lat="47.4996760" lon="9.4507430">
        <ele>-28.0</ele>
        <time>2022-06-09T10:22:18Z</time>
      </trkpt>
      <trkpt lat="47.4997960" lon="9.4504850">
        <ele>-28.6</ele>
        <time>2022-06-09T10:22:22Z</time>
      </trkpt>
      <trkpt lat="47.4999160" lon="9.4502300">
        <ele>-28.6</ele>
        <time>2022-06-09T10:22:26Z</time>
      </trkpt>
      <trkpt lat="47.5000500" lon="9.4499910">
        <ele>-28.2</ele>
        <time>2022-06-09T10:22:30Z</time>
      </trkpt>
      <trkpt lat="47.5001750" lon="9.4497500">
        <ele>-28.4</ele>
        <time>2022-06-09T10:22:34Z</time>
      </trkpt>
      <trkpt lat="47.5002910" lon="9.4495030">
        <ele>-29.0</ele>
        <time>2022-06-09T10:22:38Z</time>
      </trkpt>
      <trkpt lat="47.5003980" lon="9.4492560">
        <ele>-28.6</ele>
        <time>2022-06-09T10:22:42Z</time>
      </trkpt>
      <trkpt lat="47.5004660" lon="9.4490200">
        <ele>-28.2</ele>
        <time>2022-06-09T10:22:46Z</time>
      </trkpt>
      <trkpt lat="47.5005160" lon="9.4487930">
        <ele>-28.2</ele>
        <time>2022-06-09T10:22:50Z</time>
      </trkpt>
      <trkpt lat="47.5006210" lon="9.4486050">
        <ele>-28.0</ele>
        <time>2022-06-09T10:22:54Z</time>
      </trkpt>
      <trkpt lat="47.5007600" lon="9.4484150">
        <ele>-28.0</ele>
        <time>2022-06-09T10:22:58Z</time>
      </trkpt>
      <trkpt lat="47.5009210" lon="9.4482110">
        <ele>-28.0</ele>
        <time>2022-06-09T10:23:02Z</time>
      </trkpt>
      <trkpt lat="47.5010750" lon="9.4480080">
        <ele>-28.0</ele>
        <time>2022-06-09T10:23:06Z</time>
      </trkpt>
      <trkpt lat="47.5012250" lon="9.4478260">
        <ele>-27.8</ele>
        <time>2022-06-09T10:23:10Z</time>
      </trkpt>
      <trkpt lat="47.5013800" lon="9.4476350">
        <ele>-27.4</ele>
        <time>2022-06-09T10:23:14Z</time>
      </trkpt>
      <trkpt lat="47.5015350" lon="9.4474360">
        <ele>-27.6</ele>
        <time>2022-06-09T10:23:18Z</time>
      </trkpt>
      <trkpt lat="47.5016880" lon="9.4472450">
        <ele>-27.6</ele>
        <time>2022-06-09T10:23:22Z</time>
      </trkpt>
      <trkpt lat="47.5018450" lon="9.4470500">
        <ele>-27.2</ele>
        <time>2022-06-09T10:23:26Z</time>
      </trkpt>
      <trkpt lat="47.5019850" lon="9.4468430">
        <ele>-27.2</ele>
        <time>2022-06-09T10:23:30Z</time>
      </trkpt>
      <trkpt lat="47.5021380" lon="9.4466510">
        <ele>-26.4</ele>
        <time>2022-06-09T10:23:34Z</time>
      </trkpt>
      <trkpt lat="47.5022850" lon="9.4464460">
        <ele>-26.4</ele>
        <time>2022-06-09T10:23:38Z</time>
      </trkpt>
      <trkpt lat="47.5024410" lon="9.4462400">
        <ele>-26.4</ele>
        <time>2022-06-09T10:23:42Z</time>
      </trkpt>
      <trkpt lat="47.5025910" lon="9.4460150">
        <ele>-26.8</ele>
        <time>2022-06-09T10:23:46Z</time>
      </trkpt>
      <trkpt lat="47.5027360" lon="9.4457710">
        <ele>-26.8</ele>
        <time>2022-06-09T10:23:50Z</time>
      </trkpt>
      <trkpt lat="47.5028700" lon="9.4455080">
        <ele>-26.6</ele>
        <time>2022-06-09T10:23:54Z</time>
      </trkpt>
      <trkpt lat="47.5029850" lon="9.4452300">
        <ele>-26.8</ele>
        <time>2022-06-09T10:23:58Z</time>
      </trkpt>
      <trkpt lat="47.5030730" lon="9.4449610">
        <ele>-27.2</ele>
        <time>2022-06-09T10:24:02Z</time>
      </trkpt>
      <trkpt lat="47.5031410" lon="9.4446850">
        <ele>-27.2</ele>
        <time>2022-06-09T10:24:06Z</time>
      </trkpt>
      <trkpt lat="47.5032030" lon="9.4443500">
        <ele>-27.2</ele>
        <time>2022-06-09T10:24:10Z</time>
      </trkpt>
      <trkpt lat="47.5032400" lon="9.4439980">
        <ele>-27.0</ele>
        <time>2022-06-09T10:24:14Z</time>
      </trkpt>
      <trkpt lat="47.5032600" lon="9.4436400">
        <ele>-27.0</ele>
        <time>2022-06-09T10:24:18Z</time>
      </trkpt>
      <trkpt lat="47.5032660" lon="9.4432810">
        <ele>-27.2</ele>
        <time>2022-06-09T10:24:22Z</time>
      </trkpt>
      <trkpt lat="47.5032660" lon="9.4429230">
        <ele>-26.6</ele>
        <time>2022-06-09T10:24:26Z</time>
      </trkpt>
      <trkpt lat="47.5032600" lon="9.4425780">
        <ele>-26.8</ele>
        <time>2022-06-09T10:24:30Z</time>
      </trkpt>
      <trkpt lat="47.5032550" lon="9.4422650">
        <ele>-27.2</ele>
        <time>2022-06-09T10:24:34Z</time>
      </trkpt>
      <trkpt lat="47.5032980" lon="9.4420780">
        <ele>-27.2</ele>
        <time>2022-06-09T10:24:38Z</time>
      </trkpt>
      <trkpt lat="47.5033900" lon="9.4421750">
        <ele>-27.0</ele>
        <time>2022-06-09T10:24:42Z</time>
      </trkpt>
      <trkpt lat="47.5035310" lon="9.4423450">
        <ele>-27.2</ele>
        <time>2022-06-09T10:24:46Z</time>
      </trkpt>
      <trkpt lat="47.5037350" lon="9.4424130">
        <ele>-27.8</ele>
        <time>2022-06-09T10:24:50Z</time>
      </trkpt>
      <trkpt lat="47.5039710" lon="9.4424460">
        <ele>-28.2</ele>
        <time>2022-06-09T10:24:54Z</time>
      </trkpt>
      <trkpt lat="47.5042110" lon="9.4425310">
        <ele>-28.6</ele>
        <time>2022-06-09T10:24:58Z</time>
      </trkpt>
      <trkpt lat="47.5044250" lon="9.4426600">
        <ele>-29.0</ele>
        <time>2022-06-09T10:25:02Z</time>
      </trkpt>
      <trkpt lat="47.5044980" lon="9.4426980">
        <ele>-28.8</ele>
        <time>2022-06-09T10:25:06Z</time>
      </trkpt>
      <trkpt lat="47.5044850" lon="9.4428010">
        <ele>-28.4</ele>
        <time>2022-06-09T10:25:10Z</time>
      </trkpt>
      <trkpt lat="47.5045100" lon="9.4427700">
        <ele>-28.8</ele>
        <time>2022-06-09T10:25:14Z</time>
      </trkpt>
      <trkpt lat="47.5044660" lon="9.4426760">
        <ele>-28.8</ele>
        <time>2022-06-09T10:25:18Z</time>
      </trkpt>
      <trkpt lat="47.5044550" lon="9.4427130">
        <ele>-28.8</ele>
        <time>2022-06-09T10:25:22Z</time>
      </trkpt>
      <trkpt lat="47.5044910" lon="9.4428030">
        <ele>-28.4</ele>
        <time>2022-06-09T10:25:26Z</time>
      </trkpt>
      <trkpt lat="47.5045760" lon="9.4428880">
        <ele>-28.4</ele>
        <time>2022-06-09T10:25:30Z</time>
      </trkpt>
      <trkpt lat="47.5046150" lon="9.4428900">
        <ele>-29.0</ele>
        <time>2022-06-09T10:25:34Z</time>
      </trkpt>
      <trkpt lat="47.5045280" lon="9.4428580">
        <ele>-28.8</ele>
        <time>2022-06-09T10:25:38Z</time>
      </trkpt>
      <trkpt lat="47.5044710" lon="9.4429900">
        <ele>-28.4</ele>
        <time>2022-06-09T10:25:42Z</time>
      </trkpt>
      <trkpt lat="47.5044550" lon="9.4432250">
        <ele>-28.4</ele>
        <time>2022-06-09T10:25:46Z</time>
      </trkpt>
      <trkpt lat="47.5044880" lon="9.4435060">
        <ele>-28.0</ele>
        <time>2022-06-09T10:25:50Z</time>
      </trkpt>
      <trkpt lat="47.5044700" lon="9.4437910">
        <ele>-27.8</ele>
        <time>2022-06-09T10:25:54Z</time>
      </trkpt>
      <trkpt lat="47.5043510" lon="9.4440260">
        <ele>-27.8</ele>
        <time>2022-06-09T10:25:58Z</time>
      </trkpt>
      <trkpt lat="47.5042060" lon="9.4441850">
        <ele>-27.8</ele>
        <time>2022-06-09T10:26:02Z</time>
      </trkpt>
      <trkpt lat="47.5040580" lon="9.4443600">
        <ele>-28.0</ele>
        <time>2022-06-09T10:26:06Z</time>
      </trkpt>
      <trkpt lat="47.5039000" lon="9.4445100">
        <ele>-28.0</ele>
        <time>2022-06-09T10:26:10Z</time>
      </trkpt>
      <trkpt lat="47.5037580" lon="9.4446580">
        <ele>-28.0</ele>
        <time>2022-06-09T10:26:14Z</time>
      </trkpt>
      <trkpt lat="47.5035630" lon="9.4447550">
        <ele>-27.8</ele>
        <time>2022-06-09T10:26:18Z</time>
      </trkpt>
      <trkpt lat="47.5033750" lon="9.4448230">
        <ele>-27.8</ele>
        <time>2022-06-09T10:26:22Z</time>
      </trkpt>
      <trkpt lat="47.5032210" lon="9.4448200">
        <ele>-27.6</ele>
        <time>2022-06-09T10:26:26Z</time>
      </trkpt>
      <trkpt lat="47.5031760" lon="9.4448210">
        <ele>-27.2</ele>
        <time>2022-06-09T10:26:30Z</time>
      </trkpt>
      <trkpt lat="47.5031910" lon="9.4447300">
        <ele>-27.0</ele>
        <time>2022-06-09T10:26:34Z</time>
      </trkpt>
      <trkpt lat="47.5032210" lon="9.4445480">
        <ele>-26.8</ele>
        <time>2022-06-09T10:26:38Z</time>
      </trkpt>
      <trkpt lat="47.5032480" lon="9.4443200">
        <ele>-27.2</ele>
        <time>2022-06-09T10:26:42Z</time>
      </trkpt>
      <trkpt lat="47.5032730" lon="9.4440900">
        <ele>-27.4</ele>
        <time>2022-06-09T10:26:46Z</time>
      </trkpt>
      <trkpt lat="47.5032910" lon="9.4438560">
        <ele>-27.2</ele>
        <time>2022-06-09T10:26:50Z</time>
      </trkpt>
      <trkpt lat="47.5032950" lon="9.4436150">
        <ele>-27.2</ele>
        <time>2022-06-09T10:26:54Z</time>
      </trkpt>
      <trkpt lat="47.5032960" lon="9.4433680">
        <ele>-27.2</ele>
        <time>2022-06-09T10:26:58Z</time>
      </trkpt>
      <trkpt lat="47.5032960" lon="9.4431130">
        <ele>-27.8</ele>
        <time>2022-06-09T10:27:02Z</time>
      </trkpt>
      <trkpt lat="47.5033030" lon="9.4428530">
        <ele>-27.6</ele>
        <time>2022-06-09T10:27:06Z</time>
      </trkpt>
      <trkpt lat="47.5032950" lon="9.4425900">
        <ele>-27.4</ele>
        <time>2022-06-09T10:27:10Z</time>
      </trkpt>
      <trkpt lat="47.5032780" lon="9.4423300">
        <ele>-27.0</ele>
        <time>2022-06-09T10:27:14Z</time>
      </trkpt>
      <trkpt lat="47.5032980" lon="9.4421050">
        <ele>-27.6</ele>
        <time>2022-06-09T10:27:18Z</time>
      </trkpt>
      <trkpt lat="47.5034210" lon="9.4419360">
        <ele>-27.6</ele>
        <time>2022-06-09T10:27:22Z</time>
      </trkpt>
      <trkpt lat="47.5035630" lon="9.4417710">
        <ele>-27.6</ele>
        <time>2022-06-09T10:27:26Z</time>
      </trkpt>
      <trkpt lat="47.5037230" lon="9.4415980">
        <ele>-27.8</ele>
        <time>2022-06-09T10:27:30Z</time>
      </trkpt>
      <trkpt lat="47.5038650" lon="9.4413660">
        <ele>-28.0</ele>
        <time>2022-06-09T10:27:34Z</time>
      </trkpt>
      <trkpt lat="47.5039960" lon="9.4411180">
        <ele>-28.2</ele>
        <time>2022-06-09T10:27:38Z</time>
      </trkpt>
      <trkpt lat="47.5040980" lon="9.4408350">
        <ele>-28.4</ele>
        <time>2022-06-09T10:27:42Z</time>
      </trkpt>
      <trkpt lat="47.5041650" lon="9.4405430">
        <ele>-28.6</ele>
        <time>2022-06-09T10:27:46Z</time>
      </trkpt>
      <trkpt lat="47.5041930" lon="9.4402460">
        <ele>-28.6</ele>
        <time>2022-06-09T10:27:50Z</time>
      </trkpt>
      <trkpt lat="47.5042100" lon="9.4399380">
        <ele>-29.0</ele>
        <time>2022-06-09T10:27:54Z</time>
      </trkpt>
      <trkpt lat="47.5042400" lon="9.4396510">
        <ele>-29.0</ele>
        <time>2022-06-09T10:27:58Z</time>
      </trkpt>
      <trkpt lat="47.5042660" lon="9.4393480">
        <ele>-29.0</ele>
        <time>2022-06-09T10:28:02Z</time>
      </trkpt>
      <trkpt lat="47.5042600" lon="9.4390410">
        <ele>-29.2</ele>
        <time>2022-06-09T10:28:06Z</time>
      </trkpt>
      <trkpt lat="47.5041710" lon="9.4387680">
        <ele>-29.6</ele>
        <time>2022-06-09T10:28:10Z</time>
      </trkpt>
      <trkpt lat="47.5040880" lon="9.4385060">
        <ele>-30.2</ele>
        <time>2022-06-09T10:28:14Z</time>
      </trkpt>
      <trkpt lat="47.5041880" lon="9.4382680">
        <ele>-30.0</ele>
        <time>2022-06-09T10:28:18Z</time>
      </trkpt>
      <trkpt lat="47.5043280" lon="9.4380600">
        <ele>-30.4</ele>
        <time>2022-06-09T10:28:22Z</time>
      </trkpt>
      <trkpt lat="47.5044660" lon="9.4378630">
        <ele>-29.8</ele>
        <time>2022-06-09T10:28:26Z</time>
      </trkpt>
      <trkpt lat="47.5046150" lon="9.4376610">
        <ele>-29.6</ele>
        <time>2022-06-09T10:28:30Z</time>
      </trkpt>
      <trkpt lat="47.5047780" lon="9.4374700">
        <ele>-29.6</ele>
        <time>2022-06-09T10:28:34Z</time>
      </trkpt>
      <trkpt lat="47.5049750" lon="9.4374050">
        <ele>-29.6</ele>
        <time>2022-06-09T10:28:38Z</time>
      </trkpt>
      <trkpt lat="47.5051780" lon="9.4374000">
        <ele>-29.6</ele>
        <time>2022-06-09T10:28:42Z</time>
      </trkpt>
      <trkpt lat="47.5053580" lon="9.4372830">
        <ele>-29.2</ele>
        <time>2022-06-09T10:28:46Z</time>
      </trkpt>
      <trkpt lat="47.5054900" lon="9.4370530">
        <ele>-29.4</ele>
        <time>2022-06-09T10:28:50Z</time>
      </trkpt>
      <trkpt lat="47.5056230" lon="9.4368210">
        <ele>-29.4</ele>
        <time>2022-06-09T10:28:54Z</time>
      </trkpt>
      <trkpt lat="47.5057630" lon="9.4365810">
        <ele>-29.0</ele>
        <time>2022-06-09T10:28:58Z</time>
      </trkpt>
      <trkpt lat="47.5058930" lon="9.4363310">
        <ele>-28.6</ele>
        <time>2022-06-09T10:29:02Z</time>
      </trkpt>
      <trkpt lat="47.5060280" lon="9.4361100">
        <ele>-29.0</ele>
        <time>2022-06-09T10:29:06Z</time>
      </trkpt>
      <trkpt lat="47.5061980" lon="9.4359130">
        <ele>-29.0</ele>
        <time>2022-06-09T10:29:10Z</time>
      </trkpt>
      <trkpt lat="47.5063930" lon="9.4357510">
        <ele>-29.4</ele>
        <time>2022-06-09T10:29:14Z</time>
      </trkpt>
      <trkpt lat="47.5065680" lon="9.4356410">
        <ele>-29.4</ele>
        <time>2022-06-09T10:29:18Z</time>
      </trkpt>
      <trkpt lat="47.5067510" lon="9.4355050">
        <ele>-31.0</ele>
        <time>2022-06-09T10:29:22Z</time>
      </trkpt>
      <trkpt lat="47.5069460" lon="9.4353810">
        <ele>-30.6</ele>
        <time>2022-06-09T10:29:26Z</time>
      </trkpt>
      <trkpt lat="47.5071430" lon="9.4352630">
        <ele>-30.4</ele>
        <time>2022-06-09T10:29:30Z</time>
      </trkpt>
      <trkpt lat="47.5073150" lon="9.4351560">
        <ele>-30.4</ele>
        <time>2022-06-09T10:29:34Z</time>
      </trkpt>
      <trkpt lat="47.5075160" lon="9.4350410">
        <ele>-30.6</ele>
        <time>2022-06-09T10:29:38Z</time>
      </trkpt>
      <trkpt lat="47.5077180" lon="9.4349460">
        <ele>-30.4</ele>
        <time>2022-06-09T10:29:42Z</time>
      </trkpt>
      <trkpt lat="47.5079000" lon="9.4348700">
        <ele>-30.8</ele>
        <time>2022-06-09T10:29:46Z</time>
      </trkpt>
      <trkpt lat="47.5080950" lon="9.4347960">
        <ele>-30.8</ele>
        <time>2022-06-09T10:29:50Z</time>
      </trkpt>
      <trkpt lat="47.5082400" lon="9.4347200">
        <ele>-30.0</ele>
        <time>2022-06-09T10:29:54Z</time>
      </trkpt>
      <trkpt lat="47.5084380" lon="9.4346830">
        <ele>-30.6</ele>
        <time>2022-06-09T10:29:58Z</time>
      </trkpt>
      <trkpt lat="47.5086080" lon="9.4346450">
        <ele>-30.6</ele>
        <time>2022-06-09T10:30:02Z</time>
      </trkpt>
      <trkpt lat="47.5087710" lon="9.4346050">
        <ele>-30.6</ele>
        <time>2022-06-09T10:30:06Z</time>
      </trkpt>
      <trkpt lat="47.5089300" lon="9.4345680">
        <ele>-30.8</ele>
        <time>2022-06-09T10:30:10Z</time>
      </trkpt>
      <trkpt lat="47.5091300" lon="9.4345850">
        <ele>-30.6</ele>
        <time>2022-06-09T10:30:14Z</time>
      </trkpt>
      <trkpt lat="47.5093230" lon="9.4345580">
        <ele>-30.4</ele>
        <time>2022-06-09T10:30:18Z</time>
      </trkpt>
      <trkpt lat="47.5095500" lon="9.4345130">
        <ele>-30.6</ele>
        <time>2022-06-09T10:30:22Z</time>
      </trkpt>
      <trkpt lat="47.5097210" lon="9.4344910">
        <ele>-30.4</ele>
        <time>2022-06-09T10:30:26Z</time>
      </trkpt>
      <trkpt lat="47.5099550" lon="9.4344730">
        <ele>-30.4</ele>
        <time>2022-06-09T10:30:30Z</time>
      </trkpt>
      <trkpt lat="47.5101850" lon="9.4344250">
        <ele>-30.4</ele>
        <time>2022-06-09T10:30:34Z</time>
      </trkpt>
      <trkpt lat="47.5104130" lon="9.4344060">
        <ele>-30.4</ele>
        <time>2022-06-09T10:30:38Z</time>
      </trkpt>
      <trkpt lat="47.5106430" lon="9.4344050">
        <ele>-30.2</ele>
        <time>2022-06-09T10:30:42Z</time>
      </trkpt>
      <trkpt lat="47.5108710" lon="9.4344000">
        <ele>-30.2</ele>
        <time>2022-06-09T10:30:46Z</time>
      </trkpt>
      <trkpt lat="47.5111080" lon="9.4344180">
        <ele>-30.2</ele>
        <time>2022-06-09T10:30:50Z</time>
      </trkpt>
      <trkpt lat="47.5113080" lon="9.4345010">
        <ele>-30.4</ele>
        <time>2022-06-09T10:30:54Z</time>
      </trkpt>
      <trkpt lat="47.5115050" lon="9.4346510">
        <ele>-30.4</ele>
        <time>2022-06-09T10:30:58Z</time>
      </trkpt>
      <trkpt lat="47.5116900" lon="9.4348180">
        <ele>-30.2</ele>
        <time>2022-06-09T10:31:02Z</time>
      </trkpt>
      <trkpt lat="47.5118650" lon="9.4349860">
        <ele>-30.0</ele>
        <time>2022-06-09T10:31:06Z</time>
      </trkpt>
      <trkpt lat="47.5120160" lon="9.4351650">
        <ele>-30.2</ele>
        <time>2022-06-09T10:31:10Z</time>
      </trkpt>
      <trkpt lat="47.5121580" lon="9.4353080">
        <ele>-30.2</ele>
        <time>2022-06-09T10:31:14Z</time>
      </trkpt>
      <trkpt lat="47.5122950" lon="9.4353700">
        <ele>-30.2</ele>
        <time>2022-06-09T10:31:18Z</time>
      </trkpt>
      <trkpt lat="47.5124150" lon="9.4354850">
        <ele>-30.2</ele>
        <time>2022-06-09T10:31:22Z</time>
      </trkpt>
      <trkpt lat="47.5124930" lon="9.4357400">
        <ele>-30.2</ele>
        <time>2022-06-09T10:31:26Z</time>
      </trkpt>
      <trkpt lat="47.5126060" lon="9.4359860">
        <ele>-30.4</ele>
        <time>2022-06-09T10:31:30Z</time>
      </trkpt>
      <trkpt lat="47.5127450" lon="9.4362060">
        <ele>-30.6</ele>
        <time>2022-06-09T10:31:34Z</time>
      </trkpt>
      <trkpt lat="47.5128980" lon="9.4364110">
        <ele>-30.0</ele>
        <time>2022-06-09T10:31:38Z</time>
      </trkpt>
      <trkpt lat="47.5130550" lon="9.4366130">
        <ele>-30.4</ele>
        <time>2022-06-09T10:31:42Z</time>
      </trkpt>
      <trkpt lat="47.5132160" lon="9.4368110">
        <ele>-30.8</ele>
        <time>2022-06-09T10:31:46Z</time>
      </trkpt>
      <trkpt lat="47.5133630" lon="9.4370160">
        <ele>-30.4</ele>
        <time>2022-06-09T10:31:50Z</time>
      </trkpt>
      <trkpt lat="47.5135100" lon="9.4372150">
        <ele>-30.2</ele>
        <time>2022-06-09T10:31:54Z</time>
      </trkpt>
      <trkpt lat="47.5136600" lon="9.4374100">
        <ele>-30.4</ele>
        <time>2022-06-09T10:31:58Z</time>
      </trkpt>
      <trkpt lat="47.5138180" lon="9.4376030">
        <ele>-30.6</ele>
        <time>2022-06-09T10:32:02Z</time>
      </trkpt>
      <trkpt lat="47.5139850" lon="9.4377810">
        <ele>-30.4</ele>
        <time>2022-06-09T10:32:06Z</time>
      </trkpt>
      <trkpt lat="47.5141560" lon="9.4379330">
        <ele>-30.0</ele>
        <time>2022-06-09T10:32:10Z</time>
      </trkpt>
      <trkpt lat="47.5143360" lon="9.4381080">
        <ele>-30.4</ele>
        <time>2022-06-09T10:32:14Z</time>
      </trkpt>
      <trkpt lat="47.5145230" lon="9.4382630">
        <ele>-30.4</ele>
        <time>2022-06-09T10:32:18Z</time>
      </trkpt>
      <trkpt lat="47.5147150" lon="9.4384050">
        <ele>-30.2</ele>
        <time>2022-06-09T10:32:22Z</time>
      </trkpt>
      <trkpt lat="47.5149060" lon="9.4385400">
        <ele>-30.6</ele>
        <time>2022-06-09T10:32:26Z</time>
      </trkpt>
      <trkpt lat="47.5150980" lon="9.4386710">
        <ele>-30.4</ele>
        <time>2022-06-09T10:32:30Z</time>
      </trkpt>
      <trkpt lat="47.5152900" lon="9.4388160">
        <ele>-30.4</ele>
        <time>2022-06-09T10:32:34Z</time>
      </trkpt>
      <trkpt lat="47.5154730" lon="9.4389430">
        <ele>-30.4</ele>
        <time>2022-06-09T10:32:38Z</time>
      </trkpt>
      <trkpt lat="47.5156030" lon="9.4389510">
        <ele>-30.6</ele>
        <time>2022-06-09T10:32:42Z</time>
      </trkpt>
      <trkpt lat="47.5156700" lon="9.4389810">
        <ele>-30.4</ele>
        <time>2022-06-09T10:32:46Z</time>
      </trkpt>
      <trkpt lat="47.5156700" lon="9.4389810">
        <ele>-30.6</ele>
        <time>2022-06-09T10:32:50Z</time>
      </trkpt>
      <trkpt lat="47.5156700" lon="9.4389810">
        <ele>-30.6</ele>
        <time>2022-06-09T10:32:54Z</time>
      </trkpt>
      <trkpt lat="47.5156700" lon="9.4389810">
        <ele>-30.6</ele>
        <time>2022-06-09T10:32:58Z</time>
      </trkpt>
      <trkpt lat="47.5156700" lon="9.4389810">
        <ele>-30.6</ele>
        <time>2022-06-09T10:33:02Z</time>
      </trkpt>
      <trkpt lat="47.5156700" lon="9.4389810">
        <ele>-30.8</ele>
        <time>2022-06-09T10:33:06Z</time>
      </trkpt>
      <trkpt lat="47.5156700" lon="9.4389810">
        <ele>-30.8</ele>
        <time>2022-06-09T10:33:10Z</time>
      </trkpt>
      <trkpt lat="47.5156700" lon="9.4389810">
        <ele>-31.0</ele>
        <time>2022-06-09T10:33:14Z</time>
      </trkpt>
      <trkpt lat="47.5156700" lon="9.4389810">
        <ele>-31.0</ele>
        <time>2022-06-09T10:33:18Z</time>
      </trkpt>
      <trkpt lat="47.5156700" lon="9.4389810">
        <ele>-31.0</ele>
        <time>2022-06-09T10:33:22Z</time>
      </trkpt>
      <trkpt lat="47.5156900" lon="9.4389760">
        <ele>-30.8</ele>
        <time>2022-06-09T10:33:26Z</time>
      </trkpt>
      <trkpt lat="47.5157660" lon="9.4390710">
        <ele>-31.0</ele>
        <time>2022-06-09T10:33:30Z</time>
      </trkpt>
      <trkpt lat="47.5159000" lon="9.4391960">
        <ele>-30.8</ele>
        <time>2022-06-09T10:33:34Z</time>
      </trkpt>
      <trkpt lat="47.5160850" lon="9.4392110">
        <ele>-31.0</ele>
        <time>2022-06-09T10:33:38Z</time>
      </trkpt>
      <trkpt lat="47.5162850" lon="9.4391960">
        <ele>-30.4</ele>
        <time>2022-06-09T10:33:42Z</time>
      </trkpt>
      <trkpt lat="47.5164730" lon="9.4391060">
        <ele>-30.4</ele>
        <time>2022-06-09T10:33:46Z</time>
      </trkpt>
      <trkpt lat="47.5166730" lon="9.4390000">
        <ele>-30.8</ele>
        <time>2022-06-09T10:33:50Z</time>
      </trkpt>
      <trkpt lat="47.5168550" lon="9.4388700">
        <ele>-30.6</ele>
        <time>2022-06-09T10:33:54Z</time>
      </trkpt>
      <trkpt lat="47.5170410" lon="9.4387160">
        <ele>-30.6</ele>
        <time>2022-06-09T10:33:58Z</time>
      </trkpt>
      <trkpt lat="47.5172130" lon="9.4385310">
        <ele>-30.8</ele>
        <time>2022-06-09T10:34:02Z</time>
      </trkpt>
      <trkpt lat="47.5173760" lon="9.4383300">
        <ele>-30.6</ele>
        <time>2022-06-09T10:34:06Z</time>
      </trkpt>
      <trkpt lat="47.5175360" lon="9.4381180">
        <ele>-30.8</ele>
        <time>2022-06-09T10:34:10Z</time>
      </trkpt>
      <trkpt lat="47.5177010" lon="9.4379180">
        <ele>-31.0</ele>
        <time>2022-06-09T10:34:14Z</time>
      </trkpt>
      <trkpt lat="47.5178630" lon="9.4377200">
        <ele>-30.8</ele>
        <time>2022-06-09T10:34:18Z</time>
      </trkpt>
      <trkpt lat="47.5180050" lon="9.4374950">
        <ele>-31.0</ele>
        <time>2022-06-09T10:34:22Z</time>
      </trkpt>
      <trkpt lat="47.5180210" lon="9.4372080">
        <ele>-31.6</ele>
        <time>2022-06-09T10:34:26Z</time>
      </trkpt>
      <trkpt lat="47.5179350" lon="9.4369700">
        <ele>-31.2</ele>
        <time>2022-06-09T10:34:30Z</time>
      </trkpt>
      <trkpt lat="47.5180210" lon="9.4367210">
        <ele>-31.8</ele>
        <time>2022-06-09T10:34:34Z</time>
      </trkpt>
      <trkpt lat="47.5181350" lon="9.4364480">
        <ele>-31.6</ele>
        <time>2022-06-09T10:34:38Z</time>
      </trkpt>
      <trkpt lat="47.5182330" lon="9.4361700">
        <ele>-30.8</ele>
        <time>2022-06-09T10:34:42Z</time>
      </trkpt>
      <trkpt lat="47.5183000" lon="9.4358850">
        <ele>-31.2</ele>
        <time>2022-06-09T10:34:46Z</time>
      </trkpt>
      <trkpt lat="47.5183130" lon="9.4355830">
        <ele>-31.2</ele>
        <time>2022-06-09T10:34:50Z</time>
      </trkpt>
      <trkpt lat="47.5183800" lon="9.4352760">
        <ele>-31.0</ele>
        <time>2022-06-09T10:34:54Z</time>
      </trkpt>
      <trkpt lat="47.5184560" lon="9.4349700">
        <ele>-30.8</ele>
        <time>2022-06-09T10:34:58Z</time>
      </trkpt>
      <trkpt lat="47.5185280" lon="9.4346760">
        <ele>-30.4</ele>
        <time>2022-06-09T10:35:02Z</time>
      </trkpt>
      <trkpt lat="47.5185910" lon="9.4344400">
        <ele>-30.8</ele>
        <time>2022-06-09T10:35:06Z</time>
      </trkpt>
      <trkpt lat="47.5185730" lon="9.4342960">
        <ele>-30.6</ele>
        <time>2022-06-09T10:35:10Z</time>
      </trkpt>
      <trkpt lat="47.5185710" lon="9.4343630">
        <ele>-30.6</ele>
        <time>2022-06-09T10:35:14Z</time>
      </trkpt>
      <trkpt lat="47.5186360" lon="9.4343080">
        <ele>-30.4</ele>
        <time>2022-06-09T10:35:18Z</time>
      </trkpt>
      <trkpt lat="47.5187050" lon="9.4341430">
        <ele>-30.4</ele>
        <time>2022-06-09T10:35:22Z</time>
      </trkpt>
      <trkpt lat="47.5187860" lon="9.4339230">
        <ele>-30.2</ele>
        <time>2022-06-09T10:35:26Z</time>
      </trkpt>
      <trkpt lat="47.5188880" lon="9.4336930">
        <ele>-29.8</ele>
        <time>2022-06-09T10:35:30Z</time>
      </trkpt>
      <trkpt lat="47.5189900" lon="9.4334550">
        <ele>-29.8</ele>
        <time>2022-06-09T10:35:34Z</time>
      </trkpt>
      <trkpt lat="47.5190880" lon="9.4332060">
        <ele>-29.4</ele>
        <time>2022-06-09T10:35:38Z</time>
      </trkpt>
      <trkpt lat="47.5191810" lon="9.4329560">
        <ele>-29.2</ele>
        <time>2022-06-09T10:35:42Z</time>
      </trkpt>
      <trkpt lat="47.5192510" lon="9.4327060">
        <ele>-29.0</ele>
        <time>2022-06-09T10:35:46Z</time>
      </trkpt>
      <trkpt lat="47.5193500" lon="9.4324960">
        <ele>-29.0</ele>
        <time>2022-06-09T10:35:50Z</time>
      </trkpt>
      <trkpt lat="47.5194380" lon="9.4322800">
        <ele>-29.0</ele>
        <time>2022-06-09T10:35:54Z</time>
      </trkpt>
      <trkpt lat="47.5195050" lon="9.4320400">
        <ele>-28.4</ele>
        <time>2022-06-09T10:35:58Z</time>
      </trkpt>
      <trkpt lat="47.5195530" lon="9.4317850">
        <ele>-28.6</ele>
        <time>2022-06-09T10:36:02Z</time>
      </trkpt>
      <trkpt lat="47.5195950" lon="9.4315180">
        <ele>-28.8</ele>
        <time>2022-06-09T10:36:06Z</time>
      </trkpt>
      <trkpt lat="47.5196460" lon="9.4312730">
        <ele>-29.0</ele>
        <time>2022-06-09T10:36:10Z</time>
      </trkpt>
      <trkpt lat="47.5196530" lon="9.4310360">
        <ele>-29.0</ele>
        <time>2022-06-09T10:36:14Z</time>
      </trkpt>
      <trkpt lat="47.5196130" lon="9.4307510">
        <ele>-29.4</ele>
        <time>2022-06-09T10:36:18Z</time>
      </trkpt>
      <trkpt lat="47.5196580" lon="9.4304330">
        <ele>-30.6</ele>
        <time>2022-06-09T10:36:22Z</time>
      </trkpt>
      <trkpt lat="47.5195260" lon="9.4301980">
        <ele>-30.2</ele>
        <time>2022-06-09T10:36:26Z</time>
      </trkpt>
      <trkpt lat="47.5194110" lon="9.4299860">
        <ele>-30.0</ele>
        <time>2022-06-09T10:36:30Z</time>
      </trkpt>
      <trkpt lat="47.5194730" lon="9.4297080">
        <ele>-29.8</ele>
        <time>2022-06-09T10:36:34Z</time>
      </trkpt>
      <trkpt lat="47.5195680" lon="9.4294300">
        <ele>-29.4</ele>
        <time>2022-06-09T10:36:38Z</time>
      </trkpt>
      <trkpt lat="47.5196710" lon="9.4291510">
        <ele>-29.6</ele>
        <time>2022-06-09T10:36:42Z</time>
      </trkpt>
      <trkpt lat="47.5197780" lon="9.4288610">
        <ele>-29.6</ele>
        <time>2022-06-09T10:36:46Z</time>
      </trkpt>
      <trkpt lat="47.5198930" lon="9.4285730">
        <ele>-29.6</ele>
        <time>2022-06-09T10:36:50Z</time>
      </trkpt>
      <trkpt lat="47.5200150" lon="9.4282810">
        <ele>-30.0</ele>
        <time>2022-06-09T10:36:54Z</time>
      </trkpt>
      <trkpt lat="47.5201260" lon="9.4279750">
        <ele>-30.0</ele>
        <time>2022-06-09T10:36:58Z</time>
      </trkpt>
      <trkpt lat="47.5202480" lon="9.4276730">
        <ele>-30.2</ele>
        <time>2022-06-09T10:37:02Z</time>
      </trkpt>
      <trkpt lat="47.5203650" lon="9.4273730">
        <ele>-29.8</ele>
        <time>2022-06-09T10:37:06Z</time>
      </trkpt>
      <trkpt lat="47.5204800" lon="9.4270730">
        <ele>-30.0</ele>
        <time>2022-06-09T10:37:10Z</time>
      </trkpt>
      <trkpt lat="47.5205960" lon="9.4267850">
        <ele>-30.2</ele>
        <time>2022-06-09T10:37:14Z</time>
      </trkpt>
      <trkpt lat="47.5207160" lon="9.4264980">
        <ele>-30.8</ele>
        <time>2022-06-09T10:37:18Z</time>
      </trkpt>
      <trkpt lat="47.5208580" lon="9.4262150">
        <ele>-30.8</ele>
        <time>2022-06-09T10:37:22Z</time>
      </trkpt>
      <trkpt lat="47.5209500" lon="9.4258960">
        <ele>-30.6</ele>
        <time>2022-06-09T10:37:26Z</time>
      </trkpt>
      <trkpt lat="47.5210460" lon="9.4256180">
        <ele>-30.4</ele>
        <time>2022-06-09T10:37:30Z</time>
      </trkpt>
      <trkpt lat="47.5211510" lon="9.4253410">
        <ele>-29.8</ele>
        <time>2022-06-09T10:37:34Z</time>
      </trkpt>
      <trkpt lat="47.5212600" lon="9.4250660">
        <ele>-30.0</ele>
        <time>2022-06-09T10:37:38Z</time>
      </trkpt>
      <trkpt lat="47.5213660" lon="9.4247810">
        <ele>-29.8</ele>
        <time>2022-06-09T10:37:42Z</time>
      </trkpt>
      <trkpt lat="47.5214880" lon="9.4245180">
        <ele>-30.2</ele>
        <time>2022-06-09T10:37:46Z</time>
      </trkpt>
      <trkpt lat="47.5215980" lon="9.4242380">
        <ele>-29.6</ele>
        <time>2022-06-09T10:37:50Z</time>
      </trkpt>
      <trkpt lat="47.5217010" lon="9.4239680">
        <ele>-29.4</ele>
        <time>2022-06-09T10:37:54Z</time>
      </trkpt>
      <trkpt lat="47.5217930" lon="9.4237280">
        <ele>-29.4</ele>
        <time>2022-06-09T10:37:58Z</time>
      </trkpt>
      <trkpt lat="47.5219010" lon="9.4234730">
        <ele>-29.6</ele>
        <time>2022-06-09T10:38:02Z</time>
      </trkpt>
      <trkpt lat="47.5220300" lon="9.4232080">
        <ele>-30.2</ele>
        <time>2022-06-09T10:38:06Z</time>
      </trkpt>
      <trkpt lat="47.5221560" lon="9.4229380">
        <ele>-30.4</ele>
        <time>2022-06-09T10:38:10Z</time>
      </trkpt>
      <trkpt lat="47.5222930" lon="9.4226900">
        <ele>-30.8</ele>
        <time>2022-06-09T10:38:14Z</time>
      </trkpt>
      <trkpt lat="47.5224250" lon="9.4224300">
        <ele>-30.4</ele>
        <time>2022-06-09T10:38:18Z</time>
      </trkpt>
      <trkpt lat="47.5225600" lon="9.4221860">
        <ele>-30.4</ele>
        <time>2022-06-09T10:38:22Z</time>
      </trkpt>
      <trkpt lat="47.5226930" lon="9.4219500">
        <ele>-30.2</ele>
        <time>2022-06-09T10:38:26Z</time>
      </trkpt>
      <trkpt lat="47.5228430" lon="9.4217300">
        <ele>-30.0</ele>
        <time>2022-06-09T10:38:30Z</time>
      </trkpt>
      <trkpt lat="47.5230000" lon="9.4215110">
        <ele>-30.0</ele>
        <time>2022-06-09T10:38:34Z</time>
      </trkpt>
      <trkpt lat="47.5231650" lon="9.4213060">
        <ele>-30.4</ele>
        <time>2022-06-09T10:38:38Z</time>
      </trkpt>
      <trkpt lat="47.5233330" lon="9.4211250">
        <ele>-30.2</ele>
        <time>2022-06-09T10:38:42Z</time>
      </trkpt>
      <trkpt lat="47.5235060" lon="9.4209630">
        <ele>-29.8</ele>
        <time>2022-06-09T10:38:46Z</time>
      </trkpt>
      <trkpt lat="47.5236830" lon="9.4208150">
        <ele>-30.2</ele>
        <time>2022-06-09T10:38:50Z</time>
      </trkpt>
      <trkpt lat="47.5238660" lon="9.4206710">
        <ele>-30.2</ele>
        <time>2022-06-09T10:38:54Z</time>
      </trkpt>
      <trkpt lat="47.5240560" lon="9.4205360">
        <ele>-30.2</ele>
        <time>2022-06-09T10:38:58Z</time>
      </trkpt>
      <trkpt lat="47.5242480" lon="9.4204180">
        <ele>-30.2</ele>
        <time>2022-06-09T10:39:02Z</time>
      </trkpt>
      <trkpt lat="47.5244380" lon="9.4203910">
        <ele>-30.2</ele>
        <time>2022-06-09T10:39:06Z</time>
      </trkpt>
      <trkpt lat="47.5246410" lon="9.4203730">
        <ele>-30.4</ele>
        <time>2022-06-09T10:39:10Z</time>
      </trkpt>
      <trkpt lat="47.5248210" lon="9.4202380">
        <ele>-30.4</ele>
        <time>2022-06-09T10:39:14Z</time>
      </trkpt>
      <trkpt lat="47.5249830" lon="9.4200930">
        <ele>-30.4</ele>
        <time>2022-06-09T10:39:18Z</time>
      </trkpt>
      <trkpt lat="47.5251110" lon="9.4199480">
        <ele>-30.2</ele>
        <time>2022-06-09T10:39:22Z</time>
      </trkpt>
      <trkpt lat="47.5252310" lon="9.4197980">
        <ele>-29.6</ele>
        <time>2022-06-09T10:39:26Z</time>
      </trkpt>
      <trkpt lat="47.5253900" lon="9.4196530">
        <ele>-29.4</ele>
        <time>2022-06-09T10:39:30Z</time>
      </trkpt>
      <trkpt lat="47.5255110" lon="9.4194480">
        <ele>-29.2</ele>
        <time>2022-06-09T10:39:34Z</time>
      </trkpt>
      <trkpt lat="47.5256500" lon="9.4192250">
        <ele>-29.0</ele>
        <time>2022-06-09T10:39:38Z</time>
      </trkpt>
      <trkpt lat="47.5257900" lon="9.4190510">
        <ele>-28.4</ele>
        <time>2022-06-09T10:39:42Z</time>
      </trkpt>
      <trkpt lat="47.5259110" lon="9.4189060">
        <ele>-27.2</ele>
        <time>2022-06-09T10:39:46Z</time>
      </trkpt>
      <trkpt lat="47.5259280" lon="9.4188230">
        <ele>-27.8</ele>
        <time>2022-06-09T10:39:50Z</time>
      </trkpt>
      <trkpt lat="47.5259280" lon="9.4188230">
        <ele>-27.8</ele>
        <time>2022-06-09T10:39:54Z</time>
      </trkpt>
      <trkpt lat="47.5259280" lon="9.4188230">
        <ele>-27.6</ele>
        <time>2022-06-09T10:39:58Z</time>
      </trkpt>
      <trkpt lat="47.5259310" lon="9.4187930">
        <ele>-27.8</ele>
        <time>2022-06-09T10:40:02Z</time>
      </trkpt>
      <trkpt lat="47.5258950" lon="9.4187010">
        <ele>-27.2</ele>
        <time>2022-06-09T10:40:06Z</time>
      </trkpt>
      <trkpt lat="47.5259500" lon="9.4185410">
        <ele>-26.6</ele>
        <time>2022-06-09T10:40:10Z</time>
      </trkpt>
      <trkpt lat="47.5260410" lon="9.4183880">
        <ele>-26.4</ele>
        <time>2022-06-09T10:40:14Z</time>
      </trkpt>
      <trkpt lat="47.5261350" lon="9.4182210">
        <ele>-25.8</ele>
        <time>2022-06-09T10:40:18Z</time>
      </trkpt>
      <trkpt lat="47.5262410" lon="9.4180360">
        <ele>-25.6</ele>
        <time>2022-06-09T10:40:22Z</time>
      </trkpt>
      <trkpt lat="47.5263410" lon="9.4178630">
        <ele>-25.6</ele>
        <time>2022-06-09T10:40:26Z</time>
      </trkpt>
      <trkpt lat="47.5264600" lon="9.4176730">
        <ele>-25.2</ele>
        <time>2022-06-09T10:40:30Z</time>
      </trkpt>
      <trkpt lat="47.5265550" lon="9.4174310">
        <ele>-25.2</ele>
        <time>2022-06-09T10:40:34Z</time>
      </trkpt>
      <trkpt lat="47.5266650" lon="9.4172230">
        <ele>-24.4</ele>
        <time>2022-06-09T10:40:38Z</time>
      </trkpt>
      <trkpt lat="47.5267850" lon="9.4170210">
        <ele>-24.4</ele>
        <time>2022-06-09T10:40:42Z</time>
      </trkpt>
      <trkpt lat="47.5269080" lon="9.4168200">
        <ele>-24.2</ele>
        <time>2022-06-09T10:40:46Z</time>
      </trkpt>
      <trkpt lat="47.5270310" lon="9.4166130">
        <ele>-24.2</ele>
        <time>2022-06-09T10:40:50Z</time>
      </trkpt>
      <trkpt lat="47.5271660" lon="9.4164280">
        <ele>-24.6</ele>
        <time>2022-06-09T10:40:54Z</time>
      </trkpt>
      <trkpt lat="47.5273160" lon="9.4162380">
        <ele>-24.6</ele>
        <time>2022-06-09T10:40:58Z</time>
      </trkpt>
      <trkpt lat="47.5274660" lon="9.4160110">
        <ele>-25.0</ele>
        <time>2022-06-09T10:41:02Z</time>
      </trkpt>
      <trkpt lat="47.5276210" lon="9.4157600">
        <ele>-25.4</ele>
        <time>2022-06-09T10:41:06Z</time>
      </trkpt>
      <trkpt lat="47.5277860" lon="9.4155010">
        <ele>-26.2</ele>
        <time>2022-06-09T10:41:10Z</time>
      </trkpt>
      <trkpt lat="47.5279010" lon="9.4151930">
        <ele>-27.0</ele>
        <time>2022-06-09T10:41:14Z</time>
      </trkpt>
      <trkpt lat="47.5280630" lon="9.4149600">
        <ele>-27.0</ele>
        <time>2022-06-09T10:41:18Z</time>
      </trkpt>
      <trkpt lat="47.5282380" lon="9.4146880">
        <ele>-27.4</ele>
        <time>2022-06-09T10:41:22Z</time>
      </trkpt>
      <trkpt lat="47.5284050" lon="9.4144000">
        <ele>-27.2</ele>
        <time>2022-06-09T10:41:26Z</time>
      </trkpt>
      <trkpt lat="47.5285700" lon="9.4141050">
        <ele>-27.8</ele>
        <time>2022-06-09T10:41:30Z</time>
      </trkpt>
      <trkpt lat="47.5287400" lon="9.4138150">
        <ele>-28.2</ele>
        <time>2022-06-09T10:41:34Z</time>
      </trkpt>
      <trkpt lat="47.5289200" lon="9.4135110">
        <ele>-28.4</ele>
        <time>2022-06-09T10:41:38Z</time>
      </trkpt>
      <trkpt lat="47.5291080" lon="9.4132250">
        <ele>-28.2</ele>
        <time>2022-06-09T10:41:42Z</time>
      </trkpt>
      <trkpt lat="47.5292880" lon="9.4129450">
        <ele>-27.6</ele>
        <time>2022-06-09T10:41:46Z</time>
      </trkpt>
      <trkpt lat="47.5294600" lon="9.4126800">
        <ele>-27.2</ele>
        <time>2022-06-09T10:41:50Z</time>
      </trkpt>
      <trkpt lat="47.5296150" lon="9.4124300">
        <ele>-26.6</ele>
        <time>2022-06-09T10:41:54Z</time>
      </trkpt>
      <trkpt lat="47.5297610" lon="9.4121930">
        <ele>-26.0</ele>
        <time>2022-06-09T10:41:58Z</time>
      </trkpt>
      <trkpt lat="47.5299110" lon="9.4119560">
        <ele>-25.8</ele>
        <time>2022-06-09T10:42:02Z</time>
      </trkpt>
      <trkpt lat="47.5300580" lon="9.4117200">
        <ele>-25.4</ele>
        <time>2022-06-09T10:42:06Z</time>
      </trkpt>
      <trkpt lat="47.5301980" lon="9.4114800">
        <ele>-25.8</ele>
        <time>2022-06-09T10:42:10Z</time>
      </trkpt>
      <trkpt lat="47.5303410" lon="9.4112480">
        <ele>-25.4</ele>
        <time>2022-06-09T10:42:14Z</time>
      </trkpt>
      <trkpt lat="47.5304850" lon="9.4110100">
        <ele>-25.8</ele>
        <time>2022-06-09T10:42:18Z</time>
      </trkpt>
      <trkpt lat="47.5306330" lon="9.4107730">
        <ele>-26.4</ele>
        <time>2022-06-09T10:42:22Z</time>
      </trkpt>
      <trkpt lat="47.5307810" lon="9.4105310">
        <ele>-26.2</ele>
        <time>2022-06-09T10:42:26Z</time>
      </trkpt>
      <trkpt lat="47.5309300" lon="9.4102760">
        <ele>-26.6</ele>
        <time>2022-06-09T10:42:30Z</time>
      </trkpt>
      <trkpt lat="47.5310810" lon="9.4100260">
        <ele>-26.4</ele>
        <time>2022-06-09T10:42:34Z</time>
      </trkpt>
      <trkpt lat="47.5312300" lon="9.4097780">
        <ele>-26.8</ele>
        <time>2022-06-09T10:42:38Z</time>
      </trkpt>
      <trkpt lat="47.5313860" lon="9.4095200">
        <ele>-26.6</ele>
        <time>2022-06-09T10:42:42Z</time>
      </trkpt>
      <trkpt lat="47.5315400" lon="9.4092560">
        <ele>-27.4</ele>
        <time>2022-06-09T10:42:46Z</time>
      </trkpt>
      <trkpt lat="47.5317030" lon="9.4090010">
        <ele>-27.2</ele>
        <time>2022-06-09T10:42:50Z</time>
      </trkpt>
      <trkpt lat="47.5318700" lon="9.4087400">
        <ele>-27.4</ele>
        <time>2022-06-09T10:42:54Z</time>
      </trkpt>
      <trkpt lat="47.5320280" lon="9.4084760">
        <ele>-27.2</ele>
        <time>2022-06-09T10:42:58Z</time>
      </trkpt>
      <trkpt lat="47.5321730" lon="9.4082200">
        <ele>-26.6</ele>
        <time>2022-06-09T10:43:02Z</time>
      </trkpt>
      <trkpt lat="47.5323260" lon="9.4079650">
        <ele>-27.2</ele>
        <time>2022-06-09T10:43:06Z</time>
      </trkpt>
      <trkpt lat="47.5324780" lon="9.4076950">
        <ele>-27.4</ele>
        <time>2022-06-09T10:43:10Z</time>
      </trkpt>
      <trkpt lat="47.5326510" lon="9.4074180">
        <ele>-28.0</ele>
        <time>2022-06-09T10:43:14Z</time>
      </trkpt>
      <trkpt lat="47.5328310" lon="9.4070900">
        <ele>-28.4</ele>
        <time>2022-06-09T10:43:18Z</time>
      </trkpt>
      <trkpt lat="47.5330250" lon="9.4067610">
        <ele>-30.4</ele>
        <time>2022-06-09T10:43:22Z</time>
      </trkpt>
      <trkpt lat="47.5332050" lon="9.4064450">
        <ele>-30.6</ele>
        <time>2022-06-09T10:43:26Z</time>
      </trkpt>
      <trkpt lat="47.5333860" lon="9.4061410">
        <ele>-30.4</ele>
        <time>2022-06-09T10:43:30Z</time>
      </trkpt>
      <trkpt lat="47.5335650" lon="9.4058510">
        <ele>-30.6</ele>
        <time>2022-06-09T10:43:34Z</time>
      </trkpt>
      <trkpt lat="47.5337350" lon="9.4055580">
        <ele>-30.4</ele>
        <time>2022-06-09T10:43:38Z</time>
      </trkpt>
      <trkpt lat="47.5339100" lon="9.4052660">
        <ele>-30.8</ele>
        <time>2022-06-09T10:43:42Z</time>
      </trkpt>
      <trkpt lat="47.5340800" lon="9.4049910">
        <ele>-30.6</ele>
        <time>2022-06-09T10:43:46Z</time>
      </trkpt>
      <trkpt lat="47.5342450" lon="9.4047180">
        <ele>-30.6</ele>
        <time>2022-06-09T10:43:50Z</time>
      </trkpt>
      <trkpt lat="47.5344010" lon="9.4044460">
        <ele>-31.0</ele>
        <time>2022-06-09T10:43:54Z</time>
      </trkpt>
      <trkpt lat="47.5345580" lon="9.4041800">
        <ele>-31.0</ele>
        <time>2022-06-09T10:43:58Z</time>
      </trkpt>
      <trkpt lat="47.5347100" lon="9.4039230">
        <ele>-30.8</ele>
        <time>2022-06-09T10:44:02Z</time>
      </trkpt>
      <trkpt lat="47.5348560" lon="9.4036760">
        <ele>-30.8</ele>
        <time>2022-06-09T10:44:06Z</time>
      </trkpt>
      <trkpt lat="47.5350060" lon="9.4034330">
        <ele>-31.2</ele>
        <time>2022-06-09T10:44:10Z</time>
      </trkpt>
      <trkpt lat="47.5351550" lon="9.4031830">
        <ele>-30.4</ele>
        <time>2022-06-09T10:44:14Z</time>
      </trkpt>
      <trkpt lat="47.5353050" lon="9.4029400">
        <ele>-30.8</ele>
        <time>2022-06-09T10:44:18Z</time>
      </trkpt>
      <trkpt lat="47.5354480" lon="9.4027000">
        <ele>-30.8</ele>
        <time>2022-06-09T10:44:22Z</time>
      </trkpt>
      <trkpt lat="47.5355950" lon="9.4024630">
        <ele>-31.0</ele>
        <time>2022-06-09T10:44:26Z</time>
      </trkpt>
      <trkpt lat="47.5357400" lon="9.4022260">
        <ele>-30.6</ele>
        <time>2022-06-09T10:44:30Z</time>
      </trkpt>
      <trkpt lat="47.5358800" lon="9.4019860">
        <ele>-30.8</ele>
        <time>2022-06-09T10:44:34Z</time>
      </trkpt>
      <trkpt lat="47.5360230" lon="9.4017500">
        <ele>-30.6</ele>
        <time>2022-06-09T10:44:38Z</time>
      </trkpt>
      <trkpt lat="47.5361650" lon="9.4015080">
        <ele>-30.2</ele>
        <time>2022-06-09T10:44:42Z</time>
      </trkpt>
      <trkpt lat="47.5363050" lon="9.4012660">
        <ele>-30.0</ele>
        <time>2022-06-09T10:44:46Z</time>
      </trkpt>
      <trkpt lat="47.5364300" lon="9.4010200">
        <ele>-29.6</ele>
        <time>2022-06-09T10:44:50Z</time>
      </trkpt>
      <trkpt lat="47.5365450" lon="9.4007660">
        <ele>-29.6</ele>
        <time>2022-06-09T10:44:54Z</time>
      </trkpt>
      <trkpt lat="47.5366610" lon="9.4005200">
        <ele>-29.0</ele>
        <time>2022-06-09T10:44:58Z</time>
      </trkpt>
      <trkpt lat="47.5367860" lon="9.4002560">
        <ele>-28.4</ele>
        <time>2022-06-09T10:45:02Z</time>
      </trkpt>
      <trkpt lat="47.5369000" lon="9.3999960">
        <ele>-28.4</ele>
        <time>2022-06-09T10:45:06Z</time>
      </trkpt>
      <trkpt lat="47.5370180" lon="9.3997260">
        <ele>-29.0</ele>
        <time>2022-06-09T10:45:10Z</time>
      </trkpt>
      <trkpt lat="47.5371180" lon="9.3994610">
        <ele>-29.0</ele>
        <time>2022-06-09T10:45:14Z</time>
      </trkpt>
      <trkpt lat="47.5372130" lon="9.3992150">
        <ele>-28.2</ele>
        <time>2022-06-09T10:45:18Z</time>
      </trkpt>
      <trkpt lat="47.5373230" lon="9.3989630">
        <ele>-28.4</ele>
        <time>2022-06-09T10:45:22Z</time>
      </trkpt>
      <trkpt lat="47.5374300" lon="9.3987000">
        <ele>-28.6</ele>
        <time>2022-06-09T10:45:26Z</time>
      </trkpt>
      <trkpt lat="47.5375410" lon="9.3984310">
        <ele>-28.4</ele>
        <time>2022-06-09T10:45:30Z</time>
      </trkpt>
      <trkpt lat="47.5376600" lon="9.3981580">
        <ele>-28.8</ele>
        <time>2022-06-09T10:45:34Z</time>
      </trkpt>
      <trkpt lat="47.5377810" lon="9.3978800">
        <ele>-28.4</ele>
        <time>2022-06-09T10:45:38Z</time>
      </trkpt>
      <trkpt lat="47.5379000" lon="9.3975930">
        <ele>-28.4</ele>
        <time>2022-06-09T10:45:42Z</time>
      </trkpt>
      <trkpt lat="47.5380250" lon="9.3973180">
        <ele>-28.6</ele>
        <time>2022-06-09T10:45:46Z</time>
      </trkpt>
      <trkpt lat="47.5381550" lon="9.3970500">
        <ele>-28.6</ele>
        <time>2022-06-09T10:45:50Z</time>
      </trkpt>
      <trkpt lat="47.5382710" lon="9.3967700">
        <ele>-28.6</ele>
        <time>2022-06-09T10:45:54Z</time>
      </trkpt>
      <trkpt lat="47.5383910" lon="9.3964950">
        <ele>-28.4</ele>
        <time>2022-06-09T10:45:58Z</time>
      </trkpt>
      <trkpt lat="47.5385050" lon="9.3962150">
        <ele>-28.2</ele>
        <time>2022-06-09T10:46:02Z</time>
      </trkpt>
      <trkpt lat="47.5386230" lon="9.3959360">
        <ele>-28.2</ele>
        <time>2022-06-09T10:46:06Z</time>
      </trkpt>
      <trkpt lat="47.5387410" lon="9.3956510">
        <ele>-28.0</ele>
        <time>2022-06-09T10:46:10Z</time>
      </trkpt>
      <trkpt lat="47.5388630" lon="9.3953630">
        <ele>-28.4</ele>
        <time>2022-06-09T10:46:14Z</time>
      </trkpt>
      <trkpt lat="47.5389860" lon="9.3950760">
        <ele>-28.4</ele>
        <time>2022-06-09T10:46:18Z</time>
      </trkpt>
      <trkpt lat="47.5391050" lon="9.3947810">
        <ele>-28.6</ele>
        <time>2022-06-09T10:46:22Z</time>
      </trkpt>
      <trkpt lat="47.5392280" lon="9.3944960">
        <ele>-29.0</ele>
        <time>2022-06-09T10:46:26Z</time>
      </trkpt>
      <trkpt lat="47.5393450" lon="9.3942180">
        <ele>-28.6</ele>
        <time>2022-06-09T10:46:30Z</time>
      </trkpt>
      <trkpt lat="47.5394600" lon="9.3939500">
        <ele>-28.8</ele>
        <time>2022-06-09T10:46:34Z</time>
      </trkpt>
      <trkpt lat="47.5395700" lon="9.3936900">
        <ele>-28.4</ele>
        <time>2022-06-09T10:46:38Z</time>
      </trkpt>
      <trkpt lat="47.5396900" lon="9.3934130">
        <ele>-28.0</ele>
        <time>2022-06-09T10:46:42Z</time>
      </trkpt>
      <trkpt lat="47.5398060" lon="9.3931330">
        <ele>-27.8</ele>
        <time>2022-06-09T10:46:46Z</time>
      </trkpt>
      <trkpt lat="47.5399260" lon="9.3928500">
        <ele>-27.6</ele>
        <time>2022-06-09T10:46:50Z</time>
      </trkpt>
      <trkpt lat="47.5400460" lon="9.3925580">
        <ele>-28.0</ele>
        <time>2022-06-09T10:46:54Z</time>
      </trkpt>
      <trkpt lat="47.5401650" lon="9.3922650">
        <ele>-28.2</ele>
        <time>2022-06-09T10:46:58Z</time>
      </trkpt>
      <trkpt lat="47.5402830" lon="9.3919930">
        <ele>-28.2</ele>
        <time>2022-06-09T10:47:02Z</time>
      </trkpt>
      <trkpt lat="47.5403980" lon="9.3917250">
        <ele>-27.6</ele>
        <time>2022-06-09T10:47:06Z</time>
      </trkpt>
      <trkpt lat="47.5405060" lon="9.3914660">
        <ele>-27.8</ele>
        <time>2022-06-09T10:47:10Z</time>
      </trkpt>
      <trkpt lat="47.5406100" lon="9.3912060">
        <ele>-27.0</ele>
        <time>2022-06-09T10:47:14Z</time>
      </trkpt>
      <trkpt lat="47.5407230" lon="9.3909360">
        <ele>-27.4</ele>
        <time>2022-06-09T10:47:18Z</time>
      </trkpt>
      <trkpt lat="47.5408510" lon="9.3906580">
        <ele>-27.2</ele>
        <time>2022-06-09T10:47:22Z</time>
      </trkpt>
      <trkpt lat="47.5409680" lon="9.3903710">
        <ele>-27.0</ele>
        <time>2022-06-09T10:47:26Z</time>
      </trkpt>
      <trkpt lat="47.5410830" lon="9.3900950">
        <ele>-26.4</ele>
        <time>2022-06-09T10:47:30Z</time>
      </trkpt>
      <trkpt lat="47.5411980" lon="9.3898260">
        <ele>-26.2</ele>
        <time>2022-06-09T10:47:34Z</time>
      </trkpt>
      <trkpt lat="47.5413110" lon="9.3895630">
        <ele>-25.8</ele>
        <time>2022-06-09T10:47:38Z</time>
      </trkpt>
      <trkpt lat="47.5414200" lon="9.3892950">
        <ele>-25.2</ele>
        <time>2022-06-09T10:47:42Z</time>
      </trkpt>
      <trkpt lat="47.5415310" lon="9.3890350">
        <ele>-25.2</ele>
        <time>2022-06-09T10:47:46Z</time>
      </trkpt>
      <trkpt lat="47.5416400" lon="9.3887800">
        <ele>-25.6</ele>
        <time>2022-06-09T10:47:50Z</time>
      </trkpt>
      <trkpt lat="47.5417430" lon="9.3885300">
        <ele>-25.2</ele>
        <time>2022-06-09T10:47:54Z</time>
      </trkpt>
      <trkpt lat="47.5418450" lon="9.3882800">
        <ele>-25.2</ele>
        <time>2022-06-09T10:47:58Z</time>
      </trkpt>
      <trkpt lat="47.5419410" lon="9.3880360">
        <ele>-25.2</ele>
        <time>2022-06-09T10:48:02Z</time>
      </trkpt>
      <trkpt lat="47.5420450" lon="9.3877830">
        <ele>-25.6</ele>
        <time>2022-06-09T10:48:06Z</time>
      </trkpt>
      <trkpt lat="47.5421680" lon="9.3875230">
        <ele>-25.2</ele>
        <time>2022-06-09T10:48:10Z</time>
      </trkpt>
      <trkpt lat="47.5422760" lon="9.3872600">
        <ele>-25.0</ele>
        <time>2022-06-09T10:48:14Z</time>
      </trkpt>
      <trkpt lat="47.5423860" lon="9.3870010">
        <ele>-25.0</ele>
        <time>2022-06-09T10:48:18Z</time>
      </trkpt>
      <trkpt lat="47.5424980" lon="9.3867410">
        <ele>-24.4</ele>
        <time>2022-06-09T10:48:22Z</time>
      </trkpt>
      <trkpt lat="47.5426060" lon="9.3864780">
        <ele>-24.6</ele>
        <time>2022-06-09T10:48:26Z</time>
      </trkpt>
      <trkpt lat="47.5427200" lon="9.3862210">
        <ele>-24.6</ele>
        <time>2022-06-09T10:48:30Z</time>
      </trkpt>
      <trkpt lat="47.5428060" lon="9.3859510">
        <ele>-24.4</ele>
        <time>2022-06-09T10:48:34Z</time>
      </trkpt>
      <trkpt lat="47.5428880" lon="9.3856930">
        <ele>-24.4</ele>
        <time>2022-06-09T10:48:38Z</time>
      </trkpt>
      <trkpt lat="47.5429980" lon="9.3854410">
        <ele>-24.4</ele>
        <time>2022-06-09T10:48:42Z</time>
      </trkpt>
      <trkpt lat="47.5431030" lon="9.3851780">
        <ele>-24.4</ele>
        <time>2022-06-09T10:48:46Z</time>
      </trkpt>
      <trkpt lat="47.5432150" lon="9.3849160">
        <ele>-24.4</ele>
        <time>2022-06-09T10:48:50Z</time>
      </trkpt>
      <trkpt lat="47.5433160" lon="9.3846480">
        <ele>-23.8</ele>
        <time>2022-06-09T10:48:54Z</time>
      </trkpt>
      <trkpt lat="47.5434050" lon="9.3843760">
        <ele>-24.2</ele>
        <time>2022-06-09T10:48:58Z</time>
      </trkpt>
      <trkpt lat="47.5434730" lon="9.3841000">
        <ele>-24.0</ele>
        <time>2022-06-09T10:49:02Z</time>
      </trkpt>
      <trkpt lat="47.5434860" lon="9.3837980">
        <ele>-23.8</ele>
        <time>2022-06-09T10:49:06Z</time>
      </trkpt>
      <trkpt lat="47.5435630" lon="9.3835360">
        <ele>-24.8</ele>
        <time>2022-06-09T10:49:10Z</time>
      </trkpt>
      <trkpt lat="47.5436780" lon="9.3832680">
        <ele>-24.6</ele>
        <time>2022-06-09T10:49:14Z</time>
      </trkpt>
      <trkpt lat="47.5437900" lon="9.3830010">
        <ele>-24.6</ele>
        <time>2022-06-09T10:49:18Z</time>
      </trkpt>
      <trkpt lat="47.5439050" lon="9.3827450">
        <ele>-24.2</ele>
        <time>2022-06-09T10:49:22Z</time>
      </trkpt>
      <trkpt lat="47.5440180" lon="9.3824900">
        <ele>-25.0</ele>
        <time>2022-06-09T10:49:26Z</time>
      </trkpt>
      <trkpt lat="47.5441330" lon="9.3822330">
        <ele>-24.6</ele>
        <time>2022-06-09T10:49:30Z</time>
      </trkpt>
      <trkpt lat="47.5442650" lon="9.3819950">
        <ele>-24.2</ele>
        <time>2022-06-09T10:49:34Z</time>
      </trkpt>
      <trkpt lat="47.5443960" lon="9.3817660">
        <ele>-24.4</ele>
        <time>2022-06-09T10:49:38Z</time>
      </trkpt>
      <trkpt lat="47.5444980" lon="9.3814980">
        <ele>-24.6</ele>
        <time>2022-06-09T10:49:42Z</time>
      </trkpt>
      <trkpt lat="47.5446050" lon="9.3812400">
        <ele>-25.0</ele>
        <time>2022-06-09T10:49:46Z</time>
      </trkpt>
      <trkpt lat="47.5447230" lon="9.3810260">
        <ele>-25.2</ele>
        <time>2022-06-09T10:49:50Z</time>
      </trkpt>
      <trkpt lat="47.5448850" lon="9.3809930">
        <ele>-24.2</ele>
        <time>2022-06-09T10:49:54Z</time>
      </trkpt>
      <trkpt lat="47.5450310" lon="9.3809660">
        <ele>-25.2</ele>
        <time>2022-06-09T10:49:58Z</time>
      </trkpt>
      <trkpt lat="47.5451560" lon="9.3807710">
        <ele>-25.6</ele>
        <time>2022-06-09T10:50:02Z</time>
      </trkpt>
      <trkpt lat="47.5453080" lon="9.3805230">
        <ele>-25.4</ele>
        <time>2022-06-09T10:50:06Z</time>
      </trkpt>
      <trkpt lat="47.5454660" lon="9.3802650">
        <ele>-25.4</ele>
        <time>2022-06-09T10:50:10Z</time>
      </trkpt>
      <trkpt lat="47.5456230" lon="9.3800180">
        <ele>-25.2</ele>
        <time>2022-06-09T10:50:14Z</time>
      </trkpt>
      <trkpt lat="47.5457730" lon="9.3797900">
        <ele>-25.0</ele>
        <time>2022-06-09T10:50:18Z</time>
      </trkpt>
      <trkpt lat="47.5459310" lon="9.3795730">
        <ele>-25.2</ele>
        <time>2022-06-09T10:50:22Z</time>
      </trkpt>
      <trkpt lat="47.5461060" lon="9.3793900">
        <ele>-24.6</ele>
        <time>2022-06-09T10:50:26Z</time>
      </trkpt>
      <trkpt lat="47.5462880" lon="9.3792410">
        <ele>-24.2</ele>
        <time>2022-06-09T10:50:30Z</time>
      </trkpt>
      <trkpt lat="47.5464730" lon="9.3791200">
        <ele>-25.0</ele>
        <time>2022-06-09T10:50:34Z</time>
      </trkpt>
      <trkpt lat="47.5466730" lon="9.3789980">
        <ele>-25.0</ele>
        <time>2022-06-09T10:50:38Z</time>
      </trkpt>
      <trkpt lat="47.5468710" lon="9.3788830">
        <ele>-25.4</ele>
        <time>2022-06-09T10:50:42Z</time>
      </trkpt>
      <trkpt lat="47.5470750" lon="9.3788210">
        <ele>-25.4</ele>
        <time>2022-06-09T10:50:46Z</time>
      </trkpt>
      <trkpt lat="47.5472560" lon="9.3789500">
        <ele>-25.4</ele>
        <time>2022-06-09T10:50:50Z</time>
      </trkpt>
      <trkpt lat="47.5474500" lon="9.3791160">
        <ele>-25.4</ele>
        <time>2022-06-09T10:50:54Z</time>
      </trkpt>
      <trkpt lat="47.5476150" lon="9.3792780">
        <ele>-25.6</ele>
        <time>2022-06-09T10:50:58Z</time>
      </trkpt>
      <trkpt lat="47.5477750" lon="9.3794450">
        <ele>-25.2</ele>
        <time>2022-06-09T10:51:02Z</time>
      </trkpt>
      <trkpt lat="47.5479380" lon="9.3793760">
        <ele>-24.2</ele>
        <time>2022-06-09T10:51:06Z</time>
      </trkpt>
      <trkpt lat="47.5480260" lon="9.3791850">
        <ele>-23.6</ele>
        <time>2022-06-09T10:51:10Z</time>
      </trkpt>
      <trkpt lat="47.5481060" lon="9.3790250">
        <ele>-22.6</ele>
        <time>2022-06-09T10:51:14Z</time>
      </trkpt>
      <trkpt lat="47.5481810" lon="9.3788860">
        <ele>-22.8</ele>
        <time>2022-06-09T10:51:18Z</time>
      </trkpt>
      <trkpt lat="47.5482580" lon="9.3787650">
        <ele>-21.6</ele>
        <time>2022-06-09T10:51:22Z</time>
      </trkpt>
      <trkpt lat="47.5483200" lon="9.3786410">
        <ele>-21.6</ele>
        <time>2022-06-09T10:51:26Z</time>
      </trkpt>
      <trkpt lat="47.5483810" lon="9.3785050">
        <ele>-21.2</ele>
        <time>2022-06-09T10:51:30Z</time>
      </trkpt>
      <trkpt lat="47.5484700" lon="9.3783500">
        <ele>-22.4</ele>
        <time>2022-06-09T10:51:34Z</time>
      </trkpt>
      <trkpt lat="47.5485750" lon="9.3781410">
        <ele>-23.6</ele>
        <time>2022-06-09T10:51:38Z</time>
      </trkpt>
      <trkpt lat="47.5486910" lon="9.3778110">
        <ele>-25.4</ele>
        <time>2022-06-09T10:51:42Z</time>
      </trkpt>
      <trkpt lat="47.5488880" lon="9.3774950">
        <ele>-25.8</ele>
        <time>2022-06-09T10:51:46Z</time>
      </trkpt>
      <trkpt lat="47.5491160" lon="9.3771980">
        <ele>-26.2</ele>
        <time>2022-06-09T10:51:50Z</time>
      </trkpt>
      <trkpt lat="47.5493110" lon="9.3768810">
        <ele>-27.0</ele>
        <time>2022-06-09T10:51:54Z</time>
      </trkpt>
      <trkpt lat="47.5495010" lon="9.3765860">
        <ele>-25.8</ele>
        <time>2022-06-09T10:51:58Z</time>
      </trkpt>
      <trkpt lat="47.5496850" lon="9.3763030">
        <ele>-26.4</ele>
        <time>2022-06-09T10:52:02Z</time>
      </trkpt>
      <trkpt lat="47.5498550" lon="9.3760260">
        <ele>-26.8</ele>
        <time>2022-06-09T10:52:06Z</time>
      </trkpt>
      <trkpt lat="47.5500380" lon="9.3758000">
        <ele>-26.6</ele>
        <time>2022-06-09T10:52:10Z</time>
      </trkpt>
      <trkpt lat="47.5502250" lon="9.3755930">
        <ele>-26.2</ele>
        <time>2022-06-09T10:52:14Z</time>
      </trkpt>
      <trkpt lat="47.5504010" lon="9.3753800">
        <ele>-26.4</ele>
        <time>2022-06-09T10:52:18Z</time>
      </trkpt>
      <trkpt lat="47.5505860" lon="9.3751760">
        <ele>-26.4</ele>
        <time>2022-06-09T10:52:22Z</time>
      </trkpt>
      <trkpt lat="47.5507730" lon="9.3749930">
        <ele>-26.2</ele>
        <time>2022-06-09T10:52:26Z</time>
      </trkpt>
      <trkpt lat="47.5509600" lon="9.3748110">
        <ele>-25.8</ele>
        <time>2022-06-09T10:52:30Z</time>
      </trkpt>
      <trkpt lat="47.5511410" lon="9.3746830">
        <ele>-26.4</ele>
        <time>2022-06-09T10:52:34Z</time>
      </trkpt>
      <trkpt lat="47.5513560" lon="9.3745760">
        <ele>-26.6</ele>
        <time>2022-06-09T10:52:38Z</time>
      </trkpt>
      <trkpt lat="47.5515860" lon="9.3745000">
        <ele>-27.0</ele>
        <time>2022-06-09T10:52:42Z</time>
      </trkpt>
      <trkpt lat="47.5518160" lon="9.3744180">
        <ele>-27.0</ele>
        <time>2022-06-09T10:52:46Z</time>
      </trkpt>
      <trkpt lat="47.5520650" lon="9.3743380">
        <ele>-27.4</ele>
        <time>2022-06-09T10:52:50Z</time>
      </trkpt>
      <trkpt lat="47.5523180" lon="9.3742610">
        <ele>-27.6</ele>
        <time>2022-06-09T10:52:54Z</time>
      </trkpt>
      <trkpt lat="47.5525700" lon="9.3742230">
        <ele>-27.8</ele>
        <time>2022-06-09T10:52:58Z</time>
      </trkpt>
      <trkpt lat="47.5528280" lon="9.3742060">
        <ele>-28.4</ele>
        <time>2022-06-09T10:53:02Z</time>
      </trkpt>
      <trkpt lat="47.5530710" lon="9.3742210">
        <ele>-28.4</ele>
        <time>2022-06-09T10:53:06Z</time>
      </trkpt>
      <trkpt lat="47.5533080" lon="9.3742400">
        <ele>-28.6</ele>
        <time>2022-06-09T10:53:10Z</time>
      </trkpt>
      <trkpt lat="47.5535530" lon="9.3742580">
        <ele>-28.2</ele>
        <time>2022-06-09T10:53:14Z</time>
      </trkpt>
      <trkpt lat="47.5538000" lon="9.3742750">
        <ele>-28.2</ele>
        <time>2022-06-09T10:53:18Z</time>
      </trkpt>
      <trkpt lat="47.5540430" lon="9.3742930">
        <ele>-28.0</ele>
        <time>2022-06-09T10:53:22Z</time>
      </trkpt>
      <trkpt lat="47.5542710" lon="9.3743080">
        <ele>-28.4</ele>
        <time>2022-06-09T10:53:26Z</time>
      </trkpt>
      <trkpt lat="47.5544810" lon="9.3743300">
        <ele>-28.0</ele>
        <time>2022-06-09T10:53:30Z</time>
      </trkpt>
      <trkpt lat="47.5546800" lon="9.3743360">
        <ele>-28.6</ele>
        <time>2022-06-09T10:53:34Z</time>
      </trkpt>
      <trkpt lat="47.5548710" lon="9.3743400">
        <ele>-28.6</ele>
        <time>2022-06-09T10:53:38Z</time>
      </trkpt>
      <trkpt lat="47.5550850" lon="9.3742960">
        <ele>-28.6</ele>
        <time>2022-06-09T10:53:42Z</time>
      </trkpt>
      <trkpt lat="47.5553030" lon="9.3743010">
        <ele>-28.8</ele>
        <time>2022-06-09T10:53:46Z</time>
      </trkpt>
      <trkpt lat="47.5555160" lon="9.3742630">
        <ele>-28.8</ele>
        <time>2022-06-09T10:53:50Z</time>
      </trkpt>
      <trkpt lat="47.5557260" lon="9.3742110">
        <ele>-29.2</ele>
        <time>2022-06-09T10:53:54Z</time>
      </trkpt>
      <trkpt lat="47.5559430" lon="9.3742150">
        <ele>-29.6</ele>
        <time>2022-06-09T10:53:58Z</time>
      </trkpt>
      <trkpt lat="47.5561660" lon="9.3742700">
        <ele>-29.2</ele>
        <time>2022-06-09T10:54:02Z</time>
      </trkpt>
      <trkpt lat="47.5563650" lon="9.3743650">
        <ele>-29.8</ele>
        <time>2022-06-09T10:54:06Z</time>
      </trkpt>
      <trkpt lat="47.5565110" lon="9.3744500">
        <ele>-29.8</ele>
        <time>2022-06-09T10:54:10Z</time>
      </trkpt>
      <trkpt lat="47.5566110" lon="9.3744880">
        <ele>-29.8</ele>
        <time>2022-06-09T10:54:14Z</time>
      </trkpt>
      <trkpt lat="47.5567230" lon="9.3745430">
        <ele>-29.6</ele>
        <time>2022-06-09T10:54:18Z</time>
      </trkpt>
      <trkpt lat="47.5567950" lon="9.3746110">
        <ele>-30.2</ele>
        <time>2022-06-09T10:54:22Z</time>
      </trkpt>
      <trkpt lat="47.5567860" lon="9.3746430">
        <ele>-29.4</ele>
        <time>2022-06-09T10:54:26Z</time>
      </trkpt>
      <trkpt lat="47.5567860" lon="9.3746430">
        <ele>-29.8</ele>
        <time>2022-06-09T10:54:30Z</time>
      </trkpt>
      <trkpt lat="47.5567860" lon="9.3746430">
        <ele>-30.4</ele>
        <time>2022-06-09T10:54:34Z</time>
      </trkpt>
      <trkpt lat="47.5567860" lon="9.3746430">
        <ele>-30.6</ele>
        <time>2022-06-09T10:54:38Z</time>
      </trkpt>
      <trkpt lat="47.5567860" lon="9.3746430">
        <ele>-31.0</ele>
        <time>2022-06-09T10:54:42Z</time>
      </trkpt>
      <trkpt lat="47.5567860" lon="9.3746430">
        <ele>-30.6</ele>
        <time>2022-06-09T10:54:46Z</time>
      </trkpt>
      <trkpt lat="47.5567860" lon="9.3746430">
        <ele>-30.4</ele>
        <time>2022-06-09T10:54:50Z</time>
      </trkpt>
      <trkpt lat="47.5567860" lon="9.3746430">
        <ele>-30.6</ele>
        <time>2022-06-09T10:54:54Z</time>
      </trkpt>
      <trkpt lat="47.5567860" lon="9.3746430">
        <ele>-30.8</ele>
        <time>2022-06-09T10:54:58Z</time>
      </trkpt>
      <trkpt lat="47.5567860" lon="9.3746430">
        <ele>-31.0</ele>
        <time>2022-06-09T10:55:02Z</time>
      </trkpt>
      <trkpt lat="47.5567860" lon="9.3746430">
        <ele>-31.2</ele>
        <time>2022-06-09T10:55:06Z</time>
      </trkpt>
      <trkpt lat="47.5567860" lon="9.3746430">
        <ele>-31.6</ele>
        <time>2022-06-09T10:55:10Z</time>
      </trkpt>
      <trkpt lat="47.5567860" lon="9.3746430">
        <ele>-31.6</ele>
        <time>2022-06-09T10:55:14Z</time>
      </trkpt>
      <trkpt lat="47.5567610" lon="9.3746760">
        <ele>-31.8</ele>
        <time>2022-06-09T10:55:18Z</time>
      </trkpt>
      <trkpt lat="47.5567530" lon="9.3746560">
        <ele>-31.6</ele>
        <time>2022-06-09T10:55:22Z</time>
      </trkpt>
      <trkpt lat="47.5567530" lon="9.3746560">
        <ele>-31.8</ele>
        <time>2022-06-09T10:55:26Z</time>
      </trkpt>
      <trkpt lat="47.5567530" lon="9.3746560">
        <ele>-32.6</ele>
        <time>2022-06-09T10:55:30Z</time>
      </trkpt>
      <trkpt lat="47.5567530" lon="9.3746560">
        <ele>-32.4</ele>
        <time>2022-06-09T10:55:34Z</time>
      </trkpt>
      <trkpt lat="47.5567530" lon="9.3746560">
        <ele>-33.6</ele>
        <time>2022-06-09T10:55:38Z</time>
      </trkpt>
      <trkpt lat="47.5567530" lon="9.3746560">
        <ele>-33.8</ele>
        <time>2022-06-09T10:55:42Z</time>
      </trkpt>
      <trkpt lat="47.5567880" lon="9.3746580">
        <ele>-34.6</ele>
        <time>2022-06-09T10:55:46Z</time>
      </trkpt>
      <trkpt lat="47.5567880" lon="9.3746580">
        <ele>-34.8</ele>
        <time>2022-06-09T10:55:50Z</time>
      </trkpt>
      <trkpt lat="47.5567880" lon="9.3746580">
        <ele>-35.4</ele>
        <time>2022-06-09T10:55:54Z</time>
      </trkpt>
      <trkpt lat="47.5567880" lon="9.3746580">
        <ele>-35.8</ele>
        <time>2022-06-09T10:55:58Z</time>
      </trkpt>
      <trkpt lat="47.5567880" lon="9.3746580">
        <ele>-36.2</ele>
        <time>2022-06-09T10:56:02Z</time>
      </trkpt>
      <trkpt lat="47.5567880" lon="9.3746580">
        <ele>-36.6</ele>
        <time>2022-06-09T10:56:06Z</time>
      </trkpt>
      <trkpt lat="47.5568130" lon="9.3746560">
        <ele>-36.8</ele>
        <time>2022-06-09T10:56:10Z</time>
      </trkpt>
      <trkpt lat="47.5568580" lon="9.3746350">
        <ele>-37.0</ele>
        <time>2022-06-09T10:56:14Z</time>
      </trkpt>
      <trkpt lat="47.5569330" lon="9.3746730">
        <ele>-37.6</ele>
        <time>2022-06-09T10:56:18Z</time>
      </trkpt>
      <trkpt lat="47.5570430" lon="9.3747380">
        <ele>-34.0</ele>
        <time>2022-06-09T10:56:22Z</time>
      </trkpt>
      <trkpt lat="47.5571650" lon="9.3748080">
        <ele>-34.0</ele>
        <time>2022-06-09T10:56:26Z</time>
      </trkpt>
      <trkpt lat="47.5572860" lon="9.3748800">
        <ele>-34.4</ele>
        <time>2022-06-09T10:56:30Z</time>
      </trkpt>
      <trkpt lat="47.5574150" lon="9.3749400">
        <ele>-34.4</ele>
        <time>2022-06-09T10:56:34Z</time>
      </trkpt>
      <trkpt lat="47.5575350" lon="9.3750080">
        <ele>-33.8</ele>
        <time>2022-06-09T10:56:38Z</time>
      </trkpt>
      <trkpt lat="47.5576600" lon="9.3750830">
        <ele>-33.8</ele>
        <time>2022-06-09T10:56:42Z</time>
      </trkpt>
      <trkpt lat="47.5577950" lon="9.3751610">
        <ele>-34.0</ele>
        <time>2022-06-09T10:56:46Z</time>
      </trkpt>
      <trkpt lat="47.5579530" lon="9.3752460">
        <ele>-34.4</ele>
        <time>2022-06-09T10:56:50Z</time>
      </trkpt>
      <trkpt lat="47.5581210" lon="9.3753260">
        <ele>-34.2</ele>
        <time>2022-06-09T10:56:54Z</time>
      </trkpt>
      <trkpt lat="47.5582760" lon="9.3754200">
        <ele>-34.2</ele>
        <time>2022-06-09T10:56:58Z</time>
      </trkpt>
      <trkpt lat="47.5584080" lon="9.3754980">
        <ele>-34.0</ele>
        <time>2022-06-09T10:57:02Z</time>
      </trkpt>
      <trkpt lat="47.5585180" lon="9.3755680">
        <ele>-34.2</ele>
        <time>2022-06-09T10:57:06Z</time>
      </trkpt>
      <trkpt lat="47.5585980" lon="9.3756130">
        <ele>-34.2</ele>
        <time>2022-06-09T10:57:10Z</time>
      </trkpt>
      <trkpt lat="47.5587110" lon="9.3756760">
        <ele>-34.2</ele>
        <time>2022-06-09T10:57:14Z</time>
      </trkpt>
      <trkpt lat="47.5588530" lon="9.3757530">
        <ele>-34.4</ele>
        <time>2022-06-09T10:57:18Z</time>
      </trkpt>
      <trkpt lat="47.5590100" lon="9.3758480">
        <ele>-34.8</ele>
        <time>2022-06-09T10:57:22Z</time>
      </trkpt>
      <trkpt lat="47.5591730" lon="9.3759430">
        <ele>-34.6</ele>
        <time>2022-06-09T10:57:26Z</time>
      </trkpt>
      <trkpt lat="47.5593380" lon="9.3760460">
        <ele>-34.8</ele>
        <time>2022-06-09T10:57:30Z</time>
      </trkpt>
      <trkpt lat="47.5595050" lon="9.3761460">
        <ele>-35.0</ele>
        <time>2022-06-09T10:57:34Z</time>
      </trkpt>
      <trkpt lat="47.5596700" lon="9.3762450">
        <ele>-34.8</ele>
        <time>2022-06-09T10:57:38Z</time>
      </trkpt>
      <trkpt lat="47.5598210" lon="9.3763380">
        <ele>-34.8</ele>
        <time>2022-06-09T10:57:42Z</time>
      </trkpt>
      <trkpt lat="47.5599730" lon="9.3764430">
        <ele>-35.0</ele>
        <time>2022-06-09T10:57:46Z</time>
      </trkpt>
      <trkpt lat="47.5600800" lon="9.3766700">
        <ele>-35.4</ele>
        <time>2022-06-09T10:57:50Z</time>
      </trkpt>
      <trkpt lat="47.5601830" lon="9.3769030">
        <ele>-35.4</ele>
        <time>2022-06-09T10:57:54Z</time>
      </trkpt>
      <trkpt lat="47.5603010" lon="9.3771360">
        <ele>-35.4</ele>
        <time>2022-06-09T10:57:58Z</time>
      </trkpt>
      <trkpt lat="47.5604360" lon="9.3773560">
        <ele>-35.8</ele>
        <time>2022-06-09T10:58:02Z</time>
      </trkpt>
      <trkpt lat="47.5605700" lon="9.3775730">
        <ele>-35.8</ele>
        <time>2022-06-09T10:58:06Z</time>
      </trkpt>
      <trkpt lat="47.5607130" lon="9.3777850">
        <ele>-36.2</ele>
        <time>2022-06-09T10:58:10Z</time>
      </trkpt>
      <trkpt lat="47.5608610" lon="9.3780000">
        <ele>-36.8</ele>
        <time>2022-06-09T10:58:14Z</time>
      </trkpt>
      <trkpt lat="47.5610200" lon="9.3782000">
        <ele>-37.2</ele>
        <time>2022-06-09T10:58:18Z</time>
      </trkpt>
      <trkpt lat="47.5611850" lon="9.3783900">
        <ele>-37.4</ele>
        <time>2022-06-09T10:58:22Z</time>
      </trkpt>
      <trkpt lat="47.5613580" lon="9.3785510">
        <ele>-37.6</ele>
        <time>2022-06-09T10:58:26Z</time>
      </trkpt>
      <trkpt lat="47.5615530" lon="9.3786560">
        <ele>-37.6</ele>
        <time>2022-06-09T10:58:30Z</time>
      </trkpt>
      <trkpt lat="47.5617650" lon="9.3787150">
        <ele>-38.2</ele>
        <time>2022-06-09T10:58:34Z</time>
      </trkpt>
      <trkpt lat="47.5619800" lon="9.3787860">
        <ele>-38.4</ele>
        <time>2022-06-09T10:58:38Z</time>
      </trkpt>
      <trkpt lat="47.5621900" lon="9.3788950">
        <ele>-39.0</ele>
        <time>2022-06-09T10:58:42Z</time>
      </trkpt>
      <trkpt lat="47.5624050" lon="9.3790100">
        <ele>-39.0</ele>
        <time>2022-06-09T10:58:46Z</time>
      </trkpt>
      <trkpt lat="47.5626250" lon="9.3790810">
        <ele>-39.0</ele>
        <time>2022-06-09T10:58:50Z</time>
      </trkpt>
      <trkpt lat="47.5628310" lon="9.3791610">
        <ele>-39.4</ele>
        <time>2022-06-09T10:58:54Z</time>
      </trkpt>
      <trkpt lat="47.5630480" lon="9.3792010">
        <ele>-40.4</ele>
        <time>2022-06-09T10:58:58Z</time>
      </trkpt>
      <trkpt lat="47.5632680" lon="9.3792030">
        <ele>-40.8</ele>
        <time>2022-06-09T10:59:02Z</time>
      </trkpt>
      <trkpt lat="47.5634750" lon="9.3791830">
        <ele>-41.2</ele>
        <time>2022-06-09T10:59:06Z</time>
      </trkpt>
      <trkpt lat="47.5636860" lon="9.3791880">
        <ele>-41.4</ele>
        <time>2022-06-09T10:59:10Z</time>
      </trkpt>
      <trkpt lat="47.5639010" lon="9.3791780">
        <ele>-42.0</ele>
        <time>2022-06-09T10:59:14Z</time>
      </trkpt>
      <trkpt lat="47.5641150" lon="9.3791750">
        <ele>-42.4</ele>
        <time>2022-06-09T10:59:18Z</time>
      </trkpt>
      <trkpt lat="47.5643210" lon="9.3791480">
        <ele>-42.6</ele>
        <time>2022-06-09T10:59:22Z</time>
      </trkpt>
      <trkpt lat="47.5645260" lon="9.3791430">
        <ele>-42.8</ele>
        <time>2022-06-09T10:59:26Z</time>
      </trkpt>
      <trkpt lat="47.5647050" lon="9.3791360">
        <ele>-43.0</ele>
        <time>2022-06-09T10:59:30Z</time>
      </trkpt>
      <trkpt lat="47.5648630" lon="9.3791050">
        <ele>-42.8</ele>
        <time>2022-06-09T10:59:34Z</time>
      </trkpt>
      <trkpt lat="47.5650200" lon="9.3790780">
        <ele>-43.4</ele>
        <time>2022-06-09T10:59:38Z</time>
      </trkpt>
      <trkpt lat="47.5651180" lon="9.3791930">
        <ele>-43.4</ele>
        <time>2022-06-09T10:59:42Z</time>
      </trkpt>
      <trkpt lat="47.5651980" lon="9.3791660">
        <ele>-43.8</ele>
        <time>2022-06-09T10:59:46Z</time>
      </trkpt>
      <trkpt lat="47.5653130" lon="9.3791200">
        <ele>-44.2</ele>
        <time>2022-06-09T10:59:50Z</time>
      </trkpt>
      <trkpt lat="47.5654880" lon="9.3790850">
        <ele>-44.2</ele>
        <time>2022-06-09T10:59:54Z</time>
      </trkpt>
      <trkpt lat="47.5656680" lon="9.3790650">
        <ele>-44.2</ele>
        <time>2022-06-09T10:59:58Z</time>
      </trkpt>
      <trkpt lat="47.5658500" lon="9.3790900">
        <ele>-44.6</ele>
        <time>2022-06-09T11:00:02Z</time>
      </trkpt>
      <trkpt lat="47.5660450" lon="9.3790930">
        <ele>-44.8</ele>
        <time>2022-06-09T11:00:06Z</time>
      </trkpt>
      <trkpt lat="47.5662400" lon="9.3791110">
        <ele>-45.0</ele>
        <time>2022-06-09T11:00:10Z</time>
      </trkpt>
      <trkpt lat="47.5664350" lon="9.3791010">
        <ele>-45.4</ele>
        <time>2022-06-09T11:00:14Z</time>
      </trkpt>
      <trkpt lat="47.5666160" lon="9.3791060">
        <ele>-45.6</ele>
        <time>2022-06-09T11:00:18Z</time>
      </trkpt>
      <trkpt lat="47.5667930" lon="9.3791160">
        <ele>-45.6</ele>
        <time>2022-06-09T11:00:22Z</time>
      </trkpt>
      <trkpt lat="47.5669800" lon="9.3791560">
        <ele>-46.4</ele>
        <time>2022-06-09T11:00:26Z</time>
      </trkpt>
      <trkpt lat="47.5671660" lon="9.3792330">
        <ele>-46.6</ele>
        <time>2022-06-09T11:00:30Z</time>
      </trkpt>
      <trkpt lat="47.5673380" lon="9.3793360">
        <ele>-46.8</ele>
        <time>2022-06-09T11:00:34Z</time>
      </trkpt>
      <trkpt lat="47.5674180" lon="9.3795550">
        <ele>-47.2</ele>
        <time>2022-06-09T11:00:38Z</time>
      </trkpt>
      <trkpt lat="47.5674410" lon="9.3798150">
        <ele>-48.4</ele>
        <time>2022-06-09T11:00:42Z</time>
      </trkpt>
      <trkpt lat="47.5674630" lon="9.3800910">
        <ele>-48.6</ele>
        <time>2022-06-09T11:00:46Z</time>
      </trkpt>
      <trkpt lat="47.5675080" lon="9.3803760">
        <ele>-49.0</ele>
        <time>2022-06-09T11:00:50Z</time>
      </trkpt>
      <trkpt lat="47.5675600" lon="9.3806580">
        <ele>-30.2</ele>
        <time>2022-06-09T11:00:54Z</time>
      </trkpt>
      <trkpt lat="47.5676000" lon="9.3809560">
        <ele>-28.6</ele>
        <time>2022-06-09T11:00:58Z</time>
      </trkpt>
      <trkpt lat="47.5676360" lon="9.3812430">
        <ele>-30.4</ele>
        <time>2022-06-09T11:01:02Z</time>
      </trkpt>
      <trkpt lat="47.5676600" lon="9.3815300">
        <ele>-30.8</ele>
        <time>2022-06-09T11:01:06Z</time>
      </trkpt>
      <trkpt lat="47.5676810" lon="9.3818150">
        <ele>-31.0</ele>
        <time>2022-06-09T11:01:10Z</time>
      </trkpt>
      <trkpt lat="47.5677130" lon="9.3820950">
        <ele>-31.6</ele>
        <time>2022-06-09T11:01:14Z</time>
      </trkpt>
      <trkpt lat="47.5677230" lon="9.3823760">
        <ele>-32.4</ele>
        <time>2022-06-09T11:01:18Z</time>
      </trkpt>
      <trkpt lat="47.5677450" lon="9.3826460">
        <ele>-32.8</ele>
        <time>2022-06-09T11:01:22Z</time>
      </trkpt>
      <trkpt lat="47.5677950" lon="9.3828560">
        <ele>-32.8</ele>
        <time>2022-06-09T11:01:26Z</time>
      </trkpt>
      <trkpt lat="47.5679210" lon="9.3828650">
        <ele>-33.0</ele>
        <time>2022-06-09T11:01:30Z</time>
      </trkpt>
      <trkpt lat="47.5680600" lon="9.3828130">
        <ele>-33.2</ele>
        <time>2022-06-09T11:01:34Z</time>
      </trkpt>
      <trkpt lat="47.5681960" lon="9.3826500">
        <ele>-33.6</ele>
        <time>2022-06-09T11:01:38Z</time>
      </trkpt>
      <trkpt lat="47.5683710" lon="9.3826750">
        <ele>-34.0</ele>
        <time>2022-06-09T11:01:42Z</time>
      </trkpt>
      <trkpt lat="47.5685400" lon="9.3827880">
        <ele>-34.0</ele>
        <time>2022-06-09T11:01:46Z</time>
      </trkpt>
      <trkpt lat="47.5687050" lon="9.3828680">
        <ele>-34.4</ele>
        <time>2022-06-09T11:01:50Z</time>
      </trkpt>
      <trkpt lat="47.5688810" lon="9.3828030">
        <ele>-34.8</ele>
        <time>2022-06-09T11:01:54Z</time>
      </trkpt>
      <trkpt lat="47.5690530" lon="9.3827010">
        <ele>-35.0</ele>
        <time>2022-06-09T11:01:58Z</time>
      </trkpt>
      <trkpt lat="47.5692200" lon="9.3825980">
        <ele>-34.8</ele>
        <time>2022-06-09T11:02:02Z</time>
      </trkpt>
      <trkpt lat="47.5693830" lon="9.3825010">
        <ele>-35.0</ele>
        <time>2022-06-09T11:02:06Z</time>
      </trkpt>
      <trkpt lat="47.5695150" lon="9.3823430">
        <ele>-35.2</ele>
        <time>2022-06-09T11:02:10Z</time>
      </trkpt>
      <trkpt lat="47.5696750" lon="9.3821680">
        <ele>-35.0</ele>
        <time>2022-06-09T11:02:14Z</time>
      </trkpt>
      <trkpt lat="47.5698410" lon="9.3820080">
        <ele>-35.6</ele>
        <time>2022-06-09T11:02:18Z</time>
      </trkpt>
      <trkpt lat="47.5700150" lon="9.3818880">
        <ele>-36.0</ele>
        <time>2022-06-09T11:02:22Z</time>
      </trkpt>
      <trkpt lat="47.5702050" lon="9.3818580">
        <ele>-35.6</ele>
        <time>2022-06-09T11:02:26Z</time>
      </trkpt>
      <trkpt lat="47.5703810" lon="9.3818800">
        <ele>-36.0</ele>
        <time>2022-06-09T11:02:30Z</time>
      </trkpt>
      <trkpt lat="47.5705580" lon="9.3819150">
        <ele>-36.0</ele>
        <time>2022-06-09T11:02:34Z</time>
      </trkpt>
      <trkpt lat="47.5707280" lon="9.3818200">
        <ele>-35.8</ele>
        <time>2022-06-09T11:02:38Z</time>
      </trkpt>
      <trkpt lat="47.5708710" lon="9.3816260">
        <ele>-35.8</ele>
        <time>2022-06-09T11:02:42Z</time>
      </trkpt>
      <trkpt lat="47.5709280" lon="9.3813830">
        <ele>-35.4</ele>
        <time>2022-06-09T11:02:46Z</time>
      </trkpt>
      <trkpt lat="47.5708880" lon="9.3811680">
        <ele>-35.2</ele>
        <time>2022-06-09T11:02:50Z</time>
      </trkpt>
      <trkpt lat="47.5708380" lon="9.3809700">
        <ele>-34.8</ele>
        <time>2022-06-09T11:02:54Z</time>
      </trkpt>
      <trkpt lat="47.5708210" lon="9.3807430">
        <ele>-34.6</ele>
        <time>2022-06-09T11:02:58Z</time>
      </trkpt>
      <trkpt lat="47.5708300" lon="9.3805430">
        <ele>-35.0</ele>
        <time>2022-06-09T11:03:02Z</time>
      </trkpt>
      <trkpt lat="47.5708950" lon="9.3803310">
        <ele>-35.8</ele>
        <time>2022-06-09T11:03:06Z</time>
      </trkpt>
      <trkpt lat="47.5709700" lon="9.3801210">
        <ele>-36.2</ele>
        <time>2022-06-09T11:03:10Z</time>
      </trkpt>
      <trkpt lat="47.5710850" lon="9.3799130">
        <ele>-36.8</ele>
        <time>2022-06-09T11:03:14Z</time>
      </trkpt>
      <trkpt lat="47.5711850" lon="9.3796350">
        <ele>-37.2</ele>
        <time>2022-06-09T11:03:18Z</time>
      </trkpt>
      <trkpt lat="47.5712800" lon="9.3793450">
        <ele>-37.4</ele>
        <time>2022-06-09T11:03:22Z</time>
      </trkpt>
      <trkpt lat="47.5713710" lon="9.3790800">
        <ele>-37.6</ele>
        <time>2022-06-09T11:03:26Z</time>
      </trkpt>
      <trkpt lat="47.5714530" lon="9.3787960">
        <ele>-38.2</ele>
        <time>2022-06-09T11:03:30Z</time>
      </trkpt>
      <trkpt lat="47.5715360" lon="9.3785130">
        <ele>-38.6</ele>
        <time>2022-06-09T11:03:34Z</time>
      </trkpt>
      <trkpt lat="47.5716210" lon="9.3782330">
        <ele>-38.8</ele>
        <time>2022-06-09T11:03:38Z</time>
      </trkpt>
      <trkpt lat="47.5717150" lon="9.3779530">
        <ele>-39.0</ele>
        <time>2022-06-09T11:03:42Z</time>
      </trkpt>
      <trkpt lat="47.5718210" lon="9.3776900">
        <ele>-39.6</ele>
        <time>2022-06-09T11:03:46Z</time>
      </trkpt>
      <trkpt lat="47.5719630" lon="9.3774500">
        <ele>-40.8</ele>
        <time>2022-06-09T11:03:50Z</time>
      </trkpt>
      <trkpt lat="47.5721180" lon="9.3772280">
        <ele>-41.8</ele>
        <time>2022-06-09T11:03:54Z</time>
      </trkpt>
      <trkpt lat="47.5722450" lon="9.3769560">
        <ele>-43.2</ele>
        <time>2022-06-09T11:03:58Z</time>
      </trkpt>
      <trkpt lat="47.5723630" lon="9.3766750">
        <ele>-44.0</ele>
        <time>2022-06-09T11:04:02Z</time>
      </trkpt>
      <trkpt lat="47.5724760" lon="9.3763880">
        <ele>-44.6</ele>
        <time>2022-06-09T11:04:06Z</time>
      </trkpt>
      <trkpt lat="47.5725830" lon="9.3761030">
        <ele>-45.4</ele>
        <time>2022-06-09T11:04:10Z</time>
      </trkpt>
      <trkpt lat="47.5726930" lon="9.3758160">
        <ele>-45.8</ele>
        <time>2022-06-09T11:04:14Z</time>
      </trkpt>
      <trkpt lat="47.5728010" lon="9.3755450">
        <ele>-46.8</ele>
        <time>2022-06-09T11:04:18Z</time>
      </trkpt>
      <trkpt lat="47.5729960" lon="9.3754730">
        <ele>-47.8</ele>
        <time>2022-06-09T11:04:22Z</time>
      </trkpt>
      <trkpt lat="47.5731530" lon="9.3752800">
        <ele>-48.0</ele>
        <time>2022-06-09T11:04:26Z</time>
      </trkpt>
      <trkpt lat="47.5732830" lon="9.3750260">
        <ele>-48.6</ele>
        <time>2022-06-09T11:04:30Z</time>
      </trkpt>
      <trkpt lat="47.5734210" lon="9.3747800">
        <ele>-49.2</ele>
        <time>2022-06-09T11:04:34Z</time>
      </trkpt>
      <trkpt lat="47.5735310" lon="9.3745060">
        <ele>-27.8</ele>
        <time>2022-06-09T11:04:38Z</time>
      </trkpt>
      <trkpt lat="47.5736030" lon="9.3742050">
        <ele>-32.0</ele>
        <time>2022-06-09T11:04:42Z</time>
      </trkpt>
      <trkpt lat="47.5736880" lon="9.3739280">
        <ele>-32.0</ele>
        <time>2022-06-09T11:04:46Z</time>
      </trkpt>
      <trkpt lat="47.5737450" lon="9.3736430">
        <ele>-32.6</ele>
        <time>2022-06-09T11:04:50Z</time>
      </trkpt>
      <trkpt lat="47.5738060" lon="9.3733630">
        <ele>-33.0</ele>
        <time>2022-06-09T11:04:54Z</time>
      </trkpt>
      <trkpt lat="47.5738460" lon="9.3730930">
        <ele>-33.6</ele>
        <time>2022-06-09T11:04:58Z</time>
      </trkpt>
      <trkpt lat="47.5739060" lon="9.3728330">
        <ele>-34.2</ele>
        <time>2022-06-09T11:05:02Z</time>
      </trkpt>
      <trkpt lat="47.5739950" lon="9.3725850">
        <ele>-34.4</ele>
        <time>2022-06-09T11:05:06Z</time>
      </trkpt>
      <trkpt lat="47.5740900" lon="9.3723350">
        <ele>-35.0</ele>
        <time>2022-06-09T11:05:10Z</time>
      </trkpt>
      <trkpt lat="47.5741910" lon="9.3720860">
        <ele>-35.6</ele>
        <time>2022-06-09T11:05:14Z</time>
      </trkpt>
      <trkpt lat="47.5742950" lon="9.3718380">
        <ele>-36.0</ele>
        <time>2022-06-09T11:05:18Z</time>
      </trkpt>
      <trkpt lat="47.5743680" lon="9.3715650">
        <ele>-35.6</ele>
        <time>2022-06-09T11:05:22Z</time>
      </trkpt>
      <trkpt lat="47.5744380" lon="9.3712950">
        <ele>-35.6</ele>
        <time>2022-06-09T11:05:26Z</time>
      </trkpt>
      <trkpt lat="47.5745310" lon="9.3710460">
        <ele>-36.0</ele>
        <time>2022-06-09T11:05:30Z</time>
      </trkpt>
      <trkpt lat="47.5746430" lon="9.3708130">
        <ele>-35.8</ele>
        <time>2022-06-09T11:05:34Z</time>
      </trkpt>
      <trkpt lat="47.5747500" lon="9.3705680">
        <ele>-36.2</ele>
        <time>2022-06-09T11:05:38Z</time>
      </trkpt>
      <trkpt lat="47.5748460" lon="9.3703300">
        <ele>-36.0</ele>
        <time>2022-06-09T11:05:42Z</time>
      </trkpt>
      <trkpt lat="47.5749380" lon="9.3701100">
        <ele>-36.2</ele>
        <time>2022-06-09T11:05:46Z</time>
      </trkpt>
      <trkpt lat="47.5750280" lon="9.3698950">
        <ele>-36.2</ele>
        <time>2022-06-09T11:05:50Z</time>
      </trkpt>
      <trkpt lat="47.5751300" lon="9.3696810">
        <ele>-36.2</ele>
        <time>2022-06-09T11:05:54Z</time>
      </trkpt>
      <trkpt lat="47.5752260" lon="9.3694810">
        <ele>-36.4</ele>
        <time>2022-06-09T11:05:58Z</time>
      </trkpt>
      <trkpt lat="47.5753200" lon="9.3692910">
        <ele>-37.0</ele>
        <time>2022-06-09T11:06:02Z</time>
      </trkpt>
      <trkpt lat="47.5754180" lon="9.3691010">
        <ele>-37.4</ele>
        <time>2022-06-09T11:06:06Z</time>
      </trkpt>
      <trkpt lat="47.5755080" lon="9.3689210">
        <ele>-37.6</ele>
        <time>2022-06-09T11:06:10Z</time>
      </trkpt>
      <trkpt lat="47.5755700" lon="9.3687280">
        <ele>-37.4</ele>
        <time>2022-06-09T11:06:14Z</time>
      </trkpt>
      <trkpt lat="47.5756550" lon="9.3685260">
        <ele>-38.2</ele>
        <time>2022-06-09T11:06:18Z</time>
      </trkpt>
      <trkpt lat="47.5757510" lon="9.3683180">
        <ele>-38.6</ele>
        <time>2022-06-09T11:06:22Z</time>
      </trkpt>
      <trkpt lat="47.5758510" lon="9.3681050">
        <ele>-38.8</ele>
        <time>2022-06-09T11:06:26Z</time>
      </trkpt>
      <trkpt lat="47.5759430" lon="9.3678750">
        <ele>-39.0</ele>
        <time>2022-06-09T11:06:30Z</time>
      </trkpt>
      <trkpt lat="47.5760530" lon="9.3676580">
        <ele>-39.4</ele>
        <time>2022-06-09T11:06:34Z</time>
      </trkpt>
      <trkpt lat="47.5761500" lon="9.3674310">
        <ele>-39.2</ele>
        <time>2022-06-09T11:06:38Z</time>
      </trkpt>
      <trkpt lat="47.5762510" lon="9.3672050">
        <ele>-39.8</ele>
        <time>2022-06-09T11:06:42Z</time>
      </trkpt>
      <trkpt lat="47.5763480" lon="9.3669750">
        <ele>-40.4</ele>
        <time>2022-06-09T11:06:46Z</time>
      </trkpt>
      <trkpt lat="47.5764530" lon="9.3667500">
        <ele>-40.6</ele>
        <time>2022-06-09T11:06:50Z</time>
      </trkpt>
      <trkpt lat="47.5765550" lon="9.3665210">
        <ele>-41.4</ele>
        <time>2022-06-09T11:06:54Z</time>
      </trkpt>
      <trkpt lat="47.5766600" lon="9.3662950">
        <ele>-42.0</ele>
        <time>2022-06-09T11:06:58Z</time>
      </trkpt>
      <trkpt lat="47.5767630" lon="9.3660700">
        <ele>-42.4</ele>
        <time>2022-06-09T11:07:02Z</time>
      </trkpt>
      <trkpt lat="47.5768630" lon="9.3658480">
        <ele>-43.0</ele>
        <time>2022-06-09T11:07:06Z</time>
      </trkpt>
      <trkpt lat="47.5769610" lon="9.3656310">
        <ele>-43.6</ele>
        <time>2022-06-09T11:07:10Z</time>
      </trkpt>
      <trkpt lat="47.5770560" lon="9.3654110">
        <ele>-43.6</ele>
        <time>2022-06-09T11:07:14Z</time>
      </trkpt>
      <trkpt lat="47.5771530" lon="9.3651860">
        <ele>-44.2</ele>
        <time>2022-06-09T11:07:18Z</time>
      </trkpt>
      <trkpt lat="47.5772530" lon="9.3649610">
        <ele>-44.2</ele>
        <time>2022-06-09T11:07:22Z</time>
      </trkpt>
      <trkpt lat="47.5773600" lon="9.3647350">
        <ele>-26.8</ele>
        <time>2022-06-09T11:07:26Z</time>
      </trkpt>
      <trkpt lat="47.5774480" lon="9.3644880">
        <ele>-26.2</ele>
        <time>2022-06-09T11:07:30Z</time>
      </trkpt>
      <trkpt lat="47.5775430" lon="9.3642500">
        <ele>-26.8</ele>
        <time>2022-06-09T11:07:34Z</time>
      </trkpt>
      <trkpt lat="47.5776280" lon="9.3640000">
        <ele>-27.8</ele>
        <time>2022-06-09T11:07:38Z</time>
      </trkpt>
      <trkpt lat="47.5777110" lon="9.3637550">
        <ele>-28.4</ele>
        <time>2022-06-09T11:07:42Z</time>
      </trkpt>
      <trkpt lat="47.5778060" lon="9.3635050">
        <ele>-29.4</ele>
        <time>2022-06-09T11:07:46Z</time>
      </trkpt>
      <trkpt lat="47.5779010" lon="9.3632450">
        <ele>-29.4</ele>
        <time>2022-06-09T11:07:50Z</time>
      </trkpt>
      <trkpt lat="47.5779860" lon="9.3629900">
        <ele>-30.2</ele>
        <time>2022-06-09T11:07:54Z</time>
      </trkpt>
      <trkpt lat="47.5780810" lon="9.3627550">
        <ele>-30.4</ele>
        <time>2022-06-09T11:07:58Z</time>
      </trkpt>
      <trkpt lat="47.5781760" lon="9.3624960">
        <ele>-30.8</ele>
        <time>2022-06-09T11:08:02Z</time>
      </trkpt>
      <trkpt lat="47.5782710" lon="9.3622560">
        <ele>-31.4</ele>
        <time>2022-06-09T11:08:06Z</time>
      </trkpt>
      <trkpt lat="47.5783610" lon="9.3620450">
        <ele>-32.0</ele>
        <time>2022-06-09T11:08:10Z</time>
      </trkpt>
      <trkpt lat="47.5784400" lon="9.3618160">
        <ele>-32.0</ele>
        <time>2022-06-09T11:08:14Z</time>
      </trkpt>
      <trkpt lat="47.5785100" lon="9.3615550">
        <ele>-32.6</ele>
        <time>2022-06-09T11:08:18Z</time>
      </trkpt>
      <trkpt lat="47.5786050" lon="9.3612880">
        <ele>-33.6</ele>
        <time>2022-06-09T11:08:22Z</time>
      </trkpt>
      <trkpt lat="47.5787000" lon="9.3609900">
        <ele>-34.0</ele>
        <time>2022-06-09T11:08:26Z</time>
      </trkpt>
      <trkpt lat="47.5788200" lon="9.3606900">
        <ele>-34.4</ele>
        <time>2022-06-09T11:08:30Z</time>
      </trkpt>
      <trkpt lat="47.5789280" lon="9.3603760">
        <ele>-34.8</ele>
        <time>2022-06-09T11:08:34Z</time>
      </trkpt>
      <trkpt lat="47.5790400" lon="9.3600730">
        <ele>-35.2</ele>
        <time>2022-06-09T11:08:38Z</time>
      </trkpt>
      <trkpt lat="47.5791480" lon="9.3597710">
        <ele>-35.8</ele>
        <time>2022-06-09T11:08:42Z</time>
      </trkpt>
      <trkpt lat="47.5792430" lon="9.3594810">
        <ele>-36.2</ele>
        <time>2022-06-09T11:08:46Z</time>
      </trkpt>
      <trkpt lat="47.5793450" lon="9.3592080">
        <ele>-36.4</ele>
        <time>2022-06-09T11:08:50Z</time>
      </trkpt>
      <trkpt lat="47.5794410" lon="9.3589350">
        <ele>-36.4</ele>
        <time>2022-06-09T11:08:54Z</time>
      </trkpt>
      <trkpt lat="47.5795380" lon="9.3586680">
        <ele>-37.4</ele>
        <time>2022-06-09T11:08:58Z</time>
      </trkpt>
      <trkpt lat="47.5796280" lon="9.3584080">
        <ele>-37.6</ele>
        <time>2022-06-09T11:09:02Z</time>
      </trkpt>
      <trkpt lat="47.5797260" lon="9.3581680">
        <ele>-37.6</ele>
        <time>2022-06-09T11:09:06Z</time>
      </trkpt>
      <trkpt lat="47.5798210" lon="9.3579230">
        <ele>-37.8</ele>
        <time>2022-06-09T11:09:10Z</time>
      </trkpt>
      <trkpt lat="47.5799080" lon="9.3577000">
        <ele>-38.2</ele>
        <time>2022-06-09T11:09:14Z</time>
      </trkpt>
      <trkpt lat="47.5799760" lon="9.3574910">
        <ele>-38.8</ele>
        <time>2022-06-09T11:09:18Z</time>
      </trkpt>
      <trkpt lat="47.5800650" lon="9.3572100">
        <ele>-39.4</ele>
        <time>2022-06-09T11:09:22Z</time>
      </trkpt>
      <trkpt lat="47.5801730" lon="9.3569300">
        <ele>-40.2</ele>
        <time>2022-06-09T11:09:26Z</time>
      </trkpt>
      <trkpt lat="47.5802800" lon="9.3566380">
        <ele>-40.4</ele>
        <time>2022-06-09T11:09:30Z</time>
      </trkpt>
      <trkpt lat="47.5803760" lon="9.3563730">
        <ele>-41.4</ele>
        <time>2022-06-09T11:09:34Z</time>
      </trkpt>
      <trkpt lat="47.5804650" lon="9.3561200">
        <ele>-41.6</ele>
        <time>2022-06-09T11:09:38Z</time>
      </trkpt>
      <trkpt lat="47.5805500" lon="9.3558780">
        <ele>-42.0</ele>
        <time>2022-06-09T11:09:42Z</time>
      </trkpt>
      <trkpt lat="47.5806400" lon="9.3556210">
        <ele>-43.0</ele>
        <time>2022-06-09T11:09:46Z</time>
      </trkpt>
      <trkpt lat="47.5807280" lon="9.3553730">
        <ele>-43.2</ele>
        <time>2022-06-09T11:09:50Z</time>
      </trkpt>
      <trkpt lat="47.5808110" lon="9.3551250">
        <ele>-24.2</ele>
        <time>2022-06-09T11:09:54Z</time>
      </trkpt>
      <trkpt lat="47.5808950" lon="9.3548830">
        <ele>-21.2</ele>
        <time>2022-06-09T11:09:58Z</time>
      </trkpt>
      <trkpt lat="47.5809800" lon="9.3546450">
        <ele>-22.6</ele>
        <time>2022-06-09T11:10:02Z</time>
      </trkpt>
      <trkpt lat="47.5810610" lon="9.3544100">
        <ele>-23.4</ele>
        <time>2022-06-09T11:10:06Z</time>
      </trkpt>
      <trkpt lat="47.5811450" lon="9.3541800">
        <ele>-24.2</ele>
        <time>2022-06-09T11:10:10Z</time>
      </trkpt>
      <trkpt lat="47.5812260" lon="9.3539550">
        <ele>-24.0</ele>
        <time>2022-06-09T11:10:14Z</time>
      </trkpt>
      <trkpt lat="47.5813100" lon="9.3537260">
        <ele>-24.0</ele>
        <time>2022-06-09T11:10:18Z</time>
      </trkpt>
      <trkpt lat="47.5813900" lon="9.3534910">
        <ele>-24.4</ele>
        <time>2022-06-09T11:10:22Z</time>
      </trkpt>
      <trkpt lat="47.5814730" lon="9.3532580">
        <ele>-24.8</ele>
        <time>2022-06-09T11:10:26Z</time>
      </trkpt>
      <trkpt lat="47.5815600" lon="9.3530150">
        <ele>-25.8</ele>
        <time>2022-06-09T11:10:30Z</time>
      </trkpt>
      <trkpt lat="47.5816460" lon="9.3527630">
        <ele>-26.0</ele>
        <time>2022-06-09T11:10:34Z</time>
      </trkpt>
      <trkpt lat="47.5817330" lon="9.3525110">
        <ele>-25.6</ele>
        <time>2022-06-09T11:10:38Z</time>
      </trkpt>
      <trkpt lat="47.5818200" lon="9.3522560">
        <ele>-25.8</ele>
        <time>2022-06-09T11:10:42Z</time>
      </trkpt>
      <trkpt lat="47.5819100" lon="9.3520060">
        <ele>-26.4</ele>
        <time>2022-06-09T11:10:46Z</time>
      </trkpt>
      <trkpt lat="47.5819880" lon="9.3517450">
        <ele>-26.6</ele>
        <time>2022-06-09T11:10:50Z</time>
      </trkpt>
      <trkpt lat="47.5820780" lon="9.3514950">
        <ele>-26.8</ele>
        <time>2022-06-09T11:10:54Z</time>
      </trkpt>
      <trkpt lat="47.5821560" lon="9.3512430">
        <ele>-26.8</ele>
        <time>2022-06-09T11:10:58Z</time>
      </trkpt>
      <trkpt lat="47.5822350" lon="9.3509930">
        <ele>-27.4</ele>
        <time>2022-06-09T11:11:02Z</time>
      </trkpt>
      <trkpt lat="47.5823160" lon="9.3507380">
        <ele>-27.6</ele>
        <time>2022-06-09T11:11:06Z</time>
      </trkpt>
      <trkpt lat="47.5824010" lon="9.3504780">
        <ele>-28.0</ele>
        <time>2022-06-09T11:11:10Z</time>
      </trkpt>
      <trkpt lat="47.5824900" lon="9.3502180">
        <ele>-28.0</ele>
        <time>2022-06-09T11:11:14Z</time>
      </trkpt>
      <trkpt lat="47.5825700" lon="9.3499780">
        <ele>-28.2</ele>
        <time>2022-06-09T11:11:18Z</time>
      </trkpt>
      <trkpt lat="47.5826450" lon="9.3497250">
        <ele>-29.0</ele>
        <time>2022-06-09T11:11:22Z</time>
      </trkpt>
      <trkpt lat="47.5827260" lon="9.3494780">
        <ele>-29.2</ele>
        <time>2022-06-09T11:11:26Z</time>
      </trkpt>
      <trkpt lat="47.5828030" lon="9.3492250">
        <ele>-29.4</ele>
        <time>2022-06-09T11:11:30Z</time>
      </trkpt>
      <trkpt lat="47.5828910" lon="9.3489830">
        <ele>-29.6</ele>
        <time>2022-06-09T11:11:34Z</time>
      </trkpt>
      <trkpt lat="47.5829730" lon="9.3487660">
        <ele>-30.4</ele>
        <time>2022-06-09T11:11:38Z</time>
      </trkpt>
      <trkpt lat="47.5830500" lon="9.3485080">
        <ele>-31.0</ele>
        <time>2022-06-09T11:11:42Z</time>
      </trkpt>
      <trkpt lat="47.5831430" lon="9.3482360">
        <ele>-31.4</ele>
        <time>2022-06-09T11:11:46Z</time>
      </trkpt>
      <trkpt lat="47.5832310" lon="9.3479800">
        <ele>-32.0</ele>
        <time>2022-06-09T11:11:50Z</time>
      </trkpt>
      <trkpt lat="47.5834280" lon="9.3480030">
        <ele>-33.0</ele>
        <time>2022-06-09T11:11:54Z</time>
      </trkpt>
      <trkpt lat="47.5836600" lon="9.3481800">
        <ele>-33.4</ele>
        <time>2022-06-09T11:11:58Z</time>
      </trkpt>
      <trkpt lat="47.5838800" lon="9.3483110">
        <ele>-33.8</ele>
        <time>2022-06-09T11:12:02Z</time>
      </trkpt>
      <trkpt lat="47.5840510" lon="9.3481030">
        <ele>-34.0</ele>
        <time>2022-06-09T11:12:06Z</time>
      </trkpt>
      <trkpt lat="47.5841830" lon="9.3478250">
        <ele>-35.6</ele>
        <time>2022-06-09T11:12:10Z</time>
      </trkpt>
      <trkpt lat="47.5842980" lon="9.3475500">
        <ele>-35.8</ele>
        <time>2022-06-09T11:12:14Z</time>
      </trkpt>
      <trkpt lat="47.5843980" lon="9.3472850">
        <ele>-35.2</ele>
        <time>2022-06-09T11:12:18Z</time>
      </trkpt>
      <trkpt lat="47.5845110" lon="9.3470310">
        <ele>-36.4</ele>
        <time>2022-06-09T11:12:22Z</time>
      </trkpt>
      <trkpt lat="47.5846380" lon="9.3467950">
        <ele>-38.2</ele>
        <time>2022-06-09T11:12:26Z</time>
      </trkpt>
      <trkpt lat="47.5847660" lon="9.3465680">
        <ele>-38.6</ele>
        <time>2022-06-09T11:12:30Z</time>
      </trkpt>
      <trkpt lat="47.5849060" lon="9.3463550">
        <ele>-39.2</ele>
        <time>2022-06-09T11:12:34Z</time>
      </trkpt>
      <trkpt lat="47.5850360" lon="9.3461310">
        <ele>-39.6</ele>
        <time>2022-06-09T11:12:38Z</time>
      </trkpt>
      <trkpt lat="47.5851660" lon="9.3459160">
        <ele>-40.2</ele>
        <time>2022-06-09T11:12:42Z</time>
      </trkpt>
      <trkpt lat="47.5852760" lon="9.3456800">
        <ele>-40.4</ele>
        <time>2022-06-09T11:12:46Z</time>
      </trkpt>
      <trkpt lat="47.5853530" lon="9.3454080">
        <ele>-40.8</ele>
        <time>2022-06-09T11:12:50Z</time>
      </trkpt>
      <trkpt lat="47.5854160" lon="9.3451230">
        <ele>-42.6</ele>
        <time>2022-06-09T11:12:54Z</time>
      </trkpt>
      <trkpt lat="47.5854650" lon="9.3448300">
        <ele>-43.8</ele>
        <time>2022-06-09T11:12:58Z</time>
      </trkpt>
      <trkpt lat="47.5854860" lon="9.3445480">
        <ele>-45.2</ele>
        <time>2022-06-09T11:13:02Z</time>
      </trkpt>
      <trkpt lat="47.5855080" lon="9.3442760">
        <ele>-47.4</ele>
        <time>2022-06-09T11:13:06Z</time>
      </trkpt>
      <trkpt lat="47.5855380" lon="9.3440030">
        <ele>-29.2</ele>
        <time>2022-06-09T11:13:10Z</time>
      </trkpt>
      <trkpt lat="47.5855750" lon="9.3437510">
        <ele>-27.6</ele>
        <time>2022-06-09T11:13:14Z</time>
      </trkpt>
      <trkpt lat="47.5855330" lon="9.3435230">
        <ele>-28.0</ele>
        <time>2022-06-09T11:13:18Z</time>
      </trkpt>
      <trkpt lat="47.5854730" lon="9.3433600">
        <ele>-28.8</ele>
        <time>2022-06-09T11:13:22Z</time>
      </trkpt>
      <trkpt lat="47.5854180" lon="9.3432300">
        <ele>-28.8</ele>
        <time>2022-06-09T11:13:26Z</time>
      </trkpt>
      <trkpt lat="47.5853650" lon="9.3430780">
        <ele>-28.4</ele>
        <time>2022-06-09T11:13:30Z</time>
      </trkpt>
      <trkpt lat="47.5853000" lon="9.3429310">
        <ele>-29.0</ele>
        <time>2022-06-09T11:13:34Z</time>
      </trkpt>
      <trkpt lat="47.5852430" lon="9.3427810">
        <ele>-28.8</ele>
        <time>2022-06-09T11:13:38Z</time>
      </trkpt>
      <trkpt lat="47.5851950" lon="9.3426800">
        <ele>-28.8</ele>
        <time>2022-06-09T11:13:42Z</time>
      </trkpt>
      <trkpt lat="47.5851400" lon="9.3425300">
        <ele>-29.6</ele>
        <time>2022-06-09T11:13:46Z</time>
      </trkpt>
      <trkpt lat="47.5850880" lon="9.3423710">
        <ele>-30.4</ele>
        <time>2022-06-09T11:13:50Z</time>
      </trkpt>
      <trkpt lat="47.5851110" lon="9.3421750">
        <ele>-31.0</ele>
        <time>2022-06-09T11:13:54Z</time>
      </trkpt>
      <trkpt lat="47.5851930" lon="9.3419780">
        <ele>-32.0</ele>
        <time>2022-06-09T11:13:58Z</time>
      </trkpt>
      <trkpt lat="47.5852700" lon="9.3417710">
        <ele>-32.4</ele>
        <time>2022-06-09T11:14:02Z</time>
      </trkpt>
      <trkpt lat="47.5853350" lon="9.3415510">
        <ele>-33.2</ele>
        <time>2022-06-09T11:14:06Z</time>
      </trkpt>
      <trkpt lat="47.5853980" lon="9.3413260">
        <ele>-34.4</ele>
        <time>2022-06-09T11:14:10Z</time>
      </trkpt>
      <trkpt lat="47.5854610" lon="9.3410960">
        <ele>-35.0</ele>
        <time>2022-06-09T11:14:14Z</time>
      </trkpt>
      <trkpt lat="47.5855350" lon="9.3408630">
        <ele>-35.4</ele>
        <time>2022-06-09T11:14:18Z</time>
      </trkpt>
      <trkpt lat="47.5856300" lon="9.3406380">
        <ele>-36.4</ele>
        <time>2022-06-09T11:14:22Z</time>
      </trkpt>
      <trkpt lat="47.5856980" lon="9.3404030">
        <ele>-37.6</ele>
        <time>2022-06-09T11:14:26Z</time>
      </trkpt>
      <trkpt lat="47.5857560" lon="9.3401630">
        <ele>-39.2</ele>
        <time>2022-06-09T11:14:30Z</time>
      </trkpt>
      <trkpt lat="47.5857750" lon="9.3399010">
        <ele>-40.6</ele>
        <time>2022-06-09T11:14:34Z</time>
      </trkpt>
      <trkpt lat="47.5857950" lon="9.3396510">
        <ele>-19.0</ele>
        <time>2022-06-09T11:14:38Z</time>
      </trkpt>
      <trkpt lat="47.5858650" lon="9.3394350">
        <ele>-19.0</ele>
        <time>2022-06-09T11:14:42Z</time>
      </trkpt>
      <trkpt lat="47.5859500" lon="9.3392250">
        <ele>-20.6</ele>
        <time>2022-06-09T11:14:46Z</time>
      </trkpt>
      <trkpt lat="47.5860380" lon="9.3389900">
        <ele>-21.8</ele>
        <time>2022-06-09T11:14:50Z</time>
      </trkpt>
      <trkpt lat="47.5861250" lon="9.3387730">
        <ele>-22.2</ele>
        <time>2022-06-09T11:14:54Z</time>
      </trkpt>
      <trkpt lat="47.5862380" lon="9.3386000">
        <ele>-22.8</ele>
        <time>2022-06-09T11:14:58Z</time>
      </trkpt>
      <trkpt lat="47.5864080" lon="9.3385050">
        <ele>-24.4</ele>
        <time>2022-06-09T11:15:02Z</time>
      </trkpt>
      <trkpt lat="47.5865310" lon="9.3382760">
        <ele>-25.8</ele>
        <time>2022-06-09T11:15:06Z</time>
      </trkpt>
      <trkpt lat="47.5866630" lon="9.3380480">
        <ele>-27.0</ele>
        <time>2022-06-09T11:15:10Z</time>
      </trkpt>
      <trkpt lat="47.5867310" lon="9.3377810">
        <ele>-28.2</ele>
        <time>2022-06-09T11:15:14Z</time>
      </trkpt>
      <trkpt lat="47.5868430" lon="9.3375630">
        <ele>-29.0</ele>
        <time>2022-06-09T11:15:18Z</time>
      </trkpt>
      <trkpt lat="47.5869410" lon="9.3373250">
        <ele>-30.2</ele>
        <time>2022-06-09T11:15:22Z</time>
      </trkpt>
      <trkpt lat="47.5870000" lon="9.3370830">
        <ele>-31.0</ele>
        <time>2022-06-09T11:15:26Z</time>
      </trkpt>
      <trkpt lat="47.5871110" lon="9.3368980">
        <ele>-32.8</ele>
        <time>2022-06-09T11:15:30Z</time>
      </trkpt>
      <trkpt lat="47.5872210" lon="9.3367380">
        <ele>-31.8</ele>
        <time>2022-06-09T11:15:34Z</time>
      </trkpt>
      <trkpt lat="47.5873110" lon="9.3365350">
        <ele>-31.6</ele>
        <time>2022-06-09T11:15:38Z</time>
      </trkpt>
      <trkpt lat="47.5873910" lon="9.3363360">
        <ele>-32.2</ele>
        <time>2022-06-09T11:15:42Z</time>
      </trkpt>
      <trkpt lat="47.5874730" lon="9.3361350">
        <ele>-33.4</ele>
        <time>2022-06-09T11:15:46Z</time>
      </trkpt>
      <trkpt lat="47.5875610" lon="9.3359100">
        <ele>-34.0</ele>
        <time>2022-06-09T11:15:50Z</time>
      </trkpt>
      <trkpt lat="47.5876600" lon="9.3356800">
        <ele>-37.0</ele>
        <time>2022-06-09T11:15:54Z</time>
      </trkpt>
      <trkpt lat="47.5877530" lon="9.3354560">
        <ele>-39.0</ele>
        <time>2022-06-09T11:15:58Z</time>
      </trkpt>
      <trkpt lat="47.5878050" lon="9.3352460">
        <ele>-42.0</ele>
        <time>2022-06-09T11:16:02Z</time>
      </trkpt>
      <trkpt lat="47.5877000" lon="9.3350330">
        <ele>-42.6</ele>
        <time>2022-06-09T11:16:06Z</time>
      </trkpt>
      <trkpt lat="47.5877180" lon="9.3348930">
        <ele>-44.6</ele>
        <time>2022-06-09T11:16:10Z</time>
      </trkpt>
      <trkpt lat="47.5879280" lon="9.3350060">
        <ele>-26.2</ele>
        <time>2022-06-09T11:16:14Z</time>
      </trkpt>
      <trkpt lat="47.5881750" lon="9.3351460">
        <ele>-27.2</ele>
        <time>2022-06-09T11:16:18Z</time>
      </trkpt>
      <trkpt lat="47.5882800" lon="9.3349560">
        <ele>-27.0</ele>
        <time>2022-06-09T11:16:22Z</time>
      </trkpt>
      <trkpt lat="47.5883160" lon="9.3347160">
        <ele>-27.2</ele>
        <time>2022-06-09T11:16:26Z</time>
      </trkpt>
      <trkpt lat="47.5883700" lon="9.3344860">
        <ele>-27.4</ele>
        <time>2022-06-09T11:16:30Z</time>
      </trkpt>
      <trkpt lat="47.5884460" lon="9.3342730">
        <ele>-27.2</ele>
        <time>2022-06-09T11:16:34Z</time>
      </trkpt>
      <trkpt lat="47.5885310" lon="9.3340560">
        <ele>-28.0</ele>
        <time>2022-06-09T11:16:38Z</time>
      </trkpt>
      <trkpt lat="47.5886200" lon="9.3338360">
        <ele>-28.0</ele>
        <time>2022-06-09T11:16:42Z</time>
      </trkpt>
      <trkpt lat="47.5887010" lon="9.3336160">
        <ele>-28.6</ele>
        <time>2022-06-09T11:16:46Z</time>
      </trkpt>
      <trkpt lat="47.5887950" lon="9.3333980">
        <ele>-28.4</ele>
        <time>2022-06-09T11:16:50Z</time>
      </trkpt>
      <trkpt lat="47.5888960" lon="9.3331680">
        <ele>-29.0</ele>
        <time>2022-06-09T11:16:54Z</time>
      </trkpt>
      <trkpt lat="47.5889850" lon="9.3329430">
        <ele>-29.2</ele>
        <time>2022-06-09T11:16:58Z</time>
      </trkpt>
      <trkpt lat="47.5890780" lon="9.3327230">
        <ele>-29.4</ele>
        <time>2022-06-09T11:17:02Z</time>
      </trkpt>
      <trkpt lat="47.5891630" lon="9.3325000">
        <ele>-29.8</ele>
        <time>2022-06-09T11:17:06Z</time>
      </trkpt>
      <trkpt lat="47.5892530" lon="9.3322750">
        <ele>-30.0</ele>
        <time>2022-06-09T11:17:10Z</time>
      </trkpt>
      <trkpt lat="47.5893450" lon="9.3320480">
        <ele>-30.4</ele>
        <time>2022-06-09T11:17:14Z</time>
      </trkpt>
      <trkpt lat="47.5894330" lon="9.3318210">
        <ele>-30.4</ele>
        <time>2022-06-09T11:17:18Z</time>
      </trkpt>
      <trkpt lat="47.5895150" lon="9.3315830">
        <ele>-30.6</ele>
        <time>2022-06-09T11:17:22Z</time>
      </trkpt>
      <trkpt lat="47.5896060" lon="9.3313510">
        <ele>-30.4</ele>
        <time>2022-06-09T11:17:26Z</time>
      </trkpt>
      <trkpt lat="47.5896960" lon="9.3311230">
        <ele>-30.6</ele>
        <time>2022-06-09T11:17:30Z</time>
      </trkpt>
      <trkpt lat="47.5897810" lon="9.3308980">
        <ele>-30.6</ele>
        <time>2022-06-09T11:17:34Z</time>
      </trkpt>
      <trkpt lat="47.5898680" lon="9.3306650">
        <ele>-30.4</ele>
        <time>2022-06-09T11:17:38Z</time>
      </trkpt>
      <trkpt lat="47.5899650" lon="9.3304260">
        <ele>-30.4</ele>
        <time>2022-06-09T11:17:42Z</time>
      </trkpt>
      <trkpt lat="47.5900610" lon="9.3302060">
        <ele>-30.4</ele>
        <time>2022-06-09T11:17:46Z</time>
      </trkpt>
      <trkpt lat="47.5901610" lon="9.3299760">
        <ele>-30.4</ele>
        <time>2022-06-09T11:17:50Z</time>
      </trkpt>
      <trkpt lat="47.5902700" lon="9.3297180">
        <ele>-30.0</ele>
        <time>2022-06-09T11:17:54Z</time>
      </trkpt>
      <trkpt lat="47.5903780" lon="9.3294730">
        <ele>-30.4</ele>
        <time>2022-06-09T11:17:58Z</time>
      </trkpt>
      <trkpt lat="47.5904700" lon="9.3292360">
        <ele>-30.8</ele>
        <time>2022-06-09T11:18:02Z</time>
      </trkpt>
      <trkpt lat="47.5905480" lon="9.3290160">
        <ele>-31.2</ele>
        <time>2022-06-09T11:18:06Z</time>
      </trkpt>
      <trkpt lat="47.5906510" lon="9.3287900">
        <ele>-31.8</ele>
        <time>2022-06-09T11:18:10Z</time>
      </trkpt>
      <trkpt lat="47.5907480" lon="9.3285530">
        <ele>-31.8</ele>
        <time>2022-06-09T11:18:14Z</time>
      </trkpt>
      <trkpt lat="47.5908450" lon="9.3283130">
        <ele>-32.2</ele>
        <time>2022-06-09T11:18:18Z</time>
      </trkpt>
      <trkpt lat="47.5909460" lon="9.3280680">
        <ele>-32.0</ele>
        <time>2022-06-09T11:18:22Z</time>
      </trkpt>
      <trkpt lat="47.5910460" lon="9.3278110">
        <ele>-32.0</ele>
        <time>2022-06-09T11:18:26Z</time>
      </trkpt>
      <trkpt lat="47.5911430" lon="9.3275510">
        <ele>-32.0</ele>
        <time>2022-06-09T11:18:30Z</time>
      </trkpt>
      <trkpt lat="47.5912450" lon="9.3273060">
        <ele>-31.6</ele>
        <time>2022-06-09T11:18:34Z</time>
      </trkpt>
      <trkpt lat="47.5913530" lon="9.3270560">
        <ele>-31.4</ele>
        <time>2022-06-09T11:18:38Z</time>
      </trkpt>
      <trkpt lat="47.5914600" lon="9.3267930">
        <ele>-31.0</ele>
        <time>2022-06-09T11:18:42Z</time>
      </trkpt>
      <trkpt lat="47.5915710" lon="9.3265280">
        <ele>-30.8</ele>
        <time>2022-06-09T11:18:46Z</time>
      </trkpt>
      <trkpt lat="47.5916750" lon="9.3262610">
        <ele>-31.4</ele>
        <time>2022-06-09T11:18:50Z</time>
      </trkpt>
      <trkpt lat="47.5917830" lon="9.3259980">
        <ele>-31.8</ele>
        <time>2022-06-09T11:18:54Z</time>
      </trkpt>
      <trkpt lat="47.5918880" lon="9.3257310">
        <ele>-32.0</ele>
        <time>2022-06-09T11:18:58Z</time>
      </trkpt>
      <trkpt lat="47.5919910" lon="9.3254610">
        <ele>-32.2</ele>
        <time>2022-06-09T11:19:02Z</time>
      </trkpt>
      <trkpt lat="47.5921110" lon="9.3252050">
        <ele>-31.0</ele>
        <time>2022-06-09T11:19:06Z</time>
      </trkpt>
      <trkpt lat="47.5922160" lon="9.3249480">
        <ele>-30.8</ele>
        <time>2022-06-09T11:19:10Z</time>
      </trkpt>
      <trkpt lat="47.5923160" lon="9.3246900">
        <ele>-30.8</ele>
        <time>2022-06-09T11:19:14Z</time>
      </trkpt>
      <trkpt lat="47.5924150" lon="9.3244250">
        <ele>-30.8</ele>
        <time>2022-06-09T11:19:18Z</time>
      </trkpt>
      <trkpt lat="47.5925310" lon="9.3241550">
        <ele>-31.0</ele>
        <time>2022-06-09T11:19:22Z</time>
      </trkpt>
      <trkpt lat="47.5926430" lon="9.3238910">
        <ele>-30.8</ele>
        <time>2022-06-09T11:19:26Z</time>
      </trkpt>
      <trkpt lat="47.5927550" lon="9.3236300">
        <ele>-31.0</ele>
        <time>2022-06-09T11:19:30Z</time>
      </trkpt>
      <trkpt lat="47.5928660" lon="9.3233710">
        <ele>-31.0</ele>
        <time>2022-06-09T11:19:34Z</time>
      </trkpt>
      <trkpt lat="47.5929750" lon="9.3231180">
        <ele>-31.0</ele>
        <time>2022-06-09T11:19:38Z</time>
      </trkpt>
      <trkpt lat="47.5930750" lon="9.3228650">
        <ele>-30.4</ele>
        <time>2022-06-09T11:19:42Z</time>
      </trkpt>
      <trkpt lat="47.5931810" lon="9.3225960">
        <ele>-29.8</ele>
        <time>2022-06-09T11:19:46Z</time>
      </trkpt>
      <trkpt lat="47.5932830" lon="9.3223480">
        <ele>-28.8</ele>
        <time>2022-06-09T11:19:50Z</time>
      </trkpt>
      <trkpt lat="47.5933800" lon="9.3221360">
        <ele>-28.4</ele>
        <time>2022-06-09T11:19:54Z</time>
      </trkpt>
      <trkpt lat="47.5934860" lon="9.3220180">
        <ele>-28.0</ele>
        <time>2022-06-09T11:19:58Z</time>
      </trkpt>
      <trkpt lat="47.5936280" lon="9.3221280">
        <ele>-27.8</ele>
        <time>2022-06-09T11:20:02Z</time>
      </trkpt>
      <trkpt lat="47.5938350" lon="9.3223200">
        <ele>-28.6</ele>
        <time>2022-06-09T11:20:06Z</time>
      </trkpt>
      <trkpt lat="47.5940660" lon="9.3225210">
        <ele>-28.8</ele>
        <time>2022-06-09T11:20:10Z</time>
      </trkpt>
      <trkpt lat="47.5942680" lon="9.3227280">
        <ele>-28.2</ele>
        <time>2022-06-09T11:20:14Z</time>
      </trkpt>
      <trkpt lat="47.5944680" lon="9.3226860">
        <ele>-28.4</ele>
        <time>2022-06-09T11:20:18Z</time>
      </trkpt>
      <trkpt lat="47.5945880" lon="9.3224550">
        <ele>-28.0</ele>
        <time>2022-06-09T11:20:22Z</time>
      </trkpt>
      <trkpt lat="47.5947080" lon="9.3222430">
        <ele>-27.2</ele>
        <time>2022-06-09T11:20:26Z</time>
      </trkpt>
      <trkpt lat="47.5948180" lon="9.3220230">
        <ele>-27.2</ele>
        <time>2022-06-09T11:20:30Z</time>
      </trkpt>
      <trkpt lat="47.5949210" lon="9.3218110">
        <ele>-27.2</ele>
        <time>2022-06-09T11:20:34Z</time>
      </trkpt>
      <trkpt lat="47.5950350" lon="9.3216000">
        <ele>-27.6</ele>
        <time>2022-06-09T11:20:38Z</time>
      </trkpt>
      <trkpt lat="47.5951500" lon="9.3213930">
        <ele>-27.2</ele>
        <time>2022-06-09T11:20:42Z</time>
      </trkpt>
      <trkpt lat="47.5953010" lon="9.3212460">
        <ele>-27.2</ele>
        <time>2022-06-09T11:20:46Z</time>
      </trkpt>
      <trkpt lat="47.5953900" lon="9.3212030">
        <ele>-27.2</ele>
        <time>2022-06-09T11:20:50Z</time>
      </trkpt>
      <trkpt lat="47.5955110" lon="9.3210630">
        <ele>-27.2</ele>
        <time>2022-06-09T11:20:54Z</time>
      </trkpt>
      <trkpt lat="47.5956330" lon="9.3208730">
        <ele>-27.2</ele>
        <time>2022-06-09T11:20:58Z</time>
      </trkpt>
      <trkpt lat="47.5957700" lon="9.3206860">
        <ele>-27.4</ele>
        <time>2022-06-09T11:21:02Z</time>
      </trkpt>
      <trkpt lat="47.5958830" lon="9.3204680">
        <ele>-27.2</ele>
        <time>2022-06-09T11:21:06Z</time>
      </trkpt>
      <trkpt lat="47.5959950" lon="9.3202730">
        <ele>-27.6</ele>
        <time>2022-06-09T11:21:10Z</time>
      </trkpt>
      <trkpt lat="47.5961060" lon="9.3200550">
        <ele>-28.4</ele>
        <time>2022-06-09T11:21:14Z</time>
      </trkpt>
      <trkpt lat="47.5962200" lon="9.3198280">
        <ele>-28.4</ele>
        <time>2022-06-09T11:21:18Z</time>
      </trkpt>
      <trkpt lat="47.5963380" lon="9.3196080">
        <ele>-28.8</ele>
        <time>2022-06-09T11:21:22Z</time>
      </trkpt>
      <trkpt lat="47.5964580" lon="9.3193810">
        <ele>-29.2</ele>
        <time>2022-06-09T11:21:26Z</time>
      </trkpt>
      <trkpt lat="47.5965860" lon="9.3191600">
        <ele>-29.4</ele>
        <time>2022-06-09T11:21:30Z</time>
      </trkpt>
      <trkpt lat="47.5967210" lon="9.3189300">
        <ele>-29.6</ele>
        <time>2022-06-09T11:21:34Z</time>
      </trkpt>
      <trkpt lat="47.5968510" lon="9.3187030">
        <ele>-30.0</ele>
        <time>2022-06-09T11:21:38Z</time>
      </trkpt>
      <trkpt lat="47.5969750" lon="9.3184760">
        <ele>-30.0</ele>
        <time>2022-06-09T11:21:42Z</time>
      </trkpt>
      <trkpt lat="47.5970960" lon="9.3182500">
        <ele>-30.8</ele>
        <time>2022-06-09T11:21:46Z</time>
      </trkpt>
      <trkpt lat="47.5972180" lon="9.3180350">
        <ele>-31.0</ele>
        <time>2022-06-09T11:21:50Z</time>
      </trkpt>
      <trkpt lat="47.5973400" lon="9.3178200">
        <ele>-31.0</ele>
        <time>2022-06-09T11:21:54Z</time>
      </trkpt>
      <trkpt lat="47.5974530" lon="9.3176000">
        <ele>-31.4</ele>
        <time>2022-06-09T11:21:58Z</time>
      </trkpt>
      <trkpt lat="47.5975730" lon="9.3173800">
        <ele>-33.0</ele>
        <time>2022-06-09T11:22:02Z</time>
      </trkpt>
      <trkpt lat="47.5976930" lon="9.3171480">
        <ele>-33.0</ele>
        <time>2022-06-09T11:22:06Z</time>
      </trkpt>
      <trkpt lat="47.5978160" lon="9.3169400">
        <ele>-34.0</ele>
        <time>2022-06-09T11:22:10Z</time>
      </trkpt>
      <trkpt lat="47.5979400" lon="9.3167310">
        <ele>-34.4</ele>
        <time>2022-06-09T11:22:14Z</time>
      </trkpt>
      <trkpt lat="47.5980630" lon="9.3165230">
        <ele>-35.4</ele>
        <time>2022-06-09T11:22:18Z</time>
      </trkpt>
      <trkpt lat="47.5981900" lon="9.3163250">
        <ele>-36.4</ele>
        <time>2022-06-09T11:22:22Z</time>
      </trkpt>
      <trkpt lat="47.5983160" lon="9.3161300">
        <ele>-37.8</ele>
        <time>2022-06-09T11:22:26Z</time>
      </trkpt>
      <trkpt lat="47.5984380" lon="9.3159450">
        <ele>-38.0</ele>
        <time>2022-06-09T11:22:30Z</time>
      </trkpt>
      <trkpt lat="47.5985650" lon="9.3157600">
        <ele>-39.4</ele>
        <time>2022-06-09T11:22:34Z</time>
      </trkpt>
      <trkpt lat="47.5986910" lon="9.3155710">
        <ele>-40.6</ele>
        <time>2022-06-09T11:22:38Z</time>
      </trkpt>
      <trkpt lat="47.5988160" lon="9.3153730">
        <ele>-42.6</ele>
        <time>2022-06-09T11:22:42Z</time>
      </trkpt>
      <trkpt lat="47.5989480" lon="9.3151750">
        <ele>-44.4</ele>
        <time>2022-06-09T11:22:46Z</time>
      </trkpt>
      <trkpt lat="47.5990850" lon="9.3149710">
        <ele>-20.6</ele>
        <time>2022-06-09T11:22:50Z</time>
      </trkpt>
      <trkpt lat="47.5992230" lon="9.3147710">
        <ele>-21.0</ele>
        <time>2022-06-09T11:22:54Z</time>
      </trkpt>
      <trkpt lat="47.5993560" lon="9.3145660">
        <ele>-20.6</ele>
        <time>2022-06-09T11:22:58Z</time>
      </trkpt>
      <trkpt lat="47.5995000" lon="9.3143660">
        <ele>-21.2</ele>
        <time>2022-06-09T11:23:02Z</time>
      </trkpt>
      <trkpt lat="47.5996400" lon="9.3141530">
        <ele>-21.6</ele>
        <time>2022-06-09T11:23:06Z</time>
      </trkpt>
      <trkpt lat="47.5997850" lon="9.3139450">
        <ele>-21.0</ele>
        <time>2022-06-09T11:23:10Z</time>
      </trkpt>
      <trkpt lat="47.5999280" lon="9.3137380">
        <ele>-21.2</ele>
        <time>2022-06-09T11:23:14Z</time>
      </trkpt>
      <trkpt lat="47.6000700" lon="9.3135400">
        <ele>-21.4</ele>
        <time>2022-06-09T11:23:18Z</time>
      </trkpt>
      <trkpt lat="47.6001730" lon="9.3133210">
        <ele>-20.8</ele>
        <time>2022-06-09T11:23:22Z</time>
      </trkpt>
      <trkpt lat="47.6001800" lon="9.3130910">
        <ele>-20.0</ele>
        <time>2022-06-09T11:23:26Z</time>
      </trkpt>
      <trkpt lat="47.6000810" lon="9.3128980">
        <ele>-19.2</ele>
        <time>2022-06-09T11:23:30Z</time>
      </trkpt>
      <trkpt lat="47.5999460" lon="9.3127510">
        <ele>-19.0</ele>
        <time>2022-06-09T11:23:34Z</time>
      </trkpt>
      <trkpt lat="47.5998080" lon="9.3126260">
        <ele>-18.6</ele>
        <time>2022-06-09T11:23:38Z</time>
      </trkpt>
      <trkpt lat="47.5996660" lon="9.3125000">
        <ele>-18.4</ele>
        <time>2022-06-09T11:23:42Z</time>
      </trkpt>
      <trkpt lat="47.5995300" lon="9.3123830">
        <ele>-17.8</ele>
        <time>2022-06-09T11:23:46Z</time>
      </trkpt>
      <trkpt lat="47.5994380" lon="9.3122400">
        <ele>-18.0</ele>
        <time>2022-06-09T11:23:50Z</time>
      </trkpt>
      <trkpt lat="47.5995300" lon="9.3120560">
        <ele>-17.8</ele>
        <time>2022-06-09T11:23:54Z</time>
      </trkpt>
      <trkpt lat="47.5996310" lon="9.3118410">
        <ele>-17.4</ele>
        <time>2022-06-09T11:23:58Z</time>
      </trkpt>
      <trkpt lat="47.5997310" lon="9.3116260">
        <ele>-17.8</ele>
        <time>2022-06-09T11:24:02Z</time>
      </trkpt>
      <trkpt lat="47.5998260" lon="9.3114100">
        <ele>-17.2</ele>
        <time>2022-06-09T11:24:06Z</time>
      </trkpt>
      <trkpt lat="47.5997480" lon="9.3112030">
        <ele>-17.0</ele>
        <time>2022-06-09T11:24:10Z</time>
      </trkpt>
      <trkpt lat="47.5996180" lon="9.3110400">
        <ele>-16.0</ele>
        <time>2022-06-09T11:24:14Z</time>
      </trkpt>
      <trkpt lat="47.5994930" lon="9.3108650">
        <ele>-16.2</ele>
        <time>2022-06-09T11:24:18Z</time>
      </trkpt>
      <trkpt lat="47.5993700" lon="9.3106930">
        <ele>-15.8</ele>
        <time>2022-06-09T11:24:22Z</time>
      </trkpt>
      <trkpt lat="47.5992460" lon="9.3105160">
        <ele>-15.4</ele>
        <time>2022-06-09T11:24:26Z</time>
      </trkpt>
      <trkpt lat="47.5992780" lon="9.3102760">
        <ele>-14.8</ele>
        <time>2022-06-09T11:24:30Z</time>
      </trkpt>
      <trkpt lat="47.5993930" lon="9.3100600">
        <ele>-15.2</ele>
        <time>2022-06-09T11:24:34Z</time>
      </trkpt>
      <trkpt lat="47.5995050" lon="9.3098280">
        <ele>-15.0</ele>
        <time>2022-06-09T11:24:38Z</time>
      </trkpt>
      <trkpt lat="47.5996150" lon="9.3095930">
        <ele>-15.2</ele>
        <time>2022-06-09T11:24:42Z</time>
      </trkpt>
      <trkpt lat="47.5997330" lon="9.3093610">
        <ele>-15.4</ele>
        <time>2022-06-09T11:24:46Z</time>
      </trkpt>
      <trkpt lat="47.5998510" lon="9.3091230">
        <ele>-15.0</ele>
        <time>2022-06-09T11:24:50Z</time>
      </trkpt>
      <trkpt lat="47.5999730" lon="9.3088880">
        <ele>-15.2</ele>
        <time>2022-06-09T11:24:54Z</time>
      </trkpt>
      <trkpt lat="47.6000850" lon="9.3086400">
        <ele>-15.2</ele>
        <time>2022-06-09T11:24:58Z</time>
      </trkpt>
      <trkpt lat="47.6002080" lon="9.3084060">
        <ele>-15.0</ele>
        <time>2022-06-09T11:25:02Z</time>
      </trkpt>
      <trkpt lat="47.6003210" lon="9.3081730">
        <ele>-15.2</ele>
        <time>2022-06-09T11:25:06Z</time>
      </trkpt>
      <trkpt lat="47.6004360" lon="9.3079560">
        <ele>-14.6</ele>
        <time>2022-06-09T11:25:10Z</time>
      </trkpt>
      <trkpt lat="47.6005410" lon="9.3077410">
        <ele>-14.4</ele>
        <time>2022-06-09T11:25:14Z</time>
      </trkpt>
      <trkpt lat="47.6006480" lon="9.3075260">
        <ele>-14.6</ele>
        <time>2022-06-09T11:25:18Z</time>
      </trkpt>
      <trkpt lat="47.6007530" lon="9.3073250">
        <ele>-14.8</ele>
        <time>2022-06-09T11:25:22Z</time>
      </trkpt>
      <trkpt lat="47.6008650" lon="9.3071080">
        <ele>-14.2</ele>
        <time>2022-06-09T11:25:26Z</time>
      </trkpt>
      <trkpt lat="47.6009680" lon="9.3068930">
        <ele>-14.4</ele>
        <time>2022-06-09T11:25:30Z</time>
      </trkpt>
      <trkpt lat="47.6010800" lon="9.3066750">
        <ele>-14.2</ele>
        <time>2022-06-09T11:25:34Z</time>
      </trkpt>
      <trkpt lat="47.6011830" lon="9.3064610">
        <ele>-14.4</ele>
        <time>2022-06-09T11:25:38Z</time>
      </trkpt>
      <trkpt lat="47.6012910" lon="9.3062430">
        <ele>-13.8</ele>
        <time>2022-06-09T11:25:42Z</time>
      </trkpt>
      <trkpt lat="47.6014010" lon="9.3060280">
        <ele>-14.0</ele>
        <time>2022-06-09T11:25:46Z</time>
      </trkpt>
      <trkpt lat="47.6015150" lon="9.3058100">
        <ele>-13.2</ele>
        <time>2022-06-09T11:25:50Z</time>
      </trkpt>
      <trkpt lat="47.6016160" lon="9.3055960">
        <ele>-13.8</ele>
        <time>2022-06-09T11:25:54Z</time>
      </trkpt>
      <trkpt lat="47.6017260" lon="9.3053910">
        <ele>-13.4</ele>
        <time>2022-06-09T11:25:58Z</time>
      </trkpt>
      <trkpt lat="47.6018380" lon="9.3051760">
        <ele>-13.4</ele>
        <time>2022-06-09T11:26:02Z</time>
      </trkpt>
      <trkpt lat="47.6019500" lon="9.3049630">
        <ele>-13.8</ele>
        <time>2022-06-09T11:26:06Z</time>
      </trkpt>
      <trkpt lat="47.6020600" lon="9.3047510">
        <ele>-13.2</ele>
        <time>2022-06-09T11:26:10Z</time>
      </trkpt>
      <trkpt lat="47.6021680" lon="9.3045400">
        <ele>-12.8</ele>
        <time>2022-06-09T11:26:14Z</time>
      </trkpt>
      <trkpt lat="47.6022760" lon="9.3043310">
        <ele>-13.0</ele>
        <time>2022-06-09T11:26:18Z</time>
      </trkpt>
      <trkpt lat="47.6023900" lon="9.3041250">
        <ele>-13.0</ele>
        <time>2022-06-09T11:26:22Z</time>
      </trkpt>
      <trkpt lat="47.6025000" lon="9.3039110">
        <ele>-12.8</ele>
        <time>2022-06-09T11:26:26Z</time>
      </trkpt>
      <trkpt lat="47.6026130" lon="9.3037080">
        <ele>-13.0</ele>
        <time>2022-06-09T11:26:30Z</time>
      </trkpt>
      <trkpt lat="47.6027250" lon="9.3035030">
        <ele>-13.2</ele>
        <time>2022-06-09T11:26:34Z</time>
      </trkpt>
      <trkpt lat="47.6028410" lon="9.3033010">
        <ele>-13.4</ele>
        <time>2022-06-09T11:26:38Z</time>
      </trkpt>
      <trkpt lat="47.6029550" lon="9.3030980">
        <ele>-13.2</ele>
        <time>2022-06-09T11:26:42Z</time>
      </trkpt>
      <trkpt lat="47.6030680" lon="9.3029060">
        <ele>-13.4</ele>
        <time>2022-06-09T11:26:46Z</time>
      </trkpt>
      <trkpt lat="47.6032260" lon="9.3028960">
        <ele>-14.0</ele>
        <time>2022-06-09T11:26:50Z</time>
      </trkpt>
      <trkpt lat="47.6033580" lon="9.3030310">
        <ele>-14.2</ele>
        <time>2022-06-09T11:26:54Z</time>
      </trkpt>
      <trkpt lat="47.6035110" lon="9.3031810">
        <ele>-14.2</ele>
        <time>2022-06-09T11:26:58Z</time>
      </trkpt>
      <trkpt lat="47.6036910" lon="9.3033000">
        <ele>-14.4</ele>
        <time>2022-06-09T11:27:02Z</time>
      </trkpt>
      <trkpt lat="47.6038780" lon="9.3032830">
        <ele>-14.8</ele>
        <time>2022-06-09T11:27:06Z</time>
      </trkpt>
      <trkpt lat="47.6040180" lon="9.3031000">
        <ele>-14.6</ele>
        <time>2022-06-09T11:27:10Z</time>
      </trkpt>
      <trkpt lat="47.6041430" lon="9.3029050">
        <ele>-15.4</ele>
        <time>2022-06-09T11:27:14Z</time>
      </trkpt>
      <trkpt lat="47.6042900" lon="9.3027660">
        <ele>-16.2</ele>
        <time>2022-06-09T11:27:18Z</time>
      </trkpt>
      <trkpt lat="47.6044810" lon="9.3028550">
        <ele>-16.2</ele>
        <time>2022-06-09T11:27:22Z</time>
      </trkpt>
      <trkpt lat="47.6046830" lon="9.3029600">
        <ele>-17.2</ele>
        <time>2022-06-09T11:27:26Z</time>
      </trkpt>
      <trkpt lat="47.6048710" lon="9.3030910">
        <ele>-17.4</ele>
        <time>2022-06-09T11:27:30Z</time>
      </trkpt>
      <trkpt lat="47.6050100" lon="9.3031850">
        <ele>-17.0</ele>
        <time>2022-06-09T11:27:34Z</time>
      </trkpt>
      <trkpt lat="47.6051360" lon="9.3030030">
        <ele>-17.2</ele>
        <time>2022-06-09T11:27:38Z</time>
      </trkpt>
      <trkpt lat="47.6052600" lon="9.3027780">
        <ele>-16.4</ele>
        <time>2022-06-09T11:27:42Z</time>
      </trkpt>
      <trkpt lat="47.6053880" lon="9.3025710">
        <ele>-16.6</ele>
        <time>2022-06-09T11:27:46Z</time>
      </trkpt>
      <trkpt lat="47.6055100" lon="9.3023650">
        <ele>-16.0</ele>
        <time>2022-06-09T11:27:50Z</time>
      </trkpt>
      <trkpt lat="47.6056280" lon="9.3021650">
        <ele>-16.4</ele>
        <time>2022-06-09T11:27:54Z</time>
      </trkpt>
      <trkpt lat="47.6057400" lon="9.3019660">
        <ele>-16.0</ele>
        <time>2022-06-09T11:27:58Z</time>
      </trkpt>
      <trkpt lat="47.6058500" lon="9.3017730">
        <ele>-16.2</ele>
        <time>2022-06-09T11:28:02Z</time>
      </trkpt>
      <trkpt lat="47.6059580" lon="9.3015860">
        <ele>-16.0</ele>
        <time>2022-06-09T11:28:06Z</time>
      </trkpt>
      <trkpt lat="47.6060650" lon="9.3013900">
        <ele>-15.6</ele>
        <time>2022-06-09T11:28:10Z</time>
      </trkpt>
      <trkpt lat="47.6061710" lon="9.3011960">
        <ele>-15.6</ele>
        <time>2022-06-09T11:28:14Z</time>
      </trkpt>
      <trkpt lat="47.6062830" lon="9.3010100">
        <ele>-16.0</ele>
        <time>2022-06-09T11:28:18Z</time>
      </trkpt>
      <trkpt lat="47.6063860" lon="9.3008180">
        <ele>-15.6</ele>
        <time>2022-06-09T11:28:22Z</time>
      </trkpt>
      <trkpt lat="47.6065010" lon="9.3006310">
        <ele>-15.6</ele>
        <time>2022-06-09T11:28:26Z</time>
      </trkpt>
      <trkpt lat="47.6066130" lon="9.3004360">
        <ele>-15.8</ele>
        <time>2022-06-09T11:28:30Z</time>
      </trkpt>
      <trkpt lat="47.6067230" lon="9.3002350">
        <ele>-15.8</ele>
        <time>2022-06-09T11:28:34Z</time>
      </trkpt>
      <trkpt lat="47.6068380" lon="9.3000410">
        <ele>-15.8</ele>
        <time>2022-06-09T11:28:38Z</time>
      </trkpt>
      <trkpt lat="47.6069460" lon="9.2998430">
        <ele>-15.4</ele>
        <time>2022-06-09T11:28:42Z</time>
      </trkpt>
      <trkpt lat="47.6070580" lon="9.2996510">
        <ele>-15.4</ele>
        <time>2022-06-09T11:28:46Z</time>
      </trkpt>
      <trkpt lat="47.6071630" lon="9.2994530">
        <ele>-15.8</ele>
        <time>2022-06-09T11:28:50Z</time>
      </trkpt>
      <trkpt lat="47.6072730" lon="9.2992580">
        <ele>-16.2</ele>
        <time>2022-06-09T11:28:54Z</time>
      </trkpt>
      <trkpt lat="47.6073810" lon="9.2990680">
        <ele>-16.0</ele>
        <time>2022-06-09T11:28:58Z</time>
      </trkpt>
      <trkpt lat="47.6074930" lon="9.2988710">
        <ele>-17.4</ele>
        <time>2022-06-09T11:29:02Z</time>
      </trkpt>
      <trkpt lat="47.6076200" lon="9.2986330">
        <ele>-18.6</ele>
        <time>2022-06-09T11:29:06Z</time>
      </trkpt>
      <trkpt lat="47.6077930" lon="9.2983700">
        <ele>-19.0</ele>
        <time>2022-06-09T11:29:10Z</time>
      </trkpt>
      <trkpt lat="47.6079580" lon="9.2981200">
        <ele>-19.2</ele>
        <time>2022-06-09T11:29:14Z</time>
      </trkpt>
      <trkpt lat="47.6081050" lon="9.2978680">
        <ele>-19.6</ele>
        <time>2022-06-09T11:29:18Z</time>
      </trkpt>
      <trkpt lat="47.6082450" lon="9.2976750">
        <ele>-18.8</ele>
        <time>2022-06-09T11:29:22Z</time>
      </trkpt>
      <trkpt lat="47.6083750" lon="9.2974810">
        <ele>-18.8</ele>
        <time>2022-06-09T11:29:26Z</time>
      </trkpt>
      <trkpt lat="47.6085100" lon="9.2973100">
        <ele>-18.6</ele>
        <time>2022-06-09T11:29:30Z</time>
      </trkpt>
      <trkpt lat="47.6086450" lon="9.2971330">
        <ele>-17.8</ele>
        <time>2022-06-09T11:29:34Z</time>
      </trkpt>
      <trkpt lat="47.6087310" lon="9.2969450">
        <ele>-17.8</ele>
        <time>2022-06-09T11:29:38Z</time>
      </trkpt>
      <trkpt lat="47.6086950" lon="9.2967510">
        <ele>-16.8</ele>
        <time>2022-06-09T11:29:42Z</time>
      </trkpt>
      <trkpt lat="47.6085780" lon="9.2965980">
        <ele>-16.4</ele>
        <time>2022-06-09T11:29:46Z</time>
      </trkpt>
      <trkpt lat="47.6084660" lon="9.2964310">
        <ele>-15.6</ele>
        <time>2022-06-09T11:29:50Z</time>
      </trkpt>
      <trkpt lat="47.6083530" lon="9.2962630">
        <ele>-15.2</ele>
        <time>2022-06-09T11:29:54Z</time>
      </trkpt>
      <trkpt lat="47.6082480" lon="9.2961010">
        <ele>-14.2</ele>
        <time>2022-06-09T11:29:58Z</time>
      </trkpt>
      <trkpt lat="47.6081400" lon="9.2959480">
        <ele>-13.4</ele>
        <time>2022-06-09T11:30:02Z</time>
      </trkpt>
      <trkpt lat="47.6080330" lon="9.2957960">
        <ele>-13.2</ele>
        <time>2022-06-09T11:30:06Z</time>
      </trkpt>
      <trkpt lat="47.6079330" lon="9.2956510">
        <ele>-12.6</ele>
        <time>2022-06-09T11:30:10Z</time>
      </trkpt>
      <trkpt lat="47.6078300" lon="9.2955080">
        <ele>-12.6</ele>
        <time>2022-06-09T11:30:14Z</time>
      </trkpt>
      <trkpt lat="47.6077300" lon="9.2953660">
        <ele>-12.0</ele>
        <time>2022-06-09T11:30:18Z</time>
      </trkpt>
      <trkpt lat="47.6076210" lon="9.2952350">
        <ele>-12.0</ele>
        <time>2022-06-09T11:30:22Z</time>
      </trkpt>
      <trkpt lat="47.6075150" lon="9.2950980">
        <ele>-11.4</ele>
        <time>2022-06-09T11:30:26Z</time>
      </trkpt>
      <trkpt lat="47.6075180" lon="9.2949350">
        <ele>-11.2</ele>
        <time>2022-06-09T11:30:30Z</time>
      </trkpt>
      <trkpt lat="47.6076060" lon="9.2947750">
        <ele>-11.8</ele>
        <time>2022-06-09T11:30:34Z</time>
      </trkpt>
      <trkpt lat="47.6076960" lon="9.2945980">
        <ele>-11.2</ele>
        <time>2022-06-09T11:30:38Z</time>
      </trkpt>
      <trkpt lat="47.6077950" lon="9.2944210">
        <ele>-11.4</ele>
        <time>2022-06-09T11:30:42Z</time>
      </trkpt>
      <trkpt lat="47.6078960" lon="9.2942430">
        <ele>-11.4</ele>
        <time>2022-06-09T11:30:46Z</time>
      </trkpt>
      <trkpt lat="47.6080060" lon="9.2940810">
        <ele>-11.2</ele>
        <time>2022-06-09T11:30:50Z</time>
      </trkpt>
      <trkpt lat="47.6081230" lon="9.2939260">
        <ele>-11.6</ele>
        <time>2022-06-09T11:30:54Z</time>
      </trkpt>
      <trkpt lat="47.6082530" lon="9.2937680">
        <ele>-11.6</ele>
        <time>2022-06-09T11:30:58Z</time>
      </trkpt>
      <trkpt lat="47.6083610" lon="9.2935560">
        <ele>-11.4</ele>
        <time>2022-06-09T11:31:02Z</time>
      </trkpt>
      <trkpt lat="47.6084760" lon="9.2933710">
        <ele>-11.8</ele>
        <time>2022-06-09T11:31:06Z</time>
      </trkpt>
      <trkpt lat="47.6085930" lon="9.2931710">
        <ele>-11.6</ele>
        <time>2022-06-09T11:31:10Z</time>
      </trkpt>
      <trkpt lat="47.6086980" lon="9.2929580">
        <ele>-11.8</ele>
        <time>2022-06-09T11:31:14Z</time>
      </trkpt>
      <trkpt lat="47.6088050" lon="9.2927350">
        <ele>-11.8</ele>
        <time>2022-06-09T11:31:18Z</time>
      </trkpt>
      <trkpt lat="47.6089150" lon="9.2925200">
        <ele>-12.4</ele>
        <time>2022-06-09T11:31:22Z</time>
      </trkpt>
      <trkpt lat="47.6090310" lon="9.2923130">
        <ele>-12.2</ele>
        <time>2022-06-09T11:31:26Z</time>
      </trkpt>
      <trkpt lat="47.6091450" lon="9.2921080">
        <ele>-12.0</ele>
        <time>2022-06-09T11:31:30Z</time>
      </trkpt>
      <trkpt lat="47.6092530" lon="9.2918830">
        <ele>-11.8</ele>
        <time>2022-06-09T11:31:34Z</time>
      </trkpt>
      <trkpt lat="47.6093730" lon="9.2916700">
        <ele>-12.0</ele>
        <time>2022-06-09T11:31:38Z</time>
      </trkpt>
      <trkpt lat="47.6094900" lon="9.2914560">
        <ele>-12.4</ele>
        <time>2022-06-09T11:31:42Z</time>
      </trkpt>
      <trkpt lat="47.6096030" lon="9.2912380">
        <ele>-12.4</ele>
        <time>2022-06-09T11:31:46Z</time>
      </trkpt>
      <trkpt lat="47.6097200" lon="9.2910300">
        <ele>-12.0</ele>
        <time>2022-06-09T11:31:50Z</time>
      </trkpt>
      <trkpt lat="47.6098330" lon="9.2908130">
        <ele>-11.8</ele>
        <time>2022-06-09T11:31:54Z</time>
      </trkpt>
      <trkpt lat="47.6099450" lon="9.2906060">
        <ele>-12.0</ele>
        <time>2022-06-09T11:31:58Z</time>
      </trkpt>
      <trkpt lat="47.6100530" lon="9.2904080">
        <ele>-12.4</ele>
        <time>2022-06-09T11:32:02Z</time>
      </trkpt>
      <trkpt lat="47.6101650" lon="9.2902080">
        <ele>-11.0</ele>
        <time>2022-06-09T11:32:06Z</time>
      </trkpt>
      <trkpt lat="47.6102660" lon="9.2899950">
        <ele>-11.6</ele>
        <time>2022-06-09T11:32:10Z</time>
      </trkpt>
      <trkpt lat="47.6103750" lon="9.2897880">
        <ele>-11.6</ele>
        <time>2022-06-09T11:32:14Z</time>
      </trkpt>
      <trkpt lat="47.6104760" lon="9.2895880">
        <ele>-11.8</ele>
        <time>2022-06-09T11:32:18Z</time>
      </trkpt>
      <trkpt lat="47.6105330" lon="9.2894060">
        <ele>-11.6</ele>
        <time>2022-06-09T11:32:22Z</time>
      </trkpt>
      <trkpt lat="47.6104830" lon="9.2892910">
        <ele>-11.4</ele>
        <time>2022-06-09T11:32:26Z</time>
      </trkpt>
      <trkpt lat="47.6104380" lon="9.2891900">
        <ele>-11.2</ele>
        <time>2022-06-09T11:32:30Z</time>
      </trkpt>
      <trkpt lat="47.6104630" lon="9.2891180">
        <ele>-11.0</ele>
        <time>2022-06-09T11:32:34Z</time>
      </trkpt>
      <trkpt lat="47.6104660" lon="9.2891260">
        <ele>-11.4</ele>
        <time>2022-06-09T11:32:38Z</time>
      </trkpt>
      <trkpt lat="47.6104660" lon="9.2891260">
        <ele>-11.6</ele>
        <time>2022-06-09T11:32:42Z</time>
      </trkpt>
      <trkpt lat="47.6104660" lon="9.2891260">
        <ele>-11.2</ele>
        <time>2022-06-09T11:32:46Z</time>
      </trkpt>
      <trkpt lat="47.6104660" lon="9.2891260">
        <ele>-11.0</ele>
        <time>2022-06-09T11:32:50Z</time>
      </trkpt>
      <trkpt lat="47.6104660" lon="9.2891260">
        <ele>-11.4</ele>
        <time>2022-06-09T11:32:54Z</time>
      </trkpt>
      <trkpt lat="47.6104660" lon="9.2891260">
        <ele>-11.2</ele>
        <time>2022-06-09T11:32:58Z</time>
      </trkpt>
      <trkpt lat="47.6104660" lon="9.2891260">
        <ele>-10.8</ele>
        <time>2022-06-09T11:33:02Z</time>
      </trkpt>
      <trkpt lat="47.6104660" lon="9.2891260">
        <ele>-10.8</ele>
        <time>2022-06-09T11:33:06Z</time>
      </trkpt>
      <trkpt lat="47.6104660" lon="9.2891260">
        <ele>-11.0</ele>
        <time>2022-06-09T11:33:10Z</time>
      </trkpt>
      <trkpt lat="47.6104660" lon="9.2891260">
        <ele>-11.2</ele>
        <time>2022-06-09T11:33:14Z</time>
      </trkpt>
      <trkpt lat="47.6104660" lon="9.2891260">
        <ele>-11.0</ele>
        <time>2022-06-09T11:33:18Z</time>
      </trkpt>
      <trkpt lat="47.6104660" lon="9.2891260">
        <ele>-11.2</ele>
        <time>2022-06-09T11:33:22Z</time>
      </trkpt>
      <trkpt lat="47.6104660" lon="9.2891260">
        <ele>-11.4</ele>
        <time>2022-06-09T11:33:26Z</time>
      </trkpt>
      <trkpt lat="47.6104660" lon="9.2891260">
        <ele>-11.0</ele>
        <time>2022-06-09T11:33:30Z</time>
      </trkpt>
      <trkpt lat="47.6104660" lon="9.2891260">
        <ele>-11.0</ele>
        <time>2022-06-09T11:33:34Z</time>
      </trkpt>
      <trkpt lat="47.6104660" lon="9.2891260">
        <ele>-11.2</ele>
        <time>2022-06-09T11:33:38Z</time>
      </trkpt>
      <trkpt lat="47.6104660" lon="9.2891260">
        <ele>-11.2</ele>
        <time>2022-06-09T11:33:42Z</time>
      </trkpt>
      <trkpt lat="47.6104660" lon="9.2891260">
        <ele>-11.0</ele>
        <time>2022-06-09T11:33:46Z</time>
      </trkpt>
      <trkpt lat="47.6104660" lon="9.2891260">
        <ele>-11.2</ele>
        <time>2022-06-09T11:33:50Z</time>
      </trkpt>
      <trkpt lat="47.6104660" lon="9.2891260">
        <ele>-10.8</ele>
        <time>2022-06-09T11:33:54Z</time>
      </trkpt>
      <trkpt lat="47.6104660" lon="9.2891260">
        <ele>-10.8</ele>
        <time>2022-06-09T11:33:58Z</time>
      </trkpt>
      <trkpt lat="47.6104660" lon="9.2891260">
        <ele>-10.8</ele>
        <time>2022-06-09T11:34:02Z</time>
      </trkpt>
      <trkpt lat="47.6104660" lon="9.2891260">
        <ele>-10.8</ele>
        <time>2022-06-09T11:34:06Z</time>
      </trkpt>
      <trkpt lat="47.6104660" lon="9.2891260">
        <ele>-11.2</ele>
        <time>2022-06-09T11:34:10Z</time>
      </trkpt>
      <trkpt lat="47.6104660" lon="9.2891260">
        <ele>-11.4</ele>
        <time>2022-06-09T11:34:14Z</time>
      </trkpt>
      <trkpt lat="47.6104660" lon="9.2891260">
        <ele>-11.2</ele>
        <time>2022-06-09T11:34:18Z</time>
      </trkpt>
      <trkpt lat="47.6104660" lon="9.2891260">
        <ele>-11.4</ele>
        <time>2022-06-09T11:34:22Z</time>
      </trkpt>
      <trkpt lat="47.6104660" lon="9.2891260">
        <ele>-11.2</ele>
        <time>2022-06-09T11:34:26Z</time>
      </trkpt>
      <trkpt lat="47.6104660" lon="9.2891260">
        <ele>-11.2</ele>
        <time>2022-06-09T11:34:30Z</time>
      </trkpt>
      <trkpt lat="47.6104660" lon="9.2891260">
        <ele>-11.2</ele>
        <time>2022-06-09T11:34:34Z</time>
      </trkpt>
      <trkpt lat="47.6104660" lon="9.2891260">
        <ele>-11.2</ele>
        <time>2022-06-09T11:34:38Z</time>
      </trkpt>
      <trkpt lat="47.6104660" lon="9.2891260">
        <ele>-11.0</ele>
        <time>2022-06-09T11:34:42Z</time>
      </trkpt>
      <trkpt lat="47.6104660" lon="9.2891260">
        <ele>-11.2</ele>
        <time>2022-06-09T11:34:46Z</time>
      </trkpt>
      <trkpt lat="47.6104660" lon="9.2891260">
        <ele>-11.6</ele>
        <time>2022-06-09T11:34:50Z</time>
      </trkpt>
      <trkpt lat="47.6104660" lon="9.2891260">
        <ele>-11.0</ele>
        <time>2022-06-09T11:34:54Z</time>
      </trkpt>
      <trkpt lat="47.6104660" lon="9.2891260">
        <ele>-11.4</ele>
        <time>2022-06-09T11:34:58Z</time>
      </trkpt>
      <trkpt lat="47.6104660" lon="9.2891260">
        <ele>-11.8</ele>
        <time>2022-06-09T11:35:02Z</time>
      </trkpt>
      <trkpt lat="47.6104660" lon="9.2891260">
        <ele>-11.4</ele>
        <time>2022-06-09T11:35:06Z</time>
      </trkpt>
      <trkpt lat="47.6104660" lon="9.2891260">
        <ele>-11.2</ele>
        <time>2022-06-09T11:35:10Z</time>
      </trkpt>
      <trkpt lat="47.6104660" lon="9.2891260">
        <ele>-11.2</ele>
        <time>2022-06-09T11:35:14Z</time>
      </trkpt>
      <trkpt lat="47.6104660" lon="9.2891260">
        <ele>-11.0</ele>
        <time>2022-06-09T11:35:18Z</time>
      </trkpt>
      <trkpt lat="47.6104660" lon="9.2891260">
        <ele>-11.2</ele>
        <time>2022-06-09T11:35:22Z</time>
      </trkpt>
      <trkpt lat="47.6104660" lon="9.2891260">
        <ele>-11.2</ele>
        <time>2022-06-09T11:35:26Z</time>
      </trkpt>
      <trkpt lat="47.6104660" lon="9.2891260">
        <ele>-11.4</ele>
        <time>2022-06-09T11:35:30Z</time>
      </trkpt>
      <trkpt lat="47.6104660" lon="9.2891260">
        <ele>-11.4</ele>
        <time>2022-06-09T11:35:34Z</time>
      </trkpt>
      <trkpt lat="47.6104660" lon="9.2891260">
        <ele>-11.8</ele>
        <time>2022-06-09T11:35:38Z</time>
      </trkpt>
      <trkpt lat="47.6104660" lon="9.2891260">
        <ele>-11.2</ele>
        <time>2022-06-09T11:35:42Z</time>
      </trkpt>
      <trkpt lat="47.6104660" lon="9.2891260">
        <ele>-11.4</ele>
        <time>2022-06-09T11:35:46Z</time>
      </trkpt>
      <trkpt lat="47.6104660" lon="9.2891260">
        <ele>-11.2</ele>
        <time>2022-06-09T11:35:50Z</time>
      </trkpt>
      <trkpt lat="47.6104660" lon="9.2891260">
        <ele>-11.4</ele>
        <time>2022-06-09T11:35:54Z</time>
      </trkpt>
      <trkpt lat="47.6104660" lon="9.2891260">
        <ele>-10.8</ele>
        <time>2022-06-09T11:35:58Z</time>
      </trkpt>
      <trkpt lat="47.6104660" lon="9.2891260">
        <ele>-10.8</ele>
        <time>2022-06-09T11:36:02Z</time>
      </trkpt>
      <trkpt lat="47.6104660" lon="9.2891260">
        <ele>-11.2</ele>
        <time>2022-06-09T11:36:06Z</time>
      </trkpt>
      <trkpt lat="47.6104660" lon="9.2891260">
        <ele>-11.4</ele>
        <time>2022-06-09T11:36:10Z</time>
      </trkpt>
      <trkpt lat="47.6104660" lon="9.2891260">
        <ele>-11.6</ele>
        <time>2022-06-09T11:36:14Z</time>
      </trkpt>
      <trkpt lat="47.6104660" lon="9.2891260">
        <ele>-11.8</ele>
        <time>2022-06-09T11:36:18Z</time>
      </trkpt>
      <trkpt lat="47.6104660" lon="9.2891260">
        <ele>-11.6</ele>
        <time>2022-06-09T11:36:22Z</time>
      </trkpt>
      <trkpt lat="47.6104660" lon="9.2891260">
        <ele>-11.2</ele>
        <time>2022-06-09T11:36:26Z</time>
      </trkpt>
      <trkpt lat="47.6104660" lon="9.2891260">
        <ele>-11.8</ele>
        <time>2022-06-09T11:36:30Z</time>
      </trkpt>
      <trkpt lat="47.6104660" lon="9.2891260">
        <ele>-11.6</ele>
        <time>2022-06-09T11:36:34Z</time>
      </trkpt>
      <trkpt lat="47.6104660" lon="9.2891260">
        <ele>-11.2</ele>
        <time>2022-06-09T11:36:38Z</time>
      </trkpt>
      <trkpt lat="47.6104660" lon="9.2891260">
        <ele>-11.2</ele>
        <time>2022-06-09T11:36:42Z</time>
      </trkpt>
      <trkpt lat="47.6104660" lon="9.2891260">
        <ele>-11.2</ele>
        <time>2022-06-09T11:36:46Z</time>
      </trkpt>
      <trkpt lat="47.6104660" lon="9.2891260">
        <ele>-11.4</ele>
        <time>2022-06-09T11:36:50Z</time>
      </trkpt>
      <trkpt lat="47.6104660" lon="9.2891260">
        <ele>-11.2</ele>
        <time>2022-06-09T11:36:54Z</time>
      </trkpt>
      <trkpt lat="47.6104660" lon="9.2891260">
        <ele>-10.6</ele>
        <time>2022-06-09T11:36:58Z</time>
      </trkpt>
      <trkpt lat="47.6104660" lon="9.2891260">
        <ele>-11.4</ele>
        <time>2022-06-09T11:37:02Z</time>
      </trkpt>
      <trkpt lat="47.6104660" lon="9.2891260">
        <ele>-11.2</ele>
        <time>2022-06-09T11:37:06Z</time>
      </trkpt>
      <trkpt lat="47.6104660" lon="9.2891260">
        <ele>-11.0</ele>
        <time>2022-06-09T11:37:10Z</time>
      </trkpt>
      <trkpt lat="47.6104660" lon="9.2891260">
        <ele>-11.0</ele>
        <time>2022-06-09T11:37:14Z</time>
      </trkpt>
      <trkpt lat="47.6104660" lon="9.2891260">
        <ele>-10.8</ele>
        <time>2022-06-09T11:37:18Z</time>
      </trkpt>
      <trkpt lat="47.6104660" lon="9.2891260">
        <ele>-11.4</ele>
        <time>2022-06-09T11:37:22Z</time>
      </trkpt>
      <trkpt lat="47.6104660" lon="9.2891260">
        <ele>-11.0</ele>
        <time>2022-06-09T11:37:26Z</time>
      </trkpt>
      <trkpt lat="47.6104660" lon="9.2891260">
        <ele>-11.4</ele>
        <time>2022-06-09T11:37:30Z</time>
      </trkpt>
      <trkpt lat="47.6104660" lon="9.2891260">
        <ele>-11.8</ele>
        <time>2022-06-09T11:37:34Z</time>
      </trkpt>
      <trkpt lat="47.6104660" lon="9.2891260">
        <ele>-11.6</ele>
        <time>2022-06-09T11:37:38Z</time>
      </trkpt>
      <trkpt lat="47.6104660" lon="9.2891260">
        <ele>-11.2</ele>
        <time>2022-06-09T11:37:42Z</time>
      </trkpt>
      <trkpt lat="47.6104660" lon="9.2891260">
        <ele>-11.2</ele>
        <time>2022-06-09T11:37:46Z</time>
      </trkpt>
      <trkpt lat="47.6104660" lon="9.2891260">
        <ele>-11.2</ele>
        <time>2022-06-09T11:37:50Z</time>
      </trkpt>
      <trkpt lat="47.6104660" lon="9.2891260">
        <ele>-11.4</ele>
        <time>2022-06-09T11:37:54Z</time>
      </trkpt>
      <trkpt lat="47.6104660" lon="9.2891260">
        <ele>-11.4</ele>
        <time>2022-06-09T11:37:58Z</time>
      </trkpt>
      <trkpt lat="47.6104660" lon="9.2891260">
        <ele>-11.2</ele>
        <time>2022-06-09T11:38:02Z</time>
      </trkpt>
      <trkpt lat="47.6104660" lon="9.2891260">
        <ele>-11.2</ele>
        <time>2022-06-09T11:38:06Z</time>
      </trkpt>
      <trkpt lat="47.6104660" lon="9.2891260">
        <ele>-11.4</ele>
        <time>2022-06-09T11:38:10Z</time>
      </trkpt>
      <trkpt lat="47.6104660" lon="9.2891260">
        <ele>-11.2</ele>
        <time>2022-06-09T11:38:14Z</time>
      </trkpt>
      <trkpt lat="47.6104660" lon="9.2891260">
        <ele>-10.8</ele>
        <time>2022-06-09T11:38:18Z</time>
      </trkpt>
      <trkpt lat="47.6104660" lon="9.2891260">
        <ele>-10.6</ele>
        <time>2022-06-09T11:38:22Z</time>
      </trkpt>
      <trkpt lat="47.6104660" lon="9.2891260">
        <ele>-11.0</ele>
        <time>2022-06-09T11:38:26Z</time>
      </trkpt>
      <trkpt lat="47.6104660" lon="9.2891260">
        <ele>-11.0</ele>
        <time>2022-06-09T11:38:30Z</time>
      </trkpt>
      <trkpt lat="47.6104660" lon="9.2891260">
        <ele>-11.2</ele>
        <time>2022-06-09T11:38:34Z</time>
      </trkpt>
      <trkpt lat="47.6104760" lon="9.2890900">
        <ele>-11.4</ele>
        <time>2022-06-09T11:38:38Z</time>
      </trkpt>
      <trkpt lat="47.6105030" lon="9.2890460">
        <ele>-11.6</ele>
        <time>2022-06-09T11:38:42Z</time>
      </trkpt>
      <trkpt lat="47.6105030" lon="9.2890460">
        <ele>-11.4</ele>
        <time>2022-06-09T11:38:46Z</time>
      </trkpt>
      <trkpt lat="47.6105030" lon="9.2890460">
        <ele>-11.6</ele>
        <time>2022-06-09T11:38:50Z</time>
      </trkpt>
      <trkpt lat="47.6105030" lon="9.2890460">
        <ele>-11.2</ele>
        <time>2022-06-09T11:38:54Z</time>
      </trkpt>
      <trkpt lat="47.6105030" lon="9.2890460">
        <ele>-11.4</ele>
        <time>2022-06-09T11:38:58Z</time>
      </trkpt>
      <trkpt lat="47.6105030" lon="9.2890460">
        <ele>-11.8</ele>
        <time>2022-06-09T11:39:02Z</time>
      </trkpt>
      <trkpt lat="47.6105030" lon="9.2890460">
        <ele>-11.2</ele>
        <time>2022-06-09T11:39:06Z</time>
      </trkpt>
      <trkpt lat="47.6105260" lon="9.2890150">
        <ele>-11.4</ele>
        <time>2022-06-09T11:39:10Z</time>
      </trkpt>
      <trkpt lat="47.6105260" lon="9.2890150">
        <ele>-11.2</ele>
        <time>2022-06-09T11:39:14Z</time>
      </trkpt>
      <trkpt lat="47.6105260" lon="9.2890150">
        <ele>-11.2</ele>
        <time>2022-06-09T11:39:18Z</time>
      </trkpt>
      <trkpt lat="47.6105260" lon="9.2890150">
        <ele>-11.6</ele>
        <time>2022-06-09T11:39:22Z</time>
      </trkpt>
      <trkpt lat="47.6105400" lon="9.2890080">
        <ele>-11.8</ele>
        <time>2022-06-09T11:39:26Z</time>
      </trkpt>
      <trkpt lat="47.6105560" lon="9.2889710">
        <ele>-11.4</ele>
        <time>2022-06-09T11:39:30Z</time>
      </trkpt>
      <trkpt lat="47.6105560" lon="9.2889710">
        <ele>-11.6</ele>
        <time>2022-06-09T11:39:34Z</time>
      </trkpt>
      <trkpt lat="47.6105560" lon="9.2889710">
        <ele>-11.6</ele>
        <time>2022-06-09T11:39:38Z</time>
      </trkpt>
      <trkpt lat="47.6105560" lon="9.2889710">
        <ele>-11.6</ele>
        <time>2022-06-09T11:39:42Z</time>
      </trkpt>
      <trkpt lat="47.6105560" lon="9.2889710">
        <ele>-11.6</ele>
        <time>2022-06-09T11:39:46Z</time>
      </trkpt>
      <trkpt lat="47.6105560" lon="9.2889710">
        <ele>-11.8</ele>
        <time>2022-06-09T11:39:50Z</time>
      </trkpt>
      <trkpt lat="47.6105710" lon="9.2889400">
        <ele>-11.4</ele>
        <time>2022-06-09T11:39:54Z</time>
      </trkpt>
      <trkpt lat="47.6106080" lon="9.2888910">
        <ele>-11.2</ele>
        <time>2022-06-09T11:39:58Z</time>
      </trkpt>
      <trkpt lat="47.6106480" lon="9.2888180">
        <ele>-11.6</ele>
        <time>2022-06-09T11:40:02Z</time>
      </trkpt>
      <trkpt lat="47.6106750" lon="9.2887610">
        <ele>-11.0</ele>
        <time>2022-06-09T11:40:06Z</time>
      </trkpt>
      <trkpt lat="47.6107280" lon="9.2886950">
        <ele>-10.8</ele>
        <time>2022-06-09T11:40:10Z</time>
      </trkpt>
      <trkpt lat="47.6107700" lon="9.2885800">
        <ele>-10.6</ele>
        <time>2022-06-09T11:40:14Z</time>
      </trkpt>
      <trkpt lat="47.6108350" lon="9.2884730">
        <ele>-10.6</ele>
        <time>2022-06-09T11:40:18Z</time>
      </trkpt>
      <trkpt lat="47.6109060" lon="9.2883530">
        <ele>-10.2</ele>
        <time>2022-06-09T11:40:22Z</time>
      </trkpt>
      <trkpt lat="47.6109750" lon="9.2882110">
        <ele>-10.6</ele>
        <time>2022-06-09T11:40:26Z</time>
      </trkpt>
      <trkpt lat="47.6110530" lon="9.2880730">
        <ele>-11.0</ele>
        <time>2022-06-09T11:40:30Z</time>
      </trkpt>
      <trkpt lat="47.6111360" lon="9.2879250">
        <ele>-11.2</ele>
        <time>2022-06-09T11:40:34Z</time>
      </trkpt>
      <trkpt lat="47.6112260" lon="9.2877700">
        <ele>-11.6</ele>
        <time>2022-06-09T11:40:38Z</time>
      </trkpt>
      <trkpt lat="47.6113200" lon="9.2876060">
        <ele>-11.2</ele>
        <time>2022-06-09T11:40:42Z</time>
      </trkpt>
      <trkpt lat="47.6114210" lon="9.2874230">
        <ele>-11.6</ele>
        <time>2022-06-09T11:40:46Z</time>
      </trkpt>
      <trkpt lat="47.6115260" lon="9.2872210">
        <ele>-11.8</ele>
        <time>2022-06-09T11:40:50Z</time>
      </trkpt>
      <trkpt lat="47.6116380" lon="9.2870310">
        <ele>-12.0</ele>
        <time>2022-06-09T11:40:54Z</time>
      </trkpt>
      <trkpt lat="47.6117460" lon="9.2868400">
        <ele>-12.6</ele>
        <time>2022-06-09T11:40:58Z</time>
      </trkpt>
      <trkpt lat="47.6118550" lon="9.2866380">
        <ele>-12.2</ele>
        <time>2022-06-09T11:41:02Z</time>
      </trkpt>
      <trkpt lat="47.6119710" lon="9.2864310">
        <ele>-12.0</ele>
        <time>2022-06-09T11:41:06Z</time>
      </trkpt>
      <trkpt lat="47.6120880" lon="9.2862160">
        <ele>-12.2</ele>
        <time>2022-06-09T11:41:10Z</time>
      </trkpt>
      <trkpt lat="47.6122060" lon="9.2860030">
        <ele>-12.0</ele>
        <time>2022-06-09T11:41:14Z</time>
      </trkpt>
      <trkpt lat="47.6123280" lon="9.2857860">
        <ele>-12.0</ele>
        <time>2022-06-09T11:41:18Z</time>
      </trkpt>
      <trkpt lat="47.6124530" lon="9.2855650">
        <ele>-12.2</ele>
        <time>2022-06-09T11:41:22Z</time>
      </trkpt>
      <trkpt lat="47.6125800" lon="9.2853460">
        <ele>-12.8</ele>
        <time>2022-06-09T11:41:26Z</time>
      </trkpt>
      <trkpt lat="47.6127030" lon="9.2851150">
        <ele>-12.6</ele>
        <time>2022-06-09T11:41:30Z</time>
      </trkpt>
      <trkpt lat="47.6128210" lon="9.2848800">
        <ele>-12.0</ele>
        <time>2022-06-09T11:41:34Z</time>
      </trkpt>
      <trkpt lat="47.6129450" lon="9.2846400">
        <ele>-12.6</ele>
        <time>2022-06-09T11:41:38Z</time>
      </trkpt>
      <trkpt lat="47.6130580" lon="9.2843930">
        <ele>-12.4</ele>
        <time>2022-06-09T11:41:42Z</time>
      </trkpt>
      <trkpt lat="47.6131650" lon="9.2841530">
        <ele>-11.4</ele>
        <time>2022-06-09T11:41:46Z</time>
      </trkpt>
      <trkpt lat="47.6132700" lon="9.2839150">
        <ele>-11.6</ele>
        <time>2022-06-09T11:41:50Z</time>
      </trkpt>
      <trkpt lat="47.6133680" lon="9.2836810">
        <ele>-11.4</ele>
        <time>2022-06-09T11:41:54Z</time>
      </trkpt>
      <trkpt lat="47.6134710" lon="9.2834500">
        <ele>-11.2</ele>
        <time>2022-06-09T11:41:58Z</time>
      </trkpt>
      <trkpt lat="47.6135680" lon="9.2832180">
        <ele>-11.0</ele>
        <time>2022-06-09T11:42:02Z</time>
      </trkpt>
      <trkpt lat="47.6136730" lon="9.2829810">
        <ele>-11.6</ele>
        <time>2022-06-09T11:42:06Z</time>
      </trkpt>
      <trkpt lat="47.6137880" lon="9.2827430">
        <ele>-11.8</ele>
        <time>2022-06-09T11:42:10Z</time>
      </trkpt>
      <trkpt lat="47.6139030" lon="9.2824980">
        <ele>-11.4</ele>
        <time>2022-06-09T11:42:14Z</time>
      </trkpt>
      <trkpt lat="47.6140180" lon="9.2822510">
        <ele>-11.2</ele>
        <time>2022-06-09T11:42:18Z</time>
      </trkpt>
      <trkpt lat="47.6141280" lon="9.2820060">
        <ele>-11.2</ele>
        <time>2022-06-09T11:42:22Z</time>
      </trkpt>
      <trkpt lat="47.6142400" lon="9.2817730">
        <ele>-11.4</ele>
        <time>2022-06-09T11:42:26Z</time>
      </trkpt>
      <trkpt lat="47.6143450" lon="9.2815380">
        <ele>-10.6</ele>
        <time>2022-06-09T11:42:30Z</time>
      </trkpt>
      <trkpt lat="47.6144550" lon="9.2813080">
        <ele>-10.8</ele>
        <time>2022-06-09T11:42:34Z</time>
      </trkpt>
      <trkpt lat="47.6145610" lon="9.2810510">
        <ele>-9.8</ele>
        <time>2022-06-09T11:42:38Z</time>
      </trkpt>
      <trkpt lat="47.6146810" lon="9.2808050">
        <ele>-11.2</ele>
        <time>2022-06-09T11:42:42Z</time>
      </trkpt>
      <trkpt lat="47.6147930" lon="9.2805510">
        <ele>-11.0</ele>
        <time>2022-06-09T11:42:46Z</time>
      </trkpt>
      <trkpt lat="47.6149130" lon="9.2802950">
        <ele>-11.4</ele>
        <time>2022-06-09T11:42:50Z</time>
      </trkpt>
      <trkpt lat="47.6150280" lon="9.2800500">
        <ele>-10.4</ele>
        <time>2022-06-09T11:42:54Z</time>
      </trkpt>
      <trkpt lat="47.6151450" lon="9.2798100">
        <ele>-10.2</ele>
        <time>2022-06-09T11:42:58Z</time>
      </trkpt>
      <trkpt lat="47.6152530" lon="9.2795650">
        <ele>-9.8</ele>
        <time>2022-06-09T11:43:02Z</time>
      </trkpt>
      <trkpt lat="47.6153700" lon="9.2793230">
        <ele>-9.6</ele>
        <time>2022-06-09T11:43:06Z</time>
      </trkpt>
      <trkpt lat="47.6154780" lon="9.2790700">
        <ele>-8.8</ele>
        <time>2022-06-09T11:43:10Z</time>
      </trkpt>
      <trkpt lat="47.6155880" lon="9.2788300">
        <ele>-9.6</ele>
        <time>2022-06-09T11:43:14Z</time>
      </trkpt>
      <trkpt lat="47.6157000" lon="9.2785810">
        <ele>-8.8</ele>
        <time>2022-06-09T11:43:18Z</time>
      </trkpt>
      <trkpt lat="47.6158150" lon="9.2783300">
        <ele>-8.8</ele>
        <time>2022-06-09T11:43:22Z</time>
      </trkpt>
      <trkpt lat="47.6159260" lon="9.2780800">
        <ele>-10.0</ele>
        <time>2022-06-09T11:43:26Z</time>
      </trkpt>
      <trkpt lat="47.6160450" lon="9.2778180">
        <ele>-10.0</ele>
        <time>2022-06-09T11:43:30Z</time>
      </trkpt>
      <trkpt lat="47.6161710" lon="9.2775410">
        <ele>-10.6</ele>
        <time>2022-06-09T11:43:34Z</time>
      </trkpt>
      <trkpt lat="47.6162960" lon="9.2772530">
        <ele>-10.4</ele>
        <time>2022-06-09T11:43:38Z</time>
      </trkpt>
      <trkpt lat="47.6164180" lon="9.2769630">
        <ele>-10.0</ele>
        <time>2022-06-09T11:43:42Z</time>
      </trkpt>
      <trkpt lat="47.6165380" lon="9.2767010">
        <ele>-9.8</ele>
        <time>2022-06-09T11:43:46Z</time>
      </trkpt>
      <trkpt lat="47.6166580" lon="9.2764510">
        <ele>-9.6</ele>
        <time>2022-06-09T11:43:50Z</time>
      </trkpt>
      <trkpt lat="47.6167710" lon="9.2762080">
        <ele>-9.6</ele>
        <time>2022-06-09T11:43:54Z</time>
      </trkpt>
      <trkpt lat="47.6168800" lon="9.2759650">
        <ele>-10.0</ele>
        <time>2022-06-09T11:43:58Z</time>
      </trkpt>
      <trkpt lat="47.6169830" lon="9.2757310">
        <ele>-10.0</ele>
        <time>2022-06-09T11:44:02Z</time>
      </trkpt>
      <trkpt lat="47.6170930" lon="9.2755030">
        <ele>-10.0</ele>
        <time>2022-06-09T11:44:06Z</time>
      </trkpt>
      <trkpt lat="47.6172050" lon="9.2752630">
        <ele>-10.0</ele>
        <time>2022-06-09T11:44:10Z</time>
      </trkpt>
      <trkpt lat="47.6173100" lon="9.2750150">
        <ele>-10.8</ele>
        <time>2022-06-09T11:44:14Z</time>
      </trkpt>
      <trkpt lat="47.6174200" lon="9.2747730">
        <ele>-10.6</ele>
        <time>2022-06-09T11:44:18Z</time>
      </trkpt>
      <trkpt lat="47.6175300" lon="9.2745350">
        <ele>-10.2</ele>
        <time>2022-06-09T11:44:22Z</time>
      </trkpt>
      <trkpt lat="47.6176380" lon="9.2742950">
        <ele>-10.4</ele>
        <time>2022-06-09T11:44:26Z</time>
      </trkpt>
      <trkpt lat="47.6177460" lon="9.2740480">
        <ele>-10.2</ele>
        <time>2022-06-09T11:44:30Z</time>
      </trkpt>
      <trkpt lat="47.6178550" lon="9.2738160">
        <ele>-11.0</ele>
        <time>2022-06-09T11:44:34Z</time>
      </trkpt>
      <trkpt lat="47.6179660" lon="9.2735850">
        <ele>-11.6</ele>
        <time>2022-06-09T11:44:38Z</time>
      </trkpt>
      <trkpt lat="47.6180750" lon="9.2733350">
        <ele>-11.2</ele>
        <time>2022-06-09T11:44:42Z</time>
      </trkpt>
      <trkpt lat="47.6181860" lon="9.2730830">
        <ele>-10.6</ele>
        <time>2022-06-09T11:44:46Z</time>
      </trkpt>
      <trkpt lat="47.6182950" lon="9.2728380">
        <ele>-11.4</ele>
        <time>2022-06-09T11:44:50Z</time>
      </trkpt>
      <trkpt lat="47.6183950" lon="9.2726000">
        <ele>-11.2</ele>
        <time>2022-06-09T11:44:54Z</time>
      </trkpt>
      <trkpt lat="47.6184850" lon="9.2723660">
        <ele>-11.2</ele>
        <time>2022-06-09T11:44:58Z</time>
      </trkpt>
      <trkpt lat="47.6185900" lon="9.2721410">
        <ele>-11.2</ele>
        <time>2022-06-09T11:45:02Z</time>
      </trkpt>
      <trkpt lat="47.6187000" lon="9.2719000">
        <ele>-11.2</ele>
        <time>2022-06-09T11:45:06Z</time>
      </trkpt>
      <trkpt lat="47.6188180" lon="9.2716580">
        <ele>-11.2</ele>
        <time>2022-06-09T11:45:10Z</time>
      </trkpt>
      <trkpt lat="47.6189260" lon="9.2714080">
        <ele>-11.8</ele>
        <time>2022-06-09T11:45:14Z</time>
      </trkpt>
      <trkpt lat="47.6190380" lon="9.2711510">
        <ele>-11.2</ele>
        <time>2022-06-09T11:45:18Z</time>
      </trkpt>
      <trkpt lat="47.6191460" lon="9.2708930">
        <ele>-11.8</ele>
        <time>2022-06-09T11:45:22Z</time>
      </trkpt>
      <trkpt lat="47.6192550" lon="9.2706630">
        <ele>-11.4</ele>
        <time>2022-06-09T11:45:26Z</time>
      </trkpt>
      <trkpt lat="47.6193610" lon="9.2704280">
        <ele>-11.6</ele>
        <time>2022-06-09T11:45:30Z</time>
      </trkpt>
      <trkpt lat="47.6194730" lon="9.2701950">
        <ele>-11.6</ele>
        <time>2022-06-09T11:45:34Z</time>
      </trkpt>
      <trkpt lat="47.6195780" lon="9.2699510">
        <ele>-12.2</ele>
        <time>2022-06-09T11:45:38Z</time>
      </trkpt>
      <trkpt lat="47.6196850" lon="9.2697060">
        <ele>-12.4</ele>
        <time>2022-06-09T11:45:42Z</time>
      </trkpt>
      <trkpt lat="47.6197930" lon="9.2694660">
        <ele>-12.6</ele>
        <time>2022-06-09T11:45:46Z</time>
      </trkpt>
      <trkpt lat="47.6199000" lon="9.2692280">
        <ele>-13.0</ele>
        <time>2022-06-09T11:45:50Z</time>
      </trkpt>
      <trkpt lat="47.6199980" lon="9.2689800">
        <ele>-12.8</ele>
        <time>2022-06-09T11:45:54Z</time>
      </trkpt>
      <trkpt lat="47.6200950" lon="9.2687350">
        <ele>-13.2</ele>
        <time>2022-06-09T11:45:58Z</time>
      </trkpt>
      <trkpt lat="47.6201800" lon="9.2684830">
        <ele>-12.8</ele>
        <time>2022-06-09T11:46:02Z</time>
      </trkpt>
      <trkpt lat="47.6202600" lon="9.2682300">
        <ele>-13.4</ele>
        <time>2022-06-09T11:46:06Z</time>
      </trkpt>
      <trkpt lat="47.6203380" lon="9.2679780">
        <ele>-13.0</ele>
        <time>2022-06-09T11:46:10Z</time>
      </trkpt>
      <trkpt lat="47.6204160" lon="9.2677280">
        <ele>-12.6</ele>
        <time>2022-06-09T11:46:14Z</time>
      </trkpt>
      <trkpt lat="47.6204830" lon="9.2674730">
        <ele>-12.6</ele>
        <time>2022-06-09T11:46:18Z</time>
      </trkpt>
      <trkpt lat="47.6205550" lon="9.2672550">
        <ele>-12.2</ele>
        <time>2022-06-09T11:46:22Z</time>
      </trkpt>
      <trkpt lat="47.6206260" lon="9.2670310">
        <ele>-10.8</ele>
        <time>2022-06-09T11:46:26Z</time>
      </trkpt>
      <trkpt lat="47.6207010" lon="9.2668230">
        <ele>-11.6</ele>
        <time>2022-06-09T11:46:30Z</time>
      </trkpt>
      <trkpt lat="47.6207860" lon="9.2666350">
        <ele>-11.8</ele>
        <time>2022-06-09T11:46:34Z</time>
      </trkpt>
      <trkpt lat="47.6208730" lon="9.2664280">
        <ele>-11.2</ele>
        <time>2022-06-09T11:46:38Z</time>
      </trkpt>
      <trkpt lat="47.6209650" lon="9.2662330">
        <ele>-11.8</ele>
        <time>2022-06-09T11:46:42Z</time>
      </trkpt>
      <trkpt lat="47.6210450" lon="9.2660610">
        <ele>-12.0</ele>
        <time>2022-06-09T11:46:46Z</time>
      </trkpt>
      <trkpt lat="47.6211200" lon="9.2659360">
        <ele>-12.6</ele>
        <time>2022-06-09T11:46:50Z</time>
      </trkpt>
      <trkpt lat="47.6211850" lon="9.2657730">
        <ele>-12.0</ele>
        <time>2022-06-09T11:46:54Z</time>
      </trkpt>
      <trkpt lat="47.6212560" lon="9.2655780">
        <ele>-11.6</ele>
        <time>2022-06-09T11:46:58Z</time>
      </trkpt>
      <trkpt lat="47.6213410" lon="9.2653560">
        <ele>-11.2</ele>
        <time>2022-06-09T11:47:02Z</time>
      </trkpt>
      <trkpt lat="47.6214480" lon="9.2651230">
        <ele>-11.2</ele>
        <time>2022-06-09T11:47:06Z</time>
      </trkpt>
      <trkpt lat="47.6215810" lon="9.2649510">
        <ele>-11.2</ele>
        <time>2022-06-09T11:47:10Z</time>
      </trkpt>
      <trkpt lat="47.6217230" lon="9.2647630">
        <ele>-11.4</ele>
        <time>2022-06-09T11:47:14Z</time>
      </trkpt>
      <trkpt lat="47.6218500" lon="9.2645560">
        <ele>-11.2</ele>
        <time>2022-06-09T11:47:18Z</time>
      </trkpt>
      <trkpt lat="47.6219580" lon="9.2643160">
        <ele>-11.8</ele>
        <time>2022-06-09T11:47:22Z</time>
      </trkpt>
      <trkpt lat="47.6220700" lon="9.2640760">
        <ele>-11.8</ele>
        <time>2022-06-09T11:47:26Z</time>
      </trkpt>
      <trkpt lat="47.6221910" lon="9.2638500">
        <ele>-11.6</ele>
        <time>2022-06-09T11:47:30Z</time>
      </trkpt>
      <trkpt lat="47.6223060" lon="9.2636310">
        <ele>-12.0</ele>
        <time>2022-06-09T11:47:34Z</time>
      </trkpt>
      <trkpt lat="47.6224300" lon="9.2634150">
        <ele>-11.8</ele>
        <time>2022-06-09T11:47:38Z</time>
      </trkpt>
      <trkpt lat="47.6225430" lon="9.2631830">
        <ele>-12.4</ele>
        <time>2022-06-09T11:47:42Z</time>
      </trkpt>
      <trkpt lat="47.6226480" lon="9.2629480">
        <ele>-12.8</ele>
        <time>2022-06-09T11:47:46Z</time>
      </trkpt>
      <trkpt lat="47.6227480" lon="9.2627130">
        <ele>-12.6</ele>
        <time>2022-06-09T11:47:50Z</time>
      </trkpt>
      <trkpt lat="47.6228460" lon="9.2624780">
        <ele>-12.8</ele>
        <time>2022-06-09T11:47:54Z</time>
      </trkpt>
      <trkpt lat="47.6229480" lon="9.2622360">
        <ele>-12.2</ele>
        <time>2022-06-09T11:47:58Z</time>
      </trkpt>
      <trkpt lat="47.6230550" lon="9.2620030">
        <ele>-12.6</ele>
        <time>2022-06-09T11:48:02Z</time>
      </trkpt>
      <trkpt lat="47.6231550" lon="9.2617660">
        <ele>-12.4</ele>
        <time>2022-06-09T11:48:06Z</time>
      </trkpt>
      <trkpt lat="47.6232510" lon="9.2615350">
        <ele>-12.4</ele>
        <time>2022-06-09T11:48:10Z</time>
      </trkpt>
      <trkpt lat="47.6233500" lon="9.2613050">
        <ele>-12.4</ele>
        <time>2022-06-09T11:48:14Z</time>
      </trkpt>
      <trkpt lat="47.6234480" lon="9.2610760">
        <ele>-12.4</ele>
        <time>2022-06-09T11:48:18Z</time>
      </trkpt>
      <trkpt lat="47.6235510" lon="9.2608410">
        <ele>-12.0</ele>
        <time>2022-06-09T11:48:22Z</time>
      </trkpt>
      <trkpt lat="47.6236480" lon="9.2606000">
        <ele>-12.6</ele>
        <time>2022-06-09T11:48:26Z</time>
      </trkpt>
      <trkpt lat="47.6237480" lon="9.2603630">
        <ele>-12.8</ele>
        <time>2022-06-09T11:48:30Z</time>
      </trkpt>
      <trkpt lat="47.6238460" lon="9.2601160">
        <ele>-13.4</ele>
        <time>2022-06-09T11:48:34Z</time>
      </trkpt>
      <trkpt lat="47.6239550" lon="9.2598660">
        <ele>-13.4</ele>
        <time>2022-06-09T11:48:38Z</time>
      </trkpt>
      <trkpt lat="47.6240680" lon="9.2596010">
        <ele>-13.8</ele>
        <time>2022-06-09T11:48:42Z</time>
      </trkpt>
      <trkpt lat="47.6241760" lon="9.2593350">
        <ele>-13.8</ele>
        <time>2022-06-09T11:48:46Z</time>
      </trkpt>
      <trkpt lat="47.6242800" lon="9.2590680">
        <ele>-14.2</ele>
        <time>2022-06-09T11:48:50Z</time>
      </trkpt>
      <trkpt lat="47.6243880" lon="9.2588100">
        <ele>-14.0</ele>
        <time>2022-06-09T11:48:54Z</time>
      </trkpt>
      <trkpt lat="47.6244910" lon="9.2585630">
        <ele>-13.8</ele>
        <time>2022-06-09T11:48:58Z</time>
      </trkpt>
      <trkpt lat="47.6245930" lon="9.2583150">
        <ele>-13.6</ele>
        <time>2022-06-09T11:49:02Z</time>
      </trkpt>
      <trkpt lat="47.6246960" lon="9.2580700">
        <ele>-13.6</ele>
        <time>2022-06-09T11:49:06Z</time>
      </trkpt>
      <trkpt lat="47.6247950" lon="9.2578360">
        <ele>-14.4</ele>
        <time>2022-06-09T11:49:10Z</time>
      </trkpt>
      <trkpt lat="47.6248900" lon="9.2576110">
        <ele>-15.0</ele>
        <time>2022-06-09T11:49:14Z</time>
      </trkpt>
      <trkpt lat="47.6249810" lon="9.2573860">
        <ele>-14.2</ele>
        <time>2022-06-09T11:49:18Z</time>
      </trkpt>
      <trkpt lat="47.6250680" lon="9.2571680">
        <ele>-14.0</ele>
        <time>2022-06-09T11:49:22Z</time>
      </trkpt>
      <trkpt lat="47.6251500" lon="9.2569600">
        <ele>-14.0</ele>
        <time>2022-06-09T11:49:26Z</time>
      </trkpt>
      <trkpt lat="47.6252360" lon="9.2567660">
        <ele>-14.4</ele>
        <time>2022-06-09T11:49:30Z</time>
      </trkpt>
      <trkpt lat="47.6253230" lon="9.2565660">
        <ele>-14.0</ele>
        <time>2022-06-09T11:49:34Z</time>
      </trkpt>
      <trkpt lat="47.6254110" lon="9.2563630">
        <ele>-14.2</ele>
        <time>2022-06-09T11:49:38Z</time>
      </trkpt>
      <trkpt lat="47.6255060" lon="9.2561500">
        <ele>-14.8</ele>
        <time>2022-06-09T11:49:42Z</time>
      </trkpt>
      <trkpt lat="47.6256060" lon="9.2559300">
        <ele>-14.2</ele>
        <time>2022-06-09T11:49:46Z</time>
      </trkpt>
      <trkpt lat="47.6257130" lon="9.2557010">
        <ele>-13.6</ele>
        <time>2022-06-09T11:49:50Z</time>
      </trkpt>
      <trkpt lat="47.6258210" lon="9.2554730">
        <ele>-14.8</ele>
        <time>2022-06-09T11:49:54Z</time>
      </trkpt>
      <trkpt lat="47.6259260" lon="9.2552400">
        <ele>-14.6</ele>
        <time>2022-06-09T11:49:58Z</time>
      </trkpt>
      <trkpt lat="47.6260260" lon="9.2550000">
        <ele>-14.4</ele>
        <time>2022-06-09T11:50:02Z</time>
      </trkpt>
      <trkpt lat="47.6261200" lon="9.2547500">
        <ele>-14.0</ele>
        <time>2022-06-09T11:50:06Z</time>
      </trkpt>
      <trkpt lat="47.6262230" lon="9.2545050">
        <ele>-14.6</ele>
        <time>2022-06-09T11:50:10Z</time>
      </trkpt>
      <trkpt lat="47.6263180" lon="9.2542680">
        <ele>-14.2</ele>
        <time>2022-06-09T11:50:14Z</time>
      </trkpt>
      <trkpt lat="47.6264150" lon="9.2540430">
        <ele>-14.6</ele>
        <time>2022-06-09T11:50:18Z</time>
      </trkpt>
      <trkpt lat="47.6265100" lon="9.2538030">
        <ele>-14.0</ele>
        <time>2022-06-09T11:50:22Z</time>
      </trkpt>
      <trkpt lat="47.6265980" lon="9.2535610">
        <ele>-14.0</ele>
        <time>2022-06-09T11:50:26Z</time>
      </trkpt>
      <trkpt lat="47.6266850" lon="9.2533260">
        <ele>-13.8</ele>
        <time>2022-06-09T11:50:30Z</time>
      </trkpt>
      <trkpt lat="47.6267650" lon="9.2530950">
        <ele>-14.4</ele>
        <time>2022-06-09T11:50:34Z</time>
      </trkpt>
      <trkpt lat="47.6268430" lon="9.2528660">
        <ele>-13.6</ele>
        <time>2022-06-09T11:50:38Z</time>
      </trkpt>
      <trkpt lat="47.6269360" lon="9.2526230">
        <ele>-13.6</ele>
        <time>2022-06-09T11:50:42Z</time>
      </trkpt>
      <trkpt lat="47.6270180" lon="9.2523930">
        <ele>-13.4</ele>
        <time>2022-06-09T11:50:46Z</time>
      </trkpt>
      <trkpt lat="47.6271000" lon="9.2521830">
        <ele>-15.2</ele>
        <time>2022-06-09T11:50:50Z</time>
      </trkpt>
      <trkpt lat="47.6272060" lon="9.2520260">
        <ele>-15.2</ele>
        <time>2022-06-09T11:50:54Z</time>
      </trkpt>
      <trkpt lat="47.6273600" lon="9.2520060">
        <ele>-14.8</ele>
        <time>2022-06-09T11:50:58Z</time>
      </trkpt>
      <trkpt lat="47.6274480" lon="9.2517800">
        <ele>-14.8</ele>
        <time>2022-06-09T11:51:02Z</time>
      </trkpt>
      <trkpt lat="47.6275280" lon="9.2515300">
        <ele>-14.6</ele>
        <time>2022-06-09T11:51:06Z</time>
      </trkpt>
      <trkpt lat="47.6276030" lon="9.2512900">
        <ele>-14.6</ele>
        <time>2022-06-09T11:51:10Z</time>
      </trkpt>
      <trkpt lat="47.6276800" lon="9.2510550">
        <ele>-14.0</ele>
        <time>2022-06-09T11:51:14Z</time>
      </trkpt>
      <trkpt lat="47.6277500" lon="9.2508310">
        <ele>-14.0</ele>
        <time>2022-06-09T11:51:18Z</time>
      </trkpt>
      <trkpt lat="47.6278280" lon="9.2506260">
        <ele>-14.6</ele>
        <time>2022-06-09T11:51:22Z</time>
      </trkpt>
      <trkpt lat="47.6279000" lon="9.2504110">
        <ele>-14.4</ele>
        <time>2022-06-09T11:51:26Z</time>
      </trkpt>
      <trkpt lat="47.6279760" lon="9.2501700">
        <ele>-13.8</ele>
        <time>2022-06-09T11:51:30Z</time>
      </trkpt>
      <trkpt lat="47.6280550" lon="9.2499210">
        <ele>-13.6</ele>
        <time>2022-06-09T11:51:34Z</time>
      </trkpt>
      <trkpt lat="47.6281380" lon="9.2496680">
        <ele>-14.0</ele>
        <time>2022-06-09T11:51:38Z</time>
      </trkpt>
      <trkpt lat="47.6282200" lon="9.2494450">
        <ele>-14.2</ele>
        <time>2022-06-09T11:51:42Z</time>
      </trkpt>
      <trkpt lat="47.6282980" lon="9.2492130">
        <ele>-14.2</ele>
        <time>2022-06-09T11:51:46Z</time>
      </trkpt>
      <trkpt lat="47.6283830" lon="9.2489860">
        <ele>-13.4</ele>
        <time>2022-06-09T11:51:50Z</time>
      </trkpt>
      <trkpt lat="47.6284700" lon="9.2487680">
        <ele>-11.8</ele>
        <time>2022-06-09T11:51:54Z</time>
      </trkpt>
      <trkpt lat="47.6285530" lon="9.2485430">
        <ele>-12.8</ele>
        <time>2022-06-09T11:51:58Z</time>
      </trkpt>
      <trkpt lat="47.6286400" lon="9.2483430">
        <ele>-12.0</ele>
        <time>2022-06-09T11:52:02Z</time>
      </trkpt>
      <trkpt lat="47.6287100" lon="9.2481260">
        <ele>-12.0</ele>
        <time>2022-06-09T11:52:06Z</time>
      </trkpt>
      <trkpt lat="47.6287850" lon="9.2479210">
        <ele>-10.8</ele>
        <time>2022-06-09T11:52:10Z</time>
      </trkpt>
      <trkpt lat="47.6288510" lon="9.2477080">
        <ele>-11.6</ele>
        <time>2022-06-09T11:52:14Z</time>
      </trkpt>
      <trkpt lat="47.6289200" lon="9.2474910">
        <ele>-12.0</ele>
        <time>2022-06-09T11:52:18Z</time>
      </trkpt>
      <trkpt lat="47.6289900" lon="9.2472800">
        <ele>-12.0</ele>
        <time>2022-06-09T11:52:22Z</time>
      </trkpt>
      <trkpt lat="47.6290480" lon="9.2470610">
        <ele>-13.8</ele>
        <time>2022-06-09T11:52:26Z</time>
      </trkpt>
      <trkpt lat="47.6291130" lon="9.2468060">
        <ele>-14.6</ele>
        <time>2022-06-09T11:52:30Z</time>
      </trkpt>
      <trkpt lat="47.6292060" lon="9.2465360">
        <ele>-15.8</ele>
        <time>2022-06-09T11:52:34Z</time>
      </trkpt>
      <trkpt lat="47.6292630" lon="9.2462610">
        <ele>-18.0</ele>
        <time>2022-06-09T11:52:38Z</time>
      </trkpt>
      <trkpt lat="47.6293610" lon="9.2459850">
        <ele>-17.8</ele>
        <time>2022-06-09T11:52:42Z</time>
      </trkpt>
      <trkpt lat="47.6294600" lon="9.2456950">
        <ele>-17.2</ele>
        <time>2022-06-09T11:52:46Z</time>
      </trkpt>
      <trkpt lat="47.6295460" lon="9.2454110">
        <ele>-17.4</ele>
        <time>2022-06-09T11:52:50Z</time>
      </trkpt>
      <trkpt lat="47.6296460" lon="9.2451350">
        <ele>-19.0</ele>
        <time>2022-06-09T11:52:54Z</time>
      </trkpt>
      <trkpt lat="47.6297560" lon="9.2448280">
        <ele>-19.6</ele>
        <time>2022-06-09T11:52:58Z</time>
      </trkpt>
      <trkpt lat="47.6298860" lon="9.2444860">
        <ele>-20.6</ele>
        <time>2022-06-09T11:53:02Z</time>
      </trkpt>
      <trkpt lat="47.6300200" lon="9.2441300">
        <ele>-20.0</ele>
        <time>2022-06-09T11:53:06Z</time>
      </trkpt>
      <trkpt lat="47.6301430" lon="9.2437930">
        <ele>-20.2</ele>
        <time>2022-06-09T11:53:10Z</time>
      </trkpt>
      <trkpt lat="47.6302530" lon="9.2434710">
        <ele>-21.4</ele>
        <time>2022-06-09T11:53:14Z</time>
      </trkpt>
      <trkpt lat="47.6303580" lon="9.2431500">
        <ele>-21.2</ele>
        <time>2022-06-09T11:53:18Z</time>
      </trkpt>
      <trkpt lat="47.6304630" lon="9.2428360">
        <ele>-22.2</ele>
        <time>2022-06-09T11:53:22Z</time>
      </trkpt>
      <trkpt lat="47.6305630" lon="9.2425310">
        <ele>-21.8</ele>
        <time>2022-06-09T11:53:26Z</time>
      </trkpt>
      <trkpt lat="47.6306750" lon="9.2422280">
        <ele>-21.4</ele>
        <time>2022-06-09T11:53:30Z</time>
      </trkpt>
      <trkpt lat="47.6307800" lon="9.2419210">
        <ele>-22.8</ele>
        <time>2022-06-09T11:53:34Z</time>
      </trkpt>
      <trkpt lat="47.6308810" lon="9.2415950">
        <ele>-22.4</ele>
        <time>2022-06-09T11:53:38Z</time>
      </trkpt>
      <trkpt lat="47.6309630" lon="9.2412560">
        <ele>-22.0</ele>
        <time>2022-06-09T11:53:42Z</time>
      </trkpt>
      <trkpt lat="47.6310450" lon="9.2409630">
        <ele>-23.0</ele>
        <time>2022-06-09T11:53:46Z</time>
      </trkpt>
      <trkpt lat="47.6311410" lon="9.2406680">
        <ele>-22.2</ele>
        <time>2022-06-09T11:53:50Z</time>
      </trkpt>
      <trkpt lat="47.6312280" lon="9.2403510">
        <ele>-21.2</ele>
        <time>2022-06-09T11:53:54Z</time>
      </trkpt>
      <trkpt lat="47.6313010" lon="9.2400450">
        <ele>-20.6</ele>
        <time>2022-06-09T11:53:58Z</time>
      </trkpt>
      <trkpt lat="47.6313860" lon="9.2397410">
        <ele>-19.6</ele>
        <time>2022-06-09T11:54:02Z</time>
      </trkpt>
      <trkpt lat="47.6314680" lon="9.2394610">
        <ele>-18.8</ele>
        <time>2022-06-09T11:54:06Z</time>
      </trkpt>
      <trkpt lat="47.6315880" lon="9.2392460">
        <ele>-19.8</ele>
        <time>2022-06-09T11:54:10Z</time>
      </trkpt>
      <trkpt lat="47.6317810" lon="9.2392000">
        <ele>-20.6</ele>
        <time>2022-06-09T11:54:14Z</time>
      </trkpt>
      <trkpt lat="47.6320050" lon="9.2391980">
        <ele>-22.8</ele>
        <time>2022-06-09T11:54:18Z</time>
      </trkpt>
      <trkpt lat="47.6322510" lon="9.2391960">
        <ele>-23.8</ele>
        <time>2022-06-09T11:54:22Z</time>
      </trkpt>
      <trkpt lat="47.6324530" lon="9.2391500">
        <ele>-23.8</ele>
        <time>2022-06-09T11:54:26Z</time>
      </trkpt>
      <trkpt lat="47.6324380" lon="9.2388560">
        <ele>-22.8</ele>
        <time>2022-06-09T11:54:30Z</time>
      </trkpt>
      <trkpt lat="47.6324180" lon="9.2385560">
        <ele>-23.6</ele>
        <time>2022-06-09T11:54:34Z</time>
      </trkpt>
      <trkpt lat="47.6324110" lon="9.2382500">
        <ele>-23.2</ele>
        <time>2022-06-09T11:54:38Z</time>
      </trkpt>
      <trkpt lat="47.6324100" lon="9.2379300">
        <ele>-23.2</ele>
        <time>2022-06-09T11:54:42Z</time>
      </trkpt>
      <trkpt lat="47.6324160" lon="9.2375980">
        <ele>-22.8</ele>
        <time>2022-06-09T11:54:46Z</time>
      </trkpt>
      <trkpt lat="47.6324580" lon="9.2372900">
        <ele>-22.2</ele>
        <time>2022-06-09T11:54:50Z</time>
      </trkpt>
      <trkpt lat="47.6325210" lon="9.2369980">
        <ele>-22.4</ele>
        <time>2022-06-09T11:54:54Z</time>
      </trkpt>
      <trkpt lat="47.6325860" lon="9.2367200">
        <ele>-22.6</ele>
        <time>2022-06-09T11:54:58Z</time>
      </trkpt>
      <trkpt lat="47.6326580" lon="9.2364260">
        <ele>-22.8</ele>
        <time>2022-06-09T11:55:02Z</time>
      </trkpt>
      <trkpt lat="47.6327150" lon="9.2361160">
        <ele>-23.0</ele>
        <time>2022-06-09T11:55:06Z</time>
      </trkpt>
      <trkpt lat="47.6327730" lon="9.2357930">
        <ele>-23.2</ele>
        <time>2022-06-09T11:55:10Z</time>
      </trkpt>
      <trkpt lat="47.6328300" lon="9.2354750">
        <ele>-24.0</ele>
        <time>2022-06-09T11:55:14Z</time>
      </trkpt>
      <trkpt lat="47.6328350" lon="9.2352110">
        <ele>-23.8</ele>
        <time>2022-06-09T11:55:18Z</time>
      </trkpt>
      <trkpt lat="47.6327450" lon="9.2350630">
        <ele>-23.4</ele>
        <time>2022-06-09T11:55:22Z</time>
      </trkpt>
      <trkpt lat="47.6325650" lon="9.2350230">
        <ele>-23.0</ele>
        <time>2022-06-09T11:55:26Z</time>
      </trkpt>
      <trkpt lat="47.6323900" lon="9.2349110">
        <ele>-22.2</ele>
        <time>2022-06-09T11:55:30Z</time>
      </trkpt>
      <trkpt lat="47.6322900" lon="9.2347280">
        <ele>-21.6</ele>
        <time>2022-06-09T11:55:34Z</time>
      </trkpt>
      <trkpt lat="47.6322700" lon="9.2345210">
        <ele>-20.0</ele>
        <time>2022-06-09T11:55:38Z</time>
      </trkpt>
      <trkpt lat="47.6322900" lon="9.2343310">
        <ele>-19.4</ele>
        <time>2022-06-09T11:55:42Z</time>
      </trkpt>
      <trkpt lat="47.6323210" lon="9.2341530">
        <ele>-18.4</ele>
        <time>2022-06-09T11:55:46Z</time>
      </trkpt>
      <trkpt lat="47.6323430" lon="9.2339630">
        <ele>-17.6</ele>
        <time>2022-06-09T11:55:50Z</time>
      </trkpt>
      <trkpt lat="47.6323610" lon="9.2337800">
        <ele>-16.8</ele>
        <time>2022-06-09T11:55:54Z</time>
      </trkpt>
      <trkpt lat="47.6323830" lon="9.2336000">
        <ele>-16.0</ele>
        <time>2022-06-09T11:55:58Z</time>
      </trkpt>
      <trkpt lat="47.6323880" lon="9.2334110">
        <ele>-15.6</ele>
        <time>2022-06-09T11:56:02Z</time>
      </trkpt>
      <trkpt lat="47.6323960" lon="9.2332130">
        <ele>-14.2</ele>
        <time>2022-06-09T11:56:06Z</time>
      </trkpt>
      <trkpt lat="47.6324030" lon="9.2330310">
        <ele>-13.2</ele>
        <time>2022-06-09T11:56:10Z</time>
      </trkpt>
      <trkpt lat="47.6324180" lon="9.2328630">
        <ele>-13.6</ele>
        <time>2022-06-09T11:56:14Z</time>
      </trkpt>
      <trkpt lat="47.6325030" lon="9.2326880">
        <ele>-14.2</ele>
        <time>2022-06-09T11:56:18Z</time>
      </trkpt>
      <trkpt lat="47.6326050" lon="9.2324260">
        <ele>-14.6</ele>
        <time>2022-06-09T11:56:22Z</time>
      </trkpt>
      <trkpt lat="47.6326780" lon="9.2321150">
        <ele>-16.0</ele>
        <time>2022-06-09T11:56:26Z</time>
      </trkpt>
      <trkpt lat="47.6327300" lon="9.2317910">
        <ele>-14.8</ele>
        <time>2022-06-09T11:56:30Z</time>
      </trkpt>
      <trkpt lat="47.6328030" lon="9.2314760">
        <ele>-15.4</ele>
        <time>2022-06-09T11:56:34Z</time>
      </trkpt>
      <trkpt lat="47.6328530" lon="9.2311600">
        <ele>-16.0</ele>
        <time>2022-06-09T11:56:38Z</time>
      </trkpt>
      <trkpt lat="47.6328910" lon="9.2308610">
        <ele>-16.0</ele>
        <time>2022-06-09T11:56:42Z</time>
      </trkpt>
      <trkpt lat="47.6329310" lon="9.2305750">
        <ele>-16.0</ele>
        <time>2022-06-09T11:56:46Z</time>
      </trkpt>
      <trkpt lat="47.6329160" lon="9.2302850">
        <ele>-16.2</ele>
        <time>2022-06-09T11:56:50Z</time>
      </trkpt>
      <trkpt lat="47.6329000" lon="9.2299800">
        <ele>-16.8</ele>
        <time>2022-06-09T11:56:54Z</time>
      </trkpt>
      <trkpt lat="47.6328860" lon="9.2296760">
        <ele>-16.6</ele>
        <time>2022-06-09T11:56:58Z</time>
      </trkpt>
      <trkpt lat="47.6329430" lon="9.2293810">
        <ele>-17.2</ele>
        <time>2022-06-09T11:57:02Z</time>
      </trkpt>
      <trkpt lat="47.6330160" lon="9.2290910">
        <ele>-16.8</ele>
        <time>2022-06-09T11:57:06Z</time>
      </trkpt>
      <trkpt lat="47.6330950" lon="9.2288010">
        <ele>-16.6</ele>
        <time>2022-06-09T11:57:10Z</time>
      </trkpt>
      <trkpt lat="47.6331430" lon="9.2285110">
        <ele>-16.4</ele>
        <time>2022-06-09T11:57:14Z</time>
      </trkpt>
      <trkpt lat="47.6331830" lon="9.2282180">
        <ele>-16.6</ele>
        <time>2022-06-09T11:57:18Z</time>
      </trkpt>
      <trkpt lat="47.6332210" lon="9.2279280">
        <ele>-16.2</ele>
        <time>2022-06-09T11:57:22Z</time>
      </trkpt>
      <trkpt lat="47.6332560" lon="9.2276410">
        <ele>-16.6</ele>
        <time>2022-06-09T11:57:26Z</time>
      </trkpt>
      <trkpt lat="47.6332800" lon="9.2273630">
        <ele>-17.2</ele>
        <time>2022-06-09T11:57:30Z</time>
      </trkpt>
      <trkpt lat="47.6333010" lon="9.2270800">
        <ele>-16.4</ele>
        <time>2022-06-09T11:57:34Z</time>
      </trkpt>
      <trkpt lat="47.6333510" lon="9.2268060">
        <ele>-16.2</ele>
        <time>2022-06-09T11:57:38Z</time>
      </trkpt>
      <trkpt lat="47.6334330" lon="9.2265510">
        <ele>-16.8</ele>
        <time>2022-06-09T11:57:42Z</time>
      </trkpt>
      <trkpt lat="47.6335450" lon="9.2263210">
        <ele>-16.6</ele>
        <time>2022-06-09T11:57:46Z</time>
      </trkpt>
      <trkpt lat="47.6335980" lon="9.2260460">
        <ele>-16.2</ele>
        <time>2022-06-09T11:57:50Z</time>
      </trkpt>
      <trkpt lat="47.6336380" lon="9.2257710">
        <ele>-17.0</ele>
        <time>2022-06-09T11:57:54Z</time>
      </trkpt>
      <trkpt lat="47.6336810" lon="9.2254980">
        <ele>-16.8</ele>
        <time>2022-06-09T11:57:58Z</time>
      </trkpt>
      <trkpt lat="47.6337200" lon="9.2252180">
        <ele>-17.2</ele>
        <time>2022-06-09T11:58:02Z</time>
      </trkpt>
      <trkpt lat="47.6337550" lon="9.2249380">
        <ele>-16.8</ele>
        <time>2022-06-09T11:58:06Z</time>
      </trkpt>
      <trkpt lat="47.6337580" lon="9.2246630">
        <ele>-17.6</ele>
        <time>2022-06-09T11:58:10Z</time>
      </trkpt>
      <trkpt lat="47.6337750" lon="9.2244130">
        <ele>-19.0</ele>
        <time>2022-06-09T11:58:14Z</time>
      </trkpt>
      <trkpt lat="47.6338230" lon="9.2240550">
        <ele>-22.2</ele>
        <time>2022-06-09T11:58:18Z</time>
      </trkpt>
      <trkpt lat="47.6339850" lon="9.2237000">
        <ele>-22.6</ele>
        <time>2022-06-09T11:58:22Z</time>
      </trkpt>
      <trkpt lat="47.6342700" lon="9.2237000">
        <ele>-21.8</ele>
        <time>2022-06-09T11:58:26Z</time>
      </trkpt>
      <trkpt lat="47.6344760" lon="9.2235210">
        <ele>-21.2</ele>
        <time>2022-06-09T11:58:30Z</time>
      </trkpt>
      <trkpt lat="47.6345810" lon="9.2232710">
        <ele>-20.6</ele>
        <time>2022-06-09T11:58:34Z</time>
      </trkpt>
      <trkpt lat="47.6346530" lon="9.2230400">
        <ele>-20.0</ele>
        <time>2022-06-09T11:58:38Z</time>
      </trkpt>
      <trkpt lat="47.6347300" lon="9.2228480">
        <ele>-20.0</ele>
        <time>2022-06-09T11:58:42Z</time>
      </trkpt>
      <trkpt lat="47.6348250" lon="9.2226410">
        <ele>-19.6</ele>
        <time>2022-06-09T11:58:46Z</time>
      </trkpt>
      <trkpt lat="47.6349260" lon="9.2224210">
        <ele>-19.4</ele>
        <time>2022-06-09T11:58:50Z</time>
      </trkpt>
      <trkpt lat="47.6350260" lon="9.2222000">
        <ele>-19.8</ele>
        <time>2022-06-09T11:58:54Z</time>
      </trkpt>
      <trkpt lat="47.6351080" lon="9.2219710">
        <ele>-19.2</ele>
        <time>2022-06-09T11:58:58Z</time>
      </trkpt>
      <trkpt lat="47.6351380" lon="9.2217180">
        <ele>-18.6</ele>
        <time>2022-06-09T11:59:02Z</time>
      </trkpt>
      <trkpt lat="47.6352060" lon="9.2214960">
        <ele>-18.0</ele>
        <time>2022-06-09T11:59:06Z</time>
      </trkpt>
      <trkpt lat="47.6353150" lon="9.2213050">
        <ele>-17.8</ele>
        <time>2022-06-09T11:59:10Z</time>
      </trkpt>
      <trkpt lat="47.6354360" lon="9.2211330">
        <ele>-17.8</ele>
        <time>2022-06-09T11:59:14Z</time>
      </trkpt>
      <trkpt lat="47.6355550" lon="9.2209700">
        <ele>-17.8</ele>
        <time>2022-06-09T11:59:18Z</time>
      </trkpt>
      <trkpt lat="47.6356710" lon="9.2208180">
        <ele>-18.2</ele>
        <time>2022-06-09T11:59:22Z</time>
      </trkpt>
      <trkpt lat="47.6358000" lon="9.2206610">
        <ele>-17.8</ele>
        <time>2022-06-09T11:59:26Z</time>
      </trkpt>
      <trkpt lat="47.6359260" lon="9.2205000">
        <ele>-17.4</ele>
        <time>2022-06-09T11:59:30Z</time>
      </trkpt>
      <trkpt lat="47.6360510" lon="9.2203450">
        <ele>-17.8</ele>
        <time>2022-06-09T11:59:34Z</time>
      </trkpt>
      <trkpt lat="47.6361780" lon="9.2201950">
        <ele>-17.4</ele>
        <time>2022-06-09T11:59:38Z</time>
      </trkpt>
      <trkpt lat="47.6362960" lon="9.2200400">
        <ele>-17.0</ele>
        <time>2022-06-09T11:59:42Z</time>
      </trkpt>
      <trkpt lat="47.6364230" lon="9.2198930">
        <ele>-16.4</ele>
        <time>2022-06-09T11:59:46Z</time>
      </trkpt>
      <trkpt lat="47.6365500" lon="9.2197410">
        <ele>-16.2</ele>
        <time>2022-06-09T11:59:50Z</time>
      </trkpt>
      <trkpt lat="47.6366780" lon="9.2195910">
        <ele>-16.2</ele>
        <time>2022-06-09T11:59:54Z</time>
      </trkpt>
      <trkpt lat="47.6368100" lon="9.2194450">
        <ele>-16.0</ele>
        <time>2022-06-09T11:59:58Z</time>
      </trkpt>
      <trkpt lat="47.6369400" lon="9.2192910">
        <ele>-16.4</ele>
        <time>2022-06-09T12:00:02Z</time>
      </trkpt>
      <trkpt lat="47.6370660" lon="9.2191300">
        <ele>-15.8</ele>
        <time>2022-06-09T12:00:06Z</time>
      </trkpt>
      <trkpt lat="47.6372010" lon="9.2189710">
        <ele>-15.8</ele>
        <time>2022-06-09T12:00:10Z</time>
      </trkpt>
      <trkpt lat="47.6373400" lon="9.2188030">
        <ele>-16.4</ele>
        <time>2022-06-09T12:00:14Z</time>
      </trkpt>
      <trkpt lat="47.6374850" lon="9.2186210">
        <ele>-16.6</ele>
        <time>2022-06-09T12:00:18Z</time>
      </trkpt>
      <trkpt lat="47.6376480" lon="9.2184080">
        <ele>-17.2</ele>
        <time>2022-06-09T12:00:22Z</time>
      </trkpt>
      <trkpt lat="47.6378280" lon="9.2181660">
        <ele>-17.2</ele>
        <time>2022-06-09T12:00:26Z</time>
      </trkpt>
      <trkpt lat="47.6379950" lon="9.2179550">
        <ele>-16.4</ele>
        <time>2022-06-09T12:00:30Z</time>
      </trkpt>
      <trkpt lat="47.6381360" lon="9.2177760">
        <ele>-15.6</ele>
        <time>2022-06-09T12:00:34Z</time>
      </trkpt>
      <trkpt lat="47.6382730" lon="9.2176000">
        <ele>-15.2</ele>
        <time>2022-06-09T12:00:38Z</time>
      </trkpt>
      <trkpt lat="47.6384110" lon="9.2174350">
        <ele>-14.8</ele>
        <time>2022-06-09T12:00:42Z</time>
      </trkpt>
      <trkpt lat="47.6385400" lon="9.2172580">
        <ele>-14.4</ele>
        <time>2022-06-09T12:00:46Z</time>
      </trkpt>
      <trkpt lat="47.6386650" lon="9.2170830">
        <ele>-14.0</ele>
        <time>2022-06-09T12:00:50Z</time>
      </trkpt>
      <trkpt lat="47.6387850" lon="9.2169080">
        <ele>-14.2</ele>
        <time>2022-06-09T12:00:54Z</time>
      </trkpt>
      <trkpt lat="47.6389110" lon="9.2167200">
        <ele>-14.4</ele>
        <time>2022-06-09T12:00:58Z</time>
      </trkpt>
      <trkpt lat="47.6390350" lon="9.2165100">
        <ele>-14.6</ele>
        <time>2022-06-09T12:01:02Z</time>
      </trkpt>
      <trkpt lat="47.6391660" lon="9.2162930">
        <ele>-15.0</ele>
        <time>2022-06-09T12:01:06Z</time>
      </trkpt>
      <trkpt lat="47.6393000" lon="9.2160730">
        <ele>-15.4</ele>
        <time>2022-06-09T12:01:10Z</time>
      </trkpt>
      <trkpt lat="47.6394330" lon="9.2158280">
        <ele>-16.6</ele>
        <time>2022-06-09T12:01:14Z</time>
      </trkpt>
      <trkpt lat="47.6395780" lon="9.2155700">
        <ele>-16.8</ele>
        <time>2022-06-09T12:01:18Z</time>
      </trkpt>
      <trkpt lat="47.6397250" lon="9.2153000">
        <ele>-17.2</ele>
        <time>2022-06-09T12:01:22Z</time>
      </trkpt>
      <trkpt lat="47.6398700" lon="9.2150360">
        <ele>-17.0</ele>
        <time>2022-06-09T12:01:26Z</time>
      </trkpt>
      <trkpt lat="47.6400080" lon="9.2147750">
        <ele>-17.0</ele>
        <time>2022-06-09T12:01:30Z</time>
      </trkpt>
      <trkpt lat="47.6401460" lon="9.2145160">
        <ele>-17.0</ele>
        <time>2022-06-09T12:01:34Z</time>
      </trkpt>
      <trkpt lat="47.6402760" lon="9.2142600">
        <ele>-16.6</ele>
        <time>2022-06-09T12:01:38Z</time>
      </trkpt>
      <trkpt lat="47.6404030" lon="9.2140110">
        <ele>-17.0</ele>
        <time>2022-06-09T12:01:42Z</time>
      </trkpt>
      <trkpt lat="47.6405260" lon="9.2137750">
        <ele>-16.8</ele>
        <time>2022-06-09T12:01:46Z</time>
      </trkpt>
      <trkpt lat="47.6406480" lon="9.2135350">
        <ele>-16.6</ele>
        <time>2022-06-09T12:01:50Z</time>
      </trkpt>
      <trkpt lat="47.6407650" lon="9.2132860">
        <ele>-16.6</ele>
        <time>2022-06-09T12:01:54Z</time>
      </trkpt>
      <trkpt lat="47.6408750" lon="9.2130430">
        <ele>-16.6</ele>
        <time>2022-06-09T12:01:58Z</time>
      </trkpt>
      <trkpt lat="47.6409830" lon="9.2128110">
        <ele>-16.2</ele>
        <time>2022-06-09T12:02:02Z</time>
      </trkpt>
      <trkpt lat="47.6410800" lon="9.2125930">
        <ele>-16.6</ele>
        <time>2022-06-09T12:02:06Z</time>
      </trkpt>
      <trkpt lat="47.6411760" lon="9.2123850">
        <ele>-16.6</ele>
        <time>2022-06-09T12:02:10Z</time>
      </trkpt>
      <trkpt lat="47.6412680" lon="9.2121730">
        <ele>-16.6</ele>
        <time>2022-06-09T12:02:14Z</time>
      </trkpt>
      <trkpt lat="47.6413580" lon="9.2119600">
        <ele>-17.6</ele>
        <time>2022-06-09T12:02:18Z</time>
      </trkpt>
      <trkpt lat="47.6414550" lon="9.2117410">
        <ele>-18.0</ele>
        <time>2022-06-09T12:02:22Z</time>
      </trkpt>
      <trkpt lat="47.6415600" lon="9.2114900">
        <ele>-19.0</ele>
        <time>2022-06-09T12:02:26Z</time>
      </trkpt>
      <trkpt lat="47.6416810" lon="9.2112130">
        <ele>-20.0</ele>
        <time>2022-06-09T12:02:30Z</time>
      </trkpt>
      <trkpt lat="47.6417930" lon="9.2109230">
        <ele>-20.2</ele>
        <time>2022-06-09T12:02:34Z</time>
      </trkpt>
      <trkpt lat="47.6419180" lon="9.2107250">
        <ele>-21.2</ele>
        <time>2022-06-09T12:02:38Z</time>
      </trkpt>
      <trkpt lat="47.6421300" lon="9.2107850">
        <ele>-22.4</ele>
        <time>2022-06-09T12:02:42Z</time>
      </trkpt>
      <trkpt lat="47.6423500" lon="9.2109860">
        <ele>-22.4</ele>
        <time>2022-06-09T12:02:46Z</time>
      </trkpt>
      <trkpt lat="47.6425560" lon="9.2111150">
        <ele>-22.4</ele>
        <time>2022-06-09T12:02:50Z</time>
      </trkpt>
      <trkpt lat="47.6427550" lon="9.2110230">
        <ele>-21.4</ele>
        <time>2022-06-09T12:02:54Z</time>
      </trkpt>
      <trkpt lat="47.6429130" lon="9.2108800">
        <ele>-21.4</ele>
        <time>2022-06-09T12:02:58Z</time>
      </trkpt>
      <trkpt lat="47.6430630" lon="9.2107830">
        <ele>-22.0</ele>
        <time>2022-06-09T12:03:02Z</time>
      </trkpt>
      <trkpt lat="47.6431980" lon="9.2105850">
        <ele>-22.2</ele>
        <time>2022-06-09T12:03:06Z</time>
      </trkpt>
      <trkpt lat="47.6433580" lon="9.2103880">
        <ele>-22.4</ele>
        <time>2022-06-09T12:03:10Z</time>
      </trkpt>
      <trkpt lat="47.6434800" lon="9.2101430">
        <ele>-22.6</ele>
        <time>2022-06-09T12:03:14Z</time>
      </trkpt>
      <trkpt lat="47.6435510" lon="9.2098750">
        <ele>-22.6</ele>
        <time>2022-06-09T12:03:18Z</time>
      </trkpt>
      <trkpt lat="47.6434660" lon="9.2096260">
        <ele>-22.6</ele>
        <time>2022-06-09T12:03:22Z</time>
      </trkpt>
      <trkpt lat="47.6433260" lon="9.2094680">
        <ele>-22.2</ele>
        <time>2022-06-09T12:03:26Z</time>
      </trkpt>
      <trkpt lat="47.6431710" lon="9.2093180">
        <ele>-20.8</ele>
        <time>2022-06-09T12:03:30Z</time>
      </trkpt>
      <trkpt lat="47.6430330" lon="9.2091650">
        <ele>-19.8</ele>
        <time>2022-06-09T12:03:34Z</time>
      </trkpt>
      <trkpt lat="47.6429330" lon="9.2090700">
        <ele>-19.2</ele>
        <time>2022-06-09T12:03:38Z</time>
      </trkpt>
      <trkpt lat="47.6428230" lon="9.2089750">
        <ele>-18.4</ele>
        <time>2022-06-09T12:03:42Z</time>
      </trkpt>
      <trkpt lat="47.6427450" lon="9.2088580">
        <ele>-17.6</ele>
        <time>2022-06-09T12:03:46Z</time>
      </trkpt>
      <trkpt lat="47.6426860" lon="9.2087280">
        <ele>-16.8</ele>
        <time>2022-06-09T12:03:50Z</time>
      </trkpt>
      <trkpt lat="47.6426450" lon="9.2086160">
        <ele>-16.6</ele>
        <time>2022-06-09T12:03:54Z</time>
      </trkpt>
      <trkpt lat="47.6426810" lon="9.2084810">
        <ele>-17.0</ele>
        <time>2022-06-09T12:03:58Z</time>
      </trkpt>
      <trkpt lat="47.6427550" lon="9.2082860">
        <ele>-16.6</ele>
        <time>2022-06-09T12:04:02Z</time>
      </trkpt>
      <trkpt lat="47.6428150" lon="9.2080850">
        <ele>-16.6</ele>
        <time>2022-06-09T12:04:06Z</time>
      </trkpt>
      <trkpt lat="47.6428730" lon="9.2078760">
        <ele>-17.2</ele>
        <time>2022-06-09T12:04:10Z</time>
      </trkpt>
      <trkpt lat="47.6429300" lon="9.2076700">
        <ele>-17.2</ele>
        <time>2022-06-09T12:04:14Z</time>
      </trkpt>
      <trkpt lat="47.6429910" lon="9.2074650">
        <ele>-16.4</ele>
        <time>2022-06-09T12:04:18Z</time>
      </trkpt>
      <trkpt lat="47.6430160" lon="9.2072560">
        <ele>-16.2</ele>
        <time>2022-06-09T12:04:22Z</time>
      </trkpt>
      <trkpt lat="47.6430160" lon="9.2070410">
        <ele>-16.8</ele>
        <time>2022-06-09T12:04:26Z</time>
      </trkpt>
      <trkpt lat="47.6430710" lon="9.2067980">
        <ele>-17.2</ele>
        <time>2022-06-09T12:04:30Z</time>
      </trkpt>
      <trkpt lat="47.6431380" lon="9.2065230">
        <ele>-17.2</ele>
        <time>2022-06-09T12:04:34Z</time>
      </trkpt>
      <trkpt lat="47.6432030" lon="9.2062380">
        <ele>-16.8</ele>
        <time>2022-06-09T12:04:38Z</time>
      </trkpt>
      <trkpt lat="47.6432660" lon="9.2059580">
        <ele>-16.2</ele>
        <time>2022-06-09T12:04:42Z</time>
      </trkpt>
      <trkpt lat="47.6433250" lon="9.2056900">
        <ele>-15.8</ele>
        <time>2022-06-09T12:04:46Z</time>
      </trkpt>
      <trkpt lat="47.6433750" lon="9.2054300">
        <ele>-15.6</ele>
        <time>2022-06-09T12:04:50Z</time>
      </trkpt>
      <trkpt lat="47.6434180" lon="9.2051600">
        <ele>-15.8</ele>
        <time>2022-06-09T12:04:54Z</time>
      </trkpt>
      <trkpt lat="47.6434550" lon="9.2048830">
        <ele>-16.0</ele>
        <time>2022-06-09T12:04:58Z</time>
      </trkpt>
      <trkpt lat="47.6434910" lon="9.2046030">
        <ele>-16.0</ele>
        <time>2022-06-09T12:05:02Z</time>
      </trkpt>
      <trkpt lat="47.6435200" lon="9.2043160">
        <ele>-16.4</ele>
        <time>2022-06-09T12:05:06Z</time>
      </trkpt>
      <trkpt lat="47.6435500" lon="9.2040260">
        <ele>-16.6</ele>
        <time>2022-06-09T12:05:10Z</time>
      </trkpt>
      <trkpt lat="47.6435710" lon="9.2037250">
        <ele>-16.6</ele>
        <time>2022-06-09T12:05:14Z</time>
      </trkpt>
      <trkpt lat="47.6435950" lon="9.2034130">
        <ele>-17.2</ele>
        <time>2022-06-09T12:05:18Z</time>
      </trkpt>
      <trkpt lat="47.6436050" lon="9.2031030">
        <ele>-17.2</ele>
        <time>2022-06-09T12:05:22Z</time>
      </trkpt>
      <trkpt lat="47.6436850" lon="9.2028430">
        <ele>-17.6</ele>
        <time>2022-06-09T12:05:26Z</time>
      </trkpt>
      <trkpt lat="47.6438900" lon="9.2027750">
        <ele>-18.2</ele>
        <time>2022-06-09T12:05:30Z</time>
      </trkpt>
      <trkpt lat="47.6440200" lon="9.2025260">
        <ele>-18.4</ele>
        <time>2022-06-09T12:05:34Z</time>
      </trkpt>
      <trkpt lat="47.6440910" lon="9.2022330">
        <ele>-17.6</ele>
        <time>2022-06-09T12:05:38Z</time>
      </trkpt>
      <trkpt lat="47.6441560" lon="9.2019480">
        <ele>-17.4</ele>
        <time>2022-06-09T12:05:42Z</time>
      </trkpt>
      <trkpt lat="47.6442210" lon="9.2016650">
        <ele>-17.2</ele>
        <time>2022-06-09T12:05:46Z</time>
      </trkpt>
      <trkpt lat="47.6442880" lon="9.2013850">
        <ele>-17.2</ele>
        <time>2022-06-09T12:05:50Z</time>
      </trkpt>
      <trkpt lat="47.6443460" lon="9.2011110">
        <ele>-17.0</ele>
        <time>2022-06-09T12:05:54Z</time>
      </trkpt>
      <trkpt lat="47.6443260" lon="9.2008360">
        <ele>-17.2</ele>
        <time>2022-06-09T12:05:58Z</time>
      </trkpt>
      <trkpt lat="47.6443600" lon="9.2005660">
        <ele>-17.2</ele>
        <time>2022-06-09T12:06:02Z</time>
      </trkpt>
      <trkpt lat="47.6444180" lon="9.2002910">
        <ele>-17.6</ele>
        <time>2022-06-09T12:06:06Z</time>
      </trkpt>
      <trkpt lat="47.6444780" lon="9.2000150">
        <ele>-17.4</ele>
        <time>2022-06-09T12:06:10Z</time>
      </trkpt>
      <trkpt lat="47.6445530" lon="9.1997500">
        <ele>-18.6</ele>
        <time>2022-06-09T12:06:14Z</time>
      </trkpt>
      <trkpt lat="47.6446100" lon="9.1994510">
        <ele>-19.0</ele>
        <time>2022-06-09T12:06:18Z</time>
      </trkpt>
      <trkpt lat="47.6446610" lon="9.1991260">
        <ele>-20.0</ele>
        <time>2022-06-09T12:06:22Z</time>
      </trkpt>
      <trkpt lat="47.6447160" lon="9.1987950">
        <ele>-19.8</ele>
        <time>2022-06-09T12:06:26Z</time>
      </trkpt>
      <trkpt lat="47.6448110" lon="9.1985180">
        <ele>-19.6</ele>
        <time>2022-06-09T12:06:30Z</time>
      </trkpt>
      <trkpt lat="47.6449050" lon="9.1982460">
        <ele>-19.4</ele>
        <time>2022-06-09T12:06:34Z</time>
      </trkpt>
      <trkpt lat="47.6449630" lon="9.1979530">
        <ele>-20.0</ele>
        <time>2022-06-09T12:06:38Z</time>
      </trkpt>
      <trkpt lat="47.6450060" lon="9.1976730">
        <ele>-20.0</ele>
        <time>2022-06-09T12:06:42Z</time>
      </trkpt>
      <trkpt lat="47.6450450" lon="9.1973700">
        <ele>-21.0</ele>
        <time>2022-06-09T12:06:46Z</time>
      </trkpt>
      <trkpt lat="47.6451010" lon="9.1970510">
        <ele>-21.4</ele>
        <time>2022-06-09T12:06:50Z</time>
      </trkpt>
      <trkpt lat="47.6451650" lon="9.1967210">
        <ele>-21.4</ele>
        <time>2022-06-09T12:06:54Z</time>
      </trkpt>
      <trkpt lat="47.6452230" lon="9.1964010">
        <ele>-22.0</ele>
        <time>2022-06-09T12:06:58Z</time>
      </trkpt>
      <trkpt lat="47.6452780" lon="9.1961160">
        <ele>-21.6</ele>
        <time>2022-06-09T12:07:02Z</time>
      </trkpt>
      <trkpt lat="47.6453400" lon="9.1958600">
        <ele>-22.0</ele>
        <time>2022-06-09T12:07:06Z</time>
      </trkpt>
      <trkpt lat="47.6455080" lon="9.1958730">
        <ele>-22.6</ele>
        <time>2022-06-09T12:07:10Z</time>
      </trkpt>
      <trkpt lat="47.6457010" lon="9.1959750">
        <ele>-22.4</ele>
        <time>2022-06-09T12:07:14Z</time>
      </trkpt>
      <trkpt lat="47.6459000" lon="9.1960350">
        <ele>-22.0</ele>
        <time>2022-06-09T12:07:18Z</time>
      </trkpt>
      <trkpt lat="47.6460280" lon="9.1958400">
        <ele>-22.4</ele>
        <time>2022-06-09T12:07:22Z</time>
      </trkpt>
      <trkpt lat="47.6460800" lon="9.1955580">
        <ele>-22.8</ele>
        <time>2022-06-09T12:07:26Z</time>
      </trkpt>
      <trkpt lat="47.6461250" lon="9.1952530">
        <ele>-22.6</ele>
        <time>2022-06-09T12:07:30Z</time>
      </trkpt>
      <trkpt lat="47.6461700" lon="9.1949510">
        <ele>-23.0</ele>
        <time>2022-06-09T12:07:34Z</time>
      </trkpt>
      <trkpt lat="47.6462030" lon="9.1946410">
        <ele>-22.8</ele>
        <time>2022-06-09T12:07:38Z</time>
      </trkpt>
      <trkpt lat="47.6462180" lon="9.1943360">
        <ele>-23.0</ele>
        <time>2022-06-09T12:07:42Z</time>
      </trkpt>
      <trkpt lat="47.6462250" lon="9.1940160">
        <ele>-23.6</ele>
        <time>2022-06-09T12:07:46Z</time>
      </trkpt>
      <trkpt lat="47.6462330" lon="9.1936960">
        <ele>-22.6</ele>
        <time>2022-06-09T12:07:50Z</time>
      </trkpt>
      <trkpt lat="47.6462360" lon="9.1933750">
        <ele>-22.6</ele>
        <time>2022-06-09T12:07:54Z</time>
      </trkpt>
      <trkpt lat="47.6462480" lon="9.1930580">
        <ele>-22.8</ele>
        <time>2022-06-09T12:07:58Z</time>
      </trkpt>
      <trkpt lat="47.6462510" lon="9.1927600">
        <ele>-23.2</ele>
        <time>2022-06-09T12:08:02Z</time>
      </trkpt>
      <trkpt lat="47.6462560" lon="9.1924550">
        <ele>-22.2</ele>
        <time>2022-06-09T12:08:06Z</time>
      </trkpt>
      <trkpt lat="47.6462600" lon="9.1921580">
        <ele>-22.6</ele>
        <time>2022-06-09T12:08:10Z</time>
      </trkpt>
      <trkpt lat="47.6462700" lon="9.1918760">
        <ele>-22.6</ele>
        <time>2022-06-09T12:08:14Z</time>
      </trkpt>
      <trkpt lat="47.6462950" lon="9.1915960">
        <ele>-22.2</ele>
        <time>2022-06-09T12:08:18Z</time>
      </trkpt>
      <trkpt lat="47.6463360" lon="9.1913250">
        <ele>-22.6</ele>
        <time>2022-06-09T12:08:22Z</time>
      </trkpt>
      <trkpt lat="47.6463910" lon="9.1910600">
        <ele>-22.2</ele>
        <time>2022-06-09T12:08:26Z</time>
      </trkpt>
      <trkpt lat="47.6464830" lon="9.1908100">
        <ele>-21.8</ele>
        <time>2022-06-09T12:08:30Z</time>
      </trkpt>
      <trkpt lat="47.6466060" lon="9.1905900">
        <ele>-22.0</ele>
        <time>2022-06-09T12:08:34Z</time>
      </trkpt>
      <trkpt lat="47.6467410" lon="9.1903780">
        <ele>-22.0</ele>
        <time>2022-06-09T12:08:38Z</time>
      </trkpt>
      <trkpt lat="47.6468710" lon="9.1901610">
        <ele>-21.6</ele>
        <time>2022-06-09T12:08:42Z</time>
      </trkpt>
      <trkpt lat="47.6470030" lon="9.1899550">
        <ele>-21.6</ele>
        <time>2022-06-09T12:08:46Z</time>
      </trkpt>
      <trkpt lat="47.6471280" lon="9.1897580">
        <ele>-21.6</ele>
        <time>2022-06-09T12:08:50Z</time>
      </trkpt>
      <trkpt lat="47.6472410" lon="9.1895710">
        <ele>-21.8</ele>
        <time>2022-06-09T12:08:54Z</time>
      </trkpt>
      <trkpt lat="47.6472810" lon="9.1893460">
        <ele>-20.6</ele>
        <time>2022-06-09T12:08:58Z</time>
      </trkpt>
      <trkpt lat="47.6472630" lon="9.1891330">
        <ele>-20.8</ele>
        <time>2022-06-09T12:09:02Z</time>
      </trkpt>
      <trkpt lat="47.6472180" lon="9.1888910">
        <ele>-20.2</ele>
        <time>2022-06-09T12:09:06Z</time>
      </trkpt>
      <trkpt lat="47.6471880" lon="9.1886100">
        <ele>-19.6</ele>
        <time>2022-06-09T12:09:10Z</time>
      </trkpt>
      <trkpt lat="47.6471960" lon="9.1883350">
        <ele>-19.2</ele>
        <time>2022-06-09T12:09:14Z</time>
      </trkpt>
      <trkpt lat="47.6472580" lon="9.1880630">
        <ele>-18.6</ele>
        <time>2022-06-09T12:09:18Z</time>
      </trkpt>
      <trkpt lat="47.6473310" lon="9.1877930">
        <ele>-18.8</ele>
        <time>2022-06-09T12:09:22Z</time>
      </trkpt>
      <trkpt lat="47.6474110" lon="9.1875260">
        <ele>-17.8</ele>
        <time>2022-06-09T12:09:26Z</time>
      </trkpt>
      <trkpt lat="47.6475430" lon="9.1873380">
        <ele>-16.2</ele>
        <time>2022-06-09T12:09:30Z</time>
      </trkpt>
      <trkpt lat="47.6476700" lon="9.1872110">
        <ele>-15.0</ele>
        <time>2022-06-09T12:09:34Z</time>
      </trkpt>
      <trkpt lat="47.6477500" lon="9.1870580">
        <ele>-14.8</ele>
        <time>2022-06-09T12:09:38Z</time>
      </trkpt>
      <trkpt lat="47.6477110" lon="9.1868350">
        <ele>-15.2</ele>
        <time>2022-06-09T12:09:42Z</time>
      </trkpt>
      <trkpt lat="47.6476510" lon="9.1865730">
        <ele>-16.0</ele>
        <time>2022-06-09T12:09:46Z</time>
      </trkpt>
      <trkpt lat="47.6475910" lon="9.1862810">
        <ele>-16.4</ele>
        <time>2022-06-09T12:09:50Z</time>
      </trkpt>
      <trkpt lat="47.6475280" lon="9.1859800">
        <ele>-16.6</ele>
        <time>2022-06-09T12:09:54Z</time>
      </trkpt>
      <trkpt lat="47.6474700" lon="9.1856560">
        <ele>-16.6</ele>
        <time>2022-06-09T12:09:58Z</time>
      </trkpt>
      <trkpt lat="47.6475250" lon="9.1853580">
        <ele>-16.4</ele>
        <time>2022-06-09T12:10:02Z</time>
      </trkpt>
      <trkpt lat="47.6476500" lon="9.1851000">
        <ele>-17.0</ele>
        <time>2022-06-09T12:10:06Z</time>
      </trkpt>
      <trkpt lat="47.6477730" lon="9.1848430">
        <ele>-16.6</ele>
        <time>2022-06-09T12:10:10Z</time>
      </trkpt>
      <trkpt lat="47.6479060" lon="9.1845810">
        <ele>-17.2</ele>
        <time>2022-06-09T12:10:14Z</time>
      </trkpt>
      <trkpt lat="47.6480660" lon="9.1843360">
        <ele>-17.4</ele>
        <time>2022-06-09T12:10:18Z</time>
      </trkpt>
      <trkpt lat="47.6482280" lon="9.1841160">
        <ele>-18.0</ele>
        <time>2022-06-09T12:10:22Z</time>
      </trkpt>
      <trkpt lat="47.6483900" lon="9.1838850">
        <ele>-18.2</ele>
        <time>2022-06-09T12:10:26Z</time>
      </trkpt>
      <trkpt lat="47.6485660" lon="9.1836810">
        <ele>-18.0</ele>
        <time>2022-06-09T12:10:30Z</time>
      </trkpt>
      <trkpt lat="47.6487260" lon="9.1834650">
        <ele>-18.6</ele>
        <time>2022-06-09T12:10:34Z</time>
      </trkpt>
      <trkpt lat="47.6489050" lon="9.1832400">
        <ele>-19.0</ele>
        <time>2022-06-09T12:10:38Z</time>
      </trkpt>
      <trkpt lat="47.6490730" lon="9.1829960">
        <ele>-19.6</ele>
        <time>2022-06-09T12:10:42Z</time>
      </trkpt>
      <trkpt lat="47.6492380" lon="9.1827450">
        <ele>-20.6</ele>
        <time>2022-06-09T12:10:46Z</time>
      </trkpt>
      <trkpt lat="47.6494260" lon="9.1824950">
        <ele>-20.6</ele>
        <time>2022-06-09T12:10:50Z</time>
      </trkpt>
      <trkpt lat="47.6496200" lon="9.1822510">
        <ele>-20.0</ele>
        <time>2022-06-09T12:10:54Z</time>
      </trkpt>
      <trkpt lat="47.6497960" lon="9.1820300">
        <ele>-20.4</ele>
        <time>2022-06-09T12:10:58Z</time>
      </trkpt>
      <trkpt lat="47.6498900" lon="9.1817950">
        <ele>-20.6</ele>
        <time>2022-06-09T12:11:02Z</time>
      </trkpt>
      <trkpt lat="47.6500180" lon="9.1816160">
        <ele>-20.8</ele>
        <time>2022-06-09T12:11:06Z</time>
      </trkpt>
      <trkpt lat="47.6501950" lon="9.1813530">
        <ele>-20.4</ele>
        <time>2022-06-09T12:11:10Z</time>
      </trkpt>
      <trkpt lat="47.6504150" lon="9.1811930">
        <ele>-21.6</ele>
        <time>2022-06-09T12:11:14Z</time>
      </trkpt>
      <trkpt lat="47.6506260" lon="9.1811210">
        <ele>-22.2</ele>
        <time>2022-06-09T12:11:18Z</time>
      </trkpt>
      <trkpt lat="47.6508050" lon="9.1810760">
        <ele>-22.4</ele>
        <time>2022-06-09T12:11:22Z</time>
      </trkpt>
      <trkpt lat="47.6510060" lon="9.1810210">
        <ele>-21.8</ele>
        <time>2022-06-09T12:11:26Z</time>
      </trkpt>
      <trkpt lat="47.6511700" lon="9.1808310">
        <ele>-22.2</ele>
        <time>2022-06-09T12:11:30Z</time>
      </trkpt>
      <trkpt lat="47.6513500" lon="9.1806310">
        <ele>-21.8</ele>
        <time>2022-06-09T12:11:34Z</time>
      </trkpt>
      <trkpt lat="47.6515280" lon="9.1804400">
        <ele>-22.2</ele>
        <time>2022-06-09T12:11:38Z</time>
      </trkpt>
      <trkpt lat="47.6517060" lon="9.1802710">
        <ele>-21.8</ele>
        <time>2022-06-09T12:11:42Z</time>
      </trkpt>
      <trkpt lat="47.6518850" lon="9.1801030">
        <ele>-21.8</ele>
        <time>2022-06-09T12:11:46Z</time>
      </trkpt>
      <trkpt lat="47.6520600" lon="9.1799050">
        <ele>-22.0</ele>
        <time>2022-06-09T12:11:50Z</time>
      </trkpt>
      <trkpt lat="47.6522360" lon="9.1797230">
        <ele>-21.8</ele>
        <time>2022-06-09T12:11:54Z</time>
      </trkpt>
      <trkpt lat="47.6524080" lon="9.1795260">
        <ele>-22.0</ele>
        <time>2022-06-09T12:11:58Z</time>
      </trkpt>
      <trkpt lat="47.6525730" lon="9.1793310">
        <ele>-22.2</ele>
        <time>2022-06-09T12:12:02Z</time>
      </trkpt>
      <trkpt lat="47.6527410" lon="9.1791380">
        <ele>-22.4</ele>
        <time>2022-06-09T12:12:06Z</time>
      </trkpt>
      <trkpt lat="47.6529180" lon="9.1789650">
        <ele>-22.6</ele>
        <time>2022-06-09T12:12:10Z</time>
      </trkpt>
      <trkpt lat="47.6530910" lon="9.1787950">
        <ele>-22.6</ele>
        <time>2022-06-09T12:12:14Z</time>
      </trkpt>
      <trkpt lat="47.6532610" lon="9.1786230">
        <ele>-22.6</ele>
        <time>2022-06-09T12:12:18Z</time>
      </trkpt>
      <trkpt lat="47.6534260" lon="9.1784560">
        <ele>-22.4</ele>
        <time>2022-06-09T12:12:22Z</time>
      </trkpt>
      <trkpt lat="47.6535900" lon="9.1782810">
        <ele>-22.2</ele>
        <time>2022-06-09T12:12:26Z</time>
      </trkpt>
      <trkpt lat="47.6537610" lon="9.1780910">
        <ele>-22.4</ele>
        <time>2022-06-09T12:12:30Z</time>
      </trkpt>
      <trkpt lat="47.6539160" lon="9.1779000">
        <ele>-22.6</ele>
        <time>2022-06-09T12:12:34Z</time>
      </trkpt>
      <trkpt lat="47.6540810" lon="9.1777330">
        <ele>-22.6</ele>
        <time>2022-06-09T12:12:38Z</time>
      </trkpt>
      <trkpt lat="47.6542510" lon="9.1775800">
        <ele>-22.6</ele>
        <time>2022-06-09T12:12:42Z</time>
      </trkpt>
      <trkpt lat="47.6544110" lon="9.1774510">
        <ele>-23.0</ele>
        <time>2022-06-09T12:12:46Z</time>
      </trkpt>
      <trkpt lat="47.6545330" lon="9.1774160">
        <ele>-22.8</ele>
        <time>2022-06-09T12:12:50Z</time>
      </trkpt>
      <trkpt lat="47.6545710" lon="9.1772710">
        <ele>-22.6</ele>
        <time>2022-06-09T12:12:54Z</time>
      </trkpt>
      <trkpt lat="47.6545050" lon="9.1771050">
        <ele>-22.8</ele>
        <time>2022-06-09T12:12:58Z</time>
      </trkpt>
      <trkpt lat="47.6544350" lon="9.1769530">
        <ele>-22.2</ele>
        <time>2022-06-09T12:13:02Z</time>
      </trkpt>
      <trkpt lat="47.6543660" lon="9.1768130">
        <ele>-22.0</ele>
        <time>2022-06-09T12:13:06Z</time>
      </trkpt>
      <trkpt lat="47.6542850" lon="9.1766510">
        <ele>-22.0</ele>
        <time>2022-06-09T12:13:10Z</time>
      </trkpt>
      <trkpt lat="47.6541980" lon="9.1764800">
        <ele>-21.8</ele>
        <time>2022-06-09T12:13:14Z</time>
      </trkpt>
      <trkpt lat="47.6541130" lon="9.1762800">
        <ele>-21.8</ele>
        <time>2022-06-09T12:13:18Z</time>
      </trkpt>
      <trkpt lat="47.6540130" lon="9.1760810">
        <ele>-21.8</ele>
        <time>2022-06-09T12:13:22Z</time>
      </trkpt>
      <trkpt lat="47.6540160" lon="9.1758710">
        <ele>-21.8</ele>
        <time>2022-06-09T12:13:26Z</time>
      </trkpt>
      <trkpt lat="47.6541910" lon="9.1757660">
        <ele>-22.8</ele>
        <time>2022-06-09T12:13:30Z</time>
      </trkpt>
      <trkpt lat="47.6543750" lon="9.1757180">
        <ele>-22.6</ele>
        <time>2022-06-09T12:13:34Z</time>
      </trkpt>
      <trkpt lat="47.6545600" lon="9.1756560">
        <ele>-22.2</ele>
        <time>2022-06-09T12:13:38Z</time>
      </trkpt>
      <trkpt lat="47.6547500" lon="9.1756060">
        <ele>-23.2</ele>
        <time>2022-06-09T12:13:42Z</time>
      </trkpt>
      <trkpt lat="47.6549200" lon="9.1755350">
        <ele>-23.0</ele>
        <time>2022-06-09T12:13:46Z</time>
      </trkpt>
      <trkpt lat="47.6550960" lon="9.1754730">
        <ele>-22.4</ele>
        <time>2022-06-09T12:13:50Z</time>
      </trkpt>
      <trkpt lat="47.6552310" lon="9.1753800">
        <ele>-22.2</ele>
        <time>2022-06-09T12:13:54Z</time>
      </trkpt>
      <trkpt lat="47.6552380" lon="9.1751610">
        <ele>-21.8</ele>
        <time>2022-06-09T12:13:58Z</time>
      </trkpt>
      <trkpt lat="47.6552100" lon="9.1749600">
        <ele>-21.4</ele>
        <time>2022-06-09T12:14:02Z</time>
      </trkpt>
      <trkpt lat="47.6551850" lon="9.1747580">
        <ele>-20.4</ele>
        <time>2022-06-09T12:14:06Z</time>
      </trkpt>
      <trkpt lat="47.6551610" lon="9.1745330">
        <ele>-19.8</ele>
        <time>2022-06-09T12:14:10Z</time>
      </trkpt>
      <trkpt lat="47.6551400" lon="9.1743350">
        <ele>-18.6</ele>
        <time>2022-06-09T12:14:14Z</time>
      </trkpt>
      <trkpt lat="47.6551280" lon="9.1741360">
        <ele>-17.6</ele>
        <time>2022-06-09T12:14:18Z</time>
      </trkpt>
      <trkpt lat="47.6551180" lon="9.1739430">
        <ele>-17.2</ele>
        <time>2022-06-09T12:14:22Z</time>
      </trkpt>
      <trkpt lat="47.6551030" lon="9.1737660">
        <ele>-16.2</ele>
        <time>2022-06-09T12:14:26Z</time>
      </trkpt>
      <trkpt lat="47.6550950" lon="9.1736330">
        <ele>-16.0</ele>
        <time>2022-06-09T12:14:30Z</time>
      </trkpt>
      <trkpt lat="47.6551430" lon="9.1735050">
        <ele>-16.2</ele>
        <time>2022-06-09T12:14:34Z</time>
      </trkpt>
      <trkpt lat="47.6552680" lon="9.1733880">
        <ele>-16.0</ele>
        <time>2022-06-09T12:14:38Z</time>
      </trkpt>
      <trkpt lat="47.6553760" lon="9.1732750">
        <ele>-16.2</ele>
        <time>2022-06-09T12:14:42Z</time>
      </trkpt>
      <trkpt lat="47.6555030" lon="9.1731850">
        <ele>-16.4</ele>
        <time>2022-06-09T12:14:46Z</time>
      </trkpt>
      <trkpt lat="47.6556450" lon="9.1730800">
        <ele>-17.2</ele>
        <time>2022-06-09T12:14:50Z</time>
      </trkpt>
      <trkpt lat="47.6558010" lon="9.1729830">
        <ele>-17.4</ele>
        <time>2022-06-09T12:14:54Z</time>
      </trkpt>
      <trkpt lat="47.6559460" lon="9.1728700">
        <ele>-17.4</ele>
        <time>2022-06-09T12:14:58Z</time>
      </trkpt>
      <trkpt lat="47.6559510" lon="9.1726600">
        <ele>-17.4</ele>
        <time>2022-06-09T12:15:02Z</time>
      </trkpt>
      <trkpt lat="47.6559360" lon="9.1724360">
        <ele>-17.2</ele>
        <time>2022-06-09T12:15:06Z</time>
      </trkpt>
      <trkpt lat="47.6559180" lon="9.1722030">
        <ele>-17.8</ele>
        <time>2022-06-09T12:15:10Z</time>
      </trkpt>
      <trkpt lat="47.6559230" lon="9.1719530">
        <ele>-17.8</ele>
        <time>2022-06-09T12:15:14Z</time>
      </trkpt>
      <trkpt lat="47.6558860" lon="9.1717360">
        <ele>-18.0</ele>
        <time>2022-06-09T12:15:18Z</time>
      </trkpt>
      <trkpt lat="47.6558610" lon="9.1714810">
        <ele>-18.0</ele>
        <time>2022-06-09T12:15:22Z</time>
      </trkpt>
      <trkpt lat="47.6559100" lon="9.1712080">
        <ele>-18.2</ele>
        <time>2022-06-09T12:15:26Z</time>
      </trkpt>
      <trkpt lat="47.6559710" lon="9.1709360">
        <ele>-18.4</ele>
        <time>2022-06-09T12:15:30Z</time>
      </trkpt>
      <trkpt lat="47.6560500" lon="9.1706750">
        <ele>-18.6</ele>
        <time>2022-06-09T12:15:34Z</time>
      </trkpt>
      <trkpt lat="47.6561880" lon="9.1704860">
        <ele>-19.6</ele>
        <time>2022-06-09T12:15:38Z</time>
      </trkpt>
      <trkpt lat="47.6563380" lon="9.1703130">
        <ele>-19.2</ele>
        <time>2022-06-09T12:15:42Z</time>
      </trkpt>
      <trkpt lat="47.6564780" lon="9.1701250">
        <ele>-20.2</ele>
        <time>2022-06-09T12:15:46Z</time>
      </trkpt>
      <trkpt lat="47.6565280" lon="9.1699700">
        <ele>-20.4</ele>
        <time>2022-06-09T12:15:50Z</time>
      </trkpt>
      <trkpt lat="47.6565100" lon="9.1698080">
        <ele>-20.4</ele>
        <time>2022-06-09T12:15:54Z</time>
      </trkpt>
      <trkpt lat="47.6563860" lon="9.1697550">
        <ele>-20.6</ele>
        <time>2022-06-09T12:15:58Z</time>
      </trkpt>
      <trkpt lat="47.6562330" lon="9.1696480">
        <ele>-19.8</ele>
        <time>2022-06-09T12:16:02Z</time>
      </trkpt>
      <trkpt lat="47.6560830" lon="9.1695210">
        <ele>-20.0</ele>
        <time>2022-06-09T12:16:06Z</time>
      </trkpt>
      <trkpt lat="47.6559500" lon="9.1693780">
        <ele>-19.8</ele>
        <time>2022-06-09T12:16:10Z</time>
      </trkpt>
      <trkpt lat="47.6558030" lon="9.1692410">
        <ele>-20.0</ele>
        <time>2022-06-09T12:16:14Z</time>
      </trkpt>
      <trkpt lat="47.6557660" lon="9.1690030">
        <ele>-20.8</ele>
        <time>2022-06-09T12:16:18Z</time>
      </trkpt>
      <trkpt lat="47.6558780" lon="9.1687600">
        <ele>-20.4</ele>
        <time>2022-06-09T12:16:22Z</time>
      </trkpt>
      <trkpt lat="47.6560030" lon="9.1685560">
        <ele>-20.6</ele>
        <time>2022-06-09T12:16:26Z</time>
      </trkpt>
      <trkpt lat="47.6561750" lon="9.1686850">
        <ele>-20.6</ele>
        <time>2022-06-09T12:16:30Z</time>
      </trkpt>
      <trkpt lat="47.6563450" lon="9.1688130">
        <ele>-21.0</ele>
        <time>2022-06-09T12:16:34Z</time>
      </trkpt>
      <trkpt lat="47.6565160" lon="9.1689180">
        <ele>-20.8</ele>
        <time>2022-06-09T12:16:38Z</time>
      </trkpt>
      <trkpt lat="47.6566510" lon="9.1687530">
        <ele>-21.4</ele>
        <time>2022-06-09T12:16:42Z</time>
      </trkpt>
      <trkpt lat="47.6567800" lon="9.1685630">
        <ele>-21.4</ele>
        <time>2022-06-09T12:16:46Z</time>
      </trkpt>
      <trkpt lat="47.6568930" lon="9.1683360">
        <ele>-21.6</ele>
        <time>2022-06-09T12:16:50Z</time>
      </trkpt>
      <trkpt lat="47.6569800" lon="9.1681150">
        <ele>-21.8</ele>
        <time>2022-06-09T12:16:54Z</time>
      </trkpt>
      <trkpt lat="47.6570480" lon="9.1678610">
        <ele>-22.0</ele>
        <time>2022-06-09T12:16:58Z</time>
      </trkpt>
      <trkpt lat="47.6571180" lon="9.1675960">
        <ele>-22.2</ele>
        <time>2022-06-09T12:17:02Z</time>
      </trkpt>
      <trkpt lat="47.6571810" lon="9.1673310">
        <ele>-21.8</ele>
        <time>2022-06-09T12:17:06Z</time>
      </trkpt>
      <trkpt lat="47.6572310" lon="9.1671160">
        <ele>-22.2</ele>
        <time>2022-06-09T12:17:10Z</time>
      </trkpt>
      <trkpt lat="47.6572480" lon="9.1670210">
        <ele>-21.8</ele>
        <time>2022-06-09T12:17:14Z</time>
      </trkpt>
      <trkpt lat="47.6572330" lon="9.1670650">
        <ele>-22.0</ele>
        <time>2022-06-09T12:17:18Z</time>
      </trkpt>
      <trkpt lat="47.6572230" lon="9.1671760">
        <ele>-22.0</ele>
        <time>2022-06-09T12:17:22Z</time>
      </trkpt>
      <trkpt lat="47.6571900" lon="9.1673260">
        <ele>-21.6</ele>
        <time>2022-06-09T12:17:26Z</time>
      </trkpt>
      <trkpt lat="47.6571450" lon="9.1675180">
        <ele>-21.4</ele>
        <time>2022-06-09T12:17:30Z</time>
      </trkpt>
      <trkpt lat="47.6570830" lon="9.1677250">
        <ele>-22.2</ele>
        <time>2022-06-09T12:17:34Z</time>
      </trkpt>
      <trkpt lat="47.6570400" lon="9.1679460">
        <ele>-22.0</ele>
        <time>2022-06-09T12:17:38Z</time>
      </trkpt>
      <trkpt lat="47.6570560" lon="9.1680780">
        <ele>-21.6</ele>
        <time>2022-06-09T12:17:42Z</time>
      </trkpt>
      <trkpt lat="47.6571060" lon="9.1679830">
        <ele>-21.6</ele>
        <time>2022-06-09T12:17:46Z</time>
      </trkpt>
      <trkpt lat="47.6571560" lon="9.1678180">
        <ele>-22.6</ele>
        <time>2022-06-09T12:17:50Z</time>
      </trkpt>
      <trkpt lat="47.6572810" lon="9.1675900">
        <ele>-21.6</ele>
        <time>2022-06-09T12:17:54Z</time>
      </trkpt>
      <trkpt lat="47.6574130" lon="9.1673710">
        <ele>-21.4</ele>
        <time>2022-06-09T12:17:58Z</time>
      </trkpt>
      <trkpt lat="47.6575510" lon="9.1671860">
        <ele>-22.4</ele>
        <time>2022-06-09T12:18:02Z</time>
      </trkpt>
      <trkpt lat="47.6577080" lon="9.1670250">
        <ele>-22.0</ele>
        <time>2022-06-09T12:18:06Z</time>
      </trkpt>
      <trkpt lat="47.6578600" lon="9.1668360">
        <ele>-22.0</ele>
        <time>2022-06-09T12:18:10Z</time>
      </trkpt>
      <trkpt lat="47.6579900" lon="9.1666400">
        <ele>-21.8</ele>
        <time>2022-06-09T12:18:14Z</time>
      </trkpt>
      <trkpt lat="47.6581230" lon="9.1664460">
        <ele>-21.8</ele>
        <time>2022-06-09T12:18:18Z</time>
      </trkpt>
      <trkpt lat="47.6582650" lon="9.1662510">
        <ele>-21.8</ele>
        <time>2022-06-09T12:18:22Z</time>
      </trkpt>
      <trkpt lat="47.6584060" lon="9.1660500">
        <ele>-22.6</ele>
        <time>2022-06-09T12:18:26Z</time>
      </trkpt>
      <trkpt lat="47.6585410" lon="9.1658330">
        <ele>-22.4</ele>
        <time>2022-06-09T12:18:30Z</time>
      </trkpt>
      <trkpt lat="47.6586780" lon="9.1656080">
        <ele>-22.6</ele>
        <time>2022-06-09T12:18:34Z</time>
      </trkpt>
      <trkpt lat="47.6588210" lon="9.1654030">
        <ele>-22.4</ele>
        <time>2022-06-09T12:18:38Z</time>
      </trkpt>
      <trkpt lat="47.6589700" lon="9.1652010">
        <ele>-22.8</ele>
        <time>2022-06-09T12:18:42Z</time>
      </trkpt>
      <trkpt lat="47.6591080" lon="9.1649910">
        <ele>-23.2</ele>
        <time>2022-06-09T12:18:46Z</time>
      </trkpt>
      <trkpt lat="47.6592430" lon="9.1647800">
        <ele>-22.4</ele>
        <time>2022-06-09T12:18:50Z</time>
      </trkpt>
      <trkpt lat="47.6593900" lon="9.1645600">
        <ele>-22.8</ele>
        <time>2022-06-09T12:18:54Z</time>
      </trkpt>
      <trkpt lat="47.6595300" lon="9.1643510">
        <ele>-22.4</ele>
        <time>2022-06-09T12:18:58Z</time>
      </trkpt>
      <trkpt lat="47.6596660" lon="9.1641460">
        <ele>-22.6</ele>
        <time>2022-06-09T12:19:02Z</time>
      </trkpt>
      <trkpt lat="47.6597900" lon="9.1639450">
        <ele>-23.0</ele>
        <time>2022-06-09T12:19:06Z</time>
      </trkpt>
      <trkpt lat="47.6599060" lon="9.1637660">
        <ele>-23.0</ele>
        <time>2022-06-09T12:19:10Z</time>
      </trkpt>
      <trkpt lat="47.6600560" lon="9.1636010">
        <ele>-22.4</ele>
        <time>2022-06-09T12:19:14Z</time>
      </trkpt>
      <trkpt lat="47.6602260" lon="9.1634600">
        <ele>-22.2</ele>
        <time>2022-06-09T12:19:18Z</time>
      </trkpt>
      <trkpt lat="47.6603880" lon="9.1632860">
        <ele>-22.4</ele>
        <time>2022-06-09T12:19:22Z</time>
      </trkpt>
      <trkpt lat="47.6605280" lon="9.1630860">
        <ele>-22.6</ele>
        <time>2022-06-09T12:19:26Z</time>
      </trkpt>
      <trkpt lat="47.6606480" lon="9.1628680">
        <ele>-22.8</ele>
        <time>2022-06-09T12:19:30Z</time>
      </trkpt>
      <trkpt lat="47.6607910" lon="9.1626630">
        <ele>-23.2</ele>
        <time>2022-06-09T12:19:34Z</time>
      </trkpt>
      <trkpt lat="47.6609430" lon="9.1624510">
        <ele>-24.6</ele>
        <time>2022-06-09T12:19:38Z</time>
      </trkpt>
      <trkpt lat="47.6610880" lon="9.1621730">
        <ele>-26.0</ele>
        <time>2022-06-09T12:19:42Z</time>
      </trkpt>
      <trkpt lat="47.6611650" lon="9.1618050">
        <ele>-27.4</ele>
        <time>2022-06-09T12:19:46Z</time>
      </trkpt>
      <trkpt lat="47.6612180" lon="9.1614010">
        <ele>-27.2</ele>
        <time>2022-06-09T12:19:50Z</time>
      </trkpt>
      <trkpt lat="47.6612400" lon="9.1609910">
        <ele>-26.4</ele>
        <time>2022-06-09T12:19:54Z</time>
      </trkpt>
      <trkpt lat="47.6612550" lon="9.1606850">
        <ele>-25.2</ele>
        <time>2022-06-09T12:19:58Z</time>
      </trkpt>
      <trkpt lat="47.6612550" lon="9.1604250">
        <ele>-23.8</ele>
        <time>2022-06-09T12:20:02Z</time>
      </trkpt>
      <trkpt lat="47.6612350" lon="9.1602130">
        <ele>-23.2</ele>
        <time>2022-06-09T12:20:06Z</time>
      </trkpt>
      <trkpt lat="47.6612080" lon="9.1600260">
        <ele>-23.2</ele>
        <time>2022-06-09T12:20:10Z</time>
      </trkpt>
      <trkpt lat="47.6612930" lon="9.1598650">
        <ele>-23.6</ele>
        <time>2022-06-09T12:20:14Z</time>
      </trkpt>
      <trkpt lat="47.6614330" lon="9.1597950">
        <ele>-23.8</ele>
        <time>2022-06-09T12:20:18Z</time>
      </trkpt>
      <trkpt lat="47.6615900" lon="9.1597100">
        <ele>-23.6</ele>
        <time>2022-06-09T12:20:22Z</time>
      </trkpt>
      <trkpt lat="47.6617550" lon="9.1596400">
        <ele>-23.8</ele>
        <time>2022-06-09T12:20:26Z</time>
      </trkpt>
      <trkpt lat="47.6619130" lon="9.1595550">
        <ele>-23.8</ele>
        <time>2022-06-09T12:20:30Z</time>
      </trkpt>
      <trkpt lat="47.6620760" lon="9.1594750">
        <ele>-23.6</ele>
        <time>2022-06-09T12:20:34Z</time>
      </trkpt>
      <trkpt lat="47.6622350" lon="9.1593980">
        <ele>-24.4</ele>
        <time>2022-06-09T12:20:38Z</time>
      </trkpt>
      <trkpt lat="47.6624050" lon="9.1593080">
        <ele>-24.2</ele>
        <time>2022-06-09T12:20:42Z</time>
      </trkpt>
      <trkpt lat="47.6625780" lon="9.1592430">
        <ele>-23.8</ele>
        <time>2022-06-09T12:20:46Z</time>
      </trkpt>
      <trkpt lat="47.6627430" lon="9.1591830">
        <ele>-23.8</ele>
        <time>2022-06-09T12:20:50Z</time>
      </trkpt>
      <trkpt lat="47.6628560" lon="9.1592310">
        <ele>-23.4</ele>
        <time>2022-06-09T12:20:54Z</time>
      </trkpt>
      <trkpt lat="47.6629010" lon="9.1594780">
        <ele>-23.2</ele>
        <time>2022-06-09T12:20:58Z</time>
      </trkpt>
      <trkpt lat="47.6629560" lon="9.1597410">
        <ele>-23.2</ele>
        <time>2022-06-09T12:21:02Z</time>
      </trkpt>
      <trkpt lat="47.6630400" lon="9.1599830">
        <ele>-22.8</ele>
        <time>2022-06-09T12:21:06Z</time>
      </trkpt>
      <trkpt lat="47.6630850" lon="9.1602330">
        <ele>-23.4</ele>
        <time>2022-06-09T12:21:10Z</time>
      </trkpt>
      <trkpt lat="47.6631010" lon="9.1604630">
        <ele>-23.8</ele>
        <time>2022-06-09T12:21:14Z</time>
      </trkpt>
      <trkpt lat="47.6631100" lon="9.1606360">
        <ele>-24.2</ele>
        <time>2022-06-09T12:21:18Z</time>
      </trkpt>
      <trkpt lat="47.6631730" lon="9.1608460">
        <ele>-23.2</ele>
        <time>2022-06-09T12:21:22Z</time>
      </trkpt>
      <trkpt lat="47.6633480" lon="9.1608960">
        <ele>-22.8</ele>
        <time>2022-06-09T12:21:26Z</time>
      </trkpt>
      <trkpt lat="47.6635260" lon="9.1608910">
        <ele>-23.2</ele>
        <time>2022-06-09T12:21:30Z</time>
      </trkpt>
      <trkpt lat="47.6637100" lon="9.1608860">
        <ele>-23.4</ele>
        <time>2022-06-09T12:21:34Z</time>
      </trkpt>
      <trkpt lat="47.6639030" lon="9.1609080">
        <ele>-23.8</ele>
        <time>2022-06-09T12:21:38Z</time>
      </trkpt>
      <trkpt lat="47.6640850" lon="9.1609150">
        <ele>-23.8</ele>
        <time>2022-06-09T12:21:42Z</time>
      </trkpt>
      <trkpt lat="47.6642580" lon="9.1609380">
        <ele>-23.6</ele>
        <time>2022-06-09T12:21:46Z</time>
      </trkpt>
      <trkpt lat="47.6644310" lon="9.1609680">
        <ele>-23.8</ele>
        <time>2022-06-09T12:21:50Z</time>
      </trkpt>
      <trkpt lat="47.6646000" lon="9.1609750">
        <ele>-23.4</ele>
        <time>2022-06-09T12:21:54Z</time>
      </trkpt>
      <trkpt lat="47.6647750" lon="9.1610300">
        <ele>-23.8</ele>
        <time>2022-06-09T12:21:58Z</time>
      </trkpt>
      <trkpt lat="47.6649760" lon="9.1609960">
        <ele>-23.6</ele>
        <time>2022-06-09T12:22:02Z</time>
      </trkpt>
      <trkpt lat="47.6651630" lon="9.1610330">
        <ele>-24.0</ele>
        <time>2022-06-09T12:22:06Z</time>
      </trkpt>
      <trkpt lat="47.6653360" lon="9.1610710">
        <ele>-23.8</ele>
        <time>2022-06-09T12:22:10Z</time>
      </trkpt>
      <trkpt lat="47.6655080" lon="9.1611130">
        <ele>-23.8</ele>
        <time>2022-06-09T12:22:14Z</time>
      </trkpt>
      <trkpt lat="47.6656050" lon="9.1612710">
        <ele>-23.6</ele>
        <time>2022-06-09T12:22:18Z</time>
      </trkpt>
      <trkpt lat="47.6655980" lon="9.1614710">
        <ele>-23.8</ele>
        <time>2022-06-09T12:22:22Z</time>
      </trkpt>
      <trkpt lat="47.6655580" lon="9.1616880">
        <ele>-23.6</ele>
        <time>2022-06-09T12:22:26Z</time>
      </trkpt>
      <trkpt lat="47.6655780" lon="9.1618560">
        <ele>-23.6</ele>
        <time>2022-06-09T12:22:30Z</time>
      </trkpt>
      <trkpt lat="47.6657250" lon="9.1618900">
        <ele>-24.0</ele>
        <time>2022-06-09T12:22:34Z</time>
      </trkpt>
      <trkpt lat="47.6658850" lon="9.1619310">
        <ele>-24.4</ele>
        <time>2022-06-09T12:22:38Z</time>
      </trkpt>
      <trkpt lat="47.6660610" lon="9.1619460">
        <ele>-24.2</ele>
        <time>2022-06-09T12:22:42Z</time>
      </trkpt>
      <trkpt lat="47.6662280" lon="9.1619830">
        <ele>-24.2</ele>
        <time>2022-06-09T12:22:46Z</time>
      </trkpt>
      <trkpt lat="47.6664100" lon="9.1620530">
        <ele>-24.4</ele>
        <time>2022-06-09T12:22:50Z</time>
      </trkpt>
      <trkpt lat="47.6665710" lon="9.1620610">
        <ele>-25.0</ele>
        <time>2022-06-09T12:22:54Z</time>
      </trkpt>
      <trkpt lat="47.6667080" lon="9.1620730">
        <ele>-24.0</ele>
        <time>2022-06-09T12:22:58Z</time>
      </trkpt>
      <trkpt lat="47.6668580" lon="9.1620210">
        <ele>-23.8</ele>
        <time>2022-06-09T12:23:02Z</time>
      </trkpt>
      <trkpt lat="47.6670050" lon="9.1619500">
        <ele>-22.8</ele>
        <time>2022-06-09T12:23:06Z</time>
      </trkpt>
      <trkpt lat="47.6671450" lon="9.1619410">
        <ele>-22.6</ele>
        <time>2022-06-09T12:23:10Z</time>
      </trkpt>
      <trkpt lat="47.6672680" lon="9.1620060">
        <ele>-22.0</ele>
        <time>2022-06-09T12:23:14Z</time>
      </trkpt>
      <trkpt lat="47.6673900" lon="9.1621180">
        <ele>-21.0</ele>
        <time>2022-06-09T12:23:18Z</time>
      </trkpt>
      <trkpt lat="47.6675080" lon="9.1622260">
        <ele>-20.4</ele>
        <time>2022-06-09T12:23:22Z</time>
      </trkpt>
      <trkpt lat="47.6676160" lon="9.1622700">
        <ele>-19.8</ele>
        <time>2022-06-09T12:23:26Z</time>
      </trkpt>
      <trkpt lat="47.6677160" lon="9.1622900">
        <ele>-18.6</ele>
        <time>2022-06-09T12:23:30Z</time>
      </trkpt>
      <trkpt lat="47.6678230" lon="9.1623060">
        <ele>-18.4</ele>
        <time>2022-06-09T12:23:34Z</time>
      </trkpt>
      <trkpt lat="47.6679280" lon="9.1623330">
        <ele>-17.8</ele>
        <time>2022-06-09T12:23:38Z</time>
      </trkpt>
      <trkpt lat="47.6680300" lon="9.1623530">
        <ele>-17.2</ele>
        <time>2022-06-09T12:23:42Z</time>
      </trkpt>
      <trkpt lat="47.6681330" lon="9.1623730">
        <ele>-17.2</ele>
        <time>2022-06-09T12:23:46Z</time>
      </trkpt>
      <trkpt lat="47.6682330" lon="9.1623980">
        <ele>-15.8</ele>
        <time>2022-06-09T12:23:50Z</time>
      </trkpt>
      <trkpt lat="47.6683400" lon="9.1624200">
        <ele>-15.2</ele>
        <time>2022-06-09T12:23:54Z</time>
      </trkpt>
      <trkpt lat="47.6684500" lon="9.1624260">
        <ele>-14.8</ele>
        <time>2022-06-09T12:23:58Z</time>
      </trkpt>
      <trkpt lat="47.6685560" lon="9.1624460">
        <ele>-14.6</ele>
        <time>2022-06-09T12:24:02Z</time>
      </trkpt>
      <trkpt lat="47.6686800" lon="9.1624750">
        <ele>-14.6</ele>
        <time>2022-06-09T12:24:06Z</time>
      </trkpt>
      <trkpt lat="47.6688000" lon="9.1624930">
        <ele>-14.8</ele>
        <time>2022-06-09T12:24:10Z</time>
      </trkpt>
      <trkpt lat="47.6689260" lon="9.1625050">
        <ele>-14.2</ele>
        <time>2022-06-09T12:24:14Z</time>
      </trkpt>
      <trkpt lat="47.6690660" lon="9.1625160">
        <ele>-13.4</ele>
        <time>2022-06-09T12:24:18Z</time>
      </trkpt>
      <trkpt lat="47.6692060" lon="9.1625410">
        <ele>-14.6</ele>
        <time>2022-06-09T12:24:22Z</time>
      </trkpt>
      <trkpt lat="47.6693510" lon="9.1625760">
        <ele>-12.6</ele>
        <time>2022-06-09T12:24:26Z</time>
      </trkpt>
      <trkpt lat="47.6694950" lon="9.1626010">
        <ele>-12.6</ele>
        <time>2022-06-09T12:24:30Z</time>
      </trkpt>
      <trkpt lat="47.6696460" lon="9.1626300">
        <ele>-13.0</ele>
        <time>2022-06-09T12:24:34Z</time>
      </trkpt>
      <trkpt lat="47.6697930" lon="9.1626480">
        <ele>-12.6</ele>
        <time>2022-06-09T12:24:38Z</time>
      </trkpt>
      <trkpt lat="47.6699360" lon="9.1626850">
        <ele>-12.0</ele>
        <time>2022-06-09T12:24:42Z</time>
      </trkpt>
      <trkpt lat="47.6700860" lon="9.1627210">
        <ele>-13.2</ele>
        <time>2022-06-09T12:24:46Z</time>
      </trkpt>
      <trkpt lat="47.6702410" lon="9.1627560">
        <ele>-13.4</ele>
        <time>2022-06-09T12:24:50Z</time>
      </trkpt>
      <trkpt lat="47.6703960" lon="9.1627910">
        <ele>-13.6</ele>
        <time>2022-06-09T12:24:54Z</time>
      </trkpt>
      <trkpt lat="47.6705510" lon="9.1628210">
        <ele>-12.6</ele>
        <time>2022-06-09T12:24:58Z</time>
      </trkpt>
      <trkpt lat="47.6707080" lon="9.1628580">
        <ele>-13.4</ele>
        <time>2022-06-09T12:25:02Z</time>
      </trkpt>
      <trkpt lat="47.6708660" lon="9.1628900">
        <ele>-13.0</ele>
        <time>2022-06-09T12:25:06Z</time>
      </trkpt>
      <trkpt lat="47.6710250" lon="9.1629150">
        <ele>-12.8</ele>
        <time>2022-06-09T12:25:10Z</time>
      </trkpt>
      <trkpt lat="47.6711830" lon="9.1629450">
        <ele>-12.4</ele>
        <time>2022-06-09T12:25:14Z</time>
      </trkpt>
      <trkpt lat="47.6713380" lon="9.1629730">
        <ele>-12.4</ele>
        <time>2022-06-09T12:25:18Z</time>
      </trkpt>
      <trkpt lat="47.6714930" lon="9.1630000">
        <ele>-12.6</ele>
        <time>2022-06-09T12:25:22Z</time>
      </trkpt>
      <trkpt lat="47.6716400" lon="9.1630310">
        <ele>-12.0</ele>
        <time>2022-06-09T12:25:26Z</time>
      </trkpt>
      <trkpt lat="47.6717850" lon="9.1630610">
        <ele>-13.0</ele>
        <time>2022-06-09T12:25:30Z</time>
      </trkpt>
      <trkpt lat="47.6719080" lon="9.1630760">
        <ele>-13.2</ele>
        <time>2022-06-09T12:25:34Z</time>
      </trkpt>
      <trkpt lat="47.6720130" lon="9.1630880">
        <ele>-13.0</ele>
        <time>2022-06-09T12:25:38Z</time>
      </trkpt>
      <trkpt lat="47.6721180" lon="9.1630900">
        <ele>-13.2</ele>
        <time>2022-06-09T12:25:42Z</time>
      </trkpt>
      <trkpt lat="47.6721900" lon="9.1630010">
        <ele>-13.6</ele>
        <time>2022-06-09T12:25:46Z</time>
      </trkpt>
      <trkpt lat="47.6722400" lon="9.1628310">
        <ele>-14.2</ele>
        <time>2022-06-09T12:25:50Z</time>
      </trkpt>
      <trkpt lat="47.6723230" lon="9.1626160">
        <ele>-15.8</ele>
        <time>2022-06-09T12:25:54Z</time>
      </trkpt>
      <trkpt lat="47.6724730" lon="9.1626610">
        <ele>-16.6</ele>
        <time>2022-06-09T12:25:58Z</time>
      </trkpt>
      <trkpt lat="47.6724600" lon="9.1628760">
        <ele>-17.8</ele>
        <time>2022-06-09T12:26:02Z</time>
      </trkpt>
      <trkpt lat="47.6723060" lon="9.1628730">
        <ele>-19.2</ele>
        <time>2022-06-09T12:26:06Z</time>
      </trkpt>
      <trkpt lat="47.6723160" lon="9.1626610">
        <ele>-20.6</ele>
        <time>2022-06-09T12:26:10Z</time>
      </trkpt>
      <trkpt lat="47.6724580" lon="9.1624850">
        <ele>-21.0</ele>
        <time>2022-06-09T12:26:14Z</time>
      </trkpt>
      <trkpt lat="47.6725630" lon="9.1623080">
        <ele>-21.8</ele>
        <time>2022-06-09T12:26:18Z</time>
      </trkpt>
      <trkpt lat="47.6725530" lon="9.1621230">
        <ele>-22.0</ele>
        <time>2022-06-09T12:26:22Z</time>
      </trkpt>
      <trkpt lat="47.6725530" lon="9.1621230">
        <ele>-22.4</ele>
        <time>2022-06-09T12:26:26Z</time>
      </trkpt>
      <trkpt lat="47.6725530" lon="9.1621230">
        <ele>-22.2</ele>
        <time>2022-06-09T12:26:30Z</time>
      </trkpt>
      <trkpt lat="47.6725530" lon="9.1621230">
        <ele>-21.8</ele>
        <time>2022-06-09T12:26:34Z</time>
      </trkpt>
      <trkpt lat="47.6725530" lon="9.1621230">
        <ele>-21.8</ele>
        <time>2022-06-09T12:26:38Z</time>
      </trkpt>
      <trkpt lat="47.6725680" lon="9.1620510">
        <ele>-22.4</ele>
        <time>2022-06-09T12:26:42Z</time>
      </trkpt>
      <trkpt lat="47.6726210" lon="9.1620280">
        <ele>-22.4</ele>
        <time>2022-06-09T12:26:46Z</time>
      </trkpt>
      <trkpt lat="47.6727350" lon="9.1620830">
        <ele>-22.4</ele>
        <time>2022-06-09T12:26:50Z</time>
      </trkpt>
      <trkpt lat="47.6728780" lon="9.1621610">
        <ele>-22.6</ele>
        <time>2022-06-09T12:26:54Z</time>
      </trkpt>
      <trkpt lat="47.6730450" lon="9.1622650">
        <ele>-22.2</ele>
        <time>2022-06-09T12:26:58Z</time>
      </trkpt>
      <trkpt lat="47.6732010" lon="9.1623910">
        <ele>-21.8</ele>
        <time>2022-06-09T12:27:02Z</time>
      </trkpt>
      <trkpt lat="47.6733580" lon="9.1625180">
        <ele>-22.0</ele>
        <time>2022-06-09T12:27:06Z</time>
      </trkpt>
      <trkpt lat="47.6734880" lon="9.1623850">
        <ele>-21.8</ele>
        <time>2022-06-09T12:27:10Z</time>
      </trkpt>
      <trkpt lat="47.6735650" lon="9.1621480">
        <ele>-21.8</ele>
        <time>2022-06-09T12:27:14Z</time>
      </trkpt>
      <trkpt lat="47.6736430" lon="9.1619050">
        <ele>-21.6</ele>
        <time>2022-06-09T12:27:18Z</time>
      </trkpt>
      <trkpt lat="47.6736900" lon="9.1616480">
        <ele>-21.6</ele>
        <time>2022-06-09T12:27:22Z</time>
      </trkpt>
      <trkpt lat="47.6737510" lon="9.1614130">
        <ele>-21.2</ele>
        <time>2022-06-09T12:27:26Z</time>
      </trkpt>
      <trkpt lat="47.6738030" lon="9.1611700">
        <ele>-21.4</ele>
        <time>2022-06-09T12:27:30Z</time>
      </trkpt>
      <trkpt lat="47.6738730" lon="9.1609380">
        <ele>-21.4</ele>
        <time>2022-06-09T12:27:34Z</time>
      </trkpt>
      <trkpt lat="47.6739980" lon="9.1607730">
        <ele>-21.6</ele>
        <time>2022-06-09T12:27:38Z</time>
      </trkpt>
      <trkpt lat="47.6741030" lon="9.1606010">
        <ele>-21.4</ele>
        <time>2022-06-09T12:27:42Z</time>
      </trkpt>
      <trkpt lat="47.6741960" lon="9.1603980">
        <ele>-21.8</ele>
        <time>2022-06-09T12:27:46Z</time>
      </trkpt>
      <trkpt lat="47.6742960" lon="9.1601930">
        <ele>-21.8</ele>
        <time>2022-06-09T12:27:50Z</time>
      </trkpt>
      <trkpt lat="47.6743930" lon="9.1599880">
        <ele>-22.0</ele>
        <time>2022-06-09T12:27:54Z</time>
      </trkpt>
      <trkpt lat="47.6744730" lon="9.1597850">
        <ele>-22.6</ele>
        <time>2022-06-09T12:27:58Z</time>
      </trkpt>
      <trkpt lat="47.6745260" lon="9.1596610">
        <ele>-23.2</ele>
        <time>2022-06-09T12:28:02Z</time>
      </trkpt>
      <trkpt lat="47.6745260" lon="9.1596610">
        <ele>-22.8</ele>
        <time>2022-06-09T12:28:06Z</time>
      </trkpt>
      <trkpt lat="47.6745260" lon="9.1596610">
        <ele>-23.0</ele>
        <time>2022-06-09T12:28:10Z</time>
      </trkpt>
      <trkpt lat="47.6745260" lon="9.1596610">
        <ele>-23.2</ele>
        <time>2022-06-09T12:28:14Z</time>
      </trkpt>
      <trkpt lat="47.6745260" lon="9.1596610">
        <ele>-23.4</ele>
        <time>2022-06-09T12:28:18Z</time>
      </trkpt>
      <trkpt lat="47.6745260" lon="9.1596610">
        <ele>-23.2</ele>
        <time>2022-06-09T12:28:22Z</time>
      </trkpt>
      <trkpt lat="47.6745250" lon="9.1596210">
        <ele>-23.2</ele>
        <time>2022-06-09T12:28:26Z</time>
      </trkpt>
      <trkpt lat="47.6744780" lon="9.1594980">
        <ele>-22.4</ele>
        <time>2022-06-09T12:28:30Z</time>
      </trkpt>
      <trkpt lat="47.6744400" lon="9.1593360">
        <ele>-22.4</ele>
        <time>2022-06-09T12:28:34Z</time>
      </trkpt>
      <trkpt lat="47.6744510" lon="9.1591280">
        <ele>-22.0</ele>
        <time>2022-06-09T12:28:38Z</time>
      </trkpt>
      <trkpt lat="47.6743380" lon="9.1589910">
        <ele>-21.8</ele>
        <time>2022-06-09T12:28:42Z</time>
      </trkpt>
      <trkpt lat="47.6741880" lon="9.1588980">
        <ele>-21.8</ele>
        <time>2022-06-09T12:28:46Z</time>
      </trkpt>
      <trkpt lat="47.6740500" lon="9.1588210">
        <ele>-22.0</ele>
        <time>2022-06-09T12:28:50Z</time>
      </trkpt>
      <trkpt lat="47.6739150" lon="9.1587650">
        <ele>-23.6</ele>
        <time>2022-06-09T12:28:54Z</time>
      </trkpt>
      <trkpt lat="47.6737830" lon="9.1587080">
        <ele>-22.2</ele>
        <time>2022-06-09T12:28:58Z</time>
      </trkpt>
      <trkpt lat="47.6736450" lon="9.1586010">
        <ele>-22.4</ele>
        <time>2022-06-09T12:29:02Z</time>
      </trkpt>
      <trkpt lat="47.6735600" lon="9.1583880">
        <ele>-22.6</ele>
        <time>2022-06-09T12:29:06Z</time>
      </trkpt>
      <trkpt lat="47.6736230" lon="9.1581180">
        <ele>-22.4</ele>
        <time>2022-06-09T12:29:10Z</time>
      </trkpt>
      <trkpt lat="47.6736630" lon="9.1578350">
        <ele>-22.8</ele>
        <time>2022-06-09T12:29:14Z</time>
      </trkpt>
      <trkpt lat="47.6736800" lon="9.1575430">
        <ele>-23.2</ele>
        <time>2022-06-09T12:29:18Z</time>
      </trkpt>
      <trkpt lat="47.6737110" lon="9.1572580">
        <ele>-23.8</ele>
        <time>2022-06-09T12:29:22Z</time>
      </trkpt>
      <trkpt lat="47.6737630" lon="9.1569760">
        <ele>-23.2</ele>
        <time>2022-06-09T12:29:26Z</time>
      </trkpt>
      <trkpt lat="47.6738430" lon="9.1567210">
        <ele>-22.8</ele>
        <time>2022-06-09T12:29:30Z</time>
      </trkpt>
      <trkpt lat="47.6739230" lon="9.1564610">
        <ele>-23.4</ele>
        <time>2022-06-09T12:29:34Z</time>
      </trkpt>
      <trkpt lat="47.6739960" lon="9.1562100">
        <ele>-22.6</ele>
        <time>2022-06-09T12:29:38Z</time>
      </trkpt>
      <trkpt lat="47.6740810" lon="9.1559650">
        <ele>-23.0</ele>
        <time>2022-06-09T12:29:42Z</time>
      </trkpt>
      <trkpt lat="47.6741650" lon="9.1557160">
        <ele>-23.0</ele>
        <time>2022-06-09T12:29:46Z</time>
      </trkpt>
      <trkpt lat="47.6742460" lon="9.1554460">
        <ele>-23.0</ele>
        <time>2022-06-09T12:29:50Z</time>
      </trkpt>
      <trkpt lat="47.6743350" lon="9.1551700">
        <ele>-22.6</ele>
        <time>2022-06-09T12:29:54Z</time>
      </trkpt>
      <trkpt lat="47.6744210" lon="9.1549010">
        <ele>-22.6</ele>
        <time>2022-06-09T12:29:58Z</time>
      </trkpt>
      <trkpt lat="47.6745130" lon="9.1546360">
        <ele>-22.8</ele>
        <time>2022-06-09T12:30:02Z</time>
      </trkpt>
      <trkpt lat="47.6746130" lon="9.1543730">
        <ele>-23.4</ele>
        <time>2022-06-09T12:30:06Z</time>
      </trkpt>
      <trkpt lat="47.6747000" lon="9.1541180">
        <ele>-22.6</ele>
        <time>2022-06-09T12:30:10Z</time>
      </trkpt>
      <trkpt lat="47.6747860" lon="9.1538810">
        <ele>-22.6</ele>
        <time>2022-06-09T12:30:14Z</time>
      </trkpt>
      <trkpt lat="47.6748630" lon="9.1536430">
        <ele>-22.4</ele>
        <time>2022-06-09T12:30:18Z</time>
      </trkpt>
      <trkpt lat="47.6749410" lon="9.1534080">
        <ele>-22.8</ele>
        <time>2022-06-09T12:30:22Z</time>
      </trkpt>
      <trkpt lat="47.6750210" lon="9.1531810">
        <ele>-23.8</ele>
        <time>2022-06-09T12:30:26Z</time>
      </trkpt>
      <trkpt lat="47.6751050" lon="9.1529750">
        <ele>-23.8</ele>
        <time>2022-06-09T12:30:30Z</time>
      </trkpt>
      <trkpt lat="47.6752080" lon="9.1528330">
        <ele>-23.6</ele>
        <time>2022-06-09T12:30:34Z</time>
      </trkpt>
      <trkpt lat="47.6752680" lon="9.1526110">
        <ele>-22.6</ele>
        <time>2022-06-09T12:30:38Z</time>
      </trkpt>
      <trkpt lat="47.6753360" lon="9.1523750">
        <ele>-23.2</ele>
        <time>2022-06-09T12:30:42Z</time>
      </trkpt>
      <trkpt lat="47.6754450" lon="9.1521480">
        <ele>-23.6</ele>
        <time>2022-06-09T12:30:46Z</time>
      </trkpt>
      <trkpt lat="47.6755580" lon="9.1519250">
        <ele>-23.4</ele>
        <time>2022-06-09T12:30:50Z</time>
      </trkpt>
      <trkpt lat="47.6756750" lon="9.1517010">
        <ele>-23.8</ele>
        <time>2022-06-09T12:30:54Z</time>
      </trkpt>
      <trkpt lat="47.6757950" lon="9.1514830">
        <ele>-23.6</ele>
        <time>2022-06-09T12:30:58Z</time>
      </trkpt>
      <trkpt lat="47.6759200" lon="9.1512610">
        <ele>-23.2</ele>
        <time>2022-06-09T12:31:02Z</time>
      </trkpt>
      <trkpt lat="47.6760550" lon="9.1510580">
        <ele>-23.2</ele>
        <time>2022-06-09T12:31:06Z</time>
      </trkpt>
      <trkpt lat="47.6761860" lon="9.1508530">
        <ele>-23.2</ele>
        <time>2022-06-09T12:31:10Z</time>
      </trkpt>
      <trkpt lat="47.6763210" lon="9.1506510">
        <ele>-23.6</ele>
        <time>2022-06-09T12:31:14Z</time>
      </trkpt>
      <trkpt lat="47.6764650" lon="9.1504460">
        <ele>-23.4</ele>
        <time>2022-06-09T12:31:18Z</time>
      </trkpt>
      <trkpt lat="47.6766050" lon="9.1502400">
        <ele>-23.2</ele>
        <time>2022-06-09T12:31:22Z</time>
      </trkpt>
      <trkpt lat="47.6767430" lon="9.1500330">
        <ele>-23.8</ele>
        <time>2022-06-09T12:31:26Z</time>
      </trkpt>
      <trkpt lat="47.6768860" lon="9.1498360">
        <ele>-24.0</ele>
        <time>2022-06-09T12:31:30Z</time>
      </trkpt>
      <trkpt lat="47.6770200" lon="9.1496210">
        <ele>-24.2</ele>
        <time>2022-06-09T12:31:34Z</time>
      </trkpt>
      <trkpt lat="47.6771530" lon="9.1494060">
        <ele>-23.6</ele>
        <time>2022-06-09T12:31:38Z</time>
      </trkpt>
      <trkpt lat="47.6772830" lon="9.1491800">
        <ele>-23.6</ele>
        <time>2022-06-09T12:31:42Z</time>
      </trkpt>
      <trkpt lat="47.6774050" lon="9.1489400">
        <ele>-23.8</ele>
        <time>2022-06-09T12:31:46Z</time>
      </trkpt>
      <trkpt lat="47.6775210" lon="9.1487000">
        <ele>-24.2</ele>
        <time>2022-06-09T12:31:50Z</time>
      </trkpt>
      <trkpt lat="47.6776210" lon="9.1484560">
        <ele>-23.0</ele>
        <time>2022-06-09T12:31:54Z</time>
      </trkpt>
      <trkpt lat="47.6777160" lon="9.1482180">
        <ele>-23.6</ele>
        <time>2022-06-09T12:31:58Z</time>
      </trkpt>
      <trkpt lat="47.6778000" lon="9.1479650">
        <ele>-24.0</ele>
        <time>2022-06-09T12:32:02Z</time>
      </trkpt>
      <trkpt lat="47.6778830" lon="9.1477050">
        <ele>-23.8</ele>
        <time>2022-06-09T12:32:06Z</time>
      </trkpt>
      <trkpt lat="47.6779500" lon="9.1474400">
        <ele>-23.2</ele>
        <time>2022-06-09T12:32:10Z</time>
      </trkpt>
      <trkpt lat="47.6780080" lon="9.1471700">
        <ele>-23.8</ele>
        <time>2022-06-09T12:32:14Z</time>
      </trkpt>
      <trkpt lat="47.6780780" lon="9.1469100">
        <ele>-23.8</ele>
        <time>2022-06-09T12:32:18Z</time>
      </trkpt>
      <trkpt lat="47.6781460" lon="9.1466430">
        <ele>-24.2</ele>
        <time>2022-06-09T12:32:22Z</time>
      </trkpt>
      <trkpt lat="47.6782010" lon="9.1463750">
        <ele>-24.6</ele>
        <time>2022-06-09T12:32:26Z</time>
      </trkpt>
      <trkpt lat="47.6782630" lon="9.1461110">
        <ele>-24.0</ele>
        <time>2022-06-09T12:32:30Z</time>
      </trkpt>
      <trkpt lat="47.6783900" lon="9.1459180">
        <ele>-24.4</ele>
        <time>2022-06-09T12:32:34Z</time>
      </trkpt>
      <trkpt lat="47.6785810" lon="9.1459550">
        <ele>-24.4</ele>
        <time>2022-06-09T12:32:38Z</time>
      </trkpt>
      <trkpt lat="47.6787510" lon="9.1460800">
        <ele>-24.0</ele>
        <time>2022-06-09T12:32:42Z</time>
      </trkpt>
      <trkpt lat="47.6789150" lon="9.1462180">
        <ele>-23.8</ele>
        <time>2022-06-09T12:32:46Z</time>
      </trkpt>
      <trkpt lat="47.6790680" lon="9.1463310">
        <ele>-24.2</ele>
        <time>2022-06-09T12:32:50Z</time>
      </trkpt>
      <trkpt lat="47.6792160" lon="9.1464510">
        <ele>-24.0</ele>
        <time>2022-06-09T12:32:54Z</time>
      </trkpt>
      <trkpt lat="47.6793780" lon="9.1465810">
        <ele>-23.8</ele>
        <time>2022-06-09T12:32:58Z</time>
      </trkpt>
      <trkpt lat="47.6795310" lon="9.1467060">
        <ele>-23.2</ele>
        <time>2022-06-09T12:33:02Z</time>
      </trkpt>
      <trkpt lat="47.6796830" lon="9.1468260">
        <ele>-22.8</ele>
        <time>2022-06-09T12:33:06Z</time>
      </trkpt>
      <trkpt lat="47.6798300" lon="9.1469410">
        <ele>-23.0</ele>
        <time>2022-06-09T12:33:10Z</time>
      </trkpt>
      <trkpt lat="47.6799760" lon="9.1470550">
        <ele>-23.2</ele>
        <time>2022-06-09T12:33:14Z</time>
      </trkpt>
      <trkpt lat="47.6801230" lon="9.1471560">
        <ele>-23.2</ele>
        <time>2022-06-09T12:33:18Z</time>
      </trkpt>
      <trkpt lat="47.6802510" lon="9.1473130">
        <ele>-23.0</ele>
        <time>2022-06-09T12:33:22Z</time>
      </trkpt>
      <trkpt lat="47.6803900" lon="9.1474530">
        <ele>-24.2</ele>
        <time>2022-06-09T12:33:26Z</time>
      </trkpt>
      <trkpt lat="47.6805700" lon="9.1474530">
        <ele>-23.2</ele>
        <time>2022-06-09T12:33:30Z</time>
      </trkpt>
      <trkpt lat="47.6806800" lon="9.1473430">
        <ele>-23.6</ele>
        <time>2022-06-09T12:33:34Z</time>
      </trkpt>
      <trkpt lat="47.6807560" lon="9.1471560">
        <ele>-23.8</ele>
        <time>2022-06-09T12:33:38Z</time>
      </trkpt>
      <trkpt lat="47.6807480" lon="9.1469130">
        <ele>-22.2</ele>
        <time>2022-06-09T12:33:42Z</time>
      </trkpt>
      <trkpt lat="47.6807430" lon="9.1466900">
        <ele>-22.4</ele>
        <time>2022-06-09T12:33:46Z</time>
      </trkpt>
      <trkpt lat="47.6808160" lon="9.1464800">
        <ele>-22.4</ele>
        <time>2022-06-09T12:33:50Z</time>
      </trkpt>
      <trkpt lat="47.6808780" lon="9.1462500">
        <ele>-22.4</ele>
        <time>2022-06-09T12:33:54Z</time>
      </trkpt>
      <trkpt lat="47.6809450" lon="9.1460460">
        <ele>-22.6</ele>
        <time>2022-06-09T12:33:58Z</time>
      </trkpt>
      <trkpt lat="47.6810100" lon="9.1458380">
        <ele>-22.8</ele>
        <time>2022-06-09T12:34:02Z</time>
      </trkpt>
      <trkpt lat="47.6810750" lon="9.1456330">
        <ele>-23.2</ele>
        <time>2022-06-09T12:34:06Z</time>
      </trkpt>
      <trkpt lat="47.6811460" lon="9.1454080">
        <ele>-23.2</ele>
        <time>2022-06-09T12:34:10Z</time>
      </trkpt>
      <trkpt lat="47.6812200" lon="9.1452000">
        <ele>-22.8</ele>
        <time>2022-06-09T12:34:14Z</time>
      </trkpt>
      <trkpt lat="47.6812800" lon="9.1450030">
        <ele>-23.0</ele>
        <time>2022-06-09T12:34:18Z</time>
      </trkpt>
      <trkpt lat="47.6813430" lon="9.1448130">
        <ele>-23.2</ele>
        <time>2022-06-09T12:34:22Z</time>
      </trkpt>
      <trkpt lat="47.6814000" lon="9.1446180">
        <ele>-22.8</ele>
        <time>2022-06-09T12:34:26Z</time>
      </trkpt>
      <trkpt lat="47.6814660" lon="9.1444010">
        <ele>-23.4</ele>
        <time>2022-06-09T12:34:30Z</time>
      </trkpt>
      <trkpt lat="47.6815410" lon="9.1441910">
        <ele>-23.2</ele>
        <time>2022-06-09T12:34:34Z</time>
      </trkpt>
      <trkpt lat="47.6816150" lon="9.1439730">
        <ele>-23.8</ele>
        <time>2022-06-09T12:34:38Z</time>
      </trkpt>
      <trkpt lat="47.6816910" lon="9.1437410">
        <ele>-23.2</ele>
        <time>2022-06-09T12:34:42Z</time>
      </trkpt>
      <trkpt lat="47.6817660" lon="9.1435080">
        <ele>-23.8</ele>
        <time>2022-06-09T12:34:46Z</time>
      </trkpt>
      <trkpt lat="47.6818450" lon="9.1432700">
        <ele>-23.8</ele>
        <time>2022-06-09T12:34:50Z</time>
      </trkpt>
      <trkpt lat="47.6819110" lon="9.1430480">
        <ele>-23.2</ele>
        <time>2022-06-09T12:34:54Z</time>
      </trkpt>
      <trkpt lat="47.6819880" lon="9.1428180">
        <ele>-23.8</ele>
        <time>2022-06-09T12:34:58Z</time>
      </trkpt>
      <trkpt lat="47.6820610" lon="9.1425910">
        <ele>-24.2</ele>
        <time>2022-06-09T12:35:02Z</time>
      </trkpt>
      <trkpt lat="47.6821280" lon="9.1423780">
        <ele>-23.8</ele>
        <time>2022-06-09T12:35:06Z</time>
      </trkpt>
      <trkpt lat="47.6821950" lon="9.1421730">
        <ele>-23.2</ele>
        <time>2022-06-09T12:35:10Z</time>
      </trkpt>
      <trkpt lat="47.6822580" lon="9.1419680">
        <ele>-22.8</ele>
        <time>2022-06-09T12:35:14Z</time>
      </trkpt>
      <trkpt lat="47.6823210" lon="9.1417700">
        <ele>-22.8</ele>
        <time>2022-06-09T12:35:18Z</time>
      </trkpt>
      <trkpt lat="47.6823830" lon="9.1415880">
        <ele>-23.4</ele>
        <time>2022-06-09T12:35:22Z</time>
      </trkpt>
      <trkpt lat="47.6824430" lon="9.1414050">
        <ele>-23.8</ele>
        <time>2022-06-09T12:35:26Z</time>
      </trkpt>
      <trkpt lat="47.6825080" lon="9.1412160">
        <ele>-23.4</ele>
        <time>2022-06-09T12:35:30Z</time>
      </trkpt>
      <trkpt lat="47.6825550" lon="9.1410710">
        <ele>-23.4</ele>
        <time>2022-06-09T12:35:34Z</time>
      </trkpt>
      <trkpt lat="47.6826050" lon="9.1409730">
        <ele>-23.2</ele>
        <time>2022-06-09T12:35:38Z</time>
      </trkpt>
      <trkpt lat="47.6826150" lon="9.1408980">
        <ele>-23.2</ele>
        <time>2022-06-09T12:35:42Z</time>
      </trkpt>
      <trkpt lat="47.6826150" lon="9.1408980">
        <ele>-23.2</ele>
        <time>2022-06-09T12:35:46Z</time>
      </trkpt>
      <trkpt lat="47.6826150" lon="9.1408980">
        <ele>-23.2</ele>
        <time>2022-06-09T12:35:50Z</time>
      </trkpt>
      <trkpt lat="47.6826150" lon="9.1408980">
        <ele>-23.6</ele>
        <time>2022-06-09T12:35:54Z</time>
      </trkpt>
      <trkpt lat="47.6826150" lon="9.1408980">
        <ele>-23.2</ele>
        <time>2022-06-09T12:35:58Z</time>
      </trkpt>
      <trkpt lat="47.6826150" lon="9.1408980">
        <ele>-23.2</ele>
        <time>2022-06-09T12:36:02Z</time>
      </trkpt>
      <trkpt lat="47.6826150" lon="9.1408980">
        <ele>-23.8</ele>
        <time>2022-06-09T12:36:06Z</time>
      </trkpt>
      <trkpt lat="47.6826080" lon="9.1408630">
        <ele>-23.2</ele>
        <time>2022-06-09T12:36:10Z</time>
      </trkpt>
      <trkpt lat="47.6826460" lon="9.1407660">
        <ele>-23.6</ele>
        <time>2022-06-09T12:36:14Z</time>
      </trkpt>
      <trkpt lat="47.6826950" lon="9.1406010">
        <ele>-23.2</ele>
        <time>2022-06-09T12:36:18Z</time>
      </trkpt>
      <trkpt lat="47.6827560" lon="9.1404180">
        <ele>-22.6</ele>
        <time>2022-06-09T12:36:22Z</time>
      </trkpt>
      <trkpt lat="47.6828360" lon="9.1402580">
        <ele>-22.6</ele>
        <time>2022-06-09T12:36:26Z</time>
      </trkpt>
      <trkpt lat="47.6828960" lon="9.1400610">
        <ele>-23.2</ele>
        <time>2022-06-09T12:36:30Z</time>
      </trkpt>
      <trkpt lat="47.6829550" lon="9.1398650">
        <ele>-22.4</ele>
        <time>2022-06-09T12:36:34Z</time>
      </trkpt>
      <trkpt lat="47.6830050" lon="9.1397000">
        <ele>-22.6</ele>
        <time>2022-06-09T12:36:38Z</time>
      </trkpt>
      <trkpt lat="47.6830050" lon="9.1397000">
        <ele>-22.8</ele>
        <time>2022-06-09T12:36:42Z</time>
      </trkpt>
      <trkpt lat="47.6829980" lon="9.1396210">
        <ele>-22.6</ele>
        <time>2022-06-09T12:36:46Z</time>
      </trkpt>
      <trkpt lat="47.6830160" lon="9.1395530">
        <ele>-23.0</ele>
        <time>2022-06-09T12:36:50Z</time>
      </trkpt>
      <trkpt lat="47.6830430" lon="9.1394560">
        <ele>-22.8</ele>
        <time>2022-06-09T12:36:54Z</time>
      </trkpt>
      <trkpt lat="47.6829980" lon="9.1393880">
        <ele>-22.4</ele>
        <time>2022-06-09T12:36:58Z</time>
      </trkpt>
      <trkpt lat="47.6830060" lon="9.1392460">
        <ele>-22.6</ele>
        <time>2022-06-09T12:37:02Z</time>
      </trkpt>
      <trkpt lat="47.6830660" lon="9.1390550">
        <ele>-23.0</ele>
        <time>2022-06-09T12:37:06Z</time>
      </trkpt>
      <trkpt lat="47.6831250" lon="9.1388860">
        <ele>-23.6</ele>
        <time>2022-06-09T12:37:10Z</time>
      </trkpt>
      <trkpt lat="47.6831650" lon="9.1387750">
        <ele>-23.0</ele>
        <time>2022-06-09T12:37:14Z</time>
      </trkpt>
      <trkpt lat="47.6832060" lon="9.1386810">
        <ele>-23.2</ele>
        <time>2022-06-09T12:37:18Z</time>
      </trkpt>
      <trkpt lat="47.6831910" lon="9.1386900">
        <ele>-23.2</ele>
        <time>2022-06-09T12:37:22Z</time>
      </trkpt>
      <trkpt lat="47.6831700" lon="9.1387780">
        <ele>-22.6</ele>
        <time>2022-06-09T12:37:26Z</time>
      </trkpt>
      <trkpt lat="47.6831400" lon="9.1388730">
        <ele>-22.8</ele>
        <time>2022-06-09T12:37:30Z</time>
      </trkpt>
      <trkpt lat="47.6831130" lon="9.1389810">
        <ele>-23.0</ele>
        <time>2022-06-09T12:37:34Z</time>
      </trkpt>
      <trkpt lat="47.6830880" lon="9.1391030">
        <ele>-22.6</ele>
        <time>2022-06-09T12:37:38Z</time>
      </trkpt>
      <trkpt lat="47.6830600" lon="9.1391800">
        <ele>-23.0</ele>
        <time>2022-06-09T12:37:42Z</time>
      </trkpt>
      <trkpt lat="47.6830580" lon="9.1392160">
        <ele>-23.0</ele>
        <time>2022-06-09T12:37:46Z</time>
      </trkpt>
      <trkpt lat="47.6830260" lon="9.1392860">
        <ele>-22.6</ele>
        <time>2022-06-09T12:37:50Z</time>
      </trkpt>
      <trkpt lat="47.6830230" lon="9.1393010">
        <ele>-22.8</ele>
        <time>2022-06-09T12:37:54Z</time>
      </trkpt>
      <trkpt lat="47.6830380" lon="9.1392030">
        <ele>-22.6</ele>
        <time>2022-06-09T12:37:58Z</time>
      </trkpt>
      <trkpt lat="47.6830810" lon="9.1390830">
        <ele>-22.8</ele>
        <time>2022-06-09T12:38:02Z</time>
      </trkpt>
      <trkpt lat="47.6831210" lon="9.1389650">
        <ele>-23.8</ele>
        <time>2022-06-09T12:38:06Z</time>
      </trkpt>
      <trkpt lat="47.6831500" lon="9.1388660">
        <ele>-23.4</ele>
        <time>2022-06-09T12:38:10Z</time>
      </trkpt>
      <trkpt lat="47.6831510" lon="9.1388030">
        <ele>-24.8</ele>
        <time>2022-06-09T12:38:14Z</time>
      </trkpt>
      <trkpt lat="47.6830750" lon="9.1387760">
        <ele>-24.6</ele>
        <time>2022-06-09T12:38:18Z</time>
      </trkpt>
      <trkpt lat="47.6830200" lon="9.1388660">
        <ele>-25.0</ele>
        <time>2022-06-09T12:38:22Z</time>
      </trkpt>
      <trkpt lat="47.6829860" lon="9.1389400">
        <ele>-25.2</ele>
        <time>2022-06-09T12:38:26Z</time>
      </trkpt>
      <trkpt lat="47.6829660" lon="9.1390260">
        <ele>-25.2</ele>
        <time>2022-06-09T12:38:30Z</time>
      </trkpt>
      <trkpt lat="47.6829530" lon="9.1390200">
        <ele>-25.2</ele>
        <time>2022-06-09T12:38:34Z</time>
      </trkpt>
      <trkpt lat="47.6829930" lon="9.1389700">
        <ele>-25.0</ele>
        <time>2022-06-09T12:38:38Z</time>
      </trkpt>
      <trkpt lat="47.6829930" lon="9.1389700">
        <ele>-25.4</ele>
        <time>2022-06-09T12:38:42Z</time>
      </trkpt>
      <trkpt lat="47.6829930" lon="9.1389700">
        <ele>-25.6</ele>
        <time>2022-06-09T12:38:46Z</time>
      </trkpt>
      <trkpt lat="47.6829930" lon="9.1389700">
        <ele>-25.2</ele>
        <time>2022-06-09T12:38:50Z</time>
      </trkpt>
      <trkpt lat="47.6829930" lon="9.1389700">
        <ele>-25.4</ele>
        <time>2022-06-09T12:38:54Z</time>
      </trkpt>
      <trkpt lat="47.6829930" lon="9.1389700">
        <ele>-25.4</ele>
        <time>2022-06-09T12:38:58Z</time>
      </trkpt>
      <trkpt lat="47.6829930" lon="9.1389700">
        <ele>-25.6</ele>
        <time>2022-06-09T12:39:02Z</time>
      </trkpt>
      <trkpt lat="47.6829930" lon="9.1389700">
        <ele>-25.6</ele>
        <time>2022-06-09T12:39:06Z</time>
      </trkpt>
      <trkpt lat="47.6829930" lon="9.1389700">
        <ele>-25.6</ele>
        <time>2022-06-09T12:39:10Z</time>
      </trkpt>
      <trkpt lat="47.6830080" lon="9.1389160">
        <ele>-25.4</ele>
        <time>2022-06-09T12:39:14Z</time>
      </trkpt>
      <trkpt lat="47.6829350" lon="9.1390150">
        <ele>-90.8</ele>
        <time>2022-06-10T05:53:46Z</time>
      </trkpt>
      <trkpt lat="47.6829350" lon="9.1390150">
        <ele>-90.8</ele>
        <time>2022-06-10T05:53:50Z</time>
      </trkpt>
      <trkpt lat="47.6829350" lon="9.1390150">
        <ele>-90.6</ele>
        <time>2022-06-10T05:53:54Z</time>
      </trkpt>
      <trkpt lat="47.6829350" lon="9.1390150">
        <ele>-90.8</ele>
        <time>2022-06-10T05:53:58Z</time>
      </trkpt>
      <trkpt lat="47.6829350" lon="9.1390150">
        <ele>-91.2</ele>
        <time>2022-06-10T05:54:02Z</time>
      </trkpt>
      <trkpt lat="47.6829350" lon="9.1390150">
        <ele>-90.8</ele>
        <time>2022-06-10T05:54:06Z</time>
      </trkpt>
      <trkpt lat="47.6829350" lon="9.1390150">
        <ele>-90.8</ele>
        <time>2022-06-10T05:54:10Z</time>
      </trkpt>
      <trkpt lat="47.6829350" lon="9.1390150">
        <ele>-91.0</ele>
        <time>2022-06-10T05:54:14Z</time>
      </trkpt>
      <trkpt lat="47.6829350" lon="9.1390150">
        <ele>-91.0</ele>
        <time>2022-06-10T05:54:18Z</time>
      </trkpt>
      <trkpt lat="47.6829350" lon="9.1390150">
        <ele>-90.8</ele>
        <time>2022-06-10T05:54:22Z</time>
      </trkpt>
      <trkpt lat="47.6829350" lon="9.1390150">
        <ele>-91.2</ele>
        <time>2022-06-10T05:54:26Z</time>
      </trkpt>
      <trkpt lat="47.6829350" lon="9.1390150">
        <ele>-91.2</ele>
        <time>2022-06-10T05:54:30Z</time>
      </trkpt>
      <trkpt lat="47.6829350" lon="9.1390150">
        <ele>-90.8</ele>
        <time>2022-06-10T05:54:34Z</time>
      </trkpt>
      <trkpt lat="47.6829350" lon="9.1390150">
        <ele>-90.6</ele>
        <time>2022-06-10T05:54:38Z</time>
      </trkpt>
      <trkpt lat="47.6829350" lon="9.1390150">
        <ele>-91.0</ele>
        <time>2022-06-10T05:54:42Z</time>
      </trkpt>
      <trkpt lat="47.6829350" lon="9.1390150">
        <ele>-91.0</ele>
        <time>2022-06-10T05:54:46Z</time>
      </trkpt>
      <trkpt lat="47.6829350" lon="9.1390150">
        <ele>-90.8</ele>
        <time>2022-06-10T05:54:50Z</time>
      </trkpt>
      <trkpt lat="47.6829350" lon="9.1390150">
        <ele>-91.0</ele>
        <time>2022-06-10T05:54:54Z</time>
      </trkpt>
      <trkpt lat="47.6829350" lon="9.1390150">
        <ele>-91.2</ele>
        <time>2022-06-10T05:54:58Z</time>
      </trkpt>
      <trkpt lat="47.6829350" lon="9.1390150">
        <ele>-91.0</ele>
        <time>2022-06-10T05:55:02Z</time>
      </trkpt>
      <trkpt lat="47.6829350" lon="9.1390150">
        <ele>-91.0</ele>
        <time>2022-06-10T05:55:06Z</time>
      </trkpt>
      <trkpt lat="47.6829350" lon="9.1390150">
        <ele>-91.4</ele>
        <time>2022-06-10T05:55:10Z</time>
      </trkpt>
      <trkpt lat="47.6829350" lon="9.1390150">
        <ele>-91.2</ele>
        <time>2022-06-10T05:55:14Z</time>
      </trkpt>
      <trkpt lat="47.6829350" lon="9.1390150">
        <ele>-91.0</ele>
        <time>2022-06-10T05:55:18Z</time>
      </trkpt>
      <trkpt lat="47.6829350" lon="9.1390150">
        <ele>-91.0</ele>
        <time>2022-06-10T05:55:22Z</time>
      </trkpt>
      <trkpt lat="47.6829350" lon="9.1390150">
        <ele>-91.2</ele>
        <time>2022-06-10T05:55:26Z</time>
      </trkpt>
      <trkpt lat="47.6829350" lon="9.1390150">
        <ele>-90.6</ele>
        <time>2022-06-10T05:55:30Z</time>
      </trkpt>
      <trkpt lat="47.6829350" lon="9.1390150">
        <ele>-90.6</ele>
        <time>2022-06-10T05:55:34Z</time>
      </trkpt>
      <trkpt lat="47.6829580" lon="9.1389300">
        <ele>-90.6</ele>
        <time>2022-06-10T05:55:38Z</time>
      </trkpt>
      <trkpt lat="47.6829780" lon="9.1388450">
        <ele>-90.8</ele>
        <time>2022-06-10T05:55:42Z</time>
      </trkpt>
      <trkpt lat="47.6830030" lon="9.1387680">
        <ele>-90.4</ele>
        <time>2022-06-10T05:55:46Z</time>
      </trkpt>
      <trkpt lat="47.6830460" lon="9.1387630">
        <ele>-90.2</ele>
        <time>2022-06-10T05:55:50Z</time>
      </trkpt>
      <trkpt lat="47.6830810" lon="9.1387530">
        <ele>-89.6</ele>
        <time>2022-06-10T05:55:54Z</time>
      </trkpt>
      <trkpt lat="47.6830810" lon="9.1387530">
        <ele>-89.0</ele>
        <time>2022-06-10T05:55:58Z</time>
      </trkpt>
      <trkpt lat="47.6830810" lon="9.1387530">
        <ele>-89.0</ele>
        <time>2022-06-10T05:56:02Z</time>
      </trkpt>
      <trkpt lat="47.6830810" lon="9.1387530">
        <ele>-89.4</ele>
        <time>2022-06-10T05:56:06Z</time>
      </trkpt>
      <trkpt lat="47.6830810" lon="9.1387530">
        <ele>-89.2</ele>
        <time>2022-06-10T05:56:10Z</time>
      </trkpt>
      <trkpt lat="47.6830810" lon="9.1387530">
        <ele>-89.2</ele>
        <time>2022-06-10T05:56:14Z</time>
      </trkpt>
      <trkpt lat="47.6830810" lon="9.1387530">
        <ele>-89.4</ele>
        <time>2022-06-10T05:56:18Z</time>
      </trkpt>
      <trkpt lat="47.6830810" lon="9.1387530">
        <ele>-89.2</ele>
        <time>2022-06-10T05:56:22Z</time>
      </trkpt>
      <trkpt lat="47.6830810" lon="9.1387530">
        <ele>-89.2</ele>
        <time>2022-06-10T05:56:26Z</time>
      </trkpt>
      <trkpt lat="47.6830810" lon="9.1387530">
        <ele>-88.8</ele>
        <time>2022-06-10T05:56:30Z</time>
      </trkpt>
      <trkpt lat="47.6830810" lon="9.1387530">
        <ele>-89.2</ele>
        <time>2022-06-10T05:56:34Z</time>
      </trkpt>
      <trkpt lat="47.6830810" lon="9.1387530">
        <ele>-89.6</ele>
        <time>2022-06-10T05:56:38Z</time>
      </trkpt>
      <trkpt lat="47.6830810" lon="9.1387530">
        <ele>-89.2</ele>
        <time>2022-06-10T05:56:42Z</time>
      </trkpt>
      <trkpt lat="47.6830810" lon="9.1387530">
        <ele>-89.2</ele>
        <time>2022-06-10T05:56:46Z</time>
      </trkpt>
      <trkpt lat="47.6830810" lon="9.1387530">
        <ele>-89.0</ele>
        <time>2022-06-10T05:56:50Z</time>
      </trkpt>
      <trkpt lat="47.6830810" lon="9.1387530">
        <ele>-89.2</ele>
        <time>2022-06-10T05:56:54Z</time>
      </trkpt>
      <trkpt lat="47.6830810" lon="9.1387530">
        <ele>-89.0</ele>
        <time>2022-06-10T05:56:58Z</time>
      </trkpt>
      <trkpt lat="47.6830810" lon="9.1387530">
        <ele>-89.2</ele>
        <time>2022-06-10T05:57:02Z</time>
      </trkpt>
      <trkpt lat="47.6830810" lon="9.1387530">
        <ele>-89.4</ele>
        <time>2022-06-10T05:57:06Z</time>
      </trkpt>
      <trkpt lat="47.6830810" lon="9.1387530">
        <ele>-89.0</ele>
        <time>2022-06-10T05:57:10Z</time>
      </trkpt>
      <trkpt lat="47.6830810" lon="9.1387530">
        <ele>-89.6</ele>
        <time>2022-06-10T05:57:14Z</time>
      </trkpt>
      <trkpt lat="47.6830810" lon="9.1387530">
        <ele>-89.2</ele>
        <time>2022-06-10T05:57:18Z</time>
      </trkpt>
      <trkpt lat="47.6830810" lon="9.1387530">
        <ele>-89.4</ele>
        <time>2022-06-10T05:57:22Z</time>
      </trkpt>
      <trkpt lat="47.6830810" lon="9.1387530">
        <ele>-89.6</ele>
        <time>2022-06-10T05:57:26Z</time>
      </trkpt>
      <trkpt lat="47.6830810" lon="9.1387530">
        <ele>-89.6</ele>
        <time>2022-06-10T05:57:30Z</time>
      </trkpt>
      <trkpt lat="47.6831660" lon="9.1387910">
        <ele>-89.8</ele>
        <time>2022-06-10T05:57:34Z</time>
      </trkpt>
      <trkpt lat="47.6831550" lon="9.1388000">
        <ele>-89.4</ele>
        <time>2022-06-10T05:57:38Z</time>
      </trkpt>
      <trkpt lat="47.6831280" lon="9.1388380">
        <ele>-89.2</ele>
        <time>2022-06-10T05:57:42Z</time>
      </trkpt>
      <trkpt lat="47.6831160" lon="9.1388880">
        <ele>-89.0</ele>
        <time>2022-06-10T05:57:46Z</time>
      </trkpt>
      <trkpt lat="47.6830980" lon="9.1389410">
        <ele>-89.2</ele>
        <time>2022-06-10T05:57:50Z</time>
      </trkpt>
      <trkpt lat="47.6830760" lon="9.1389980">
        <ele>-88.8</ele>
        <time>2022-06-10T05:57:54Z</time>
      </trkpt>
      <trkpt lat="47.6830550" lon="9.1390680">
        <ele>-89.0</ele>
        <time>2022-06-10T05:57:58Z</time>
      </trkpt>
      <trkpt lat="47.6830280" lon="9.1391360">
        <ele>-89.6</ele>
        <time>2022-06-10T05:58:02Z</time>
      </trkpt>
      <trkpt lat="47.6830010" lon="9.1392310">
        <ele>-89.6</ele>
        <time>2022-06-10T05:58:06Z</time>
      </trkpt>
      <trkpt lat="47.6829660" lon="9.1393400">
        <ele>-90.0</ele>
        <time>2022-06-10T05:58:10Z</time>
      </trkpt>
      <trkpt lat="47.6829310" lon="9.1394650">
        <ele>-89.8</ele>
        <time>2022-06-10T05:58:14Z</time>
      </trkpt>
      <trkpt lat="47.6828950" lon="9.1395930">
        <ele>-89.4</ele>
        <time>2022-06-10T05:58:18Z</time>
      </trkpt>
      <trkpt lat="47.6828510" lon="9.1397300">
        <ele>-89.6</ele>
        <time>2022-06-10T05:58:22Z</time>
      </trkpt>
      <trkpt lat="47.6828030" lon="9.1398760">
        <ele>-89.8</ele>
        <time>2022-06-10T05:58:26Z</time>
      </trkpt>
      <trkpt lat="47.6827510" lon="9.1400360">
        <ele>-90.0</ele>
        <time>2022-06-10T05:58:30Z</time>
      </trkpt>
      <trkpt lat="47.6826960" lon="9.1402080">
        <ele>-89.8</ele>
        <time>2022-06-10T05:58:34Z</time>
      </trkpt>
      <trkpt lat="47.6826350" lon="9.1403850">
        <ele>-90.0</ele>
        <time>2022-06-10T05:58:38Z</time>
      </trkpt>
      <trkpt lat="47.6825800" lon="9.1405610">
        <ele>-90.0</ele>
        <time>2022-06-10T05:58:42Z</time>
      </trkpt>
      <trkpt lat="47.6825210" lon="9.1407530">
        <ele>-90.4</ele>
        <time>2022-06-10T05:58:46Z</time>
      </trkpt>
      <trkpt lat="47.6824560" lon="9.1409410">
        <ele>-90.4</ele>
        <time>2022-06-10T05:58:50Z</time>
      </trkpt>
      <trkpt lat="47.6824000" lon="9.1411310">
        <ele>-90.0</ele>
        <time>2022-06-10T05:58:54Z</time>
      </trkpt>
      <trkpt lat="47.6823410" lon="9.1413230">
        <ele>-90.0</ele>
        <time>2022-06-10T05:58:58Z</time>
      </trkpt>
      <trkpt lat="47.6822710" lon="9.1415180">
        <ele>-89.6</ele>
        <time>2022-06-10T05:59:02Z</time>
      </trkpt>
      <trkpt lat="47.6822080" lon="9.1417150">
        <ele>-90.2</ele>
        <time>2022-06-10T05:59:06Z</time>
      </trkpt>
      <trkpt lat="47.6821350" lon="9.1419050">
        <ele>-90.0</ele>
        <time>2022-06-10T05:59:10Z</time>
      </trkpt>
      <trkpt lat="47.6820580" lon="9.1420960">
        <ele>-90.2</ele>
        <time>2022-06-10T05:59:14Z</time>
      </trkpt>
      <trkpt lat="47.6819950" lon="9.1422950">
        <ele>-90.2</ele>
        <time>2022-06-10T05:59:18Z</time>
      </trkpt>
      <trkpt lat="47.6819360" lon="9.1424880">
        <ele>-90.6</ele>
        <time>2022-06-10T05:59:22Z</time>
      </trkpt>
      <trkpt lat="47.6818800" lon="9.1426810">
        <ele>-90.8</ele>
        <time>2022-06-10T05:59:26Z</time>
      </trkpt>
      <trkpt lat="47.6818350" lon="9.1428810">
        <ele>-90.8</ele>
        <time>2022-06-10T05:59:30Z</time>
      </trkpt>
      <trkpt lat="47.6817750" lon="9.1430710">
        <ele>-90.8</ele>
        <time>2022-06-10T05:59:34Z</time>
      </trkpt>
      <trkpt lat="47.6817180" lon="9.1432580">
        <ele>-90.4</ele>
        <time>2022-06-10T05:59:38Z</time>
      </trkpt>
      <trkpt lat="47.6816560" lon="9.1434530">
        <ele>-91.0</ele>
        <time>2022-06-10T05:59:42Z</time>
      </trkpt>
      <trkpt lat="47.6815930" lon="9.1436510">
        <ele>-90.2</ele>
        <time>2022-06-10T05:59:46Z</time>
      </trkpt>
      <trkpt lat="47.6815310" lon="9.1438400">
        <ele>-90.2</ele>
        <time>2022-06-10T05:59:50Z</time>
      </trkpt>
      <trkpt lat="47.6814660" lon="9.1440380">
        <ele>-90.2</ele>
        <time>2022-06-10T05:59:54Z</time>
      </trkpt>
      <trkpt lat="47.6814030" lon="9.1442430">
        <ele>-90.4</ele>
        <time>2022-06-10T05:59:58Z</time>
      </trkpt>
      <trkpt lat="47.6813260" lon="9.1444380">
        <ele>-90.2</ele>
        <time>2022-06-10T06:00:02Z</time>
      </trkpt>
      <trkpt lat="47.6812460" lon="9.1446230">
        <ele>-90.0</ele>
        <time>2022-06-10T06:00:06Z</time>
      </trkpt>
      <trkpt lat="47.6811710" lon="9.1448200">
        <ele>-90.2</ele>
        <time>2022-06-10T06:00:10Z</time>
      </trkpt>
      <trkpt lat="47.6811060" lon="9.1450180">
        <ele>-90.4</ele>
        <time>2022-06-10T06:00:14Z</time>
      </trkpt>
      <trkpt lat="47.6810430" lon="9.1452110">
        <ele>-90.6</ele>
        <time>2022-06-10T06:00:18Z</time>
      </trkpt>
      <trkpt lat="47.6809800" lon="9.1454080">
        <ele>-90.2</ele>
        <time>2022-06-10T06:00:22Z</time>
      </trkpt>
      <trkpt lat="47.6809130" lon="9.1456110">
        <ele>-90.2</ele>
        <time>2022-06-10T06:00:26Z</time>
      </trkpt>
      <trkpt lat="47.6808560" lon="9.1458110">
        <ele>-90.6</ele>
        <time>2022-06-10T06:00:30Z</time>
      </trkpt>
      <trkpt lat="47.6807950" lon="9.1460080">
        <ele>-90.2</ele>
        <time>2022-06-10T06:00:34Z</time>
      </trkpt>
      <trkpt lat="47.6807250" lon="9.1462150">
        <ele>-90.6</ele>
        <time>2022-06-10T06:00:38Z</time>
      </trkpt>
      <trkpt lat="47.6806580" lon="9.1464200">
        <ele>-90.8</ele>
        <time>2022-06-10T06:00:42Z</time>
      </trkpt>
      <trkpt lat="47.6805700" lon="9.1465960">
        <ele>-90.8</ele>
        <time>2022-06-10T06:00:46Z</time>
      </trkpt>
      <trkpt lat="47.6804450" lon="9.1466530">
        <ele>-90.2</ele>
        <time>2022-06-10T06:00:50Z</time>
      </trkpt>
      <trkpt lat="47.6803230" lon="9.1467450">
        <ele>-90.4</ele>
        <time>2022-06-10T06:00:54Z</time>
      </trkpt>
      <trkpt lat="47.6802400" lon="9.1469080">
        <ele>-90.8</ele>
        <time>2022-06-10T06:00:58Z</time>
      </trkpt>
      <trkpt lat="47.6802150" lon="9.1471080">
        <ele>-90.8</ele>
        <time>2022-06-10T06:01:02Z</time>
      </trkpt>
      <trkpt lat="47.6801830" lon="9.1472000">
        <ele>-90.6</ele>
        <time>2022-06-10T06:01:06Z</time>
      </trkpt>
      <trkpt lat="47.6801000" lon="9.1471460">
        <ele>-90.2</ele>
        <time>2022-06-10T06:01:10Z</time>
      </trkpt>
      <trkpt lat="47.6800250" lon="9.1471000">
        <ele>-91.0</ele>
        <time>2022-06-10T06:01:14Z</time>
      </trkpt>
      <trkpt lat="47.6799560" lon="9.1470400">
        <ele>-90.8</ele>
        <time>2022-06-10T06:01:18Z</time>
      </trkpt>
      <trkpt lat="47.6798630" lon="9.1469680">
        <ele>-91.2</ele>
        <time>2022-06-10T06:01:22Z</time>
      </trkpt>
      <trkpt lat="47.6797680" lon="9.1468710">
        <ele>-91.0</ele>
        <time>2022-06-10T06:01:26Z</time>
      </trkpt>
      <trkpt lat="47.6796580" lon="9.1467860">
        <ele>-91.2</ele>
        <time>2022-06-10T06:01:30Z</time>
      </trkpt>
      <trkpt lat="47.6795450" lon="9.1466930">
        <ele>-90.8</ele>
        <time>2022-06-10T06:01:34Z</time>
      </trkpt>
      <trkpt lat="47.6794250" lon="9.1466060">
        <ele>-91.4</ele>
        <time>2022-06-10T06:01:38Z</time>
      </trkpt>
      <trkpt lat="47.6793100" lon="9.1465130">
        <ele>-91.4</ele>
        <time>2022-06-10T06:01:42Z</time>
      </trkpt>
      <trkpt lat="47.6791880" lon="9.1464160">
        <ele>-91.6</ele>
        <time>2022-06-10T06:01:46Z</time>
      </trkpt>
      <trkpt lat="47.6790660" lon="9.1463280">
        <ele>-91.8</ele>
        <time>2022-06-10T06:01:50Z</time>
      </trkpt>
      <trkpt lat="47.6789450" lon="9.1462350">
        <ele>-92.0</ele>
        <time>2022-06-10T06:01:54Z</time>
      </trkpt>
      <trkpt lat="47.6788230" lon="9.1461300">
        <ele>-92.0</ele>
        <time>2022-06-10T06:01:58Z</time>
      </trkpt>
      <trkpt lat="47.6786960" lon="9.1460310">
        <ele>-91.6</ele>
        <time>2022-06-10T06:02:02Z</time>
      </trkpt>
      <trkpt lat="47.6785650" lon="9.1459350">
        <ele>-91.8</ele>
        <time>2022-06-10T06:02:06Z</time>
      </trkpt>
      <trkpt lat="47.6784380" lon="9.1459030">
        <ele>-91.8</ele>
        <time>2022-06-10T06:02:10Z</time>
      </trkpt>
      <trkpt lat="47.6783610" lon="9.1459300">
        <ele>-91.8</ele>
        <time>2022-06-10T06:02:14Z</time>
      </trkpt>
      <trkpt lat="47.6783610" lon="9.1459300">
        <ele>-91.6</ele>
        <time>2022-06-10T06:02:18Z</time>
      </trkpt>
      <trkpt lat="47.6783610" lon="9.1459300">
        <ele>-91.8</ele>
        <time>2022-06-10T06:02:22Z</time>
      </trkpt>
      <trkpt lat="47.6783610" lon="9.1459300">
        <ele>-91.8</ele>
        <time>2022-06-10T06:02:26Z</time>
      </trkpt>
      <trkpt lat="47.6783610" lon="9.1459300">
        <ele>-91.8</ele>
        <time>2022-06-10T06:02:30Z</time>
      </trkpt>
      <trkpt lat="47.6783610" lon="9.1459300">
        <ele>-92.2</ele>
        <time>2022-06-10T06:02:34Z</time>
      </trkpt>
      <trkpt lat="47.6783610" lon="9.1459300">
        <ele>-92.0</ele>
        <time>2022-06-10T06:02:38Z</time>
      </trkpt>
      <trkpt lat="47.6783610" lon="9.1459300">
        <ele>-92.2</ele>
        <time>2022-06-10T06:02:42Z</time>
      </trkpt>
      <trkpt lat="47.6783610" lon="9.1459300">
        <ele>-91.6</ele>
        <time>2022-06-10T06:02:46Z</time>
      </trkpt>
      <trkpt lat="47.6783610" lon="9.1459300">
        <ele>-92.2</ele>
        <time>2022-06-10T06:02:50Z</time>
      </trkpt>
      <trkpt lat="47.6783610" lon="9.1459300">
        <ele>-91.6</ele>
        <time>2022-06-10T06:02:54Z</time>
      </trkpt>
      <trkpt lat="47.6783610" lon="9.1459300">
        <ele>-91.8</ele>
        <time>2022-06-10T06:02:58Z</time>
      </trkpt>
      <trkpt lat="47.6783610" lon="9.1459300">
        <ele>-91.8</ele>
        <time>2022-06-10T06:03:02Z</time>
      </trkpt>
      <trkpt lat="47.6783610" lon="9.1459300">
        <ele>-92.2</ele>
        <time>2022-06-10T06:03:06Z</time>
      </trkpt>
      <trkpt lat="47.6783610" lon="9.1459300">
        <ele>-91.8</ele>
        <time>2022-06-10T06:03:10Z</time>
      </trkpt>
      <trkpt lat="47.6783610" lon="9.1459300">
        <ele>-91.6</ele>
        <time>2022-06-10T06:03:14Z</time>
      </trkpt>
      <trkpt lat="47.6783610" lon="9.1459300">
        <ele>-91.6</ele>
        <time>2022-06-10T06:03:18Z</time>
      </trkpt>
      <trkpt lat="47.6783610" lon="9.1459300">
        <ele>-92.0</ele>
        <time>2022-06-10T06:03:22Z</time>
      </trkpt>
      <trkpt lat="47.6783610" lon="9.1459300">
        <ele>-92.4</ele>
        <time>2022-06-10T06:03:26Z</time>
      </trkpt>
      <trkpt lat="47.6783610" lon="9.1459300">
        <ele>-92.2</ele>
        <time>2022-06-10T06:03:30Z</time>
      </trkpt>
      <trkpt lat="47.6783610" lon="9.1459300">
        <ele>-92.2</ele>
        <time>2022-06-10T06:03:34Z</time>
      </trkpt>
      <trkpt lat="47.6783610" lon="9.1459300">
        <ele>-92.0</ele>
        <time>2022-06-10T06:03:38Z</time>
      </trkpt>
      <trkpt lat="47.6783610" lon="9.1459300">
        <ele>-92.0</ele>
        <time>2022-06-10T06:03:42Z</time>
      </trkpt>
      <trkpt lat="47.6783610" lon="9.1459300">
        <ele>-92.0</ele>
        <time>2022-06-10T06:03:46Z</time>
      </trkpt>
      <trkpt lat="47.6783610" lon="9.1459300">
        <ele>-92.2</ele>
        <time>2022-06-10T06:03:50Z</time>
      </trkpt>
      <trkpt lat="47.6783610" lon="9.1459300">
        <ele>-92.2</ele>
        <time>2022-06-10T06:03:54Z</time>
      </trkpt>
      <trkpt lat="47.6783610" lon="9.1459300">
        <ele>-92.4</ele>
        <time>2022-06-10T06:03:58Z</time>
      </trkpt>
      <trkpt lat="47.6783610" lon="9.1459300">
        <ele>-92.0</ele>
        <time>2022-06-10T06:04:02Z</time>
      </trkpt>
      <trkpt lat="47.6783610" lon="9.1459300">
        <ele>-92.2</ele>
        <time>2022-06-10T06:04:06Z</time>
      </trkpt>
      <trkpt lat="47.6783610" lon="9.1459300">
        <ele>-92.2</ele>
        <time>2022-06-10T06:04:10Z</time>
      </trkpt>
      <trkpt lat="47.6783610" lon="9.1459300">
        <ele>-92.6</ele>
        <time>2022-06-10T06:04:14Z</time>
      </trkpt>
      <trkpt lat="47.6783610" lon="9.1459300">
        <ele>-92.2</ele>
        <time>2022-06-10T06:04:18Z</time>
      </trkpt>
      <trkpt lat="47.6783610" lon="9.1459300">
        <ele>-92.2</ele>
        <time>2022-06-10T06:04:22Z</time>
      </trkpt>
      <trkpt lat="47.6783610" lon="9.1459300">
        <ele>-92.4</ele>
        <time>2022-06-10T06:04:26Z</time>
      </trkpt>
      <trkpt lat="47.6783610" lon="9.1459300">
        <ele>-92.4</ele>
        <time>2022-06-10T06:04:30Z</time>
      </trkpt>
      <trkpt lat="47.6783610" lon="9.1459300">
        <ele>-92.0</ele>
        <time>2022-06-10T06:04:34Z</time>
      </trkpt>
      <trkpt lat="47.6783610" lon="9.1459300">
        <ele>-92.2</ele>
        <time>2022-06-10T06:04:38Z</time>
      </trkpt>
      <trkpt lat="47.6783610" lon="9.1459300">
        <ele>-92.2</ele>
        <time>2022-06-10T06:04:42Z</time>
      </trkpt>
      <trkpt lat="47.6783610" lon="9.1459300">
        <ele>-92.2</ele>
        <time>2022-06-10T06:04:46Z</time>
      </trkpt>
      <trkpt lat="47.6783610" lon="9.1459300">
        <ele>-92.2</ele>
        <time>2022-06-10T06:04:50Z</time>
      </trkpt>
      <trkpt lat="47.6783610" lon="9.1459300">
        <ele>-92.4</ele>
        <time>2022-06-10T06:04:54Z</time>
      </trkpt>
      <trkpt lat="47.6783610" lon="9.1459300">
        <ele>-92.2</ele>
        <time>2022-06-10T06:04:58Z</time>
      </trkpt>
      <trkpt lat="47.6783360" lon="9.1459330">
        <ele>-92.6</ele>
        <time>2022-06-10T06:05:02Z</time>
      </trkpt>
      <trkpt lat="47.6783150" lon="9.1458760">
        <ele>-92.8</ele>
        <time>2022-06-10T06:05:06Z</time>
      </trkpt>
      <trkpt lat="47.6782780" lon="9.1458360">
        <ele>-92.0</ele>
        <time>2022-06-10T06:05:10Z</time>
      </trkpt>
      <trkpt lat="47.6782780" lon="9.1458360">
        <ele>-92.2</ele>
        <time>2022-06-10T06:05:14Z</time>
      </trkpt>
      <trkpt lat="47.6782780" lon="9.1458360">
        <ele>-91.8</ele>
        <time>2022-06-10T06:05:18Z</time>
      </trkpt>
      <trkpt lat="47.6782780" lon="9.1458360">
        <ele>-92.4</ele>
        <time>2022-06-10T06:05:22Z</time>
      </trkpt>
      <trkpt lat="47.6782530" lon="9.1458260">
        <ele>-92.2</ele>
        <time>2022-06-10T06:05:26Z</time>
      </trkpt>
      <trkpt lat="47.6781850" lon="9.1457930">
        <ele>-91.4</ele>
        <time>2022-06-10T06:05:30Z</time>
      </trkpt>
      <trkpt lat="47.6780600" lon="9.1457610">
        <ele>-92.4</ele>
        <time>2022-06-10T06:05:34Z</time>
      </trkpt>
      <trkpt lat="47.6779850" lon="9.1459360">
        <ele>-92.6</ele>
        <time>2022-06-10T06:05:38Z</time>
      </trkpt>
      <trkpt lat="47.6779260" lon="9.1461750">
        <ele>-93.0</ele>
        <time>2022-06-10T06:05:42Z</time>
      </trkpt>
      <trkpt lat="47.6778660" lon="9.1464430">
        <ele>-92.6</ele>
        <time>2022-06-10T06:05:46Z</time>
      </trkpt>
      <trkpt lat="47.6778160" lon="9.1467180">
        <ele>-92.6</ele>
        <time>2022-06-10T06:05:50Z</time>
      </trkpt>
      <trkpt lat="47.6777750" lon="9.1469750">
        <ele>-92.0</ele>
        <time>2022-06-10T06:05:54Z</time>
      </trkpt>
      <trkpt lat="47.6777210" lon="9.1472210">
        <ele>-92.8</ele>
        <time>2022-06-10T06:05:58Z</time>
      </trkpt>
      <trkpt lat="47.6776600" lon="9.1474730">
        <ele>-93.2</ele>
        <time>2022-06-10T06:06:02Z</time>
      </trkpt>
      <trkpt lat="47.6775900" lon="9.1477360">
        <ele>-92.4</ele>
        <time>2022-06-10T06:06:06Z</time>
      </trkpt>
      <trkpt lat="47.6775130" lon="9.1480010">
        <ele>-92.4</ele>
        <time>2022-06-10T06:06:10Z</time>
      </trkpt>
      <trkpt lat="47.6774260" lon="9.1482480">
        <ele>-92.4</ele>
        <time>2022-06-10T06:06:14Z</time>
      </trkpt>
      <trkpt lat="47.6773500" lon="9.1484600">
        <ele>-92.2</ele>
        <time>2022-06-10T06:06:18Z</time>
      </trkpt>
      <trkpt lat="47.6772510" lon="9.1486830">
        <ele>-91.8</ele>
        <time>2022-06-10T06:06:22Z</time>
      </trkpt>
      <trkpt lat="47.6771410" lon="9.1488800">
        <ele>-92.0</ele>
        <time>2022-06-10T06:06:26Z</time>
      </trkpt>
      <trkpt lat="47.6770360" lon="9.1490710">
        <ele>-91.6</ele>
        <time>2022-06-10T06:06:30Z</time>
      </trkpt>
      <trkpt lat="47.6769230" lon="9.1492580">
        <ele>-92.0</ele>
        <time>2022-06-10T06:06:34Z</time>
      </trkpt>
      <trkpt lat="47.6768100" lon="9.1494500">
        <ele>-92.2</ele>
        <time>2022-06-10T06:06:38Z</time>
      </trkpt>
      <trkpt lat="47.6766900" lon="9.1496360">
        <ele>-92.4</ele>
        <time>2022-06-10T06:06:42Z</time>
      </trkpt>
      <trkpt lat="47.6765800" lon="9.1498210">
        <ele>-92.0</ele>
        <time>2022-06-10T06:06:46Z</time>
      </trkpt>
      <trkpt lat="47.6764630" lon="9.1499950">
        <ele>-92.2</ele>
        <time>2022-06-10T06:06:50Z</time>
      </trkpt>
      <trkpt lat="47.6763430" lon="9.1501630">
        <ele>-92.4</ele>
        <time>2022-06-10T06:06:54Z</time>
      </trkpt>
      <trkpt lat="47.6762300" lon="9.1503450">
        <ele>-92.2</ele>
        <time>2022-06-10T06:06:58Z</time>
      </trkpt>
      <trkpt lat="47.6761130" lon="9.1505210">
        <ele>-92.2</ele>
        <time>2022-06-10T06:07:02Z</time>
      </trkpt>
      <trkpt lat="47.6760000" lon="9.1506910">
        <ele>-92.4</ele>
        <time>2022-06-10T06:07:06Z</time>
      </trkpt>
      <trkpt lat="47.6758960" lon="9.1508630">
        <ele>-92.2</ele>
        <time>2022-06-10T06:07:10Z</time>
      </trkpt>
      <trkpt lat="47.6757850" lon="9.1510350">
        <ele>-92.2</ele>
        <time>2022-06-10T06:07:14Z</time>
      </trkpt>
      <trkpt lat="47.6756800" lon="9.1512060">
        <ele>-92.4</ele>
        <time>2022-06-10T06:07:18Z</time>
      </trkpt>
      <trkpt lat="47.6755710" lon="9.1513710">
        <ele>-92.2</ele>
        <time>2022-06-10T06:07:22Z</time>
      </trkpt>
      <trkpt lat="47.6754650" lon="9.1515460">
        <ele>-92.2</ele>
        <time>2022-06-10T06:07:26Z</time>
      </trkpt>
      <trkpt lat="47.6753510" lon="9.1517080">
        <ele>-92.2</ele>
        <time>2022-06-10T06:07:30Z</time>
      </trkpt>
      <trkpt lat="47.6752460" lon="9.1518650">
        <ele>-92.0</ele>
        <time>2022-06-10T06:07:34Z</time>
      </trkpt>
      <trkpt lat="47.6751580" lon="9.1520450">
        <ele>-91.6</ele>
        <time>2022-06-10T06:07:38Z</time>
      </trkpt>
      <trkpt lat="47.6750700" lon="9.1522210">
        <ele>-91.8</ele>
        <time>2022-06-10T06:07:42Z</time>
      </trkpt>
      <trkpt lat="47.6749810" lon="9.1523660">
        <ele>-91.6</ele>
        <time>2022-06-10T06:07:46Z</time>
      </trkpt>
      <trkpt lat="47.6749030" lon="9.1524060">
        <ele>-91.8</ele>
        <time>2022-06-10T06:07:50Z</time>
      </trkpt>
      <trkpt lat="47.6749030" lon="9.1524060">
        <ele>-92.0</ele>
        <time>2022-06-10T06:07:54Z</time>
      </trkpt>
      <trkpt lat="47.6749030" lon="9.1524060">
        <ele>-92.2</ele>
        <time>2022-06-10T06:07:58Z</time>
      </trkpt>
      <trkpt lat="47.6749030" lon="9.1524060">
        <ele>-92.0</ele>
        <time>2022-06-10T06:08:02Z</time>
      </trkpt>
      <trkpt lat="47.6749030" lon="9.1524060">
        <ele>-92.2</ele>
        <time>2022-06-10T06:08:06Z</time>
      </trkpt>
      <trkpt lat="47.6749030" lon="9.1524060">
        <ele>-92.0</ele>
        <time>2022-06-10T06:08:10Z</time>
      </trkpt>
      <trkpt lat="47.6749030" lon="9.1524060">
        <ele>-92.2</ele>
        <time>2022-06-10T06:08:14Z</time>
      </trkpt>
      <trkpt lat="47.6749030" lon="9.1524060">
        <ele>-92.2</ele>
        <time>2022-06-10T06:08:18Z</time>
      </trkpt>
      <trkpt lat="47.6749030" lon="9.1524060">
        <ele>-92.0</ele>
        <time>2022-06-10T06:08:22Z</time>
      </trkpt>
      <trkpt lat="47.6749030" lon="9.1524060">
        <ele>-92.2</ele>
        <time>2022-06-10T06:08:26Z</time>
      </trkpt>
      <trkpt lat="47.6749030" lon="9.1524060">
        <ele>-92.2</ele>
        <time>2022-06-10T06:08:30Z</time>
      </trkpt>
      <trkpt lat="47.6749030" lon="9.1524060">
        <ele>-91.8</ele>
        <time>2022-06-10T06:08:34Z</time>
      </trkpt>
      <trkpt lat="47.6748760" lon="9.1524300">
        <ele>-92.2</ele>
        <time>2022-06-10T06:08:38Z</time>
      </trkpt>
      <trkpt lat="47.6748400" lon="9.1525430">
        <ele>-92.2</ele>
        <time>2022-06-10T06:08:42Z</time>
      </trkpt>
      <trkpt lat="47.6748100" lon="9.1527600">
        <ele>-91.8</ele>
        <time>2022-06-10T06:08:46Z</time>
      </trkpt>
      <trkpt lat="47.6747610" lon="9.1529730">
        <ele>-91.8</ele>
        <time>2022-06-10T06:08:50Z</time>
      </trkpt>
      <trkpt lat="47.6746910" lon="9.1531810">
        <ele>-91.6</ele>
        <time>2022-06-10T06:08:54Z</time>
      </trkpt>
      <trkpt lat="47.6746200" lon="9.1534130">
        <ele>-91.8</ele>
        <time>2022-06-10T06:08:58Z</time>
      </trkpt>
      <trkpt lat="47.6745410" lon="9.1536400">
        <ele>-91.6</ele>
        <time>2022-06-10T06:09:02Z</time>
      </trkpt>
      <trkpt lat="47.6744580" lon="9.1538680">
        <ele>-92.2</ele>
        <time>2022-06-10T06:09:06Z</time>
      </trkpt>
      <trkpt lat="47.6743800" lon="9.1541110">
        <ele>-92.0</ele>
        <time>2022-06-10T06:09:10Z</time>
      </trkpt>
      <trkpt lat="47.6743080" lon="9.1543700">
        <ele>-92.0</ele>
        <time>2022-06-10T06:09:14Z</time>
      </trkpt>
      <trkpt lat="47.6742250" lon="9.1546260">
        <ele>-92.2</ele>
        <time>2022-06-10T06:09:18Z</time>
      </trkpt>
      <trkpt lat="47.6741330" lon="9.1548930">
        <ele>-92.2</ele>
        <time>2022-06-10T06:09:22Z</time>
      </trkpt>
      <trkpt lat="47.6740450" lon="9.1551630">
        <ele>-92.2</ele>
        <time>2022-06-10T06:09:26Z</time>
      </trkpt>
      <trkpt lat="47.6739560" lon="9.1554160">
        <ele>-91.8</ele>
        <time>2022-06-10T06:09:30Z</time>
      </trkpt>
      <trkpt lat="47.6738660" lon="9.1556650">
        <ele>-92.0</ele>
        <time>2022-06-10T06:09:34Z</time>
      </trkpt>
      <trkpt lat="47.6737750" lon="9.1558960">
        <ele>-92.0</ele>
        <time>2022-06-10T06:09:38Z</time>
      </trkpt>
      <trkpt lat="47.6736950" lon="9.1561410">
        <ele>-91.8</ele>
        <time>2022-06-10T06:09:42Z</time>
      </trkpt>
      <trkpt lat="47.6736160" lon="9.1563950">
        <ele>-91.6</ele>
        <time>2022-06-10T06:09:46Z</time>
      </trkpt>
      <trkpt lat="47.6735380" lon="9.1566410">
        <ele>-92.0</ele>
        <time>2022-06-10T06:09:50Z</time>
      </trkpt>
      <trkpt lat="47.6734730" lon="9.1568850">
        <ele>-91.8</ele>
        <time>2022-06-10T06:09:54Z</time>
      </trkpt>
      <trkpt lat="47.6734010" lon="9.1571180">
        <ele>-91.8</ele>
        <time>2022-06-10T06:09:58Z</time>
      </trkpt>
      <trkpt lat="47.6733260" lon="9.1573510">
        <ele>-91.8</ele>
        <time>2022-06-10T06:10:02Z</time>
      </trkpt>
      <trkpt lat="47.6732580" lon="9.1575930">
        <ele>-91.4</ele>
        <time>2022-06-10T06:10:06Z</time>
      </trkpt>
      <trkpt lat="47.6731980" lon="9.1578280">
        <ele>-91.4</ele>
        <time>2022-06-10T06:10:10Z</time>
      </trkpt>
      <trkpt lat="47.6731730" lon="9.1580980">
        <ele>-92.2</ele>
        <time>2022-06-10T06:10:14Z</time>
      </trkpt>
      <trkpt lat="47.6731410" lon="9.1583780">
        <ele>-91.8</ele>
        <time>2022-06-10T06:10:18Z</time>
      </trkpt>
      <trkpt lat="47.6731050" lon="9.1586600">
        <ele>-91.6</ele>
        <time>2022-06-10T06:10:22Z</time>
      </trkpt>
      <trkpt lat="47.6730450" lon="9.1589210">
        <ele>-92.0</ele>
        <time>2022-06-10T06:10:26Z</time>
      </trkpt>
      <trkpt lat="47.6729700" lon="9.1591910">
        <ele>-92.4</ele>
        <time>2022-06-10T06:10:30Z</time>
      </trkpt>
      <trkpt lat="47.6729030" lon="9.1594680">
        <ele>-92.4</ele>
        <time>2022-06-10T06:10:34Z</time>
      </trkpt>
      <trkpt lat="47.6728410" lon="9.1597450">
        <ele>-92.2</ele>
        <time>2022-06-10T06:10:38Z</time>
      </trkpt>
      <trkpt lat="47.6727800" lon="9.1600100">
        <ele>-92.2</ele>
        <time>2022-06-10T06:10:42Z</time>
      </trkpt>
      <trkpt lat="47.6727200" lon="9.1602780">
        <ele>-92.8</ele>
        <time>2022-06-10T06:10:46Z</time>
      </trkpt>
      <trkpt lat="47.6726550" lon="9.1605380">
        <ele>-92.8</ele>
        <time>2022-06-10T06:10:50Z</time>
      </trkpt>
      <trkpt lat="47.6725950" lon="9.1607860">
        <ele>-92.6</ele>
        <time>2022-06-10T06:10:54Z</time>
      </trkpt>
      <trkpt lat="47.6725530" lon="9.1610330">
        <ele>-91.8</ele>
        <time>2022-06-10T06:10:58Z</time>
      </trkpt>
      <trkpt lat="47.6725360" lon="9.1612480">
        <ele>-92.2</ele>
        <time>2022-06-10T06:11:02Z</time>
      </trkpt>
      <trkpt lat="47.6725360" lon="9.1612480">
        <ele>-92.0</ele>
        <time>2022-06-10T06:11:06Z</time>
      </trkpt>
      <trkpt lat="47.6725160" lon="9.1613350">
        <ele>-92.0</ele>
        <time>2022-06-10T06:11:10Z</time>
      </trkpt>
      <trkpt lat="47.6724660" lon="9.1613960">
        <ele>-92.0</ele>
        <time>2022-06-10T06:11:14Z</time>
      </trkpt>
      <trkpt lat="47.6724000" lon="9.1614980">
        <ele>-92.6</ele>
        <time>2022-06-10T06:11:18Z</time>
      </trkpt>
      <trkpt lat="47.6723130" lon="9.1616610">
        <ele>-92.2</ele>
        <time>2022-06-10T06:11:22Z</time>
      </trkpt>
      <trkpt lat="47.6723130" lon="9.1616610">
        <ele>-92.2</ele>
        <time>2022-06-10T06:11:26Z</time>
      </trkpt>
      <trkpt lat="47.6723130" lon="9.1616610">
        <ele>-92.4</ele>
        <time>2022-06-10T06:11:30Z</time>
      </trkpt>
      <trkpt lat="47.6723130" lon="9.1616610">
        <ele>-92.2</ele>
        <time>2022-06-10T06:11:34Z</time>
      </trkpt>
      <trkpt lat="47.6723130" lon="9.1616610">
        <ele>-92.4</ele>
        <time>2022-06-10T06:11:38Z</time>
      </trkpt>
      <trkpt lat="47.6723130" lon="9.1616610">
        <ele>-92.2</ele>
        <time>2022-06-10T06:11:42Z</time>
      </trkpt>
      <trkpt lat="47.6723060" lon="9.1617700">
        <ele>-92.2</ele>
        <time>2022-06-10T06:11:46Z</time>
      </trkpt>
      <trkpt lat="47.6723560" lon="9.1618210">
        <ele>-92.2</ele>
        <time>2022-06-10T06:11:50Z</time>
      </trkpt>
      <trkpt lat="47.6724510" lon="9.1619060">
        <ele>-92.2</ele>
        <time>2022-06-10T06:11:54Z</time>
      </trkpt>
      <trkpt lat="47.6725130" lon="9.1620380">
        <ele>-92.2</ele>
        <time>2022-06-10T06:11:58Z</time>
      </trkpt>
      <trkpt lat="47.6725430" lon="9.1621650">
        <ele>-91.6</ele>
        <time>2022-06-10T06:12:02Z</time>
      </trkpt>
      <trkpt lat="47.6725360" lon="9.1622960">
        <ele>-91.2</ele>
        <time>2022-06-10T06:12:06Z</time>
      </trkpt>
      <trkpt lat="47.6724830" lon="9.1624050">
        <ele>-90.6</ele>
        <time>2022-06-10T06:12:10Z</time>
      </trkpt>
      <trkpt lat="47.6724200" lon="9.1624910">
        <ele>-90.0</ele>
        <time>2022-06-10T06:12:14Z</time>
      </trkpt>
      <trkpt lat="47.6723500" lon="9.1625700">
        <ele>-89.0</ele>
        <time>2022-06-10T06:12:18Z</time>
      </trkpt>
      <trkpt lat="47.6722800" lon="9.1626600">
        <ele>-88.4</ele>
        <time>2022-06-10T06:12:22Z</time>
      </trkpt>
      <trkpt lat="47.6722630" lon="9.1628000">
        <ele>-88.2</ele>
        <time>2022-06-10T06:12:26Z</time>
      </trkpt>
      <trkpt lat="47.6723250" lon="9.1629130">
        <ele>-87.4</ele>
        <time>2022-06-10T06:12:30Z</time>
      </trkpt>
      <trkpt lat="47.6724180" lon="9.1629260">
        <ele>-86.6</ele>
        <time>2022-06-10T06:12:34Z</time>
      </trkpt>
      <trkpt lat="47.6724810" lon="9.1628350">
        <ele>-86.2</ele>
        <time>2022-06-10T06:12:38Z</time>
      </trkpt>
      <trkpt lat="47.6724860" lon="9.1626930">
        <ele>-85.6</ele>
        <time>2022-06-10T06:12:42Z</time>
      </trkpt>
      <trkpt lat="47.6724260" lon="9.1626010">
        <ele>-84.8</ele>
        <time>2022-06-10T06:12:46Z</time>
      </trkpt>
      <trkpt lat="47.6723410" lon="9.1625980">
        <ele>-84.6</ele>
        <time>2022-06-10T06:12:50Z</time>
      </trkpt>
      <trkpt lat="47.6722760" lon="9.1626680">
        <ele>-83.6</ele>
        <time>2022-06-10T06:12:54Z</time>
      </trkpt>
      <trkpt lat="47.6722430" lon="9.1627780">
        <ele>-83.2</ele>
        <time>2022-06-10T06:12:58Z</time>
      </trkpt>
      <trkpt lat="47.6722160" lon="9.1628860">
        <ele>-82.8</ele>
        <time>2022-06-10T06:13:02Z</time>
      </trkpt>
      <trkpt lat="47.6721860" lon="9.1630010">
        <ele>-82.4</ele>
        <time>2022-06-10T06:13:06Z</time>
      </trkpt>
      <trkpt lat="47.6721210" lon="9.1630910">
        <ele>-82.4</ele>
        <time>2022-06-10T06:13:10Z</time>
      </trkpt>
      <trkpt lat="47.6720110" lon="9.1630910">
        <ele>-82.2</ele>
        <time>2022-06-10T06:13:14Z</time>
      </trkpt>
      <trkpt lat="47.6718980" lon="9.1630860">
        <ele>-81.6</ele>
        <time>2022-06-10T06:13:18Z</time>
      </trkpt>
      <trkpt lat="47.6717730" lon="9.1630630">
        <ele>-81.8</ele>
        <time>2022-06-10T06:13:22Z</time>
      </trkpt>
      <trkpt lat="47.6716480" lon="9.1630480">
        <ele>-82.2</ele>
        <time>2022-06-10T06:13:26Z</time>
      </trkpt>
      <trkpt lat="47.6715280" lon="9.1630300">
        <ele>-82.2</ele>
        <time>2022-06-10T06:13:30Z</time>
      </trkpt>
      <trkpt lat="47.6714130" lon="9.1630060">
        <ele>-82.2</ele>
        <time>2022-06-10T06:13:34Z</time>
      </trkpt>
      <trkpt lat="47.6712880" lon="9.1629810">
        <ele>-82.8</ele>
        <time>2022-06-10T06:13:38Z</time>
      </trkpt>
      <trkpt lat="47.6711500" lon="9.1629510">
        <ele>-82.4</ele>
        <time>2022-06-10T06:13:42Z</time>
      </trkpt>
      <trkpt lat="47.6710110" lon="9.1629330">
        <ele>-82.6</ele>
        <time>2022-06-10T06:13:46Z</time>
      </trkpt>
      <trkpt lat="47.6708810" lon="9.1629010">
        <ele>-82.8</ele>
        <time>2022-06-10T06:13:50Z</time>
      </trkpt>
      <trkpt lat="47.6707430" lon="9.1628760">
        <ele>-82.6</ele>
        <time>2022-06-10T06:13:54Z</time>
      </trkpt>
      <trkpt lat="47.6705930" lon="9.1628450">
        <ele>-82.2</ele>
        <time>2022-06-10T06:13:58Z</time>
      </trkpt>
      <trkpt lat="47.6704410" lon="9.1628130">
        <ele>-83.4</ele>
        <time>2022-06-10T06:14:02Z</time>
      </trkpt>
      <trkpt lat="47.6702880" lon="9.1627830">
        <ele>-82.8</ele>
        <time>2022-06-10T06:14:06Z</time>
      </trkpt>
      <trkpt lat="47.6701300" lon="9.1627480">
        <ele>-83.4</ele>
        <time>2022-06-10T06:14:10Z</time>
      </trkpt>
      <trkpt lat="47.6699750" lon="9.1627200">
        <ele>-83.0</ele>
        <time>2022-06-10T06:14:14Z</time>
      </trkpt>
      <trkpt lat="47.6698230" lon="9.1626860">
        <ele>-83.0</ele>
        <time>2022-06-10T06:14:18Z</time>
      </trkpt>
      <trkpt lat="47.6696780" lon="9.1626600">
        <ele>-82.8</ele>
        <time>2022-06-10T06:14:22Z</time>
      </trkpt>
      <trkpt lat="47.6695380" lon="9.1626360">
        <ele>-83.2</ele>
        <time>2022-06-10T06:14:26Z</time>
      </trkpt>
      <trkpt lat="47.6694080" lon="9.1626050">
        <ele>-83.4</ele>
        <time>2022-06-10T06:14:30Z</time>
      </trkpt>
      <trkpt lat="47.6692850" lon="9.1625800">
        <ele>-83.2</ele>
        <time>2022-06-10T06:14:34Z</time>
      </trkpt>
      <trkpt lat="47.6691650" lon="9.1625560">
        <ele>-83.4</ele>
        <time>2022-06-10T06:14:38Z</time>
      </trkpt>
      <trkpt lat="47.6690480" lon="9.1625350">
        <ele>-83.4</ele>
        <time>2022-06-10T06:14:42Z</time>
      </trkpt>
      <trkpt lat="47.6689160" lon="9.1625210">
        <ele>-83.0</ele>
        <time>2022-06-10T06:14:46Z</time>
      </trkpt>
      <trkpt lat="47.6687780" lon="9.1625080">
        <ele>-83.6</ele>
        <time>2022-06-10T06:14:50Z</time>
      </trkpt>
      <trkpt lat="47.6686350" lon="9.1624800">
        <ele>-83.8</ele>
        <time>2022-06-10T06:14:54Z</time>
      </trkpt>
      <trkpt lat="47.6684750" lon="9.1624430">
        <ele>-84.6</ele>
        <time>2022-06-10T06:14:58Z</time>
      </trkpt>
      <trkpt lat="47.6683060" lon="9.1624080">
        <ele>-84.2</ele>
        <time>2022-06-10T06:15:02Z</time>
      </trkpt>
      <trkpt lat="47.6681280" lon="9.1623730">
        <ele>-85.6</ele>
        <time>2022-06-10T06:15:06Z</time>
      </trkpt>
      <trkpt lat="47.6679400" lon="9.1623380">
        <ele>-86.2</ele>
        <time>2022-06-10T06:15:10Z</time>
      </trkpt>
      <trkpt lat="47.6677410" lon="9.1623050">
        <ele>-88.4</ele>
        <time>2022-06-10T06:15:14Z</time>
      </trkpt>
      <trkpt lat="47.6675380" lon="9.1622530">
        <ele>-90.2</ele>
        <time>2022-06-10T06:15:18Z</time>
      </trkpt>
      <trkpt lat="47.6673360" lon="9.1620660">
        <ele>-91.6</ele>
        <time>2022-06-10T06:15:22Z</time>
      </trkpt>
      <trkpt lat="47.6671150" lon="9.1619480">
        <ele>-92.8</ele>
        <time>2022-06-10T06:15:26Z</time>
      </trkpt>
      <trkpt lat="47.6668860" lon="9.1620130">
        <ele>-93.8</ele>
        <time>2022-06-10T06:15:30Z</time>
      </trkpt>
      <trkpt lat="47.6667180" lon="9.1620810">
        <ele>-94.0</ele>
        <time>2022-06-10T06:15:34Z</time>
      </trkpt>
      <trkpt lat="47.6665860" lon="9.1620830">
        <ele>-93.4</ele>
        <time>2022-06-10T06:15:38Z</time>
      </trkpt>
      <trkpt lat="47.6664610" lon="9.1620980">
        <ele>-94.2</ele>
        <time>2022-06-10T06:15:42Z</time>
      </trkpt>
      <trkpt lat="47.6664360" lon="9.1622000">
        <ele>-94.2</ele>
        <time>2022-06-10T06:15:46Z</time>
      </trkpt>
      <trkpt lat="47.6664380" lon="9.1623850">
        <ele>-94.6</ele>
        <time>2022-06-10T06:15:50Z</time>
      </trkpt>
      <trkpt lat="47.6664900" lon="9.1625260">
        <ele>-94.6</ele>
        <time>2022-06-10T06:15:54Z</time>
      </trkpt>
      <trkpt lat="47.6664900" lon="9.1625260">
        <ele>-94.2</ele>
        <time>2022-06-10T06:15:58Z</time>
      </trkpt>
      <trkpt lat="47.6664900" lon="9.1625260">
        <ele>-94.6</ele>
        <time>2022-06-10T06:16:02Z</time>
      </trkpt>
      <trkpt lat="47.6664900" lon="9.1625260">
        <ele>-94.2</ele>
        <time>2022-06-10T06:16:06Z</time>
      </trkpt>
      <trkpt lat="47.6664900" lon="9.1625260">
        <ele>-94.6</ele>
        <time>2022-06-10T06:16:10Z</time>
      </trkpt>
      <trkpt lat="47.6664900" lon="9.1625260">
        <ele>-94.8</ele>
        <time>2022-06-10T06:16:14Z</time>
      </trkpt>
      <trkpt lat="47.6664900" lon="9.1625260">
        <ele>-94.6</ele>
        <time>2022-06-10T06:16:18Z</time>
      </trkpt>
      <trkpt lat="47.6664900" lon="9.1625260">
        <ele>-94.6</ele>
        <time>2022-06-10T06:16:22Z</time>
      </trkpt>
      <trkpt lat="47.6664900" lon="9.1625260">
        <ele>-94.0</ele>
        <time>2022-06-10T06:16:26Z</time>
      </trkpt>
      <trkpt lat="47.6664800" lon="9.1625410">
        <ele>-94.2</ele>
        <time>2022-06-10T06:16:30Z</time>
      </trkpt>
      <trkpt lat="47.6664180" lon="9.1625310">
        <ele>-94.0</ele>
        <time>2022-06-10T06:16:34Z</time>
      </trkpt>
      <trkpt lat="47.6663750" lon="9.1626000">
        <ele>-94.0</ele>
        <time>2022-06-10T06:16:38Z</time>
      </trkpt>
      <trkpt lat="47.6663900" lon="9.1625600">
        <ele>-94.0</ele>
        <time>2022-06-10T06:16:42Z</time>
      </trkpt>
      <trkpt lat="47.6663900" lon="9.1625600">
        <ele>-94.2</ele>
        <time>2022-06-10T06:16:46Z</time>
      </trkpt>
      <trkpt lat="47.6663880" lon="9.1625180">
        <ele>-94.0</ele>
        <time>2022-06-10T06:16:50Z</time>
      </trkpt>
      <trkpt lat="47.6663910" lon="9.1624630">
        <ele>-94.6</ele>
        <time>2022-06-10T06:16:54Z</time>
      </trkpt>
      <trkpt lat="47.6663910" lon="9.1624630">
        <ele>-94.0</ele>
        <time>2022-06-10T06:16:58Z</time>
      </trkpt>
      <trkpt lat="47.6663910" lon="9.1624630">
        <ele>-94.4</ele>
        <time>2022-06-10T06:17:02Z</time>
      </trkpt>
      <trkpt lat="47.6663910" lon="9.1624630">
        <ele>-94.6</ele>
        <time>2022-06-10T06:17:06Z</time>
      </trkpt>
      <trkpt lat="47.6663910" lon="9.1624630">
        <ele>-94.6</ele>
        <time>2022-06-10T06:17:10Z</time>
      </trkpt>
      <trkpt lat="47.6663910" lon="9.1624410">
        <ele>-94.6</ele>
        <time>2022-06-10T06:17:14Z</time>
      </trkpt>
      <trkpt lat="47.6664110" lon="9.1623430">
        <ele>-94.6</ele>
        <time>2022-06-10T06:17:18Z</time>
      </trkpt>
      <trkpt lat="47.6664110" lon="9.1622250">
        <ele>-94.0</ele>
        <time>2022-06-10T06:17:22Z</time>
      </trkpt>
      <trkpt lat="47.6664000" lon="9.1620830">
        <ele>-94.0</ele>
        <time>2022-06-10T06:17:26Z</time>
      </trkpt>
      <trkpt lat="47.6662830" lon="9.1620260">
        <ele>-94.2</ele>
        <time>2022-06-10T06:17:30Z</time>
      </trkpt>
      <trkpt lat="47.6661460" lon="9.1619930">
        <ele>-94.0</ele>
        <time>2022-06-10T06:17:34Z</time>
      </trkpt>
      <trkpt lat="47.6659980" lon="9.1619730">
        <ele>-93.8</ele>
        <time>2022-06-10T06:17:38Z</time>
      </trkpt>
      <trkpt lat="47.6658630" lon="9.1619550">
        <ele>-93.4</ele>
        <time>2022-06-10T06:17:42Z</time>
      </trkpt>
      <trkpt lat="47.6657300" lon="9.1619200">
        <ele>-92.8</ele>
        <time>2022-06-10T06:17:46Z</time>
      </trkpt>
      <trkpt lat="47.6656180" lon="9.1619000">
        <ele>-92.8</ele>
        <time>2022-06-10T06:17:50Z</time>
      </trkpt>
      <trkpt lat="47.6655900" lon="9.1617030">
        <ele>-93.2</ele>
        <time>2022-06-10T06:17:54Z</time>
      </trkpt>
      <trkpt lat="47.6656180" lon="9.1614810">
        <ele>-93.2</ele>
        <time>2022-06-10T06:17:58Z</time>
      </trkpt>
      <trkpt lat="47.6656410" lon="9.1612900">
        <ele>-92.8</ele>
        <time>2022-06-10T06:18:02Z</time>
      </trkpt>
      <trkpt lat="47.6655580" lon="9.1611510">
        <ele>-93.6</ele>
        <time>2022-06-10T06:18:06Z</time>
      </trkpt>
      <trkpt lat="47.6654010" lon="9.1610960">
        <ele>-93.2</ele>
        <time>2022-06-10T06:18:10Z</time>
      </trkpt>
      <trkpt lat="47.6652460" lon="9.1610660">
        <ele>-93.0</ele>
        <time>2022-06-10T06:18:14Z</time>
      </trkpt>
      <trkpt lat="47.6650800" lon="9.1610210">
        <ele>-92.8</ele>
        <time>2022-06-10T06:18:18Z</time>
      </trkpt>
      <trkpt lat="47.6649250" lon="9.1610030">
        <ele>-92.6</ele>
        <time>2022-06-10T06:18:22Z</time>
      </trkpt>
      <trkpt lat="47.6647730" lon="9.1609930">
        <ele>-93.4</ele>
        <time>2022-06-10T06:18:26Z</time>
      </trkpt>
      <trkpt lat="47.6646030" lon="9.1609800">
        <ele>-92.8</ele>
        <time>2022-06-10T06:18:30Z</time>
      </trkpt>
      <trkpt lat="47.6644300" lon="9.1609560">
        <ele>-93.2</ele>
        <time>2022-06-10T06:18:34Z</time>
      </trkpt>
      <trkpt lat="47.6642330" lon="9.1609130">
        <ele>-93.2</ele>
        <time>2022-06-10T06:18:38Z</time>
      </trkpt>
      <trkpt lat="47.6640650" lon="9.1608800">
        <ele>-93.0</ele>
        <time>2022-06-10T06:18:42Z</time>
      </trkpt>
      <trkpt lat="47.6638930" lon="9.1608430">
        <ele>-93.2</ele>
        <time>2022-06-10T06:18:46Z</time>
      </trkpt>
      <trkpt lat="47.6637310" lon="9.1608330">
        <ele>-92.6</ele>
        <time>2022-06-10T06:18:50Z</time>
      </trkpt>
      <trkpt lat="47.6635730" lon="9.1608400">
        <ele>-92.8</ele>
        <time>2022-06-10T06:18:54Z</time>
      </trkpt>
      <trkpt lat="47.6634110" lon="9.1608460">
        <ele>-92.8</ele>
        <time>2022-06-10T06:18:58Z</time>
      </trkpt>
      <trkpt lat="47.6632450" lon="9.1608630">
        <ele>-92.8</ele>
        <time>2022-06-10T06:19:02Z</time>
      </trkpt>
      <trkpt lat="47.6632080" lon="9.1607280">
        <ele>-93.6</ele>
        <time>2022-06-10T06:19:06Z</time>
      </trkpt>
      <trkpt lat="47.6631800" lon="9.1605460">
        <ele>-93.0</ele>
        <time>2022-06-10T06:19:10Z</time>
      </trkpt>
      <trkpt lat="47.6631530" lon="9.1603450">
        <ele>-93.0</ele>
        <time>2022-06-10T06:19:14Z</time>
      </trkpt>
      <trkpt lat="47.6631280" lon="9.1601210">
        <ele>-93.8</ele>
        <time>2022-06-10T06:19:18Z</time>
      </trkpt>
      <trkpt lat="47.6630850" lon="9.1598910">
        <ele>-92.8</ele>
        <time>2022-06-10T06:19:22Z</time>
      </trkpt>
      <trkpt lat="47.6630300" lon="9.1598350">
        <ele>-93.4</ele>
        <time>2022-06-10T06:19:26Z</time>
      </trkpt>
      <trkpt lat="47.6629550" lon="9.1597930">
        <ele>-93.2</ele>
        <time>2022-06-10T06:19:30Z</time>
      </trkpt>
      <trkpt lat="47.6629180" lon="9.1596200">
        <ele>-93.0</ele>
        <time>2022-06-10T06:19:34Z</time>
      </trkpt>
      <trkpt lat="47.6628850" lon="9.1594000">
        <ele>-93.0</ele>
        <time>2022-06-10T06:19:38Z</time>
      </trkpt>
      <trkpt lat="47.6628350" lon="9.1591860">
        <ele>-92.8</ele>
        <time>2022-06-10T06:19:42Z</time>
      </trkpt>
      <trkpt lat="47.6628050" lon="9.1589780">
        <ele>-92.8</ele>
        <time>2022-06-10T06:19:46Z</time>
      </trkpt>
      <trkpt lat="47.6627750" lon="9.1587700">
        <ele>-93.2</ele>
        <time>2022-06-10T06:19:50Z</time>
      </trkpt>
      <trkpt lat="47.6627360" lon="9.1585700">
        <ele>-93.8</ele>
        <time>2022-06-10T06:19:54Z</time>
      </trkpt>
      <trkpt lat="47.6627060" lon="9.1583650">
        <ele>-93.2</ele>
        <time>2022-06-10T06:19:58Z</time>
      </trkpt>
      <trkpt lat="47.6626660" lon="9.1581460">
        <ele>-93.4</ele>
        <time>2022-06-10T06:20:02Z</time>
      </trkpt>
      <trkpt lat="47.6626200" lon="9.1579080">
        <ele>-93.4</ele>
        <time>2022-06-10T06:20:06Z</time>
      </trkpt>
      <trkpt lat="47.6625710" lon="9.1576780">
        <ele>-93.4</ele>
        <time>2022-06-10T06:20:10Z</time>
      </trkpt>
      <trkpt lat="47.6625150" lon="9.1574650">
        <ele>-93.6</ele>
        <time>2022-06-10T06:20:14Z</time>
      </trkpt>
      <trkpt lat="47.6624800" lon="9.1573080">
        <ele>-93.4</ele>
        <time>2022-06-10T06:20:18Z</time>
      </trkpt>
      <trkpt lat="47.6624430" lon="9.1571580">
        <ele>-93.2</ele>
        <time>2022-06-10T06:20:22Z</time>
      </trkpt>
      <trkpt lat="47.6624050" lon="9.1569400">
        <ele>-93.6</ele>
        <time>2022-06-10T06:20:26Z</time>
      </trkpt>
      <trkpt lat="47.6623650" lon="9.1567100">
        <ele>-93.8</ele>
        <time>2022-06-10T06:20:30Z</time>
      </trkpt>
      <trkpt lat="47.6623330" lon="9.1564730">
        <ele>-94.0</ele>
        <time>2022-06-10T06:20:34Z</time>
      </trkpt>
      <trkpt lat="47.6623010" lon="9.1562330">
        <ele>-94.0</ele>
        <time>2022-06-10T06:20:38Z</time>
      </trkpt>
      <trkpt lat="47.6622530" lon="9.1559980">
        <ele>-94.0</ele>
        <time>2022-06-10T06:20:42Z</time>
      </trkpt>
      <trkpt lat="47.6622100" lon="9.1557600">
        <ele>-94.6</ele>
        <time>2022-06-10T06:20:46Z</time>
      </trkpt>
      <trkpt lat="47.6621780" lon="9.1555210">
        <ele>-94.0</ele>
        <time>2022-06-10T06:20:50Z</time>
      </trkpt>
      <trkpt lat="47.6621410" lon="9.1553030">
        <ele>-93.4</ele>
        <time>2022-06-10T06:20:54Z</time>
      </trkpt>
      <trkpt lat="47.6621050" lon="9.1550780">
        <ele>-93.8</ele>
        <time>2022-06-10T06:20:58Z</time>
      </trkpt>
      <trkpt lat="47.6620650" lon="9.1548410">
        <ele>-93.0</ele>
        <time>2022-06-10T06:21:02Z</time>
      </trkpt>
      <trkpt lat="47.6620260" lon="9.1545980">
        <ele>-93.2</ele>
        <time>2022-06-10T06:21:06Z</time>
      </trkpt>
      <trkpt lat="47.6619730" lon="9.1543650">
        <ele>-93.8</ele>
        <time>2022-06-10T06:21:10Z</time>
      </trkpt>
      <trkpt lat="47.6619200" lon="9.1541250">
        <ele>-93.4</ele>
        <time>2022-06-10T06:21:14Z</time>
      </trkpt>
      <trkpt lat="47.6618910" lon="9.1538750">
        <ele>-93.4</ele>
        <time>2022-06-10T06:21:18Z</time>
      </trkpt>
      <trkpt lat="47.6618510" lon="9.1536310">
        <ele>-93.4</ele>
        <time>2022-06-10T06:21:22Z</time>
      </trkpt>
      <trkpt lat="47.6618110" lon="9.1533910">
        <ele>-93.4</ele>
        <time>2022-06-10T06:21:26Z</time>
      </trkpt>
      <trkpt lat="47.6617880" lon="9.1531450">
        <ele>-93.2</ele>
        <time>2022-06-10T06:21:30Z</time>
      </trkpt>
      <trkpt lat="47.6617650" lon="9.1529000">
        <ele>-93.4</ele>
        <time>2022-06-10T06:21:34Z</time>
      </trkpt>
      <trkpt lat="47.6617430" lon="9.1526560">
        <ele>-93.4</ele>
        <time>2022-06-10T06:21:38Z</time>
      </trkpt>
      <trkpt lat="47.6617110" lon="9.1524200">
        <ele>-93.4</ele>
        <time>2022-06-10T06:21:42Z</time>
      </trkpt>
      <trkpt lat="47.6616680" lon="9.1521850">
        <ele>-93.4</ele>
        <time>2022-06-10T06:21:46Z</time>
      </trkpt>
      <trkpt lat="47.6616260" lon="9.1519530">
        <ele>-93.0</ele>
        <time>2022-06-10T06:21:50Z</time>
      </trkpt>
      <trkpt lat="47.6615830" lon="9.1517210">
        <ele>-93.2</ele>
        <time>2022-06-10T06:21:54Z</time>
      </trkpt>
      <trkpt lat="47.6615410" lon="9.1514860">
        <ele>-93.4</ele>
        <time>2022-06-10T06:21:58Z</time>
      </trkpt>
      <trkpt lat="47.6615010" lon="9.1512480">
        <ele>-93.4</ele>
        <time>2022-06-10T06:22:02Z</time>
      </trkpt>
      <trkpt lat="47.6614610" lon="9.1510180">
        <ele>-92.8</ele>
        <time>2022-06-10T06:22:06Z</time>
      </trkpt>
      <trkpt lat="47.6614200" lon="9.1507910">
        <ele>-93.4</ele>
        <time>2022-06-10T06:22:10Z</time>
      </trkpt>
      <trkpt lat="47.6613780" lon="9.1505610">
        <ele>-92.8</ele>
        <time>2022-06-10T06:22:14Z</time>
      </trkpt>
      <trkpt lat="47.6613400" lon="9.1503300">
        <ele>-92.8</ele>
        <time>2022-06-10T06:22:18Z</time>
      </trkpt>
      <trkpt lat="47.6612960" lon="9.1501030">
        <ele>-92.8</ele>
        <time>2022-06-10T06:22:22Z</time>
      </trkpt>
      <trkpt lat="47.6612630" lon="9.1498800">
        <ele>-92.6</ele>
        <time>2022-06-10T06:22:26Z</time>
      </trkpt>
      <trkpt lat="47.6612180" lon="9.1496560">
        <ele>-92.6</ele>
        <time>2022-06-10T06:22:30Z</time>
      </trkpt>
      <trkpt lat="47.6611780" lon="9.1494310">
        <ele>-92.6</ele>
        <time>2022-06-10T06:22:34Z</time>
      </trkpt>
      <trkpt lat="47.6611350" lon="9.1492050">
        <ele>-92.6</ele>
        <time>2022-06-10T06:22:38Z</time>
      </trkpt>
      <trkpt lat="47.6610980" lon="9.1489760">
        <ele>-93.0</ele>
        <time>2022-06-10T06:22:42Z</time>
      </trkpt>
      <trkpt lat="47.6610580" lon="9.1487530">
        <ele>-93.0</ele>
        <time>2022-06-10T06:22:46Z</time>
      </trkpt>
      <trkpt lat="47.6610180" lon="9.1485400">
        <ele>-92.8</ele>
        <time>2022-06-10T06:22:50Z</time>
      </trkpt>
      <trkpt lat="47.6609930" lon="9.1483700">
        <ele>-93.0</ele>
        <time>2022-06-10T06:22:54Z</time>
      </trkpt>
      <trkpt lat="47.6609660" lon="9.1481460">
        <ele>-93.4</ele>
        <time>2022-06-10T06:22:58Z</time>
      </trkpt>
      <trkpt lat="47.6609230" lon="9.1478910">
        <ele>-93.8</ele>
        <time>2022-06-10T06:23:02Z</time>
      </trkpt>
      <trkpt lat="47.6608780" lon="9.1476360">
        <ele>-93.8</ele>
        <time>2022-06-10T06:23:06Z</time>
      </trkpt>
      <trkpt lat="47.6608360" lon="9.1473910">
        <ele>-94.0</ele>
        <time>2022-06-10T06:23:10Z</time>
      </trkpt>
      <trkpt lat="47.6608000" lon="9.1471500">
        <ele>-93.2</ele>
        <time>2022-06-10T06:23:14Z</time>
      </trkpt>
      <trkpt lat="47.6607580" lon="9.1469130">
        <ele>-93.4</ele>
        <time>2022-06-10T06:23:18Z</time>
      </trkpt>
      <trkpt lat="47.6607160" lon="9.1466800">
        <ele>-93.0</ele>
        <time>2022-06-10T06:23:22Z</time>
      </trkpt>
      <trkpt lat="47.6606830" lon="9.1464580">
        <ele>-93.0</ele>
        <time>2022-06-10T06:23:26Z</time>
      </trkpt>
      <trkpt lat="47.6606410" lon="9.1462260">
        <ele>-93.0</ele>
        <time>2022-06-10T06:23:30Z</time>
      </trkpt>
      <trkpt lat="47.6606000" lon="9.1459880">
        <ele>-92.8</ele>
        <time>2022-06-10T06:23:34Z</time>
      </trkpt>
      <trkpt lat="47.6605580" lon="9.1457480">
        <ele>-93.4</ele>
        <time>2022-06-10T06:23:38Z</time>
      </trkpt>
      <trkpt lat="47.6605150" lon="9.1455210">
        <ele>-92.8</ele>
        <time>2022-06-10T06:23:42Z</time>
      </trkpt>
      <trkpt lat="47.6604650" lon="9.1453050">
        <ele>-92.6</ele>
        <time>2022-06-10T06:23:46Z</time>
      </trkpt>
      <trkpt lat="47.6604280" lon="9.1450810">
        <ele>-92.8</ele>
        <time>2022-06-10T06:23:50Z</time>
      </trkpt>
      <trkpt lat="47.6603860" lon="9.1448850">
        <ele>-92.8</ele>
        <time>2022-06-10T06:23:54Z</time>
      </trkpt>
      <trkpt lat="47.6603550" lon="9.1447080">
        <ele>-93.0</ele>
        <time>2022-06-10T06:23:58Z</time>
      </trkpt>
      <trkpt lat="47.6603060" lon="9.1445630">
        <ele>-92.8</ele>
        <time>2022-06-10T06:24:02Z</time>
      </trkpt>
      <trkpt lat="47.6602280" lon="9.1444750">
        <ele>-92.8</ele>
        <time>2022-06-10T06:24:06Z</time>
      </trkpt>
      <trkpt lat="47.6601580" lon="9.1444560">
        <ele>-92.8</ele>
        <time>2022-06-10T06:24:10Z</time>
      </trkpt>
      <trkpt lat="47.6601580" lon="9.1444560">
        <ele>-92.8</ele>
        <time>2022-06-10T06:24:14Z</time>
      </trkpt>
      <trkpt lat="47.6601580" lon="9.1444560">
        <ele>-92.8</ele>
        <time>2022-06-10T06:24:18Z</time>
      </trkpt>
      <trkpt lat="47.6601580" lon="9.1444560">
        <ele>-92.6</ele>
        <time>2022-06-10T06:24:22Z</time>
      </trkpt>
      <trkpt lat="47.6601580" lon="9.1444560">
        <ele>-92.8</ele>
        <time>2022-06-10T06:24:26Z</time>
      </trkpt>
      <trkpt lat="47.6601580" lon="9.1444560">
        <ele>-92.4</ele>
        <time>2022-06-10T06:24:30Z</time>
      </trkpt>
      <trkpt lat="47.6601580" lon="9.1444560">
        <ele>-92.8</ele>
        <time>2022-06-10T06:24:34Z</time>
      </trkpt>
      <trkpt lat="47.6601580" lon="9.1444560">
        <ele>-92.8</ele>
        <time>2022-06-10T06:24:38Z</time>
      </trkpt>
      <trkpt lat="47.6601580" lon="9.1444560">
        <ele>-93.0</ele>
        <time>2022-06-10T06:24:42Z</time>
      </trkpt>
      <trkpt lat="47.6601580" lon="9.1444560">
        <ele>-92.6</ele>
        <time>2022-06-10T06:24:46Z</time>
      </trkpt>
      <trkpt lat="47.6601580" lon="9.1444560">
        <ele>-92.8</ele>
        <time>2022-06-10T06:24:50Z</time>
      </trkpt>
      <trkpt lat="47.6601580" lon="9.1444560">
        <ele>-92.6</ele>
        <time>2022-06-10T06:24:54Z</time>
      </trkpt>
      <trkpt lat="47.6601580" lon="9.1444560">
        <ele>-92.8</ele>
        <time>2022-06-10T06:24:58Z</time>
      </trkpt>
      <trkpt lat="47.6601580" lon="9.1444560">
        <ele>-92.4</ele>
        <time>2022-06-10T06:25:02Z</time>
      </trkpt>
      <trkpt lat="47.6601580" lon="9.1444560">
        <ele>-92.6</ele>
        <time>2022-06-10T06:25:06Z</time>
      </trkpt>
      <trkpt lat="47.6601580" lon="9.1444560">
        <ele>-92.8</ele>
        <time>2022-06-10T06:25:10Z</time>
      </trkpt>
      <trkpt lat="47.6601580" lon="9.1444560">
        <ele>-92.8</ele>
        <time>2022-06-10T06:25:14Z</time>
      </trkpt>
      <trkpt lat="47.6601580" lon="9.1444560">
        <ele>-93.0</ele>
        <time>2022-06-10T06:25:18Z</time>
      </trkpt>
      <trkpt lat="47.6601580" lon="9.1444560">
        <ele>-92.8</ele>
        <time>2022-06-10T06:25:22Z</time>
      </trkpt>
      <trkpt lat="47.6601430" lon="9.1444510">
        <ele>-92.6</ele>
        <time>2022-06-10T06:25:26Z</time>
      </trkpt>
      <trkpt lat="47.6600700" lon="9.1444350">
        <ele>-93.2</ele>
        <time>2022-06-10T06:25:30Z</time>
      </trkpt>
      <trkpt lat="47.6600100" lon="9.1445550">
        <ele>-93.0</ele>
        <time>2022-06-10T06:25:34Z</time>
      </trkpt>
      <trkpt lat="47.6599830" lon="9.1447600">
        <ele>-93.2</ele>
        <time>2022-06-10T06:25:38Z</time>
      </trkpt>
      <trkpt lat="47.6599210" lon="9.1449700">
        <ele>-92.8</ele>
        <time>2022-06-10T06:25:42Z</time>
      </trkpt>
      <trkpt lat="47.6598280" lon="9.1451660">
        <ele>-92.6</ele>
        <time>2022-06-10T06:25:46Z</time>
      </trkpt>
      <trkpt lat="47.6597100" lon="9.1453450">
        <ele>-92.6</ele>
        <time>2022-06-10T06:25:50Z</time>
      </trkpt>
      <trkpt lat="47.6595750" lon="9.1455010">
        <ele>-92.6</ele>
        <time>2022-06-10T06:25:54Z</time>
      </trkpt>
      <trkpt lat="47.6594260" lon="9.1456160">
        <ele>-92.8</ele>
        <time>2022-06-10T06:25:58Z</time>
      </trkpt>
      <trkpt lat="47.6592750" lon="9.1457130">
        <ele>-92.4</ele>
        <time>2022-06-10T06:26:02Z</time>
      </trkpt>
      <trkpt lat="47.6591210" lon="9.1458060">
        <ele>-92.4</ele>
        <time>2022-06-10T06:26:06Z</time>
      </trkpt>
      <trkpt lat="47.6589630" lon="9.1457900">
        <ele>-93.0</ele>
        <time>2022-06-10T06:26:10Z</time>
      </trkpt>
      <trkpt lat="47.6587980" lon="9.1456810">
        <ele>-92.2</ele>
        <time>2022-06-10T06:26:14Z</time>
      </trkpt>
      <trkpt lat="47.6586200" lon="9.1457700">
        <ele>-91.8</ele>
        <time>2022-06-10T06:26:18Z</time>
      </trkpt>
      <trkpt lat="47.6584610" lon="9.1458980">
        <ele>-92.2</ele>
        <time>2022-06-10T06:26:22Z</time>
      </trkpt>
      <trkpt lat="47.6582910" lon="9.1459910">
        <ele>-92.2</ele>
        <time>2022-06-10T06:26:26Z</time>
      </trkpt>
      <trkpt lat="47.6581130" lon="9.1460630">
        <ele>-93.4</ele>
        <time>2022-06-10T06:26:30Z</time>
      </trkpt>
      <trkpt lat="47.6581130" lon="9.1460630">
        <ele>-93.2</ele>
        <time>2022-06-10T06:26:34Z</time>
      </trkpt>
      <trkpt lat="47.6581130" lon="9.1460630">
        <ele>-93.2</ele>
        <time>2022-06-10T06:26:38Z</time>
      </trkpt>
      <trkpt lat="47.6581130" lon="9.1460630">
        <ele>-93.0</ele>
        <time>2022-06-10T06:26:42Z</time>
      </trkpt>
      <trkpt lat="47.6581130" lon="9.1460630">
        <ele>-93.2</ele>
        <time>2022-06-10T06:26:46Z</time>
      </trkpt>
      <trkpt lat="47.6580310" lon="9.1460750">
        <ele>-93.4</ele>
        <time>2022-06-10T06:26:50Z</time>
      </trkpt>
      <trkpt lat="47.6580200" lon="9.1460700">
        <ele>-94.0</ele>
        <time>2022-06-10T06:26:54Z</time>
      </trkpt>
      <trkpt lat="47.6579350" lon="9.1460410">
        <ele>-94.2</ele>
        <time>2022-06-10T06:26:58Z</time>
      </trkpt>
      <trkpt lat="47.6577850" lon="9.1459650">
        <ele>-94.6</ele>
        <time>2022-06-10T06:27:02Z</time>
      </trkpt>
      <trkpt lat="47.6576180" lon="9.1458150">
        <ele>-95.4</ele>
        <time>2022-06-10T06:27:06Z</time>
      </trkpt>
      <trkpt lat="47.6574610" lon="9.1456550">
        <ele>-93.8</ele>
        <time>2022-06-10T06:27:10Z</time>
      </trkpt>
      <trkpt lat="47.6573200" lon="9.1455330">
        <ele>-93.2</ele>
        <time>2022-06-10T06:27:14Z</time>
      </trkpt>
      <trkpt lat="47.6571810" lon="9.1454030">
        <ele>-92.6</ele>
        <time>2022-06-10T06:27:18Z</time>
      </trkpt>
      <trkpt lat="47.6570380" lon="9.1452900">
        <ele>-92.2</ele>
        <time>2022-06-10T06:27:22Z</time>
      </trkpt>
      <trkpt lat="47.6568980" lon="9.1451950">
        <ele>-91.6</ele>
        <time>2022-06-10T06:27:26Z</time>
      </trkpt>
      <trkpt lat="47.6567630" lon="9.1451180">
        <ele>-91.2</ele>
        <time>2022-06-10T06:27:30Z</time>
      </trkpt>
      <trkpt lat="47.6566260" lon="9.1450460">
        <ele>-90.6</ele>
        <time>2022-06-10T06:27:34Z</time>
      </trkpt>
      <trkpt lat="47.6564830" lon="9.1449800">
        <ele>-90.2</ele>
        <time>2022-06-10T06:27:38Z</time>
      </trkpt>
      <trkpt lat="47.6563500" lon="9.1448910">
        <ele>-90.4</ele>
        <time>2022-06-10T06:27:42Z</time>
      </trkpt>
      <trkpt lat="47.6562150" lon="9.1448100">
        <ele>-89.8</ele>
        <time>2022-06-10T06:27:46Z</time>
      </trkpt>
      <trkpt lat="47.6560780" lon="9.1447330">
        <ele>-89.4</ele>
        <time>2022-06-10T06:27:50Z</time>
      </trkpt>
      <trkpt lat="47.6559380" lon="9.1446550">
        <ele>-88.6</ele>
        <time>2022-06-10T06:27:54Z</time>
      </trkpt>
      <trkpt lat="47.6558010" lon="9.1445700">
        <ele>-88.2</ele>
        <time>2022-06-10T06:27:58Z</time>
      </trkpt>
      <trkpt lat="47.6556580" lon="9.1444910">
        <ele>-87.8</ele>
        <time>2022-06-10T06:28:02Z</time>
      </trkpt>
      <trkpt lat="47.6555200" lon="9.1444080">
        <ele>-87.4</ele>
        <time>2022-06-10T06:28:06Z</time>
      </trkpt>
      <trkpt lat="47.6553800" lon="9.1444460">
        <ele>-87.8</ele>
        <time>2022-06-10T06:28:10Z</time>
      </trkpt>
      <trkpt lat="47.6553050" lon="9.1446510">
        <ele>-87.8</ele>
        <time>2022-06-10T06:28:14Z</time>
      </trkpt>
      <trkpt lat="47.6552630" lon="9.1448830">
        <ele>-87.8</ele>
        <time>2022-06-10T06:28:18Z</time>
      </trkpt>
      <trkpt lat="47.6552180" lon="9.1451130">
        <ele>-87.8</ele>
        <time>2022-06-10T06:28:22Z</time>
      </trkpt>
      <trkpt lat="47.6551730" lon="9.1453430">
        <ele>-88.0</ele>
        <time>2022-06-10T06:28:26Z</time>
      </trkpt>
      <trkpt lat="47.6551280" lon="9.1455780">
        <ele>-87.8</ele>
        <time>2022-06-10T06:28:30Z</time>
      </trkpt>
      <trkpt lat="47.6550860" lon="9.1458180">
        <ele>-87.4</ele>
        <time>2022-06-10T06:28:34Z</time>
      </trkpt>
      <trkpt lat="47.6550460" lon="9.1460430">
        <ele>-87.8</ele>
        <time>2022-06-10T06:28:38Z</time>
      </trkpt>
      <trkpt lat="47.6550060" lon="9.1462510">
        <ele>-87.6</ele>
        <time>2022-06-10T06:28:42Z</time>
      </trkpt>
      <trkpt lat="47.6549650" lon="9.1464510">
        <ele>-87.6</ele>
        <time>2022-06-10T06:28:46Z</time>
      </trkpt>
      <trkpt lat="47.6549250" lon="9.1466560">
        <ele>-87.4</ele>
        <time>2022-06-10T06:28:50Z</time>
      </trkpt>
      <trkpt lat="47.6548880" lon="9.1468530">
        <ele>-87.8</ele>
        <time>2022-06-10T06:28:54Z</time>
      </trkpt>
      <trkpt lat="47.6548560" lon="9.1470350">
        <ele>-87.8</ele>
        <time>2022-06-10T06:28:58Z</time>
      </trkpt>
      <trkpt lat="47.6548300" lon="9.1472060">
        <ele>-87.8</ele>
        <time>2022-06-10T06:29:02Z</time>
      </trkpt>
      <trkpt lat="47.6547950" lon="9.1474110">
        <ele>-87.8</ele>
        <time>2022-06-10T06:29:06Z</time>
      </trkpt>
      <trkpt lat="47.6547560" lon="9.1476280">
        <ele>-88.0</ele>
        <time>2022-06-10T06:29:10Z</time>
      </trkpt>
      <trkpt lat="47.6547100" lon="9.1478510">
        <ele>-87.4</ele>
        <time>2022-06-10T06:29:14Z</time>
      </trkpt>
      <trkpt lat="47.6546660" lon="9.1480710">
        <ele>-87.2</ele>
        <time>2022-06-10T06:29:18Z</time>
      </trkpt>
      <trkpt lat="47.6546260" lon="9.1482660">
        <ele>-87.2</ele>
        <time>2022-06-10T06:29:22Z</time>
      </trkpt>
      <trkpt lat="47.6546010" lon="9.1484430">
        <ele>-86.6</ele>
        <time>2022-06-10T06:29:26Z</time>
      </trkpt>
      <trkpt lat="47.6545650" lon="9.1486130">
        <ele>-86.4</ele>
        <time>2022-06-10T06:29:30Z</time>
      </trkpt>
      <trkpt lat="47.6545300" lon="9.1487850">
        <ele>-85.6</ele>
        <time>2022-06-10T06:29:34Z</time>
      </trkpt>
      <trkpt lat="47.6545030" lon="9.1489300">
        <ele>-84.6</ele>
        <time>2022-06-10T06:29:38Z</time>
      </trkpt>
      <trkpt lat="47.6544680" lon="9.1490860">
        <ele>-84.8</ele>
        <time>2022-06-10T06:29:42Z</time>
      </trkpt>
      <trkpt lat="47.6544360" lon="9.1492530">
        <ele>-84.4</ele>
        <time>2022-06-10T06:29:46Z</time>
      </trkpt>
      <trkpt lat="47.6544010" lon="9.1494210">
        <ele>-84.4</ele>
        <time>2022-06-10T06:29:50Z</time>
      </trkpt>
      <trkpt lat="47.6543810" lon="9.1495850">
        <ele>-83.8</ele>
        <time>2022-06-10T06:29:54Z</time>
      </trkpt>
      <trkpt lat="47.6543450" lon="9.1497530">
        <ele>-83.8</ele>
        <time>2022-06-10T06:29:58Z</time>
      </trkpt>
      <trkpt lat="47.6543110" lon="9.1499380">
        <ele>-82.8</ele>
        <time>2022-06-10T06:30:02Z</time>
      </trkpt>
      <trkpt lat="47.6542750" lon="9.1501280">
        <ele>-82.8</ele>
        <time>2022-06-10T06:30:06Z</time>
      </trkpt>
      <trkpt lat="47.6542360" lon="9.1503210">
        <ele>-81.8</ele>
        <time>2022-06-10T06:30:10Z</time>
      </trkpt>
      <trkpt lat="47.6541960" lon="9.1505150">
        <ele>-82.2</ele>
        <time>2022-06-10T06:30:14Z</time>
      </trkpt>
      <trkpt lat="47.6541550" lon="9.1507130">
        <ele>-81.8</ele>
        <time>2022-06-10T06:30:18Z</time>
      </trkpt>
      <trkpt lat="47.6541150" lon="9.1509160">
        <ele>-81.8</ele>
        <time>2022-06-10T06:30:22Z</time>
      </trkpt>
      <trkpt lat="47.6540800" lon="9.1511230">
        <ele>-81.0</ele>
        <time>2022-06-10T06:30:26Z</time>
      </trkpt>
      <trkpt lat="47.6540410" lon="9.1513310">
        <ele>-81.4</ele>
        <time>2022-06-10T06:30:30Z</time>
      </trkpt>
      <trkpt lat="47.6540110" lon="9.1515200">
        <ele>-80.6</ele>
        <time>2022-06-10T06:30:34Z</time>
      </trkpt>
      <trkpt lat="47.6539700" lon="9.1517000">
        <ele>-80.0</ele>
        <time>2022-06-10T06:30:38Z</time>
      </trkpt>
      <trkpt lat="47.6539350" lon="9.1518810">
        <ele>-79.6</ele>
        <time>2022-06-10T06:30:42Z</time>
      </trkpt>
      <trkpt lat="47.6538980" lon="9.1520680">
        <ele>-79.6</ele>
        <time>2022-06-10T06:30:46Z</time>
      </trkpt>
      <trkpt lat="47.6538560" lon="9.1522800">
        <ele>-80.2</ele>
        <time>2022-06-10T06:30:50Z</time>
      </trkpt>
      <trkpt lat="47.6538110" lon="9.1525250">
        <ele>-80.8</ele>
        <time>2022-06-10T06:30:54Z</time>
      </trkpt>
      <trkpt lat="47.6537550" lon="9.1528110">
        <ele>-82.2</ele>
        <time>2022-06-10T06:30:58Z</time>
      </trkpt>
      <trkpt lat="47.6536850" lon="9.1531800">
        <ele>-84.4</ele>
        <time>2022-06-10T06:31:02Z</time>
      </trkpt>
      <trkpt lat="47.6536060" lon="9.1535980">
        <ele>-85.0</ele>
        <time>2022-06-10T06:31:06Z</time>
      </trkpt>
      <trkpt lat="47.6535200" lon="9.1540300">
        <ele>-85.0</ele>
        <time>2022-06-10T06:31:10Z</time>
      </trkpt>
      <trkpt lat="47.6534350" lon="9.1544530">
        <ele>-86.2</ele>
        <time>2022-06-10T06:31:14Z</time>
      </trkpt>
      <trkpt lat="47.6533630" lon="9.1548530">
        <ele>-87.0</ele>
        <time>2022-06-10T06:31:18Z</time>
      </trkpt>
      <trkpt lat="47.6532930" lon="9.1552110">
        <ele>-87.0</ele>
        <time>2022-06-10T06:31:22Z</time>
      </trkpt>
      <trkpt lat="47.6532310" lon="9.1555380">
        <ele>-87.0</ele>
        <time>2022-06-10T06:31:26Z</time>
      </trkpt>
      <trkpt lat="47.6531760" lon="9.1558410">
        <ele>-86.8</ele>
        <time>2022-06-10T06:31:30Z</time>
      </trkpt>
      <trkpt lat="47.6530850" lon="9.1560630">
        <ele>-87.0</ele>
        <time>2022-06-10T06:31:34Z</time>
      </trkpt>
      <trkpt lat="47.6529610" lon="9.1559430">
        <ele>-86.4</ele>
        <time>2022-06-10T06:31:38Z</time>
      </trkpt>
      <trkpt lat="47.6528660" lon="9.1557930">
        <ele>-85.8</ele>
        <time>2022-06-10T06:31:42Z</time>
      </trkpt>
      <trkpt lat="47.6527650" lon="9.1556330">
        <ele>-85.6</ele>
        <time>2022-06-10T06:31:46Z</time>
      </trkpt>
      <trkpt lat="47.6526610" lon="9.1554830">
        <ele>-85.4</ele>
        <time>2022-06-10T06:31:50Z</time>
      </trkpt>
      <trkpt lat="47.6525660" lon="9.1553380">
        <ele>-85.0</ele>
        <time>2022-06-10T06:31:54Z</time>
      </trkpt>
      <trkpt lat="47.6524700" lon="9.1552160">
        <ele>-84.6</ele>
        <time>2022-06-10T06:31:58Z</time>
      </trkpt>
      <trkpt lat="47.6523780" lon="9.1551000">
        <ele>-83.6</ele>
        <time>2022-06-10T06:32:02Z</time>
      </trkpt>
      <trkpt lat="47.6522880" lon="9.1549810">
        <ele>-83.0</ele>
        <time>2022-06-10T06:32:06Z</time>
      </trkpt>
      <trkpt lat="47.6521950" lon="9.1548630">
        <ele>-82.8</ele>
        <time>2022-06-10T06:32:10Z</time>
      </trkpt>
      <trkpt lat="47.6521050" lon="9.1547500">
        <ele>-82.0</ele>
        <time>2022-06-10T06:32:14Z</time>
      </trkpt>
      <trkpt lat="47.6520250" lon="9.1546580">
        <ele>-80.8</ele>
        <time>2022-06-10T06:32:18Z</time>
      </trkpt>
      <trkpt lat="47.6519410" lon="9.1545630">
        <ele>-80.8</ele>
        <time>2022-06-10T06:32:22Z</time>
      </trkpt>
      <trkpt lat="47.6518580" lon="9.1544710">
        <ele>-80.6</ele>
        <time>2022-06-10T06:32:26Z</time>
      </trkpt>
      <trkpt lat="47.6517780" lon="9.1543800">
        <ele>-80.0</ele>
        <time>2022-06-10T06:32:30Z</time>
      </trkpt>
      <trkpt lat="47.6516930" lon="9.1542950">
        <ele>-78.8</ele>
        <time>2022-06-10T06:32:34Z</time>
      </trkpt>
      <trkpt lat="47.6516110" lon="9.1542130">
        <ele>-78.2</ele>
        <time>2022-06-10T06:32:38Z</time>
      </trkpt>
      <trkpt lat="47.6515400" lon="9.1541400">
        <ele>-78.4</ele>
        <time>2022-06-10T06:32:42Z</time>
      </trkpt>
      <trkpt lat="47.6514700" lon="9.1540630">
        <ele>-76.6</ele>
        <time>2022-06-10T06:32:46Z</time>
      </trkpt>
      <trkpt lat="47.6514150" lon="9.1539630">
        <ele>-76.2</ele>
        <time>2022-06-10T06:32:50Z</time>
      </trkpt>
      <trkpt lat="47.6513500" lon="9.1538700">
        <ele>-76.0</ele>
        <time>2022-06-10T06:32:54Z</time>
      </trkpt>
      <trkpt lat="47.6512830" lon="9.1537760">
        <ele>-74.6</ele>
        <time>2022-06-10T06:32:58Z</time>
      </trkpt>
      <trkpt lat="47.6512060" lon="9.1537010">
        <ele>-73.8</ele>
        <time>2022-06-10T06:33:02Z</time>
      </trkpt>
      <trkpt lat="47.6511310" lon="9.1536180">
        <ele>-72.6</ele>
        <time>2022-06-10T06:33:06Z</time>
      </trkpt>
      <trkpt lat="47.6510550" lon="9.1535460">
        <ele>-72.0</ele>
        <time>2022-06-10T06:33:10Z</time>
      </trkpt>
      <trkpt lat="47.6509780" lon="9.1534750">
        <ele>-70.8</ele>
        <time>2022-06-10T06:33:14Z</time>
      </trkpt>
      <trkpt lat="47.6509060" lon="9.1533900">
        <ele>-70.8</ele>
        <time>2022-06-10T06:33:18Z</time>
      </trkpt>
      <trkpt lat="47.6508730" lon="9.1532550">
        <ele>-69.8</ele>
        <time>2022-06-10T06:33:22Z</time>
      </trkpt>
      <trkpt lat="47.6508250" lon="9.1531410">
        <ele>-69.4</ele>
        <time>2022-06-10T06:33:26Z</time>
      </trkpt>
      <trkpt lat="47.6507680" lon="9.1531610">
        <ele>-69.4</ele>
        <time>2022-06-10T06:33:30Z</time>
      </trkpt>
      <trkpt lat="47.6507950" lon="9.1531500">
        <ele>-68.8</ele>
        <time>2022-06-10T06:33:34Z</time>
      </trkpt>
      <trkpt lat="47.6507610" lon="9.1530750">
        <ele>-69.0</ele>
        <time>2022-06-10T06:33:38Z</time>
      </trkpt>
      <trkpt lat="47.6507610" lon="9.1530750">
        <ele>-68.8</ele>
        <time>2022-06-10T06:33:42Z</time>
      </trkpt>
      <trkpt lat="47.6507610" lon="9.1530750">
        <ele>-68.6</ele>
        <time>2022-06-10T06:33:46Z</time>
      </trkpt>
      <trkpt lat="47.6507310" lon="9.1530430">
        <ele>-68.2</ele>
        <time>2022-06-10T06:33:50Z</time>
      </trkpt>
      <trkpt lat="47.6506880" lon="9.1530200">
        <ele>-67.8</ele>
        <time>2022-06-10T06:33:54Z</time>
      </trkpt>
      <trkpt lat="47.6506880" lon="9.1530200">
        <ele>-67.8</ele>
        <time>2022-06-10T06:33:58Z</time>
      </trkpt>
      <trkpt lat="47.6506880" lon="9.1530200">
        <ele>-68.4</ele>
        <time>2022-06-10T06:34:02Z</time>
      </trkpt>
      <trkpt lat="47.6506880" lon="9.1530200">
        <ele>-68.2</ele>
        <time>2022-06-10T06:34:06Z</time>
      </trkpt>
      <trkpt lat="47.6506880" lon="9.1530200">
        <ele>-67.6</ele>
        <time>2022-06-10T06:34:10Z</time>
      </trkpt>
      <trkpt lat="47.6506880" lon="9.1530200">
        <ele>-68.2</ele>
        <time>2022-06-10T06:34:14Z</time>
      </trkpt>
      <trkpt lat="47.6506880" lon="9.1530200">
        <ele>-68.8</ele>
        <time>2022-06-10T06:34:18Z</time>
      </trkpt>
      <trkpt lat="47.6506850" lon="9.1530200">
        <ele>-68.2</ele>
        <time>2022-06-10T06:34:22Z</time>
      </trkpt>
      <trkpt lat="47.6506100" lon="9.1530230">
        <ele>-68.2</ele>
        <time>2022-06-10T06:34:26Z</time>
      </trkpt>
      <trkpt lat="47.6505330" lon="9.1532080">
        <ele>-67.6</ele>
        <time>2022-06-10T06:34:30Z</time>
      </trkpt>
      <trkpt lat="47.6504700" lon="9.1534260">
        <ele>-67.8</ele>
        <time>2022-06-10T06:34:34Z</time>
      </trkpt>
      <trkpt lat="47.6504060" lon="9.1536650">
        <ele>-67.6</ele>
        <time>2022-06-10T06:34:38Z</time>
      </trkpt>
      <trkpt lat="47.6503380" lon="9.1539150">
        <ele>-67.6</ele>
        <time>2022-06-10T06:34:42Z</time>
      </trkpt>
      <trkpt lat="47.6502660" lon="9.1541680">
        <ele>-67.6</ele>
        <time>2022-06-10T06:34:46Z</time>
      </trkpt>
      <trkpt lat="47.6502010" lon="9.1544180">
        <ele>-67.4</ele>
        <time>2022-06-10T06:34:50Z</time>
      </trkpt>
      <trkpt lat="47.6501360" lon="9.1546650">
        <ele>-67.6</ele>
        <time>2022-06-10T06:34:54Z</time>
      </trkpt>
      <trkpt lat="47.6500680" lon="9.1549250">
        <ele>-67.6</ele>
        <time>2022-06-10T06:34:58Z</time>
      </trkpt>
      <trkpt lat="47.6499950" lon="9.1552010">
        <ele>-67.6</ele>
        <time>2022-06-10T06:35:02Z</time>
      </trkpt>
      <trkpt lat="47.6499380" lon="9.1554860">
        <ele>-68.0</ele>
        <time>2022-06-10T06:35:06Z</time>
      </trkpt>
      <trkpt lat="47.6498750" lon="9.1557630">
        <ele>-68.6</ele>
        <time>2022-06-10T06:35:10Z</time>
      </trkpt>
      <trkpt lat="47.6498050" lon="9.1560430">
        <ele>-67.6</ele>
        <time>2022-06-10T06:35:14Z</time>
      </trkpt>
      <trkpt lat="47.6497300" lon="9.1563110">
        <ele>-67.6</ele>
        <time>2022-06-10T06:35:18Z</time>
      </trkpt>
      <trkpt lat="47.6496580" lon="9.1565860">
        <ele>-67.6</ele>
        <time>2022-06-10T06:35:22Z</time>
      </trkpt>
      <trkpt lat="47.6495830" lon="9.1568710">
        <ele>-67.4</ele>
        <time>2022-06-10T06:35:26Z</time>
      </trkpt>
      <trkpt lat="47.6495030" lon="9.1571530">
        <ele>-67.6</ele>
        <time>2022-06-10T06:35:30Z</time>
      </trkpt>
      <trkpt lat="47.6494280" lon="9.1574300">
        <ele>-68.0</ele>
        <time>2022-06-10T06:35:34Z</time>
      </trkpt>
      <trkpt lat="47.6493550" lon="9.1577130">
        <ele>-68.4</ele>
        <time>2022-06-10T06:35:38Z</time>
      </trkpt>
      <trkpt lat="47.6492750" lon="9.1580180">
        <ele>-68.4</ele>
        <time>2022-06-10T06:35:42Z</time>
      </trkpt>
      <trkpt lat="47.6491900" lon="9.1583410">
        <ele>-69.2</ele>
        <time>2022-06-10T06:35:46Z</time>
      </trkpt>
      <trkpt lat="47.6490980" lon="9.1586760">
        <ele>-70.4</ele>
        <time>2022-06-10T06:35:50Z</time>
      </trkpt>
      <trkpt lat="47.6490080" lon="9.1590300">
        <ele>-70.6</ele>
        <time>2022-06-10T06:35:54Z</time>
      </trkpt>
      <trkpt lat="47.6489060" lon="9.1593910">
        <ele>-71.8</ele>
        <time>2022-06-10T06:35:58Z</time>
      </trkpt>
      <trkpt lat="47.6487850" lon="9.1597580">
        <ele>-72.2</ele>
        <time>2022-06-10T06:36:02Z</time>
      </trkpt>
      <trkpt lat="47.6486780" lon="9.1601380">
        <ele>-73.6</ele>
        <time>2022-06-10T06:36:06Z</time>
      </trkpt>
      <trkpt lat="47.6485860" lon="9.1605060">
        <ele>-74.0</ele>
        <time>2022-06-10T06:36:10Z</time>
      </trkpt>
      <trkpt lat="47.6484930" lon="9.1608630">
        <ele>-74.4</ele>
        <time>2022-06-10T06:36:14Z</time>
      </trkpt>
      <trkpt lat="47.6483950" lon="9.1612080">
        <ele>-75.2</ele>
        <time>2022-06-10T06:36:18Z</time>
      </trkpt>
      <trkpt lat="47.6482930" lon="9.1615360">
        <ele>-75.2</ele>
        <time>2022-06-10T06:36:22Z</time>
      </trkpt>
      <trkpt lat="47.6481880" lon="9.1618510">
        <ele>-74.8</ele>
        <time>2022-06-10T06:36:26Z</time>
      </trkpt>
      <trkpt lat="47.6480610" lon="9.1620400">
        <ele>-74.6</ele>
        <time>2022-06-10T06:36:30Z</time>
      </trkpt>
      <trkpt lat="47.6479680" lon="9.1620110">
        <ele>-74.4</ele>
        <time>2022-06-10T06:36:34Z</time>
      </trkpt>
      <trkpt lat="47.6479060" lon="9.1619150">
        <ele>-73.8</ele>
        <time>2022-06-10T06:36:38Z</time>
      </trkpt>
      <trkpt lat="47.6478400" lon="9.1617980">
        <ele>-73.2</ele>
        <time>2022-06-10T06:36:42Z</time>
      </trkpt>
      <trkpt lat="47.6477800" lon="9.1616830">
        <ele>-72.4</ele>
        <time>2022-06-10T06:36:46Z</time>
      </trkpt>
      <trkpt lat="47.6476950" lon="9.1615900">
        <ele>-72.0</ele>
        <time>2022-06-10T06:36:50Z</time>
      </trkpt>
      <trkpt lat="47.6476030" lon="9.1615180">
        <ele>-71.4</ele>
        <time>2022-06-10T06:36:54Z</time>
      </trkpt>
      <trkpt lat="47.6475260" lon="9.1614830">
        <ele>-70.4</ele>
        <time>2022-06-10T06:36:58Z</time>
      </trkpt>
      <trkpt lat="47.6474530" lon="9.1614560">
        <ele>-69.6</ele>
        <time>2022-06-10T06:37:02Z</time>
      </trkpt>
      <trkpt lat="47.6473660" lon="9.1614160">
        <ele>-69.6</ele>
        <time>2022-06-10T06:37:06Z</time>
      </trkpt>
      <trkpt lat="47.6472780" lon="9.1613830">
        <ele>-68.6</ele>
        <time>2022-06-10T06:37:10Z</time>
      </trkpt>
      <trkpt lat="47.6471910" lon="9.1613450">
        <ele>-68.2</ele>
        <time>2022-06-10T06:37:14Z</time>
      </trkpt>
      <trkpt lat="47.6471000" lon="9.1613250">
        <ele>-67.0</ele>
        <time>2022-06-10T06:37:18Z</time>
      </trkpt>
      <trkpt lat="47.6470150" lon="9.1612910">
        <ele>-66.8</ele>
        <time>2022-06-10T06:37:22Z</time>
      </trkpt>
      <trkpt lat="47.6469250" lon="9.1612610">
        <ele>-65.6</ele>
        <time>2022-06-10T06:37:26Z</time>
      </trkpt>
      <trkpt lat="47.6468430" lon="9.1612310">
        <ele>-64.4</ele>
        <time>2022-06-10T06:37:30Z</time>
      </trkpt>
      <trkpt lat="47.6467500" lon="9.1611750">
        <ele>-63.6</ele>
        <time>2022-06-10T06:37:34Z</time>
      </trkpt>
      <trkpt lat="47.6466650" lon="9.1611400">
        <ele>-63.2</ele>
        <time>2022-06-10T06:37:38Z</time>
      </trkpt>
      <trkpt lat="47.6465760" lon="9.1610980">
        <ele>-62.0</ele>
        <time>2022-06-10T06:37:42Z</time>
      </trkpt>
      <trkpt lat="47.6464910" lon="9.1610660">
        <ele>-61.6</ele>
        <time>2022-06-10T06:37:46Z</time>
      </trkpt>
      <trkpt lat="47.6464200" lon="9.1610280">
        <ele>-61.2</ele>
        <time>2022-06-10T06:37:50Z</time>
      </trkpt>
      <trkpt lat="47.6463430" lon="9.1609980">
        <ele>-60.2</ele>
        <time>2022-06-10T06:37:54Z</time>
      </trkpt>
      <trkpt lat="47.6462560" lon="9.1609730">
        <ele>-60.0</ele>
        <time>2022-06-10T06:37:58Z</time>
      </trkpt>
      <trkpt lat="47.6461780" lon="9.1609380">
        <ele>-59.2</ele>
        <time>2022-06-10T06:38:02Z</time>
      </trkpt>
      <trkpt lat="47.6460950" lon="9.1609080">
        <ele>-58.4</ele>
        <time>2022-06-10T06:38:06Z</time>
      </trkpt>
      <trkpt lat="47.6460100" lon="9.1608780">
        <ele>-57.8</ele>
        <time>2022-06-10T06:38:10Z</time>
      </trkpt>
      <trkpt lat="47.6459200" lon="9.1608480">
        <ele>-57.2</ele>
        <time>2022-06-10T06:38:14Z</time>
      </trkpt>
      <trkpt lat="47.6458380" lon="9.1608180">
        <ele>-56.2</ele>
        <time>2022-06-10T06:38:18Z</time>
      </trkpt>
      <trkpt lat="47.6457610" lon="9.1607910">
        <ele>-55.8</ele>
        <time>2022-06-10T06:38:22Z</time>
      </trkpt>
      <trkpt lat="47.6456880" lon="9.1607600">
        <ele>-54.8</ele>
        <time>2022-06-10T06:38:26Z</time>
      </trkpt>
      <trkpt lat="47.6456210" lon="9.1607310">
        <ele>-54.2</ele>
        <time>2022-06-10T06:38:30Z</time>
      </trkpt>
      <trkpt lat="47.6455500" lon="9.1607050">
        <ele>-53.6</ele>
        <time>2022-06-10T06:38:34Z</time>
      </trkpt>
      <trkpt lat="47.6454780" lon="9.1606810">
        <ele>-52.6</ele>
        <time>2022-06-10T06:38:38Z</time>
      </trkpt>
      <trkpt lat="47.6454100" lon="9.1606480">
        <ele>-52.4</ele>
        <time>2022-06-10T06:38:42Z</time>
      </trkpt>
      <trkpt lat="47.6453380" lon="9.1606330">
        <ele>-51.6</ele>
        <time>2022-06-10T06:38:46Z</time>
      </trkpt>
      <trkpt lat="47.6452680" lon="9.1606130">
        <ele>-51.2</ele>
        <time>2022-06-10T06:38:50Z</time>
      </trkpt>
      <trkpt lat="47.6451930" lon="9.1606030">
        <ele>-51.0</ele>
        <time>2022-06-10T06:38:54Z</time>
      </trkpt>
      <trkpt lat="47.6451160" lon="9.1605960">
        <ele>-50.4</ele>
        <time>2022-06-10T06:38:58Z</time>
      </trkpt>
      <trkpt lat="47.6450430" lon="9.1605830">
        <ele>-48.6</ele>
        <time>2022-06-10T06:39:02Z</time>
      </trkpt>
      <trkpt lat="47.6449700" lon="9.1605610">
        <ele>-47.8</ele>
        <time>2022-06-10T06:39:06Z</time>
      </trkpt>
      <trkpt lat="47.6448980" lon="9.1605500">
        <ele>-47.4</ele>
        <time>2022-06-10T06:39:10Z</time>
      </trkpt>
      <trkpt lat="47.6448160" lon="9.1605310">
        <ele>-46.8</ele>
        <time>2022-06-10T06:39:14Z</time>
      </trkpt>
      <trkpt lat="47.6447350" lon="9.1605130">
        <ele>-45.4</ele>
        <time>2022-06-10T06:39:18Z</time>
      </trkpt>
      <trkpt lat="47.6446560" lon="9.1604900">
        <ele>-45.0</ele>
        <time>2022-06-10T06:39:22Z</time>
      </trkpt>
      <trkpt lat="47.6445780" lon="9.1604760">
        <ele>-44.6</ele>
        <time>2022-06-10T06:39:26Z</time>
      </trkpt>
      <trkpt lat="47.6445060" lon="9.1604500">
        <ele>-43.8</ele>
        <time>2022-06-10T06:39:30Z</time>
      </trkpt>
      <trkpt lat="47.6444480" lon="9.1604160">
        <ele>-42.4</ele>
        <time>2022-06-10T06:39:34Z</time>
      </trkpt>
      <trkpt lat="47.6443730" lon="9.1603860">
        <ele>-42.0</ele>
        <time>2022-06-10T06:39:38Z</time>
      </trkpt>
      <trkpt lat="47.6443080" lon="9.1603550">
        <ele>-40.8</ele>
        <time>2022-06-10T06:39:42Z</time>
      </trkpt>
      <trkpt lat="47.6442310" lon="9.1603060">
        <ele>-40.4</ele>
        <time>2022-06-10T06:39:46Z</time>
      </trkpt>
      <trkpt lat="47.6441580" lon="9.1602600">
        <ele>-40.6</ele>
        <time>2022-06-10T06:39:50Z</time>
      </trkpt>
      <trkpt lat="47.6440950" lon="9.1602230">
        <ele>-40.0</ele>
        <time>2022-06-10T06:39:54Z</time>
      </trkpt>
      <trkpt lat="47.6440280" lon="9.1601850">
        <ele>-38.8</ele>
        <time>2022-06-10T06:39:58Z</time>
      </trkpt>
      <trkpt lat="47.6439400" lon="9.1601430">
        <ele>-37.8</ele>
        <time>2022-06-10T06:40:02Z</time>
      </trkpt>
      <trkpt lat="47.6438650" lon="9.1600930">
        <ele>-37.8</ele>
        <time>2022-06-10T06:40:06Z</time>
      </trkpt>
      <trkpt lat="47.6437980" lon="9.1600280">
        <ele>-37.2</ele>
        <time>2022-06-10T06:40:10Z</time>
      </trkpt>
      <trkpt lat="47.6437260" lon="9.1599760">
        <ele>-36.2</ele>
        <time>2022-06-10T06:40:14Z</time>
      </trkpt>
      <trkpt lat="47.6436630" lon="9.1599310">
        <ele>-35.6</ele>
        <time>2022-06-10T06:40:18Z</time>
      </trkpt>
      <trkpt lat="47.6435930" lon="9.1598810">
        <ele>-34.4</ele>
        <time>2022-06-10T06:40:22Z</time>
      </trkpt>
      <trkpt lat="47.6435210" lon="9.1598180">
        <ele>-34.2</ele>
        <time>2022-06-10T06:40:26Z</time>
      </trkpt>
      <trkpt lat="47.6434560" lon="9.1597510">
        <ele>-33.4</ele>
        <time>2022-06-10T06:40:30Z</time>
      </trkpt>
      <trkpt lat="47.6433950" lon="9.1596910">
        <ele>-32.8</ele>
        <time>2022-06-10T06:40:34Z</time>
      </trkpt>
      <trkpt lat="47.6433350" lon="9.1596250">
        <ele>-32.2</ele>
        <time>2022-06-10T06:40:38Z</time>
      </trkpt>
      <trkpt lat="47.6432680" lon="9.1595610">
        <ele>-32.0</ele>
        <time>2022-06-10T06:40:42Z</time>
      </trkpt>
      <trkpt lat="47.6432030" lon="9.1594930">
        <ele>-31.6</ele>
        <time>2022-06-10T06:40:46Z</time>
      </trkpt>
      <trkpt lat="47.6431400" lon="9.1594260">
        <ele>-30.8</ele>
        <time>2022-06-10T06:40:50Z</time>
      </trkpt>
      <trkpt lat="47.6430700" lon="9.1593530">
        <ele>-30.4</ele>
        <time>2022-06-10T06:40:54Z</time>
      </trkpt>
      <trkpt lat="47.6430080" lon="9.1592930">
        <ele>-29.0</ele>
        <time>2022-06-10T06:40:58Z</time>
      </trkpt>
      <trkpt lat="47.6429480" lon="9.1592130">
        <ele>-28.0</ele>
        <time>2022-06-10T06:41:02Z</time>
      </trkpt>
      <trkpt lat="47.6428960" lon="9.1591430">
        <ele>-27.8</ele>
        <time>2022-06-10T06:41:06Z</time>
      </trkpt>
      <trkpt lat="47.6428310" lon="9.1590610">
        <ele>-26.8</ele>
        <time>2022-06-10T06:41:10Z</time>
      </trkpt>
      <trkpt lat="47.6427750" lon="9.1589810">
        <ele>-25.8</ele>
        <time>2022-06-10T06:41:14Z</time>
      </trkpt>
      <trkpt lat="47.6427180" lon="9.1588910">
        <ele>-25.6</ele>
        <time>2022-06-10T06:41:18Z</time>
      </trkpt>
      <trkpt lat="47.6426610" lon="9.1588050">
        <ele>-24.4</ele>
        <time>2022-06-10T06:41:22Z</time>
      </trkpt>
      <trkpt lat="47.6426060" lon="9.1587350">
        <ele>-23.8</ele>
        <time>2022-06-10T06:41:26Z</time>
      </trkpt>
      <trkpt lat="47.6425410" lon="9.1586700">
        <ele>-23.0</ele>
        <time>2022-06-10T06:41:30Z</time>
      </trkpt>
      <trkpt lat="47.6424710" lon="9.1586030">
        <ele>-22.4</ele>
        <time>2022-06-10T06:41:34Z</time>
      </trkpt>
      <trkpt lat="47.6424080" lon="9.1585330">
        <ele>-21.0</ele>
        <time>2022-06-10T06:41:38Z</time>
      </trkpt>
      <trkpt lat="47.6423330" lon="9.1584950">
        <ele>-20.8</ele>
        <time>2022-06-10T06:41:42Z</time>
      </trkpt>
      <trkpt lat="47.6422610" lon="9.1584300">
        <ele>-20.0</ele>
        <time>2022-06-10T06:41:46Z</time>
      </trkpt>
      <trkpt lat="47.6421760" lon="9.1583950">
        <ele>-19.2</ele>
        <time>2022-06-10T06:41:50Z</time>
      </trkpt>
      <trkpt lat="47.6421000" lon="9.1583400">
        <ele>-18.2</ele>
        <time>2022-06-10T06:41:54Z</time>
      </trkpt>
      <trkpt lat="47.6420150" lon="9.1582960">
        <ele>-17.6</ele>
        <time>2022-06-10T06:41:58Z</time>
      </trkpt>
      <trkpt lat="47.6419410" lon="9.1582430">
        <ele>-17.0</ele>
        <time>2022-06-10T06:42:02Z</time>
      </trkpt>
      <trkpt lat="47.6418630" lon="9.1582000">
        <ele>-16.6</ele>
        <time>2022-06-10T06:42:06Z</time>
      </trkpt>
      <trkpt lat="47.6417810" lon="9.1581600">
        <ele>-15.8</ele>
        <time>2022-06-10T06:42:10Z</time>
      </trkpt>
      <trkpt lat="47.6417060" lon="9.1581180">
        <ele>-15.2</ele>
        <time>2022-06-10T06:42:14Z</time>
      </trkpt>
      <trkpt lat="47.6416200" lon="9.1580910">
        <ele>-15.0</ele>
        <time>2022-06-10T06:42:18Z</time>
      </trkpt>
      <trkpt lat="47.6415380" lon="9.1580600">
        <ele>-14.6</ele>
        <time>2022-06-10T06:42:22Z</time>
      </trkpt>
      <trkpt lat="47.6414560" lon="9.1580350">
        <ele>-14.0</ele>
        <time>2022-06-10T06:42:26Z</time>
      </trkpt>
      <trkpt lat="47.6413760" lon="9.1580030">
        <ele>-13.8</ele>
        <time>2022-06-10T06:42:30Z</time>
      </trkpt>
      <trkpt lat="47.6412900" lon="9.1579730">
        <ele>-12.6</ele>
        <time>2022-06-10T06:42:34Z</time>
      </trkpt>
      <trkpt lat="47.6412100" lon="9.1579450">
        <ele>-12.0</ele>
        <time>2022-06-10T06:42:38Z</time>
      </trkpt>
      <trkpt lat="47.6411200" lon="9.1579110">
        <ele>-12.2</ele>
        <time>2022-06-10T06:42:42Z</time>
      </trkpt>
      <trkpt lat="47.6410360" lon="9.1578830">
        <ele>-11.4</ele>
        <time>2022-06-10T06:42:46Z</time>
      </trkpt>
      <trkpt lat="47.6409530" lon="9.1578550">
        <ele>-10.6</ele>
        <time>2022-06-10T06:42:50Z</time>
      </trkpt>
      <trkpt lat="47.6408630" lon="9.1578130">
        <ele>-10.2</ele>
        <time>2022-06-10T06:42:54Z</time>
      </trkpt>
      <trkpt lat="47.6407850" lon="9.1577700">
        <ele>-9.8</ele>
        <time>2022-06-10T06:42:58Z</time>
      </trkpt>
      <trkpt lat="47.6407080" lon="9.1577260">
        <ele>-8.6</ele>
        <time>2022-06-10T06:43:02Z</time>
      </trkpt>
      <trkpt lat="47.6406300" lon="9.1576850">
        <ele>-8.0</ele>
        <time>2022-06-10T06:43:06Z</time>
      </trkpt>
      <trkpt lat="47.6405510" lon="9.1576410">
        <ele>-7.6</ele>
        <time>2022-06-10T06:43:10Z</time>
      </trkpt>
      <trkpt lat="47.6404700" lon="9.1575960">
        <ele>-7.6</ele>
        <time>2022-06-10T06:43:14Z</time>
      </trkpt>
      <trkpt lat="47.6403910" lon="9.1575560">
        <ele>-6.4</ele>
        <time>2022-06-10T06:43:18Z</time>
      </trkpt>
      <trkpt lat="47.6403130" lon="9.1575100">
        <ele>-5.8</ele>
        <time>2022-06-10T06:43:22Z</time>
      </trkpt>
      <trkpt lat="47.6402350" lon="9.1574660">
        <ele>-5.4</ele>
        <time>2022-06-10T06:43:26Z</time>
      </trkpt>
      <trkpt lat="47.6401580" lon="9.1574280">
        <ele>-4.8</ele>
        <time>2022-06-10T06:43:30Z</time>
      </trkpt>
      <trkpt lat="47.6400760" lon="9.1574060">
        <ele>-4.4</ele>
        <time>2022-06-10T06:43:34Z</time>
      </trkpt>
      <trkpt lat="47.6399980" lon="9.1573710">
        <ele>-3.8</ele>
        <time>2022-06-10T06:43:38Z</time>
      </trkpt>
      <trkpt lat="47.6399160" lon="9.1573430">
        <ele>-3.0</ele>
        <time>2022-06-10T06:43:42Z</time>
      </trkpt>
      <trkpt lat="47.6398380" lon="9.1573050">
        <ele>-2.4</ele>
        <time>2022-06-10T06:43:46Z</time>
      </trkpt>
      <trkpt lat="47.6397550" lon="9.1572710">
        <ele>-2.0</ele>
        <time>2022-06-10T06:43:50Z</time>
      </trkpt>
      <trkpt lat="47.6396750" lon="9.1572300">
        <ele>-1.0</ele>
        <time>2022-06-10T06:43:54Z</time>
      </trkpt>
      <trkpt lat="47.6395950" lon="9.1571800">
        <ele>-0.8</ele>
        <time>2022-06-10T06:43:58Z</time>
      </trkpt>
      <trkpt lat="47.6395130" lon="9.1571260">
        <ele>-0.2</ele>
        <time>2022-06-10T06:44:02Z</time>
      </trkpt>
      <trkpt lat="47.6394330" lon="9.1570710">
        <ele>0.6</ele>
        <time>2022-06-10T06:44:06Z</time>
      </trkpt>
      <trkpt lat="47.6393560" lon="9.1570200">
        <ele>1.2</ele>
        <time>2022-06-10T06:44:10Z</time>
      </trkpt>
      <trkpt lat="47.6392730" lon="9.1569600">
        <ele>1.2</ele>
        <time>2022-06-10T06:44:14Z</time>
      </trkpt>
      <trkpt lat="47.6391910" lon="9.1569110">
        <ele>2.4</ele>
        <time>2022-06-10T06:44:18Z</time>
      </trkpt>
      <trkpt lat="47.6391060" lon="9.1568580">
        <ele>2.6</ele>
        <time>2022-06-10T06:44:22Z</time>
      </trkpt>
      <trkpt lat="47.6390160" lon="9.1568280">
        <ele>3.6</ele>
        <time>2022-06-10T06:44:26Z</time>
      </trkpt>
      <trkpt lat="47.6389300" lon="9.1567900">
        <ele>4.0</ele>
        <time>2022-06-10T06:44:30Z</time>
      </trkpt>
      <trkpt lat="47.6388430" lon="9.1567530">
        <ele>4.2</ele>
        <time>2022-06-10T06:44:34Z</time>
      </trkpt>
      <trkpt lat="47.6387610" lon="9.1567060">
        <ele>4.2</ele>
        <time>2022-06-10T06:44:38Z</time>
      </trkpt>
      <trkpt lat="47.6386780" lon="9.1566680">
        <ele>5.8</ele>
        <time>2022-06-10T06:44:42Z</time>
      </trkpt>
      <trkpt lat="47.6385960" lon="9.1566280">
        <ele>6.0</ele>
        <time>2022-06-10T06:44:46Z</time>
      </trkpt>
      <trkpt lat="47.6385110" lon="9.1565960">
        <ele>6.6</ele>
        <time>2022-06-10T06:44:50Z</time>
      </trkpt>
      <trkpt lat="47.6384250" lon="9.1565580">
        <ele>7.4</ele>
        <time>2022-06-10T06:44:54Z</time>
      </trkpt>
      <trkpt lat="47.6383400" lon="9.1565160">
        <ele>8.0</ele>
        <time>2022-06-10T06:44:58Z</time>
      </trkpt>
      <trkpt lat="47.6382530" lon="9.1564810">
        <ele>9.0</ele>
        <time>2022-06-10T06:45:02Z</time>
      </trkpt>
      <trkpt lat="47.6381660" lon="9.1564360">
        <ele>9.4</ele>
        <time>2022-06-10T06:45:06Z</time>
      </trkpt>
      <trkpt lat="47.6380750" lon="9.1563900">
        <ele>10.0</ele>
        <time>2022-06-10T06:45:10Z</time>
      </trkpt>
      <trkpt lat="47.6379810" lon="9.1563480">
        <ele>10.6</ele>
        <time>2022-06-10T06:45:14Z</time>
      </trkpt>
      <trkpt lat="47.6378860" lon="9.1562930">
        <ele>11.2</ele>
        <time>2022-06-10T06:45:18Z</time>
      </trkpt>
      <trkpt lat="47.6377930" lon="9.1562350">
        <ele>11.8</ele>
        <time>2022-06-10T06:45:22Z</time>
      </trkpt>
      <trkpt lat="47.6377000" lon="9.1561850">
        <ele>12.2</ele>
        <time>2022-06-10T06:45:26Z</time>
      </trkpt>
      <trkpt lat="47.6376030" lon="9.1561280">
        <ele>13.0</ele>
        <time>2022-06-10T06:45:30Z</time>
      </trkpt>
      <trkpt lat="47.6374930" lon="9.1560750">
        <ele>13.8</ele>
        <time>2022-06-10T06:45:34Z</time>
      </trkpt>
      <trkpt lat="47.6373800" lon="9.1559980">
        <ele>14.0</ele>
        <time>2022-06-10T06:45:38Z</time>
      </trkpt>
      <trkpt lat="47.6372760" lon="9.1559200">
        <ele>14.2</ele>
        <time>2022-06-10T06:45:42Z</time>
      </trkpt>
      <trkpt lat="47.6371700" lon="9.1558250">
        <ele>14.2</ele>
        <time>2022-06-10T06:45:46Z</time>
      </trkpt>
      <trkpt lat="47.6370560" lon="9.1557300">
        <ele>14.4</ele>
        <time>2022-06-10T06:45:50Z</time>
      </trkpt>
      <trkpt lat="47.6369450" lon="9.1556210">
        <ele>14.4</ele>
        <time>2022-06-10T06:45:54Z</time>
      </trkpt>
      <trkpt lat="47.6368200" lon="9.1555050">
        <ele>14.0</ele>
        <time>2022-06-10T06:45:58Z</time>
      </trkpt>
      <trkpt lat="47.6366730" lon="9.1553700">
        <ele>13.2</ele>
        <time>2022-06-10T06:46:02Z</time>
      </trkpt>
      <trkpt lat="47.6365030" lon="9.1552100">
        <ele>12.8</ele>
        <time>2022-06-10T06:46:06Z</time>
      </trkpt>
      <trkpt lat="47.6363200" lon="9.1550210">
        <ele>12.4</ele>
        <time>2022-06-10T06:46:10Z</time>
      </trkpt>
      <trkpt lat="47.6361300" lon="9.1548400">
        <ele>12.6</ele>
        <time>2022-06-10T06:46:14Z</time>
      </trkpt>
      <trkpt lat="47.6359400" lon="9.1546630">
        <ele>12.8</ele>
        <time>2022-06-10T06:46:18Z</time>
      </trkpt>
      <trkpt lat="47.6357560" lon="9.1544960">
        <ele>13.8</ele>
        <time>2022-06-10T06:46:22Z</time>
      </trkpt>
      <trkpt lat="47.6355950" lon="9.1543180">
        <ele>13.6</ele>
        <time>2022-06-10T06:46:26Z</time>
      </trkpt>
      <trkpt lat="47.6354380" lon="9.1541630">
        <ele>13.8</ele>
        <time>2022-06-10T06:46:30Z</time>
      </trkpt>
      <trkpt lat="47.6353080" lon="9.1540160">
        <ele>15.0</ele>
        <time>2022-06-10T06:46:34Z</time>
      </trkpt>
      <trkpt lat="47.6351880" lon="9.1538850">
        <ele>16.2</ele>
        <time>2022-06-10T06:46:38Z</time>
      </trkpt>
      <trkpt lat="47.6350660" lon="9.1537660">
        <ele>17.0</ele>
        <time>2022-06-10T06:46:42Z</time>
      </trkpt>
      <trkpt lat="47.6349510" lon="9.1536610">
        <ele>17.4</ele>
        <time>2022-06-10T06:46:46Z</time>
      </trkpt>
      <trkpt lat="47.6348280" lon="9.1535610">
        <ele>17.4</ele>
        <time>2022-06-10T06:46:50Z</time>
      </trkpt>
      <trkpt lat="47.6347180" lon="9.1534550">
        <ele>17.8</ele>
        <time>2022-06-10T06:46:54Z</time>
      </trkpt>
      <trkpt lat="47.6346130" lon="9.1533430">
        <ele>18.4</ele>
        <time>2022-06-10T06:46:58Z</time>
      </trkpt>
      <trkpt lat="47.6345030" lon="9.1532160">
        <ele>18.4</ele>
        <time>2022-06-10T06:47:02Z</time>
      </trkpt>
      <trkpt lat="47.6344050" lon="9.1530800">
        <ele>18.6</ele>
        <time>2022-06-10T06:47:06Z</time>
      </trkpt>
      <trkpt lat="47.6343000" lon="9.1529560">
        <ele>19.2</ele>
        <time>2022-06-10T06:47:10Z</time>
      </trkpt>
      <trkpt lat="47.6341830" lon="9.1528280">
        <ele>19.2</ele>
        <time>2022-06-10T06:47:14Z</time>
      </trkpt>
      <trkpt lat="47.6340700" lon="9.1526980">
        <ele>19.2</ele>
        <time>2022-06-10T06:47:18Z</time>
      </trkpt>
      <trkpt lat="47.6339600" lon="9.1525730">
        <ele>19.2</ele>
        <time>2022-06-10T06:47:22Z</time>
      </trkpt>
      <trkpt lat="47.6338630" lon="9.1524510">
        <ele>20.0</ele>
        <time>2022-06-10T06:47:26Z</time>
      </trkpt>
      <trkpt lat="47.6337630" lon="9.1523350">
        <ele>20.4</ele>
        <time>2022-06-10T06:47:30Z</time>
      </trkpt>
      <trkpt lat="47.6336680" lon="9.1522200">
        <ele>20.4</ele>
        <time>2022-06-10T06:47:34Z</time>
      </trkpt>
      <trkpt lat="47.6335900" lon="9.1520950">
        <ele>21.4</ele>
        <time>2022-06-10T06:47:38Z</time>
      </trkpt>
      <trkpt lat="47.6335430" lon="9.1519260">
        <ele>21.8</ele>
        <time>2022-06-10T06:47:42Z</time>
      </trkpt>
      <trkpt lat="47.6335400" lon="9.1517910">
        <ele>21.6</ele>
        <time>2022-06-10T06:47:46Z</time>
      </trkpt>
      <trkpt lat="47.6335200" lon="9.1517100">
        <ele>22.0</ele>
        <time>2022-06-10T06:47:50Z</time>
      </trkpt>
      <trkpt lat="47.6335200" lon="9.1517100">
        <ele>22.0</ele>
        <time>2022-06-10T06:47:54Z</time>
      </trkpt>
      <trkpt lat="47.6335080" lon="9.1516960">
        <ele>22.0</ele>
        <time>2022-06-10T06:47:58Z</time>
      </trkpt>
      <trkpt lat="47.6334430" lon="9.1516410">
        <ele>22.2</ele>
        <time>2022-06-10T06:48:02Z</time>
      </trkpt>
      <trkpt lat="47.6333360" lon="9.1516300">
        <ele>23.2</ele>
        <time>2022-06-10T06:48:06Z</time>
      </trkpt>
      <trkpt lat="47.6332280" lon="9.1516650">
        <ele>24.0</ele>
        <time>2022-06-10T06:48:10Z</time>
      </trkpt>
      <trkpt lat="47.6331130" lon="9.1516860">
        <ele>25.0</ele>
        <time>2022-06-10T06:48:14Z</time>
      </trkpt>
      <trkpt lat="47.6330250" lon="9.1516250">
        <ele>24.8</ele>
        <time>2022-06-10T06:48:18Z</time>
      </trkpt>
      <trkpt lat="47.6329400" lon="9.1516350">
        <ele>26.0</ele>
        <time>2022-06-10T06:48:22Z</time>
      </trkpt>
      <trkpt lat="47.6328430" lon="9.1515350">
        <ele>26.4</ele>
        <time>2022-06-10T06:48:26Z</time>
      </trkpt>
      <trkpt lat="47.6327600" lon="9.1514450">
        <ele>27.6</ele>
        <time>2022-06-10T06:48:30Z</time>
      </trkpt>
      <trkpt lat="47.6326750" lon="9.1513500">
        <ele>28.0</ele>
        <time>2022-06-10T06:48:34Z</time>
      </trkpt>
      <trkpt lat="47.6325810" lon="9.1512630">
        <ele>28.6</ele>
        <time>2022-06-10T06:48:38Z</time>
      </trkpt>
      <trkpt lat="47.6324930" lon="9.1511630">
        <ele>30.2</ele>
        <time>2022-06-10T06:48:42Z</time>
      </trkpt>
      <trkpt lat="47.6324000" lon="9.1510780">
        <ele>31.2</ele>
        <time>2022-06-10T06:48:46Z</time>
      </trkpt>
      <trkpt lat="47.6323180" lon="9.1509880">
        <ele>31.6</ele>
        <time>2022-06-10T06:48:50Z</time>
      </trkpt>
      <trkpt lat="47.6322560" lon="9.1508900">
        <ele>32.0</ele>
        <time>2022-06-10T06:48:54Z</time>
      </trkpt>
      <trkpt lat="47.6321880" lon="9.1508130">
        <ele>33.0</ele>
        <time>2022-06-10T06:48:58Z</time>
      </trkpt>
      <trkpt lat="47.6321110" lon="9.1507330">
        <ele>33.0</ele>
        <time>2022-06-10T06:49:02Z</time>
      </trkpt>
      <trkpt lat="47.6320350" lon="9.1506510">
        <ele>33.6</ele>
        <time>2022-06-10T06:49:06Z</time>
      </trkpt>
      <trkpt lat="47.6319580" lon="9.1505700">
        <ele>34.6</ele>
        <time>2022-06-10T06:49:10Z</time>
      </trkpt>
      <trkpt lat="47.6318830" lon="9.1504900">
        <ele>34.2</ele>
        <time>2022-06-10T06:49:14Z</time>
      </trkpt>
      <trkpt lat="47.6318060" lon="9.1504060">
        <ele>34.8</ele>
        <time>2022-06-10T06:49:18Z</time>
      </trkpt>
      <trkpt lat="47.6317300" lon="9.1503180">
        <ele>35.0</ele>
        <time>2022-06-10T06:49:22Z</time>
      </trkpt>
      <trkpt lat="47.6316480" lon="9.1502350">
        <ele>35.0</ele>
        <time>2022-06-10T06:49:26Z</time>
      </trkpt>
      <trkpt lat="47.6315680" lon="9.1501450">
        <ele>35.6</ele>
        <time>2022-06-10T06:49:30Z</time>
      </trkpt>
      <trkpt lat="47.6314880" lon="9.1500550">
        <ele>36.0</ele>
        <time>2022-06-10T06:49:34Z</time>
      </trkpt>
      <trkpt lat="47.6314110" lon="9.1499530">
        <ele>36.4</ele>
        <time>2022-06-10T06:49:38Z</time>
      </trkpt>
      <trkpt lat="47.6313350" lon="9.1498550">
        <ele>36.6</ele>
        <time>2022-06-10T06:49:42Z</time>
      </trkpt>
      <trkpt lat="47.6312550" lon="9.1497630">
        <ele>36.8</ele>
        <time>2022-06-10T06:49:46Z</time>
      </trkpt>
      <trkpt lat="47.6311730" lon="9.1496760">
        <ele>37.8</ele>
        <time>2022-06-10T06:49:50Z</time>
      </trkpt>
      <trkpt lat="47.6310900" lon="9.1495960">
        <ele>38.4</ele>
        <time>2022-06-10T06:49:54Z</time>
      </trkpt>
      <trkpt lat="47.6310110" lon="9.1495130">
        <ele>38.8</ele>
        <time>2022-06-10T06:49:58Z</time>
      </trkpt>
      <trkpt lat="47.6309430" lon="9.1494250">
        <ele>39.2</ele>
        <time>2022-06-10T06:50:02Z</time>
      </trkpt>
      <trkpt lat="47.6308700" lon="9.1493410">
        <ele>39.8</ele>
        <time>2022-06-10T06:50:06Z</time>
      </trkpt>
      <trkpt lat="47.6308010" lon="9.1492550">
        <ele>40.0</ele>
        <time>2022-06-10T06:50:10Z</time>
      </trkpt>
      <trkpt lat="47.6307350" lon="9.1491710">
        <ele>41.2</ele>
        <time>2022-06-10T06:50:14Z</time>
      </trkpt>
      <trkpt lat="47.6306600" lon="9.1491250">
        <ele>42.4</ele>
        <time>2022-06-10T06:50:18Z</time>
      </trkpt>
      <trkpt lat="47.6305530" lon="9.1490550">
        <ele>43.2</ele>
        <time>2022-06-10T06:50:22Z</time>
      </trkpt>
      <trkpt lat="47.6304480" lon="9.1490080">
        <ele>43.6</ele>
        <time>2022-06-10T06:50:26Z</time>
      </trkpt>
      <trkpt lat="47.6303750" lon="9.1489180">
        <ele>44.0</ele>
        <time>2022-06-10T06:50:30Z</time>
      </trkpt>
      <trkpt lat="47.6302850" lon="9.1488410">
        <ele>44.2</ele>
        <time>2022-06-10T06:50:34Z</time>
      </trkpt>
      <trkpt lat="47.6302110" lon="9.1487400">
        <ele>45.2</ele>
        <time>2022-06-10T06:50:38Z</time>
      </trkpt>
      <trkpt lat="47.6301160" lon="9.1486500">
        <ele>45.6</ele>
        <time>2022-06-10T06:50:42Z</time>
      </trkpt>
      <trkpt lat="47.6300400" lon="9.1485510">
        <ele>46.4</ele>
        <time>2022-06-10T06:50:46Z</time>
      </trkpt>
      <trkpt lat="47.6299480" lon="9.1484580">
        <ele>47.2</ele>
        <time>2022-06-10T06:50:50Z</time>
      </trkpt>
      <trkpt lat="47.6298650" lon="9.1483400">
        <ele>47.4</ele>
        <time>2022-06-10T06:50:54Z</time>
      </trkpt>
      <trkpt lat="47.6297710" lon="9.1482380">
        <ele>47.4</ele>
        <time>2022-06-10T06:50:58Z</time>
      </trkpt>
      <trkpt lat="47.6296700" lon="9.1481710">
        <ele>48.0</ele>
        <time>2022-06-10T06:51:02Z</time>
      </trkpt>
      <trkpt lat="47.6295930" lon="9.1480710">
        <ele>48.2</ele>
        <time>2022-06-10T06:51:06Z</time>
      </trkpt>
      <trkpt lat="47.6295200" lon="9.1479760">
        <ele>48.6</ele>
        <time>2022-06-10T06:51:10Z</time>
      </trkpt>
      <trkpt lat="47.6294360" lon="9.1478800">
        <ele>49.6</ele>
        <time>2022-06-10T06:51:14Z</time>
      </trkpt>
      <trkpt lat="47.6293610" lon="9.1477650">
        <ele>49.8</ele>
        <time>2022-06-10T06:51:18Z</time>
      </trkpt>
      <trkpt lat="47.6292980" lon="9.1476500">
        <ele>49.8</ele>
        <time>2022-06-10T06:51:22Z</time>
      </trkpt>
      <trkpt lat="47.6292280" lon="9.1475630">
        <ele>50.6</ele>
        <time>2022-06-10T06:51:26Z</time>
      </trkpt>
      <trkpt lat="47.6291380" lon="9.1474480">
        <ele>50.6</ele>
        <time>2022-06-10T06:51:30Z</time>
      </trkpt>
      <trkpt lat="47.6290560" lon="9.1473180">
        <ele>50.8</ele>
        <time>2022-06-10T06:51:34Z</time>
      </trkpt>
      <trkpt lat="47.6289450" lon="9.1472250">
        <ele>51.0</ele>
        <time>2022-06-10T06:51:38Z</time>
      </trkpt>
      <trkpt lat="47.6288480" lon="9.1471010">
        <ele>51.4</ele>
        <time>2022-06-10T06:51:42Z</time>
      </trkpt>
      <trkpt lat="47.6287280" lon="9.1470200">
        <ele>51.8</ele>
        <time>2022-06-10T06:51:46Z</time>
      </trkpt>
      <trkpt lat="47.6286110" lon="9.1469250">
        <ele>52.0</ele>
        <time>2022-06-10T06:51:50Z</time>
      </trkpt>
      <trkpt lat="47.6285000" lon="9.1468250">
        <ele>52.4</ele>
        <time>2022-06-10T06:51:54Z</time>
      </trkpt>
      <trkpt lat="47.6283800" lon="9.1467410">
        <ele>52.8</ele>
        <time>2022-06-10T06:51:58Z</time>
      </trkpt>
      <trkpt lat="47.6282810" lon="9.1466310">
        <ele>53.2</ele>
        <time>2022-06-10T06:52:02Z</time>
      </trkpt>
      <trkpt lat="47.6282160" lon="9.1464960">
        <ele>54.2</ele>
        <time>2022-06-10T06:52:06Z</time>
      </trkpt>
      <trkpt lat="47.6281400" lon="9.1463800">
        <ele>54.6</ele>
        <time>2022-06-10T06:52:10Z</time>
      </trkpt>
      <trkpt lat="47.6280650" lon="9.1462630">
        <ele>55.4</ele>
        <time>2022-06-10T06:52:14Z</time>
      </trkpt>
      <trkpt lat="47.6279900" lon="9.1461450">
        <ele>55.4</ele>
        <time>2022-06-10T06:52:18Z</time>
      </trkpt>
      <trkpt lat="47.6279160" lon="9.1460200">
        <ele>55.8</ele>
        <time>2022-06-10T06:52:22Z</time>
      </trkpt>
      <trkpt lat="47.6278410" lon="9.1458980">
        <ele>56.8</ele>
        <time>2022-06-10T06:52:26Z</time>
      </trkpt>
      <trkpt lat="47.6277530" lon="9.1457700">
        <ele>57.0</ele>
        <time>2022-06-10T06:52:30Z</time>
      </trkpt>
      <trkpt lat="47.6276650" lon="9.1456580">
        <ele>57.0</ele>
        <time>2022-06-10T06:52:34Z</time>
      </trkpt>
      <trkpt lat="47.6275730" lon="9.1455530">
        <ele>57.6</ele>
        <time>2022-06-10T06:52:38Z</time>
      </trkpt>
      <trkpt lat="47.6274800" lon="9.1454530">
        <ele>58.4</ele>
        <time>2022-06-10T06:52:42Z</time>
      </trkpt>
      <trkpt lat="47.6273900" lon="9.1453460">
        <ele>58.0</ele>
        <time>2022-06-10T06:52:46Z</time>
      </trkpt>
      <trkpt lat="47.6273010" lon="9.1452410">
        <ele>58.4</ele>
        <time>2022-06-10T06:52:50Z</time>
      </trkpt>
      <trkpt lat="47.6272100" lon="9.1451350">
        <ele>58.6</ele>
        <time>2022-06-10T06:52:54Z</time>
      </trkpt>
      <trkpt lat="47.6271180" lon="9.1450200">
        <ele>59.2</ele>
        <time>2022-06-10T06:52:58Z</time>
      </trkpt>
      <trkpt lat="47.6270280" lon="9.1449030">
        <ele>59.2</ele>
        <time>2022-06-10T06:53:02Z</time>
      </trkpt>
      <trkpt lat="47.6269450" lon="9.1447780">
        <ele>60.2</ele>
        <time>2022-06-10T06:53:06Z</time>
      </trkpt>
      <trkpt lat="47.6268480" lon="9.1446710">
        <ele>60.4</ele>
        <time>2022-06-10T06:53:10Z</time>
      </trkpt>
      <trkpt lat="47.6267430" lon="9.1445530">
        <ele>60.0</ele>
        <time>2022-06-10T06:53:14Z</time>
      </trkpt>
      <trkpt lat="47.6266480" lon="9.1444250">
        <ele>60.0</ele>
        <time>2022-06-10T06:53:18Z</time>
      </trkpt>
      <trkpt lat="47.6265500" lon="9.1443030">
        <ele>60.4</ele>
        <time>2022-06-10T06:53:22Z</time>
      </trkpt>
      <trkpt lat="47.6264430" lon="9.1441780">
        <ele>60.4</ele>
        <time>2022-06-10T06:53:26Z</time>
      </trkpt>
      <trkpt lat="47.6263330" lon="9.1440330">
        <ele>60.4</ele>
        <time>2022-06-10T06:53:30Z</time>
      </trkpt>
      <trkpt lat="47.6262060" lon="9.1438880">
        <ele>60.4</ele>
        <time>2022-06-10T06:53:34Z</time>
      </trkpt>
      <trkpt lat="47.6260780" lon="9.1437280">
        <ele>60.4</ele>
        <time>2022-06-10T06:53:38Z</time>
      </trkpt>
      <trkpt lat="47.6259550" lon="9.1435450">
        <ele>60.4</ele>
        <time>2022-06-10T06:53:42Z</time>
      </trkpt>
      <trkpt lat="47.6258210" lon="9.1433680">
        <ele>60.6</ele>
        <time>2022-06-10T06:53:46Z</time>
      </trkpt>
      <trkpt lat="47.6256910" lon="9.1431900">
        <ele>60.4</ele>
        <time>2022-06-10T06:53:50Z</time>
      </trkpt>
      <trkpt lat="47.6255560" lon="9.1430080">
        <ele>60.0</ele>
        <time>2022-06-10T06:53:54Z</time>
      </trkpt>
      <trkpt lat="47.6254110" lon="9.1428250">
        <ele>60.0</ele>
        <time>2022-06-10T06:53:58Z</time>
      </trkpt>
      <trkpt lat="47.6252700" lon="9.1426450">
        <ele>59.4</ele>
        <time>2022-06-10T06:54:02Z</time>
      </trkpt>
      <trkpt lat="47.6251280" lon="9.1424650">
        <ele>59.4</ele>
        <time>2022-06-10T06:54:06Z</time>
      </trkpt>
      <trkpt lat="47.6249930" lon="9.1422830">
        <ele>58.4</ele>
        <time>2022-06-10T06:54:10Z</time>
      </trkpt>
      <trkpt lat="47.6248310" lon="9.1420810">
        <ele>57.8</ele>
        <time>2022-06-10T06:54:14Z</time>
      </trkpt>
      <trkpt lat="47.6246480" lon="9.1418210">
        <ele>56.8</ele>
        <time>2022-06-10T06:54:18Z</time>
      </trkpt>
      <trkpt lat="47.6244700" lon="9.1415560">
        <ele>56.6</ele>
        <time>2022-06-10T06:54:22Z</time>
      </trkpt>
      <trkpt lat="47.6243160" lon="9.1412930">
        <ele>56.2</ele>
        <time>2022-06-10T06:54:26Z</time>
      </trkpt>
      <trkpt lat="47.6241910" lon="9.1411280">
        <ele>55.8</ele>
        <time>2022-06-10T06:54:30Z</time>
      </trkpt>
      <trkpt lat="47.6241460" lon="9.1409800">
        <ele>55.8</ele>
        <time>2022-06-10T06:54:34Z</time>
      </trkpt>
      <trkpt lat="47.6241050" lon="9.1409080">
        <ele>55.8</ele>
        <time>2022-06-10T06:54:38Z</time>
      </trkpt>
      <trkpt lat="47.6240560" lon="9.1407750">
        <ele>55.8</ele>
        <time>2022-06-10T06:54:42Z</time>
      </trkpt>
      <trkpt lat="47.6239850" lon="9.1406450">
        <ele>55.8</ele>
        <time>2022-06-10T06:54:46Z</time>
      </trkpt>
      <trkpt lat="47.6239360" lon="9.1405510">
        <ele>55.4</ele>
        <time>2022-06-10T06:54:50Z</time>
      </trkpt>
      <trkpt lat="47.6238950" lon="9.1404600">
        <ele>55.4</ele>
        <time>2022-06-10T06:54:54Z</time>
      </trkpt>
      <trkpt lat="47.6238630" lon="9.1403730">
        <ele>55.6</ele>
        <time>2022-06-10T06:54:58Z</time>
      </trkpt>
      <trkpt lat="47.6238630" lon="9.1403730">
        <ele>55.6</ele>
        <time>2022-06-10T06:55:02Z</time>
      </trkpt>
      <trkpt lat="47.6238630" lon="9.1403730">
        <ele>55.6</ele>
        <time>2022-06-10T06:55:06Z</time>
      </trkpt>
      <trkpt lat="47.6238550" lon="9.1403000">
        <ele>55.8</ele>
        <time>2022-06-10T06:55:10Z</time>
      </trkpt>
      <trkpt lat="47.6238550" lon="9.1401760">
        <ele>55.8</ele>
        <time>2022-06-10T06:55:14Z</time>
      </trkpt>
      <trkpt lat="47.6238000" lon="9.1399950">
        <ele>55.4</ele>
        <time>2022-06-10T06:55:18Z</time>
      </trkpt>
      <trkpt lat="47.6237110" lon="9.1398110">
        <ele>55.4</ele>
        <time>2022-06-10T06:55:22Z</time>
      </trkpt>
      <trkpt lat="47.6236130" lon="9.1396150">
        <ele>55.2</ele>
        <time>2022-06-10T06:55:26Z</time>
      </trkpt>
      <trkpt lat="47.6235150" lon="9.1394030">
        <ele>55.6</ele>
        <time>2022-06-10T06:55:30Z</time>
      </trkpt>
      <trkpt lat="47.6234150" lon="9.1391930">
        <ele>55.6</ele>
        <time>2022-06-10T06:55:34Z</time>
      </trkpt>
      <trkpt lat="47.6233160" lon="9.1389810">
        <ele>56.0</ele>
        <time>2022-06-10T06:55:38Z</time>
      </trkpt>
      <trkpt lat="47.6232130" lon="9.1387680">
        <ele>56.2</ele>
        <time>2022-06-10T06:55:42Z</time>
      </trkpt>
      <trkpt lat="47.6231100" lon="9.1385530">
        <ele>55.8</ele>
        <time>2022-06-10T06:55:46Z</time>
      </trkpt>
      <trkpt lat="47.6230060" lon="9.1383410">
        <ele>55.6</ele>
        <time>2022-06-10T06:55:50Z</time>
      </trkpt>
      <trkpt lat="47.6228980" lon="9.1381180">
        <ele>56.0</ele>
        <time>2022-06-10T06:55:54Z</time>
      </trkpt>
      <trkpt lat="47.6227880" lon="9.1378930">
        <ele>55.8</ele>
        <time>2022-06-10T06:55:58Z</time>
      </trkpt>
      <trkpt lat="47.6226780" lon="9.1376700">
        <ele>56.0</ele>
        <time>2022-06-10T06:56:02Z</time>
      </trkpt>
      <trkpt lat="47.6225760" lon="9.1374480">
        <ele>56.0</ele>
        <time>2022-06-10T06:56:06Z</time>
      </trkpt>
      <trkpt lat="47.6224730" lon="9.1372360">
        <ele>56.6</ele>
        <time>2022-06-10T06:56:10Z</time>
      </trkpt>
      <trkpt lat="47.6223750" lon="9.1370280">
        <ele>56.4</ele>
        <time>2022-06-10T06:56:14Z</time>
      </trkpt>
      <trkpt lat="47.6222880" lon="9.1368180">
        <ele>56.8</ele>
        <time>2022-06-10T06:56:18Z</time>
      </trkpt>
      <trkpt lat="47.6222180" lon="9.1366080">
        <ele>58.2</ele>
        <time>2022-06-10T06:56:22Z</time>
      </trkpt>
      <trkpt lat="47.6221430" lon="9.1363950">
        <ele>58.6</ele>
        <time>2022-06-10T06:56:26Z</time>
      </trkpt>
      <trkpt lat="47.6220860" lon="9.1361660">
        <ele>59.0</ele>
        <time>2022-06-10T06:56:30Z</time>
      </trkpt>
      <trkpt lat="47.6220510" lon="9.1359410">
        <ele>58.8</ele>
        <time>2022-06-10T06:56:34Z</time>
      </trkpt>
      <trkpt lat="47.6220280" lon="9.1357010">
        <ele>58.6</ele>
        <time>2022-06-10T06:56:38Z</time>
      </trkpt>
      <trkpt lat="47.6220050" lon="9.1354500">
        <ele>58.4</ele>
        <time>2022-06-10T06:56:42Z</time>
      </trkpt>
      <trkpt lat="47.6219800" lon="9.1351850">
        <ele>58.0</ele>
        <time>2022-06-10T06:56:46Z</time>
      </trkpt>
      <trkpt lat="47.6219530" lon="9.1349060">
        <ele>57.4</ele>
        <time>2022-06-10T06:56:50Z</time>
      </trkpt>
      <trkpt lat="47.6219250" lon="9.1346130">
        <ele>56.8</ele>
        <time>2022-06-10T06:56:54Z</time>
      </trkpt>
      <trkpt lat="47.6218850" lon="9.1343180">
        <ele>56.4</ele>
        <time>2022-06-10T06:56:58Z</time>
      </trkpt>
      <trkpt lat="47.6219130" lon="9.1340360">
        <ele>56.6</ele>
        <time>2022-06-10T06:57:02Z</time>
      </trkpt>
      <trkpt lat="47.6219600" lon="9.1337530">
        <ele>56.4</ele>
        <time>2022-06-10T06:57:06Z</time>
      </trkpt>
      <trkpt lat="47.6220060" lon="9.1334810">
        <ele>55.2</ele>
        <time>2022-06-10T06:57:10Z</time>
      </trkpt>
      <trkpt lat="47.6219010" lon="9.1333560">
        <ele>55.0</ele>
        <time>2022-06-10T06:57:14Z</time>
      </trkpt>
      <trkpt lat="47.6218380" lon="9.1332180">
        <ele>55.0</ele>
        <time>2022-06-10T06:57:18Z</time>
      </trkpt>
      <trkpt lat="47.6218450" lon="9.1330010">
        <ele>54.8</ele>
        <time>2022-06-10T06:57:22Z</time>
      </trkpt>
      <trkpt lat="47.6218200" lon="9.1327860">
        <ele>53.4</ele>
        <time>2022-06-10T06:57:26Z</time>
      </trkpt>
      <trkpt lat="47.6217510" lon="9.1325210">
        <ele>52.4</ele>
        <time>2022-06-10T06:57:30Z</time>
      </trkpt>
      <trkpt lat="47.6216750" lon="9.1322750">
        <ele>51.2</ele>
        <time>2022-06-10T06:57:34Z</time>
      </trkpt>
      <trkpt lat="47.6215610" lon="9.1319730">
        <ele>50.2</ele>
        <time>2022-06-10T06:57:38Z</time>
      </trkpt>
      <trkpt lat="47.6214400" lon="9.1316080">
        <ele>49.4</ele>
        <time>2022-06-10T06:57:42Z</time>
      </trkpt>
      <trkpt lat="47.6213100" lon="9.1312360">
        <ele>49.4</ele>
        <time>2022-06-10T06:57:46Z</time>
      </trkpt>
      <trkpt lat="47.6211860" lon="9.1308900">
        <ele>49.2</ele>
        <time>2022-06-10T06:57:50Z</time>
      </trkpt>
      <trkpt lat="47.6210650" lon="9.1305830">
        <ele>48.8</ele>
        <time>2022-06-10T06:57:54Z</time>
      </trkpt>
      <trkpt lat="47.6209400" lon="9.1303110">
        <ele>49.8</ele>
        <time>2022-06-10T06:57:58Z</time>
      </trkpt>
      <trkpt lat="47.6208150" lon="9.1300580">
        <ele>50.6</ele>
        <time>2022-06-10T06:58:02Z</time>
      </trkpt>
      <trkpt lat="47.6206930" lon="9.1298210">
        <ele>50.0</ele>
        <time>2022-06-10T06:58:06Z</time>
      </trkpt>
      <trkpt lat="47.6205660" lon="9.1295830">
        <ele>50.0</ele>
        <time>2022-06-10T06:58:10Z</time>
      </trkpt>
      <trkpt lat="47.6204330" lon="9.1293310">
        <ele>49.4</ele>
        <time>2022-06-10T06:58:14Z</time>
      </trkpt>
      <trkpt lat="47.6202960" lon="9.1290650">
        <ele>49.0</ele>
        <time>2022-06-10T06:58:18Z</time>
      </trkpt>
      <trkpt lat="47.6201580" lon="9.1287880">
        <ele>48.6</ele>
        <time>2022-06-10T06:58:22Z</time>
      </trkpt>
      <trkpt lat="47.6200160" lon="9.1285160">
        <ele>48.4</ele>
        <time>2022-06-10T06:58:26Z</time>
      </trkpt>
      <trkpt lat="47.6198780" lon="9.1282460">
        <ele>47.8</ele>
        <time>2022-06-10T06:58:30Z</time>
      </trkpt>
      <trkpt lat="47.6197460" lon="9.1279710">
        <ele>47.4</ele>
        <time>2022-06-10T06:58:34Z</time>
      </trkpt>
      <trkpt lat="47.6196160" lon="9.1276780">
        <ele>46.6</ele>
        <time>2022-06-10T06:58:38Z</time>
      </trkpt>
      <trkpt lat="47.6194900" lon="9.1273650">
        <ele>46.0</ele>
        <time>2022-06-10T06:58:42Z</time>
      </trkpt>
      <trkpt lat="47.6193700" lon="9.1270430">
        <ele>47.0</ele>
        <time>2022-06-10T06:58:46Z</time>
      </trkpt>
      <trkpt lat="47.6192600" lon="9.1267230">
        <ele>46.6</ele>
        <time>2022-06-10T06:58:50Z</time>
      </trkpt>
      <trkpt lat="47.6191500" lon="9.1264010">
        <ele>47.4</ele>
        <time>2022-06-10T06:58:54Z</time>
      </trkpt>
      <trkpt lat="47.6190410" lon="9.1260960">
        <ele>47.0</ele>
        <time>2022-06-10T06:58:58Z</time>
      </trkpt>
      <trkpt lat="47.6189400" lon="9.1257980">
        <ele>46.8</ele>
        <time>2022-06-10T06:59:02Z</time>
      </trkpt>
      <trkpt lat="47.6188400" lon="9.1255060">
        <ele>46.6</ele>
        <time>2022-06-10T06:59:06Z</time>
      </trkpt>
      <trkpt lat="47.6187460" lon="9.1252180">
        <ele>46.8</ele>
        <time>2022-06-10T06:59:10Z</time>
      </trkpt>
      <trkpt lat="47.6186550" lon="9.1249310">
        <ele>46.8</ele>
        <time>2022-06-10T06:59:14Z</time>
      </trkpt>
      <trkpt lat="47.6185750" lon="9.1246460">
        <ele>47.4</ele>
        <time>2022-06-10T06:59:18Z</time>
      </trkpt>
      <trkpt lat="47.6185010" lon="9.1243580">
        <ele>47.8</ele>
        <time>2022-06-10T06:59:22Z</time>
      </trkpt>
      <trkpt lat="47.6184310" lon="9.1240710">
        <ele>47.6</ele>
        <time>2022-06-10T06:59:26Z</time>
      </trkpt>
      <trkpt lat="47.6183600" lon="9.1237780">
        <ele>47.8</ele>
        <time>2022-06-10T06:59:30Z</time>
      </trkpt>
      <trkpt lat="47.6182880" lon="9.1234860">
        <ele>47.8</ele>
        <time>2022-06-10T06:59:34Z</time>
      </trkpt>
      <trkpt lat="47.6182130" lon="9.1231910">
        <ele>47.6</ele>
        <time>2022-06-10T06:59:38Z</time>
      </trkpt>
      <trkpt lat="47.6181380" lon="9.1228960">
        <ele>47.8</ele>
        <time>2022-06-10T06:59:42Z</time>
      </trkpt>
      <trkpt lat="47.6180660" lon="9.1225910">
        <ele>48.0</ele>
        <time>2022-06-10T06:59:46Z</time>
      </trkpt>
      <trkpt lat="47.6179880" lon="9.1222960">
        <ele>47.6</ele>
        <time>2022-06-10T06:59:50Z</time>
      </trkpt>
      <trkpt lat="47.6179100" lon="9.1220330">
        <ele>48.2</ele>
        <time>2022-06-10T06:59:54Z</time>
      </trkpt>
      <trkpt lat="47.6178210" lon="9.1219100">
        <ele>47.2</ele>
        <time>2022-06-10T06:59:58Z</time>
      </trkpt>
      <trkpt lat="47.6177600" lon="9.1217380">
        <ele>47.2</ele>
        <time>2022-06-10T07:00:02Z</time>
      </trkpt>
      <trkpt lat="47.6177130" lon="9.1215130">
        <ele>46.2</ele>
        <time>2022-06-10T07:00:06Z</time>
      </trkpt>
      <trkpt lat="47.6176560" lon="9.1212600">
        <ele>46.2</ele>
        <time>2022-06-10T07:00:10Z</time>
      </trkpt>
      <trkpt lat="47.6176130" lon="9.1209750">
        <ele>45.6</ele>
        <time>2022-06-10T07:00:14Z</time>
      </trkpt>
      <trkpt lat="47.6175800" lon="9.1206560">
        <ele>45.0</ele>
        <time>2022-06-10T07:00:18Z</time>
      </trkpt>
      <trkpt lat="47.6175650" lon="9.1203380">
        <ele>44.4</ele>
        <time>2022-06-10T07:00:22Z</time>
      </trkpt>
      <trkpt lat="47.6175610" lon="9.1200200">
        <ele>43.8</ele>
        <time>2022-06-10T07:00:26Z</time>
      </trkpt>
      <trkpt lat="47.6175600" lon="9.1197080">
        <ele>44.0</ele>
        <time>2022-06-10T07:00:30Z</time>
      </trkpt>
      <trkpt lat="47.6175560" lon="9.1193960">
        <ele>43.8</ele>
        <time>2022-06-10T07:00:34Z</time>
      </trkpt>
      <trkpt lat="47.6175560" lon="9.1190850">
        <ele>44.0</ele>
        <time>2022-06-10T07:00:38Z</time>
      </trkpt>
      <trkpt lat="47.6175550" lon="9.1187830">
        <ele>44.0</ele>
        <time>2022-06-10T07:00:42Z</time>
      </trkpt>
      <trkpt lat="47.6175660" lon="9.1184880">
        <ele>43.8</ele>
        <time>2022-06-10T07:00:46Z</time>
      </trkpt>
      <trkpt lat="47.6175800" lon="9.1181950">
        <ele>43.4</ele>
        <time>2022-06-10T07:00:50Z</time>
      </trkpt>
      <trkpt lat="47.6175930" lon="9.1179080">
        <ele>43.8</ele>
        <time>2022-06-10T07:00:54Z</time>
      </trkpt>
      <trkpt lat="47.6176080" lon="9.1176380">
        <ele>45.0</ele>
        <time>2022-06-10T07:00:58Z</time>
      </trkpt>
      <trkpt lat="47.6176230" lon="9.1173800">
        <ele>44.8</ele>
        <time>2022-06-10T07:01:02Z</time>
      </trkpt>
      <trkpt lat="47.6176380" lon="9.1171110">
        <ele>45.2</ele>
        <time>2022-06-10T07:01:06Z</time>
      </trkpt>
      <trkpt lat="47.6176510" lon="9.1168460">
        <ele>45.2</ele>
        <time>2022-06-10T07:01:10Z</time>
      </trkpt>
      <trkpt lat="47.6176850" lon="9.1166230">
        <ele>45.0</ele>
        <time>2022-06-10T07:01:14Z</time>
      </trkpt>
      <trkpt lat="47.6177050" lon="9.1164480">
        <ele>45.4</ele>
        <time>2022-06-10T07:01:18Z</time>
      </trkpt>
      <trkpt lat="47.6177130" lon="9.1162280">
        <ele>45.2</ele>
        <time>2022-06-10T07:01:22Z</time>
      </trkpt>
      <trkpt lat="47.6177200" lon="9.1159760">
        <ele>44.4</ele>
        <time>2022-06-10T07:01:26Z</time>
      </trkpt>
      <trkpt lat="47.6177110" lon="9.1157100">
        <ele>44.2</ele>
        <time>2022-06-10T07:01:30Z</time>
      </trkpt>
      <trkpt lat="47.6177060" lon="9.1154460">
        <ele>44.0</ele>
        <time>2022-06-10T07:01:34Z</time>
      </trkpt>
      <trkpt lat="47.6177080" lon="9.1151960">
        <ele>43.4</ele>
        <time>2022-06-10T07:01:38Z</time>
      </trkpt>
      <trkpt lat="47.6177100" lon="9.1149510">
        <ele>43.0</ele>
        <time>2022-06-10T07:01:42Z</time>
      </trkpt>
      <trkpt lat="47.6177130" lon="9.1147450">
        <ele>42.6</ele>
        <time>2022-06-10T07:01:46Z</time>
      </trkpt>
      <trkpt lat="47.6177200" lon="9.1145250">
        <ele>42.4</ele>
        <time>2022-06-10T07:01:50Z</time>
      </trkpt>
      <trkpt lat="47.6177300" lon="9.1143080">
        <ele>42.4</ele>
        <time>2022-06-10T07:01:54Z</time>
      </trkpt>
      <trkpt lat="47.6177810" lon="9.1140730">
        <ele>42.2</ele>
        <time>2022-06-10T07:01:58Z</time>
      </trkpt>
      <trkpt lat="47.6178160" lon="9.1137910">
        <ele>42.0</ele>
        <time>2022-06-10T07:02:02Z</time>
      </trkpt>
      <trkpt lat="47.6178330" lon="9.1134880">
        <ele>41.2</ele>
        <time>2022-06-10T07:02:06Z</time>
      </trkpt>
      <trkpt lat="47.6178330" lon="9.1131600">
        <ele>41.0</ele>
        <time>2022-06-10T07:02:10Z</time>
      </trkpt>
      <trkpt lat="47.6178500" lon="9.1128900">
        <ele>41.0</ele>
        <time>2022-06-10T07:02:14Z</time>
      </trkpt>
      <trkpt lat="47.6178650" lon="9.1126400">
        <ele>41.0</ele>
        <time>2022-06-10T07:02:18Z</time>
      </trkpt>
      <trkpt lat="47.6178880" lon="9.1123910">
        <ele>42.0</ele>
        <time>2022-06-10T07:02:22Z</time>
      </trkpt>
      <trkpt lat="47.6179100" lon="9.1121660">
        <ele>42.6</ele>
        <time>2022-06-10T07:02:26Z</time>
      </trkpt>
      <trkpt lat="47.6179450" lon="9.1119650">
        <ele>42.8</ele>
        <time>2022-06-10T07:02:30Z</time>
      </trkpt>
      <trkpt lat="47.6179730" lon="9.1117780">
        <ele>43.8</ele>
        <time>2022-06-10T07:02:34Z</time>
      </trkpt>
      <trkpt lat="47.6180060" lon="9.1115750">
        <ele>45.0</ele>
        <time>2022-06-10T07:02:38Z</time>
      </trkpt>
      <trkpt lat="47.6180430" lon="9.1113800">
        <ele>45.0</ele>
        <time>2022-06-10T07:02:42Z</time>
      </trkpt>
      <trkpt lat="47.6180780" lon="9.1112050">
        <ele>46.0</ele>
        <time>2022-06-10T07:02:46Z</time>
      </trkpt>
      <trkpt lat="47.6181250" lon="9.1110350">
        <ele>47.6</ele>
        <time>2022-06-10T07:02:50Z</time>
      </trkpt>
      <trkpt lat="47.6181660" lon="9.1108610">
        <ele>47.8</ele>
        <time>2022-06-10T07:02:54Z</time>
      </trkpt>
      <trkpt lat="47.6182110" lon="9.1106810">
        <ele>48.4</ele>
        <time>2022-06-10T07:02:58Z</time>
      </trkpt>
      <trkpt lat="47.6182580" lon="9.1105050">
        <ele>48.6</ele>
        <time>2022-06-10T07:03:02Z</time>
      </trkpt>
      <trkpt lat="47.6183050" lon="9.1103360">
        <ele>49.0</ele>
        <time>2022-06-10T07:03:06Z</time>
      </trkpt>
      <trkpt lat="47.6183560" lon="9.1101530">
        <ele>49.8</ele>
        <time>2022-06-10T07:03:10Z</time>
      </trkpt>
      <trkpt lat="47.6184160" lon="9.1099750">
        <ele>50.4</ele>
        <time>2022-06-10T07:03:14Z</time>
      </trkpt>
      <trkpt lat="47.6184750" lon="9.1097980">
        <ele>50.6</ele>
        <time>2022-06-10T07:03:18Z</time>
      </trkpt>
      <trkpt lat="47.6185330" lon="9.1096150">
        <ele>50.8</ele>
        <time>2022-06-10T07:03:22Z</time>
      </trkpt>
      <trkpt lat="47.6186010" lon="9.1094050">
        <ele>50.4</ele>
        <time>2022-06-10T07:03:26Z</time>
      </trkpt>
      <trkpt lat="47.6186700" lon="9.1091880">
        <ele>51.4</ele>
        <time>2022-06-10T07:03:30Z</time>
      </trkpt>
      <trkpt lat="47.6187380" lon="9.1089830">
        <ele>51.4</ele>
        <time>2022-06-10T07:03:34Z</time>
      </trkpt>
      <trkpt lat="47.6188060" lon="9.1087760">
        <ele>51.4</ele>
        <time>2022-06-10T07:03:38Z</time>
      </trkpt>
      <trkpt lat="47.6188760" lon="9.1085580">
        <ele>51.4</ele>
        <time>2022-06-10T07:03:42Z</time>
      </trkpt>
      <trkpt lat="47.6189450" lon="9.1083360">
        <ele>52.0</ele>
        <time>2022-06-10T07:03:46Z</time>
      </trkpt>
      <trkpt lat="47.6190200" lon="9.1081110">
        <ele>52.0</ele>
        <time>2022-06-10T07:03:50Z</time>
      </trkpt>
      <trkpt lat="47.6190980" lon="9.1078860">
        <ele>51.8</ele>
        <time>2022-06-10T07:03:54Z</time>
      </trkpt>
      <trkpt lat="47.6191700" lon="9.1076630">
        <ele>52.0</ele>
        <time>2022-06-10T07:03:58Z</time>
      </trkpt>
      <trkpt lat="47.6192450" lon="9.1074430">
        <ele>52.2</ele>
        <time>2022-06-10T07:04:02Z</time>
      </trkpt>
      <trkpt lat="47.6193160" lon="9.1072230">
        <ele>52.2</ele>
        <time>2022-06-10T07:04:06Z</time>
      </trkpt>
      <trkpt lat="47.6193910" lon="9.1070010">
        <ele>52.4</ele>
        <time>2022-06-10T07:04:10Z</time>
      </trkpt>
      <trkpt lat="47.6194510" lon="9.1067680">
        <ele>52.8</ele>
        <time>2022-06-10T07:04:14Z</time>
      </trkpt>
      <trkpt lat="47.6195000" lon="9.1065250">
        <ele>53.0</ele>
        <time>2022-06-10T07:04:18Z</time>
      </trkpt>
      <trkpt lat="47.6195460" lon="9.1062760">
        <ele>52.6</ele>
        <time>2022-06-10T07:04:22Z</time>
      </trkpt>
      <trkpt lat="47.6195960" lon="9.1060180">
        <ele>52.6</ele>
        <time>2022-06-10T07:04:26Z</time>
      </trkpt>
      <trkpt lat="47.6196360" lon="9.1057550">
        <ele>52.8</ele>
        <time>2022-06-10T07:04:30Z</time>
      </trkpt>
      <trkpt lat="47.6196730" lon="9.1054900">
        <ele>53.0</ele>
        <time>2022-06-10T07:04:34Z</time>
      </trkpt>
      <trkpt lat="47.6197200" lon="9.1052160">
        <ele>52.6</ele>
        <time>2022-06-10T07:04:38Z</time>
      </trkpt>
      <trkpt lat="47.6197660" lon="9.1049480">
        <ele>52.0</ele>
        <time>2022-06-10T07:04:42Z</time>
      </trkpt>
      <trkpt lat="47.6198100" lon="9.1046560">
        <ele>52.4</ele>
        <time>2022-06-10T07:04:46Z</time>
      </trkpt>
      <trkpt lat="47.6198460" lon="9.1043410">
        <ele>52.4</ele>
        <time>2022-06-10T07:04:50Z</time>
      </trkpt>
      <trkpt lat="47.6198810" lon="9.1040210">
        <ele>51.8</ele>
        <time>2022-06-10T07:04:54Z</time>
      </trkpt>
      <trkpt lat="47.6199130" lon="9.1036860">
        <ele>51.8</ele>
        <time>2022-06-10T07:04:58Z</time>
      </trkpt>
      <trkpt lat="47.6199300" lon="9.1033380">
        <ele>51.4</ele>
        <time>2022-06-10T07:05:02Z</time>
      </trkpt>
      <trkpt lat="47.6199330" lon="9.1029930">
        <ele>51.0</ele>
        <time>2022-06-10T07:05:06Z</time>
      </trkpt>
      <trkpt lat="47.6199210" lon="9.1026560">
        <ele>51.2</ele>
        <time>2022-06-10T07:05:10Z</time>
      </trkpt>
      <trkpt lat="47.6199230" lon="9.1022910">
        <ele>51.2</ele>
        <time>2022-06-10T07:05:14Z</time>
      </trkpt>
      <trkpt lat="47.6199380" lon="9.1019030">
        <ele>50.6</ele>
        <time>2022-06-10T07:05:18Z</time>
      </trkpt>
      <trkpt lat="47.6199480" lon="9.1015010">
        <ele>50.0</ele>
        <time>2022-06-10T07:05:22Z</time>
      </trkpt>
      <trkpt lat="47.6199500" lon="9.1010960">
        <ele>50.4</ele>
        <time>2022-06-10T07:05:26Z</time>
      </trkpt>
      <trkpt lat="47.6199450" lon="9.1006960">
        <ele>50.0</ele>
        <time>2022-06-10T07:05:30Z</time>
      </trkpt>
      <trkpt lat="47.6199360" lon="9.1003050">
        <ele>50.2</ele>
        <time>2022-06-10T07:05:34Z</time>
      </trkpt>
      <trkpt lat="47.6199310" lon="9.0999350">
        <ele>50.2</ele>
        <time>2022-06-10T07:05:38Z</time>
      </trkpt>
      <trkpt lat="47.6199130" lon="9.0995830">
        <ele>51.2</ele>
        <time>2022-06-10T07:05:42Z</time>
      </trkpt>
      <trkpt lat="47.6198910" lon="9.0992450">
        <ele>52.4</ele>
        <time>2022-06-10T07:05:46Z</time>
      </trkpt>
      <trkpt lat="47.6198710" lon="9.0989080">
        <ele>52.4</ele>
        <time>2022-06-10T07:05:50Z</time>
      </trkpt>
      <trkpt lat="47.6198480" lon="9.0985760">
        <ele>52.8</ele>
        <time>2022-06-10T07:05:54Z</time>
      </trkpt>
      <trkpt lat="47.6198230" lon="9.0982630">
        <ele>52.0</ele>
        <time>2022-06-10T07:05:58Z</time>
      </trkpt>
      <trkpt lat="47.6198000" lon="9.0979560">
        <ele>52.8</ele>
        <time>2022-06-10T07:06:02Z</time>
      </trkpt>
      <trkpt lat="47.6197710" lon="9.0976560">
        <ele>53.0</ele>
        <time>2022-06-10T07:06:06Z</time>
      </trkpt>
      <trkpt lat="47.6197450" lon="9.0973680">
        <ele>53.2</ele>
        <time>2022-06-10T07:06:10Z</time>
      </trkpt>
      <trkpt lat="47.6197200" lon="9.0971000">
        <ele>53.2</ele>
        <time>2022-06-10T07:06:14Z</time>
      </trkpt>
      <trkpt lat="47.6196910" lon="9.0968360">
        <ele>53.0</ele>
        <time>2022-06-10T07:06:18Z</time>
      </trkpt>
      <trkpt lat="47.6196650" lon="9.0965680">
        <ele>53.4</ele>
        <time>2022-06-10T07:06:22Z</time>
      </trkpt>
      <trkpt lat="47.6196880" lon="9.0963050">
        <ele>53.4</ele>
        <time>2022-06-10T07:06:26Z</time>
      </trkpt>
      <trkpt lat="47.6196460" lon="9.0960850">
        <ele>53.4</ele>
        <time>2022-06-10T07:06:30Z</time>
      </trkpt>
      <trkpt lat="47.6195160" lon="9.0961650">
        <ele>53.8</ele>
        <time>2022-06-10T07:06:34Z</time>
      </trkpt>
      <trkpt lat="47.6193680" lon="9.0962010">
        <ele>53.0</ele>
        <time>2022-06-10T07:06:38Z</time>
      </trkpt>
      <trkpt lat="47.6191900" lon="9.0961960">
        <ele>52.8</ele>
        <time>2022-06-10T07:06:42Z</time>
      </trkpt>
      <trkpt lat="47.6190180" lon="9.0962130">
        <ele>52.2</ele>
        <time>2022-06-10T07:06:46Z</time>
      </trkpt>
      <trkpt lat="47.6188450" lon="9.0962360">
        <ele>51.0</ele>
        <time>2022-06-10T07:06:50Z</time>
      </trkpt>
      <trkpt lat="47.6186630" lon="9.0962400">
        <ele>50.8</ele>
        <time>2022-06-10T07:06:54Z</time>
      </trkpt>
      <trkpt lat="47.6184850" lon="9.0962180">
        <ele>50.0</ele>
        <time>2022-06-10T07:06:58Z</time>
      </trkpt>
      <trkpt lat="47.6183100" lon="9.0961710">
        <ele>48.4</ele>
        <time>2022-06-10T07:07:02Z</time>
      </trkpt>
      <trkpt lat="47.6181400" lon="9.0961110">
        <ele>47.2</ele>
        <time>2022-06-10T07:07:06Z</time>
      </trkpt>
      <trkpt lat="47.6179950" lon="9.0960760">
        <ele>45.8</ele>
        <time>2022-06-10T07:07:10Z</time>
      </trkpt>
      <trkpt lat="47.6178180" lon="9.0960330">
        <ele>45.2</ele>
        <time>2022-06-10T07:07:14Z</time>
      </trkpt>
      <trkpt lat="47.6176400" lon="9.0959760">
        <ele>43.8</ele>
        <time>2022-06-10T07:07:18Z</time>
      </trkpt>
      <trkpt lat="47.6174330" lon="9.0959200">
        <ele>42.6</ele>
        <time>2022-06-10T07:07:22Z</time>
      </trkpt>
      <trkpt lat="47.6172510" lon="9.0957900">
        <ele>41.8</ele>
        <time>2022-06-10T07:07:26Z</time>
      </trkpt>
      <trkpt lat="47.6171200" lon="9.0955350">
        <ele>40.8</ele>
        <time>2022-06-10T07:07:30Z</time>
      </trkpt>
      <trkpt lat="47.6170350" lon="9.0952410">
        <ele>39.2</ele>
        <time>2022-06-10T07:07:34Z</time>
      </trkpt>
      <trkpt lat="47.6169680" lon="9.0949400">
        <ele>37.8</ele>
        <time>2022-06-10T07:07:38Z</time>
      </trkpt>
      <trkpt lat="47.6169350" lon="9.0947100">
        <ele>37.6</ele>
        <time>2022-06-10T07:07:42Z</time>
      </trkpt>
      <trkpt lat="47.6169130" lon="9.0945350">
        <ele>36.6</ele>
        <time>2022-06-10T07:07:46Z</time>
      </trkpt>
      <trkpt lat="47.6168760" lon="9.0943500">
        <ele>36.2</ele>
        <time>2022-06-10T07:07:50Z</time>
      </trkpt>
      <trkpt lat="47.6168430" lon="9.0941500">
        <ele>36.4</ele>
        <time>2022-06-10T07:07:54Z</time>
      </trkpt>
      <trkpt lat="47.6168000" lon="9.0939580">
        <ele>35.6</ele>
        <time>2022-06-10T07:07:58Z</time>
      </trkpt>
      <trkpt lat="47.6167230" lon="9.0938280">
        <ele>35.6</ele>
        <time>2022-06-10T07:08:02Z</time>
      </trkpt>
      <trkpt lat="47.6166200" lon="9.0937230">
        <ele>35.2</ele>
        <time>2022-06-10T07:08:06Z</time>
      </trkpt>
      <trkpt lat="47.6165560" lon="9.0936410">
        <ele>35.0</ele>
        <time>2022-06-10T07:08:10Z</time>
      </trkpt>
      <trkpt lat="47.6165510" lon="9.0935550">
        <ele>35.0</ele>
        <time>2022-06-10T07:08:14Z</time>
      </trkpt>
      <trkpt lat="47.6165460" lon="9.0935350">
        <ele>35.0</ele>
        <time>2022-06-10T07:08:18Z</time>
      </trkpt>
      <trkpt lat="47.6165500" lon="9.0934810">
        <ele>35.0</ele>
        <time>2022-06-10T07:08:22Z</time>
      </trkpt>
      <trkpt lat="47.6165480" lon="9.0934180">
        <ele>35.0</ele>
        <time>2022-06-10T07:08:26Z</time>
      </trkpt>
      <trkpt lat="47.6165480" lon="9.0934180">
        <ele>35.0</ele>
        <time>2022-06-10T07:08:30Z</time>
      </trkpt>
      <trkpt lat="47.6165480" lon="9.0934180">
        <ele>35.0</ele>
        <time>2022-06-10T07:08:34Z</time>
      </trkpt>
      <trkpt lat="47.6165480" lon="9.0934180">
        <ele>35.0</ele>
        <time>2022-06-10T07:08:38Z</time>
      </trkpt>
      <trkpt lat="47.6165480" lon="9.0934180">
        <ele>35.2</ele>
        <time>2022-06-10T07:08:42Z</time>
      </trkpt>
      <trkpt lat="47.6165360" lon="9.0933810">
        <ele>35.0</ele>
        <time>2022-06-10T07:08:46Z</time>
      </trkpt>
      <trkpt lat="47.6165660" lon="9.0934150">
        <ele>35.0</ele>
        <time>2022-06-10T07:08:50Z</time>
      </trkpt>
      <trkpt lat="47.6165600" lon="9.0935160">
        <ele>35.0</ele>
        <time>2022-06-10T07:08:54Z</time>
      </trkpt>
      <trkpt lat="47.6165080" lon="9.0935610">
        <ele>34.6</ele>
        <time>2022-06-10T07:08:58Z</time>
      </trkpt>
      <trkpt lat="47.6164450" lon="9.0935360">
        <ele>33.6</ele>
        <time>2022-06-10T07:09:02Z</time>
      </trkpt>
      <trkpt lat="47.6163480" lon="9.0934400">
        <ele>33.0</ele>
        <time>2022-06-10T07:09:06Z</time>
      </trkpt>
      <trkpt lat="47.6162450" lon="9.0933050">
        <ele>33.0</ele>
        <time>2022-06-10T07:09:10Z</time>
      </trkpt>
      <trkpt lat="47.6160930" lon="9.0931610">
        <ele>32.0</ele>
        <time>2022-06-10T07:09:14Z</time>
      </trkpt>
      <trkpt lat="47.6159450" lon="9.0929960">
        <ele>30.8</ele>
        <time>2022-06-10T07:09:18Z</time>
      </trkpt>
      <trkpt lat="47.6157950" lon="9.0928330">
        <ele>29.6</ele>
        <time>2022-06-10T07:09:22Z</time>
      </trkpt>
      <trkpt lat="47.6156610" lon="9.0926810">
        <ele>28.8</ele>
        <time>2022-06-10T07:09:26Z</time>
      </trkpt>
      <trkpt lat="47.6155400" lon="9.0925430">
        <ele>28.8</ele>
        <time>2022-06-10T07:09:30Z</time>
      </trkpt>
      <trkpt lat="47.6153960" lon="9.0923950">
        <ele>28.0</ele>
        <time>2022-06-10T07:09:34Z</time>
      </trkpt>
      <trkpt lat="47.6152260" lon="9.0922160">
        <ele>27.6</ele>
        <time>2022-06-10T07:09:38Z</time>
      </trkpt>
      <trkpt lat="47.6150500" lon="9.0920210">
        <ele>27.8</ele>
        <time>2022-06-10T07:09:42Z</time>
      </trkpt>
      <trkpt lat="47.6148680" lon="9.0918250">
        <ele>27.6</ele>
        <time>2022-06-10T07:09:46Z</time>
      </trkpt>
      <trkpt lat="47.6146860" lon="9.0916350">
        <ele>27.8</ele>
        <time>2022-06-10T07:09:50Z</time>
      </trkpt>
      <trkpt lat="47.6145030" lon="9.0914410">
        <ele>27.4</ele>
        <time>2022-06-10T07:09:54Z</time>
      </trkpt>
      <trkpt lat="47.6143250" lon="9.0912500">
        <ele>27.2</ele>
        <time>2022-06-10T07:09:58Z</time>
      </trkpt>
      <trkpt lat="47.6141460" lon="9.0910580">
        <ele>27.2</ele>
        <time>2022-06-10T07:10:02Z</time>
      </trkpt>
      <trkpt lat="47.6139680" lon="9.0908660">
        <ele>27.4</ele>
        <time>2022-06-10T07:10:06Z</time>
      </trkpt>
      <trkpt lat="47.6137910" lon="9.0906780">
        <ele>27.4</ele>
        <time>2022-06-10T07:10:10Z</time>
      </trkpt>
      <trkpt lat="47.6136050" lon="9.0904800">
        <ele>26.2</ele>
        <time>2022-06-10T07:10:14Z</time>
      </trkpt>
      <trkpt lat="47.6134230" lon="9.0902480">
        <ele>25.8</ele>
        <time>2022-06-10T07:10:18Z</time>
      </trkpt>
      <trkpt lat="47.6132360" lon="9.0900080">
        <ele>25.4</ele>
        <time>2022-06-10T07:10:22Z</time>
      </trkpt>
      <trkpt lat="47.6130310" lon="9.0897880">
        <ele>25.2</ele>
        <time>2022-06-10T07:10:26Z</time>
      </trkpt>
      <trkpt lat="47.6128200" lon="9.0895680">
        <ele>24.8</ele>
        <time>2022-06-10T07:10:30Z</time>
      </trkpt>
      <trkpt lat="47.6126160" lon="9.0893530">
        <ele>24.0</ele>
        <time>2022-06-10T07:10:34Z</time>
      </trkpt>
      <trkpt lat="47.6124100" lon="9.0891500">
        <ele>23.6</ele>
        <time>2022-06-10T07:10:38Z</time>
      </trkpt>
      <trkpt lat="47.6122000" lon="9.0889410">
        <ele>23.8</ele>
        <time>2022-06-10T07:10:42Z</time>
      </trkpt>
      <trkpt lat="47.6119960" lon="9.0887200">
        <ele>23.0</ele>
        <time>2022-06-10T07:10:46Z</time>
      </trkpt>
      <trkpt lat="47.6117810" lon="9.0884900">
        <ele>22.4</ele>
        <time>2022-06-10T07:10:50Z</time>
      </trkpt>
      <trkpt lat="47.6115600" lon="9.0882260">
        <ele>20.6</ele>
        <time>2022-06-10T07:10:54Z</time>
      </trkpt>
      <trkpt lat="47.6113230" lon="9.0879650">
        <ele>20.0</ele>
        <time>2022-06-10T07:10:58Z</time>
      </trkpt>
      <trkpt lat="47.6110760" lon="9.0877010">
        <ele>18.6</ele>
        <time>2022-06-10T07:11:02Z</time>
      </trkpt>
      <trkpt lat="47.6108250" lon="9.0874350">
        <ele>17.8</ele>
        <time>2022-06-10T07:11:06Z</time>
      </trkpt>
      <trkpt lat="47.6105710" lon="9.0871750">
        <ele>17.4</ele>
        <time>2022-06-10T07:11:10Z</time>
      </trkpt>
      <trkpt lat="47.6103280" lon="9.0869210">
        <ele>15.8</ele>
        <time>2022-06-10T07:11:14Z</time>
      </trkpt>
      <trkpt lat="47.6100980" lon="9.0866760">
        <ele>14.6</ele>
        <time>2022-06-10T07:11:18Z</time>
      </trkpt>
      <trkpt lat="47.6098760" lon="9.0864960">
        <ele>13.4</ele>
        <time>2022-06-10T07:11:22Z</time>
      </trkpt>
      <trkpt lat="47.6096650" lon="9.0862980">
        <ele>12.0</ele>
        <time>2022-06-10T07:11:26Z</time>
      </trkpt>
      <trkpt lat="47.6094150" lon="9.0860750">
        <ele>9.6</ele>
        <time>2022-06-10T07:11:30Z</time>
      </trkpt>
      <trkpt lat="47.6091400" lon="9.0857960">
        <ele>7.4</ele>
        <time>2022-06-10T07:11:34Z</time>
      </trkpt>
      <trkpt lat="47.6088860" lon="9.0854880">
        <ele>6.4</ele>
        <time>2022-06-10T07:11:38Z</time>
      </trkpt>
      <trkpt lat="47.6086450" lon="9.0851900">
        <ele>5.4</ele>
        <time>2022-06-10T07:11:42Z</time>
      </trkpt>
      <trkpt lat="47.6083960" lon="9.0848880">
        <ele>3.4</ele>
        <time>2022-06-10T07:11:46Z</time>
      </trkpt>
      <trkpt lat="47.6081300" lon="9.0845660">
        <ele>2.8</ele>
        <time>2022-06-10T07:11:50Z</time>
      </trkpt>
      <trkpt lat="47.6078480" lon="9.0842280">
        <ele>1.0</ele>
        <time>2022-06-10T07:11:54Z</time>
      </trkpt>
      <trkpt lat="47.6075660" lon="9.0838830">
        <ele>-2.2</ele>
        <time>2022-06-10T07:11:58Z</time>
      </trkpt>
      <trkpt lat="47.6072960" lon="9.0835550">
        <ele>-2.4</ele>
        <time>2022-06-10T07:12:02Z</time>
      </trkpt>
      <trkpt lat="47.6070460" lon="9.0832480">
        <ele>-2.8</ele>
        <time>2022-06-10T07:12:06Z</time>
      </trkpt>
      <trkpt lat="47.6068100" lon="9.0829630">
        <ele>-3.8</ele>
        <time>2022-06-10T07:12:10Z</time>
      </trkpt>
      <trkpt lat="47.6065880" lon="9.0826710">
        <ele>-4.0</ele>
        <time>2022-06-10T07:12:14Z</time>
      </trkpt>
      <trkpt lat="47.6063760" lon="9.0823380">
        <ele>-5.8</ele>
        <time>2022-06-10T07:12:18Z</time>
      </trkpt>
      <trkpt lat="47.6061650" lon="9.0819610">
        <ele>-7.0</ele>
        <time>2022-06-10T07:12:22Z</time>
      </trkpt>
      <trkpt lat="47.6059410" lon="9.0815650">
        <ele>-9.0</ele>
        <time>2022-06-10T07:12:26Z</time>
      </trkpt>
      <trkpt lat="47.6057150" lon="9.0811650">
        <ele>-10.4</ele>
        <time>2022-06-10T07:12:30Z</time>
      </trkpt>
      <trkpt lat="47.6055010" lon="9.0807810">
        <ele>-11.8</ele>
        <time>2022-06-10T07:12:34Z</time>
      </trkpt>
      <trkpt lat="47.6052930" lon="9.0804210">
        <ele>-11.8</ele>
        <time>2022-06-10T07:12:38Z</time>
      </trkpt>
      <trkpt lat="47.6050960" lon="9.0800750">
        <ele>-12.0</ele>
        <time>2022-06-10T07:12:42Z</time>
      </trkpt>
      <trkpt lat="47.6049010" lon="9.0797330">
        <ele>-12.4</ele>
        <time>2022-06-10T07:12:46Z</time>
      </trkpt>
      <trkpt lat="47.6047060" lon="9.0793850">
        <ele>-13.6</ele>
        <time>2022-06-10T07:12:50Z</time>
      </trkpt>
      <trkpt lat="47.6045110" lon="9.0790350">
        <ele>-15.4</ele>
        <time>2022-06-10T07:12:54Z</time>
      </trkpt>
      <trkpt lat="47.6043230" lon="9.0787010">
        <ele>-15.8</ele>
        <time>2022-06-10T07:12:58Z</time>
      </trkpt>
      <trkpt lat="47.6041380" lon="9.0783950">
        <ele>-16.8</ele>
        <time>2022-06-10T07:13:02Z</time>
      </trkpt>
      <trkpt lat="47.6039760" lon="9.0781000">
        <ele>-15.8</ele>
        <time>2022-06-10T07:13:06Z</time>
      </trkpt>
      <trkpt lat="47.6038030" lon="9.0778110">
        <ele>-16.4</ele>
        <time>2022-06-10T07:13:10Z</time>
      </trkpt>
      <trkpt lat="47.6036060" lon="9.0775230">
        <ele>-18.0</ele>
        <time>2022-06-10T07:13:14Z</time>
      </trkpt>
      <trkpt lat="47.6033800" lon="9.0772310">
        <ele>-18.4</ele>
        <time>2022-06-10T07:13:18Z</time>
      </trkpt>
      <trkpt lat="47.6031180" lon="9.0769360">
        <ele>-22.2</ele>
        <time>2022-06-10T07:13:22Z</time>
      </trkpt>
      <trkpt lat="47.6028460" lon="9.0765700">
        <ele>-24.8</ele>
        <time>2022-06-10T07:13:26Z</time>
      </trkpt>
      <trkpt lat="47.6026150" lon="9.0760680">
        <ele>-28.8</ele>
        <time>2022-06-10T07:13:30Z</time>
      </trkpt>
      <trkpt lat="47.6023450" lon="9.0755410">
        <ele>-32.2</ele>
        <time>2022-06-10T07:13:34Z</time>
      </trkpt>
      <trkpt lat="47.6019960" lon="9.0750400">
        <ele>-36.4</ele>
        <time>2022-06-10T07:13:38Z</time>
      </trkpt>
      <trkpt lat="47.6016230" lon="9.0745750">
        <ele>-40.8</ele>
        <time>2022-06-10T07:13:42Z</time>
      </trkpt>
      <trkpt lat="47.6012360" lon="9.0741480">
        <ele>-44.6</ele>
        <time>2022-06-10T07:13:46Z</time>
      </trkpt>
      <trkpt lat="47.6008680" lon="9.0737100">
        <ele>-49.4</ele>
        <time>2022-06-10T07:13:50Z</time>
      </trkpt>
      <trkpt lat="47.6004560" lon="9.0732580">
        <ele>-52.2</ele>
        <time>2022-06-10T07:13:54Z</time>
      </trkpt>
      <trkpt lat="47.6001100" lon="9.0727450">
        <ele>-53.4</ele>
        <time>2022-06-10T07:13:58Z</time>
      </trkpt>
      <trkpt lat="47.5998580" lon="9.0722960">
        <ele>-51.6</ele>
        <time>2022-06-10T07:14:02Z</time>
      </trkpt>
      <trkpt lat="47.5996580" lon="9.0719200">
        <ele>-51.0</ele>
        <time>2022-06-10T07:14:06Z</time>
      </trkpt>
      <trkpt lat="47.5994960" lon="9.0715830">
        <ele>-50.6</ele>
        <time>2022-06-10T07:14:10Z</time>
      </trkpt>
      <trkpt lat="47.5993700" lon="9.0712930">
        <ele>-49.2</ele>
        <time>2022-06-10T07:14:14Z</time>
      </trkpt>
      <trkpt lat="47.5992450" lon="9.0710550">
        <ele>-48.8</ele>
        <time>2022-06-10T07:14:18Z</time>
      </trkpt>
      <trkpt lat="47.5991300" lon="9.0708280">
        <ele>-49.2</ele>
        <time>2022-06-10T07:14:22Z</time>
      </trkpt>
      <trkpt lat="47.5989730" lon="9.0706380">
        <ele>-49.0</ele>
        <time>2022-06-10T07:14:26Z</time>
      </trkpt>
      <trkpt lat="47.5988060" lon="9.0704800">
        <ele>-48.4</ele>
        <time>2022-06-10T07:14:30Z</time>
      </trkpt>
      <trkpt lat="47.5986350" lon="9.0703760">
        <ele>-47.6</ele>
        <time>2022-06-10T07:14:34Z</time>
      </trkpt>
      <trkpt lat="47.5984560" lon="9.0703180">
        <ele>-47.0</ele>
        <time>2022-06-10T07:14:38Z</time>
      </trkpt>
      <trkpt lat="47.5982910" lon="9.0702780">
        <ele>-47.2</ele>
        <time>2022-06-10T07:14:42Z</time>
      </trkpt>
      <trkpt lat="47.5981330" lon="9.0702400">
        <ele>-46.4</ele>
        <time>2022-06-10T07:14:46Z</time>
      </trkpt>
      <trkpt lat="47.5979750" lon="9.0702060">
        <ele>-47.2</ele>
        <time>2022-06-10T07:14:50Z</time>
      </trkpt>
      <trkpt lat="47.5978210" lon="9.0701730">
        <ele>-46.4</ele>
        <time>2022-06-10T07:14:54Z</time>
      </trkpt>
      <trkpt lat="47.5976800" lon="9.0701500">
        <ele>-46.6</ele>
        <time>2022-06-10T07:14:58Z</time>
      </trkpt>
      <trkpt lat="47.5975410" lon="9.0701230">
        <ele>-46.2</ele>
        <time>2022-06-10T07:15:02Z</time>
      </trkpt>
      <trkpt lat="47.5973960" lon="9.0700950">
        <ele>-45.6</ele>
        <time>2022-06-10T07:15:06Z</time>
      </trkpt>
      <trkpt lat="47.5972530" lon="9.0700680">
        <ele>-45.4</ele>
        <time>2022-06-10T07:15:10Z</time>
      </trkpt>
      <trkpt lat="47.5971110" lon="9.0700380">
        <ele>-44.4</ele>
        <time>2022-06-10T07:15:14Z</time>
      </trkpt>
      <trkpt lat="47.5969700" lon="9.0700080">
        <ele>-44.0</ele>
        <time>2022-06-10T07:15:18Z</time>
      </trkpt>
      <trkpt lat="47.5968350" lon="9.0699800">
        <ele>-43.8</ele>
        <time>2022-06-10T07:15:22Z</time>
      </trkpt>
      <trkpt lat="47.5967050" lon="9.0699530">
        <ele>-43.2</ele>
        <time>2022-06-10T07:15:26Z</time>
      </trkpt>
      <trkpt lat="47.5965760" lon="9.0699300">
        <ele>-43.0</ele>
        <time>2022-06-10T07:15:30Z</time>
      </trkpt>
      <trkpt lat="47.5964760" lon="9.0699150">
        <ele>-43.2</ele>
        <time>2022-06-10T07:15:34Z</time>
      </trkpt>
      <trkpt lat="47.5964210" lon="9.0698830">
        <ele>-42.8</ele>
        <time>2022-06-10T07:15:38Z</time>
      </trkpt>
      <trkpt lat="47.5964210" lon="9.0698830">
        <ele>-42.8</ele>
        <time>2022-06-10T07:15:42Z</time>
      </trkpt>
      <trkpt lat="47.5964210" lon="9.0698830">
        <ele>-42.8</ele>
        <time>2022-06-10T07:15:46Z</time>
      </trkpt>
      <trkpt lat="47.5964210" lon="9.0698830">
        <ele>-42.8</ele>
        <time>2022-06-10T07:15:50Z</time>
      </trkpt>
      <trkpt lat="47.5964210" lon="9.0698830">
        <ele>-43.0</ele>
        <time>2022-06-10T07:15:54Z</time>
      </trkpt>
      <trkpt lat="47.5964210" lon="9.0698830">
        <ele>-42.8</ele>
        <time>2022-06-10T07:15:58Z</time>
      </trkpt>
      <trkpt lat="47.5964210" lon="9.0698830">
        <ele>-42.6</ele>
        <time>2022-06-10T07:16:02Z</time>
      </trkpt>
      <trkpt lat="47.5964210" lon="9.0698830">
        <ele>-42.8</ele>
        <time>2022-06-10T07:16:06Z</time>
      </trkpt>
      <trkpt lat="47.5964210" lon="9.0698830">
        <ele>-42.6</ele>
        <time>2022-06-10T07:16:10Z</time>
      </trkpt>
      <trkpt lat="47.5964150" lon="9.0698900">
        <ele>-42.6</ele>
        <time>2022-06-10T07:16:14Z</time>
      </trkpt>
      <trkpt lat="47.5963710" lon="9.0698860">
        <ele>-42.8</ele>
        <time>2022-06-10T07:16:18Z</time>
      </trkpt>
      <trkpt lat="47.5962900" lon="9.0698760">
        <ele>-42.4</ele>
        <time>2022-06-10T07:16:22Z</time>
      </trkpt>
      <trkpt lat="47.5961650" lon="9.0698530">
        <ele>-42.2</ele>
        <time>2022-06-10T07:16:26Z</time>
      </trkpt>
      <trkpt lat="47.5960200" lon="9.0698300">
        <ele>-42.2</ele>
        <time>2022-06-10T07:16:30Z</time>
      </trkpt>
      <trkpt lat="47.5958600" lon="9.0697800">
        <ele>-42.6</ele>
        <time>2022-06-10T07:16:34Z</time>
      </trkpt>
      <trkpt lat="47.5956860" lon="9.0697460">
        <ele>-43.0</ele>
        <time>2022-06-10T07:16:38Z</time>
      </trkpt>
      <trkpt lat="47.5954930" lon="9.0696760">
        <ele>-44.2</ele>
        <time>2022-06-10T07:16:42Z</time>
      </trkpt>
      <trkpt lat="47.5952860" lon="9.0695730">
        <ele>-45.6</ele>
        <time>2022-06-10T07:16:46Z</time>
      </trkpt>
      <trkpt lat="47.5951180" lon="9.0694150">
        <ele>-46.0</ele>
        <time>2022-06-10T07:16:50Z</time>
      </trkpt>
      <trkpt lat="47.5950210" lon="9.0693260">
        <ele>-47.6</ele>
        <time>2022-06-10T07:16:54Z</time>
      </trkpt>
      <trkpt lat="47.5949060" lon="9.0692260">
        <ele>-47.6</ele>
        <time>2022-06-10T07:16:58Z</time>
      </trkpt>
      <trkpt lat="47.5947480" lon="9.0690550">
        <ele>-48.4</ele>
        <time>2022-06-10T07:17:02Z</time>
      </trkpt>
      <trkpt lat="47.5945430" lon="9.0688500">
        <ele>-49.8</ele>
        <time>2022-06-10T07:17:06Z</time>
      </trkpt>
      <trkpt lat="47.5943380" lon="9.0686150">
        <ele>-52.8</ele>
        <time>2022-06-10T07:17:10Z</time>
      </trkpt>
      <trkpt lat="47.5941380" lon="9.0683960">
        <ele>-54.8</ele>
        <time>2022-06-10T07:17:14Z</time>
      </trkpt>
      <trkpt lat="47.5939530" lon="9.0682030">
        <ele>-56.4</ele>
        <time>2022-06-10T07:17:18Z</time>
      </trkpt>
      <trkpt lat="47.5938450" lon="9.0680710">
        <ele>-58.0</ele>
        <time>2022-06-10T07:17:22Z</time>
      </trkpt>
      <trkpt lat="47.5937660" lon="9.0679560">
        <ele>-59.4</ele>
        <time>2022-06-10T07:17:26Z</time>
      </trkpt>
      <trkpt lat="47.5937050" lon="9.0677680">
        <ele>-59.6</ele>
        <time>2022-06-10T07:17:30Z</time>
      </trkpt>
      <trkpt lat="47.5936650" lon="9.0675710">
        <ele>-60.8</ele>
        <time>2022-06-10T07:17:34Z</time>
      </trkpt>
      <trkpt lat="47.5936210" lon="9.0673800">
        <ele>-61.6</ele>
        <time>2022-06-10T07:17:38Z</time>
      </trkpt>
      <trkpt lat="47.5935750" lon="9.0671630">
        <ele>-63.0</ele>
        <time>2022-06-10T07:17:42Z</time>
      </trkpt>
      <trkpt lat="47.5935250" lon="9.0669800">
        <ele>-63.8</ele>
        <time>2022-06-10T07:17:46Z</time>
      </trkpt>
      <trkpt lat="47.5935000" lon="9.0668610">
        <ele>-63.6</ele>
        <time>2022-06-10T07:17:50Z</time>
      </trkpt>
      <trkpt lat="47.5935000" lon="9.0668610">
        <ele>-64.2</ele>
        <time>2022-06-10T07:17:54Z</time>
      </trkpt>
      <trkpt lat="47.5935000" lon="9.0668610">
        <ele>-64.2</ele>
        <time>2022-06-10T07:17:58Z</time>
      </trkpt>
      <trkpt lat="47.5935000" lon="9.0668610">
        <ele>-64.0</ele>
        <time>2022-06-10T07:18:02Z</time>
      </trkpt>
      <trkpt lat="47.5935000" lon="9.0668610">
        <ele>-64.2</ele>
        <time>2022-06-10T07:18:06Z</time>
      </trkpt>
      <trkpt lat="47.5935000" lon="9.0668610">
        <ele>-64.2</ele>
        <time>2022-06-10T07:18:10Z</time>
      </trkpt>
      <trkpt lat="47.5934750" lon="9.0668460">
        <ele>-64.2</ele>
        <time>2022-06-10T07:18:14Z</time>
      </trkpt>
      <trkpt lat="47.5934650" lon="9.0669360">
        <ele>-64.4</ele>
        <time>2022-06-10T07:18:18Z</time>
      </trkpt>
      <trkpt lat="47.5935180" lon="9.0670900">
        <ele>-63.6</ele>
        <time>2022-06-10T07:18:22Z</time>
      </trkpt>
      <trkpt lat="47.5935580" lon="9.0672730">
        <ele>-62.4</ele>
        <time>2022-06-10T07:18:26Z</time>
      </trkpt>
      <trkpt lat="47.5935980" lon="9.0674550">
        <ele>-62.0</ele>
        <time>2022-06-10T07:18:30Z</time>
      </trkpt>
      <trkpt lat="47.5936400" lon="9.0676260">
        <ele>-61.2</ele>
        <time>2022-06-10T07:18:34Z</time>
      </trkpt>
      <trkpt lat="47.5936710" lon="9.0677750">
        <ele>-59.6</ele>
        <time>2022-06-10T07:18:38Z</time>
      </trkpt>
      <trkpt lat="47.5937050" lon="9.0679100">
        <ele>-59.2</ele>
        <time>2022-06-10T07:18:42Z</time>
      </trkpt>
      <trkpt lat="47.5937500" lon="9.0680500">
        <ele>-58.2</ele>
        <time>2022-06-10T07:18:46Z</time>
      </trkpt>
      <trkpt lat="47.5937910" lon="9.0681730">
        <ele>-58.0</ele>
        <time>2022-06-10T07:18:50Z</time>
      </trkpt>
      <trkpt lat="47.5938060" lon="9.0683350">
        <ele>-58.0</ele>
        <time>2022-06-10T07:18:54Z</time>
      </trkpt>
      <trkpt lat="47.5937660" lon="9.0685750">
        <ele>-59.8</ele>
        <time>2022-06-10T07:18:58Z</time>
      </trkpt>
      <trkpt lat="47.5936910" lon="9.0688550">
        <ele>-60.4</ele>
        <time>2022-06-10T07:19:02Z</time>
      </trkpt>
      <trkpt lat="47.5936260" lon="9.0691280">
        <ele>-60.4</ele>
        <time>2022-06-10T07:19:06Z</time>
      </trkpt>
      <trkpt lat="47.5935780" lon="9.0692600">
        <ele>-60.6</ele>
        <time>2022-06-10T07:19:10Z</time>
      </trkpt>
      <trkpt lat="47.5935180" lon="9.0693080">
        <ele>-60.8</ele>
        <time>2022-06-10T07:19:14Z</time>
      </trkpt>
      <trkpt lat="47.5934500" lon="9.0693650">
        <ele>-61.8</ele>
        <time>2022-06-10T07:19:18Z</time>
      </trkpt>
      <trkpt lat="47.5934500" lon="9.0693650">
        <ele>-62.0</ele>
        <time>2022-06-10T07:19:22Z</time>
      </trkpt>
      <trkpt lat="47.5934500" lon="9.0693650">
        <ele>-61.8</ele>
        <time>2022-06-10T07:19:26Z</time>
      </trkpt>
      <trkpt lat="47.5934180" lon="9.0694360">
        <ele>-61.8</ele>
        <time>2022-06-10T07:19:30Z</time>
      </trkpt>
      <trkpt lat="47.5934260" lon="9.0694710">
        <ele>-61.8</ele>
        <time>2022-06-10T07:19:34Z</time>
      </trkpt>
      <trkpt lat="47.5934260" lon="9.0694710">
        <ele>-61.6</ele>
        <time>2022-06-10T07:19:38Z</time>
      </trkpt>
      <trkpt lat="47.5934260" lon="9.0694710">
        <ele>-61.4</ele>
        <time>2022-06-10T07:19:42Z</time>
      </trkpt>
      <trkpt lat="47.5934260" lon="9.0694710">
        <ele>-61.8</ele>
        <time>2022-06-10T07:19:46Z</time>
      </trkpt>
      <trkpt lat="47.5934260" lon="9.0694710">
        <ele>-61.8</ele>
        <time>2022-06-10T07:19:50Z</time>
      </trkpt>
      <trkpt lat="47.5934260" lon="9.0694710">
        <ele>-61.4</ele>
        <time>2022-06-10T07:19:54Z</time>
      </trkpt>
      <trkpt lat="47.5934260" lon="9.0694710">
        <ele>-61.4</ele>
        <time>2022-06-10T07:19:58Z</time>
      </trkpt>
      <trkpt lat="47.5934530" lon="9.0694580">
        <ele>-61.8</ele>
        <time>2022-06-10T07:20:02Z</time>
      </trkpt>
      <trkpt lat="47.5934280" lon="9.0694000">
        <ele>-62.0</ele>
        <time>2022-06-10T07:20:06Z</time>
      </trkpt>
      <trkpt lat="47.5933380" lon="9.0694050">
        <ele>-62.2</ele>
        <time>2022-06-10T07:20:10Z</time>
      </trkpt>
      <trkpt lat="47.5932250" lon="9.0694460">
        <ele>-62.0</ele>
        <time>2022-06-10T07:20:14Z</time>
      </trkpt>
      <trkpt lat="47.5931010" lon="9.0694960">
        <ele>-62.6</ele>
        <time>2022-06-10T07:20:18Z</time>
      </trkpt>
      <trkpt lat="47.5930000" lon="9.0695310">
        <ele>-62.6</ele>
        <time>2022-06-10T07:20:22Z</time>
      </trkpt>
      <trkpt lat="47.5929180" lon="9.0695480">
        <ele>-62.6</ele>
        <time>2022-06-10T07:20:26Z</time>
      </trkpt>
      <trkpt lat="47.5928310" lon="9.0696110">
        <ele>-63.2</ele>
        <time>2022-06-10T07:20:30Z</time>
      </trkpt>
      <trkpt lat="47.5927510" lon="9.0696410">
        <ele>-63.0</ele>
        <time>2022-06-10T07:20:34Z</time>
      </trkpt>
      <trkpt lat="47.5926960" lon="9.0695910">
        <ele>-63.0</ele>
        <time>2022-06-10T07:20:38Z</time>
      </trkpt>
      <trkpt lat="47.5926100" lon="9.0694580">
        <ele>-64.8</ele>
        <time>2022-06-10T07:20:42Z</time>
      </trkpt>
      <trkpt lat="47.5925100" lon="9.0692510">
        <ele>-66.6</ele>
        <time>2022-06-10T07:20:46Z</time>
      </trkpt>
      <trkpt lat="47.5924500" lon="9.0689660">
        <ele>-67.6</ele>
        <time>2022-06-10T07:20:50Z</time>
      </trkpt>
      <trkpt lat="47.5923980" lon="9.0686930">
        <ele>-67.4</ele>
        <time>2022-06-10T07:20:54Z</time>
      </trkpt>
      <trkpt lat="47.5923230" lon="9.0684360">
        <ele>-67.6</ele>
        <time>2022-06-10T07:20:58Z</time>
      </trkpt>
      <trkpt lat="47.5922060" lon="9.0682860">
        <ele>-67.8</ele>
        <time>2022-06-10T07:21:02Z</time>
      </trkpt>
      <trkpt lat="47.5921000" lon="9.0681960">
        <ele>-68.4</ele>
        <time>2022-06-10T07:21:06Z</time>
      </trkpt>
      <trkpt lat="47.5920160" lon="9.0681410">
        <ele>-68.4</ele>
        <time>2022-06-10T07:21:10Z</time>
      </trkpt>
      <trkpt lat="47.5919560" lon="9.0681660">
        <ele>-68.2</ele>
        <time>2022-06-10T07:21:14Z</time>
      </trkpt>
      <trkpt lat="47.5919430" lon="9.0681860">
        <ele>-68.2</ele>
        <time>2022-06-10T07:21:18Z</time>
      </trkpt>
      <trkpt lat="47.5919430" lon="9.0681860">
        <ele>-68.0</ele>
        <time>2022-06-10T07:21:22Z</time>
      </trkpt>
      <trkpt lat="47.5919430" lon="9.0681860">
        <ele>-68.2</ele>
        <time>2022-06-10T07:21:26Z</time>
      </trkpt>
      <trkpt lat="47.5919430" lon="9.0681860">
        <ele>-68.2</ele>
        <time>2022-06-10T07:21:30Z</time>
      </trkpt>
      <trkpt lat="47.5919430" lon="9.0681860">
        <ele>-68.4</ele>
        <time>2022-06-10T07:21:34Z</time>
      </trkpt>
      <trkpt lat="47.5919430" lon="9.0681860">
        <ele>-68.4</ele>
        <time>2022-06-10T07:21:38Z</time>
      </trkpt>
      <trkpt lat="47.5919430" lon="9.0681860">
        <ele>-68.2</ele>
        <time>2022-06-10T07:21:42Z</time>
      </trkpt>
      <trkpt lat="47.5919430" lon="9.0681860">
        <ele>-68.4</ele>
        <time>2022-06-10T07:21:46Z</time>
      </trkpt>
      <trkpt lat="47.5919430" lon="9.0681860">
        <ele>-68.2</ele>
        <time>2022-06-10T07:21:50Z</time>
      </trkpt>
      <trkpt lat="47.5919430" lon="9.0681860">
        <ele>-68.2</ele>
        <time>2022-06-10T07:21:54Z</time>
      </trkpt>
      <trkpt lat="47.5919430" lon="9.0681860">
        <ele>-68.4</ele>
        <time>2022-06-10T07:21:58Z</time>
      </trkpt>
      <trkpt lat="47.5919430" lon="9.0681860">
        <ele>-68.2</ele>
        <time>2022-06-10T07:22:02Z</time>
      </trkpt>
      <trkpt lat="47.5919430" lon="9.0681860">
        <ele>-68.2</ele>
        <time>2022-06-10T07:22:06Z</time>
      </trkpt>
      <trkpt lat="47.5919430" lon="9.0681860">
        <ele>-68.2</ele>
        <time>2022-06-10T07:22:10Z</time>
      </trkpt>
      <trkpt lat="47.5919430" lon="9.0681860">
        <ele>-68.2</ele>
        <time>2022-06-10T07:22:14Z</time>
      </trkpt>
      <trkpt lat="47.5919430" lon="9.0681860">
        <ele>-67.6</ele>
        <time>2022-06-10T07:22:18Z</time>
      </trkpt>
      <trkpt lat="47.5919430" lon="9.0681860">
        <ele>-68.2</ele>
        <time>2022-06-10T07:22:22Z</time>
      </trkpt>
      <trkpt lat="47.5919430" lon="9.0681860">
        <ele>-68.0</ele>
        <time>2022-06-10T07:22:26Z</time>
      </trkpt>
      <trkpt lat="47.5919430" lon="9.0681860">
        <ele>-68.2</ele>
        <time>2022-06-10T07:22:30Z</time>
      </trkpt>
      <trkpt lat="47.5919430" lon="9.0681860">
        <ele>-68.6</ele>
        <time>2022-06-10T07:22:34Z</time>
      </trkpt>
      <trkpt lat="47.5919430" lon="9.0681860">
        <ele>-68.4</ele>
        <time>2022-06-10T07:22:38Z</time>
      </trkpt>
      <trkpt lat="47.5919430" lon="9.0681860">
        <ele>-68.2</ele>
        <time>2022-06-10T07:22:42Z</time>
      </trkpt>
      <trkpt lat="47.5919430" lon="9.0681860">
        <ele>-68.6</ele>
        <time>2022-06-10T07:22:46Z</time>
      </trkpt>
      <trkpt lat="47.5919430" lon="9.0681860">
        <ele>-68.4</ele>
        <time>2022-06-10T07:22:50Z</time>
      </trkpt>
      <trkpt lat="47.5919430" lon="9.0681860">
        <ele>-68.6</ele>
        <time>2022-06-10T07:22:54Z</time>
      </trkpt>
      <trkpt lat="47.5919430" lon="9.0681860">
        <ele>-68.6</ele>
        <time>2022-06-10T07:22:58Z</time>
      </trkpt>
      <trkpt lat="47.5919430" lon="9.0681860">
        <ele>-68.6</ele>
        <time>2022-06-10T07:23:02Z</time>
      </trkpt>
      <trkpt lat="47.5919430" lon="9.0681860">
        <ele>-68.4</ele>
        <time>2022-06-10T07:23:06Z</time>
      </trkpt>
      <trkpt lat="47.5919430" lon="9.0681860">
        <ele>-68.2</ele>
        <time>2022-06-10T07:23:10Z</time>
      </trkpt>
      <trkpt lat="47.5919430" lon="9.0681860">
        <ele>-68.2</ele>
        <time>2022-06-10T07:23:14Z</time>
      </trkpt>
      <trkpt lat="47.5919430" lon="9.0681860">
        <ele>-68.6</ele>
        <time>2022-06-10T07:23:18Z</time>
      </trkpt>
      <trkpt lat="47.5919430" lon="9.0681860">
        <ele>-68.2</ele>
        <time>2022-06-10T07:23:22Z</time>
      </trkpt>
      <trkpt lat="47.5919430" lon="9.0681860">
        <ele>-68.6</ele>
        <time>2022-06-10T07:23:26Z</time>
      </trkpt>
      <trkpt lat="47.5919430" lon="9.0681860">
        <ele>-68.4</ele>
        <time>2022-06-10T07:23:30Z</time>
      </trkpt>
      <trkpt lat="47.5919430" lon="9.0681860">
        <ele>-68.2</ele>
        <time>2022-06-10T07:23:34Z</time>
      </trkpt>
      <trkpt lat="47.5919430" lon="9.0681860">
        <ele>-68.4</ele>
        <time>2022-06-10T07:23:38Z</time>
      </trkpt>
      <trkpt lat="47.5919430" lon="9.0681860">
        <ele>-68.4</ele>
        <time>2022-06-10T07:23:42Z</time>
      </trkpt>
      <trkpt lat="47.5919430" lon="9.0681860">
        <ele>-68.4</ele>
        <time>2022-06-10T07:23:46Z</time>
      </trkpt>
      <trkpt lat="47.5919430" lon="9.0681860">
        <ele>-68.2</ele>
        <time>2022-06-10T07:23:50Z</time>
      </trkpt>
      <trkpt lat="47.5919430" lon="9.0681860">
        <ele>-68.2</ele>
        <time>2022-06-10T07:23:54Z</time>
      </trkpt>
      <trkpt lat="47.5919430" lon="9.0681860">
        <ele>-68.4</ele>
        <time>2022-06-10T07:23:58Z</time>
      </trkpt>
      <trkpt lat="47.5919430" lon="9.0681860">
        <ele>-68.2</ele>
        <time>2022-06-10T07:24:02Z</time>
      </trkpt>
      <trkpt lat="47.5919430" lon="9.0681860">
        <ele>-67.6</ele>
        <time>2022-06-10T07:24:06Z</time>
      </trkpt>
      <trkpt lat="47.5919430" lon="9.0681860">
        <ele>-68.2</ele>
        <time>2022-06-10T07:24:10Z</time>
      </trkpt>
      <trkpt lat="47.5919430" lon="9.0681860">
        <ele>-68.4</ele>
        <time>2022-06-10T07:24:14Z</time>
      </trkpt>
      <trkpt lat="47.5919430" lon="9.0681860">
        <ele>-68.4</ele>
        <time>2022-06-10T07:24:18Z</time>
      </trkpt>
      <trkpt lat="47.5919430" lon="9.0681860">
        <ele>-68.2</ele>
        <time>2022-06-10T07:24:22Z</time>
      </trkpt>
      <trkpt lat="47.5919430" lon="9.0681860">
        <ele>-68.4</ele>
        <time>2022-06-10T07:24:26Z</time>
      </trkpt>
      <trkpt lat="47.5919430" lon="9.0681860">
        <ele>-68.4</ele>
        <time>2022-06-10T07:24:30Z</time>
      </trkpt>
      <trkpt lat="47.5919430" lon="9.0681860">
        <ele>-68.4</ele>
        <time>2022-06-10T07:24:34Z</time>
      </trkpt>
      <trkpt lat="47.5919430" lon="9.0681860">
        <ele>-68.4</ele>
        <time>2022-06-10T07:24:38Z</time>
      </trkpt>
      <trkpt lat="47.5919430" lon="9.0681860">
        <ele>-67.8</ele>
        <time>2022-06-10T07:24:42Z</time>
      </trkpt>
      <trkpt lat="47.5919430" lon="9.0681860">
        <ele>-68.2</ele>
        <time>2022-06-10T07:24:46Z</time>
      </trkpt>
      <trkpt lat="47.5919430" lon="9.0681860">
        <ele>-68.2</ele>
        <time>2022-06-10T07:24:50Z</time>
      </trkpt>
      <trkpt lat="47.5919430" lon="9.0681860">
        <ele>-68.6</ele>
        <time>2022-06-10T07:24:54Z</time>
      </trkpt>
      <trkpt lat="47.5919430" lon="9.0681860">
        <ele>-68.4</ele>
        <time>2022-06-10T07:24:58Z</time>
      </trkpt>
      <trkpt lat="47.5919430" lon="9.0681860">
        <ele>-68.2</ele>
        <time>2022-06-10T07:25:02Z</time>
      </trkpt>
      <trkpt lat="47.5919430" lon="9.0681860">
        <ele>-68.4</ele>
        <time>2022-06-10T07:25:06Z</time>
      </trkpt>
      <trkpt lat="47.5919430" lon="9.0681860">
        <ele>-68.6</ele>
        <time>2022-06-10T07:25:10Z</time>
      </trkpt>
      <trkpt lat="47.5919430" lon="9.0681860">
        <ele>-67.8</ele>
        <time>2022-06-10T07:25:14Z</time>
      </trkpt>
      <trkpt lat="47.5919430" lon="9.0681860">
        <ele>-68.0</ele>
        <time>2022-06-10T07:25:18Z</time>
      </trkpt>
      <trkpt lat="47.5919430" lon="9.0681860">
        <ele>-68.2</ele>
        <time>2022-06-10T07:25:22Z</time>
      </trkpt>
      <trkpt lat="47.5919430" lon="9.0681860">
        <ele>-68.2</ele>
        <time>2022-06-10T07:25:26Z</time>
      </trkpt>
      <trkpt lat="47.5919430" lon="9.0681860">
        <ele>-67.8</ele>
        <time>2022-06-10T07:25:30Z</time>
      </trkpt>
      <trkpt lat="47.5919430" lon="9.0681860">
        <ele>-68.2</ele>
        <time>2022-06-10T07:25:34Z</time>
      </trkpt>
      <trkpt lat="47.5919430" lon="9.0681860">
        <ele>-68.0</ele>
        <time>2022-06-10T07:25:38Z</time>
      </trkpt>
      <trkpt lat="47.5919430" lon="9.0681860">
        <ele>-68.4</ele>
        <time>2022-06-10T07:25:42Z</time>
      </trkpt>
      <trkpt lat="47.5919430" lon="9.0681860">
        <ele>-68.6</ele>
        <time>2022-06-10T07:25:46Z</time>
      </trkpt>
      <trkpt lat="47.5919430" lon="9.0681860">
        <ele>-68.4</ele>
        <time>2022-06-10T07:25:50Z</time>
      </trkpt>
      <trkpt lat="47.5918410" lon="9.0680050">
        <ele>-68.4</ele>
        <time>2022-06-10T07:25:54Z</time>
      </trkpt>
      <trkpt lat="47.5918430" lon="9.0680060">
        <ele>-68.2</ele>
        <time>2022-06-10T07:25:58Z</time>
      </trkpt>
      <trkpt lat="47.5918960" lon="9.0680450">
        <ele>-68.6</ele>
        <time>2022-06-10T07:26:02Z</time>
      </trkpt>
      <trkpt lat="47.5919460" lon="9.0680300">
        <ele>-68.6</ele>
        <time>2022-06-10T07:26:06Z</time>
      </trkpt>
      <trkpt lat="47.5919960" lon="9.0679710">
        <ele>-68.8</ele>
        <time>2022-06-10T07:26:10Z</time>
      </trkpt>
      <trkpt lat="47.5920150" lon="9.0679080">
        <ele>-68.6</ele>
        <time>2022-06-10T07:26:14Z</time>
      </trkpt>
      <trkpt lat="47.5920200" lon="9.0678530">
        <ele>-68.8</ele>
        <time>2022-06-10T07:26:18Z</time>
      </trkpt>
      <trkpt lat="47.5920200" lon="9.0678530">
        <ele>-68.8</ele>
        <time>2022-06-10T07:26:22Z</time>
      </trkpt>
      <trkpt lat="47.5920200" lon="9.0678530">
        <ele>-68.2</ele>
        <time>2022-06-10T07:26:26Z</time>
      </trkpt>
      <trkpt lat="47.5920200" lon="9.0678530">
        <ele>-68.4</ele>
        <time>2022-06-10T07:26:30Z</time>
      </trkpt>
      <trkpt lat="47.5920200" lon="9.0678530">
        <ele>-68.4</ele>
        <time>2022-06-10T07:26:34Z</time>
      </trkpt>
      <trkpt lat="47.5920200" lon="9.0678530">
        <ele>-68.8</ele>
        <time>2022-06-10T07:26:38Z</time>
      </trkpt>
      <trkpt lat="47.5920200" lon="9.0678530">
        <ele>-69.0</ele>
        <time>2022-06-10T07:26:42Z</time>
      </trkpt>
      <trkpt lat="47.5920200" lon="9.0678530">
        <ele>-68.6</ele>
        <time>2022-06-10T07:26:46Z</time>
      </trkpt>
      <trkpt lat="47.5920200" lon="9.0678530">
        <ele>-68.6</ele>
        <time>2022-06-10T07:26:50Z</time>
      </trkpt>
      <trkpt lat="47.5920200" lon="9.0678530">
        <ele>-68.8</ele>
        <time>2022-06-10T07:26:54Z</time>
      </trkpt>
      <trkpt lat="47.5920200" lon="9.0678530">
        <ele>-68.4</ele>
        <time>2022-06-10T07:26:58Z</time>
      </trkpt>
      <trkpt lat="47.5920200" lon="9.0678530">
        <ele>-68.8</ele>
        <time>2022-06-10T07:27:02Z</time>
      </trkpt>
      <trkpt lat="47.5920200" lon="9.0678530">
        <ele>-68.8</ele>
        <time>2022-06-10T07:27:06Z</time>
      </trkpt>
      <trkpt lat="47.5920200" lon="9.0678530">
        <ele>-68.6</ele>
        <time>2022-06-10T07:27:10Z</time>
      </trkpt>
      <trkpt lat="47.5920200" lon="9.0678530">
        <ele>-68.6</ele>
        <time>2022-06-10T07:27:14Z</time>
      </trkpt>
      <trkpt lat="47.5920200" lon="9.0678530">
        <ele>-68.4</ele>
        <time>2022-06-10T07:27:18Z</time>
      </trkpt>
      <trkpt lat="47.5920200" lon="9.0678530">
        <ele>-67.8</ele>
        <time>2022-06-10T07:27:22Z</time>
      </trkpt>
      <trkpt lat="47.5920200" lon="9.0678530">
        <ele>-68.2</ele>
        <time>2022-06-10T07:27:26Z</time>
      </trkpt>
      <trkpt lat="47.5920200" lon="9.0678530">
        <ele>-68.2</ele>
        <time>2022-06-10T07:27:30Z</time>
      </trkpt>
      <trkpt lat="47.5920200" lon="9.0678530">
        <ele>-68.4</ele>
        <time>2022-06-10T07:27:34Z</time>
      </trkpt>
      <trkpt lat="47.5920200" lon="9.0678530">
        <ele>-68.4</ele>
        <time>2022-06-10T07:27:38Z</time>
      </trkpt>
      <trkpt lat="47.5920200" lon="9.0678530">
        <ele>-68.4</ele>
        <time>2022-06-10T07:27:42Z</time>
      </trkpt>
      <trkpt lat="47.5920200" lon="9.0678530">
        <ele>-68.4</ele>
        <time>2022-06-10T07:27:46Z</time>
      </trkpt>
      <trkpt lat="47.5920200" lon="9.0678530">
        <ele>-68.2</ele>
        <time>2022-06-10T07:27:50Z</time>
      </trkpt>
      <trkpt lat="47.5920200" lon="9.0678530">
        <ele>-68.2</ele>
        <time>2022-06-10T07:27:54Z</time>
      </trkpt>
      <trkpt lat="47.5920200" lon="9.0678530">
        <ele>-68.2</ele>
        <time>2022-06-10T07:27:58Z</time>
      </trkpt>
      <trkpt lat="47.5920200" lon="9.0678530">
        <ele>-68.4</ele>
        <time>2022-06-10T07:28:02Z</time>
      </trkpt>
      <trkpt lat="47.5920200" lon="9.0678530">
        <ele>-67.8</ele>
        <time>2022-06-10T07:28:06Z</time>
      </trkpt>
      <trkpt lat="47.5920200" lon="9.0678530">
        <ele>-68.2</ele>
        <time>2022-06-10T07:28:10Z</time>
      </trkpt>
      <trkpt lat="47.5920200" lon="9.0678530">
        <ele>-68.2</ele>
        <time>2022-06-10T07:28:14Z</time>
      </trkpt>
      <trkpt lat="47.5920200" lon="9.0678530">
        <ele>-68.0</ele>
        <time>2022-06-10T07:28:18Z</time>
      </trkpt>
      <trkpt lat="47.5920200" lon="9.0678530">
        <ele>-68.6</ele>
        <time>2022-06-10T07:28:22Z</time>
      </trkpt>
      <trkpt lat="47.5920200" lon="9.0678530">
        <ele>-68.2</ele>
        <time>2022-06-10T07:28:26Z</time>
      </trkpt>
      <trkpt lat="47.5920200" lon="9.0678530">
        <ele>-67.8</ele>
        <time>2022-06-10T07:28:30Z</time>
      </trkpt>
      <trkpt lat="47.5920200" lon="9.0678530">
        <ele>-68.0</ele>
        <time>2022-06-10T07:28:34Z</time>
      </trkpt>
      <trkpt lat="47.5920200" lon="9.0678530">
        <ele>-67.6</ele>
        <time>2022-06-10T07:28:38Z</time>
      </trkpt>
      <trkpt lat="47.5920200" lon="9.0678530">
        <ele>-67.4</ele>
        <time>2022-06-10T07:28:42Z</time>
      </trkpt>
      <trkpt lat="47.5920200" lon="9.0678530">
        <ele>-67.8</ele>
        <time>2022-06-10T07:28:46Z</time>
      </trkpt>
      <trkpt lat="47.5920200" lon="9.0678530">
        <ele>-67.8</ele>
        <time>2022-06-10T07:28:50Z</time>
      </trkpt>
      <trkpt lat="47.5920200" lon="9.0678530">
        <ele>-67.6</ele>
        <time>2022-06-10T07:28:54Z</time>
      </trkpt>
      <trkpt lat="47.5920200" lon="9.0678530">
        <ele>-67.6</ele>
        <time>2022-06-10T07:28:58Z</time>
      </trkpt>
      <trkpt lat="47.5920200" lon="9.0678530">
        <ele>-67.8</ele>
        <time>2022-06-10T07:29:02Z</time>
      </trkpt>
      <trkpt lat="47.5920200" lon="9.0678530">
        <ele>-68.2</ele>
        <time>2022-06-10T07:29:06Z</time>
      </trkpt>
      <trkpt lat="47.5920200" lon="9.0678530">
        <ele>-67.8</ele>
        <time>2022-06-10T07:29:10Z</time>
      </trkpt>
      <trkpt lat="47.5920200" lon="9.0678530">
        <ele>-67.6</ele>
        <time>2022-06-10T07:29:14Z</time>
      </trkpt>
      <trkpt lat="47.5920200" lon="9.0678530">
        <ele>-67.6</ele>
        <time>2022-06-10T07:29:18Z</time>
      </trkpt>
      <trkpt lat="47.5920200" lon="9.0678530">
        <ele>-67.6</ele>
        <time>2022-06-10T07:29:22Z</time>
      </trkpt>
      <trkpt lat="47.5920200" lon="9.0678530">
        <ele>-67.6</ele>
        <time>2022-06-10T07:29:26Z</time>
      </trkpt>
      <trkpt lat="47.5920200" lon="9.0678530">
        <ele>-67.4</ele>
        <time>2022-06-10T07:29:30Z</time>
      </trkpt>
      <trkpt lat="47.5920200" lon="9.0678530">
        <ele>-67.6</ele>
        <time>2022-06-10T07:29:34Z</time>
      </trkpt>
      <trkpt lat="47.5920200" lon="9.0678530">
        <ele>-67.4</ele>
        <time>2022-06-10T07:29:38Z</time>
      </trkpt>
      <trkpt lat="47.5920200" lon="9.0678530">
        <ele>-67.4</ele>
        <time>2022-06-10T07:29:42Z</time>
      </trkpt>
      <trkpt lat="47.5920200" lon="9.0678530">
        <ele>-67.6</ele>
        <time>2022-06-10T07:29:46Z</time>
      </trkpt>
      <trkpt lat="47.5920200" lon="9.0678530">
        <ele>-67.6</ele>
        <time>2022-06-10T07:29:50Z</time>
      </trkpt>
      <trkpt lat="47.5920200" lon="9.0678530">
        <ele>-67.4</ele>
        <time>2022-06-10T07:29:54Z</time>
      </trkpt>
      <trkpt lat="47.5920200" lon="9.0678530">
        <ele>-67.4</ele>
        <time>2022-06-10T07:29:58Z</time>
      </trkpt>
      <trkpt lat="47.5920200" lon="9.0678530">
        <ele>-67.6</ele>
        <time>2022-06-10T07:30:02Z</time>
      </trkpt>
      <trkpt lat="47.5920200" lon="9.0678530">
        <ele>-67.4</ele>
        <time>2022-06-10T07:30:06Z</time>
      </trkpt>
      <trkpt lat="47.5920200" lon="9.0678530">
        <ele>-67.4</ele>
        <time>2022-06-10T07:30:10Z</time>
      </trkpt>
      <trkpt lat="47.5920200" lon="9.0678530">
        <ele>-67.6</ele>
        <time>2022-06-10T07:30:14Z</time>
      </trkpt>
      <trkpt lat="47.5920200" lon="9.0678530">
        <ele>-67.4</ele>
        <time>2022-06-10T07:30:18Z</time>
      </trkpt>
      <trkpt lat="47.5920200" lon="9.0678530">
        <ele>-67.0</ele>
        <time>2022-06-10T07:30:22Z</time>
      </trkpt>
      <trkpt lat="47.5920200" lon="9.0678530">
        <ele>-67.0</ele>
        <time>2022-06-10T07:30:26Z</time>
      </trkpt>
      <trkpt lat="47.5920200" lon="9.0678530">
        <ele>-67.4</ele>
        <time>2022-06-10T07:30:30Z</time>
      </trkpt>
      <trkpt lat="47.5920200" lon="9.0678530">
        <ele>-67.2</ele>
        <time>2022-06-10T07:30:34Z</time>
      </trkpt>
      <trkpt lat="47.5920200" lon="9.0678530">
        <ele>-67.2</ele>
        <time>2022-06-10T07:30:38Z</time>
      </trkpt>
      <trkpt lat="47.5920200" lon="9.0678530">
        <ele>-67.0</ele>
        <time>2022-06-10T07:30:42Z</time>
      </trkpt>
      <trkpt lat="47.5920200" lon="9.0678530">
        <ele>-67.2</ele>
        <time>2022-06-10T07:30:46Z</time>
      </trkpt>
      <trkpt lat="47.5920200" lon="9.0678530">
        <ele>-66.8</ele>
        <time>2022-06-10T07:30:50Z</time>
      </trkpt>
      <trkpt lat="47.5920200" lon="9.0678530">
        <ele>-67.0</ele>
        <time>2022-06-10T07:30:54Z</time>
      </trkpt>
      <trkpt lat="47.5920200" lon="9.0678530">
        <ele>-67.0</ele>
        <time>2022-06-10T07:30:58Z</time>
      </trkpt>
      <trkpt lat="47.5920200" lon="9.0678530">
        <ele>-67.0</ele>
        <time>2022-06-10T07:31:02Z</time>
      </trkpt>
      <trkpt lat="47.5920200" lon="9.0678530">
        <ele>-67.2</ele>
        <time>2022-06-10T07:31:06Z</time>
      </trkpt>
      <trkpt lat="47.5920200" lon="9.0678530">
        <ele>-67.0</ele>
        <time>2022-06-10T07:31:10Z</time>
      </trkpt>
      <trkpt lat="47.5920200" lon="9.0678530">
        <ele>-67.0</ele>
        <time>2022-06-10T07:31:14Z</time>
      </trkpt>
      <trkpt lat="47.5920200" lon="9.0678530">
        <ele>-67.0</ele>
        <time>2022-06-10T07:31:18Z</time>
      </trkpt>
      <trkpt lat="47.5920200" lon="9.0678530">
        <ele>-66.8</ele>
        <time>2022-06-10T07:31:22Z</time>
      </trkpt>
      <trkpt lat="47.5920200" lon="9.0678530">
        <ele>-67.0</ele>
        <time>2022-06-10T07:31:26Z</time>
      </trkpt>
      <trkpt lat="47.5920200" lon="9.0678530">
        <ele>-67.2</ele>
        <time>2022-06-10T07:31:30Z</time>
      </trkpt>
      <trkpt lat="47.5920200" lon="9.0678530">
        <ele>-67.0</ele>
        <time>2022-06-10T07:31:34Z</time>
      </trkpt>
      <trkpt lat="47.5920200" lon="9.0678530">
        <ele>-67.4</ele>
        <time>2022-06-10T07:31:38Z</time>
      </trkpt>
      <trkpt lat="47.5920200" lon="9.0678530">
        <ele>-67.6</ele>
        <time>2022-06-10T07:31:42Z</time>
      </trkpt>
      <trkpt lat="47.5920200" lon="9.0678530">
        <ele>-66.6</ele>
        <time>2022-06-10T07:31:46Z</time>
      </trkpt>
      <trkpt lat="47.5920200" lon="9.0678530">
        <ele>-67.0</ele>
        <time>2022-06-10T07:31:50Z</time>
      </trkpt>
      <trkpt lat="47.5920200" lon="9.0678530">
        <ele>-67.4</ele>
        <time>2022-06-10T07:31:54Z</time>
      </trkpt>
      <trkpt lat="47.5920200" lon="9.0678530">
        <ele>-67.2</ele>
        <time>2022-06-10T07:31:58Z</time>
      </trkpt>
      <trkpt lat="47.5920200" lon="9.0678530">
        <ele>-67.0</ele>
        <time>2022-06-10T07:32:02Z</time>
      </trkpt>
      <trkpt lat="47.5920200" lon="9.0678530">
        <ele>-66.8</ele>
        <time>2022-06-10T07:32:06Z</time>
      </trkpt>
      <trkpt lat="47.5920200" lon="9.0678530">
        <ele>-67.0</ele>
        <time>2022-06-10T07:32:10Z</time>
      </trkpt>
      <trkpt lat="47.5920200" lon="9.0678530">
        <ele>-67.0</ele>
        <time>2022-06-10T07:32:14Z</time>
      </trkpt>
      <trkpt lat="47.5920200" lon="9.0678530">
        <ele>-66.4</ele>
        <time>2022-06-10T07:32:18Z</time>
      </trkpt>
      <trkpt lat="47.5920200" lon="9.0678530">
        <ele>-66.2</ele>
        <time>2022-06-10T07:32:22Z</time>
      </trkpt>
      <trkpt lat="47.5920200" lon="9.0678530">
        <ele>-66.2</ele>
        <time>2022-06-10T07:32:26Z</time>
      </trkpt>
      <trkpt lat="47.5920200" lon="9.0678530">
        <ele>-66.4</ele>
        <time>2022-06-10T07:32:30Z</time>
      </trkpt>
      <trkpt lat="47.5920200" lon="9.0678530">
        <ele>-66.8</ele>
        <time>2022-06-10T07:32:34Z</time>
      </trkpt>
      <trkpt lat="47.5920200" lon="9.0678530">
        <ele>-66.4</ele>
        <time>2022-06-10T07:32:38Z</time>
      </trkpt>
      <trkpt lat="47.5920200" lon="9.0678530">
        <ele>-67.0</ele>
        <time>2022-06-10T07:32:42Z</time>
      </trkpt>
      <trkpt lat="47.5920200" lon="9.0678530">
        <ele>-67.0</ele>
        <time>2022-06-10T07:32:46Z</time>
      </trkpt>
      <trkpt lat="47.5920200" lon="9.0678530">
        <ele>-67.0</ele>
        <time>2022-06-10T07:32:50Z</time>
      </trkpt>
      <trkpt lat="47.5920200" lon="9.0678530">
        <ele>-66.6</ele>
        <time>2022-06-10T07:32:54Z</time>
      </trkpt>
      <trkpt lat="47.5920200" lon="9.0678530">
        <ele>-67.2</ele>
        <time>2022-06-10T07:32:58Z</time>
      </trkpt>
      <trkpt lat="47.5920200" lon="9.0678530">
        <ele>-66.4</ele>
        <time>2022-06-10T07:33:02Z</time>
      </trkpt>
      <trkpt lat="47.5920200" lon="9.0678530">
        <ele>-67.0</ele>
        <time>2022-06-10T07:33:06Z</time>
      </trkpt>
      <trkpt lat="47.5920200" lon="9.0678530">
        <ele>-67.0</ele>
        <time>2022-06-10T07:33:10Z</time>
      </trkpt>
      <trkpt lat="47.5920200" lon="9.0678530">
        <ele>-67.0</ele>
        <time>2022-06-10T07:33:14Z</time>
      </trkpt>
      <trkpt lat="47.5920200" lon="9.0678530">
        <ele>-67.0</ele>
        <time>2022-06-10T07:33:18Z</time>
      </trkpt>
      <trkpt lat="47.5920200" lon="9.0678530">
        <ele>-67.0</ele>
        <time>2022-06-10T07:33:22Z</time>
      </trkpt>
      <trkpt lat="47.5920200" lon="9.0678530">
        <ele>-67.0</ele>
        <time>2022-06-10T07:33:26Z</time>
      </trkpt>
      <trkpt lat="47.5920200" lon="9.0678530">
        <ele>-66.8</ele>
        <time>2022-06-10T07:33:30Z</time>
      </trkpt>
      <trkpt lat="47.5920200" lon="9.0678530">
        <ele>-67.0</ele>
        <time>2022-06-10T07:33:34Z</time>
      </trkpt>
      <trkpt lat="47.5920200" lon="9.0678530">
        <ele>-66.6</ele>
        <time>2022-06-10T07:33:38Z</time>
      </trkpt>
      <trkpt lat="47.5920200" lon="9.0678530">
        <ele>-66.6</ele>
        <time>2022-06-10T07:33:42Z</time>
      </trkpt>
      <trkpt lat="47.5920200" lon="9.0678530">
        <ele>-66.8</ele>
        <time>2022-06-10T07:33:46Z</time>
      </trkpt>
      <trkpt lat="47.5920200" lon="9.0678530">
        <ele>-66.8</ele>
        <time>2022-06-10T07:33:50Z</time>
      </trkpt>
      <trkpt lat="47.5920200" lon="9.0678530">
        <ele>-66.8</ele>
        <time>2022-06-10T07:33:54Z</time>
      </trkpt>
      <trkpt lat="47.5920200" lon="9.0678530">
        <ele>-67.0</ele>
        <time>2022-06-10T07:33:58Z</time>
      </trkpt>
      <trkpt lat="47.5920200" lon="9.0678530">
        <ele>-67.0</ele>
        <time>2022-06-10T07:34:02Z</time>
      </trkpt>
      <trkpt lat="47.5920200" lon="9.0678530">
        <ele>-67.0</ele>
        <time>2022-06-10T07:34:06Z</time>
      </trkpt>
      <trkpt lat="47.5920200" lon="9.0678530">
        <ele>-66.6</ele>
        <time>2022-06-10T07:34:10Z</time>
      </trkpt>
      <trkpt lat="47.5920200" lon="9.0678530">
        <ele>-66.8</ele>
        <time>2022-06-10T07:34:14Z</time>
      </trkpt>
      <trkpt lat="47.5920200" lon="9.0678530">
        <ele>-66.4</ele>
        <time>2022-06-10T07:34:18Z</time>
      </trkpt>
      <trkpt lat="47.5920200" lon="9.0678530">
        <ele>-66.4</ele>
        <time>2022-06-10T07:34:22Z</time>
      </trkpt>
      <trkpt lat="47.5920200" lon="9.0678530">
        <ele>-66.8</ele>
        <time>2022-06-10T07:34:26Z</time>
      </trkpt>
      <trkpt lat="47.5920200" lon="9.0678530">
        <ele>-67.0</ele>
        <time>2022-06-10T07:34:30Z</time>
      </trkpt>
      <trkpt lat="47.5920200" lon="9.0678530">
        <ele>-66.8</ele>
        <time>2022-06-10T07:34:34Z</time>
      </trkpt>
      <trkpt lat="47.5920200" lon="9.0678530">
        <ele>-67.0</ele>
        <time>2022-06-10T07:34:38Z</time>
      </trkpt>
      <trkpt lat="47.5920200" lon="9.0678530">
        <ele>-66.0</ele>
        <time>2022-06-10T07:34:42Z</time>
      </trkpt>
      <trkpt lat="47.5920200" lon="9.0678530">
        <ele>-67.0</ele>
        <time>2022-06-10T07:34:46Z</time>
      </trkpt>
      <trkpt lat="47.5920200" lon="9.0678530">
        <ele>-66.4</ele>
        <time>2022-06-10T07:34:50Z</time>
      </trkpt>
      <trkpt lat="47.5920200" lon="9.0678530">
        <ele>-66.6</ele>
        <time>2022-06-10T07:34:54Z</time>
      </trkpt>
      <trkpt lat="47.5920200" lon="9.0678530">
        <ele>-66.4</ele>
        <time>2022-06-10T07:34:58Z</time>
      </trkpt>
      <trkpt lat="47.5920200" lon="9.0678530">
        <ele>-66.2</ele>
        <time>2022-06-10T07:35:02Z</time>
      </trkpt>
      <trkpt lat="47.5920200" lon="9.0678530">
        <ele>-66.6</ele>
        <time>2022-06-10T07:35:06Z</time>
      </trkpt>
      <trkpt lat="47.5920200" lon="9.0678530">
        <ele>-66.8</ele>
        <time>2022-06-10T07:35:10Z</time>
      </trkpt>
      <trkpt lat="47.5920200" lon="9.0678530">
        <ele>-66.4</ele>
        <time>2022-06-10T07:35:14Z</time>
      </trkpt>
      <trkpt lat="47.5920200" lon="9.0678530">
        <ele>-66.4</ele>
        <time>2022-06-10T07:35:18Z</time>
      </trkpt>
      <trkpt lat="47.5920200" lon="9.0678530">
        <ele>-66.4</ele>
        <time>2022-06-10T07:35:22Z</time>
      </trkpt>
      <trkpt lat="47.5920200" lon="9.0678530">
        <ele>-66.8</ele>
        <time>2022-06-10T07:35:26Z</time>
      </trkpt>
      <trkpt lat="47.5920200" lon="9.0678530">
        <ele>-66.4</ele>
        <time>2022-06-10T07:35:30Z</time>
      </trkpt>
      <trkpt lat="47.5920200" lon="9.0678530">
        <ele>-66.8</ele>
        <time>2022-06-10T07:35:34Z</time>
      </trkpt>
      <trkpt lat="47.5920200" lon="9.0678530">
        <ele>-66.4</ele>
        <time>2022-06-10T07:35:38Z</time>
      </trkpt>
      <trkpt lat="47.5920200" lon="9.0678530">
        <ele>-66.2</ele>
        <time>2022-06-10T07:35:42Z</time>
      </trkpt>
      <trkpt lat="47.5920200" lon="9.0678530">
        <ele>-66.4</ele>
        <time>2022-06-10T07:35:46Z</time>
      </trkpt>
      <trkpt lat="47.5920200" lon="9.0678530">
        <ele>-66.4</ele>
        <time>2022-06-10T07:35:50Z</time>
      </trkpt>
      <trkpt lat="47.5920200" lon="9.0678530">
        <ele>-66.4</ele>
        <time>2022-06-10T07:35:54Z</time>
      </trkpt>
      <trkpt lat="47.5920200" lon="9.0678530">
        <ele>-66.4</ele>
        <time>2022-06-10T07:35:58Z</time>
      </trkpt>
      <trkpt lat="47.5920200" lon="9.0678530">
        <ele>-66.2</ele>
        <time>2022-06-10T07:36:02Z</time>
      </trkpt>
      <trkpt lat="47.5920200" lon="9.0678530">
        <ele>-66.8</ele>
        <time>2022-06-10T07:36:06Z</time>
      </trkpt>
      <trkpt lat="47.5920200" lon="9.0678530">
        <ele>-66.4</ele>
        <time>2022-06-10T07:36:10Z</time>
      </trkpt>
      <trkpt lat="47.5920200" lon="9.0678530">
        <ele>-66.2</ele>
        <time>2022-06-10T07:36:14Z</time>
      </trkpt>
      <trkpt lat="47.5920200" lon="9.0678530">
        <ele>-66.2</ele>
        <time>2022-06-10T07:36:18Z</time>
      </trkpt>
      <trkpt lat="47.5920200" lon="9.0678530">
        <ele>-65.8</ele>
        <time>2022-06-10T07:36:22Z</time>
      </trkpt>
      <trkpt lat="47.5920200" lon="9.0678530">
        <ele>-65.8</ele>
        <time>2022-06-10T07:36:26Z</time>
      </trkpt>
      <trkpt lat="47.5920200" lon="9.0678530">
        <ele>-65.8</ele>
        <time>2022-06-10T07:36:30Z</time>
      </trkpt>
      <trkpt lat="47.5920200" lon="9.0678530">
        <ele>-65.8</ele>
        <time>2022-06-10T07:36:34Z</time>
      </trkpt>
      <trkpt lat="47.5920200" lon="9.0678530">
        <ele>-65.6</ele>
        <time>2022-06-10T07:36:38Z</time>
      </trkpt>
      <trkpt lat="47.5920200" lon="9.0678530">
        <ele>-66.0</ele>
        <time>2022-06-10T07:36:42Z</time>
      </trkpt>
      <trkpt lat="47.5920200" lon="9.0678530">
        <ele>-65.8</ele>
        <time>2022-06-10T07:36:46Z</time>
      </trkpt>
      <trkpt lat="47.5920200" lon="9.0678530">
        <ele>-66.0</ele>
        <time>2022-06-10T07:36:50Z</time>
      </trkpt>
      <trkpt lat="47.5920200" lon="9.0678530">
        <ele>-66.0</ele>
        <time>2022-06-10T07:36:54Z</time>
      </trkpt>
      <trkpt lat="47.5920200" lon="9.0678530">
        <ele>-65.8</ele>
        <time>2022-06-10T07:36:58Z</time>
      </trkpt>
      <trkpt lat="47.5920200" lon="9.0678530">
        <ele>-66.2</ele>
        <time>2022-06-10T07:37:02Z</time>
      </trkpt>
      <trkpt lat="47.5920200" lon="9.0678530">
        <ele>-65.8</ele>
        <time>2022-06-10T07:37:06Z</time>
      </trkpt>
      <trkpt lat="47.5920200" lon="9.0678530">
        <ele>-66.0</ele>
        <time>2022-06-10T07:37:10Z</time>
      </trkpt>
      <trkpt lat="47.5920200" lon="9.0678530">
        <ele>-66.4</ele>
        <time>2022-06-10T07:37:14Z</time>
      </trkpt>
      <trkpt lat="47.5920200" lon="9.0678530">
        <ele>-66.0</ele>
        <time>2022-06-10T07:37:18Z</time>
      </trkpt>
      <trkpt lat="47.5920200" lon="9.0678530">
        <ele>-66.2</ele>
        <time>2022-06-10T07:37:22Z</time>
      </trkpt>
      <trkpt lat="47.5920200" lon="9.0678530">
        <ele>-65.8</ele>
        <time>2022-06-10T07:37:26Z</time>
      </trkpt>
      <trkpt lat="47.5920200" lon="9.0678530">
        <ele>-65.8</ele>
        <time>2022-06-10T07:37:30Z</time>
      </trkpt>
      <trkpt lat="47.5920200" lon="9.0678530">
        <ele>-66.2</ele>
        <time>2022-06-10T07:37:34Z</time>
      </trkpt>
      <trkpt lat="47.5920200" lon="9.0678530">
        <ele>-66.0</ele>
        <time>2022-06-10T07:37:38Z</time>
      </trkpt>
      <trkpt lat="47.5920200" lon="9.0678530">
        <ele>-66.4</ele>
        <time>2022-06-10T07:37:42Z</time>
      </trkpt>
      <trkpt lat="47.5920200" lon="9.0678530">
        <ele>-66.2</ele>
        <time>2022-06-10T07:37:46Z</time>
      </trkpt>
      <trkpt lat="47.5920200" lon="9.0678530">
        <ele>-66.4</ele>
        <time>2022-06-10T07:37:50Z</time>
      </trkpt>
      <trkpt lat="47.5920200" lon="9.0678530">
        <ele>-66.2</ele>
        <time>2022-06-10T07:37:54Z</time>
      </trkpt>
      <trkpt lat="47.5920200" lon="9.0678530">
        <ele>-66.0</ele>
        <time>2022-06-10T07:37:58Z</time>
      </trkpt>
      <trkpt lat="47.5920200" lon="9.0678530">
        <ele>-66.2</ele>
        <time>2022-06-10T07:38:02Z</time>
      </trkpt>
      <trkpt lat="47.5920200" lon="9.0678530">
        <ele>-66.0</ele>
        <time>2022-06-10T07:38:06Z</time>
      </trkpt>
      <trkpt lat="47.5920200" lon="9.0678530">
        <ele>-65.8</ele>
        <time>2022-06-10T07:38:10Z</time>
      </trkpt>
      <trkpt lat="47.5920200" lon="9.0678530">
        <ele>-65.8</ele>
        <time>2022-06-10T07:38:14Z</time>
      </trkpt>
      <trkpt lat="47.5920200" lon="9.0678530">
        <ele>-66.2</ele>
        <time>2022-06-10T07:38:18Z</time>
      </trkpt>
      <trkpt lat="47.5920200" lon="9.0678530">
        <ele>-65.8</ele>
        <time>2022-06-10T07:38:22Z</time>
      </trkpt>
      <trkpt lat="47.5920200" lon="9.0678530">
        <ele>-66.2</ele>
        <time>2022-06-10T07:38:26Z</time>
      </trkpt>
      <trkpt lat="47.5920200" lon="9.0678530">
        <ele>-66.2</ele>
        <time>2022-06-10T07:38:30Z</time>
      </trkpt>
      <trkpt lat="47.5920200" lon="9.0678530">
        <ele>-66.0</ele>
        <time>2022-06-10T07:38:34Z</time>
      </trkpt>
      <trkpt lat="47.5920200" lon="9.0678530">
        <ele>-65.8</ele>
        <time>2022-06-10T07:38:38Z</time>
      </trkpt>
      <trkpt lat="47.5920200" lon="9.0678530">
        <ele>-66.0</ele>
        <time>2022-06-10T07:38:42Z</time>
      </trkpt>
      <trkpt lat="47.5920200" lon="9.0678530">
        <ele>-66.2</ele>
        <time>2022-06-10T07:38:46Z</time>
      </trkpt>
      <trkpt lat="47.5920200" lon="9.0678530">
        <ele>-66.2</ele>
        <time>2022-06-10T07:38:50Z</time>
      </trkpt>
      <trkpt lat="47.5920200" lon="9.0678530">
        <ele>-65.8</ele>
        <time>2022-06-10T07:38:54Z</time>
      </trkpt>
      <trkpt lat="47.5920200" lon="9.0678530">
        <ele>-65.8</ele>
        <time>2022-06-10T07:38:58Z</time>
      </trkpt>
      <trkpt lat="47.5920200" lon="9.0678530">
        <ele>-65.8</ele>
        <time>2022-06-10T07:39:02Z</time>
      </trkpt>
      <trkpt lat="47.5920200" lon="9.0678530">
        <ele>-66.2</ele>
        <time>2022-06-10T07:39:06Z</time>
      </trkpt>
      <trkpt lat="47.5920200" lon="9.0678530">
        <ele>-66.2</ele>
        <time>2022-06-10T07:39:10Z</time>
      </trkpt>
      <trkpt lat="47.5920200" lon="9.0678530">
        <ele>-66.0</ele>
        <time>2022-06-10T07:39:14Z</time>
      </trkpt>
      <trkpt lat="47.5920200" lon="9.0678530">
        <ele>-66.0</ele>
        <time>2022-06-10T07:39:18Z</time>
      </trkpt>
      <trkpt lat="47.5920200" lon="9.0678530">
        <ele>-65.8</ele>
        <time>2022-06-10T07:39:22Z</time>
      </trkpt>
      <trkpt lat="47.5920200" lon="9.0678530">
        <ele>-65.8</ele>
        <time>2022-06-10T07:39:26Z</time>
      </trkpt>
      <trkpt lat="47.5920200" lon="9.0678530">
        <ele>-65.8</ele>
        <time>2022-06-10T07:39:30Z</time>
      </trkpt>
      <trkpt lat="47.5920200" lon="9.0678530">
        <ele>-66.2</ele>
        <time>2022-06-10T07:39:34Z</time>
      </trkpt>
      <trkpt lat="47.5920200" lon="9.0678530">
        <ele>-65.8</ele>
        <time>2022-06-10T07:39:38Z</time>
      </trkpt>
      <trkpt lat="47.5920200" lon="9.0678530">
        <ele>-65.8</ele>
        <time>2022-06-10T07:39:42Z</time>
      </trkpt>
      <trkpt lat="47.5920200" lon="9.0678530">
        <ele>-66.0</ele>
        <time>2022-06-10T07:39:46Z</time>
      </trkpt>
      <trkpt lat="47.5920200" lon="9.0678530">
        <ele>-65.8</ele>
        <time>2022-06-10T07:39:50Z</time>
      </trkpt>
      <trkpt lat="47.5920200" lon="9.0678530">
        <ele>-66.0</ele>
        <time>2022-06-10T07:39:54Z</time>
      </trkpt>
      <trkpt lat="47.5920200" lon="9.0678530">
        <ele>-65.8</ele>
        <time>2022-06-10T07:39:58Z</time>
      </trkpt>
      <trkpt lat="47.5920200" lon="9.0678530">
        <ele>-65.8</ele>
        <time>2022-06-10T07:40:02Z</time>
      </trkpt>
      <trkpt lat="47.5920200" lon="9.0678530">
        <ele>-65.8</ele>
        <time>2022-06-10T07:40:06Z</time>
      </trkpt>
      <trkpt lat="47.5920200" lon="9.0678530">
        <ele>-66.0</ele>
        <time>2022-06-10T07:40:10Z</time>
      </trkpt>
      <trkpt lat="47.5920200" lon="9.0678530">
        <ele>-65.8</ele>
        <time>2022-06-10T07:40:14Z</time>
      </trkpt>
      <trkpt lat="47.5920200" lon="9.0678530">
        <ele>-65.8</ele>
        <time>2022-06-10T07:40:18Z</time>
      </trkpt>
      <trkpt lat="47.5920200" lon="9.0678530">
        <ele>-65.8</ele>
        <time>2022-06-10T07:40:22Z</time>
      </trkpt>
      <trkpt lat="47.5920200" lon="9.0678530">
        <ele>-66.0</ele>
        <time>2022-06-10T07:40:26Z</time>
      </trkpt>
      <trkpt lat="47.5920200" lon="9.0678530">
        <ele>-65.6</ele>
        <time>2022-06-10T07:40:30Z</time>
      </trkpt>
      <trkpt lat="47.5920200" lon="9.0678530">
        <ele>-65.6</ele>
        <time>2022-06-10T07:40:34Z</time>
      </trkpt>
      <trkpt lat="47.5920200" lon="9.0678530">
        <ele>-65.4</ele>
        <time>2022-06-10T07:40:38Z</time>
      </trkpt>
      <trkpt lat="47.5920200" lon="9.0678530">
        <ele>-65.8</ele>
        <time>2022-06-10T07:40:42Z</time>
      </trkpt>
      <trkpt lat="47.5920200" lon="9.0678530">
        <ele>-66.0</ele>
        <time>2022-06-10T07:40:46Z</time>
      </trkpt>
      <trkpt lat="47.5920200" lon="9.0678530">
        <ele>-65.8</ele>
        <time>2022-06-10T07:40:50Z</time>
      </trkpt>
      <trkpt lat="47.5920200" lon="9.0678530">
        <ele>-66.0</ele>
        <time>2022-06-10T07:40:54Z</time>
      </trkpt>
      <trkpt lat="47.5920200" lon="9.0678530">
        <ele>-65.8</ele>
        <time>2022-06-10T07:40:58Z</time>
      </trkpt>
      <trkpt lat="47.5920200" lon="9.0678530">
        <ele>-65.8</ele>
        <time>2022-06-10T07:41:02Z</time>
      </trkpt>
      <trkpt lat="47.5920200" lon="9.0678530">
        <ele>-65.8</ele>
        <time>2022-06-10T07:41:06Z</time>
      </trkpt>
      <trkpt lat="47.5920200" lon="9.0678530">
        <ele>-65.4</ele>
        <time>2022-06-10T07:41:10Z</time>
      </trkpt>
      <trkpt lat="47.5920200" lon="9.0678530">
        <ele>-66.2</ele>
        <time>2022-06-10T07:41:14Z</time>
      </trkpt>
      <trkpt lat="47.5920200" lon="9.0678530">
        <ele>-65.6</ele>
        <time>2022-06-10T07:41:18Z</time>
      </trkpt>
      <trkpt lat="47.5920200" lon="9.0678530">
        <ele>-65.8</ele>
        <time>2022-06-10T07:41:22Z</time>
      </trkpt>
      <trkpt lat="47.5920200" lon="9.0678530">
        <ele>-65.8</ele>
        <time>2022-06-10T07:41:26Z</time>
      </trkpt>
      <trkpt lat="47.5920200" lon="9.0678530">
        <ele>-65.6</ele>
        <time>2022-06-10T07:41:30Z</time>
      </trkpt>
      <trkpt lat="47.5920200" lon="9.0678530">
        <ele>-65.6</ele>
        <time>2022-06-10T07:41:34Z</time>
      </trkpt>
      <trkpt lat="47.5920200" lon="9.0678530">
        <ele>-65.6</ele>
        <time>2022-06-10T07:41:38Z</time>
      </trkpt>
      <trkpt lat="47.5920200" lon="9.0678530">
        <ele>-65.6</ele>
        <time>2022-06-10T07:41:42Z</time>
      </trkpt>
      <trkpt lat="47.5920200" lon="9.0678530">
        <ele>-65.6</ele>
        <time>2022-06-10T07:41:46Z</time>
      </trkpt>
      <trkpt lat="47.5920200" lon="9.0678530">
        <ele>-65.6</ele>
        <time>2022-06-10T07:41:50Z</time>
      </trkpt>
      <trkpt lat="47.5920200" lon="9.0678530">
        <ele>-65.8</ele>
        <time>2022-06-10T07:41:54Z</time>
      </trkpt>
      <trkpt lat="47.5920200" lon="9.0678530">
        <ele>-65.6</ele>
        <time>2022-06-10T07:41:58Z</time>
      </trkpt>
      <trkpt lat="47.5920200" lon="9.0678530">
        <ele>-65.4</ele>
        <time>2022-06-10T07:42:02Z</time>
      </trkpt>
      <trkpt lat="47.5920200" lon="9.0678530">
        <ele>-65.4</ele>
        <time>2022-06-10T07:42:06Z</time>
      </trkpt>
      <trkpt lat="47.5920200" lon="9.0678530">
        <ele>-65.0</ele>
        <time>2022-06-10T07:42:10Z</time>
      </trkpt>
      <trkpt lat="47.5920200" lon="9.0678530">
        <ele>-65.6</ele>
        <time>2022-06-10T07:42:14Z</time>
      </trkpt>
      <trkpt lat="47.5920200" lon="9.0678530">
        <ele>-65.4</ele>
        <time>2022-06-10T07:42:18Z</time>
      </trkpt>
      <trkpt lat="47.5920200" lon="9.0678530">
        <ele>-65.4</ele>
        <time>2022-06-10T07:42:22Z</time>
      </trkpt>
      <trkpt lat="47.5920200" lon="9.0678530">
        <ele>-65.4</ele>
        <time>2022-06-10T07:42:26Z</time>
      </trkpt>
      <trkpt lat="47.5920200" lon="9.0678530">
        <ele>-65.2</ele>
        <time>2022-06-10T07:42:30Z</time>
      </trkpt>
      <trkpt lat="47.5920200" lon="9.0678530">
        <ele>-65.6</ele>
        <time>2022-06-10T07:42:34Z</time>
      </trkpt>
      <trkpt lat="47.5920200" lon="9.0678530">
        <ele>-65.0</ele>
        <time>2022-06-10T07:42:38Z</time>
      </trkpt>
      <trkpt lat="47.5920200" lon="9.0678530">
        <ele>-65.0</ele>
        <time>2022-06-10T07:42:42Z</time>
      </trkpt>
      <trkpt lat="47.5920200" lon="9.0678530">
        <ele>-65.2</ele>
        <time>2022-06-10T07:42:46Z</time>
      </trkpt>
      <trkpt lat="47.5920200" lon="9.0678530">
        <ele>-65.2</ele>
        <time>2022-06-10T07:42:50Z</time>
      </trkpt>
      <trkpt lat="47.5920200" lon="9.0678530">
        <ele>-64.8</ele>
        <time>2022-06-10T07:42:54Z</time>
      </trkpt>
      <trkpt lat="47.5920200" lon="9.0678530">
        <ele>-65.2</ele>
        <time>2022-06-10T07:42:58Z</time>
      </trkpt>
      <trkpt lat="47.5920200" lon="9.0678530">
        <ele>-65.0</ele>
        <time>2022-06-10T07:43:02Z</time>
      </trkpt>
      <trkpt lat="47.5920200" lon="9.0678530">
        <ele>-65.0</ele>
        <time>2022-06-10T07:43:06Z</time>
      </trkpt>
      <trkpt lat="47.5920200" lon="9.0678530">
        <ele>-64.8</ele>
        <time>2022-06-10T07:43:10Z</time>
      </trkpt>
      <trkpt lat="47.5920200" lon="9.0678530">
        <ele>-65.0</ele>
        <time>2022-06-10T07:43:14Z</time>
      </trkpt>
      <trkpt lat="47.5920200" lon="9.0678530">
        <ele>-65.0</ele>
        <time>2022-06-10T07:43:18Z</time>
      </trkpt>
      <trkpt lat="47.5920200" lon="9.0678530">
        <ele>-65.0</ele>
        <time>2022-06-10T07:43:22Z</time>
      </trkpt>
      <trkpt lat="47.5920200" lon="9.0678530">
        <ele>-64.8</ele>
        <time>2022-06-10T07:43:26Z</time>
      </trkpt>
      <trkpt lat="47.5920200" lon="9.0678530">
        <ele>-65.0</ele>
        <time>2022-06-10T07:43:30Z</time>
      </trkpt>
      <trkpt lat="47.5920200" lon="9.0678530">
        <ele>-65.0</ele>
        <time>2022-06-10T07:43:34Z</time>
      </trkpt>
      <trkpt lat="47.5920200" lon="9.0678530">
        <ele>-65.0</ele>
        <time>2022-06-10T07:43:38Z</time>
      </trkpt>
      <trkpt lat="47.5920200" lon="9.0678530">
        <ele>-65.0</ele>
        <time>2022-06-10T07:43:42Z</time>
      </trkpt>
      <trkpt lat="47.5920200" lon="9.0678530">
        <ele>-65.0</ele>
        <time>2022-06-10T07:43:46Z</time>
      </trkpt>
      <trkpt lat="47.5920200" lon="9.0678530">
        <ele>-65.0</ele>
        <time>2022-06-10T07:43:50Z</time>
      </trkpt>
      <trkpt lat="47.5920200" lon="9.0678530">
        <ele>-65.4</ele>
        <time>2022-06-10T07:43:54Z</time>
      </trkpt>
      <trkpt lat="47.5920200" lon="9.0678530">
        <ele>-65.0</ele>
        <time>2022-06-10T07:43:58Z</time>
      </trkpt>
      <trkpt lat="47.5920200" lon="9.0678530">
        <ele>-64.8</ele>
        <time>2022-06-10T07:44:02Z</time>
      </trkpt>
      <trkpt lat="47.5920200" lon="9.0678530">
        <ele>-65.0</ele>
        <time>2022-06-10T07:44:06Z</time>
      </trkpt>
      <trkpt lat="47.5920200" lon="9.0678530">
        <ele>-65.4</ele>
        <time>2022-06-10T07:44:10Z</time>
      </trkpt>
      <trkpt lat="47.5920200" lon="9.0678530">
        <ele>-65.8</ele>
        <time>2022-06-10T07:44:14Z</time>
      </trkpt>
      <trkpt lat="47.5920200" lon="9.0678530">
        <ele>-65.6</ele>
        <time>2022-06-10T07:44:18Z</time>
      </trkpt>
      <trkpt lat="47.5920200" lon="9.0678530">
        <ele>-65.8</ele>
        <time>2022-06-10T07:44:22Z</time>
      </trkpt>
      <trkpt lat="47.5920200" lon="9.0678530">
        <ele>-65.2</ele>
        <time>2022-06-10T07:44:26Z</time>
      </trkpt>
      <trkpt lat="47.5920200" lon="9.0678530">
        <ele>-65.2</ele>
        <time>2022-06-10T07:44:30Z</time>
      </trkpt>
      <trkpt lat="47.5920200" lon="9.0678530">
        <ele>-65.2</ele>
        <time>2022-06-10T07:44:34Z</time>
      </trkpt>
      <trkpt lat="47.5920200" lon="9.0678530">
        <ele>-65.8</ele>
        <time>2022-06-10T07:44:38Z</time>
      </trkpt>
      <trkpt lat="47.5920200" lon="9.0678530">
        <ele>-65.2</ele>
        <time>2022-06-10T07:44:42Z</time>
      </trkpt>
      <trkpt lat="47.5920200" lon="9.0678530">
        <ele>-65.2</ele>
        <time>2022-06-10T07:44:46Z</time>
      </trkpt>
      <trkpt lat="47.5920200" lon="9.0678530">
        <ele>-65.2</ele>
        <time>2022-06-10T07:44:50Z</time>
      </trkpt>
      <trkpt lat="47.5920200" lon="9.0678530">
        <ele>-65.2</ele>
        <time>2022-06-10T07:44:54Z</time>
      </trkpt>
      <trkpt lat="47.5920200" lon="9.0678530">
        <ele>-65.2</ele>
        <time>2022-06-10T07:44:58Z</time>
      </trkpt>
      <trkpt lat="47.5920200" lon="9.0678530">
        <ele>-65.4</ele>
        <time>2022-06-10T07:45:02Z</time>
      </trkpt>
      <trkpt lat="47.5920200" lon="9.0678530">
        <ele>-65.4</ele>
        <time>2022-06-10T07:45:06Z</time>
      </trkpt>
      <trkpt lat="47.5920200" lon="9.0678530">
        <ele>-65.8</ele>
        <time>2022-06-10T07:45:10Z</time>
      </trkpt>
      <trkpt lat="47.5920200" lon="9.0678530">
        <ele>-65.8</ele>
        <time>2022-06-10T07:45:14Z</time>
      </trkpt>
      <trkpt lat="47.5920200" lon="9.0678530">
        <ele>-65.6</ele>
        <time>2022-06-10T07:45:18Z</time>
      </trkpt>
      <trkpt lat="47.5920200" lon="9.0678530">
        <ele>-65.0</ele>
        <time>2022-06-10T07:45:22Z</time>
      </trkpt>
      <trkpt lat="47.5920200" lon="9.0678530">
        <ele>-65.2</ele>
        <time>2022-06-10T07:45:26Z</time>
      </trkpt>
      <trkpt lat="47.5920200" lon="9.0678530">
        <ele>-65.6</ele>
        <time>2022-06-10T07:45:30Z</time>
      </trkpt>
      <trkpt lat="47.5920200" lon="9.0678530">
        <ele>-65.2</ele>
        <time>2022-06-10T07:45:34Z</time>
      </trkpt>
      <trkpt lat="47.5920200" lon="9.0678530">
        <ele>-65.0</ele>
        <time>2022-06-10T07:45:38Z</time>
      </trkpt>
      <trkpt lat="47.5920200" lon="9.0678530">
        <ele>-65.4</ele>
        <time>2022-06-10T07:45:42Z</time>
      </trkpt>
      <trkpt lat="47.5920200" lon="9.0678530">
        <ele>-65.6</ele>
        <time>2022-06-10T07:45:46Z</time>
      </trkpt>
      <trkpt lat="47.5920200" lon="9.0678530">
        <ele>-65.4</ele>
        <time>2022-06-10T07:45:50Z</time>
      </trkpt>
      <trkpt lat="47.5920200" lon="9.0678530">
        <ele>-65.4</ele>
        <time>2022-06-10T07:45:54Z</time>
      </trkpt>
      <trkpt lat="47.5920200" lon="9.0678530">
        <ele>-65.2</ele>
        <time>2022-06-10T07:45:58Z</time>
      </trkpt>
      <trkpt lat="47.5920200" lon="9.0678530">
        <ele>-65.4</ele>
        <time>2022-06-10T07:46:02Z</time>
      </trkpt>
      <trkpt lat="47.5920200" lon="9.0678530">
        <ele>-65.2</ele>
        <time>2022-06-10T07:46:06Z</time>
      </trkpt>
      <trkpt lat="47.5920200" lon="9.0678530">
        <ele>-65.2</ele>
        <time>2022-06-10T07:46:10Z</time>
      </trkpt>
      <trkpt lat="47.5920200" lon="9.0678530">
        <ele>-65.4</ele>
        <time>2022-06-10T07:46:14Z</time>
      </trkpt>
      <trkpt lat="47.5920200" lon="9.0678530">
        <ele>-65.2</ele>
        <time>2022-06-10T07:46:18Z</time>
      </trkpt>
      <trkpt lat="47.5920200" lon="9.0678530">
        <ele>-65.8</ele>
        <time>2022-06-10T07:46:22Z</time>
      </trkpt>
      <trkpt lat="47.5920280" lon="9.0678430">
        <ele>-65.8</ele>
        <time>2022-06-10T07:46:26Z</time>
      </trkpt>
      <trkpt lat="47.5920280" lon="9.0678430">
        <ele>-65.4</ele>
        <time>2022-06-10T07:46:30Z</time>
      </trkpt>
      <trkpt lat="47.5920230" lon="9.0678680">
        <ele>-65.8</ele>
        <time>2022-06-10T07:46:34Z</time>
      </trkpt>
      <trkpt lat="47.5919600" lon="9.0679160">
        <ele>-65.8</ele>
        <time>2022-06-10T07:46:38Z</time>
      </trkpt>
      <trkpt lat="47.5918960" lon="9.0678680">
        <ele>-65.8</ele>
        <time>2022-06-10T07:46:42Z</time>
      </trkpt>
      <trkpt lat="47.5918380" lon="9.0677360">
        <ele>-66.2</ele>
        <time>2022-06-10T07:46:46Z</time>
      </trkpt>
      <trkpt lat="47.5917910" lon="9.0675750">
        <ele>-66.0</ele>
        <time>2022-06-10T07:46:50Z</time>
      </trkpt>
      <trkpt lat="47.5917730" lon="9.0673780">
        <ele>-66.0</ele>
        <time>2022-06-10T07:46:54Z</time>
      </trkpt>
      <trkpt lat="47.5917760" lon="9.0671710">
        <ele>-66.2</ele>
        <time>2022-06-10T07:46:58Z</time>
      </trkpt>
      <trkpt lat="47.5917960" lon="9.0669480">
        <ele>-66.4</ele>
        <time>2022-06-10T07:47:02Z</time>
      </trkpt>
      <trkpt lat="47.5918210" lon="9.0667300">
        <ele>-66.4</ele>
        <time>2022-06-10T07:47:06Z</time>
      </trkpt>
      <trkpt lat="47.5918580" lon="9.0665130">
        <ele>-66.8</ele>
        <time>2022-06-10T07:47:10Z</time>
      </trkpt>
      <trkpt lat="47.5918860" lon="9.0662960">
        <ele>-67.0</ele>
        <time>2022-06-10T07:47:14Z</time>
      </trkpt>
      <trkpt lat="47.5919150" lon="9.0660900">
        <ele>-67.0</ele>
        <time>2022-06-10T07:47:18Z</time>
      </trkpt>
      <trkpt lat="47.5919360" lon="9.0659450">
        <ele>-67.0</ele>
        <time>2022-06-10T07:47:22Z</time>
      </trkpt>
      <trkpt lat="47.5918530" lon="9.0657980">
        <ele>-67.6</ele>
        <time>2022-06-10T07:47:26Z</time>
      </trkpt>
      <trkpt lat="47.5916910" lon="9.0656730">
        <ele>-67.6</ele>
        <time>2022-06-10T07:47:30Z</time>
      </trkpt>
      <trkpt lat="47.5915100" lon="9.0655500">
        <ele>-68.2</ele>
        <time>2022-06-10T07:47:34Z</time>
      </trkpt>
      <trkpt lat="47.5913110" lon="9.0654260">
        <ele>-68.4</ele>
        <time>2022-06-10T07:47:38Z</time>
      </trkpt>
      <trkpt lat="47.5911210" lon="9.0652830">
        <ele>-69.2</ele>
        <time>2022-06-10T07:47:42Z</time>
      </trkpt>
      <trkpt lat="47.5909280" lon="9.0651530">
        <ele>-69.4</ele>
        <time>2022-06-10T07:47:46Z</time>
      </trkpt>
      <trkpt lat="47.5907350" lon="9.0650310">
        <ele>-69.4</ele>
        <time>2022-06-10T07:47:50Z</time>
      </trkpt>
      <trkpt lat="47.5905460" lon="9.0649130">
        <ele>-68.4</ele>
        <time>2022-06-10T07:47:54Z</time>
      </trkpt>
      <trkpt lat="47.5903580" lon="9.0647930">
        <ele>-69.8</ele>
        <time>2022-06-10T07:47:58Z</time>
      </trkpt>
      <trkpt lat="47.5901680" lon="9.0646710">
        <ele>-70.0</ele>
        <time>2022-06-10T07:48:02Z</time>
      </trkpt>
      <trkpt lat="47.5899780" lon="9.0645510">
        <ele>-69.6</ele>
        <time>2022-06-10T07:48:06Z</time>
      </trkpt>
      <trkpt lat="47.5897850" lon="9.0644310">
        <ele>-69.8</ele>
        <time>2022-06-10T07:48:10Z</time>
      </trkpt>
      <trkpt lat="47.5895950" lon="9.0643000">
        <ele>-70.2</ele>
        <time>2022-06-10T07:48:14Z</time>
      </trkpt>
      <trkpt lat="47.5894030" lon="9.0641830">
        <ele>-69.6</ele>
        <time>2022-06-10T07:48:18Z</time>
      </trkpt>
      <trkpt lat="47.5892150" lon="9.0640650">
        <ele>-69.8</ele>
        <time>2022-06-10T07:48:22Z</time>
      </trkpt>
      <trkpt lat="47.5890400" lon="9.0639460">
        <ele>-70.2</ele>
        <time>2022-06-10T07:48:26Z</time>
      </trkpt>
      <trkpt lat="47.5888700" lon="9.0638330">
        <ele>-70.0</ele>
        <time>2022-06-10T07:48:30Z</time>
      </trkpt>
      <trkpt lat="47.5886960" lon="9.0637230">
        <ele>-70.0</ele>
        <time>2022-06-10T07:48:34Z</time>
      </trkpt>
      <trkpt lat="47.5885250" lon="9.0636110">
        <ele>-70.0</ele>
        <time>2022-06-10T07:48:38Z</time>
      </trkpt>
      <trkpt lat="47.5883560" lon="9.0634930">
        <ele>-69.8</ele>
        <time>2022-06-10T07:48:42Z</time>
      </trkpt>
      <trkpt lat="47.5881900" lon="9.0633860">
        <ele>-69.8</ele>
        <time>2022-06-10T07:48:46Z</time>
      </trkpt>
      <trkpt lat="47.5880160" lon="9.0632800">
        <ele>-70.4</ele>
        <time>2022-06-10T07:48:50Z</time>
      </trkpt>
      <trkpt lat="47.5878430" lon="9.0631710">
        <ele>-70.0</ele>
        <time>2022-06-10T07:48:54Z</time>
      </trkpt>
      <trkpt lat="47.5876710" lon="9.0630610">
        <ele>-69.6</ele>
        <time>2022-06-10T07:48:58Z</time>
      </trkpt>
      <trkpt lat="47.5875110" lon="9.0629250">
        <ele>-70.2</ele>
        <time>2022-06-10T07:49:02Z</time>
      </trkpt>
      <trkpt lat="47.5873430" lon="9.0628150">
        <ele>-70.2</ele>
        <time>2022-06-10T07:49:06Z</time>
      </trkpt>
      <trkpt lat="47.5871760" lon="9.0627160">
        <ele>-69.8</ele>
        <time>2022-06-10T07:49:10Z</time>
      </trkpt>
      <trkpt lat="47.5870060" lon="9.0626250">
        <ele>-70.4</ele>
        <time>2022-06-10T07:49:14Z</time>
      </trkpt>
      <trkpt lat="47.5868360" lon="9.0625280">
        <ele>-70.2</ele>
        <time>2022-06-10T07:49:18Z</time>
      </trkpt>
      <trkpt lat="47.5866700" lon="9.0624180">
        <ele>-70.4</ele>
        <time>2022-06-10T07:49:22Z</time>
      </trkpt>
      <trkpt lat="47.5865000" lon="9.0623080">
        <ele>-70.2</ele>
        <time>2022-06-10T07:49:26Z</time>
      </trkpt>
      <trkpt lat="47.5863300" lon="9.0621980">
        <ele>-70.2</ele>
        <time>2022-06-10T07:49:30Z</time>
      </trkpt>
      <trkpt lat="47.5861680" lon="9.0620860">
        <ele>-70.2</ele>
        <time>2022-06-10T07:49:34Z</time>
      </trkpt>
      <trkpt lat="47.5860130" lon="9.0619580">
        <ele>-70.4</ele>
        <time>2022-06-10T07:49:38Z</time>
      </trkpt>
      <trkpt lat="47.5858530" lon="9.0618550">
        <ele>-70.2</ele>
        <time>2022-06-10T07:49:42Z</time>
      </trkpt>
      <trkpt lat="47.5857000" lon="9.0617500">
        <ele>-70.2</ele>
        <time>2022-06-10T07:49:46Z</time>
      </trkpt>
      <trkpt lat="47.5855550" lon="9.0616510">
        <ele>-70.2</ele>
        <time>2022-06-10T07:49:50Z</time>
      </trkpt>
      <trkpt lat="47.5853960" lon="9.0615510">
        <ele>-70.2</ele>
        <time>2022-06-10T07:49:54Z</time>
      </trkpt>
      <trkpt lat="47.5852260" lon="9.0614630">
        <ele>-70.2</ele>
        <time>2022-06-10T07:49:58Z</time>
      </trkpt>
      <trkpt lat="47.5850610" lon="9.0613630">
        <ele>-70.6</ele>
        <time>2022-06-10T07:50:02Z</time>
      </trkpt>
      <trkpt lat="47.5849010" lon="9.0612650">
        <ele>-70.4</ele>
        <time>2022-06-10T07:50:06Z</time>
      </trkpt>
      <trkpt lat="47.5847460" lon="9.0611760">
        <ele>-70.0</ele>
        <time>2022-06-10T07:50:10Z</time>
      </trkpt>
      <trkpt lat="47.5845980" lon="9.0610730">
        <ele>-70.2</ele>
        <time>2022-06-10T07:50:14Z</time>
      </trkpt>
      <trkpt lat="47.5844580" lon="9.0609480">
        <ele>-70.2</ele>
        <time>2022-06-10T07:50:18Z</time>
      </trkpt>
      <trkpt lat="47.5843100" lon="9.0608730">
        <ele>-70.2</ele>
        <time>2022-06-10T07:50:22Z</time>
      </trkpt>
      <trkpt lat="47.5842060" lon="9.0608130">
        <ele>-69.6</ele>
        <time>2022-06-10T07:50:26Z</time>
      </trkpt>
      <trkpt lat="47.5841610" lon="9.0607760">
        <ele>-70.2</ele>
        <time>2022-06-10T07:50:30Z</time>
      </trkpt>
      <trkpt lat="47.5841510" lon="9.0607780">
        <ele>-69.6</ele>
        <time>2022-06-10T07:50:34Z</time>
      </trkpt>
      <trkpt lat="47.5841280" lon="9.0608210">
        <ele>-69.8</ele>
        <time>2022-06-10T07:50:38Z</time>
      </trkpt>
      <trkpt lat="47.5840500" lon="9.0608600">
        <ele>-70.6</ele>
        <time>2022-06-10T07:50:42Z</time>
      </trkpt>
      <trkpt lat="47.5839630" lon="9.0609330">
        <ele>-70.2</ele>
        <time>2022-06-10T07:50:46Z</time>
      </trkpt>
      <trkpt lat="47.5838680" lon="9.0608580">
        <ele>-70.2</ele>
        <time>2022-06-10T07:50:50Z</time>
      </trkpt>
      <trkpt lat="47.5838050" lon="9.0607160">
        <ele>-69.8</ele>
        <time>2022-06-10T07:50:54Z</time>
      </trkpt>
      <trkpt lat="47.5837080" lon="9.0606630">
        <ele>-69.6</ele>
        <time>2022-06-10T07:50:58Z</time>
      </trkpt>
      <trkpt lat="47.5835900" lon="9.0606960">
        <ele>-69.6</ele>
        <time>2022-06-10T07:51:02Z</time>
      </trkpt>
      <trkpt lat="47.5834960" lon="9.0607950">
        <ele>-69.6</ele>
        <time>2022-06-10T07:51:06Z</time>
      </trkpt>
      <trkpt lat="47.5834410" lon="9.0609180">
        <ele>-69.6</ele>
        <time>2022-06-10T07:51:10Z</time>
      </trkpt>
      <trkpt lat="47.5834130" lon="9.0610130">
        <ele>-69.4</ele>
        <time>2022-06-10T07:51:14Z</time>
      </trkpt>
      <trkpt lat="47.5834130" lon="9.0610130">
        <ele>-69.0</ele>
        <time>2022-06-10T07:51:18Z</time>
      </trkpt>
      <trkpt lat="47.5834130" lon="9.0610130">
        <ele>-69.4</ele>
        <time>2022-06-10T07:51:22Z</time>
      </trkpt>
      <trkpt lat="47.5834130" lon="9.0610130">
        <ele>-69.2</ele>
        <time>2022-06-10T07:51:26Z</time>
      </trkpt>
      <trkpt lat="47.5834130" lon="9.0610130">
        <ele>-69.0</ele>
        <time>2022-06-10T07:51:30Z</time>
      </trkpt>
      <trkpt lat="47.5834130" lon="9.0610130">
        <ele>-68.8</ele>
        <time>2022-06-10T07:51:34Z</time>
      </trkpt>
      <trkpt lat="47.5833780" lon="9.0610380">
        <ele>-69.0</ele>
        <time>2022-06-10T07:51:38Z</time>
      </trkpt>
      <trkpt lat="47.5834060" lon="9.0610160">
        <ele>-69.6</ele>
        <time>2022-06-10T07:51:42Z</time>
      </trkpt>
      <trkpt lat="47.5834300" lon="9.0609310">
        <ele>-69.6</ele>
        <time>2022-06-10T07:51:46Z</time>
      </trkpt>
      <trkpt lat="47.5834710" lon="9.0608080">
        <ele>-69.2</ele>
        <time>2022-06-10T07:51:50Z</time>
      </trkpt>
      <trkpt lat="47.5835330" lon="9.0607150">
        <ele>-69.4</ele>
        <time>2022-06-10T07:51:54Z</time>
      </trkpt>
      <trkpt lat="47.5836130" lon="9.0606530">
        <ele>-69.8</ele>
        <time>2022-06-10T07:51:58Z</time>
      </trkpt>
      <trkpt lat="47.5837080" lon="9.0606510">
        <ele>-69.8</ele>
        <time>2022-06-10T07:52:02Z</time>
      </trkpt>
      <trkpt lat="47.5838080" lon="9.0607580">
        <ele>-70.4</ele>
        <time>2022-06-10T07:52:06Z</time>
      </trkpt>
      <trkpt lat="47.5838210" lon="9.0609210">
        <ele>-70.6</ele>
        <time>2022-06-10T07:52:10Z</time>
      </trkpt>
      <trkpt lat="47.5837480" lon="9.0611000">
        <ele>-71.4</ele>
        <time>2022-06-10T07:52:14Z</time>
      </trkpt>
      <trkpt lat="47.5836050" lon="9.0612100">
        <ele>-72.6</ele>
        <time>2022-06-10T07:52:18Z</time>
      </trkpt>
      <trkpt lat="47.5834160" lon="9.0612130">
        <ele>-73.4</ele>
        <time>2022-06-10T07:52:22Z</time>
      </trkpt>
      <trkpt lat="47.5832960" lon="9.0611150">
        <ele>-74.6</ele>
        <time>2022-06-10T07:52:26Z</time>
      </trkpt>
      <trkpt lat="47.5832280" lon="9.0610280">
        <ele>-73.8</ele>
        <time>2022-06-10T07:52:30Z</time>
      </trkpt>
      <trkpt lat="47.5828160" lon="9.0609250">
        <ele>-72.6</ele>
        <time>2022-06-10T07:52:34Z</time>
      </trkpt>
      <trkpt lat="47.5826780" lon="9.0607150">
        <ele>-72.0</ele>
        <time>2022-06-10T07:52:38Z</time>
      </trkpt>
      <trkpt lat="47.5826750" lon="9.0605230">
        <ele>-70.8</ele>
        <time>2022-06-10T07:52:42Z</time>
      </trkpt>
      <trkpt lat="47.5827400" lon="9.0604330">
        <ele>-70.4</ele>
        <time>2022-06-10T07:52:46Z</time>
      </trkpt>
      <trkpt lat="47.5827880" lon="9.0603180">
        <ele>-69.6</ele>
        <time>2022-06-10T07:52:50Z</time>
      </trkpt>
      <trkpt lat="47.5828100" lon="9.0602210">
        <ele>-69.4</ele>
        <time>2022-06-10T07:52:54Z</time>
      </trkpt>
      <trkpt lat="47.5828250" lon="9.0600930">
        <ele>-69.0</ele>
        <time>2022-06-10T07:52:58Z</time>
      </trkpt>
      <trkpt lat="47.5827550" lon="9.0600610">
        <ele>-69.6</ele>
        <time>2022-06-10T07:53:02Z</time>
      </trkpt>
      <trkpt lat="47.5827000" lon="9.0600530">
        <ele>-70.0</ele>
        <time>2022-06-10T07:53:06Z</time>
      </trkpt>
      <trkpt lat="47.5826500" lon="9.0600460">
        <ele>-69.8</ele>
        <time>2022-06-10T07:53:10Z</time>
      </trkpt>
      <trkpt lat="47.5825910" lon="9.0600710">
        <ele>-70.2</ele>
        <time>2022-06-10T07:53:14Z</time>
      </trkpt>
      <trkpt lat="47.5825050" lon="9.0600930">
        <ele>-70.4</ele>
        <time>2022-06-10T07:53:18Z</time>
      </trkpt>
      <trkpt lat="47.5823910" lon="9.0601410">
        <ele>-70.2</ele>
        <time>2022-06-10T07:53:22Z</time>
      </trkpt>
      <trkpt lat="47.5822800" lon="9.0602200">
        <ele>-70.8</ele>
        <time>2022-06-10T07:53:26Z</time>
      </trkpt>
      <trkpt lat="47.5821660" lon="9.0603130">
        <ele>-70.8</ele>
        <time>2022-06-10T07:53:30Z</time>
      </trkpt>
      <trkpt lat="47.5820550" lon="9.0604100">
        <ele>-70.8</ele>
        <time>2022-06-10T07:53:34Z</time>
      </trkpt>
      <trkpt lat="47.5819350" lon="9.0605100">
        <ele>-70.6</ele>
        <time>2022-06-10T07:53:38Z</time>
      </trkpt>
      <trkpt lat="47.5818010" lon="9.0605750">
        <ele>-70.4</ele>
        <time>2022-06-10T07:53:42Z</time>
      </trkpt>
      <trkpt lat="47.5816700" lon="9.0606250">
        <ele>-70.4</ele>
        <time>2022-06-10T07:53:46Z</time>
      </trkpt>
      <trkpt lat="47.5815500" lon="9.0606580">
        <ele>-69.8</ele>
        <time>2022-06-10T07:53:50Z</time>
      </trkpt>
      <trkpt lat="47.5814450" lon="9.0606860">
        <ele>-70.0</ele>
        <time>2022-06-10T07:53:54Z</time>
      </trkpt>
      <trkpt lat="47.5813500" lon="9.0607060">
        <ele>-70.0</ele>
        <time>2022-06-10T07:53:58Z</time>
      </trkpt>
      <trkpt lat="47.5813500" lon="9.0607060">
        <ele>-69.6</ele>
        <time>2022-06-10T07:54:02Z</time>
      </trkpt>
      <trkpt lat="47.5813500" lon="9.0607060">
        <ele>-70.0</ele>
        <time>2022-06-10T07:54:06Z</time>
      </trkpt>
      <trkpt lat="47.5813500" lon="9.0607060">
        <ele>-70.0</ele>
        <time>2022-06-10T07:54:10Z</time>
      </trkpt>
      <trkpt lat="47.5813110" lon="9.0607060">
        <ele>-70.0</ele>
        <time>2022-06-10T07:54:14Z</time>
      </trkpt>
      <trkpt lat="47.5813500" lon="9.0606960">
        <ele>-70.2</ele>
        <time>2022-06-10T07:54:18Z</time>
      </trkpt>
      <trkpt lat="47.5814300" lon="9.0606910">
        <ele>-70.2</ele>
        <time>2022-06-10T07:54:22Z</time>
      </trkpt>
      <trkpt lat="47.5815210" lon="9.0606630">
        <ele>-70.2</ele>
        <time>2022-06-10T07:54:26Z</time>
      </trkpt>
      <trkpt lat="47.5816380" lon="9.0606280">
        <ele>-70.4</ele>
        <time>2022-06-10T07:54:30Z</time>
      </trkpt>
      <trkpt lat="47.5817500" lon="9.0605680">
        <ele>-70.8</ele>
        <time>2022-06-10T07:54:34Z</time>
      </trkpt>
      <trkpt lat="47.5818810" lon="9.0604700">
        <ele>-70.6</ele>
        <time>2022-06-10T07:54:38Z</time>
      </trkpt>
      <trkpt lat="47.5820430" lon="9.0603460">
        <ele>-71.2</ele>
        <time>2022-06-10T07:54:42Z</time>
      </trkpt>
      <trkpt lat="47.5821930" lon="9.0602260">
        <ele>-71.0</ele>
        <time>2022-06-10T07:54:46Z</time>
      </trkpt>
      <trkpt lat="47.5823680" lon="9.0601210">
        <ele>-71.4</ele>
        <time>2022-06-10T07:54:50Z</time>
      </trkpt>
      <trkpt lat="47.5825700" lon="9.0600600">
        <ele>-70.4</ele>
        <time>2022-06-10T07:54:54Z</time>
      </trkpt>
      <trkpt lat="47.5827510" lon="9.0600630">
        <ele>-70.6</ele>
        <time>2022-06-10T07:54:58Z</time>
      </trkpt>
      <trkpt lat="47.5829110" lon="9.0600510">
        <ele>-69.8</ele>
        <time>2022-06-10T07:55:02Z</time>
      </trkpt>
      <trkpt lat="47.5830330" lon="9.0599560">
        <ele>-69.4</ele>
        <time>2022-06-10T07:55:06Z</time>
      </trkpt>
      <trkpt lat="47.5831080" lon="9.0597760">
        <ele>-69.4</ele>
        <time>2022-06-10T07:55:10Z</time>
      </trkpt>
      <trkpt lat="47.5831810" lon="9.0596110">
        <ele>-69.6</ele>
        <time>2022-06-10T07:55:14Z</time>
      </trkpt>
      <trkpt lat="47.5832480" lon="9.0594200">
        <ele>-69.8</ele>
        <time>2022-06-10T07:55:18Z</time>
      </trkpt>
      <trkpt lat="47.5832930" lon="9.0592160">
        <ele>-69.6</ele>
        <time>2022-06-10T07:55:22Z</time>
      </trkpt>
      <trkpt lat="47.5833330" lon="9.0590080">
        <ele>-70.2</ele>
        <time>2022-06-10T07:55:26Z</time>
      </trkpt>
      <trkpt lat="47.5833800" lon="9.0587910">
        <ele>-70.2</ele>
        <time>2022-06-10T07:55:30Z</time>
      </trkpt>
      <trkpt lat="47.5834160" lon="9.0585830">
        <ele>-70.6</ele>
        <time>2022-06-10T07:55:34Z</time>
      </trkpt>
      <trkpt lat="47.5834400" lon="9.0583850">
        <ele>-69.8</ele>
        <time>2022-06-10T07:55:38Z</time>
      </trkpt>
      <trkpt lat="47.5834510" lon="9.0581730">
        <ele>-70.0</ele>
        <time>2022-06-10T07:55:42Z</time>
      </trkpt>
      <trkpt lat="47.5834500" lon="9.0579380">
        <ele>-70.6</ele>
        <time>2022-06-10T07:55:46Z</time>
      </trkpt>
      <trkpt lat="47.5834350" lon="9.0576910">
        <ele>-70.8</ele>
        <time>2022-06-10T07:55:50Z</time>
      </trkpt>
      <trkpt lat="47.5834130" lon="9.0574130">
        <ele>-70.8</ele>
        <time>2022-06-10T07:55:54Z</time>
      </trkpt>
      <trkpt lat="47.5833910" lon="9.0571130">
        <ele>-70.8</ele>
        <time>2022-06-10T07:55:58Z</time>
      </trkpt>
      <trkpt lat="47.5833710" lon="9.0568080">
        <ele>-71.2</ele>
        <time>2022-06-10T07:56:02Z</time>
      </trkpt>
      <trkpt lat="47.5833510" lon="9.0565060">
        <ele>-70.8</ele>
        <time>2022-06-10T07:56:06Z</time>
      </trkpt>
      <trkpt lat="47.5833380" lon="9.0562160">
        <ele>-70.6</ele>
        <time>2022-06-10T07:56:10Z</time>
      </trkpt>
      <trkpt lat="47.5833130" lon="9.0559330">
        <ele>-70.8</ele>
        <time>2022-06-10T07:56:14Z</time>
      </trkpt>
      <trkpt lat="47.5832760" lon="9.0556530">
        <ele>-70.2</ele>
        <time>2022-06-10T07:56:18Z</time>
      </trkpt>
      <trkpt lat="47.5832560" lon="9.0553680">
        <ele>-70.4</ele>
        <time>2022-06-10T07:56:22Z</time>
      </trkpt>
      <trkpt lat="47.5832410" lon="9.0550760">
        <ele>-71.2</ele>
        <time>2022-06-10T07:56:26Z</time>
      </trkpt>
      <trkpt lat="47.5832250" lon="9.0547910">
        <ele>-70.4</ele>
        <time>2022-06-10T07:56:30Z</time>
      </trkpt>
      <trkpt lat="47.5831960" lon="9.0545050">
        <ele>-71.6</ele>
        <time>2022-06-10T07:56:34Z</time>
      </trkpt>
      <trkpt lat="47.5831650" lon="9.0542160">
        <ele>-71.6</ele>
        <time>2022-06-10T07:56:38Z</time>
      </trkpt>
      <trkpt lat="47.5831380" lon="9.0539230">
        <ele>-71.4</ele>
        <time>2022-06-10T07:56:42Z</time>
      </trkpt>
      <trkpt lat="47.5831180" lon="9.0536180">
        <ele>-71.4</ele>
        <time>2022-06-10T07:56:46Z</time>
      </trkpt>
      <trkpt lat="47.5831010" lon="9.0533180">
        <ele>-72.0</ele>
        <time>2022-06-10T07:56:50Z</time>
      </trkpt>
      <trkpt lat="47.5830810" lon="9.0530160">
        <ele>-72.0</ele>
        <time>2022-06-10T07:56:54Z</time>
      </trkpt>
      <trkpt lat="47.5830610" lon="9.0527050">
        <ele>-72.0</ele>
        <time>2022-06-10T07:56:58Z</time>
      </trkpt>
      <trkpt lat="47.5830410" lon="9.0523880">
        <ele>-71.8</ele>
        <time>2022-06-10T07:57:02Z</time>
      </trkpt>
      <trkpt lat="47.5830210" lon="9.0520730">
        <ele>-71.8</ele>
        <time>2022-06-10T07:57:06Z</time>
      </trkpt>
      <trkpt lat="47.5829960" lon="9.0517580">
        <ele>-71.8</ele>
        <time>2022-06-10T07:57:10Z</time>
      </trkpt>
      <trkpt lat="47.5829800" lon="9.0514460">
        <ele>-71.8</ele>
        <time>2022-06-10T07:57:14Z</time>
      </trkpt>
      <trkpt lat="47.5829580" lon="9.0511310">
        <ele>-72.4</ele>
        <time>2022-06-10T07:57:18Z</time>
      </trkpt>
      <trkpt lat="47.5829380" lon="9.0508060">
        <ele>-72.0</ele>
        <time>2022-06-10T07:57:22Z</time>
      </trkpt>
      <trkpt lat="47.5829150" lon="9.0504830">
        <ele>-73.0</ele>
        <time>2022-06-10T07:57:26Z</time>
      </trkpt>
      <trkpt lat="47.5828930" lon="9.0501610">
        <ele>-72.0</ele>
        <time>2022-06-10T07:57:30Z</time>
      </trkpt>
      <trkpt lat="47.5828710" lon="9.0498430">
        <ele>-72.8</ele>
        <time>2022-06-10T07:57:34Z</time>
      </trkpt>
      <trkpt lat="47.5828510" lon="9.0495250">
        <ele>-72.2</ele>
        <time>2022-06-10T07:57:38Z</time>
      </trkpt>
      <trkpt lat="47.5828300" lon="9.0492160">
        <ele>-72.4</ele>
        <time>2022-06-10T07:57:42Z</time>
      </trkpt>
      <trkpt lat="47.5828050" lon="9.0489110">
        <ele>-73.4</ele>
        <time>2022-06-10T07:57:46Z</time>
      </trkpt>
      <trkpt lat="47.5827850" lon="9.0486080">
        <ele>-73.4</ele>
        <time>2022-06-10T07:57:50Z</time>
      </trkpt>
      <trkpt lat="47.5827650" lon="9.0483010">
        <ele>-73.4</ele>
        <time>2022-06-10T07:57:54Z</time>
      </trkpt>
      <trkpt lat="47.5827450" lon="9.0479960">
        <ele>-74.2</ele>
        <time>2022-06-10T07:57:58Z</time>
      </trkpt>
      <trkpt lat="47.5827210" lon="9.0477030">
        <ele>-73.8</ele>
        <time>2022-06-10T07:58:02Z</time>
      </trkpt>
      <trkpt lat="47.5826980" lon="9.0474100">
        <ele>-74.0</ele>
        <time>2022-06-10T07:58:06Z</time>
      </trkpt>
      <trkpt lat="47.5826780" lon="9.0471180">
        <ele>-73.0</ele>
        <time>2022-06-10T07:58:10Z</time>
      </trkpt>
      <trkpt lat="47.5826580" lon="9.0468250">
        <ele>-73.4</ele>
        <time>2022-06-10T07:58:14Z</time>
      </trkpt>
      <trkpt lat="47.5826400" lon="9.0465280">
        <ele>-74.0</ele>
        <time>2022-06-10T07:58:18Z</time>
      </trkpt>
      <trkpt lat="47.5826210" lon="9.0462280">
        <ele>-73.8</ele>
        <time>2022-06-10T07:58:22Z</time>
      </trkpt>
      <trkpt lat="47.5826010" lon="9.0459280">
        <ele>-74.0</ele>
        <time>2022-06-10T07:58:26Z</time>
      </trkpt>
      <trkpt lat="47.5825850" lon="9.0456310">
        <ele>-73.4</ele>
        <time>2022-06-10T07:58:30Z</time>
      </trkpt>
      <trkpt lat="47.5825700" lon="9.0453280">
        <ele>-74.2</ele>
        <time>2022-06-10T07:58:34Z</time>
      </trkpt>
      <trkpt lat="47.5825450" lon="9.0450100">
        <ele>-74.6</ele>
        <time>2022-06-10T07:58:38Z</time>
      </trkpt>
      <trkpt lat="47.5825100" lon="9.0446880">
        <ele>-74.2</ele>
        <time>2022-06-10T07:58:42Z</time>
      </trkpt>
      <trkpt lat="47.5824980" lon="9.0443650">
        <ele>-73.8</ele>
        <time>2022-06-10T07:58:46Z</time>
      </trkpt>
      <trkpt lat="47.5824950" lon="9.0440500">
        <ele>-74.4</ele>
        <time>2022-06-10T07:58:50Z</time>
      </trkpt>
      <trkpt lat="47.5824730" lon="9.0437550">
        <ele>-74.6</ele>
        <time>2022-06-10T07:58:54Z</time>
      </trkpt>
      <trkpt lat="47.5824500" lon="9.0434360">
        <ele>-75.8</ele>
        <time>2022-06-10T07:58:58Z</time>
      </trkpt>
      <trkpt lat="47.5824260" lon="9.0431160">
        <ele>-76.0</ele>
        <time>2022-06-10T07:59:02Z</time>
      </trkpt>
      <trkpt lat="47.5824030" lon="9.0428110">
        <ele>-75.4</ele>
        <time>2022-06-10T07:59:06Z</time>
      </trkpt>
      <trkpt lat="47.5823910" lon="9.0425080">
        <ele>-75.4</ele>
        <time>2022-06-10T07:59:10Z</time>
      </trkpt>
      <trkpt lat="47.5823680" lon="9.0421960">
        <ele>-75.4</ele>
        <time>2022-06-10T07:59:14Z</time>
      </trkpt>
      <trkpt lat="47.5823430" lon="9.0418810">
        <ele>-75.4</ele>
        <time>2022-06-10T07:59:18Z</time>
      </trkpt>
      <trkpt lat="47.5823200" lon="9.0415710">
        <ele>-75.8</ele>
        <time>2022-06-10T07:59:22Z</time>
      </trkpt>
      <trkpt lat="47.5823000" lon="9.0412730">
        <ele>-75.8</ele>
        <time>2022-06-10T07:59:26Z</time>
      </trkpt>
      <trkpt lat="47.5822760" lon="9.0410100">
        <ele>-75.6</ele>
        <time>2022-06-10T07:59:30Z</time>
      </trkpt>
      <trkpt lat="47.5822560" lon="9.0407630">
        <ele>-75.6</ele>
        <time>2022-06-10T07:59:34Z</time>
      </trkpt>
      <trkpt lat="47.5822410" lon="9.0405080">
        <ele>-75.8</ele>
        <time>2022-06-10T07:59:38Z</time>
      </trkpt>
      <trkpt lat="47.5822260" lon="9.0402510">
        <ele>-75.6</ele>
        <time>2022-06-10T07:59:42Z</time>
      </trkpt>
      <trkpt lat="47.5822100" lon="9.0399910">
        <ele>-76.2</ele>
        <time>2022-06-10T07:59:46Z</time>
      </trkpt>
      <trkpt lat="47.5821960" lon="9.0397210">
        <ele>-75.8</ele>
        <time>2022-06-10T07:59:50Z</time>
      </trkpt>
      <trkpt lat="47.5821830" lon="9.0394460">
        <ele>-76.0</ele>
        <time>2022-06-10T07:59:54Z</time>
      </trkpt>
      <trkpt lat="47.5821630" lon="9.0391730">
        <ele>-75.8</ele>
        <time>2022-06-10T07:59:58Z</time>
      </trkpt>
      <trkpt lat="47.5821500" lon="9.0388960">
        <ele>-76.2</ele>
        <time>2022-06-10T08:00:02Z</time>
      </trkpt>
      <trkpt lat="47.5821280" lon="9.0386130">
        <ele>-75.8</ele>
        <time>2022-06-10T08:00:06Z</time>
      </trkpt>
      <trkpt lat="47.5821130" lon="9.0383250">
        <ele>-76.0</ele>
        <time>2022-06-10T08:00:10Z</time>
      </trkpt>
      <trkpt lat="47.5820960" lon="9.0380360">
        <ele>-75.8</ele>
        <time>2022-06-10T08:00:14Z</time>
      </trkpt>
      <trkpt lat="47.5820780" lon="9.0377550">
        <ele>-76.0</ele>
        <time>2022-06-10T08:00:18Z</time>
      </trkpt>
      <trkpt lat="47.5820580" lon="9.0374850">
        <ele>-76.6</ele>
        <time>2022-06-10T08:00:22Z</time>
      </trkpt>
      <trkpt lat="47.5820400" lon="9.0372080">
        <ele>-76.2</ele>
        <time>2022-06-10T08:00:26Z</time>
      </trkpt>
      <trkpt lat="47.5820250" lon="9.0369310">
        <ele>-76.6</ele>
        <time>2022-06-10T08:00:30Z</time>
      </trkpt>
      <trkpt lat="47.5820060" lon="9.0366560">
        <ele>-76.4</ele>
        <time>2022-06-10T08:00:34Z</time>
      </trkpt>
      <trkpt lat="47.5819880" lon="9.0363660">
        <ele>-76.4</ele>
        <time>2022-06-10T08:00:38Z</time>
      </trkpt>
      <trkpt lat="47.5819700" lon="9.0360750">
        <ele>-76.4</ele>
        <time>2022-06-10T08:00:42Z</time>
      </trkpt>
      <trkpt lat="47.5819500" lon="9.0357860">
        <ele>-76.2</ele>
        <time>2022-06-10T08:00:46Z</time>
      </trkpt>
      <trkpt lat="47.5819360" lon="9.0354910">
        <ele>-76.8</ele>
        <time>2022-06-10T08:00:50Z</time>
      </trkpt>
      <trkpt lat="47.5819180" lon="9.0351910">
        <ele>-76.4</ele>
        <time>2022-06-10T08:00:54Z</time>
      </trkpt>
      <trkpt lat="47.5819000" lon="9.0348910">
        <ele>-76.8</ele>
        <time>2022-06-10T08:00:58Z</time>
      </trkpt>
      <trkpt lat="47.5818850" lon="9.0345960">
        <ele>-76.6</ele>
        <time>2022-06-10T08:01:02Z</time>
      </trkpt>
      <trkpt lat="47.5818660" lon="9.0343030">
        <ele>-76.6</ele>
        <time>2022-06-10T08:01:06Z</time>
      </trkpt>
      <trkpt lat="47.5818480" lon="9.0340100">
        <ele>-77.0</ele>
        <time>2022-06-10T08:01:10Z</time>
      </trkpt>
      <trkpt lat="47.5818280" lon="9.0337200">
        <ele>-76.4</ele>
        <time>2022-06-10T08:01:14Z</time>
      </trkpt>
      <trkpt lat="47.5818130" lon="9.0334310">
        <ele>-76.4</ele>
        <time>2022-06-10T08:01:18Z</time>
      </trkpt>
      <trkpt lat="47.5817950" lon="9.0331380">
        <ele>-76.2</ele>
        <time>2022-06-10T08:01:22Z</time>
      </trkpt>
      <trkpt lat="47.5817780" lon="9.0328380">
        <ele>-76.8</ele>
        <time>2022-06-10T08:01:26Z</time>
      </trkpt>
      <trkpt lat="47.5817610" lon="9.0325360">
        <ele>-76.4</ele>
        <time>2022-06-10T08:01:30Z</time>
      </trkpt>
      <trkpt lat="47.5817380" lon="9.0322350">
        <ele>-77.0</ele>
        <time>2022-06-10T08:01:34Z</time>
      </trkpt>
      <trkpt lat="47.5817180" lon="9.0319380">
        <ele>-76.6</ele>
        <time>2022-06-10T08:01:38Z</time>
      </trkpt>
      <trkpt lat="47.5817000" lon="9.0316460">
        <ele>-76.0</ele>
        <time>2022-06-10T08:01:42Z</time>
      </trkpt>
      <trkpt lat="47.5816810" lon="9.0313560">
        <ele>-76.8</ele>
        <time>2022-06-10T08:01:46Z</time>
      </trkpt>
      <trkpt lat="47.5816660" lon="9.0310680">
        <ele>-77.0</ele>
        <time>2022-06-10T08:01:50Z</time>
      </trkpt>
      <trkpt lat="47.5816500" lon="9.0307780">
        <ele>-76.0</ele>
        <time>2022-06-10T08:01:54Z</time>
      </trkpt>
      <trkpt lat="47.5816260" lon="9.0304860">
        <ele>-76.6</ele>
        <time>2022-06-10T08:01:58Z</time>
      </trkpt>
      <trkpt lat="47.5816100" lon="9.0302010">
        <ele>-76.4</ele>
        <time>2022-06-10T08:02:02Z</time>
      </trkpt>
      <trkpt lat="47.5815910" lon="9.0299110">
        <ele>-76.2</ele>
        <time>2022-06-10T08:02:06Z</time>
      </trkpt>
      <trkpt lat="47.5815730" lon="9.0296230">
        <ele>-76.8</ele>
        <time>2022-06-10T08:02:10Z</time>
      </trkpt>
      <trkpt lat="47.5815480" lon="9.0293400">
        <ele>-76.4</ele>
        <time>2022-06-10T08:02:14Z</time>
      </trkpt>
      <trkpt lat="47.5815230" lon="9.0290630">
        <ele>-77.0</ele>
        <time>2022-06-10T08:02:18Z</time>
      </trkpt>
      <trkpt lat="47.5815010" lon="9.0288000">
        <ele>-76.6</ele>
        <time>2022-06-10T08:02:22Z</time>
      </trkpt>
      <trkpt lat="47.5814680" lon="9.0285300">
        <ele>-76.6</ele>
        <time>2022-06-10T08:02:26Z</time>
      </trkpt>
      <trkpt lat="47.5814460" lon="9.0282530">
        <ele>-76.4</ele>
        <time>2022-06-10T08:02:30Z</time>
      </trkpt>
      <trkpt lat="47.5814080" lon="9.0279780">
        <ele>-76.6</ele>
        <time>2022-06-10T08:02:34Z</time>
      </trkpt>
      <trkpt lat="47.5812860" lon="9.0277600">
        <ele>-76.6</ele>
        <time>2022-06-10T08:02:38Z</time>
      </trkpt>
      <trkpt lat="47.5811430" lon="9.0275730">
        <ele>-76.6</ele>
        <time>2022-06-10T08:02:42Z</time>
      </trkpt>
      <trkpt lat="47.5810050" lon="9.0273660">
        <ele>-76.8</ele>
        <time>2022-06-10T08:02:46Z</time>
      </trkpt>
      <trkpt lat="47.5809030" lon="9.0271360">
        <ele>-76.4</ele>
        <time>2022-06-10T08:02:50Z</time>
      </trkpt>
      <trkpt lat="47.5808500" lon="9.0268900">
        <ele>-75.2</ele>
        <time>2022-06-10T08:02:54Z</time>
      </trkpt>
      <trkpt lat="47.5808400" lon="9.0266550">
        <ele>-75.2</ele>
        <time>2022-06-10T08:02:58Z</time>
      </trkpt>
      <trkpt lat="47.5808400" lon="9.0264050">
        <ele>-75.2</ele>
        <time>2022-06-10T08:03:02Z</time>
      </trkpt>
      <trkpt lat="47.5808410" lon="9.0261410">
        <ele>-75.4</ele>
        <time>2022-06-10T08:03:06Z</time>
      </trkpt>
      <trkpt lat="47.5808610" lon="9.0258950">
        <ele>-75.2</ele>
        <time>2022-06-10T08:03:10Z</time>
      </trkpt>
      <trkpt lat="47.5808880" lon="9.0257260">
        <ele>-74.6</ele>
        <time>2022-06-10T08:03:14Z</time>
      </trkpt>
      <trkpt lat="47.5809080" lon="9.0255830">
        <ele>-74.6</ele>
        <time>2022-06-10T08:03:18Z</time>
      </trkpt>
      <trkpt lat="47.5809080" lon="9.0255830">
        <ele>-74.6</ele>
        <time>2022-06-10T08:03:22Z</time>
      </trkpt>
      <trkpt lat="47.5809080" lon="9.0255830">
        <ele>-74.6</ele>
        <time>2022-06-10T08:03:26Z</time>
      </trkpt>
      <trkpt lat="47.5809030" lon="9.0255550">
        <ele>-74.6</ele>
        <time>2022-06-10T08:03:30Z</time>
      </trkpt>
      <trkpt lat="47.5808880" lon="9.0255900">
        <ele>-74.4</ele>
        <time>2022-06-10T08:03:34Z</time>
      </trkpt>
      <trkpt lat="47.5808830" lon="9.0256700">
        <ele>-74.2</ele>
        <time>2022-06-10T08:03:38Z</time>
      </trkpt>
      <trkpt lat="47.5808960" lon="9.0257580">
        <ele>-74.2</ele>
        <time>2022-06-10T08:03:42Z</time>
      </trkpt>
      <trkpt lat="47.5808710" lon="9.0257850">
        <ele>-74.2</ele>
        <time>2022-06-10T08:03:46Z</time>
      </trkpt>
      <trkpt lat="47.5808710" lon="9.0257850">
        <ele>-74.2</ele>
        <time>2022-06-10T08:03:50Z</time>
      </trkpt>
      <trkpt lat="47.5808710" lon="9.0257850">
        <ele>-74.6</ele>
        <time>2022-06-10T08:03:54Z</time>
      </trkpt>
      <trkpt lat="47.5808710" lon="9.0257850">
        <ele>-74.0</ele>
        <time>2022-06-10T08:03:58Z</time>
      </trkpt>
      <trkpt lat="47.5808710" lon="9.0257850">
        <ele>-74.0</ele>
        <time>2022-06-10T08:04:02Z</time>
      </trkpt>
      <trkpt lat="47.5808710" lon="9.0257850">
        <ele>-74.2</ele>
        <time>2022-06-10T08:04:06Z</time>
      </trkpt>
      <trkpt lat="47.5808710" lon="9.0257850">
        <ele>-74.0</ele>
        <time>2022-06-10T08:04:10Z</time>
      </trkpt>
      <trkpt lat="47.5808630" lon="9.0257480">
        <ele>-74.0</ele>
        <time>2022-06-10T08:04:14Z</time>
      </trkpt>
      <trkpt lat="47.5808130" lon="9.0257260">
        <ele>-74.0</ele>
        <time>2022-06-10T08:04:18Z</time>
      </trkpt>
      <trkpt lat="47.5807180" lon="9.0256580">
        <ele>-74.0</ele>
        <time>2022-06-10T08:04:22Z</time>
      </trkpt>
      <trkpt lat="47.5806080" lon="9.0255510">
        <ele>-74.0</ele>
        <time>2022-06-10T08:04:26Z</time>
      </trkpt>
      <trkpt lat="47.5804930" lon="9.0254560">
        <ele>-74.2</ele>
        <time>2022-06-10T08:04:30Z</time>
      </trkpt>
      <trkpt lat="47.5803660" lon="9.0253610">
        <ele>-74.0</ele>
        <time>2022-06-10T08:04:34Z</time>
      </trkpt>
      <trkpt lat="47.5802360" lon="9.0252630">
        <ele>-74.0</ele>
        <time>2022-06-10T08:04:38Z</time>
      </trkpt>
      <trkpt lat="47.5800950" lon="9.0251580">
        <ele>-73.8</ele>
        <time>2022-06-10T08:04:42Z</time>
      </trkpt>
      <trkpt lat="47.5799450" lon="9.0250660">
        <ele>-74.0</ele>
        <time>2022-06-10T08:04:46Z</time>
      </trkpt>
      <trkpt lat="47.5797960" lon="9.0249630">
        <ele>-74.0</ele>
        <time>2022-06-10T08:04:50Z</time>
      </trkpt>
      <trkpt lat="47.5796910" lon="9.0248810">
        <ele>-73.6</ele>
        <time>2022-06-10T08:04:54Z</time>
      </trkpt>
      <trkpt lat="47.5795600" lon="9.0247910">
        <ele>-73.4</ele>
        <time>2022-06-10T08:04:58Z</time>
      </trkpt>
      <trkpt lat="47.5794310" lon="9.0246910">
        <ele>-73.4</ele>
        <time>2022-06-10T08:05:02Z</time>
      </trkpt>
      <trkpt lat="47.5793050" lon="9.0245980">
        <ele>-73.8</ele>
        <time>2022-06-10T08:05:06Z</time>
      </trkpt>
      <trkpt lat="47.5791800" lon="9.0244960">
        <ele>-74.4</ele>
        <time>2022-06-10T08:05:10Z</time>
      </trkpt>
      <trkpt lat="47.5790360" lon="9.0243410">
        <ele>-74.6</ele>
        <time>2022-06-10T08:05:14Z</time>
      </trkpt>
      <trkpt lat="47.5789880" lon="9.0240910">
        <ele>-75.8</ele>
        <time>2022-06-10T08:05:18Z</time>
      </trkpt>
      <trkpt lat="47.5790060" lon="9.0239000">
        <ele>-75.4</ele>
        <time>2022-06-10T08:05:22Z</time>
      </trkpt>
      <trkpt lat="47.5790400" lon="9.0237010">
        <ele>-75.8</ele>
        <time>2022-06-10T08:05:26Z</time>
      </trkpt>
      <trkpt lat="47.5790850" lon="9.0234830">
        <ele>-75.8</ele>
        <time>2022-06-10T08:05:30Z</time>
      </trkpt>
      <trkpt lat="47.5791280" lon="9.0232610">
        <ele>-76.4</ele>
        <time>2022-06-10T08:05:34Z</time>
      </trkpt>
      <trkpt lat="47.5791700" lon="9.0230350">
        <ele>-76.4</ele>
        <time>2022-06-10T08:05:38Z</time>
      </trkpt>
      <trkpt lat="47.5792180" lon="9.0228000">
        <ele>-77.0</ele>
        <time>2022-06-10T08:05:42Z</time>
      </trkpt>
      <trkpt lat="47.5792680" lon="9.0225500">
        <ele>-76.8</ele>
        <time>2022-06-10T08:05:46Z</time>
      </trkpt>
      <trkpt lat="47.5793130" lon="9.0222860">
        <ele>-77.2</ele>
        <time>2022-06-10T08:05:50Z</time>
      </trkpt>
      <trkpt lat="47.5793660" lon="9.0220100">
        <ele>-77.2</ele>
        <time>2022-06-10T08:05:54Z</time>
      </trkpt>
      <trkpt lat="47.5794180" lon="9.0217280">
        <ele>-77.2</ele>
        <time>2022-06-10T08:05:58Z</time>
      </trkpt>
      <trkpt lat="47.5794660" lon="9.0214450">
        <ele>-77.6</ele>
        <time>2022-06-10T08:06:02Z</time>
      </trkpt>
      <trkpt lat="47.5795100" lon="9.0211580">
        <ele>-77.6</ele>
        <time>2022-06-10T08:06:06Z</time>
      </trkpt>
      <trkpt lat="47.5795410" lon="9.0208750">
        <ele>-77.4</ele>
        <time>2022-06-10T08:06:10Z</time>
      </trkpt>
      <trkpt lat="47.5795550" lon="9.0205980">
        <ele>-77.4</ele>
        <time>2022-06-10T08:06:14Z</time>
      </trkpt>
      <trkpt lat="47.5795760" lon="9.0203360">
        <ele>-76.8</ele>
        <time>2022-06-10T08:06:18Z</time>
      </trkpt>
      <trkpt lat="47.5795910" lon="9.0201080">
        <ele>-76.6</ele>
        <time>2022-06-10T08:06:22Z</time>
      </trkpt>
      <trkpt lat="47.5796060" lon="9.0198930">
        <ele>-75.8</ele>
        <time>2022-06-10T08:06:26Z</time>
      </trkpt>
      <trkpt lat="47.5796130" lon="9.0196900">
        <ele>-75.0</ele>
        <time>2022-06-10T08:06:30Z</time>
      </trkpt>
      <trkpt lat="47.5796280" lon="9.0195430">
        <ele>-74.8</ele>
        <time>2022-06-10T08:06:34Z</time>
      </trkpt>
      <trkpt lat="47.5796350" lon="9.0194280">
        <ele>-74.8</ele>
        <time>2022-06-10T08:06:38Z</time>
      </trkpt>
      <trkpt lat="47.5796460" lon="9.0193410">
        <ele>-75.0</ele>
        <time>2022-06-10T08:06:42Z</time>
      </trkpt>
      <trkpt lat="47.5796460" lon="9.0193410">
        <ele>-75.2</ele>
        <time>2022-06-10T08:06:46Z</time>
      </trkpt>
      <trkpt lat="47.5796460" lon="9.0193410">
        <ele>-75.0</ele>
        <time>2022-06-10T08:06:50Z</time>
      </trkpt>
      <trkpt lat="47.5796460" lon="9.0193410">
        <ele>-75.0</ele>
        <time>2022-06-10T08:06:54Z</time>
      </trkpt>
      <trkpt lat="47.5796580" lon="9.0193150">
        <ele>-75.2</ele>
        <time>2022-06-10T08:06:58Z</time>
      </trkpt>
      <trkpt lat="47.5796550" lon="9.0192160">
        <ele>-75.2</ele>
        <time>2022-06-10T08:07:02Z</time>
      </trkpt>
      <trkpt lat="47.5796480" lon="9.0190480">
        <ele>-75.4</ele>
        <time>2022-06-10T08:07:06Z</time>
      </trkpt>
      <trkpt lat="47.5796460" lon="9.0188330">
        <ele>-75.4</ele>
        <time>2022-06-10T08:07:10Z</time>
      </trkpt>
      <trkpt lat="47.5796600" lon="9.0185910">
        <ele>-75.6</ele>
        <time>2022-06-10T08:07:14Z</time>
      </trkpt>
      <trkpt lat="47.5796850" lon="9.0183230">
        <ele>-75.6</ele>
        <time>2022-06-10T08:07:18Z</time>
      </trkpt>
      <trkpt lat="47.5796910" lon="9.0180350">
        <ele>-76.0</ele>
        <time>2022-06-10T08:07:22Z</time>
      </trkpt>
      <trkpt lat="47.5797130" lon="9.0177400">
        <ele>-77.4</ele>
        <time>2022-06-10T08:07:26Z</time>
      </trkpt>
      <trkpt lat="47.5797300" lon="9.0174310">
        <ele>-77.4</ele>
        <time>2022-06-10T08:07:30Z</time>
      </trkpt>
      <trkpt lat="47.5797560" lon="9.0171310">
        <ele>-78.2</ele>
        <time>2022-06-10T08:07:34Z</time>
      </trkpt>
      <trkpt lat="47.5797800" lon="9.0168360">
        <ele>-77.8</ele>
        <time>2022-06-10T08:07:38Z</time>
      </trkpt>
      <trkpt lat="47.5797980" lon="9.0165350">
        <ele>-78.0</ele>
        <time>2022-06-10T08:07:42Z</time>
      </trkpt>
      <trkpt lat="47.5798160" lon="9.0162310">
        <ele>-78.4</ele>
        <time>2022-06-10T08:07:46Z</time>
      </trkpt>
      <trkpt lat="47.5798350" lon="9.0159280">
        <ele>-78.8</ele>
        <time>2022-06-10T08:07:50Z</time>
      </trkpt>
      <trkpt lat="47.5798610" lon="9.0156210">
        <ele>-79.0</ele>
        <time>2022-06-10T08:07:54Z</time>
      </trkpt>
      <trkpt lat="47.5798810" lon="9.0153060">
        <ele>-79.4</ele>
        <time>2022-06-10T08:07:58Z</time>
      </trkpt>
      <trkpt lat="47.5799010" lon="9.0149900">
        <ele>-80.2</ele>
        <time>2022-06-10T08:08:02Z</time>
      </trkpt>
      <trkpt lat="47.5799260" lon="9.0146710">
        <ele>-79.2</ele>
        <time>2022-06-10T08:08:06Z</time>
      </trkpt>
      <trkpt lat="47.5799460" lon="9.0143510">
        <ele>-79.2</ele>
        <time>2022-06-10T08:08:10Z</time>
      </trkpt>
      <trkpt lat="47.5799700" lon="9.0140330">
        <ele>-79.6</ele>
        <time>2022-06-10T08:08:14Z</time>
      </trkpt>
      <trkpt lat="47.5799950" lon="9.0137250">
        <ele>-80.2</ele>
        <time>2022-06-10T08:08:18Z</time>
      </trkpt>
      <trkpt lat="47.5800200" lon="9.0134230">
        <ele>-79.8</ele>
        <time>2022-06-10T08:08:22Z</time>
      </trkpt>
      <trkpt lat="47.5800380" lon="9.0131230">
        <ele>-79.8</ele>
        <time>2022-06-10T08:08:26Z</time>
      </trkpt>
      <trkpt lat="47.5800610" lon="9.0128230">
        <ele>-80.0</ele>
        <time>2022-06-10T08:08:30Z</time>
      </trkpt>
      <trkpt lat="47.5800850" lon="9.0125260">
        <ele>-80.2</ele>
        <time>2022-06-10T08:08:34Z</time>
      </trkpt>
      <trkpt lat="47.5801130" lon="9.0122410">
        <ele>-80.2</ele>
        <time>2022-06-10T08:08:38Z</time>
      </trkpt>
      <trkpt lat="47.5801250" lon="9.0119600">
        <ele>-80.6</ele>
        <time>2022-06-10T08:08:42Z</time>
      </trkpt>
      <trkpt lat="47.5801480" lon="9.0116780">
        <ele>-80.6</ele>
        <time>2022-06-10T08:08:46Z</time>
      </trkpt>
      <trkpt lat="47.5801630" lon="9.0113980">
        <ele>-79.8</ele>
        <time>2022-06-10T08:08:50Z</time>
      </trkpt>
      <trkpt lat="47.5801900" lon="9.0111230">
        <ele>-80.0</ele>
        <time>2022-06-10T08:08:54Z</time>
      </trkpt>
      <trkpt lat="47.5802080" lon="9.0108500">
        <ele>-80.0</ele>
        <time>2022-06-10T08:08:58Z</time>
      </trkpt>
      <trkpt lat="47.5802300" lon="9.0105730">
        <ele>-80.2</ele>
        <time>2022-06-10T08:09:02Z</time>
      </trkpt>
      <trkpt lat="47.5802580" lon="9.0102960">
        <ele>-80.0</ele>
        <time>2022-06-10T08:09:06Z</time>
      </trkpt>
      <trkpt lat="47.5802780" lon="9.0100160">
        <ele>-80.0</ele>
        <time>2022-06-10T08:09:10Z</time>
      </trkpt>
      <trkpt lat="47.5802980" lon="9.0097400">
        <ele>-80.0</ele>
        <time>2022-06-10T08:09:14Z</time>
      </trkpt>
      <trkpt lat="47.5803180" lon="9.0094560">
        <ele>-80.8</ele>
        <time>2022-06-10T08:09:18Z</time>
      </trkpt>
      <trkpt lat="47.5803330" lon="9.0091750">
        <ele>-80.2</ele>
        <time>2022-06-10T08:09:22Z</time>
      </trkpt>
      <trkpt lat="47.5803550" lon="9.0089000">
        <ele>-80.2</ele>
        <time>2022-06-10T08:09:26Z</time>
      </trkpt>
      <trkpt lat="47.5803700" lon="9.0086260">
        <ele>-80.2</ele>
        <time>2022-06-10T08:09:30Z</time>
      </trkpt>
      <trkpt lat="47.5803950" lon="9.0083530">
        <ele>-80.2</ele>
        <time>2022-06-10T08:09:34Z</time>
      </trkpt>
      <trkpt lat="47.5804110" lon="9.0080850">
        <ele>-80.2</ele>
        <time>2022-06-10T08:09:38Z</time>
      </trkpt>
      <trkpt lat="47.5804260" lon="9.0078260">
        <ele>-80.2</ele>
        <time>2022-06-10T08:09:42Z</time>
      </trkpt>
      <trkpt lat="47.5804450" lon="9.0075830">
        <ele>-80.0</ele>
        <time>2022-06-10T08:09:46Z</time>
      </trkpt>
      <trkpt lat="47.5804650" lon="9.0073460">
        <ele>-79.6</ele>
        <time>2022-06-10T08:09:50Z</time>
      </trkpt>
      <trkpt lat="47.5804810" lon="9.0071000">
        <ele>-79.4</ele>
        <time>2022-06-10T08:09:54Z</time>
      </trkpt>
      <trkpt lat="47.5804930" lon="9.0068450">
        <ele>-79.4</ele>
        <time>2022-06-10T08:09:58Z</time>
      </trkpt>
      <trkpt lat="47.5805030" lon="9.0066160">
        <ele>-79.0</ele>
        <time>2022-06-10T08:10:02Z</time>
      </trkpt>
      <trkpt lat="47.5805050" lon="9.0063880">
        <ele>-79.0</ele>
        <time>2022-06-10T08:10:06Z</time>
      </trkpt>
      <trkpt lat="47.5805050" lon="9.0061250">
        <ele>-79.6</ele>
        <time>2022-06-10T08:10:10Z</time>
      </trkpt>
      <trkpt lat="47.5805010" lon="9.0058360">
        <ele>-80.0</ele>
        <time>2022-06-10T08:10:14Z</time>
      </trkpt>
      <trkpt lat="47.5804930" lon="9.0055310">
        <ele>-80.6</ele>
        <time>2022-06-10T08:10:18Z</time>
      </trkpt>
      <trkpt lat="47.5804850" lon="9.0052180">
        <ele>-80.6</ele>
        <time>2022-06-10T08:10:22Z</time>
      </trkpt>
      <trkpt lat="47.5804680" lon="9.0048850">
        <ele>-80.8</ele>
        <time>2022-06-10T08:10:26Z</time>
      </trkpt>
      <trkpt lat="47.5804550" lon="9.0045500">
        <ele>-81.4</ele>
        <time>2022-06-10T08:10:30Z</time>
      </trkpt>
      <trkpt lat="47.5804410" lon="9.0042260">
        <ele>-81.0</ele>
        <time>2022-06-10T08:10:34Z</time>
      </trkpt>
      <trkpt lat="47.5804310" lon="9.0039160">
        <ele>-81.6</ele>
        <time>2022-06-10T08:10:38Z</time>
      </trkpt>
      <trkpt lat="47.5804210" lon="9.0036130">
        <ele>-81.8</ele>
        <time>2022-06-10T08:10:42Z</time>
      </trkpt>
      <trkpt lat="47.5804080" lon="9.0033180">
        <ele>-82.2</ele>
        <time>2022-06-10T08:10:46Z</time>
      </trkpt>
      <trkpt lat="47.5804030" lon="9.0030250">
        <ele>-81.8</ele>
        <time>2022-06-10T08:10:50Z</time>
      </trkpt>
      <trkpt lat="47.5803910" lon="9.0027200">
        <ele>-82.4</ele>
        <time>2022-06-10T08:10:54Z</time>
      </trkpt>
      <trkpt lat="47.5803780" lon="9.0024200">
        <ele>-82.6</ele>
        <time>2022-06-10T08:10:58Z</time>
      </trkpt>
      <trkpt lat="47.5803650" lon="9.0021010">
        <ele>-82.4</ele>
        <time>2022-06-10T08:11:02Z</time>
      </trkpt>
      <trkpt lat="47.5803530" lon="9.0017700">
        <ele>-82.6</ele>
        <time>2022-06-10T08:11:06Z</time>
      </trkpt>
      <trkpt lat="47.5803430" lon="9.0014280">
        <ele>-82.6</ele>
        <time>2022-06-10T08:11:10Z</time>
      </trkpt>
      <trkpt lat="47.5803310" lon="9.0010850">
        <ele>-82.6</ele>
        <time>2022-06-10T08:11:14Z</time>
      </trkpt>
      <trkpt lat="47.5803230" lon="9.0007600">
        <ele>-82.8</ele>
        <time>2022-06-10T08:11:18Z</time>
      </trkpt>
      <trkpt lat="47.5803130" lon="9.0004550">
        <ele>-82.4</ele>
        <time>2022-06-10T08:11:22Z</time>
      </trkpt>
      <trkpt lat="47.5803050" lon="9.0001460">
        <ele>-83.0</ele>
        <time>2022-06-10T08:11:26Z</time>
      </trkpt>
      <trkpt lat="47.5802980" lon="8.9998330">
        <ele>-82.8</ele>
        <time>2022-06-10T08:11:30Z</time>
      </trkpt>
      <trkpt lat="47.5802850" lon="8.9995230">
        <ele>-83.0</ele>
        <time>2022-06-10T08:11:34Z</time>
      </trkpt>
      <trkpt lat="47.5802760" lon="8.9992150">
        <ele>-83.0</ele>
        <time>2022-06-10T08:11:38Z</time>
      </trkpt>
      <trkpt lat="47.5802660" lon="8.9989050">
        <ele>-83.4</ele>
        <time>2022-06-10T08:11:42Z</time>
      </trkpt>
      <trkpt lat="47.5802550" lon="8.9985930">
        <ele>-82.8</ele>
        <time>2022-06-10T08:11:46Z</time>
      </trkpt>
      <trkpt lat="47.5802400" lon="8.9982810">
        <ele>-83.0</ele>
        <time>2022-06-10T08:11:50Z</time>
      </trkpt>
      <trkpt lat="47.5802330" lon="8.9979760">
        <ele>-83.2</ele>
        <time>2022-06-10T08:11:54Z</time>
      </trkpt>
      <trkpt lat="47.5802200" lon="8.9976750">
        <ele>-82.8</ele>
        <time>2022-06-10T08:11:58Z</time>
      </trkpt>
      <trkpt lat="47.5802100" lon="8.9973700">
        <ele>-83.2</ele>
        <time>2022-06-10T08:12:02Z</time>
      </trkpt>
      <trkpt lat="47.5802030" lon="8.9970600">
        <ele>-83.0</ele>
        <time>2022-06-10T08:12:06Z</time>
      </trkpt>
      <trkpt lat="47.5801880" lon="8.9967450">
        <ele>-82.8</ele>
        <time>2022-06-10T08:12:10Z</time>
      </trkpt>
      <trkpt lat="47.5801750" lon="8.9964250">
        <ele>-83.2</ele>
        <time>2022-06-10T08:12:14Z</time>
      </trkpt>
      <trkpt lat="47.5801660" lon="8.9961010">
        <ele>-83.6</ele>
        <time>2022-06-10T08:12:18Z</time>
      </trkpt>
      <trkpt lat="47.5801530" lon="8.9957750">
        <ele>-83.4</ele>
        <time>2022-06-10T08:12:22Z</time>
      </trkpt>
      <trkpt lat="47.5801450" lon="8.9954480">
        <ele>-83.6</ele>
        <time>2022-06-10T08:12:26Z</time>
      </trkpt>
      <trkpt lat="47.5801350" lon="8.9951130">
        <ele>-83.4</ele>
        <time>2022-06-10T08:12:30Z</time>
      </trkpt>
      <trkpt lat="47.5801210" lon="8.9947800">
        <ele>-84.0</ele>
        <time>2022-06-10T08:12:34Z</time>
      </trkpt>
      <trkpt lat="47.5801150" lon="8.9944450">
        <ele>-83.4</ele>
        <time>2022-06-10T08:12:38Z</time>
      </trkpt>
      <trkpt lat="47.5801030" lon="8.9941100">
        <ele>-83.4</ele>
        <time>2022-06-10T08:12:42Z</time>
      </trkpt>
      <trkpt lat="47.5800900" lon="8.9937780">
        <ele>-83.4</ele>
        <time>2022-06-10T08:12:46Z</time>
      </trkpt>
      <trkpt lat="47.5800780" lon="8.9934500">
        <ele>-83.6</ele>
        <time>2022-06-10T08:12:50Z</time>
      </trkpt>
      <trkpt lat="47.5800680" lon="8.9931230">
        <ele>-83.6</ele>
        <time>2022-06-10T08:12:54Z</time>
      </trkpt>
      <trkpt lat="47.5800560" lon="8.9927960">
        <ele>-83.4</ele>
        <time>2022-06-10T08:12:58Z</time>
      </trkpt>
      <trkpt lat="47.5800400" lon="8.9924750">
        <ele>-83.6</ele>
        <time>2022-06-10T08:13:02Z</time>
      </trkpt>
      <trkpt lat="47.5800280" lon="8.9921510">
        <ele>-83.6</ele>
        <time>2022-06-10T08:13:06Z</time>
      </trkpt>
      <trkpt lat="47.5800130" lon="8.9918250">
        <ele>-83.6</ele>
        <time>2022-06-10T08:13:10Z</time>
      </trkpt>
      <trkpt lat="47.5799900" lon="8.9914980">
        <ele>-83.8</ele>
        <time>2022-06-10T08:13:14Z</time>
      </trkpt>
      <trkpt lat="47.5799680" lon="8.9911750">
        <ele>-83.8</ele>
        <time>2022-06-10T08:13:18Z</time>
      </trkpt>
      <trkpt lat="47.5799400" lon="8.9908610">
        <ele>-83.8</ele>
        <time>2022-06-10T08:13:22Z</time>
      </trkpt>
      <trkpt lat="47.5799130" lon="8.9905530">
        <ele>-83.4</ele>
        <time>2022-06-10T08:13:26Z</time>
      </trkpt>
      <trkpt lat="47.5798830" lon="8.9902500">
        <ele>-83.4</ele>
        <time>2022-06-10T08:13:30Z</time>
      </trkpt>
      <trkpt lat="47.5798480" lon="8.9899500">
        <ele>-83.6</ele>
        <time>2022-06-10T08:13:34Z</time>
      </trkpt>
      <trkpt lat="47.5798030" lon="8.9896500">
        <ele>-83.6</ele>
        <time>2022-06-10T08:13:38Z</time>
      </trkpt>
      <trkpt lat="47.5797600" lon="8.9893480">
        <ele>-83.6</ele>
        <time>2022-06-10T08:13:42Z</time>
      </trkpt>
      <trkpt lat="47.5797200" lon="8.9890530">
        <ele>-84.0</ele>
        <time>2022-06-10T08:13:46Z</time>
      </trkpt>
      <trkpt lat="47.5796710" lon="8.9887560">
        <ele>-84.0</ele>
        <time>2022-06-10T08:13:50Z</time>
      </trkpt>
      <trkpt lat="47.5796280" lon="8.9884610">
        <ele>-83.8</ele>
        <time>2022-06-10T08:13:54Z</time>
      </trkpt>
      <trkpt lat="47.5795800" lon="8.9881700">
        <ele>-84.4</ele>
        <time>2022-06-10T08:13:58Z</time>
      </trkpt>
      <trkpt lat="47.5795330" lon="8.9878800">
        <ele>-84.2</ele>
        <time>2022-06-10T08:14:02Z</time>
      </trkpt>
      <trkpt lat="47.5794910" lon="8.9875950">
        <ele>-83.6</ele>
        <time>2022-06-10T08:14:06Z</time>
      </trkpt>
      <trkpt lat="47.5794450" lon="8.9873150">
        <ele>-83.6</ele>
        <time>2022-06-10T08:14:10Z</time>
      </trkpt>
      <trkpt lat="47.5794030" lon="8.9870330">
        <ele>-83.2</ele>
        <time>2022-06-10T08:14:14Z</time>
      </trkpt>
      <trkpt lat="47.5793560" lon="8.9867630">
        <ele>-83.2</ele>
        <time>2022-06-10T08:14:18Z</time>
      </trkpt>
      <trkpt lat="47.5793130" lon="8.9864880">
        <ele>-82.8</ele>
        <time>2022-06-10T08:14:22Z</time>
      </trkpt>
      <trkpt lat="47.5792700" lon="8.9862080">
        <ele>-82.2</ele>
        <time>2022-06-10T08:14:26Z</time>
      </trkpt>
      <trkpt lat="47.5792280" lon="8.9859280">
        <ele>-82.6</ele>
        <time>2022-06-10T08:14:30Z</time>
      </trkpt>
      <trkpt lat="47.5791860" lon="8.9856500">
        <ele>-82.4</ele>
        <time>2022-06-10T08:14:34Z</time>
      </trkpt>
      <trkpt lat="47.5791400" lon="8.9853680">
        <ele>-82.2</ele>
        <time>2022-06-10T08:14:38Z</time>
      </trkpt>
      <trkpt lat="47.5790960" lon="8.9850900">
        <ele>-82.2</ele>
        <time>2022-06-10T08:14:42Z</time>
      </trkpt>
      <trkpt lat="47.5790530" lon="8.9848160">
        <ele>-82.2</ele>
        <time>2022-06-10T08:14:46Z</time>
      </trkpt>
      <trkpt lat="47.5790080" lon="8.9845460">
        <ele>-82.0</ele>
        <time>2022-06-10T08:14:50Z</time>
      </trkpt>
      <trkpt lat="47.5789680" lon="8.9842800">
        <ele>-81.4</ele>
        <time>2022-06-10T08:14:54Z</time>
      </trkpt>
      <trkpt lat="47.5789260" lon="8.9840130">
        <ele>-81.6</ele>
        <time>2022-06-10T08:14:58Z</time>
      </trkpt>
      <trkpt lat="47.5788850" lon="8.9837450">
        <ele>-81.0</ele>
        <time>2022-06-10T08:15:02Z</time>
      </trkpt>
      <trkpt lat="47.5788410" lon="8.9834760">
        <ele>-80.8</ele>
        <time>2022-06-10T08:15:06Z</time>
      </trkpt>
      <trkpt lat="47.5788030" lon="8.9832180">
        <ele>-81.0</ele>
        <time>2022-06-10T08:15:10Z</time>
      </trkpt>
      <trkpt lat="47.5787650" lon="8.9829600">
        <ele>-80.8</ele>
        <time>2022-06-10T08:15:14Z</time>
      </trkpt>
      <trkpt lat="47.5787250" lon="8.9827100">
        <ele>-80.0</ele>
        <time>2022-06-10T08:15:18Z</time>
      </trkpt>
      <trkpt lat="47.5786850" lon="8.9824560">
        <ele>-79.6</ele>
        <time>2022-06-10T08:15:22Z</time>
      </trkpt>
      <trkpt lat="47.5786430" lon="8.9822080">
        <ele>-79.4</ele>
        <time>2022-06-10T08:15:26Z</time>
      </trkpt>
      <trkpt lat="47.5786110" lon="8.9819510">
        <ele>-79.2</ele>
        <time>2022-06-10T08:15:30Z</time>
      </trkpt>
      <trkpt lat="47.5785650" lon="8.9816880">
        <ele>-79.2</ele>
        <time>2022-06-10T08:15:34Z</time>
      </trkpt>
      <trkpt lat="47.5785300" lon="8.9814350">
        <ele>-77.8</ele>
        <time>2022-06-10T08:15:38Z</time>
      </trkpt>
      <trkpt lat="47.5784960" lon="8.9811900">
        <ele>-77.8</ele>
        <time>2022-06-10T08:15:42Z</time>
      </trkpt>
      <trkpt lat="47.5784600" lon="8.9809510">
        <ele>-76.8</ele>
        <time>2022-06-10T08:15:46Z</time>
      </trkpt>
      <trkpt lat="47.5784180" lon="8.9807100">
        <ele>-76.4</ele>
        <time>2022-06-10T08:15:50Z</time>
      </trkpt>
      <trkpt lat="47.5783750" lon="8.9804610">
        <ele>-76.2</ele>
        <time>2022-06-10T08:15:54Z</time>
      </trkpt>
      <trkpt lat="47.5783400" lon="8.9802080">
        <ele>-76.6</ele>
        <time>2022-06-10T08:15:58Z</time>
      </trkpt>
      <trkpt lat="47.5783000" lon="8.9799480">
        <ele>-77.0</ele>
        <time>2022-06-10T08:16:02Z</time>
      </trkpt>
      <trkpt lat="47.5782630" lon="8.9796610">
        <ele>-77.6</ele>
        <time>2022-06-10T08:16:06Z</time>
      </trkpt>
      <trkpt lat="47.5782200" lon="8.9793450">
        <ele>-79.6</ele>
        <time>2022-06-10T08:16:10Z</time>
      </trkpt>
      <trkpt lat="47.5781750" lon="8.9789910">
        <ele>-80.0</ele>
        <time>2022-06-10T08:16:14Z</time>
      </trkpt>
      <trkpt lat="47.5781180" lon="8.9786030">
        <ele>-80.8</ele>
        <time>2022-06-10T08:16:18Z</time>
      </trkpt>
      <trkpt lat="47.5780560" lon="8.9781710">
        <ele>-82.6</ele>
        <time>2022-06-10T08:16:22Z</time>
      </trkpt>
      <trkpt lat="47.5779980" lon="8.9777250">
        <ele>-83.8</ele>
        <time>2022-06-10T08:16:26Z</time>
      </trkpt>
      <trkpt lat="47.5779350" lon="8.9772610">
        <ele>-84.6</ele>
        <time>2022-06-10T08:16:30Z</time>
      </trkpt>
      <trkpt lat="47.5778660" lon="8.9767950">
        <ele>-85.6</ele>
        <time>2022-06-10T08:16:34Z</time>
      </trkpt>
      <trkpt lat="47.5778080" lon="8.9763360">
        <ele>-85.0</ele>
        <time>2022-06-10T08:16:38Z</time>
      </trkpt>
      <trkpt lat="47.5777510" lon="8.9759030">
        <ele>-85.4</ele>
        <time>2022-06-10T08:16:42Z</time>
      </trkpt>
      <trkpt lat="47.5776960" lon="8.9755010">
        <ele>-85.0</ele>
        <time>2022-06-10T08:16:46Z</time>
      </trkpt>
      <trkpt lat="47.5776500" lon="8.9751410">
        <ele>-84.8</ele>
        <time>2022-06-10T08:16:50Z</time>
      </trkpt>
      <trkpt lat="47.5776050" lon="8.9748060">
        <ele>-85.4</ele>
        <time>2022-06-10T08:16:54Z</time>
      </trkpt>
      <trkpt lat="47.5775610" lon="8.9744750">
        <ele>-85.2</ele>
        <time>2022-06-10T08:16:58Z</time>
      </trkpt>
      <trkpt lat="47.5775160" lon="8.9741560">
        <ele>-84.6</ele>
        <time>2022-06-10T08:17:02Z</time>
      </trkpt>
      <trkpt lat="47.5774260" lon="8.9738750">
        <ele>-84.6</ele>
        <time>2022-06-10T08:17:06Z</time>
      </trkpt>
      <trkpt lat="47.5774250" lon="8.9735510">
        <ele>-85.2</ele>
        <time>2022-06-10T08:17:10Z</time>
      </trkpt>
      <trkpt lat="47.5773860" lon="8.9732330">
        <ele>-85.2</ele>
        <time>2022-06-10T08:17:14Z</time>
      </trkpt>
      <trkpt lat="47.5773410" lon="8.9729210">
        <ele>-85.4</ele>
        <time>2022-06-10T08:17:18Z</time>
      </trkpt>
      <trkpt lat="47.5773000" lon="8.9726010">
        <ele>-85.2</ele>
        <time>2022-06-10T08:17:22Z</time>
      </trkpt>
      <trkpt lat="47.5772530" lon="8.9722710">
        <ele>-85.8</ele>
        <time>2022-06-10T08:17:26Z</time>
      </trkpt>
      <trkpt lat="47.5772200" lon="8.9719480">
        <ele>-85.8</ele>
        <time>2022-06-10T08:17:30Z</time>
      </trkpt>
      <trkpt lat="47.5772050" lon="8.9716210">
        <ele>-85.8</ele>
        <time>2022-06-10T08:17:34Z</time>
      </trkpt>
      <trkpt lat="47.5772060" lon="8.9712950">
        <ele>-85.4</ele>
        <time>2022-06-10T08:17:38Z</time>
      </trkpt>
      <trkpt lat="47.5772250" lon="8.9709810">
        <ele>-85.4</ele>
        <time>2022-06-10T08:17:42Z</time>
      </trkpt>
      <trkpt lat="47.5772480" lon="8.9706700">
        <ele>-85.2</ele>
        <time>2022-06-10T08:17:46Z</time>
      </trkpt>
      <trkpt lat="47.5772880" lon="8.9703750">
        <ele>-85.4</ele>
        <time>2022-06-10T08:17:50Z</time>
      </trkpt>
      <trkpt lat="47.5773310" lon="8.9701400">
        <ele>-85.2</ele>
        <time>2022-06-10T08:17:54Z</time>
      </trkpt>
      <trkpt lat="47.5773730" lon="8.9699150">
        <ele>-85.0</ele>
        <time>2022-06-10T08:17:58Z</time>
      </trkpt>
      <trkpt lat="47.5774860" lon="8.9697310">
        <ele>-85.2</ele>
        <time>2022-06-10T08:18:02Z</time>
      </trkpt>
      <trkpt lat="47.5776160" lon="8.9694700">
        <ele>-84.6</ele>
        <time>2022-06-10T08:18:06Z</time>
      </trkpt>
      <trkpt lat="47.5777060" lon="8.9691660">
        <ele>-85.2</ele>
        <time>2022-06-10T08:18:10Z</time>
      </trkpt>
      <trkpt lat="47.5777860" lon="8.9688500">
        <ele>-85.6</ele>
        <time>2022-06-10T08:18:14Z</time>
      </trkpt>
      <trkpt lat="47.5778410" lon="8.9685150">
        <ele>-85.8</ele>
        <time>2022-06-10T08:18:18Z</time>
      </trkpt>
      <trkpt lat="47.5778730" lon="8.9681750">
        <ele>-86.0</ele>
        <time>2022-06-10T08:18:22Z</time>
      </trkpt>
      <trkpt lat="47.5778830" lon="8.9678360">
        <ele>-85.8</ele>
        <time>2022-06-10T08:18:26Z</time>
      </trkpt>
      <trkpt lat="47.5778730" lon="8.9675080">
        <ele>-86.0</ele>
        <time>2022-06-10T08:18:30Z</time>
      </trkpt>
      <trkpt lat="47.5778410" lon="8.9671660">
        <ele>-85.8</ele>
        <time>2022-06-10T08:18:34Z</time>
      </trkpt>
      <trkpt lat="47.5777950" lon="8.9668360">
        <ele>-85.8</ele>
        <time>2022-06-10T08:18:38Z</time>
      </trkpt>
      <trkpt lat="47.5777350" lon="8.9665160">
        <ele>-86.4</ele>
        <time>2022-06-10T08:18:42Z</time>
      </trkpt>
      <trkpt lat="47.5776530" lon="8.9662260">
        <ele>-86.8</ele>
        <time>2022-06-10T08:18:46Z</time>
      </trkpt>
      <trkpt lat="47.5775450" lon="8.9659580">
        <ele>-87.2</ele>
        <time>2022-06-10T08:18:50Z</time>
      </trkpt>
      <trkpt lat="47.5774610" lon="8.9656680">
        <ele>-87.2</ele>
        <time>2022-06-10T08:18:54Z</time>
      </trkpt>
      <trkpt lat="47.5773930" lon="8.9653380">
        <ele>-86.2</ele>
        <time>2022-06-10T08:18:58Z</time>
      </trkpt>
      <trkpt lat="47.5773200" lon="8.9650010">
        <ele>-87.6</ele>
        <time>2022-06-10T08:19:02Z</time>
      </trkpt>
      <trkpt lat="47.5772430" lon="8.9646560">
        <ele>-88.4</ele>
        <time>2022-06-10T08:19:06Z</time>
      </trkpt>
      <trkpt lat="47.5771660" lon="8.9643110">
        <ele>-87.8</ele>
        <time>2022-06-10T08:19:10Z</time>
      </trkpt>
      <trkpt lat="47.5770910" lon="8.9639680">
        <ele>-88.0</ele>
        <time>2022-06-10T08:19:14Z</time>
      </trkpt>
      <trkpt lat="47.5770180" lon="8.9636280">
        <ele>-88.0</ele>
        <time>2022-06-10T08:19:18Z</time>
      </trkpt>
      <trkpt lat="47.5769450" lon="8.9633030">
        <ele>-88.2</ele>
        <time>2022-06-10T08:19:22Z</time>
      </trkpt>
      <trkpt lat="47.5768660" lon="8.9629780">
        <ele>-88.0</ele>
        <time>2022-06-10T08:19:26Z</time>
      </trkpt>
      <trkpt lat="47.5767880" lon="8.9626560">
        <ele>-87.8</ele>
        <time>2022-06-10T08:19:30Z</time>
      </trkpt>
      <trkpt lat="47.5767200" lon="8.9623330">
        <ele>-88.0</ele>
        <time>2022-06-10T08:19:34Z</time>
      </trkpt>
      <trkpt lat="47.5766510" lon="8.9620330">
        <ele>-87.8</ele>
        <time>2022-06-10T08:19:38Z</time>
      </trkpt>
      <trkpt lat="47.5765980" lon="8.9617700">
        <ele>-87.8</ele>
        <time>2022-06-10T08:19:42Z</time>
      </trkpt>
      <trkpt lat="47.5765360" lon="8.9615010">
        <ele>-87.8</ele>
        <time>2022-06-10T08:19:46Z</time>
      </trkpt>
      <trkpt lat="47.5764710" lon="8.9612150">
        <ele>-87.8</ele>
        <time>2022-06-10T08:19:50Z</time>
      </trkpt>
      <trkpt lat="47.5764060" lon="8.9609160">
        <ele>-87.8</ele>
        <time>2022-06-10T08:19:54Z</time>
      </trkpt>
      <trkpt lat="47.5763400" lon="8.9606210">
        <ele>-88.0</ele>
        <time>2022-06-10T08:19:58Z</time>
      </trkpt>
      <trkpt lat="47.5762750" lon="8.9603230">
        <ele>-88.4</ele>
        <time>2022-06-10T08:20:02Z</time>
      </trkpt>
      <trkpt lat="47.5762110" lon="8.9600280">
        <ele>-88.8</ele>
        <time>2022-06-10T08:20:06Z</time>
      </trkpt>
      <trkpt lat="47.5761460" lon="8.9597350">
        <ele>-88.0</ele>
        <time>2022-06-10T08:20:10Z</time>
      </trkpt>
      <trkpt lat="47.5760830" lon="8.9594450">
        <ele>-88.4</ele>
        <time>2022-06-10T08:20:14Z</time>
      </trkpt>
      <trkpt lat="47.5760210" lon="8.9591600">
        <ele>-88.4</ele>
        <time>2022-06-10T08:20:18Z</time>
      </trkpt>
      <trkpt lat="47.5759600" lon="8.9588850">
        <ele>-88.2</ele>
        <time>2022-06-10T08:20:22Z</time>
      </trkpt>
      <trkpt lat="47.5759050" lon="8.9586410">
        <ele>-88.6</ele>
        <time>2022-06-10T08:20:26Z</time>
      </trkpt>
      <trkpt lat="47.5758850" lon="8.9584330">
        <ele>-88.8</ele>
        <time>2022-06-10T08:20:30Z</time>
      </trkpt>
      <trkpt lat="47.5759150" lon="8.9582250">
        <ele>-88.6</ele>
        <time>2022-06-10T08:20:34Z</time>
      </trkpt>
      <trkpt lat="47.5758610" lon="8.9579430">
        <ele>-89.6</ele>
        <time>2022-06-10T08:20:38Z</time>
      </trkpt>
      <trkpt lat="47.5757880" lon="8.9576200">
        <ele>-89.2</ele>
        <time>2022-06-10T08:20:42Z</time>
      </trkpt>
      <trkpt lat="47.5757160" lon="8.9572850">
        <ele>-89.0</ele>
        <time>2022-06-10T08:20:46Z</time>
      </trkpt>
      <trkpt lat="47.5756480" lon="8.9569530">
        <ele>-89.6</ele>
        <time>2022-06-10T08:20:50Z</time>
      </trkpt>
      <trkpt lat="47.5755730" lon="8.9566300">
        <ele>-89.0</ele>
        <time>2022-06-10T08:20:54Z</time>
      </trkpt>
      <trkpt lat="47.5755050" lon="8.9563110">
        <ele>-89.4</ele>
        <time>2022-06-10T08:20:58Z</time>
      </trkpt>
      <trkpt lat="47.5754360" lon="8.9560010">
        <ele>-89.8</ele>
        <time>2022-06-10T08:21:02Z</time>
      </trkpt>
      <trkpt lat="47.5753700" lon="8.9556980">
        <ele>-89.6</ele>
        <time>2022-06-10T08:21:06Z</time>
      </trkpt>
      <trkpt lat="47.5753030" lon="8.9554010">
        <ele>-89.4</ele>
        <time>2022-06-10T08:21:10Z</time>
      </trkpt>
      <trkpt lat="47.5752360" lon="8.9551060">
        <ele>-89.6</ele>
        <time>2022-06-10T08:21:14Z</time>
      </trkpt>
      <trkpt lat="47.5751730" lon="8.9548130">
        <ele>-89.8</ele>
        <time>2022-06-10T08:21:18Z</time>
      </trkpt>
      <trkpt lat="47.5751030" lon="8.9545000">
        <ele>-90.0</ele>
        <time>2022-06-10T08:21:22Z</time>
      </trkpt>
      <trkpt lat="47.5750300" lon="8.9541830">
        <ele>-90.0</ele>
        <time>2022-06-10T08:21:26Z</time>
      </trkpt>
      <trkpt lat="47.5749460" lon="8.9538380">
        <ele>-89.4</ele>
        <time>2022-06-10T08:21:30Z</time>
      </trkpt>
      <trkpt lat="47.5748600" lon="8.9534500">
        <ele>-90.0</ele>
        <time>2022-06-10T08:21:34Z</time>
      </trkpt>
      <trkpt lat="47.5747830" lon="8.9530730">
        <ele>-89.4</ele>
        <time>2022-06-10T08:21:38Z</time>
      </trkpt>
      <trkpt lat="47.5747080" lon="8.9527030">
        <ele>-89.8</ele>
        <time>2022-06-10T08:21:42Z</time>
      </trkpt>
      <trkpt lat="47.5746310" lon="8.9523430">
        <ele>-90.2</ele>
        <time>2022-06-10T08:21:46Z</time>
      </trkpt>
      <trkpt lat="47.5745530" lon="8.9519850">
        <ele>-90.4</ele>
        <time>2022-06-10T08:21:50Z</time>
      </trkpt>
      <trkpt lat="47.5744730" lon="8.9516330">
        <ele>-89.8</ele>
        <time>2022-06-10T08:21:54Z</time>
      </trkpt>
      <trkpt lat="47.5744000" lon="8.9512850">
        <ele>-90.0</ele>
        <time>2022-06-10T08:21:58Z</time>
      </trkpt>
      <trkpt lat="47.5743260" lon="8.9509460">
        <ele>-89.2</ele>
        <time>2022-06-10T08:22:02Z</time>
      </trkpt>
      <trkpt lat="47.5742560" lon="8.9506210">
        <ele>-89.2</ele>
        <time>2022-06-10T08:22:06Z</time>
      </trkpt>
      <trkpt lat="47.5741810" lon="8.9503130">
        <ele>-89.0</ele>
        <time>2022-06-10T08:22:10Z</time>
      </trkpt>
      <trkpt lat="47.5741100" lon="8.9500130">
        <ele>-89.0</ele>
        <time>2022-06-10T08:22:14Z</time>
      </trkpt>
      <trkpt lat="47.5740450" lon="8.9497180">
        <ele>-88.6</ele>
        <time>2022-06-10T08:22:18Z</time>
      </trkpt>
      <trkpt lat="47.5739780" lon="8.9494300">
        <ele>-88.0</ele>
        <time>2022-06-10T08:22:22Z</time>
      </trkpt>
      <trkpt lat="47.5739110" lon="8.9491460">
        <ele>-87.4</ele>
        <time>2022-06-10T08:22:26Z</time>
      </trkpt>
      <trkpt lat="47.5738510" lon="8.9488580">
        <ele>-87.0</ele>
        <time>2022-06-10T08:22:30Z</time>
      </trkpt>
      <trkpt lat="47.5737880" lon="8.9485660">
        <ele>-86.8</ele>
        <time>2022-06-10T08:22:34Z</time>
      </trkpt>
      <trkpt lat="47.5737300" lon="8.9482810">
        <ele>-85.8</ele>
        <time>2022-06-10T08:22:38Z</time>
      </trkpt>
      <trkpt lat="47.5736710" lon="8.9480080">
        <ele>-85.2</ele>
        <time>2022-06-10T08:22:42Z</time>
      </trkpt>
      <trkpt lat="47.5736060" lon="8.9477380">
        <ele>-84.6</ele>
        <time>2022-06-10T08:22:46Z</time>
      </trkpt>
      <trkpt lat="47.5735450" lon="8.9474750">
        <ele>-84.2</ele>
        <time>2022-06-10T08:22:50Z</time>
      </trkpt>
      <trkpt lat="47.5734880" lon="8.9472050">
        <ele>-83.4</ele>
        <time>2022-06-10T08:22:54Z</time>
      </trkpt>
      <trkpt lat="47.5734250" lon="8.9469430">
        <ele>-83.4</ele>
        <time>2022-06-10T08:22:58Z</time>
      </trkpt>
      <trkpt lat="47.5733660" lon="8.9467010">
        <ele>-83.0</ele>
        <time>2022-06-10T08:23:02Z</time>
      </trkpt>
      <trkpt lat="47.5733130" lon="8.9464610">
        <ele>-83.2</ele>
        <time>2022-06-10T08:23:06Z</time>
      </trkpt>
      <trkpt lat="47.5732600" lon="8.9462110">
        <ele>-83.4</ele>
        <time>2022-06-10T08:23:10Z</time>
      </trkpt>
      <trkpt lat="47.5732050" lon="8.9459400">
        <ele>-83.6</ele>
        <time>2022-06-10T08:23:14Z</time>
      </trkpt>
      <trkpt lat="47.5731330" lon="8.9456300">
        <ele>-84.6</ele>
        <time>2022-06-10T08:23:18Z</time>
      </trkpt>
      <trkpt lat="47.5730900" lon="8.9452860">
        <ele>-85.8</ele>
        <time>2022-06-10T08:23:22Z</time>
      </trkpt>
      <trkpt lat="47.5729730" lon="8.9450300">
        <ele>-86.6</ele>
        <time>2022-06-10T08:23:26Z</time>
      </trkpt>
      <trkpt lat="47.5727710" lon="8.9449150">
        <ele>-86.2</ele>
        <time>2022-06-10T08:23:30Z</time>
      </trkpt>
      <trkpt lat="47.5725910" lon="8.9447380">
        <ele>-86.0</ele>
        <time>2022-06-10T08:23:34Z</time>
      </trkpt>
      <trkpt lat="47.5724150" lon="8.9445610">
        <ele>-86.8</ele>
        <time>2022-06-10T08:23:38Z</time>
      </trkpt>
      <trkpt lat="47.5722350" lon="8.9443830">
        <ele>-87.4</ele>
        <time>2022-06-10T08:23:42Z</time>
      </trkpt>
      <trkpt lat="47.5720460" lon="8.9442030">
        <ele>-87.8</ele>
        <time>2022-06-10T08:23:46Z</time>
      </trkpt>
      <trkpt lat="47.5718600" lon="8.9440130">
        <ele>-87.4</ele>
        <time>2022-06-10T08:23:50Z</time>
      </trkpt>
      <trkpt lat="47.5716480" lon="8.9438980">
        <ele>-87.2</ele>
        <time>2022-06-10T08:23:54Z</time>
      </trkpt>
      <trkpt lat="47.5714480" lon="8.9438100">
        <ele>-86.8</ele>
        <time>2022-06-10T08:23:58Z</time>
      </trkpt>
      <trkpt lat="47.5712680" lon="8.9436760">
        <ele>-85.8</ele>
        <time>2022-06-10T08:24:02Z</time>
      </trkpt>
      <trkpt lat="47.5711110" lon="8.9435030">
        <ele>-86.2</ele>
        <time>2022-06-10T08:24:06Z</time>
      </trkpt>
      <trkpt lat="47.5709560" lon="8.9433380">
        <ele>-85.4</ele>
        <time>2022-06-10T08:24:10Z</time>
      </trkpt>
      <trkpt lat="47.5708130" lon="8.9431610">
        <ele>-85.2</ele>
        <time>2022-06-10T08:24:14Z</time>
      </trkpt>
      <trkpt lat="47.5707030" lon="8.9429900">
        <ele>-84.0</ele>
        <time>2022-06-10T08:24:18Z</time>
      </trkpt>
      <trkpt lat="47.5706430" lon="8.9427800">
        <ele>-83.8</ele>
        <time>2022-06-10T08:24:22Z</time>
      </trkpt>
      <trkpt lat="47.5705600" lon="8.9425030">
        <ele>-85.6</ele>
        <time>2022-06-10T08:24:26Z</time>
      </trkpt>
      <trkpt lat="47.5704530" lon="8.9421200">
        <ele>-87.2</ele>
        <time>2022-06-10T08:24:30Z</time>
      </trkpt>
      <trkpt lat="47.5703550" lon="8.9416610">
        <ele>-88.0</ele>
        <time>2022-06-10T08:24:34Z</time>
      </trkpt>
      <trkpt lat="47.5702900" lon="8.9411800">
        <ele>-89.6</ele>
        <time>2022-06-10T08:24:38Z</time>
      </trkpt>
      <trkpt lat="47.5702430" lon="8.9407080">
        <ele>-90.2</ele>
        <time>2022-06-10T08:24:42Z</time>
      </trkpt>
      <trkpt lat="47.5701830" lon="8.9402550">
        <ele>-90.2</ele>
        <time>2022-06-10T08:24:46Z</time>
      </trkpt>
      <trkpt lat="47.5700880" lon="8.9398550">
        <ele>-91.8</ele>
        <time>2022-06-10T08:24:50Z</time>
      </trkpt>
      <trkpt lat="47.5699950" lon="8.9394760">
        <ele>-91.6</ele>
        <time>2022-06-10T08:24:54Z</time>
      </trkpt>
      <trkpt lat="47.5699080" lon="8.9391310">
        <ele>-91.0</ele>
        <time>2022-06-10T08:24:58Z</time>
      </trkpt>
      <trkpt lat="47.5698300" lon="8.9388060">
        <ele>-91.4</ele>
        <time>2022-06-10T08:25:02Z</time>
      </trkpt>
      <trkpt lat="47.5697500" lon="8.9384910">
        <ele>-91.4</ele>
        <time>2022-06-10T08:25:06Z</time>
      </trkpt>
      <trkpt lat="47.5696750" lon="8.9381800">
        <ele>-91.0</ele>
        <time>2022-06-10T08:25:10Z</time>
      </trkpt>
      <trkpt lat="47.5696160" lon="8.9378730">
        <ele>-91.2</ele>
        <time>2022-06-10T08:25:14Z</time>
      </trkpt>
      <trkpt lat="47.5695710" lon="8.9375500">
        <ele>-91.6</ele>
        <time>2022-06-10T08:25:18Z</time>
      </trkpt>
      <trkpt lat="47.5695500" lon="8.9371900">
        <ele>-92.4</ele>
        <time>2022-06-10T08:25:22Z</time>
      </trkpt>
      <trkpt lat="47.5695500" lon="8.9368280">
        <ele>-92.6</ele>
        <time>2022-06-10T08:25:26Z</time>
      </trkpt>
      <trkpt lat="47.5695650" lon="8.9364930">
        <ele>-92.4</ele>
        <time>2022-06-10T08:25:30Z</time>
      </trkpt>
      <trkpt lat="47.5695630" lon="8.9361660">
        <ele>-92.4</ele>
        <time>2022-06-10T08:25:34Z</time>
      </trkpt>
      <trkpt lat="47.5695050" lon="8.9358660">
        <ele>-92.2</ele>
        <time>2022-06-10T08:25:38Z</time>
      </trkpt>
      <trkpt lat="47.5694080" lon="8.9355910">
        <ele>-91.4</ele>
        <time>2022-06-10T08:25:42Z</time>
      </trkpt>
      <trkpt lat="47.5693200" lon="8.9353500">
        <ele>-90.6</ele>
        <time>2022-06-10T08:25:46Z</time>
      </trkpt>
      <trkpt lat="47.5692410" lon="8.9351460">
        <ele>-90.4</ele>
        <time>2022-06-10T08:25:50Z</time>
      </trkpt>
      <trkpt lat="47.5691760" lon="8.9349650">
        <ele>-90.2</ele>
        <time>2022-06-10T08:25:54Z</time>
      </trkpt>
      <trkpt lat="47.5691200" lon="8.9347750">
        <ele>-90.2</ele>
        <time>2022-06-10T08:25:58Z</time>
      </trkpt>
      <trkpt lat="47.5690710" lon="8.9345660">
        <ele>-90.2</ele>
        <time>2022-06-10T08:26:02Z</time>
      </trkpt>
      <trkpt lat="47.5690430" lon="8.9343310">
        <ele>-91.0</ele>
        <time>2022-06-10T08:26:06Z</time>
      </trkpt>
      <trkpt lat="47.5690080" lon="8.9340730">
        <ele>-91.2</ele>
        <time>2022-06-10T08:26:10Z</time>
      </trkpt>
      <trkpt lat="47.5689580" lon="8.9337660">
        <ele>-91.6</ele>
        <time>2022-06-10T08:26:14Z</time>
      </trkpt>
      <trkpt lat="47.5689000" lon="8.9334410">
        <ele>-91.6</ele>
        <time>2022-06-10T08:26:18Z</time>
      </trkpt>
      <trkpt lat="47.5688400" lon="8.9331060">
        <ele>-91.8</ele>
        <time>2022-06-10T08:26:22Z</time>
      </trkpt>
      <trkpt lat="47.5687610" lon="8.9327830">
        <ele>-92.0</ele>
        <time>2022-06-10T08:26:26Z</time>
      </trkpt>
      <trkpt lat="47.5686760" lon="8.9324810">
        <ele>-92.2</ele>
        <time>2022-06-10T08:26:30Z</time>
      </trkpt>
      <trkpt lat="47.5685860" lon="8.9321910">
        <ele>-91.6</ele>
        <time>2022-06-10T08:26:34Z</time>
      </trkpt>
      <trkpt lat="47.5685080" lon="8.9319160">
        <ele>-92.0</ele>
        <time>2022-06-10T08:26:38Z</time>
      </trkpt>
      <trkpt lat="47.5684260" lon="8.9316410">
        <ele>-92.2</ele>
        <time>2022-06-10T08:26:42Z</time>
      </trkpt>
      <trkpt lat="47.5683560" lon="8.9313910">
        <ele>-90.4</ele>
        <time>2022-06-10T08:26:46Z</time>
      </trkpt>
      <trkpt lat="47.5682980" lon="8.9311500">
        <ele>-90.0</ele>
        <time>2022-06-10T08:26:50Z</time>
      </trkpt>
      <trkpt lat="47.5682650" lon="8.9309100">
        <ele>-89.0</ele>
        <time>2022-06-10T08:26:54Z</time>
      </trkpt>
      <trkpt lat="47.5682560" lon="8.9306700">
        <ele>-88.8</ele>
        <time>2022-06-10T08:26:58Z</time>
      </trkpt>
      <trkpt lat="47.5682400" lon="8.9304250">
        <ele>-88.6</ele>
        <time>2022-06-10T08:27:02Z</time>
      </trkpt>
      <trkpt lat="47.5681930" lon="8.9301880">
        <ele>-88.0</ele>
        <time>2022-06-10T08:27:06Z</time>
      </trkpt>
      <trkpt lat="47.5681160" lon="8.9299660">
        <ele>-87.8</ele>
        <time>2022-06-10T08:27:10Z</time>
      </trkpt>
      <trkpt lat="47.5680160" lon="8.9297760">
        <ele>-87.0</ele>
        <time>2022-06-10T08:27:14Z</time>
      </trkpt>
      <trkpt lat="47.5679080" lon="8.9296050">
        <ele>-86.2</ele>
        <time>2022-06-10T08:27:18Z</time>
      </trkpt>
      <trkpt lat="47.5678000" lon="8.9294300">
        <ele>-86.2</ele>
        <time>2022-06-10T08:27:22Z</time>
      </trkpt>
      <trkpt lat="47.5677130" lon="8.9292350">
        <ele>-86.0</ele>
        <time>2022-06-10T08:27:26Z</time>
      </trkpt>
      <trkpt lat="47.5676610" lon="8.9290080">
        <ele>-85.8</ele>
        <time>2022-06-10T08:27:30Z</time>
      </trkpt>
      <trkpt lat="47.5676030" lon="8.9287660">
        <ele>-85.6</ele>
        <time>2022-06-10T08:27:34Z</time>
      </trkpt>
      <trkpt lat="47.5675500" lon="8.9285330">
        <ele>-85.8</ele>
        <time>2022-06-10T08:27:38Z</time>
      </trkpt>
      <trkpt lat="47.5674810" lon="8.9283000">
        <ele>-86.2</ele>
        <time>2022-06-10T08:27:42Z</time>
      </trkpt>
      <trkpt lat="47.5673680" lon="8.9280930">
        <ele>-85.6</ele>
        <time>2022-06-10T08:27:46Z</time>
      </trkpt>
      <trkpt lat="47.5672580" lon="8.9279130">
        <ele>-85.2</ele>
        <time>2022-06-10T08:27:50Z</time>
      </trkpt>
      <trkpt lat="47.5671980" lon="8.9277780">
        <ele>-84.4</ele>
        <time>2022-06-10T08:27:54Z</time>
      </trkpt>
      <trkpt lat="47.5671230" lon="8.9275750">
        <ele>-84.2</ele>
        <time>2022-06-10T08:27:58Z</time>
      </trkpt>
      <trkpt lat="47.5670800" lon="8.9273510">
        <ele>-84.6</ele>
        <time>2022-06-10T08:28:02Z</time>
      </trkpt>
      <trkpt lat="47.5670260" lon="8.9271400">
        <ele>-84.6</ele>
        <time>2022-06-10T08:28:06Z</time>
      </trkpt>
      <trkpt lat="47.5669650" lon="8.9268910">
        <ele>-84.0</ele>
        <time>2022-06-10T08:28:10Z</time>
      </trkpt>
      <trkpt lat="47.5668980" lon="8.9266630">
        <ele>-83.6</ele>
        <time>2022-06-10T08:28:14Z</time>
      </trkpt>
      <trkpt lat="47.5668350" lon="8.9264430">
        <ele>-83.2</ele>
        <time>2022-06-10T08:28:18Z</time>
      </trkpt>
      <trkpt lat="47.5667860" lon="8.9262230">
        <ele>-82.6</ele>
        <time>2022-06-10T08:28:22Z</time>
      </trkpt>
      <trkpt lat="47.5667230" lon="8.9259810">
        <ele>-82.0</ele>
        <time>2022-06-10T08:28:26Z</time>
      </trkpt>
      <trkpt lat="47.5667000" lon="8.9256530">
        <ele>-83.8</ele>
        <time>2022-06-10T08:28:30Z</time>
      </trkpt>
      <trkpt lat="47.5666830" lon="8.9252980">
        <ele>-84.2</ele>
        <time>2022-06-10T08:28:34Z</time>
      </trkpt>
      <trkpt lat="47.5666880" lon="8.9248810">
        <ele>-86.0</ele>
        <time>2022-06-10T08:28:38Z</time>
      </trkpt>
      <trkpt lat="47.5666860" lon="8.9244910">
        <ele>-86.2</ele>
        <time>2022-06-10T08:28:42Z</time>
      </trkpt>
      <trkpt lat="47.5666530" lon="8.9242200">
        <ele>-87.8</ele>
        <time>2022-06-10T08:28:46Z</time>
      </trkpt>
      <trkpt lat="47.5665580" lon="8.9239600">
        <ele>-87.2</ele>
        <time>2022-06-10T08:28:50Z</time>
      </trkpt>
      <trkpt lat="47.5664380" lon="8.9237400">
        <ele>-86.4</ele>
        <time>2022-06-10T08:28:54Z</time>
      </trkpt>
      <trkpt lat="47.5663310" lon="8.9235450">
        <ele>-85.0</ele>
        <time>2022-06-10T08:28:58Z</time>
      </trkpt>
      <trkpt lat="47.5662610" lon="8.9233410">
        <ele>-84.0</ele>
        <time>2022-06-10T08:29:02Z</time>
      </trkpt>
      <trkpt lat="47.5661830" lon="8.9231850">
        <ele>-83.2</ele>
        <time>2022-06-10T08:29:06Z</time>
      </trkpt>
      <trkpt lat="47.5661330" lon="8.9230080">
        <ele>-82.2</ele>
        <time>2022-06-10T08:29:10Z</time>
      </trkpt>
      <trkpt lat="47.5660680" lon="8.9228250">
        <ele>-82.0</ele>
        <time>2022-06-10T08:29:14Z</time>
      </trkpt>
      <trkpt lat="47.5660130" lon="8.9226330">
        <ele>-81.6</ele>
        <time>2022-06-10T08:29:18Z</time>
      </trkpt>
      <trkpt lat="47.5659510" lon="8.9224280">
        <ele>-81.0</ele>
        <time>2022-06-10T08:29:22Z</time>
      </trkpt>
      <trkpt lat="47.5658860" lon="8.9222150">
        <ele>-80.8</ele>
        <time>2022-06-10T08:29:26Z</time>
      </trkpt>
      <trkpt lat="47.5658150" lon="8.9219910">
        <ele>-80.8</ele>
        <time>2022-06-10T08:29:30Z</time>
      </trkpt>
      <trkpt lat="47.5657410" lon="8.9217910">
        <ele>-80.4</ele>
        <time>2022-06-10T08:29:34Z</time>
      </trkpt>
      <trkpt lat="47.5656600" lon="8.9215760">
        <ele>-79.8</ele>
        <time>2022-06-10T08:29:38Z</time>
      </trkpt>
      <trkpt lat="47.5655800" lon="8.9213580">
        <ele>-80.2</ele>
        <time>2022-06-10T08:29:42Z</time>
      </trkpt>
      <trkpt lat="47.5655010" lon="8.9211450">
        <ele>-80.0</ele>
        <time>2022-06-10T08:29:46Z</time>
      </trkpt>
      <trkpt lat="47.5654210" lon="8.9209300">
        <ele>-79.0</ele>
        <time>2022-06-10T08:29:50Z</time>
      </trkpt>
      <trkpt lat="47.5653430" lon="8.9207100">
        <ele>-78.8</ele>
        <time>2022-06-10T08:29:54Z</time>
      </trkpt>
      <trkpt lat="47.5652680" lon="8.9204980">
        <ele>-78.2</ele>
        <time>2022-06-10T08:29:58Z</time>
      </trkpt>
      <trkpt lat="47.5651900" lon="8.9202860">
        <ele>-78.4</ele>
        <time>2022-06-10T08:30:02Z</time>
      </trkpt>
      <trkpt lat="47.5651010" lon="8.9200730">
        <ele>-78.4</ele>
        <time>2022-06-10T08:30:06Z</time>
      </trkpt>
      <trkpt lat="47.5650180" lon="8.9198560">
        <ele>-77.4</ele>
        <time>2022-06-10T08:30:10Z</time>
      </trkpt>
      <trkpt lat="47.5649150" lon="8.9196480">
        <ele>-77.2</ele>
        <time>2022-06-10T08:30:14Z</time>
      </trkpt>
      <trkpt lat="47.5648410" lon="8.9194480">
        <ele>-76.6</ele>
        <time>2022-06-10T08:30:18Z</time>
      </trkpt>
      <trkpt lat="47.5647460" lon="8.9192560">
        <ele>-76.4</ele>
        <time>2022-06-10T08:30:22Z</time>
      </trkpt>
      <trkpt lat="47.5646530" lon="8.9190780">
        <ele>-76.2</ele>
        <time>2022-06-10T08:30:26Z</time>
      </trkpt>
      <trkpt lat="47.5645700" lon="8.9188760">
        <ele>-75.6</ele>
        <time>2022-06-10T08:30:30Z</time>
      </trkpt>
      <trkpt lat="47.5644900" lon="8.9186450">
        <ele>-74.6</ele>
        <time>2022-06-10T08:30:34Z</time>
      </trkpt>
      <trkpt lat="47.5644230" lon="8.9184160">
        <ele>-74.6</ele>
        <time>2022-06-10T08:30:38Z</time>
      </trkpt>
      <trkpt lat="47.5643550" lon="8.9182050">
        <ele>-74.6</ele>
        <time>2022-06-10T08:30:42Z</time>
      </trkpt>
      <trkpt lat="47.5642950" lon="8.9179960">
        <ele>-74.4</ele>
        <time>2022-06-10T08:30:46Z</time>
      </trkpt>
      <trkpt lat="47.5642310" lon="8.9177830">
        <ele>-74.2</ele>
        <time>2022-06-10T08:30:50Z</time>
      </trkpt>
      <trkpt lat="47.5641610" lon="8.9175550">
        <ele>-74.6</ele>
        <time>2022-06-10T08:30:54Z</time>
      </trkpt>
      <trkpt lat="47.5640930" lon="8.9173400">
        <ele>-74.2</ele>
        <time>2022-06-10T08:30:58Z</time>
      </trkpt>
      <trkpt lat="47.5640250" lon="8.9171350">
        <ele>-74.4</ele>
        <time>2022-06-10T08:31:02Z</time>
      </trkpt>
      <trkpt lat="47.5639580" lon="8.9169330">
        <ele>-73.8</ele>
        <time>2022-06-10T08:31:06Z</time>
      </trkpt>
      <trkpt lat="47.5638900" lon="8.9167260">
        <ele>-74.0</ele>
        <time>2022-06-10T08:31:10Z</time>
      </trkpt>
      <trkpt lat="47.5638130" lon="8.9165250">
        <ele>-73.8</ele>
        <time>2022-06-10T08:31:14Z</time>
      </trkpt>
      <trkpt lat="47.5637480" lon="8.9163350">
        <ele>-73.0</ele>
        <time>2022-06-10T08:31:18Z</time>
      </trkpt>
      <trkpt lat="47.5636760" lon="8.9161360">
        <ele>-72.6</ele>
        <time>2022-06-10T08:31:22Z</time>
      </trkpt>
      <trkpt lat="47.5636030" lon="8.9159360">
        <ele>-73.0</ele>
        <time>2022-06-10T08:31:26Z</time>
      </trkpt>
      <trkpt lat="47.5635230" lon="8.9157330">
        <ele>-72.8</ele>
        <time>2022-06-10T08:31:30Z</time>
      </trkpt>
      <trkpt lat="47.5634450" lon="8.9155250">
        <ele>-73.0</ele>
        <time>2022-06-10T08:31:34Z</time>
      </trkpt>
      <trkpt lat="47.5633600" lon="8.9153300">
        <ele>-72.8</ele>
        <time>2022-06-10T08:31:38Z</time>
      </trkpt>
      <trkpt lat="47.5632900" lon="8.9151410">
        <ele>-72.6</ele>
        <time>2022-06-10T08:31:42Z</time>
      </trkpt>
      <trkpt lat="47.5632350" lon="8.9149350">
        <ele>-72.2</ele>
        <time>2022-06-10T08:31:46Z</time>
      </trkpt>
      <trkpt lat="47.5631760" lon="8.9147200">
        <ele>-71.8</ele>
        <time>2022-06-10T08:31:50Z</time>
      </trkpt>
      <trkpt lat="47.5631110" lon="8.9145060">
        <ele>-72.0</ele>
        <time>2022-06-10T08:31:54Z</time>
      </trkpt>
      <trkpt lat="47.5630630" lon="8.9142880">
        <ele>-71.8</ele>
        <time>2022-06-10T08:31:58Z</time>
      </trkpt>
      <trkpt lat="47.5630180" lon="8.9140730">
        <ele>-71.6</ele>
        <time>2022-06-10T08:32:02Z</time>
      </trkpt>
      <trkpt lat="47.5629810" lon="8.9138360">
        <ele>-71.8</ele>
        <time>2022-06-10T08:32:06Z</time>
      </trkpt>
      <trkpt lat="47.5629310" lon="8.9135830">
        <ele>-71.6</ele>
        <time>2022-06-10T08:32:10Z</time>
      </trkpt>
      <trkpt lat="47.5628650" lon="8.9133230">
        <ele>-70.8</ele>
        <time>2022-06-10T08:32:14Z</time>
      </trkpt>
      <trkpt lat="47.5627980" lon="8.9130800">
        <ele>-70.4</ele>
        <time>2022-06-10T08:32:18Z</time>
      </trkpt>
      <trkpt lat="47.5627250" lon="8.9128600">
        <ele>-70.0</ele>
        <time>2022-06-10T08:32:22Z</time>
      </trkpt>
      <trkpt lat="47.5626560" lon="8.9126680">
        <ele>-68.2</ele>
        <time>2022-06-10T08:32:26Z</time>
      </trkpt>
      <trkpt lat="47.5625760" lon="8.9124950">
        <ele>-67.2</ele>
        <time>2022-06-10T08:32:30Z</time>
      </trkpt>
      <trkpt lat="47.5625000" lon="8.9123230">
        <ele>-66.2</ele>
        <time>2022-06-10T08:32:34Z</time>
      </trkpt>
      <trkpt lat="47.5624280" lon="8.9121610">
        <ele>-65.4</ele>
        <time>2022-06-10T08:32:38Z</time>
      </trkpt>
      <trkpt lat="47.5623460" lon="8.9119960">
        <ele>-64.8</ele>
        <time>2022-06-10T08:32:42Z</time>
      </trkpt>
      <trkpt lat="47.5622660" lon="8.9118380">
        <ele>-63.6</ele>
        <time>2022-06-10T08:32:46Z</time>
      </trkpt>
      <trkpt lat="47.5621850" lon="8.9116850">
        <ele>-62.4</ele>
        <time>2022-06-10T08:32:50Z</time>
      </trkpt>
      <trkpt lat="47.5621260" lon="8.9115280">
        <ele>-61.8</ele>
        <time>2022-06-10T08:32:54Z</time>
      </trkpt>
      <trkpt lat="47.5620480" lon="8.9113700">
        <ele>-61.0</ele>
        <time>2022-06-10T08:32:58Z</time>
      </trkpt>
      <trkpt lat="47.5619750" lon="8.9112160">
        <ele>-60.2</ele>
        <time>2022-06-10T08:33:02Z</time>
      </trkpt>
      <trkpt lat="47.5618880" lon="8.9110860">
        <ele>-59.0</ele>
        <time>2022-06-10T08:33:06Z</time>
      </trkpt>
      <trkpt lat="47.5617830" lon="8.9110310">
        <ele>-57.8</ele>
        <time>2022-06-10T08:33:10Z</time>
      </trkpt>
      <trkpt lat="47.5616880" lon="8.9109880">
        <ele>-56.8</ele>
        <time>2022-06-10T08:33:14Z</time>
      </trkpt>
      <trkpt lat="47.5616010" lon="8.9109710">
        <ele>-56.2</ele>
        <time>2022-06-10T08:33:18Z</time>
      </trkpt>
      <trkpt lat="47.5615360" lon="8.9109400">
        <ele>-56.0</ele>
        <time>2022-06-10T08:33:22Z</time>
      </trkpt>
      <trkpt lat="47.5614760" lon="8.9109250">
        <ele>-55.6</ele>
        <time>2022-06-10T08:33:26Z</time>
      </trkpt>
      <trkpt lat="47.5614250" lon="8.9109000">
        <ele>-55.2</ele>
        <time>2022-06-10T08:33:30Z</time>
      </trkpt>
      <trkpt lat="47.5613730" lon="8.9108580">
        <ele>-54.8</ele>
        <time>2022-06-10T08:33:34Z</time>
      </trkpt>
      <trkpt lat="47.5613350" lon="8.9108050">
        <ele>-54.8</ele>
        <time>2022-06-10T08:33:38Z</time>
      </trkpt>
      <trkpt lat="47.5613350" lon="8.9108050">
        <ele>-54.8</ele>
        <time>2022-06-10T08:33:42Z</time>
      </trkpt>
      <trkpt lat="47.5613350" lon="8.9108050">
        <ele>-54.6</ele>
        <time>2022-06-10T08:33:46Z</time>
      </trkpt>
      <trkpt lat="47.5613350" lon="8.9108050">
        <ele>-54.6</ele>
        <time>2022-06-10T08:33:50Z</time>
      </trkpt>
      <trkpt lat="47.5613350" lon="8.9108050">
        <ele>-54.6</ele>
        <time>2022-06-10T08:33:54Z</time>
      </trkpt>
      <trkpt lat="47.5613350" lon="8.9108050">
        <ele>-54.4</ele>
        <time>2022-06-10T08:33:58Z</time>
      </trkpt>
      <trkpt lat="47.5613160" lon="8.9107560">
        <ele>-54.6</ele>
        <time>2022-06-10T08:34:02Z</time>
      </trkpt>
      <trkpt lat="47.5613080" lon="8.9106530">
        <ele>-54.6</ele>
        <time>2022-06-10T08:34:06Z</time>
      </trkpt>
      <trkpt lat="47.5612950" lon="8.9104760">
        <ele>-55.0</ele>
        <time>2022-06-10T08:34:10Z</time>
      </trkpt>
      <trkpt lat="47.5612700" lon="8.9102610">
        <ele>-55.6</ele>
        <time>2022-06-10T08:34:14Z</time>
      </trkpt>
      <trkpt lat="47.5612260" lon="8.9100550">
        <ele>-55.8</ele>
        <time>2022-06-10T08:34:18Z</time>
      </trkpt>
      <trkpt lat="47.5611880" lon="8.9098710">
        <ele>-56.2</ele>
        <time>2022-06-10T08:34:22Z</time>
      </trkpt>
      <trkpt lat="47.5611500" lon="8.9096910">
        <ele>-56.4</ele>
        <time>2022-06-10T08:34:26Z</time>
      </trkpt>
      <trkpt lat="47.5610950" lon="8.9094660">
        <ele>-56.8</ele>
        <time>2022-06-10T08:34:30Z</time>
      </trkpt>
      <trkpt lat="47.5610410" lon="8.9092200">
        <ele>-57.2</ele>
        <time>2022-06-10T08:34:34Z</time>
      </trkpt>
      <trkpt lat="47.5609810" lon="8.9089630">
        <ele>-57.4</ele>
        <time>2022-06-10T08:34:38Z</time>
      </trkpt>
      <trkpt lat="47.5609350" lon="8.9087280">
        <ele>-57.8</ele>
        <time>2022-06-10T08:34:42Z</time>
      </trkpt>
      <trkpt lat="47.5608510" lon="8.9084600">
        <ele>-57.6</ele>
        <time>2022-06-10T08:34:46Z</time>
      </trkpt>
      <trkpt lat="47.5607850" lon="8.9081160">
        <ele>-59.2</ele>
        <time>2022-06-10T08:34:50Z</time>
      </trkpt>
      <trkpt lat="47.5607110" lon="8.9077550">
        <ele>-61.2</ele>
        <time>2022-06-10T08:34:54Z</time>
      </trkpt>
      <trkpt lat="47.5606360" lon="8.9073880">
        <ele>-62.0</ele>
        <time>2022-06-10T08:34:58Z</time>
      </trkpt>
      <trkpt lat="47.5605660" lon="8.9070000">
        <ele>-62.6</ele>
        <time>2022-06-10T08:35:02Z</time>
      </trkpt>
      <trkpt lat="47.5604900" lon="8.9066060">
        <ele>-64.2</ele>
        <time>2022-06-10T08:35:06Z</time>
      </trkpt>
      <trkpt lat="47.5604260" lon="8.9062110">
        <ele>-65.2</ele>
        <time>2022-06-10T08:35:10Z</time>
      </trkpt>
      <trkpt lat="47.5603800" lon="8.9057880">
        <ele>-66.2</ele>
        <time>2022-06-10T08:35:14Z</time>
      </trkpt>
      <trkpt lat="47.5603580" lon="8.9053450">
        <ele>-68.0</ele>
        <time>2022-06-10T08:35:18Z</time>
      </trkpt>
      <trkpt lat="47.5603730" lon="8.9049110">
        <ele>-69.6</ele>
        <time>2022-06-10T08:35:22Z</time>
      </trkpt>
      <trkpt lat="47.5604150" lon="8.9044900">
        <ele>-71.8</ele>
        <time>2022-06-10T08:35:26Z</time>
      </trkpt>
      <trkpt lat="47.5604580" lon="8.9041000">
        <ele>-72.4</ele>
        <time>2022-06-10T08:35:30Z</time>
      </trkpt>
      <trkpt lat="47.5605050" lon="8.9037580">
        <ele>-76.2</ele>
        <time>2022-06-10T08:35:34Z</time>
      </trkpt>
      <trkpt lat="47.5605280" lon="8.9035610">
        <ele>-76.6</ele>
        <time>2022-06-10T08:35:38Z</time>
      </trkpt>
      <trkpt lat="47.5605060" lon="8.9033280">
        <ele>-77.0</ele>
        <time>2022-06-10T08:35:42Z</time>
      </trkpt>
      <trkpt lat="47.5604610" lon="8.9030600">
        <ele>-78.2</ele>
        <time>2022-06-10T08:35:46Z</time>
      </trkpt>
      <trkpt lat="47.5603950" lon="8.9027560">
        <ele>-78.4</ele>
        <time>2022-06-10T08:35:50Z</time>
      </trkpt>
      <trkpt lat="47.5602960" lon="8.9024400">
        <ele>-79.2</ele>
        <time>2022-06-10T08:35:54Z</time>
      </trkpt>
      <trkpt lat="47.5601580" lon="8.9021530">
        <ele>-79.6</ele>
        <time>2022-06-10T08:35:58Z</time>
      </trkpt>
      <trkpt lat="47.5600110" lon="8.9018950">
        <ele>-79.4</ele>
        <time>2022-06-10T08:36:02Z</time>
      </trkpt>
      <trkpt lat="47.5598700" lon="8.9016380">
        <ele>-79.2</ele>
        <time>2022-06-10T08:36:06Z</time>
      </trkpt>
      <trkpt lat="47.5597300" lon="8.9014080">
        <ele>-78.0</ele>
        <time>2022-06-10T08:36:10Z</time>
      </trkpt>
      <trkpt lat="47.5595760" lon="8.9011930">
        <ele>-77.8</ele>
        <time>2022-06-10T08:36:14Z</time>
      </trkpt>
      <trkpt lat="47.5594300" lon="8.9010280">
        <ele>-77.2</ele>
        <time>2022-06-10T08:36:18Z</time>
      </trkpt>
      <trkpt lat="47.5592700" lon="8.9008880">
        <ele>-76.4</ele>
        <time>2022-06-10T08:36:22Z</time>
      </trkpt>
      <trkpt lat="47.5591280" lon="8.9007680">
        <ele>-75.8</ele>
        <time>2022-06-10T08:36:26Z</time>
      </trkpt>
      <trkpt lat="47.5589850" lon="8.9006380">
        <ele>-75.8</ele>
        <time>2022-06-10T08:36:30Z</time>
      </trkpt>
      <trkpt lat="47.5588360" lon="8.9005180">
        <ele>-75.4</ele>
        <time>2022-06-10T08:36:34Z</time>
      </trkpt>
      <trkpt lat="47.5587000" lon="8.9004060">
        <ele>-74.6</ele>
        <time>2022-06-10T08:36:38Z</time>
      </trkpt>
      <trkpt lat="47.5585630" lon="8.9002960">
        <ele>-74.0</ele>
        <time>2022-06-10T08:36:42Z</time>
      </trkpt>
      <trkpt lat="47.5584300" lon="8.9001800">
        <ele>-73.8</ele>
        <time>2022-06-10T08:36:46Z</time>
      </trkpt>
      <trkpt lat="47.5582910" lon="8.9000650">
        <ele>-73.4</ele>
        <time>2022-06-10T08:36:50Z</time>
      </trkpt>
      <trkpt lat="47.5581680" lon="8.8999250">
        <ele>-73.4</ele>
        <time>2022-06-10T08:36:54Z</time>
      </trkpt>
      <trkpt lat="47.5580650" lon="8.8997810">
        <ele>-72.6</ele>
        <time>2022-06-10T08:36:58Z</time>
      </trkpt>
      <trkpt lat="47.5579850" lon="8.8996780">
        <ele>-71.6</ele>
        <time>2022-06-10T08:37:02Z</time>
      </trkpt>
      <trkpt lat="47.5579160" lon="8.8996000">
        <ele>-71.8</ele>
        <time>2022-06-10T08:37:06Z</time>
      </trkpt>
      <trkpt lat="47.5578500" lon="8.8995080">
        <ele>-71.4</ele>
        <time>2022-06-10T08:37:10Z</time>
      </trkpt>
      <trkpt lat="47.5577500" lon="8.8993750">
        <ele>-71.6</ele>
        <time>2022-06-10T08:37:14Z</time>
      </trkpt>
      <trkpt lat="47.5576560" lon="8.8992210">
        <ele>-71.2</ele>
        <time>2022-06-10T08:37:18Z</time>
      </trkpt>
      <trkpt lat="47.5575660" lon="8.8990550">
        <ele>-70.8</ele>
        <time>2022-06-10T08:37:22Z</time>
      </trkpt>
      <trkpt lat="47.5574580" lon="8.8988950">
        <ele>-70.6</ele>
        <time>2022-06-10T08:37:26Z</time>
      </trkpt>
      <trkpt lat="47.5573430" lon="8.8988180">
        <ele>-70.2</ele>
        <time>2022-06-10T08:37:30Z</time>
      </trkpt>
      <trkpt lat="47.5572250" lon="8.8989160">
        <ele>-70.2</ele>
        <time>2022-06-10T08:37:34Z</time>
      </trkpt>
      <trkpt lat="47.5571100" lon="8.8990830">
        <ele>-70.2</ele>
        <time>2022-06-10T08:37:38Z</time>
      </trkpt>
      <trkpt lat="47.5569960" lon="8.8992280">
        <ele>-69.6</ele>
        <time>2022-06-10T08:37:42Z</time>
      </trkpt>
      <trkpt lat="47.5568550" lon="8.8992700">
        <ele>-69.6</ele>
        <time>2022-06-10T08:37:46Z</time>
      </trkpt>
      <trkpt lat="47.5567150" lon="8.8992000">
        <ele>-69.0</ele>
        <time>2022-06-10T08:37:50Z</time>
      </trkpt>
      <trkpt lat="47.5565760" lon="8.8990900">
        <ele>-68.8</ele>
        <time>2022-06-10T08:37:54Z</time>
      </trkpt>
      <trkpt lat="47.5564210" lon="8.8989850">
        <ele>-68.8</ele>
        <time>2022-06-10T08:37:58Z</time>
      </trkpt>
      <trkpt lat="47.5562560" lon="8.8988960">
        <ele>-69.6</ele>
        <time>2022-06-10T08:38:02Z</time>
      </trkpt>
      <trkpt lat="47.5560930" lon="8.8988000">
        <ele>-69.6</ele>
        <time>2022-06-10T08:38:06Z</time>
      </trkpt>
      <trkpt lat="47.5559550" lon="8.8986960">
        <ele>-70.0</ele>
        <time>2022-06-10T08:38:10Z</time>
      </trkpt>
      <trkpt lat="47.5558230" lon="8.8986030">
        <ele>-69.6</ele>
        <time>2022-06-10T08:38:14Z</time>
      </trkpt>
      <trkpt lat="47.5556910" lon="8.8985200">
        <ele>-70.0</ele>
        <time>2022-06-10T08:38:18Z</time>
      </trkpt>
      <trkpt lat="47.5555560" lon="8.8984350">
        <ele>-70.4</ele>
        <time>2022-06-10T08:38:22Z</time>
      </trkpt>
      <trkpt lat="47.5554160" lon="8.8983650">
        <ele>-70.8</ele>
        <time>2022-06-10T08:38:26Z</time>
      </trkpt>
      <trkpt lat="47.5553860" lon="8.8982650">
        <ele>-70.8</ele>
        <time>2022-06-10T08:38:30Z</time>
      </trkpt>
      <trkpt lat="47.5554150" lon="8.8980880">
        <ele>-70.8</ele>
        <time>2022-06-10T08:38:34Z</time>
      </trkpt>
      <trkpt lat="47.5554750" lon="8.8978780">
        <ele>-71.4</ele>
        <time>2022-06-10T08:38:38Z</time>
      </trkpt>
      <trkpt lat="47.5555160" lon="8.8976650">
        <ele>-71.4</ele>
        <time>2022-06-10T08:38:42Z</time>
      </trkpt>
      <trkpt lat="47.5555360" lon="8.8974200">
        <ele>-71.8</ele>
        <time>2022-06-10T08:38:46Z</time>
      </trkpt>
      <trkpt lat="47.5555530" lon="8.8972080">
        <ele>-72.6</ele>
        <time>2022-06-10T08:38:50Z</time>
      </trkpt>
      <trkpt lat="47.5555530" lon="8.8970380">
        <ele>-72.8</ele>
        <time>2022-06-10T08:38:54Z</time>
      </trkpt>
      <trkpt lat="47.5555560" lon="8.8969110">
        <ele>-73.2</ele>
        <time>2022-06-10T08:38:58Z</time>
      </trkpt>
      <trkpt lat="47.5555560" lon="8.8969110">
        <ele>-73.2</ele>
        <time>2022-06-10T08:39:02Z</time>
      </trkpt>
      <trkpt lat="47.5555560" lon="8.8969110">
        <ele>-73.4</ele>
        <time>2022-06-10T08:39:06Z</time>
      </trkpt>
      <trkpt lat="47.5555560" lon="8.8969110">
        <ele>-73.4</ele>
        <time>2022-06-10T08:39:10Z</time>
      </trkpt>
      <trkpt lat="47.5555530" lon="8.8968810">
        <ele>-73.6</ele>
        <time>2022-06-10T08:39:14Z</time>
      </trkpt>
      <trkpt lat="47.5555730" lon="8.8967850">
        <ele>-73.6</ele>
        <time>2022-06-10T08:39:18Z</time>
      </trkpt>
      <trkpt lat="47.5555730" lon="8.8967850">
        <ele>-74.0</ele>
        <time>2022-06-10T08:39:22Z</time>
      </trkpt>
      <trkpt lat="47.5555730" lon="8.8967850">
        <ele>-74.0</ele>
        <time>2022-06-10T08:39:26Z</time>
      </trkpt>
      <trkpt lat="47.5555730" lon="8.8967850">
        <ele>-74.2</ele>
        <time>2022-06-10T08:39:30Z</time>
      </trkpt>
      <trkpt lat="47.5555730" lon="8.8967850">
        <ele>-74.0</ele>
        <time>2022-06-10T08:39:34Z</time>
      </trkpt>
      <trkpt lat="47.5555730" lon="8.8967850">
        <ele>-74.0</ele>
        <time>2022-06-10T08:39:38Z</time>
      </trkpt>
      <trkpt lat="47.5555710" lon="8.8967110">
        <ele>-74.0</ele>
        <time>2022-06-10T08:39:42Z</time>
      </trkpt>
      <trkpt lat="47.5555710" lon="8.8967110">
        <ele>-74.2</ele>
        <time>2022-06-10T08:39:46Z</time>
      </trkpt>
      <trkpt lat="47.5555710" lon="8.8967110">
        <ele>-74.0</ele>
        <time>2022-06-10T08:39:50Z</time>
      </trkpt>
      <trkpt lat="47.5555710" lon="8.8967110">
        <ele>-74.0</ele>
        <time>2022-06-10T08:39:54Z</time>
      </trkpt>
      <trkpt lat="47.5555710" lon="8.8967110">
        <ele>-74.4</ele>
        <time>2022-06-10T08:39:58Z</time>
      </trkpt>
      <trkpt lat="47.5555510" lon="8.8967000">
        <ele>-74.4</ele>
        <time>2022-06-10T08:40:02Z</time>
      </trkpt>
      <trkpt lat="47.5554680" lon="8.8966100">
        <ele>-75.2</ele>
        <time>2022-06-10T08:40:06Z</time>
      </trkpt>
      <trkpt lat="47.5553000" lon="8.8965050">
        <ele>-76.4</ele>
        <time>2022-06-10T08:40:10Z</time>
      </trkpt>
      <trkpt lat="47.5551130" lon="8.8962750">
        <ele>-78.2</ele>
        <time>2022-06-10T08:40:14Z</time>
      </trkpt>
      <trkpt lat="47.5549330" lon="8.8960300">
        <ele>-78.8</ele>
        <time>2022-06-10T08:40:18Z</time>
      </trkpt>
      <trkpt lat="47.5547850" lon="8.8958250">
        <ele>-80.2</ele>
        <time>2022-06-10T08:40:22Z</time>
      </trkpt>
      <trkpt lat="47.5546830" lon="8.8956900">
        <ele>-80.6</ele>
        <time>2022-06-10T08:40:26Z</time>
      </trkpt>
      <trkpt lat="47.5546330" lon="8.8955910">
        <ele>-80.8</ele>
        <time>2022-06-10T08:40:30Z</time>
      </trkpt>
      <trkpt lat="47.5545330" lon="8.8954560">
        <ele>-81.6</ele>
        <time>2022-06-10T08:40:34Z</time>
      </trkpt>
      <trkpt lat="47.5544030" lon="8.8952250">
        <ele>-80.8</ele>
        <time>2022-06-10T08:40:38Z</time>
      </trkpt>
      <trkpt lat="47.5542910" lon="8.8949630">
        <ele>-80.2</ele>
        <time>2022-06-10T08:40:42Z</time>
      </trkpt>
      <trkpt lat="47.5542350" lon="8.8947400">
        <ele>-78.6</ele>
        <time>2022-06-10T08:40:46Z</time>
      </trkpt>
      <trkpt lat="47.5542080" lon="8.8945850">
        <ele>-78.4</ele>
        <time>2022-06-10T08:40:50Z</time>
      </trkpt>
      <trkpt lat="47.5540930" lon="8.8944460">
        <ele>-78.2</ele>
        <time>2022-06-10T08:40:54Z</time>
      </trkpt>
      <trkpt lat="47.5540200" lon="8.8942530">
        <ele>-77.6</ele>
        <time>2022-06-10T08:40:58Z</time>
      </trkpt>
      <trkpt lat="47.5539680" lon="8.8940510">
        <ele>-77.4</ele>
        <time>2022-06-10T08:41:02Z</time>
      </trkpt>
      <trkpt lat="47.5539150" lon="8.8938860">
        <ele>-77.0</ele>
        <time>2022-06-10T08:41:06Z</time>
      </trkpt>
      <trkpt lat="47.5538480" lon="8.8937480">
        <ele>-77.0</ele>
        <time>2022-06-10T08:41:10Z</time>
      </trkpt>
      <trkpt lat="47.5537980" lon="8.8936180">
        <ele>-77.0</ele>
        <time>2022-06-10T08:41:14Z</time>
      </trkpt>
      <trkpt lat="47.5537510" lon="8.8934680">
        <ele>-76.4</ele>
        <time>2022-06-10T08:41:18Z</time>
      </trkpt>
      <trkpt lat="47.5536850" lon="8.8933000">
        <ele>-76.4</ele>
        <time>2022-06-10T08:41:22Z</time>
      </trkpt>
      <trkpt lat="47.5536330" lon="8.8931310">
        <ele>-75.8</ele>
        <time>2022-06-10T08:41:26Z</time>
      </trkpt>
      <trkpt lat="47.5535760" lon="8.8929530">
        <ele>-75.8</ele>
        <time>2022-06-10T08:41:30Z</time>
      </trkpt>
      <trkpt lat="47.5535180" lon="8.8927680">
        <ele>-75.0</ele>
        <time>2022-06-10T08:41:34Z</time>
      </trkpt>
      <trkpt lat="47.5534630" lon="8.8925830">
        <ele>-75.2</ele>
        <time>2022-06-10T08:41:38Z</time>
      </trkpt>
      <trkpt lat="47.5534150" lon="8.8924050">
        <ele>-74.8</ele>
        <time>2022-06-10T08:41:42Z</time>
      </trkpt>
      <trkpt lat="47.5533680" lon="8.8922150">
        <ele>-74.0</ele>
        <time>2022-06-10T08:41:46Z</time>
      </trkpt>
      <trkpt lat="47.5532880" lon="8.8920360">
        <ele>-74.0</ele>
        <time>2022-06-10T08:41:50Z</time>
      </trkpt>
      <trkpt lat="47.5532410" lon="8.8918610">
        <ele>-73.6</ele>
        <time>2022-06-10T08:41:54Z</time>
      </trkpt>
      <trkpt lat="47.5531900" lon="8.8917030">
        <ele>-73.6</ele>
        <time>2022-06-10T08:41:58Z</time>
      </trkpt>
      <trkpt lat="47.5531360" lon="8.8915600">
        <ele>-73.2</ele>
        <time>2022-06-10T08:42:02Z</time>
      </trkpt>
      <trkpt lat="47.5531050" lon="8.8913680">
        <ele>-72.8</ele>
        <time>2022-06-10T08:42:06Z</time>
      </trkpt>
      <trkpt lat="47.5530280" lon="8.8911510">
        <ele>-72.8</ele>
        <time>2022-06-10T08:42:10Z</time>
      </trkpt>
      <trkpt lat="47.5529580" lon="8.8909350">
        <ele>-72.8</ele>
        <time>2022-06-10T08:42:14Z</time>
      </trkpt>
      <trkpt lat="47.5528930" lon="8.8907080">
        <ele>-72.6</ele>
        <time>2022-06-10T08:42:18Z</time>
      </trkpt>
      <trkpt lat="47.5528610" lon="8.8904660">
        <ele>-72.6</ele>
        <time>2022-06-10T08:42:22Z</time>
      </trkpt>
      <trkpt lat="47.5528350" lon="8.8901960">
        <ele>-73.0</ele>
        <time>2022-06-10T08:42:26Z</time>
      </trkpt>
      <trkpt lat="47.5528110" lon="8.8899200">
        <ele>-72.8</ele>
        <time>2022-06-10T08:42:30Z</time>
      </trkpt>
      <trkpt lat="47.5527930" lon="8.8896260">
        <ele>-73.6</ele>
        <time>2022-06-10T08:42:34Z</time>
      </trkpt>
      <trkpt lat="47.5527730" lon="8.8893230">
        <ele>-73.8</ele>
        <time>2022-06-10T08:42:38Z</time>
      </trkpt>
      <trkpt lat="47.5527500" lon="8.8890130">
        <ele>-74.0</ele>
        <time>2022-06-10T08:42:42Z</time>
      </trkpt>
      <trkpt lat="47.5527280" lon="8.8886980">
        <ele>-74.2</ele>
        <time>2022-06-10T08:42:46Z</time>
      </trkpt>
      <trkpt lat="47.5527050" lon="8.8883660">
        <ele>-74.6</ele>
        <time>2022-06-10T08:42:50Z</time>
      </trkpt>
      <trkpt lat="47.5526810" lon="8.8880260">
        <ele>-74.6</ele>
        <time>2022-06-10T08:42:54Z</time>
      </trkpt>
      <trkpt lat="47.5526560" lon="8.8876880">
        <ele>-74.8</ele>
        <time>2022-06-10T08:42:58Z</time>
      </trkpt>
      <trkpt lat="47.5526350" lon="8.8873410">
        <ele>-75.0</ele>
        <time>2022-06-10T08:43:02Z</time>
      </trkpt>
      <trkpt lat="47.5526130" lon="8.8870000">
        <ele>-75.4</ele>
        <time>2022-06-10T08:43:06Z</time>
      </trkpt>
      <trkpt lat="47.5525880" lon="8.8866550">
        <ele>-75.4</ele>
        <time>2022-06-10T08:43:10Z</time>
      </trkpt>
      <trkpt lat="47.5525700" lon="8.8863200">
        <ele>-76.0</ele>
        <time>2022-06-10T08:43:14Z</time>
      </trkpt>
      <trkpt lat="47.5525480" lon="8.8860010">
        <ele>-76.2</ele>
        <time>2022-06-10T08:43:18Z</time>
      </trkpt>
      <trkpt lat="47.5525250" lon="8.8856880">
        <ele>-76.0</ele>
        <time>2022-06-10T08:43:22Z</time>
      </trkpt>
      <trkpt lat="47.5525210" lon="8.8853530">
        <ele>-76.8</ele>
        <time>2022-06-10T08:43:26Z</time>
      </trkpt>
      <trkpt lat="47.5525330" lon="8.8850210">
        <ele>-76.4</ele>
        <time>2022-06-10T08:43:30Z</time>
      </trkpt>
      <trkpt lat="47.5524560" lon="8.8847000">
        <ele>-76.8</ele>
        <time>2022-06-10T08:43:34Z</time>
      </trkpt>
      <trkpt lat="47.5524330" lon="8.8843750">
        <ele>-77.0</ele>
        <time>2022-06-10T08:43:38Z</time>
      </trkpt>
      <trkpt lat="47.5524200" lon="8.8840760">
        <ele>-77.0</ele>
        <time>2022-06-10T08:43:42Z</time>
      </trkpt>
      <trkpt lat="47.5523960" lon="8.8837730">
        <ele>-77.4</ele>
        <time>2022-06-10T08:43:46Z</time>
      </trkpt>
      <trkpt lat="47.5523830" lon="8.8834430">
        <ele>-76.8</ele>
        <time>2022-06-10T08:43:50Z</time>
      </trkpt>
      <trkpt lat="47.5523660" lon="8.8831330">
        <ele>-76.6</ele>
        <time>2022-06-10T08:43:54Z</time>
      </trkpt>
      <trkpt lat="47.5523480" lon="8.8828300">
        <ele>-76.6</ele>
        <time>2022-06-10T08:43:58Z</time>
      </trkpt>
      <trkpt lat="47.5523310" lon="8.8825150">
        <ele>-77.0</ele>
        <time>2022-06-10T08:44:02Z</time>
      </trkpt>
      <trkpt lat="47.5523100" lon="8.8822110">
        <ele>-76.6</ele>
        <time>2022-06-10T08:44:06Z</time>
      </trkpt>
      <trkpt lat="47.5522910" lon="8.8819350">
        <ele>-76.4</ele>
        <time>2022-06-10T08:44:10Z</time>
      </trkpt>
      <trkpt lat="47.5522760" lon="8.8816800">
        <ele>-76.4</ele>
        <time>2022-06-10T08:44:14Z</time>
      </trkpt>
      <trkpt lat="47.5522680" lon="8.8814200">
        <ele>-75.6</ele>
        <time>2022-06-10T08:44:18Z</time>
      </trkpt>
      <trkpt lat="47.5522650" lon="8.8811610">
        <ele>-75.2</ele>
        <time>2022-06-10T08:44:22Z</time>
      </trkpt>
      <trkpt lat="47.5522650" lon="8.8808960">
        <ele>-75.2</ele>
        <time>2022-06-10T08:44:26Z</time>
      </trkpt>
      <trkpt lat="47.5522580" lon="8.8806360">
        <ele>-75.2</ele>
        <time>2022-06-10T08:44:30Z</time>
      </trkpt>
      <trkpt lat="47.5522610" lon="8.8803710">
        <ele>-74.8</ele>
        <time>2022-06-10T08:44:34Z</time>
      </trkpt>
      <trkpt lat="47.5522600" lon="8.8801000">
        <ele>-74.6</ele>
        <time>2022-06-10T08:44:38Z</time>
      </trkpt>
      <trkpt lat="47.5522580" lon="8.8798310">
        <ele>-74.2</ele>
        <time>2022-06-10T08:44:42Z</time>
      </trkpt>
      <trkpt lat="47.5522700" lon="8.8795600">
        <ele>-74.6</ele>
        <time>2022-06-10T08:44:46Z</time>
      </trkpt>
      <trkpt lat="47.5522680" lon="8.8792880">
        <ele>-74.0</ele>
        <time>2022-06-10T08:44:50Z</time>
      </trkpt>
      <trkpt lat="47.5522660" lon="8.8790250">
        <ele>-73.6</ele>
        <time>2022-06-10T08:44:54Z</time>
      </trkpt>
      <trkpt lat="47.5522580" lon="8.8787560">
        <ele>-73.8</ele>
        <time>2022-06-10T08:44:58Z</time>
      </trkpt>
      <trkpt lat="47.5522580" lon="8.8784960">
        <ele>-72.8</ele>
        <time>2022-06-10T08:45:02Z</time>
      </trkpt>
      <trkpt lat="47.5522550" lon="8.8782380">
        <ele>-72.6</ele>
        <time>2022-06-10T08:45:06Z</time>
      </trkpt>
      <trkpt lat="47.5522510" lon="8.8779810">
        <ele>-72.8</ele>
        <time>2022-06-10T08:45:10Z</time>
      </trkpt>
      <trkpt lat="47.5522600" lon="8.8777180">
        <ele>-72.8</ele>
        <time>2022-06-10T08:45:14Z</time>
      </trkpt>
      <trkpt lat="47.5522630" lon="8.8774480">
        <ele>-72.4</ele>
        <time>2022-06-10T08:45:18Z</time>
      </trkpt>
      <trkpt lat="47.5522800" lon="8.8771830">
        <ele>-72.4</ele>
        <time>2022-06-10T08:45:22Z</time>
      </trkpt>
      <trkpt lat="47.5522780" lon="8.8769310">
        <ele>-72.0</ele>
        <time>2022-06-10T08:45:26Z</time>
      </trkpt>
      <trkpt lat="47.5522700" lon="8.8766780">
        <ele>-72.4</ele>
        <time>2022-06-10T08:45:30Z</time>
      </trkpt>
      <trkpt lat="47.5522860" lon="8.8764350">
        <ele>-72.4</ele>
        <time>2022-06-10T08:45:34Z</time>
      </trkpt>
      <trkpt lat="47.5522810" lon="8.8761560">
        <ele>-72.0</ele>
        <time>2022-06-10T08:45:38Z</time>
      </trkpt>
      <trkpt lat="47.5522800" lon="8.8758760">
        <ele>-71.6</ele>
        <time>2022-06-10T08:45:42Z</time>
      </trkpt>
      <trkpt lat="47.5522830" lon="8.8755980">
        <ele>-71.4</ele>
        <time>2022-06-10T08:45:46Z</time>
      </trkpt>
      <trkpt lat="47.5522900" lon="8.8753250">
        <ele>-71.2</ele>
        <time>2022-06-10T08:45:50Z</time>
      </trkpt>
      <trkpt lat="47.5522980" lon="8.8750560">
        <ele>-70.8</ele>
        <time>2022-06-10T08:45:54Z</time>
      </trkpt>
      <trkpt lat="47.5523100" lon="8.8747760">
        <ele>-70.8</ele>
        <time>2022-06-10T08:45:58Z</time>
      </trkpt>
      <trkpt lat="47.5523250" lon="8.8745060">
        <ele>-70.4</ele>
        <time>2022-06-10T08:46:02Z</time>
      </trkpt>
      <trkpt lat="47.5523400" lon="8.8742150">
        <ele>-70.4</ele>
        <time>2022-06-10T08:46:06Z</time>
      </trkpt>
      <trkpt lat="47.5523630" lon="8.8739280">
        <ele>-70.2</ele>
        <time>2022-06-10T08:46:10Z</time>
      </trkpt>
      <trkpt lat="47.5523830" lon="8.8736250">
        <ele>-71.4</ele>
        <time>2022-06-10T08:46:14Z</time>
      </trkpt>
      <trkpt lat="47.5524060" lon="8.8733200">
        <ele>-70.6</ele>
        <time>2022-06-10T08:46:18Z</time>
      </trkpt>
      <trkpt lat="47.5524260" lon="8.8730060">
        <ele>-70.4</ele>
        <time>2022-06-10T08:46:22Z</time>
      </trkpt>
      <trkpt lat="47.5524510" lon="8.8726910">
        <ele>-71.0</ele>
        <time>2022-06-10T08:46:26Z</time>
      </trkpt>
      <trkpt lat="47.5524680" lon="8.8724050">
        <ele>-70.8</ele>
        <time>2022-06-10T08:46:30Z</time>
      </trkpt>
      <trkpt lat="47.5524880" lon="8.8721110">
        <ele>-70.4</ele>
        <time>2022-06-10T08:46:34Z</time>
      </trkpt>
      <trkpt lat="47.5525180" lon="8.8718160">
        <ele>-70.4</ele>
        <time>2022-06-10T08:46:38Z</time>
      </trkpt>
      <trkpt lat="47.5525560" lon="8.8715130">
        <ele>-70.2</ele>
        <time>2022-06-10T08:46:42Z</time>
      </trkpt>
      <trkpt lat="47.5526000" lon="8.8712060">
        <ele>-70.2</ele>
        <time>2022-06-10T08:46:46Z</time>
      </trkpt>
      <trkpt lat="47.5526280" lon="8.8709060">
        <ele>-69.8</ele>
        <time>2022-06-10T08:46:50Z</time>
      </trkpt>
      <trkpt lat="47.5526330" lon="8.8706030">
        <ele>-69.2</ele>
        <time>2022-06-10T08:46:54Z</time>
      </trkpt>
      <trkpt lat="47.5526710" lon="8.8703550">
        <ele>-69.0</ele>
        <time>2022-06-10T08:46:58Z</time>
      </trkpt>
      <trkpt lat="47.5526050" lon="8.8700980">
        <ele>-69.2</ele>
        <time>2022-06-10T08:47:02Z</time>
      </trkpt>
      <trkpt lat="47.5525410" lon="8.8698060">
        <ele>-69.6</ele>
        <time>2022-06-10T08:47:06Z</time>
      </trkpt>
      <trkpt lat="47.5525050" lon="8.8694980">
        <ele>-69.0</ele>
        <time>2022-06-10T08:47:10Z</time>
      </trkpt>
      <trkpt lat="47.5524460" lon="8.8691860">
        <ele>-69.2</ele>
        <time>2022-06-10T08:47:14Z</time>
      </trkpt>
      <trkpt lat="47.5523830" lon="8.8688730">
        <ele>-68.8</ele>
        <time>2022-06-10T08:47:18Z</time>
      </trkpt>
      <trkpt lat="47.5523280" lon="8.8685580">
        <ele>-69.4</ele>
        <time>2022-06-10T08:47:22Z</time>
      </trkpt>
      <trkpt lat="47.5522810" lon="8.8682310">
        <ele>-69.0</ele>
        <time>2022-06-10T08:47:26Z</time>
      </trkpt>
      <trkpt lat="47.5522350" lon="8.8678880">
        <ele>-69.2</ele>
        <time>2022-06-10T08:47:30Z</time>
      </trkpt>
      <trkpt lat="47.5521980" lon="8.8675310">
        <ele>-68.8</ele>
        <time>2022-06-10T08:47:34Z</time>
      </trkpt>
      <trkpt lat="47.5521730" lon="8.8672010">
        <ele>-69.0</ele>
        <time>2022-06-10T08:47:38Z</time>
      </trkpt>
      <trkpt lat="47.5521630" lon="8.8668850">
        <ele>-68.2</ele>
        <time>2022-06-10T08:47:42Z</time>
      </trkpt>
      <trkpt lat="47.5521560" lon="8.8665710">
        <ele>-67.4</ele>
        <time>2022-06-10T08:47:46Z</time>
      </trkpt>
      <trkpt lat="47.5521350" lon="8.8662710">
        <ele>-67.6</ele>
        <time>2022-06-10T08:47:50Z</time>
      </trkpt>
      <trkpt lat="47.5521200" lon="8.8659750">
        <ele>-67.6</ele>
        <time>2022-06-10T08:47:54Z</time>
      </trkpt>
      <trkpt lat="47.5521080" lon="8.8656880">
        <ele>-67.0</ele>
        <time>2022-06-10T08:47:58Z</time>
      </trkpt>
      <trkpt lat="47.5520900" lon="8.8654100">
        <ele>-66.8</ele>
        <time>2022-06-10T08:48:02Z</time>
      </trkpt>
      <trkpt lat="47.5520700" lon="8.8651150">
        <ele>-66.6</ele>
        <time>2022-06-10T08:48:06Z</time>
      </trkpt>
      <trkpt lat="47.5520530" lon="8.8648100">
        <ele>-66.4</ele>
        <time>2022-06-10T08:48:10Z</time>
      </trkpt>
      <trkpt lat="47.5520380" lon="8.8645080">
        <ele>-67.0</ele>
        <time>2022-06-10T08:48:14Z</time>
      </trkpt>
      <trkpt lat="47.5520180" lon="8.8641980">
        <ele>-66.4</ele>
        <time>2022-06-10T08:48:18Z</time>
      </trkpt>
      <trkpt lat="47.5519930" lon="8.8638980">
        <ele>-66.6</ele>
        <time>2022-06-10T08:48:22Z</time>
      </trkpt>
      <trkpt lat="47.5519660" lon="8.8636000">
        <ele>-66.6</ele>
        <time>2022-06-10T08:48:26Z</time>
      </trkpt>
      <trkpt lat="47.5519300" lon="8.8633110">
        <ele>-66.2</ele>
        <time>2022-06-10T08:48:30Z</time>
      </trkpt>
      <trkpt lat="47.5518860" lon="8.8630230">
        <ele>-66.0</ele>
        <time>2022-06-10T08:48:34Z</time>
      </trkpt>
      <trkpt lat="47.5518410" lon="8.8627450">
        <ele>-66.0</ele>
        <time>2022-06-10T08:48:38Z</time>
      </trkpt>
      <trkpt lat="47.5517900" lon="8.8624580">
        <ele>-66.2</ele>
        <time>2022-06-10T08:48:42Z</time>
      </trkpt>
      <trkpt lat="47.5517350" lon="8.8621750">
        <ele>-66.2</ele>
        <time>2022-06-10T08:48:46Z</time>
      </trkpt>
      <trkpt lat="47.5516760" lon="8.8618900">
        <ele>-66.0</ele>
        <time>2022-06-10T08:48:50Z</time>
      </trkpt>
      <trkpt lat="47.5516030" lon="8.8616080">
        <ele>-65.0</ele>
        <time>2022-06-10T08:48:54Z</time>
      </trkpt>
      <trkpt lat="47.5515300" lon="8.8613310">
        <ele>-65.8</ele>
        <time>2022-06-10T08:48:58Z</time>
      </trkpt>
      <trkpt lat="47.5514600" lon="8.8610550">
        <ele>-65.8</ele>
        <time>2022-06-10T08:49:02Z</time>
      </trkpt>
      <trkpt lat="47.5513950" lon="8.8607800">
        <ele>-65.6</ele>
        <time>2022-06-10T08:49:06Z</time>
      </trkpt>
      <trkpt lat="47.5513280" lon="8.8604960">
        <ele>-65.6</ele>
        <time>2022-06-10T08:49:10Z</time>
      </trkpt>
      <trkpt lat="47.5512610" lon="8.8602130">
        <ele>-65.4</ele>
        <time>2022-06-10T08:49:14Z</time>
      </trkpt>
      <trkpt lat="47.5511950" lon="8.8599330">
        <ele>-65.4</ele>
        <time>2022-06-10T08:49:18Z</time>
      </trkpt>
      <trkpt lat="47.5511230" lon="8.8596510">
        <ele>-64.8</ele>
        <time>2022-06-10T08:49:22Z</time>
      </trkpt>
      <trkpt lat="47.5510530" lon="8.8593630">
        <ele>-64.6</ele>
        <time>2022-06-10T08:49:26Z</time>
      </trkpt>
      <trkpt lat="47.5509830" lon="8.8590850">
        <ele>-65.2</ele>
        <time>2022-06-10T08:49:30Z</time>
      </trkpt>
      <trkpt lat="47.5509130" lon="8.8588080">
        <ele>-64.8</ele>
        <time>2022-06-10T08:49:34Z</time>
      </trkpt>
      <trkpt lat="47.5508510" lon="8.8585260">
        <ele>-64.2</ele>
        <time>2022-06-10T08:49:38Z</time>
      </trkpt>
      <trkpt lat="47.5507830" lon="8.8582410">
        <ele>-64.4</ele>
        <time>2022-06-10T08:49:42Z</time>
      </trkpt>
      <trkpt lat="47.5507130" lon="8.8579580">
        <ele>-64.0</ele>
        <time>2022-06-10T08:49:46Z</time>
      </trkpt>
      <trkpt lat="47.5506460" lon="8.8576830">
        <ele>-64.2</ele>
        <time>2022-06-10T08:49:50Z</time>
      </trkpt>
      <trkpt lat="47.5505780" lon="8.8574080">
        <ele>-64.4</ele>
        <time>2022-06-10T08:49:54Z</time>
      </trkpt>
      <trkpt lat="47.5505060" lon="8.8571230">
        <ele>-63.8</ele>
        <time>2022-06-10T08:49:58Z</time>
      </trkpt>
      <trkpt lat="47.5504350" lon="8.8568380">
        <ele>-63.8</ele>
        <time>2022-06-10T08:50:02Z</time>
      </trkpt>
      <trkpt lat="47.5503680" lon="8.8565600">
        <ele>-63.6</ele>
        <time>2022-06-10T08:50:06Z</time>
      </trkpt>
      <trkpt lat="47.5502960" lon="8.8562830">
        <ele>-64.2</ele>
        <time>2022-06-10T08:50:10Z</time>
      </trkpt>
      <trkpt lat="47.5502310" lon="8.8560080">
        <ele>-64.2</ele>
        <time>2022-06-10T08:50:14Z</time>
      </trkpt>
      <trkpt lat="47.5501610" lon="8.8557260">
        <ele>-63.6</ele>
        <time>2022-06-10T08:50:18Z</time>
      </trkpt>
      <trkpt lat="47.5500910" lon="8.8554450">
        <ele>-63.8</ele>
        <time>2022-06-10T08:50:22Z</time>
      </trkpt>
      <trkpt lat="47.5500210" lon="8.8551660">
        <ele>-64.0</ele>
        <time>2022-06-10T08:50:26Z</time>
      </trkpt>
      <trkpt lat="47.5499550" lon="8.8548850">
        <ele>-64.4</ele>
        <time>2022-06-10T08:50:30Z</time>
      </trkpt>
      <trkpt lat="47.5498830" lon="8.8545960">
        <ele>-64.0</ele>
        <time>2022-06-10T08:50:34Z</time>
      </trkpt>
      <trkpt lat="47.5498160" lon="8.8543080">
        <ele>-65.0</ele>
        <time>2022-06-10T08:50:38Z</time>
      </trkpt>
      <trkpt lat="47.5497460" lon="8.8540210">
        <ele>-64.2</ele>
        <time>2022-06-10T08:50:42Z</time>
      </trkpt>
      <trkpt lat="47.5496760" lon="8.8537280">
        <ele>-64.4</ele>
        <time>2022-06-10T08:50:46Z</time>
      </trkpt>
      <trkpt lat="47.5496060" lon="8.8534380">
        <ele>-64.6</ele>
        <time>2022-06-10T08:50:50Z</time>
      </trkpt>
      <trkpt lat="47.5495330" lon="8.8531500">
        <ele>-64.8</ele>
        <time>2022-06-10T08:50:54Z</time>
      </trkpt>
      <trkpt lat="47.5494600" lon="8.8528610">
        <ele>-64.8</ele>
        <time>2022-06-10T08:50:58Z</time>
      </trkpt>
      <trkpt lat="47.5493910" lon="8.8525750">
        <ele>-64.8</ele>
        <time>2022-06-10T08:51:02Z</time>
      </trkpt>
      <trkpt lat="47.5493210" lon="8.8522860">
        <ele>-65.2</ele>
        <time>2022-06-10T08:51:06Z</time>
      </trkpt>
      <trkpt lat="47.5492460" lon="8.8519960">
        <ele>-65.0</ele>
        <time>2022-06-10T08:51:10Z</time>
      </trkpt>
      <trkpt lat="47.5491750" lon="8.8517110">
        <ele>-65.6</ele>
        <time>2022-06-10T08:51:14Z</time>
      </trkpt>
      <trkpt lat="47.5491080" lon="8.8514260">
        <ele>-64.8</ele>
        <time>2022-06-10T08:51:18Z</time>
      </trkpt>
      <trkpt lat="47.5490380" lon="8.8511410">
        <ele>-65.2</ele>
        <time>2022-06-10T08:51:22Z</time>
      </trkpt>
      <trkpt lat="47.5489650" lon="8.8508510">
        <ele>-65.2</ele>
        <time>2022-06-10T08:51:26Z</time>
      </trkpt>
      <trkpt lat="47.5488950" lon="8.8505610">
        <ele>-65.6</ele>
        <time>2022-06-10T08:51:30Z</time>
      </trkpt>
      <trkpt lat="47.5488230" lon="8.8502680">
        <ele>-65.6</ele>
        <time>2022-06-10T08:51:34Z</time>
      </trkpt>
      <trkpt lat="47.5487500" lon="8.8499800">
        <ele>-64.6</ele>
        <time>2022-06-10T08:51:38Z</time>
      </trkpt>
      <trkpt lat="47.5486780" lon="8.8496830">
        <ele>-65.0</ele>
        <time>2022-06-10T08:51:42Z</time>
      </trkpt>
      <trkpt lat="47.5486010" lon="8.8494000">
        <ele>-65.4</ele>
        <time>2022-06-10T08:51:46Z</time>
      </trkpt>
      <trkpt lat="47.5485180" lon="8.8491130">
        <ele>-65.0</ele>
        <time>2022-06-10T08:51:50Z</time>
      </trkpt>
      <trkpt lat="47.5484260" lon="8.8488380">
        <ele>-64.2</ele>
        <time>2022-06-10T08:51:54Z</time>
      </trkpt>
      <trkpt lat="47.5483210" lon="8.8485660">
        <ele>-64.4</ele>
        <time>2022-06-10T08:51:58Z</time>
      </trkpt>
      <trkpt lat="47.5482300" lon="8.8483050">
        <ele>-64.4</ele>
        <time>2022-06-10T08:52:02Z</time>
      </trkpt>
      <trkpt lat="47.5481400" lon="8.8480480">
        <ele>-63.8</ele>
        <time>2022-06-10T08:52:06Z</time>
      </trkpt>
      <trkpt lat="47.5480510" lon="8.8477880">
        <ele>-63.8</ele>
        <time>2022-06-10T08:52:10Z</time>
      </trkpt>
      <trkpt lat="47.5479750" lon="8.8475250">
        <ele>-63.8</ele>
        <time>2022-06-10T08:52:14Z</time>
      </trkpt>
      <trkpt lat="47.5479060" lon="8.8472730">
        <ele>-63.6</ele>
        <time>2022-06-10T08:52:18Z</time>
      </trkpt>
      <trkpt lat="47.5478550" lon="8.8470860">
        <ele>-63.6</ele>
        <time>2022-06-10T08:52:22Z</time>
      </trkpt>
      <trkpt lat="47.5478000" lon="8.8470800">
        <ele>-63.6</ele>
        <time>2022-06-10T08:52:26Z</time>
      </trkpt>
      <trkpt lat="47.5478000" lon="8.8470800">
        <ele>-63.6</ele>
        <time>2022-06-10T08:52:30Z</time>
      </trkpt>
      <trkpt lat="47.5478000" lon="8.8470800">
        <ele>-63.8</ele>
        <time>2022-06-10T08:52:34Z</time>
      </trkpt>
      <trkpt lat="47.5478000" lon="8.8470800">
        <ele>-63.4</ele>
        <time>2022-06-10T08:52:38Z</time>
      </trkpt>
      <trkpt lat="47.5478000" lon="8.8470800">
        <ele>-63.4</ele>
        <time>2022-06-10T08:52:42Z</time>
      </trkpt>
      <trkpt lat="47.5477550" lon="8.8472510">
        <ele>-63.2</ele>
        <time>2022-06-10T08:52:46Z</time>
      </trkpt>
      <trkpt lat="47.5477550" lon="8.8472510">
        <ele>-63.4</ele>
        <time>2022-06-10T08:52:50Z</time>
      </trkpt>
      <trkpt lat="47.5477780" lon="8.8472800">
        <ele>-63.2</ele>
        <time>2022-06-10T08:52:54Z</time>
      </trkpt>
      <trkpt lat="47.5477780" lon="8.8472800">
        <ele>-63.2</ele>
        <time>2022-06-10T08:52:58Z</time>
      </trkpt>
      <trkpt lat="47.5477780" lon="8.8472800">
        <ele>-63.2</ele>
        <time>2022-06-10T08:53:02Z</time>
      </trkpt>
      <trkpt lat="47.5478160" lon="8.8472950">
        <ele>-63.4</ele>
        <time>2022-06-10T08:53:06Z</time>
      </trkpt>
      <trkpt lat="47.5477950" lon="8.8472550">
        <ele>-63.2</ele>
        <time>2022-06-10T08:53:10Z</time>
      </trkpt>
      <trkpt lat="47.5477680" lon="8.8472030">
        <ele>-63.2</ele>
        <time>2022-06-10T08:53:14Z</time>
      </trkpt>
      <trkpt lat="47.5477680" lon="8.8472030">
        <ele>-63.4</ele>
        <time>2022-06-10T08:53:18Z</time>
      </trkpt>
      <trkpt lat="47.5477680" lon="8.8472030">
        <ele>-63.2</ele>
        <time>2022-06-10T08:53:22Z</time>
      </trkpt>
      <trkpt lat="47.5477680" lon="8.8472030">
        <ele>-63.2</ele>
        <time>2022-06-10T08:53:26Z</time>
      </trkpt>
      <trkpt lat="47.5477430" lon="8.8471960">
        <ele>-62.8</ele>
        <time>2022-06-10T08:53:30Z</time>
      </trkpt>
      <trkpt lat="47.5477430" lon="8.8471960">
        <ele>-63.2</ele>
        <time>2022-06-10T08:53:34Z</time>
      </trkpt>
      <trkpt lat="47.5477430" lon="8.8471960">
        <ele>-62.6</ele>
        <time>2022-06-10T08:53:38Z</time>
      </trkpt>
      <trkpt lat="47.5477430" lon="8.8471960">
        <ele>-63.2</ele>
        <time>2022-06-10T08:53:42Z</time>
      </trkpt>
      <trkpt lat="47.5477430" lon="8.8471960">
        <ele>-63.2</ele>
        <time>2022-06-10T08:53:46Z</time>
      </trkpt>
      <trkpt lat="47.5477430" lon="8.8471960">
        <ele>-63.2</ele>
        <time>2022-06-10T08:53:50Z</time>
      </trkpt>
      <trkpt lat="47.5477430" lon="8.8471960">
        <ele>-63.2</ele>
        <time>2022-06-10T08:53:54Z</time>
      </trkpt>
      <trkpt lat="47.5477430" lon="8.8471960">
        <ele>-63.2</ele>
        <time>2022-06-10T08:53:58Z</time>
      </trkpt>
      <trkpt lat="47.5477430" lon="8.8471960">
        <ele>-63.0</ele>
        <time>2022-06-10T08:54:02Z</time>
      </trkpt>
      <trkpt lat="47.5477430" lon="8.8471960">
        <ele>-63.0</ele>
        <time>2022-06-10T08:54:06Z</time>
      </trkpt>
      <trkpt lat="47.5477430" lon="8.8471960">
        <ele>-62.8</ele>
        <time>2022-06-10T08:54:10Z</time>
      </trkpt>
      <trkpt lat="47.5477430" lon="8.8471960">
        <ele>-63.2</ele>
        <time>2022-06-10T08:54:14Z</time>
      </trkpt>
      <trkpt lat="47.5477430" lon="8.8471960">
        <ele>-63.2</ele>
        <time>2022-06-10T08:54:18Z</time>
      </trkpt>
      <trkpt lat="47.5477430" lon="8.8471960">
        <ele>-63.2</ele>
        <time>2022-06-10T08:54:22Z</time>
      </trkpt>
      <trkpt lat="47.5477430" lon="8.8471960">
        <ele>-63.0</ele>
        <time>2022-06-10T08:54:26Z</time>
      </trkpt>
      <trkpt lat="47.5477430" lon="8.8471960">
        <ele>-63.2</ele>
        <time>2022-06-10T08:54:30Z</time>
      </trkpt>
      <trkpt lat="47.5477430" lon="8.8471960">
        <ele>-63.2</ele>
        <time>2022-06-10T08:54:34Z</time>
      </trkpt>
      <trkpt lat="47.5477430" lon="8.8471960">
        <ele>-63.0</ele>
        <time>2022-06-10T08:54:38Z</time>
      </trkpt>
      <trkpt lat="47.5477430" lon="8.8471960">
        <ele>-63.2</ele>
        <time>2022-06-10T08:54:42Z</time>
      </trkpt>
      <trkpt lat="47.5477430" lon="8.8471960">
        <ele>-63.4</ele>
        <time>2022-06-10T08:54:46Z</time>
      </trkpt>
      <trkpt lat="47.5477430" lon="8.8471960">
        <ele>-63.0</ele>
        <time>2022-06-10T08:54:50Z</time>
      </trkpt>
      <trkpt lat="47.5477430" lon="8.8471960">
        <ele>-63.2</ele>
        <time>2022-06-10T08:54:54Z</time>
      </trkpt>
      <trkpt lat="47.5477430" lon="8.8471960">
        <ele>-63.4</ele>
        <time>2022-06-10T08:54:58Z</time>
      </trkpt>
      <trkpt lat="47.5477430" lon="8.8471960">
        <ele>-63.4</ele>
        <time>2022-06-10T08:55:02Z</time>
      </trkpt>
      <trkpt lat="47.5477430" lon="8.8471960">
        <ele>-63.2</ele>
        <time>2022-06-10T08:55:06Z</time>
      </trkpt>
      <trkpt lat="47.5477430" lon="8.8471960">
        <ele>-63.0</ele>
        <time>2022-06-10T08:55:10Z</time>
      </trkpt>
      <trkpt lat="47.5477430" lon="8.8471960">
        <ele>-63.6</ele>
        <time>2022-06-10T08:55:14Z</time>
      </trkpt>
      <trkpt lat="47.5477430" lon="8.8471960">
        <ele>-63.4</ele>
        <time>2022-06-10T08:55:18Z</time>
      </trkpt>
      <trkpt lat="47.5477430" lon="8.8471960">
        <ele>-63.2</ele>
        <time>2022-06-10T08:55:22Z</time>
      </trkpt>
      <trkpt lat="47.5477430" lon="8.8471960">
        <ele>-63.2</ele>
        <time>2022-06-10T08:55:26Z</time>
      </trkpt>
      <trkpt lat="47.5477430" lon="8.8471960">
        <ele>-63.2</ele>
        <time>2022-06-10T08:55:30Z</time>
      </trkpt>
      <trkpt lat="47.5477430" lon="8.8471960">
        <ele>-63.2</ele>
        <time>2022-06-10T08:55:34Z</time>
      </trkpt>
      <trkpt lat="47.5481030" lon="8.8471930">
        <ele>-63.2</ele>
        <time>2022-06-10T08:55:38Z</time>
      </trkpt>
      <trkpt lat="47.5481030" lon="8.8471930">
        <ele>-63.4</ele>
        <time>2022-06-10T08:55:42Z</time>
      </trkpt>
      <trkpt lat="47.5480760" lon="8.8471310">
        <ele>-62.6</ele>
        <time>2022-06-10T08:55:46Z</time>
      </trkpt>
      <trkpt lat="47.5480760" lon="8.8471310">
        <ele>-63.2</ele>
        <time>2022-06-10T08:55:50Z</time>
      </trkpt>
      <trkpt lat="47.5480760" lon="8.8471310">
        <ele>-63.0</ele>
        <time>2022-06-10T08:55:54Z</time>
      </trkpt>
      <trkpt lat="47.5480510" lon="8.8470860">
        <ele>-63.2</ele>
        <time>2022-06-10T08:55:58Z</time>
      </trkpt>
      <trkpt lat="47.5479450" lon="8.8469860">
        <ele>-63.4</ele>
        <time>2022-06-10T08:56:02Z</time>
      </trkpt>
      <trkpt lat="47.5478850" lon="8.8467880">
        <ele>-63.2</ele>
        <time>2022-06-10T08:56:06Z</time>
      </trkpt>
      <trkpt lat="47.5478080" lon="8.8465410">
        <ele>-63.6</ele>
        <time>2022-06-10T08:56:10Z</time>
      </trkpt>
      <trkpt lat="47.5477210" lon="8.8462960">
        <ele>-63.2</ele>
        <time>2022-06-10T08:56:14Z</time>
      </trkpt>
      <trkpt lat="47.5476500" lon="8.8460410">
        <ele>-63.2</ele>
        <time>2022-06-10T08:56:18Z</time>
      </trkpt>
      <trkpt lat="47.5475910" lon="8.8457860">
        <ele>-63.2</ele>
        <time>2022-06-10T08:56:22Z</time>
      </trkpt>
      <trkpt lat="47.5475260" lon="8.8455360">
        <ele>-63.0</ele>
        <time>2022-06-10T08:56:26Z</time>
      </trkpt>
      <trkpt lat="47.5474550" lon="8.8452930">
        <ele>-63.0</ele>
        <time>2022-06-10T08:56:30Z</time>
      </trkpt>
      <trkpt lat="47.5473800" lon="8.8450510">
        <ele>-62.8</ele>
        <time>2022-06-10T08:56:34Z</time>
      </trkpt>
      <trkpt lat="47.5473130" lon="8.8448030">
        <ele>-61.8</ele>
        <time>2022-06-10T08:56:38Z</time>
      </trkpt>
      <trkpt lat="47.5472350" lon="8.8445810">
        <ele>-61.4</ele>
        <time>2022-06-10T08:56:42Z</time>
      </trkpt>
      <trkpt lat="47.5471400" lon="8.8444150">
        <ele>-61.0</ele>
        <time>2022-06-10T08:56:46Z</time>
      </trkpt>
      <trkpt lat="47.5470360" lon="8.8442580">
        <ele>-60.6</ele>
        <time>2022-06-10T08:56:50Z</time>
      </trkpt>
      <trkpt lat="47.5469210" lon="8.8441080">
        <ele>-60.0</ele>
        <time>2022-06-10T08:56:54Z</time>
      </trkpt>
      <trkpt lat="47.5468210" lon="8.8439860">
        <ele>-60.0</ele>
        <time>2022-06-10T08:56:58Z</time>
      </trkpt>
      <trkpt lat="47.5467230" lon="8.8438610">
        <ele>-60.0</ele>
        <time>2022-06-10T08:57:02Z</time>
      </trkpt>
      <trkpt lat="47.5466230" lon="8.8437230">
        <ele>-59.6</ele>
        <time>2022-06-10T08:57:06Z</time>
      </trkpt>
      <trkpt lat="47.5465110" lon="8.8435650">
        <ele>-59.4</ele>
        <time>2022-06-10T08:57:10Z</time>
      </trkpt>
      <trkpt lat="47.5464010" lon="8.8433810">
        <ele>-59.8</ele>
        <time>2022-06-10T08:57:14Z</time>
      </trkpt>
      <trkpt lat="47.5462780" lon="8.8431650">
        <ele>-61.2</ele>
        <time>2022-06-10T08:57:18Z</time>
      </trkpt>
      <trkpt lat="47.5461430" lon="8.8429130">
        <ele>-61.8</ele>
        <time>2022-06-10T08:57:22Z</time>
      </trkpt>
      <trkpt lat="47.5459950" lon="8.8426400">
        <ele>-62.0</ele>
        <time>2022-06-10T08:57:26Z</time>
      </trkpt>
      <trkpt lat="47.5458400" lon="8.8423530">
        <ele>-63.0</ele>
        <time>2022-06-10T08:57:30Z</time>
      </trkpt>
      <trkpt lat="47.5456780" lon="8.8420910">
        <ele>-63.6</ele>
        <time>2022-06-10T08:57:34Z</time>
      </trkpt>
      <trkpt lat="47.5455910" lon="8.8419230">
        <ele>-63.6</ele>
        <time>2022-06-10T08:57:38Z</time>
      </trkpt>
      <trkpt lat="47.5455910" lon="8.8419230">
        <ele>-63.2</ele>
        <time>2022-06-10T08:57:42Z</time>
      </trkpt>
      <trkpt lat="47.5455500" lon="8.8418560">
        <ele>-63.4</ele>
        <time>2022-06-10T08:57:46Z</time>
      </trkpt>
      <trkpt lat="47.5454810" lon="8.8417810">
        <ele>-63.8</ele>
        <time>2022-06-10T08:57:50Z</time>
      </trkpt>
      <trkpt lat="47.5453460" lon="8.8416610">
        <ele>-64.2</ele>
        <time>2022-06-10T08:57:54Z</time>
      </trkpt>
      <trkpt lat="47.5451610" lon="8.8415400">
        <ele>-63.8</ele>
        <time>2022-06-10T08:57:58Z</time>
      </trkpt>
      <trkpt lat="47.5449800" lon="8.8414150">
        <ele>-63.4</ele>
        <time>2022-06-10T08:58:02Z</time>
      </trkpt>
      <trkpt lat="47.5448230" lon="8.8412360">
        <ele>-63.4</ele>
        <time>2022-06-10T08:58:06Z</time>
      </trkpt>
      <trkpt lat="47.5447050" lon="8.8409980">
        <ele>-62.6</ele>
        <time>2022-06-10T08:58:10Z</time>
      </trkpt>
      <trkpt lat="47.5445930" lon="8.8407600">
        <ele>-62.8</ele>
        <time>2022-06-10T08:58:14Z</time>
      </trkpt>
      <trkpt lat="47.5444880" lon="8.8405280">
        <ele>-62.6</ele>
        <time>2022-06-10T08:58:18Z</time>
      </trkpt>
      <trkpt lat="47.5443880" lon="8.8403160">
        <ele>-62.0</ele>
        <time>2022-06-10T08:58:22Z</time>
      </trkpt>
      <trkpt lat="47.5442910" lon="8.8400930">
        <ele>-61.8</ele>
        <time>2022-06-10T08:58:26Z</time>
      </trkpt>
      <trkpt lat="47.5442010" lon="8.8398650">
        <ele>-61.0</ele>
        <time>2022-06-10T08:58:30Z</time>
      </trkpt>
      <trkpt lat="47.5441250" lon="8.8396580">
        <ele>-60.8</ele>
        <time>2022-06-10T08:58:34Z</time>
      </trkpt>
      <trkpt lat="47.5440600" lon="8.8394960">
        <ele>-60.4</ele>
        <time>2022-06-10T08:58:38Z</time>
      </trkpt>
      <trkpt lat="47.5440780" lon="8.8395880">
        <ele>-60.0</ele>
        <time>2022-06-10T08:58:42Z</time>
      </trkpt>
      <trkpt lat="47.5441810" lon="8.8397730">
        <ele>-60.6</ele>
        <time>2022-06-10T08:58:46Z</time>
      </trkpt>
      <trkpt lat="47.5442430" lon="8.8396900">
        <ele>-61.4</ele>
        <time>2022-06-10T08:58:50Z</time>
      </trkpt>
      <trkpt lat="47.5441580" lon="8.8394750">
        <ele>-61.0</ele>
        <time>2022-06-10T08:58:54Z</time>
      </trkpt>
      <trkpt lat="47.5440900" lon="8.8392360">
        <ele>-60.4</ele>
        <time>2022-06-10T08:58:58Z</time>
      </trkpt>
      <trkpt lat="47.5440310" lon="8.8390260">
        <ele>-59.0</ele>
        <time>2022-06-10T08:59:02Z</time>
      </trkpt>
      <trkpt lat="47.5439630" lon="8.8389030">
        <ele>-58.8</ele>
        <time>2022-06-10T08:59:06Z</time>
      </trkpt>
      <trkpt lat="47.5438850" lon="8.8388180">
        <ele>-57.6</ele>
        <time>2022-06-10T08:59:10Z</time>
      </trkpt>
      <trkpt lat="47.5438250" lon="8.8386280">
        <ele>-57.2</ele>
        <time>2022-06-10T08:59:14Z</time>
      </trkpt>
      <trkpt lat="47.5437700" lon="8.8384510">
        <ele>-57.4</ele>
        <time>2022-06-10T08:59:18Z</time>
      </trkpt>
      <trkpt lat="47.5437160" lon="8.8382700">
        <ele>-56.8</ele>
        <time>2022-06-10T08:59:22Z</time>
      </trkpt>
      <trkpt lat="47.5436630" lon="8.8380860">
        <ele>-56.4</ele>
        <time>2022-06-10T08:59:26Z</time>
      </trkpt>
      <trkpt lat="47.5436060" lon="8.8379010">
        <ele>-56.2</ele>
        <time>2022-06-10T08:59:30Z</time>
      </trkpt>
      <trkpt lat="47.5435510" lon="8.8377230">
        <ele>-54.8</ele>
        <time>2022-06-10T08:59:34Z</time>
      </trkpt>
      <trkpt lat="47.5434900" lon="8.8375410">
        <ele>-55.0</ele>
        <time>2022-06-10T08:59:38Z</time>
      </trkpt>
      <trkpt lat="47.5434260" lon="8.8373660">
        <ele>-54.0</ele>
        <time>2022-06-10T08:59:42Z</time>
      </trkpt>
      <trkpt lat="47.5433550" lon="8.8371900">
        <ele>-53.8</ele>
        <time>2022-06-10T08:59:46Z</time>
      </trkpt>
      <trkpt lat="47.5432800" lon="8.8370150">
        <ele>-53.6</ele>
        <time>2022-06-10T08:59:50Z</time>
      </trkpt>
      <trkpt lat="47.5432010" lon="8.8368330">
        <ele>-53.2</ele>
        <time>2022-06-10T08:59:54Z</time>
      </trkpt>
      <trkpt lat="47.5431210" lon="8.8366500">
        <ele>-53.0</ele>
        <time>2022-06-10T08:59:58Z</time>
      </trkpt>
      <trkpt lat="47.5430380" lon="8.8364680">
        <ele>-52.4</ele>
        <time>2022-06-10T09:00:02Z</time>
      </trkpt>
      <trkpt lat="47.5429600" lon="8.8362850">
        <ele>-52.0</ele>
        <time>2022-06-10T09:00:06Z</time>
      </trkpt>
      <trkpt lat="47.5429160" lon="8.8360710">
        <ele>-51.8</ele>
        <time>2022-06-10T09:00:10Z</time>
      </trkpt>
      <trkpt lat="47.5429050" lon="8.8357910">
        <ele>-52.6</ele>
        <time>2022-06-10T09:00:14Z</time>
      </trkpt>
      <trkpt lat="47.5428930" lon="8.8354480">
        <ele>-53.6</ele>
        <time>2022-06-10T09:00:18Z</time>
      </trkpt>
      <trkpt lat="47.5428780" lon="8.8350930">
        <ele>-53.8</ele>
        <time>2022-06-10T09:00:22Z</time>
      </trkpt>
      <trkpt lat="47.5428680" lon="8.8347600">
        <ele>-54.2</ele>
        <time>2022-06-10T09:00:26Z</time>
      </trkpt>
      <trkpt lat="47.5428680" lon="8.8344430">
        <ele>-54.4</ele>
        <time>2022-06-10T09:00:30Z</time>
      </trkpt>
      <trkpt lat="47.5428610" lon="8.8341430">
        <ele>-53.6</ele>
        <time>2022-06-10T09:00:34Z</time>
      </trkpt>
      <trkpt lat="47.5428580" lon="8.8338480">
        <ele>-53.6</ele>
        <time>2022-06-10T09:00:38Z</time>
      </trkpt>
      <trkpt lat="47.5428450" lon="8.8335580">
        <ele>-53.4</ele>
        <time>2022-06-10T09:00:42Z</time>
      </trkpt>
      <trkpt lat="47.5428150" lon="8.8332900">
        <ele>-53.0</ele>
        <time>2022-06-10T09:00:46Z</time>
      </trkpt>
      <trkpt lat="47.5427630" lon="8.8330460">
        <ele>-52.4</ele>
        <time>2022-06-10T09:00:50Z</time>
      </trkpt>
      <trkpt lat="47.5427200" lon="8.8328280">
        <ele>-52.0</ele>
        <time>2022-06-10T09:00:54Z</time>
      </trkpt>
      <trkpt lat="47.5426730" lon="8.8326060">
        <ele>-50.8</ele>
        <time>2022-06-10T09:00:58Z</time>
      </trkpt>
      <trkpt lat="47.5426330" lon="8.8324030">
        <ele>-50.4</ele>
        <time>2022-06-10T09:01:02Z</time>
      </trkpt>
      <trkpt lat="47.5425830" lon="8.8322150">
        <ele>-49.2</ele>
        <time>2022-06-10T09:01:06Z</time>
      </trkpt>
      <trkpt lat="47.5425330" lon="8.8320400">
        <ele>-47.8</ele>
        <time>2022-06-10T09:01:10Z</time>
      </trkpt>
      <trkpt lat="47.5424830" lon="8.8318680">
        <ele>-46.8</ele>
        <time>2022-06-10T09:01:14Z</time>
      </trkpt>
      <trkpt lat="47.5424460" lon="8.8316860">
        <ele>-45.8</ele>
        <time>2022-06-10T09:01:18Z</time>
      </trkpt>
      <trkpt lat="47.5424010" lon="8.8315280">
        <ele>-45.4</ele>
        <time>2022-06-10T09:01:22Z</time>
      </trkpt>
      <trkpt lat="47.5423610" lon="8.8313810">
        <ele>-44.0</ele>
        <time>2022-06-10T09:01:26Z</time>
      </trkpt>
      <trkpt lat="47.5423280" lon="8.8312400">
        <ele>-43.8</ele>
        <time>2022-06-10T09:01:30Z</time>
      </trkpt>
      <trkpt lat="47.5422900" lon="8.8310980">
        <ele>-42.2</ele>
        <time>2022-06-10T09:01:34Z</time>
      </trkpt>
      <trkpt lat="47.5422510" lon="8.8309560">
        <ele>-42.2</ele>
        <time>2022-06-10T09:01:38Z</time>
      </trkpt>
      <trkpt lat="47.5422210" lon="8.8308030">
        <ele>-41.4</ele>
        <time>2022-06-10T09:01:42Z</time>
      </trkpt>
      <trkpt lat="47.5421850" lon="8.8306480">
        <ele>-40.6</ele>
        <time>2022-06-10T09:01:46Z</time>
      </trkpt>
      <trkpt lat="47.5421450" lon="8.8304960">
        <ele>-39.4</ele>
        <time>2022-06-10T09:01:50Z</time>
      </trkpt>
      <trkpt lat="47.5421080" lon="8.8303450">
        <ele>-38.8</ele>
        <time>2022-06-10T09:01:54Z</time>
      </trkpt>
      <trkpt lat="47.5420710" lon="8.8301930">
        <ele>-38.6</ele>
        <time>2022-06-10T09:01:58Z</time>
      </trkpt>
      <trkpt lat="47.5420380" lon="8.8300400">
        <ele>-37.6</ele>
        <time>2022-06-10T09:02:02Z</time>
      </trkpt>
      <trkpt lat="47.5420030" lon="8.8298880">
        <ele>-37.2</ele>
        <time>2022-06-10T09:02:06Z</time>
      </trkpt>
      <trkpt lat="47.5419650" lon="8.8297410">
        <ele>-36.8</ele>
        <time>2022-06-10T09:02:10Z</time>
      </trkpt>
      <trkpt lat="47.5419200" lon="8.8295960">
        <ele>-36.4</ele>
        <time>2022-06-10T09:02:14Z</time>
      </trkpt>
      <trkpt lat="47.5418810" lon="8.8294430">
        <ele>-35.8</ele>
        <time>2022-06-10T09:02:18Z</time>
      </trkpt>
      <trkpt lat="47.5418410" lon="8.8292910">
        <ele>-35.6</ele>
        <time>2022-06-10T09:02:22Z</time>
      </trkpt>
      <trkpt lat="47.5418050" lon="8.8291260">
        <ele>-34.8</ele>
        <time>2022-06-10T09:02:26Z</time>
      </trkpt>
      <trkpt lat="47.5417600" lon="8.8289700">
        <ele>-34.4</ele>
        <time>2022-06-10T09:02:30Z</time>
      </trkpt>
      <trkpt lat="47.5417300" lon="8.8288000">
        <ele>-34.2</ele>
        <time>2022-06-10T09:02:34Z</time>
      </trkpt>
      <trkpt lat="47.5416850" lon="8.8286310">
        <ele>-33.2</ele>
        <time>2022-06-10T09:02:38Z</time>
      </trkpt>
      <trkpt lat="47.5416280" lon="8.8284610">
        <ele>-32.4</ele>
        <time>2022-06-10T09:02:42Z</time>
      </trkpt>
      <trkpt lat="47.5415800" lon="8.8282910">
        <ele>-32.6</ele>
        <time>2022-06-10T09:02:46Z</time>
      </trkpt>
      <trkpt lat="47.5415410" lon="8.8281130">
        <ele>-32.2</ele>
        <time>2022-06-10T09:02:50Z</time>
      </trkpt>
      <trkpt lat="47.5414960" lon="8.8279330">
        <ele>-32.0</ele>
        <time>2022-06-10T09:02:54Z</time>
      </trkpt>
      <trkpt lat="47.5414500" lon="8.8277530">
        <ele>-31.2</ele>
        <time>2022-06-10T09:02:58Z</time>
      </trkpt>
      <trkpt lat="47.5414010" lon="8.8275660">
        <ele>-31.0</ele>
        <time>2022-06-10T09:03:02Z</time>
      </trkpt>
      <trkpt lat="47.5413460" lon="8.8273580">
        <ele>-31.0</ele>
        <time>2022-06-10T09:03:06Z</time>
      </trkpt>
      <trkpt lat="47.5412900" lon="8.8271530">
        <ele>-30.4</ele>
        <time>2022-06-10T09:03:10Z</time>
      </trkpt>
      <trkpt lat="47.5412360" lon="8.8269550">
        <ele>-30.4</ele>
        <time>2022-06-10T09:03:14Z</time>
      </trkpt>
      <trkpt lat="47.5411810" lon="8.8267430">
        <ele>-29.8</ele>
        <time>2022-06-10T09:03:18Z</time>
      </trkpt>
      <trkpt lat="47.5411260" lon="8.8265350">
        <ele>-30.0</ele>
        <time>2022-06-10T09:03:22Z</time>
      </trkpt>
      <trkpt lat="47.5410600" lon="8.8263330">
        <ele>-29.8</ele>
        <time>2022-06-10T09:03:26Z</time>
      </trkpt>
      <trkpt lat="47.5409930" lon="8.8261250">
        <ele>-29.8</ele>
        <time>2022-06-10T09:03:30Z</time>
      </trkpt>
      <trkpt lat="47.5409310" lon="8.8259100">
        <ele>-30.2</ele>
        <time>2022-06-10T09:03:34Z</time>
      </trkpt>
      <trkpt lat="47.5408610" lon="8.8256960">
        <ele>-30.0</ele>
        <time>2022-06-10T09:03:38Z</time>
      </trkpt>
      <trkpt lat="47.5407700" lon="8.8254880">
        <ele>-30.0</ele>
        <time>2022-06-10T09:03:42Z</time>
      </trkpt>
      <trkpt lat="47.5406860" lon="8.8252580">
        <ele>-30.4</ele>
        <time>2022-06-10T09:03:46Z</time>
      </trkpt>
      <trkpt lat="47.5406130" lon="8.8249980">
        <ele>-30.2</ele>
        <time>2022-06-10T09:03:50Z</time>
      </trkpt>
      <trkpt lat="47.5405350" lon="8.8247200">
        <ele>-31.0</ele>
        <time>2022-06-10T09:03:54Z</time>
      </trkpt>
      <trkpt lat="47.5404450" lon="8.8244180">
        <ele>-32.2</ele>
        <time>2022-06-10T09:03:58Z</time>
      </trkpt>
      <trkpt lat="47.5403380" lon="8.8240710">
        <ele>-33.4</ele>
        <time>2022-06-10T09:04:02Z</time>
      </trkpt>
      <trkpt lat="47.5402210" lon="8.8236750">
        <ele>-34.0</ele>
        <time>2022-06-10T09:04:06Z</time>
      </trkpt>
      <trkpt lat="47.5400910" lon="8.8232380">
        <ele>-35.0</ele>
        <time>2022-06-10T09:04:10Z</time>
      </trkpt>
      <trkpt lat="47.5399650" lon="8.8228330">
        <ele>-36.2</ele>
        <time>2022-06-10T09:04:14Z</time>
      </trkpt>
      <trkpt lat="47.5398610" lon="8.8224800">
        <ele>-35.6</ele>
        <time>2022-06-10T09:04:18Z</time>
      </trkpt>
      <trkpt lat="47.5397850" lon="8.8221360">
        <ele>-35.4</ele>
        <time>2022-06-10T09:04:22Z</time>
      </trkpt>
      <trkpt lat="47.5397350" lon="8.8217960">
        <ele>-35.6</ele>
        <time>2022-06-10T09:04:26Z</time>
      </trkpt>
      <trkpt lat="47.5397110" lon="8.8214680">
        <ele>-35.6</ele>
        <time>2022-06-10T09:04:30Z</time>
      </trkpt>
      <trkpt lat="47.5397210" lon="8.8211460">
        <ele>-35.2</ele>
        <time>2022-06-10T09:04:34Z</time>
      </trkpt>
      <trkpt lat="47.5397310" lon="8.8208280">
        <ele>-35.0</ele>
        <time>2022-06-10T09:04:38Z</time>
      </trkpt>
      <trkpt lat="47.5397710" lon="8.8205400">
        <ele>-35.0</ele>
        <time>2022-06-10T09:04:42Z</time>
      </trkpt>
      <trkpt lat="47.5398030" lon="8.8202660">
        <ele>-34.6</ele>
        <time>2022-06-10T09:04:46Z</time>
      </trkpt>
      <trkpt lat="47.5398250" lon="8.8199980">
        <ele>-34.6</ele>
        <time>2022-06-10T09:04:50Z</time>
      </trkpt>
      <trkpt lat="47.5398530" lon="8.8197400">
        <ele>-33.6</ele>
        <time>2022-06-10T09:04:54Z</time>
      </trkpt>
      <trkpt lat="47.5398760" lon="8.8194800">
        <ele>-33.8</ele>
        <time>2022-06-10T09:04:58Z</time>
      </trkpt>
      <trkpt lat="47.5398960" lon="8.8192180">
        <ele>-33.6</ele>
        <time>2022-06-10T09:05:02Z</time>
      </trkpt>
      <trkpt lat="47.5399110" lon="8.8189530">
        <ele>-33.0</ele>
        <time>2022-06-10T09:05:06Z</time>
      </trkpt>
      <trkpt lat="47.5399300" lon="8.8186930">
        <ele>-33.2</ele>
        <time>2022-06-10T09:05:10Z</time>
      </trkpt>
      <trkpt lat="47.5399450" lon="8.8184380">
        <ele>-33.0</ele>
        <time>2022-06-10T09:05:14Z</time>
      </trkpt>
      <trkpt lat="47.5399300" lon="8.8181830">
        <ele>-32.8</ele>
        <time>2022-06-10T09:05:18Z</time>
      </trkpt>
      <trkpt lat="47.5398450" lon="8.8179230">
        <ele>-33.2</ele>
        <time>2022-06-10T09:05:22Z</time>
      </trkpt>
      <trkpt lat="47.5397680" lon="8.8176460">
        <ele>-33.6</ele>
        <time>2022-06-10T09:05:26Z</time>
      </trkpt>
      <trkpt lat="47.5396830" lon="8.8173600">
        <ele>-34.2</ele>
        <time>2022-06-10T09:05:30Z</time>
      </trkpt>
      <trkpt lat="47.5396030" lon="8.8170500">
        <ele>-35.2</ele>
        <time>2022-06-10T09:05:34Z</time>
      </trkpt>
      <trkpt lat="47.5395030" lon="8.8167410">
        <ele>-35.6</ele>
        <time>2022-06-10T09:05:38Z</time>
      </trkpt>
      <trkpt lat="47.5394130" lon="8.8164500">
        <ele>-35.6</ele>
        <time>2022-06-10T09:05:42Z</time>
      </trkpt>
      <trkpt lat="47.5393330" lon="8.8161680">
        <ele>-35.0</ele>
        <time>2022-06-10T09:05:46Z</time>
      </trkpt>
      <trkpt lat="47.5392600" lon="8.8159010">
        <ele>-34.8</ele>
        <time>2022-06-10T09:05:50Z</time>
      </trkpt>
      <trkpt lat="47.5391980" lon="8.8156560">
        <ele>-34.2</ele>
        <time>2022-06-10T09:05:54Z</time>
      </trkpt>
      <trkpt lat="47.5391350" lon="8.8154160">
        <ele>-33.6</ele>
        <time>2022-06-10T09:05:58Z</time>
      </trkpt>
      <trkpt lat="47.5390800" lon="8.8151730">
        <ele>-32.4</ele>
        <time>2022-06-10T09:06:02Z</time>
      </trkpt>
      <trkpt lat="47.5390200" lon="8.8149310">
        <ele>-32.0</ele>
        <time>2022-06-10T09:06:06Z</time>
      </trkpt>
      <trkpt lat="47.5389560" lon="8.8146980">
        <ele>-31.8</ele>
        <time>2022-06-10T09:06:10Z</time>
      </trkpt>
      <trkpt lat="47.5389050" lon="8.8144630">
        <ele>-31.6</ele>
        <time>2022-06-10T09:06:14Z</time>
      </trkpt>
      <trkpt lat="47.5388600" lon="8.8142300">
        <ele>-31.2</ele>
        <time>2022-06-10T09:06:18Z</time>
      </trkpt>
      <trkpt lat="47.5388180" lon="8.8139910">
        <ele>-31.4</ele>
        <time>2022-06-10T09:06:22Z</time>
      </trkpt>
      <trkpt lat="47.5387680" lon="8.8137560">
        <ele>-30.8</ele>
        <time>2022-06-10T09:06:26Z</time>
      </trkpt>
      <trkpt lat="47.5387230" lon="8.8135130">
        <ele>-30.6</ele>
        <time>2022-06-10T09:06:30Z</time>
      </trkpt>
      <trkpt lat="47.5386810" lon="8.8132750">
        <ele>-30.4</ele>
        <time>2022-06-10T09:06:34Z</time>
      </trkpt>
      <trkpt lat="47.5386380" lon="8.8130360">
        <ele>-30.0</ele>
        <time>2022-06-10T09:06:38Z</time>
      </trkpt>
      <trkpt lat="47.5385950" lon="8.8128000">
        <ele>-29.6</ele>
        <time>2022-06-10T09:06:42Z</time>
      </trkpt>
      <trkpt lat="47.5385530" lon="8.8125580">
        <ele>-29.6</ele>
        <time>2022-06-10T09:06:46Z</time>
      </trkpt>
      <trkpt lat="47.5385050" lon="8.8123200">
        <ele>-29.4</ele>
        <time>2022-06-10T09:06:50Z</time>
      </trkpt>
      <trkpt lat="47.5384650" lon="8.8120730">
        <ele>-30.2</ele>
        <time>2022-06-10T09:06:54Z</time>
      </trkpt>
      <trkpt lat="47.5384160" lon="8.8118280">
        <ele>-29.0</ele>
        <time>2022-06-10T09:06:58Z</time>
      </trkpt>
      <trkpt lat="47.5383700" lon="8.8115830">
        <ele>-28.6</ele>
        <time>2022-06-10T09:07:02Z</time>
      </trkpt>
      <trkpt lat="47.5383260" lon="8.8113350">
        <ele>-29.0</ele>
        <time>2022-06-10T09:07:06Z</time>
      </trkpt>
      <trkpt lat="47.5382750" lon="8.8110800">
        <ele>-28.6</ele>
        <time>2022-06-10T09:07:10Z</time>
      </trkpt>
      <trkpt lat="47.5382260" lon="8.8108230">
        <ele>-28.4</ele>
        <time>2022-06-10T09:07:14Z</time>
      </trkpt>
      <trkpt lat="47.5381760" lon="8.8105680">
        <ele>-28.6</ele>
        <time>2022-06-10T09:07:18Z</time>
      </trkpt>
      <trkpt lat="47.5381260" lon="8.8103150">
        <ele>-28.8</ele>
        <time>2022-06-10T09:07:22Z</time>
      </trkpt>
      <trkpt lat="47.5380810" lon="8.8100600">
        <ele>-28.6</ele>
        <time>2022-06-10T09:07:26Z</time>
      </trkpt>
      <trkpt lat="47.5380280" lon="8.8098010">
        <ele>-28.4</ele>
        <time>2022-06-10T09:07:30Z</time>
      </trkpt>
      <trkpt lat="47.5379810" lon="8.8095380">
        <ele>-28.6</ele>
        <time>2022-06-10T09:07:34Z</time>
      </trkpt>
      <trkpt lat="47.5379380" lon="8.8092910">
        <ele>-28.6</ele>
        <time>2022-06-10T09:07:38Z</time>
      </trkpt>
      <trkpt lat="47.5379010" lon="8.8090780">
        <ele>-28.6</ele>
        <time>2022-06-10T09:07:42Z</time>
      </trkpt>
      <trkpt lat="47.5378850" lon="8.8088950">
        <ele>-28.4</ele>
        <time>2022-06-10T09:07:46Z</time>
      </trkpt>
      <trkpt lat="47.5378750" lon="8.8087580">
        <ele>-28.4</ele>
        <time>2022-06-10T09:07:50Z</time>
      </trkpt>
      <trkpt lat="47.5378750" lon="8.8087580">
        <ele>-28.2</ele>
        <time>2022-06-10T09:07:54Z</time>
      </trkpt>
      <trkpt lat="47.5378750" lon="8.8087580">
        <ele>-28.2</ele>
        <time>2022-06-10T09:07:58Z</time>
      </trkpt>
      <trkpt lat="47.5378750" lon="8.8087580">
        <ele>-28.4</ele>
        <time>2022-06-10T09:08:02Z</time>
      </trkpt>
      <trkpt lat="47.5378750" lon="8.8087580">
        <ele>-28.4</ele>
        <time>2022-06-10T09:08:06Z</time>
      </trkpt>
      <trkpt lat="47.5378750" lon="8.8087580">
        <ele>-28.4</ele>
        <time>2022-06-10T09:08:10Z</time>
      </trkpt>
      <trkpt lat="47.5378750" lon="8.8087580">
        <ele>-28.0</ele>
        <time>2022-06-10T09:08:14Z</time>
      </trkpt>
      <trkpt lat="47.5378750" lon="8.8087580">
        <ele>-28.4</ele>
        <time>2022-06-10T09:08:18Z</time>
      </trkpt>
      <trkpt lat="47.5378750" lon="8.8087580">
        <ele>-28.4</ele>
        <time>2022-06-10T09:08:22Z</time>
      </trkpt>
      <trkpt lat="47.5378750" lon="8.8087580">
        <ele>-27.6</ele>
        <time>2022-06-10T09:08:26Z</time>
      </trkpt>
      <trkpt lat="47.5378750" lon="8.8087580">
        <ele>-28.0</ele>
        <time>2022-06-10T09:08:30Z</time>
      </trkpt>
      <trkpt lat="47.5378750" lon="8.8087580">
        <ele>-27.8</ele>
        <time>2022-06-10T09:08:34Z</time>
      </trkpt>
      <trkpt lat="47.5378750" lon="8.8087580">
        <ele>-27.6</ele>
        <time>2022-06-10T09:08:38Z</time>
      </trkpt>
      <trkpt lat="47.5378750" lon="8.8087580">
        <ele>-27.8</ele>
        <time>2022-06-10T09:08:42Z</time>
      </trkpt>
      <trkpt lat="47.5378900" lon="8.8087310">
        <ele>-28.0</ele>
        <time>2022-06-10T09:08:46Z</time>
      </trkpt>
      <trkpt lat="47.5378900" lon="8.8087310">
        <ele>-28.0</ele>
        <time>2022-06-10T09:08:50Z</time>
      </trkpt>
      <trkpt lat="47.5378900" lon="8.8087310">
        <ele>-27.8</ele>
        <time>2022-06-10T09:08:54Z</time>
      </trkpt>
      <trkpt lat="47.5378900" lon="8.8087310">
        <ele>-28.2</ele>
        <time>2022-06-10T09:08:58Z</time>
      </trkpt>
      <trkpt lat="47.5378650" lon="8.8087330">
        <ele>-27.8</ele>
        <time>2022-06-10T09:09:02Z</time>
      </trkpt>
      <trkpt lat="47.5378580" lon="8.8086550">
        <ele>-27.8</ele>
        <time>2022-06-10T09:09:06Z</time>
      </trkpt>
      <trkpt lat="47.5378430" lon="8.8085310">
        <ele>-27.8</ele>
        <time>2022-06-10T09:09:10Z</time>
      </trkpt>
      <trkpt lat="47.5378180" lon="8.8083680">
        <ele>-28.0</ele>
        <time>2022-06-10T09:09:14Z</time>
      </trkpt>
      <trkpt lat="47.5378150" lon="8.8082330">
        <ele>-27.8</ele>
        <time>2022-06-10T09:09:18Z</time>
      </trkpt>
      <trkpt lat="47.5378030" lon="8.8081680">
        <ele>-27.6</ele>
        <time>2022-06-10T09:09:22Z</time>
      </trkpt>
      <trkpt lat="47.5377710" lon="8.8077580">
        <ele>-27.4</ele>
        <time>2022-06-10T09:09:26Z</time>
      </trkpt>
      <trkpt lat="47.5377230" lon="8.8074510">
        <ele>-27.6</ele>
        <time>2022-06-10T09:09:30Z</time>
      </trkpt>
      <trkpt lat="47.5377080" lon="8.8071960">
        <ele>-27.2</ele>
        <time>2022-06-10T09:09:34Z</time>
      </trkpt>
      <trkpt lat="47.5376860" lon="8.8069630">
        <ele>-27.2</ele>
        <time>2022-06-10T09:09:38Z</time>
      </trkpt>
      <trkpt lat="47.5376710" lon="8.8067310">
        <ele>-26.4</ele>
        <time>2022-06-10T09:09:42Z</time>
      </trkpt>
      <trkpt lat="47.5376560" lon="8.8065010">
        <ele>-26.4</ele>
        <time>2022-06-10T09:09:46Z</time>
      </trkpt>
      <trkpt lat="47.5376480" lon="8.8062680">
        <ele>-26.2</ele>
        <time>2022-06-10T09:09:50Z</time>
      </trkpt>
      <trkpt lat="47.5376430" lon="8.8060310">
        <ele>-25.8</ele>
        <time>2022-06-10T09:09:54Z</time>
      </trkpt>
      <trkpt lat="47.5376350" lon="8.8057930">
        <ele>-25.6</ele>
        <time>2022-06-10T09:09:58Z</time>
      </trkpt>
      <trkpt lat="47.5376380" lon="8.8055410">
        <ele>-25.2</ele>
        <time>2022-06-10T09:10:02Z</time>
      </trkpt>
      <trkpt lat="47.5376460" lon="8.8052750">
        <ele>-25.0</ele>
        <time>2022-06-10T09:10:06Z</time>
      </trkpt>
      <trkpt lat="47.5376450" lon="8.8050260">
        <ele>-23.8</ele>
        <time>2022-06-10T09:10:10Z</time>
      </trkpt>
      <trkpt lat="47.5376400" lon="8.8047950">
        <ele>-23.8</ele>
        <time>2022-06-10T09:10:14Z</time>
      </trkpt>
      <trkpt lat="47.5376250" lon="8.8045650">
        <ele>-23.2</ele>
        <time>2022-06-10T09:10:18Z</time>
      </trkpt>
      <trkpt lat="47.5375960" lon="8.8043250">
        <ele>-23.2</ele>
        <time>2022-06-10T09:10:22Z</time>
      </trkpt>
      <trkpt lat="47.5375560" lon="8.8040900">
        <ele>-23.2</ele>
        <time>2022-06-10T09:10:26Z</time>
      </trkpt>
      <trkpt lat="47.5375030" lon="8.8038600">
        <ele>-23.0</ele>
        <time>2022-06-10T09:10:30Z</time>
      </trkpt>
      <trkpt lat="47.5374380" lon="8.8036450">
        <ele>-22.6</ele>
        <time>2022-06-10T09:10:34Z</time>
      </trkpt>
      <trkpt lat="47.5373700" lon="8.8034310">
        <ele>-22.4</ele>
        <time>2022-06-10T09:10:38Z</time>
      </trkpt>
      <trkpt lat="47.5372980" lon="8.8032230">
        <ele>-22.6</ele>
        <time>2022-06-10T09:10:42Z</time>
      </trkpt>
      <trkpt lat="47.5372280" lon="8.8030050">
        <ele>-22.6</ele>
        <time>2022-06-10T09:10:46Z</time>
      </trkpt>
      <trkpt lat="47.5371530" lon="8.8027750">
        <ele>-22.8</ele>
        <time>2022-06-10T09:10:50Z</time>
      </trkpt>
      <trkpt lat="47.5370750" lon="8.8025360">
        <ele>-23.0</ele>
        <time>2022-06-10T09:10:54Z</time>
      </trkpt>
      <trkpt lat="47.5369980" lon="8.8022910">
        <ele>-23.2</ele>
        <time>2022-06-10T09:10:58Z</time>
      </trkpt>
      <trkpt lat="47.5369380" lon="8.8020380">
        <ele>-22.6</ele>
        <time>2022-06-10T09:11:02Z</time>
      </trkpt>
      <trkpt lat="47.5368860" lon="8.8017760">
        <ele>-23.0</ele>
        <time>2022-06-10T09:11:06Z</time>
      </trkpt>
      <trkpt lat="47.5368310" lon="8.8015150">
        <ele>-23.2</ele>
        <time>2022-06-10T09:11:10Z</time>
      </trkpt>
      <trkpt lat="47.5367800" lon="8.8012430">
        <ele>-22.6</ele>
        <time>2022-06-10T09:11:14Z</time>
      </trkpt>
      <trkpt lat="47.5367260" lon="8.8009660">
        <ele>-22.0</ele>
        <time>2022-06-10T09:11:18Z</time>
      </trkpt>
      <trkpt lat="47.5366680" lon="8.8007180">
        <ele>-21.8</ele>
        <time>2022-06-10T09:11:22Z</time>
      </trkpt>
      <trkpt lat="47.5366210" lon="8.8004610">
        <ele>-21.4</ele>
        <time>2022-06-10T09:11:26Z</time>
      </trkpt>
      <trkpt lat="47.5365660" lon="8.8002200">
        <ele>-20.8</ele>
        <time>2022-06-10T09:11:30Z</time>
      </trkpt>
      <trkpt lat="47.5365130" lon="8.7999810">
        <ele>-20.2</ele>
        <time>2022-06-10T09:11:34Z</time>
      </trkpt>
      <trkpt lat="47.5364460" lon="8.7997650">
        <ele>-19.2</ele>
        <time>2022-06-10T09:11:38Z</time>
      </trkpt>
      <trkpt lat="47.5363610" lon="8.7995650">
        <ele>-18.6</ele>
        <time>2022-06-10T09:11:42Z</time>
      </trkpt>
      <trkpt lat="47.5362780" lon="8.7993860">
        <ele>-18.6</ele>
        <time>2022-06-10T09:11:46Z</time>
      </trkpt>
      <trkpt lat="47.5361910" lon="8.7992430">
        <ele>-18.8</ele>
        <time>2022-06-10T09:11:50Z</time>
      </trkpt>
      <trkpt lat="47.5361160" lon="8.7990860">
        <ele>-18.6</ele>
        <time>2022-06-10T09:11:54Z</time>
      </trkpt>
      <trkpt lat="47.5360460" lon="8.7988910">
        <ele>-18.8</ele>
        <time>2022-06-10T09:11:58Z</time>
      </trkpt>
      <trkpt lat="47.5359860" lon="8.7986810">
        <ele>-18.6</ele>
        <time>2022-06-10T09:12:02Z</time>
      </trkpt>
      <trkpt lat="47.5359480" lon="8.7984500">
        <ele>-18.2</ele>
        <time>2022-06-10T09:12:06Z</time>
      </trkpt>
      <trkpt lat="47.5359230" lon="8.7982110">
        <ele>-18.2</ele>
        <time>2022-06-10T09:12:10Z</time>
      </trkpt>
      <trkpt lat="47.5359180" lon="8.7979730">
        <ele>-18.4</ele>
        <time>2022-06-10T09:12:14Z</time>
      </trkpt>
      <trkpt lat="47.5359180" lon="8.7977230">
        <ele>-18.6</ele>
        <time>2022-06-10T09:12:18Z</time>
      </trkpt>
      <trkpt lat="47.5359110" lon="8.7974530">
        <ele>-19.0</ele>
        <time>2022-06-10T09:12:22Z</time>
      </trkpt>
      <trkpt lat="47.5359100" lon="8.7971700">
        <ele>-19.4</ele>
        <time>2022-06-10T09:12:26Z</time>
      </trkpt>
      <trkpt lat="47.5359530" lon="8.7969310">
        <ele>-19.8</ele>
        <time>2022-06-10T09:12:30Z</time>
      </trkpt>
      <trkpt lat="47.5360680" lon="8.7967380">
        <ele>-20.0</ele>
        <time>2022-06-10T09:12:34Z</time>
      </trkpt>
      <trkpt lat="47.5362130" lon="8.7965230">
        <ele>-21.4</ele>
        <time>2022-06-10T09:12:38Z</time>
      </trkpt>
      <trkpt lat="47.5363850" lon="8.7962700">
        <ele>-22.4</ele>
        <time>2022-06-10T09:12:42Z</time>
      </trkpt>
      <trkpt lat="47.5365980" lon="8.7960800">
        <ele>-22.6</ele>
        <time>2022-06-10T09:12:46Z</time>
      </trkpt>
      <trkpt lat="47.5367280" lon="8.7958430">
        <ele>-23.0</ele>
        <time>2022-06-10T09:12:50Z</time>
      </trkpt>
      <trkpt lat="47.5367010" lon="8.7955600">
        <ele>-22.8</ele>
        <time>2022-06-10T09:12:54Z</time>
      </trkpt>
      <trkpt lat="47.5366460" lon="8.7953150">
        <ele>-21.8</ele>
        <time>2022-06-10T09:12:58Z</time>
      </trkpt>
      <trkpt lat="47.5366000" lon="8.7950910">
        <ele>-21.0</ele>
        <time>2022-06-10T09:13:02Z</time>
      </trkpt>
      <trkpt lat="47.5365650" lon="8.7948860">
        <ele>-20.2</ele>
        <time>2022-06-10T09:13:06Z</time>
      </trkpt>
      <trkpt lat="47.5365310" lon="8.7946900">
        <ele>-20.0</ele>
        <time>2022-06-10T09:13:10Z</time>
      </trkpt>
      <trkpt lat="47.5364950" lon="8.7945030">
        <ele>-19.6</ele>
        <time>2022-06-10T09:13:14Z</time>
      </trkpt>
      <trkpt lat="47.5364530" lon="8.7943210">
        <ele>-19.2</ele>
        <time>2022-06-10T09:13:18Z</time>
      </trkpt>
      <trkpt lat="47.5364150" lon="8.7941460">
        <ele>-18.4</ele>
        <time>2022-06-10T09:13:22Z</time>
      </trkpt>
      <trkpt lat="47.5363800" lon="8.7939680">
        <ele>-18.4</ele>
        <time>2022-06-10T09:13:26Z</time>
      </trkpt>
      <trkpt lat="47.5363500" lon="8.7938080">
        <ele>-18.0</ele>
        <time>2022-06-10T09:13:30Z</time>
      </trkpt>
      <trkpt lat="47.5363150" lon="8.7936550">
        <ele>-17.2</ele>
        <time>2022-06-10T09:13:34Z</time>
      </trkpt>
      <trkpt lat="47.5362880" lon="8.7934900">
        <ele>-17.0</ele>
        <time>2022-06-10T09:13:38Z</time>
      </trkpt>
      <trkpt lat="47.5362550" lon="8.7933310">
        <ele>-17.0</ele>
        <time>2022-06-10T09:13:42Z</time>
      </trkpt>
      <trkpt lat="47.5362160" lon="8.7931610">
        <ele>-16.6</ele>
        <time>2022-06-10T09:13:46Z</time>
      </trkpt>
      <trkpt lat="47.5361910" lon="8.7929750">
        <ele>-16.0</ele>
        <time>2022-06-10T09:13:50Z</time>
      </trkpt>
      <trkpt lat="47.5361760" lon="8.7927830">
        <ele>-16.0</ele>
        <time>2022-06-10T09:13:54Z</time>
      </trkpt>
      <trkpt lat="47.5361400" lon="8.7925830">
        <ele>-16.0</ele>
        <time>2022-06-10T09:13:58Z</time>
      </trkpt>
      <trkpt lat="47.5360900" lon="8.7923550">
        <ele>-15.4</ele>
        <time>2022-06-10T09:14:02Z</time>
      </trkpt>
      <trkpt lat="47.5360430" lon="8.7921060">
        <ele>-15.2</ele>
        <time>2022-06-10T09:14:06Z</time>
      </trkpt>
      <trkpt lat="47.5359860" lon="8.7918630">
        <ele>-14.4</ele>
        <time>2022-06-10T09:14:10Z</time>
      </trkpt>
      <trkpt lat="47.5359280" lon="8.7916100">
        <ele>-15.0</ele>
        <time>2022-06-10T09:14:14Z</time>
      </trkpt>
      <trkpt lat="47.5358660" lon="8.7913510">
        <ele>-15.2</ele>
        <time>2022-06-10T09:14:18Z</time>
      </trkpt>
      <trkpt lat="47.5358100" lon="8.7910900">
        <ele>-15.0</ele>
        <time>2022-06-10T09:14:22Z</time>
      </trkpt>
      <trkpt lat="47.5357510" lon="8.7908260">
        <ele>-15.0</ele>
        <time>2022-06-10T09:14:26Z</time>
      </trkpt>
      <trkpt lat="47.5357010" lon="8.7905780">
        <ele>-15.0</ele>
        <time>2022-06-10T09:14:30Z</time>
      </trkpt>
      <trkpt lat="47.5356700" lon="8.7903450">
        <ele>-15.2</ele>
        <time>2022-06-10T09:14:34Z</time>
      </trkpt>
      <trkpt lat="47.5356500" lon="8.7901030">
        <ele>-15.0</ele>
        <time>2022-06-10T09:14:38Z</time>
      </trkpt>
      <trkpt lat="47.5356260" lon="8.7898380">
        <ele>-15.2</ele>
        <time>2022-06-10T09:14:42Z</time>
      </trkpt>
      <trkpt lat="47.5356030" lon="8.7895610">
        <ele>-15.2</ele>
        <time>2022-06-10T09:14:46Z</time>
      </trkpt>
      <trkpt lat="47.5356000" lon="8.7892630">
        <ele>-15.0</ele>
        <time>2022-06-10T09:14:50Z</time>
      </trkpt>
      <trkpt lat="47.5356010" lon="8.7890310">
        <ele>-14.8</ele>
        <time>2022-06-10T09:14:54Z</time>
      </trkpt>
      <trkpt lat="47.5355360" lon="8.7889000">
        <ele>-14.4</ele>
        <time>2022-06-10T09:14:58Z</time>
      </trkpt>
      <trkpt lat="47.5354950" lon="8.7887850">
        <ele>-14.0</ele>
        <time>2022-06-10T09:15:02Z</time>
      </trkpt>
      <trkpt lat="47.5354980" lon="8.7886250">
        <ele>-14.0</ele>
        <time>2022-06-10T09:15:06Z</time>
      </trkpt>
      <trkpt lat="47.5354680" lon="8.7884030">
        <ele>-13.8</ele>
        <time>2022-06-10T09:15:10Z</time>
      </trkpt>
      <trkpt lat="47.5354380" lon="8.7881700">
        <ele>-13.0</ele>
        <time>2022-06-10T09:15:14Z</time>
      </trkpt>
      <trkpt lat="47.5353810" lon="8.7879510">
        <ele>-11.8</ele>
        <time>2022-06-10T09:15:18Z</time>
      </trkpt>
      <trkpt lat="47.5353350" lon="8.7877250">
        <ele>-11.4</ele>
        <time>2022-06-10T09:15:22Z</time>
      </trkpt>
      <trkpt lat="47.5352810" lon="8.7874950">
        <ele>-10.2</ele>
        <time>2022-06-10T09:15:26Z</time>
      </trkpt>
      <trkpt lat="47.5352260" lon="8.7872980">
        <ele>-10.2</ele>
        <time>2022-06-10T09:15:30Z</time>
      </trkpt>
      <trkpt lat="47.5351830" lon="8.7871080">
        <ele>-9.6</ele>
        <time>2022-06-10T09:15:34Z</time>
      </trkpt>
      <trkpt lat="47.5351350" lon="8.7869100">
        <ele>-9.2</ele>
        <time>2022-06-10T09:15:38Z</time>
      </trkpt>
      <trkpt lat="47.5350910" lon="8.7867150">
        <ele>-8.6</ele>
        <time>2022-06-10T09:15:42Z</time>
      </trkpt>
      <trkpt lat="47.5350380" lon="8.7865280">
        <ele>-7.8</ele>
        <time>2022-06-10T09:15:46Z</time>
      </trkpt>
      <trkpt lat="47.5349550" lon="8.7863830">
        <ele>-6.8</ele>
        <time>2022-06-10T09:15:50Z</time>
      </trkpt>
      <trkpt lat="47.5348700" lon="8.7863080">
        <ele>-6.8</ele>
        <time>2022-06-10T09:15:54Z</time>
      </trkpt>
      <trkpt lat="47.5348200" lon="8.7862300">
        <ele>-7.6</ele>
        <time>2022-06-10T09:15:58Z</time>
      </trkpt>
      <trkpt lat="47.5347510" lon="8.7860700">
        <ele>-7.8</ele>
        <time>2022-06-10T09:16:02Z</time>
      </trkpt>
      <trkpt lat="47.5346660" lon="8.7858600">
        <ele>-8.2</ele>
        <time>2022-06-10T09:16:06Z</time>
      </trkpt>
      <trkpt lat="47.5345880" lon="8.7855860">
        <ele>-8.6</ele>
        <time>2022-06-10T09:16:10Z</time>
      </trkpt>
      <trkpt lat="47.5345650" lon="8.7852700">
        <ele>-7.4</ele>
        <time>2022-06-10T09:16:14Z</time>
      </trkpt>
      <trkpt lat="47.5345450" lon="8.7850330">
        <ele>-5.6</ele>
        <time>2022-06-10T09:16:18Z</time>
      </trkpt>
      <trkpt lat="47.5344900" lon="8.7848360">
        <ele>-5.6</ele>
        <time>2022-06-10T09:16:22Z</time>
      </trkpt>
      <trkpt lat="47.5344550" lon="8.7846360">
        <ele>-4.6</ele>
        <time>2022-06-10T09:16:26Z</time>
      </trkpt>
      <trkpt lat="47.5343900" lon="8.7844410">
        <ele>-4.0</ele>
        <time>2022-06-10T09:16:30Z</time>
      </trkpt>
      <trkpt lat="47.5343360" lon="8.7842410">
        <ele>-3.4</ele>
        <time>2022-06-10T09:16:34Z</time>
      </trkpt>
      <trkpt lat="47.5342500" lon="8.7840460">
        <ele>-3.6</ele>
        <time>2022-06-10T09:16:38Z</time>
      </trkpt>
      <trkpt lat="47.5341860" lon="8.7838360">
        <ele>-3.8</ele>
        <time>2022-06-10T09:16:42Z</time>
      </trkpt>
      <trkpt lat="47.5341330" lon="8.7836160">
        <ele>-3.8</ele>
        <time>2022-06-10T09:16:46Z</time>
      </trkpt>
      <trkpt lat="47.5340680" lon="8.7833810">
        <ele>-3.6</ele>
        <time>2022-06-10T09:16:50Z</time>
      </trkpt>
      <trkpt lat="47.5340310" lon="8.7831310">
        <ele>-3.4</ele>
        <time>2022-06-10T09:16:54Z</time>
      </trkpt>
      <trkpt lat="47.5340000" lon="8.7828860">
        <ele>-2.8</ele>
        <time>2022-06-10T09:16:58Z</time>
      </trkpt>
      <trkpt lat="47.5339750" lon="8.7826510">
        <ele>-2.6</ele>
        <time>2022-06-10T09:17:02Z</time>
      </trkpt>
      <trkpt lat="47.5339450" lon="8.7824200">
        <ele>-2.6</ele>
        <time>2022-06-10T09:17:06Z</time>
      </trkpt>
      <trkpt lat="47.5339030" lon="8.7821800">
        <ele>-2.4</ele>
        <time>2022-06-10T09:17:10Z</time>
      </trkpt>
      <trkpt lat="47.5338710" lon="8.7819300">
        <ele>-2.4</ele>
        <time>2022-06-10T09:17:14Z</time>
      </trkpt>
      <trkpt lat="47.5338250" lon="8.7816810">
        <ele>-2.2</ele>
        <time>2022-06-10T09:17:18Z</time>
      </trkpt>
      <trkpt lat="47.5337780" lon="8.7814200">
        <ele>-3.0</ele>
        <time>2022-06-10T09:17:22Z</time>
      </trkpt>
      <trkpt lat="47.5337330" lon="8.7811280">
        <ele>-2.6</ele>
        <time>2022-06-10T09:17:26Z</time>
      </trkpt>
      <trkpt lat="47.5336850" lon="8.7808110">
        <ele>-3.4</ele>
        <time>2022-06-10T09:17:30Z</time>
      </trkpt>
      <trkpt lat="47.5336450" lon="8.7804900">
        <ele>-3.4</ele>
        <time>2022-06-10T09:17:34Z</time>
      </trkpt>
      <trkpt lat="47.5335810" lon="8.7801830">
        <ele>-4.2</ele>
        <time>2022-06-10T09:17:38Z</time>
      </trkpt>
      <trkpt lat="47.5334900" lon="8.7799030">
        <ele>-3.4</ele>
        <time>2022-06-10T09:17:42Z</time>
      </trkpt>
      <trkpt lat="47.5333850" lon="8.7796330">
        <ele>-3.4</ele>
        <time>2022-06-10T09:17:46Z</time>
      </trkpt>
      <trkpt lat="47.5332980" lon="8.7793460">
        <ele>-3.4</ele>
        <time>2022-06-10T09:17:50Z</time>
      </trkpt>
      <trkpt lat="47.5332080" lon="8.7790560">
        <ele>-3.2</ele>
        <time>2022-06-10T09:17:54Z</time>
      </trkpt>
      <trkpt lat="47.5331250" lon="8.7787610">
        <ele>-3.0</ele>
        <time>2022-06-10T09:17:58Z</time>
      </trkpt>
      <trkpt lat="47.5330510" lon="8.7784850">
        <ele>-2.4</ele>
        <time>2022-06-10T09:18:02Z</time>
      </trkpt>
      <trkpt lat="47.5329800" lon="8.7782530">
        <ele>-2.0</ele>
        <time>2022-06-10T09:18:06Z</time>
      </trkpt>
      <trkpt lat="47.5329060" lon="8.7780400">
        <ele>-1.0</ele>
        <time>2022-06-10T09:18:10Z</time>
      </trkpt>
      <trkpt lat="47.5328330" lon="8.7778300">
        <ele>-0.8</ele>
        <time>2022-06-10T09:18:14Z</time>
      </trkpt>
      <trkpt lat="47.5327660" lon="8.7776100">
        <ele>-0.4</ele>
        <time>2022-06-10T09:18:18Z</time>
      </trkpt>
      <trkpt lat="47.5327130" lon="8.7773980">
        <ele>-0.2</ele>
        <time>2022-06-10T09:18:22Z</time>
      </trkpt>
      <trkpt lat="47.5327400" lon="8.7772100">
        <ele>0.0</ele>
        <time>2022-06-10T09:18:26Z</time>
      </trkpt>
      <trkpt lat="47.5328280" lon="8.7771100">
        <ele>1.0</ele>
        <time>2022-06-10T09:18:30Z</time>
      </trkpt>
      <trkpt lat="47.5329210" lon="8.7770300">
        <ele>1.4</ele>
        <time>2022-06-10T09:18:34Z</time>
      </trkpt>
      <trkpt lat="47.5330030" lon="8.7769530">
        <ele>3.2</ele>
        <time>2022-06-10T09:18:38Z</time>
      </trkpt>
      <trkpt lat="47.5330800" lon="8.7768930">
        <ele>4.0</ele>
        <time>2022-06-10T09:18:42Z</time>
      </trkpt>
      <trkpt lat="47.5331530" lon="8.7768210">
        <ele>5.6</ele>
        <time>2022-06-10T09:18:46Z</time>
      </trkpt>
      <trkpt lat="47.5332280" lon="8.7767580">
        <ele>6.6</ele>
        <time>2022-06-10T09:18:50Z</time>
      </trkpt>
      <trkpt lat="47.5332980" lon="8.7766830">
        <ele>7.6</ele>
        <time>2022-06-10T09:18:54Z</time>
      </trkpt>
      <trkpt lat="47.5333710" lon="8.7766230">
        <ele>8.4</ele>
        <time>2022-06-10T09:18:58Z</time>
      </trkpt>
      <trkpt lat="47.5334430" lon="8.7765760">
        <ele>8.8</ele>
        <time>2022-06-10T09:19:02Z</time>
      </trkpt>
      <trkpt lat="47.5335080" lon="8.7765180">
        <ele>9.2</ele>
        <time>2022-06-10T09:19:06Z</time>
      </trkpt>
      <trkpt lat="47.5335650" lon="8.7764580">
        <ele>10.0</ele>
        <time>2022-06-10T09:19:10Z</time>
      </trkpt>
      <trkpt lat="47.5336230" lon="8.7764000">
        <ele>11.2</ele>
        <time>2022-06-10T09:19:14Z</time>
      </trkpt>
      <trkpt lat="47.5336710" lon="8.7763280">
        <ele>12.0</ele>
        <time>2022-06-10T09:19:18Z</time>
      </trkpt>
      <trkpt lat="47.5337250" lon="8.7762580">
        <ele>12.6</ele>
        <time>2022-06-10T09:19:22Z</time>
      </trkpt>
      <trkpt lat="47.5337730" lon="8.7761750">
        <ele>13.4</ele>
        <time>2022-06-10T09:19:26Z</time>
      </trkpt>
      <trkpt lat="47.5338130" lon="8.7760860">
        <ele>14.0</ele>
        <time>2022-06-10T09:19:30Z</time>
      </trkpt>
      <trkpt lat="47.5338430" lon="8.7759980">
        <ele>14.6</ele>
        <time>2022-06-10T09:19:34Z</time>
      </trkpt>
      <trkpt lat="47.5338780" lon="8.7759110">
        <ele>15.6</ele>
        <time>2022-06-10T09:19:38Z</time>
      </trkpt>
      <trkpt lat="47.5339130" lon="8.7758160">
        <ele>16.2</ele>
        <time>2022-06-10T09:19:42Z</time>
      </trkpt>
      <trkpt lat="47.5339350" lon="8.7757150">
        <ele>16.2</ele>
        <time>2022-06-10T09:19:46Z</time>
      </trkpt>
      <trkpt lat="47.5339660" lon="8.7756130">
        <ele>16.8</ele>
        <time>2022-06-10T09:19:50Z</time>
      </trkpt>
      <trkpt lat="47.5339850" lon="8.7755060">
        <ele>18.0</ele>
        <time>2022-06-10T09:19:54Z</time>
      </trkpt>
      <trkpt lat="47.5340000" lon="8.7754060">
        <ele>19.2</ele>
        <time>2022-06-10T09:19:58Z</time>
      </trkpt>
      <trkpt lat="47.5340130" lon="8.7753080">
        <ele>19.4</ele>
        <time>2022-06-10T09:20:02Z</time>
      </trkpt>
      <trkpt lat="47.5340210" lon="8.7752050">
        <ele>19.8</ele>
        <time>2022-06-10T09:20:06Z</time>
      </trkpt>
      <trkpt lat="47.5340180" lon="8.7751050">
        <ele>20.6</ele>
        <time>2022-06-10T09:20:10Z</time>
      </trkpt>
      <trkpt lat="47.5340180" lon="8.7750030">
        <ele>20.4</ele>
        <time>2022-06-10T09:20:14Z</time>
      </trkpt>
      <trkpt lat="47.5340130" lon="8.7748900">
        <ele>20.6</ele>
        <time>2022-06-10T09:20:18Z</time>
      </trkpt>
      <trkpt lat="47.5340360" lon="8.7747630">
        <ele>20.0</ele>
        <time>2022-06-10T09:20:22Z</time>
      </trkpt>
      <trkpt lat="47.5340780" lon="8.7745930">
        <ele>20.0</ele>
        <time>2022-06-10T09:20:26Z</time>
      </trkpt>
      <trkpt lat="47.5341410" lon="8.7744010">
        <ele>19.8</ele>
        <time>2022-06-10T09:20:30Z</time>
      </trkpt>
      <trkpt lat="47.5341950" lon="8.7742080">
        <ele>19.6</ele>
        <time>2022-06-10T09:20:34Z</time>
      </trkpt>
      <trkpt lat="47.5342760" lon="8.7740380">
        <ele>19.2</ele>
        <time>2022-06-10T09:20:38Z</time>
      </trkpt>
      <trkpt lat="47.5343460" lon="8.7738410">
        <ele>19.2</ele>
        <time>2022-06-10T09:20:42Z</time>
      </trkpt>
      <trkpt lat="47.5344180" lon="8.7736460">
        <ele>19.4</ele>
        <time>2022-06-10T09:20:46Z</time>
      </trkpt>
      <trkpt lat="47.5344900" lon="8.7734560">
        <ele>19.4</ele>
        <time>2022-06-10T09:20:50Z</time>
      </trkpt>
      <trkpt lat="47.5345550" lon="8.7732850">
        <ele>20.2</ele>
        <time>2022-06-10T09:20:54Z</time>
      </trkpt>
      <trkpt lat="47.5346150" lon="8.7731000">
        <ele>20.6</ele>
        <time>2022-06-10T09:20:58Z</time>
      </trkpt>
      <trkpt lat="47.5346950" lon="8.7729300">
        <ele>20.0</ele>
        <time>2022-06-10T09:21:02Z</time>
      </trkpt>
      <trkpt lat="47.5347780" lon="8.7727630">
        <ele>20.2</ele>
        <time>2022-06-10T09:21:06Z</time>
      </trkpt>
      <trkpt lat="47.5348650" lon="8.7726000">
        <ele>20.2</ele>
        <time>2022-06-10T09:21:10Z</time>
      </trkpt>
      <trkpt lat="47.5349510" lon="8.7724400">
        <ele>20.2</ele>
        <time>2022-06-10T09:21:14Z</time>
      </trkpt>
      <trkpt lat="47.5350300" lon="8.7722510">
        <ele>20.0</ele>
        <time>2022-06-10T09:21:18Z</time>
      </trkpt>
      <trkpt lat="47.5351030" lon="8.7720550">
        <ele>20.0</ele>
        <time>2022-06-10T09:21:22Z</time>
      </trkpt>
      <trkpt lat="47.5351900" lon="8.7718510">
        <ele>19.0</ele>
        <time>2022-06-10T09:21:26Z</time>
      </trkpt>
      <trkpt lat="47.5353360" lon="8.7716280">
        <ele>18.0</ele>
        <time>2022-06-10T09:21:30Z</time>
      </trkpt>
      <trkpt lat="47.5355280" lon="8.7713950">
        <ele>16.0</ele>
        <time>2022-06-10T09:21:34Z</time>
      </trkpt>
      <trkpt lat="47.5357130" lon="8.7711550">
        <ele>13.4</ele>
        <time>2022-06-10T09:21:38Z</time>
      </trkpt>
      <trkpt lat="47.5359530" lon="8.7708930">
        <ele>11.4</ele>
        <time>2022-06-10T09:21:42Z</time>
      </trkpt>
      <trkpt lat="47.5362300" lon="8.7707160">
        <ele>10.8</ele>
        <time>2022-06-10T09:21:46Z</time>
      </trkpt>
      <trkpt lat="47.5364960" lon="8.7706930">
        <ele>9.4</ele>
        <time>2022-06-10T09:21:50Z</time>
      </trkpt>
      <trkpt lat="47.5366930" lon="8.7705680">
        <ele>7.2</ele>
        <time>2022-06-10T09:21:54Z</time>
      </trkpt>
      <trkpt lat="47.5366110" lon="8.7702300">
        <ele>6.0</ele>
        <time>2022-06-10T09:21:58Z</time>
      </trkpt>
      <trkpt lat="47.5365060" lon="8.7698410">
        <ele>2.6</ele>
        <time>2022-06-10T09:22:02Z</time>
      </trkpt>
      <trkpt lat="47.5365200" lon="8.7693510">
        <ele>-1.2</ele>
        <time>2022-06-10T09:22:06Z</time>
      </trkpt>
      <trkpt lat="47.5364960" lon="8.7689180">
        <ele>-3.6</ele>
        <time>2022-06-10T09:22:10Z</time>
      </trkpt>
      <trkpt lat="47.5364360" lon="8.7685300">
        <ele>-5.8</ele>
        <time>2022-06-10T09:22:14Z</time>
      </trkpt>
      <trkpt lat="47.5364050" lon="8.7682500">
        <ele>-7.8</ele>
        <time>2022-06-10T09:22:18Z</time>
      </trkpt>
      <trkpt lat="47.5363900" lon="8.7681050">
        <ele>-8.2</ele>
        <time>2022-06-10T09:22:22Z</time>
      </trkpt>
      <trkpt lat="47.5363350" lon="8.7679850">
        <ele>-8.8</ele>
        <time>2022-06-10T09:22:26Z</time>
      </trkpt>
      <trkpt lat="47.5362050" lon="8.7678880">
        <ele>-9.2</ele>
        <time>2022-06-10T09:22:30Z</time>
      </trkpt>
      <trkpt lat="47.5360610" lon="8.7677400">
        <ele>-9.4</ele>
        <time>2022-06-10T09:22:34Z</time>
      </trkpt>
      <trkpt lat="47.5358980" lon="8.7675600">
        <ele>-9.4</ele>
        <time>2022-06-10T09:22:38Z</time>
      </trkpt>
      <trkpt lat="47.5357180" lon="8.7673610">
        <ele>-10.0</ele>
        <time>2022-06-10T09:22:42Z</time>
      </trkpt>
      <trkpt lat="47.5355130" lon="8.7671460">
        <ele>-12.0</ele>
        <time>2022-06-10T09:22:46Z</time>
      </trkpt>
      <trkpt lat="47.5352860" lon="8.7669400">
        <ele>-12.6</ele>
        <time>2022-06-10T09:22:50Z</time>
      </trkpt>
      <trkpt lat="47.5350610" lon="8.7667100">
        <ele>-13.4</ele>
        <time>2022-06-10T09:22:54Z</time>
      </trkpt>
      <trkpt lat="47.5348210" lon="8.7664710">
        <ele>-14.6</ele>
        <time>2022-06-10T09:22:58Z</time>
      </trkpt>
      <trkpt lat="47.5345880" lon="8.7662010">
        <ele>-15.2</ele>
        <time>2022-06-10T09:23:02Z</time>
      </trkpt>
      <trkpt lat="47.5343750" lon="8.7659010">
        <ele>-15.4</ele>
        <time>2022-06-10T09:23:06Z</time>
      </trkpt>
      <trkpt lat="47.5341580" lon="8.7656300">
        <ele>-16.6</ele>
        <time>2022-06-10T09:23:10Z</time>
      </trkpt>
      <trkpt lat="47.5340500" lon="8.7652560">
        <ele>-17.4</ele>
        <time>2022-06-10T09:23:14Z</time>
      </trkpt>
      <trkpt lat="47.5340230" lon="8.7648510">
        <ele>-18.2</ele>
        <time>2022-06-10T09:23:18Z</time>
      </trkpt>
      <trkpt lat="47.5340110" lon="8.7644580">
        <ele>-18.8</ele>
        <time>2022-06-10T09:23:22Z</time>
      </trkpt>
      <trkpt lat="47.5340130" lon="8.7642150">
        <ele>-18.6</ele>
        <time>2022-06-10T09:23:26Z</time>
      </trkpt>
      <trkpt lat="47.5341160" lon="8.7639860">
        <ele>-19.2</ele>
        <time>2022-06-10T09:23:30Z</time>
      </trkpt>
      <trkpt lat="47.5342100" lon="8.7637200">
        <ele>-18.6</ele>
        <time>2022-06-10T09:23:34Z</time>
      </trkpt>
      <trkpt lat="47.5342580" lon="8.7634180">
        <ele>-18.8</ele>
        <time>2022-06-10T09:23:38Z</time>
      </trkpt>
      <trkpt lat="47.5343050" lon="8.7631180">
        <ele>-19.2</ele>
        <time>2022-06-10T09:23:42Z</time>
      </trkpt>
      <trkpt lat="47.5343460" lon="8.7628300">
        <ele>-18.8</ele>
        <time>2022-06-10T09:23:46Z</time>
      </trkpt>
      <trkpt lat="47.5343810" lon="8.7625480">
        <ele>-18.8</ele>
        <time>2022-06-10T09:23:50Z</time>
      </trkpt>
      <trkpt lat="47.5344110" lon="8.7622830">
        <ele>-18.2</ele>
        <time>2022-06-10T09:23:54Z</time>
      </trkpt>
      <trkpt lat="47.5344480" lon="8.7620210">
        <ele>-17.6</ele>
        <time>2022-06-10T09:23:58Z</time>
      </trkpt>
      <trkpt lat="47.5344930" lon="8.7617530">
        <ele>-16.6</ele>
        <time>2022-06-10T09:24:02Z</time>
      </trkpt>
      <trkpt lat="47.5345250" lon="8.7615010">
        <ele>-16.6</ele>
        <time>2022-06-10T09:24:06Z</time>
      </trkpt>
      <trkpt lat="47.5345660" lon="8.7612580">
        <ele>-15.4</ele>
        <time>2022-06-10T09:24:10Z</time>
      </trkpt>
      <trkpt lat="47.5345950" lon="8.7610280">
        <ele>-16.2</ele>
        <time>2022-06-10T09:24:14Z</time>
      </trkpt>
      <trkpt lat="47.5346160" lon="8.7607930">
        <ele>-16.4</ele>
        <time>2022-06-10T09:24:18Z</time>
      </trkpt>
      <trkpt lat="47.5346250" lon="8.7605360">
        <ele>-16.6</ele>
        <time>2022-06-10T09:24:22Z</time>
      </trkpt>
      <trkpt lat="47.5346180" lon="8.7602660">
        <ele>-16.6</ele>
        <time>2022-06-10T09:24:26Z</time>
      </trkpt>
      <trkpt lat="47.5345930" lon="8.7599860">
        <ele>-17.6</ele>
        <time>2022-06-10T09:24:30Z</time>
      </trkpt>
      <trkpt lat="47.5345460" lon="8.7596980">
        <ele>-18.0</ele>
        <time>2022-06-10T09:24:34Z</time>
      </trkpt>
      <trkpt lat="47.5345000" lon="8.7594050">
        <ele>-18.0</ele>
        <time>2022-06-10T09:24:38Z</time>
      </trkpt>
      <trkpt lat="47.5344430" lon="8.7590880">
        <ele>-18.2</ele>
        <time>2022-06-10T09:24:42Z</time>
      </trkpt>
      <trkpt lat="47.5343880" lon="8.7587600">
        <ele>-18.4</ele>
        <time>2022-06-10T09:24:46Z</time>
      </trkpt>
      <trkpt lat="47.5343900" lon="8.7584380">
        <ele>-18.6</ele>
        <time>2022-06-10T09:24:50Z</time>
      </trkpt>
      <trkpt lat="47.5343210" lon="8.7581350">
        <ele>-19.0</ele>
        <time>2022-06-10T09:24:54Z</time>
      </trkpt>
      <trkpt lat="47.5342650" lon="8.7578000">
        <ele>-19.2</ele>
        <time>2022-06-10T09:24:58Z</time>
      </trkpt>
      <trkpt lat="47.5341980" lon="8.7574480">
        <ele>-20.0</ele>
        <time>2022-06-10T09:25:02Z</time>
      </trkpt>
      <trkpt lat="47.5341330" lon="8.7570880">
        <ele>-20.4</ele>
        <time>2022-06-10T09:25:06Z</time>
      </trkpt>
      <trkpt lat="47.5340660" lon="8.7567210">
        <ele>-20.6</ele>
        <time>2022-06-10T09:25:10Z</time>
      </trkpt>
      <trkpt lat="47.5339960" lon="8.7563650">
        <ele>-20.8</ele>
        <time>2022-06-10T09:25:14Z</time>
      </trkpt>
      <trkpt lat="47.5339410" lon="8.7560430">
        <ele>-20.4</ele>
        <time>2022-06-10T09:25:18Z</time>
      </trkpt>
      <trkpt lat="47.5338800" lon="8.7557450">
        <ele>-21.2</ele>
        <time>2022-06-10T09:25:22Z</time>
      </trkpt>
      <trkpt lat="47.5338310" lon="8.7554480">
        <ele>-21.0</ele>
        <time>2022-06-10T09:25:26Z</time>
      </trkpt>
      <trkpt lat="47.5337730" lon="8.7551650">
        <ele>-21.2</ele>
        <time>2022-06-10T09:25:30Z</time>
      </trkpt>
      <trkpt lat="47.5337150" lon="8.7548880">
        <ele>-21.2</ele>
        <time>2022-06-10T09:25:34Z</time>
      </trkpt>
      <trkpt lat="47.5336660" lon="8.7545850">
        <ele>-21.2</ele>
        <time>2022-06-10T09:25:38Z</time>
      </trkpt>
      <trkpt lat="47.5336130" lon="8.7542650">
        <ele>-21.8</ele>
        <time>2022-06-10T09:25:42Z</time>
      </trkpt>
      <trkpt lat="47.5335550" lon="8.7539350">
        <ele>-22.4</ele>
        <time>2022-06-10T09:25:46Z</time>
      </trkpt>
      <trkpt lat="47.5334830" lon="8.7536150">
        <ele>-21.8</ele>
        <time>2022-06-10T09:25:50Z</time>
      </trkpt>
      <trkpt lat="47.5334210" lon="8.7532930">
        <ele>-22.4</ele>
        <time>2022-06-10T09:25:54Z</time>
      </trkpt>
      <trkpt lat="47.5333600" lon="8.7529880">
        <ele>-23.2</ele>
        <time>2022-06-10T09:25:58Z</time>
      </trkpt>
      <trkpt lat="47.5333110" lon="8.7526860">
        <ele>-22.2</ele>
        <time>2022-06-10T09:26:02Z</time>
      </trkpt>
      <trkpt lat="47.5332630" lon="8.7523780">
        <ele>-22.8</ele>
        <time>2022-06-10T09:26:06Z</time>
      </trkpt>
      <trkpt lat="47.5332200" lon="8.7520600">
        <ele>-22.8</ele>
        <time>2022-06-10T09:26:10Z</time>
      </trkpt>
      <trkpt lat="47.5331810" lon="8.7517400">
        <ele>-23.4</ele>
        <time>2022-06-10T09:26:14Z</time>
      </trkpt>
      <trkpt lat="47.5331380" lon="8.7514160">
        <ele>-23.2</ele>
        <time>2022-06-10T09:26:18Z</time>
      </trkpt>
      <trkpt lat="47.5330980" lon="8.7510930">
        <ele>-23.8</ele>
        <time>2022-06-10T09:26:22Z</time>
      </trkpt>
      <trkpt lat="47.5330560" lon="8.7507750">
        <ele>-23.6</ele>
        <time>2022-06-10T09:26:26Z</time>
      </trkpt>
      <trkpt lat="47.5330180" lon="8.7504500">
        <ele>-23.8</ele>
        <time>2022-06-10T09:26:30Z</time>
      </trkpt>
      <trkpt lat="47.5329830" lon="8.7501180">
        <ele>-24.4</ele>
        <time>2022-06-10T09:26:34Z</time>
      </trkpt>
      <trkpt lat="47.5329650" lon="8.7497600">
        <ele>-25.2</ele>
        <time>2022-06-10T09:26:38Z</time>
      </trkpt>
      <trkpt lat="47.5329680" lon="8.7493710">
        <ele>-26.4</ele>
        <time>2022-06-10T09:26:42Z</time>
      </trkpt>
      <trkpt lat="47.5329900" lon="8.7489580">
        <ele>-26.8</ele>
        <time>2022-06-10T09:26:46Z</time>
      </trkpt>
      <trkpt lat="47.5330230" lon="8.7485180">
        <ele>-28.0</ele>
        <time>2022-06-10T09:26:50Z</time>
      </trkpt>
      <trkpt lat="47.5330660" lon="8.7480380">
        <ele>-30.2</ele>
        <time>2022-06-10T09:26:54Z</time>
      </trkpt>
      <trkpt lat="47.5331000" lon="8.7475450">
        <ele>-32.2</ele>
        <time>2022-06-10T09:26:58Z</time>
      </trkpt>
      <trkpt lat="47.5331080" lon="8.7470410">
        <ele>-33.2</ele>
        <time>2022-06-10T09:27:02Z</time>
      </trkpt>
      <trkpt lat="47.5330280" lon="8.7465730">
        <ele>-35.6</ele>
        <time>2022-06-10T09:27:06Z</time>
      </trkpt>
      <trkpt lat="47.5328730" lon="8.7461310">
        <ele>-38.4</ele>
        <time>2022-06-10T09:27:10Z</time>
      </trkpt>
      <trkpt lat="47.5327450" lon="8.7457810">
        <ele>-39.2</ele>
        <time>2022-06-10T09:27:14Z</time>
      </trkpt>
      <trkpt lat="47.5327400" lon="8.7456100">
        <ele>-39.0</ele>
        <time>2022-06-10T09:27:18Z</time>
      </trkpt>
      <trkpt lat="47.5327250" lon="8.7455850">
        <ele>-39.0</ele>
        <time>2022-06-10T09:27:22Z</time>
      </trkpt>
      <trkpt lat="47.5326700" lon="8.7455380">
        <ele>-39.0</ele>
        <time>2022-06-10T09:27:26Z</time>
      </trkpt>
      <trkpt lat="47.5326310" lon="8.7454230">
        <ele>-39.0</ele>
        <time>2022-06-10T09:27:30Z</time>
      </trkpt>
      <trkpt lat="47.5326950" lon="8.7452660">
        <ele>-38.4</ele>
        <time>2022-06-10T09:27:34Z</time>
      </trkpt>
      <trkpt lat="47.5327550" lon="8.7450830">
        <ele>-38.4</ele>
        <time>2022-06-10T09:27:38Z</time>
      </trkpt>
      <trkpt lat="47.5328300" lon="8.7448950">
        <ele>-37.8</ele>
        <time>2022-06-10T09:27:42Z</time>
      </trkpt>
      <trkpt lat="47.5328960" lon="8.7447100">
        <ele>-37.4</ele>
        <time>2022-06-10T09:27:46Z</time>
      </trkpt>
      <trkpt lat="47.5329730" lon="8.7445050">
        <ele>-37.2</ele>
        <time>2022-06-10T09:27:50Z</time>
      </trkpt>
      <trkpt lat="47.5330510" lon="8.7442800">
        <ele>-37.0</ele>
        <time>2022-06-10T09:27:54Z</time>
      </trkpt>
      <trkpt lat="47.5331180" lon="8.7440610">
        <ele>-37.0</ele>
        <time>2022-06-10T09:27:58Z</time>
      </trkpt>
      <trkpt lat="47.5331830" lon="8.7438380">
        <ele>-36.2</ele>
        <time>2022-06-10T09:28:02Z</time>
      </trkpt>
      <trkpt lat="47.5332510" lon="8.7436130">
        <ele>-36.2</ele>
        <time>2022-06-10T09:28:06Z</time>
      </trkpt>
      <trkpt lat="47.5333100" lon="8.7433760">
        <ele>-36.2</ele>
        <time>2022-06-10T09:28:10Z</time>
      </trkpt>
      <trkpt lat="47.5333780" lon="8.7431530">
        <ele>-35.8</ele>
        <time>2022-06-10T09:28:14Z</time>
      </trkpt>
      <trkpt lat="47.5334350" lon="8.7429200">
        <ele>-36.0</ele>
        <time>2022-06-10T09:28:18Z</time>
      </trkpt>
      <trkpt lat="47.5334810" lon="8.7426850">
        <ele>-35.8</ele>
        <time>2022-06-10T09:28:22Z</time>
      </trkpt>
      <trkpt lat="47.5335460" lon="8.7424550">
        <ele>-35.6</ele>
        <time>2022-06-10T09:28:26Z</time>
      </trkpt>
      <trkpt lat="47.5335250" lon="8.7422860">
        <ele>-35.6</ele>
        <time>2022-06-10T09:28:30Z</time>
      </trkpt>
      <trkpt lat="47.5334280" lon="8.7422100">
        <ele>-35.8</ele>
        <time>2022-06-10T09:28:34Z</time>
      </trkpt>
      <trkpt lat="47.5333030" lon="8.7421160">
        <ele>-36.2</ele>
        <time>2022-06-10T09:28:38Z</time>
      </trkpt>
      <trkpt lat="47.5331510" lon="8.7419880">
        <ele>-37.6</ele>
        <time>2022-06-10T09:28:42Z</time>
      </trkpt>
      <trkpt lat="47.5330060" lon="8.7417810">
        <ele>-37.2</ele>
        <time>2022-06-10T09:28:46Z</time>
      </trkpt>
      <trkpt lat="47.5328830" lon="8.7415450">
        <ele>-37.8</ele>
        <time>2022-06-10T09:28:50Z</time>
      </trkpt>
      <trkpt lat="47.5327660" lon="8.7412110">
        <ele>-40.0</ele>
        <time>2022-06-10T09:28:54Z</time>
      </trkpt>
      <trkpt lat="47.5327610" lon="8.7408760">
        <ele>-41.2</ele>
        <time>2022-06-10T09:28:58Z</time>
      </trkpt>
      <trkpt lat="47.5329360" lon="8.7407150">
        <ele>-41.4</ele>
        <time>2022-06-10T09:29:02Z</time>
      </trkpt>
      <trkpt lat="47.5330780" lon="8.7405910">
        <ele>-40.0</ele>
        <time>2022-06-10T09:29:06Z</time>
      </trkpt>
      <trkpt lat="47.5332200" lon="8.7404380">
        <ele>-40.2</ele>
        <time>2022-06-10T09:29:10Z</time>
      </trkpt>
      <trkpt lat="47.5333910" lon="8.7402650">
        <ele>-41.0</ele>
        <time>2022-06-10T09:29:14Z</time>
      </trkpt>
      <trkpt lat="47.5335750" lon="8.7400910">
        <ele>-41.8</ele>
        <time>2022-06-10T09:29:18Z</time>
      </trkpt>
      <trkpt lat="47.5337330" lon="8.7399350">
        <ele>-41.8</ele>
        <time>2022-06-10T09:29:22Z</time>
      </trkpt>
      <trkpt lat="47.5338680" lon="8.7397250">
        <ele>-41.8</ele>
        <time>2022-06-10T09:29:26Z</time>
      </trkpt>
      <trkpt lat="47.5339880" lon="8.7395050">
        <ele>-41.8</ele>
        <time>2022-06-10T09:29:30Z</time>
      </trkpt>
      <trkpt lat="47.5340850" lon="8.7392950">
        <ele>-41.6</ele>
        <time>2022-06-10T09:29:34Z</time>
      </trkpt>
      <trkpt lat="47.5341530" lon="8.7391000">
        <ele>-41.6</ele>
        <time>2022-06-10T09:29:38Z</time>
      </trkpt>
      <trkpt lat="47.5341530" lon="8.7391000">
        <ele>-41.4</ele>
        <time>2022-06-10T09:29:42Z</time>
      </trkpt>
      <trkpt lat="47.5341800" lon="8.7389880">
        <ele>-41.4</ele>
        <time>2022-06-10T09:29:46Z</time>
      </trkpt>
      <trkpt lat="47.5342050" lon="8.7388750">
        <ele>-41.8</ele>
        <time>2022-06-10T09:29:50Z</time>
      </trkpt>
      <trkpt lat="47.5342510" lon="8.7387150">
        <ele>-41.6</ele>
        <time>2022-06-10T09:29:54Z</time>
      </trkpt>
      <trkpt lat="47.5342960" lon="8.7385350">
        <ele>-42.2</ele>
        <time>2022-06-10T09:29:58Z</time>
      </trkpt>
      <trkpt lat="47.5343650" lon="8.7383200">
        <ele>-42.4</ele>
        <time>2022-06-10T09:30:02Z</time>
      </trkpt>
      <trkpt lat="47.5344280" lon="8.7380930">
        <ele>-42.2</ele>
        <time>2022-06-10T09:30:06Z</time>
      </trkpt>
      <trkpt lat="47.5344980" lon="8.7378710">
        <ele>-42.6</ele>
        <time>2022-06-10T09:30:10Z</time>
      </trkpt>
      <trkpt lat="47.5345900" lon="8.7376650">
        <ele>-42.2</ele>
        <time>2022-06-10T09:30:14Z</time>
      </trkpt>
      <trkpt lat="47.5346530" lon="8.7375150">
        <ele>-42.0</ele>
        <time>2022-06-10T09:30:18Z</time>
      </trkpt>
      <trkpt lat="47.5346980" lon="8.7373850">
        <ele>-42.0</ele>
        <time>2022-06-10T09:30:22Z</time>
      </trkpt>
      <trkpt lat="47.5347600" lon="8.7371530">
        <ele>-42.8</ele>
        <time>2022-06-10T09:30:26Z</time>
      </trkpt>
      <trkpt lat="47.5348360" lon="8.7368760">
        <ele>-43.4</ele>
        <time>2022-06-10T09:30:30Z</time>
      </trkpt>
      <trkpt lat="47.5349100" lon="8.7366060">
        <ele>-43.4</ele>
        <time>2022-06-10T09:30:34Z</time>
      </trkpt>
      <trkpt lat="47.5349710" lon="8.7363480">
        <ele>-43.4</ele>
        <time>2022-06-10T09:30:38Z</time>
      </trkpt>
      <trkpt lat="47.5350310" lon="8.7360800">
        <ele>-43.0</ele>
        <time>2022-06-10T09:30:42Z</time>
      </trkpt>
      <trkpt lat="47.5350960" lon="8.7358360">
        <ele>-43.2</ele>
        <time>2022-06-10T09:30:46Z</time>
      </trkpt>
      <trkpt lat="47.5351530" lon="8.7355810">
        <ele>-42.8</ele>
        <time>2022-06-10T09:30:50Z</time>
      </trkpt>
      <trkpt lat="47.5352030" lon="8.7353780">
        <ele>-42.4</ele>
        <time>2022-06-10T09:30:54Z</time>
      </trkpt>
      <trkpt lat="47.5352360" lon="8.7352450">
        <ele>-42.6</ele>
        <time>2022-06-10T09:30:58Z</time>
      </trkpt>
      <trkpt lat="47.5352560" lon="8.7351380">
        <ele>-42.6</ele>
        <time>2022-06-10T09:31:02Z</time>
      </trkpt>
      <trkpt lat="47.5353130" lon="8.7349250">
        <ele>-43.6</ele>
        <time>2022-06-10T09:31:06Z</time>
      </trkpt>
      <trkpt lat="47.5353650" lon="8.7346310">
        <ele>-44.0</ele>
        <time>2022-06-10T09:31:10Z</time>
      </trkpt>
      <trkpt lat="47.5354410" lon="8.7343310">
        <ele>-44.8</ele>
        <time>2022-06-10T09:31:14Z</time>
      </trkpt>
      <trkpt lat="47.5355230" lon="8.7340260">
        <ele>-44.6</ele>
        <time>2022-06-10T09:31:18Z</time>
      </trkpt>
      <trkpt lat="47.5355980" lon="8.7337280">
        <ele>-44.6</ele>
        <time>2022-06-10T09:31:22Z</time>
      </trkpt>
      <trkpt lat="47.5356660" lon="8.7334430">
        <ele>-45.0</ele>
        <time>2022-06-10T09:31:26Z</time>
      </trkpt>
      <trkpt lat="47.5357480" lon="8.7331600">
        <ele>-45.2</ele>
        <time>2022-06-10T09:31:30Z</time>
      </trkpt>
      <trkpt lat="47.5358180" lon="8.7328930">
        <ele>-45.2</ele>
        <time>2022-06-10T09:31:34Z</time>
      </trkpt>
      <trkpt lat="47.5358800" lon="8.7326210">
        <ele>-45.2</ele>
        <time>2022-06-10T09:31:38Z</time>
      </trkpt>
      <trkpt lat="47.5359600" lon="8.7323450">
        <ele>-45.2</ele>
        <time>2022-06-10T09:31:42Z</time>
      </trkpt>
      <trkpt lat="47.5360060" lon="8.7320500">
        <ele>-46.0</ele>
        <time>2022-06-10T09:31:46Z</time>
      </trkpt>
      <trkpt lat="47.5360400" lon="8.7317600">
        <ele>-46.0</ele>
        <time>2022-06-10T09:31:50Z</time>
      </trkpt>
      <trkpt lat="47.5360650" lon="8.7314730">
        <ele>-46.2</ele>
        <time>2022-06-10T09:31:54Z</time>
      </trkpt>
      <trkpt lat="47.5360650" lon="8.7312200">
        <ele>-45.6</ele>
        <time>2022-06-10T09:31:58Z</time>
      </trkpt>
      <trkpt lat="47.5359900" lon="8.7309910">
        <ele>-46.2</ele>
        <time>2022-06-10T09:32:02Z</time>
      </trkpt>
      <trkpt lat="47.5359910" lon="8.7307210">
        <ele>-45.6</ele>
        <time>2022-06-10T09:32:06Z</time>
      </trkpt>
      <trkpt lat="47.5360500" lon="8.7304930">
        <ele>-45.2</ele>
        <time>2022-06-10T09:32:10Z</time>
      </trkpt>
      <trkpt lat="47.5360860" lon="8.7302660">
        <ele>-44.6</ele>
        <time>2022-06-10T09:32:14Z</time>
      </trkpt>
      <trkpt lat="47.5360450" lon="8.7300750">
        <ele>-45.4</ele>
        <time>2022-06-10T09:32:18Z</time>
      </trkpt>
      <trkpt lat="47.5359750" lon="8.7299310">
        <ele>-45.0</ele>
        <time>2022-06-10T09:32:22Z</time>
      </trkpt>
      <trkpt lat="47.5360260" lon="8.7298000">
        <ele>-44.8</ele>
        <time>2022-06-10T09:32:26Z</time>
      </trkpt>
      <trkpt lat="47.5360400" lon="8.7296180">
        <ele>-46.0</ele>
        <time>2022-06-10T09:32:30Z</time>
      </trkpt>
      <trkpt lat="47.5359700" lon="8.7293730">
        <ele>-45.2</ele>
        <time>2022-06-10T09:32:34Z</time>
      </trkpt>
      <trkpt lat="47.5359200" lon="8.7291250">
        <ele>-46.0</ele>
        <time>2022-06-10T09:32:38Z</time>
      </trkpt>
      <trkpt lat="47.5358860" lon="8.7288660">
        <ele>-45.8</ele>
        <time>2022-06-10T09:32:42Z</time>
      </trkpt>
      <trkpt lat="47.5358650" lon="8.7286260">
        <ele>-45.8</ele>
        <time>2022-06-10T09:32:46Z</time>
      </trkpt>
      <trkpt lat="47.5358460" lon="8.7283660">
        <ele>-45.8</ele>
        <time>2022-06-10T09:32:50Z</time>
      </trkpt>
      <trkpt lat="47.5358300" lon="8.7280900">
        <ele>-45.8</ele>
        <time>2022-06-10T09:32:54Z</time>
      </trkpt>
      <trkpt lat="47.5358210" lon="8.7278000">
        <ele>-46.0</ele>
        <time>2022-06-10T09:32:58Z</time>
      </trkpt>
      <trkpt lat="47.5358060" lon="8.7275150">
        <ele>-46.8</ele>
        <time>2022-06-10T09:33:02Z</time>
      </trkpt>
      <trkpt lat="47.5357910" lon="8.7272400">
        <ele>-46.6</ele>
        <time>2022-06-10T09:33:06Z</time>
      </trkpt>
      <trkpt lat="47.5357780" lon="8.7269600">
        <ele>-46.4</ele>
        <time>2022-06-10T09:33:10Z</time>
      </trkpt>
      <trkpt lat="47.5357660" lon="8.7266950">
        <ele>-46.6</ele>
        <time>2022-06-10T09:33:14Z</time>
      </trkpt>
      <trkpt lat="47.5357500" lon="8.7264380">
        <ele>-46.4</ele>
        <time>2022-06-10T09:33:18Z</time>
      </trkpt>
      <trkpt lat="47.5357230" lon="8.7261610">
        <ele>-47.0</ele>
        <time>2022-06-10T09:33:22Z</time>
      </trkpt>
      <trkpt lat="47.5357060" lon="8.7258700">
        <ele>-47.0</ele>
        <time>2022-06-10T09:33:26Z</time>
      </trkpt>
      <trkpt lat="47.5356900" lon="8.7255750">
        <ele>-47.4</ele>
        <time>2022-06-10T09:33:30Z</time>
      </trkpt>
      <trkpt lat="47.5356680" lon="8.7252880">
        <ele>-47.2</ele>
        <time>2022-06-10T09:33:34Z</time>
      </trkpt>
      <trkpt lat="47.5356450" lon="8.7250060">
        <ele>-48.0</ele>
        <time>2022-06-10T09:33:38Z</time>
      </trkpt>
      <trkpt lat="47.5356350" lon="8.7247230">
        <ele>-47.8</ele>
        <time>2022-06-10T09:33:42Z</time>
      </trkpt>
      <trkpt lat="47.5356230" lon="8.7244460">
        <ele>-48.0</ele>
        <time>2022-06-10T09:33:46Z</time>
      </trkpt>
      <trkpt lat="47.5356010" lon="8.7241550">
        <ele>-48.4</ele>
        <time>2022-06-10T09:33:50Z</time>
      </trkpt>
      <trkpt lat="47.5355530" lon="8.7238480">
        <ele>-48.4</ele>
        <time>2022-06-10T09:33:54Z</time>
      </trkpt>
      <trkpt lat="47.5354860" lon="8.7235450">
        <ele>-48.8</ele>
        <time>2022-06-10T09:33:58Z</time>
      </trkpt>
      <trkpt lat="47.5354260" lon="8.7232560">
        <ele>-48.2</ele>
        <time>2022-06-10T09:34:02Z</time>
      </trkpt>
      <trkpt lat="47.5353760" lon="8.7229860">
        <ele>-48.6</ele>
        <time>2022-06-10T09:34:06Z</time>
      </trkpt>
      <trkpt lat="47.5353230" lon="8.7227260">
        <ele>-49.2</ele>
        <time>2022-06-10T09:34:10Z</time>
      </trkpt>
      <trkpt lat="47.5352650" lon="8.7224460">
        <ele>-49.4</ele>
        <time>2022-06-10T09:34:14Z</time>
      </trkpt>
      <trkpt lat="47.5351980" lon="8.7221810">
        <ele>-49.0</ele>
        <time>2022-06-10T09:34:18Z</time>
      </trkpt>
      <trkpt lat="47.5351300" lon="8.7219110">
        <ele>-49.4</ele>
        <time>2022-06-10T09:34:22Z</time>
      </trkpt>
      <trkpt lat="47.5350760" lon="8.7216310">
        <ele>-49.6</ele>
        <time>2022-06-10T09:34:26Z</time>
      </trkpt>
      <trkpt lat="47.5350350" lon="8.7213530">
        <ele>-49.8</ele>
        <time>2022-06-10T09:34:30Z</time>
      </trkpt>
      <trkpt lat="47.5349930" lon="8.7210700">
        <ele>-49.8</ele>
        <time>2022-06-10T09:34:34Z</time>
      </trkpt>
      <trkpt lat="47.5349460" lon="8.7207700">
        <ele>-50.0</ele>
        <time>2022-06-10T09:34:38Z</time>
      </trkpt>
      <trkpt lat="47.5348910" lon="8.7204680">
        <ele>-50.6</ele>
        <time>2022-06-10T09:34:42Z</time>
      </trkpt>
      <trkpt lat="47.5348460" lon="8.7201710">
        <ele>-50.4</ele>
        <time>2022-06-10T09:34:46Z</time>
      </trkpt>
      <trkpt lat="47.5347950" lon="8.7198710">
        <ele>-50.8</ele>
        <time>2022-06-10T09:34:50Z</time>
      </trkpt>
      <trkpt lat="47.5347480" lon="8.7195800">
        <ele>-50.8</ele>
        <time>2022-06-10T09:34:54Z</time>
      </trkpt>
      <trkpt lat="47.5347010" lon="8.7193010">
        <ele>-51.4</ele>
        <time>2022-06-10T09:34:58Z</time>
      </trkpt>
      <trkpt lat="47.5346460" lon="8.7190150">
        <ele>-51.0</ele>
        <time>2022-06-10T09:35:02Z</time>
      </trkpt>
      <trkpt lat="47.5345900" lon="8.7187050">
        <ele>-51.4</ele>
        <time>2022-06-10T09:35:06Z</time>
      </trkpt>
      <trkpt lat="47.5345330" lon="8.7183800">
        <ele>-51.8</ele>
        <time>2022-06-10T09:35:10Z</time>
      </trkpt>
      <trkpt lat="47.5344800" lon="8.7180510">
        <ele>-51.2</ele>
        <time>2022-06-10T09:35:14Z</time>
      </trkpt>
      <trkpt lat="47.5344210" lon="8.7177260">
        <ele>-51.8</ele>
        <time>2022-06-10T09:35:18Z</time>
      </trkpt>
      <trkpt lat="47.5343700" lon="8.7174010">
        <ele>-52.2</ele>
        <time>2022-06-10T09:35:22Z</time>
      </trkpt>
      <trkpt lat="47.5343200" lon="8.7170930">
        <ele>-52.2</ele>
        <time>2022-06-10T09:35:26Z</time>
      </trkpt>
      <trkpt lat="47.5342660" lon="8.7168030">
        <ele>-52.2</ele>
        <time>2022-06-10T09:35:30Z</time>
      </trkpt>
      <trkpt lat="47.5342160" lon="8.7165060">
        <ele>-51.6</ele>
        <time>2022-06-10T09:35:34Z</time>
      </trkpt>
      <trkpt lat="47.5341760" lon="8.7162080">
        <ele>-52.0</ele>
        <time>2022-06-10T09:35:38Z</time>
      </trkpt>
      <trkpt lat="47.5341210" lon="8.7159000">
        <ele>-53.0</ele>
        <time>2022-06-10T09:35:42Z</time>
      </trkpt>
      <trkpt lat="47.5340660" lon="8.7155830">
        <ele>-53.2</ele>
        <time>2022-06-10T09:35:46Z</time>
      </trkpt>
      <trkpt lat="47.5340180" lon="8.7152510">
        <ele>-53.6</ele>
        <time>2022-06-10T09:35:50Z</time>
      </trkpt>
      <trkpt lat="47.5339680" lon="8.7149100">
        <ele>-53.8</ele>
        <time>2022-06-10T09:35:54Z</time>
      </trkpt>
      <trkpt lat="47.5339130" lon="8.7145760">
        <ele>-53.6</ele>
        <time>2022-06-10T09:35:58Z</time>
      </trkpt>
      <trkpt lat="47.5338680" lon="8.7142510">
        <ele>-53.8</ele>
        <time>2022-06-10T09:36:02Z</time>
      </trkpt>
      <trkpt lat="47.5338450" lon="8.7139610">
        <ele>-54.0</ele>
        <time>2022-06-10T09:36:06Z</time>
      </trkpt>
      <trkpt lat="47.5338460" lon="8.7136610">
        <ele>-54.2</ele>
        <time>2022-06-10T09:36:10Z</time>
      </trkpt>
      <trkpt lat="47.5338750" lon="8.7133350">
        <ele>-53.8</ele>
        <time>2022-06-10T09:36:14Z</time>
      </trkpt>
      <trkpt lat="47.5339180" lon="8.7130130">
        <ele>-54.2</ele>
        <time>2022-06-10T09:36:18Z</time>
      </trkpt>
      <trkpt lat="47.5339610" lon="8.7126930">
        <ele>-54.4</ele>
        <time>2022-06-10T09:36:22Z</time>
      </trkpt>
      <trkpt lat="47.5339980" lon="8.7123530">
        <ele>-54.6</ele>
        <time>2022-06-10T09:36:26Z</time>
      </trkpt>
      <trkpt lat="47.5340410" lon="8.7120150">
        <ele>-55.0</ele>
        <time>2022-06-10T09:36:30Z</time>
      </trkpt>
      <trkpt lat="47.5340850" lon="8.7116880">
        <ele>-54.4</ele>
        <time>2022-06-10T09:36:34Z</time>
      </trkpt>
      <trkpt lat="47.5341250" lon="8.7113680">
        <ele>-54.2</ele>
        <time>2022-06-10T09:36:38Z</time>
      </trkpt>
      <trkpt lat="47.5341630" lon="8.7110430">
        <ele>-55.0</ele>
        <time>2022-06-10T09:36:42Z</time>
      </trkpt>
      <trkpt lat="47.5341980" lon="8.7107160">
        <ele>-54.6</ele>
        <time>2022-06-10T09:36:46Z</time>
      </trkpt>
      <trkpt lat="47.5342400" lon="8.7103910">
        <ele>-55.0</ele>
        <time>2022-06-10T09:36:50Z</time>
      </trkpt>
      <trkpt lat="47.5342800" lon="8.7100750">
        <ele>-55.6</ele>
        <time>2022-06-10T09:36:54Z</time>
      </trkpt>
      <trkpt lat="47.5343200" lon="8.7097950">
        <ele>-54.6</ele>
        <time>2022-06-10T09:36:58Z</time>
      </trkpt>
      <trkpt lat="47.5343680" lon="8.7096680">
        <ele>-54.6</ele>
        <time>2022-06-10T09:37:02Z</time>
      </trkpt>
      <trkpt lat="47.5344410" lon="8.7096380">
        <ele>-54.2</ele>
        <time>2022-06-10T09:37:06Z</time>
      </trkpt>
      <trkpt lat="47.5344460" lon="8.7096230">
        <ele>-54.6</ele>
        <time>2022-06-10T09:37:10Z</time>
      </trkpt>
      <trkpt lat="47.5344100" lon="8.7096410">
        <ele>-54.6</ele>
        <time>2022-06-10T09:37:14Z</time>
      </trkpt>
      <trkpt lat="47.5343430" lon="8.7096530">
        <ele>-54.8</ele>
        <time>2022-06-10T09:37:18Z</time>
      </trkpt>
      <trkpt lat="47.5343050" lon="8.7097000">
        <ele>-55.2</ele>
        <time>2022-06-10T09:37:22Z</time>
      </trkpt>
      <trkpt lat="47.5343110" lon="8.7098650">
        <ele>-55.4</ele>
        <time>2022-06-10T09:37:26Z</time>
      </trkpt>
      <trkpt lat="47.5342750" lon="8.7099100">
        <ele>-56.2</ele>
        <time>2022-06-10T09:37:30Z</time>
      </trkpt>
      <trkpt lat="47.5342700" lon="8.7097330">
        <ele>-58.2</ele>
        <time>2022-06-10T09:37:34Z</time>
      </trkpt>
      <trkpt lat="47.5342980" lon="8.7095660">
        <ele>-58.2</ele>
        <time>2022-06-10T09:37:38Z</time>
      </trkpt>
      <trkpt lat="47.5343850" lon="8.7093610">
        <ele>-58.4</ele>
        <time>2022-06-10T09:37:42Z</time>
      </trkpt>
      <trkpt lat="47.5343760" lon="8.7091960">
        <ele>-56.8</ele>
        <time>2022-06-10T09:37:46Z</time>
      </trkpt>
      <trkpt lat="47.5343830" lon="8.7091650">
        <ele>-55.8</ele>
        <time>2022-06-10T09:37:50Z</time>
      </trkpt>
      <trkpt lat="47.5344110" lon="8.7090660">
        <ele>-55.8</ele>
        <time>2022-06-10T09:37:54Z</time>
      </trkpt>
      <trkpt lat="47.5344350" lon="8.7088360">
        <ele>-56.6</ele>
        <time>2022-06-10T09:37:58Z</time>
      </trkpt>
      <trkpt lat="47.5344550" lon="8.7085550">
        <ele>-56.2</ele>
        <time>2022-06-10T09:38:02Z</time>
      </trkpt>
      <trkpt lat="47.5344710" lon="8.7082650">
        <ele>-56.2</ele>
        <time>2022-06-10T09:38:06Z</time>
      </trkpt>
      <trkpt lat="47.5344710" lon="8.7082650">
        <ele>-56.8</ele>
        <time>2022-06-10T09:38:10Z</time>
      </trkpt>
      <trkpt lat="47.5344850" lon="8.7078880">
        <ele>-56.8</ele>
        <time>2022-06-10T09:38:14Z</time>
      </trkpt>
      <trkpt lat="47.5345010" lon="8.7075700">
        <ele>-56.4</ele>
        <time>2022-06-10T09:38:18Z</time>
      </trkpt>
      <trkpt lat="47.5345130" lon="8.7072560">
        <ele>-57.4</ele>
        <time>2022-06-10T09:38:22Z</time>
      </trkpt>
      <trkpt lat="47.5345250" lon="8.7069550">
        <ele>-57.4</ele>
        <time>2022-06-10T09:38:26Z</time>
      </trkpt>
      <trkpt lat="47.5345250" lon="8.7066700">
        <ele>-57.4</ele>
        <time>2022-06-10T09:38:30Z</time>
      </trkpt>
      <trkpt lat="47.5345250" lon="8.7063830">
        <ele>-58.0</ele>
        <time>2022-06-10T09:38:34Z</time>
      </trkpt>
      <trkpt lat="47.5344950" lon="8.7060810">
        <ele>-57.4</ele>
        <time>2022-06-10T09:38:38Z</time>
      </trkpt>
      <trkpt lat="47.5344230" lon="8.7057900">
        <ele>-57.8</ele>
        <time>2022-06-10T09:38:42Z</time>
      </trkpt>
      <trkpt lat="47.5343230" lon="8.7055050">
        <ele>-57.8</ele>
        <time>2022-06-10T09:38:46Z</time>
      </trkpt>
      <trkpt lat="47.5342210" lon="8.7052200">
        <ele>-57.6</ele>
        <time>2022-06-10T09:38:50Z</time>
      </trkpt>
      <trkpt lat="47.5341180" lon="8.7049350">
        <ele>-57.6</ele>
        <time>2022-06-10T09:38:54Z</time>
      </trkpt>
      <trkpt lat="47.5340160" lon="8.7046610">
        <ele>-58.0</ele>
        <time>2022-06-10T09:38:58Z</time>
      </trkpt>
      <trkpt lat="47.5339210" lon="8.7043950">
        <ele>-57.6</ele>
        <time>2022-06-10T09:39:02Z</time>
      </trkpt>
      <trkpt lat="47.5338230" lon="8.7041300">
        <ele>-57.6</ele>
        <time>2022-06-10T09:39:06Z</time>
      </trkpt>
      <trkpt lat="47.5337330" lon="8.7038500">
        <ele>-58.8</ele>
        <time>2022-06-10T09:39:10Z</time>
      </trkpt>
      <trkpt lat="47.5336430" lon="8.7035350">
        <ele>-58.6</ele>
        <time>2022-06-10T09:39:14Z</time>
      </trkpt>
      <trkpt lat="47.5335630" lon="8.7031710">
        <ele>-58.4</ele>
        <time>2022-06-10T09:39:18Z</time>
      </trkpt>
      <trkpt lat="47.5335080" lon="8.7027960">
        <ele>-58.8</ele>
        <time>2022-06-10T09:39:22Z</time>
      </trkpt>
      <trkpt lat="47.5334600" lon="8.7024230">
        <ele>-58.6</ele>
        <time>2022-06-10T09:39:26Z</time>
      </trkpt>
      <trkpt lat="47.5334150" lon="8.7020700">
        <ele>-58.8</ele>
        <time>2022-06-10T09:39:30Z</time>
      </trkpt>
      <trkpt lat="47.5333780" lon="8.7017350">
        <ele>-59.0</ele>
        <time>2022-06-10T09:39:34Z</time>
      </trkpt>
      <trkpt lat="47.5333380" lon="8.7013980">
        <ele>-59.0</ele>
        <time>2022-06-10T09:39:38Z</time>
      </trkpt>
      <trkpt lat="47.5333000" lon="8.7010550">
        <ele>-58.8</ele>
        <time>2022-06-10T09:39:42Z</time>
      </trkpt>
      <trkpt lat="47.5332630" lon="8.7007100">
        <ele>-58.8</ele>
        <time>2022-06-10T09:39:46Z</time>
      </trkpt>
      <trkpt lat="47.5332260" lon="8.7003730">
        <ele>-59.0</ele>
        <time>2022-06-10T09:39:50Z</time>
      </trkpt>
      <trkpt lat="47.5331900" lon="8.7000130">
        <ele>-59.4</ele>
        <time>2022-06-10T09:39:54Z</time>
      </trkpt>
      <trkpt lat="47.5331560" lon="8.6996710">
        <ele>-60.0</ele>
        <time>2022-06-10T09:39:58Z</time>
      </trkpt>
      <trkpt lat="47.5331300" lon="8.6993600">
        <ele>-60.0</ele>
        <time>2022-06-10T09:40:02Z</time>
      </trkpt>
      <trkpt lat="47.5331110" lon="8.6990460">
        <ele>-60.6</ele>
        <time>2022-06-10T09:40:06Z</time>
      </trkpt>
      <trkpt lat="47.5330980" lon="8.6987410">
        <ele>-60.6</ele>
        <time>2022-06-10T09:40:10Z</time>
      </trkpt>
      <trkpt lat="47.5331010" lon="8.6984430">
        <ele>-60.0</ele>
        <time>2022-06-10T09:40:14Z</time>
      </trkpt>
      <trkpt lat="47.5330830" lon="8.6981730">
        <ele>-61.2</ele>
        <time>2022-06-10T09:40:18Z</time>
      </trkpt>
      <trkpt lat="47.5331000" lon="8.6978400">
        <ele>-60.2</ele>
        <time>2022-06-10T09:40:22Z</time>
      </trkpt>
      <trkpt lat="47.5331100" lon="8.6975600">
        <ele>-60.2</ele>
        <time>2022-06-10T09:40:26Z</time>
      </trkpt>
      <trkpt lat="47.5331250" lon="8.6972700">
        <ele>-61.0</ele>
        <time>2022-06-10T09:40:30Z</time>
      </trkpt>
      <trkpt lat="47.5331480" lon="8.6969700">
        <ele>-60.6</ele>
        <time>2022-06-10T09:40:34Z</time>
      </trkpt>
      <trkpt lat="47.5331760" lon="8.6966460">
        <ele>-60.6</ele>
        <time>2022-06-10T09:40:38Z</time>
      </trkpt>
      <trkpt lat="47.5332010" lon="8.6963230">
        <ele>-60.8</ele>
        <time>2022-06-10T09:40:42Z</time>
      </trkpt>
      <trkpt lat="47.5332260" lon="8.6960030">
        <ele>-61.2</ele>
        <time>2022-06-10T09:40:46Z</time>
      </trkpt>
      <trkpt lat="47.5332480" lon="8.6956780">
        <ele>-61.6</ele>
        <time>2022-06-10T09:40:50Z</time>
      </trkpt>
      <trkpt lat="47.5332710" lon="8.6953550">
        <ele>-61.8</ele>
        <time>2022-06-10T09:40:54Z</time>
      </trkpt>
      <trkpt lat="47.5333030" lon="8.6950300">
        <ele>-62.0</ele>
        <time>2022-06-10T09:40:58Z</time>
      </trkpt>
      <trkpt lat="47.5333280" lon="8.6947100">
        <ele>-61.6</ele>
        <time>2022-06-10T09:41:02Z</time>
      </trkpt>
      <trkpt lat="47.5333510" lon="8.6943880">
        <ele>-61.4</ele>
        <time>2022-06-10T09:41:06Z</time>
      </trkpt>
      <trkpt lat="47.5333760" lon="8.6940710">
        <ele>-62.2</ele>
        <time>2022-06-10T09:41:10Z</time>
      </trkpt>
      <trkpt lat="47.5334110" lon="8.6937480">
        <ele>-62.0</ele>
        <time>2022-06-10T09:41:14Z</time>
      </trkpt>
      <trkpt lat="47.5334610" lon="8.6934460">
        <ele>-61.6</ele>
        <time>2022-06-10T09:41:18Z</time>
      </trkpt>
      <trkpt lat="47.5335550" lon="8.6932330">
        <ele>-61.4</ele>
        <time>2022-06-10T09:41:22Z</time>
      </trkpt>
      <trkpt lat="47.5337330" lon="8.6931780">
        <ele>-61.4</ele>
        <time>2022-06-10T09:41:26Z</time>
      </trkpt>
      <trkpt lat="47.5339250" lon="8.6931230">
        <ele>-60.4</ele>
        <time>2022-06-10T09:41:30Z</time>
      </trkpt>
      <trkpt lat="47.5341130" lon="8.6930860">
        <ele>-60.4</ele>
        <time>2022-06-10T09:41:34Z</time>
      </trkpt>
      <trkpt lat="47.5343000" lon="8.6930380">
        <ele>-59.6</ele>
        <time>2022-06-10T09:41:38Z</time>
      </trkpt>
      <trkpt lat="47.5344810" lon="8.6930160">
        <ele>-57.8</ele>
        <time>2022-06-10T09:41:42Z</time>
      </trkpt>
      <trkpt lat="47.5346230" lon="8.6930980">
        <ele>-56.6</ele>
        <time>2022-06-10T09:41:46Z</time>
      </trkpt>
      <trkpt lat="47.5347080" lon="8.6931980">
        <ele>-55.8</ele>
        <time>2022-06-10T09:41:50Z</time>
      </trkpt>
      <trkpt lat="47.5347630" lon="8.6932380">
        <ele>-55.8</ele>
        <time>2022-06-10T09:41:54Z</time>
      </trkpt>
      <trkpt lat="47.5348350" lon="8.6932230">
        <ele>-56.0</ele>
        <time>2022-06-10T09:41:58Z</time>
      </trkpt>
      <trkpt lat="47.5349580" lon="8.6930930">
        <ele>-56.4</ele>
        <time>2022-06-10T09:42:02Z</time>
      </trkpt>
      <trkpt lat="47.5350680" lon="8.6929160">
        <ele>-56.6</ele>
        <time>2022-06-10T09:42:06Z</time>
      </trkpt>
      <trkpt lat="47.5351950" lon="8.6927580">
        <ele>-57.2</ele>
        <time>2022-06-10T09:42:10Z</time>
      </trkpt>
      <trkpt lat="47.5353410" lon="8.6925980">
        <ele>-57.6</ele>
        <time>2022-06-10T09:42:14Z</time>
      </trkpt>
      <trkpt lat="47.5355200" lon="8.6924500">
        <ele>-58.0</ele>
        <time>2022-06-10T09:42:18Z</time>
      </trkpt>
      <trkpt lat="47.5357130" lon="8.6923150">
        <ele>-58.2</ele>
        <time>2022-06-10T09:42:22Z</time>
      </trkpt>
      <trkpt lat="47.5359180" lon="8.6921730">
        <ele>-58.8</ele>
        <time>2022-06-10T09:42:26Z</time>
      </trkpt>
      <trkpt lat="47.5361360" lon="8.6920000">
        <ele>-60.0</ele>
        <time>2022-06-10T09:42:30Z</time>
      </trkpt>
      <trkpt lat="47.5363510" lon="8.6917750">
        <ele>-60.6</ele>
        <time>2022-06-10T09:42:34Z</time>
      </trkpt>
      <trkpt lat="47.5365460" lon="8.6914710">
        <ele>-62.0</ele>
        <time>2022-06-10T09:42:38Z</time>
      </trkpt>
      <trkpt lat="47.5367080" lon="8.6911010">
        <ele>-62.6</ele>
        <time>2022-06-10T09:42:42Z</time>
      </trkpt>
      <trkpt lat="47.5368230" lon="8.6906980">
        <ele>-63.6</ele>
        <time>2022-06-10T09:42:46Z</time>
      </trkpt>
      <trkpt lat="47.5368810" lon="8.6902810">
        <ele>-64.0</ele>
        <time>2022-06-10T09:42:50Z</time>
      </trkpt>
      <trkpt lat="47.5368960" lon="8.6898750">
        <ele>-63.8</ele>
        <time>2022-06-10T09:42:54Z</time>
      </trkpt>
      <trkpt lat="47.5368800" lon="8.6894700">
        <ele>-64.0</ele>
        <time>2022-06-10T09:42:58Z</time>
      </trkpt>
      <trkpt lat="47.5368430" lon="8.6890860">
        <ele>-64.8</ele>
        <time>2022-06-10T09:43:02Z</time>
      </trkpt>
      <trkpt lat="47.5367950" lon="8.6887130">
        <ele>-64.6</ele>
        <time>2022-06-10T09:43:06Z</time>
      </trkpt>
      <trkpt lat="47.5367310" lon="8.6883460">
        <ele>-64.6</ele>
        <time>2022-06-10T09:43:10Z</time>
      </trkpt>
      <trkpt lat="47.5366730" lon="8.6879860">
        <ele>-64.8</ele>
        <time>2022-06-10T09:43:14Z</time>
      </trkpt>
      <trkpt lat="47.5366330" lon="8.6876730">
        <ele>-64.8</ele>
        <time>2022-06-10T09:43:18Z</time>
      </trkpt>
      <trkpt lat="47.5365980" lon="8.6874100">
        <ele>-64.8</ele>
        <time>2022-06-10T09:43:22Z</time>
      </trkpt>
      <trkpt lat="47.5365850" lon="8.6871930">
        <ele>-64.4</ele>
        <time>2022-06-10T09:43:26Z</time>
      </trkpt>
      <trkpt lat="47.5366260" lon="8.6871330">
        <ele>-65.2</ele>
        <time>2022-06-10T09:43:30Z</time>
      </trkpt>
      <trkpt lat="47.5366830" lon="8.6870930">
        <ele>-65.0</ele>
        <time>2022-06-10T09:43:34Z</time>
      </trkpt>
      <trkpt lat="47.5366700" lon="8.6870900">
        <ele>-65.0</ele>
        <time>2022-06-10T09:43:38Z</time>
      </trkpt>
      <trkpt lat="47.5366230" lon="8.6871550">
        <ele>-64.8</ele>
        <time>2022-06-10T09:43:42Z</time>
      </trkpt>
      <trkpt lat="47.5365760" lon="8.6871950">
        <ele>-65.0</ele>
        <time>2022-06-10T09:43:46Z</time>
      </trkpt>
      <trkpt lat="47.5365560" lon="8.6871360">
        <ele>-65.0</ele>
        <time>2022-06-10T09:43:50Z</time>
      </trkpt>
      <trkpt lat="47.5365610" lon="8.6870310">
        <ele>-64.6</ele>
        <time>2022-06-10T09:43:54Z</time>
      </trkpt>
      <trkpt lat="47.5365860" lon="8.6869110">
        <ele>-64.8</ele>
        <time>2022-06-10T09:43:58Z</time>
      </trkpt>
      <trkpt lat="47.5366380" lon="8.6867950">
        <ele>-64.6</ele>
        <time>2022-06-10T09:44:02Z</time>
      </trkpt>
      <trkpt lat="47.5367180" lon="8.6867060">
        <ele>-64.4</ele>
        <time>2022-06-10T09:44:06Z</time>
      </trkpt>
      <trkpt lat="47.5368160" lon="8.6865860">
        <ele>-64.8</ele>
        <time>2022-06-10T09:44:10Z</time>
      </trkpt>
      <trkpt lat="47.5369600" lon="8.6864700">
        <ele>-64.6</ele>
        <time>2022-06-10T09:44:14Z</time>
      </trkpt>
      <trkpt lat="47.5370980" lon="8.6863450">
        <ele>-64.4</ele>
        <time>2022-06-10T09:44:18Z</time>
      </trkpt>
      <trkpt lat="47.5372480" lon="8.6862110">
        <ele>-64.4</ele>
        <time>2022-06-10T09:44:22Z</time>
      </trkpt>
      <trkpt lat="47.5374080" lon="8.6860660">
        <ele>-64.6</ele>
        <time>2022-06-10T09:44:26Z</time>
      </trkpt>
      <trkpt lat="47.5375730" lon="8.6859650">
        <ele>-65.0</ele>
        <time>2022-06-10T09:44:30Z</time>
      </trkpt>
      <trkpt lat="47.5377250" lon="8.6858400">
        <ele>-64.6</ele>
        <time>2022-06-10T09:44:34Z</time>
      </trkpt>
      <trkpt lat="47.5378680" lon="8.6856830">
        <ele>-64.6</ele>
        <time>2022-06-10T09:44:38Z</time>
      </trkpt>
      <trkpt lat="47.5380300" lon="8.6855610">
        <ele>-64.8</ele>
        <time>2022-06-10T09:44:42Z</time>
      </trkpt>
      <trkpt lat="47.5381930" lon="8.6854230">
        <ele>-65.0</ele>
        <time>2022-06-10T09:44:46Z</time>
      </trkpt>
      <trkpt lat="47.5383550" lon="8.6852780">
        <ele>-64.8</ele>
        <time>2022-06-10T09:44:50Z</time>
      </trkpt>
      <trkpt lat="47.5385130" lon="8.6851530">
        <ele>-65.2</ele>
        <time>2022-06-10T09:44:54Z</time>
      </trkpt>
      <trkpt lat="47.5386550" lon="8.6850210">
        <ele>-65.0</ele>
        <time>2022-06-10T09:44:58Z</time>
      </trkpt>
      <trkpt lat="47.5387930" lon="8.6849000">
        <ele>-64.8</ele>
        <time>2022-06-10T09:45:02Z</time>
      </trkpt>
      <trkpt lat="47.5389230" lon="8.6847830">
        <ele>-64.4</ele>
        <time>2022-06-10T09:45:06Z</time>
      </trkpt>
      <trkpt lat="47.5390450" lon="8.6846910">
        <ele>-65.4</ele>
        <time>2022-06-10T09:45:10Z</time>
      </trkpt>
      <trkpt lat="47.5390450" lon="8.6846910">
        <ele>-65.8</ele>
        <time>2022-06-10T09:45:14Z</time>
      </trkpt>
      <trkpt lat="47.5390910" lon="8.6846410">
        <ele>-66.0</ele>
        <time>2022-06-10T09:45:18Z</time>
      </trkpt>
      <trkpt lat="47.5390860" lon="8.6845500">
        <ele>-66.2</ele>
        <time>2022-06-10T09:45:22Z</time>
      </trkpt>
      <trkpt lat="47.5390450" lon="8.6843850">
        <ele>-66.8</ele>
        <time>2022-06-10T09:45:26Z</time>
      </trkpt>
      <trkpt lat="47.5389680" lon="8.6841730">
        <ele>-67.0</ele>
        <time>2022-06-10T09:45:30Z</time>
      </trkpt>
      <trkpt lat="47.5388860" lon="8.6839460">
        <ele>-67.2</ele>
        <time>2022-06-10T09:45:34Z</time>
      </trkpt>
      <trkpt lat="47.5388010" lon="8.6837160">
        <ele>-67.8</ele>
        <time>2022-06-10T09:45:38Z</time>
      </trkpt>
      <trkpt lat="47.5387180" lon="8.6834930">
        <ele>-68.2</ele>
        <time>2022-06-10T09:45:42Z</time>
      </trkpt>
      <trkpt lat="47.5386400" lon="8.6832780">
        <ele>-68.2</ele>
        <time>2022-06-10T09:45:46Z</time>
      </trkpt>
      <trkpt lat="47.5385560" lon="8.6830600">
        <ele>-67.4</ele>
        <time>2022-06-10T09:45:50Z</time>
      </trkpt>
      <trkpt lat="47.5384800" lon="8.6828360">
        <ele>-67.6</ele>
        <time>2022-06-10T09:45:54Z</time>
      </trkpt>
      <trkpt lat="47.5383880" lon="8.6826130">
        <ele>-68.0</ele>
        <time>2022-06-10T09:45:58Z</time>
      </trkpt>
      <trkpt lat="47.5383030" lon="8.6823700">
        <ele>-68.2</ele>
        <time>2022-06-10T09:46:02Z</time>
      </trkpt>
      <trkpt lat="47.5382030" lon="8.6821330">
        <ele>-67.6</ele>
        <time>2022-06-10T09:46:06Z</time>
      </trkpt>
      <trkpt lat="47.5381080" lon="8.6818880">
        <ele>-68.4</ele>
        <time>2022-06-10T09:46:10Z</time>
      </trkpt>
      <trkpt lat="47.5380230" lon="8.6816360">
        <ele>-68.4</ele>
        <time>2022-06-10T09:46:14Z</time>
      </trkpt>
      <trkpt lat="47.5379350" lon="8.6813950">
        <ele>-68.2</ele>
        <time>2022-06-10T09:46:18Z</time>
      </trkpt>
      <trkpt lat="47.5378450" lon="8.6811480">
        <ele>-68.6</ele>
        <time>2022-06-10T09:46:22Z</time>
      </trkpt>
      <trkpt lat="47.5377580" lon="8.6809000">
        <ele>-68.2</ele>
        <time>2022-06-10T09:46:26Z</time>
      </trkpt>
      <trkpt lat="47.5376750" lon="8.6806550">
        <ele>-68.6</ele>
        <time>2022-06-10T09:46:30Z</time>
      </trkpt>
      <trkpt lat="47.5375850" lon="8.6804130">
        <ele>-68.8</ele>
        <time>2022-06-10T09:46:34Z</time>
      </trkpt>
      <trkpt lat="47.5374980" lon="8.6801780">
        <ele>-68.4</ele>
        <time>2022-06-10T09:46:38Z</time>
      </trkpt>
      <trkpt lat="47.5374130" lon="8.6799460">
        <ele>-68.8</ele>
        <time>2022-06-10T09:46:42Z</time>
      </trkpt>
      <trkpt lat="47.5373230" lon="8.6796980">
        <ele>-68.8</ele>
        <time>2022-06-10T09:46:46Z</time>
      </trkpt>
      <trkpt lat="47.5372330" lon="8.6794300">
        <ele>-69.0</ele>
        <time>2022-06-10T09:46:50Z</time>
      </trkpt>
      <trkpt lat="47.5371380" lon="8.6791660">
        <ele>-68.8</ele>
        <time>2022-06-10T09:46:54Z</time>
      </trkpt>
      <trkpt lat="47.5370360" lon="8.6789000">
        <ele>-68.8</ele>
        <time>2022-06-10T09:46:58Z</time>
      </trkpt>
      <trkpt lat="47.5369360" lon="8.6786330">
        <ele>-69.4</ele>
        <time>2022-06-10T09:47:02Z</time>
      </trkpt>
      <trkpt lat="47.5368350" lon="8.6783700">
        <ele>-69.0</ele>
        <time>2022-06-10T09:47:06Z</time>
      </trkpt>
      <trkpt lat="47.5367250" lon="8.6781130">
        <ele>-69.4</ele>
        <time>2022-06-10T09:47:10Z</time>
      </trkpt>
      <trkpt lat="47.5366230" lon="8.6778600">
        <ele>-69.4</ele>
        <time>2022-06-10T09:47:14Z</time>
      </trkpt>
      <trkpt lat="47.5365210" lon="8.6776110">
        <ele>-69.4</ele>
        <time>2022-06-10T09:47:18Z</time>
      </trkpt>
      <trkpt lat="47.5364210" lon="8.6773680">
        <ele>-69.6</ele>
        <time>2022-06-10T09:47:22Z</time>
      </trkpt>
      <trkpt lat="47.5363280" lon="8.6771430">
        <ele>-70.4</ele>
        <time>2022-06-10T09:47:26Z</time>
      </trkpt>
      <trkpt lat="47.5362230" lon="8.6768900">
        <ele>-70.2</ele>
        <time>2022-06-10T09:47:30Z</time>
      </trkpt>
      <trkpt lat="47.5361150" lon="8.6766400">
        <ele>-69.8</ele>
        <time>2022-06-10T09:47:34Z</time>
      </trkpt>
      <trkpt lat="47.5359900" lon="8.6764030">
        <ele>-69.6</ele>
        <time>2022-06-10T09:47:38Z</time>
      </trkpt>
      <trkpt lat="47.5358530" lon="8.6761630">
        <ele>-70.0</ele>
        <time>2022-06-10T09:47:42Z</time>
      </trkpt>
      <trkpt lat="47.5357160" lon="8.6759160">
        <ele>-69.8</ele>
        <time>2022-06-10T09:47:46Z</time>
      </trkpt>
      <trkpt lat="47.5355830" lon="8.6756630">
        <ele>-70.0</ele>
        <time>2022-06-10T09:47:50Z</time>
      </trkpt>
      <trkpt lat="47.5354400" lon="8.6754180">
        <ele>-70.0</ele>
        <time>2022-06-10T09:47:54Z</time>
      </trkpt>
      <trkpt lat="47.5352860" lon="8.6751910">
        <ele>-70.4</ele>
        <time>2022-06-10T09:47:58Z</time>
      </trkpt>
      <trkpt lat="47.5351160" lon="8.6749980">
        <ele>-70.8</ele>
        <time>2022-06-10T09:48:02Z</time>
      </trkpt>
      <trkpt lat="47.5349300" lon="8.6748500">
        <ele>-70.8</ele>
        <time>2022-06-10T09:48:06Z</time>
      </trkpt>
      <trkpt lat="47.5347330" lon="8.6747360">
        <ele>-70.4</ele>
        <time>2022-06-10T09:48:10Z</time>
      </trkpt>
      <trkpt lat="47.5345330" lon="8.6746430">
        <ele>-70.6</ele>
        <time>2022-06-10T09:48:14Z</time>
      </trkpt>
      <trkpt lat="47.5343260" lon="8.6745480">
        <ele>-70.6</ele>
        <time>2022-06-10T09:48:18Z</time>
      </trkpt>
      <trkpt lat="47.5341250" lon="8.6744350">
        <ele>-71.0</ele>
        <time>2022-06-10T09:48:22Z</time>
      </trkpt>
      <trkpt lat="47.5339360" lon="8.6743000">
        <ele>-70.2</ele>
        <time>2022-06-10T09:48:26Z</time>
      </trkpt>
      <trkpt lat="47.5337480" lon="8.6741450">
        <ele>-70.4</ele>
        <time>2022-06-10T09:48:30Z</time>
      </trkpt>
      <trkpt lat="47.5335800" lon="8.6740030">
        <ele>-70.4</ele>
        <time>2022-06-10T09:48:34Z</time>
      </trkpt>
      <trkpt lat="47.5333950" lon="8.6738530">
        <ele>-71.0</ele>
        <time>2022-06-10T09:48:38Z</time>
      </trkpt>
      <trkpt lat="47.5332110" lon="8.6736860">
        <ele>-71.2</ele>
        <time>2022-06-10T09:48:42Z</time>
      </trkpt>
      <trkpt lat="47.5330350" lon="8.6735260">
        <ele>-71.4</ele>
        <time>2022-06-10T09:48:46Z</time>
      </trkpt>
      <trkpt lat="47.5328560" lon="8.6733530">
        <ele>-71.4</ele>
        <time>2022-06-10T09:48:50Z</time>
      </trkpt>
      <trkpt lat="47.5327030" lon="8.6731380">
        <ele>-71.0</ele>
        <time>2022-06-10T09:48:54Z</time>
      </trkpt>
      <trkpt lat="47.5325560" lon="8.6729080">
        <ele>-71.4</ele>
        <time>2022-06-10T09:48:58Z</time>
      </trkpt>
      <trkpt lat="47.5324150" lon="8.6726660">
        <ele>-71.4</ele>
        <time>2022-06-10T09:49:02Z</time>
      </trkpt>
      <trkpt lat="47.5322560" lon="8.6724410">
        <ele>-71.0</ele>
        <time>2022-06-10T09:49:06Z</time>
      </trkpt>
      <trkpt lat="47.5320950" lon="8.6722460">
        <ele>-71.0</ele>
        <time>2022-06-10T09:49:10Z</time>
      </trkpt>
      <trkpt lat="47.5319310" lon="8.6720800">
        <ele>-71.6</ele>
        <time>2022-06-10T09:49:14Z</time>
      </trkpt>
      <trkpt lat="47.5317610" lon="8.6719050">
        <ele>-71.4</ele>
        <time>2022-06-10T09:49:18Z</time>
      </trkpt>
      <trkpt lat="47.5315950" lon="8.6717460">
        <ele>-71.4</ele>
        <time>2022-06-10T09:49:22Z</time>
      </trkpt>
      <trkpt lat="47.5314200" lon="8.6715700">
        <ele>-71.6</ele>
        <time>2022-06-10T09:49:26Z</time>
      </trkpt>
      <trkpt lat="47.5312350" lon="8.6713830">
        <ele>-71.8</ele>
        <time>2022-06-10T09:49:30Z</time>
      </trkpt>
      <trkpt lat="47.5310480" lon="8.6712050">
        <ele>-71.4</ele>
        <time>2022-06-10T09:49:34Z</time>
      </trkpt>
      <trkpt lat="47.5308810" lon="8.6710010">
        <ele>-72.0</ele>
        <time>2022-06-10T09:49:38Z</time>
      </trkpt>
      <trkpt lat="47.5307210" lon="8.6707760">
        <ele>-71.6</ele>
        <time>2022-06-10T09:49:42Z</time>
      </trkpt>
      <trkpt lat="47.5305600" lon="8.6705560">
        <ele>-71.4</ele>
        <time>2022-06-10T09:49:46Z</time>
      </trkpt>
      <trkpt lat="47.5304000" lon="8.6703560">
        <ele>-71.6</ele>
        <time>2022-06-10T09:49:50Z</time>
      </trkpt>
      <trkpt lat="47.5302400" lon="8.6701930">
        <ele>-71.8</ele>
        <time>2022-06-10T09:49:54Z</time>
      </trkpt>
      <trkpt lat="47.5300830" lon="8.6700330">
        <ele>-71.6</ele>
        <time>2022-06-10T09:49:58Z</time>
      </trkpt>
      <trkpt lat="47.5299380" lon="8.6698210">
        <ele>-72.0</ele>
        <time>2022-06-10T09:50:02Z</time>
      </trkpt>
      <trkpt lat="47.5298250" lon="8.6696110">
        <ele>-72.0</ele>
        <time>2022-06-10T09:50:06Z</time>
      </trkpt>
      <trkpt lat="47.5297060" lon="8.6693660">
        <ele>-73.0</ele>
        <time>2022-06-10T09:50:10Z</time>
      </trkpt>
      <trkpt lat="47.5296280" lon="8.6690910">
        <ele>-73.0</ele>
        <time>2022-06-10T09:50:14Z</time>
      </trkpt>
      <trkpt lat="47.5295450" lon="8.6687760">
        <ele>-72.8</ele>
        <time>2022-06-10T09:50:18Z</time>
      </trkpt>
      <trkpt lat="47.5294680" lon="8.6684660">
        <ele>-72.8</ele>
        <time>2022-06-10T09:50:22Z</time>
      </trkpt>
      <trkpt lat="47.5294300" lon="8.6681860">
        <ele>-72.8</ele>
        <time>2022-06-10T09:50:26Z</time>
      </trkpt>
      <trkpt lat="47.5293560" lon="8.6679100">
        <ele>-72.2</ele>
        <time>2022-06-10T09:50:30Z</time>
      </trkpt>
      <trkpt lat="47.5293330" lon="8.6676980">
        <ele>-72.6</ele>
        <time>2022-06-10T09:50:34Z</time>
      </trkpt>
      <trkpt lat="47.5292710" lon="8.6675980">
        <ele>-72.0</ele>
        <time>2022-06-10T09:50:38Z</time>
      </trkpt>
      <trkpt lat="47.5291850" lon="8.6675830">
        <ele>-72.0</ele>
        <time>2022-06-10T09:50:42Z</time>
      </trkpt>
      <trkpt lat="47.5291150" lon="8.6676810">
        <ele>-72.6</ele>
        <time>2022-06-10T09:50:46Z</time>
      </trkpt>
      <trkpt lat="47.5290330" lon="8.6677950">
        <ele>-72.4</ele>
        <time>2022-06-10T09:50:50Z</time>
      </trkpt>
      <trkpt lat="47.5289660" lon="8.6679060">
        <ele>-72.2</ele>
        <time>2022-06-10T09:50:54Z</time>
      </trkpt>
      <trkpt lat="47.5289260" lon="8.6679600">
        <ele>-72.6</ele>
        <time>2022-06-10T09:50:58Z</time>
      </trkpt>
      <trkpt lat="47.5289310" lon="8.6678930">
        <ele>-72.6</ele>
        <time>2022-06-10T09:51:02Z</time>
      </trkpt>
      <trkpt lat="47.5289400" lon="8.6677780">
        <ele>-72.8</ele>
        <time>2022-06-10T09:51:06Z</time>
      </trkpt>
      <trkpt lat="47.5289200" lon="8.6676030">
        <ele>-72.6</ele>
        <time>2022-06-10T09:51:10Z</time>
      </trkpt>
      <trkpt lat="47.5287900" lon="8.6674650">
        <ele>-72.6</ele>
        <time>2022-06-10T09:51:14Z</time>
      </trkpt>
      <trkpt lat="47.5286610" lon="8.6673450">
        <ele>-73.2</ele>
        <time>2022-06-10T09:51:18Z</time>
      </trkpt>
      <trkpt lat="47.5285410" lon="8.6671880">
        <ele>-73.2</ele>
        <time>2022-06-10T09:51:22Z</time>
      </trkpt>
      <trkpt lat="47.5284010" lon="8.6670950">
        <ele>-73.2</ele>
        <time>2022-06-10T09:51:26Z</time>
      </trkpt>
      <trkpt lat="47.5282650" lon="8.6670130">
        <ele>-73.2</ele>
        <time>2022-06-10T09:51:30Z</time>
      </trkpt>
      <trkpt lat="47.5281210" lon="8.6670700">
        <ele>-71.4</ele>
        <time>2022-06-10T09:51:34Z</time>
      </trkpt>
      <trkpt lat="47.5280050" lon="8.6671360">
        <ele>-70.6</ele>
        <time>2022-06-10T09:51:38Z</time>
      </trkpt>
      <trkpt lat="47.5278660" lon="8.6670510">
        <ele>-70.8</ele>
        <time>2022-06-10T09:51:42Z</time>
      </trkpt>
      <trkpt lat="47.5277710" lon="8.6668680">
        <ele>-70.6</ele>
        <time>2022-06-10T09:51:46Z</time>
      </trkpt>
      <trkpt lat="47.5276880" lon="8.6666710">
        <ele>-71.0</ele>
        <time>2022-06-10T09:51:50Z</time>
      </trkpt>
      <trkpt lat="47.5276210" lon="8.6664750">
        <ele>-70.8</ele>
        <time>2022-06-10T09:51:54Z</time>
      </trkpt>
      <trkpt lat="47.5275450" lon="8.6662680">
        <ele>-70.6</ele>
        <time>2022-06-10T09:51:58Z</time>
      </trkpt>
      <trkpt lat="47.5274650" lon="8.6660610">
        <ele>-70.4</ele>
        <time>2022-06-10T09:52:02Z</time>
      </trkpt>
      <trkpt lat="47.5273860" lon="8.6658510">
        <ele>-70.4</ele>
        <time>2022-06-10T09:52:06Z</time>
      </trkpt>
      <trkpt lat="47.5273110" lon="8.6656680">
        <ele>-70.8</ele>
        <time>2022-06-10T09:52:10Z</time>
      </trkpt>
      <trkpt lat="47.5272530" lon="8.6655300">
        <ele>-70.4</ele>
        <time>2022-06-10T09:52:14Z</time>
      </trkpt>
      <trkpt lat="47.5272530" lon="8.6655300">
        <ele>-70.2</ele>
        <time>2022-06-10T09:52:18Z</time>
      </trkpt>
      <trkpt lat="47.5272530" lon="8.6655300">
        <ele>-70.6</ele>
        <time>2022-06-10T09:52:22Z</time>
      </trkpt>
      <trkpt lat="47.5272530" lon="8.6655300">
        <ele>-70.6</ele>
        <time>2022-06-10T09:52:26Z</time>
      </trkpt>
      <trkpt lat="47.5272530" lon="8.6655300">
        <ele>-70.2</ele>
        <time>2022-06-10T09:52:30Z</time>
      </trkpt>
      <trkpt lat="47.5272110" lon="8.6655100">
        <ele>-69.8</ele>
        <time>2022-06-10T09:52:34Z</time>
      </trkpt>
      <trkpt lat="47.5271760" lon="8.6654580">
        <ele>-69.8</ele>
        <time>2022-06-10T09:52:38Z</time>
      </trkpt>
      <trkpt lat="47.5271330" lon="8.6653960">
        <ele>-70.0</ele>
        <time>2022-06-10T09:52:42Z</time>
      </trkpt>
      <trkpt lat="47.5271160" lon="8.6653060">
        <ele>-69.6</ele>
        <time>2022-06-10T09:52:46Z</time>
      </trkpt>
      <trkpt lat="47.5270850" lon="8.6653310">
        <ele>-69.2</ele>
        <time>2022-06-10T09:52:50Z</time>
      </trkpt>
      <trkpt lat="47.5270500" lon="8.6653600">
        <ele>-69.2</ele>
        <time>2022-06-10T09:52:54Z</time>
      </trkpt>
      <trkpt lat="47.5270500" lon="8.6653600">
        <ele>-69.0</ele>
        <time>2022-06-10T09:52:58Z</time>
      </trkpt>
      <trkpt lat="47.5270500" lon="8.6653600">
        <ele>-68.8</ele>
        <time>2022-06-10T09:53:02Z</time>
      </trkpt>
      <trkpt lat="47.5270500" lon="8.6653600">
        <ele>-68.6</ele>
        <time>2022-06-10T09:53:06Z</time>
      </trkpt>
      <trkpt lat="47.5270500" lon="8.6653600">
        <ele>-69.0</ele>
        <time>2022-06-10T09:53:10Z</time>
      </trkpt>
      <trkpt lat="47.5270500" lon="8.6653600">
        <ele>-69.0</ele>
        <time>2022-06-10T09:53:14Z</time>
      </trkpt>
      <trkpt lat="47.5270500" lon="8.6653600">
        <ele>-69.0</ele>
        <time>2022-06-10T09:53:18Z</time>
      </trkpt>
      <trkpt lat="47.5270500" lon="8.6653600">
        <ele>-69.0</ele>
        <time>2022-06-10T09:53:22Z</time>
      </trkpt>
      <trkpt lat="47.5270500" lon="8.6653600">
        <ele>-69.0</ele>
        <time>2022-06-10T09:53:26Z</time>
      </trkpt>
      <trkpt lat="47.5270500" lon="8.6653600">
        <ele>-69.0</ele>
        <time>2022-06-10T09:53:30Z</time>
      </trkpt>
      <trkpt lat="47.5270500" lon="8.6653600">
        <ele>-68.8</ele>
        <time>2022-06-10T09:53:34Z</time>
      </trkpt>
      <trkpt lat="47.5270500" lon="8.6653600">
        <ele>-68.4</ele>
        <time>2022-06-10T09:53:38Z</time>
      </trkpt>
      <trkpt lat="47.5270500" lon="8.6653600">
        <ele>-68.6</ele>
        <time>2022-06-10T09:53:42Z</time>
      </trkpt>
      <trkpt lat="47.5270500" lon="8.6653600">
        <ele>-68.8</ele>
        <time>2022-06-10T09:53:46Z</time>
      </trkpt>
      <trkpt lat="47.5269610" lon="8.6653450">
        <ele>-68.6</ele>
        <time>2022-06-10T09:53:50Z</time>
      </trkpt>
      <trkpt lat="47.5269300" lon="8.6653230">
        <ele>-68.8</ele>
        <time>2022-06-10T09:53:54Z</time>
      </trkpt>
      <trkpt lat="47.5268750" lon="8.6653500">
        <ele>-68.2</ele>
        <time>2022-06-10T09:53:58Z</time>
      </trkpt>
      <trkpt lat="47.5268580" lon="8.6653250">
        <ele>-68.8</ele>
        <time>2022-06-10T09:54:02Z</time>
      </trkpt>
      <trkpt lat="47.5269050" lon="8.6653500">
        <ele>-68.6</ele>
        <time>2022-06-10T09:54:06Z</time>
      </trkpt>
      <trkpt lat="47.5269450" lon="8.6653860">
        <ele>-68.8</ele>
        <time>2022-06-10T09:54:10Z</time>
      </trkpt>
      <trkpt lat="47.5270000" lon="8.6653560">
        <ele>-68.8</ele>
        <time>2022-06-10T09:54:14Z</time>
      </trkpt>
      <trkpt lat="47.5270000" lon="8.6653560">
        <ele>-69.0</ele>
        <time>2022-06-10T09:54:18Z</time>
      </trkpt>
      <trkpt lat="47.5270000" lon="8.6653560">
        <ele>-68.8</ele>
        <time>2022-06-10T09:54:22Z</time>
      </trkpt>
      <trkpt lat="47.5270000" lon="8.6653560">
        <ele>-69.4</ele>
        <time>2022-06-10T09:54:26Z</time>
      </trkpt>
      <trkpt lat="47.5270000" lon="8.6653560">
        <ele>-69.4</ele>
        <time>2022-06-10T09:54:30Z</time>
      </trkpt>
      <trkpt lat="47.5270000" lon="8.6653560">
        <ele>-69.4</ele>
        <time>2022-06-10T09:54:34Z</time>
      </trkpt>
      <trkpt lat="47.5270000" lon="8.6653560">
        <ele>-69.0</ele>
        <time>2022-06-10T09:54:38Z</time>
      </trkpt>
      <trkpt lat="47.5270000" lon="8.6653560">
        <ele>-68.6</ele>
        <time>2022-06-10T09:54:42Z</time>
      </trkpt>
      <trkpt lat="47.5270000" lon="8.6653560">
        <ele>-68.8</ele>
        <time>2022-06-10T09:54:46Z</time>
      </trkpt>
      <trkpt lat="47.5270350" lon="8.6653250">
        <ele>-69.2</ele>
        <time>2022-06-10T09:54:50Z</time>
      </trkpt>
      <trkpt lat="47.5270710" lon="8.6652350">
        <ele>-69.2</ele>
        <time>2022-06-10T09:54:54Z</time>
      </trkpt>
      <trkpt lat="47.5270730" lon="8.6650830">
        <ele>-69.6</ele>
        <time>2022-06-10T09:54:58Z</time>
      </trkpt>
      <trkpt lat="47.5270800" lon="8.6649280">
        <ele>-70.0</ele>
        <time>2022-06-10T09:55:02Z</time>
      </trkpt>
      <trkpt lat="47.5271250" lon="8.6647760">
        <ele>-70.0</ele>
        <time>2022-06-10T09:55:06Z</time>
      </trkpt>
      <trkpt lat="47.5271660" lon="8.6646010">
        <ele>-70.2</ele>
        <time>2022-06-10T09:55:10Z</time>
      </trkpt>
      <trkpt lat="47.5271850" lon="8.6643700">
        <ele>-70.4</ele>
        <time>2022-06-10T09:55:14Z</time>
      </trkpt>
      <trkpt lat="47.5271600" lon="8.6641150">
        <ele>-70.2</ele>
        <time>2022-06-10T09:55:18Z</time>
      </trkpt>
      <trkpt lat="47.5271100" lon="8.6638600">
        <ele>-70.2</ele>
        <time>2022-06-10T09:55:22Z</time>
      </trkpt>
      <trkpt lat="47.5270410" lon="8.6636230">
        <ele>-70.0</ele>
        <time>2022-06-10T09:55:26Z</time>
      </trkpt>
      <trkpt lat="47.5269650" lon="8.6634150">
        <ele>-69.6</ele>
        <time>2022-06-10T09:55:30Z</time>
      </trkpt>
      <trkpt lat="47.5269000" lon="8.6632160">
        <ele>-69.2</ele>
        <time>2022-06-10T09:55:34Z</time>
      </trkpt>
      <trkpt lat="47.5268030" lon="8.6630230">
        <ele>-69.8</ele>
        <time>2022-06-10T09:55:38Z</time>
      </trkpt>
      <trkpt lat="47.5267450" lon="8.6628000">
        <ele>-69.4</ele>
        <time>2022-06-10T09:55:42Z</time>
      </trkpt>
      <trkpt lat="47.5266960" lon="8.6625560">
        <ele>-69.6</ele>
        <time>2022-06-10T09:55:46Z</time>
      </trkpt>
      <trkpt lat="47.5266230" lon="8.6622950">
        <ele>-69.4</ele>
        <time>2022-06-10T09:55:50Z</time>
      </trkpt>
      <trkpt lat="47.5265430" lon="8.6620400">
        <ele>-69.2</ele>
        <time>2022-06-10T09:55:54Z</time>
      </trkpt>
      <trkpt lat="47.5264650" lon="8.6618000">
        <ele>-69.2</ele>
        <time>2022-06-10T09:55:58Z</time>
      </trkpt>
      <trkpt lat="47.5263760" lon="8.6615710">
        <ele>-69.0</ele>
        <time>2022-06-10T09:56:02Z</time>
      </trkpt>
      <trkpt lat="47.5262580" lon="8.6613500">
        <ele>-69.2</ele>
        <time>2022-06-10T09:56:06Z</time>
      </trkpt>
      <trkpt lat="47.5261300" lon="8.6611300">
        <ele>-69.2</ele>
        <time>2022-06-10T09:56:10Z</time>
      </trkpt>
      <trkpt lat="47.5260060" lon="8.6609100">
        <ele>-69.4</ele>
        <time>2022-06-10T09:56:14Z</time>
      </trkpt>
      <trkpt lat="47.5258680" lon="8.6606950">
        <ele>-70.2</ele>
        <time>2022-06-10T09:56:18Z</time>
      </trkpt>
      <trkpt lat="47.5257260" lon="8.6604730">
        <ele>-69.8</ele>
        <time>2022-06-10T09:56:22Z</time>
      </trkpt>
      <trkpt lat="47.5255830" lon="8.6602460">
        <ele>-70.2</ele>
        <time>2022-06-10T09:56:26Z</time>
      </trkpt>
      <trkpt lat="47.5254310" lon="8.6600330">
        <ele>-70.4</ele>
        <time>2022-06-10T09:56:30Z</time>
      </trkpt>
      <trkpt lat="47.5253010" lon="8.6597810">
        <ele>-70.4</ele>
        <time>2022-06-10T09:56:34Z</time>
      </trkpt>
      <trkpt lat="47.5251460" lon="8.6595360">
        <ele>-71.0</ele>
        <time>2022-06-10T09:56:38Z</time>
      </trkpt>
      <trkpt lat="47.5249750" lon="8.6592900">
        <ele>-71.4</ele>
        <time>2022-06-10T09:56:42Z</time>
      </trkpt>
      <trkpt lat="47.5248030" lon="8.6590310">
        <ele>-71.6</ele>
        <time>2022-06-10T09:56:46Z</time>
      </trkpt>
      <trkpt lat="47.5246210" lon="8.6587680">
        <ele>-71.8</ele>
        <time>2022-06-10T09:56:50Z</time>
      </trkpt>
      <trkpt lat="47.5244380" lon="8.6585000">
        <ele>-73.4</ele>
        <time>2022-06-10T09:56:54Z</time>
      </trkpt>
      <trkpt lat="47.5242260" lon="8.6582600">
        <ele>-74.2</ele>
        <time>2022-06-10T09:56:58Z</time>
      </trkpt>
      <trkpt lat="47.5239750" lon="8.6580660">
        <ele>-75.0</ele>
        <time>2022-06-10T09:57:02Z</time>
      </trkpt>
      <trkpt lat="47.5237060" lon="8.6579300">
        <ele>-75.4</ele>
        <time>2022-06-10T09:57:06Z</time>
      </trkpt>
      <trkpt lat="47.5233980" lon="8.6578680">
        <ele>-76.8</ele>
        <time>2022-06-10T09:57:10Z</time>
      </trkpt>
      <trkpt lat="47.5230610" lon="8.6578950">
        <ele>-78.4</ele>
        <time>2022-06-10T09:57:14Z</time>
      </trkpt>
      <trkpt lat="47.5226910" lon="8.6580150">
        <ele>-80.4</ele>
        <time>2022-06-10T09:57:18Z</time>
      </trkpt>
      <trkpt lat="47.5223200" lon="8.6581750">
        <ele>-82.4</ele>
        <time>2022-06-10T09:57:22Z</time>
      </trkpt>
      <trkpt lat="47.5219480" lon="8.6582730">
        <ele>-84.0</ele>
        <time>2022-06-10T09:57:26Z</time>
      </trkpt>
      <trkpt lat="47.5215710" lon="8.6581910">
        <ele>-86.2</ele>
        <time>2022-06-10T09:57:30Z</time>
      </trkpt>
      <trkpt lat="47.5212360" lon="8.6579280">
        <ele>-87.2</ele>
        <time>2022-06-10T09:57:34Z</time>
      </trkpt>
      <trkpt lat="47.5210900" lon="8.6576630">
        <ele>-88.2</ele>
        <time>2022-06-10T09:57:38Z</time>
      </trkpt>
      <trkpt lat="47.5210680" lon="8.6575230">
        <ele>-87.8</ele>
        <time>2022-06-10T09:57:42Z</time>
      </trkpt>
      <trkpt lat="47.5210680" lon="8.6575230">
        <ele>-87.8</ele>
        <time>2022-06-10T09:57:46Z</time>
      </trkpt>
      <trkpt lat="47.5210680" lon="8.6575230">
        <ele>-87.8</ele>
        <time>2022-06-10T09:57:50Z</time>
      </trkpt>
      <trkpt lat="47.5210680" lon="8.6575230">
        <ele>-87.6</ele>
        <time>2022-06-10T09:57:54Z</time>
      </trkpt>
      <trkpt lat="47.5210680" lon="8.6575230">
        <ele>-87.8</ele>
        <time>2022-06-10T09:57:58Z</time>
      </trkpt>
      <trkpt lat="47.5210680" lon="8.6575230">
        <ele>-87.4</ele>
        <time>2022-06-10T09:58:02Z</time>
      </trkpt>
      <trkpt lat="47.5210680" lon="8.6575230">
        <ele>-88.2</ele>
        <time>2022-06-10T09:58:06Z</time>
      </trkpt>
      <trkpt lat="47.5210680" lon="8.6575230">
        <ele>-88.0</ele>
        <time>2022-06-10T09:58:10Z</time>
      </trkpt>
      <trkpt lat="47.5210680" lon="8.6575230">
        <ele>-88.0</ele>
        <time>2022-06-10T09:58:14Z</time>
      </trkpt>
      <trkpt lat="47.5210680" lon="8.6575230">
        <ele>-87.8</ele>
        <time>2022-06-10T09:58:18Z</time>
      </trkpt>
      <trkpt lat="47.5210550" lon="8.6574880">
        <ele>-88.2</ele>
        <time>2022-06-10T09:58:22Z</time>
      </trkpt>
      <trkpt lat="47.5210150" lon="8.6574010">
        <ele>-88.2</ele>
        <time>2022-06-10T09:58:26Z</time>
      </trkpt>
      <trkpt lat="47.5208710" lon="8.6573200">
        <ele>-88.2</ele>
        <time>2022-06-10T09:58:30Z</time>
      </trkpt>
      <trkpt lat="47.5206530" lon="8.6573530">
        <ele>-88.8</ele>
        <time>2022-06-10T09:58:34Z</time>
      </trkpt>
      <trkpt lat="47.5204450" lon="8.6573960">
        <ele>-89.2</ele>
        <time>2022-06-10T09:58:38Z</time>
      </trkpt>
      <trkpt lat="47.5202480" lon="8.6574230">
        <ele>-88.6</ele>
        <time>2022-06-10T09:58:42Z</time>
      </trkpt>
      <trkpt lat="47.5200600" lon="8.6574500">
        <ele>-89.0</ele>
        <time>2022-06-10T09:58:46Z</time>
      </trkpt>
      <trkpt lat="47.5198750" lon="8.6574780">
        <ele>-89.0</ele>
        <time>2022-06-10T09:58:50Z</time>
      </trkpt>
      <trkpt lat="47.5197150" lon="8.6573760">
        <ele>-89.4</ele>
        <time>2022-06-10T09:58:54Z</time>
      </trkpt>
      <trkpt lat="47.5195930" lon="8.6571450">
        <ele>-90.4</ele>
        <time>2022-06-10T09:58:58Z</time>
      </trkpt>
      <trkpt lat="47.5195400" lon="8.6568380">
        <ele>-89.8</ele>
        <time>2022-06-10T09:59:02Z</time>
      </trkpt>
      <trkpt lat="47.5194900" lon="8.6565130">
        <ele>-90.4</ele>
        <time>2022-06-10T09:59:06Z</time>
      </trkpt>
      <trkpt lat="47.5194500" lon="8.6561780">
        <ele>-90.4</ele>
        <time>2022-06-10T09:59:10Z</time>
      </trkpt>
      <trkpt lat="47.5194000" lon="8.6558400">
        <ele>-90.6</ele>
        <time>2022-06-10T09:59:14Z</time>
      </trkpt>
      <trkpt lat="47.5193480" lon="8.6555100">
        <ele>-90.8</ele>
        <time>2022-06-10T09:59:18Z</time>
      </trkpt>
      <trkpt lat="47.5193010" lon="8.6552010">
        <ele>-90.6</ele>
        <time>2022-06-10T09:59:22Z</time>
      </trkpt>
      <trkpt lat="47.5192510" lon="8.6549280">
        <ele>-90.6</ele>
        <time>2022-06-10T09:59:26Z</time>
      </trkpt>
      <trkpt lat="47.5191850" lon="8.6546510">
        <ele>-90.8</ele>
        <time>2022-06-10T09:59:30Z</time>
      </trkpt>
      <trkpt lat="47.5190910" lon="8.6543960">
        <ele>-91.0</ele>
        <time>2022-06-10T09:59:34Z</time>
      </trkpt>
      <trkpt lat="47.5190400" lon="8.6541660">
        <ele>-90.8</ele>
        <time>2022-06-10T09:59:38Z</time>
      </trkpt>
      <trkpt lat="47.5189710" lon="8.6539000">
        <ele>-90.0</ele>
        <time>2022-06-10T09:59:42Z</time>
      </trkpt>
      <trkpt lat="47.5188900" lon="8.6536360">
        <ele>-90.2</ele>
        <time>2022-06-10T09:59:46Z</time>
      </trkpt>
      <trkpt lat="47.5187960" lon="8.6533760">
        <ele>-90.0</ele>
        <time>2022-06-10T09:59:50Z</time>
      </trkpt>
      <trkpt lat="47.5186930" lon="8.6531330">
        <ele>-90.2</ele>
        <time>2022-06-10T09:59:54Z</time>
      </trkpt>
      <trkpt lat="47.5185860" lon="8.6529050">
        <ele>-89.2</ele>
        <time>2022-06-10T09:59:58Z</time>
      </trkpt>
      <trkpt lat="47.5184810" lon="8.6526830">
        <ele>-89.0</ele>
        <time>2022-06-10T10:00:02Z</time>
      </trkpt>
      <trkpt lat="47.5183710" lon="8.6524680">
        <ele>-89.0</ele>
        <time>2022-06-10T10:00:06Z</time>
      </trkpt>
      <trkpt lat="47.5182380" lon="8.6522660">
        <ele>-88.4</ele>
        <time>2022-06-10T10:00:10Z</time>
      </trkpt>
      <trkpt lat="47.5181280" lon="8.6520460">
        <ele>-88.2</ele>
        <time>2022-06-10T10:00:14Z</time>
      </trkpt>
      <trkpt lat="47.5180260" lon="8.6518330">
        <ele>-87.4</ele>
        <time>2022-06-10T10:00:18Z</time>
      </trkpt>
      <trkpt lat="47.5179410" lon="8.6516200">
        <ele>-87.2</ele>
        <time>2022-06-10T10:00:22Z</time>
      </trkpt>
      <trkpt lat="47.5178680" lon="8.6514050">
        <ele>-87.6</ele>
        <time>2022-06-10T10:00:26Z</time>
      </trkpt>
      <trkpt lat="47.5178080" lon="8.6511930">
        <ele>-87.4</ele>
        <time>2022-06-10T10:00:30Z</time>
      </trkpt>
      <trkpt lat="47.5177050" lon="8.6510550">
        <ele>-86.8</ele>
        <time>2022-06-10T10:00:34Z</time>
      </trkpt>
      <trkpt lat="47.5176130" lon="8.6508810">
        <ele>-86.6</ele>
        <time>2022-06-10T10:00:38Z</time>
      </trkpt>
      <trkpt lat="47.5176150" lon="8.6506950">
        <ele>-86.0</ele>
        <time>2022-06-10T10:00:42Z</time>
      </trkpt>
      <trkpt lat="47.5176760" lon="8.6505200">
        <ele>-86.2</ele>
        <time>2022-06-10T10:00:46Z</time>
      </trkpt>
      <trkpt lat="47.5176560" lon="8.6503560">
        <ele>-86.2</ele>
        <time>2022-06-10T10:00:50Z</time>
      </trkpt>
      <trkpt lat="47.5176560" lon="8.6503560">
        <ele>-86.6</ele>
        <time>2022-06-10T10:00:54Z</time>
      </trkpt>
      <trkpt lat="47.5176560" lon="8.6503560">
        <ele>-86.6</ele>
        <time>2022-06-10T10:00:58Z</time>
      </trkpt>
      <trkpt lat="47.5176560" lon="8.6503560">
        <ele>-86.6</ele>
        <time>2022-06-10T10:01:02Z</time>
      </trkpt>
      <trkpt lat="47.5176560" lon="8.6503560">
        <ele>-86.8</ele>
        <time>2022-06-10T10:01:06Z</time>
      </trkpt>
      <trkpt lat="47.5176560" lon="8.6503560">
        <ele>-86.8</ele>
        <time>2022-06-10T10:01:10Z</time>
      </trkpt>
      <trkpt lat="47.5176560" lon="8.6503560">
        <ele>-86.8</ele>
        <time>2022-06-10T10:01:14Z</time>
      </trkpt>
      <trkpt lat="47.5176560" lon="8.6503560">
        <ele>-86.6</ele>
        <time>2022-06-10T10:01:18Z</time>
      </trkpt>
      <trkpt lat="47.5176560" lon="8.6503560">
        <ele>-86.6</ele>
        <time>2022-06-10T10:01:22Z</time>
      </trkpt>
      <trkpt lat="47.5176560" lon="8.6503560">
        <ele>-86.6</ele>
        <time>2022-06-10T10:01:26Z</time>
      </trkpt>
      <trkpt lat="47.5176410" lon="8.6502430">
        <ele>-86.6</ele>
        <time>2022-06-10T10:01:30Z</time>
      </trkpt>
      <trkpt lat="47.5176350" lon="8.6501360">
        <ele>-86.4</ele>
        <time>2022-06-10T10:01:34Z</time>
      </trkpt>
      <trkpt lat="47.5176250" lon="8.6499430">
        <ele>-86.2</ele>
        <time>2022-06-10T10:01:38Z</time>
      </trkpt>
      <trkpt lat="47.5176150" lon="8.6497050">
        <ele>-86.4</ele>
        <time>2022-06-10T10:01:42Z</time>
      </trkpt>
      <trkpt lat="47.5176060" lon="8.6494680">
        <ele>-86.0</ele>
        <time>2022-06-10T10:01:46Z</time>
      </trkpt>
      <trkpt lat="47.5176010" lon="8.6492330">
        <ele>-85.6</ele>
        <time>2022-06-10T10:01:50Z</time>
      </trkpt>
      <trkpt lat="47.5176100" lon="8.6489910">
        <ele>-86.0</ele>
        <time>2022-06-10T10:01:54Z</time>
      </trkpt>
      <trkpt lat="47.5176180" lon="8.6487550">
        <ele>-85.6</ele>
        <time>2022-06-10T10:01:58Z</time>
      </trkpt>
      <trkpt lat="47.5176280" lon="8.6485180">
        <ele>-85.6</ele>
        <time>2022-06-10T10:02:02Z</time>
      </trkpt>
      <trkpt lat="47.5176310" lon="8.6482810">
        <ele>-85.2</ele>
        <time>2022-06-10T10:02:06Z</time>
      </trkpt>
      <trkpt lat="47.5176310" lon="8.6480480">
        <ele>-84.8</ele>
        <time>2022-06-10T10:02:10Z</time>
      </trkpt>
      <trkpt lat="47.5176250" lon="8.6478150">
        <ele>-84.8</ele>
        <time>2022-06-10T10:02:14Z</time>
      </trkpt>
      <trkpt lat="47.5176150" lon="8.6475810">
        <ele>-84.2</ele>
        <time>2022-06-10T10:02:18Z</time>
      </trkpt>
      <trkpt lat="47.5176110" lon="8.6473710">
        <ele>-84.0</ele>
        <time>2022-06-10T10:02:22Z</time>
      </trkpt>
      <trkpt lat="47.5176100" lon="8.6472260">
        <ele>-84.2</ele>
        <time>2022-06-10T10:02:26Z</time>
      </trkpt>
      <trkpt lat="47.5176100" lon="8.6472260">
        <ele>-83.8</ele>
        <time>2022-06-10T10:02:30Z</time>
      </trkpt>
      <trkpt lat="47.5176100" lon="8.6472260">
        <ele>-83.8</ele>
        <time>2022-06-10T10:02:34Z</time>
      </trkpt>
      <trkpt lat="47.5176100" lon="8.6472260">
        <ele>-83.8</ele>
        <time>2022-06-10T10:02:38Z</time>
      </trkpt>
      <trkpt lat="47.5176100" lon="8.6472260">
        <ele>-83.6</ele>
        <time>2022-06-10T10:02:42Z</time>
      </trkpt>
      <trkpt lat="47.5176100" lon="8.6472260">
        <ele>-83.4</ele>
        <time>2022-06-10T10:02:46Z</time>
      </trkpt>
      <trkpt lat="47.5176080" lon="8.6472150">
        <ele>-83.4</ele>
        <time>2022-06-10T10:02:50Z</time>
      </trkpt>
      <trkpt lat="47.5176100" lon="8.6473080">
        <ele>-83.6</ele>
        <time>2022-06-10T10:02:54Z</time>
      </trkpt>
      <trkpt lat="47.5175510" lon="8.6472810">
        <ele>-82.8</ele>
        <time>2022-06-10T10:02:58Z</time>
      </trkpt>
      <trkpt lat="47.5175280" lon="8.6471600">
        <ele>-82.2</ele>
        <time>2022-06-10T10:03:02Z</time>
      </trkpt>
      <trkpt lat="47.5174850" lon="8.6470130">
        <ele>-81.8</ele>
        <time>2022-06-10T10:03:06Z</time>
      </trkpt>
      <trkpt lat="47.5174260" lon="8.6468760">
        <ele>-80.8</ele>
        <time>2022-06-10T10:03:10Z</time>
      </trkpt>
      <trkpt lat="47.5173880" lon="8.6467100">
        <ele>-79.6</ele>
        <time>2022-06-10T10:03:14Z</time>
      </trkpt>
      <trkpt lat="47.5173100" lon="8.6465760">
        <ele>-79.4</ele>
        <time>2022-06-10T10:03:18Z</time>
      </trkpt>
      <trkpt lat="47.5172300" lon="8.6464850">
        <ele>-79.0</ele>
        <time>2022-06-10T10:03:22Z</time>
      </trkpt>
      <trkpt lat="47.5171880" lon="8.6463730">
        <ele>-78.8</ele>
        <time>2022-06-10T10:03:26Z</time>
      </trkpt>
      <trkpt lat="47.5171980" lon="8.6461950">
        <ele>-80.2</ele>
        <time>2022-06-10T10:03:30Z</time>
      </trkpt>
      <trkpt lat="47.5172350" lon="8.6459450">
        <ele>-81.0</ele>
        <time>2022-06-10T10:03:34Z</time>
      </trkpt>
      <trkpt lat="47.5172600" lon="8.6456400">
        <ele>-81.6</ele>
        <time>2022-06-10T10:03:38Z</time>
      </trkpt>
      <trkpt lat="47.5173000" lon="8.6453630">
        <ele>-81.0</ele>
        <time>2022-06-10T10:03:42Z</time>
      </trkpt>
      <trkpt lat="47.5173660" lon="8.6452100">
        <ele>-81.2</ele>
        <time>2022-06-10T10:03:46Z</time>
      </trkpt>
      <trkpt lat="47.5174200" lon="8.6450360">
        <ele>-81.6</ele>
        <time>2022-06-10T10:03:50Z</time>
      </trkpt>
      <trkpt lat="47.5174180" lon="8.6447850">
        <ele>-81.6</ele>
        <time>2022-06-10T10:03:54Z</time>
      </trkpt>
      <trkpt lat="47.5173810" lon="8.6445000">
        <ele>-81.8</ele>
        <time>2022-06-10T10:03:58Z</time>
      </trkpt>
      <trkpt lat="47.5173400" lon="8.6442150">
        <ele>-81.8</ele>
        <time>2022-06-10T10:04:02Z</time>
      </trkpt>
      <trkpt lat="47.5172860" lon="8.6439430">
        <ele>-82.0</ele>
        <time>2022-06-10T10:04:06Z</time>
      </trkpt>
      <trkpt lat="47.5172350" lon="8.6436880">
        <ele>-82.0</ele>
        <time>2022-06-10T10:04:10Z</time>
      </trkpt>
      <trkpt lat="47.5171780" lon="8.6434510">
        <ele>-82.2</ele>
        <time>2022-06-10T10:04:14Z</time>
      </trkpt>
      <trkpt lat="47.5171180" lon="8.6432130">
        <ele>-82.4</ele>
        <time>2022-06-10T10:04:18Z</time>
      </trkpt>
      <trkpt lat="47.5170750" lon="8.6429830">
        <ele>-81.8</ele>
        <time>2022-06-10T10:04:22Z</time>
      </trkpt>
      <trkpt lat="47.5170330" lon="8.6428130">
        <ele>-81.6</ele>
        <time>2022-06-10T10:04:26Z</time>
      </trkpt>
      <trkpt lat="47.5169780" lon="8.6426750">
        <ele>-80.6</ele>
        <time>2022-06-10T10:04:30Z</time>
      </trkpt>
      <trkpt lat="47.5168680" lon="8.6425660">
        <ele>-80.0</ele>
        <time>2022-06-10T10:04:34Z</time>
      </trkpt>
      <trkpt lat="47.5167310" lon="8.6425100">
        <ele>-78.6</ele>
        <time>2022-06-10T10:04:38Z</time>
      </trkpt>
      <trkpt lat="47.5166060" lon="8.6424300">
        <ele>-78.2</ele>
        <time>2022-06-10T10:04:42Z</time>
      </trkpt>
      <trkpt lat="47.5165000" lon="8.6423300">
        <ele>-77.4</ele>
        <time>2022-06-10T10:04:46Z</time>
      </trkpt>
      <trkpt lat="47.5163800" lon="8.6422260">
        <ele>-77.4</ele>
        <time>2022-06-10T10:04:50Z</time>
      </trkpt>
      <trkpt lat="47.5162810" lon="8.6421080">
        <ele>-77.4</ele>
        <time>2022-06-10T10:04:54Z</time>
      </trkpt>
      <trkpt lat="47.5161930" lon="8.6420030">
        <ele>-77.4</ele>
        <time>2022-06-10T10:04:58Z</time>
      </trkpt>
      <trkpt lat="47.5160900" lon="8.6419360">
        <ele>-77.0</ele>
        <time>2022-06-10T10:05:02Z</time>
      </trkpt>
      <trkpt lat="47.5159560" lon="8.6418810">
        <ele>-77.2</ele>
        <time>2022-06-10T10:05:06Z</time>
      </trkpt>
      <trkpt lat="47.5158250" lon="8.6418550">
        <ele>-77.0</ele>
        <time>2022-06-10T10:05:10Z</time>
      </trkpt>
      <trkpt lat="47.5156710" lon="8.6418230">
        <ele>-75.8</ele>
        <time>2022-06-10T10:05:14Z</time>
      </trkpt>
      <trkpt lat="47.5155450" lon="8.6417610">
        <ele>-74.6</ele>
        <time>2022-06-10T10:05:18Z</time>
      </trkpt>
      <trkpt lat="47.5154080" lon="8.6417430">
        <ele>-74.2</ele>
        <time>2022-06-10T10:05:22Z</time>
      </trkpt>
      <trkpt lat="47.5152830" lon="8.6417100">
        <ele>-73.2</ele>
        <time>2022-06-10T10:05:26Z</time>
      </trkpt>
      <trkpt lat="47.5151610" lon="8.6416600">
        <ele>-72.4</ele>
        <time>2022-06-10T10:05:30Z</time>
      </trkpt>
      <trkpt lat="47.5150400" lon="8.6416310">
        <ele>-72.2</ele>
        <time>2022-06-10T10:05:34Z</time>
      </trkpt>
      <trkpt lat="47.5149350" lon="8.6416060">
        <ele>-72.0</ele>
        <time>2022-06-10T10:05:38Z</time>
      </trkpt>
      <trkpt lat="47.5148210" lon="8.6415830">
        <ele>-71.8</ele>
        <time>2022-06-10T10:05:42Z</time>
      </trkpt>
      <trkpt lat="47.5147030" lon="8.6415450">
        <ele>-70.8</ele>
        <time>2022-06-10T10:05:46Z</time>
      </trkpt>
      <trkpt lat="47.5145900" lon="8.6415030">
        <ele>-70.2</ele>
        <time>2022-06-10T10:05:50Z</time>
      </trkpt>
      <trkpt lat="47.5144930" lon="8.6414460">
        <ele>-69.4</ele>
        <time>2022-06-10T10:05:54Z</time>
      </trkpt>
      <trkpt lat="47.5144110" lon="8.6413710">
        <ele>-68.8</ele>
        <time>2022-06-10T10:05:58Z</time>
      </trkpt>
      <trkpt lat="47.5143330" lon="8.6412910">
        <ele>-67.6</ele>
        <time>2022-06-10T10:06:02Z</time>
      </trkpt>
      <trkpt lat="47.5142510" lon="8.6412260">
        <ele>-66.4</ele>
        <time>2022-06-10T10:06:06Z</time>
      </trkpt>
      <trkpt lat="47.5141860" lon="8.6411510">
        <ele>-65.6</ele>
        <time>2022-06-10T10:06:10Z</time>
      </trkpt>
      <trkpt lat="47.5141110" lon="8.6410850">
        <ele>-64.8</ele>
        <time>2022-06-10T10:06:14Z</time>
      </trkpt>
      <trkpt lat="47.5140300" lon="8.6410150">
        <ele>-63.0</ele>
        <time>2022-06-10T10:06:18Z</time>
      </trkpt>
      <trkpt lat="47.5139380" lon="8.6409330">
        <ele>-62.2</ele>
        <time>2022-06-10T10:06:22Z</time>
      </trkpt>
      <trkpt lat="47.5138460" lon="8.6408530">
        <ele>-61.6</ele>
        <time>2022-06-10T10:06:26Z</time>
      </trkpt>
      <trkpt lat="47.5137610" lon="8.6407810">
        <ele>-61.0</ele>
        <time>2022-06-10T10:06:30Z</time>
      </trkpt>
      <trkpt lat="47.5136700" lon="8.6407200">
        <ele>-60.8</ele>
        <time>2022-06-10T10:06:34Z</time>
      </trkpt>
      <trkpt lat="47.5135710" lon="8.6406350">
        <ele>-60.8</ele>
        <time>2022-06-10T10:06:38Z</time>
      </trkpt>
      <trkpt lat="47.5134750" lon="8.6405510">
        <ele>-60.8</ele>
        <time>2022-06-10T10:06:42Z</time>
      </trkpt>
      <trkpt lat="47.5133730" lon="8.6404460">
        <ele>-60.6</ele>
        <time>2022-06-10T10:06:46Z</time>
      </trkpt>
      <trkpt lat="47.5132830" lon="8.6403660">
        <ele>-62.2</ele>
        <time>2022-06-10T10:06:50Z</time>
      </trkpt>
      <trkpt lat="47.5131780" lon="8.6402550">
        <ele>-65.0</ele>
        <time>2022-06-10T10:06:54Z</time>
      </trkpt>
      <trkpt lat="47.5130700" lon="8.6401550">
        <ele>-66.8</ele>
        <time>2022-06-10T10:06:58Z</time>
      </trkpt>
      <trkpt lat="47.5129100" lon="8.6400660">
        <ele>-69.6</ele>
        <time>2022-06-10T10:07:02Z</time>
      </trkpt>
      <trkpt lat="47.5126630" lon="8.6400450">
        <ele>-69.6</ele>
        <time>2022-06-10T10:07:06Z</time>
      </trkpt>
      <trkpt lat="47.5125130" lon="8.6398900">
        <ele>-68.4</ele>
        <time>2022-06-10T10:07:10Z</time>
      </trkpt>
      <trkpt lat="47.5125010" lon="8.6396930">
        <ele>-67.4</ele>
        <time>2022-06-10T10:07:14Z</time>
      </trkpt>
      <trkpt lat="47.5125000" lon="8.6395400">
        <ele>-66.8</ele>
        <time>2022-06-10T10:07:18Z</time>
      </trkpt>
      <trkpt lat="47.5125180" lon="8.6394000">
        <ele>-65.4</ele>
        <time>2022-06-10T10:07:22Z</time>
      </trkpt>
      <trkpt lat="47.5125410" lon="8.6392780">
        <ele>-64.4</ele>
        <time>2022-06-10T10:07:26Z</time>
      </trkpt>
      <trkpt lat="47.5125710" lon="8.6391630">
        <ele>-63.2</ele>
        <time>2022-06-10T10:07:30Z</time>
      </trkpt>
      <trkpt lat="47.5126150" lon="8.6390700">
        <ele>-62.0</ele>
        <time>2022-06-10T10:07:34Z</time>
      </trkpt>
      <trkpt lat="47.5126660" lon="8.6389850">
        <ele>-61.2</ele>
        <time>2022-06-10T10:07:38Z</time>
      </trkpt>
      <trkpt lat="47.5127110" lon="8.6388860">
        <ele>-60.0</ele>
        <time>2022-06-10T10:07:42Z</time>
      </trkpt>
      <trkpt lat="47.5127450" lon="8.6387760">
        <ele>-59.0</ele>
        <time>2022-06-10T10:07:46Z</time>
      </trkpt>
      <trkpt lat="47.5127780" lon="8.6386600">
        <ele>-57.8</ele>
        <time>2022-06-10T10:07:50Z</time>
      </trkpt>
      <trkpt lat="47.5127930" lon="8.6385500">
        <ele>-56.8</ele>
        <time>2022-06-10T10:07:54Z</time>
      </trkpt>
      <trkpt lat="47.5127950" lon="8.6384410">
        <ele>-55.6</ele>
        <time>2022-06-10T10:07:58Z</time>
      </trkpt>
      <trkpt lat="47.5127880" lon="8.6383410">
        <ele>-55.2</ele>
        <time>2022-06-10T10:08:02Z</time>
      </trkpt>
      <trkpt lat="47.5127910" lon="8.6382350">
        <ele>-53.6</ele>
        <time>2022-06-10T10:08:06Z</time>
      </trkpt>
      <trkpt lat="47.5127780" lon="8.6381030">
        <ele>-53.6</ele>
        <time>2022-06-10T10:08:10Z</time>
      </trkpt>
      <trkpt lat="47.5127550" lon="8.6379830">
        <ele>-52.2</ele>
        <time>2022-06-10T10:08:14Z</time>
      </trkpt>
      <trkpt lat="47.5127180" lon="8.6378900">
        <ele>-51.6</ele>
        <time>2022-06-10T10:08:18Z</time>
      </trkpt>
      <trkpt lat="47.5126910" lon="8.6377750">
        <ele>-51.6</ele>
        <time>2022-06-10T10:08:22Z</time>
      </trkpt>
      <trkpt lat="47.5126880" lon="8.6376350">
        <ele>-51.2</ele>
        <time>2022-06-10T10:08:26Z</time>
      </trkpt>
      <trkpt lat="47.5126910" lon="8.6374700">
        <ele>-51.2</ele>
        <time>2022-06-10T10:08:30Z</time>
      </trkpt>
      <trkpt lat="47.5126810" lon="8.6372960">
        <ele>-51.0</ele>
        <time>2022-06-10T10:08:34Z</time>
      </trkpt>
      <trkpt lat="47.5126760" lon="8.6371350">
        <ele>-50.6</ele>
        <time>2022-06-10T10:08:38Z</time>
      </trkpt>
      <trkpt lat="47.5126510" lon="8.6369660">
        <ele>-50.8</ele>
        <time>2022-06-10T10:08:42Z</time>
      </trkpt>
      <trkpt lat="47.5126310" lon="8.6367810">
        <ele>-50.4</ele>
        <time>2022-06-10T10:08:46Z</time>
      </trkpt>
      <trkpt lat="47.5126230" lon="8.6366060">
        <ele>-49.6</ele>
        <time>2022-06-10T10:08:50Z</time>
      </trkpt>
      <trkpt lat="47.5126080" lon="8.6364210">
        <ele>-49.2</ele>
        <time>2022-06-10T10:08:54Z</time>
      </trkpt>
      <trkpt lat="47.5126000" lon="8.6362260">
        <ele>-49.2</ele>
        <time>2022-06-10T10:08:58Z</time>
      </trkpt>
      <trkpt lat="47.5125880" lon="8.6360300">
        <ele>-49.2</ele>
        <time>2022-06-10T10:09:02Z</time>
      </trkpt>
      <trkpt lat="47.5125930" lon="8.6358250">
        <ele>-49.2</ele>
        <time>2022-06-10T10:09:06Z</time>
      </trkpt>
      <trkpt lat="47.5126150" lon="8.6356060">
        <ele>-49.0</ele>
        <time>2022-06-10T10:09:10Z</time>
      </trkpt>
      <trkpt lat="47.5126310" lon="8.6354180">
        <ele>-49.2</ele>
        <time>2022-06-10T10:09:14Z</time>
      </trkpt>
      <trkpt lat="47.5126560" lon="8.6352000">
        <ele>-49.2</ele>
        <time>2022-06-10T10:09:18Z</time>
      </trkpt>
      <trkpt lat="47.5126800" lon="8.6349510">
        <ele>-49.8</ele>
        <time>2022-06-10T10:09:22Z</time>
      </trkpt>
      <trkpt lat="47.5127030" lon="8.6346980">
        <ele>-49.8</ele>
        <time>2022-06-10T10:09:26Z</time>
      </trkpt>
      <trkpt lat="47.5127210" lon="8.6344450">
        <ele>-49.8</ele>
        <time>2022-06-10T10:09:30Z</time>
      </trkpt>
      <trkpt lat="47.5127380" lon="8.6342000">
        <ele>-49.8</ele>
        <time>2022-06-10T10:09:34Z</time>
      </trkpt>
      <trkpt lat="47.5127510" lon="8.6339560">
        <ele>-50.2</ele>
        <time>2022-06-10T10:09:38Z</time>
      </trkpt>
      <trkpt lat="47.5127300" lon="8.6337130">
        <ele>-50.0</ele>
        <time>2022-06-10T10:09:42Z</time>
      </trkpt>
      <trkpt lat="47.5126630" lon="8.6334930">
        <ele>-50.0</ele>
        <time>2022-06-10T10:09:46Z</time>
      </trkpt>
      <trkpt lat="47.5125830" lon="8.6332810">
        <ele>-49.4</ele>
        <time>2022-06-10T10:09:50Z</time>
      </trkpt>
      <trkpt lat="47.5125010" lon="8.6330810">
        <ele>-49.6</ele>
        <time>2022-06-10T10:09:54Z</time>
      </trkpt>
      <trkpt lat="47.5124300" lon="8.6328950">
        <ele>-49.0</ele>
        <time>2022-06-10T10:09:58Z</time>
      </trkpt>
      <trkpt lat="47.5123530" lon="8.6327530">
        <ele>-48.6</ele>
        <time>2022-06-10T10:10:02Z</time>
      </trkpt>
      <trkpt lat="47.5122560" lon="8.6326600">
        <ele>-48.0</ele>
        <time>2022-06-10T10:10:06Z</time>
      </trkpt>
      <trkpt lat="47.5121450" lon="8.6326110">
        <ele>-46.2</ele>
        <time>2022-06-10T10:10:10Z</time>
      </trkpt>
      <trkpt lat="47.5120450" lon="8.6325810">
        <ele>-45.8</ele>
        <time>2022-06-10T10:10:14Z</time>
      </trkpt>
      <trkpt lat="47.5119410" lon="8.6325360">
        <ele>-44.2</ele>
        <time>2022-06-10T10:10:18Z</time>
      </trkpt>
      <trkpt lat="47.5118380" lon="8.6324860">
        <ele>-43.4</ele>
        <time>2022-06-10T10:10:22Z</time>
      </trkpt>
      <trkpt lat="47.5117350" lon="8.6324610">
        <ele>-42.8</ele>
        <time>2022-06-10T10:10:26Z</time>
      </trkpt>
      <trkpt lat="47.5116510" lon="8.6324310">
        <ele>-42.0</ele>
        <time>2022-06-10T10:10:30Z</time>
      </trkpt>
      <trkpt lat="47.5115650" lon="8.6324080">
        <ele>-40.8</ele>
        <time>2022-06-10T10:10:34Z</time>
      </trkpt>
      <trkpt lat="47.5114800" lon="8.6323750">
        <ele>-39.8</ele>
        <time>2022-06-10T10:10:38Z</time>
      </trkpt>
      <trkpt lat="47.5113880" lon="8.6323550">
        <ele>-38.8</ele>
        <time>2022-06-10T10:10:42Z</time>
      </trkpt>
      <trkpt lat="47.5113010" lon="8.6323360">
        <ele>-38.0</ele>
        <time>2022-06-10T10:10:46Z</time>
      </trkpt>
      <trkpt lat="47.5112130" lon="8.6323010">
        <ele>-37.0</ele>
        <time>2022-06-10T10:10:50Z</time>
      </trkpt>
      <trkpt lat="47.5111130" lon="8.6322610">
        <ele>-36.2</ele>
        <time>2022-06-10T10:10:54Z</time>
      </trkpt>
      <trkpt lat="47.5110150" lon="8.6322260">
        <ele>-34.6</ele>
        <time>2022-06-10T10:10:58Z</time>
      </trkpt>
      <trkpt lat="47.5109180" lon="8.6321910">
        <ele>-34.0</ele>
        <time>2022-06-10T10:11:02Z</time>
      </trkpt>
      <trkpt lat="47.5108400" lon="8.6321660">
        <ele>-32.8</ele>
        <time>2022-06-10T10:11:06Z</time>
      </trkpt>
      <trkpt lat="47.5107550" lon="8.6321410">
        <ele>-32.0</ele>
        <time>2022-06-10T10:11:10Z</time>
      </trkpt>
      <trkpt lat="47.5106680" lon="8.6320950">
        <ele>-30.8</ele>
        <time>2022-06-10T10:11:14Z</time>
      </trkpt>
      <trkpt lat="47.5105880" lon="8.6320400">
        <ele>-29.4</ele>
        <time>2022-06-10T10:11:18Z</time>
      </trkpt>
      <trkpt lat="47.5105300" lon="8.6319950">
        <ele>-28.6</ele>
        <time>2022-06-10T10:11:22Z</time>
      </trkpt>
      <trkpt lat="47.5104750" lon="8.6319310">
        <ele>-28.0</ele>
        <time>2022-06-10T10:11:26Z</time>
      </trkpt>
      <trkpt lat="47.5104250" lon="8.6318860">
        <ele>-27.2</ele>
        <time>2022-06-10T10:11:30Z</time>
      </trkpt>
      <trkpt lat="47.5103580" lon="8.6318030">
        <ele>-26.2</ele>
        <time>2022-06-10T10:11:34Z</time>
      </trkpt>
      <trkpt lat="47.5102910" lon="8.6317300">
        <ele>-24.4</ele>
        <time>2022-06-10T10:11:38Z</time>
      </trkpt>
      <trkpt lat="47.5102210" lon="8.6316630">
        <ele>-23.4</ele>
        <time>2022-06-10T10:11:42Z</time>
      </trkpt>
      <trkpt lat="47.5101500" lon="8.6315910">
        <ele>-22.4</ele>
        <time>2022-06-10T10:11:46Z</time>
      </trkpt>
      <trkpt lat="47.5100710" lon="8.6315230">
        <ele>-21.0</ele>
        <time>2022-06-10T10:11:50Z</time>
      </trkpt>
      <trkpt lat="47.5099900" lon="8.6314610">
        <ele>-19.6</ele>
        <time>2022-06-10T10:11:54Z</time>
      </trkpt>
      <trkpt lat="47.5099150" lon="8.6313900">
        <ele>-19.4</ele>
        <time>2022-06-10T10:11:58Z</time>
      </trkpt>
      <trkpt lat="47.5098380" lon="8.6313100">
        <ele>-17.2</ele>
        <time>2022-06-10T10:12:02Z</time>
      </trkpt>
      <trkpt lat="47.5097650" lon="8.6312280">
        <ele>-16.4</ele>
        <time>2022-06-10T10:12:06Z</time>
      </trkpt>
      <trkpt lat="47.5097150" lon="8.6311700">
        <ele>-15.4</ele>
        <time>2022-06-10T10:12:10Z</time>
      </trkpt>
      <trkpt lat="47.5096550" lon="8.6310950">
        <ele>-14.4</ele>
        <time>2022-06-10T10:12:14Z</time>
      </trkpt>
      <trkpt lat="47.5095950" lon="8.6310180">
        <ele>-13.4</ele>
        <time>2022-06-10T10:12:18Z</time>
      </trkpt>
      <trkpt lat="47.5095330" lon="8.6309480">
        <ele>-12.6</ele>
        <time>2022-06-10T10:12:22Z</time>
      </trkpt>
      <trkpt lat="47.5094580" lon="8.6308910">
        <ele>-11.4</ele>
        <time>2022-06-10T10:12:26Z</time>
      </trkpt>
      <trkpt lat="47.5093850" lon="8.6308160">
        <ele>-10.2</ele>
        <time>2022-06-10T10:12:30Z</time>
      </trkpt>
      <trkpt lat="47.5092860" lon="8.6307400">
        <ele>-9.4</ele>
        <time>2022-06-10T10:12:34Z</time>
      </trkpt>
      <trkpt lat="47.5092010" lon="8.6306480">
        <ele>-8.8</ele>
        <time>2022-06-10T10:12:38Z</time>
      </trkpt>
      <trkpt lat="47.5091010" lon="8.6305880">
        <ele>-7.4</ele>
        <time>2022-06-10T10:12:42Z</time>
      </trkpt>
      <trkpt lat="47.5090060" lon="8.6305360">
        <ele>-6.6</ele>
        <time>2022-06-10T10:12:46Z</time>
      </trkpt>
      <trkpt lat="47.5089360" lon="8.6305260">
        <ele>-5.4</ele>
        <time>2022-06-10T10:12:50Z</time>
      </trkpt>
      <trkpt lat="47.5088650" lon="8.6304910">
        <ele>-4.0</ele>
        <time>2022-06-10T10:12:54Z</time>
      </trkpt>
      <trkpt lat="47.5087900" lon="8.6304660">
        <ele>-3.0</ele>
        <time>2022-06-10T10:12:58Z</time>
      </trkpt>
      <trkpt lat="47.5086550" lon="8.6304200">
        <ele>-2.2</ele>
        <time>2022-06-10T10:13:02Z</time>
      </trkpt>
      <trkpt lat="47.5085880" lon="8.6303910">
        <ele>-1.2</ele>
        <time>2022-06-10T10:13:06Z</time>
      </trkpt>
      <trkpt lat="47.5084830" lon="8.6303550">
        <ele>-0.2</ele>
        <time>2022-06-10T10:13:10Z</time>
      </trkpt>
      <trkpt lat="47.5084010" lon="8.6303100">
        <ele>0.8</ele>
        <time>2022-06-10T10:13:14Z</time>
      </trkpt>
      <trkpt lat="47.5083150" lon="8.6302560">
        <ele>2.0</ele>
        <time>2022-06-10T10:13:18Z</time>
      </trkpt>
      <trkpt lat="47.5082210" lon="8.6301830">
        <ele>3.4</ele>
        <time>2022-06-10T10:13:22Z</time>
      </trkpt>
      <trkpt lat="47.5081480" lon="8.6301380">
        <ele>3.8</ele>
        <time>2022-06-10T10:13:26Z</time>
      </trkpt>
      <trkpt lat="47.5080830" lon="8.6300650">
        <ele>4.6</ele>
        <time>2022-06-10T10:13:30Z</time>
      </trkpt>
      <trkpt lat="47.5080130" lon="8.6300100">
        <ele>6.0</ele>
        <time>2022-06-10T10:13:34Z</time>
      </trkpt>
      <trkpt lat="47.5079380" lon="8.6299580">
        <ele>6.6</ele>
        <time>2022-06-10T10:13:38Z</time>
      </trkpt>
      <trkpt lat="47.5078560" lon="8.6299330">
        <ele>7.8</ele>
        <time>2022-06-10T10:13:42Z</time>
      </trkpt>
      <trkpt lat="47.5077830" lon="8.6299380">
        <ele>8.2</ele>
        <time>2022-06-10T10:13:46Z</time>
      </trkpt>
      <trkpt lat="47.5077350" lon="8.6299450">
        <ele>9.2</ele>
        <time>2022-06-10T10:13:50Z</time>
      </trkpt>
      <trkpt lat="47.5076730" lon="8.6299700">
        <ele>10.0</ele>
        <time>2022-06-10T10:13:54Z</time>
      </trkpt>
      <trkpt lat="47.5076310" lon="8.6299760">
        <ele>10.6</ele>
        <time>2022-06-10T10:13:58Z</time>
      </trkpt>
      <trkpt lat="47.5075530" lon="8.6300430">
        <ele>11.6</ele>
        <time>2022-06-10T10:14:02Z</time>
      </trkpt>
      <trkpt lat="47.5074900" lon="8.6300710">
        <ele>12.8</ele>
        <time>2022-06-10T10:14:06Z</time>
      </trkpt>
      <trkpt lat="47.5074080" lon="8.6301100">
        <ele>13.8</ele>
        <time>2022-06-10T10:14:10Z</time>
      </trkpt>
      <trkpt lat="47.5073180" lon="8.6301600">
        <ele>14.4</ele>
        <time>2022-06-10T10:14:14Z</time>
      </trkpt>
      <trkpt lat="47.5072480" lon="8.6301850">
        <ele>14.8</ele>
        <time>2022-06-10T10:14:18Z</time>
      </trkpt>
      <trkpt lat="47.5071600" lon="8.6302000">
        <ele>16.2</ele>
        <time>2022-06-10T10:14:22Z</time>
      </trkpt>
      <trkpt lat="47.5070800" lon="8.6302100">
        <ele>16.8</ele>
        <time>2022-06-10T10:14:26Z</time>
      </trkpt>
      <trkpt lat="47.5069900" lon="8.6302230">
        <ele>18.2</ele>
        <time>2022-06-10T10:14:30Z</time>
      </trkpt>
      <trkpt lat="47.5069300" lon="8.6302330">
        <ele>18.2</ele>
        <time>2022-06-10T10:14:34Z</time>
      </trkpt>
      <trkpt lat="47.5068600" lon="8.6302380">
        <ele>20.0</ele>
        <time>2022-06-10T10:14:38Z</time>
      </trkpt>
      <trkpt lat="47.5067700" lon="8.6302260">
        <ele>20.6</ele>
        <time>2022-06-10T10:14:42Z</time>
      </trkpt>
      <trkpt lat="47.5066880" lon="8.6302400">
        <ele>21.4</ele>
        <time>2022-06-10T10:14:46Z</time>
      </trkpt>
      <trkpt lat="47.5066080" lon="8.6302560">
        <ele>22.4</ele>
        <time>2022-06-10T10:14:50Z</time>
      </trkpt>
      <trkpt lat="47.5065310" lon="8.6302830">
        <ele>22.8</ele>
        <time>2022-06-10T10:14:54Z</time>
      </trkpt>
      <trkpt lat="47.5064550" lon="8.6303010">
        <ele>24.2</ele>
        <time>2022-06-10T10:14:58Z</time>
      </trkpt>
      <trkpt lat="47.5063830" lon="8.6303330">
        <ele>24.8</ele>
        <time>2022-06-10T10:15:02Z</time>
      </trkpt>
      <trkpt lat="47.5062980" lon="8.6303850">
        <ele>25.8</ele>
        <time>2022-06-10T10:15:06Z</time>
      </trkpt>
      <trkpt lat="47.5062310" lon="8.6304200">
        <ele>26.0</ele>
        <time>2022-06-10T10:15:10Z</time>
      </trkpt>
      <trkpt lat="47.5061380" lon="8.6304380">
        <ele>26.8</ele>
        <time>2022-06-10T10:15:14Z</time>
      </trkpt>
      <trkpt lat="47.5060210" lon="8.6304950">
        <ele>27.0</ele>
        <time>2022-06-10T10:15:18Z</time>
      </trkpt>
      <trkpt lat="47.5059150" lon="8.6305010">
        <ele>28.0</ele>
        <time>2022-06-10T10:15:22Z</time>
      </trkpt>
      <trkpt lat="47.5057960" lon="8.6304960">
        <ele>28.0</ele>
        <time>2022-06-10T10:15:26Z</time>
      </trkpt>
      <trkpt lat="47.5056980" lon="8.6304760">
        <ele>28.4</ele>
        <time>2022-06-10T10:15:30Z</time>
      </trkpt>
      <trkpt lat="47.5056030" lon="8.6304700">
        <ele>29.2</ele>
        <time>2022-06-10T10:15:34Z</time>
      </trkpt>
      <trkpt lat="47.5054550" lon="8.6304910">
        <ele>30.2</ele>
        <time>2022-06-10T10:15:38Z</time>
      </trkpt>
      <trkpt lat="47.5053550" lon="8.6304760">
        <ele>30.0</ele>
        <time>2022-06-10T10:15:42Z</time>
      </trkpt>
      <trkpt lat="47.5052580" lon="8.6304980">
        <ele>30.6</ele>
        <time>2022-06-10T10:15:46Z</time>
      </trkpt>
      <trkpt lat="47.5051910" lon="8.6305130">
        <ele>31.6</ele>
        <time>2022-06-10T10:15:50Z</time>
      </trkpt>
      <trkpt lat="47.5051350" lon="8.6305300">
        <ele>32.6</ele>
        <time>2022-06-10T10:15:54Z</time>
      </trkpt>
      <trkpt lat="47.5050800" lon="8.6305650">
        <ele>33.2</ele>
        <time>2022-06-10T10:15:58Z</time>
      </trkpt>
      <trkpt lat="47.5050050" lon="8.6305460">
        <ele>34.6</ele>
        <time>2022-06-10T10:16:02Z</time>
      </trkpt>
      <trkpt lat="47.5049360" lon="8.6305830">
        <ele>35.6</ele>
        <time>2022-06-10T10:16:06Z</time>
      </trkpt>
      <trkpt lat="47.5048360" lon="8.6306080">
        <ele>36.4</ele>
        <time>2022-06-10T10:16:10Z</time>
      </trkpt>
      <trkpt lat="47.5047330" lon="8.6306210">
        <ele>37.0</ele>
        <time>2022-06-10T10:16:14Z</time>
      </trkpt>
      <trkpt lat="47.5046660" lon="8.6306460">
        <ele>37.6</ele>
        <time>2022-06-10T10:16:18Z</time>
      </trkpt>
      <trkpt lat="47.5045900" lon="8.6306550">
        <ele>39.0</ele>
        <time>2022-06-10T10:16:22Z</time>
      </trkpt>
      <trkpt lat="47.5045200" lon="8.6306630">
        <ele>39.6</ele>
        <time>2022-06-10T10:16:26Z</time>
      </trkpt>
      <trkpt lat="47.5044610" lon="8.6306600">
        <ele>39.8</ele>
        <time>2022-06-10T10:16:30Z</time>
      </trkpt>
      <trkpt lat="47.5044000" lon="8.6306630">
        <ele>41.8</ele>
        <time>2022-06-10T10:16:34Z</time>
      </trkpt>
      <trkpt lat="47.5043300" lon="8.6306710">
        <ele>41.8</ele>
        <time>2022-06-10T10:16:38Z</time>
      </trkpt>
      <trkpt lat="47.5042660" lon="8.6306710">
        <ele>42.4</ele>
        <time>2022-06-10T10:16:42Z</time>
      </trkpt>
      <trkpt lat="47.5042000" lon="8.6306830">
        <ele>43.6</ele>
        <time>2022-06-10T10:16:46Z</time>
      </trkpt>
      <trkpt lat="47.5041280" lon="8.6306760">
        <ele>44.6</ele>
        <time>2022-06-10T10:16:50Z</time>
      </trkpt>
      <trkpt lat="47.5040600" lon="8.6306600">
        <ele>45.6</ele>
        <time>2022-06-10T10:16:54Z</time>
      </trkpt>
      <trkpt lat="47.5039900" lon="8.6306500">
        <ele>46.8</ele>
        <time>2022-06-10T10:16:58Z</time>
      </trkpt>
      <trkpt lat="47.5039250" lon="8.6306330">
        <ele>47.8</ele>
        <time>2022-06-10T10:17:02Z</time>
      </trkpt>
      <trkpt lat="47.5038530" lon="8.6306210">
        <ele>49.2</ele>
        <time>2022-06-10T10:17:06Z</time>
      </trkpt>
      <trkpt lat="47.5037750" lon="8.6306100">
        <ele>49.2</ele>
        <time>2022-06-10T10:17:10Z</time>
      </trkpt>
      <trkpt lat="47.5037010" lon="8.6306150">
        <ele>50.6</ele>
        <time>2022-06-10T10:17:14Z</time>
      </trkpt>
      <trkpt lat="47.5036230" lon="8.6306150">
        <ele>51.8</ele>
        <time>2022-06-10T10:17:18Z</time>
      </trkpt>
      <trkpt lat="47.5035530" lon="8.6306230">
        <ele>52.6</ele>
        <time>2022-06-10T10:17:22Z</time>
      </trkpt>
      <trkpt lat="47.5034860" lon="8.6306280">
        <ele>52.8</ele>
        <time>2022-06-10T10:17:26Z</time>
      </trkpt>
      <trkpt lat="47.5034130" lon="8.6306410">
        <ele>53.6</ele>
        <time>2022-06-10T10:17:30Z</time>
      </trkpt>
      <trkpt lat="47.5033380" lon="8.6306630">
        <ele>54.6</ele>
        <time>2022-06-10T10:17:34Z</time>
      </trkpt>
      <trkpt lat="47.5032360" lon="8.6306730">
        <ele>54.8</ele>
        <time>2022-06-10T10:17:38Z</time>
      </trkpt>
      <trkpt lat="47.5031400" lon="8.6306850">
        <ele>55.6</ele>
        <time>2022-06-10T10:17:42Z</time>
      </trkpt>
      <trkpt lat="47.5030230" lon="8.6306910">
        <ele>56.2</ele>
        <time>2022-06-10T10:17:46Z</time>
      </trkpt>
      <trkpt lat="47.5028960" lon="8.6307080">
        <ele>57.0</ele>
        <time>2022-06-10T10:17:50Z</time>
      </trkpt>
      <trkpt lat="47.5027760" lon="8.6307350">
        <ele>57.0</ele>
        <time>2022-06-10T10:17:54Z</time>
      </trkpt>
      <trkpt lat="47.5026560" lon="8.6307530">
        <ele>57.2</ele>
        <time>2022-06-10T10:17:58Z</time>
      </trkpt>
      <trkpt lat="47.5025450" lon="8.6307830">
        <ele>57.8</ele>
        <time>2022-06-10T10:18:02Z</time>
      </trkpt>
      <trkpt lat="47.5024310" lon="8.6307900">
        <ele>58.8</ele>
        <time>2022-06-10T10:18:06Z</time>
      </trkpt>
      <trkpt lat="47.5023160" lon="8.6308130">
        <ele>59.8</ele>
        <time>2022-06-10T10:18:10Z</time>
      </trkpt>
      <trkpt lat="47.5022050" lon="8.6308560">
        <ele>59.8</ele>
        <time>2022-06-10T10:18:14Z</time>
      </trkpt>
      <trkpt lat="47.5020910" lon="8.6309080">
        <ele>60.0</ele>
        <time>2022-06-10T10:18:18Z</time>
      </trkpt>
      <trkpt lat="47.5019760" lon="8.6309600">
        <ele>59.8</ele>
        <time>2022-06-10T10:18:22Z</time>
      </trkpt>
      <trkpt lat="47.5018600" lon="8.6310150">
        <ele>60.2</ele>
        <time>2022-06-10T10:18:26Z</time>
      </trkpt>
      <trkpt lat="47.5017450" lon="8.6310700">
        <ele>61.0</ele>
        <time>2022-06-10T10:18:30Z</time>
      </trkpt>
      <trkpt lat="47.5016330" lon="8.6311300">
        <ele>61.0</ele>
        <time>2022-06-10T10:18:34Z</time>
      </trkpt>
      <trkpt lat="47.5015200" lon="8.6311850">
        <ele>61.2</ele>
        <time>2022-06-10T10:18:38Z</time>
      </trkpt>
      <trkpt lat="47.5013980" lon="8.6312350">
        <ele>61.8</ele>
        <time>2022-06-10T10:18:42Z</time>
      </trkpt>
      <trkpt lat="47.5012780" lon="8.6312950">
        <ele>62.0</ele>
        <time>2022-06-10T10:18:46Z</time>
      </trkpt>
      <trkpt lat="47.5011500" lon="8.6313560">
        <ele>62.0</ele>
        <time>2022-06-10T10:18:50Z</time>
      </trkpt>
      <trkpt lat="47.5010180" lon="8.6314130">
        <ele>62.6</ele>
        <time>2022-06-10T10:18:54Z</time>
      </trkpt>
      <trkpt lat="47.5008810" lon="8.6314760">
        <ele>62.2</ele>
        <time>2022-06-10T10:18:58Z</time>
      </trkpt>
      <trkpt lat="47.5007410" lon="8.6315480">
        <ele>63.2</ele>
        <time>2022-06-10T10:19:02Z</time>
      </trkpt>
      <trkpt lat="47.5006000" lon="8.6316110">
        <ele>63.6</ele>
        <time>2022-06-10T10:19:06Z</time>
      </trkpt>
      <trkpt lat="47.5004610" lon="8.6316810">
        <ele>63.8</ele>
        <time>2022-06-10T10:19:10Z</time>
      </trkpt>
      <trkpt lat="47.5003260" lon="8.6317460">
        <ele>64.0</ele>
        <time>2022-06-10T10:19:14Z</time>
      </trkpt>
      <trkpt lat="47.5001860" lon="8.6318080">
        <ele>63.8</ele>
        <time>2022-06-10T10:19:18Z</time>
      </trkpt>
      <trkpt lat="47.5000510" lon="8.6318780">
        <ele>64.0</ele>
        <time>2022-06-10T10:19:22Z</time>
      </trkpt>
      <trkpt lat="47.4999210" lon="8.6319450">
        <ele>64.6</ele>
        <time>2022-06-10T10:19:26Z</time>
      </trkpt>
      <trkpt lat="47.4997960" lon="8.6319980">
        <ele>64.4</ele>
        <time>2022-06-10T10:19:30Z</time>
      </trkpt>
      <trkpt lat="47.4996560" lon="8.6320580">
        <ele>64.4</ele>
        <time>2022-06-10T10:19:34Z</time>
      </trkpt>
      <trkpt lat="47.4995100" lon="8.6321300">
        <ele>64.0</ele>
        <time>2022-06-10T10:19:38Z</time>
      </trkpt>
      <trkpt lat="47.4993560" lon="8.6321930">
        <ele>64.2</ele>
        <time>2022-06-10T10:19:42Z</time>
      </trkpt>
      <trkpt lat="47.4992030" lon="8.6322660">
        <ele>64.6</ele>
        <time>2022-06-10T10:19:46Z</time>
      </trkpt>
      <trkpt lat="47.4990680" lon="8.6323260">
        <ele>64.6</ele>
        <time>2022-06-10T10:19:50Z</time>
      </trkpt>
      <trkpt lat="47.4989530" lon="8.6323930">
        <ele>64.8</ele>
        <time>2022-06-10T10:19:54Z</time>
      </trkpt>
      <trkpt lat="47.4988950" lon="8.6325060">
        <ele>65.0</ele>
        <time>2022-06-10T10:19:58Z</time>
      </trkpt>
      <trkpt lat="47.4988800" lon="8.6325400">
        <ele>64.6</ele>
        <time>2022-06-10T10:20:02Z</time>
      </trkpt>
      <trkpt lat="47.4988800" lon="8.6325400">
        <ele>64.6</ele>
        <time>2022-06-10T10:20:06Z</time>
      </trkpt>
      <trkpt lat="47.4988800" lon="8.6325400">
        <ele>65.2</ele>
        <time>2022-06-10T10:20:10Z</time>
      </trkpt>
      <trkpt lat="47.4988610" lon="8.6325430">
        <ele>64.8</ele>
        <time>2022-06-10T10:20:14Z</time>
      </trkpt>
      <trkpt lat="47.4988100" lon="8.6325480">
        <ele>64.6</ele>
        <time>2022-06-10T10:20:18Z</time>
      </trkpt>
      <trkpt lat="47.4987330" lon="8.6325250">
        <ele>64.6</ele>
        <time>2022-06-10T10:20:22Z</time>
      </trkpt>
      <trkpt lat="47.4986400" lon="8.6325150">
        <ele>64.0</ele>
        <time>2022-06-10T10:20:26Z</time>
      </trkpt>
      <trkpt lat="47.4985310" lon="8.6325460">
        <ele>64.0</ele>
        <time>2022-06-10T10:20:30Z</time>
      </trkpt>
      <trkpt lat="47.4983960" lon="8.6325900">
        <ele>63.8</ele>
        <time>2022-06-10T10:20:34Z</time>
      </trkpt>
      <trkpt lat="47.4982500" lon="8.6326430">
        <ele>63.2</ele>
        <time>2022-06-10T10:20:38Z</time>
      </trkpt>
      <trkpt lat="47.4980860" lon="8.6326760">
        <ele>63.2</ele>
        <time>2022-06-10T10:20:42Z</time>
      </trkpt>
      <trkpt lat="47.4979230" lon="8.6327250">
        <ele>63.2</ele>
        <time>2022-06-10T10:20:46Z</time>
      </trkpt>
      <trkpt lat="47.4977550" lon="8.6327830">
        <ele>62.4</ele>
        <time>2022-06-10T10:20:50Z</time>
      </trkpt>
      <trkpt lat="47.4975750" lon="8.6328560">
        <ele>62.6</ele>
        <time>2022-06-10T10:20:54Z</time>
      </trkpt>
      <trkpt lat="47.4973780" lon="8.6329650">
        <ele>61.8</ele>
        <time>2022-06-10T10:20:58Z</time>
      </trkpt>
      <trkpt lat="47.4971810" lon="8.6331180">
        <ele>61.6</ele>
        <time>2022-06-10T10:21:02Z</time>
      </trkpt>
      <trkpt lat="47.4969880" lon="8.6332980">
        <ele>60.4</ele>
        <time>2022-06-10T10:21:06Z</time>
      </trkpt>
      <trkpt lat="47.4967910" lon="8.6335060">
        <ele>59.4</ele>
        <time>2022-06-10T10:21:10Z</time>
      </trkpt>
      <trkpt lat="47.4965710" lon="8.6337360">
        <ele>58.4</ele>
        <time>2022-06-10T10:21:14Z</time>
      </trkpt>
      <trkpt lat="47.4963360" lon="8.6340200">
        <ele>56.2</ele>
        <time>2022-06-10T10:21:18Z</time>
      </trkpt>
      <trkpt lat="47.4960680" lon="8.6343500">
        <ele>53.2</ele>
        <time>2022-06-10T10:21:22Z</time>
      </trkpt>
      <trkpt lat="47.4957100" lon="8.6345610">
        <ele>51.2</ele>
        <time>2022-06-10T10:21:26Z</time>
      </trkpt>
      <trkpt lat="47.4953300" lon="8.6348010">
        <ele>46.6</ele>
        <time>2022-06-10T10:21:30Z</time>
      </trkpt>
      <trkpt lat="47.4948860" lon="8.6348380">
        <ele>43.4</ele>
        <time>2022-06-10T10:21:34Z</time>
      </trkpt>
      <trkpt lat="47.4944210" lon="8.6347330">
        <ele>40.4</ele>
        <time>2022-06-10T10:21:38Z</time>
      </trkpt>
      <trkpt lat="47.4939660" lon="8.6345900">
        <ele>37.4</ele>
        <time>2022-06-10T10:21:42Z</time>
      </trkpt>
      <trkpt lat="47.4935680" lon="8.6342900">
        <ele>34.6</ele>
        <time>2022-06-10T10:21:46Z</time>
      </trkpt>
      <trkpt lat="47.4931910" lon="8.6339630">
        <ele>29.8</ele>
        <time>2022-06-10T10:21:50Z</time>
      </trkpt>
      <trkpt lat="47.4927610" lon="8.6337910">
        <ele>27.8</ele>
        <time>2022-06-10T10:21:54Z</time>
      </trkpt>
      <trkpt lat="47.4923760" lon="8.6336010">
        <ele>23.4</ele>
        <time>2022-06-10T10:21:58Z</time>
      </trkpt>
      <trkpt lat="47.4920200" lon="8.6333710">
        <ele>19.0</ele>
        <time>2022-06-10T10:22:02Z</time>
      </trkpt>
      <trkpt lat="47.4916080" lon="8.6333980">
        <ele>15.2</ele>
        <time>2022-06-10T10:22:06Z</time>
      </trkpt>
      <trkpt lat="47.4912130" lon="8.6333500">
        <ele>11.2</ele>
        <time>2022-06-10T10:22:10Z</time>
      </trkpt>
      <trkpt lat="47.4909380" lon="8.6331110">
        <ele>9.4</ele>
        <time>2022-06-10T10:22:14Z</time>
      </trkpt>
      <trkpt lat="47.4906950" lon="8.6327550">
        <ele>7.6</ele>
        <time>2022-06-10T10:22:18Z</time>
      </trkpt>
      <trkpt lat="47.4904500" lon="8.6323880">
        <ele>6.4</ele>
        <time>2022-06-10T10:22:22Z</time>
      </trkpt>
      <trkpt lat="47.4901850" lon="8.6320310">
        <ele>4.2</ele>
        <time>2022-06-10T10:22:26Z</time>
      </trkpt>
      <trkpt lat="47.4899260" lon="8.6316400">
        <ele>2.6</ele>
        <time>2022-06-10T10:22:30Z</time>
      </trkpt>
      <trkpt lat="47.4897380" lon="8.6311410">
        <ele>1.2</ele>
        <time>2022-06-10T10:22:34Z</time>
      </trkpt>
      <trkpt lat="47.4896080" lon="8.6305980">
        <ele>-2.4</ele>
        <time>2022-06-10T10:22:38Z</time>
      </trkpt>
      <trkpt lat="47.4894930" lon="8.6300350">
        <ele>-3.6</ele>
        <time>2022-06-10T10:22:42Z</time>
      </trkpt>
      <trkpt lat="47.4893880" lon="8.6294650">
        <ele>-5.0</ele>
        <time>2022-06-10T10:22:46Z</time>
      </trkpt>
      <trkpt lat="47.4892880" lon="8.6288880">
        <ele>-8.2</ele>
        <time>2022-06-10T10:22:50Z</time>
      </trkpt>
      <trkpt lat="47.4891900" lon="8.6283200">
        <ele>-9.4</ele>
        <time>2022-06-10T10:22:54Z</time>
      </trkpt>
      <trkpt lat="47.4890900" lon="8.6277530">
        <ele>-10.0</ele>
        <time>2022-06-10T10:22:58Z</time>
      </trkpt>
      <trkpt lat="47.4889210" lon="8.6272260">
        <ele>-11.2</ele>
        <time>2022-06-10T10:23:02Z</time>
      </trkpt>
      <trkpt lat="47.4888100" lon="8.6266800">
        <ele>-12.6</ele>
        <time>2022-06-10T10:23:06Z</time>
      </trkpt>
      <trkpt lat="47.4888300" lon="8.6261450">
        <ele>-13.8</ele>
        <time>2022-06-10T10:23:10Z</time>
      </trkpt>
      <trkpt lat="47.4889150" lon="8.6256480">
        <ele>-14.0</ele>
        <time>2022-06-10T10:23:14Z</time>
      </trkpt>
      <trkpt lat="47.4888930" lon="8.6251630">
        <ele>-14.6</ele>
        <time>2022-06-10T10:23:18Z</time>
      </trkpt>
      <trkpt lat="47.4888060" lon="8.6247080">
        <ele>-16.6</ele>
        <time>2022-06-10T10:23:22Z</time>
      </trkpt>
      <trkpt lat="47.4887180" lon="8.6242680">
        <ele>-16.4</ele>
        <time>2022-06-10T10:23:26Z</time>
      </trkpt>
      <trkpt lat="47.4885960" lon="8.6238700">
        <ele>-17.2</ele>
        <time>2022-06-10T10:23:30Z</time>
      </trkpt>
      <trkpt lat="47.4884750" lon="8.6234930">
        <ele>-17.2</ele>
        <time>2022-06-10T10:23:34Z</time>
      </trkpt>
      <trkpt lat="47.4883760" lon="8.6230980">
        <ele>-18.4</ele>
        <time>2022-06-10T10:23:38Z</time>
      </trkpt>
      <trkpt lat="47.4883210" lon="8.6226760">
        <ele>-18.2</ele>
        <time>2022-06-10T10:23:42Z</time>
      </trkpt>
      <trkpt lat="47.4882660" lon="8.6222560">
        <ele>-19.2</ele>
        <time>2022-06-10T10:23:46Z</time>
      </trkpt>
      <trkpt lat="47.4882050" lon="8.6218630">
        <ele>-19.6</ele>
        <time>2022-06-10T10:23:50Z</time>
      </trkpt>
      <trkpt lat="47.4881460" lon="8.6214900">
        <ele>-20.2</ele>
        <time>2022-06-10T10:23:54Z</time>
      </trkpt>
      <trkpt lat="47.4880650" lon="8.6211400">
        <ele>-20.6</ele>
        <time>2022-06-10T10:23:58Z</time>
      </trkpt>
      <trkpt lat="47.4879660" lon="8.6207810">
        <ele>-20.4</ele>
        <time>2022-06-10T10:24:02Z</time>
      </trkpt>
      <trkpt lat="47.4878810" lon="8.6204050">
        <ele>-21.6</ele>
        <time>2022-06-10T10:24:06Z</time>
      </trkpt>
      <trkpt lat="47.4878110" lon="8.6200180">
        <ele>-22.4</ele>
        <time>2022-06-10T10:24:10Z</time>
      </trkpt>
      <trkpt lat="47.4877530" lon="8.6196150">
        <ele>-22.6</ele>
        <time>2022-06-10T10:24:14Z</time>
      </trkpt>
      <trkpt lat="47.4877400" lon="8.6191960">
        <ele>-23.2</ele>
        <time>2022-06-10T10:24:18Z</time>
      </trkpt>
      <trkpt lat="47.4877560" lon="8.6188100">
        <ele>-23.8</ele>
        <time>2022-06-10T10:24:22Z</time>
      </trkpt>
      <trkpt lat="47.4877050" lon="8.6186010">
        <ele>-23.2</ele>
        <time>2022-06-10T10:24:26Z</time>
      </trkpt>
      <trkpt lat="47.4876380" lon="8.6185830">
        <ele>-23.0</ele>
        <time>2022-06-10T10:24:30Z</time>
      </trkpt>
      <trkpt lat="47.4875880" lon="8.6186130">
        <ele>-22.8</ele>
        <time>2022-06-10T10:24:34Z</time>
      </trkpt>
      <trkpt lat="47.4875130" lon="8.6186810">
        <ele>-22.6</ele>
        <time>2022-06-10T10:24:38Z</time>
      </trkpt>
      <trkpt lat="47.4874210" lon="8.6187550">
        <ele>-22.8</ele>
        <time>2022-06-10T10:24:42Z</time>
      </trkpt>
      <trkpt lat="47.4872930" lon="8.6188460">
        <ele>-24.2</ele>
        <time>2022-06-10T10:24:46Z</time>
      </trkpt>
      <trkpt lat="47.4871350" lon="8.6188800">
        <ele>-22.6</ele>
        <time>2022-06-10T10:24:50Z</time>
      </trkpt>
      <trkpt lat="47.4869480" lon="8.6189210">
        <ele>-23.6</ele>
        <time>2022-06-10T10:24:54Z</time>
      </trkpt>
      <trkpt lat="47.4867510" lon="8.6189730">
        <ele>-23.6</ele>
        <time>2022-06-10T10:24:58Z</time>
      </trkpt>
      <trkpt lat="47.4865500" lon="8.6189960">
        <ele>-24.4</ele>
        <time>2022-06-10T10:25:02Z</time>
      </trkpt>
      <trkpt lat="47.4863580" lon="8.6190300">
        <ele>-24.8</ele>
        <time>2022-06-10T10:25:06Z</time>
      </trkpt>
      <trkpt lat="47.4861680" lon="8.6190460">
        <ele>-24.6</ele>
        <time>2022-06-10T10:25:10Z</time>
      </trkpt>
      <trkpt lat="47.4859760" lon="8.6190610">
        <ele>-24.6</ele>
        <time>2022-06-10T10:25:14Z</time>
      </trkpt>
      <trkpt lat="47.4857760" lon="8.6190730">
        <ele>-24.4</ele>
        <time>2022-06-10T10:25:18Z</time>
      </trkpt>
      <trkpt lat="47.4855830" lon="8.6190860">
        <ele>-24.6</ele>
        <time>2022-06-10T10:25:22Z</time>
      </trkpt>
      <trkpt lat="47.4854110" lon="8.6190930">
        <ele>-24.6</ele>
        <time>2022-06-10T10:25:26Z</time>
      </trkpt>
      <trkpt lat="47.4852410" lon="8.6191060">
        <ele>-24.4</ele>
        <time>2022-06-10T10:25:30Z</time>
      </trkpt>
      <trkpt lat="47.4850700" lon="8.6191150">
        <ele>-24.4</ele>
        <time>2022-06-10T10:25:34Z</time>
      </trkpt>
      <trkpt lat="47.4848950" lon="8.6191180">
        <ele>-25.2</ele>
        <time>2022-06-10T10:25:38Z</time>
      </trkpt>
      <trkpt lat="47.4847160" lon="8.6191250">
        <ele>-25.0</ele>
        <time>2022-06-10T10:25:42Z</time>
      </trkpt>
      <trkpt lat="47.4845410" lon="8.6191280">
        <ele>-24.6</ele>
        <time>2022-06-10T10:25:46Z</time>
      </trkpt>
      <trkpt lat="47.4843700" lon="8.6191210">
        <ele>-24.6</ele>
        <time>2022-06-10T10:25:50Z</time>
      </trkpt>
      <trkpt lat="47.4841950" lon="8.6191100">
        <ele>-24.4</ele>
        <time>2022-06-10T10:25:54Z</time>
      </trkpt>
      <trkpt lat="47.4840180" lon="8.6190960">
        <ele>-23.8</ele>
        <time>2022-06-10T10:25:58Z</time>
      </trkpt>
      <trkpt lat="47.4838460" lon="8.6190780">
        <ele>-23.8</ele>
        <time>2022-06-10T10:26:02Z</time>
      </trkpt>
      <trkpt lat="47.4836750" lon="8.6190560">
        <ele>-23.8</ele>
        <time>2022-06-10T10:26:06Z</time>
      </trkpt>
      <trkpt lat="47.4835110" lon="8.6190400">
        <ele>-23.6</ele>
        <time>2022-06-10T10:26:10Z</time>
      </trkpt>
      <trkpt lat="47.4833550" lon="8.6190210">
        <ele>-23.6</ele>
        <time>2022-06-10T10:26:14Z</time>
      </trkpt>
      <trkpt lat="47.4831950" lon="8.6190030">
        <ele>-22.8</ele>
        <time>2022-06-10T10:26:18Z</time>
      </trkpt>
      <trkpt lat="47.4830450" lon="8.6189860">
        <ele>-22.8</ele>
        <time>2022-06-10T10:26:22Z</time>
      </trkpt>
      <trkpt lat="47.4829080" lon="8.6189910">
        <ele>-21.6</ele>
        <time>2022-06-10T10:26:26Z</time>
      </trkpt>
      <trkpt lat="47.4827760" lon="8.6189650">
        <ele>-22.0</ele>
        <time>2022-06-10T10:26:30Z</time>
      </trkpt>
      <trkpt lat="47.4826300" lon="8.6189360">
        <ele>-20.2</ele>
        <time>2022-06-10T10:26:34Z</time>
      </trkpt>
      <trkpt lat="47.4824750" lon="8.6189250">
        <ele>-20.0</ele>
        <time>2022-06-10T10:26:38Z</time>
      </trkpt>
      <trkpt lat="47.4823260" lon="8.6189080">
        <ele>-20.0</ele>
        <time>2022-06-10T10:26:42Z</time>
      </trkpt>
      <trkpt lat="47.4821850" lon="8.6188880">
        <ele>-19.4</ele>
        <time>2022-06-10T10:26:46Z</time>
      </trkpt>
      <trkpt lat="47.4820410" lon="8.6188780">
        <ele>-19.6</ele>
        <time>2022-06-10T10:26:50Z</time>
      </trkpt>
      <trkpt lat="47.4819000" lon="8.6188630">
        <ele>-19.2</ele>
        <time>2022-06-10T10:26:54Z</time>
      </trkpt>
      <trkpt lat="47.4817580" lon="8.6188460">
        <ele>-18.8</ele>
        <time>2022-06-10T10:26:58Z</time>
      </trkpt>
      <trkpt lat="47.4816110" lon="8.6188400">
        <ele>-18.2</ele>
        <time>2022-06-10T10:27:02Z</time>
      </trkpt>
      <trkpt lat="47.4814630" lon="8.6188300">
        <ele>-18.0</ele>
        <time>2022-06-10T10:27:06Z</time>
      </trkpt>
      <trkpt lat="47.4813260" lon="8.6188250">
        <ele>-16.8</ele>
        <time>2022-06-10T10:27:10Z</time>
      </trkpt>
      <trkpt lat="47.4812050" lon="8.6187710">
        <ele>-16.6</ele>
        <time>2022-06-10T10:27:14Z</time>
      </trkpt>
      <trkpt lat="47.4810950" lon="8.6187800">
        <ele>-16.4</ele>
        <time>2022-06-10T10:27:18Z</time>
      </trkpt>
      <trkpt lat="47.4809680" lon="8.6187680">
        <ele>-16.4</ele>
        <time>2022-06-10T10:27:22Z</time>
      </trkpt>
      <trkpt lat="47.4808430" lon="8.6187650">
        <ele>-15.8</ele>
        <time>2022-06-10T10:27:26Z</time>
      </trkpt>
      <trkpt lat="47.4807330" lon="8.6187710">
        <ele>-15.4</ele>
        <time>2022-06-10T10:27:30Z</time>
      </trkpt>
      <trkpt lat="47.4806130" lon="8.6187960">
        <ele>-15.2</ele>
        <time>2022-06-10T10:27:34Z</time>
      </trkpt>
      <trkpt lat="47.4804900" lon="8.6188360">
        <ele>-14.6</ele>
        <time>2022-06-10T10:27:38Z</time>
      </trkpt>
      <trkpt lat="47.4803700" lon="8.6188760">
        <ele>-14.2</ele>
        <time>2022-06-10T10:27:42Z</time>
      </trkpt>
      <trkpt lat="47.4802430" lon="8.6189160">
        <ele>-14.2</ele>
        <time>2022-06-10T10:27:46Z</time>
      </trkpt>
      <trkpt lat="47.4801210" lon="8.6189710">
        <ele>-13.8</ele>
        <time>2022-06-10T10:27:50Z</time>
      </trkpt>
      <trkpt lat="47.4800080" lon="8.6190300">
        <ele>-13.2</ele>
        <time>2022-06-10T10:27:54Z</time>
      </trkpt>
      <trkpt lat="47.4798800" lon="8.6190760">
        <ele>-13.2</ele>
        <time>2022-06-10T10:27:58Z</time>
      </trkpt>
      <trkpt lat="47.4797530" lon="8.6191280">
        <ele>-13.0</ele>
        <time>2022-06-10T10:28:02Z</time>
      </trkpt>
      <trkpt lat="47.4796260" lon="8.6191760">
        <ele>-13.0</ele>
        <time>2022-06-10T10:28:06Z</time>
      </trkpt>
      <trkpt lat="47.4794960" lon="8.6192130">
        <ele>-12.0</ele>
        <time>2022-06-10T10:28:10Z</time>
      </trkpt>
      <trkpt lat="47.4793700" lon="8.6192450">
        <ele>-11.8</ele>
        <time>2022-06-10T10:28:14Z</time>
      </trkpt>
      <trkpt lat="47.4792310" lon="8.6192750">
        <ele>-11.8</ele>
        <time>2022-06-10T10:28:18Z</time>
      </trkpt>
      <trkpt lat="47.4790950" lon="8.6193030">
        <ele>-11.0</ele>
        <time>2022-06-10T10:28:22Z</time>
      </trkpt>
      <trkpt lat="47.4789550" lon="8.6193330">
        <ele>-10.6</ele>
        <time>2022-06-10T10:28:26Z</time>
      </trkpt>
      <trkpt lat="47.4788210" lon="8.6193430">
        <ele>-9.8</ele>
        <time>2022-06-10T10:28:30Z</time>
      </trkpt>
      <trkpt lat="47.4786810" lon="8.6193430">
        <ele>-10.0</ele>
        <time>2022-06-10T10:28:34Z</time>
      </trkpt>
      <trkpt lat="47.4785330" lon="8.6193410">
        <ele>-9.4</ele>
        <time>2022-06-10T10:28:38Z</time>
      </trkpt>
      <trkpt lat="47.4783980" lon="8.6193510">
        <ele>-8.4</ele>
        <time>2022-06-10T10:28:42Z</time>
      </trkpt>
      <trkpt lat="47.4782630" lon="8.6193560">
        <ele>-8.4</ele>
        <time>2022-06-10T10:28:46Z</time>
      </trkpt>
      <trkpt lat="47.4781360" lon="8.6193750">
        <ele>-8.0</ele>
        <time>2022-06-10T10:28:50Z</time>
      </trkpt>
      <trkpt lat="47.4780080" lon="8.6193850">
        <ele>-7.6</ele>
        <time>2022-06-10T10:28:54Z</time>
      </trkpt>
      <trkpt lat="47.4778760" lon="8.6194050">
        <ele>-7.4</ele>
        <time>2022-06-10T10:28:58Z</time>
      </trkpt>
      <trkpt lat="47.4777630" lon="8.6193980">
        <ele>-7.4</ele>
        <time>2022-06-10T10:29:02Z</time>
      </trkpt>
      <trkpt lat="47.4776600" lon="8.6193880">
        <ele>-6.8</ele>
        <time>2022-06-10T10:29:06Z</time>
      </trkpt>
      <trkpt lat="47.4775380" lon="8.6193610">
        <ele>-6.8</ele>
        <time>2022-06-10T10:29:10Z</time>
      </trkpt>
      <trkpt lat="47.4774150" lon="8.6193400">
        <ele>-6.4</ele>
        <time>2022-06-10T10:29:14Z</time>
      </trkpt>
      <trkpt lat="47.4772810" lon="8.6193000">
        <ele>-5.8</ele>
        <time>2022-06-10T10:29:18Z</time>
      </trkpt>
      <trkpt lat="47.4771500" lon="8.6192480">
        <ele>-5.4</ele>
        <time>2022-06-10T10:29:22Z</time>
      </trkpt>
      <trkpt lat="47.4770080" lon="8.6192410">
        <ele>-4.6</ele>
        <time>2022-06-10T10:29:26Z</time>
      </trkpt>
      <trkpt lat="47.4768650" lon="8.6192460">
        <ele>-4.6</ele>
        <time>2022-06-10T10:29:30Z</time>
      </trkpt>
      <trkpt lat="47.4767200" lon="8.6192860">
        <ele>-4.0</ele>
        <time>2022-06-10T10:29:34Z</time>
      </trkpt>
      <trkpt lat="47.4765880" lon="8.6193260">
        <ele>-3.6</ele>
        <time>2022-06-10T10:29:38Z</time>
      </trkpt>
      <trkpt lat="47.4764430" lon="8.6194100">
        <ele>-4.0</ele>
        <time>2022-06-10T10:29:42Z</time>
      </trkpt>
      <trkpt lat="47.4763050" lon="8.6194910">
        <ele>-4.0</ele>
        <time>2022-06-10T10:29:46Z</time>
      </trkpt>
      <trkpt lat="47.4761630" lon="8.6195710">
        <ele>-3.8</ele>
        <time>2022-06-10T10:29:50Z</time>
      </trkpt>
      <trkpt lat="47.4760200" lon="8.6196410">
        <ele>-3.0</ele>
        <time>2022-06-10T10:29:54Z</time>
      </trkpt>
      <trkpt lat="47.4758700" lon="8.6197250">
        <ele>-2.8</ele>
        <time>2022-06-10T10:29:58Z</time>
      </trkpt>
      <trkpt lat="47.4757210" lon="8.6197980">
        <ele>-2.4</ele>
        <time>2022-06-10T10:30:02Z</time>
      </trkpt>
      <trkpt lat="47.4755730" lon="8.6198730">
        <ele>-2.0</ele>
        <time>2022-06-10T10:30:06Z</time>
      </trkpt>
      <trkpt lat="47.4754280" lon="8.6199400">
        <ele>-1.4</ele>
        <time>2022-06-10T10:30:10Z</time>
      </trkpt>
      <trkpt lat="47.4752880" lon="8.6200110">
        <ele>-1.2</ele>
        <time>2022-06-10T10:30:14Z</time>
      </trkpt>
      <trkpt lat="47.4751580" lon="8.6200500">
        <ele>-0.2</ele>
        <time>2022-06-10T10:30:18Z</time>
      </trkpt>
      <trkpt lat="47.4750210" lon="8.6200730">
        <ele>0.4</ele>
        <time>2022-06-10T10:30:22Z</time>
      </trkpt>
      <trkpt lat="47.4748800" lon="8.6201200">
        <ele>0.8</ele>
        <time>2022-06-10T10:30:26Z</time>
      </trkpt>
      <trkpt lat="47.4747310" lon="8.6201550">
        <ele>1.4</ele>
        <time>2022-06-10T10:30:30Z</time>
      </trkpt>
      <trkpt lat="47.4745800" lon="8.6201760">
        <ele>1.4</ele>
        <time>2022-06-10T10:30:34Z</time>
      </trkpt>
      <trkpt lat="47.4744350" lon="8.6202050">
        <ele>1.8</ele>
        <time>2022-06-10T10:30:38Z</time>
      </trkpt>
      <trkpt lat="47.4742930" lon="8.6202180">
        <ele>2.0</ele>
        <time>2022-06-10T10:30:42Z</time>
      </trkpt>
      <trkpt lat="47.4741480" lon="8.6202030">
        <ele>2.6</ele>
        <time>2022-06-10T10:30:46Z</time>
      </trkpt>
      <trkpt lat="47.4740080" lon="8.6201700">
        <ele>3.2</ele>
        <time>2022-06-10T10:30:50Z</time>
      </trkpt>
      <trkpt lat="47.4738550" lon="8.6201250">
        <ele>3.2</ele>
        <time>2022-06-10T10:30:54Z</time>
      </trkpt>
      <trkpt lat="47.4737080" lon="8.6200650">
        <ele>3.4</ele>
        <time>2022-06-10T10:30:58Z</time>
      </trkpt>
      <trkpt lat="47.4735550" lon="8.6200050">
        <ele>3.6</ele>
        <time>2022-06-10T10:31:02Z</time>
      </trkpt>
      <trkpt lat="47.4734260" lon="8.6199610">
        <ele>3.6</ele>
        <time>2022-06-10T10:31:06Z</time>
      </trkpt>
      <trkpt lat="47.4732910" lon="8.6198980">
        <ele>4.4</ele>
        <time>2022-06-10T10:31:10Z</time>
      </trkpt>
      <trkpt lat="47.4731600" lon="8.6198460">
        <ele>4.6</ele>
        <time>2022-06-10T10:31:14Z</time>
      </trkpt>
      <trkpt lat="47.4730080" lon="8.6197850">
        <ele>4.8</ele>
        <time>2022-06-10T10:31:18Z</time>
      </trkpt>
      <trkpt lat="47.4728480" lon="8.6197180">
        <ele>5.2</ele>
        <time>2022-06-10T10:31:22Z</time>
      </trkpt>
      <trkpt lat="47.4726930" lon="8.6196500">
        <ele>5.8</ele>
        <time>2022-06-10T10:31:26Z</time>
      </trkpt>
      <trkpt lat="47.4725480" lon="8.6195860">
        <ele>5.6</ele>
        <time>2022-06-10T10:31:30Z</time>
      </trkpt>
      <trkpt lat="47.4723930" lon="8.6195150">
        <ele>6.2</ele>
        <time>2022-06-10T10:31:34Z</time>
      </trkpt>
      <trkpt lat="47.4722430" lon="8.6194460">
        <ele>6.4</ele>
        <time>2022-06-10T10:31:38Z</time>
      </trkpt>
      <trkpt lat="47.4720980" lon="8.6193830">
        <ele>7.0</ele>
        <time>2022-06-10T10:31:42Z</time>
      </trkpt>
      <trkpt lat="47.4719630" lon="8.6193280">
        <ele>7.2</ele>
        <time>2022-06-10T10:31:46Z</time>
      </trkpt>
      <trkpt lat="47.4718260" lon="8.6192650">
        <ele>7.4</ele>
        <time>2022-06-10T10:31:50Z</time>
      </trkpt>
      <trkpt lat="47.4716860" lon="8.6192060">
        <ele>7.8</ele>
        <time>2022-06-10T10:31:54Z</time>
      </trkpt>
      <trkpt lat="47.4715430" lon="8.6191460">
        <ele>8.0</ele>
        <time>2022-06-10T10:31:58Z</time>
      </trkpt>
      <trkpt lat="47.4713960" lon="8.6190880">
        <ele>8.0</ele>
        <time>2022-06-10T10:32:02Z</time>
      </trkpt>
      <trkpt lat="47.4712560" lon="8.6190230">
        <ele>8.0</ele>
        <time>2022-06-10T10:32:06Z</time>
      </trkpt>
      <trkpt lat="47.4711160" lon="8.6189630">
        <ele>8.4</ele>
        <time>2022-06-10T10:32:10Z</time>
      </trkpt>
      <trkpt lat="47.4709860" lon="8.6189110">
        <ele>8.6</ele>
        <time>2022-06-10T10:32:14Z</time>
      </trkpt>
      <trkpt lat="47.4708530" lon="8.6188560">
        <ele>9.2</ele>
        <time>2022-06-10T10:32:18Z</time>
      </trkpt>
      <trkpt lat="47.4707150" lon="8.6187780">
        <ele>9.2</ele>
        <time>2022-06-10T10:32:22Z</time>
      </trkpt>
      <trkpt lat="47.4705750" lon="8.6187250">
        <ele>9.8</ele>
        <time>2022-06-10T10:32:26Z</time>
      </trkpt>
      <trkpt lat="47.4704430" lon="8.6186650">
        <ele>9.8</ele>
        <time>2022-06-10T10:32:30Z</time>
      </trkpt>
      <trkpt lat="47.4703180" lon="8.6186160">
        <ele>9.8</ele>
        <time>2022-06-10T10:32:34Z</time>
      </trkpt>
      <trkpt lat="47.4701900" lon="8.6185610">
        <ele>10.0</ele>
        <time>2022-06-10T10:32:38Z</time>
      </trkpt>
      <trkpt lat="47.4700550" lon="8.6185100">
        <ele>10.0</ele>
        <time>2022-06-10T10:32:42Z</time>
      </trkpt>
      <trkpt lat="47.4699150" lon="8.6184700">
        <ele>10.0</ele>
        <time>2022-06-10T10:32:46Z</time>
      </trkpt>
      <trkpt lat="47.4697750" lon="8.6184430">
        <ele>10.2</ele>
        <time>2022-06-10T10:32:50Z</time>
      </trkpt>
      <trkpt lat="47.4696510" lon="8.6183680">
        <ele>10.0</ele>
        <time>2022-06-10T10:32:54Z</time>
      </trkpt>
      <trkpt lat="47.4695180" lon="8.6182330">
        <ele>10.0</ele>
        <time>2022-06-10T10:32:58Z</time>
      </trkpt>
      <trkpt lat="47.4693550" lon="8.6181200">
        <ele>10.6</ele>
        <time>2022-06-10T10:33:02Z</time>
      </trkpt>
      <trkpt lat="47.4692030" lon="8.6180630">
        <ele>11.2</ele>
        <time>2022-06-10T10:33:06Z</time>
      </trkpt>
      <trkpt lat="47.4690630" lon="8.6180460">
        <ele>11.8</ele>
        <time>2022-06-10T10:33:10Z</time>
      </trkpt>
      <trkpt lat="47.4689380" lon="8.6180250">
        <ele>12.2</ele>
        <time>2022-06-10T10:33:14Z</time>
      </trkpt>
      <trkpt lat="47.4688080" lon="8.6179980">
        <ele>12.8</ele>
        <time>2022-06-10T10:33:18Z</time>
      </trkpt>
      <trkpt lat="47.4686780" lon="8.6179530">
        <ele>13.2</ele>
        <time>2022-06-10T10:33:22Z</time>
      </trkpt>
      <trkpt lat="47.4685530" lon="8.6179180">
        <ele>14.6</ele>
        <time>2022-06-10T10:33:26Z</time>
      </trkpt>
      <trkpt lat="47.4684360" lon="8.6178700">
        <ele>15.0</ele>
        <time>2022-06-10T10:33:30Z</time>
      </trkpt>
      <trkpt lat="47.4683210" lon="8.6178510">
        <ele>16.0</ele>
        <time>2022-06-10T10:33:34Z</time>
      </trkpt>
      <trkpt lat="47.4682360" lon="8.6178330">
        <ele>16.6</ele>
        <time>2022-06-10T10:33:38Z</time>
      </trkpt>
      <trkpt lat="47.4681510" lon="8.6178200">
        <ele>18.2</ele>
        <time>2022-06-10T10:33:42Z</time>
      </trkpt>
      <trkpt lat="47.4680660" lon="8.6178180">
        <ele>18.8</ele>
        <time>2022-06-10T10:33:46Z</time>
      </trkpt>
      <trkpt lat="47.4679810" lon="8.6178280">
        <ele>19.4</ele>
        <time>2022-06-10T10:33:50Z</time>
      </trkpt>
      <trkpt lat="47.4679000" lon="8.6178550">
        <ele>19.6</ele>
        <time>2022-06-10T10:33:54Z</time>
      </trkpt>
      <trkpt lat="47.4678160" lon="8.6178910">
        <ele>20.4</ele>
        <time>2022-06-10T10:33:58Z</time>
      </trkpt>
      <trkpt lat="47.4677330" lon="8.6179300">
        <ele>21.0</ele>
        <time>2022-06-10T10:34:02Z</time>
      </trkpt>
      <trkpt lat="47.4676610" lon="8.6179910">
        <ele>21.4</ele>
        <time>2022-06-10T10:34:06Z</time>
      </trkpt>
      <trkpt lat="47.4676030" lon="8.6180350">
        <ele>22.6</ele>
        <time>2022-06-10T10:34:10Z</time>
      </trkpt>
      <trkpt lat="47.4675510" lon="8.6180730">
        <ele>22.6</ele>
        <time>2022-06-10T10:34:14Z</time>
      </trkpt>
      <trkpt lat="47.4675130" lon="8.6181150">
        <ele>24.0</ele>
        <time>2022-06-10T10:34:18Z</time>
      </trkpt>
      <trkpt lat="47.4674500" lon="8.6181400">
        <ele>24.8</ele>
        <time>2022-06-10T10:34:22Z</time>
      </trkpt>
      <trkpt lat="47.4673800" lon="8.6181650">
        <ele>26.0</ele>
        <time>2022-06-10T10:34:26Z</time>
      </trkpt>
      <trkpt lat="47.4673150" lon="8.6182100">
        <ele>26.6</ele>
        <time>2022-06-10T10:34:30Z</time>
      </trkpt>
      <trkpt lat="47.4672680" lon="8.6182460">
        <ele>27.4</ele>
        <time>2022-06-10T10:34:34Z</time>
      </trkpt>
      <trkpt lat="47.4672130" lon="8.6182700">
        <ele>28.2</ele>
        <time>2022-06-10T10:34:38Z</time>
      </trkpt>
      <trkpt lat="47.4671700" lon="8.6183060">
        <ele>29.2</ele>
        <time>2022-06-10T10:34:42Z</time>
      </trkpt>
      <trkpt lat="47.4671350" lon="8.6183480">
        <ele>30.4</ele>
        <time>2022-06-10T10:34:46Z</time>
      </trkpt>
      <trkpt lat="47.4670880" lon="8.6183950">
        <ele>31.2</ele>
        <time>2022-06-10T10:34:50Z</time>
      </trkpt>
      <trkpt lat="47.4670650" lon="8.6184410">
        <ele>32.0</ele>
        <time>2022-06-10T10:34:54Z</time>
      </trkpt>
      <trkpt lat="47.4670280" lon="8.6184750">
        <ele>32.0</ele>
        <time>2022-06-10T10:34:58Z</time>
      </trkpt>
      <trkpt lat="47.4669660" lon="8.6185180">
        <ele>33.4</ele>
        <time>2022-06-10T10:35:02Z</time>
      </trkpt>
      <trkpt lat="47.4669000" lon="8.6185810">
        <ele>34.2</ele>
        <time>2022-06-10T10:35:06Z</time>
      </trkpt>
      <trkpt lat="47.4668580" lon="8.6186300">
        <ele>34.4</ele>
        <time>2022-06-10T10:35:10Z</time>
      </trkpt>
      <trkpt lat="47.4668100" lon="8.6186900">
        <ele>35.6</ele>
        <time>2022-06-10T10:35:14Z</time>
      </trkpt>
      <trkpt lat="47.4667530" lon="8.6187230">
        <ele>36.6</ele>
        <time>2022-06-10T10:35:18Z</time>
      </trkpt>
      <trkpt lat="47.4666700" lon="8.6187730">
        <ele>37.2</ele>
        <time>2022-06-10T10:35:22Z</time>
      </trkpt>
      <trkpt lat="47.4666080" lon="8.6188180">
        <ele>37.6</ele>
        <time>2022-06-10T10:35:26Z</time>
      </trkpt>
      <trkpt lat="47.4665600" lon="8.6188560">
        <ele>39.0</ele>
        <time>2022-06-10T10:35:30Z</time>
      </trkpt>
      <trkpt lat="47.4665030" lon="8.6188710">
        <ele>39.4</ele>
        <time>2022-06-10T10:35:34Z</time>
      </trkpt>
      <trkpt lat="47.4664660" lon="8.6189150">
        <ele>40.4</ele>
        <time>2022-06-10T10:35:38Z</time>
      </trkpt>
      <trkpt lat="47.4664030" lon="8.6189310">
        <ele>41.4</ele>
        <time>2022-06-10T10:35:42Z</time>
      </trkpt>
      <trkpt lat="47.4663430" lon="8.6189530">
        <ele>41.6</ele>
        <time>2022-06-10T10:35:46Z</time>
      </trkpt>
      <trkpt lat="47.4662610" lon="8.6189410">
        <ele>43.2</ele>
        <time>2022-06-10T10:35:50Z</time>
      </trkpt>
      <trkpt lat="47.4662100" lon="8.6189180">
        <ele>43.6</ele>
        <time>2022-06-10T10:35:54Z</time>
      </trkpt>
      <trkpt lat="47.4661800" lon="8.6188660">
        <ele>44.8</ele>
        <time>2022-06-10T10:35:58Z</time>
      </trkpt>
      <trkpt lat="47.4661630" lon="8.6188110">
        <ele>45.2</ele>
        <time>2022-06-10T10:36:02Z</time>
      </trkpt>
      <trkpt lat="47.4661500" lon="8.6187230">
        <ele>45.8</ele>
        <time>2022-06-10T10:36:06Z</time>
      </trkpt>
      <trkpt lat="47.4661360" lon="8.6186280">
        <ele>46.0</ele>
        <time>2022-06-10T10:36:10Z</time>
      </trkpt>
      <trkpt lat="47.4661480" lon="8.6185500">
        <ele>47.0</ele>
        <time>2022-06-10T10:36:14Z</time>
      </trkpt>
      <trkpt lat="47.4661410" lon="8.6184510">
        <ele>47.6</ele>
        <time>2022-06-10T10:36:18Z</time>
      </trkpt>
      <trkpt lat="47.4661480" lon="8.6183460">
        <ele>48.6</ele>
        <time>2022-06-10T10:36:22Z</time>
      </trkpt>
      <trkpt lat="47.4661560" lon="8.6182410">
        <ele>49.0</ele>
        <time>2022-06-10T10:36:26Z</time>
      </trkpt>
      <trkpt lat="47.4661650" lon="8.6181410">
        <ele>49.6</ele>
        <time>2022-06-10T10:36:30Z</time>
      </trkpt>
      <trkpt lat="47.4661750" lon="8.6180550">
        <ele>50.0</ele>
        <time>2022-06-10T10:36:34Z</time>
      </trkpt>
      <trkpt lat="47.4661850" lon="8.6179630">
        <ele>51.4</ele>
        <time>2022-06-10T10:36:38Z</time>
      </trkpt>
      <trkpt lat="47.4661800" lon="8.6178710">
        <ele>52.4</ele>
        <time>2022-06-10T10:36:42Z</time>
      </trkpt>
      <trkpt lat="47.4661960" lon="8.6177780">
        <ele>53.0</ele>
        <time>2022-06-10T10:36:46Z</time>
      </trkpt>
      <trkpt lat="47.4662180" lon="8.6176960">
        <ele>54.0</ele>
        <time>2022-06-10T10:36:50Z</time>
      </trkpt>
      <trkpt lat="47.4662410" lon="8.6176150">
        <ele>54.6</ele>
        <time>2022-06-10T10:36:54Z</time>
      </trkpt>
      <trkpt lat="47.4662500" lon="8.6175130">
        <ele>55.6</ele>
        <time>2022-06-10T10:36:58Z</time>
      </trkpt>
      <trkpt lat="47.4662710" lon="8.6174060">
        <ele>56.2</ele>
        <time>2022-06-10T10:37:02Z</time>
      </trkpt>
      <trkpt lat="47.4662830" lon="8.6172600">
        <ele>57.4</ele>
        <time>2022-06-10T10:37:06Z</time>
      </trkpt>
      <trkpt lat="47.4662680" lon="8.6171060">
        <ele>58.6</ele>
        <time>2022-06-10T10:37:10Z</time>
      </trkpt>
      <trkpt lat="47.4662530" lon="8.6169550">
        <ele>59.4</ele>
        <time>2022-06-10T10:37:14Z</time>
      </trkpt>
      <trkpt lat="47.4662210" lon="8.6168060">
        <ele>59.8</ele>
        <time>2022-06-10T10:37:18Z</time>
      </trkpt>
      <trkpt lat="47.4661760" lon="8.6166950">
        <ele>60.8</ele>
        <time>2022-06-10T10:37:22Z</time>
      </trkpt>
      <trkpt lat="47.4661150" lon="8.6165430">
        <ele>61.2</ele>
        <time>2022-06-10T10:37:26Z</time>
      </trkpt>
      <trkpt lat="47.4660250" lon="8.6163450">
        <ele>62.8</ele>
        <time>2022-06-10T10:37:30Z</time>
      </trkpt>
      <trkpt lat="47.4659530" lon="8.6162100">
        <ele>63.2</ele>
        <time>2022-06-10T10:37:34Z</time>
      </trkpt>
      <trkpt lat="47.4658760" lon="8.6160180">
        <ele>64.0</ele>
        <time>2022-06-10T10:37:38Z</time>
      </trkpt>
      <trkpt lat="47.4657850" lon="8.6158380">
        <ele>64.6</ele>
        <time>2022-06-10T10:37:42Z</time>
      </trkpt>
      <trkpt lat="47.4656980" lon="8.6156960">
        <ele>64.6</ele>
        <time>2022-06-10T10:37:46Z</time>
      </trkpt>
      <trkpt lat="47.4656030" lon="8.6155530">
        <ele>65.4</ele>
        <time>2022-06-10T10:37:50Z</time>
      </trkpt>
      <trkpt lat="47.4655000" lon="8.6154160">
        <ele>65.4</ele>
        <time>2022-06-10T10:37:54Z</time>
      </trkpt>
      <trkpt lat="47.4654010" lon="8.6152880">
        <ele>66.8</ele>
        <time>2022-06-10T10:37:58Z</time>
      </trkpt>
      <trkpt lat="47.4653110" lon="8.6151580">
        <ele>67.2</ele>
        <time>2022-06-10T10:38:02Z</time>
      </trkpt>
      <trkpt lat="47.4651930" lon="8.6150430">
        <ele>68.0</ele>
        <time>2022-06-10T10:38:06Z</time>
      </trkpt>
      <trkpt lat="47.4650650" lon="8.6150350">
        <ele>69.0</ele>
        <time>2022-06-10T10:38:10Z</time>
      </trkpt>
      <trkpt lat="47.4649550" lon="8.6150560">
        <ele>70.0</ele>
        <time>2022-06-10T10:38:14Z</time>
      </trkpt>
      <trkpt lat="47.4648460" lon="8.6150980">
        <ele>71.0</ele>
        <time>2022-06-10T10:38:18Z</time>
      </trkpt>
      <trkpt lat="47.4647400" lon="8.6151460">
        <ele>72.0</ele>
        <time>2022-06-10T10:38:22Z</time>
      </trkpt>
      <trkpt lat="47.4646330" lon="8.6151010">
        <ele>72.4</ele>
        <time>2022-06-10T10:38:26Z</time>
      </trkpt>
      <trkpt lat="47.4645810" lon="8.6149980">
        <ele>72.8</ele>
        <time>2022-06-10T10:38:30Z</time>
      </trkpt>
      <trkpt lat="47.4645980" lon="8.6148230">
        <ele>73.4</ele>
        <time>2022-06-10T10:38:34Z</time>
      </trkpt>
      <trkpt lat="47.4645860" lon="8.6146300">
        <ele>73.0</ele>
        <time>2022-06-10T10:38:38Z</time>
      </trkpt>
      <trkpt lat="47.4645780" lon="8.6144350">
        <ele>73.4</ele>
        <time>2022-06-10T10:38:42Z</time>
      </trkpt>
      <trkpt lat="47.4645430" lon="8.6142510">
        <ele>74.0</ele>
        <time>2022-06-10T10:38:46Z</time>
      </trkpt>
      <trkpt lat="47.4644980" lon="8.6140750">
        <ele>73.6</ele>
        <time>2022-06-10T10:38:50Z</time>
      </trkpt>
      <trkpt lat="47.4644550" lon="8.6138980">
        <ele>74.0</ele>
        <time>2022-06-10T10:38:54Z</time>
      </trkpt>
      <trkpt lat="47.4644130" lon="8.6137200">
        <ele>73.8</ele>
        <time>2022-06-10T10:38:58Z</time>
      </trkpt>
      <trkpt lat="47.4643900" lon="8.6135460">
        <ele>73.8</ele>
        <time>2022-06-10T10:39:02Z</time>
      </trkpt>
      <trkpt lat="47.4643430" lon="8.6133800">
        <ele>73.6</ele>
        <time>2022-06-10T10:39:06Z</time>
      </trkpt>
      <trkpt lat="47.4643050" lon="8.6132100">
        <ele>73.4</ele>
        <time>2022-06-10T10:39:10Z</time>
      </trkpt>
      <trkpt lat="47.4642650" lon="8.6130230">
        <ele>73.8</ele>
        <time>2022-06-10T10:39:14Z</time>
      </trkpt>
      <trkpt lat="47.4642100" lon="8.6128180">
        <ele>73.6</ele>
        <time>2022-06-10T10:39:18Z</time>
      </trkpt>
      <trkpt lat="47.4641600" lon="8.6125830">
        <ele>73.0</ele>
        <time>2022-06-10T10:39:22Z</time>
      </trkpt>
      <trkpt lat="47.4641050" lon="8.6123300">
        <ele>72.6</ele>
        <time>2022-06-10T10:39:26Z</time>
      </trkpt>
      <trkpt lat="47.4640450" lon="8.6120780">
        <ele>72.8</ele>
        <time>2022-06-10T10:39:30Z</time>
      </trkpt>
      <trkpt lat="47.4640000" lon="8.6118610">
        <ele>72.4</ele>
        <time>2022-06-10T10:39:34Z</time>
      </trkpt>
      <trkpt lat="47.4639500" lon="8.6116910">
        <ele>72.0</ele>
        <time>2022-06-10T10:39:38Z</time>
      </trkpt>
      <trkpt lat="47.4639080" lon="8.6115350">
        <ele>71.6</ele>
        <time>2022-06-10T10:39:42Z</time>
      </trkpt>
      <trkpt lat="47.4638380" lon="8.6114460">
        <ele>71.2</ele>
        <time>2022-06-10T10:39:46Z</time>
      </trkpt>
      <trkpt lat="47.4637830" lon="8.6113210">
        <ele>71.4</ele>
        <time>2022-06-10T10:39:50Z</time>
      </trkpt>
      <trkpt lat="47.4637410" lon="8.6111250">
        <ele>71.0</ele>
        <time>2022-06-10T10:39:54Z</time>
      </trkpt>
      <trkpt lat="47.4636900" lon="8.6109080">
        <ele>70.2</ele>
        <time>2022-06-10T10:39:58Z</time>
      </trkpt>
      <trkpt lat="47.4636310" lon="8.6106680">
        <ele>69.2</ele>
        <time>2022-06-10T10:40:02Z</time>
      </trkpt>
      <trkpt lat="47.4635610" lon="8.6103810">
        <ele>68.8</ele>
        <time>2022-06-10T10:40:06Z</time>
      </trkpt>
      <trkpt lat="47.4634800" lon="8.6100330">
        <ele>66.8</ele>
        <time>2022-06-10T10:40:10Z</time>
      </trkpt>
      <trkpt lat="47.4633830" lon="8.6096480">
        <ele>65.2</ele>
        <time>2022-06-10T10:40:14Z</time>
      </trkpt>
      <trkpt lat="47.4632850" lon="8.6092230">
        <ele>63.4</ele>
        <time>2022-06-10T10:40:18Z</time>
      </trkpt>
      <trkpt lat="47.4631180" lon="8.6088310">
        <ele>62.2</ele>
        <time>2022-06-10T10:40:22Z</time>
      </trkpt>
      <trkpt lat="47.4628480" lon="8.6085700">
        <ele>60.2</ele>
        <time>2022-06-10T10:40:26Z</time>
      </trkpt>
      <trkpt lat="47.4626050" lon="8.6083230">
        <ele>57.6</ele>
        <time>2022-06-10T10:40:30Z</time>
      </trkpt>
      <trkpt lat="47.4623630" lon="8.6080650">
        <ele>55.8</ele>
        <time>2022-06-10T10:40:34Z</time>
      </trkpt>
      <trkpt lat="47.4621260" lon="8.6078210">
        <ele>53.6</ele>
        <time>2022-06-10T10:40:38Z</time>
      </trkpt>
      <trkpt lat="47.4618450" lon="8.6075500">
        <ele>50.0</ele>
        <time>2022-06-10T10:40:42Z</time>
      </trkpt>
      <trkpt lat="47.4614830" lon="8.6073400">
        <ele>46.8</ele>
        <time>2022-06-10T10:40:46Z</time>
      </trkpt>
      <trkpt lat="47.4610860" lon="8.6072460">
        <ele>42.2</ele>
        <time>2022-06-10T10:40:50Z</time>
      </trkpt>
      <trkpt lat="47.4607060" lon="8.6071810">
        <ele>39.0</ele>
        <time>2022-06-10T10:40:54Z</time>
      </trkpt>
      <trkpt lat="47.4603880" lon="8.6069980">
        <ele>36.8</ele>
        <time>2022-06-10T10:40:58Z</time>
      </trkpt>
      <trkpt lat="47.4601260" lon="8.6067380">
        <ele>33.4</ele>
        <time>2022-06-10T10:41:02Z</time>
      </trkpt>
      <trkpt lat="47.4599000" lon="8.6065060">
        <ele>32.0</ele>
        <time>2022-06-10T10:41:06Z</time>
      </trkpt>
      <trkpt lat="47.4597000" lon="8.6062830">
        <ele>29.6</ele>
        <time>2022-06-10T10:41:10Z</time>
      </trkpt>
      <trkpt lat="47.4595030" lon="8.6060880">
        <ele>26.2</ele>
        <time>2022-06-10T10:41:14Z</time>
      </trkpt>
      <trkpt lat="47.4593750" lon="8.6057960">
        <ele>23.8</ele>
        <time>2022-06-10T10:41:18Z</time>
      </trkpt>
      <trkpt lat="47.4594450" lon="8.6054650">
        <ele>21.0</ele>
        <time>2022-06-10T10:41:22Z</time>
      </trkpt>
      <trkpt lat="47.4592800" lon="8.6052480">
        <ele>17.2</ele>
        <time>2022-06-10T10:41:26Z</time>
      </trkpt>
      <trkpt lat="47.4589930" lon="8.6051900">
        <ele>14.0</ele>
        <time>2022-06-10T10:41:30Z</time>
      </trkpt>
      <trkpt lat="47.4587310" lon="8.6049980">
        <ele>9.4</ele>
        <time>2022-06-10T10:41:34Z</time>
      </trkpt>
      <trkpt lat="47.4584660" lon="8.6046860">
        <ele>4.6</ele>
        <time>2022-06-10T10:41:38Z</time>
      </trkpt>
      <trkpt lat="47.4581950" lon="8.6044350">
        <ele>2.0</ele>
        <time>2022-06-10T10:41:42Z</time>
      </trkpt>
      <trkpt lat="47.4578530" lon="8.6041850">
        <ele>-2.6</ele>
        <time>2022-06-10T10:41:46Z</time>
      </trkpt>
      <trkpt lat="47.4575210" lon="8.6038930">
        <ele>-4.6</ele>
        <time>2022-06-10T10:41:50Z</time>
      </trkpt>
      <trkpt lat="47.4572160" lon="8.6035110">
        <ele>-8.4</ele>
        <time>2022-06-10T10:41:54Z</time>
      </trkpt>
      <trkpt lat="47.4569450" lon="8.6030950">
        <ele>-10.6</ele>
        <time>2022-06-10T10:41:58Z</time>
      </trkpt>
      <trkpt lat="47.4567080" lon="8.6026850">
        <ele>-13.0</ele>
        <time>2022-06-10T10:42:02Z</time>
      </trkpt>
      <trkpt lat="47.4565080" lon="8.6022500">
        <ele>-14.8</ele>
        <time>2022-06-10T10:42:06Z</time>
      </trkpt>
      <trkpt lat="47.4563700" lon="8.6017450">
        <ele>-16.4</ele>
        <time>2022-06-10T10:42:10Z</time>
      </trkpt>
      <trkpt lat="47.4561200" lon="8.6012850">
        <ele>-19.8</ele>
        <time>2022-06-10T10:42:14Z</time>
      </trkpt>
      <trkpt lat="47.4559910" lon="8.6007610">
        <ele>-22.6</ele>
        <time>2022-06-10T10:42:18Z</time>
      </trkpt>
      <trkpt lat="47.4560160" lon="8.6002110">
        <ele>-25.2</ele>
        <time>2022-06-10T10:42:22Z</time>
      </trkpt>
      <trkpt lat="47.4560630" lon="8.5996960">
        <ele>-24.2</ele>
        <time>2022-06-10T10:42:26Z</time>
      </trkpt>
      <trkpt lat="47.4560660" lon="8.5992230">
        <ele>-24.0</ele>
        <time>2022-06-10T10:42:30Z</time>
      </trkpt>
      <trkpt lat="47.4560630" lon="8.5987760">
        <ele>-24.4</ele>
        <time>2022-06-10T10:42:34Z</time>
      </trkpt>
      <trkpt lat="47.4560680" lon="8.5983450">
        <ele>-26.2</ele>
        <time>2022-06-10T10:42:38Z</time>
      </trkpt>
      <trkpt lat="47.4560700" lon="8.5979200">
        <ele>-27.2</ele>
        <time>2022-06-10T10:42:42Z</time>
      </trkpt>
      <trkpt lat="47.4560560" lon="8.5975010">
        <ele>-27.4</ele>
        <time>2022-06-10T10:42:46Z</time>
      </trkpt>
      <trkpt lat="47.4560350" lon="8.5970800">
        <ele>-27.4</ele>
        <time>2022-06-10T10:42:50Z</time>
      </trkpt>
      <trkpt lat="47.4559950" lon="8.5966600">
        <ele>-28.6</ele>
        <time>2022-06-10T10:42:54Z</time>
      </trkpt>
      <trkpt lat="47.4558330" lon="8.5963230">
        <ele>-30.0</ele>
        <time>2022-06-10T10:42:58Z</time>
      </trkpt>
      <trkpt lat="47.4555780" lon="8.5961080">
        <ele>-30.4</ele>
        <time>2022-06-10T10:43:02Z</time>
      </trkpt>
      <trkpt lat="47.4553360" lon="8.5958780">
        <ele>-30.2</ele>
        <time>2022-06-10T10:43:06Z</time>
      </trkpt>
      <trkpt lat="47.4551230" lon="8.5956100">
        <ele>-32.2</ele>
        <time>2022-06-10T10:43:10Z</time>
      </trkpt>
      <trkpt lat="47.4549510" lon="8.5953180">
        <ele>-32.2</ele>
        <time>2022-06-10T10:43:14Z</time>
      </trkpt>
      <trkpt lat="47.4548160" lon="8.5950200">
        <ele>-31.8</ele>
        <time>2022-06-10T10:43:18Z</time>
      </trkpt>
      <trkpt lat="47.4547010" lon="8.5947350">
        <ele>-32.4</ele>
        <time>2022-06-10T10:43:22Z</time>
      </trkpt>
      <trkpt lat="47.4545910" lon="8.5944710">
        <ele>-32.2</ele>
        <time>2022-06-10T10:43:26Z</time>
      </trkpt>
      <trkpt lat="47.4544850" lon="8.5942410">
        <ele>-32.4</ele>
        <time>2022-06-10T10:43:30Z</time>
      </trkpt>
      <trkpt lat="47.4544560" lon="8.5940880">
        <ele>-32.2</ele>
        <time>2022-06-10T10:43:34Z</time>
      </trkpt>
      <trkpt lat="47.4544560" lon="8.5940880">
        <ele>-32.2</ele>
        <time>2022-06-10T10:43:38Z</time>
      </trkpt>
      <trkpt lat="47.4544560" lon="8.5940880">
        <ele>-31.8</ele>
        <time>2022-06-10T10:43:42Z</time>
      </trkpt>
      <trkpt lat="47.4544560" lon="8.5940880">
        <ele>-32.2</ele>
        <time>2022-06-10T10:43:46Z</time>
      </trkpt>
      <trkpt lat="47.4544560" lon="8.5940880">
        <ele>-32.0</ele>
        <time>2022-06-10T10:43:50Z</time>
      </trkpt>
      <trkpt lat="47.4544200" lon="8.5940630">
        <ele>-32.4</ele>
        <time>2022-06-10T10:43:54Z</time>
      </trkpt>
      <trkpt lat="47.4543780" lon="8.5939980">
        <ele>-32.4</ele>
        <time>2022-06-10T10:43:58Z</time>
      </trkpt>
      <trkpt lat="47.4543280" lon="8.5939160">
        <ele>-32.6</ele>
        <time>2022-06-10T10:44:02Z</time>
      </trkpt>
      <trkpt lat="47.4542780" lon="8.5938450">
        <ele>-32.4</ele>
        <time>2022-06-10T10:44:06Z</time>
      </trkpt>
      <trkpt lat="47.4542030" lon="8.5937700">
        <ele>-32.6</ele>
        <time>2022-06-10T10:44:10Z</time>
      </trkpt>
      <trkpt lat="47.4541160" lon="8.5936800">
        <ele>-32.4</ele>
        <time>2022-06-10T10:44:14Z</time>
      </trkpt>
      <trkpt lat="47.4540280" lon="8.5935760">
        <ele>-32.4</ele>
        <time>2022-06-10T10:44:18Z</time>
      </trkpt>
      <trkpt lat="47.4539430" lon="8.5934780">
        <ele>-33.0</ele>
        <time>2022-06-10T10:44:22Z</time>
      </trkpt>
      <trkpt lat="47.4538510" lon="8.5933810">
        <ele>-32.8</ele>
        <time>2022-06-10T10:44:26Z</time>
      </trkpt>
      <trkpt lat="47.4537630" lon="8.5932580">
        <ele>-33.0</ele>
        <time>2022-06-10T10:44:30Z</time>
      </trkpt>
      <trkpt lat="47.4536610" lon="8.5931350">
        <ele>-33.4</ele>
        <time>2022-06-10T10:44:34Z</time>
      </trkpt>
      <trkpt lat="47.4535300" lon="8.5929930">
        <ele>-34.2</ele>
        <time>2022-06-10T10:44:38Z</time>
      </trkpt>
      <trkpt lat="47.4533800" lon="8.5928330">
        <ele>-35.0</ele>
        <time>2022-06-10T10:44:42Z</time>
      </trkpt>
      <trkpt lat="47.4531960" lon="8.5926810">
        <ele>-35.0</ele>
        <time>2022-06-10T10:44:46Z</time>
      </trkpt>
      <trkpt lat="47.4530200" lon="8.5925150">
        <ele>-36.0</ele>
        <time>2022-06-10T10:44:50Z</time>
      </trkpt>
      <trkpt lat="47.4528510" lon="8.5923610">
        <ele>-36.2</ele>
        <time>2022-06-10T10:44:54Z</time>
      </trkpt>
      <trkpt lat="47.4526800" lon="8.5922350">
        <ele>-36.0</ele>
        <time>2022-06-10T10:44:58Z</time>
      </trkpt>
      <trkpt lat="47.4525030" lon="8.5920830">
        <ele>-36.4</ele>
        <time>2022-06-10T10:45:02Z</time>
      </trkpt>
      <trkpt lat="47.4523080" lon="8.5919350">
        <ele>-36.8</ele>
        <time>2022-06-10T10:45:06Z</time>
      </trkpt>
      <trkpt lat="47.4521130" lon="8.5917760">
        <ele>-37.4</ele>
        <time>2022-06-10T10:45:10Z</time>
      </trkpt>
      <trkpt lat="47.4519280" lon="8.5916160">
        <ele>-36.8</ele>
        <time>2022-06-10T10:45:14Z</time>
      </trkpt>
      <trkpt lat="47.4517630" lon="8.5914360">
        <ele>-37.6</ele>
        <time>2022-06-10T10:45:18Z</time>
      </trkpt>
      <trkpt lat="47.4516310" lon="8.5912000">
        <ele>-37.6</ele>
        <time>2022-06-10T10:45:22Z</time>
      </trkpt>
      <trkpt lat="47.4515510" lon="8.5909250">
        <ele>-38.4</ele>
        <time>2022-06-10T10:45:26Z</time>
      </trkpt>
      <trkpt lat="47.4515380" lon="8.5907060">
        <ele>-38.6</ele>
        <time>2022-06-10T10:45:30Z</time>
      </trkpt>
      <trkpt lat="47.4515830" lon="8.5905660">
        <ele>-38.4</ele>
        <time>2022-06-10T10:45:34Z</time>
      </trkpt>
      <trkpt lat="47.4516180" lon="8.5904630">
        <ele>-38.2</ele>
        <time>2022-06-10T10:45:38Z</time>
      </trkpt>
      <trkpt lat="47.4516180" lon="8.5904630">
        <ele>-38.4</ele>
        <time>2022-06-10T10:45:42Z</time>
      </trkpt>
      <trkpt lat="47.4516180" lon="8.5904630">
        <ele>-38.4</ele>
        <time>2022-06-10T10:45:46Z</time>
      </trkpt>
      <trkpt lat="47.4516180" lon="8.5904630">
        <ele>-38.6</ele>
        <time>2022-06-10T10:45:50Z</time>
      </trkpt>
      <trkpt lat="47.4516180" lon="8.5904630">
        <ele>-38.8</ele>
        <time>2022-06-10T10:45:54Z</time>
      </trkpt>
      <trkpt lat="47.4516180" lon="8.5904630">
        <ele>-38.4</ele>
        <time>2022-06-10T10:45:58Z</time>
      </trkpt>
      <trkpt lat="47.4516250" lon="8.5904360">
        <ele>-38.4</ele>
        <time>2022-06-10T10:46:02Z</time>
      </trkpt>
      <trkpt lat="47.4516410" lon="8.5903210">
        <ele>-38.8</ele>
        <time>2022-06-10T10:46:06Z</time>
      </trkpt>
      <trkpt lat="47.4516760" lon="8.5901380">
        <ele>-39.0</ele>
        <time>2022-06-10T10:46:10Z</time>
      </trkpt>
      <trkpt lat="47.4517250" lon="8.5899230">
        <ele>-38.6</ele>
        <time>2022-06-10T10:46:14Z</time>
      </trkpt>
      <trkpt lat="47.4517700" lon="8.5897050">
        <ele>-39.0</ele>
        <time>2022-06-10T10:46:18Z</time>
      </trkpt>
      <trkpt lat="47.4518250" lon="8.5894910">
        <ele>-38.8</ele>
        <time>2022-06-10T10:46:22Z</time>
      </trkpt>
      <trkpt lat="47.4518660" lon="8.5892550">
        <ele>-39.2</ele>
        <time>2022-06-10T10:46:26Z</time>
      </trkpt>
      <trkpt lat="47.4519150" lon="8.5890160">
        <ele>-39.4</ele>
        <time>2022-06-10T10:46:30Z</time>
      </trkpt>
      <trkpt lat="47.4519660" lon="8.5887760">
        <ele>-39.0</ele>
        <time>2022-06-10T10:46:34Z</time>
      </trkpt>
      <trkpt lat="47.4520180" lon="8.5885310">
        <ele>-40.4</ele>
        <time>2022-06-10T10:46:38Z</time>
      </trkpt>
      <trkpt lat="47.4520680" lon="8.5882730">
        <ele>-40.0</ele>
        <time>2022-06-10T10:46:42Z</time>
      </trkpt>
      <trkpt lat="47.4521300" lon="8.5880500">
        <ele>-40.2</ele>
        <time>2022-06-10T10:46:46Z</time>
      </trkpt>
      <trkpt lat="47.4521600" lon="8.5878460">
        <ele>-39.8</ele>
        <time>2022-06-10T10:46:50Z</time>
      </trkpt>
      <trkpt lat="47.4522000" lon="8.5876680">
        <ele>-40.2</ele>
        <time>2022-06-10T10:46:54Z</time>
      </trkpt>
      <trkpt lat="47.4521960" lon="8.5875610">
        <ele>-39.8</ele>
        <time>2022-06-10T10:46:58Z</time>
      </trkpt>
      <trkpt lat="47.4521200" lon="8.5875360">
        <ele>-40.2</ele>
        <time>2022-06-10T10:47:02Z</time>
      </trkpt>
      <trkpt lat="47.4520180" lon="8.5876100">
        <ele>-40.8</ele>
        <time>2022-06-10T10:47:06Z</time>
      </trkpt>
      <trkpt lat="47.4518660" lon="8.5875850">
        <ele>-41.2</ele>
        <time>2022-06-10T10:47:10Z</time>
      </trkpt>
      <trkpt lat="47.4516980" lon="8.5875280">
        <ele>-41.8</ele>
        <time>2022-06-10T10:47:14Z</time>
      </trkpt>
      <trkpt lat="47.4515150" lon="8.5874760">
        <ele>-42.6</ele>
        <time>2022-06-10T10:47:18Z</time>
      </trkpt>
      <trkpt lat="47.4513280" lon="8.5873910">
        <ele>-42.6</ele>
        <time>2022-06-10T10:47:22Z</time>
      </trkpt>
      <trkpt lat="47.4511630" lon="8.5872780">
        <ele>-43.0</ele>
        <time>2022-06-10T10:47:26Z</time>
      </trkpt>
      <trkpt lat="47.4510130" lon="8.5871710">
        <ele>-43.0</ele>
        <time>2022-06-10T10:47:30Z</time>
      </trkpt>
      <trkpt lat="47.4508380" lon="8.5870510">
        <ele>-43.0</ele>
        <time>2022-06-10T10:47:34Z</time>
      </trkpt>
      <trkpt lat="47.4506910" lon="8.5869760">
        <ele>-43.2</ele>
        <time>2022-06-10T10:47:38Z</time>
      </trkpt>
      <trkpt lat="47.4505760" lon="8.5870350">
        <ele>-43.2</ele>
        <time>2022-06-10T10:47:42Z</time>
      </trkpt>
      <trkpt lat="47.4504910" lon="8.5869910">
        <ele>-42.4</ele>
        <time>2022-06-10T10:47:46Z</time>
      </trkpt>
      <trkpt lat="47.4504230" lon="8.5869760">
        <ele>-42.8</ele>
        <time>2022-06-10T10:47:50Z</time>
      </trkpt>
      <trkpt lat="47.4503360" lon="8.5869830">
        <ele>-43.2</ele>
        <time>2022-06-10T10:47:54Z</time>
      </trkpt>
      <trkpt lat="47.4503000" lon="8.5869100">
        <ele>-42.6</ele>
        <time>2022-06-10T10:47:58Z</time>
      </trkpt>
      <trkpt lat="47.4503000" lon="8.5869100">
        <ele>-42.8</ele>
        <time>2022-06-10T10:48:02Z</time>
      </trkpt>
      <trkpt lat="47.4502950" lon="8.5868960">
        <ele>-43.0</ele>
        <time>2022-06-10T10:48:06Z</time>
      </trkpt>
      <trkpt lat="47.4502950" lon="8.5868960">
        <ele>-43.0</ele>
        <time>2022-06-10T10:48:10Z</time>
      </trkpt>
      <trkpt lat="47.4502950" lon="8.5868960">
        <ele>-43.2</ele>
        <time>2022-06-10T10:48:14Z</time>
      </trkpt>
      <trkpt lat="47.4502950" lon="8.5868960">
        <ele>-43.0</ele>
        <time>2022-06-10T10:48:18Z</time>
      </trkpt>
      <trkpt lat="47.4502950" lon="8.5868960">
        <ele>-43.2</ele>
        <time>2022-06-10T10:48:22Z</time>
      </trkpt>
      <trkpt lat="47.4502860" lon="8.5868210">
        <ele>-43.0</ele>
        <time>2022-06-10T10:48:26Z</time>
      </trkpt>
      <trkpt lat="47.4502480" lon="8.5867350">
        <ele>-42.8</ele>
        <time>2022-06-10T10:48:30Z</time>
      </trkpt>
      <trkpt lat="47.4501960" lon="8.5866360">
        <ele>-42.6</ele>
        <time>2022-06-10T10:48:34Z</time>
      </trkpt>
      <trkpt lat="47.4501300" lon="8.5865550">
        <ele>-41.8</ele>
        <time>2022-06-10T10:48:38Z</time>
      </trkpt>
      <trkpt lat="47.4500460" lon="8.5864880">
        <ele>-41.4</ele>
        <time>2022-06-10T10:48:42Z</time>
      </trkpt>
      <trkpt lat="47.4499660" lon="8.5863760">
        <ele>-40.6</ele>
        <time>2022-06-10T10:48:46Z</time>
      </trkpt>
      <trkpt lat="47.4498980" lon="8.5862130">
        <ele>-40.6</ele>
        <time>2022-06-10T10:48:50Z</time>
      </trkpt>
      <trkpt lat="47.4498250" lon="8.5860500">
        <ele>-39.6</ele>
        <time>2022-06-10T10:48:54Z</time>
      </trkpt>
      <trkpt lat="47.4497710" lon="8.5859000">
        <ele>-39.4</ele>
        <time>2022-06-10T10:48:58Z</time>
      </trkpt>
      <trkpt lat="47.4496930" lon="8.5857480">
        <ele>-39.4</ele>
        <time>2022-06-10T10:49:02Z</time>
      </trkpt>
      <trkpt lat="47.4496310" lon="8.5856030">
        <ele>-39.0</ele>
        <time>2022-06-10T10:49:06Z</time>
      </trkpt>
      <trkpt lat="47.4495630" lon="8.5854410">
        <ele>-38.4</ele>
        <time>2022-06-10T10:49:10Z</time>
      </trkpt>
      <trkpt lat="47.4495030" lon="8.5852910">
        <ele>-38.2</ele>
        <time>2022-06-10T10:49:14Z</time>
      </trkpt>
      <trkpt lat="47.4494280" lon="8.5851260">
        <ele>-37.8</ele>
        <time>2022-06-10T10:49:18Z</time>
      </trkpt>
      <trkpt lat="47.4493560" lon="8.5849210">
        <ele>-37.0</ele>
        <time>2022-06-10T10:49:22Z</time>
      </trkpt>
      <trkpt lat="47.4492680" lon="8.5847330">
        <ele>-36.8</ele>
        <time>2022-06-10T10:49:26Z</time>
      </trkpt>
      <trkpt lat="47.4491680" lon="8.5845310">
        <ele>-36.8</ele>
        <time>2022-06-10T10:49:30Z</time>
      </trkpt>
      <trkpt lat="47.4490800" lon="8.5843060">
        <ele>-36.0</ele>
        <time>2022-06-10T10:49:34Z</time>
      </trkpt>
      <trkpt lat="47.4489930" lon="8.5840960">
        <ele>-35.4</ele>
        <time>2022-06-10T10:49:38Z</time>
      </trkpt>
      <trkpt lat="47.4489010" lon="8.5839060">
        <ele>-35.2</ele>
        <time>2022-06-10T10:49:42Z</time>
      </trkpt>
      <trkpt lat="47.4488160" lon="8.5837100">
        <ele>-34.8</ele>
        <time>2022-06-10T10:49:46Z</time>
      </trkpt>
      <trkpt lat="47.4487310" lon="8.5835110">
        <ele>-35.0</ele>
        <time>2022-06-10T10:49:50Z</time>
      </trkpt>
      <trkpt lat="47.4486460" lon="8.5833080">
        <ele>-35.0</ele>
        <time>2022-06-10T10:49:54Z</time>
      </trkpt>
      <trkpt lat="47.4485710" lon="8.5831380">
        <ele>-34.8</ele>
        <time>2022-06-10T10:49:58Z</time>
      </trkpt>
      <trkpt lat="47.4484900" lon="8.5829650">
        <ele>-34.4</ele>
        <time>2022-06-10T10:50:02Z</time>
      </trkpt>
      <trkpt lat="47.4484010" lon="8.5827880">
        <ele>-34.4</ele>
        <time>2022-06-10T10:50:06Z</time>
      </trkpt>
      <trkpt lat="47.4483130" lon="8.5826000">
        <ele>-34.8</ele>
        <time>2022-06-10T10:50:10Z</time>
      </trkpt>
      <trkpt lat="47.4482200" lon="8.5824130">
        <ele>-34.6</ele>
        <time>2022-06-10T10:50:14Z</time>
      </trkpt>
      <trkpt lat="47.4481350" lon="8.5822180">
        <ele>-35.0</ele>
        <time>2022-06-10T10:50:18Z</time>
      </trkpt>
      <trkpt lat="47.4480950" lon="8.5820180">
        <ele>-34.6</ele>
        <time>2022-06-10T10:50:22Z</time>
      </trkpt>
      <trkpt lat="47.4481000" lon="8.5818030">
        <ele>-35.2</ele>
        <time>2022-06-10T10:50:26Z</time>
      </trkpt>
      <trkpt lat="47.4479900" lon="8.5816200">
        <ele>-34.6</ele>
        <time>2022-06-10T10:50:30Z</time>
      </trkpt>
      <trkpt lat="47.4478730" lon="8.5814350">
        <ele>-35.0</ele>
        <time>2022-06-10T10:50:34Z</time>
      </trkpt>
      <trkpt lat="47.4477550" lon="8.5812680">
        <ele>-34.0</ele>
        <time>2022-06-10T10:50:38Z</time>
      </trkpt>
      <trkpt lat="47.4476430" lon="8.5810910">
        <ele>-33.4</ele>
        <time>2022-06-10T10:50:42Z</time>
      </trkpt>
      <trkpt lat="47.4475400" lon="8.5808980">
        <ele>-32.8</ele>
        <time>2022-06-10T10:50:46Z</time>
      </trkpt>
      <trkpt lat="47.4474460" lon="8.5807030">
        <ele>-31.0</ele>
        <time>2022-06-10T10:50:50Z</time>
      </trkpt>
      <trkpt lat="47.4473650" lon="8.5805110">
        <ele>-30.6</ele>
        <time>2022-06-10T10:50:54Z</time>
      </trkpt>
      <trkpt lat="47.4472830" lon="8.5803430">
        <ele>-30.4</ele>
        <time>2022-06-10T10:50:58Z</time>
      </trkpt>
      <trkpt lat="47.4471960" lon="8.5801910">
        <ele>-29.8</ele>
        <time>2022-06-10T10:51:02Z</time>
      </trkpt>
      <trkpt lat="47.4471030" lon="8.5800560">
        <ele>-29.0</ele>
        <time>2022-06-10T10:51:06Z</time>
      </trkpt>
      <trkpt lat="47.4469980" lon="8.5799310">
        <ele>-28.4</ele>
        <time>2022-06-10T10:51:10Z</time>
      </trkpt>
      <trkpt lat="47.4468830" lon="8.5798380">
        <ele>-27.6</ele>
        <time>2022-06-10T10:51:14Z</time>
      </trkpt>
      <trkpt lat="47.4467610" lon="8.5797800">
        <ele>-27.0</ele>
        <time>2022-06-10T10:51:18Z</time>
      </trkpt>
      <trkpt lat="47.4466360" lon="8.5797400">
        <ele>-26.4</ele>
        <time>2022-06-10T10:51:22Z</time>
      </trkpt>
      <trkpt lat="47.4465110" lon="8.5797150">
        <ele>-26.4</ele>
        <time>2022-06-10T10:51:26Z</time>
      </trkpt>
      <trkpt lat="47.4463850" lon="8.5797200">
        <ele>-25.8</ele>
        <time>2022-06-10T10:51:30Z</time>
      </trkpt>
      <trkpt lat="47.4462350" lon="8.5797230">
        <ele>-25.2</ele>
        <time>2022-06-10T10:51:34Z</time>
      </trkpt>
      <trkpt lat="47.4460850" lon="8.5797600">
        <ele>-25.6</ele>
        <time>2022-06-10T10:51:38Z</time>
      </trkpt>
      <trkpt lat="47.4459250" lon="8.5797710">
        <ele>-26.2</ele>
        <time>2022-06-10T10:51:42Z</time>
      </trkpt>
      <trkpt lat="47.4457630" lon="8.5797660">
        <ele>-26.2</ele>
        <time>2022-06-10T10:51:46Z</time>
      </trkpt>
      <trkpt lat="47.4455930" lon="8.5797400">
        <ele>-25.8</ele>
        <time>2022-06-10T10:51:50Z</time>
      </trkpt>
      <trkpt lat="47.4454200" lon="8.5796860">
        <ele>-25.6</ele>
        <time>2022-06-10T10:51:54Z</time>
      </trkpt>
      <trkpt lat="47.4452480" lon="8.5795860">
        <ele>-25.4</ele>
        <time>2022-06-10T10:51:58Z</time>
      </trkpt>
      <trkpt lat="47.4450930" lon="8.5794650">
        <ele>-24.6</ele>
        <time>2022-06-10T10:52:02Z</time>
      </trkpt>
      <trkpt lat="47.4449510" lon="8.5793410">
        <ele>-23.8</ele>
        <time>2022-06-10T10:52:06Z</time>
      </trkpt>
      <trkpt lat="47.4448830" lon="8.5792010">
        <ele>-23.6</ele>
        <time>2022-06-10T10:52:10Z</time>
      </trkpt>
      <trkpt lat="47.4447880" lon="8.5790930">
        <ele>-23.6</ele>
        <time>2022-06-10T10:52:14Z</time>
      </trkpt>
      <trkpt lat="47.4446550" lon="8.5790480">
        <ele>-22.2</ele>
        <time>2022-06-10T10:52:18Z</time>
      </trkpt>
      <trkpt lat="47.4445350" lon="8.5789300">
        <ele>-22.2</ele>
        <time>2022-06-10T10:52:22Z</time>
      </trkpt>
      <trkpt lat="47.4444110" lon="8.5787980">
        <ele>-21.0</ele>
        <time>2022-06-10T10:52:26Z</time>
      </trkpt>
      <trkpt lat="47.4442630" lon="8.5786660">
        <ele>-21.2</ele>
        <time>2022-06-10T10:52:30Z</time>
      </trkpt>
      <trkpt lat="47.4441230" lon="8.5785250">
        <ele>-21.0</ele>
        <time>2022-06-10T10:52:34Z</time>
      </trkpt>
      <trkpt lat="47.4439800" lon="8.5783910">
        <ele>-21.0</ele>
        <time>2022-06-10T10:52:38Z</time>
      </trkpt>
      <trkpt lat="47.4438160" lon="8.5782560">
        <ele>-21.2</ele>
        <time>2022-06-10T10:52:42Z</time>
      </trkpt>
      <trkpt lat="47.4436360" lon="8.5781200">
        <ele>-22.2</ele>
        <time>2022-06-10T10:52:46Z</time>
      </trkpt>
      <trkpt lat="47.4434250" lon="8.5779660">
        <ele>-22.6</ele>
        <time>2022-06-10T10:52:50Z</time>
      </trkpt>
      <trkpt lat="47.4431900" lon="8.5777880">
        <ele>-23.0</ele>
        <time>2022-06-10T10:52:54Z</time>
      </trkpt>
      <trkpt lat="47.4429280" lon="8.5775860">
        <ele>-25.2</ele>
        <time>2022-06-10T10:52:58Z</time>
      </trkpt>
      <trkpt lat="47.4426380" lon="8.5773780">
        <ele>-26.8</ele>
        <time>2022-06-10T10:53:02Z</time>
      </trkpt>
      <trkpt lat="47.4423350" lon="8.5771430">
        <ele>-28.2</ele>
        <time>2022-06-10T10:53:06Z</time>
      </trkpt>
      <trkpt lat="47.4420310" lon="8.5768760">
        <ele>-30.4</ele>
        <time>2022-06-10T10:53:10Z</time>
      </trkpt>
      <trkpt lat="47.4417550" lon="8.5765660">
        <ele>-31.0</ele>
        <time>2022-06-10T10:53:14Z</time>
      </trkpt>
      <trkpt lat="47.4415000" lon="8.5762080">
        <ele>-32.0</ele>
        <time>2022-06-10T10:53:18Z</time>
      </trkpt>
      <trkpt lat="47.4412510" lon="8.5758230">
        <ele>-34.0</ele>
        <time>2022-06-10T10:53:22Z</time>
      </trkpt>
      <trkpt lat="47.4410150" lon="8.5754330">
        <ele>-34.6</ele>
        <time>2022-06-10T10:53:26Z</time>
      </trkpt>
      <trkpt lat="47.4407650" lon="8.5750460">
        <ele>-37.2</ele>
        <time>2022-06-10T10:53:30Z</time>
      </trkpt>
      <trkpt lat="47.4405180" lon="8.5746430">
        <ele>-37.4</ele>
        <time>2022-06-10T10:53:34Z</time>
      </trkpt>
      <trkpt lat="47.4402680" lon="8.5742210">
        <ele>-39.6</ele>
        <time>2022-06-10T10:53:38Z</time>
      </trkpt>
      <trkpt lat="47.4400250" lon="8.5737960">
        <ele>-39.8</ele>
        <time>2022-06-10T10:53:42Z</time>
      </trkpt>
      <trkpt lat="47.4398010" lon="8.5733950">
        <ele>-42.2</ele>
        <time>2022-06-10T10:53:46Z</time>
      </trkpt>
      <trkpt lat="47.4395950" lon="8.5730680">
        <ele>-42.6</ele>
        <time>2022-06-10T10:53:50Z</time>
      </trkpt>
      <trkpt lat="47.4394060" lon="8.5727550">
        <ele>-42.0</ele>
        <time>2022-06-10T10:53:54Z</time>
      </trkpt>
      <trkpt lat="47.4392280" lon="8.5724380">
        <ele>-42.6</ele>
        <time>2022-06-10T10:53:58Z</time>
      </trkpt>
      <trkpt lat="47.4390630" lon="8.5721360">
        <ele>-42.6</ele>
        <time>2022-06-10T10:54:02Z</time>
      </trkpt>
      <trkpt lat="47.4389050" lon="8.5718700">
        <ele>-42.4</ele>
        <time>2022-06-10T10:54:06Z</time>
      </trkpt>
      <trkpt lat="47.4387560" lon="8.5716200">
        <ele>-42.2</ele>
        <time>2022-06-10T10:54:10Z</time>
      </trkpt>
      <trkpt lat="47.4386330" lon="8.5713850">
        <ele>-42.4</ele>
        <time>2022-06-10T10:54:14Z</time>
      </trkpt>
      <trkpt lat="47.4385110" lon="8.5711730">
        <ele>-42.6</ele>
        <time>2022-06-10T10:54:18Z</time>
      </trkpt>
      <trkpt lat="47.4383780" lon="8.5709580">
        <ele>-42.6</ele>
        <time>2022-06-10T10:54:22Z</time>
      </trkpt>
      <trkpt lat="47.4382400" lon="8.5707510">
        <ele>-42.6</ele>
        <time>2022-06-10T10:54:26Z</time>
      </trkpt>
      <trkpt lat="47.4380930" lon="8.5705760">
        <ele>-42.8</ele>
        <time>2022-06-10T10:54:30Z</time>
      </trkpt>
      <trkpt lat="47.4379700" lon="8.5704130">
        <ele>-42.8</ele>
        <time>2022-06-10T10:54:34Z</time>
      </trkpt>
      <trkpt lat="47.4378330" lon="8.5702580">
        <ele>-43.4</ele>
        <time>2022-06-10T10:54:38Z</time>
      </trkpt>
      <trkpt lat="47.4376930" lon="8.5701100">
        <ele>-43.6</ele>
        <time>2022-06-10T10:54:42Z</time>
      </trkpt>
      <trkpt lat="47.4375660" lon="8.5699660">
        <ele>-44.2</ele>
        <time>2022-06-10T10:54:46Z</time>
      </trkpt>
      <trkpt lat="47.4374730" lon="8.5698260">
        <ele>-45.2</ele>
        <time>2022-06-10T10:54:50Z</time>
      </trkpt>
      <trkpt lat="47.4374310" lon="8.5697300">
        <ele>-45.2</ele>
        <time>2022-06-10T10:54:54Z</time>
      </trkpt>
      <trkpt lat="47.4374310" lon="8.5697300">
        <ele>-45.2</ele>
        <time>2022-06-10T10:54:58Z</time>
      </trkpt>
      <trkpt lat="47.4374010" lon="8.5697100">
        <ele>-45.2</ele>
        <time>2022-06-10T10:55:02Z</time>
      </trkpt>
      <trkpt lat="47.4373500" lon="8.5696660">
        <ele>-45.6</ele>
        <time>2022-06-10T10:55:06Z</time>
      </trkpt>
      <trkpt lat="47.4372680" lon="8.5696710">
        <ele>-45.6</ele>
        <time>2022-06-10T10:55:10Z</time>
      </trkpt>
      <trkpt lat="47.4371400" lon="8.5696000">
        <ele>-45.8</ele>
        <time>2022-06-10T10:55:14Z</time>
      </trkpt>
      <trkpt lat="47.4369810" lon="8.5694350">
        <ele>-47.0</ele>
        <time>2022-06-10T10:55:18Z</time>
      </trkpt>
      <trkpt lat="47.4368000" lon="8.5692380">
        <ele>-47.2</ele>
        <time>2022-06-10T10:55:22Z</time>
      </trkpt>
      <trkpt lat="47.4366000" lon="8.5690230">
        <ele>-48.0</ele>
        <time>2022-06-10T10:55:26Z</time>
      </trkpt>
      <trkpt lat="47.4363780" lon="8.5687950">
        <ele>-48.6</ele>
        <time>2022-06-10T10:55:30Z</time>
      </trkpt>
      <trkpt lat="47.4361450" lon="8.5685850">
        <ele>-48.8</ele>
        <time>2022-06-10T10:55:34Z</time>
      </trkpt>
      <trkpt lat="47.4359300" lon="8.5683530">
        <ele>-50.0</ele>
        <time>2022-06-10T10:55:38Z</time>
      </trkpt>
      <trkpt lat="47.4357030" lon="8.5681200">
        <ele>-51.2</ele>
        <time>2022-06-10T10:55:42Z</time>
      </trkpt>
      <trkpt lat="47.4354730" lon="8.5678730">
        <ele>-52.4</ele>
        <time>2022-06-10T10:55:46Z</time>
      </trkpt>
      <trkpt lat="47.4352500" lon="8.5676260">
        <ele>-52.8</ele>
        <time>2022-06-10T10:55:50Z</time>
      </trkpt>
      <trkpt lat="47.4350730" lon="8.5674200">
        <ele>-53.0</ele>
        <time>2022-06-10T10:55:54Z</time>
      </trkpt>
      <trkpt lat="47.4349550" lon="8.5672330">
        <ele>-53.4</ele>
        <time>2022-06-10T10:55:58Z</time>
      </trkpt>
      <trkpt lat="47.4348880" lon="8.5670200">
        <ele>-53.8</ele>
        <time>2022-06-10T10:56:02Z</time>
      </trkpt>
      <trkpt lat="47.4347310" lon="8.5669210">
        <ele>-53.6</ele>
        <time>2022-06-10T10:56:06Z</time>
      </trkpt>
      <trkpt lat="47.4345710" lon="8.5667550">
        <ele>-54.2</ele>
        <time>2022-06-10T10:56:10Z</time>
      </trkpt>
      <trkpt lat="47.4344130" lon="8.5665510">
        <ele>-54.4</ele>
        <time>2022-06-10T10:56:14Z</time>
      </trkpt>
      <trkpt lat="47.4342530" lon="8.5663460">
        <ele>-54.8</ele>
        <time>2022-06-10T10:56:18Z</time>
      </trkpt>
      <trkpt lat="47.4340910" lon="8.5661560">
        <ele>-53.6</ele>
        <time>2022-06-10T10:56:22Z</time>
      </trkpt>
      <trkpt lat="47.4339210" lon="8.5659860">
        <ele>-54.4</ele>
        <time>2022-06-10T10:56:26Z</time>
      </trkpt>
      <trkpt lat="47.4337400" lon="8.5658410">
        <ele>-53.8</ele>
        <time>2022-06-10T10:56:30Z</time>
      </trkpt>
      <trkpt lat="47.4335860" lon="8.5657350">
        <ele>-53.4</ele>
        <time>2022-06-10T10:56:34Z</time>
      </trkpt>
      <trkpt lat="47.4334930" lon="8.5656530">
        <ele>-52.8</ele>
        <time>2022-06-10T10:56:38Z</time>
      </trkpt>
      <trkpt lat="47.4334350" lon="8.5655960">
        <ele>-52.4</ele>
        <time>2022-06-10T10:56:42Z</time>
      </trkpt>
      <trkpt lat="47.4333730" lon="8.5655510">
        <ele>-51.8</ele>
        <time>2022-06-10T10:56:46Z</time>
      </trkpt>
      <trkpt lat="47.4333130" lon="8.5654910">
        <ele>-51.6</ele>
        <time>2022-06-10T10:56:50Z</time>
      </trkpt>
      <trkpt lat="47.4332380" lon="8.5654060">
        <ele>-50.8</ele>
        <time>2022-06-10T10:56:54Z</time>
      </trkpt>
      <trkpt lat="47.4331630" lon="8.5652930">
        <ele>-50.4</ele>
        <time>2022-06-10T10:56:58Z</time>
      </trkpt>
      <trkpt lat="47.4330850" lon="8.5651630">
        <ele>-50.4</ele>
        <time>2022-06-10T10:57:02Z</time>
      </trkpt>
      <trkpt lat="47.4330000" lon="8.5650310">
        <ele>-49.2</ele>
        <time>2022-06-10T10:57:06Z</time>
      </trkpt>
      <trkpt lat="47.4329000" lon="8.5649160">
        <ele>-49.2</ele>
        <time>2022-06-10T10:57:10Z</time>
      </trkpt>
      <trkpt lat="47.4328060" lon="8.5647680">
        <ele>-49.4</ele>
        <time>2022-06-10T10:57:14Z</time>
      </trkpt>
      <trkpt lat="47.4327110" lon="8.5646130">
        <ele>-49.0</ele>
        <time>2022-06-10T10:57:18Z</time>
      </trkpt>
      <trkpt lat="47.4326160" lon="8.5644580">
        <ele>-49.0</ele>
        <time>2022-06-10T10:57:22Z</time>
      </trkpt>
      <trkpt lat="47.4325350" lon="8.5642960">
        <ele>-48.6</ele>
        <time>2022-06-10T10:57:26Z</time>
      </trkpt>
      <trkpt lat="47.4324430" lon="8.5641580">
        <ele>-48.8</ele>
        <time>2022-06-10T10:57:30Z</time>
      </trkpt>
      <trkpt lat="47.4323530" lon="8.5640030">
        <ele>-49.0</ele>
        <time>2022-06-10T10:57:34Z</time>
      </trkpt>
      <trkpt lat="47.4322510" lon="8.5638510">
        <ele>-48.6</ele>
        <time>2022-06-10T10:57:38Z</time>
      </trkpt>
      <trkpt lat="47.4321500" lon="8.5637080">
        <ele>-48.2</ele>
        <time>2022-06-10T10:57:42Z</time>
      </trkpt>
      <trkpt lat="47.4320610" lon="8.5635330">
        <ele>-47.8</ele>
        <time>2022-06-10T10:57:46Z</time>
      </trkpt>
      <trkpt lat="47.4319700" lon="8.5633780">
        <ele>-48.2</ele>
        <time>2022-06-10T10:57:50Z</time>
      </trkpt>
      <trkpt lat="47.4318830" lon="8.5632480">
        <ele>-48.2</ele>
        <time>2022-06-10T10:57:54Z</time>
      </trkpt>
      <trkpt lat="47.4318360" lon="8.5631200">
        <ele>-48.0</ele>
        <time>2022-06-10T10:57:58Z</time>
      </trkpt>
      <trkpt lat="47.4318400" lon="8.5630510">
        <ele>-47.8</ele>
        <time>2022-06-10T10:58:02Z</time>
      </trkpt>
      <trkpt lat="47.4318080" lon="8.5629780">
        <ele>-47.8</ele>
        <time>2022-06-10T10:58:06Z</time>
      </trkpt>
      <trkpt lat="47.4317630" lon="8.5629160">
        <ele>-47.6</ele>
        <time>2022-06-10T10:58:10Z</time>
      </trkpt>
      <trkpt lat="47.4317630" lon="8.5629160">
        <ele>-47.8</ele>
        <time>2022-06-10T10:58:14Z</time>
      </trkpt>
      <trkpt lat="47.4317530" lon="8.5629610">
        <ele>-47.6</ele>
        <time>2022-06-10T10:58:18Z</time>
      </trkpt>
      <trkpt lat="47.4317860" lon="8.5630110">
        <ele>-47.6</ele>
        <time>2022-06-10T10:58:22Z</time>
      </trkpt>
      <trkpt lat="47.4318130" lon="8.5630560">
        <ele>-47.6</ele>
        <time>2022-06-10T10:58:26Z</time>
      </trkpt>
      <trkpt lat="47.4318130" lon="8.5630560">
        <ele>-48.0</ele>
        <time>2022-06-10T10:58:30Z</time>
      </trkpt>
      <trkpt lat="47.4318130" lon="8.5630560">
        <ele>-47.8</ele>
        <time>2022-06-10T10:58:34Z</time>
      </trkpt>
      <trkpt lat="47.4318130" lon="8.5630560">
        <ele>-48.0</ele>
        <time>2022-06-10T10:58:38Z</time>
      </trkpt>
      <trkpt lat="47.4318130" lon="8.5630560">
        <ele>-47.8</ele>
        <time>2022-06-10T10:58:42Z</time>
      </trkpt>
      <trkpt lat="47.4318130" lon="8.5630560">
        <ele>-47.8</ele>
        <time>2022-06-10T10:58:46Z</time>
      </trkpt>
      <trkpt lat="47.4318130" lon="8.5630560">
        <ele>-48.2</ele>
        <time>2022-06-10T10:58:50Z</time>
      </trkpt>
      <trkpt lat="47.4318130" lon="8.5630560">
        <ele>-48.0</ele>
        <time>2022-06-10T10:58:54Z</time>
      </trkpt>
    </trkseg>
  </trk>
</gpx>
